<?xml version="1.0" encoding="UTF-8" standalone="no" ?>
<gpx xmlns="http://www.topografix.com/GPX/1/1" xmlns:xsi="http://www.w3.org/2001/XMLSchema-instance" xsi:schemaLocation="http://www.topografix.com/GPX/1/1 http://www.topografix.com/GPX/1/1/gpx.xsd" version="1.1" creator="VisuGPX - https://www.visugpx.com">
  <metadata>
    <name>GR7 Des Vosges aux Pyrénées (2020)</name>
    <desc><![CDATA[Parcours VTT sur le GR7 en suivant la ligne du partage des eaux depuis les Vosges jusqu'aux Pyrénées. Total autonomie, en bivouac, en ultra léger en consommant un maximum de plantes sauvages sur la parcours. 

Puis suivi de la traversée des Pyrénées a pied par la "Haute Route des Pyrénées" (HRP) en autonomie. 
]]></desc>
  </metadata>
  <wpt lat="45.5789" lon="3.85579">
    <ele>1368.6</ele>
    <name><![CDATA[L'Ance confluent des eaux]]></name>
    <desc><![CDATA[L'Ance ou Ance du Nord est une rivière française, affluent direct de la Loire en rive gauche, au niveau de Bas-en-Basset. Elle traverse les département du Puy de Dôme, de la Loire et de la Haute-Loire dans la région Auvergne Rhône-Alpes.]]></desc>
  </wpt>
  <trk>
    <name><![CDATA[GR7 Des Vosges aux Pyrénées (2020)]]></name>
    <desc><![CDATA[Randonnée pédestre sur le GR7 en suivant la ligne du partage des eaux depuis les Vosges jusqu'aux Pyrénées. Gîtes d'étapes, Chambres d'hôtes, Maison d'hôtes, Hôtels, Camping, Refuges, Auberges.]]></desc>
    <extensions>
      <line xmlns="http://www.topografix.com/GPX/gpx_style/0/2">
        <color>0000FF</color>
        <width>4</width>
      </line>
    </extensions>
    <trkseg>
      <trkpt lat="47.82203" lon="6.84547">
        <ele>1239.919</ele>
        <time>2020-11-27T19:45:08Z</time>
      </trkpt>
      <trkpt lat="47.82203" lon="6.84547">
        <ele>1239.909</ele>
        <time>2020-11-27T19:45:28Z</time>
      </trkpt>
      <trkpt lat="47.82234" lon="6.84519">
        <ele>1244.419</ele>
        <time>2020-11-27T19:45:48Z</time>
      </trkpt>
      <trkpt lat="47.82285" lon="6.84588">
        <ele>1240.708</ele>
        <time>2020-11-27T19:46:08Z</time>
      </trkpt>
      <trkpt lat="47.82394" lon="6.84487">
        <ele>1237.137</ele>
        <time>2020-11-27T19:46:28Z</time>
      </trkpt>
      <trkpt lat="47.82508" lon="6.84229">
        <ele>1240.032</ele>
        <time>2020-11-27T19:46:48Z</time>
      </trkpt>
      <trkpt lat="47.82487" lon="6.84095">
        <ele>1235.283</ele>
        <time>2020-11-27T19:47:08Z</time>
      </trkpt>
      <trkpt lat="47.82484" lon="6.84003">
        <ele>1231.728</ele>
        <time>2020-11-27T19:47:28Z</time>
      </trkpt>
      <trkpt lat="47.82449" lon="6.83895">
        <ele>1229.997</ele>
        <time>2020-11-27T19:47:48Z</time>
      </trkpt>
      <trkpt lat="47.82374" lon="6.83869">
        <ele>1223.84</ele>
        <time>2020-11-27T19:48:08Z</time>
      </trkpt>
      <trkpt lat="47.82299" lon="6.83791">
        <ele>1207.737</ele>
        <time>2020-11-27T19:48:28Z</time>
      </trkpt>
      <trkpt lat="47.82209" lon="6.83657">
        <ele>1190.261</ele>
        <time>2020-11-27T19:48:48Z</time>
      </trkpt>
      <trkpt lat="47.82187" lon="6.83603">
        <ele>1184.734</ele>
        <time>2020-11-27T19:49:08Z</time>
      </trkpt>
      <trkpt lat="47.82148" lon="6.83546">
        <ele>1180.255</ele>
        <time>2020-11-27T19:49:28Z</time>
      </trkpt>
      <trkpt lat="47.82043" lon="6.83498">
        <ele>1172.01</ele>
        <time>2020-11-27T19:49:48Z</time>
      </trkpt>
      <trkpt lat="47.82037" lon="6.83482">
        <ele>1170.808</ele>
        <time>2015-08-17T07:29:37Z</time>
      </trkpt>
      <trkpt lat="47.82037" lon="6.83482">
        <ele>1170.819</ele>
        <time>2015-08-17T07:29:37Z</time>
      </trkpt>
      <trkpt lat="47.81983" lon="6.83442">
        <ele>1170.014</ele>
        <time>2015-08-17T07:29:57Z</time>
      </trkpt>
      <trkpt lat="47.81906" lon="6.83429">
        <ele>1168.325</ele>
        <time>2015-08-17T07:30:17Z</time>
      </trkpt>
      <trkpt lat="47.81859" lon="6.834">
        <ele>1163.82</ele>
        <time>2015-08-17T07:30:37Z</time>
      </trkpt>
      <trkpt lat="47.8184" lon="6.8335">
        <ele>1160.339</ele>
        <time>2015-08-17T07:30:57Z</time>
      </trkpt>
      <trkpt lat="47.81795" lon="6.8327">
        <ele>1156.152</ele>
        <time>2015-08-17T07:31:17Z</time>
      </trkpt>
      <trkpt lat="47.81783" lon="6.83242">
        <ele>1154.319</ele>
        <time>2015-08-17T07:31:37Z</time>
      </trkpt>
      <trkpt lat="47.81776" lon="6.83201">
        <ele>1150.143</ele>
        <time>2015-08-17T07:31:57Z</time>
      </trkpt>
      <trkpt lat="47.81754" lon="6.83154">
        <ele>1145.446</ele>
        <time>2015-08-17T07:32:17Z</time>
      </trkpt>
      <trkpt lat="47.81726" lon="6.83145">
        <ele>1143.288</ele>
        <time>2015-08-17T07:32:37Z</time>
      </trkpt>
      <trkpt lat="47.81717" lon="6.83132">
        <ele>1139.816</ele>
        <time>2015-08-17T07:32:57Z</time>
      </trkpt>
      <trkpt lat="47.81727" lon="6.83082">
        <ele>1133.008</ele>
        <time>2015-08-17T07:33:17Z</time>
      </trkpt>
      <trkpt lat="47.81737" lon="6.83061">
        <ele>1129.96</ele>
        <time>2015-08-17T07:33:37Z</time>
      </trkpt>
      <trkpt lat="47.81754" lon="6.83047">
        <ele>1126.945</ele>
        <time>2015-08-17T07:33:57Z</time>
      </trkpt>
      <trkpt lat="47.81753" lon="6.83008">
        <ele>1121.236</ele>
        <time>2015-08-17T07:34:17Z</time>
      </trkpt>
      <trkpt lat="47.81734" lon="6.8299">
        <ele>1118.711</ele>
        <time>2015-08-17T07:34:37Z</time>
      </trkpt>
      <trkpt lat="47.81724" lon="6.82974">
        <ele>1116.19</ele>
        <time>2015-08-17T07:34:57Z</time>
      </trkpt>
      <trkpt lat="47.81704" lon="6.82944">
        <ele>1113.693</ele>
        <time>2015-08-17T07:35:17Z</time>
      </trkpt>
      <trkpt lat="47.81693" lon="6.82936">
        <ele>1114.15</ele>
        <time>2015-08-17T07:35:37Z</time>
      </trkpt>
      <trkpt lat="47.81676" lon="6.82912">
        <ele>1115.144</ele>
        <time>2015-08-17T07:35:57Z</time>
      </trkpt>
      <trkpt lat="47.81662" lon="6.82866">
        <ele>1108.997</ele>
        <time>2015-08-17T07:36:17Z</time>
      </trkpt>
      <trkpt lat="47.81642" lon="6.8285">
        <ele>1107.823</ele>
        <time>2015-08-17T07:36:37Z</time>
      </trkpt>
      <trkpt lat="47.81633" lon="6.82814">
        <ele>1101.825</ele>
        <time>2015-08-17T07:36:57Z</time>
      </trkpt>
      <trkpt lat="47.81618" lon="6.8277">
        <ele>1098.708</ele>
        <time>2015-08-17T07:37:17Z</time>
      </trkpt>
      <trkpt lat="47.81608" lon="6.82728">
        <ele>1092.715</ele>
        <time>2015-08-17T07:37:37Z</time>
      </trkpt>
      <trkpt lat="47.81585" lon="6.82711">
        <ele>1095.75</ele>
        <time>2015-08-17T07:37:57Z</time>
      </trkpt>
      <trkpt lat="47.81558" lon="6.82674">
        <ele>1093.251</ele>
        <time>2015-08-17T07:38:17Z</time>
      </trkpt>
      <trkpt lat="47.81515" lon="6.82593">
        <ele>1087.926</ele>
        <time>2015-08-17T07:38:37Z</time>
      </trkpt>
      <trkpt lat="47.81507" lon="6.82553">
        <ele>1083.725</ele>
        <time>2015-08-17T07:38:57Z</time>
      </trkpt>
      <trkpt lat="47.81489" lon="6.82508">
        <ele>1081.138</ele>
        <time>2015-08-17T07:39:17Z</time>
      </trkpt>
      <trkpt lat="47.81472" lon="6.82422">
        <ele>1078.585</ele>
        <time>2015-08-17T07:39:37Z</time>
      </trkpt>
      <trkpt lat="47.81459" lon="6.82405">
        <ele>1079.019</ele>
        <time>2015-08-17T07:39:57Z</time>
      </trkpt>
      <trkpt lat="47.81451" lon="6.82384">
        <ele>1079.443</ele>
        <time>2015-08-17T07:40:17Z</time>
      </trkpt>
      <trkpt lat="47.81445" lon="6.82344">
        <ele>1078.664</ele>
        <time>2015-08-17T07:40:37Z</time>
      </trkpt>
      <trkpt lat="47.81438" lon="6.82324">
        <ele>1078.21</ele>
        <time>2015-08-17T07:40:57Z</time>
      </trkpt>
      <trkpt lat="47.81438" lon="6.82246">
        <ele>1079.608</ele>
        <time>2015-08-17T07:41:17Z</time>
      </trkpt>
      <trkpt lat="47.81448" lon="6.82235">
        <ele>1080.23</ele>
        <time>2015-08-17T07:41:37Z</time>
      </trkpt>
      <trkpt lat="47.81481" lon="6.82232">
        <ele>1075.715</ele>
        <time>2015-08-17T07:41:57Z</time>
      </trkpt>
      <trkpt lat="47.81499" lon="6.82217">
        <ele>1074.046</ele>
        <time>2015-08-17T07:42:17Z</time>
      </trkpt>
      <trkpt lat="47.81534" lon="6.82165">
        <ele>1075.811</ele>
        <time>2015-08-17T07:42:37Z</time>
      </trkpt>
      <trkpt lat="47.81555" lon="6.8214">
        <ele>1073.92</ele>
        <time>2015-08-17T07:42:57Z</time>
      </trkpt>
      <trkpt lat="47.81571" lon="6.82127">
        <ele>1068.343</ele>
        <time>2015-08-17T07:43:17Z</time>
      </trkpt>
      <trkpt lat="47.81578" lon="6.82111">
        <ele>1068.48</ele>
        <time>2015-08-17T07:43:37Z</time>
      </trkpt>
      <trkpt lat="47.81593" lon="6.82092">
        <ele>1066.734</ele>
        <time>2015-08-17T07:43:57Z</time>
      </trkpt>
      <trkpt lat="47.81601" lon="6.82075">
        <ele>1066.398</ele>
        <time>2015-08-17T07:44:17Z</time>
      </trkpt>
      <trkpt lat="47.81747" lon="6.81948">
        <ele>1024.115</ele>
        <time>2019-03-28T09:58:41Z</time>
      </trkpt>
      <trkpt lat="47.81831" lon="6.81811">
        <ele>979.826</ele>
        <time>2015-08-17T07:48:37Z</time>
      </trkpt>
      <trkpt lat="47.81845" lon="6.81765">
        <ele>969.008</ele>
        <time>2015-08-17T07:48:57Z</time>
      </trkpt>
      <trkpt lat="47.81865" lon="6.81733">
        <ele>962.245</ele>
        <time>2015-08-17T07:49:17Z</time>
      </trkpt>
      <trkpt lat="47.81853" lon="6.81715">
        <ele>962.11</ele>
        <time>2015-08-17T07:49:37Z</time>
      </trkpt>
      <trkpt lat="47.81849" lon="6.81688">
        <ele>959.481</ele>
        <time>2015-08-17T07:49:57Z</time>
      </trkpt>
      <trkpt lat="47.81874" lon="6.81584">
        <ele>959.336</ele>
        <time>2015-08-17T07:50:17Z</time>
      </trkpt>
      <trkpt lat="47.81871" lon="6.81469">
        <ele>968.955</ele>
        <time>2015-08-17T07:50:37Z</time>
      </trkpt>
      <trkpt lat="47.81862" lon="6.81437">
        <ele>970.718</ele>
        <time>2015-08-17T07:50:57Z</time>
      </trkpt>
      <trkpt lat="47.81831" lon="6.8139">
        <ele>971.695</ele>
        <time>2015-08-17T07:51:17Z</time>
      </trkpt>
      <trkpt lat="47.81802" lon="6.8139">
        <ele>968.679</ele>
        <time>2015-08-17T07:51:37Z</time>
      </trkpt>
      <trkpt lat="47.81754" lon="6.81362">
        <ele>965.512</ele>
        <time>2015-08-17T07:51:57Z</time>
      </trkpt>
      <trkpt lat="47.81722" lon="6.81333">
        <ele>962.832</ele>
        <time>2015-08-17T07:52:17Z</time>
      </trkpt>
      <trkpt lat="47.81705" lon="6.81312">
        <ele>960.005</ele>
        <time>2015-08-17T07:52:37Z</time>
      </trkpt>
      <trkpt lat="47.81655" lon="6.81181">
        <ele>957.708</ele>
        <time>2015-08-17T07:52:57Z</time>
      </trkpt>
      <trkpt lat="47.81638" lon="6.81089">
        <ele>967.277</ele>
        <time>2015-08-17T07:53:17Z</time>
      </trkpt>
      <trkpt lat="47.81557" lon="6.80895">
        <ele>977.252</ele>
        <time>2015-08-17T07:53:37Z</time>
      </trkpt>
      <trkpt lat="47.81516" lon="6.80814">
        <ele>986.273</ele>
        <time>2015-08-17T07:53:57Z</time>
      </trkpt>
      <trkpt lat="47.8147" lon="6.8074">
        <ele>989.888</ele>
        <time>2015-08-17T07:54:17Z</time>
      </trkpt>
      <trkpt lat="47.81459" lon="6.80714">
        <ele>989.487</ele>
        <time>2015-08-17T07:54:37Z</time>
      </trkpt>
      <trkpt lat="47.81459" lon="6.80702">
        <ele>989.88</ele>
        <time>2015-08-17T07:54:57Z</time>
      </trkpt>
      <trkpt lat="47.81474" lon="6.80686">
        <ele>990.857</ele>
        <time>2015-08-17T07:55:17Z</time>
      </trkpt>
      <trkpt lat="47.81567" lon="6.80678">
        <ele>1000.891</ele>
        <time>2015-08-17T07:55:37Z</time>
      </trkpt>
      <trkpt lat="47.81662" lon="6.80664">
        <ele>1011.831</ele>
        <time>2015-08-17T07:55:57Z</time>
      </trkpt>
      <trkpt lat="47.81703" lon="6.8064">
        <ele>1017.761</ele>
        <time>2015-08-17T07:56:17Z</time>
      </trkpt>
      <trkpt lat="47.8176" lon="6.80595">
        <ele>1023.507</ele>
        <time>2015-08-17T07:56:37Z</time>
      </trkpt>
      <trkpt lat="47.81782" lon="6.80598">
        <ele>1028.508</ele>
        <time>2015-08-17T07:56:57Z</time>
      </trkpt>
      <trkpt lat="47.81827" lon="6.80557">
        <ele>1033.499</ele>
        <time>2015-08-17T07:57:17Z</time>
      </trkpt>
      <trkpt lat="47.81838" lon="6.80506">
        <ele>1035.194</ele>
        <time>2015-08-17T07:57:37Z</time>
      </trkpt>
      <trkpt lat="47.81855" lon="6.8049">
        <ele>1036.525</ele>
        <time>2015-08-17T07:57:57Z</time>
      </trkpt>
      <trkpt lat="47.81883" lon="6.80475">
        <ele>1038.76</ele>
        <time>2015-08-17T07:58:17Z</time>
      </trkpt>
      <trkpt lat="47.81908" lon="6.80437">
        <ele>1040.379</ele>
        <time>2015-08-17T07:58:37Z</time>
      </trkpt>
      <trkpt lat="47.81937" lon="6.80417">
        <ele>1043.332</ele>
        <time>2015-08-17T07:58:57Z</time>
      </trkpt>
      <trkpt lat="47.81954" lon="6.80412">
        <ele>1047.319</ele>
        <time>2015-08-17T07:59:17Z</time>
      </trkpt>
      <trkpt lat="47.81967" lon="6.8039">
        <ele>1046.573</ele>
        <time>2015-08-17T07:59:37Z</time>
      </trkpt>
      <trkpt lat="47.82014" lon="6.80355">
        <ele>1049.736</ele>
        <time>2015-08-17T07:59:57Z</time>
      </trkpt>
      <trkpt lat="47.82045" lon="6.8035">
        <ele>1054.617</ele>
        <time>2015-08-17T08:00:17Z</time>
      </trkpt>
      <trkpt lat="47.82089" lon="6.80329">
        <ele>1063.218</ele>
        <time>2015-08-17T08:00:37Z</time>
      </trkpt>
      <trkpt lat="47.82108" lon="6.80308">
        <ele>1061.008</ele>
        <time>2015-08-17T08:00:57Z</time>
      </trkpt>
      <trkpt lat="47.82141" lon="6.80314">
        <ele>1071.049</ele>
        <time>2015-08-17T08:01:17Z</time>
      </trkpt>
      <trkpt lat="47.82238" lon="6.80265">
        <ele>1086.974</ele>
        <time>2015-08-17T08:01:37Z</time>
      </trkpt>
      <trkpt lat="47.82248" lon="6.80244">
        <ele>1084.945</ele>
        <time>2015-08-17T08:01:57Z</time>
      </trkpt>
      <trkpt lat="47.82275" lon="6.80218">
        <ele>1084.27</ele>
        <time>2015-08-17T08:02:17Z</time>
      </trkpt>
      <trkpt lat="47.82336" lon="6.80181">
        <ele>1088.099</ele>
        <time>2015-08-17T08:02:37Z</time>
      </trkpt>
      <trkpt lat="47.82371" lon="6.8015">
        <ele>1093.262</ele>
        <time>2015-08-17T08:02:57Z</time>
      </trkpt>
      <trkpt lat="47.82407" lon="6.801">
        <ele>1092.799</ele>
        <time>2015-08-17T08:03:17Z</time>
      </trkpt>
      <trkpt lat="47.82455" lon="6.8009">
        <ele>1100.023</ele>
        <time>2015-08-17T08:03:37Z</time>
      </trkpt>
      <trkpt lat="47.8248" lon="6.80071">
        <ele>1099.087</ele>
        <time>2015-08-17T08:03:57Z</time>
      </trkpt>
      <trkpt lat="47.82508" lon="6.8007">
        <ele>1101.142</ele>
        <time>2015-08-17T08:04:17Z</time>
      </trkpt>
      <trkpt lat="47.82524" lon="6.80078">
        <ele>1104.726</ele>
        <time>2015-08-17T08:04:37Z</time>
      </trkpt>
      <trkpt lat="47.82566" lon="6.80069">
        <ele>1104.508</ele>
        <time>2015-08-17T08:04:57Z</time>
      </trkpt>
      <trkpt lat="47.82592" lon="6.80046">
        <ele>1107.554</ele>
        <time>2015-08-17T08:05:17Z</time>
      </trkpt>
      <trkpt lat="47.82618" lon="6.80033">
        <ele>1112.899</ele>
        <time>2015-08-17T08:05:37Z</time>
      </trkpt>
      <trkpt lat="47.8264" lon="6.79994">
        <ele>1117.78</ele>
        <time>2015-08-17T08:05:57Z</time>
      </trkpt>
      <trkpt lat="47.82678" lon="6.79981">
        <ele>1124.375</ele>
        <time>2015-08-17T08:06:17Z</time>
      </trkpt>
      <trkpt lat="47.82721" lon="6.79937">
        <ele>1131.914</ele>
        <time>2015-08-17T08:06:37Z</time>
      </trkpt>
      <trkpt lat="47.82763" lon="6.79913">
        <ele>1140.297</ele>
        <time>2015-08-17T08:06:57Z</time>
      </trkpt>
      <trkpt lat="47.82774" lon="6.79899">
        <ele>1143.384</ele>
        <time>2015-08-17T08:07:17Z</time>
      </trkpt>
      <trkpt lat="47.82845" lon="6.79909">
        <ele>1152.638</ele>
        <time>2015-08-17T08:07:37Z</time>
      </trkpt>
      <trkpt lat="47.82858" lon="6.79902">
        <ele>1155.637</ele>
        <time>2015-08-17T08:07:57Z</time>
      </trkpt>
      <trkpt lat="47.82869" lon="6.79906">
        <ele>1156.749</ele>
        <time>2015-08-17T08:08:17Z</time>
      </trkpt>
      <trkpt lat="47.82927" lon="6.79901">
        <ele>1165.613</ele>
        <time>2015-08-17T08:08:37Z</time>
      </trkpt>
      <trkpt lat="47.82975" lon="6.79908">
        <ele>1167.208</ele>
        <time>2015-08-17T08:08:57Z</time>
      </trkpt>
      <trkpt lat="47.83013" lon="6.79944">
        <ele>1154.559</ele>
        <time>2020-11-27T20:26:28Z</time>
      </trkpt>
      <trkpt lat="47.83013" lon="6.80015">
        <ele>1145.224</ele>
        <time>2020-11-27T20:26:48Z</time>
      </trkpt>
      <trkpt lat="47.83031" lon="6.80021">
        <ele>1137.125</ele>
        <time>2020-11-27T20:27:08Z</time>
      </trkpt>
      <trkpt lat="47.83044" lon="6.80068">
        <ele>1127.96</ele>
        <time>2020-11-27T20:27:28Z</time>
      </trkpt>
      <trkpt lat="47.83058" lon="6.80059">
        <ele>1121.839</ele>
        <time>2020-11-27T20:27:48Z</time>
      </trkpt>
      <trkpt lat="47.83076" lon="6.80108">
        <ele>1116.352</ele>
        <time>2020-11-27T20:28:08Z</time>
      </trkpt>
      <trkpt lat="47.83102" lon="6.80142">
        <ele>1102.199</ele>
        <time>2020-11-27T20:28:28Z</time>
      </trkpt>
      <trkpt lat="47.83116" lon="6.80109">
        <ele>1092.013</ele>
        <time>2020-11-27T20:28:48Z</time>
      </trkpt>
      <trkpt lat="47.83133" lon="6.80135">
        <ele>1086.846</ele>
        <time>2020-11-27T20:29:08Z</time>
      </trkpt>
      <trkpt lat="47.83144" lon="6.80183">
        <ele>1078.788</ele>
        <time>2020-11-27T20:29:28Z</time>
      </trkpt>
      <trkpt lat="47.8316" lon="6.80167">
        <ele>1071.016</ele>
        <time>2020-11-27T20:29:48Z</time>
      </trkpt>
      <trkpt lat="47.83154" lon="6.80189">
        <ele>1074.008</ele>
        <time>2020-11-27T20:30:08Z</time>
      </trkpt>
      <trkpt lat="47.83171" lon="6.80182">
        <ele>1066.21</ele>
        <time>2020-11-27T20:30:28Z</time>
      </trkpt>
      <trkpt lat="47.83166" lon="6.80204">
        <ele>1068.665</ele>
        <time>2020-11-27T20:30:48Z</time>
      </trkpt>
      <trkpt lat="47.83188" lon="6.80215">
        <ele>1060.616</ele>
        <time>2020-11-27T20:31:08Z</time>
      </trkpt>
      <trkpt lat="47.83195" lon="6.80236">
        <ele>1058.631</ele>
        <time>2020-11-27T20:31:28Z</time>
      </trkpt>
      <trkpt lat="47.83205" lon="6.80247">
        <ele>1054.35</ele>
        <time>2020-11-27T20:31:48Z</time>
      </trkpt>
      <trkpt lat="47.83205" lon="6.80265">
        <ele>1050.943</ele>
        <time>2020-11-27T20:32:08Z</time>
      </trkpt>
      <trkpt lat="47.83245" lon="6.80312">
        <ele>1036.56</ele>
        <time>2020-11-27T20:32:28Z</time>
      </trkpt>
      <trkpt lat="47.83241" lon="6.80328">
        <ele>1033.314</ele>
        <time>2020-11-27T20:32:48Z</time>
      </trkpt>
      <trkpt lat="47.83253" lon="6.80358">
        <ele>1030.173</ele>
        <time>2020-11-27T20:33:08Z</time>
      </trkpt>
      <trkpt lat="47.83263" lon="6.80419">
        <ele>1017.885</ele>
        <time>2020-11-27T20:33:28Z</time>
      </trkpt>
      <trkpt lat="47.83295" lon="6.80464">
        <ele>1011.213</ele>
        <time>2020-11-27T20:33:48Z</time>
      </trkpt>
      <trkpt lat="47.8332" lon="6.80483">
        <ele>1000.608</ele>
        <time>2020-11-27T20:34:08Z</time>
      </trkpt>
      <trkpt lat="47.83328" lon="6.80472">
        <ele>997.723</ele>
        <time>2020-11-27T20:34:28Z</time>
      </trkpt>
      <trkpt lat="47.83337" lon="6.80499">
        <ele>992.578</ele>
        <time>2020-11-27T20:34:48Z</time>
      </trkpt>
      <trkpt lat="47.83357" lon="6.80514">
        <ele>985.669</ele>
        <time>2020-11-27T20:35:08Z</time>
      </trkpt>
      <trkpt lat="47.8337" lon="6.80552">
        <ele>984.634</ele>
        <time>2020-11-27T20:35:28Z</time>
      </trkpt>
      <trkpt lat="47.83392" lon="6.80569">
        <ele>982.973</ele>
        <time>2020-11-27T20:35:48Z</time>
      </trkpt>
      <trkpt lat="47.83425" lon="6.8058">
        <ele>978.586</ele>
        <time>2020-11-27T20:36:08Z</time>
      </trkpt>
      <trkpt lat="47.83512" lon="6.80649">
        <ele>961.183</ele>
        <time>2020-11-27T20:36:28Z</time>
      </trkpt>
      <trkpt lat="47.83525" lon="6.80677">
        <ele>957.667</ele>
        <time>2020-11-27T20:36:48Z</time>
      </trkpt>
      <trkpt lat="47.83533" lon="6.80661">
        <ele>952.574</ele>
        <time>2020-11-27T20:37:08Z</time>
      </trkpt>
      <trkpt lat="47.83584" lon="6.80727">
        <ele>947.156</ele>
        <time>2020-11-27T20:37:28Z</time>
      </trkpt>
      <trkpt lat="47.8358" lon="6.80737">
        <ele>947.021</ele>
        <time>2020-11-27T20:37:48Z</time>
      </trkpt>
      <trkpt lat="47.8359" lon="6.80746">
        <ele>943.608</ele>
        <time>2020-11-27T20:38:08Z</time>
      </trkpt>
      <trkpt lat="47.83611" lon="6.80745">
        <ele>938.343</ele>
        <time>2020-11-27T20:38:28Z</time>
      </trkpt>
      <trkpt lat="47.83614" lon="6.80732">
        <ele>934.718</ele>
        <time>2020-11-27T20:38:48Z</time>
      </trkpt>
      <trkpt lat="47.83629" lon="6.80729">
        <ele>928.349</ele>
        <time>2020-11-27T20:39:08Z</time>
      </trkpt>
      <trkpt lat="47.83635" lon="6.80742">
        <ele>928.634</ele>
        <time>2020-11-27T20:39:28Z</time>
      </trkpt>
      <trkpt lat="47.83648" lon="6.80745">
        <ele>924.753</ele>
        <time>2020-11-27T20:39:48Z</time>
      </trkpt>
      <trkpt lat="47.83664" lon="6.8074">
        <ele>918.596</ele>
        <time>2020-11-27T20:40:08Z</time>
      </trkpt>
      <trkpt lat="47.83663" lon="6.80723">
        <ele>916.263</ele>
        <time>2020-11-27T20:40:28Z</time>
      </trkpt>
      <trkpt lat="47.83679" lon="6.80725">
        <ele>911.267</ele>
        <time>2020-11-27T20:40:48Z</time>
      </trkpt>
      <trkpt lat="47.83714" lon="6.80764">
        <ele>899.494</ele>
        <time>2020-11-27T20:41:08Z</time>
      </trkpt>
      <trkpt lat="47.83732" lon="6.80764">
        <ele>893.057</ele>
        <time>2020-11-27T20:41:28Z</time>
      </trkpt>
      <trkpt lat="47.8372" lon="6.80789">
        <ele>891.022</ele>
        <time>2020-11-27T20:41:48Z</time>
      </trkpt>
      <trkpt lat="47.8377" lon="6.80781">
        <ele>879.208</ele>
        <time>2020-11-27T20:42:08Z</time>
      </trkpt>
      <trkpt lat="47.83767" lon="6.80746">
        <ele>878.195</ele>
        <time>2015-08-17T08:17:37Z</time>
      </trkpt>
      <trkpt lat="47.83753" lon="6.80704">
        <ele>873.82</ele>
        <time>2015-08-17T08:17:57Z</time>
      </trkpt>
      <trkpt lat="47.83677" lon="6.80619">
        <ele>871.641</ele>
        <time>2015-08-17T08:18:17Z</time>
      </trkpt>
      <trkpt lat="47.83585" lon="6.80438">
        <ele>862.646</ele>
        <time>2015-08-17T08:18:37Z</time>
      </trkpt>
      <trkpt lat="47.83583" lon="6.80337">
        <ele>860.625</ele>
        <time>2015-08-17T08:18:57Z</time>
      </trkpt>
      <trkpt lat="47.83596" lon="6.80323">
        <ele>863.738</ele>
        <time>2015-08-17T08:19:17Z</time>
      </trkpt>
      <trkpt lat="47.83673" lon="6.80341">
        <ele>854.265</ele>
        <time>2015-08-17T08:19:37Z</time>
      </trkpt>
      <trkpt lat="47.83693" lon="6.80333">
        <ele>852.589</ele>
        <time>2015-08-17T08:19:57Z</time>
      </trkpt>
      <trkpt lat="47.83719" lon="6.80286">
        <ele>847.073</ele>
        <time>2015-08-17T08:20:17Z</time>
      </trkpt>
      <trkpt lat="47.83732" lon="6.80209">
        <ele>847.585</ele>
        <time>2015-08-17T08:20:37Z</time>
      </trkpt>
      <trkpt lat="47.83737" lon="6.80096">
        <ele>854.413</ele>
        <time>2015-08-17T08:20:57Z</time>
      </trkpt>
      <trkpt lat="47.83746" lon="6.80078">
        <ele>858.308</ele>
        <time>2015-08-17T08:21:17Z</time>
      </trkpt>
      <trkpt lat="47.83795" lon="6.80083">
        <ele>842.673</ele>
        <time>2015-08-17T08:21:37Z</time>
      </trkpt>
      <trkpt lat="47.83834" lon="6.80011">
        <ele>834.378</ele>
        <time>2015-08-17T08:21:57Z</time>
      </trkpt>
      <trkpt lat="47.83847" lon="6.79896">
        <ele>838.189</ele>
        <time>2015-08-17T08:22:17Z</time>
      </trkpt>
      <trkpt lat="47.83863" lon="6.79847">
        <ele>834.694</ele>
        <time>2015-08-17T08:22:37Z</time>
      </trkpt>
      <trkpt lat="47.83882" lon="6.79847">
        <ele>828.453</ele>
        <time>2015-08-17T08:22:57Z</time>
      </trkpt>
      <trkpt lat="47.83883" lon="6.79906">
        <ele>823.136</ele>
        <time>2015-08-17T08:23:17Z</time>
      </trkpt>
      <trkpt lat="47.83877" lon="6.79941">
        <ele>823.223</ele>
        <time>2015-08-17T08:23:37Z</time>
      </trkpt>
      <trkpt lat="47.83875" lon="6.79967">
        <ele>821.857</ele>
        <time>2015-08-17T08:23:57Z</time>
      </trkpt>
      <trkpt lat="47.83863" lon="6.79998">
        <ele>822.566</ele>
        <time>2015-08-17T08:24:17Z</time>
      </trkpt>
      <trkpt lat="47.83872" lon="6.80054">
        <ele>808.829</ele>
        <time>2015-08-17T08:24:37Z</time>
      </trkpt>
      <trkpt lat="47.83884" lon="6.8006">
        <ele>803.721</ele>
        <time>2015-08-17T08:24:57Z</time>
      </trkpt>
      <trkpt lat="47.83918" lon="6.80013">
        <ele>796.808</ele>
        <time>2015-08-17T08:25:17Z</time>
      </trkpt>
      <trkpt lat="47.83942" lon="6.7999">
        <ele>792.122</ele>
        <time>2015-08-17T08:25:37Z</time>
      </trkpt>
      <trkpt lat="47.83973" lon="6.7992">
        <ele>793.467</ele>
        <time>2015-08-17T08:25:57Z</time>
      </trkpt>
      <trkpt lat="47.83994" lon="6.799">
        <ele>795.598</ele>
        <time>2015-08-17T08:26:17Z</time>
      </trkpt>
      <trkpt lat="47.84023" lon="6.79905">
        <ele>793.553</ele>
        <time>2015-08-17T08:26:37Z</time>
      </trkpt>
      <trkpt lat="47.84209" lon="6.80036">
        <ele>766.152</ele>
        <time>2015-08-17T08:26:57Z</time>
      </trkpt>
      <trkpt lat="47.84242" lon="6.8004">
        <ele>767.995</ele>
        <time>2015-08-17T08:27:17Z</time>
      </trkpt>
      <trkpt lat="47.84321" lon="6.80115">
        <ele>759.942</ele>
        <time>2015-08-17T08:27:37Z</time>
      </trkpt>
      <trkpt lat="47.84323" lon="6.80136">
        <ele>755.756</ele>
        <time>2015-08-17T08:27:57Z</time>
      </trkpt>
      <trkpt lat="47.84457" lon="6.80284">
        <ele>749.748</ele>
        <time>2015-08-17T08:28:17Z</time>
      </trkpt>
      <trkpt lat="47.84555" lon="6.80349">
        <ele>750.861</ele>
        <time>2015-08-17T08:28:37Z</time>
      </trkpt>
      <trkpt lat="47.84605" lon="6.80368">
        <ele>751.617</ele>
        <time>2015-08-17T08:28:57Z</time>
      </trkpt>
      <trkpt lat="47.84657" lon="6.80365">
        <ele>749.008</ele>
        <time>2015-08-17T08:29:17Z</time>
      </trkpt>
      <trkpt lat="47.84687" lon="6.80301">
        <ele>743.91</ele>
        <time>2015-08-17T08:29:37Z</time>
      </trkpt>
      <trkpt lat="47.84693" lon="6.80238">
        <ele>743.275</ele>
        <time>2015-08-17T08:29:57Z</time>
      </trkpt>
      <trkpt lat="47.84688" lon="6.80141">
        <ele>742.936</ele>
        <time>2015-08-17T08:30:17Z</time>
      </trkpt>
      <trkpt lat="47.84717" lon="6.80061">
        <ele>737.881</ele>
        <time>2015-08-17T08:30:37Z</time>
      </trkpt>
      <trkpt lat="47.84748" lon="6.79832">
        <ele>728.01</ele>
        <time>2015-08-17T08:30:57Z</time>
      </trkpt>
      <trkpt lat="47.84749" lon="6.7978">
        <ele>730.193</ele>
        <time>2015-08-17T08:31:17Z</time>
      </trkpt>
      <trkpt lat="47.84776" lon="6.79751">
        <ele>734.68</ele>
        <time>2015-08-17T08:31:37Z</time>
      </trkpt>
      <trkpt lat="47.84817" lon="6.79776">
        <ele>733.734</ele>
        <time>2015-08-17T08:31:57Z</time>
      </trkpt>
      <trkpt lat="47.84849" lon="6.79808">
        <ele>729.622</ele>
        <time>2015-08-17T08:32:17Z</time>
      </trkpt>
      <trkpt lat="47.84935" lon="6.79847">
        <ele>729.162</ele>
        <time>2015-08-17T08:32:37Z</time>
      </trkpt>
      <trkpt lat="47.84998" lon="6.79859">
        <ele>726.408</ele>
        <time>2020-11-27T20:57:48Z</time>
      </trkpt>
      <trkpt lat="47.85037" lon="6.7983">
        <ele>725.508</ele>
        <time>2015-08-17T08:33:17Z</time>
      </trkpt>
      <trkpt lat="47.85085" lon="6.79781">
        <ele>726.198</ele>
        <time>2020-11-27T20:58:28Z</time>
      </trkpt>
      <trkpt lat="47.85083" lon="6.79735">
        <ele>730.623</ele>
        <time>2020-11-27T20:58:48Z</time>
      </trkpt>
      <trkpt lat="47.85066" lon="6.79706">
        <ele>732.124</ele>
        <time>2020-11-27T20:59:08Z</time>
      </trkpt>
      <trkpt lat="47.8505" lon="6.79704">
        <ele>733.459</ele>
        <time>2015-08-17T08:35:57Z</time>
      </trkpt>
      <trkpt lat="47.84989" lon="6.79637">
        <ele>740.668</ele>
        <time>2015-08-17T08:36:17Z</time>
      </trkpt>
      <trkpt lat="47.8493" lon="6.79493">
        <ele>747.321</ele>
        <time>2015-08-17T08:36:37Z</time>
      </trkpt>
      <trkpt lat="47.84887" lon="6.79409">
        <ele>754.488</ele>
        <time>2015-08-17T08:36:57Z</time>
      </trkpt>
      <trkpt lat="47.84876" lon="6.79259">
        <ele>769.392</ele>
        <time>2015-08-17T08:37:17Z</time>
      </trkpt>
      <trkpt lat="47.84947" lon="6.79257">
        <ele>770.177</ele>
        <time>2015-08-17T08:37:37Z</time>
      </trkpt>
      <trkpt lat="47.84981" lon="6.7921">
        <ele>768.361</ele>
        <time>2015-08-17T08:37:57Z</time>
      </trkpt>
      <trkpt lat="47.84983" lon="6.79152">
        <ele>767.327</ele>
        <time>2015-08-17T08:38:17Z</time>
      </trkpt>
      <trkpt lat="47.84937" lon="6.79072">
        <ele>781.308</ele>
        <time>2015-08-17T08:38:37Z</time>
      </trkpt>
      <trkpt lat="47.84923" lon="6.78999">
        <ele>776.813</ele>
        <time>2015-08-17T08:38:57Z</time>
      </trkpt>
      <trkpt lat="47.84933" lon="6.7895">
        <ele>778.028</ele>
        <time>2015-08-17T08:39:17Z</time>
      </trkpt>
      <trkpt lat="47.84998" lon="6.78871">
        <ele>777.799</ele>
        <time>2015-08-17T08:39:37Z</time>
      </trkpt>
      <trkpt lat="47.85073" lon="6.78839">
        <ele>773.344</ele>
        <time>2015-08-17T08:39:57Z</time>
      </trkpt>
      <trkpt lat="47.85087" lon="6.78827">
        <ele>774.483</ele>
        <time>2015-08-17T08:40:17Z</time>
      </trkpt>
      <trkpt lat="47.85145" lon="6.78808">
        <ele>772.176</ele>
        <time>2015-08-17T08:40:37Z</time>
      </trkpt>
      <trkpt lat="47.85189" lon="6.78772">
        <ele>776.813</ele>
        <time>2015-08-17T08:40:57Z</time>
      </trkpt>
      <trkpt lat="47.85272" lon="6.78747">
        <ele>774.727</ele>
        <time>2015-08-17T08:41:17Z</time>
      </trkpt>
      <trkpt lat="47.85303" lon="6.78686">
        <ele>786.186</ele>
        <time>2015-08-17T08:41:37Z</time>
      </trkpt>
      <trkpt lat="47.8535" lon="6.78682">
        <ele>787.26</ele>
        <time>2015-08-17T08:41:57Z</time>
      </trkpt>
      <trkpt lat="47.85424" lon="6.78694">
        <ele>789.926</ele>
        <time>2015-08-17T08:42:17Z</time>
      </trkpt>
      <trkpt lat="47.85451" lon="6.78733">
        <ele>783.608</ele>
        <time>2015-08-17T08:42:37Z</time>
      </trkpt>
      <trkpt lat="47.85554" lon="6.78756">
        <ele>781.924</ele>
        <time>2015-08-17T08:42:57Z</time>
      </trkpt>
      <trkpt lat="47.85596" lon="6.78719">
        <ele>780.989</ele>
        <time>2015-08-17T08:43:17Z</time>
      </trkpt>
      <trkpt lat="47.85608" lon="6.78647">
        <ele>776.47</ele>
        <time>2015-08-17T08:43:37Z</time>
      </trkpt>
      <trkpt lat="47.85604" lon="6.78543">
        <ele>771.895</ele>
        <time>2015-08-17T08:43:57Z</time>
      </trkpt>
      <trkpt lat="47.85604" lon="6.78487">
        <ele>767.414</ele>
        <time>2015-08-17T08:44:17Z</time>
      </trkpt>
      <trkpt lat="47.85595" lon="6.784">
        <ele>764.957</ele>
        <time>2015-08-17T08:44:37Z</time>
      </trkpt>
      <trkpt lat="47.8562" lon="6.78363">
        <ele>761.964</ele>
        <time>2015-08-17T08:44:57Z</time>
      </trkpt>
      <trkpt lat="47.85643" lon="6.78312">
        <ele>763.938</ele>
        <time>2015-08-17T08:45:17Z</time>
      </trkpt>
      <trkpt lat="47.85697" lon="6.78211">
        <ele>758.958</ele>
        <time>2015-08-17T08:45:37Z</time>
      </trkpt>
      <trkpt lat="47.85759" lon="6.78164">
        <ele>752.352</ele>
        <time>2015-08-17T08:45:57Z</time>
      </trkpt>
      <trkpt lat="47.85805" lon="6.78103">
        <ele>745.817</ele>
        <time>2015-08-17T08:46:17Z</time>
      </trkpt>
      <trkpt lat="47.85814" lon="6.78037">
        <ele>742.308</ele>
        <time>2015-08-17T08:46:37Z</time>
      </trkpt>
      <trkpt lat="47.85815" lon="6.77958">
        <ele>741.231</ele>
        <time>2015-08-17T08:46:57Z</time>
      </trkpt>
      <trkpt lat="47.85825" lon="6.77907">
        <ele>742.266</ele>
        <time>2015-08-17T08:47:17Z</time>
      </trkpt>
      <trkpt lat="47.85857" lon="6.77884">
        <ele>738.047</ele>
        <time>2015-08-17T08:47:37Z</time>
      </trkpt>
      <trkpt lat="47.85893" lon="6.77849">
        <ele>732.832</ele>
        <time>2015-08-17T08:47:57Z</time>
      </trkpt>
      <trkpt lat="47.85929" lon="6.77772">
        <ele>731.151</ele>
        <time>2015-08-17T08:48:17Z</time>
      </trkpt>
      <trkpt lat="47.85984" lon="6.77735">
        <ele>720.954</ele>
        <time>2015-08-17T08:48:37Z</time>
      </trkpt>
      <trkpt lat="47.86009" lon="6.7764">
        <ele>715.831</ele>
        <time>2015-08-17T08:48:57Z</time>
      </trkpt>
      <trkpt lat="47.86" lon="6.77559">
        <ele>713.555</ele>
        <time>2015-08-17T08:49:17Z</time>
      </trkpt>
      <trkpt lat="47.86035" lon="6.7745">
        <ele>696.243</ele>
        <time>2015-08-17T08:49:37Z</time>
      </trkpt>
      <trkpt lat="47.86019" lon="6.77366">
        <ele>695.364</ele>
        <time>2015-08-17T08:49:57Z</time>
      </trkpt>
      <trkpt lat="47.86022" lon="6.77313">
        <ele>689.51</ele>
        <time>2015-08-17T08:50:17Z</time>
      </trkpt>
      <trkpt lat="47.86038" lon="6.77251">
        <ele>677.908</ele>
        <time>2015-08-17T08:50:37Z</time>
      </trkpt>
      <trkpt lat="47.86038" lon="6.77187">
        <ele>671.69</ele>
        <time>2015-08-17T08:50:57Z</time>
      </trkpt>
      <trkpt lat="47.86043" lon="6.7715">
        <ele>665.235</ele>
        <time>2015-08-17T08:51:17Z</time>
      </trkpt>
      <trkpt lat="47.86033" lon="6.7711">
        <ele>662.886</ele>
        <time>2015-08-17T08:51:37Z</time>
      </trkpt>
      <trkpt lat="47.86037" lon="6.77037">
        <ele>658.631</ele>
        <time>2015-08-17T08:51:57Z</time>
      </trkpt>
      <trkpt lat="47.86065" lon="6.7701">
        <ele>656.17</ele>
        <time>2015-08-17T08:52:17Z</time>
      </trkpt>
      <trkpt lat="47.86076" lon="6.76972">
        <ele>657.783</ele>
        <time>2015-08-17T08:52:37Z</time>
      </trkpt>
      <trkpt lat="47.86108" lon="6.76951">
        <ele>656.63</ele>
        <time>2015-08-17T08:52:57Z</time>
      </trkpt>
      <trkpt lat="47.86121" lon="6.7694">
        <ele>656.614</ele>
        <time>2015-08-17T08:53:17Z</time>
      </trkpt>
      <trkpt lat="47.8615" lon="6.76931">
        <ele>656.055</ele>
        <time>2015-08-17T08:53:37Z</time>
      </trkpt>
      <trkpt lat="47.86204" lon="6.76904">
        <ele>653.107</ele>
        <time>2015-08-17T08:53:57Z</time>
      </trkpt>
      <trkpt lat="47.86261" lon="6.76829">
        <ele>649.917</ele>
        <time>2015-08-17T08:54:17Z</time>
      </trkpt>
      <trkpt lat="47.86326" lon="6.76633">
        <ele>652.908</ele>
        <time>2015-08-17T08:54:37Z</time>
      </trkpt>
      <trkpt lat="47.86303" lon="6.7664">
        <ele>657.321</ele>
        <time>2015-08-17T08:54:57Z</time>
      </trkpt>
      <trkpt lat="47.86285" lon="6.76503">
        <ele>674.926</ele>
        <time>2015-08-17T08:55:17Z</time>
      </trkpt>
      <trkpt lat="47.86297" lon="6.76369">
        <ele>680.557</ele>
        <time>2015-08-17T08:55:37Z</time>
      </trkpt>
      <trkpt lat="47.86294" lon="6.76331">
        <ele>682.212</ele>
        <time>2015-08-17T08:55:57Z</time>
      </trkpt>
      <trkpt lat="47.86308" lon="6.76291">
        <ele>681.191</ele>
        <time>2015-08-17T08:56:17Z</time>
      </trkpt>
      <trkpt lat="47.86299" lon="6.7619">
        <ele>683.554</ele>
        <time>2015-08-17T08:56:37Z</time>
      </trkpt>
      <trkpt lat="47.86302" lon="6.76107">
        <ele>680.251</ele>
        <time>2015-08-17T08:56:57Z</time>
      </trkpt>
      <trkpt lat="47.86281" lon="6.76066">
        <ele>679.425</ele>
        <time>2015-08-17T08:57:17Z</time>
      </trkpt>
      <trkpt lat="47.86247" lon="6.76032">
        <ele>680.964</ele>
        <time>2015-08-17T08:57:37Z</time>
      </trkpt>
      <trkpt lat="47.86223" lon="6.76014">
        <ele>684.806</ele>
        <time>2015-08-17T08:57:57Z</time>
      </trkpt>
      <trkpt lat="47.86198" lon="6.7586">
        <ele>697.416</ele>
        <time>2015-08-17T08:58:17Z</time>
      </trkpt>
      <trkpt lat="47.86204" lon="6.75771">
        <ele>699.108</ele>
        <time>2015-08-17T08:58:37Z</time>
      </trkpt>
      <trkpt lat="47.86182" lon="6.75704">
        <ele>698.472</ele>
        <time>2015-08-17T08:58:57Z</time>
      </trkpt>
      <trkpt lat="47.86162" lon="6.75686">
        <ele>698.797</ele>
        <time>2015-08-17T08:59:17Z</time>
      </trkpt>
      <trkpt lat="47.86144" lon="6.75629">
        <ele>696.948</ele>
        <time>2015-08-17T08:59:37Z</time>
      </trkpt>
      <trkpt lat="47.86133" lon="6.75557">
        <ele>695.373</ele>
        <time>2015-08-17T08:59:57Z</time>
      </trkpt>
      <trkpt lat="47.86118" lon="6.75495">
        <ele>689.412</ele>
        <time>2015-08-17T09:00:17Z</time>
      </trkpt>
      <trkpt lat="47.86101" lon="6.75478">
        <ele>693.585</ele>
        <time>2015-08-17T09:00:37Z</time>
      </trkpt>
      <trkpt lat="47.86052" lon="6.75378">
        <ele>698.922</ele>
        <time>2015-08-17T09:00:57Z</time>
      </trkpt>
      <trkpt lat="47.8603" lon="6.75337">
        <ele>703.766</ele>
        <time>2015-08-17T09:01:17Z</time>
      </trkpt>
      <trkpt lat="47.86013" lon="6.7529">
        <ele>702.574</ele>
        <time>2015-08-17T09:01:37Z</time>
      </trkpt>
      <trkpt lat="47.85956" lon="6.7524">
        <ele>715.256</ele>
        <time>2015-08-17T09:01:57Z</time>
      </trkpt>
      <trkpt lat="47.85921" lon="6.7517">
        <ele>723.521</ele>
        <time>2015-08-17T09:02:17Z</time>
      </trkpt>
      <trkpt lat="47.8593" lon="6.75155">
        <ele>717.708</ele>
        <time>2015-08-17T09:02:37Z</time>
      </trkpt>
      <trkpt lat="47.85936" lon="6.75101">
        <ele>716.733</ele>
        <time>2015-08-17T09:02:57Z</time>
      </trkpt>
      <trkpt lat="47.85951" lon="6.75046">
        <ele>711.058</ele>
        <time>2015-08-17T09:03:17Z</time>
      </trkpt>
      <trkpt lat="47.85967" lon="6.75001">
        <ele>702.819</ele>
        <time>2015-08-17T09:03:37Z</time>
      </trkpt>
      <trkpt lat="47.85966" lon="6.74919">
        <ele>698.784</ele>
        <time>2015-08-17T09:03:57Z</time>
      </trkpt>
      <trkpt lat="47.85976" lon="6.7485">
        <ele>689.543</ele>
        <time>2015-08-17T09:04:17Z</time>
      </trkpt>
      <trkpt lat="47.85971" lon="6.74763">
        <ele>683.816</ele>
        <time>2015-08-17T09:04:37Z</time>
      </trkpt>
      <trkpt lat="47.85978" lon="6.74724">
        <ele>679.993</ele>
        <time>2015-08-17T09:04:57Z</time>
      </trkpt>
      <trkpt lat="47.86009" lon="6.74695">
        <ele>687.397</ele>
        <time>2015-08-17T09:05:17Z</time>
      </trkpt>
      <trkpt lat="47.86084" lon="6.74649">
        <ele>684.754</ele>
        <time>2015-08-17T09:05:37Z</time>
      </trkpt>
      <trkpt lat="47.8612" lon="6.74528">
        <ele>684.056</ele>
        <time>2015-08-17T09:05:57Z</time>
      </trkpt>
      <trkpt lat="47.86124" lon="6.7433">
        <ele>686.911</ele>
        <time>2015-08-17T09:06:17Z</time>
      </trkpt>
      <trkpt lat="47.8619" lon="6.74099">
        <ele>685.708</ele>
        <time>2015-08-17T09:06:37Z</time>
      </trkpt>
      <trkpt lat="47.86182" lon="6.74047">
        <ele>693.431</ele>
        <time>2015-08-17T09:06:57Z</time>
      </trkpt>
      <trkpt lat="47.86118" lon="6.73994">
        <ele>693.526</ele>
        <time>2015-08-17T09:07:17Z</time>
      </trkpt>
      <trkpt lat="47.86132" lon="6.73933">
        <ele>700.037</ele>
        <time>2015-08-17T09:07:37Z</time>
      </trkpt>
      <trkpt lat="47.8613" lon="6.73883">
        <ele>703.132</ele>
        <time>2015-08-17T09:07:57Z</time>
      </trkpt>
      <trkpt lat="47.86133" lon="6.73824">
        <ele>706.291</ele>
        <time>2015-08-17T09:08:17Z</time>
      </trkpt>
      <trkpt lat="47.86095" lon="6.73748">
        <ele>704.764</ele>
        <time>2015-08-17T09:08:37Z</time>
      </trkpt>
      <trkpt lat="47.861" lon="6.73717">
        <ele>701.591</ele>
        <time>2015-08-17T09:08:57Z</time>
      </trkpt>
      <trkpt lat="47.86119" lon="6.73711">
        <ele>702.315</ele>
        <time>2015-08-17T09:09:17Z</time>
      </trkpt>
      <trkpt lat="47.86172" lon="6.73784">
        <ele>714.137</ele>
        <time>2015-08-17T09:09:37Z</time>
      </trkpt>
      <trkpt lat="47.86215" lon="6.73761">
        <ele>720.649</ele>
        <time>2015-08-17T09:09:57Z</time>
      </trkpt>
      <trkpt lat="47.86259" lon="6.73758">
        <ele>721.913</ele>
        <time>2015-08-17T09:10:17Z</time>
      </trkpt>
      <trkpt lat="47.86316" lon="6.73707">
        <ele>730.208</ele>
        <time>2015-08-17T09:10:37Z</time>
      </trkpt>
      <trkpt lat="47.86411" lon="6.73685">
        <ele>738.559</ele>
        <time>2015-08-17T09:10:57Z</time>
      </trkpt>
      <trkpt lat="47.86554" lon="6.7374">
        <ele>746.724</ele>
        <time>2015-08-17T09:11:17Z</time>
      </trkpt>
      <trkpt lat="47.86562" lon="6.73774">
        <ele>743.495</ele>
        <time>2015-08-17T09:11:37Z</time>
      </trkpt>
      <trkpt lat="47.86609" lon="6.73822">
        <ele>741.47</ele>
        <time>2015-08-17T09:11:57Z</time>
      </trkpt>
      <trkpt lat="47.86648" lon="6.7394">
        <ele>718.499</ele>
        <time>2015-08-17T09:12:17Z</time>
      </trkpt>
      <trkpt lat="47.8667" lon="6.73979">
        <ele>709.782</ele>
        <time>2015-08-17T09:12:37Z</time>
      </trkpt>
      <trkpt lat="47.86712" lon="6.74002">
        <ele>698.859</ele>
        <time>2015-08-17T09:12:57Z</time>
      </trkpt>
      <trkpt lat="47.86756" lon="6.74033">
        <ele>688.163</ele>
        <time>2015-08-17T09:13:17Z</time>
      </trkpt>
      <trkpt lat="47.86776" lon="6.74082">
        <ele>674.579</ele>
        <time>2015-08-17T09:13:37Z</time>
      </trkpt>
      <trkpt lat="47.8681" lon="6.74096">
        <ele>670.405</ele>
        <time>2015-08-17T09:13:57Z</time>
      </trkpt>
      <trkpt lat="47.86837" lon="6.74113">
        <ele>665.225</ele>
        <time>2015-08-17T09:14:17Z</time>
      </trkpt>
      <trkpt lat="47.86853" lon="6.74156">
        <ele>656.308</ele>
        <time>2015-08-17T09:14:37Z</time>
      </trkpt>
      <trkpt lat="47.86886" lon="6.74163">
        <ele>651.463</ele>
        <time>2015-08-17T09:14:57Z</time>
      </trkpt>
      <trkpt lat="47.86935" lon="6.74191">
        <ele>643.728</ele>
        <time>2015-08-17T09:15:17Z</time>
      </trkpt>
      <trkpt lat="47.87021" lon="6.74288">
        <ele>625.619</ele>
        <time>2019-03-28T11:26:01Z</time>
      </trkpt>
      <trkpt lat="47.87077" lon="6.7437">
        <ele>620.754</ele>
        <time>2019-03-28T11:26:21Z</time>
      </trkpt>
      <trkpt lat="47.87126" lon="6.74384">
        <ele>622.623</ele>
        <time>2019-03-28T11:26:41Z</time>
      </trkpt>
      <trkpt lat="47.87117" lon="6.74283">
        <ele>630.596</ele>
        <time>2019-03-28T11:27:01Z</time>
      </trkpt>
      <trkpt lat="47.87126" lon="6.74145">
        <ele>642.893</ele>
        <time>2019-03-28T11:27:21Z</time>
      </trkpt>
      <trkpt lat="47.87166" lon="6.7406">
        <ele>632.727</ele>
        <time>2015-08-17T09:17:17Z</time>
      </trkpt>
      <trkpt lat="47.87167" lon="6.74023">
        <ele>627.572</ele>
        <time>2015-08-17T09:17:37Z</time>
      </trkpt>
      <trkpt lat="47.87139" lon="6.73932">
        <ele>625.713</ele>
        <time>2015-08-17T09:17:57Z</time>
      </trkpt>
      <trkpt lat="47.87112" lon="6.73884">
        <ele>630.214</ele>
        <time>2015-08-17T09:18:17Z</time>
      </trkpt>
      <trkpt lat="47.87104" lon="6.73859">
        <ele>630.808</ele>
        <time>2015-08-17T09:18:37Z</time>
      </trkpt>
      <trkpt lat="47.8709" lon="6.7369">
        <ele>630.583</ele>
        <time>2015-08-17T09:18:57Z</time>
      </trkpt>
      <trkpt lat="47.87072" lon="6.73611">
        <ele>637.758</ele>
        <time>2019-03-28T11:29:41Z</time>
      </trkpt>
      <trkpt lat="47.87071" lon="6.73503">
        <ele>640.769</ele>
        <time>2015-08-17T09:19:37Z</time>
      </trkpt>
      <trkpt lat="47.87083" lon="6.73485">
        <ele>640.994</ele>
        <time>2015-08-17T09:19:57Z</time>
      </trkpt>
      <trkpt lat="47.87124" lon="6.73489">
        <ele>644.063</ele>
        <time>2015-08-17T09:20:17Z</time>
      </trkpt>
      <trkpt lat="47.87153" lon="6.73476">
        <ele>647.326</ele>
        <time>2015-08-17T09:20:37Z</time>
      </trkpt>
      <trkpt lat="47.87202" lon="6.73493">
        <ele>647.043</ele>
        <time>2015-08-17T09:20:57Z</time>
      </trkpt>
      <trkpt lat="47.87245" lon="6.73501">
        <ele>649.347</ele>
        <time>2015-08-17T09:21:17Z</time>
      </trkpt>
      <trkpt lat="47.87285" lon="6.73498">
        <ele>654.226</ele>
        <time>2015-08-17T09:21:37Z</time>
      </trkpt>
      <trkpt lat="47.8731" lon="6.73487">
        <ele>655.547</ele>
        <time>2015-08-17T09:21:57Z</time>
      </trkpt>
      <trkpt lat="47.87342" lon="6.73441">
        <ele>653.511</ele>
        <time>2015-08-17T09:22:17Z</time>
      </trkpt>
      <trkpt lat="47.8734" lon="6.73374">
        <ele>662.308</ele>
        <time>2015-08-17T09:22:37Z</time>
      </trkpt>
      <trkpt lat="47.87369" lon="6.73286">
        <ele>672.698</ele>
        <time>2015-08-17T09:22:57Z</time>
      </trkpt>
      <trkpt lat="47.87391" lon="6.73252">
        <ele>672.773</ele>
        <time>2015-08-17T09:23:17Z</time>
      </trkpt>
      <trkpt lat="47.87442" lon="6.73194">
        <ele>671.094</ele>
        <time>2015-08-17T09:23:37Z</time>
      </trkpt>
      <trkpt lat="47.87466" lon="6.73175">
        <ele>671.879</ele>
        <time>2015-08-17T09:23:57Z</time>
      </trkpt>
      <trkpt lat="47.87471" lon="6.7316">
        <ele>673.358</ele>
        <time>2015-08-17T09:24:17Z</time>
      </trkpt>
      <trkpt lat="47.87465" lon="6.73126">
        <ele>681.131</ele>
        <time>2015-08-17T09:24:37Z</time>
      </trkpt>
      <trkpt lat="47.87476" lon="6.73107">
        <ele>680.838</ele>
        <time>2015-08-17T09:24:57Z</time>
      </trkpt>
      <trkpt lat="47.87498" lon="6.731">
        <ele>677.652</ele>
        <time>2015-08-17T09:25:17Z</time>
      </trkpt>
      <trkpt lat="47.87527" lon="6.73098">
        <ele>674.942</ele>
        <time>2015-08-17T09:25:37Z</time>
      </trkpt>
      <trkpt lat="47.8754" lon="6.73089">
        <ele>678.022</ele>
        <time>2015-08-17T09:25:57Z</time>
      </trkpt>
      <trkpt lat="47.87568" lon="6.73047">
        <ele>687.914</ele>
        <time>2015-08-17T09:26:17Z</time>
      </trkpt>
      <trkpt lat="47.87584" lon="6.73038">
        <ele>687.508</ele>
        <time>2015-08-17T09:26:37Z</time>
      </trkpt>
      <trkpt lat="47.8761" lon="6.73009">
        <ele>685.42</ele>
        <time>2015-08-17T09:26:57Z</time>
      </trkpt>
      <trkpt lat="47.8765" lon="6.73006">
        <ele>682.085</ele>
        <time>2015-08-17T09:27:17Z</time>
      </trkpt>
      <trkpt lat="47.87695" lon="6.73035">
        <ele>678.536</ele>
        <time>2015-08-17T09:27:37Z</time>
      </trkpt>
      <trkpt lat="47.87716" lon="6.73037">
        <ele>676.031</ele>
        <time>2015-08-17T09:27:57Z</time>
      </trkpt>
      <trkpt lat="47.87703" lon="6.72977">
        <ele>680.03</ele>
        <time>2015-08-17T09:28:17Z</time>
      </trkpt>
      <trkpt lat="47.8768" lon="6.72929">
        <ele>681.923</ele>
        <time>2015-08-17T09:28:37Z</time>
      </trkpt>
      <trkpt lat="47.87648" lon="6.72845">
        <ele>689.62</ele>
        <time>2015-08-17T09:28:57Z</time>
      </trkpt>
      <trkpt lat="47.87624" lon="6.72802">
        <ele>690.714</ele>
        <time>2015-08-17T09:29:17Z</time>
      </trkpt>
      <trkpt lat="47.87614" lon="6.72768">
        <ele>688.891</ele>
        <time>2015-08-17T09:29:37Z</time>
      </trkpt>
      <trkpt lat="47.87556" lon="6.72673">
        <ele>684.581</ele>
        <time>2015-08-17T09:29:57Z</time>
      </trkpt>
      <trkpt lat="47.87535" lon="6.72658">
        <ele>686.219</ele>
        <time>2015-08-17T09:30:17Z</time>
      </trkpt>
      <trkpt lat="47.87494" lon="6.72648">
        <ele>689.008</ele>
        <time>2015-08-17T09:30:37Z</time>
      </trkpt>
      <trkpt lat="47.87461" lon="6.72614">
        <ele>685.315</ele>
        <time>2015-08-17T09:30:57Z</time>
      </trkpt>
      <trkpt lat="47.87419" lon="6.72597">
        <ele>687.61</ele>
        <time>2015-08-17T09:31:17Z</time>
      </trkpt>
      <trkpt lat="47.87399" lon="6.72573">
        <ele>688.811</ele>
        <time>2015-08-17T09:31:37Z</time>
      </trkpt>
      <trkpt lat="47.87385" lon="6.72523">
        <ele>684.546</ele>
        <time>2015-08-17T09:31:57Z</time>
      </trkpt>
      <trkpt lat="47.87332" lon="6.72457">
        <ele>686.865</ele>
        <time>2015-08-17T09:32:17Z</time>
      </trkpt>
      <trkpt lat="47.87327" lon="6.72396">
        <ele>685.578</ele>
        <time>2015-08-17T09:32:37Z</time>
      </trkpt>
      <trkpt lat="47.8733" lon="6.72345">
        <ele>687.785</ele>
        <time>2015-08-17T09:32:57Z</time>
      </trkpt>
      <trkpt lat="47.8735" lon="6.723">
        <ele>683.699</ele>
        <time>2015-08-17T09:33:17Z</time>
      </trkpt>
      <trkpt lat="47.87356" lon="6.72178">
        <ele>686.113</ele>
        <time>2015-08-17T09:33:37Z</time>
      </trkpt>
      <trkpt lat="47.87377" lon="6.72119">
        <ele>688.243</ele>
        <time>2015-08-17T09:33:57Z</time>
      </trkpt>
      <trkpt lat="47.87405" lon="6.72106">
        <ele>685.807</ele>
        <time>2015-08-17T09:34:17Z</time>
      </trkpt>
      <trkpt lat="47.87426" lon="6.72083">
        <ele>685.308</ele>
        <time>2015-08-17T09:34:37Z</time>
      </trkpt>
      <trkpt lat="47.87449" lon="6.72075">
        <ele>681.977</ele>
        <time>2015-08-17T09:34:57Z</time>
      </trkpt>
      <trkpt lat="47.87536" lon="6.71921">
        <ele>663.132</ele>
        <time>2015-08-17T09:35:17Z</time>
      </trkpt>
      <trkpt lat="47.8757" lon="6.71875">
        <ele>659.323</ele>
        <time>2015-08-17T09:35:37Z</time>
      </trkpt>
      <trkpt lat="47.87616" lon="6.71757">
        <ele>651.958</ele>
        <time>2015-08-17T09:35:57Z</time>
      </trkpt>
      <trkpt lat="47.87632" lon="6.71671">
        <ele>645.167</ele>
        <time>2015-08-17T09:36:17Z</time>
      </trkpt>
      <trkpt lat="47.87636" lon="6.71613">
        <ele>643.31</ele>
        <time>2015-08-17T09:36:37Z</time>
      </trkpt>
      <trkpt lat="47.87631" lon="6.71587">
        <ele>644.357</ele>
        <time>2015-08-17T09:36:57Z</time>
      </trkpt>
      <trkpt lat="47.87661" lon="6.7154">
        <ele>639.921</ele>
        <time>2015-08-17T09:37:17Z</time>
      </trkpt>
      <trkpt lat="47.87679" lon="6.71519">
        <ele>636.857</ele>
        <time>2015-08-17T09:37:37Z</time>
      </trkpt>
      <trkpt lat="47.87707" lon="6.71506">
        <ele>637.9</ele>
        <time>2015-08-17T09:37:57Z</time>
      </trkpt>
      <trkpt lat="47.87751" lon="6.71552">
        <ele>632.72</ele>
        <time>2015-08-17T09:38:17Z</time>
      </trkpt>
      <trkpt lat="47.87814" lon="6.71657">
        <ele>618.308</ele>
        <time>2015-08-17T09:38:37Z</time>
      </trkpt>
      <trkpt lat="47.87877" lon="6.71673">
        <ele>614.671</ele>
        <time>2015-08-17T09:38:57Z</time>
      </trkpt>
      <trkpt lat="47.87936" lon="6.71702">
        <ele>606.776</ele>
        <time>2015-08-17T09:39:17Z</time>
      </trkpt>
      <trkpt lat="47.87994" lon="6.71723">
        <ele>595.377</ele>
        <time>2015-08-17T09:39:37Z</time>
      </trkpt>
      <trkpt lat="47.88086" lon="6.71717">
        <ele>592.432</ele>
        <time>2015-08-17T09:39:57Z</time>
      </trkpt>
      <trkpt lat="47.88144" lon="6.71736">
        <ele>601.211</ele>
        <time>2015-08-17T09:40:17Z</time>
      </trkpt>
      <trkpt lat="47.88159" lon="6.71785">
        <ele>599.254</ele>
        <time>2015-08-17T09:40:37Z</time>
      </trkpt>
      <trkpt lat="47.88168" lon="6.71844">
        <ele>592.821</ele>
        <time>2015-08-17T09:40:57Z</time>
      </trkpt>
      <trkpt lat="47.88237" lon="6.71881">
        <ele>595.875</ele>
        <time>2015-08-17T09:41:17Z</time>
      </trkpt>
      <trkpt lat="47.8826" lon="6.71872">
        <ele>598.781</ele>
        <time>2015-08-17T09:41:37Z</time>
      </trkpt>
      <trkpt lat="47.88261" lon="6.71853">
        <ele>602.161</ele>
        <time>2015-08-17T09:41:57Z</time>
      </trkpt>
      <trkpt lat="47.88231" lon="6.71841">
        <ele>603.217</ele>
        <time>2015-08-17T09:42:17Z</time>
      </trkpt>
      <trkpt lat="47.88227" lon="6.71811">
        <ele>608.408</ele>
        <time>2015-08-17T09:42:37Z</time>
      </trkpt>
      <trkpt lat="47.88248" lon="6.71769">
        <ele>615.174</ele>
        <time>2015-08-17T09:42:57Z</time>
      </trkpt>
      <trkpt lat="47.88249" lon="6.71699">
        <ele>621.969</ele>
        <time>2015-08-17T09:43:17Z</time>
      </trkpt>
      <trkpt lat="47.88212" lon="6.71703">
        <ele>625.22</ele>
        <time>2015-08-17T09:43:37Z</time>
      </trkpt>
      <trkpt lat="47.88205" lon="6.71678">
        <ele>628.595</ele>
        <time>2015-08-17T09:43:57Z</time>
      </trkpt>
      <trkpt lat="47.88225" lon="6.71578">
        <ele>637.644</ele>
        <time>2015-08-17T09:44:17Z</time>
      </trkpt>
      <trkpt lat="47.88267" lon="6.71558">
        <ele>637.857</ele>
        <time>2015-08-17T09:44:37Z</time>
      </trkpt>
      <trkpt lat="47.88295" lon="6.71519">
        <ele>641.634</ele>
        <time>2015-08-17T09:44:57Z</time>
      </trkpt>
      <trkpt lat="47.88364" lon="6.71456">
        <ele>653.138</ele>
        <time>2015-08-17T09:45:17Z</time>
      </trkpt>
      <trkpt lat="47.88361" lon="6.71439">
        <ele>656.418</ele>
        <time>2015-08-17T09:45:37Z</time>
      </trkpt>
      <trkpt lat="47.88315" lon="6.71435">
        <ele>661.998</ele>
        <time>2015-08-17T09:45:57Z</time>
      </trkpt>
      <trkpt lat="47.88359" lon="6.71404">
        <ele>665.817</ele>
        <time>2015-08-17T09:46:17Z</time>
      </trkpt>
      <trkpt lat="47.88398" lon="6.71419">
        <ele>668.408</ele>
        <time>2015-08-17T09:46:37Z</time>
      </trkpt>
      <trkpt lat="47.88434" lon="6.71409">
        <ele>678.297</ele>
        <time>2015-08-17T09:46:57Z</time>
      </trkpt>
      <trkpt lat="47.8845" lon="6.71383">
        <ele>686.332</ele>
        <time>2015-08-17T09:47:17Z</time>
      </trkpt>
      <trkpt lat="47.88451" lon="6.71296">
        <ele>694.613</ele>
        <time>2015-08-17T09:47:37Z</time>
      </trkpt>
      <trkpt lat="47.8844" lon="6.71217">
        <ele>703.758</ele>
        <time>2015-08-17T09:47:57Z</time>
      </trkpt>
      <trkpt lat="47.88419" lon="6.71151">
        <ele>715.737</ele>
        <time>2015-08-17T09:48:17Z</time>
      </trkpt>
      <trkpt lat="47.88417" lon="6.71132">
        <ele>716.52</ele>
        <time>2015-08-17T09:48:37Z</time>
      </trkpt>
      <trkpt lat="47.8839" lon="6.71106">
        <ele>722.237</ele>
        <time>2015-08-17T09:48:57Z</time>
      </trkpt>
      <trkpt lat="47.88373" lon="6.71072">
        <ele>724.641</ele>
        <time>2015-08-17T09:49:17Z</time>
      </trkpt>
      <trkpt lat="47.88352" lon="6.71009">
        <ele>725.991</ele>
        <time>2015-08-17T09:49:37Z</time>
      </trkpt>
      <trkpt lat="47.88316" lon="6.70948">
        <ele>729.181</ele>
        <time>2015-08-17T09:49:57Z</time>
      </trkpt>
      <trkpt lat="47.88298" lon="6.70928">
        <ele>732.319</ele>
        <time>2015-08-17T09:50:17Z</time>
      </trkpt>
      <trkpt lat="47.88281" lon="6.70891">
        <ele>732.608</ele>
        <time>2015-08-17T09:50:37Z</time>
      </trkpt>
      <trkpt lat="47.88255" lon="6.70874">
        <ele>729.585</ele>
        <time>2015-08-17T09:50:57Z</time>
      </trkpt>
      <trkpt lat="47.88226" lon="6.70842">
        <ele>726.91</ele>
        <time>2015-08-17T09:51:17Z</time>
      </trkpt>
      <trkpt lat="47.88198" lon="6.7083">
        <ele>724.871</ele>
        <time>2015-08-17T09:51:37Z</time>
      </trkpt>
      <trkpt lat="47.88176" lon="6.70764">
        <ele>723.096</ele>
        <time>2015-08-17T09:51:57Z</time>
      </trkpt>
      <trkpt lat="47.8819" lon="6.70664">
        <ele>727.665</ele>
        <time>2015-08-17T09:52:17Z</time>
      </trkpt>
      <trkpt lat="47.88192" lon="6.70618">
        <ele>729.828</ele>
        <time>2015-08-17T09:52:37Z</time>
      </trkpt>
      <trkpt lat="47.88209" lon="6.70597">
        <ele>729.765</ele>
        <time>2015-08-17T09:52:57Z</time>
      </trkpt>
      <trkpt lat="47.88234" lon="6.70549">
        <ele>730.049</ele>
        <time>2015-08-17T09:53:17Z</time>
      </trkpt>
      <trkpt lat="47.88245" lon="6.70512">
        <ele>728.842</ele>
        <time>2015-08-17T09:53:37Z</time>
      </trkpt>
      <trkpt lat="47.88246" lon="6.7045">
        <ele>729.222</ele>
        <time>2015-08-17T09:53:57Z</time>
      </trkpt>
      <trkpt lat="47.8826" lon="6.70326">
        <ele>729.514</ele>
        <time>2015-08-17T09:54:17Z</time>
      </trkpt>
      <trkpt lat="47.8829" lon="6.70184">
        <ele>733.908</ele>
        <time>2015-08-17T09:54:37Z</time>
      </trkpt>
      <trkpt lat="47.88285" lon="6.7013">
        <ele>734.47</ele>
        <time>2015-08-17T09:54:57Z</time>
      </trkpt>
      <trkpt lat="47.88272" lon="6.70085">
        <ele>737.395</ele>
        <time>2015-08-17T09:55:17Z</time>
      </trkpt>
      <trkpt lat="47.88283" lon="6.70013">
        <ele>738.996</ele>
        <time>2015-08-17T09:55:37Z</time>
      </trkpt>
      <trkpt lat="47.88282" lon="6.69904">
        <ele>741.291</ele>
        <time>2015-08-17T09:55:57Z</time>
      </trkpt>
      <trkpt lat="47.88263" lon="6.69817">
        <ele>743.99</ele>
        <time>2015-08-17T09:56:17Z</time>
      </trkpt>
      <trkpt lat="47.88267" lon="6.69754">
        <ele>742.163</ele>
        <time>2015-08-17T09:56:37Z</time>
      </trkpt>
      <trkpt lat="47.88284" lon="6.69685">
        <ele>741.44</ele>
        <time>2015-08-17T09:56:57Z</time>
      </trkpt>
      <trkpt lat="47.88378" lon="6.69528">
        <ele>742.164</ele>
        <time>2015-08-17T09:57:17Z</time>
      </trkpt>
      <trkpt lat="47.8848" lon="6.69308">
        <ele>740.953</ele>
        <time>2015-08-17T09:57:37Z</time>
      </trkpt>
      <trkpt lat="47.88566" lon="6.69265">
        <ele>743.904</ele>
        <time>2015-08-17T09:57:57Z</time>
      </trkpt>
      <trkpt lat="47.88645" lon="6.68957">
        <ele>751.314</ele>
        <time>2015-08-17T09:58:17Z</time>
      </trkpt>
      <trkpt lat="47.88744" lon="6.68942">
        <ele>757.608</ele>
        <time>2015-08-17T09:58:37Z</time>
      </trkpt>
      <trkpt lat="47.88769" lon="6.68997">
        <ele>758.421</ele>
        <time>2015-08-17T09:58:57Z</time>
      </trkpt>
      <trkpt lat="47.888" lon="6.69011">
        <ele>760.236</ele>
        <time>2015-08-17T09:59:17Z</time>
      </trkpt>
      <trkpt lat="47.88826" lon="6.68986">
        <ele>766.767</ele>
        <time>2015-08-17T09:59:37Z</time>
      </trkpt>
      <trkpt lat="47.88869" lon="6.69026">
        <ele>765.492</ele>
        <time>2015-08-17T09:59:57Z</time>
      </trkpt>
      <trkpt lat="47.88885" lon="6.69095">
        <ele>767.481</ele>
        <time>2020-11-27T22:23:48Z</time>
      </trkpt>
      <trkpt lat="47.88934" lon="6.69107">
        <ele>762.974</ele>
        <time>2020-11-27T22:24:08Z</time>
      </trkpt>
      <trkpt lat="47.88976" lon="6.69091">
        <ele>760.811</ele>
        <time>2020-11-27T22:24:28Z</time>
      </trkpt>
      <trkpt lat="47.8904" lon="6.69022">
        <ele>759.835</ele>
        <time>2020-11-27T22:24:48Z</time>
      </trkpt>
      <trkpt lat="47.8908" lon="6.69036">
        <ele>760.994</ele>
        <time>2015-08-17T10:02:37Z</time>
      </trkpt>
      <trkpt lat="47.89126" lon="6.68997">
        <ele>761.457</ele>
        <time>2015-08-17T10:02:57Z</time>
      </trkpt>
      <trkpt lat="47.89096" lon="6.68945">
        <ele>755.922</ele>
        <time>2015-08-17T10:03:17Z</time>
      </trkpt>
      <trkpt lat="47.89097" lon="6.68877">
        <ele>749.908</ele>
        <time>2015-08-17T10:03:37Z</time>
      </trkpt>
      <trkpt lat="47.8911" lon="6.68782">
        <ele>740.555</ele>
        <time>2015-08-17T10:03:57Z</time>
      </trkpt>
      <trkpt lat="47.89121" lon="6.68746">
        <ele>737.58</ele>
        <time>2015-08-17T10:04:17Z</time>
      </trkpt>
      <trkpt lat="47.89108" lon="6.68683">
        <ele>729.391</ele>
        <time>2015-08-17T10:04:37Z</time>
      </trkpt>
      <trkpt lat="47.89087" lon="6.68618">
        <ele>726.086</ele>
        <time>2015-08-17T10:04:57Z</time>
      </trkpt>
      <trkpt lat="47.89087" lon="6.68589">
        <ele>726.685</ele>
        <time>2015-08-17T10:05:17Z</time>
      </trkpt>
      <trkpt lat="47.89094" lon="6.68544">
        <ele>726.318</ele>
        <time>2015-08-17T10:05:37Z</time>
      </trkpt>
      <trkpt lat="47.89116" lon="6.68475">
        <ele>725.155</ele>
        <time>2015-08-17T10:05:57Z</time>
      </trkpt>
      <trkpt lat="47.89126" lon="6.6844">
        <ele>726.259</ele>
        <time>2015-08-17T10:06:17Z</time>
      </trkpt>
      <trkpt lat="47.89183" lon="6.68398">
        <ele>716.378</ele>
        <time>2015-08-17T10:06:37Z</time>
      </trkpt>
      <trkpt lat="47.89198" lon="6.6837">
        <ele>712.733</ele>
        <time>2015-08-17T10:06:57Z</time>
      </trkpt>
      <trkpt lat="47.89234" lon="6.68283">
        <ele>702.426</ele>
        <time>2015-08-17T10:07:17Z</time>
      </trkpt>
      <trkpt lat="47.89237" lon="6.68197">
        <ele>692.608</ele>
        <time>2015-08-17T10:07:37Z</time>
      </trkpt>
      <trkpt lat="47.89235" lon="6.68158">
        <ele>688.133</ele>
        <time>2015-08-17T10:07:57Z</time>
      </trkpt>
      <trkpt lat="47.892" lon="6.68082">
        <ele>689.198</ele>
        <time>2015-08-17T10:08:17Z</time>
      </trkpt>
      <trkpt lat="47.89186" lon="6.68016">
        <ele>685.369</ele>
        <time>2015-08-17T10:08:37Z</time>
      </trkpt>
      <trkpt lat="47.8917" lon="6.67977">
        <ele>685.374</ele>
        <time>2015-08-17T10:08:57Z</time>
      </trkpt>
      <trkpt lat="47.89166" lon="6.67941">
        <ele>682.093</ele>
        <time>2015-08-17T10:09:17Z</time>
      </trkpt>
      <trkpt lat="47.8917" lon="6.67893">
        <ele>673.996</ele>
        <time>2015-08-17T10:09:37Z</time>
      </trkpt>
      <trkpt lat="47.89149" lon="6.67789">
        <ele>672.743</ele>
        <time>2015-08-17T10:09:57Z</time>
      </trkpt>
      <trkpt lat="47.89158" lon="6.67714">
        <ele>666.237</ele>
        <time>2015-08-17T10:10:17Z</time>
      </trkpt>
      <trkpt lat="47.89148" lon="6.67687">
        <ele>670.023</ele>
        <time>2015-08-17T10:10:37Z</time>
      </trkpt>
      <trkpt lat="47.8915" lon="6.67639">
        <ele>667.583</ele>
        <time>2015-08-17T10:10:57Z</time>
      </trkpt>
      <trkpt lat="47.89149" lon="6.67582">
        <ele>667.911</ele>
        <time>2015-08-17T10:11:17Z</time>
      </trkpt>
      <trkpt lat="47.89162" lon="6.6748">
        <ele>665.808</ele>
        <time>2015-08-17T10:11:37Z</time>
      </trkpt>
      <trkpt lat="47.89236" lon="6.67276">
        <ele>654.548</ele>
        <time>2015-08-17T10:11:57Z</time>
      </trkpt>
      <trkpt lat="47.89284" lon="6.67178">
        <ele>654.623</ele>
        <time>2015-08-17T10:12:17Z</time>
      </trkpt>
      <trkpt lat="47.89306" lon="6.67112">
        <ele>656.984</ele>
        <time>2015-08-17T10:12:37Z</time>
      </trkpt>
      <trkpt lat="47.89319" lon="6.67012">
        <ele>659.669</ele>
        <time>2015-08-17T10:12:57Z</time>
      </trkpt>
      <trkpt lat="47.89348" lon="6.66945">
        <ele>658.898</ele>
        <time>2015-08-17T10:13:17Z</time>
      </trkpt>
      <trkpt lat="47.89376" lon="6.66864">
        <ele>657.121</ele>
        <time>2015-08-17T10:13:37Z</time>
      </trkpt>
      <trkpt lat="47.8943" lon="6.66752">
        <ele>656.748</ele>
        <time>2015-08-17T10:13:57Z</time>
      </trkpt>
      <trkpt lat="47.89458" lon="6.6673">
        <ele>656.822</ele>
        <time>2015-08-17T10:14:17Z</time>
      </trkpt>
      <trkpt lat="47.8954" lon="6.66702">
        <ele>652.049</ele>
        <time>2015-08-17T10:14:37Z</time>
      </trkpt>
      <trkpt lat="47.8966" lon="6.66619">
        <ele>663.502</ele>
        <time>2015-08-17T10:14:57Z</time>
      </trkpt>
      <trkpt lat="47.8971" lon="6.66612">
        <ele>663.422</ele>
        <time>2015-08-17T10:15:17Z</time>
      </trkpt>
      <trkpt lat="47.89792" lon="6.66622">
        <ele>657.708</ele>
        <time>2015-08-17T10:15:37Z</time>
      </trkpt>
      <trkpt lat="47.89818" lon="6.66596">
        <ele>655.68</ele>
        <time>2015-08-17T10:15:57Z</time>
      </trkpt>
      <trkpt lat="47.89839" lon="6.66547">
        <ele>652.735</ele>
        <time>2015-08-17T10:16:17Z</time>
      </trkpt>
      <trkpt lat="47.89855" lon="6.66385">
        <ele>652.546</ele>
        <time>2015-08-17T10:16:37Z</time>
      </trkpt>
      <trkpt lat="47.89861" lon="6.66219">
        <ele>662.421</ele>
        <time>2015-08-17T10:16:57Z</time>
      </trkpt>
      <trkpt lat="47.89901" lon="6.66162">
        <ele>663.92</ele>
        <time>2015-08-17T10:17:17Z</time>
      </trkpt>
      <trkpt lat="47.89949" lon="6.6613">
        <ele>662.593</ele>
        <time>2015-08-17T10:17:37Z</time>
      </trkpt>
      <trkpt lat="47.90004" lon="6.66069">
        <ele>660.77</ele>
        <time>2015-08-17T10:17:57Z</time>
      </trkpt>
      <trkpt lat="47.90052" lon="6.66029">
        <ele>654.614</ele>
        <time>2015-08-17T10:18:17Z</time>
      </trkpt>
      <trkpt lat="47.90079" lon="6.65994">
        <ele>645.962</ele>
        <time>2015-08-17T10:18:37Z</time>
      </trkpt>
      <trkpt lat="47.90073" lon="6.65885">
        <ele>648.883</ele>
        <time>2015-08-17T10:18:57Z</time>
      </trkpt>
      <trkpt lat="47.90112" lon="6.6584">
        <ele>646.611</ele>
        <time>2015-08-17T10:19:17Z</time>
      </trkpt>
      <trkpt lat="47.90137" lon="6.65802">
        <ele>644.108</ele>
        <time>2015-08-17T10:19:37Z</time>
      </trkpt>
      <trkpt lat="47.90212" lon="6.65706">
        <ele>632.792</ele>
        <time>2015-08-17T10:19:57Z</time>
      </trkpt>
      <trkpt lat="47.90255" lon="6.65478">
        <ele>627.177</ele>
        <time>2015-08-17T10:20:17Z</time>
      </trkpt>
      <trkpt lat="47.90274" lon="6.65264">
        <ele>629.178</ele>
        <time>2015-08-17T10:20:37Z</time>
      </trkpt>
      <trkpt lat="47.90299" lon="6.65237">
        <ele>623.263</ele>
        <time>2015-08-17T10:20:57Z</time>
      </trkpt>
      <trkpt lat="47.90317" lon="6.65164">
        <ele>619.792</ele>
        <time>2015-08-17T10:21:17Z</time>
      </trkpt>
      <trkpt lat="47.9028" lon="6.65063">
        <ele>626.835</ele>
        <time>2015-08-17T10:21:37Z</time>
      </trkpt>
      <trkpt lat="47.90272" lon="6.65016">
        <ele>626.762</ele>
        <time>2015-08-17T10:21:57Z</time>
      </trkpt>
      <trkpt lat="47.9029" lon="6.64912">
        <ele>626.086</ele>
        <time>2015-08-17T10:22:17Z</time>
      </trkpt>
      <trkpt lat="47.90313" lon="6.64848">
        <ele>625.579</ele>
        <time>2015-08-17T10:22:37Z</time>
      </trkpt>
      <trkpt lat="47.90332" lon="6.64763">
        <ele>628.105</ele>
        <time>2015-08-17T10:22:57Z</time>
      </trkpt>
      <trkpt lat="47.90348" lon="6.64738">
        <ele>627.825</ele>
        <time>2015-08-17T10:23:17Z</time>
      </trkpt>
      <trkpt lat="47.90377" lon="6.64745">
        <ele>621.408</ele>
        <time>2015-08-17T10:23:37Z</time>
      </trkpt>
      <trkpt lat="47.90409" lon="6.64687">
        <ele>615.493</ele>
        <time>2015-08-17T10:23:57Z</time>
      </trkpt>
      <trkpt lat="47.90452" lon="6.64646">
        <ele>615.388</ele>
        <time>2015-08-17T10:24:17Z</time>
      </trkpt>
      <trkpt lat="47.90423" lon="6.64522">
        <ele>626.369</ele>
        <time>2015-08-17T10:24:37Z</time>
      </trkpt>
      <trkpt lat="47.9043" lon="6.64523">
        <ele>627.014</ele>
        <time>2015-08-17T10:24:57Z</time>
      </trkpt>
      <trkpt lat="47.90458" lon="6.64578">
        <ele>625.083</ele>
        <time>2015-08-17T10:25:17Z</time>
      </trkpt>
      <trkpt lat="47.90485" lon="6.64597">
        <ele>625.796</ele>
        <time>2015-08-17T10:25:37Z</time>
      </trkpt>
      <trkpt lat="47.90524" lon="6.64586">
        <ele>625.643</ele>
        <time>2015-08-17T10:25:57Z</time>
      </trkpt>
      <trkpt lat="47.90556" lon="6.64545">
        <ele>626.227</ele>
        <time>2015-08-17T10:26:17Z</time>
      </trkpt>
      <trkpt lat="47.90586" lon="6.6444">
        <ele>633.414</ele>
        <time>2015-08-17T10:26:37Z</time>
      </trkpt>
      <trkpt lat="47.90612" lon="6.64422">
        <ele>634.554</ele>
        <time>2015-08-17T10:26:57Z</time>
      </trkpt>
      <trkpt lat="47.90704" lon="6.64425">
        <ele>633.109</ele>
        <time>2015-08-17T10:27:17Z</time>
      </trkpt>
      <trkpt lat="47.90747" lon="6.64401">
        <ele>634.308</ele>
        <time>2015-08-17T10:27:37Z</time>
      </trkpt>
      <trkpt lat="47.90801" lon="6.64396">
        <ele>628.517</ele>
        <time>2015-08-17T10:27:57Z</time>
      </trkpt>
      <trkpt lat="47.90831" lon="6.64358">
        <ele>630.332</ele>
        <time>2015-08-17T10:28:17Z</time>
      </trkpt>
      <trkpt lat="47.90861" lon="6.64268">
        <ele>630.593</ele>
        <time>2015-08-17T10:28:37Z</time>
      </trkpt>
      <trkpt lat="47.90865" lon="6.64228">
        <ele>634.128</ele>
        <time>2015-08-17T10:28:57Z</time>
      </trkpt>
      <trkpt lat="47.90928" lon="6.64094">
        <ele>634.787</ele>
        <time>2015-08-17T10:29:17Z</time>
      </trkpt>
      <trkpt lat="47.90943" lon="6.64053">
        <ele>637.44</ele>
        <time>2015-08-17T10:29:37Z</time>
      </trkpt>
      <trkpt lat="47.90968" lon="6.6404">
        <ele>635.757</ele>
        <time>2015-08-17T10:29:57Z</time>
      </trkpt>
      <trkpt lat="47.91003" lon="6.64043">
        <ele>632.991</ele>
        <time>2015-08-17T10:30:17Z</time>
      </trkpt>
      <trkpt lat="47.91031" lon="6.64074">
        <ele>634.944</ele>
        <time>2015-08-17T10:30:37Z</time>
      </trkpt>
      <trkpt lat="47.91036" lon="6.64112">
        <ele>632.505</ele>
        <time>2015-08-17T10:30:57Z</time>
      </trkpt>
      <trkpt lat="47.9105" lon="6.64128">
        <ele>632.415</ele>
        <time>2015-08-17T10:31:17Z</time>
      </trkpt>
      <trkpt lat="47.91067" lon="6.6412">
        <ele>634.908</ele>
        <time>2015-08-17T10:31:37Z</time>
      </trkpt>
      <trkpt lat="47.91085" lon="6.64127">
        <ele>637.04</ele>
        <time>2015-08-17T10:31:57Z</time>
      </trkpt>
      <trkpt lat="47.91147" lon="6.64193">
        <ele>635.555</ele>
        <time>2015-08-17T10:32:17Z</time>
      </trkpt>
      <trkpt lat="47.91162" lon="6.64192">
        <ele>636.296</ele>
        <time>2015-08-17T10:32:37Z</time>
      </trkpt>
      <trkpt lat="47.9117" lon="6.6417">
        <ele>639.411</ele>
        <time>2015-08-17T10:32:57Z</time>
      </trkpt>
      <trkpt lat="47.91154" lon="6.64102">
        <ele>647.75</ele>
        <time>2015-08-17T10:33:17Z</time>
      </trkpt>
      <trkpt lat="47.9116" lon="6.64042">
        <ele>656.313</ele>
        <time>2015-08-17T10:33:37Z</time>
      </trkpt>
      <trkpt lat="47.91159" lon="6.63999">
        <ele>662.14</ele>
        <time>2015-08-17T10:33:57Z</time>
      </trkpt>
      <trkpt lat="47.91127" lon="6.63911">
        <ele>669.094</ele>
        <time>2015-08-17T10:34:17Z</time>
      </trkpt>
      <trkpt lat="47.91121" lon="6.63878">
        <ele>672.311</ele>
        <time>2015-08-17T10:34:37Z</time>
      </trkpt>
      <trkpt lat="47.91131" lon="6.63792">
        <ele>683.121</ele>
        <time>2015-08-17T10:34:57Z</time>
      </trkpt>
      <trkpt lat="47.91134" lon="6.63676">
        <ele>691.503</ele>
        <time>2015-08-17T10:35:17Z</time>
      </trkpt>
      <trkpt lat="47.91141" lon="6.63642">
        <ele>694.108</ele>
        <time>2015-08-17T10:35:37Z</time>
      </trkpt>
      <trkpt lat="47.91151" lon="6.6362">
        <ele>695.737</ele>
        <time>2015-08-17T10:35:57Z</time>
      </trkpt>
      <trkpt lat="47.91208" lon="6.63576">
        <ele>703.192</ele>
        <time>2015-08-17T10:36:17Z</time>
      </trkpt>
      <trkpt lat="47.91222" lon="6.63552">
        <ele>705.023</ele>
        <time>2015-08-17T10:36:37Z</time>
      </trkpt>
      <trkpt lat="47.91254" lon="6.63611">
        <ele>705.088</ele>
        <time>2015-08-17T10:36:57Z</time>
      </trkpt>
      <trkpt lat="47.91289" lon="6.63671">
        <ele>705.697</ele>
        <time>2015-08-17T10:37:17Z</time>
      </trkpt>
      <trkpt lat="47.91324" lon="6.63723">
        <ele>707.02</ele>
        <time>2015-08-17T10:37:37Z</time>
      </trkpt>
      <trkpt lat="47.91353" lon="6.63754">
        <ele>709.717</ele>
        <time>2015-08-17T10:37:57Z</time>
      </trkpt>
      <trkpt lat="47.91365" lon="6.63792">
        <ele>710.241</ele>
        <time>2015-08-17T10:38:17Z</time>
      </trkpt>
      <trkpt lat="47.91413" lon="6.63875">
        <ele>714.724</ele>
        <time>2015-08-17T10:38:37Z</time>
      </trkpt>
      <trkpt lat="47.91456" lon="6.63945">
        <ele>719.604</ele>
        <time>2015-08-17T10:38:57Z</time>
      </trkpt>
      <trkpt lat="47.91506" lon="6.63976">
        <ele>731.514</ele>
        <time>2015-08-17T10:39:17Z</time>
      </trkpt>
      <trkpt lat="47.91577" lon="6.64045">
        <ele>746.908</ele>
        <time>2015-08-17T10:39:37Z</time>
      </trkpt>
      <trkpt lat="47.91616" lon="6.64108">
        <ele>752.868</ele>
        <time>2015-08-17T10:39:57Z</time>
      </trkpt>
      <trkpt lat="47.91624" lon="6.64145">
        <ele>750.453</ele>
        <time>2015-08-17T10:40:17Z</time>
      </trkpt>
      <trkpt lat="47.91642" lon="6.64173">
        <ele>750.734</ele>
        <time>2015-08-17T10:40:37Z</time>
      </trkpt>
      <trkpt lat="47.91667" lon="6.64225">
        <ele>745.559</ele>
        <time>2015-08-17T10:40:57Z</time>
      </trkpt>
      <trkpt lat="47.917" lon="6.6426">
        <ele>741.918</ele>
        <time>2015-08-17T10:41:17Z</time>
      </trkpt>
      <trkpt lat="47.91733" lon="6.64278">
        <ele>740.721</ele>
        <time>2015-08-17T10:41:37Z</time>
      </trkpt>
      <trkpt lat="47.91798" lon="6.64329">
        <ele>724.388</ele>
        <time>2015-08-17T10:41:57Z</time>
      </trkpt>
      <trkpt lat="47.91826" lon="6.64341">
        <ele>716.442</ele>
        <time>2015-08-17T10:42:17Z</time>
      </trkpt>
      <trkpt lat="47.91862" lon="6.64346">
        <ele>706.917</ele>
        <time>2015-08-17T10:42:37Z</time>
      </trkpt>
      <trkpt lat="47.91894" lon="6.64324">
        <ele>706.587</ele>
        <time>2015-08-17T10:42:57Z</time>
      </trkpt>
      <trkpt lat="47.91936" lon="6.64304">
        <ele>702.615</ele>
        <time>2015-08-17T10:43:17Z</time>
      </trkpt>
      <trkpt lat="47.92003" lon="6.64288">
        <ele>697.808</ele>
        <time>2015-08-17T10:43:37Z</time>
      </trkpt>
      <trkpt lat="47.9205" lon="6.64323">
        <ele>692.867</ele>
        <time>2015-08-17T10:43:57Z</time>
      </trkpt>
      <trkpt lat="47.92102" lon="6.64384">
        <ele>685.372</ele>
        <time>2015-08-17T10:44:17Z</time>
      </trkpt>
      <trkpt lat="47.92146" lon="6.64449">
        <ele>666.453</ele>
        <time>2015-08-17T10:44:37Z</time>
      </trkpt>
      <trkpt lat="47.92229" lon="6.64458">
        <ele>659.748</ele>
        <time>2020-11-27T23:07:28Z</time>
      </trkpt>
      <trkpt lat="47.92362" lon="6.64515">
        <ele>637.847</ele>
        <time>2015-08-17T10:45:57Z</time>
      </trkpt>
      <trkpt lat="47.92404" lon="6.64518">
        <ele>634.99</ele>
        <time>2015-08-17T10:46:17Z</time>
      </trkpt>
      <trkpt lat="47.92475" lon="6.64502">
        <ele>629.037</ele>
        <time>2020-11-27T23:08:28Z</time>
      </trkpt>
      <trkpt lat="47.92519" lon="6.6448">
        <ele>622.841</ele>
        <time>2020-11-27T23:08:48Z</time>
      </trkpt>
      <trkpt lat="47.92532" lon="6.64458">
        <ele>621.328</ele>
        <time>2020-11-27T23:09:08Z</time>
      </trkpt>
      <trkpt lat="47.92529" lon="6.64317">
        <ele>607.489</ele>
        <time>2020-11-27T23:09:28Z</time>
      </trkpt>
      <trkpt lat="47.92547" lon="6.6424">
        <ele>596.317</ele>
        <time>2020-11-27T23:09:48Z</time>
      </trkpt>
      <trkpt lat="47.92554" lon="6.6417">
        <ele>594.708</ele>
        <time>2020-11-27T23:10:08Z</time>
      </trkpt>
      <trkpt lat="47.9259" lon="6.64024">
        <ele>585.888</ele>
        <time>2020-11-27T23:10:28Z</time>
      </trkpt>
      <trkpt lat="47.92613" lon="6.63987">
        <ele>582.653</ele>
        <time>2020-11-27T23:10:48Z</time>
      </trkpt>
      <trkpt lat="47.92638" lon="6.63986">
        <ele>578.384</ele>
        <time>2020-11-27T23:11:08Z</time>
      </trkpt>
      <trkpt lat="47.9265" lon="6.63935">
        <ele>580.139</ele>
        <time>2020-11-27T23:11:28Z</time>
      </trkpt>
      <trkpt lat="47.92687" lon="6.63897">
        <ele>578.378</ele>
        <time>2015-08-17T10:51:37Z</time>
      </trkpt>
      <trkpt lat="47.92689" lon="6.63816">
        <ele>585.681</ele>
        <time>2015-08-17T10:51:57Z</time>
      </trkpt>
      <trkpt lat="47.92724" lon="6.63761">
        <ele>593.938</ele>
        <time>2015-08-17T10:52:17Z</time>
      </trkpt>
      <trkpt lat="47.92754" lon="6.63738">
        <ele>598.072</ele>
        <time>2015-08-17T10:52:37Z</time>
      </trkpt>
      <trkpt lat="47.92821" lon="6.63739">
        <ele>605.296</ele>
        <time>2015-08-17T10:52:57Z</time>
      </trkpt>
      <trkpt lat="47.92841" lon="6.63747">
        <ele>606.031</ele>
        <time>2015-08-17T10:53:17Z</time>
      </trkpt>
      <trkpt lat="47.92841" lon="6.63786">
        <ele>598.424</ele>
        <time>2015-08-17T10:53:37Z</time>
      </trkpt>
      <trkpt lat="47.92865" lon="6.63786">
        <ele>600.708</ele>
        <time>2015-08-17T10:53:57Z</time>
      </trkpt>
      <trkpt lat="47.92891" lon="6.63795">
        <ele>602.195</ele>
        <time>2015-08-17T10:54:17Z</time>
      </trkpt>
      <trkpt lat="47.93005" lon="6.6385">
        <ele>605.11</ele>
        <time>2015-08-17T10:54:37Z</time>
      </trkpt>
      <trkpt lat="47.93014" lon="6.63859">
        <ele>605.491</ele>
        <time>2015-08-17T10:54:57Z</time>
      </trkpt>
      <trkpt lat="47.93033" lon="6.63863">
        <ele>609.766</ele>
        <time>2015-08-17T10:55:17Z</time>
      </trkpt>
      <trkpt lat="47.93051" lon="6.63853">
        <ele>614.575</ele>
        <time>2015-08-17T10:55:37Z</time>
      </trkpt>
      <trkpt lat="47.93087" lon="6.63842">
        <ele>618.418</ele>
        <time>2015-08-17T10:55:57Z</time>
      </trkpt>
      <trkpt lat="47.93105" lon="6.63811">
        <ele>620.075</ele>
        <time>2015-08-17T10:56:17Z</time>
      </trkpt>
      <trkpt lat="47.93116" lon="6.63685">
        <ele>598.459</ele>
        <time>2015-08-17T10:56:37Z</time>
      </trkpt>
      <trkpt lat="47.93123" lon="6.63576">
        <ele>590.147</ele>
        <time>2015-08-17T10:56:57Z</time>
      </trkpt>
      <trkpt lat="47.93174" lon="6.63341">
        <ele>587.629</ele>
        <time>2015-08-17T10:57:17Z</time>
      </trkpt>
      <trkpt lat="47.93195" lon="6.6329">
        <ele>592.321</ele>
        <time>2015-08-17T10:57:37Z</time>
      </trkpt>
      <trkpt lat="47.93207" lon="6.63238">
        <ele>606.608</ele>
        <time>2015-08-17T10:57:57Z</time>
      </trkpt>
      <trkpt lat="47.93308" lon="6.63118">
        <ele>613.09</ele>
        <time>2015-08-17T10:58:17Z</time>
      </trkpt>
      <trkpt lat="47.93374" lon="6.63114">
        <ele>616.895</ele>
        <time>2015-08-17T10:58:37Z</time>
      </trkpt>
      <trkpt lat="47.93417" lon="6.63133">
        <ele>617.946</ele>
        <time>2015-08-17T10:58:57Z</time>
      </trkpt>
      <trkpt lat="47.93456" lon="6.63196">
        <ele>612.241</ele>
        <time>2015-08-17T10:59:17Z</time>
      </trkpt>
      <trkpt lat="47.93509" lon="6.63245">
        <ele>610.47</ele>
        <time>2015-08-17T10:59:37Z</time>
      </trkpt>
      <trkpt lat="47.93534" lon="6.63246">
        <ele>608.553</ele>
        <time>2015-08-17T10:59:57Z</time>
      </trkpt>
      <trkpt lat="47.93543" lon="6.63218">
        <ele>607.65</ele>
        <time>2015-08-17T11:00:17Z</time>
      </trkpt>
      <trkpt lat="47.93535" lon="6.63174">
        <ele>609.584</ele>
        <time>2015-08-17T11:00:37Z</time>
      </trkpt>
      <trkpt lat="47.93548" lon="6.63094">
        <ele>602.338</ele>
        <time>2015-08-17T11:00:57Z</time>
      </trkpt>
      <trkpt lat="47.93547" lon="6.63058">
        <ele>598.07</ele>
        <time>2015-08-17T11:01:17Z</time>
      </trkpt>
      <trkpt lat="47.93559" lon="6.62979">
        <ele>592.217</ele>
        <time>2015-08-17T11:01:37Z</time>
      </trkpt>
      <trkpt lat="47.93596" lon="6.62902">
        <ele>582.408</ele>
        <time>2015-08-17T11:01:57Z</time>
      </trkpt>
      <trkpt lat="47.93588" lon="6.62774">
        <ele>579.839</ele>
        <time>2015-08-17T11:02:17Z</time>
      </trkpt>
      <trkpt lat="47.93583" lon="6.62746">
        <ele>578.884</ele>
        <time>2015-08-17T11:02:37Z</time>
      </trkpt>
      <trkpt lat="47.93554" lon="6.62703">
        <ele>581.885</ele>
        <time>2015-08-17T11:02:57Z</time>
      </trkpt>
      <trkpt lat="47.93537" lon="6.62582">
        <ele>585.16</ele>
        <time>2015-08-17T11:03:17Z</time>
      </trkpt>
      <trkpt lat="47.93514" lon="6.62495">
        <ele>590.089</ele>
        <time>2015-08-17T11:03:37Z</time>
      </trkpt>
      <trkpt lat="47.93532" lon="6.62431">
        <ele>590.032</ele>
        <time>2015-08-17T11:03:57Z</time>
      </trkpt>
      <trkpt lat="47.9359" lon="6.62295">
        <ele>581.199</ele>
        <time>2015-08-17T11:04:17Z</time>
      </trkpt>
      <trkpt lat="47.93606" lon="6.6224">
        <ele>580.113</ele>
        <time>2015-08-17T11:04:37Z</time>
      </trkpt>
      <trkpt lat="47.93644" lon="6.62247">
        <ele>585.424</ele>
        <time>2015-08-17T11:04:57Z</time>
      </trkpt>
      <trkpt lat="47.93682" lon="6.62206">
        <ele>591.304</ele>
        <time>2015-08-17T11:05:17Z</time>
      </trkpt>
      <trkpt lat="47.93695" lon="6.62165">
        <ele>594.114</ele>
        <time>2015-08-17T11:05:37Z</time>
      </trkpt>
      <trkpt lat="47.93749" lon="6.62169">
        <ele>597.708</ele>
        <time>2015-08-17T11:05:57Z</time>
      </trkpt>
      <trkpt lat="47.938" lon="6.62166">
        <ele>600.818</ele>
        <time>2015-08-17T11:06:17Z</time>
      </trkpt>
      <trkpt lat="47.9387" lon="6.62189">
        <ele>608.433</ele>
        <time>2015-08-17T11:06:37Z</time>
      </trkpt>
      <trkpt lat="47.93936" lon="6.62223">
        <ele>614.464</ele>
        <time>2015-08-17T11:06:57Z</time>
      </trkpt>
      <trkpt lat="47.94" lon="6.62279">
        <ele>619.819</ele>
        <time>2015-08-17T11:07:17Z</time>
      </trkpt>
      <trkpt lat="47.94022" lon="6.62339">
        <ele>619.648</ele>
        <time>2015-08-17T11:07:37Z</time>
      </trkpt>
      <trkpt lat="47.94065" lon="6.62368">
        <ele>623.361</ele>
        <time>2015-08-17T11:07:57Z</time>
      </trkpt>
      <trkpt lat="47.94074" lon="6.62365">
        <ele>625.068</ele>
        <time>2015-08-17T11:08:17Z</time>
      </trkpt>
      <trkpt lat="47.94072" lon="6.62328">
        <ele>633.142</ele>
        <time>2015-08-17T11:08:37Z</time>
      </trkpt>
      <trkpt lat="47.94043" lon="6.62234">
        <ele>642.347</ele>
        <time>2015-08-17T11:08:57Z</time>
      </trkpt>
      <trkpt lat="47.9403" lon="6.62133">
        <ele>653.329</ele>
        <time>2015-08-17T11:09:17Z</time>
      </trkpt>
      <trkpt lat="47.94031" lon="6.62078">
        <ele>659.321</ele>
        <time>2015-08-17T11:09:37Z</time>
      </trkpt>
      <trkpt lat="47.9402" lon="6.62031">
        <ele>661.808</ele>
        <time>2015-08-17T11:09:57Z</time>
      </trkpt>
      <trkpt lat="47.94026" lon="6.61991">
        <ele>666.56</ele>
        <time>2015-08-17T11:10:17Z</time>
      </trkpt>
      <trkpt lat="47.94017" lon="6.61954">
        <ele>669.185</ele>
        <time>2015-08-17T11:10:37Z</time>
      </trkpt>
      <trkpt lat="47.9402" lon="6.61929">
        <ele>672.556</ele>
        <time>2015-08-17T11:10:57Z</time>
      </trkpt>
      <trkpt lat="47.94045" lon="6.61939">
        <ele>674.911</ele>
        <time>2015-08-17T11:11:17Z</time>
      </trkpt>
      <trkpt lat="47.94148" lon="6.61863">
        <ele>681.28</ele>
        <time>2015-08-17T11:11:37Z</time>
      </trkpt>
      <trkpt lat="47.94212" lon="6.6183">
        <ele>671.563</ele>
        <time>2015-08-17T11:11:57Z</time>
      </trkpt>
      <trkpt lat="47.94258" lon="6.61817">
        <ele>664.07</ele>
        <time>2015-08-17T11:12:17Z</time>
      </trkpt>
      <trkpt lat="47.943" lon="6.61798">
        <ele>659.124</ele>
        <time>2015-08-17T11:12:37Z</time>
      </trkpt>
      <trkpt lat="47.94347" lon="6.61795">
        <ele>652.773</ele>
        <time>2015-08-17T11:12:57Z</time>
      </trkpt>
      <trkpt lat="47.94389" lon="6.61815">
        <ele>644.685</ele>
        <time>2015-08-17T11:13:17Z</time>
      </trkpt>
      <trkpt lat="47.94434" lon="6.61831">
        <ele>635.113</ele>
        <time>2015-08-17T11:13:37Z</time>
      </trkpt>
      <trkpt lat="47.94471" lon="6.61819">
        <ele>631.008</ele>
        <time>2015-08-17T11:13:57Z</time>
      </trkpt>
      <trkpt lat="47.94544" lon="6.61784">
        <ele>621.463</ele>
        <time>2015-08-17T11:14:17Z</time>
      </trkpt>
      <trkpt lat="47.94592" lon="6.61748">
        <ele>615.638</ele>
        <time>2015-08-17T11:14:37Z</time>
      </trkpt>
      <trkpt lat="47.94618" lon="6.61711">
        <ele>614.469</ele>
        <time>2015-08-17T11:14:57Z</time>
      </trkpt>
      <trkpt lat="47.94693" lon="6.61523">
        <ele>606.684</ele>
        <time>2015-08-17T11:15:17Z</time>
      </trkpt>
      <trkpt lat="47.9471" lon="6.61433">
        <ele>604.813</ele>
        <time>2015-08-17T11:15:37Z</time>
      </trkpt>
      <trkpt lat="47.94717" lon="6.61361">
        <ele>604.486</ele>
        <time>2015-08-17T11:15:57Z</time>
      </trkpt>
      <trkpt lat="47.94729" lon="6.61318">
        <ele>603.793</ele>
        <time>2015-08-17T11:16:17Z</time>
      </trkpt>
      <trkpt lat="47.94828" lon="6.61246">
        <ele>604.757</ele>
        <time>2015-08-17T11:16:37Z</time>
      </trkpt>
      <trkpt lat="47.94886" lon="6.61308">
        <ele>596.471</ele>
        <time>2015-08-17T11:16:57Z</time>
      </trkpt>
      <trkpt lat="47.94924" lon="6.61329">
        <ele>592.841</ele>
        <time>2015-08-17T11:17:17Z</time>
      </trkpt>
      <trkpt lat="47.95023" lon="6.61324">
        <ele>578.815</ele>
        <time>2015-08-17T11:17:37Z</time>
      </trkpt>
      <trkpt lat="47.95053" lon="6.61291">
        <ele>581.008</ele>
        <time>2015-08-17T11:17:57Z</time>
      </trkpt>
      <trkpt lat="47.95073" lon="6.61307">
        <ele>578.423</ele>
        <time>2015-08-17T11:18:17Z</time>
      </trkpt>
      <trkpt lat="47.95076" lon="6.61337">
        <ele>574.818</ele>
        <time>2015-08-17T11:18:37Z</time>
      </trkpt>
      <trkpt lat="47.95041" lon="6.614">
        <ele>566.749</ele>
        <time>2015-08-17T11:18:57Z</time>
      </trkpt>
      <trkpt lat="47.95041" lon="6.61428">
        <ele>564.344</ele>
        <time>2015-08-17T11:19:17Z</time>
      </trkpt>
      <trkpt lat="47.95056" lon="6.61448">
        <ele>561.873</ele>
        <time>2015-08-17T11:19:37Z</time>
      </trkpt>
      <trkpt lat="47.95165" lon="6.61457">
        <ele>550.966</ele>
        <time>2015-08-17T11:19:57Z</time>
      </trkpt>
      <trkpt lat="47.95235" lon="6.61449">
        <ele>544.733</ele>
        <time>2015-08-17T11:20:17Z</time>
      </trkpt>
      <trkpt lat="47.95271" lon="6.61433">
        <ele>542.077</ele>
        <time>2015-08-17T11:20:37Z</time>
      </trkpt>
      <trkpt lat="47.95386" lon="6.61274">
        <ele>562.624</ele>
        <time>2015-08-17T11:20:57Z</time>
      </trkpt>
      <trkpt lat="47.95409" lon="6.61218">
        <ele>570.304</ele>
        <time>2015-08-17T11:21:17Z</time>
      </trkpt>
      <trkpt lat="47.95445" lon="6.61172">
        <ele>572.114</ele>
        <time>2015-08-17T11:21:37Z</time>
      </trkpt>
      <trkpt lat="47.95488" lon="6.6114">
        <ele>572.408</ele>
        <time>2015-08-17T11:21:57Z</time>
      </trkpt>
      <trkpt lat="47.95576" lon="6.61215">
        <ele>574.178</ele>
        <time>2015-08-17T11:22:17Z</time>
      </trkpt>
      <trkpt lat="47.95594" lon="6.61299">
        <ele>570.773</ele>
        <time>2015-08-17T11:22:37Z</time>
      </trkpt>
      <trkpt lat="47.95661" lon="6.61392">
        <ele>587.054</ele>
        <time>2015-08-17T11:22:57Z</time>
      </trkpt>
      <trkpt lat="47.95747" lon="6.61455">
        <ele>602.539</ele>
        <time>2015-08-17T11:23:17Z</time>
      </trkpt>
      <trkpt lat="47.95737" lon="6.61377">
        <ele>614.298</ele>
        <time>2015-08-17T11:23:37Z</time>
      </trkpt>
      <trkpt lat="47.95716" lon="6.61315">
        <ele>619.031</ele>
        <time>2015-08-17T11:23:57Z</time>
      </trkpt>
      <trkpt lat="47.95696" lon="6.61279">
        <ele>618.388</ele>
        <time>2015-08-17T11:24:17Z</time>
      </trkpt>
      <trkpt lat="47.95714" lon="6.61218">
        <ele>627.932</ele>
        <time>2015-08-17T11:24:37Z</time>
      </trkpt>
      <trkpt lat="47.95711" lon="6.61181">
        <ele>629.057</ele>
        <time>2015-08-17T11:24:57Z</time>
      </trkpt>
      <trkpt lat="47.95721" lon="6.61147">
        <ele>634.4</ele>
        <time>2015-08-17T11:25:17Z</time>
      </trkpt>
      <trkpt lat="47.95722" lon="6.61057">
        <ele>640.82</ele>
        <time>2015-08-17T11:25:37Z</time>
      </trkpt>
      <trkpt lat="47.95716" lon="6.61019">
        <ele>643.708</ele>
        <time>2015-08-17T11:25:57Z</time>
      </trkpt>
      <trkpt lat="47.95696" lon="6.60993">
        <ele>643.111</ele>
        <time>2015-08-17T11:26:17Z</time>
      </trkpt>
      <trkpt lat="47.9569" lon="6.60934">
        <ele>646.956</ele>
        <time>2015-08-17T11:26:37Z</time>
      </trkpt>
      <trkpt lat="47.95716" lon="6.60898">
        <ele>653.867</ele>
        <time>2015-08-17T11:26:57Z</time>
      </trkpt>
      <trkpt lat="47.95745" lon="6.60841">
        <ele>656.532</ele>
        <time>2015-08-17T11:27:17Z</time>
      </trkpt>
      <trkpt lat="47.95751" lon="6.60903">
        <ele>661.151</ele>
        <time>2015-08-17T11:27:37Z</time>
      </trkpt>
      <trkpt lat="47.95763" lon="6.60928">
        <ele>662.414</ele>
        <time>2015-08-17T11:27:57Z</time>
      </trkpt>
      <trkpt lat="47.95786" lon="6.60907">
        <ele>666.431</ele>
        <time>2015-08-17T11:28:17Z</time>
      </trkpt>
      <trkpt lat="47.9586" lon="6.60861">
        <ele>679.995</ele>
        <time>2015-08-17T11:28:37Z</time>
      </trkpt>
      <trkpt lat="47.95904" lon="6.60852">
        <ele>690.668</ele>
        <time>2015-08-17T11:28:57Z</time>
      </trkpt>
      <trkpt lat="47.95944" lon="6.60862">
        <ele>694.142</ele>
        <time>2015-08-17T11:29:17Z</time>
      </trkpt>
      <trkpt lat="47.95978" lon="6.60843">
        <ele>694.026</ele>
        <time>2015-08-17T11:29:37Z</time>
      </trkpt>
      <trkpt lat="47.96029" lon="6.60842">
        <ele>697.108</ele>
        <time>2015-08-17T11:29:57Z</time>
      </trkpt>
      <trkpt lat="47.96049" lon="6.60793">
        <ele>698.232</ele>
        <time>2015-08-17T11:30:17Z</time>
      </trkpt>
      <trkpt lat="47.96055" lon="6.60731">
        <ele>698.017</ele>
        <time>2015-08-17T11:30:37Z</time>
      </trkpt>
      <trkpt lat="47.96175" lon="6.60627">
        <ele>717.268</ele>
        <time>2015-08-17T11:30:57Z</time>
      </trkpt>
      <trkpt lat="47.96211" lon="6.60625">
        <ele>722.493</ele>
        <time>2015-08-17T11:31:17Z</time>
      </trkpt>
      <trkpt lat="47.96256" lon="6.60643">
        <ele>728.662</ele>
        <time>2015-08-17T11:31:37Z</time>
      </trkpt>
      <trkpt lat="47.96285" lon="6.60628">
        <ele>731.855</ele>
        <time>2015-08-17T11:31:57Z</time>
      </trkpt>
      <trkpt lat="47.96338" lon="6.60529">
        <ele>731.122</ele>
        <time>2015-08-17T11:32:17Z</time>
      </trkpt>
      <trkpt lat="47.9644" lon="6.60482">
        <ele>729.496</ele>
        <time>2015-08-17T11:32:37Z</time>
      </trkpt>
      <trkpt lat="47.96537" lon="6.6053">
        <ele>728.773</ele>
        <time>2015-08-17T11:32:57Z</time>
      </trkpt>
      <trkpt lat="47.96616" lon="6.60546">
        <ele>723.385</ele>
        <time>2015-08-17T11:33:17Z</time>
      </trkpt>
      <trkpt lat="47.96652" lon="6.60542">
        <ele>720.713</ele>
        <time>2015-08-17T11:33:37Z</time>
      </trkpt>
      <trkpt lat="47.96724" lon="6.60471">
        <ele>715.808</ele>
        <time>2015-08-17T11:33:57Z</time>
      </trkpt>
      <trkpt lat="47.96725" lon="6.60427">
        <ele>713.973</ele>
        <time>2015-08-17T11:34:17Z</time>
      </trkpt>
      <trkpt lat="47.96712" lon="6.60363">
        <ele>713.028</ele>
        <time>2015-08-17T11:34:37Z</time>
      </trkpt>
      <trkpt lat="47.96708" lon="6.60189">
        <ele>703.949</ele>
        <time>2015-08-17T11:34:57Z</time>
      </trkpt>
      <trkpt lat="47.96747" lon="6.6009">
        <ele>704.544</ele>
        <time>2015-08-17T11:35:17Z</time>
      </trkpt>
      <trkpt lat="47.9679" lon="6.6003">
        <ele>707.933</ele>
        <time>2015-08-17T11:35:37Z</time>
      </trkpt>
      <trkpt lat="47.96836" lon="6.59947">
        <ele>712.796</ele>
        <time>2015-08-17T11:35:57Z</time>
      </trkpt>
      <trkpt lat="47.96973" lon="6.59836">
        <ele>711.633</ele>
        <time>2015-08-17T11:36:17Z</time>
      </trkpt>
      <trkpt lat="47.96999" lon="6.59776">
        <ele>712.337</ele>
        <time>2015-08-17T11:36:37Z</time>
      </trkpt>
      <trkpt lat="47.97028" lon="6.59756">
        <ele>712.675</ele>
        <time>2015-08-17T11:36:57Z</time>
      </trkpt>
      <trkpt lat="47.97099" lon="6.59756">
        <ele>710.028</ele>
        <time>2015-08-17T11:37:17Z</time>
      </trkpt>
      <trkpt lat="47.97132" lon="6.59717">
        <ele>709.02</ele>
        <time>2015-08-17T11:37:37Z</time>
      </trkpt>
      <trkpt lat="47.97201" lon="6.59664">
        <ele>704.408</ele>
        <time>2020-11-27T23:58:08Z</time>
      </trkpt>
      <trkpt lat="47.97274" lon="6.5964">
        <ele>695.823</ele>
        <time>2020-11-27T23:58:28Z</time>
      </trkpt>
      <trkpt lat="47.97331" lon="6.59644">
        <ele>687.688</ele>
        <time>2020-11-27T23:58:48Z</time>
      </trkpt>
      <trkpt lat="47.97369" lon="6.59662">
        <ele>680.079</ele>
        <time>2020-11-27T23:59:08Z</time>
      </trkpt>
      <trkpt lat="47.97396" lon="6.59672">
        <ele>675.244</ele>
        <time>2015-08-17T11:38:57Z</time>
      </trkpt>
      <trkpt lat="47.97485" lon="6.59739">
        <ele>670.583</ele>
        <time>2015-08-17T11:39:17Z</time>
      </trkpt>
      <trkpt lat="47.97544" lon="6.59728">
        <ele>671.616</ele>
        <time>2020-11-28T00:00:08Z</time>
      </trkpt>
      <trkpt lat="47.9759" lon="6.59599">
        <ele>685.043</ele>
        <time>2020-11-28T00:00:28Z</time>
      </trkpt>
      <trkpt lat="47.97666" lon="6.59495">
        <ele>699.337</ele>
        <time>2020-11-28T00:00:48Z</time>
      </trkpt>
      <trkpt lat="47.97753" lon="6.59317">
        <ele>712.638</ele>
        <time>2020-11-28T00:01:08Z</time>
      </trkpt>
      <trkpt lat="47.97806" lon="6.59291">
        <ele>712.57</ele>
        <time>2020-11-28T00:01:28Z</time>
      </trkpt>
      <trkpt lat="47.97979" lon="6.59274">
        <ele>709.717</ele>
        <time>2020-11-28T00:01:48Z</time>
      </trkpt>
      <trkpt lat="47.98016" lon="6.59252">
        <ele>708.108</ele>
        <time>2020-11-28T00:02:08Z</time>
      </trkpt>
      <trkpt lat="47.98086" lon="6.59286">
        <ele>703.029</ele>
        <time>2020-11-28T00:02:28Z</time>
      </trkpt>
      <trkpt lat="47.98109" lon="6.59321">
        <ele>704.294</ele>
        <time>2020-11-28T00:02:48Z</time>
      </trkpt>
      <trkpt lat="47.98134" lon="6.59323">
        <ele>706.855</ele>
        <time>2020-11-28T00:03:08Z</time>
      </trkpt>
      <trkpt lat="47.98162" lon="6.59315">
        <ele>708.27</ele>
        <time>2020-11-28T00:03:28Z</time>
      </trkpt>
      <trkpt lat="47.9821" lon="6.5929">
        <ele>710.379</ele>
        <time>2020-11-28T00:03:48Z</time>
      </trkpt>
      <trkpt lat="47.98277" lon="6.59311">
        <ele>709.672</ele>
        <time>2020-11-28T00:04:08Z</time>
      </trkpt>
      <trkpt lat="47.98383" lon="6.59265">
        <ele>710.279</ele>
        <time>2020-11-28T00:04:28Z</time>
      </trkpt>
      <trkpt lat="47.98429" lon="6.59275">
        <ele>708.783</ele>
        <time>2020-11-28T00:04:48Z</time>
      </trkpt>
      <trkpt lat="47.98454" lon="6.59311">
        <ele>705.061</ele>
        <time>2020-11-28T00:05:08Z</time>
      </trkpt>
      <trkpt lat="47.9852" lon="6.59373">
        <ele>699.221</ele>
        <time>2020-11-28T00:05:28Z</time>
      </trkpt>
      <trkpt lat="47.98552" lon="6.59397">
        <ele>697.413</ele>
        <time>2020-11-28T00:05:48Z</time>
      </trkpt>
      <trkpt lat="47.98608" lon="6.59454">
        <ele>692.208</ele>
        <time>2020-11-28T00:06:08Z</time>
      </trkpt>
      <trkpt lat="47.98668" lon="6.59452">
        <ele>692.422</ele>
        <time>2020-11-28T00:06:28Z</time>
      </trkpt>
      <trkpt lat="47.98682" lon="6.59496">
        <ele>694.137</ele>
        <time>2020-11-28T00:06:48Z</time>
      </trkpt>
      <trkpt lat="47.98687" lon="6.59618">
        <ele>680.078</ele>
        <time>2020-11-28T00:07:08Z</time>
      </trkpt>
      <trkpt lat="47.9886" lon="6.59808">
        <ele>667.723</ele>
        <time>2020-11-28T00:07:28Z</time>
      </trkpt>
      <trkpt lat="47.98918" lon="6.59834">
        <ele>668.992</ele>
        <time>2020-11-28T00:07:48Z</time>
      </trkpt>
      <trkpt lat="47.9904" lon="6.59904">
        <ele>670.975</ele>
        <time>2020-11-28T00:08:08Z</time>
      </trkpt>
      <trkpt lat="47.99129" lon="6.59996">
        <ele>655.682</ele>
        <time>2020-11-28T00:08:28Z</time>
      </trkpt>
      <trkpt lat="47.99178" lon="6.60008">
        <ele>665.216</ele>
        <time>2020-11-28T00:08:48Z</time>
      </trkpt>
      <trkpt lat="47.99227" lon="6.60056">
        <ele>665.365</ele>
        <time>2020-11-28T00:09:08Z</time>
      </trkpt>
      <trkpt lat="47.99304" lon="6.60092">
        <ele>678.068</ele>
        <time>2020-11-28T00:09:28Z</time>
      </trkpt>
      <trkpt lat="47.99387" lon="6.60074">
        <ele>685.814</ele>
        <time>2020-11-28T00:09:48Z</time>
      </trkpt>
      <trkpt lat="47.99483" lon="6.6014">
        <ele>679.108</ele>
        <time>2020-11-28T00:10:08Z</time>
      </trkpt>
      <trkpt lat="47.99523" lon="6.60268">
        <ele>657.762</ele>
        <time>2020-11-28T00:10:28Z</time>
      </trkpt>
      <trkpt lat="47.99581" lon="6.60205">
        <ele>656.027</ele>
        <time>2020-11-28T00:10:48Z</time>
      </trkpt>
      <trkpt lat="47.99642" lon="6.60197">
        <ele>642.678</ele>
        <time>2020-11-28T00:11:08Z</time>
      </trkpt>
      <trkpt lat="47.99694" lon="6.60132">
        <ele>642.613</ele>
        <time>2020-11-28T00:11:28Z</time>
      </trkpt>
      <trkpt lat="47.99772" lon="6.60089">
        <ele>645.372</ele>
        <time>2020-11-28T00:11:48Z</time>
      </trkpt>
      <trkpt lat="47.99916" lon="6.60042">
        <ele>652.415</ele>
        <time>2020-11-28T00:12:08Z</time>
      </trkpt>
      <trkpt lat="48.00002" lon="6.5999">
        <ele>667.942</ele>
        <time>2020-11-28T00:12:28Z</time>
      </trkpt>
      <trkpt lat="48.00137" lon="6.5997">
        <ele>648.966</ele>
        <time>2020-11-28T00:12:48Z</time>
      </trkpt>
      <trkpt lat="48.00202" lon="6.5998">
        <ele>639.171</ele>
        <time>2020-11-28T00:13:08Z</time>
      </trkpt>
      <trkpt lat="48.00268" lon="6.5993">
        <ele>625.541</ele>
        <time>2020-11-28T00:13:28Z</time>
      </trkpt>
      <trkpt lat="48.00327" lon="6.59906">
        <ele>613.615</ele>
        <time>2020-11-28T00:13:48Z</time>
      </trkpt>
      <trkpt lat="48.00379" lon="6.59862">
        <ele>609.908</ele>
        <time>2020-11-28T00:14:08Z</time>
      </trkpt>
      <trkpt lat="48.00551" lon="6.59782">
        <ele>583.073</ele>
        <time>2020-11-28T00:14:28Z</time>
      </trkpt>
      <trkpt lat="48.00645" lon="6.59654">
        <ele>577.118</ele>
        <time>2020-11-28T00:14:48Z</time>
      </trkpt>
      <trkpt lat="48.00754" lon="6.59578">
        <ele>558.369</ele>
        <time>2020-11-28T00:15:08Z</time>
      </trkpt>
      <trkpt lat="48.00839" lon="6.59538">
        <ele>545.164</ele>
        <time>2020-11-28T00:15:28Z</time>
      </trkpt>
      <trkpt lat="48.00953" lon="6.59456">
        <ele>525.933</ele>
        <time>2020-11-28T00:15:48Z</time>
      </trkpt>
      <trkpt lat="48.00993" lon="6.59411">
        <ele>513.956</ele>
        <time>2020-11-28T00:16:08Z</time>
      </trkpt>
      <trkpt lat="48.01032" lon="6.59345">
        <ele>504.653</ele>
        <time>2020-11-28T00:16:28Z</time>
      </trkpt>
      <trkpt lat="48.01052" lon="6.59247">
        <ele>493.877</ele>
        <time>2020-11-28T00:16:48Z</time>
      </trkpt>
      <trkpt lat="48.01026" lon="6.59171">
        <ele>489.159</ele>
        <time>2020-11-28T00:17:08Z</time>
      </trkpt>
      <trkpt lat="48.01032" lon="6.59123">
        <ele>482.203</ele>
        <time>2020-11-28T00:17:28Z</time>
      </trkpt>
      <trkpt lat="48.01061" lon="6.59105">
        <ele>480.523</ele>
        <time>2020-11-28T00:17:48Z</time>
      </trkpt>
      <trkpt lat="48.01148" lon="6.59077">
        <ele>467.908</ele>
        <time>2020-11-28T00:18:08Z</time>
      </trkpt>
      <trkpt lat="48.01156" lon="6.59159">
        <ele>458.311</ele>
        <time>2020-11-28T00:18:28Z</time>
      </trkpt>
      <trkpt lat="48.01175" lon="6.59159">
        <ele>449.926</ele>
        <time>2020-11-28T00:18:48Z</time>
      </trkpt>
      <trkpt lat="48.01238" lon="6.59041">
        <ele>424.027</ele>
        <time>2020-11-28T00:19:08Z</time>
      </trkpt>
      <trkpt lat="48.01277" lon="6.59063">
        <ele>420.992</ele>
        <time>2020-11-28T00:19:28Z</time>
      </trkpt>
      <trkpt lat="48.01334" lon="6.59063">
        <ele>413.391</ele>
        <time>2019-03-28T14:13:41Z</time>
      </trkpt>
      <trkpt lat="48.01334" lon="6.59063">
        <ele>413.384</ele>
        <time>2019-03-28T14:13:41Z</time>
      </trkpt>
      <trkpt lat="48.01349" lon="6.59046">
        <ele>407.631</ele>
        <time>2019-03-28T14:14:01Z</time>
      </trkpt>
      <trkpt lat="48.01368" lon="6.5901">
        <ele>403.545</ele>
        <time>2015-08-17T12:04:17Z</time>
      </trkpt>
      <trkpt lat="48.01388" lon="6.59044">
        <ele>403.146</ele>
        <time>2015-08-17T12:04:37Z</time>
      </trkpt>
      <trkpt lat="48.01418" lon="6.59067">
        <ele>400.688</ele>
        <time>2015-08-17T12:04:57Z</time>
      </trkpt>
      <trkpt lat="48.01546" lon="6.59068">
        <ele>403.116</ele>
        <time>2015-08-17T12:05:17Z</time>
      </trkpt>
      <trkpt lat="48.01553" lon="6.59033">
        <ele>403.108</ele>
        <time>2015-08-17T12:05:37Z</time>
      </trkpt>
      <trkpt lat="48.01568" lon="6.59028">
        <ele>403.04</ele>
        <time>2015-08-17T12:05:57Z</time>
      </trkpt>
      <trkpt lat="48.01583" lon="6.59009">
        <ele>403.755</ele>
        <time>2015-08-17T12:06:17Z</time>
      </trkpt>
      <trkpt lat="48.0168" lon="6.58957">
        <ele>401.826</ele>
        <time>2020-11-28T00:23:08Z</time>
      </trkpt>
      <trkpt lat="48.0166" lon="6.58847">
        <ele>402.661</ele>
        <time>2020-11-28T00:23:28Z</time>
      </trkpt>
      <trkpt lat="48.0164" lon="6.58611">
        <ele>406.08</ele>
        <time>2020-11-28T00:23:48Z</time>
      </trkpt>
      <trkpt lat="48.01707" lon="6.58625">
        <ele>404.643</ele>
        <time>2020-11-28T00:24:08Z</time>
      </trkpt>
      <trkpt lat="48.01715" lon="6.58438">
        <ele>402.67</ele>
        <time>2019-03-28T14:18:21Z</time>
      </trkpt>
      <trkpt lat="48.01701" lon="6.5833">
        <ele>402.484</ele>
        <time>2019-03-28T14:18:41Z</time>
      </trkpt>
      <trkpt lat="48.01709" lon="6.58276">
        <ele>401.171</ele>
        <time>2019-03-28T14:19:01Z</time>
      </trkpt>
      <trkpt lat="48.01913" lon="6.58242">
        <ele>402.941</ele>
        <time>2019-03-28T14:19:21Z</time>
      </trkpt>
      <trkpt lat="48.0191" lon="6.58157">
        <ele>403.915</ele>
        <time>2019-03-28T14:19:41Z</time>
      </trkpt>
      <trkpt lat="48.01898" lon="6.58109">
        <ele>408.808</ele>
        <time>2019-03-28T14:20:01Z</time>
      </trkpt>
      <trkpt lat="48.0194" lon="6.57922">
        <ele>424.683</ele>
        <time>2019-03-28T14:20:21Z</time>
      </trkpt>
      <trkpt lat="48.01928" lon="6.57826">
        <ele>433.118</ele>
        <time>2020-11-28T00:26:48Z</time>
      </trkpt>
      <trkpt lat="48.02028" lon="6.57381">
        <ele>440.029</ele>
        <time>2020-11-28T00:27:08Z</time>
      </trkpt>
      <trkpt lat="48.02027" lon="6.57301">
        <ele>437.744</ele>
        <time>2020-11-28T00:27:28Z</time>
      </trkpt>
      <trkpt lat="48.0204" lon="6.57219">
        <ele>433.353</ele>
        <time>2020-11-28T00:27:48Z</time>
      </trkpt>
      <trkpt lat="48.02114" lon="6.57215">
        <ele>432.986</ele>
        <time>2020-11-28T00:28:08Z</time>
      </trkpt>
      <trkpt lat="48.02153" lon="6.57239">
        <ele>429.653</ele>
        <time>2020-11-28T00:28:28Z</time>
      </trkpt>
      <trkpt lat="48.02173" lon="6.57265">
        <ele>425.257</ele>
        <time>2020-11-28T00:28:48Z</time>
      </trkpt>
      <trkpt lat="48.02201" lon="6.57213">
        <ele>421.674</ele>
        <time>2020-11-28T00:29:08Z</time>
      </trkpt>
      <trkpt lat="48.0226" lon="6.57255">
        <ele>416.956</ele>
        <time>2020-11-28T00:29:28Z</time>
      </trkpt>
      <trkpt lat="48.02335" lon="6.57351">
        <ele>412.421</ele>
        <time>2020-11-28T00:29:48Z</time>
      </trkpt>
      <trkpt lat="48.02345" lon="6.57504">
        <ele>410.508</ele>
        <time>2020-11-28T00:30:08Z</time>
      </trkpt>
      <trkpt lat="48.02321" lon="6.5754">
        <ele>409.483</ele>
        <time>2020-11-28T00:30:28Z</time>
      </trkpt>
      <trkpt lat="48.02374" lon="6.57588">
        <ele>405.168</ele>
        <time>2020-11-28T00:30:48Z</time>
      </trkpt>
      <trkpt lat="48.02395" lon="6.57574">
        <ele>403.349</ele>
        <time>2020-11-28T00:31:08Z</time>
      </trkpt>
      <trkpt lat="48.02422" lon="6.57518">
        <ele>403.984</ele>
        <time>2020-11-28T00:31:28Z</time>
      </trkpt>
      <trkpt lat="48.0247" lon="6.57357">
        <ele>397.093</ele>
        <time>2020-11-28T00:31:48Z</time>
      </trkpt>
      <trkpt lat="48.0253" lon="6.57309">
        <ele>397.676</ele>
        <time>2020-11-28T00:32:08Z</time>
      </trkpt>
      <trkpt lat="48.02523" lon="6.5724">
        <ele>400.563</ele>
        <time>2019-03-28T14:25:01Z</time>
      </trkpt>
      <trkpt lat="48.02552" lon="6.57175">
        <ele>403.867</ele>
        <time>2019-03-28T14:25:21Z</time>
      </trkpt>
      <trkpt lat="48.02558" lon="6.57161">
        <ele>404.157</ele>
        <time>2015-08-17T12:18:57Z</time>
      </trkpt>
      <trkpt lat="48.02555" lon="6.5696">
        <ele>417.3</ele>
        <time>2015-08-17T12:19:17Z</time>
      </trkpt>
      <trkpt lat="48.02542" lon="6.56934">
        <ele>419.62</ele>
        <time>2015-08-17T12:19:37Z</time>
      </trkpt>
      <trkpt lat="48.02481" lon="6.5693">
        <ele>419.508</ele>
        <time>2015-08-17T12:19:57Z</time>
      </trkpt>
      <trkpt lat="48.02417" lon="6.56893">
        <ele>420.881</ele>
        <time>2015-08-17T12:20:17Z</time>
      </trkpt>
      <trkpt lat="48.02186" lon="6.56621">
        <ele>426.786</ele>
        <time>2015-08-17T12:20:37Z</time>
      </trkpt>
      <trkpt lat="48.02138" lon="6.56466">
        <ele>427.827</ele>
        <time>2015-08-17T12:20:57Z</time>
      </trkpt>
      <trkpt lat="48.02098" lon="6.56401">
        <ele>427.522</ele>
        <time>2015-08-17T12:21:17Z</time>
      </trkpt>
      <trkpt lat="48.02053" lon="6.56358">
        <ele>427.231</ele>
        <time>2015-08-17T12:21:37Z</time>
      </trkpt>
      <trkpt lat="48.02032" lon="6.56241">
        <ele>427.594</ele>
        <time>2015-08-17T12:21:57Z</time>
      </trkpt>
      <trkpt lat="48.02029" lon="6.56145">
        <ele>423.071</ele>
        <time>2015-08-17T12:22:17Z</time>
      </trkpt>
      <trkpt lat="48.02053" lon="6.56031">
        <ele>418.525</ele>
        <time>2015-08-17T12:22:37Z</time>
      </trkpt>
      <trkpt lat="48.02064" lon="6.55913">
        <ele>419.526</ele>
        <time>2015-08-17T12:22:57Z</time>
      </trkpt>
      <trkpt lat="48.02091" lon="6.55788">
        <ele>413.647</ele>
        <time>2015-08-17T12:23:17Z</time>
      </trkpt>
      <trkpt lat="48.02092" lon="6.55708">
        <ele>418.411</ele>
        <time>2015-08-17T12:23:37Z</time>
      </trkpt>
      <trkpt lat="48.02116" lon="6.55651">
        <ele>418.908</ele>
        <time>2015-08-17T12:23:57Z</time>
      </trkpt>
      <trkpt lat="48.02077" lon="6.55444">
        <ele>422.418</ele>
        <time>2015-08-17T12:24:17Z</time>
      </trkpt>
      <trkpt lat="48.02085" lon="6.55308">
        <ele>424.083</ele>
        <time>2015-08-17T12:24:37Z</time>
      </trkpt>
      <trkpt lat="48.0205" lon="6.55166">
        <ele>425.654</ele>
        <time>2015-08-17T12:24:57Z</time>
      </trkpt>
      <trkpt lat="48.01989" lon="6.55039">
        <ele>430.339</ele>
        <time>2015-08-17T12:25:17Z</time>
      </trkpt>
      <trkpt lat="48.01963" lon="6.54918">
        <ele>438.558</ele>
        <time>2015-08-17T12:25:37Z</time>
      </trkpt>
      <trkpt lat="48.01973" lon="6.54743">
        <ele>443.991</ele>
        <time>2015-08-17T12:25:57Z</time>
      </trkpt>
      <trkpt lat="48.01966" lon="6.54694">
        <ele>441.718</ele>
        <time>2015-08-17T12:26:17Z</time>
      </trkpt>
      <trkpt lat="48.01971" lon="6.54655">
        <ele>444.192</ele>
        <time>2015-08-17T12:26:37Z</time>
      </trkpt>
      <trkpt lat="48.02011" lon="6.54648">
        <ele>460.235</ele>
        <time>2015-08-17T12:26:57Z</time>
      </trkpt>
      <trkpt lat="48.02024" lon="6.54601">
        <ele>464.386</ele>
        <time>2015-08-17T12:27:17Z</time>
      </trkpt>
      <trkpt lat="48.02054" lon="6.54554">
        <ele>468.214</ele>
        <time>2015-08-17T12:27:37Z</time>
      </trkpt>
      <trkpt lat="48.02075" lon="6.54496">
        <ele>465.308</ele>
        <time>2015-08-17T12:27:57Z</time>
      </trkpt>
      <trkpt lat="48.02137" lon="6.54427">
        <ele>465.949</ele>
        <time>2015-08-17T12:28:17Z</time>
      </trkpt>
      <trkpt lat="48.02176" lon="6.5441">
        <ele>471.484</ele>
        <time>2015-08-17T12:28:37Z</time>
      </trkpt>
      <trkpt lat="48.02221" lon="6.54415">
        <ele>480.765</ele>
        <time>2015-08-17T12:28:57Z</time>
      </trkpt>
      <trkpt lat="48.0226" lon="6.54401">
        <ele>491.22</ele>
        <time>2015-08-17T12:29:17Z</time>
      </trkpt>
      <trkpt lat="48.02281" lon="6.54382">
        <ele>496.769</ele>
        <time>2015-08-17T12:29:37Z</time>
      </trkpt>
      <trkpt lat="48.02288" lon="6.54314">
        <ele>494.262</ele>
        <time>2015-08-17T12:29:57Z</time>
      </trkpt>
      <trkpt lat="48.02323" lon="6.54311">
        <ele>494.099</ele>
        <time>2015-08-17T12:30:17Z</time>
      </trkpt>
      <trkpt lat="48.02384" lon="6.54268">
        <ele>494.873</ele>
        <time>2015-08-17T12:30:37Z</time>
      </trkpt>
      <trkpt lat="48.02477" lon="6.54161">
        <ele>488.796</ele>
        <time>2015-08-17T12:30:57Z</time>
      </trkpt>
      <trkpt lat="48.02503" lon="6.54129">
        <ele>494.831</ele>
        <time>2015-08-17T12:31:17Z</time>
      </trkpt>
      <trkpt lat="48.02528" lon="6.54109">
        <ele>501.824</ele>
        <time>2015-08-17T12:31:37Z</time>
      </trkpt>
      <trkpt lat="48.02537" lon="6.5407">
        <ele>502.908</ele>
        <time>2015-08-17T12:31:57Z</time>
      </trkpt>
      <trkpt lat="48.02551" lon="6.54044">
        <ele>505.675</ele>
        <time>2015-08-17T12:32:17Z</time>
      </trkpt>
      <trkpt lat="48.02584" lon="6.53937">
        <ele>504.81</ele>
        <time>2015-08-17T12:32:37Z</time>
      </trkpt>
      <trkpt lat="48.0261" lon="6.53892">
        <ele>514.541</ele>
        <time>2015-08-17T12:32:57Z</time>
      </trkpt>
      <trkpt lat="48.02629" lon="6.53875">
        <ele>520.226</ele>
        <time>2015-08-17T12:33:17Z</time>
      </trkpt>
      <trkpt lat="48.02675" lon="6.53845">
        <ele>528.645</ele>
        <time>2015-08-17T12:33:37Z</time>
      </trkpt>
      <trkpt lat="48.02729" lon="6.5383">
        <ele>531.898</ele>
        <time>2015-08-17T12:33:57Z</time>
      </trkpt>
      <trkpt lat="48.02758" lon="6.53797">
        <ele>529.715</ele>
        <time>2015-08-17T12:34:17Z</time>
      </trkpt>
      <trkpt lat="48.02773" lon="6.53768">
        <ele>527.839</ele>
        <time>2015-08-17T12:34:37Z</time>
      </trkpt>
      <trkpt lat="48.02829" lon="6.53814">
        <ele>530.042</ele>
        <time>2015-08-17T12:34:57Z</time>
      </trkpt>
      <trkpt lat="48.02872" lon="6.53713">
        <ele>531.022</ele>
        <time>2015-08-17T12:35:17Z</time>
      </trkpt>
      <trkpt lat="48.02882" lon="6.5365">
        <ele>528.514</ele>
        <time>2015-08-17T12:35:37Z</time>
      </trkpt>
      <trkpt lat="48.02887" lon="6.53553">
        <ele>530.108</ele>
        <time>2015-08-17T12:35:57Z</time>
      </trkpt>
      <trkpt lat="48.02961" lon="6.53513">
        <ele>528.04</ele>
        <time>2015-08-17T12:36:17Z</time>
      </trkpt>
      <trkpt lat="48.03076" lon="6.5348">
        <ele>527.715</ele>
        <time>2015-08-17T12:36:37Z</time>
      </trkpt>
      <trkpt lat="48.03118" lon="6.53492">
        <ele>528.316</ele>
        <time>2015-08-17T12:36:57Z</time>
      </trkpt>
      <trkpt lat="48.03158" lon="6.53541">
        <ele>530.331</ele>
        <time>2015-08-17T12:37:17Z</time>
      </trkpt>
      <trkpt lat="48.03195" lon="6.53519">
        <ele>528.73</ele>
        <time>2015-08-17T12:37:37Z</time>
      </trkpt>
      <trkpt lat="48.03272" lon="6.53507">
        <ele>532.643</ele>
        <time>2015-08-17T12:37:57Z</time>
      </trkpt>
      <trkpt lat="48.03286" lon="6.53456">
        <ele>531.47</ele>
        <time>2015-08-17T12:38:17Z</time>
      </trkpt>
      <trkpt lat="48.03284" lon="6.53288">
        <ele>530.764</ele>
        <time>2015-08-17T12:38:37Z</time>
      </trkpt>
      <trkpt lat="48.03288" lon="6.53155">
        <ele>541.236</ele>
        <time>2015-08-17T12:38:57Z</time>
      </trkpt>
      <trkpt lat="48.033" lon="6.53078">
        <ele>545.717</ele>
        <time>2015-08-17T12:39:17Z</time>
      </trkpt>
      <trkpt lat="48.03274" lon="6.52866">
        <ele>551.118</ele>
        <time>2015-08-17T12:39:37Z</time>
      </trkpt>
      <trkpt lat="48.03277" lon="6.52794">
        <ele>551.908</ele>
        <time>2015-08-17T12:39:57Z</time>
      </trkpt>
      <trkpt lat="48.03268" lon="6.52749">
        <ele>549.639</ele>
        <time>2015-08-17T12:40:17Z</time>
      </trkpt>
      <trkpt lat="48.03269" lon="6.52709">
        <ele>547.754</ele>
        <time>2015-08-17T12:40:37Z</time>
      </trkpt>
      <trkpt lat="48.03289" lon="6.52665">
        <ele>547.665</ele>
        <time>2015-08-17T12:40:57Z</time>
      </trkpt>
      <trkpt lat="48.03276" lon="6.52617">
        <ele>543.29</ele>
        <time>2015-08-17T12:41:17Z</time>
      </trkpt>
      <trkpt lat="48.03224" lon="6.52578">
        <ele>537.259</ele>
        <time>2015-08-17T12:41:37Z</time>
      </trkpt>
      <trkpt lat="48.03145" lon="6.52497">
        <ele>526.522</ele>
        <time>2015-08-17T12:41:57Z</time>
      </trkpt>
      <trkpt lat="48.03127" lon="6.52499">
        <ele>528.269</ele>
        <time>2015-08-17T12:42:17Z</time>
      </trkpt>
      <trkpt lat="48.03094" lon="6.52522">
        <ele>529.543</ele>
        <time>2015-08-17T12:42:37Z</time>
      </trkpt>
      <trkpt lat="48.0308" lon="6.52463">
        <ele>528.813</ele>
        <time>2015-08-17T12:42:57Z</time>
      </trkpt>
      <trkpt lat="48.03075" lon="6.52388">
        <ele>523.043</ele>
        <time>2015-08-17T12:43:17Z</time>
      </trkpt>
      <trkpt lat="48.03055" lon="6.52307">
        <ele>524.107</ele>
        <time>2015-08-17T12:43:37Z</time>
      </trkpt>
      <trkpt lat="48.03084" lon="6.52121">
        <ele>534.208</ele>
        <time>2015-08-17T12:43:57Z</time>
      </trkpt>
      <trkpt lat="48.03094" lon="6.51994">
        <ele>527.677</ele>
        <time>2015-08-17T12:44:17Z</time>
      </trkpt>
      <trkpt lat="48.03106" lon="6.51928">
        <ele>521.862</ele>
        <time>2015-08-17T12:44:37Z</time>
      </trkpt>
      <trkpt lat="48.03111" lon="6.51855">
        <ele>520.883</ele>
        <time>2015-08-17T12:44:57Z</time>
      </trkpt>
      <trkpt lat="48.03122" lon="6.51792">
        <ele>517.598</ele>
        <time>2015-08-17T12:45:17Z</time>
      </trkpt>
      <trkpt lat="48.03103" lon="6.51714">
        <ele>523.747</ele>
        <time>2015-08-17T12:45:37Z</time>
      </trkpt>
      <trkpt lat="48.03113" lon="6.51626">
        <ele>529.62</ele>
        <time>2015-08-17T12:45:57Z</time>
      </trkpt>
      <trkpt lat="48.03116" lon="6.51553">
        <ele>529.547</ele>
        <time>2015-08-17T12:46:17Z</time>
      </trkpt>
      <trkpt lat="48.03138" lon="6.51419">
        <ele>525.241</ele>
        <time>2015-08-17T12:46:37Z</time>
      </trkpt>
      <trkpt lat="48.03151" lon="6.51283">
        <ele>531.895</ele>
        <time>2015-08-17T12:46:57Z</time>
      </trkpt>
      <trkpt lat="48.03177" lon="6.5121">
        <ele>528.849</ele>
        <time>2015-08-17T12:47:17Z</time>
      </trkpt>
      <trkpt lat="48.03203" lon="6.51149">
        <ele>517.623</ele>
        <time>2015-08-17T12:47:37Z</time>
      </trkpt>
      <trkpt lat="48.03203" lon="6.51123">
        <ele>516.808</ele>
        <time>2015-08-17T12:47:57Z</time>
      </trkpt>
      <trkpt lat="48.03235" lon="6.51088">
        <ele>512.775</ele>
        <time>2015-08-17T12:48:17Z</time>
      </trkpt>
      <trkpt lat="48.03265" lon="6.51071">
        <ele>507.99</ele>
        <time>2015-08-17T12:48:37Z</time>
      </trkpt>
      <trkpt lat="48.03296" lon="6.51038">
        <ele>503.611</ele>
        <time>2015-08-17T12:48:57Z</time>
      </trkpt>
      <trkpt lat="48.03324" lon="6.5098">
        <ele>500.286</ele>
        <time>2015-08-17T12:49:17Z</time>
      </trkpt>
      <trkpt lat="48.03329" lon="6.50926">
        <ele>496.285</ele>
        <time>2015-08-17T12:49:37Z</time>
      </trkpt>
      <trkpt lat="48.03323" lon="6.50868">
        <ele>491.878</ele>
        <time>2015-08-17T12:49:57Z</time>
      </trkpt>
      <trkpt lat="48.03321" lon="6.5081">
        <ele>484.315</ele>
        <time>2015-08-17T12:50:17Z</time>
      </trkpt>
      <trkpt lat="48.03312" lon="6.50817">
        <ele>486.179</ele>
        <time>2015-08-17T12:50:37Z</time>
      </trkpt>
      <trkpt lat="48.03253" lon="6.50797">
        <ele>482.767</ele>
        <time>2015-08-17T12:50:57Z</time>
      </trkpt>
      <trkpt lat="48.03186" lon="6.50757">
        <ele>478.681</ele>
        <time>2015-08-17T12:51:17Z</time>
      </trkpt>
      <trkpt lat="48.03169" lon="6.50725">
        <ele>472.619</ele>
        <time>2015-08-17T12:51:37Z</time>
      </trkpt>
      <trkpt lat="48.03176" lon="6.50702">
        <ele>466.508</ele>
        <time>2015-08-17T12:51:57Z</time>
      </trkpt>
      <trkpt lat="48.03193" lon="6.50666">
        <ele>463.292</ele>
        <time>2015-08-17T12:52:17Z</time>
      </trkpt>
      <trkpt lat="48.03231" lon="6.50701">
        <ele>458.097</ele>
        <time>2015-08-17T12:52:37Z</time>
      </trkpt>
      <trkpt lat="48.03249" lon="6.50684">
        <ele>456.828</ele>
        <time>2015-08-17T12:52:57Z</time>
      </trkpt>
      <trkpt lat="48.03245" lon="6.50643">
        <ele>465.173</ele>
        <time>2015-08-17T12:53:17Z</time>
      </trkpt>
      <trkpt lat="48.03232" lon="6.50585">
        <ele>483.972</ele>
        <time>2015-08-17T12:53:37Z</time>
      </trkpt>
      <trkpt lat="48.03236" lon="6.50541">
        <ele>493.125</ele>
        <time>2015-08-17T12:53:57Z</time>
      </trkpt>
      <trkpt lat="48.03246" lon="6.50509">
        <ele>498.142</ele>
        <time>2015-08-17T12:54:17Z</time>
      </trkpt>
      <trkpt lat="48.03245" lon="6.50487">
        <ele>500.626</ele>
        <time>2015-08-17T12:54:37Z</time>
      </trkpt>
      <trkpt lat="48.03219" lon="6.50479">
        <ele>505.219</ele>
        <time>2015-08-17T12:54:57Z</time>
      </trkpt>
      <trkpt lat="48.03169" lon="6.50495">
        <ele>501.209</ele>
        <time>2015-08-17T12:55:17Z</time>
      </trkpt>
      <trkpt lat="48.03107" lon="6.50486">
        <ele>495.219</ele>
        <time>2015-08-17T12:55:37Z</time>
      </trkpt>
      <trkpt lat="48.03075" lon="6.50443">
        <ele>502.708</ele>
        <time>2015-08-17T12:55:57Z</time>
      </trkpt>
      <trkpt lat="48.03071" lon="6.50393">
        <ele>506.417</ele>
        <time>2015-08-17T12:56:17Z</time>
      </trkpt>
      <trkpt lat="48.03046" lon="6.50368">
        <ele>504.672</ele>
        <time>2015-08-17T12:56:37Z</time>
      </trkpt>
      <trkpt lat="48.02999" lon="6.50289">
        <ele>505.083</ele>
        <time>2015-08-17T12:56:57Z</time>
      </trkpt>
      <trkpt lat="48.02942" lon="6.50209">
        <ele>509.588</ele>
        <time>2015-08-17T12:57:17Z</time>
      </trkpt>
      <trkpt lat="48.02885" lon="6.50165">
        <ele>514.227</ele>
        <time>2015-08-17T12:57:37Z</time>
      </trkpt>
      <trkpt lat="48.02888" lon="6.50129">
        <ele>517.19</ele>
        <time>2015-08-17T12:57:57Z</time>
      </trkpt>
      <trkpt lat="48.02882" lon="6.50102">
        <ele>519.797</ele>
        <time>2015-08-17T12:58:17Z</time>
      </trkpt>
      <trkpt lat="48.02851" lon="6.50018">
        <ele>524.021</ele>
        <time>2015-08-17T12:58:37Z</time>
      </trkpt>
      <trkpt lat="48.02833" lon="6.49957">
        <ele>524.612</ele>
        <time>2015-08-17T12:58:57Z</time>
      </trkpt>
      <trkpt lat="48.02754" lon="6.49937">
        <ele>529.432</ele>
        <time>2015-08-17T12:59:17Z</time>
      </trkpt>
      <trkpt lat="48.02675" lon="6.49913">
        <ele>530.105</ele>
        <time>2015-08-17T12:59:37Z</time>
      </trkpt>
      <trkpt lat="48.02662" lon="6.49897">
        <ele>530.608</ele>
        <time>2015-08-17T12:59:57Z</time>
      </trkpt>
      <trkpt lat="48.02667" lon="6.49744">
        <ele>539.227</ele>
        <time>2015-08-17T13:00:17Z</time>
      </trkpt>
      <trkpt lat="48.02698" lon="6.49673">
        <ele>540.622</ele>
        <time>2015-08-17T13:00:37Z</time>
      </trkpt>
      <trkpt lat="48.02728" lon="6.49662">
        <ele>543.333</ele>
        <time>2015-08-17T13:00:57Z</time>
      </trkpt>
      <trkpt lat="48.02766" lon="6.49663">
        <ele>545.688</ele>
        <time>2015-08-17T13:01:17Z</time>
      </trkpt>
      <trkpt lat="48.02772" lon="6.4964">
        <ele>546.627</ele>
        <time>2015-08-17T13:01:37Z</time>
      </trkpt>
      <trkpt lat="48.02763" lon="6.49614">
        <ele>545.51</ele>
        <time>2015-08-17T13:01:57Z</time>
      </trkpt>
      <trkpt lat="48.02764" lon="6.49559">
        <ele>544.147</ele>
        <time>2015-08-17T13:02:17Z</time>
      </trkpt>
      <trkpt lat="48.02698" lon="6.49474">
        <ele>540.471</ele>
        <time>2015-08-17T13:02:37Z</time>
      </trkpt>
      <trkpt lat="48.02712" lon="6.49404">
        <ele>542.233</ele>
        <time>2015-08-17T13:02:57Z</time>
      </trkpt>
      <trkpt lat="48.0274" lon="6.49341">
        <ele>544.823</ele>
        <time>2015-08-17T13:03:17Z</time>
      </trkpt>
      <trkpt lat="48.02735" lon="6.49299">
        <ele>544.715</ele>
        <time>2015-08-17T13:03:37Z</time>
      </trkpt>
      <trkpt lat="48.02684" lon="6.49222">
        <ele>547.008</ele>
        <time>2015-08-17T13:03:57Z</time>
      </trkpt>
      <trkpt lat="48.02672" lon="6.49189">
        <ele>548.249</ele>
        <time>2015-08-17T13:04:17Z</time>
      </trkpt>
      <trkpt lat="48.02675" lon="6.49157">
        <ele>549.184</ele>
        <time>2015-08-17T13:04:37Z</time>
      </trkpt>
      <trkpt lat="48.02712" lon="6.49114">
        <ele>551.525</ele>
        <time>2015-08-17T13:04:57Z</time>
      </trkpt>
      <trkpt lat="48.02771" lon="6.49032">
        <ele>551.99</ele>
        <time>2015-08-17T13:05:17Z</time>
      </trkpt>
      <trkpt lat="48.02907" lon="6.48909">
        <ele>551.419</ele>
        <time>2015-08-17T13:05:37Z</time>
      </trkpt>
      <trkpt lat="48.0295" lon="6.48812">
        <ele>551.222</ele>
        <time>2015-08-17T13:05:57Z</time>
      </trkpt>
      <trkpt lat="48.02972" lon="6.48698">
        <ele>551.989</ele>
        <time>2015-08-17T13:06:17Z</time>
      </trkpt>
      <trkpt lat="48.02956" lon="6.48616">
        <ele>554.843</ele>
        <time>2015-08-17T13:06:37Z</time>
      </trkpt>
      <trkpt lat="48.02876" lon="6.48354">
        <ele>555.264</ele>
        <time>2015-08-17T13:06:57Z</time>
      </trkpt>
      <trkpt lat="48.02867" lon="6.48285">
        <ele>557.206</ele>
        <time>2015-08-17T13:07:17Z</time>
      </trkpt>
      <trkpt lat="48.0288" lon="6.48117">
        <ele>562.016</ele>
        <time>2015-08-17T13:07:37Z</time>
      </trkpt>
      <trkpt lat="48.02913" lon="6.48049">
        <ele>566.908</ele>
        <time>2015-08-17T13:07:57Z</time>
      </trkpt>
      <trkpt lat="48.02988" lon="6.47973">
        <ele>572.792</ele>
        <time>2015-08-17T13:08:17Z</time>
      </trkpt>
      <trkpt lat="48.03017" lon="6.4792">
        <ele>575.057</ele>
        <time>2015-08-17T13:08:37Z</time>
      </trkpt>
      <trkpt lat="48.0304" lon="6.47849">
        <ele>578.338</ele>
        <time>2015-08-17T13:08:57Z</time>
      </trkpt>
      <trkpt lat="48.03116" lon="6.47697">
        <ele>581.953</ele>
        <time>2015-08-17T13:09:17Z</time>
      </trkpt>
      <trkpt lat="48.03136" lon="6.47624">
        <ele>581.152</ele>
        <time>2015-08-17T13:09:37Z</time>
      </trkpt>
      <trkpt lat="48.03214" lon="6.47642">
        <ele>581.055</ele>
        <time>2015-08-17T13:09:57Z</time>
      </trkpt>
      <trkpt lat="48.03303" lon="6.47607">
        <ele>576.342</ele>
        <time>2015-08-17T13:10:17Z</time>
      </trkpt>
      <trkpt lat="48.03443" lon="6.47521">
        <ele>563.676</ele>
        <time>2015-08-17T13:10:37Z</time>
      </trkpt>
      <trkpt lat="48.03489" lon="6.47523">
        <ele>563.287</ele>
        <time>2015-08-17T13:10:57Z</time>
      </trkpt>
      <trkpt lat="48.03499" lon="6.47351">
        <ele>566.842</ele>
        <time>2015-08-17T13:11:17Z</time>
      </trkpt>
      <trkpt lat="48.03497" lon="6.47293">
        <ele>570.226</ele>
        <time>2015-08-17T13:11:37Z</time>
      </trkpt>
      <trkpt lat="48.03444" lon="6.47029">
        <ele>576.108</ele>
        <time>2015-08-17T13:11:57Z</time>
      </trkpt>
      <trkpt lat="48.03448" lon="6.46992">
        <ele>578.274</ele>
        <time>2015-08-17T13:12:17Z</time>
      </trkpt>
      <trkpt lat="48.0347" lon="6.46977">
        <ele>583.249</ele>
        <time>2015-08-17T13:12:37Z</time>
      </trkpt>
      <trkpt lat="48.03569" lon="6.46999">
        <ele>573.22</ele>
        <time>2015-08-17T13:12:57Z</time>
      </trkpt>
      <trkpt lat="48.03639" lon="6.46989">
        <ele>557.175</ele>
        <time>2015-08-17T13:13:17Z</time>
      </trkpt>
      <trkpt lat="48.03714" lon="6.46826">
        <ele>549.324</ele>
        <time>2015-08-17T13:13:37Z</time>
      </trkpt>
      <trkpt lat="48.03736" lon="6.46757">
        <ele>544.947</ele>
        <time>2015-08-17T13:13:57Z</time>
      </trkpt>
      <trkpt lat="48.03789" lon="6.46725">
        <ele>544.984</ele>
        <time>2015-08-17T13:14:17Z</time>
      </trkpt>
      <trkpt lat="48.03799" lon="6.4674">
        <ele>542.518</ele>
        <time>2015-08-17T13:14:37Z</time>
      </trkpt>
      <trkpt lat="48.03814" lon="6.46734">
        <ele>543.231</ele>
        <time>2015-08-17T13:14:57Z</time>
      </trkpt>
      <trkpt lat="48.03847" lon="6.46691">
        <ele>552.161</ele>
        <time>2015-08-17T13:15:17Z</time>
      </trkpt>
      <trkpt lat="48.03885" lon="6.46691">
        <ele>556.407</ele>
        <time>2015-08-17T13:15:37Z</time>
      </trkpt>
      <trkpt lat="48.03914" lon="6.46678">
        <ele>560.708</ele>
        <time>2015-08-17T13:15:57Z</time>
      </trkpt>
      <trkpt lat="48.03977" lon="6.46632">
        <ele>554.039</ele>
        <time>2015-08-17T13:16:17Z</time>
      </trkpt>
      <trkpt lat="48.0405" lon="6.46522">
        <ele>550.464</ele>
        <time>2015-08-17T13:16:37Z</time>
      </trkpt>
      <trkpt lat="48.04089" lon="6.46565">
        <ele>541.775</ele>
        <time>2015-08-17T13:16:57Z</time>
      </trkpt>
      <trkpt lat="48.04122" lon="6.46634">
        <ele>543.89</ele>
        <time>2015-08-17T13:17:17Z</time>
      </trkpt>
      <trkpt lat="48.0416" lon="6.46525">
        <ele>546.979</ele>
        <time>2015-08-17T13:17:37Z</time>
      </trkpt>
      <trkpt lat="48.04235" lon="6.46232">
        <ele>535.662</ele>
        <time>2015-08-17T13:17:57Z</time>
      </trkpt>
      <trkpt lat="48.04244" lon="6.46128">
        <ele>530.119</ele>
        <time>2015-08-17T13:18:17Z</time>
      </trkpt>
      <trkpt lat="48.04284" lon="6.46047">
        <ele>528.993</ele>
        <time>2015-08-17T13:18:37Z</time>
      </trkpt>
      <trkpt lat="48.04361" lon="6.45953">
        <ele>528.935</ele>
        <time>2015-08-17T13:18:57Z</time>
      </trkpt>
      <trkpt lat="48.04361" lon="6.45777">
        <ele>516.086</ele>
        <time>2015-08-17T13:19:17Z</time>
      </trkpt>
      <trkpt lat="48.04389" lon="6.45638">
        <ele>515.814</ele>
        <time>2015-08-17T13:19:37Z</time>
      </trkpt>
      <trkpt lat="48.04433" lon="6.45495">
        <ele>507.408</ele>
        <time>2015-08-17T13:19:57Z</time>
      </trkpt>
      <trkpt lat="48.04444" lon="6.4538">
        <ele>501.729</ele>
        <time>2015-08-17T13:20:17Z</time>
      </trkpt>
      <trkpt lat="48.04482" lon="6.45271">
        <ele>498.434</ele>
        <time>2015-08-17T13:20:37Z</time>
      </trkpt>
      <trkpt lat="48.04502" lon="6.45174">
        <ele>493.195</ele>
        <time>2015-08-17T13:20:57Z</time>
      </trkpt>
      <trkpt lat="48.04575" lon="6.45026">
        <ele>491.72</ele>
        <time>2015-08-17T13:21:17Z</time>
      </trkpt>
      <trkpt lat="48.04639" lon="6.44813">
        <ele>482.069</ele>
        <time>2015-08-17T13:21:37Z</time>
      </trkpt>
      <trkpt lat="48.04683" lon="6.4473">
        <ele>485.082</ele>
        <time>2015-08-17T13:21:57Z</time>
      </trkpt>
      <trkpt lat="48.04755" lon="6.44522">
        <ele>476.589</ele>
        <time>2015-08-17T13:22:17Z</time>
      </trkpt>
      <trkpt lat="48.0478" lon="6.44422">
        <ele>472.693</ele>
        <time>2015-08-17T13:22:37Z</time>
      </trkpt>
      <trkpt lat="48.04856" lon="6.44341">
        <ele>477.751</ele>
        <time>2015-08-17T13:22:57Z</time>
      </trkpt>
      <trkpt lat="48.04894" lon="6.44316">
        <ele>488.701</ele>
        <time>2015-08-17T13:23:17Z</time>
      </trkpt>
      <trkpt lat="48.04954" lon="6.4412">
        <ele>492.011</ele>
        <time>2015-08-17T13:23:37Z</time>
      </trkpt>
      <trkpt lat="48.04976" lon="6.44095">
        <ele>496.908</ele>
        <time>2015-08-17T13:23:57Z</time>
      </trkpt>
      <trkpt lat="48.05008" lon="6.441">
        <ele>502.421</ele>
        <time>2015-08-17T13:24:17Z</time>
      </trkpt>
      <trkpt lat="48.0505" lon="6.44126">
        <ele>517.086</ele>
        <time>2015-08-17T13:24:37Z</time>
      </trkpt>
      <trkpt lat="48.0507" lon="6.44106">
        <ele>518.557</ele>
        <time>2015-08-17T13:24:57Z</time>
      </trkpt>
      <trkpt lat="48.05088" lon="6.43998">
        <ele>508.832</ele>
        <time>2015-08-17T13:25:17Z</time>
      </trkpt>
      <trkpt lat="48.05148" lon="6.43931">
        <ele>523.621</ele>
        <time>2015-08-17T13:25:37Z</time>
      </trkpt>
      <trkpt lat="48.05191" lon="6.4387">
        <ele>524.964</ele>
        <time>2015-08-17T13:25:57Z</time>
      </trkpt>
      <trkpt lat="48.05227" lon="6.43842">
        <ele>530.731</ele>
        <time>2020-11-28T01:40:28Z</time>
      </trkpt>
      <trkpt lat="48.05295" lon="6.43781">
        <ele>545.565</ele>
        <time>2020-11-28T01:40:48Z</time>
      </trkpt>
      <trkpt lat="48.05349" lon="6.43755">
        <ele>556.414</ele>
        <time>2020-11-28T01:41:08Z</time>
      </trkpt>
      <trkpt lat="48.05478" lon="6.43887">
        <ele>576.754</ele>
        <time>2020-11-28T01:41:28Z</time>
      </trkpt>
      <trkpt lat="48.05538" lon="6.43887">
        <ele>572.009</ele>
        <time>2020-11-28T01:41:48Z</time>
      </trkpt>
      <trkpt lat="48.05595" lon="6.43942">
        <ele>561.908</ele>
        <time>2020-11-28T01:42:08Z</time>
      </trkpt>
      <trkpt lat="48.05598" lon="6.4403">
        <ele>560.337</ele>
        <time>2020-11-28T01:42:28Z</time>
      </trkpt>
      <trkpt lat="48.05579" lon="6.44098">
        <ele>563.392</ele>
        <time>2020-11-28T01:42:48Z</time>
      </trkpt>
      <trkpt lat="48.05605" lon="6.44151">
        <ele>560.173</ele>
        <time>2020-11-28T01:43:08Z</time>
      </trkpt>
      <trkpt lat="48.05642" lon="6.44199">
        <ele>558.758</ele>
        <time>2020-11-28T01:43:28Z</time>
      </trkpt>
      <trkpt lat="48.05669" lon="6.44207">
        <ele>559.897</ele>
        <time>2020-11-28T01:43:48Z</time>
      </trkpt>
      <trkpt lat="48.05699" lon="6.44164">
        <ele>555.04</ele>
        <time>2020-11-28T01:44:08Z</time>
      </trkpt>
      <trkpt lat="48.05717" lon="6.44101">
        <ele>552.837</ele>
        <time>2020-11-28T01:44:28Z</time>
      </trkpt>
      <trkpt lat="48.05734" lon="6.44072">
        <ele>553.421</ele>
        <time>2020-11-28T01:44:48Z</time>
      </trkpt>
      <trkpt lat="48.05796" lon="6.44064">
        <ele>555.188</ele>
        <time>2020-11-28T01:45:08Z</time>
      </trkpt>
      <trkpt lat="48.05888" lon="6.43979">
        <ele>557.124</ele>
        <time>2020-11-28T01:45:28Z</time>
      </trkpt>
      <trkpt lat="48.05977" lon="6.43974">
        <ele>540.926</ele>
        <time>2015-08-17T13:31:57Z</time>
      </trkpt>
      <trkpt lat="48.06087" lon="6.43954">
        <ele>528.008</ele>
        <time>2015-08-17T13:32:17Z</time>
      </trkpt>
      <trkpt lat="48.06131" lon="6.43957">
        <ele>527.514</ele>
        <time>2015-08-17T13:32:37Z</time>
      </trkpt>
      <trkpt lat="48.06188" lon="6.43914">
        <ele>521.489</ele>
        <time>2015-08-17T13:32:57Z</time>
      </trkpt>
      <trkpt lat="48.06231" lon="6.43889">
        <ele>521.39</ele>
        <time>2015-08-17T13:33:17Z</time>
      </trkpt>
      <trkpt lat="48.06267" lon="6.43872">
        <ele>520.595</ele>
        <time>2015-08-17T13:33:37Z</time>
      </trkpt>
      <trkpt lat="48.06294" lon="6.43808">
        <ele>516.554</ele>
        <time>2020-11-28T01:47:48Z</time>
      </trkpt>
      <trkpt lat="48.06388" lon="6.43744">
        <ele>507.317</ele>
        <time>2020-11-28T01:48:08Z</time>
      </trkpt>
      <trkpt lat="48.06408" lon="6.43753">
        <ele>508.244</ele>
        <time>2020-11-28T01:48:28Z</time>
      </trkpt>
      <trkpt lat="48.06436" lon="6.43743">
        <ele>505.258</ele>
        <time>2020-11-28T01:48:48Z</time>
      </trkpt>
      <trkpt lat="48.06516" lon="6.43766">
        <ele>499.067</ele>
        <time>2015-08-17T13:34:37Z</time>
      </trkpt>
      <trkpt lat="48.0653" lon="6.43748">
        <ele>498.681</ele>
        <time>2015-08-17T13:34:57Z</time>
      </trkpt>
      <trkpt lat="48.06539" lon="6.43717">
        <ele>495.519</ele>
        <time>2015-08-17T13:35:17Z</time>
      </trkpt>
      <trkpt lat="48.06544" lon="6.43671">
        <ele>491.008</ele>
        <time>2015-08-17T13:35:37Z</time>
      </trkpt>
      <trkpt lat="48.06576" lon="6.43622">
        <ele>482.422</ele>
        <time>2015-08-17T13:35:57Z</time>
      </trkpt>
      <trkpt lat="48.06593" lon="6.43612">
        <ele>479.497</ele>
        <time>2015-08-17T13:36:17Z</time>
      </trkpt>
      <trkpt lat="48.06705" lon="6.43385">
        <ele>474.888</ele>
        <time>2015-08-17T13:36:37Z</time>
      </trkpt>
      <trkpt lat="48.06747" lon="6.4335">
        <ele>474.593</ele>
        <time>2015-08-17T13:36:57Z</time>
      </trkpt>
      <trkpt lat="48.06789" lon="6.43305">
        <ele>475.442</ele>
        <time>2015-08-17T13:37:17Z</time>
      </trkpt>
      <trkpt lat="48.06819" lon="6.43243">
        <ele>479.175</ele>
        <time>2015-08-17T13:37:37Z</time>
      </trkpt>
      <trkpt lat="48.06832" lon="6.43101">
        <ele>478.562</ele>
        <time>2015-08-17T13:37:57Z</time>
      </trkpt>
      <trkpt lat="48.06954" lon="6.42013">
        <ele>468.466</ele>
        <time>2015-08-17T13:38:17Z</time>
      </trkpt>
      <trkpt lat="48.07004" lon="6.41956">
        <ele>458.471</ele>
        <time>2015-08-17T13:38:37Z</time>
      </trkpt>
      <trkpt lat="48.0704" lon="6.41815">
        <ele>454.541</ele>
        <time>2015-08-17T13:38:57Z</time>
      </trkpt>
      <trkpt lat="48.07127" lon="6.41534">
        <ele>465.915</ele>
        <time>2015-08-17T13:39:17Z</time>
      </trkpt>
      <trkpt lat="48.07134" lon="6.41366">
        <ele>472.508</ele>
        <time>2015-08-17T13:39:37Z</time>
      </trkpt>
      <trkpt lat="48.07204" lon="6.4113">
        <ele>464.413</ele>
        <time>2015-08-17T13:39:57Z</time>
      </trkpt>
      <trkpt lat="48.07239" lon="6.41049">
        <ele>462.368</ele>
        <time>2015-08-17T13:40:17Z</time>
      </trkpt>
      <trkpt lat="48.07331" lon="6.4095">
        <ele>465.959</ele>
        <time>2015-08-17T13:40:37Z</time>
      </trkpt>
      <trkpt lat="48.07339" lon="6.40887">
        <ele>468.784</ele>
        <time>2015-08-17T13:40:57Z</time>
      </trkpt>
      <trkpt lat="48.07375" lon="6.40757">
        <ele>466.533</ele>
        <time>2015-08-17T13:41:17Z</time>
      </trkpt>
      <trkpt lat="48.07415" lon="6.40655">
        <ele>466.166</ele>
        <time>2015-08-17T13:41:37Z</time>
      </trkpt>
      <trkpt lat="48.07436" lon="6.40632">
        <ele>465.693</ele>
        <time>2015-08-17T13:41:57Z</time>
      </trkpt>
      <trkpt lat="48.07437" lon="6.40557">
        <ele>468.627</ele>
        <time>2015-08-17T13:42:17Z</time>
      </trkpt>
      <trkpt lat="48.07312" lon="6.4022">
        <ele>464.338</ele>
        <time>2015-08-17T13:42:37Z</time>
      </trkpt>
      <trkpt lat="48.07315" lon="6.39989">
        <ele>450.17</ele>
        <time>2015-08-17T13:42:57Z</time>
      </trkpt>
      <trkpt lat="48.07308" lon="6.39942">
        <ele>448.717</ele>
        <time>2015-08-17T13:43:17Z</time>
      </trkpt>
      <trkpt lat="48.0726" lon="6.39817">
        <ele>449.308</ele>
        <time>2015-08-17T13:43:37Z</time>
      </trkpt>
      <trkpt lat="48.07258" lon="6.39763">
        <ele>450.959</ele>
        <time>2015-08-17T13:43:57Z</time>
      </trkpt>
      <trkpt lat="48.07276" lon="6.39712">
        <ele>445.974</ele>
        <time>2015-08-17T13:44:17Z</time>
      </trkpt>
      <trkpt lat="48.07341" lon="6.39624">
        <ele>435.715</ele>
        <time>2015-08-17T13:44:37Z</time>
      </trkpt>
      <trkpt lat="48.07376" lon="6.39594">
        <ele>432.87</ele>
        <time>2015-08-17T13:44:57Z</time>
      </trkpt>
      <trkpt lat="48.07374" lon="6.39529">
        <ele>434.149</ele>
        <time>2015-08-17T13:45:17Z</time>
      </trkpt>
      <trkpt lat="48.07269" lon="6.39416">
        <ele>429.042</ele>
        <time>2015-08-17T13:45:37Z</time>
      </trkpt>
      <trkpt lat="48.07232" lon="6.39342">
        <ele>424.559</ele>
        <time>2015-08-17T13:45:57Z</time>
      </trkpt>
      <trkpt lat="48.07214" lon="6.39273">
        <ele>422.593</ele>
        <time>2015-08-17T13:46:17Z</time>
      </trkpt>
      <trkpt lat="48.07221" lon="6.39219">
        <ele>418.126</ele>
        <time>2015-08-17T13:46:37Z</time>
      </trkpt>
      <trkpt lat="48.07245" lon="6.39152">
        <ele>412.947</ele>
        <time>2015-08-17T13:46:57Z</time>
      </trkpt>
      <trkpt lat="48.07244" lon="6.39098">
        <ele>413.111</ele>
        <time>2015-08-17T13:47:17Z</time>
      </trkpt>
      <trkpt lat="48.07229" lon="6.39046">
        <ele>411.808</ele>
        <time>2015-08-17T13:47:37Z</time>
      </trkpt>
      <trkpt lat="48.0711" lon="6.38875">
        <ele>399.278</ele>
        <time>2015-08-17T13:47:57Z</time>
      </trkpt>
      <trkpt lat="48.06994" lon="6.38738">
        <ele>392.883</ele>
        <time>2015-08-17T13:48:17Z</time>
      </trkpt>
      <trkpt lat="48.06952" lon="6.38608">
        <ele>386.384</ele>
        <time>2015-08-17T13:48:37Z</time>
      </trkpt>
      <trkpt lat="48.06915" lon="6.38572">
        <ele>388.989</ele>
        <time>2015-08-17T13:48:57Z</time>
      </trkpt>
      <trkpt lat="48.06803" lon="6.38467">
        <ele>383.918</ele>
        <time>2015-08-17T13:49:17Z</time>
      </trkpt>
      <trkpt lat="48.06759" lon="6.38451">
        <ele>376.461</ele>
        <time>2015-08-17T13:49:37Z</time>
      </trkpt>
      <trkpt lat="48.06708" lon="6.38485">
        <ele>374.438</ele>
        <time>2020-11-28T02:04:28Z</time>
      </trkpt>
      <trkpt lat="48.06667" lon="6.38638">
        <ele>376.962</ele>
        <time>2020-11-28T02:04:48Z</time>
      </trkpt>
      <trkpt lat="48.06667" lon="6.38474">
        <ele>366.143</ele>
        <time>2020-11-28T02:05:08Z</time>
      </trkpt>
      <trkpt lat="48.06754" lon="6.38355">
        <ele>365.864</ele>
        <time>2020-11-28T02:05:28Z</time>
      </trkpt>
      <trkpt lat="48.06787" lon="6.38324">
        <ele>366.61</ele>
        <time>2015-08-17T13:49:57Z</time>
      </trkpt>
      <trkpt lat="48.068" lon="6.38271">
        <ele>366.608</ele>
        <time>2015-08-17T13:50:17Z</time>
      </trkpt>
      <trkpt lat="48.06838" lon="6.38095">
        <ele>370.45</ele>
        <time>2015-08-17T13:50:37Z</time>
      </trkpt>
      <trkpt lat="48.06859" lon="6.3802">
        <ele>365.755</ele>
        <time>2015-08-17T13:50:57Z</time>
      </trkpt>
      <trkpt lat="48.06907" lon="6.379">
        <ele>364.436</ele>
        <time>2015-08-17T13:51:17Z</time>
      </trkpt>
      <trkpt lat="48.06953" lon="6.37808">
        <ele>358.971</ele>
        <time>2015-08-17T13:51:37Z</time>
      </trkpt>
      <trkpt lat="48.07003" lon="6.37711">
        <ele>355.02</ele>
        <time>2015-08-17T13:51:57Z</time>
      </trkpt>
      <trkpt lat="48.06963" lon="6.37581">
        <ele>349.783</ele>
        <time>2015-08-17T13:52:17Z</time>
      </trkpt>
      <trkpt lat="48.07014" lon="6.37636">
        <ele>353.54</ele>
        <time>2015-08-17T13:52:37Z</time>
      </trkpt>
      <trkpt lat="48.07046" lon="6.37661">
        <ele>356.494</ele>
        <time>2015-08-17T13:52:57Z</time>
      </trkpt>
      <trkpt lat="48.07075" lon="6.37711">
        <ele>358.126</ele>
        <time>2015-08-17T13:53:17Z</time>
      </trkpt>
      <trkpt lat="48.07212" lon="6.37837">
        <ele>364.847</ele>
        <time>2020-11-28T02:09:28Z</time>
      </trkpt>
      <trkpt lat="48.07342" lon="6.37879">
        <ele>376.411</ele>
        <time>2020-11-28T02:09:48Z</time>
      </trkpt>
      <trkpt lat="48.07429" lon="6.37927">
        <ele>389.808</ele>
        <time>2020-11-28T02:10:08Z</time>
      </trkpt>
      <trkpt lat="48.07484" lon="6.37973">
        <ele>395.218</ele>
        <time>2020-11-28T02:10:28Z</time>
      </trkpt>
      <trkpt lat="48.07469" lon="6.37916">
        <ele>395.673</ele>
        <time>2020-11-28T02:10:48Z</time>
      </trkpt>
      <trkpt lat="48.07458" lon="6.37738">
        <ele>394.714</ele>
        <time>2020-11-28T02:11:08Z</time>
      </trkpt>
      <trkpt lat="48.07476" lon="6.37687">
        <ele>396.079</ele>
        <time>2020-11-28T02:11:28Z</time>
      </trkpt>
      <trkpt lat="48.07539" lon="6.37644">
        <ele>395.788</ele>
        <time>2020-11-28T02:11:48Z</time>
      </trkpt>
      <trkpt lat="48.07586" lon="6.37633">
        <ele>395.251</ele>
        <time>2020-11-28T02:12:08Z</time>
      </trkpt>
      <trkpt lat="48.07594" lon="6.37582">
        <ele>395.898</ele>
        <time>2020-11-28T02:12:28Z</time>
      </trkpt>
      <trkpt lat="48.07503" lon="6.3733">
        <ele>394.082</ele>
        <time>2020-11-28T02:12:48Z</time>
      </trkpt>
      <trkpt lat="48.0751" lon="6.37285">
        <ele>393.157</ele>
        <time>2020-11-28T02:13:08Z</time>
      </trkpt>
      <trkpt lat="48.07543" lon="6.37307">
        <ele>393.6</ele>
        <time>2020-11-28T02:13:28Z</time>
      </trkpt>
      <trkpt lat="48.07562" lon="6.37338">
        <ele>395.42</ele>
        <time>2020-11-28T02:13:48Z</time>
      </trkpt>
      <trkpt lat="48.077" lon="6.37454">
        <ele>394.108</ele>
        <time>2020-11-28T02:14:08Z</time>
      </trkpt>
      <trkpt lat="48.078" lon="6.3757">
        <ele>402.631</ele>
        <time>2020-11-28T02:14:28Z</time>
      </trkpt>
      <trkpt lat="48.07906" lon="6.3757">
        <ele>397.666</ele>
        <time>2020-11-28T02:14:48Z</time>
      </trkpt>
      <trkpt lat="48.07934" lon="6.37539">
        <ele>394.647</ele>
        <time>2020-11-28T02:15:08Z</time>
      </trkpt>
      <trkpt lat="48.07949" lon="6.37491">
        <ele>389.642</ele>
        <time>2020-11-28T02:15:28Z</time>
      </trkpt>
      <trkpt lat="48.08036" lon="6.37333">
        <ele>393.071</ele>
        <time>2020-11-28T02:15:48Z</time>
      </trkpt>
      <trkpt lat="48.08055" lon="6.37058">
        <ele>389.154</ele>
        <time>2020-11-28T02:16:08Z</time>
      </trkpt>
      <trkpt lat="48.08055" lon="6.36908">
        <ele>399.011</ele>
        <time>2020-11-28T02:16:28Z</time>
      </trkpt>
      <trkpt lat="48.08069" lon="6.36837">
        <ele>397.175</ele>
        <time>2020-11-28T02:16:48Z</time>
      </trkpt>
      <trkpt lat="48.08025" lon="6.36803">
        <ele>397.864</ele>
        <time>2020-11-28T02:17:08Z</time>
      </trkpt>
      <trkpt lat="48.07821" lon="6.36529">
        <ele>393.506</ele>
        <time>2020-11-28T02:17:28Z</time>
      </trkpt>
      <trkpt lat="48.0782" lon="6.364">
        <ele>390.216</ele>
        <time>2015-08-17T14:02:57Z</time>
      </trkpt>
      <trkpt lat="48.07823" lon="6.36242">
        <ele>386.908</ele>
        <time>2015-08-17T14:03:17Z</time>
      </trkpt>
      <trkpt lat="48.07835" lon="6.36031">
        <ele>383.112</ele>
        <time>2015-08-17T14:03:37Z</time>
      </trkpt>
      <trkpt lat="48.07865" lon="6.35848">
        <ele>378.227</ele>
        <time>2015-08-17T14:03:57Z</time>
      </trkpt>
      <trkpt lat="48.07862" lon="6.35528">
        <ele>363.048</ele>
        <time>2015-08-17T14:04:17Z</time>
      </trkpt>
      <trkpt lat="48.07906" lon="6.35386">
        <ele>359.873</ele>
        <time>2015-08-17T14:04:37Z</time>
      </trkpt>
      <trkpt lat="48.07922" lon="6.35235">
        <ele>362.422</ele>
        <time>2015-08-17T14:04:57Z</time>
      </trkpt>
      <trkpt lat="48.07958" lon="6.35056">
        <ele>363.525</ele>
        <time>2015-08-17T14:05:17Z</time>
      </trkpt>
      <trkpt lat="48.07974" lon="6.34864">
        <ele>362.032</ele>
        <time>2020-11-28T02:20:28Z</time>
      </trkpt>
      <trkpt lat="48.08036" lon="6.34787">
        <ele>355.486</ele>
        <time>2020-11-28T02:20:48Z</time>
      </trkpt>
      <trkpt lat="48.07997" lon="6.3477">
        <ele>359.295</ele>
        <time>2020-11-28T02:21:08Z</time>
      </trkpt>
      <trkpt lat="48.07868" lon="6.34816">
        <ele>358.049</ele>
        <time>2020-11-28T02:21:28Z</time>
      </trkpt>
      <trkpt lat="48.07792" lon="6.34847">
        <ele>353.823</ele>
        <time>2020-11-28T02:21:48Z</time>
      </trkpt>
      <trkpt lat="48.07789" lon="6.34745">
        <ele>354.308</ele>
        <time>2020-11-28T02:22:08Z</time>
      </trkpt>
      <trkpt lat="48.07838" lon="6.34623">
        <ele>352.735</ele>
        <time>2020-11-28T02:22:28Z</time>
      </trkpt>
      <trkpt lat="48.07915" lon="6.34496">
        <ele>348.81</ele>
        <time>2020-11-28T02:22:48Z</time>
      </trkpt>
      <trkpt lat="48.07963" lon="6.34346">
        <ele>350.931</ele>
        <time>2020-11-28T02:23:08Z</time>
      </trkpt>
      <trkpt lat="48.08052" lon="6.34235">
        <ele>352.316</ele>
        <time>2020-11-28T02:23:28Z</time>
      </trkpt>
      <trkpt lat="48.08159" lon="6.34289">
        <ele>345.445</ele>
        <time>2020-11-28T02:23:48Z</time>
      </trkpt>
      <trkpt lat="48.08227" lon="6.34317">
        <ele>330.518</ele>
        <time>2020-11-28T02:24:08Z</time>
      </trkpt>
      <trkpt lat="48.08288" lon="6.34363">
        <ele>328.365</ele>
        <time>2020-11-28T02:24:28Z</time>
      </trkpt>
      <trkpt lat="48.08367" lon="6.34116">
        <ele>323.699</ele>
        <time>2020-11-28T02:24:48Z</time>
      </trkpt>
      <trkpt lat="48.08398" lon="6.33929">
        <ele>326.924</ele>
        <time>2020-11-28T02:25:08Z</time>
      </trkpt>
      <trkpt lat="48.0843" lon="6.33864">
        <ele>324.904</ele>
        <time>2020-11-28T02:25:28Z</time>
      </trkpt>
      <trkpt lat="48.08456" lon="6.33754">
        <ele>326.114</ele>
        <time>2020-11-28T02:25:48Z</time>
      </trkpt>
      <trkpt lat="48.08468" lon="6.33641">
        <ele>329.908</ele>
        <time>2020-11-28T02:26:08Z</time>
      </trkpt>
      <trkpt lat="48.08494" lon="6.33621">
        <ele>323.598</ele>
        <time>2020-11-28T02:26:28Z</time>
      </trkpt>
      <trkpt lat="48.08549" lon="6.33635">
        <ele>318.083</ele>
        <time>2020-11-28T02:26:48Z</time>
      </trkpt>
      <trkpt lat="48.08627" lon="6.33632">
        <ele>321.494</ele>
        <time>2020-11-28T02:27:08Z</time>
      </trkpt>
      <trkpt lat="48.08632" lon="6.33556">
        <ele>320.899</ele>
        <time>2020-11-28T02:27:28Z</time>
      </trkpt>
      <trkpt lat="48.08693" lon="6.33448">
        <ele>320.138</ele>
        <time>2020-11-28T02:27:48Z</time>
      </trkpt>
      <trkpt lat="48.08721" lon="6.33408">
        <ele>321.361</ele>
        <time>2020-11-28T02:28:08Z</time>
      </trkpt>
      <trkpt lat="48.08812" lon="6.3334">
        <ele>337.068</ele>
        <time>2020-11-28T02:28:28Z</time>
      </trkpt>
      <trkpt lat="48.08905" lon="6.3325">
        <ele>337.322</ele>
        <time>2020-11-28T02:28:48Z</time>
      </trkpt>
      <trkpt lat="48.08967" lon="6.33111">
        <ele>345.018</ele>
        <time>2020-11-28T02:29:08Z</time>
      </trkpt>
      <trkpt lat="48.09016" lon="6.32938">
        <ele>348.998</ele>
        <time>2020-11-28T02:29:28Z</time>
      </trkpt>
      <trkpt lat="48.09135" lon="6.32715">
        <ele>359.817</ele>
        <time>2020-11-28T02:29:48Z</time>
      </trkpt>
      <trkpt lat="48.09213" lon="6.32545">
        <ele>357.708</ele>
        <time>2020-11-28T02:30:08Z</time>
      </trkpt>
      <trkpt lat="48.09287" lon="6.32443">
        <ele>352.697</ele>
        <time>2020-11-28T02:30:28Z</time>
      </trkpt>
      <trkpt lat="48.09421" lon="6.32307">
        <ele>346.132</ele>
        <time>2020-11-28T02:30:48Z</time>
      </trkpt>
      <trkpt lat="48.09542" lon="6.32211">
        <ele>344.623</ele>
        <time>2020-11-28T02:31:08Z</time>
      </trkpt>
      <trkpt lat="48.09597" lon="6.32066">
        <ele>335.198</ele>
        <time>2020-11-28T02:31:28Z</time>
      </trkpt>
      <trkpt lat="48.09591" lon="6.32024">
        <ele>332.197</ele>
        <time>2020-11-28T02:31:48Z</time>
      </trkpt>
      <trkpt lat="48.09561" lon="6.31987">
        <ele>330.53</ele>
        <time>2020-11-28T02:32:08Z</time>
      </trkpt>
      <trkpt lat="48.09578" lon="6.318">
        <ele>316.457</ele>
        <time>2020-11-28T02:32:28Z</time>
      </trkpt>
      <trkpt lat="48.096" lon="6.31755">
        <ele>314.621</ele>
        <time>2020-11-28T02:32:48Z</time>
      </trkpt>
      <trkpt lat="48.09591" lon="6.31659">
        <ele>312.024</ele>
        <time>2020-11-28T02:33:08Z</time>
      </trkpt>
      <trkpt lat="48.09444" lon="6.3169">
        <ele>313.304</ele>
        <time>2020-11-28T02:33:28Z</time>
      </trkpt>
      <trkpt lat="48.0936" lon="6.3165">
        <ele>318.014</ele>
        <time>2020-11-28T02:33:48Z</time>
      </trkpt>
      <trkpt lat="48.09317" lon="6.31551">
        <ele>313.608</ele>
        <time>2020-11-28T02:34:08Z</time>
      </trkpt>
      <trkpt lat="48.09222" lon="6.31237">
        <ele>313.038</ele>
        <time>2020-11-28T02:34:28Z</time>
      </trkpt>
      <trkpt lat="48.08918" lon="6.30838">
        <ele>309.483</ele>
        <time>2020-11-28T02:34:48Z</time>
      </trkpt>
      <trkpt lat="48.08859" lon="6.30784">
        <ele>312.354</ele>
        <time>2020-11-28T02:35:08Z</time>
      </trkpt>
      <trkpt lat="48.0863" lon="6.30617">
        <ele>309.129</ele>
        <time>2020-11-28T02:35:28Z</time>
      </trkpt>
      <trkpt lat="48.08464" lon="6.30404">
        <ele>305.778</ele>
        <time>2020-11-28T02:35:48Z</time>
      </trkpt>
      <trkpt lat="48.08477" lon="6.30368">
        <ele>305.021</ele>
        <time>2020-11-28T02:36:08Z</time>
      </trkpt>
      <trkpt lat="48.08462" lon="6.30314">
        <ele>306.638</ele>
        <time>2020-11-28T02:36:28Z</time>
      </trkpt>
      <trkpt lat="48.08452" lon="6.30187">
        <ele>308.622</ele>
        <time>2015-08-17T14:24:37Z</time>
      </trkpt>
      <trkpt lat="48.0841" lon="6.30057">
        <ele>313.497</ele>
        <time>2015-08-17T14:24:57Z</time>
      </trkpt>
      <trkpt lat="48.08331" lon="6.29948">
        <ele>307.623</ele>
        <time>2015-08-17T14:25:17Z</time>
      </trkpt>
      <trkpt lat="48.08268" lon="6.29837">
        <ele>313.125</ele>
        <time>2015-08-17T14:25:37Z</time>
      </trkpt>
      <trkpt lat="48.08221" lon="6.29708">
        <ele>318.808</ele>
        <time>2015-08-17T14:25:57Z</time>
      </trkpt>
      <trkpt lat="48.0815" lon="6.29681">
        <ele>318.555</ele>
        <time>2015-08-17T14:26:17Z</time>
      </trkpt>
      <trkpt lat="48.08109" lon="6.29656">
        <ele>315.46</ele>
        <time>2015-08-17T14:26:37Z</time>
      </trkpt>
      <trkpt lat="48.08073" lon="6.29612">
        <ele>318.291</ele>
        <time>2015-08-17T14:26:57Z</time>
      </trkpt>
      <trkpt lat="48.08022" lon="6.29506">
        <ele>321.236</ele>
        <time>2015-08-17T14:27:17Z</time>
      </trkpt>
      <trkpt lat="48.0797" lon="6.29413">
        <ele>316.795</ele>
        <time>2015-08-17T14:27:37Z</time>
      </trkpt>
      <trkpt lat="48.07968" lon="6.2935">
        <ele>318.068</ele>
        <time>2015-08-17T14:27:57Z</time>
      </trkpt>
      <trkpt lat="48.08008" lon="6.2924">
        <ele>327.125</ele>
        <time>2015-08-17T14:28:17Z</time>
      </trkpt>
      <trkpt lat="48.08024" lon="6.2913">
        <ele>327.779</ele>
        <time>2015-08-17T14:28:37Z</time>
      </trkpt>
      <trkpt lat="48.08045" lon="6.29085">
        <ele>332.171</ele>
        <time>2015-08-17T14:28:57Z</time>
      </trkpt>
      <trkpt lat="48.08035" lon="6.29048">
        <ele>330.241</ele>
        <time>2015-08-17T14:29:17Z</time>
      </trkpt>
      <trkpt lat="48.07979" lon="6.29048">
        <ele>328.815</ele>
        <time>2015-08-17T14:29:37Z</time>
      </trkpt>
      <trkpt lat="48.07936" lon="6.28947">
        <ele>337.508</ele>
        <time>2015-08-17T14:29:57Z</time>
      </trkpt>
      <trkpt lat="48.07903" lon="6.2895">
        <ele>340.283</ele>
        <time>2015-08-17T14:30:17Z</time>
      </trkpt>
      <trkpt lat="48.0789" lon="6.28967">
        <ele>341.818</ele>
        <time>2015-08-17T14:30:37Z</time>
      </trkpt>
      <trkpt lat="48.07892" lon="6.29038">
        <ele>341.349</ele>
        <time>2015-08-17T14:30:57Z</time>
      </trkpt>
      <trkpt lat="48.07901" lon="6.29088">
        <ele>338.454</ele>
        <time>2015-08-17T14:31:17Z</time>
      </trkpt>
      <trkpt lat="48.07882" lon="6.292">
        <ele>343.063</ele>
        <time>2015-08-17T14:31:37Z</time>
      </trkpt>
      <trkpt lat="48.0785" lon="6.29266">
        <ele>338.986</ele>
        <time>2015-08-17T14:31:57Z</time>
      </trkpt>
      <trkpt lat="48.0781" lon="6.29275">
        <ele>336.823</ele>
        <time>2015-08-17T14:32:17Z</time>
      </trkpt>
      <trkpt lat="48.07788" lon="6.29254">
        <ele>342.467</ele>
        <time>2015-08-17T14:32:37Z</time>
      </trkpt>
      <trkpt lat="48.07763" lon="6.29199">
        <ele>349.933</ele>
        <time>2015-08-17T14:32:57Z</time>
      </trkpt>
      <trkpt lat="48.07755" lon="6.29078">
        <ele>351.323</ele>
        <time>2015-08-17T14:33:17Z</time>
      </trkpt>
      <trkpt lat="48.07716" lon="6.2885">
        <ele>355.015</ele>
        <time>2015-08-17T14:33:37Z</time>
      </trkpt>
      <trkpt lat="48.07694" lon="6.2876">
        <ele>355.608</ele>
        <time>2015-08-17T14:33:57Z</time>
      </trkpt>
      <trkpt lat="48.0767" lon="6.287">
        <ele>359.639</ele>
        <time>2015-08-17T14:34:17Z</time>
      </trkpt>
      <trkpt lat="48.07621" lon="6.28665">
        <ele>358.914</ele>
        <time>2015-08-17T14:34:37Z</time>
      </trkpt>
      <trkpt lat="48.07559" lon="6.28642">
        <ele>359.915</ele>
        <time>2015-08-17T14:34:57Z</time>
      </trkpt>
      <trkpt lat="48.075" lon="6.28602">
        <ele>360.09</ele>
        <time>2015-08-17T14:35:17Z</time>
      </trkpt>
      <trkpt lat="48.07442" lon="6.28501">
        <ele>363.059</ele>
        <time>2015-08-17T14:35:37Z</time>
      </trkpt>
      <trkpt lat="48.07419" lon="6.28338">
        <ele>365.412</ele>
        <time>2015-08-17T14:35:57Z</time>
      </trkpt>
      <trkpt lat="48.07427" lon="6.28276">
        <ele>363.659</ele>
        <time>2015-08-17T14:36:17Z</time>
      </trkpt>
      <trkpt lat="48.07458" lon="6.28136">
        <ele>360.683</ele>
        <time>2015-08-17T14:36:37Z</time>
      </trkpt>
      <trkpt lat="48.07443" lon="6.28078">
        <ele>362.192</ele>
        <time>2015-08-17T14:36:57Z</time>
      </trkpt>
      <trkpt lat="48.07409" lon="6.28053">
        <ele>362.373</ele>
        <time>2015-08-17T14:37:17Z</time>
      </trkpt>
      <trkpt lat="48.07361" lon="6.2805">
        <ele>365.92</ele>
        <time>2015-08-17T14:37:37Z</time>
      </trkpt>
      <trkpt lat="48.07316" lon="6.2806">
        <ele>362.108</ele>
        <time>2015-08-17T14:37:57Z</time>
      </trkpt>
      <trkpt lat="48.07288" lon="6.28078">
        <ele>355.845</ele>
        <time>2015-08-17T14:38:17Z</time>
      </trkpt>
      <trkpt lat="48.07268" lon="6.28079">
        <ele>354.95</ele>
        <time>2015-08-17T14:38:37Z</time>
      </trkpt>
      <trkpt lat="48.07221" lon="6.28103">
        <ele>351.521</ele>
        <time>2015-08-17T14:38:57Z</time>
      </trkpt>
      <trkpt lat="48.07184" lon="6.28089">
        <ele>349.796</ele>
        <time>2015-08-17T14:39:17Z</time>
      </trkpt>
      <trkpt lat="48.07143" lon="6.28027">
        <ele>348.685</ele>
        <time>2015-08-17T14:39:37Z</time>
      </trkpt>
      <trkpt lat="48.0711" lon="6.27949">
        <ele>347.918</ele>
        <time>2015-08-17T14:39:57Z</time>
      </trkpt>
      <trkpt lat="48.07101" lon="6.27849">
        <ele>353.775</ele>
        <time>2015-08-17T14:40:17Z</time>
      </trkpt>
      <trkpt lat="48.07064" lon="6.277">
        <ele>354.349</ele>
        <time>2020-11-28T02:52:48Z</time>
      </trkpt>
      <trkpt lat="48.0707" lon="6.27652">
        <ele>355.313</ele>
        <time>2020-11-28T02:53:08Z</time>
      </trkpt>
      <trkpt lat="48.07113" lon="6.27511">
        <ele>352.043</ele>
        <time>2020-11-28T02:53:28Z</time>
      </trkpt>
      <trkpt lat="48.07109" lon="6.27431">
        <ele>347.107</ele>
        <time>2020-11-28T02:53:48Z</time>
      </trkpt>
      <trkpt lat="48.07072" lon="6.27378">
        <ele>343.008</ele>
        <time>2020-11-28T02:54:08Z</time>
      </trkpt>
      <trkpt lat="48.07028" lon="6.27383">
        <ele>342.267</ele>
        <time>2020-11-28T02:54:28Z</time>
      </trkpt>
      <trkpt lat="48.06964" lon="6.27437">
        <ele>342.552</ele>
        <time>2020-11-28T02:54:48Z</time>
      </trkpt>
      <trkpt lat="48.06907" lon="6.27454">
        <ele>337.433</ele>
        <time>2020-11-28T02:55:08Z</time>
      </trkpt>
      <trkpt lat="48.06816" lon="6.27451">
        <ele>320.018</ele>
        <time>2020-11-28T02:55:28Z</time>
      </trkpt>
      <trkpt lat="48.0672" lon="6.27528">
        <ele>317.427</ele>
        <time>2020-11-28T02:55:48Z</time>
      </trkpt>
      <trkpt lat="48.06655" lon="6.2757">
        <ele>311.63</ele>
        <time>2020-11-28T02:56:08Z</time>
      </trkpt>
      <trkpt lat="48.06595" lon="6.27661">
        <ele>299.227</ele>
        <time>2020-11-28T02:56:28Z</time>
      </trkpt>
      <trkpt lat="48.06536" lon="6.27519">
        <ele>298.441</ele>
        <time>2020-11-28T02:56:48Z</time>
      </trkpt>
      <trkpt lat="48.06502" lon="6.27471">
        <ele>298.324</ele>
        <time>2020-11-28T02:57:08Z</time>
      </trkpt>
      <trkpt lat="48.06525" lon="6.27412">
        <ele>308.604</ele>
        <time>2020-11-28T02:57:28Z</time>
      </trkpt>
      <trkpt lat="48.06504" lon="6.27366">
        <ele>317.714</ele>
        <time>2020-11-28T02:57:48Z</time>
      </trkpt>
      <trkpt lat="48.06447" lon="6.27355">
        <ele>326.408</ele>
        <time>2020-11-28T02:58:08Z</time>
      </trkpt>
      <trkpt lat="48.06415" lon="6.27312">
        <ele>329.828</ele>
        <time>2020-11-28T02:58:28Z</time>
      </trkpt>
      <trkpt lat="48.06411" lon="6.27273">
        <ele>334.923</ele>
        <time>2020-11-28T02:58:48Z</time>
      </trkpt>
      <trkpt lat="48.0644" lon="6.26976">
        <ele>348.014</ele>
        <time>2020-11-28T02:59:08Z</time>
      </trkpt>
      <trkpt lat="48.06442" lon="6.26823">
        <ele>346.949</ele>
        <time>2020-11-28T02:59:28Z</time>
      </trkpt>
      <trkpt lat="48.06426" lon="6.26786">
        <ele>347.558</ele>
        <time>2020-11-28T02:59:48Z</time>
      </trkpt>
      <trkpt lat="48.06504" lon="6.26491">
        <ele>349.321</ele>
        <time>2020-11-28T03:00:08Z</time>
      </trkpt>
      <trkpt lat="48.06529" lon="6.26375">
        <ele>357.178</ele>
        <time>2020-11-28T03:00:28Z</time>
      </trkpt>
      <trkpt lat="48.06582" lon="6.26197">
        <ele>373.732</ele>
        <time>2020-11-28T03:00:48Z</time>
      </trkpt>
      <trkpt lat="48.06674" lon="6.26041">
        <ele>376.231</ele>
        <time>2020-11-28T03:01:08Z</time>
      </trkpt>
      <trkpt lat="48.06763" lon="6.25982">
        <ele>379.161</ele>
        <time>2020-11-28T03:01:28Z</time>
      </trkpt>
      <trkpt lat="48.06852" lon="6.25883">
        <ele>381.007</ele>
        <time>2020-11-28T03:01:48Z</time>
      </trkpt>
      <trkpt lat="48.06905" lon="6.25761">
        <ele>382.808</ele>
        <time>2020-11-28T03:02:08Z</time>
      </trkpt>
      <trkpt lat="48.06958" lon="6.25551">
        <ele>389.599</ele>
        <time>2020-11-28T03:02:28Z</time>
      </trkpt>
      <trkpt lat="48.06786" lon="6.25464">
        <ele>394.944</ele>
        <time>2020-11-28T03:02:48Z</time>
      </trkpt>
      <trkpt lat="48.06534" lon="6.25081">
        <ele>396.215</ele>
        <time>2020-11-28T03:03:08Z</time>
      </trkpt>
      <trkpt lat="48.06877" lon="6.24823">
        <ele>400.04</ele>
        <time>2015-08-17T14:53:37Z</time>
      </trkpt>
      <trkpt lat="48.07005" lon="6.24625">
        <ele>397.969</ele>
        <time>2020-11-28T03:03:48Z</time>
      </trkpt>
      <trkpt lat="48.0707" lon="6.24548">
        <ele>396.672</ele>
        <time>2020-11-28T03:04:08Z</time>
      </trkpt>
      <trkpt lat="48.07237" lon="6.24279">
        <ele>406.549</ele>
        <time>2020-11-28T03:04:28Z</time>
      </trkpt>
      <trkpt lat="48.07473" lon="6.23926">
        <ele>407.433</ele>
        <time>2020-11-28T03:04:48Z</time>
      </trkpt>
      <trkpt lat="48.07918" lon="6.23276">
        <ele>414.933</ele>
        <time>2020-11-28T03:05:08Z</time>
      </trkpt>
      <trkpt lat="48.0795" lon="6.23181">
        <ele>410.223</ele>
        <time>2020-11-28T03:05:28Z</time>
      </trkpt>
      <trkpt lat="48.08127" lon="6.22826">
        <ele>420.015</ele>
        <time>2020-11-28T03:05:48Z</time>
      </trkpt>
      <trkpt lat="48.08483" lon="6.22071">
        <ele>423.508</ele>
        <time>2015-08-17T14:57:57Z</time>
      </trkpt>
      <trkpt lat="48.08563" lon="6.219">
        <ele>427.559</ele>
        <time>2015-08-17T14:58:17Z</time>
      </trkpt>
      <trkpt lat="48.08661" lon="6.21687">
        <ele>430.334</ele>
        <time>2015-08-17T14:58:37Z</time>
      </trkpt>
      <trkpt lat="48.0869" lon="6.21661">
        <ele>431.655</ele>
        <time>2015-08-17T14:58:57Z</time>
      </trkpt>
      <trkpt lat="48.08827" lon="6.21714">
        <ele>432.23</ele>
        <time>2015-08-17T14:59:17Z</time>
      </trkpt>
      <trkpt lat="48.08852" lon="6.21665">
        <ele>430.379</ele>
        <time>2015-08-17T14:59:37Z</time>
      </trkpt>
      <trkpt lat="48.08877" lon="6.21606">
        <ele>430.812</ele>
        <time>2015-08-17T14:59:57Z</time>
      </trkpt>
      <trkpt lat="48.08899" lon="6.21545">
        <ele>433.099</ele>
        <time>2015-08-17T15:00:17Z</time>
      </trkpt>
      <trkpt lat="48.08912" lon="6.21483">
        <ele>431.583</ele>
        <time>2015-08-17T15:00:37Z</time>
      </trkpt>
      <trkpt lat="48.08903" lon="6.21418">
        <ele>431.539</ele>
        <time>2015-08-17T15:00:57Z</time>
      </trkpt>
      <trkpt lat="48.08907" lon="6.21358">
        <ele>428.601</ele>
        <time>2015-08-17T15:01:17Z</time>
      </trkpt>
      <trkpt lat="48.08897" lon="6.21274">
        <ele>421.421</ele>
        <time>2015-08-17T15:01:37Z</time>
      </trkpt>
      <trkpt lat="48.08865" lon="6.21179">
        <ele>412.808</ele>
        <time>2015-08-17T15:01:57Z</time>
      </trkpt>
      <trkpt lat="48.08876" lon="6.21144">
        <ele>410.399</ele>
        <time>2015-08-17T15:02:17Z</time>
      </trkpt>
      <trkpt lat="48.08946" lon="6.21123">
        <ele>410.094</ele>
        <time>2015-08-17T15:02:37Z</time>
      </trkpt>
      <trkpt lat="48.08979" lon="6.21091">
        <ele>410.125</ele>
        <time>2015-08-17T15:02:57Z</time>
      </trkpt>
      <trkpt lat="48.08992" lon="6.21007">
        <ele>410.42</ele>
        <time>2015-08-17T15:03:17Z</time>
      </trkpt>
      <trkpt lat="48.09039" lon="6.21007">
        <ele>414.969</ele>
        <time>2015-08-17T15:03:37Z</time>
      </trkpt>
      <trkpt lat="48.0908" lon="6.20983">
        <ele>420.362</ele>
        <time>2015-08-17T15:03:57Z</time>
      </trkpt>
      <trkpt lat="48.0914" lon="6.20956">
        <ele>429.319</ele>
        <time>2015-08-17T15:04:17Z</time>
      </trkpt>
      <trkpt lat="48.09196" lon="6.20903">
        <ele>439.363</ele>
        <time>2015-08-17T15:04:37Z</time>
      </trkpt>
      <trkpt lat="48.09209" lon="6.20838">
        <ele>437.934</ele>
        <time>2015-08-17T15:04:57Z</time>
      </trkpt>
      <trkpt lat="48.09211" lon="6.20766">
        <ele>439.055</ele>
        <time>2015-08-17T15:05:17Z</time>
      </trkpt>
      <trkpt lat="48.09235" lon="6.20621">
        <ele>448.01</ele>
        <time>2015-08-17T15:05:37Z</time>
      </trkpt>
      <trkpt lat="48.09288" lon="6.20332">
        <ele>459.008</ele>
        <time>2015-08-17T15:05:57Z</time>
      </trkpt>
      <trkpt lat="48.093" lon="6.20155">
        <ele>457.739</ele>
        <time>2015-08-17T15:06:17Z</time>
      </trkpt>
      <trkpt lat="48.09358" lon="6.19511">
        <ele>453.824</ele>
        <time>2015-08-17T15:06:37Z</time>
      </trkpt>
      <trkpt lat="48.09362" lon="6.19263">
        <ele>452.045</ele>
        <time>2015-08-17T15:06:57Z</time>
      </trkpt>
      <trkpt lat="48.0936" lon="6.19124">
        <ele>451.67</ele>
        <time>2015-08-17T15:07:17Z</time>
      </trkpt>
      <trkpt lat="48.09344" lon="6.18954">
        <ele>451.289</ele>
        <time>2015-08-17T15:07:37Z</time>
      </trkpt>
      <trkpt lat="48.09342" lon="6.18874">
        <ele>450.822</ele>
        <time>2015-08-17T15:07:57Z</time>
      </trkpt>
      <trkpt lat="48.09356" lon="6.18853">
        <ele>449.619</ele>
        <time>2015-08-17T15:08:17Z</time>
      </trkpt>
      <trkpt lat="48.09414" lon="6.1884">
        <ele>441.773</ele>
        <time>2015-08-17T15:08:37Z</time>
      </trkpt>
      <trkpt lat="48.09413" lon="6.18696">
        <ele>433.577</ele>
        <time>2015-08-17T15:08:57Z</time>
      </trkpt>
      <trkpt lat="48.09385" lon="6.18549">
        <ele>430.061</ele>
        <time>2015-08-17T15:09:17Z</time>
      </trkpt>
      <trkpt lat="48.09377" lon="6.18373">
        <ele>423.727</ele>
        <time>2015-08-17T15:09:37Z</time>
      </trkpt>
      <trkpt lat="48.09347" lon="6.18262">
        <ele>421.208</ele>
        <time>2015-08-17T15:09:57Z</time>
      </trkpt>
      <trkpt lat="48.09349" lon="6.18213">
        <ele>419.723</ele>
        <time>2015-08-17T15:10:17Z</time>
      </trkpt>
      <trkpt lat="48.09361" lon="6.1821">
        <ele>420.158</ele>
        <time>2015-08-17T15:10:37Z</time>
      </trkpt>
      <trkpt lat="48.09373" lon="6.18127">
        <ele>419.949</ele>
        <time>2015-08-17T15:10:57Z</time>
      </trkpt>
      <trkpt lat="48.09373" lon="6.18057">
        <ele>420.444</ele>
        <time>2015-08-17T15:11:17Z</time>
      </trkpt>
      <trkpt lat="48.09361" lon="6.1797">
        <ele>420.073</ele>
        <time>2015-08-17T15:11:37Z</time>
      </trkpt>
      <trkpt lat="48.09318" lon="6.1786">
        <ele>415.916</ele>
        <time>2015-08-17T15:11:57Z</time>
      </trkpt>
      <trkpt lat="48.09318" lon="6.17783">
        <ele>414.923</ele>
        <time>2015-08-17T15:12:17Z</time>
      </trkpt>
      <trkpt lat="48.09302" lon="6.17771">
        <ele>414.137</ele>
        <time>2015-08-17T15:12:37Z</time>
      </trkpt>
      <trkpt lat="48.09249" lon="6.17808">
        <ele>409.913</ele>
        <time>2015-08-17T15:12:57Z</time>
      </trkpt>
      <trkpt lat="48.09233" lon="6.17829">
        <ele>408.243</ele>
        <time>2015-08-17T15:13:17Z</time>
      </trkpt>
      <trkpt lat="48.09189" lon="6.17728">
        <ele>403.207</ele>
        <time>2015-08-17T15:13:37Z</time>
      </trkpt>
      <trkpt lat="48.09181" lon="6.17691">
        <ele>401.908</ele>
        <time>2015-08-17T15:13:57Z</time>
      </trkpt>
      <trkpt lat="48.09164" lon="6.17592">
        <ele>393.467</ele>
        <time>2015-08-17T15:14:17Z</time>
      </trkpt>
      <trkpt lat="48.09083" lon="6.17561">
        <ele>386.172</ele>
        <time>2015-08-17T15:14:37Z</time>
      </trkpt>
      <trkpt lat="48.08982" lon="6.17489">
        <ele>377.493</ele>
        <time>2015-08-17T15:14:57Z</time>
      </trkpt>
      <trkpt lat="48.08955" lon="6.17444">
        <ele>374.138</ele>
        <time>2015-08-17T15:15:17Z</time>
      </trkpt>
      <trkpt lat="48.08936" lon="6.17386">
        <ele>370.767</ele>
        <time>2015-08-17T15:15:37Z</time>
      </trkpt>
      <trkpt lat="48.08919" lon="6.17232">
        <ele>368.08</ele>
        <time>2015-08-17T15:15:57Z</time>
      </trkpt>
      <trkpt lat="48.08901" lon="6.17199">
        <ele>362.357</ele>
        <time>2015-08-17T15:16:17Z</time>
      </trkpt>
      <trkpt lat="48.08872" lon="6.17186">
        <ele>361.091</ele>
        <time>2015-08-17T15:16:37Z</time>
      </trkpt>
      <trkpt lat="48.08862" lon="6.17137">
        <ele>359.999</ele>
        <time>2015-08-17T15:16:57Z</time>
      </trkpt>
      <trkpt lat="48.08764" lon="6.17003">
        <ele>354.207</ele>
        <time>2015-08-17T15:17:17Z</time>
      </trkpt>
      <trkpt lat="48.08701" lon="6.16943">
        <ele>352.027</ele>
        <time>2015-08-17T15:17:37Z</time>
      </trkpt>
      <trkpt lat="48.08624" lon="6.16862">
        <ele>349.908</ele>
        <time>2015-08-17T15:17:57Z</time>
      </trkpt>
      <trkpt lat="48.08562" lon="6.16834">
        <ele>351.365</ele>
        <time>2015-08-17T15:18:17Z</time>
      </trkpt>
      <trkpt lat="48.0853" lon="6.16791">
        <ele>352.04</ele>
        <time>2015-08-17T15:18:37Z</time>
      </trkpt>
      <trkpt lat="48.08507" lon="6.16749">
        <ele>350.661</ele>
        <time>2015-08-17T15:18:57Z</time>
      </trkpt>
      <trkpt lat="48.08488" lon="6.16725">
        <ele>347.926</ele>
        <time>2015-08-17T15:19:17Z</time>
      </trkpt>
      <trkpt lat="48.08445" lon="6.16635">
        <ele>346.775</ele>
        <time>2015-08-17T15:19:37Z</time>
      </trkpt>
      <trkpt lat="48.08403" lon="6.1657">
        <ele>350.498</ele>
        <time>2015-08-17T15:19:57Z</time>
      </trkpt>
      <trkpt lat="48.08362" lon="6.16498">
        <ele>348.475</ele>
        <time>2015-08-17T15:20:17Z</time>
      </trkpt>
      <trkpt lat="48.0828" lon="6.16392">
        <ele>347.489</ele>
        <time>2015-08-17T15:20:37Z</time>
      </trkpt>
      <trkpt lat="48.08203" lon="6.16282">
        <ele>350.948</ele>
        <time>2015-08-17T15:20:57Z</time>
      </trkpt>
      <trkpt lat="48.08147" lon="6.16182">
        <ele>349.961</ele>
        <time>2015-08-17T15:21:17Z</time>
      </trkpt>
      <trkpt lat="48.08112" lon="6.1606">
        <ele>344.117</ele>
        <time>2015-08-17T15:21:37Z</time>
      </trkpt>
      <trkpt lat="48.081" lon="6.15796">
        <ele>336.908</ele>
        <time>2015-08-17T15:21:57Z</time>
      </trkpt>
      <trkpt lat="48.08127" lon="6.15648">
        <ele>336.94</ele>
        <time>2015-08-17T15:22:17Z</time>
      </trkpt>
      <trkpt lat="48.08132" lon="6.1557">
        <ele>333.145</ele>
        <time>2015-08-17T15:22:37Z</time>
      </trkpt>
      <trkpt lat="48.08218" lon="6.15347">
        <ele>328.026</ele>
        <time>2015-08-17T15:22:57Z</time>
      </trkpt>
      <trkpt lat="48.08231" lon="6.1531">
        <ele>326.851</ele>
        <time>2015-08-17T15:23:17Z</time>
      </trkpt>
      <trkpt lat="48.08193" lon="6.15076">
        <ele>328.85</ele>
        <time>2015-08-17T15:23:37Z</time>
      </trkpt>
      <trkpt lat="48.08194" lon="6.15034">
        <ele>328.013</ele>
        <time>2015-08-17T15:23:57Z</time>
      </trkpt>
      <trkpt lat="48.08154" lon="6.14925">
        <ele>326.65</ele>
        <time>2015-08-17T15:24:17Z</time>
      </trkpt>
      <trkpt lat="48.08122" lon="6.1482">
        <ele>324.374</ele>
        <time>2015-08-17T15:24:37Z</time>
      </trkpt>
      <trkpt lat="48.08085" lon="6.1472">
        <ele>327.513</ele>
        <time>2015-08-17T15:24:57Z</time>
      </trkpt>
      <trkpt lat="48.08043" lon="6.14578">
        <ele>325.043</ele>
        <time>2015-08-17T15:25:17Z</time>
      </trkpt>
      <trkpt lat="48.07979" lon="6.14415">
        <ele>326.507</ele>
        <time>2015-08-17T15:25:37Z</time>
      </trkpt>
      <trkpt lat="48.07938" lon="6.14346">
        <ele>323.808</ele>
        <time>2015-08-17T15:25:57Z</time>
      </trkpt>
      <trkpt lat="48.07934" lon="6.14316">
        <ele>321.627</ele>
        <time>2015-08-17T15:26:17Z</time>
      </trkpt>
      <trkpt lat="48.07982" lon="6.14202">
        <ele>322.922</ele>
        <time>2015-08-17T15:26:37Z</time>
      </trkpt>
      <trkpt lat="48.0801" lon="6.14044">
        <ele>318.473</ele>
        <time>2015-08-17T15:26:57Z</time>
      </trkpt>
      <trkpt lat="48.08088" lon="6.13922">
        <ele>319.838</ele>
        <time>2015-08-17T15:27:17Z</time>
      </trkpt>
      <trkpt lat="48.08107" lon="6.1388">
        <ele>319.997</ele>
        <time>2015-08-17T15:27:37Z</time>
      </trkpt>
      <trkpt lat="48.08107" lon="6.13765">
        <ele>319.21</ele>
        <time>2015-08-17T15:27:57Z</time>
      </trkpt>
      <trkpt lat="48.08089" lon="6.13641">
        <ele>318.327</ele>
        <time>2015-08-17T15:28:17Z</time>
      </trkpt>
      <trkpt lat="48.08107" lon="6.13519">
        <ele>316.691</ele>
        <time>2015-08-17T15:28:37Z</time>
      </trkpt>
      <trkpt lat="48.08106" lon="6.13485">
        <ele>315.985</ele>
        <time>2015-08-17T15:28:57Z</time>
      </trkpt>
      <trkpt lat="48.08077" lon="6.13349">
        <ele>319.789</ele>
        <time>2015-08-17T15:29:17Z</time>
      </trkpt>
      <trkpt lat="48.0808" lon="6.13281">
        <ele>317.017</ele>
        <time>2015-08-17T15:29:37Z</time>
      </trkpt>
      <trkpt lat="48.08097" lon="6.13238">
        <ele>315.308</ele>
        <time>2015-08-17T15:29:57Z</time>
      </trkpt>
      <trkpt lat="48.0804" lon="6.13223">
        <ele>320.144</ele>
        <time>2015-08-17T15:30:17Z</time>
      </trkpt>
      <trkpt lat="48.08019" lon="6.13237">
        <ele>324.419</ele>
        <time>2015-08-17T15:30:37Z</time>
      </trkpt>
      <trkpt lat="48.07989" lon="6.13303">
        <ele>327.97</ele>
        <time>2015-08-17T15:30:57Z</time>
      </trkpt>
      <trkpt lat="48.07967" lon="6.13386">
        <ele>332.165</ele>
        <time>2015-08-17T15:31:17Z</time>
      </trkpt>
      <trkpt lat="48.0797" lon="6.13485">
        <ele>340.454</ele>
        <time>2015-08-17T15:31:37Z</time>
      </trkpt>
      <trkpt lat="48.07967" lon="6.13519">
        <ele>343.217</ele>
        <time>2015-08-17T15:31:57Z</time>
      </trkpt>
      <trkpt lat="48.07954" lon="6.13541">
        <ele>348.424</ele>
        <time>2015-08-17T15:32:17Z</time>
      </trkpt>
      <trkpt lat="48.07942" lon="6.13485">
        <ele>346.368</ele>
        <time>2015-08-17T15:32:37Z</time>
      </trkpt>
      <trkpt lat="48.07903" lon="6.13411">
        <ele>346.989</ele>
        <time>2015-08-17T15:32:57Z</time>
      </trkpt>
      <trkpt lat="48.07857" lon="6.13262">
        <ele>350.406</ele>
        <time>2015-08-17T15:33:17Z</time>
      </trkpt>
      <trkpt lat="48.0783" lon="6.13204">
        <ele>351.326</ele>
        <time>2015-08-17T15:33:37Z</time>
      </trkpt>
      <trkpt lat="48.07739" lon="6.13055">
        <ele>349.408</ele>
        <time>2015-08-17T15:33:57Z</time>
      </trkpt>
      <trkpt lat="48.07766" lon="6.12363">
        <ele>329.444</ele>
        <time>2015-08-17T15:34:17Z</time>
      </trkpt>
      <trkpt lat="48.07815" lon="6.12307">
        <ele>325.139</ele>
        <time>2015-08-17T15:34:37Z</time>
      </trkpt>
      <trkpt lat="48.07836" lon="6.12291">
        <ele>323.41</ele>
        <time>2015-08-17T15:34:57Z</time>
      </trkpt>
      <trkpt lat="48.0787" lon="6.12274">
        <ele>318.825</ele>
        <time>2015-08-17T15:35:17Z</time>
      </trkpt>
      <trkpt lat="48.07875" lon="6.1222">
        <ele>313.344</ele>
        <time>2015-08-17T15:35:37Z</time>
      </trkpt>
      <trkpt lat="48.07863" lon="6.12136">
        <ele>308.567</ele>
        <time>2015-08-17T15:35:57Z</time>
      </trkpt>
      <trkpt lat="48.07843" lon="6.12106">
        <ele>307.324</ele>
        <time>2015-08-17T15:36:17Z</time>
      </trkpt>
      <trkpt lat="48.07858" lon="6.12085">
        <ele>305.278</ele>
        <time>2015-08-17T15:36:37Z</time>
      </trkpt>
      <trkpt lat="48.07871" lon="6.12087">
        <ele>305.276</ele>
        <time>2015-08-17T15:36:57Z</time>
      </trkpt>
      <trkpt lat="48.07886" lon="6.12062">
        <ele>305.09</ele>
        <time>2015-08-17T15:37:17Z</time>
      </trkpt>
      <trkpt lat="48.07892" lon="6.12016">
        <ele>307.319</ele>
        <time>2015-08-17T15:37:37Z</time>
      </trkpt>
      <trkpt lat="48.07916" lon="6.11893">
        <ele>312.108</ele>
        <time>2015-08-17T15:37:57Z</time>
      </trkpt>
      <trkpt lat="48.07926" lon="6.11832">
        <ele>315.063</ele>
        <time>2015-08-17T15:38:17Z</time>
      </trkpt>
      <trkpt lat="48.07956" lon="6.11771">
        <ele>307.078</ele>
        <time>2015-08-17T15:38:37Z</time>
      </trkpt>
      <trkpt lat="48.07958" lon="6.11728">
        <ele>304.959</ele>
        <time>2015-08-17T15:38:57Z</time>
      </trkpt>
      <trkpt lat="48.07937" lon="6.11696">
        <ele>311.454</ele>
        <time>2015-08-17T15:39:17Z</time>
      </trkpt>
      <trkpt lat="48.0789" lon="6.11659">
        <ele>319.353</ele>
        <time>2015-08-17T15:39:37Z</time>
      </trkpt>
      <trkpt lat="48.07868" lon="6.11597">
        <ele>315.956</ele>
        <time>2015-08-17T15:39:57Z</time>
      </trkpt>
      <trkpt lat="48.07866" lon="6.11552">
        <ele>314.043</ele>
        <time>2015-08-17T15:40:17Z</time>
      </trkpt>
      <trkpt lat="48.06876" lon="6.11552">
        <ele>367.087</ele>
        <time>2015-08-17T15:40:37Z</time>
      </trkpt>
      <trkpt lat="48.06877" lon="6.11531">
        <ele>367.521</ele>
        <time>2015-08-17T15:40:57Z</time>
      </trkpt>
      <trkpt lat="48.06965" lon="6.1137">
        <ele>355.841</ele>
        <time>2015-08-17T15:41:17Z</time>
      </trkpt>
      <trkpt lat="48.0681" lon="6.11151">
        <ele>360.505</ele>
        <time>2015-08-17T15:41:37Z</time>
      </trkpt>
      <trkpt lat="48.06745" lon="6.11071">
        <ele>364.008</ele>
        <time>2015-08-17T15:41:57Z</time>
      </trkpt>
      <trkpt lat="48.06663" lon="6.10955">
        <ele>366.098</ele>
        <time>2015-08-17T15:42:17Z</time>
      </trkpt>
      <trkpt lat="48.06616" lon="6.10879">
        <ele>372.643</ele>
        <time>2015-08-17T15:42:37Z</time>
      </trkpt>
      <trkpt lat="48.06655" lon="6.10841">
        <ele>366.164</ele>
        <time>2015-08-17T15:42:57Z</time>
      </trkpt>
      <trkpt lat="48.06407" lon="6.10294">
        <ele>368.919</ele>
        <time>2015-08-17T15:43:17Z</time>
      </trkpt>
      <trkpt lat="48.06707" lon="6.10168">
        <ele>360.068</ele>
        <time>2015-08-17T15:43:37Z</time>
      </trkpt>
      <trkpt lat="48.07355" lon="6.09217">
        <ele>351.611</ele>
        <time>2015-08-17T15:43:57Z</time>
      </trkpt>
      <trkpt lat="48.07429" lon="6.08147">
        <ele>346.468</ele>
        <time>2015-08-17T15:44:17Z</time>
      </trkpt>
      <trkpt lat="48.07496" lon="6.07077">
        <ele>326.372</ele>
        <time>2015-08-17T15:44:37Z</time>
      </trkpt>
      <trkpt lat="48.08053" lon="6.06349">
        <ele>303.757</ele>
        <time>2015-08-17T15:44:57Z</time>
      </trkpt>
      <trkpt lat="48.08088" lon="6.06319">
        <ele>305.1</ele>
        <time>2015-08-17T15:45:17Z</time>
      </trkpt>
      <trkpt lat="48.08123" lon="6.06305">
        <ele>301.12</ele>
        <time>2015-08-17T15:45:37Z</time>
      </trkpt>
      <trkpt lat="48.08143" lon="6.06289">
        <ele>297.608</ele>
        <time>2015-08-17T15:45:57Z</time>
      </trkpt>
      <trkpt lat="48.08145" lon="6.0622">
        <ele>290.531</ele>
        <time>2015-08-17T15:46:17Z</time>
      </trkpt>
      <trkpt lat="48.08153" lon="6.06191">
        <ele>289.126</ele>
        <time>2015-08-17T15:46:37Z</time>
      </trkpt>
      <trkpt lat="48.08174" lon="6.06164">
        <ele>290.077</ele>
        <time>2015-08-17T15:46:57Z</time>
      </trkpt>
      <trkpt lat="48.08179" lon="6.06016">
        <ele>295.052</ele>
        <time>2015-08-17T15:47:17Z</time>
      </trkpt>
      <trkpt lat="48.08193" lon="6.05931">
        <ele>293.741</ele>
        <time>2015-08-17T15:47:37Z</time>
      </trkpt>
      <trkpt lat="48.08199" lon="6.05846">
        <ele>295.824</ele>
        <time>2015-08-17T15:47:57Z</time>
      </trkpt>
      <trkpt lat="48.08244" lon="6.05705">
        <ele>296.981</ele>
        <time>2015-08-17T15:48:17Z</time>
      </trkpt>
      <trkpt lat="48.08363" lon="6.05479">
        <ele>306.035</ele>
        <time>2015-08-17T15:48:37Z</time>
      </trkpt>
      <trkpt lat="48.08353" lon="6.05459">
        <ele>306.347</ele>
        <time>2015-08-17T15:48:57Z</time>
      </trkpt>
      <trkpt lat="48.0834" lon="6.05455">
        <ele>306.829</ele>
        <time>2015-08-17T15:49:17Z</time>
      </trkpt>
      <trkpt lat="48.08281" lon="6.05353">
        <ele>304.621</ele>
        <time>2015-08-17T15:49:37Z</time>
      </trkpt>
      <trkpt lat="48.08159" lon="6.05224">
        <ele>299.808</ele>
        <time>2015-08-17T15:49:57Z</time>
      </trkpt>
      <trkpt lat="48.0806" lon="6.0504">
        <ele>294.61</ele>
        <time>2015-08-17T15:50:17Z</time>
      </trkpt>
      <trkpt lat="48.08058" lon="6.04946">
        <ele>279.855</ele>
        <time>2015-08-17T15:50:37Z</time>
      </trkpt>
      <trkpt lat="48.08082" lon="6.04774">
        <ele>271.576</ele>
        <time>2015-08-17T15:50:57Z</time>
      </trkpt>
      <trkpt lat="48.08077" lon="6.04715">
        <ele>268.911</ele>
        <time>2015-08-17T15:51:17Z</time>
      </trkpt>
      <trkpt lat="48.08092" lon="6.04654">
        <ele>269.44</ele>
        <time>2015-08-17T15:51:37Z</time>
      </trkpt>
      <trkpt lat="48.08091" lon="6.04619">
        <ele>266.823</ele>
        <time>2015-08-17T15:51:57Z</time>
      </trkpt>
      <trkpt lat="48.08116" lon="6.04582">
        <ele>266.32</ele>
        <time>2015-08-17T15:52:17Z</time>
      </trkpt>
      <trkpt lat="48.08172" lon="6.04582">
        <ele>268.974</ele>
        <time>2015-08-17T15:52:37Z</time>
      </trkpt>
      <trkpt lat="48.08172" lon="6.04582">
        <ele>268.964</ele>
        <time>2015-08-17T15:52:57Z</time>
      </trkpt>
      <trkpt lat="48.08261" lon="6.04655">
        <ele>268.306</ele>
        <time>2015-08-17T15:53:17Z</time>
      </trkpt>
      <trkpt lat="48.08316" lon="6.04715">
        <ele>267.816</ele>
        <time>2015-08-17T15:53:37Z</time>
      </trkpt>
      <trkpt lat="48.08349" lon="6.0469">
        <ele>262.708</ele>
        <time>2015-08-17T15:53:57Z</time>
      </trkpt>
      <trkpt lat="48.08363" lon="6.04663">
        <ele>262.062</ele>
        <time>2015-08-17T15:54:17Z</time>
      </trkpt>
      <trkpt lat="48.08373" lon="6.04623">
        <ele>263.337</ele>
        <time>2015-08-17T15:54:37Z</time>
      </trkpt>
      <trkpt lat="48.08376" lon="6.04625">
        <ele>263.348</ele>
        <time>2015-08-17T16:42:22Z</time>
      </trkpt>
      <trkpt lat="48.08376" lon="6.04625">
        <ele>263.363</ele>
        <time>2015-08-17T16:42:22Z</time>
      </trkpt>
      <trkpt lat="48.08332" lon="6.04596">
        <ele>264.122</ele>
        <time>2015-08-17T16:42:42Z</time>
      </trkpt>
      <trkpt lat="48.08275" lon="6.04498">
        <ele>273.175</ele>
        <time>2015-08-17T16:43:02Z</time>
      </trkpt>
      <trkpt lat="48.08278" lon="6.04487">
        <ele>275.362</ele>
        <time>2015-08-17T16:43:22Z</time>
      </trkpt>
      <trkpt lat="48.0832" lon="6.04495">
        <ele>277.356</ele>
        <time>2015-08-17T16:43:42Z</time>
      </trkpt>
      <trkpt lat="48.08363" lon="6.04491">
        <ele>278.913</ele>
        <time>2015-08-17T16:44:02Z</time>
      </trkpt>
      <trkpt lat="48.08383" lon="6.04473">
        <ele>282.943</ele>
        <time>2015-08-17T16:44:22Z</time>
      </trkpt>
      <trkpt lat="48.08385" lon="6.04441">
        <ele>286.307</ele>
        <time>2015-08-17T16:44:42Z</time>
      </trkpt>
      <trkpt lat="48.08343" lon="6.0437">
        <ele>291.008</ele>
        <time>2015-08-17T16:45:02Z</time>
      </trkpt>
      <trkpt lat="48.0831" lon="6.04363">
        <ele>291.947</ele>
        <time>2015-08-17T16:45:22Z</time>
      </trkpt>
      <trkpt lat="48.08224" lon="6.04281">
        <ele>296.982</ele>
        <time>2015-08-17T16:45:42Z</time>
      </trkpt>
      <trkpt lat="48.08147" lon="6.04198">
        <ele>303.013</ele>
        <time>2015-08-17T16:46:02Z</time>
      </trkpt>
      <trkpt lat="48.08239" lon="6.04148">
        <ele>295.468</ele>
        <time>2015-08-17T16:46:22Z</time>
      </trkpt>
      <trkpt lat="48.08354" lon="6.0404">
        <ele>291.047</ele>
        <time>2015-08-17T16:46:42Z</time>
      </trkpt>
      <trkpt lat="48.08194" lon="6.03582">
        <ele>304.09</ele>
        <time>2015-08-17T16:47:02Z</time>
      </trkpt>
      <trkpt lat="48.08202" lon="6.03512">
        <ele>305.367</ele>
        <time>2015-08-17T16:47:22Z</time>
      </trkpt>
      <trkpt lat="48.08403" lon="6.03202">
        <ele>297.611</ele>
        <time>2015-08-17T16:47:42Z</time>
      </trkpt>
      <trkpt lat="48.08373" lon="6.0314">
        <ele>297.047</ele>
        <time>2015-08-17T16:48:02Z</time>
      </trkpt>
      <trkpt lat="48.0834" lon="6.03017">
        <ele>293.629</ele>
        <time>2015-08-17T16:48:22Z</time>
      </trkpt>
      <trkpt lat="48.08481" lon="6.02911">
        <ele>301.721</ele>
        <time>2015-08-17T16:48:42Z</time>
      </trkpt>
      <trkpt lat="48.08486" lon="6.02972">
        <ele>301.008</ele>
        <time>2015-08-17T16:49:02Z</time>
      </trkpt>
      <trkpt lat="48.08546" lon="6.02869">
        <ele>302.98</ele>
        <time>2015-08-17T16:49:22Z</time>
      </trkpt>
      <trkpt lat="48.08572" lon="6.02817">
        <ele>307.255</ele>
        <time>2015-08-17T16:49:42Z</time>
      </trkpt>
      <trkpt lat="48.08794" lon="6.02246">
        <ele>324.026</ele>
        <time>2015-08-17T16:50:02Z</time>
      </trkpt>
      <trkpt lat="48.08959" lon="6.01916">
        <ele>320.911</ele>
        <time>2015-08-17T16:50:22Z</time>
      </trkpt>
      <trkpt lat="48.09194" lon="6.01521">
        <ele>293.07</ele>
        <time>2015-08-17T16:50:42Z</time>
      </trkpt>
      <trkpt lat="48.09199" lon="6.01474">
        <ele>293.073</ele>
        <time>2015-08-17T16:51:02Z</time>
      </trkpt>
      <trkpt lat="48.09185" lon="6.0138">
        <ele>295.52</ele>
        <time>2015-08-17T16:51:22Z</time>
      </trkpt>
      <trkpt lat="48.09146" lon="6.00757">
        <ele>316.244</ele>
        <time>2015-08-17T16:51:42Z</time>
      </trkpt>
      <trkpt lat="48.09314" lon="6.00584">
        <ele>310.334</ele>
        <time>2015-08-17T16:52:02Z</time>
      </trkpt>
      <trkpt lat="48.09452" lon="6.00462">
        <ele>310.655</ele>
        <time>2015-08-17T16:52:22Z</time>
      </trkpt>
      <trkpt lat="48.0977" lon="6.00025">
        <ele>314.51</ele>
        <time>2015-08-17T16:52:42Z</time>
      </trkpt>
      <trkpt lat="48.09916" lon="6.00055">
        <ele>312.108</ele>
        <time>2015-08-17T16:53:02Z</time>
      </trkpt>
      <trkpt lat="48.09969" lon="6.00084">
        <ele>318.349</ele>
        <time>2015-08-17T16:53:22Z</time>
      </trkpt>
      <trkpt lat="48.10775" lon="6.00951">
        <ele>328.974</ele>
        <time>2015-08-17T16:53:42Z</time>
      </trkpt>
      <trkpt lat="48.10917" lon="6.0105">
        <ele>314.245</ele>
        <time>2015-08-17T16:54:02Z</time>
      </trkpt>
      <trkpt lat="48.10992" lon="6.01078">
        <ele>310.16</ele>
        <time>2015-08-17T16:54:22Z</time>
      </trkpt>
      <trkpt lat="48.11106" lon="6.01202">
        <ele>317.429</ele>
        <time>2015-08-17T16:54:42Z</time>
      </trkpt>
      <trkpt lat="48.11072" lon="6.01263">
        <ele>315.512</ele>
        <time>2015-08-17T16:55:02Z</time>
      </trkpt>
      <trkpt lat="48.11073" lon="6.01327">
        <ele>314.769</ele>
        <time>2015-08-17T16:55:22Z</time>
      </trkpt>
      <trkpt lat="48.11111" lon="6.01473">
        <ele>315.023</ele>
        <time>2015-08-17T16:55:42Z</time>
      </trkpt>
      <trkpt lat="48.11142" lon="6.0151">
        <ele>317.766</ele>
        <time>2015-08-17T16:56:02Z</time>
      </trkpt>
      <trkpt lat="48.11243" lon="6.01591">
        <ele>325.229</ele>
        <time>2015-08-17T16:56:22Z</time>
      </trkpt>
      <trkpt lat="48.11293" lon="6.01609">
        <ele>328.121</ele>
        <time>2015-08-17T16:56:42Z</time>
      </trkpt>
      <trkpt lat="48.11356" lon="6.01653">
        <ele>333.008</ele>
        <time>2015-08-17T16:57:02Z</time>
      </trkpt>
      <trkpt lat="48.11403" lon="6.0169">
        <ele>335.352</ele>
        <time>2015-08-17T16:57:22Z</time>
      </trkpt>
      <trkpt lat="48.11454" lon="6.01699">
        <ele>336.937</ele>
        <time>2015-08-17T16:57:42Z</time>
      </trkpt>
      <trkpt lat="48.11483" lon="6.01676">
        <ele>337.058</ele>
        <time>2015-08-17T16:58:02Z</time>
      </trkpt>
      <trkpt lat="48.11563" lon="6.01648">
        <ele>340.373</ele>
        <time>2015-08-17T16:58:22Z</time>
      </trkpt>
      <trkpt lat="48.11639" lon="6.01592">
        <ele>347.282</ele>
        <time>2015-08-17T16:58:42Z</time>
      </trkpt>
      <trkpt lat="48.11661" lon="6.01556">
        <ele>357.325</ele>
        <time>2015-08-17T16:59:02Z</time>
      </trkpt>
      <trkpt lat="48.11681" lon="6.0147">
        <ele>366.552</ele>
        <time>2015-08-17T16:59:22Z</time>
      </trkpt>
      <trkpt lat="48.11782" lon="6.01356">
        <ele>381.456</ele>
        <time>2015-08-17T16:59:42Z</time>
      </trkpt>
      <trkpt lat="48.11843" lon="6.01257">
        <ele>388.849</ele>
        <time>2015-08-17T17:00:02Z</time>
      </trkpt>
      <trkpt lat="48.11888" lon="6.01132">
        <ele>391.002</ele>
        <time>2015-08-17T17:00:22Z</time>
      </trkpt>
      <trkpt lat="48.11922" lon="6.01085">
        <ele>394.822</ele>
        <time>2015-08-17T17:00:42Z</time>
      </trkpt>
      <trkpt lat="48.12298" lon="6.00702">
        <ele>396.708</ele>
        <time>2015-08-17T17:01:02Z</time>
      </trkpt>
      <trkpt lat="48.12396" lon="6.00638">
        <ele>390.87</ele>
        <time>2015-08-17T17:01:22Z</time>
      </trkpt>
      <trkpt lat="48.1247" lon="6.00565">
        <ele>383.335</ele>
        <time>2015-08-17T17:01:42Z</time>
      </trkpt>
      <trkpt lat="48.12488" lon="6.00519">
        <ele>379.836</ele>
        <time>2015-08-17T17:02:02Z</time>
      </trkpt>
      <trkpt lat="48.12478" lon="6.00367">
        <ele>377.921</ele>
        <time>2015-08-17T17:02:22Z</time>
      </trkpt>
      <trkpt lat="48.12479" lon="6.00292">
        <ele>378.31</ele>
        <time>2015-08-17T17:02:42Z</time>
      </trkpt>
      <trkpt lat="48.12495" lon="6.00254">
        <ele>374.623</ele>
        <time>2015-08-17T17:03:02Z</time>
      </trkpt>
      <trkpt lat="48.12585" lon="6.00189">
        <ele>362.85</ele>
        <time>2015-08-17T17:03:22Z</time>
      </trkpt>
      <trkpt lat="48.12603" lon="6.00158">
        <ele>368.014</ele>
        <time>2015-08-17T17:03:42Z</time>
      </trkpt>
      <trkpt lat="48.12633" lon="6.00074">
        <ele>375.778</ele>
        <time>2015-08-17T17:04:02Z</time>
      </trkpt>
      <trkpt lat="48.12694" lon="6.00005">
        <ele>364.233</ele>
        <time>2015-08-17T17:04:22Z</time>
      </trkpt>
      <trkpt lat="48.12725" lon="5.99917">
        <ele>359.826</ele>
        <time>2015-08-17T17:04:42Z</time>
      </trkpt>
      <trkpt lat="48.12731" lon="5.99863">
        <ele>357.608</ele>
        <time>2015-08-17T17:05:02Z</time>
      </trkpt>
      <trkpt lat="48.12746" lon="5.99816">
        <ele>358.943</ele>
        <time>2015-08-17T17:05:22Z</time>
      </trkpt>
      <trkpt lat="48.12819" lon="5.99758">
        <ele>356.858</ele>
        <time>2015-08-17T17:05:42Z</time>
      </trkpt>
      <trkpt lat="48.12912" lon="5.9976">
        <ele>347.929</ele>
        <time>2015-08-17T17:06:02Z</time>
      </trkpt>
      <trkpt lat="48.13041" lon="5.99634">
        <ele>333.124</ele>
        <time>2015-08-17T17:06:22Z</time>
      </trkpt>
      <trkpt lat="48.13072" lon="5.99644">
        <ele>332.683</ele>
        <time>2015-08-17T17:06:42Z</time>
      </trkpt>
      <trkpt lat="48.13095" lon="5.99682">
        <ele>332.896</ele>
        <time>2015-08-17T17:07:02Z</time>
      </trkpt>
      <trkpt lat="48.13186" lon="5.99628">
        <ele>338.373</ele>
        <time>2015-08-17T17:07:22Z</time>
      </trkpt>
      <trkpt lat="48.13247" lon="5.9956">
        <ele>339.377</ele>
        <time>2015-08-17T17:07:42Z</time>
      </trkpt>
      <trkpt lat="48.13314" lon="5.99517">
        <ele>339.973</ele>
        <time>2015-08-17T17:08:02Z</time>
      </trkpt>
      <trkpt lat="48.13365" lon="5.99515">
        <ele>344.085</ele>
        <time>2015-08-17T17:08:22Z</time>
      </trkpt>
      <trkpt lat="48.13437" lon="5.99537">
        <ele>348.613</ele>
        <time>2015-08-17T17:08:42Z</time>
      </trkpt>
      <trkpt lat="48.13546" lon="5.99666">
        <ele>358.408</ele>
        <time>2015-08-17T17:09:02Z</time>
      </trkpt>
      <trkpt lat="48.13608" lon="5.99758">
        <ele>367.713</ele>
        <time>2015-08-17T17:09:22Z</time>
      </trkpt>
      <trkpt lat="48.13679" lon="5.99797">
        <ele>365.038</ele>
        <time>2015-08-17T17:09:42Z</time>
      </trkpt>
      <trkpt lat="48.13721" lon="5.99849">
        <ele>365.749</ele>
        <time>2015-08-17T17:10:02Z</time>
      </trkpt>
      <trkpt lat="48.13765" lon="5.9985">
        <ele>369.034</ele>
        <time>2015-08-17T17:10:22Z</time>
      </trkpt>
      <trkpt lat="48.13816" lon="5.99892">
        <ele>368.683</ele>
        <time>2015-08-17T17:10:42Z</time>
      </trkpt>
      <trkpt lat="48.13864" lon="5.99916">
        <ele>366.056</ele>
        <time>2015-08-17T17:11:02Z</time>
      </trkpt>
      <trkpt lat="48.13933" lon="5.99857">
        <ele>368.573</ele>
        <time>2015-08-17T17:11:22Z</time>
      </trkpt>
      <trkpt lat="48.1404" lon="5.99787">
        <ele>367.847</ele>
        <time>2015-08-17T17:11:42Z</time>
      </trkpt>
      <trkpt lat="48.14252" lon="5.99688">
        <ele>373.154</ele>
        <time>2015-08-17T17:12:02Z</time>
      </trkpt>
      <trkpt lat="48.14399" lon="5.99655">
        <ele>376.256</ele>
        <time>2015-08-17T17:12:22Z</time>
      </trkpt>
      <trkpt lat="48.14426" lon="5.99637">
        <ele>376.311</ele>
        <time>2015-08-17T17:12:42Z</time>
      </trkpt>
      <trkpt lat="48.14462" lon="5.99576">
        <ele>377.208</ele>
        <time>2015-08-17T17:13:02Z</time>
      </trkpt>
      <trkpt lat="48.14474" lon="5.99506">
        <ele>376.311</ele>
        <time>2015-08-17T17:13:22Z</time>
      </trkpt>
      <trkpt lat="48.14519" lon="5.99462">
        <ele>376.836</ele>
        <time>2015-08-17T17:13:42Z</time>
      </trkpt>
      <trkpt lat="48.14603" lon="5.99465">
        <ele>380.127</ele>
        <time>2015-08-17T17:14:02Z</time>
      </trkpt>
      <trkpt lat="48.14717" lon="5.99406">
        <ele>386.662</ele>
        <time>2015-08-17T17:14:22Z</time>
      </trkpt>
      <trkpt lat="48.14764" lon="5.99401">
        <ele>389.111</ele>
        <time>2015-08-17T17:14:42Z</time>
      </trkpt>
      <trkpt lat="48.1481" lon="5.99419">
        <ele>389.974</ele>
        <time>2015-08-17T17:15:02Z</time>
      </trkpt>
      <trkpt lat="48.14932" lon="5.99364">
        <ele>397.971</ele>
        <time>2015-08-17T17:15:22Z</time>
      </trkpt>
      <trkpt lat="48.14972" lon="5.99322">
        <ele>405.235</ele>
        <time>2015-08-17T17:15:42Z</time>
      </trkpt>
      <trkpt lat="48.14985" lon="5.99294">
        <ele>409.036</ele>
        <time>2015-08-17T17:16:02Z</time>
      </trkpt>
      <trkpt lat="48.14962" lon="5.99244">
        <ele>411.617</ele>
        <time>2015-08-17T17:16:22Z</time>
      </trkpt>
      <trkpt lat="48.14934" lon="5.99172">
        <ele>412.318</ele>
        <time>2015-08-17T17:16:42Z</time>
      </trkpt>
      <trkpt lat="48.14862" lon="5.99016">
        <ele>415.608</ele>
        <time>2015-08-17T17:17:02Z</time>
      </trkpt>
      <trkpt lat="48.14843" lon="5.98936">
        <ele>415.039</ele>
        <time>2015-08-17T17:17:22Z</time>
      </trkpt>
      <trkpt lat="48.14846" lon="5.98845">
        <ele>419.514</ele>
        <time>2015-08-17T17:17:42Z</time>
      </trkpt>
      <trkpt lat="48.14877" lon="5.98741">
        <ele>423.215</ele>
        <time>2015-08-17T17:18:02Z</time>
      </trkpt>
      <trkpt lat="48.14932" lon="5.9867">
        <ele>432.92</ele>
        <time>2015-08-17T17:18:22Z</time>
      </trkpt>
      <trkpt lat="48.1493" lon="5.98621">
        <ele>429.689</ele>
        <time>2015-08-17T17:18:42Z</time>
      </trkpt>
      <trkpt lat="48.14945" lon="5.98492">
        <ele>427.052</ele>
        <time>2015-08-17T17:19:02Z</time>
      </trkpt>
      <trkpt lat="48.14958" lon="5.98256">
        <ele>434.149</ele>
        <time>2015-08-17T17:19:22Z</time>
      </trkpt>
      <trkpt lat="48.14951" lon="5.98225">
        <ele>434.473</ele>
        <time>2015-08-17T17:19:42Z</time>
      </trkpt>
      <trkpt lat="48.1495" lon="5.98142">
        <ele>434.686</ele>
        <time>2015-08-17T17:20:02Z</time>
      </trkpt>
      <trkpt lat="48.14906" lon="5.97956">
        <ele>432.56</ele>
        <time>2015-08-17T17:20:22Z</time>
      </trkpt>
      <trkpt lat="48.14848" lon="5.97812">
        <ele>431.526</ele>
        <time>2015-08-17T17:20:42Z</time>
      </trkpt>
      <trkpt lat="48.14822" lon="5.97733">
        <ele>436.308</ele>
        <time>2015-08-17T17:21:02Z</time>
      </trkpt>
      <trkpt lat="48.14785" lon="5.97635">
        <ele>442.814</ele>
        <time>2015-08-17T17:21:22Z</time>
      </trkpt>
      <trkpt lat="48.14776" lon="5.97494">
        <ele>445.959</ele>
        <time>2015-08-17T17:21:42Z</time>
      </trkpt>
      <trkpt lat="48.14686" lon="5.97214">
        <ele>447.07</ele>
        <time>2015-08-17T17:22:02Z</time>
      </trkpt>
      <trkpt lat="48.14701" lon="5.97032">
        <ele>449.095</ele>
        <time>2015-08-17T17:22:22Z</time>
      </trkpt>
      <trkpt lat="48.14667" lon="5.9697">
        <ele>448.094</ele>
        <time>2015-08-17T17:22:42Z</time>
      </trkpt>
      <trkpt lat="48.14602" lon="5.96751">
        <ele>448.477</ele>
        <time>2015-08-17T17:23:02Z</time>
      </trkpt>
      <trkpt lat="48.14569" lon="5.96694">
        <ele>448.034</ele>
        <time>2015-08-17T17:23:22Z</time>
      </trkpt>
      <trkpt lat="48.14493" lon="5.96466">
        <ele>436.818</ele>
        <time>2015-08-17T17:23:42Z</time>
      </trkpt>
      <trkpt lat="48.14463" lon="5.96423">
        <ele>434.997</ele>
        <time>2015-08-17T17:24:02Z</time>
      </trkpt>
      <trkpt lat="48.14438" lon="5.96347">
        <ele>432.423</ele>
        <time>2015-08-17T17:24:22Z</time>
      </trkpt>
      <trkpt lat="48.1443" lon="5.96296">
        <ele>430.025</ele>
        <time>2015-08-17T17:24:42Z</time>
      </trkpt>
      <trkpt lat="48.14394" lon="5.96208">
        <ele>426.108</ele>
        <time>2015-08-17T17:25:02Z</time>
      </trkpt>
      <trkpt lat="48.14345" lon="5.96115">
        <ele>429.835</ele>
        <time>2015-08-17T17:25:22Z</time>
      </trkpt>
      <trkpt lat="48.14305" lon="5.95815">
        <ele>439.73</ele>
        <time>2015-08-17T17:25:42Z</time>
      </trkpt>
      <trkpt lat="48.14288" lon="5.95745">
        <ele>438.871</ele>
        <time>2015-08-17T17:26:02Z</time>
      </trkpt>
      <trkpt lat="48.14218" lon="5.95752">
        <ele>441.936</ele>
        <time>2015-08-17T17:26:22Z</time>
      </trkpt>
      <trkpt lat="48.14146" lon="5.95723">
        <ele>442.735</ele>
        <time>2015-08-17T17:26:42Z</time>
      </trkpt>
      <trkpt lat="48.14035" lon="5.95643">
        <ele>449.258</ele>
        <time>2015-08-17T17:27:02Z</time>
      </trkpt>
      <trkpt lat="48.13977" lon="5.95609">
        <ele>448.235</ele>
        <time>2015-08-17T17:27:22Z</time>
      </trkpt>
      <trkpt lat="48.14035" lon="5.95537">
        <ele>448.339</ele>
        <time>2015-08-17T17:27:42Z</time>
      </trkpt>
      <trkpt lat="48.14151" lon="5.95428">
        <ele>446.294</ele>
        <time>2015-08-17T17:28:02Z</time>
      </trkpt>
      <trkpt lat="48.14174" lon="5.95393">
        <ele>444.857</ele>
        <time>2015-08-17T17:28:22Z</time>
      </trkpt>
      <trkpt lat="48.14168" lon="5.95217">
        <ele>447.222</ele>
        <time>2015-08-17T17:28:42Z</time>
      </trkpt>
      <trkpt lat="48.14127" lon="5.95037">
        <ele>452.808</ele>
        <time>2015-08-17T17:29:02Z</time>
      </trkpt>
      <trkpt lat="48.13961" lon="5.94366">
        <ele>437.895</ele>
        <time>2015-08-17T17:29:22Z</time>
      </trkpt>
      <trkpt lat="48.13819" lon="5.93919">
        <ele>431.98</ele>
        <time>2015-08-17T17:29:42Z</time>
      </trkpt>
      <trkpt lat="48.13732" lon="5.93974">
        <ele>424.791</ele>
        <time>2015-08-17T17:30:02Z</time>
      </trkpt>
      <trkpt lat="48.13805" lon="5.93775">
        <ele>430.086</ele>
        <time>2015-08-17T17:30:22Z</time>
      </trkpt>
      <trkpt lat="48.1389" lon="5.93461">
        <ele>422.065</ele>
        <time>2015-08-17T17:30:42Z</time>
      </trkpt>
      <trkpt lat="48.13926" lon="5.932">
        <ele>418.568</ele>
        <time>2015-08-17T17:31:02Z</time>
      </trkpt>
      <trkpt lat="48.13962" lon="5.93021">
        <ele>416.755</ele>
        <time>2015-08-17T17:31:22Z</time>
      </trkpt>
      <trkpt lat="48.1398" lon="5.92865">
        <ele>421.249</ele>
        <time>2015-08-17T17:31:42Z</time>
      </trkpt>
      <trkpt lat="48.14009" lon="5.92797">
        <ele>421.783</ele>
        <time>2015-08-17T17:32:02Z</time>
      </trkpt>
      <trkpt lat="48.13782" lon="5.92523">
        <ele>412.025</ele>
        <time>2015-08-17T17:32:22Z</time>
      </trkpt>
      <trkpt lat="48.13523" lon="5.92181">
        <ele>395.917</ele>
        <time>2015-08-17T17:32:42Z</time>
      </trkpt>
      <trkpt lat="48.12921" lon="5.91374">
        <ele>414.008</ele>
        <time>2015-08-17T17:33:02Z</time>
      </trkpt>
      <trkpt lat="48.11982" lon="5.90101">
        <ele>426.994</ele>
        <time>2015-08-17T17:33:22Z</time>
      </trkpt>
      <trkpt lat="48.1103" lon="5.89071">
        <ele>412.689</ele>
        <time>2015-08-17T17:33:42Z</time>
      </trkpt>
      <trkpt lat="48.10355" lon="5.88345">
        <ele>416.02</ele>
        <time>2015-08-17T17:34:02Z</time>
      </trkpt>
      <trkpt lat="48.09552" lon="5.86775">
        <ele>413.215</ele>
        <time>2015-08-17T17:34:22Z</time>
      </trkpt>
      <trkpt lat="48.09003" lon="5.85715">
        <ele>408.494</ele>
        <time>2015-08-17T17:34:42Z</time>
      </trkpt>
      <trkpt lat="48.08642" lon="5.85348">
        <ele>413.757</ele>
        <time>2015-08-17T17:35:02Z</time>
      </trkpt>
      <trkpt lat="48.08285" lon="5.84991">
        <ele>416.244</ele>
        <time>2015-08-17T17:35:22Z</time>
      </trkpt>
      <trkpt lat="48.06426" lon="5.83156">
        <ele>402.968</ele>
        <time>2015-08-17T17:35:42Z</time>
      </trkpt>
      <trkpt lat="48.06375" lon="5.83131">
        <ele>400.022</ele>
        <time>2015-08-17T17:36:02Z</time>
      </trkpt>
      <trkpt lat="48.05313" lon="5.82787">
        <ele>384.762</ele>
        <time>2015-08-17T17:36:22Z</time>
      </trkpt>
      <trkpt lat="48.05331" lon="5.82519">
        <ele>388.308</ele>
        <time>2015-08-17T17:36:42Z</time>
      </trkpt>
      <trkpt lat="48.05284" lon="5.82228">
        <ele>393.208</ele>
        <time>2015-08-17T17:37:02Z</time>
      </trkpt>
      <trkpt lat="48.0527" lon="5.82016">
        <ele>396.048</ele>
        <time>2015-08-17T17:37:22Z</time>
      </trkpt>
      <trkpt lat="48.05326" lon="5.81844">
        <ele>392.413</ele>
        <time>2015-08-17T17:37:42Z</time>
      </trkpt>
      <trkpt lat="48.05344" lon="5.81492">
        <ele>381.424</ele>
        <time>2015-08-17T17:38:02Z</time>
      </trkpt>
      <trkpt lat="48.05418" lon="5.81248">
        <ele>378.169</ele>
        <time>2015-08-17T17:38:22Z</time>
      </trkpt>
      <trkpt lat="48.05437" lon="5.81148">
        <ele>378.058</ele>
        <time>2015-08-17T17:38:42Z</time>
      </trkpt>
      <trkpt lat="48.05438" lon="5.81001">
        <ele>377.231</ele>
        <time>2015-08-17T17:39:02Z</time>
      </trkpt>
      <trkpt lat="48.05581" lon="5.80794">
        <ele>384.898</ele>
        <time>2015-08-17T17:39:22Z</time>
      </trkpt>
      <trkpt lat="48.05613" lon="5.80742">
        <ele>389.052</ele>
        <time>2015-08-17T17:39:42Z</time>
      </trkpt>
      <trkpt lat="48.05685" lon="5.80648">
        <ele>388.678</ele>
        <time>2015-08-17T17:40:02Z</time>
      </trkpt>
      <trkpt lat="48.05734" lon="5.80556">
        <ele>385.633</ele>
        <time>2015-08-17T17:40:22Z</time>
      </trkpt>
      <trkpt lat="48.0578" lon="5.80435">
        <ele>379.926</ele>
        <time>2015-08-17T17:40:42Z</time>
      </trkpt>
      <trkpt lat="48.05803" lon="5.80337">
        <ele>377.108</ele>
        <time>2015-08-17T17:41:02Z</time>
      </trkpt>
      <trkpt lat="48.05801" lon="5.80291">
        <ele>376.533</ele>
        <time>2015-08-17T17:41:22Z</time>
      </trkpt>
      <trkpt lat="48.05788" lon="5.80226">
        <ele>378.628</ele>
        <time>2015-08-17T17:41:42Z</time>
      </trkpt>
      <trkpt lat="48.06051" lon="5.79802">
        <ele>384.169</ele>
        <time>2015-08-17T17:42:02Z</time>
      </trkpt>
      <trkpt lat="48.06044" lon="5.7978">
        <ele>383.574</ele>
        <time>2015-08-17T17:42:22Z</time>
      </trkpt>
      <trkpt lat="48.05993" lon="5.797">
        <ele>384.753</ele>
        <time>2015-08-17T17:42:42Z</time>
      </trkpt>
      <trkpt lat="48.05941" lon="5.79629">
        <ele>382.366</ele>
        <time>2015-08-17T17:43:02Z</time>
      </trkpt>
      <trkpt lat="48.059" lon="5.79522">
        <ele>377.373</ele>
        <time>2015-08-17T17:43:22Z</time>
      </trkpt>
      <trkpt lat="48.05849" lon="5.79315">
        <ele>371.297</ele>
        <time>2015-08-17T17:43:42Z</time>
      </trkpt>
      <trkpt lat="48.05777" lon="5.79124">
        <ele>367.534</ele>
        <time>2015-08-17T17:44:02Z</time>
      </trkpt>
      <trkpt lat="48.05747" lon="5.7908">
        <ele>363.655</ele>
        <time>2015-08-17T17:44:22Z</time>
      </trkpt>
      <trkpt lat="48.05717" lon="5.78983">
        <ele>362.71</ele>
        <time>2015-08-17T17:44:42Z</time>
      </trkpt>
      <trkpt lat="48.05831" lon="5.78864">
        <ele>363.108</ele>
        <time>2015-08-17T17:45:02Z</time>
      </trkpt>
      <trkpt lat="48.05861" lon="5.78814">
        <ele>363.719</ele>
        <time>2015-08-17T17:45:22Z</time>
      </trkpt>
      <trkpt lat="48.05825" lon="5.78739">
        <ele>368.014</ele>
        <time>2015-08-17T17:45:42Z</time>
      </trkpt>
      <trkpt lat="48.05834" lon="5.78647">
        <ele>372.795</ele>
        <time>2015-08-17T17:46:02Z</time>
      </trkpt>
      <trkpt lat="48.05781" lon="5.78535">
        <ele>373.23</ele>
        <time>2015-08-17T17:46:22Z</time>
      </trkpt>
      <trkpt lat="48.05724" lon="5.78475">
        <ele>374.959</ele>
        <time>2015-08-17T17:46:42Z</time>
      </trkpt>
      <trkpt lat="48.05668" lon="5.78371">
        <ele>373.992</ele>
        <time>2015-08-17T17:47:02Z</time>
      </trkpt>
      <trkpt lat="48.05607" lon="5.7821">
        <ele>373.989</ele>
        <time>2015-08-17T17:47:22Z</time>
      </trkpt>
      <trkpt lat="48.05579" lon="5.78088">
        <ele>376.713</ele>
        <time>2015-08-17T17:47:42Z</time>
      </trkpt>
      <trkpt lat="48.0556" lon="5.7794">
        <ele>375.319</ele>
        <time>2015-08-17T17:48:02Z</time>
      </trkpt>
      <trkpt lat="48.05544" lon="5.77781">
        <ele>377.509</ele>
        <time>2015-08-17T17:48:22Z</time>
      </trkpt>
      <trkpt lat="48.0551" lon="5.77658">
        <ele>379.219</ele>
        <time>2015-08-17T17:48:42Z</time>
      </trkpt>
      <trkpt lat="48.05468" lon="5.77557">
        <ele>384.008</ele>
        <time>2015-08-17T17:49:02Z</time>
      </trkpt>
      <trkpt lat="48.05416" lon="5.77469">
        <ele>390.327</ele>
        <time>2015-08-17T17:49:22Z</time>
      </trkpt>
      <trkpt lat="48.05332" lon="5.77465">
        <ele>390.592</ele>
        <time>2015-08-17T17:49:42Z</time>
      </trkpt>
      <trkpt lat="48.05298" lon="5.77417">
        <ele>389.763</ele>
        <time>2015-08-17T17:50:02Z</time>
      </trkpt>
      <trkpt lat="48.05233" lon="5.77258">
        <ele>387.278</ele>
        <time>2015-08-17T17:50:22Z</time>
      </trkpt>
      <trkpt lat="48.05212" lon="5.77237">
        <ele>386.497</ele>
        <time>2015-08-17T17:50:42Z</time>
      </trkpt>
      <trkpt lat="48.05088" lon="5.77175">
        <ele>385.93</ele>
        <time>2015-08-17T17:51:02Z</time>
      </trkpt>
      <trkpt lat="48.05035" lon="5.77126">
        <ele>382.137</ele>
        <time>2015-08-17T17:51:22Z</time>
      </trkpt>
      <trkpt lat="48.04984" lon="5.77004">
        <ele>379.451</ele>
        <time>2015-08-17T17:51:42Z</time>
      </trkpt>
      <trkpt lat="48.04937" lon="5.76951">
        <ele>380.042</ele>
        <time>2015-08-17T17:52:02Z</time>
      </trkpt>
      <trkpt lat="48.04874" lon="5.76895">
        <ele>379.422</ele>
        <time>2015-08-17T17:52:22Z</time>
      </trkpt>
      <trkpt lat="48.0485" lon="5.76827">
        <ele>380.614</ele>
        <time>2015-08-17T17:52:42Z</time>
      </trkpt>
      <trkpt lat="48.04793" lon="5.76725">
        <ele>383.208</ele>
        <time>2015-08-17T17:53:02Z</time>
      </trkpt>
      <trkpt lat="48.04776" lon="5.76676">
        <ele>386.94</ele>
        <time>2015-08-17T17:53:22Z</time>
      </trkpt>
      <trkpt lat="48.04767" lon="5.7662">
        <ele>389.675</ele>
        <time>2015-08-17T17:53:42Z</time>
      </trkpt>
      <trkpt lat="48.04742" lon="5.76593">
        <ele>391.736</ele>
        <time>2015-08-17T17:54:02Z</time>
      </trkpt>
      <trkpt lat="48.04692" lon="5.76584">
        <ele>393.021</ele>
        <time>2015-08-17T17:54:22Z</time>
      </trkpt>
      <trkpt lat="48.04636" lon="5.76561">
        <ele>395.15</ele>
        <time>2015-08-17T17:54:42Z</time>
      </trkpt>
      <trkpt lat="48.04421" lon="5.76362">
        <ele>409.753</ele>
        <time>2015-08-17T17:55:02Z</time>
      </trkpt>
      <trkpt lat="48.04287" lon="5.7622">
        <ele>433.09</ele>
        <time>2015-08-17T17:55:22Z</time>
      </trkpt>
      <trkpt lat="48.04217" lon="5.76174">
        <ele>443.574</ele>
        <time>2015-08-17T17:55:42Z</time>
      </trkpt>
      <trkpt lat="48.04184" lon="5.76171">
        <ele>448.593</ele>
        <time>2015-08-17T17:56:02Z</time>
      </trkpt>
      <trkpt lat="48.04116" lon="5.76261">
        <ele>462.065</ele>
        <time>2015-08-17T17:56:22Z</time>
      </trkpt>
      <trkpt lat="48.0402" lon="5.76348">
        <ele>477.521</ele>
        <time>2015-08-17T17:56:42Z</time>
      </trkpt>
      <trkpt lat="48.03938" lon="5.76438">
        <ele>493.208</ele>
        <time>2015-08-17T17:57:02Z</time>
      </trkpt>
      <trkpt lat="48.0392" lon="5.76448">
        <ele>496.395</ele>
        <time>2015-08-17T17:57:22Z</time>
      </trkpt>
      <trkpt lat="48.03917" lon="5.76563">
        <ele>493.73</ele>
        <time>2015-08-17T17:57:42Z</time>
      </trkpt>
      <trkpt lat="48.03862" lon="5.77081">
        <ele>493.071</ele>
        <time>2015-08-17T17:58:02Z</time>
      </trkpt>
      <trkpt lat="48.03819" lon="5.77288">
        <ele>493.226</ele>
        <time>2015-08-17T17:58:22Z</time>
      </trkpt>
      <trkpt lat="48.03791" lon="5.77483">
        <ele>490.315</ele>
        <time>2015-08-17T17:58:42Z</time>
      </trkpt>
      <trkpt lat="48.03748" lon="5.77586">
        <ele>493.048</ele>
        <time>2015-08-17T17:59:02Z</time>
      </trkpt>
      <trkpt lat="48.03728" lon="5.7769">
        <ele>492.895</ele>
        <time>2015-08-17T17:59:22Z</time>
      </trkpt>
      <trkpt lat="48.03675" lon="5.77806">
        <ele>495.039</ele>
        <time>2015-08-17T17:59:42Z</time>
      </trkpt>
      <trkpt lat="48.03582" lon="5.77924">
        <ele>489.834</ele>
        <time>2015-08-17T18:00:02Z</time>
      </trkpt>
      <trkpt lat="48.03519" lon="5.77988">
        <ele>485.255</ele>
        <time>2015-08-17T18:00:22Z</time>
      </trkpt>
      <trkpt lat="48.03509" lon="5.7793">
        <ele>485.81</ele>
        <time>2015-08-17T18:00:42Z</time>
      </trkpt>
      <trkpt lat="48.03499" lon="5.77838">
        <ele>490.508</ele>
        <time>2015-08-17T18:01:02Z</time>
      </trkpt>
      <trkpt lat="48.03391" lon="5.77666">
        <ele>485.379</ele>
        <time>2015-08-17T18:01:22Z</time>
      </trkpt>
      <trkpt lat="48.03346" lon="5.77696">
        <ele>479.914</ele>
        <time>2015-08-17T18:01:42Z</time>
      </trkpt>
      <trkpt lat="48.03136" lon="5.77775">
        <ele>476.235</ele>
        <time>2015-08-17T18:02:02Z</time>
      </trkpt>
      <trkpt lat="48.02451" lon="5.77609">
        <ele>482.08</ele>
        <time>2015-08-17T18:02:22Z</time>
      </trkpt>
      <trkpt lat="48.02377" lon="5.77612">
        <ele>486.069</ele>
        <time>2015-08-17T18:02:42Z</time>
      </trkpt>
      <trkpt lat="48.0224" lon="5.77643">
        <ele>479.812</ele>
        <time>2015-08-17T18:03:02Z</time>
      </trkpt>
      <trkpt lat="48.02237" lon="5.77806">
        <ele>483.029</ele>
        <time>2015-08-17T18:03:22Z</time>
      </trkpt>
      <trkpt lat="48.02177" lon="5.77759">
        <ele>482.573</ele>
        <time>2015-08-17T18:03:42Z</time>
      </trkpt>
      <trkpt lat="48.02152" lon="5.77711">
        <ele>481.782</ele>
        <time>2015-08-17T18:04:02Z</time>
      </trkpt>
      <trkpt lat="48.02137" lon="5.7763">
        <ele>477.543</ele>
        <time>2015-08-17T18:04:22Z</time>
      </trkpt>
      <trkpt lat="48.02097" lon="5.77513">
        <ele>473.517</ele>
        <time>2015-08-17T18:04:42Z</time>
      </trkpt>
      <trkpt lat="48.01999" lon="5.77264">
        <ele>471.108</ele>
        <time>2015-08-17T18:05:02Z</time>
      </trkpt>
      <trkpt lat="48.01931" lon="5.77163">
        <ele>475.564</ele>
        <time>2015-08-17T18:05:22Z</time>
      </trkpt>
      <trkpt lat="48.01891" lon="5.76897">
        <ele>471.189</ele>
        <time>2015-08-17T18:05:42Z</time>
      </trkpt>
      <trkpt lat="48.01421" lon="5.75663">
        <ele>476.12</ele>
        <time>2015-08-17T18:06:02Z</time>
      </trkpt>
      <trkpt lat="48.01357" lon="5.75529">
        <ele>481.955</ele>
        <time>2015-08-17T18:06:22Z</time>
      </trkpt>
      <trkpt lat="48.01326" lon="5.75361">
        <ele>480.724</ele>
        <time>2015-08-17T18:06:42Z</time>
      </trkpt>
      <trkpt lat="48.01217" lon="5.75198">
        <ele>479.627</ele>
        <time>2015-08-17T18:07:02Z</time>
      </trkpt>
      <trkpt lat="48.01135" lon="5.7509">
        <ele>470.134</ele>
        <time>2015-08-17T18:07:22Z</time>
      </trkpt>
      <trkpt lat="48.01039" lon="5.74932">
        <ele>467.528</ele>
        <time>2015-08-17T18:07:42Z</time>
      </trkpt>
      <trkpt lat="48.00951" lon="5.74826">
        <ele>463.529</ele>
        <time>2015-08-17T18:08:02Z</time>
      </trkpt>
      <trkpt lat="48.00911" lon="5.74718">
        <ele>455.6</ele>
        <time>2015-08-17T18:08:22Z</time>
      </trkpt>
      <trkpt lat="48.00862" lon="5.74616">
        <ele>458.82</ele>
        <time>2015-08-17T18:08:42Z</time>
      </trkpt>
      <trkpt lat="48.00822" lon="5.74439">
        <ele>455.708</ele>
        <time>2015-08-17T18:09:02Z</time>
      </trkpt>
      <trkpt lat="48.00692" lon="5.74299">
        <ele>454.248</ele>
        <time>2015-08-17T18:09:22Z</time>
      </trkpt>
      <trkpt lat="48.00606" lon="5.74308">
        <ele>454.343</ele>
        <time>2015-08-17T18:09:42Z</time>
      </trkpt>
      <trkpt lat="48.00453" lon="5.74172">
        <ele>453.024</ele>
        <time>2015-08-17T18:10:02Z</time>
      </trkpt>
      <trkpt lat="48.00322" lon="5.74095">
        <ele>451.459</ele>
        <time>2015-08-17T18:10:22Z</time>
      </trkpt>
      <trkpt lat="48.00254" lon="5.74075">
        <ele>450.298</ele>
        <time>2015-08-17T18:10:42Z</time>
      </trkpt>
      <trkpt lat="48.00147" lon="5.74057">
        <ele>446.511</ele>
        <time>2015-08-17T18:11:02Z</time>
      </trkpt>
      <trkpt lat="48.00003" lon="5.73998">
        <ele>442.938</ele>
        <time>2015-08-17T18:11:22Z</time>
      </trkpt>
      <trkpt lat="47.9991" lon="5.73922">
        <ele>440.462</ele>
        <time>2015-08-17T18:11:42Z</time>
      </trkpt>
      <trkpt lat="47.99832" lon="5.73851">
        <ele>440.546</ele>
        <time>2015-08-17T18:12:02Z</time>
      </trkpt>
      <trkpt lat="47.998" lon="5.73809">
        <ele>437.888</ele>
        <time>2015-08-17T18:12:22Z</time>
      </trkpt>
      <trkpt lat="47.9977" lon="5.73727">
        <ele>438.516</ele>
        <time>2015-08-17T18:12:42Z</time>
      </trkpt>
      <trkpt lat="47.99752" lon="5.73739">
        <ele>436.908</ele>
        <time>2015-08-17T18:13:02Z</time>
      </trkpt>
      <trkpt lat="47.9963" lon="5.73763">
        <ele>430.37</ele>
        <time>2015-08-17T18:13:22Z</time>
      </trkpt>
      <trkpt lat="47.996" lon="5.73705">
        <ele>432.265</ele>
        <time>2015-08-17T18:13:42Z</time>
      </trkpt>
      <trkpt lat="47.99557" lon="5.73685">
        <ele>433.076</ele>
        <time>2015-08-17T18:14:02Z</time>
      </trkpt>
      <trkpt lat="47.99478" lon="5.73677">
        <ele>420.921</ele>
        <time>2015-08-17T18:14:22Z</time>
      </trkpt>
      <trkpt lat="47.99434" lon="5.73656">
        <ele>414.95</ele>
        <time>2015-08-17T18:14:42Z</time>
      </trkpt>
      <trkpt lat="47.99375" lon="5.73613">
        <ele>409.343</ele>
        <time>2015-08-17T18:15:02Z</time>
      </trkpt>
      <trkpt lat="47.99298" lon="5.73563">
        <ele>393.39</ele>
        <time>2015-08-17T18:15:22Z</time>
      </trkpt>
      <trkpt lat="47.99283" lon="5.73515">
        <ele>387.434</ele>
        <time>2015-08-17T18:15:42Z</time>
      </trkpt>
      <trkpt lat="47.99279" lon="5.7346">
        <ele>381.814</ele>
        <time>2015-08-17T18:16:02Z</time>
      </trkpt>
      <trkpt lat="47.99233" lon="5.73466">
        <ele>377.554</ele>
        <time>2015-08-17T18:16:22Z</time>
      </trkpt>
      <trkpt lat="47.99201" lon="5.73489">
        <ele>375.309</ele>
        <time>2015-08-17T18:16:42Z</time>
      </trkpt>
      <trkpt lat="47.99158" lon="5.73539">
        <ele>369.108</ele>
        <time>2015-08-17T18:17:02Z</time>
      </trkpt>
      <trkpt lat="47.99145" lon="5.73576">
        <ele>365.017</ele>
        <time>2015-08-17T18:17:22Z</time>
      </trkpt>
      <trkpt lat="47.9915" lon="5.73639">
        <ele>360.212</ele>
        <time>2015-08-17T18:17:42Z</time>
      </trkpt>
      <trkpt lat="47.99131" lon="5.73663">
        <ele>357.023</ele>
        <time>2015-08-17T18:18:02Z</time>
      </trkpt>
      <trkpt lat="47.99119" lon="5.73686">
        <ele>355.658</ele>
        <time>2015-08-17T18:18:22Z</time>
      </trkpt>
      <trkpt lat="47.9915" lon="5.73745">
        <ele>356.087</ele>
        <time>2015-08-17T18:18:42Z</time>
      </trkpt>
      <trkpt lat="47.99182" lon="5.7383">
        <ele>354.78</ele>
        <time>2015-08-17T18:19:02Z</time>
      </trkpt>
      <trkpt lat="47.99144" lon="5.73865">
        <ele>349.827</ele>
        <time>2015-08-17T18:19:22Z</time>
      </trkpt>
      <trkpt lat="47.99087" lon="5.73923">
        <ele>342.261</ele>
        <time>2015-08-17T18:19:42Z</time>
      </trkpt>
      <trkpt lat="47.99024" lon="5.73857">
        <ele>341.959</ele>
        <time>2015-08-17T18:20:02Z</time>
      </trkpt>
      <trkpt lat="47.98922" lon="5.73779">
        <ele>340.103</ele>
        <time>2015-08-17T18:20:22Z</time>
      </trkpt>
      <trkpt lat="47.98874" lon="5.73713">
        <ele>339.523</ele>
        <time>2015-08-17T18:20:42Z</time>
      </trkpt>
      <trkpt lat="47.98867" lon="5.73637">
        <ele>339.208</ele>
        <time>2015-08-17T18:21:02Z</time>
      </trkpt>
      <trkpt lat="47.98843" lon="5.7353">
        <ele>335.771</ele>
        <time>2015-08-17T18:21:22Z</time>
      </trkpt>
      <trkpt lat="47.98839" lon="5.73467">
        <ele>334.516</ele>
        <time>2015-08-17T18:21:42Z</time>
      </trkpt>
      <trkpt lat="47.98797" lon="5.7348">
        <ele>333.197</ele>
        <time>2015-08-17T18:22:02Z</time>
      </trkpt>
      <trkpt lat="47.98742" lon="5.73427">
        <ele>326.462</ele>
        <time>2015-08-17T18:22:22Z</time>
      </trkpt>
      <trkpt lat="47.98666" lon="5.73431">
        <ele>324.541</ele>
        <time>2015-08-17T18:22:42Z</time>
      </trkpt>
      <trkpt lat="47.98574" lon="5.73322">
        <ele>324.074</ele>
        <time>2015-08-17T18:23:02Z</time>
      </trkpt>
      <trkpt lat="47.98532" lon="5.73304">
        <ele>326.631</ele>
        <time>2015-08-17T18:23:22Z</time>
      </trkpt>
      <trkpt lat="47.98459" lon="5.73299">
        <ele>327.765</ele>
        <time>2015-08-17T18:23:42Z</time>
      </trkpt>
      <trkpt lat="47.98389" lon="5.73253">
        <ele>324.075</ele>
        <time>2015-08-17T18:24:02Z</time>
      </trkpt>
      <trkpt lat="47.98304" lon="5.73168">
        <ele>318.928</ele>
        <time>2015-08-17T18:24:22Z</time>
      </trkpt>
      <trkpt lat="47.98156" lon="5.73049">
        <ele>312.22</ele>
        <time>2015-08-17T18:24:42Z</time>
      </trkpt>
      <trkpt lat="47.981" lon="5.73053">
        <ele>310.308</ele>
        <time>2015-08-17T18:25:02Z</time>
      </trkpt>
      <trkpt lat="47.97985" lon="5.72922">
        <ele>303.553</ele>
        <time>2015-08-17T18:25:22Z</time>
      </trkpt>
      <trkpt lat="47.97933" lon="5.72836">
        <ele>302.128</ele>
        <time>2015-08-17T18:25:42Z</time>
      </trkpt>
      <trkpt lat="47.97904" lon="5.7281">
        <ele>300.269</ele>
        <time>2015-08-17T18:26:02Z</time>
      </trkpt>
      <trkpt lat="47.97864" lon="5.72806">
        <ele>298.154</ele>
        <time>2015-08-17T18:26:22Z</time>
      </trkpt>
      <trkpt lat="47.97798" lon="5.72911">
        <ele>305.683</ele>
        <time>2015-08-17T18:26:42Z</time>
      </trkpt>
      <trkpt lat="47.97781" lon="5.72976">
        <ele>309.376</ele>
        <time>2015-08-17T18:27:02Z</time>
      </trkpt>
      <trkpt lat="47.97758" lon="5.73038">
        <ele>310.793</ele>
        <time>2015-08-17T18:27:22Z</time>
      </trkpt>
      <trkpt lat="47.97728" lon="5.73063">
        <ele>310.227</ele>
        <time>2015-08-17T18:27:42Z</time>
      </trkpt>
      <trkpt lat="47.97702" lon="5.73096">
        <ele>308.196</ele>
        <time>2015-08-17T18:28:02Z</time>
      </trkpt>
      <trkpt lat="47.97675" lon="5.73194">
        <ele>301.931</ele>
        <time>2015-08-17T18:28:22Z</time>
      </trkpt>
      <trkpt lat="47.97636" lon="5.73294">
        <ele>303.624</ele>
        <time>2015-08-17T18:28:42Z</time>
      </trkpt>
      <trkpt lat="47.97546" lon="5.73375">
        <ele>304.708</ele>
        <time>2015-08-17T18:29:02Z</time>
      </trkpt>
      <trkpt lat="47.97506" lon="5.73399">
        <ele>301.625</ele>
        <time>2015-08-17T18:29:22Z</time>
      </trkpt>
      <trkpt lat="47.9743" lon="5.73482">
        <ele>295.89</ele>
        <time>2015-08-17T18:29:42Z</time>
      </trkpt>
      <trkpt lat="47.97382" lon="5.73506">
        <ele>298.621</ele>
        <time>2015-08-17T18:30:02Z</time>
      </trkpt>
      <trkpt lat="47.97358" lon="5.73531">
        <ele>299.026</ele>
        <time>2015-08-17T18:30:22Z</time>
      </trkpt>
      <trkpt lat="47.97293" lon="5.73639">
        <ele>297.535</ele>
        <time>2015-08-17T18:30:42Z</time>
      </trkpt>
      <trkpt lat="47.97224" lon="5.73787">
        <ele>296.118</ele>
        <time>2015-08-17T18:31:02Z</time>
      </trkpt>
      <trkpt lat="47.97193" lon="5.73845">
        <ele>295.065</ele>
        <time>2015-08-17T18:31:22Z</time>
      </trkpt>
      <trkpt lat="47.97167" lon="5.73948">
        <ele>293.179</ele>
        <time>2015-08-17T18:31:42Z</time>
      </trkpt>
      <trkpt lat="47.97039" lon="5.74105">
        <ele>296.849</ele>
        <time>2015-08-17T18:32:02Z</time>
      </trkpt>
      <trkpt lat="47.96914" lon="5.74299">
        <ele>287.102</ele>
        <time>2015-08-17T18:32:22Z</time>
      </trkpt>
      <trkpt lat="47.96876" lon="5.7434">
        <ele>286.622</ele>
        <time>2015-08-17T18:32:42Z</time>
      </trkpt>
      <trkpt lat="47.96749" lon="5.74429">
        <ele>281.008</ele>
        <time>2015-08-17T18:33:02Z</time>
      </trkpt>
      <trkpt lat="47.9674" lon="5.74459">
        <ele>280.18</ele>
        <time>2015-08-17T18:33:22Z</time>
      </trkpt>
      <trkpt lat="47.96687" lon="5.74461">
        <ele>275.935</ele>
        <time>2015-08-17T18:33:42Z</time>
      </trkpt>
      <trkpt lat="47.96601" lon="5.74424">
        <ele>267.776</ele>
        <time>2015-08-17T18:34:02Z</time>
      </trkpt>
      <trkpt lat="47.96536" lon="5.74425">
        <ele>263.421</ele>
        <time>2015-08-17T18:34:22Z</time>
      </trkpt>
      <trkpt lat="47.96277" lon="5.74488">
        <ele>262.05</ele>
        <time>2015-08-17T18:34:42Z</time>
      </trkpt>
      <trkpt lat="47.95725" lon="5.748">
        <ele>266.043</ele>
        <time>2015-08-17T18:35:02Z</time>
      </trkpt>
      <trkpt lat="47.95512" lon="5.74859">
        <ele>270.42</ele>
        <time>2015-08-17T18:35:22Z</time>
      </trkpt>
      <trkpt lat="47.95367" lon="5.74811">
        <ele>277.614</ele>
        <time>2015-08-17T18:35:42Z</time>
      </trkpt>
      <trkpt lat="47.95367" lon="5.74797">
        <ele>277.493</ele>
        <time>2015-08-17T18:36:02Z</time>
      </trkpt>
      <trkpt lat="47.95313" lon="5.74786">
        <ele>270.165</ele>
        <time>2015-08-17T18:36:22Z</time>
      </trkpt>
      <trkpt lat="47.95278" lon="5.74758">
        <ele>265.721</ele>
        <time>2015-08-17T18:36:42Z</time>
      </trkpt>
      <trkpt lat="47.9527" lon="5.74719">
        <ele>267.008</ele>
        <time>2015-08-17T18:37:02Z</time>
      </trkpt>
      <trkpt lat="47.95152" lon="5.74662">
        <ele>258.635</ele>
        <time>2015-08-17T18:37:22Z</time>
      </trkpt>
      <trkpt lat="47.95119" lon="5.74658">
        <ele>259.52</ele>
        <time>2015-08-17T18:37:42Z</time>
      </trkpt>
      <trkpt lat="47.95109" lon="5.74619">
        <ele>260.831</ele>
        <time>2015-08-17T18:38:02Z</time>
      </trkpt>
      <trkpt lat="47.95084" lon="5.74576">
        <ele>264.256</ele>
        <time>2015-08-17T18:38:22Z</time>
      </trkpt>
      <trkpt lat="47.95062" lon="5.74396">
        <ele>263.925</ele>
        <time>2015-08-17T18:38:42Z</time>
      </trkpt>
      <trkpt lat="47.95036" lon="5.7426">
        <ele>269.078</ele>
        <time>2015-08-17T18:39:02Z</time>
      </trkpt>
      <trkpt lat="47.94993" lon="5.74248">
        <ele>274.965</ele>
        <time>2015-08-17T18:39:22Z</time>
      </trkpt>
      <trkpt lat="47.94939" lon="5.74253">
        <ele>283.459</ele>
        <time>2015-08-17T18:39:42Z</time>
      </trkpt>
      <trkpt lat="47.94904" lon="5.74202">
        <ele>292.099</ele>
        <time>2015-08-17T18:40:02Z</time>
      </trkpt>
      <trkpt lat="47.94875" lon="5.74093">
        <ele>297.507</ele>
        <time>2015-08-17T18:40:22Z</time>
      </trkpt>
      <trkpt lat="47.94806" lon="5.74008">
        <ele>303.027</ele>
        <time>2015-08-17T18:40:42Z</time>
      </trkpt>
      <trkpt lat="47.94692" lon="5.73908">
        <ele>310.008</ele>
        <time>2015-08-17T18:41:02Z</time>
      </trkpt>
      <trkpt lat="47.94643" lon="5.73788">
        <ele>314.425</ele>
        <time>2015-08-17T18:41:22Z</time>
      </trkpt>
      <trkpt lat="47.94595" lon="5.73708">
        <ele>317.42</ele>
        <time>2015-08-17T18:41:42Z</time>
      </trkpt>
      <trkpt lat="47.94524" lon="5.73623">
        <ele>323.821</ele>
        <time>2015-08-17T18:42:02Z</time>
      </trkpt>
      <trkpt lat="47.94462" lon="5.73495">
        <ele>324.196</ele>
        <time>2015-08-17T18:42:22Z</time>
      </trkpt>
      <trkpt lat="47.94348" lon="5.73392">
        <ele>325.195</ele>
        <time>2015-08-17T18:42:42Z</time>
      </trkpt>
      <trkpt lat="47.94194" lon="5.73161">
        <ele>325.948</ele>
        <time>2015-08-17T18:43:02Z</time>
      </trkpt>
      <trkpt lat="47.94081" lon="5.73027">
        <ele>325.135</ele>
        <time>2015-08-17T18:43:22Z</time>
      </trkpt>
      <trkpt lat="47.93888" lon="5.72789">
        <ele>328.599</ele>
        <time>2015-08-17T18:43:42Z</time>
      </trkpt>
      <trkpt lat="47.93839" lon="5.72711">
        <ele>331.738</ele>
        <time>2015-08-17T18:44:02Z</time>
      </trkpt>
      <trkpt lat="47.93785" lon="5.72598">
        <ele>334.77</ele>
        <time>2015-08-17T18:44:22Z</time>
      </trkpt>
      <trkpt lat="47.93593" lon="5.72512">
        <ele>348.717</ele>
        <time>2015-08-17T18:44:42Z</time>
      </trkpt>
      <trkpt lat="47.93544" lon="5.72462">
        <ele>350.808</ele>
        <time>2015-08-17T18:45:02Z</time>
      </trkpt>
      <trkpt lat="47.93535" lon="5.72475">
        <ele>350.619</ele>
        <time>2015-08-17T18:45:22Z</time>
      </trkpt>
      <trkpt lat="47.93422" lon="5.72408">
        <ele>344.684</ele>
        <time>2015-08-17T18:45:42Z</time>
      </trkpt>
      <trkpt lat="47.93398" lon="5.72372">
        <ele>343.985</ele>
        <time>2015-08-17T18:46:02Z</time>
      </trkpt>
      <trkpt lat="47.93324" lon="5.7218">
        <ele>345.14</ele>
        <time>2015-08-17T18:46:22Z</time>
      </trkpt>
      <trkpt lat="47.93325" lon="5.72058">
        <ele>343.839</ele>
        <time>2015-08-17T18:46:42Z</time>
      </trkpt>
      <trkpt lat="47.93307" lon="5.72014">
        <ele>341.312</ele>
        <time>2015-08-17T18:47:02Z</time>
      </trkpt>
      <trkpt lat="47.93228" lon="5.71927">
        <ele>336.329</ele>
        <time>2015-08-17T18:47:22Z</time>
      </trkpt>
      <trkpt lat="47.9315" lon="5.71827">
        <ele>332.333</ele>
        <time>2015-08-17T18:47:42Z</time>
      </trkpt>
      <trkpt lat="47.9313" lon="5.71828">
        <ele>330.289</ele>
        <time>2015-08-17T18:48:02Z</time>
      </trkpt>
      <trkpt lat="47.93094" lon="5.71861">
        <ele>324.406</ele>
        <time>2015-08-17T18:48:22Z</time>
      </trkpt>
      <trkpt lat="47.92995" lon="5.71815">
        <ele>325.126</ele>
        <time>2015-08-17T18:48:42Z</time>
      </trkpt>
      <trkpt lat="47.92972" lon="5.71778">
        <ele>330.008</ele>
        <time>2015-08-17T18:49:02Z</time>
      </trkpt>
      <trkpt lat="47.92957" lon="5.71725">
        <ele>335.984</ele>
        <time>2015-08-17T18:49:22Z</time>
      </trkpt>
      <trkpt lat="47.9292" lon="5.71698">
        <ele>336.999</ele>
        <time>2015-08-17T18:49:42Z</time>
      </trkpt>
      <trkpt lat="47.92885" lon="5.71661">
        <ele>336.31</ele>
        <time>2015-08-17T18:50:02Z</time>
      </trkpt>
      <trkpt lat="47.9285" lon="5.71675">
        <ele>338.565</ele>
        <time>2015-08-17T18:50:22Z</time>
      </trkpt>
      <trkpt lat="47.92731" lon="5.71878">
        <ele>341.694</ele>
        <time>2015-08-17T18:50:42Z</time>
      </trkpt>
      <trkpt lat="47.92639" lon="5.71964">
        <ele>344.187</ele>
        <time>2015-08-17T18:51:02Z</time>
      </trkpt>
      <trkpt lat="47.92584" lon="5.72059">
        <ele>346.524</ele>
        <time>2015-08-17T18:51:22Z</time>
      </trkpt>
      <trkpt lat="47.92543" lon="5.72089">
        <ele>348.678</ele>
        <time>2015-08-17T18:51:42Z</time>
      </trkpt>
      <trkpt lat="47.92269" lon="5.72095">
        <ele>358.463</ele>
        <time>2015-08-17T18:52:02Z</time>
      </trkpt>
      <trkpt lat="47.9222" lon="5.72084">
        <ele>356.444</ele>
        <time>2015-08-17T18:52:22Z</time>
      </trkpt>
      <trkpt lat="47.91947" lon="5.71971">
        <ele>339.518</ele>
        <time>2015-08-17T18:52:42Z</time>
      </trkpt>
      <trkpt lat="47.91876" lon="5.71934">
        <ele>330.708</ele>
        <time>2015-08-17T18:53:02Z</time>
      </trkpt>
      <trkpt lat="47.91857" lon="5.71939">
        <ele>325.342</ele>
        <time>2015-08-17T18:53:22Z</time>
      </trkpt>
      <trkpt lat="47.91858" lon="5.72076">
        <ele>318.347</ele>
        <time>2015-08-17T18:53:42Z</time>
      </trkpt>
      <trkpt lat="47.91885" lon="5.72169">
        <ele>313.118</ele>
        <time>2015-08-17T18:54:02Z</time>
      </trkpt>
      <trkpt lat="47.91906" lon="5.72328">
        <ele>311.183</ele>
        <time>2015-08-17T18:54:22Z</time>
      </trkpt>
      <trkpt lat="47.91924" lon="5.72366">
        <ele>310.362</ele>
        <time>2015-08-17T18:54:42Z</time>
      </trkpt>
      <trkpt lat="47.92107" lon="5.72573">
        <ele>311.855</ele>
        <time>2015-08-17T18:55:02Z</time>
      </trkpt>
      <trkpt lat="47.92117" lon="5.72602">
        <ele>311.912</ele>
        <time>2015-08-17T18:55:22Z</time>
      </trkpt>
      <trkpt lat="47.9191" lon="5.72556">
        <ele>311.826</ele>
        <time>2015-08-17T18:55:42Z</time>
      </trkpt>
      <trkpt lat="47.91889" lon="5.72586">
        <ele>317.156</ele>
        <time>2015-08-17T18:56:02Z</time>
      </trkpt>
      <trkpt lat="47.91389" lon="5.72484">
        <ele>389.459</ele>
        <time>2015-08-17T18:56:22Z</time>
      </trkpt>
      <trkpt lat="47.91315" lon="5.7248">
        <ele>410.814</ele>
        <time>2015-08-17T18:56:42Z</time>
      </trkpt>
      <trkpt lat="47.91282" lon="5.72446">
        <ele>420.808</ele>
        <time>2015-08-17T18:57:02Z</time>
      </trkpt>
      <trkpt lat="47.91234" lon="5.72317">
        <ele>425.171</ele>
        <time>2015-08-17T18:57:22Z</time>
      </trkpt>
      <trkpt lat="47.91181" lon="5.72298">
        <ele>425.386</ele>
        <time>2015-08-17T18:57:42Z</time>
      </trkpt>
      <trkpt lat="47.9113" lon="5.72243">
        <ele>424.167</ele>
        <time>2015-08-17T18:58:02Z</time>
      </trkpt>
      <trkpt lat="47.91056" lon="5.72201">
        <ele>425.862</ele>
        <time>2015-08-17T18:58:22Z</time>
      </trkpt>
      <trkpt lat="47.91012" lon="5.72124">
        <ele>424.771</ele>
        <time>2015-08-17T18:58:42Z</time>
      </trkpt>
      <trkpt lat="47.90986" lon="5.72091">
        <ele>425.044</ele>
        <time>2015-08-17T18:59:02Z</time>
      </trkpt>
      <trkpt lat="47.90949" lon="5.72067">
        <ele>424.451</ele>
        <time>2015-08-17T18:59:22Z</time>
      </trkpt>
      <trkpt lat="47.90878" lon="5.7205">
        <ele>418.245</ele>
        <time>2015-08-17T18:59:42Z</time>
      </trkpt>
      <trkpt lat="47.90848" lon="5.71923">
        <ele>417.422</ele>
        <time>2015-08-17T19:00:02Z</time>
      </trkpt>
      <trkpt lat="47.90783" lon="5.71709">
        <ele>412.962</ele>
        <time>2015-08-17T19:00:22Z</time>
      </trkpt>
      <trkpt lat="47.90657" lon="5.71616">
        <ele>396.908</ele>
        <time>2015-08-17T19:00:42Z</time>
      </trkpt>
      <trkpt lat="47.90628" lon="5.71582">
        <ele>393.808</ele>
        <time>2015-08-17T19:01:02Z</time>
      </trkpt>
      <trkpt lat="47.90566" lon="5.71477">
        <ele>388.518</ele>
        <time>2015-08-17T19:01:22Z</time>
      </trkpt>
      <trkpt lat="47.90493" lon="5.71372">
        <ele>377.423</ele>
        <time>2015-08-17T19:01:42Z</time>
      </trkpt>
      <trkpt lat="47.90445" lon="5.71317">
        <ele>368.484</ele>
        <time>2015-08-17T19:02:02Z</time>
      </trkpt>
      <trkpt lat="47.90386" lon="5.71298">
        <ele>356.679</ele>
        <time>2015-08-17T19:02:22Z</time>
      </trkpt>
      <trkpt lat="47.90309" lon="5.71292">
        <ele>344.768</ele>
        <time>2015-08-17T19:02:42Z</time>
      </trkpt>
      <trkpt lat="47.90279" lon="5.71278">
        <ele>343.021</ele>
        <time>2015-08-17T19:03:02Z</time>
      </trkpt>
      <trkpt lat="47.90186" lon="5.71417">
        <ele>329.798</ele>
        <time>2015-08-17T19:03:22Z</time>
      </trkpt>
      <trkpt lat="47.90173" lon="5.71407">
        <ele>328.632</ele>
        <time>2015-08-17T19:03:42Z</time>
      </trkpt>
      <trkpt lat="47.90069" lon="5.71604">
        <ele>368.041</ele>
        <time>2015-08-17T19:04:02Z</time>
      </trkpt>
      <trkpt lat="47.8999" lon="5.71511">
        <ele>363.981</ele>
        <time>2015-08-17T19:04:22Z</time>
      </trkpt>
      <trkpt lat="47.8996" lon="5.71465">
        <ele>360.009</ele>
        <time>2015-08-17T19:04:42Z</time>
      </trkpt>
      <trkpt lat="47.89867" lon="5.71359">
        <ele>360.508</ele>
        <time>2015-08-17T19:05:02Z</time>
      </trkpt>
      <trkpt lat="47.89779" lon="5.71251">
        <ele>362.83</ele>
        <time>2015-08-17T19:05:22Z</time>
      </trkpt>
      <trkpt lat="47.89805" lon="5.7074">
        <ele>293.295</ele>
        <time>2015-08-17T19:05:42Z</time>
      </trkpt>
      <trkpt lat="47.89827" lon="5.70507">
        <ele>296.096</ele>
        <time>2015-08-17T19:06:02Z</time>
      </trkpt>
      <trkpt lat="47.8982" lon="5.70328">
        <ele>300.921</ele>
        <time>2015-08-17T19:06:22Z</time>
      </trkpt>
      <trkpt lat="47.89822" lon="5.70156">
        <ele>295.18</ele>
        <time>2015-08-17T19:06:42Z</time>
      </trkpt>
      <trkpt lat="47.89809" lon="5.70078">
        <ele>290.263</ele>
        <time>2015-08-17T19:07:02Z</time>
      </trkpt>
      <trkpt lat="47.898" lon="5.69993">
        <ele>284.15</ele>
        <time>2015-08-17T19:07:22Z</time>
      </trkpt>
      <trkpt lat="47.89777" lon="5.69859">
        <ele>275.994</ele>
        <time>2015-08-17T19:07:42Z</time>
      </trkpt>
      <trkpt lat="47.89754" lon="5.69887">
        <ele>276.961</ele>
        <time>2015-08-17T19:08:02Z</time>
      </trkpt>
      <trkpt lat="47.89743" lon="5.69967">
        <ele>281.021</ele>
        <time>2015-08-17T19:08:22Z</time>
      </trkpt>
      <trkpt lat="47.89718" lon="5.70005">
        <ele>282.213</ele>
        <time>2015-08-17T19:08:42Z</time>
      </trkpt>
      <trkpt lat="47.89676" lon="5.70043">
        <ele>283.808</ele>
        <time>2015-08-17T19:09:02Z</time>
      </trkpt>
      <trkpt lat="47.89523" lon="5.70115">
        <ele>283.732</ele>
        <time>2015-08-17T19:09:22Z</time>
      </trkpt>
      <trkpt lat="47.89471" lon="5.70158">
        <ele>280.517</ele>
        <time>2015-08-17T19:09:42Z</time>
      </trkpt>
      <trkpt lat="47.89353" lon="5.70162">
        <ele>272.988</ele>
        <time>2015-08-17T19:10:02Z</time>
      </trkpt>
      <trkpt lat="47.89255" lon="5.7017">
        <ele>267.693</ele>
        <time>2015-08-17T19:10:22Z</time>
      </trkpt>
      <trkpt lat="47.89198" lon="5.70211">
        <ele>267.022</ele>
        <time>2015-08-17T19:10:42Z</time>
      </trkpt>
      <trkpt lat="47.8918" lon="5.70204">
        <ele>266.885</ele>
        <time>2015-08-17T19:11:02Z</time>
      </trkpt>
      <trkpt lat="47.89143" lon="5.70157">
        <ele>273.752</ele>
        <time>2015-08-17T19:11:22Z</time>
      </trkpt>
      <trkpt lat="47.89091" lon="5.70173">
        <ele>281.516</ele>
        <time>2015-08-17T19:11:42Z</time>
      </trkpt>
      <trkpt lat="47.89057" lon="5.70022">
        <ele>281.876</ele>
        <time>2015-08-17T19:12:02Z</time>
      </trkpt>
      <trkpt lat="47.89" lon="5.69846">
        <ele>278.09</ele>
        <time>2015-08-17T19:12:22Z</time>
      </trkpt>
      <trkpt lat="47.89" lon="5.69634">
        <ele>277.019</ele>
        <time>2015-08-17T19:12:42Z</time>
      </trkpt>
      <trkpt lat="47.88987" lon="5.69589">
        <ele>276.708</ele>
        <time>2015-08-17T19:13:02Z</time>
      </trkpt>
      <trkpt lat="47.88906" lon="5.69427">
        <ele>279.083</ele>
        <time>2015-08-17T19:13:22Z</time>
      </trkpt>
      <trkpt lat="47.88858" lon="5.693">
        <ele>279.918</ele>
        <time>2015-08-17T19:13:42Z</time>
      </trkpt>
      <trkpt lat="47.88834" lon="5.6926">
        <ele>280.389</ele>
        <time>2015-08-17T19:14:02Z</time>
      </trkpt>
      <trkpt lat="47.88768" lon="5.69189">
        <ele>284.884</ele>
        <time>2015-08-17T19:14:22Z</time>
      </trkpt>
      <trkpt lat="47.88801" lon="5.68861">
        <ele>281.093</ele>
        <time>2015-08-17T19:14:42Z</time>
      </trkpt>
      <trkpt lat="47.88865" lon="5.68704">
        <ele>278.546</ele>
        <time>2015-08-17T19:15:02Z</time>
      </trkpt>
      <trkpt lat="47.88878" lon="5.68647">
        <ele>277.343</ele>
        <time>2015-08-17T19:15:22Z</time>
      </trkpt>
      <trkpt lat="47.88908" lon="5.68411">
        <ele>266.547</ele>
        <time>2015-08-17T19:15:42Z</time>
      </trkpt>
      <trkpt lat="47.88903" lon="5.68357">
        <ele>265.019</ele>
        <time>2015-08-17T19:16:02Z</time>
      </trkpt>
      <trkpt lat="47.88875" lon="5.68301">
        <ele>268.109</ele>
        <time>2015-08-17T19:16:22Z</time>
      </trkpt>
      <trkpt lat="47.88787" lon="5.68201">
        <ele>260.319</ele>
        <time>2015-08-17T19:16:42Z</time>
      </trkpt>
      <trkpt lat="47.88681" lon="5.68036">
        <ele>259.408</ele>
        <time>2015-08-17T19:17:02Z</time>
      </trkpt>
      <trkpt lat="47.88513" lon="5.67907">
        <ele>257.377</ele>
        <time>2015-08-17T19:17:22Z</time>
      </trkpt>
      <trkpt lat="47.88467" lon="5.67838">
        <ele>258.762</ele>
        <time>2015-08-17T19:17:42Z</time>
      </trkpt>
      <trkpt lat="47.88387" lon="5.67654">
        <ele>259.683</ele>
        <time>2015-08-17T19:18:02Z</time>
      </trkpt>
      <trkpt lat="47.88312" lon="5.67509">
        <ele>255.638</ele>
        <time>2015-08-17T19:18:22Z</time>
      </trkpt>
      <trkpt lat="47.88189" lon="5.67225">
        <ele>253.847</ele>
        <time>2015-08-17T19:18:42Z</time>
      </trkpt>
      <trkpt lat="47.88108" lon="5.66992">
        <ele>252.15</ele>
        <time>2015-08-17T19:19:02Z</time>
      </trkpt>
      <trkpt lat="47.88071" lon="5.66843">
        <ele>253.667</ele>
        <time>2015-08-17T19:19:22Z</time>
      </trkpt>
      <trkpt lat="47.8803" lon="5.66763">
        <ele>252.321</ele>
        <time>2015-08-17T19:19:42Z</time>
      </trkpt>
      <trkpt lat="47.87933" lon="5.66593">
        <ele>251.492</ele>
        <time>2015-08-17T19:20:02Z</time>
      </trkpt>
      <trkpt lat="47.87937" lon="5.66396">
        <ele>248.073</ele>
        <time>2015-08-17T19:20:22Z</time>
      </trkpt>
      <trkpt lat="47.87932" lon="5.66198">
        <ele>246.32</ele>
        <time>2015-08-17T19:20:42Z</time>
      </trkpt>
      <trkpt lat="47.87866" lon="5.6583">
        <ele>253.308</ele>
        <time>2015-08-17T19:21:02Z</time>
      </trkpt>
      <trkpt lat="47.87738" lon="5.65441">
        <ele>266.265</ele>
        <time>2015-08-17T19:21:22Z</time>
      </trkpt>
      <trkpt lat="47.87711" lon="5.65324">
        <ele>266.36</ele>
        <time>2015-08-17T19:21:42Z</time>
      </trkpt>
      <trkpt lat="47.87627" lon="5.65068">
        <ele>254.381</ele>
        <time>2015-08-17T19:22:02Z</time>
      </trkpt>
      <trkpt lat="47.87554" lon="5.64996">
        <ele>249.876</ele>
        <time>2015-08-17T19:22:22Z</time>
      </trkpt>
      <trkpt lat="47.874" lon="5.65222">
        <ele>247.485</ele>
        <time>2015-08-17T19:22:42Z</time>
      </trkpt>
      <trkpt lat="47.87371" lon="5.65282">
        <ele>248.518</ele>
        <time>2015-08-17T19:23:02Z</time>
      </trkpt>
      <trkpt lat="47.87325" lon="5.65267">
        <ele>246.775</ele>
        <time>2015-08-17T19:23:22Z</time>
      </trkpt>
      <trkpt lat="47.87238" lon="5.65127">
        <ele>241.869</ele>
        <time>2015-08-17T19:23:42Z</time>
      </trkpt>
      <trkpt lat="47.87305" lon="5.65067">
        <ele>244.451</ele>
        <time>2015-08-17T19:24:02Z</time>
      </trkpt>
      <trkpt lat="47.87386" lon="5.64948">
        <ele>242.001</ele>
        <time>2015-08-17T19:24:22Z</time>
      </trkpt>
      <trkpt lat="47.87459" lon="5.64816">
        <ele>241.711</ele>
        <time>2015-08-17T19:24:42Z</time>
      </trkpt>
      <trkpt lat="47.87591" lon="5.64638">
        <ele>242.308</ele>
        <time>2015-08-17T19:25:02Z</time>
      </trkpt>
      <trkpt lat="47.87582" lon="5.64607">
        <ele>242.081</ele>
        <time>2015-08-17T19:25:22Z</time>
      </trkpt>
      <trkpt lat="47.87366" lon="5.64451">
        <ele>241.856</ele>
        <time>2015-08-17T19:25:42Z</time>
      </trkpt>
      <trkpt lat="47.8742" lon="5.64334">
        <ele>242.977</ele>
        <time>2015-08-17T19:26:02Z</time>
      </trkpt>
      <trkpt lat="47.87449" lon="5.64301">
        <ele>242.052</ele>
        <time>2015-08-17T19:26:22Z</time>
      </trkpt>
      <trkpt lat="47.8821" lon="5.63821">
        <ele>244.391</ele>
        <time>2015-08-17T19:26:42Z</time>
      </trkpt>
      <trkpt lat="47.88332" lon="5.63793">
        <ele>246.134</ele>
        <time>2015-08-17T19:27:02Z</time>
      </trkpt>
      <trkpt lat="47.88458" lon="5.63753">
        <ele>247.911</ele>
        <time>2015-08-17T19:27:22Z</time>
      </trkpt>
      <trkpt lat="47.88475" lon="5.63477">
        <ele>248.715</ele>
        <time>2015-08-17T19:27:42Z</time>
      </trkpt>
      <trkpt lat="47.8871" lon="5.63548">
        <ele>247.243</ele>
        <time>2015-08-17T19:28:02Z</time>
      </trkpt>
      <trkpt lat="47.88778" lon="5.63209">
        <ele>253.064</ele>
        <time>2015-08-17T19:28:22Z</time>
      </trkpt>
      <trkpt lat="47.88788" lon="5.63091">
        <ele>253.21</ele>
        <time>2015-08-17T19:28:42Z</time>
      </trkpt>
      <trkpt lat="47.88811" lon="5.63015">
        <ele>257.308</ele>
        <time>2015-08-17T19:29:02Z</time>
      </trkpt>
      <trkpt lat="47.88858" lon="5.6294">
        <ele>259.07</ele>
        <time>2015-08-17T19:29:22Z</time>
      </trkpt>
      <trkpt lat="47.8903" lon="5.62567">
        <ele>263.845</ele>
        <time>2015-08-17T19:29:42Z</time>
      </trkpt>
      <trkpt lat="47.89086" lon="5.62609">
        <ele>268.286</ele>
        <time>2015-08-17T19:30:02Z</time>
      </trkpt>
      <trkpt lat="47.89111" lon="5.62611">
        <ele>270.931</ele>
        <time>2015-08-17T19:30:22Z</time>
      </trkpt>
      <trkpt lat="47.89166" lon="5.627">
        <ele>277.65</ele>
        <time>2015-08-17T19:30:42Z</time>
      </trkpt>
      <trkpt lat="47.89192" lon="5.62765">
        <ele>288.373</ele>
        <time>2015-08-17T19:31:02Z</time>
      </trkpt>
      <trkpt lat="47.89197" lon="5.62884">
        <ele>303.72</ele>
        <time>2015-08-17T19:31:22Z</time>
      </trkpt>
      <trkpt lat="47.89173" lon="5.62933">
        <ele>307.544</ele>
        <time>2015-08-17T19:31:42Z</time>
      </trkpt>
      <trkpt lat="47.89246" lon="5.6288">
        <ele>309.315</ele>
        <time>2015-08-17T19:32:02Z</time>
      </trkpt>
      <trkpt lat="47.89207" lon="5.62997">
        <ele>322.665</ele>
        <time>2015-08-17T19:32:22Z</time>
      </trkpt>
      <trkpt lat="47.89202" lon="5.63046">
        <ele>330.311</ele>
        <time>2015-08-17T19:32:42Z</time>
      </trkpt>
      <trkpt lat="47.89221" lon="5.63065">
        <ele>331.708</ele>
        <time>2015-08-17T19:33:02Z</time>
      </trkpt>
      <trkpt lat="47.8927" lon="5.63065">
        <ele>335.597</ele>
        <time>2015-08-17T19:33:22Z</time>
      </trkpt>
      <trkpt lat="47.89337" lon="5.6305">
        <ele>339.832</ele>
        <time>2015-08-17T19:33:42Z</time>
      </trkpt>
      <trkpt lat="47.89386" lon="5.63016">
        <ele>341.093</ele>
        <time>2015-08-17T19:34:02Z</time>
      </trkpt>
      <trkpt lat="47.89415" lon="5.6301">
        <ele>341.368</ele>
        <time>2015-08-17T19:34:22Z</time>
      </trkpt>
      <trkpt lat="47.89524" lon="5.629">
        <ele>343.997</ele>
        <time>2015-08-17T19:34:42Z</time>
      </trkpt>
      <trkpt lat="47.8962" lon="5.62836">
        <ele>345.18</ele>
        <time>2015-08-17T19:35:02Z</time>
      </trkpt>
      <trkpt lat="47.89685" lon="5.62731">
        <ele>348.517</ele>
        <time>2015-08-17T19:35:22Z</time>
      </trkpt>
      <trkpt lat="47.89728" lon="5.62589">
        <ele>347.891</ele>
        <time>2015-08-17T19:35:42Z</time>
      </trkpt>
      <trkpt lat="47.89739" lon="5.62527">
        <ele>350.366</ele>
        <time>2015-08-17T19:36:02Z</time>
      </trkpt>
      <trkpt lat="47.89715" lon="5.62411">
        <ele>357.529</ele>
        <time>2015-08-17T19:36:22Z</time>
      </trkpt>
      <trkpt lat="47.89674" lon="5.62329">
        <ele>357.421</ele>
        <time>2015-08-17T19:36:42Z</time>
      </trkpt>
      <trkpt lat="47.89648" lon="5.62198">
        <ele>361.208</ele>
        <time>2015-08-17T19:37:02Z</time>
      </trkpt>
      <trkpt lat="47.89635" lon="5.62077">
        <ele>364.022</ele>
        <time>2015-08-17T19:37:22Z</time>
      </trkpt>
      <trkpt lat="47.89619" lon="5.61997">
        <ele>363.917</ele>
        <time>2015-08-17T19:37:42Z</time>
      </trkpt>
      <trkpt lat="47.89572" lon="5.61945">
        <ele>360.638</ele>
        <time>2015-08-17T19:38:02Z</time>
      </trkpt>
      <trkpt lat="47.89568" lon="5.6189">
        <ele>358.553</ele>
        <time>2015-08-17T19:38:22Z</time>
      </trkpt>
      <trkpt lat="47.89604" lon="5.6174">
        <ele>356.582</ele>
        <time>2015-08-17T19:38:42Z</time>
      </trkpt>
      <trkpt lat="47.89624" lon="5.61679">
        <ele>357.175</ele>
        <time>2015-08-17T19:39:02Z</time>
      </trkpt>
      <trkpt lat="47.89459" lon="5.61586">
        <ele>330.052</ele>
        <time>2015-08-17T19:39:22Z</time>
      </trkpt>
      <trkpt lat="47.89368" lon="5.61552">
        <ele>308.096</ele>
        <time>2015-08-17T19:39:42Z</time>
      </trkpt>
      <trkpt lat="47.8927" lon="5.61471">
        <ele>297.187</ele>
        <time>2015-08-17T19:40:02Z</time>
      </trkpt>
      <trkpt lat="47.89276" lon="5.61455">
        <ele>296.542</ele>
        <time>2015-08-17T19:40:22Z</time>
      </trkpt>
      <trkpt lat="47.89142" lon="5.61343">
        <ele>329.726</ele>
        <time>2015-08-17T19:40:42Z</time>
      </trkpt>
      <trkpt lat="47.89108" lon="5.61304">
        <ele>338.508</ele>
        <time>2015-08-17T19:41:02Z</time>
      </trkpt>
      <trkpt lat="47.89056" lon="5.6117">
        <ele>360.644</ele>
        <time>2015-08-17T19:41:22Z</time>
      </trkpt>
      <trkpt lat="47.89014" lon="5.61088">
        <ele>362.859</ele>
        <time>2015-08-17T19:41:42Z</time>
      </trkpt>
      <trkpt lat="47.88941" lon="5.60882">
        <ele>369.94</ele>
        <time>2015-08-17T19:42:02Z</time>
      </trkpt>
      <trkpt lat="47.8894" lon="5.6086">
        <ele>369.725</ele>
        <time>2015-08-17T19:42:22Z</time>
      </trkpt>
      <trkpt lat="47.88957" lon="5.60832">
        <ele>370.544</ele>
        <time>2015-08-17T19:42:42Z</time>
      </trkpt>
      <trkpt lat="47.89059" lon="5.60754">
        <ele>371.837</ele>
        <time>2015-08-17T19:43:02Z</time>
      </trkpt>
      <trkpt lat="47.88932" lon="5.60453">
        <ele>359.784</ele>
        <time>2015-08-17T19:43:22Z</time>
      </trkpt>
      <trkpt lat="47.88742" lon="5.5997">
        <ele>279.098</ele>
        <time>2015-08-17T19:43:42Z</time>
      </trkpt>
      <trkpt lat="47.88677" lon="5.60027">
        <ele>282.041</ele>
        <time>2015-08-17T19:44:02Z</time>
      </trkpt>
      <trkpt lat="47.88469" lon="5.5952">
        <ele>345.581</ele>
        <time>2015-08-17T19:44:22Z</time>
      </trkpt>
      <trkpt lat="47.88561" lon="5.59367">
        <ele>357.409</ele>
        <time>2015-08-17T19:44:42Z</time>
      </trkpt>
      <trkpt lat="47.88572" lon="5.59322">
        <ele>358.308</ele>
        <time>2015-08-17T19:45:02Z</time>
      </trkpt>
      <trkpt lat="47.88547" lon="5.59322">
        <ele>358.72</ele>
        <time>2015-08-17T19:45:22Z</time>
      </trkpt>
      <trkpt lat="47.8852" lon="5.593">
        <ele>357.645</ele>
        <time>2015-08-17T19:45:42Z</time>
      </trkpt>
      <trkpt lat="47.88476" lon="5.59213">
        <ele>353.186</ele>
        <time>2015-08-17T19:46:02Z</time>
      </trkpt>
      <trkpt lat="47.88439" lon="5.59153">
        <ele>351.481</ele>
        <time>2015-08-17T19:46:22Z</time>
      </trkpt>
      <trkpt lat="47.88407" lon="5.59052">
        <ele>346.06</ele>
        <time>2015-08-17T19:46:42Z</time>
      </trkpt>
      <trkpt lat="47.88371" lon="5.58991">
        <ele>349.873</ele>
        <time>2015-08-17T19:47:02Z</time>
      </trkpt>
      <trkpt lat="47.88369" lon="5.58964">
        <ele>350.82</ele>
        <time>2015-08-17T19:47:22Z</time>
      </trkpt>
      <trkpt lat="47.88492" lon="5.58436">
        <ele>369.274</ele>
        <time>2015-08-17T19:47:42Z</time>
      </trkpt>
      <trkpt lat="47.88283" lon="5.58324">
        <ele>365.557</ele>
        <time>2015-08-17T19:48:02Z</time>
      </trkpt>
      <trkpt lat="47.88278" lon="5.583">
        <ele>363.6</ele>
        <time>2015-08-17T19:48:22Z</time>
      </trkpt>
      <trkpt lat="47.88324" lon="5.58087">
        <ele>366.42</ele>
        <time>2015-08-17T19:48:42Z</time>
      </trkpt>
      <trkpt lat="47.88311" lon="5.58057">
        <ele>366.008</ele>
        <time>2015-08-17T19:49:02Z</time>
      </trkpt>
      <trkpt lat="47.8818" lon="5.57993">
        <ele>349.231</ele>
        <time>2015-08-17T19:49:22Z</time>
      </trkpt>
      <trkpt lat="47.87771" lon="5.58249">
        <ele>344.226</ele>
        <time>2015-08-17T19:49:42Z</time>
      </trkpt>
      <trkpt lat="47.87261" lon="5.57908">
        <ele>351.097</ele>
        <time>2015-08-17T19:50:02Z</time>
      </trkpt>
      <trkpt lat="47.87356" lon="5.57411">
        <ele>292.612</ele>
        <time>2015-08-17T19:50:22Z</time>
      </trkpt>
      <trkpt lat="47.87392" lon="5.57424">
        <ele>293.421</ele>
        <time>2015-08-17T19:50:42Z</time>
      </trkpt>
      <trkpt lat="47.87404" lon="5.57319">
        <ele>283.324</ele>
        <time>2015-08-17T19:51:02Z</time>
      </trkpt>
      <trkpt lat="47.87452" lon="5.57303">
        <ele>275.381</ele>
        <time>2015-08-17T19:51:22Z</time>
      </trkpt>
      <trkpt lat="47.87503" lon="5.57307">
        <ele>273.875</ele>
        <time>2015-08-17T19:51:42Z</time>
      </trkpt>
      <trkpt lat="47.87545" lon="5.57288">
        <ele>269.558</ele>
        <time>2015-08-17T19:52:02Z</time>
      </trkpt>
      <trkpt lat="47.87613" lon="5.57281">
        <ele>269.352</ele>
        <time>2015-08-17T19:52:22Z</time>
      </trkpt>
      <trkpt lat="47.87629" lon="5.57251">
        <ele>266.217</ele>
        <time>2015-08-17T19:52:42Z</time>
      </trkpt>
      <trkpt lat="47.87664" lon="5.57124">
        <ele>260.808</ele>
        <time>2015-08-17T19:53:02Z</time>
      </trkpt>
      <trkpt lat="47.87669" lon="5.56999">
        <ele>273.861</ele>
        <time>2015-08-17T19:53:22Z</time>
      </trkpt>
      <trkpt lat="47.87704" lon="5.56946">
        <ele>273.836</ele>
        <time>2015-08-17T19:53:42Z</time>
      </trkpt>
      <trkpt lat="47.87685" lon="5.56905">
        <ele>280.637</ele>
        <time>2015-08-17T19:54:02Z</time>
      </trkpt>
      <trkpt lat="47.87588" lon="5.56914">
        <ele>284.232</ele>
        <time>2015-08-17T19:54:22Z</time>
      </trkpt>
      <trkpt lat="47.87529" lon="5.56892">
        <ele>284.721</ele>
        <time>2015-08-17T19:54:42Z</time>
      </trkpt>
      <trkpt lat="47.87472" lon="5.56831">
        <ele>288.334</ele>
        <time>2015-08-17T19:55:02Z</time>
      </trkpt>
      <trkpt lat="47.87432" lon="5.56762">
        <ele>290.271</ele>
        <time>2015-08-17T19:55:22Z</time>
      </trkpt>
      <trkpt lat="47.8741" lon="5.56573">
        <ele>298.055</ele>
        <time>2015-08-17T19:55:42Z</time>
      </trkpt>
      <trkpt lat="47.87438" lon="5.5633">
        <ele>311.143</ele>
        <time>2015-08-17T19:56:02Z</time>
      </trkpt>
      <trkpt lat="47.87482" lon="5.56212">
        <ele>319.464</ele>
        <time>2015-08-17T19:56:22Z</time>
      </trkpt>
      <trkpt lat="47.87521" lon="5.56095">
        <ele>325.61</ele>
        <time>2015-08-17T19:56:42Z</time>
      </trkpt>
      <trkpt lat="47.87593" lon="5.56033">
        <ele>330.408</ele>
        <time>2015-08-17T19:57:02Z</time>
      </trkpt>
      <trkpt lat="47.87647" lon="5.55955">
        <ele>332.52</ele>
        <time>2015-08-17T19:57:22Z</time>
      </trkpt>
      <trkpt lat="47.87753" lon="5.55942">
        <ele>346.655</ele>
        <time>2015-08-17T19:57:42Z</time>
      </trkpt>
      <trkpt lat="47.87853" lon="5.55911">
        <ele>349.246</ele>
        <time>2015-08-17T19:58:02Z</time>
      </trkpt>
      <trkpt lat="47.87951" lon="5.55872">
        <ele>354.381</ele>
        <time>2015-08-17T19:58:22Z</time>
      </trkpt>
      <trkpt lat="47.8804" lon="5.5567">
        <ele>358.25</ele>
        <time>2015-08-17T19:58:42Z</time>
      </trkpt>
      <trkpt lat="47.88126" lon="5.55546">
        <ele>355.093</ele>
        <time>2015-08-17T19:59:02Z</time>
      </trkpt>
      <trkpt lat="47.88189" lon="5.55479">
        <ele>358.69</ele>
        <time>2015-08-17T19:59:22Z</time>
      </trkpt>
      <trkpt lat="47.88534" lon="5.55019">
        <ele>356.394</ele>
        <time>2015-08-17T19:59:42Z</time>
      </trkpt>
      <trkpt lat="47.88566" lon="5.54996">
        <ele>357.478</ele>
        <time>2015-08-17T20:00:02Z</time>
      </trkpt>
      <trkpt lat="47.88698" lon="5.54998">
        <ele>355.933</ele>
        <time>2015-08-17T20:00:22Z</time>
      </trkpt>
      <trkpt lat="47.8872" lon="5.54987">
        <ele>355.126</ele>
        <time>2015-08-17T20:00:42Z</time>
      </trkpt>
      <trkpt lat="47.88718" lon="5.54924">
        <ele>354.308</ele>
        <time>2015-08-17T20:01:02Z</time>
      </trkpt>
      <trkpt lat="47.88701" lon="5.54861">
        <ele>354.243</ele>
        <time>2015-08-17T20:01:22Z</time>
      </trkpt>
      <trkpt lat="47.88654" lon="5.5477">
        <ele>351.518</ele>
        <time>2015-08-17T20:01:42Z</time>
      </trkpt>
      <trkpt lat="47.88655" lon="5.54716">
        <ele>352.719</ele>
        <time>2015-08-17T20:02:02Z</time>
      </trkpt>
      <trkpt lat="47.88782" lon="5.54437">
        <ele>357.164</ele>
        <time>2015-08-17T20:02:22Z</time>
      </trkpt>
      <trkpt lat="47.8885" lon="5.54201">
        <ele>358.983</ele>
        <time>2015-08-17T20:02:42Z</time>
      </trkpt>
      <trkpt lat="47.89217" lon="5.53489">
        <ele>349.566</ele>
        <time>2015-08-17T20:03:02Z</time>
      </trkpt>
      <trkpt lat="47.8927" lon="5.5334">
        <ele>348.083</ele>
        <time>2015-08-17T20:03:22Z</time>
      </trkpt>
      <trkpt lat="47.89328" lon="5.53145">
        <ele>347.647</ele>
        <time>2015-08-17T20:03:42Z</time>
      </trkpt>
      <trkpt lat="47.89418" lon="5.52803">
        <ele>343.917</ele>
        <time>2015-08-17T20:04:02Z</time>
      </trkpt>
      <trkpt lat="47.89436" lon="5.52665">
        <ele>341.387</ele>
        <time>2015-08-17T20:04:22Z</time>
      </trkpt>
      <trkpt lat="47.89449" lon="5.52367">
        <ele>338.215</ele>
        <time>2015-08-17T20:04:42Z</time>
      </trkpt>
      <trkpt lat="47.89496" lon="5.52247">
        <ele>331.908</ele>
        <time>2015-08-17T20:05:02Z</time>
      </trkpt>
      <trkpt lat="47.8952" lon="5.5206">
        <ele>332.177</ele>
        <time>2015-08-17T20:05:22Z</time>
      </trkpt>
      <trkpt lat="47.89536" lon="5.51854">
        <ele>337.072</ele>
        <time>2015-08-17T20:05:42Z</time>
      </trkpt>
      <trkpt lat="47.89408" lon="5.51811">
        <ele>335.793</ele>
        <time>2015-08-17T20:06:02Z</time>
      </trkpt>
      <trkpt lat="47.89261" lon="5.51833">
        <ele>334.618</ele>
        <time>2015-08-17T20:06:22Z</time>
      </trkpt>
      <trkpt lat="47.88927" lon="5.51485">
        <ele>331.387</ele>
        <time>2015-08-17T20:06:42Z</time>
      </trkpt>
      <trkpt lat="47.88843" lon="5.51321">
        <ele>320.03</ele>
        <time>2015-08-17T20:07:02Z</time>
      </trkpt>
      <trkpt lat="47.88831" lon="5.5129">
        <ele>316.037</ele>
        <time>2015-08-17T20:07:22Z</time>
      </trkpt>
      <trkpt lat="47.88816" lon="5.51279">
        <ele>312.631</ele>
        <time>2015-08-17T20:07:42Z</time>
      </trkpt>
      <trkpt lat="47.88796" lon="5.51276">
        <ele>309.469</ele>
        <time>2015-08-17T20:08:02Z</time>
      </trkpt>
      <trkpt lat="47.88742" lon="5.51304">
        <ele>305.804</ele>
        <time>2015-08-17T20:08:22Z</time>
      </trkpt>
      <trkpt lat="47.88693" lon="5.51285">
        <ele>305.024</ele>
        <time>2015-08-17T20:08:42Z</time>
      </trkpt>
      <trkpt lat="47.88695" lon="5.51166">
        <ele>322.108</ele>
        <time>2015-08-17T20:09:02Z</time>
      </trkpt>
      <trkpt lat="47.8869" lon="5.51114">
        <ele>326.572</ele>
        <time>2015-08-17T20:09:22Z</time>
      </trkpt>
      <trkpt lat="47.88587" lon="5.50991">
        <ele>327.837</ele>
        <time>2015-08-17T20:09:42Z</time>
      </trkpt>
      <trkpt lat="47.88528" lon="5.51003">
        <ele>329.048</ele>
        <time>2015-08-17T20:10:02Z</time>
      </trkpt>
      <trkpt lat="47.88428" lon="5.50962">
        <ele>326.493</ele>
        <time>2015-08-17T20:10:22Z</time>
      </trkpt>
      <trkpt lat="47.88235" lon="5.50835">
        <ele>324.552</ele>
        <time>2015-08-17T20:10:42Z</time>
      </trkpt>
      <trkpt lat="47.88201" lon="5.50797">
        <ele>322.515</ele>
        <time>2015-08-17T20:11:02Z</time>
      </trkpt>
      <trkpt lat="47.88249" lon="5.50573">
        <ele>322.052</ele>
        <time>2015-08-17T20:11:22Z</time>
      </trkpt>
      <trkpt lat="47.88244" lon="5.50529">
        <ele>322.086</ele>
        <time>2015-08-17T20:11:42Z</time>
      </trkpt>
      <trkpt lat="47.88205" lon="5.50492">
        <ele>322.017</ele>
        <time>2015-08-17T20:12:02Z</time>
      </trkpt>
      <trkpt lat="47.88126" lon="5.50478">
        <ele>323.087</ele>
        <time>2015-08-17T20:12:22Z</time>
      </trkpt>
      <trkpt lat="47.88065" lon="5.5042">
        <ele>322.415</ele>
        <time>2015-08-17T20:12:42Z</time>
      </trkpt>
      <trkpt lat="47.88028" lon="5.50308">
        <ele>325.908</ele>
        <time>2015-08-17T20:13:02Z</time>
      </trkpt>
      <trkpt lat="47.87983" lon="5.50225">
        <ele>327.357</ele>
        <time>2015-08-17T20:13:22Z</time>
      </trkpt>
      <trkpt lat="47.87798" lon="5.50045">
        <ele>324.152</ele>
        <time>2015-08-17T20:13:42Z</time>
      </trkpt>
      <trkpt lat="47.87752" lon="5.49972">
        <ele>321.333</ele>
        <time>2015-08-17T20:14:02Z</time>
      </trkpt>
      <trkpt lat="47.87703" lon="5.4982">
        <ele>321.838</ele>
        <time>2015-08-17T20:14:22Z</time>
      </trkpt>
      <trkpt lat="47.87592" lon="5.49667">
        <ele>315.637</ele>
        <time>2015-08-17T20:14:42Z</time>
      </trkpt>
      <trkpt lat="47.87582" lon="5.49541">
        <ele>315.01</ele>
        <time>2015-08-17T20:15:02Z</time>
      </trkpt>
      <trkpt lat="47.87533" lon="5.49487">
        <ele>317.157</ele>
        <time>2015-08-17T20:15:22Z</time>
      </trkpt>
      <trkpt lat="47.87521" lon="5.49459">
        <ele>318.631</ele>
        <time>2015-08-17T20:15:42Z</time>
      </trkpt>
      <trkpt lat="47.87415" lon="5.49344">
        <ele>318.476</ele>
        <time>2015-08-17T20:16:02Z</time>
      </trkpt>
      <trkpt lat="47.8711" lon="5.48968">
        <ele>342.09</ele>
        <time>2015-08-17T20:16:22Z</time>
      </trkpt>
      <trkpt lat="47.8707" lon="5.48883">
        <ele>342.819</ele>
        <time>2015-08-17T20:16:42Z</time>
      </trkpt>
      <trkpt lat="47.87074" lon="5.48816">
        <ele>346.008</ele>
        <time>2015-08-17T20:17:02Z</time>
      </trkpt>
      <trkpt lat="47.87063" lon="5.48764">
        <ele>348.683</ele>
        <time>2015-08-17T20:17:22Z</time>
      </trkpt>
      <trkpt lat="47.8703" lon="5.48624">
        <ele>356.278</ele>
        <time>2015-08-17T20:17:42Z</time>
      </trkpt>
      <trkpt lat="47.8703" lon="5.48597">
        <ele>358.119</ele>
        <time>2015-08-17T20:18:02Z</time>
      </trkpt>
      <trkpt lat="47.87068" lon="5.48485">
        <ele>367.834</ele>
        <time>2015-08-17T20:18:22Z</time>
      </trkpt>
      <trkpt lat="47.87111" lon="5.48393">
        <ele>375.073</ele>
        <time>2015-08-17T20:18:42Z</time>
      </trkpt>
      <trkpt lat="47.87144" lon="5.48226">
        <ele>405.146</ele>
        <time>2015-08-17T20:19:02Z</time>
      </trkpt>
      <trkpt lat="47.87183" lon="5.48079">
        <ele>414.353</ele>
        <time>2015-08-17T20:19:22Z</time>
      </trkpt>
      <trkpt lat="47.87213" lon="5.47971">
        <ele>416.037</ele>
        <time>2015-08-17T20:19:42Z</time>
      </trkpt>
      <trkpt lat="47.87224" lon="5.47931">
        <ele>416.068</ele>
        <time>2015-08-17T20:20:02Z</time>
      </trkpt>
      <trkpt lat="47.87263" lon="5.47824">
        <ele>414.642</ele>
        <time>2015-08-17T20:20:22Z</time>
      </trkpt>
      <trkpt lat="47.87291" lon="5.47712">
        <ele>415.526</ele>
        <time>2015-08-17T20:20:42Z</time>
      </trkpt>
      <trkpt lat="47.87373" lon="5.47563">
        <ele>421.308</ele>
        <time>2015-08-17T20:21:02Z</time>
      </trkpt>
      <trkpt lat="47.87426" lon="5.47448">
        <ele>424.052</ele>
        <time>2015-08-17T20:21:22Z</time>
      </trkpt>
      <trkpt lat="47.8749" lon="5.47335">
        <ele>424.017</ele>
        <time>2015-08-17T20:21:42Z</time>
      </trkpt>
      <trkpt lat="47.87548" lon="5.47191">
        <ele>420.948</ele>
        <time>2015-08-17T20:22:02Z</time>
      </trkpt>
      <trkpt lat="47.87569" lon="5.47172">
        <ele>420.253</ele>
        <time>2015-08-17T20:22:22Z</time>
      </trkpt>
      <trkpt lat="47.87628" lon="5.47138">
        <ele>422.212</ele>
        <time>2015-08-17T20:22:42Z</time>
      </trkpt>
      <trkpt lat="47.87646" lon="5.47087">
        <ele>423.285</ele>
        <time>2015-08-17T20:23:02Z</time>
      </trkpt>
      <trkpt lat="47.87649" lon="5.4703">
        <ele>422.792</ele>
        <time>2015-08-17T20:23:22Z</time>
      </trkpt>
      <trkpt lat="47.8764" lon="5.46862">
        <ele>425.016</ele>
        <time>2015-08-17T20:23:42Z</time>
      </trkpt>
      <trkpt lat="47.87648" lon="5.46807">
        <ele>425.022</ele>
        <time>2015-08-17T20:24:02Z</time>
      </trkpt>
      <trkpt lat="47.87693" lon="5.46668">
        <ele>424.062</ele>
        <time>2015-08-17T20:24:22Z</time>
      </trkpt>
      <trkpt lat="47.87698" lon="5.46565">
        <ele>421.108</ele>
        <time>2015-08-17T20:24:42Z</time>
      </trkpt>
      <trkpt lat="47.87671" lon="5.46409">
        <ele>419.608</ele>
        <time>2015-08-17T20:25:02Z</time>
      </trkpt>
      <trkpt lat="47.87675" lon="5.463">
        <ele>416.428</ele>
        <time>2015-08-17T20:25:22Z</time>
      </trkpt>
      <trkpt lat="47.87696" lon="5.46184">
        <ele>413.243</ele>
        <time>2015-08-17T20:25:42Z</time>
      </trkpt>
      <trkpt lat="47.87762" lon="5.46048">
        <ele>407.044</ele>
        <time>2015-08-17T20:26:02Z</time>
      </trkpt>
      <trkpt lat="47.87816" lon="5.45889">
        <ele>403.129</ele>
        <time>2015-08-17T20:26:22Z</time>
      </trkpt>
      <trkpt lat="47.87735" lon="5.46005">
        <ele>413.948</ele>
        <time>2015-08-17T20:26:42Z</time>
      </trkpt>
      <trkpt lat="47.87647" lon="5.45986">
        <ele>419.221</ele>
        <time>2015-08-17T20:27:02Z</time>
      </trkpt>
      <trkpt lat="47.87555" lon="5.46013">
        <ele>420.068</ele>
        <time>2015-08-17T20:27:22Z</time>
      </trkpt>
      <trkpt lat="47.8743" lon="5.46079">
        <ele>423.862</ele>
        <time>2015-08-17T20:27:42Z</time>
      </trkpt>
      <trkpt lat="47.87304" lon="5.46136">
        <ele>429.728</ele>
        <time>2015-08-17T20:28:02Z</time>
      </trkpt>
      <trkpt lat="47.87261" lon="5.4618">
        <ele>429.389</ele>
        <time>2015-08-17T20:28:22Z</time>
      </trkpt>
      <trkpt lat="47.87217" lon="5.46207">
        <ele>433.017</ele>
        <time>2015-08-17T20:28:42Z</time>
      </trkpt>
      <trkpt lat="47.87052" lon="5.4623">
        <ele>435.608</ele>
        <time>2015-08-17T20:29:02Z</time>
      </trkpt>
      <trkpt lat="47.87044" lon="5.4596">
        <ele>429.788</ele>
        <time>2015-08-17T20:29:22Z</time>
      </trkpt>
      <trkpt lat="47.87033" lon="5.45744">
        <ele>435.043</ele>
        <time>2015-08-17T20:29:42Z</time>
      </trkpt>
      <trkpt lat="47.86974" lon="5.45782">
        <ele>430.024</ele>
        <time>2015-08-17T20:30:02Z</time>
      </trkpt>
      <trkpt lat="47.86932" lon="5.45802">
        <ele>427.379</ele>
        <time>2015-08-17T20:30:22Z</time>
      </trkpt>
      <trkpt lat="47.86894" lon="5.45562">
        <ele>432.098</ele>
        <time>2015-08-17T20:30:42Z</time>
      </trkpt>
      <trkpt lat="47.86846" lon="5.45539">
        <ele>428.791</ele>
        <time>2015-08-17T20:31:02Z</time>
      </trkpt>
      <trkpt lat="47.8682" lon="5.45537">
        <ele>426.248</ele>
        <time>2015-08-17T20:31:22Z</time>
      </trkpt>
      <trkpt lat="47.86794" lon="5.45528">
        <ele>423.762</ele>
        <time>2015-08-17T20:31:42Z</time>
      </trkpt>
      <trkpt lat="47.86736" lon="5.4547">
        <ele>415.489</ele>
        <time>2015-08-17T20:32:02Z</time>
      </trkpt>
      <trkpt lat="47.86718" lon="5.45382">
        <ele>410.906</ele>
        <time>2015-08-17T20:32:22Z</time>
      </trkpt>
      <trkpt lat="47.86752" lon="5.45326">
        <ele>411.826</ele>
        <time>2015-08-17T20:32:42Z</time>
      </trkpt>
      <trkpt lat="47.86843" lon="5.45265">
        <ele>413.208</ele>
        <time>2015-08-17T20:33:02Z</time>
      </trkpt>
      <trkpt lat="47.86914" lon="5.45282">
        <ele>413.094</ele>
        <time>2015-08-17T20:33:22Z</time>
      </trkpt>
      <trkpt lat="47.86995" lon="5.45197">
        <ele>409.189</ele>
        <time>2015-08-17T20:33:42Z</time>
      </trkpt>
      <trkpt lat="47.87003" lon="5.45155">
        <ele>409.66</ele>
        <time>2015-08-17T20:34:02Z</time>
      </trkpt>
      <trkpt lat="47.86977" lon="5.45069">
        <ele>409.525</ele>
        <time>2015-08-17T20:34:22Z</time>
      </trkpt>
      <trkpt lat="47.86935" lon="5.44983">
        <ele>409.394</ele>
        <time>2015-08-17T20:34:42Z</time>
      </trkpt>
      <trkpt lat="47.86925" lon="5.4492">
        <ele>408.667</ele>
        <time>2015-08-17T20:35:02Z</time>
      </trkpt>
      <trkpt lat="47.86932" lon="5.44845">
        <ele>408.524</ele>
        <time>2015-08-17T20:35:22Z</time>
      </trkpt>
      <trkpt lat="47.86944" lon="5.44795">
        <ele>407.698</ele>
        <time>2015-08-17T20:35:42Z</time>
      </trkpt>
      <trkpt lat="47.86922" lon="5.44734">
        <ele>405.718</ele>
        <time>2015-08-17T20:36:02Z</time>
      </trkpt>
      <trkpt lat="47.86874" lon="5.44712">
        <ele>410.098</ele>
        <time>2015-08-17T20:36:22Z</time>
      </trkpt>
      <trkpt lat="47.86687" lon="5.44768">
        <ele>409.717</ele>
        <time>2015-08-17T20:36:42Z</time>
      </trkpt>
      <trkpt lat="47.86653" lon="5.44784">
        <ele>409.608</ele>
        <time>2015-08-17T20:37:02Z</time>
      </trkpt>
      <trkpt lat="47.86578" lon="5.44801">
        <ele>410.087</ele>
        <time>2015-08-17T20:37:22Z</time>
      </trkpt>
      <trkpt lat="47.8649" lon="5.44802">
        <ele>405.892</ele>
        <time>2015-08-17T20:37:42Z</time>
      </trkpt>
      <trkpt lat="47.86446" lon="5.44773">
        <ele>405.163</ele>
        <time>2015-08-17T20:38:02Z</time>
      </trkpt>
      <trkpt lat="47.86331" lon="5.44642">
        <ele>394.838</ele>
        <time>2015-08-17T20:38:22Z</time>
      </trkpt>
      <trkpt lat="47.86263" lon="5.44591">
        <ele>382.757</ele>
        <time>2015-08-17T20:38:42Z</time>
      </trkpt>
      <trkpt lat="47.86161" lon="5.44526">
        <ele>370.26</ele>
        <time>2015-08-17T20:39:02Z</time>
      </trkpt>
      <trkpt lat="47.86164" lon="5.4444">
        <ele>366.777</ele>
        <time>2015-08-17T20:39:22Z</time>
      </trkpt>
      <trkpt lat="47.86225" lon="5.44289">
        <ele>363.931</ele>
        <time>2015-08-17T20:39:42Z</time>
      </trkpt>
      <trkpt lat="47.86291" lon="5.44145">
        <ele>367.528</ele>
        <time>2015-08-17T20:40:02Z</time>
      </trkpt>
      <trkpt lat="47.86271" lon="5.43987">
        <ele>373.189</ele>
        <time>2015-08-17T20:40:22Z</time>
      </trkpt>
      <trkpt lat="47.86206" lon="5.43933">
        <ele>368.117</ele>
        <time>2015-08-17T20:40:42Z</time>
      </trkpt>
      <trkpt lat="47.86133" lon="5.43879">
        <ele>362.608</ele>
        <time>2015-08-17T20:41:02Z</time>
      </trkpt>
      <trkpt lat="47.86106" lon="5.4381">
        <ele>359.528</ele>
        <time>2015-08-17T20:41:22Z</time>
      </trkpt>
      <trkpt lat="47.86087" lon="5.43392">
        <ele>349.273</ele>
        <time>2015-08-17T20:41:42Z</time>
      </trkpt>
      <trkpt lat="47.8603" lon="5.4302">
        <ele>351.364</ele>
        <time>2015-08-17T20:42:02Z</time>
      </trkpt>
      <trkpt lat="47.86053" lon="5.4297">
        <ele>351.219</ele>
        <time>2015-08-17T20:42:22Z</time>
      </trkpt>
      <trkpt lat="47.86074" lon="5.42847">
        <ele>353.778</ele>
        <time>2015-08-17T20:42:42Z</time>
      </trkpt>
      <trkpt lat="47.86093" lon="5.42792">
        <ele>352.311</ele>
        <time>2015-08-17T20:43:02Z</time>
      </trkpt>
      <trkpt lat="47.86164" lon="5.4267">
        <ele>350.238</ele>
        <time>2015-08-17T20:43:22Z</time>
      </trkpt>
      <trkpt lat="47.86219" lon="5.42515">
        <ele>348.922</ele>
        <time>2015-08-17T20:43:42Z</time>
      </trkpt>
      <trkpt lat="47.86264" lon="5.42448">
        <ele>352.556</ele>
        <time>2015-08-17T20:44:02Z</time>
      </trkpt>
      <trkpt lat="47.86339" lon="5.42393">
        <ele>349.359</ele>
        <time>2015-08-17T20:44:22Z</time>
      </trkpt>
      <trkpt lat="47.86416" lon="5.42255">
        <ele>348.814</ele>
        <time>2015-08-17T20:44:42Z</time>
      </trkpt>
      <trkpt lat="47.86454" lon="5.42199">
        <ele>350.508</ele>
        <time>2015-08-17T20:45:02Z</time>
      </trkpt>
      <trkpt lat="47.86477" lon="5.42103">
        <ele>351.011</ele>
        <time>2015-08-17T20:45:22Z</time>
      </trkpt>
      <trkpt lat="47.86514" lon="5.42071">
        <ele>350.846</ele>
        <time>2015-08-17T20:45:42Z</time>
      </trkpt>
      <trkpt lat="47.86541" lon="5.42022">
        <ele>351.067</ele>
        <time>2015-08-17T20:46:02Z</time>
      </trkpt>
      <trkpt lat="47.86553" lon="5.41962">
        <ele>351.332</ele>
        <time>2015-08-17T20:46:22Z</time>
      </trkpt>
      <trkpt lat="47.86587" lon="5.41827">
        <ele>352.781</ele>
        <time>2015-08-17T20:46:42Z</time>
      </trkpt>
      <trkpt lat="47.86622" lon="5.41734">
        <ele>355.344</ele>
        <time>2015-08-17T20:47:02Z</time>
      </trkpt>
      <trkpt lat="47.86657" lon="5.41661">
        <ele>354.671</ele>
        <time>2015-08-17T20:47:22Z</time>
      </trkpt>
      <trkpt lat="47.86737" lon="5.41568">
        <ele>352.235</ele>
        <time>2015-08-17T20:47:42Z</time>
      </trkpt>
      <trkpt lat="47.86807" lon="5.41532">
        <ele>358.695</ele>
        <time>2015-08-17T20:48:02Z</time>
      </trkpt>
      <trkpt lat="47.8689" lon="5.4147">
        <ele>355.849</ele>
        <time>2015-08-17T20:48:22Z</time>
      </trkpt>
      <trkpt lat="47.86975" lon="5.41422">
        <ele>351.323</ele>
        <time>2015-08-17T20:48:42Z</time>
      </trkpt>
      <trkpt lat="47.87109" lon="5.41386">
        <ele>350.608</ele>
        <time>2015-08-17T20:49:02Z</time>
      </trkpt>
      <trkpt lat="47.87205" lon="5.41383">
        <ele>356.635</ele>
        <time>2015-08-17T20:49:22Z</time>
      </trkpt>
      <trkpt lat="47.87292" lon="5.41402">
        <ele>357.64</ele>
        <time>2015-08-17T20:49:42Z</time>
      </trkpt>
      <trkpt lat="47.87386" lon="5.41469">
        <ele>355.041</ele>
        <time>2015-08-17T20:50:02Z</time>
      </trkpt>
      <trkpt lat="47.87422" lon="5.41441">
        <ele>352.796</ele>
        <time>2015-08-17T20:50:22Z</time>
      </trkpt>
      <trkpt lat="47.8757" lon="5.41478">
        <ele>351.195</ele>
        <time>2015-08-17T20:50:42Z</time>
      </trkpt>
      <trkpt lat="47.87634" lon="5.41511">
        <ele>352.098</ele>
        <time>2015-08-17T20:51:02Z</time>
      </trkpt>
      <trkpt lat="47.87726" lon="5.416">
        <ele>348.575</ele>
        <time>2015-08-17T20:51:22Z</time>
      </trkpt>
      <trkpt lat="47.8782" lon="5.41719">
        <ele>354.269</ele>
        <time>2015-08-17T20:51:42Z</time>
      </trkpt>
      <trkpt lat="47.8789" lon="5.41864">
        <ele>354.117</ele>
        <time>2015-08-17T20:52:02Z</time>
      </trkpt>
      <trkpt lat="47.87966" lon="5.41958">
        <ele>357.787</ele>
        <time>2015-08-17T20:52:22Z</time>
      </trkpt>
      <trkpt lat="47.87987" lon="5.42018">
        <ele>355.015</ele>
        <time>2015-08-17T20:52:42Z</time>
      </trkpt>
      <trkpt lat="47.88009" lon="5.42022">
        <ele>352.508</ele>
        <time>2015-08-17T20:53:02Z</time>
      </trkpt>
      <trkpt lat="47.88046" lon="5.41941">
        <ele>352.167</ele>
        <time>2015-08-17T20:53:22Z</time>
      </trkpt>
      <trkpt lat="47.88082" lon="5.41939">
        <ele>350.182</ele>
        <time>2015-08-17T20:53:42Z</time>
      </trkpt>
      <trkpt lat="47.88118" lon="5.41865">
        <ele>351.683</ele>
        <time>2015-08-17T20:54:02Z</time>
      </trkpt>
      <trkpt lat="47.88148" lon="5.41843">
        <ele>350.758</ele>
        <time>2015-08-17T20:54:22Z</time>
      </trkpt>
      <trkpt lat="47.88158" lon="5.41752">
        <ele>349.627</ele>
        <time>2015-08-17T20:54:42Z</time>
      </trkpt>
      <trkpt lat="47.88134" lon="5.41716">
        <ele>351.11</ele>
        <time>2015-08-17T20:55:02Z</time>
      </trkpt>
      <trkpt lat="47.88096" lon="5.41694">
        <ele>354.297</ele>
        <time>2015-08-17T20:55:22Z</time>
      </trkpt>
      <trkpt lat="47.88053" lon="5.41701">
        <ele>360.421</ele>
        <time>2015-08-17T20:55:42Z</time>
      </trkpt>
      <trkpt lat="47.88015" lon="5.41742">
        <ele>356.287</ele>
        <time>2015-08-17T20:56:02Z</time>
      </trkpt>
      <trkpt lat="47.87982" lon="5.41737">
        <ele>357.342</ele>
        <time>2015-08-17T20:56:22Z</time>
      </trkpt>
      <trkpt lat="47.87956" lon="5.41714">
        <ele>359.026</ele>
        <time>2015-08-17T20:56:42Z</time>
      </trkpt>
      <trkpt lat="47.87923" lon="5.41661">
        <ele>355.108</ele>
        <time>2015-08-17T20:57:02Z</time>
      </trkpt>
      <trkpt lat="47.87898" lon="5.41596">
        <ele>352.164</ele>
        <time>2015-08-17T20:57:22Z</time>
      </trkpt>
      <trkpt lat="47.87886" lon="5.41589">
        <ele>350.919</ele>
        <time>2015-08-17T20:57:42Z</time>
      </trkpt>
      <trkpt lat="47.87856" lon="5.41522">
        <ele>350.08</ele>
        <time>2015-08-17T20:58:02Z</time>
      </trkpt>
      <trkpt lat="47.87847" lon="5.4146">
        <ele>350.585</ele>
        <time>2015-08-17T20:58:22Z</time>
      </trkpt>
      <trkpt lat="47.87827" lon="5.4144">
        <ele>350.424</ele>
        <time>2015-08-17T20:58:42Z</time>
      </trkpt>
      <trkpt lat="47.87795" lon="5.41464">
        <ele>349.797</ele>
        <time>2015-08-17T20:59:02Z</time>
      </trkpt>
      <trkpt lat="47.87768" lon="5.41425">
        <ele>349.444</ele>
        <time>2015-08-17T20:59:22Z</time>
      </trkpt>
      <trkpt lat="47.87735" lon="5.41394">
        <ele>350.068</ele>
        <time>2015-08-17T20:59:42Z</time>
      </trkpt>
      <trkpt lat="47.8764" lon="5.41265">
        <ele>349.589</ele>
        <time>2015-08-17T21:00:02Z</time>
      </trkpt>
      <trkpt lat="47.87644" lon="5.41233">
        <ele>349.906</ele>
        <time>2015-08-17T21:00:22Z</time>
      </trkpt>
      <trkpt lat="47.87719" lon="5.41163">
        <ele>349.426</ele>
        <time>2015-08-17T21:00:42Z</time>
      </trkpt>
      <trkpt lat="47.87663" lon="5.40819">
        <ele>363.008</ele>
        <time>2015-08-17T21:01:02Z</time>
      </trkpt>
      <trkpt lat="47.87583" lon="5.4084">
        <ele>361.294</ele>
        <time>2015-08-17T21:01:22Z</time>
      </trkpt>
      <trkpt lat="47.87525" lon="5.40841">
        <ele>357.249</ele>
        <time>2015-08-17T21:01:42Z</time>
      </trkpt>
      <trkpt lat="47.87429" lon="5.40875">
        <ele>356.51</ele>
        <time>2015-08-17T21:02:02Z</time>
      </trkpt>
      <trkpt lat="47.87378" lon="5.4095">
        <ele>352.695</ele>
        <time>2015-08-17T21:02:22Z</time>
      </trkpt>
      <trkpt lat="47.87343" lon="5.41014">
        <ele>357.034</ele>
        <time>2015-08-17T21:02:42Z</time>
      </trkpt>
      <trkpt lat="47.87311" lon="5.41091">
        <ele>352.617</ele>
        <time>2015-08-17T21:03:02Z</time>
      </trkpt>
      <trkpt lat="47.87255" lon="5.41085">
        <ele>358.734</ele>
        <time>2015-08-17T21:03:22Z</time>
      </trkpt>
      <trkpt lat="47.87217" lon="5.41069">
        <ele>359.998</ele>
        <time>2015-08-17T21:03:42Z</time>
      </trkpt>
      <trkpt lat="47.87129" lon="5.4106">
        <ele>354.557</ele>
        <time>2015-08-17T21:04:02Z</time>
      </trkpt>
      <trkpt lat="47.87058" lon="5.41086">
        <ele>352.6</ele>
        <time>2015-08-17T21:04:22Z</time>
      </trkpt>
      <trkpt lat="47.8702" lon="5.4105">
        <ele>355.42</ele>
        <time>2015-08-17T21:04:42Z</time>
      </trkpt>
      <trkpt lat="47.87016" lon="5.41017">
        <ele>355.608</ele>
        <time>2015-08-17T21:05:02Z</time>
      </trkpt>
      <trkpt lat="47.87062" lon="5.40987">
        <ele>353.271</ele>
        <time>2015-08-17T21:05:22Z</time>
      </trkpt>
      <trkpt lat="47.87197" lon="5.40924">
        <ele>353.346</ele>
        <time>2015-08-17T21:05:42Z</time>
      </trkpt>
      <trkpt lat="47.8722" lon="5.40895">
        <ele>351.567</ele>
        <time>2015-08-17T21:06:02Z</time>
      </trkpt>
      <trkpt lat="47.8724" lon="5.40901">
        <ele>352.912</ele>
        <time>2015-08-17T21:06:22Z</time>
      </trkpt>
      <trkpt lat="47.87296" lon="5.40892">
        <ele>354.021</ele>
        <time>2015-08-17T21:06:42Z</time>
      </trkpt>
      <trkpt lat="47.87323" lon="5.40867">
        <ele>351.524</ele>
        <time>2015-08-17T21:07:02Z</time>
      </trkpt>
      <trkpt lat="47.87346" lon="5.40819">
        <ele>350.771</ele>
        <time>2015-08-17T21:07:22Z</time>
      </trkpt>
      <trkpt lat="47.87348" lon="5.40778">
        <ele>350.015</ele>
        <time>2015-08-17T21:07:42Z</time>
      </trkpt>
      <trkpt lat="47.87333" lon="5.40745">
        <ele>350.064</ele>
        <time>2015-08-17T21:08:02Z</time>
      </trkpt>
      <trkpt lat="47.87278" lon="5.40687">
        <ele>350.706</ele>
        <time>2015-08-17T21:08:22Z</time>
      </trkpt>
      <trkpt lat="47.8724" lon="5.40618">
        <ele>350.316</ele>
        <time>2015-08-17T21:08:42Z</time>
      </trkpt>
      <trkpt lat="47.87207" lon="5.40525">
        <ele>351.008</ele>
        <time>2015-08-17T21:09:02Z</time>
      </trkpt>
      <trkpt lat="47.8719" lon="5.40381">
        <ele>350.072</ele>
        <time>2015-08-17T21:09:22Z</time>
      </trkpt>
      <trkpt lat="47.87178" lon="5.40355">
        <ele>348.647</ele>
        <time>2015-08-17T21:09:42Z</time>
      </trkpt>
      <trkpt lat="47.87164" lon="5.4026">
        <ele>348.268</ele>
        <time>2015-08-17T21:10:02Z</time>
      </trkpt>
      <trkpt lat="47.87161" lon="5.40128">
        <ele>349.143</ele>
        <time>2015-08-17T21:10:22Z</time>
      </trkpt>
      <trkpt lat="47.8717" lon="5.40069">
        <ele>348.772</ele>
        <time>2015-08-17T21:10:42Z</time>
      </trkpt>
      <trkpt lat="47.87169" lon="5.40024">
        <ele>351.065</ele>
        <time>2015-08-17T21:11:02Z</time>
      </trkpt>
      <trkpt lat="47.87177" lon="5.4">
        <ele>351.442</ele>
        <time>2015-08-17T21:11:22Z</time>
      </trkpt>
      <trkpt lat="47.8718" lon="5.39929">
        <ele>349.316</ele>
        <time>2015-08-17T21:11:42Z</time>
      </trkpt>
      <trkpt lat="47.87162" lon="5.39876">
        <ele>350.235</ele>
        <time>2015-08-17T21:12:02Z</time>
      </trkpt>
      <trkpt lat="47.87148" lon="5.39709">
        <ele>350.386</ele>
        <time>2015-08-17T21:12:22Z</time>
      </trkpt>
      <trkpt lat="47.87147" lon="5.39625">
        <ele>348.814</ele>
        <time>2015-08-17T21:12:42Z</time>
      </trkpt>
      <trkpt lat="47.87142" lon="5.39526">
        <ele>350.108</ele>
        <time>2015-08-17T21:13:02Z</time>
      </trkpt>
      <trkpt lat="47.87156" lon="5.39439">
        <ele>348.689</ele>
        <time>2015-08-17T21:13:22Z</time>
      </trkpt>
      <trkpt lat="47.87169" lon="5.39412">
        <ele>348.264</ele>
        <time>2015-08-17T21:13:42Z</time>
      </trkpt>
      <trkpt lat="47.87185" lon="5.39365">
        <ele>348.965</ele>
        <time>2015-08-17T21:14:02Z</time>
      </trkpt>
      <trkpt lat="47.87222" lon="5.39291">
        <ele>350.09</ele>
        <time>2015-08-17T21:14:22Z</time>
      </trkpt>
      <trkpt lat="47.87262" lon="5.39242">
        <ele>350.369</ele>
        <time>2015-08-17T21:14:42Z</time>
      </trkpt>
      <trkpt lat="47.87302" lon="5.39091">
        <ele>349.872</ele>
        <time>2015-08-17T21:15:02Z</time>
      </trkpt>
      <trkpt lat="47.87339" lon="5.39015">
        <ele>348.559</ele>
        <time>2015-08-17T21:15:22Z</time>
      </trkpt>
      <trkpt lat="47.87342" lon="5.3894">
        <ele>348.563</ele>
        <time>2015-08-17T21:15:42Z</time>
      </trkpt>
      <trkpt lat="47.87433" lon="5.38747">
        <ele>350.463</ele>
        <time>2015-08-17T21:16:02Z</time>
      </trkpt>
      <trkpt lat="47.8745" lon="5.38721">
        <ele>350.044</ele>
        <time>2015-08-17T21:16:22Z</time>
      </trkpt>
      <trkpt lat="47.87465" lon="5.38657">
        <ele>349.418</ele>
        <time>2015-08-17T21:16:42Z</time>
      </trkpt>
      <trkpt lat="47.87465" lon="5.38629">
        <ele>350.708</ele>
        <time>2015-08-17T21:17:02Z</time>
      </trkpt>
      <trkpt lat="47.87458" lon="5.38602">
        <ele>352.862</ele>
        <time>2015-08-17T21:17:22Z</time>
      </trkpt>
      <trkpt lat="47.87445" lon="5.38596">
        <ele>352.697</ele>
        <time>2015-08-17T21:17:42Z</time>
      </trkpt>
      <trkpt lat="47.87396" lon="5.3862">
        <ele>348.718</ele>
        <time>2015-08-17T21:18:02Z</time>
      </trkpt>
      <trkpt lat="47.87356" lon="5.38585">
        <ele>347.263</ele>
        <time>2015-08-17T21:18:22Z</time>
      </trkpt>
      <trkpt lat="47.87331" lon="5.38579">
        <ele>348.312</ele>
        <time>2015-08-17T21:18:42Z</time>
      </trkpt>
      <trkpt lat="47.87285" lon="5.3858">
        <ele>350.945</ele>
        <time>2015-08-17T21:19:02Z</time>
      </trkpt>
      <trkpt lat="47.87246" lon="5.38571">
        <ele>352.562</ele>
        <time>2015-08-17T21:19:22Z</time>
      </trkpt>
      <trkpt lat="47.87234" lon="5.38578">
        <ele>352.576</ele>
        <time>2015-08-17T21:19:42Z</time>
      </trkpt>
      <trkpt lat="47.87183" lon="5.38513">
        <ele>354.034</ele>
        <time>2015-08-17T21:20:02Z</time>
      </trkpt>
      <trkpt lat="47.8716" lon="5.38454">
        <ele>348.255</ele>
        <time>2015-08-17T21:20:22Z</time>
      </trkpt>
      <trkpt lat="47.87115" lon="5.38264">
        <ele>347.21</ele>
        <time>2015-08-17T21:20:42Z</time>
      </trkpt>
      <trkpt lat="47.87051" lon="5.38163">
        <ele>349.808</ele>
        <time>2015-08-17T21:21:02Z</time>
      </trkpt>
      <trkpt lat="47.86967" lon="5.37952">
        <ele>348.219</ele>
        <time>2015-08-17T21:21:22Z</time>
      </trkpt>
      <trkpt lat="47.86949" lon="5.37873">
        <ele>350.314</ele>
        <time>2015-08-17T21:21:42Z</time>
      </trkpt>
      <trkpt lat="47.86949" lon="5.37841">
        <ele>350.985</ele>
        <time>2015-08-17T21:22:02Z</time>
      </trkpt>
      <trkpt lat="47.86903" lon="5.37655">
        <ele>349.58</ele>
        <time>2015-08-17T21:22:22Z</time>
      </trkpt>
      <trkpt lat="47.86908" lon="5.37592">
        <ele>350.169</ele>
        <time>2015-08-17T21:22:42Z</time>
      </trkpt>
      <trkpt lat="47.8693" lon="5.37494">
        <ele>349.512</ele>
        <time>2015-08-17T21:23:02Z</time>
      </trkpt>
      <trkpt lat="47.86932" lon="5.3745">
        <ele>350.059</ele>
        <time>2015-08-17T21:23:22Z</time>
      </trkpt>
      <trkpt lat="47.86848" lon="5.37247">
        <ele>350.663</ele>
        <time>2015-08-17T21:23:42Z</time>
      </trkpt>
      <trkpt lat="47.86854" lon="5.37222">
        <ele>352.056</ele>
        <time>2015-08-17T21:24:02Z</time>
      </trkpt>
      <trkpt lat="47.86842" lon="5.37212">
        <ele>350.959</ele>
        <time>2015-08-17T21:24:22Z</time>
      </trkpt>
      <trkpt lat="47.86767" lon="5.37113">
        <ele>339.814</ele>
        <time>2015-08-17T21:24:42Z</time>
      </trkpt>
      <trkpt lat="47.86738" lon="5.37105">
        <ele>336.808</ele>
        <time>2015-08-17T21:25:02Z</time>
      </trkpt>
      <trkpt lat="47.86728" lon="5.37086">
        <ele>334.821</ele>
        <time>2015-08-17T21:25:22Z</time>
      </trkpt>
      <trkpt lat="47.86729" lon="5.3705">
        <ele>333.376</ele>
        <time>2015-08-17T21:25:42Z</time>
      </trkpt>
      <trkpt lat="47.86737" lon="5.37006">
        <ele>332.757</ele>
        <time>2015-08-17T21:26:02Z</time>
      </trkpt>
      <trkpt lat="47.8681" lon="5.3678">
        <ele>334.862</ele>
        <time>2015-08-17T21:26:22Z</time>
      </trkpt>
      <trkpt lat="47.86752" lon="5.36714">
        <ele>335.061</ele>
        <time>2015-08-17T21:26:42Z</time>
      </trkpt>
      <trkpt lat="47.86747" lon="5.36697">
        <ele>335.024</ele>
        <time>2015-08-17T21:27:02Z</time>
      </trkpt>
      <trkpt lat="47.86752" lon="5.36653">
        <ele>334.961</ele>
        <time>2015-08-17T21:27:22Z</time>
      </trkpt>
      <trkpt lat="47.86747" lon="5.36637">
        <ele>335.045</ele>
        <time>2015-08-17T21:27:42Z</time>
      </trkpt>
      <trkpt lat="47.86818" lon="5.36538">
        <ele>333.485</ele>
        <time>2015-08-17T21:28:02Z</time>
      </trkpt>
      <trkpt lat="47.8699" lon="5.36285">
        <ele>332.989</ele>
        <time>2015-08-17T21:28:22Z</time>
      </trkpt>
      <trkpt lat="47.87" lon="5.36287">
        <ele>333.317</ele>
        <time>2015-08-17T21:28:42Z</time>
      </trkpt>
      <trkpt lat="47.8713" lon="5.36089">
        <ele>335.008</ele>
        <time>2015-08-17T21:29:02Z</time>
      </trkpt>
      <trkpt lat="47.87192" lon="5.35956">
        <ele>334.544</ele>
        <time>2015-08-17T21:29:22Z</time>
      </trkpt>
      <trkpt lat="47.87247" lon="5.35764">
        <ele>332.619</ele>
        <time>2015-08-17T21:29:42Z</time>
      </trkpt>
      <trkpt lat="47.87285" lon="5.35674">
        <ele>336.53</ele>
        <time>2015-08-17T21:30:02Z</time>
      </trkpt>
      <trkpt lat="47.87237" lon="5.35649">
        <ele>335.765</ele>
        <time>2015-08-17T21:30:22Z</time>
      </trkpt>
      <trkpt lat="47.8721" lon="5.35763">
        <ele>334.094</ele>
        <time>2015-08-17T21:30:42Z</time>
      </trkpt>
      <trkpt lat="47.87191" lon="5.35788">
        <ele>334.147</ele>
        <time>2015-08-17T21:31:02Z</time>
      </trkpt>
      <trkpt lat="47.87055" lon="5.35571">
        <ele>332.584</ele>
        <time>2015-08-17T21:31:22Z</time>
      </trkpt>
      <trkpt lat="47.86795" lon="5.35164">
        <ele>339.588</ele>
        <time>2015-08-17T21:31:42Z</time>
      </trkpt>
      <trkpt lat="47.86678" lon="5.34868">
        <ele>351.481</ele>
        <time>2015-08-17T21:32:02Z</time>
      </trkpt>
      <trkpt lat="47.86631" lon="5.34667">
        <ele>359.461</ele>
        <time>2015-08-17T21:32:22Z</time>
      </trkpt>
      <trkpt lat="47.86628" lon="5.346">
        <ele>360.417</ele>
        <time>2015-08-17T21:32:42Z</time>
      </trkpt>
      <trkpt lat="47.86666" lon="5.34425">
        <ele>371.908</ele>
        <time>2015-08-17T21:33:02Z</time>
      </trkpt>
      <trkpt lat="47.86648" lon="5.34309">
        <ele>375.044</ele>
        <time>2015-08-17T21:33:22Z</time>
      </trkpt>
      <trkpt lat="47.86531" lon="5.34073">
        <ele>394.749</ele>
        <time>2015-08-17T21:33:42Z</time>
      </trkpt>
      <trkpt lat="47.86428" lon="5.33893">
        <ele>420.15</ele>
        <time>2015-08-17T21:34:02Z</time>
      </trkpt>
      <trkpt lat="47.86401" lon="5.33865">
        <ele>424.195</ele>
        <time>2015-08-17T21:34:22Z</time>
      </trkpt>
      <trkpt lat="47.86362" lon="5.33765">
        <ele>442.884</ele>
        <time>2015-08-17T21:34:42Z</time>
      </trkpt>
      <trkpt lat="47.86315" lon="5.33724">
        <ele>444.447</ele>
        <time>2015-08-17T21:35:02Z</time>
      </trkpt>
      <trkpt lat="47.86296" lon="5.33691">
        <ele>449.384</ele>
        <time>2015-08-17T21:35:22Z</time>
      </trkpt>
      <trkpt lat="47.86296" lon="5.33691">
        <ele>449.378</ele>
        <time>2015-08-17T21:35:42Z</time>
      </trkpt>
      <trkpt lat="47.86265" lon="5.33647">
        <ele>457.386</ele>
        <time>2015-08-17T21:36:02Z</time>
      </trkpt>
      <trkpt lat="47.86234" lon="5.33634">
        <ele>455.86</ele>
        <time>2020-03-09T22:40:39Z</time>
      </trkpt>
      <trkpt lat="47.86177" lon="5.33564">
        <ele>458.926</ele>
        <time>2020-03-09T22:40:59Z</time>
      </trkpt>
      <trkpt lat="47.86033" lon="5.33541">
        <ele>457.008</ele>
        <time>2020-03-09T22:41:19Z</time>
      </trkpt>
      <trkpt lat="47.85923" lon="5.33524">
        <ele>463.744</ele>
        <time>2020-03-09T22:41:39Z</time>
      </trkpt>
      <trkpt lat="47.85916" lon="5.33401">
        <ele>467.059</ele>
        <time>2020-03-09T22:41:59Z</time>
      </trkpt>
      <trkpt lat="47.85921" lon="5.3332">
        <ele>468.65</ele>
        <time>2020-03-09T22:42:19Z</time>
      </trkpt>
      <trkpt lat="47.85916" lon="5.33307">
        <ele>468.975</ele>
        <time>2020-03-09T22:42:39Z</time>
      </trkpt>
      <trkpt lat="47.85972" lon="5.33064">
        <ele>465.384</ele>
        <time>2020-03-09T22:42:59Z</time>
      </trkpt>
      <trkpt lat="47.86018" lon="5.33007">
        <ele>465.637</ele>
        <time>2020-11-28T09:00:08Z</time>
      </trkpt>
      <trkpt lat="47.86026" lon="5.32843">
        <ele>453.564</ele>
        <time>2020-11-28T09:00:28Z</time>
      </trkpt>
      <trkpt lat="47.86081" lon="5.32873">
        <ele>454.078</ele>
        <time>2020-11-28T09:00:48Z</time>
      </trkpt>
      <trkpt lat="47.86091" lon="5.32902">
        <ele>456.163</ele>
        <time>2020-11-28T09:01:08Z</time>
      </trkpt>
      <trkpt lat="47.86156" lon="5.32995">
        <ele>457.144</ele>
        <time>2020-11-28T09:01:28Z</time>
      </trkpt>
      <trkpt lat="47.86245" lon="5.33035">
        <ele>459.418</ele>
        <time>2020-11-28T09:01:48Z</time>
      </trkpt>
      <trkpt lat="47.86282" lon="5.3306">
        <ele>459.108</ele>
        <time>2020-11-28T09:02:08Z</time>
      </trkpt>
      <trkpt lat="47.86348" lon="5.33055">
        <ele>460.562</ele>
        <time>2020-03-09T22:44:59Z</time>
      </trkpt>
      <trkpt lat="47.86352" lon="5.33033">
        <ele>457.267</ele>
        <time>2017-03-31T19:11:14Z</time>
      </trkpt>
      <trkpt lat="47.86393" lon="5.33031">
        <ele>459.788</ele>
        <time>2017-03-31T19:11:34Z</time>
      </trkpt>
      <trkpt lat="47.86374" lon="5.33009">
        <ele>453.843</ele>
        <time>2017-03-31T19:11:54Z</time>
      </trkpt>
      <trkpt lat="47.86417" lon="5.32967">
        <ele>445.822</ele>
        <time>2017-03-31T19:12:14Z</time>
      </trkpt>
      <trkpt lat="47.86433" lon="5.32958">
        <ele>444.365</ele>
        <time>2017-03-31T19:12:34Z</time>
      </trkpt>
      <trkpt lat="47.86471" lon="5.32912">
        <ele>435.032</ele>
        <time>2017-03-31T19:12:54Z</time>
      </trkpt>
      <trkpt lat="47.86372" lon="5.32801">
        <ele>419.066</ele>
        <time>2017-03-31T19:13:14Z</time>
      </trkpt>
      <trkpt lat="47.86344" lon="5.32798">
        <ele>418.912</ele>
        <time>2017-03-31T19:13:34Z</time>
      </trkpt>
      <trkpt lat="47.86284" lon="5.32806">
        <ele>420.832</ele>
        <time>2017-03-31T19:13:54Z</time>
      </trkpt>
      <trkpt lat="47.86246" lon="5.32836">
        <ele>424.305</ele>
        <time>2017-03-31T19:14:14Z</time>
      </trkpt>
      <trkpt lat="47.86231" lon="5.32756">
        <ele>418.008</ele>
        <time>2017-03-31T19:14:34Z</time>
      </trkpt>
      <trkpt lat="47.86251" lon="5.32747">
        <ele>415.417</ele>
        <time>2017-03-31T19:14:54Z</time>
      </trkpt>
      <trkpt lat="47.86265" lon="5.32687">
        <ele>407.072</ele>
        <time>2017-03-31T19:15:14Z</time>
      </trkpt>
      <trkpt lat="47.86269" lon="5.32577">
        <ele>397.793</ele>
        <time>2017-03-31T19:15:34Z</time>
      </trkpt>
      <trkpt lat="47.86289" lon="5.32505">
        <ele>390.748</ele>
        <time>2017-03-31T19:15:54Z</time>
      </trkpt>
      <trkpt lat="47.86322" lon="5.32371">
        <ele>376.477</ele>
        <time>2017-03-31T19:16:14Z</time>
      </trkpt>
      <trkpt lat="47.86326" lon="5.32246">
        <ele>368.66</ele>
        <time>2017-03-31T19:16:34Z</time>
      </trkpt>
      <trkpt lat="47.86353" lon="5.32099">
        <ele>362.767</ele>
        <time>2017-03-31T19:16:54Z</time>
      </trkpt>
      <trkpt lat="47.86352" lon="5.32043">
        <ele>358.941</ele>
        <time>2017-03-31T19:17:14Z</time>
      </trkpt>
      <trkpt lat="47.86438" lon="5.32006">
        <ele>357.697</ele>
        <time>2017-03-31T19:17:34Z</time>
      </trkpt>
      <trkpt lat="47.86519" lon="5.3199">
        <ele>358.923</ele>
        <time>2017-03-31T19:17:54Z</time>
      </trkpt>
      <trkpt lat="47.86572" lon="5.31973">
        <ele>358.125</ele>
        <time>2017-03-31T19:18:14Z</time>
      </trkpt>
      <trkpt lat="47.86644" lon="5.31969">
        <ele>360.408</ele>
        <time>2017-03-31T19:18:34Z</time>
      </trkpt>
      <trkpt lat="47.86646" lon="5.31922">
        <ele>355.425</ele>
        <time>2017-03-31T19:18:54Z</time>
      </trkpt>
      <trkpt lat="47.86654" lon="5.31883">
        <ele>354.12</ele>
        <time>2017-03-31T19:19:14Z</time>
      </trkpt>
      <trkpt lat="47.86696" lon="5.31834">
        <ele>353.981</ele>
        <time>2017-03-31T19:19:34Z</time>
      </trkpt>
      <trkpt lat="47.86696" lon="5.31796">
        <ele>355.356</ele>
        <time>2017-03-31T19:19:54Z</time>
      </trkpt>
      <trkpt lat="47.86718" lon="5.31738">
        <ele>357.455</ele>
        <time>2017-03-31T19:20:14Z</time>
      </trkpt>
      <trkpt lat="47.86718" lon="5.31701">
        <ele>358.998</ele>
        <time>2017-03-31T19:20:34Z</time>
      </trkpt>
      <trkpt lat="47.86712" lon="5.31667">
        <ele>360.325</ele>
        <time>2017-03-31T19:20:54Z</time>
      </trkpt>
      <trkpt lat="47.86747" lon="5.31441">
        <ele>380.519</ele>
        <time>2017-03-31T19:21:14Z</time>
      </trkpt>
      <trkpt lat="47.8677" lon="5.31324">
        <ele>392.483</ele>
        <time>2017-03-31T19:21:34Z</time>
      </trkpt>
      <trkpt lat="47.86729" lon="5.31186">
        <ele>420.125</ele>
        <time>2017-03-31T19:21:54Z</time>
      </trkpt>
      <trkpt lat="47.86717" lon="5.3113">
        <ele>430.417</ele>
        <time>2017-03-31T19:22:14Z</time>
      </trkpt>
      <trkpt lat="47.86639" lon="5.31039">
        <ele>444.808</ele>
        <time>2017-03-31T19:22:34Z</time>
      </trkpt>
      <trkpt lat="47.86621" lon="5.30966">
        <ele>448.584</ele>
        <time>2017-03-31T19:22:54Z</time>
      </trkpt>
      <trkpt lat="47.86537" lon="5.30912">
        <ele>447.819</ele>
        <time>2017-03-31T19:23:14Z</time>
      </trkpt>
      <trkpt lat="47.86622" lon="5.30823">
        <ele>450.05</ele>
        <time>2017-03-31T19:23:34Z</time>
      </trkpt>
      <trkpt lat="47.86758" lon="5.30524">
        <ele>445.965</ele>
        <time>2017-03-31T19:23:54Z</time>
      </trkpt>
      <trkpt lat="47.86678" lon="5.30494">
        <ele>445.934</ele>
        <time>2017-03-31T19:24:14Z</time>
      </trkpt>
      <trkpt lat="47.86613" lon="5.30476">
        <ele>448.087</ele>
        <time>2017-03-31T19:24:34Z</time>
      </trkpt>
      <trkpt lat="47.86605" lon="5.30396">
        <ele>447.454</ele>
        <time>2017-03-31T19:24:54Z</time>
      </trkpt>
      <trkpt lat="47.86577" lon="5.3028">
        <ele>443.148</ele>
        <time>2017-03-31T19:25:14Z</time>
      </trkpt>
      <trkpt lat="47.86571" lon="5.30246">
        <ele>441.943</ele>
        <time>2017-03-31T19:25:34Z</time>
      </trkpt>
      <trkpt lat="47.86546" lon="5.30178">
        <ele>441.064</ele>
        <time>2017-03-31T19:25:54Z</time>
      </trkpt>
      <trkpt lat="47.86536" lon="5.3007">
        <ele>440.31</ele>
        <time>2017-03-31T19:26:14Z</time>
      </trkpt>
      <trkpt lat="47.86526" lon="5.30037">
        <ele>441.708</ele>
        <time>2017-03-31T19:26:34Z</time>
      </trkpt>
      <trkpt lat="47.86514" lon="5.2996">
        <ele>443.09</ele>
        <time>2017-03-31T19:26:54Z</time>
      </trkpt>
      <trkpt lat="47.86487" lon="5.29662">
        <ele>441.845</ele>
        <time>2017-03-31T19:27:14Z</time>
      </trkpt>
      <trkpt lat="47.86479" lon="5.29595">
        <ele>439.686</ele>
        <time>2017-03-31T19:27:34Z</time>
      </trkpt>
      <trkpt lat="47.86478" lon="5.29487">
        <ele>437.591</ele>
        <time>2017-03-31T19:27:54Z</time>
      </trkpt>
      <trkpt lat="47.86455" lon="5.29395">
        <ele>437.11</ele>
        <time>2017-03-31T19:28:14Z</time>
      </trkpt>
      <trkpt lat="47.86443" lon="5.29304">
        <ele>435.983</ele>
        <time>2017-03-31T19:28:34Z</time>
      </trkpt>
      <trkpt lat="47.86438" lon="5.29258">
        <ele>435.05</ele>
        <time>2017-03-31T19:28:54Z</time>
      </trkpt>
      <trkpt lat="47.8644" lon="5.29077">
        <ele>435.754</ele>
        <time>2017-03-31T19:29:14Z</time>
      </trkpt>
      <trkpt lat="47.86432" lon="5.2904">
        <ele>435.526</ele>
        <time>2017-03-31T19:29:34Z</time>
      </trkpt>
      <trkpt lat="47.86416" lon="5.29004">
        <ele>435.047</ele>
        <time>2017-03-31T19:29:54Z</time>
      </trkpt>
      <trkpt lat="47.86385" lon="5.28878">
        <ele>435.811</ele>
        <time>2017-03-31T19:30:14Z</time>
      </trkpt>
      <trkpt lat="47.86355" lon="5.28812">
        <ele>433.608</ele>
        <time>2017-03-31T19:30:34Z</time>
      </trkpt>
      <trkpt lat="47.86333" lon="5.28773">
        <ele>429.858</ele>
        <time>2017-03-31T19:30:54Z</time>
      </trkpt>
      <trkpt lat="47.86318" lon="5.28736">
        <ele>429.033</ele>
        <time>2017-03-31T19:31:14Z</time>
      </trkpt>
      <trkpt lat="47.86288" lon="5.2861">
        <ele>430.634</ele>
        <time>2017-03-31T19:31:34Z</time>
      </trkpt>
      <trkpt lat="47.86287" lon="5.28502">
        <ele>427.739</ele>
        <time>2017-03-31T19:31:54Z</time>
      </trkpt>
      <trkpt lat="47.86261" lon="5.28405">
        <ele>423.078</ele>
        <time>2017-03-31T19:32:14Z</time>
      </trkpt>
      <trkpt lat="47.8624" lon="5.28354">
        <ele>423.721</ele>
        <time>2017-03-31T19:32:34Z</time>
      </trkpt>
      <trkpt lat="47.86239" lon="5.28263">
        <ele>425.748</ele>
        <time>2017-03-31T19:32:54Z</time>
      </trkpt>
      <trkpt lat="47.8626" lon="5.28164">
        <ele>427.472</ele>
        <time>2017-03-31T19:33:14Z</time>
      </trkpt>
      <trkpt lat="47.86304" lon="5.28095">
        <ele>427.388</ele>
        <time>2017-03-31T19:33:34Z</time>
      </trkpt>
      <trkpt lat="47.86327" lon="5.28082">
        <ele>424.224</ele>
        <time>2017-03-31T19:33:54Z</time>
      </trkpt>
      <trkpt lat="47.86386" lon="5.2806">
        <ele>423.526</ele>
        <time>2017-03-31T19:34:14Z</time>
      </trkpt>
      <trkpt lat="47.86531" lon="5.27647">
        <ele>424.408</ele>
        <time>2017-03-31T19:34:34Z</time>
      </trkpt>
      <trkpt lat="47.86526" lon="5.2758">
        <ele>426.274</ele>
        <time>2017-03-31T19:34:54Z</time>
      </trkpt>
      <trkpt lat="47.86542" lon="5.27506">
        <ele>425.989</ele>
        <time>2017-03-31T19:35:14Z</time>
      </trkpt>
      <trkpt lat="47.8654" lon="5.27421">
        <ele>428.57</ele>
        <time>2017-03-31T19:35:34Z</time>
      </trkpt>
      <trkpt lat="47.86551" lon="5.27363">
        <ele>428.085</ele>
        <time>2017-03-31T19:35:54Z</time>
      </trkpt>
      <trkpt lat="47.86553" lon="5.27302">
        <ele>429.134</ele>
        <time>2017-03-31T19:36:14Z</time>
      </trkpt>
      <trkpt lat="47.86561" lon="5.27254">
        <ele>430.077</ele>
        <time>2017-03-31T19:36:34Z</time>
      </trkpt>
      <trkpt lat="47.86548" lon="5.27099">
        <ele>427.544</ele>
        <time>2017-03-31T19:36:54Z</time>
      </trkpt>
      <trkpt lat="47.86549" lon="5.27018">
        <ele>421.488</ele>
        <time>2017-03-31T19:37:14Z</time>
      </trkpt>
      <trkpt lat="47.8657" lon="5.26942">
        <ele>414.798</ele>
        <time>2017-03-31T19:37:34Z</time>
      </trkpt>
      <trkpt lat="47.86579" lon="5.26923">
        <ele>412.415</ele>
        <time>2017-03-31T19:37:54Z</time>
      </trkpt>
      <trkpt lat="47.86619" lon="5.26896">
        <ele>408.326</ele>
        <time>2017-03-31T19:38:14Z</time>
      </trkpt>
      <trkpt lat="47.86637" lon="5.26874">
        <ele>405.208</ele>
        <time>2017-03-31T19:38:34Z</time>
      </trkpt>
      <trkpt lat="47.86602" lon="5.26862">
        <ele>401.275</ele>
        <time>2017-03-31T19:38:54Z</time>
      </trkpt>
      <trkpt lat="47.86549" lon="5.26879">
        <ele>401.16</ele>
        <time>2017-03-31T19:39:14Z</time>
      </trkpt>
      <trkpt lat="47.86526" lon="5.26835">
        <ele>392.181</ele>
        <time>2017-03-31T19:39:34Z</time>
      </trkpt>
      <trkpt lat="47.8659" lon="5.26788">
        <ele>389.116</ele>
        <time>2017-03-31T19:39:54Z</time>
      </trkpt>
      <trkpt lat="47.86571" lon="5.26682">
        <ele>376.285</ele>
        <time>2017-03-31T19:40:14Z</time>
      </trkpt>
      <trkpt lat="47.86573" lon="5.26573">
        <ele>366.638</ele>
        <time>2017-03-31T19:40:34Z</time>
      </trkpt>
      <trkpt lat="47.8647" lon="5.26567">
        <ele>363.275</ele>
        <time>2017-03-31T19:40:54Z</time>
      </trkpt>
      <trkpt lat="47.86411" lon="5.26583">
        <ele>362.149</ele>
        <time>2017-03-31T19:41:14Z</time>
      </trkpt>
      <trkpt lat="47.86384" lon="5.26562">
        <ele>360.625</ele>
        <time>2017-03-31T19:41:34Z</time>
      </trkpt>
      <trkpt lat="47.86341" lon="5.26364">
        <ele>364.026</ele>
        <time>2017-03-31T19:41:54Z</time>
      </trkpt>
      <trkpt lat="47.86307" lon="5.26317">
        <ele>369.808</ele>
        <time>2017-03-31T19:42:14Z</time>
      </trkpt>
      <trkpt lat="47.86324" lon="5.26312">
        <ele>368.708</ele>
        <time>2017-03-31T19:42:34Z</time>
      </trkpt>
      <trkpt lat="47.86361" lon="5.26316">
        <ele>369.538</ele>
        <time>2017-03-31T19:42:54Z</time>
      </trkpt>
      <trkpt lat="47.86399" lon="5.26232">
        <ele>377.793</ele>
        <time>2017-03-31T19:43:14Z</time>
      </trkpt>
      <trkpt lat="47.86394" lon="5.26218">
        <ele>379.854</ele>
        <time>2017-03-31T19:43:34Z</time>
      </trkpt>
      <trkpt lat="47.86346" lon="5.26212">
        <ele>386.599</ele>
        <time>2017-03-31T19:43:54Z</time>
      </trkpt>
      <trkpt lat="47.86334" lon="5.26189">
        <ele>392.348</ele>
        <time>2017-03-31T19:44:14Z</time>
      </trkpt>
      <trkpt lat="47.86266" lon="5.26194">
        <ele>396.511</ele>
        <time>2017-03-31T19:44:34Z</time>
      </trkpt>
      <trkpt lat="47.86072" lon="5.26109">
        <ele>393.958</ele>
        <time>2017-03-31T19:44:54Z</time>
      </trkpt>
      <trkpt lat="47.8601" lon="5.26008">
        <ele>399.912</ele>
        <time>2017-03-31T19:45:14Z</time>
      </trkpt>
      <trkpt lat="47.85949" lon="5.25897">
        <ele>408.324</ele>
        <time>2017-03-31T19:45:34Z</time>
      </trkpt>
      <trkpt lat="47.85916" lon="5.25862">
        <ele>410.704</ele>
        <time>2017-03-31T19:45:54Z</time>
      </trkpt>
      <trkpt lat="47.85737" lon="5.25769">
        <ele>410.514</ele>
        <time>2017-03-31T19:46:14Z</time>
      </trkpt>
      <trkpt lat="47.85649" lon="5.25637">
        <ele>414.808</ele>
        <time>2017-03-31T19:46:34Z</time>
      </trkpt>
      <trkpt lat="47.85635" lon="5.25568">
        <ele>417.198</ele>
        <time>2017-03-31T19:46:54Z</time>
      </trkpt>
      <trkpt lat="47.85644" lon="5.25512">
        <ele>419.473</ele>
        <time>2017-03-31T19:47:14Z</time>
      </trkpt>
      <trkpt lat="47.85593" lon="5.25497">
        <ele>416.544</ele>
        <time>2017-03-31T19:47:34Z</time>
      </trkpt>
      <trkpt lat="47.85452" lon="5.25488">
        <ele>419.539</ele>
        <time>2017-03-31T19:47:54Z</time>
      </trkpt>
      <trkpt lat="47.85419" lon="5.25452">
        <ele>421.518</ele>
        <time>2017-03-31T19:48:14Z</time>
      </trkpt>
      <trkpt lat="47.85226" lon="5.25456">
        <ele>410.141</ele>
        <time>2017-03-31T19:48:34Z</time>
      </trkpt>
      <trkpt lat="47.85133" lon="5.25437">
        <ele>398.378</ele>
        <time>2017-03-31T19:48:54Z</time>
      </trkpt>
      <trkpt lat="47.85093" lon="5.25458">
        <ele>387.952</ele>
        <time>2017-03-31T19:49:14Z</time>
      </trkpt>
      <trkpt lat="47.85043" lon="5.25498">
        <ele>377.366</ele>
        <time>2017-03-31T19:49:34Z</time>
      </trkpt>
      <trkpt lat="47.85006" lon="5.25567">
        <ele>373.029</ele>
        <time>2017-03-31T19:49:54Z</time>
      </trkpt>
      <trkpt lat="47.84918" lon="5.25535">
        <ele>375.021</ele>
        <time>2017-03-31T19:50:14Z</time>
      </trkpt>
      <trkpt lat="47.84838" lon="5.25483">
        <ele>373.008</ele>
        <time>2017-03-31T19:50:34Z</time>
      </trkpt>
      <trkpt lat="47.84787" lon="5.25436">
        <ele>373.432</ele>
        <time>2017-03-31T19:50:54Z</time>
      </trkpt>
      <trkpt lat="47.84743" lon="5.25375">
        <ele>374.547</ele>
        <time>2017-03-31T19:51:14Z</time>
      </trkpt>
      <trkpt lat="47.84657" lon="5.25284">
        <ele>378.038</ele>
        <time>2017-03-31T19:51:34Z</time>
      </trkpt>
      <trkpt lat="47.84626" lon="5.25234">
        <ele>374.893</ele>
        <time>2017-03-31T19:51:54Z</time>
      </trkpt>
      <trkpt lat="47.8457" lon="5.25168">
        <ele>373.962</ele>
        <time>2017-03-31T19:52:14Z</time>
      </trkpt>
      <trkpt lat="47.84472" lon="5.25029">
        <ele>376.935</ele>
        <time>2017-03-31T19:52:34Z</time>
      </trkpt>
      <trkpt lat="47.84463" lon="5.25008">
        <ele>376.792</ele>
        <time>2017-03-31T19:52:54Z</time>
      </trkpt>
      <trkpt lat="47.84478" lon="5.24934">
        <ele>386.966</ele>
        <time>2017-03-31T19:53:14Z</time>
      </trkpt>
      <trkpt lat="47.84299" lon="5.24742">
        <ele>399.493</ele>
        <time>2017-03-31T19:53:34Z</time>
      </trkpt>
      <trkpt lat="47.84273" lon="5.24727">
        <ele>399.165</ele>
        <time>2017-03-31T19:53:54Z</time>
      </trkpt>
      <trkpt lat="47.84249" lon="5.24727">
        <ele>397.321</ele>
        <time>2017-03-31T19:54:14Z</time>
      </trkpt>
      <trkpt lat="47.84215" lon="5.24695">
        <ele>396.408</ele>
        <time>2017-03-31T19:54:34Z</time>
      </trkpt>
      <trkpt lat="47.84116" lon="5.24585">
        <ele>395.775</ele>
        <time>2017-03-31T19:54:54Z</time>
      </trkpt>
      <trkpt lat="47.84004" lon="5.24442">
        <ele>396.79</ele>
        <time>2017-03-31T19:55:14Z</time>
      </trkpt>
      <trkpt lat="47.83973" lon="5.2439">
        <ele>396.051</ele>
        <time>2017-03-31T19:55:34Z</time>
      </trkpt>
      <trkpt lat="47.83931" lon="5.24337">
        <ele>393.786</ele>
        <time>2017-03-31T19:55:54Z</time>
      </trkpt>
      <trkpt lat="47.83891" lon="5.24257">
        <ele>391.375</ele>
        <time>2017-03-31T19:56:14Z</time>
      </trkpt>
      <trkpt lat="47.83874" lon="5.24161">
        <ele>391.558</ele>
        <time>2017-03-31T19:56:34Z</time>
      </trkpt>
      <trkpt lat="47.83858" lon="5.24041">
        <ele>394.785</ele>
        <time>2017-03-31T19:56:54Z</time>
      </trkpt>
      <trkpt lat="47.83829" lon="5.23941">
        <ele>401.999</ele>
        <time>2017-03-31T19:57:14Z</time>
      </trkpt>
      <trkpt lat="47.83765" lon="5.2384">
        <ele>394.348</ele>
        <time>2017-03-31T19:57:34Z</time>
      </trkpt>
      <trkpt lat="47.83707" lon="5.2377">
        <ele>400.661</ele>
        <time>2017-03-31T19:57:54Z</time>
      </trkpt>
      <trkpt lat="47.83682" lon="5.2373">
        <ele>400.617</ele>
        <time>2017-03-31T19:58:14Z</time>
      </trkpt>
      <trkpt lat="47.8365" lon="5.23688">
        <ele>399.508</ele>
        <time>2017-03-31T19:58:34Z</time>
      </trkpt>
      <trkpt lat="47.83636" lon="5.2365">
        <ele>398.88</ele>
        <time>2017-03-31T19:58:54Z</time>
      </trkpt>
      <trkpt lat="47.83614" lon="5.23525">
        <ele>400.315</ele>
        <time>2017-03-31T19:59:14Z</time>
      </trkpt>
      <trkpt lat="47.83592" lon="5.23447">
        <ele>402.346</ele>
        <time>2017-03-31T19:59:34Z</time>
      </trkpt>
      <trkpt lat="47.83557" lon="5.23489">
        <ele>398.451</ele>
        <time>2017-03-31T19:59:54Z</time>
      </trkpt>
      <trkpt lat="47.83544" lon="5.23493">
        <ele>399.46</ele>
        <time>2017-03-31T20:00:14Z</time>
      </trkpt>
      <trkpt lat="47.83518" lon="5.23493">
        <ele>401.713</ele>
        <time>2017-03-31T20:00:34Z</time>
      </trkpt>
      <trkpt lat="47.83495" lon="5.23486">
        <ele>404.35</ele>
        <time>2017-03-31T20:00:54Z</time>
      </trkpt>
      <trkpt lat="47.83481" lon="5.23492">
        <ele>405.114</ele>
        <time>2017-03-31T20:01:14Z</time>
      </trkpt>
      <trkpt lat="47.83486" lon="5.23516">
        <ele>405.585</ele>
        <time>2017-03-31T20:01:34Z</time>
      </trkpt>
      <trkpt lat="47.83474" lon="5.23534">
        <ele>409.289</ele>
        <time>2017-03-31T20:01:54Z</time>
      </trkpt>
      <trkpt lat="47.834" lon="5.23605">
        <ele>428.117</ele>
        <time>2017-03-31T20:02:14Z</time>
      </trkpt>
      <trkpt lat="47.83386" lon="5.23628">
        <ele>431.308</ele>
        <time>2017-03-31T20:02:34Z</time>
      </trkpt>
      <trkpt lat="47.8346" lon="5.23744">
        <ele>430.744</ele>
        <time>2017-03-31T20:02:54Z</time>
      </trkpt>
      <trkpt lat="47.8354" lon="5.23912">
        <ele>431.149</ele>
        <time>2017-03-31T20:03:14Z</time>
      </trkpt>
      <trkpt lat="47.83618" lon="5.24109">
        <ele>429.75</ele>
        <time>2017-03-31T20:03:34Z</time>
      </trkpt>
      <trkpt lat="47.83643" lon="5.24229">
        <ele>427.665</ele>
        <time>2017-03-31T20:03:54Z</time>
      </trkpt>
      <trkpt lat="47.83686" lon="5.24364">
        <ele>426.544</ele>
        <time>2017-03-31T20:04:14Z</time>
      </trkpt>
      <trkpt lat="47.83723" lon="5.24453">
        <ele>421.397</ele>
        <time>2017-03-31T20:04:34Z</time>
      </trkpt>
      <trkpt lat="47.83718" lon="5.24517">
        <ele>425.574</ele>
        <time>2017-03-31T20:04:54Z</time>
      </trkpt>
      <trkpt lat="47.83682" lon="5.24685">
        <ele>428.278</ele>
        <time>2017-03-31T20:05:14Z</time>
      </trkpt>
      <trkpt lat="47.83648" lon="5.24725">
        <ele>425.715</ele>
        <time>2017-03-31T20:05:34Z</time>
      </trkpt>
      <trkpt lat="47.83578" lon="5.24774">
        <ele>424.465</ele>
        <time>2017-03-31T20:05:54Z</time>
      </trkpt>
      <trkpt lat="47.83498" lon="5.24851">
        <ele>420.811</ele>
        <time>2017-03-31T20:06:14Z</time>
      </trkpt>
      <trkpt lat="47.83463" lon="5.24871">
        <ele>424.608</ele>
        <time>2017-03-31T20:06:34Z</time>
      </trkpt>
      <trkpt lat="47.83304" lon="5.2493">
        <ele>426.027</ele>
        <time>2017-03-31T20:06:54Z</time>
      </trkpt>
      <trkpt lat="47.83226" lon="5.24972">
        <ele>423.942</ele>
        <time>2017-03-31T20:07:14Z</time>
      </trkpt>
      <trkpt lat="47.83148" lon="5.25031">
        <ele>414.143</ele>
        <time>2017-03-31T20:07:34Z</time>
      </trkpt>
      <trkpt lat="47.83107" lon="5.25073">
        <ele>404.138</ele>
        <time>2017-03-31T20:07:54Z</time>
      </trkpt>
      <trkpt lat="47.83038" lon="5.25121">
        <ele>408.047</ele>
        <time>2017-03-31T20:08:14Z</time>
      </trkpt>
      <trkpt lat="47.83036" lon="5.25032">
        <ele>426.23</ele>
        <time>2017-03-31T20:08:34Z</time>
      </trkpt>
      <trkpt lat="47.82998" lon="5.25067">
        <ele>430.257</ele>
        <time>2017-03-31T20:08:54Z</time>
      </trkpt>
      <trkpt lat="47.82969" lon="5.25112">
        <ele>427.861</ele>
        <time>2017-03-31T20:09:14Z</time>
      </trkpt>
      <trkpt lat="47.8286" lon="5.25171">
        <ele>411.957</ele>
        <time>2017-03-31T20:09:34Z</time>
      </trkpt>
      <trkpt lat="47.82904" lon="5.25243">
        <ele>399.2</ele>
        <time>2017-03-31T20:09:54Z</time>
      </trkpt>
      <trkpt lat="47.8293" lon="5.25322">
        <ele>391.82</ele>
        <time>2017-03-31T20:10:14Z</time>
      </trkpt>
      <trkpt lat="47.82885" lon="5.25335">
        <ele>390.908</ele>
        <time>2017-03-31T20:10:34Z</time>
      </trkpt>
      <trkpt lat="47.82697" lon="5.25338">
        <ele>391.141</ele>
        <time>2017-03-31T20:10:54Z</time>
      </trkpt>
      <trkpt lat="47.82677" lon="5.25341">
        <ele>391.966</ele>
        <time>2017-03-31T20:11:14Z</time>
      </trkpt>
      <trkpt lat="47.82671" lon="5.25299">
        <ele>399.957</ele>
        <time>2017-03-31T20:11:34Z</time>
      </trkpt>
      <trkpt lat="47.82621" lon="5.25263">
        <ele>405.552</ele>
        <time>2017-03-31T20:11:54Z</time>
      </trkpt>
      <trkpt lat="47.82587" lon="5.25225">
        <ele>407.181</ele>
        <time>2017-03-31T20:12:14Z</time>
      </trkpt>
      <trkpt lat="47.82491" lon="5.25168">
        <ele>405.454</ele>
        <time>2017-03-31T20:12:34Z</time>
      </trkpt>
      <trkpt lat="47.82168" lon="5.24901">
        <ele>406.111</ele>
        <time>2017-03-31T20:12:54Z</time>
      </trkpt>
      <trkpt lat="47.82072" lon="5.24476">
        <ele>410.915</ele>
        <time>2017-03-31T20:13:14Z</time>
      </trkpt>
      <trkpt lat="47.8193" lon="5.2425">
        <ele>414.892</ele>
        <time>2017-03-31T20:13:34Z</time>
      </trkpt>
      <trkpt lat="47.8187" lon="5.24124">
        <ele>411.273</ele>
        <time>2017-03-31T20:13:54Z</time>
      </trkpt>
      <trkpt lat="47.81738" lon="5.23776">
        <ele>418.82</ele>
        <time>2017-03-31T20:14:14Z</time>
      </trkpt>
      <trkpt lat="47.81695" lon="5.23762">
        <ele>420.908</ele>
        <time>2017-03-31T20:14:34Z</time>
      </trkpt>
      <trkpt lat="47.81666" lon="5.23727">
        <ele>425.685</ele>
        <time>2017-03-31T20:14:54Z</time>
      </trkpt>
      <trkpt lat="47.81606" lon="5.23603">
        <ele>426.44</ele>
        <time>2017-03-31T20:15:14Z</time>
      </trkpt>
      <trkpt lat="47.81556" lon="5.23636">
        <ele>434.841</ele>
        <time>2017-03-31T20:15:34Z</time>
      </trkpt>
      <trkpt lat="47.81542" lon="5.23595">
        <ele>434.886</ele>
        <time>2017-03-31T20:15:54Z</time>
      </trkpt>
      <trkpt lat="47.81507" lon="5.2354">
        <ele>437.715</ele>
        <time>2017-03-31T20:16:14Z</time>
      </trkpt>
      <trkpt lat="47.81465" lon="5.23484">
        <ele>438.638</ele>
        <time>2017-03-31T20:16:34Z</time>
      </trkpt>
      <trkpt lat="47.81457" lon="5.23459">
        <ele>437.095</ele>
        <time>2017-03-31T20:16:54Z</time>
      </trkpt>
      <trkpt lat="47.81434" lon="5.23414">
        <ele>435.489</ele>
        <time>2017-03-31T20:17:14Z</time>
      </trkpt>
      <trkpt lat="47.81425" lon="5.23378">
        <ele>435.548</ele>
        <time>2017-03-31T20:17:34Z</time>
      </trkpt>
      <trkpt lat="47.81394" lon="5.23359">
        <ele>439.361</ele>
        <time>2017-03-31T20:17:54Z</time>
      </trkpt>
      <trkpt lat="47.81388" lon="5.23302">
        <ele>440.117</ele>
        <time>2017-03-31T20:18:14Z</time>
      </trkpt>
      <trkpt lat="47.81355" lon="5.23247">
        <ele>443.108</ele>
        <time>2017-03-31T20:18:34Z</time>
      </trkpt>
      <trkpt lat="47.81283" lon="5.2309">
        <ele>440.56</ele>
        <time>2017-03-31T20:18:54Z</time>
      </trkpt>
      <trkpt lat="47.81289" lon="5.23068">
        <ele>438.085</ele>
        <time>2017-03-31T20:19:14Z</time>
      </trkpt>
      <trkpt lat="47.81318" lon="5.23015">
        <ele>433.566</ele>
        <time>2017-03-31T20:19:34Z</time>
      </trkpt>
      <trkpt lat="47.81315" lon="5.22984">
        <ele>432.911</ele>
        <time>2017-03-31T20:19:54Z</time>
      </trkpt>
      <trkpt lat="47.81202" lon="5.22937">
        <ele>435.22</ele>
        <time>2017-03-31T20:20:14Z</time>
      </trkpt>
      <trkpt lat="47.81159" lon="5.22899">
        <ele>435.343</ele>
        <time>2017-03-31T20:20:34Z</time>
      </trkpt>
      <trkpt lat="47.81091" lon="5.22796">
        <ele>438.88</ele>
        <time>2017-03-31T20:20:54Z</time>
      </trkpt>
      <trkpt lat="47.81033" lon="5.22683">
        <ele>439.494</ele>
        <time>2017-03-31T20:21:14Z</time>
      </trkpt>
      <trkpt lat="47.80949" lon="5.22557">
        <ele>443.827</ele>
        <time>2017-03-31T20:21:34Z</time>
      </trkpt>
      <trkpt lat="47.8086" lon="5.22445">
        <ele>441.068</ele>
        <time>2017-03-31T20:21:54Z</time>
      </trkpt>
      <trkpt lat="47.80851" lon="5.22262">
        <ele>446.614</ele>
        <time>2017-03-31T20:22:14Z</time>
      </trkpt>
      <trkpt lat="47.8088" lon="5.22174">
        <ele>448.008</ele>
        <time>2017-03-31T20:22:34Z</time>
      </trkpt>
      <trkpt lat="47.80884" lon="5.22015">
        <ele>445.888</ele>
        <time>2017-03-31T20:22:54Z</time>
      </trkpt>
      <trkpt lat="47.8086" lon="5.21768">
        <ele>443.313</ele>
        <time>2017-03-31T20:23:14Z</time>
      </trkpt>
      <trkpt lat="47.8081" lon="5.21588">
        <ele>441.714</ele>
        <time>2017-03-31T20:23:34Z</time>
      </trkpt>
      <trkpt lat="47.80786" lon="5.21485">
        <ele>443.729</ele>
        <time>2017-03-31T20:23:54Z</time>
      </trkpt>
      <trkpt lat="47.80756" lon="5.21261">
        <ele>444.838</ele>
        <time>2017-03-31T20:24:14Z</time>
      </trkpt>
      <trkpt lat="47.80826" lon="5.21151">
        <ele>443.711</ele>
        <time>2017-03-31T20:24:34Z</time>
      </trkpt>
      <trkpt lat="47.80939" lon="5.20849">
        <ele>444.898</ele>
        <time>2017-03-31T20:24:54Z</time>
      </trkpt>
      <trkpt lat="47.8092" lon="5.20556">
        <ele>449.072</ele>
        <time>2017-03-31T20:25:14Z</time>
      </trkpt>
      <trkpt lat="47.80924" lon="5.20478">
        <ele>450.048</ele>
        <time>2017-03-31T20:25:34Z</time>
      </trkpt>
      <trkpt lat="47.80939" lon="5.20393">
        <ele>450.761</ele>
        <time>2017-03-31T20:25:54Z</time>
      </trkpt>
      <trkpt lat="47.81019" lon="5.20117">
        <ele>457.417</ele>
        <time>2017-03-31T20:26:14Z</time>
      </trkpt>
      <trkpt lat="47.81021" lon="5.19937">
        <ele>462.008</ele>
        <time>2017-03-31T20:26:34Z</time>
      </trkpt>
      <trkpt lat="47.81046" lon="5.1978">
        <ele>467.62</ele>
        <time>2017-03-31T20:26:54Z</time>
      </trkpt>
      <trkpt lat="47.81003" lon="5.19711">
        <ele>466.165</ele>
        <time>2017-03-31T20:27:14Z</time>
      </trkpt>
      <trkpt lat="47.80926" lon="5.19549">
        <ele>469.246</ele>
        <time>2017-03-31T20:27:34Z</time>
      </trkpt>
      <trkpt lat="47.8081" lon="5.19435">
        <ele>472.171</ele>
        <time>2017-03-31T20:27:54Z</time>
      </trkpt>
      <trkpt lat="47.80776" lon="5.19431">
        <ele>472.08</ele>
        <time>2017-03-31T20:28:14Z</time>
      </trkpt>
      <trkpt lat="47.80669" lon="5.19399">
        <ele>473.663</ele>
        <time>2017-03-31T20:28:34Z</time>
      </trkpt>
      <trkpt lat="47.80552" lon="5.19413">
        <ele>473.06</ele>
        <time>2017-03-31T20:28:54Z</time>
      </trkpt>
      <trkpt lat="47.80484" lon="5.19401">
        <ele>474.454</ele>
        <time>2017-03-31T20:29:14Z</time>
      </trkpt>
      <trkpt lat="47.8037" lon="5.19453">
        <ele>476.094</ele>
        <time>2017-03-31T20:29:34Z</time>
      </trkpt>
      <trkpt lat="47.80115" lon="5.19509">
        <ele>488.057</ele>
        <time>2017-03-31T20:29:54Z</time>
      </trkpt>
      <trkpt lat="47.80032" lon="5.19546">
        <ele>490.722</ele>
        <time>2017-03-31T20:30:14Z</time>
      </trkpt>
      <trkpt lat="47.79971" lon="5.19555">
        <ele>496.208</ele>
        <time>2017-03-31T20:30:34Z</time>
      </trkpt>
      <trkpt lat="47.79828" lon="5.19632">
        <ele>505.535</ele>
        <time>2017-03-31T20:30:54Z</time>
      </trkpt>
      <trkpt lat="47.79467" lon="5.19675">
        <ele>493.88</ele>
        <time>2017-03-31T20:31:14Z</time>
      </trkpt>
      <trkpt lat="47.7947" lon="5.1954">
        <ele>497.471</ele>
        <time>2017-03-31T20:31:34Z</time>
      </trkpt>
      <trkpt lat="47.79416" lon="5.19546">
        <ele>505.496</ele>
        <time>2017-03-31T20:31:54Z</time>
      </trkpt>
      <trkpt lat="47.79396" lon="5.19567">
        <ele>505.455</ele>
        <time>2017-03-31T20:32:14Z</time>
      </trkpt>
      <trkpt lat="47.79351" lon="5.19517">
        <ele>509.828</ele>
        <time>2017-03-31T20:32:34Z</time>
      </trkpt>
      <trkpt lat="47.79265" lon="5.19462">
        <ele>515.865</ele>
        <time>2017-03-31T20:32:54Z</time>
      </trkpt>
      <trkpt lat="47.79234" lon="5.19434">
        <ele>518.139</ele>
        <time>2017-03-31T20:33:14Z</time>
      </trkpt>
      <trkpt lat="47.79189" lon="5.19385">
        <ele>519.095</ele>
        <time>2017-03-31T20:33:34Z</time>
      </trkpt>
      <trkpt lat="47.79207" lon="5.19332">
        <ele>519.049</ele>
        <time>2017-03-31T20:33:54Z</time>
      </trkpt>
      <trkpt lat="47.79216" lon="5.19287">
        <ele>520.423</ele>
        <time>2017-03-31T20:34:14Z</time>
      </trkpt>
      <trkpt lat="47.79215" lon="5.19202">
        <ele>515.308</ele>
        <time>2017-03-31T20:34:34Z</time>
      </trkpt>
      <trkpt lat="47.79157" lon="5.19064">
        <ele>516.535</ele>
        <time>2017-03-31T20:34:54Z</time>
      </trkpt>
      <trkpt lat="47.79104" lon="5.18933">
        <ele>517.25</ele>
        <time>2017-03-31T20:35:14Z</time>
      </trkpt>
      <trkpt lat="47.79077" lon="5.18852">
        <ele>513.981</ele>
        <time>2017-03-31T20:35:34Z</time>
      </trkpt>
      <trkpt lat="47.79051" lon="5.18746">
        <ele>508.676</ele>
        <time>2017-03-31T20:35:54Z</time>
      </trkpt>
      <trkpt lat="47.79042" lon="5.18598">
        <ele>501.215</ele>
        <time>2017-03-31T20:36:14Z</time>
      </trkpt>
      <trkpt lat="47.79015" lon="5.18369">
        <ele>496.428</ele>
        <time>2017-03-31T20:36:34Z</time>
      </trkpt>
      <trkpt lat="47.79001" lon="5.18201">
        <ele>493.445</ele>
        <time>2017-03-31T20:36:54Z</time>
      </trkpt>
      <trkpt lat="47.79005" lon="5.18107">
        <ele>487.479</ele>
        <time>2017-03-31T20:37:14Z</time>
      </trkpt>
      <trkpt lat="47.79025" lon="5.17969">
        <ele>482.984</ele>
        <time>2017-03-31T20:37:34Z</time>
      </trkpt>
      <trkpt lat="47.79066" lon="5.17711">
        <ele>481.007</ele>
        <time>2017-03-31T20:37:54Z</time>
      </trkpt>
      <trkpt lat="47.79075" lon="5.1765">
        <ele>480.317</ele>
        <time>2017-03-31T20:38:14Z</time>
      </trkpt>
      <trkpt lat="47.79132" lon="5.17476">
        <ele>482.408</ele>
        <time>2017-03-31T20:38:34Z</time>
      </trkpt>
      <trkpt lat="47.79164" lon="5.17313">
        <ele>485.894</ele>
        <time>2017-03-31T20:38:54Z</time>
      </trkpt>
      <trkpt lat="47.7919" lon="5.17002">
        <ele>503.919</ele>
        <time>2017-03-31T20:39:14Z</time>
      </trkpt>
      <trkpt lat="47.79183" lon="5.16872">
        <ele>505.63</ele>
        <time>2017-03-31T20:39:34Z</time>
      </trkpt>
      <trkpt lat="47.7919" lon="5.16795">
        <ele>506.575</ele>
        <time>2017-03-31T20:39:54Z</time>
      </trkpt>
      <trkpt lat="47.7922" lon="5.167">
        <ele>503.324</ele>
        <time>2017-03-31T20:40:14Z</time>
      </trkpt>
      <trkpt lat="47.79284" lon="5.16601">
        <ele>497.847</ele>
        <time>2017-03-31T20:40:34Z</time>
      </trkpt>
      <trkpt lat="47.793" lon="5.16536">
        <ele>498.874</ele>
        <time>2017-03-31T20:40:54Z</time>
      </trkpt>
      <trkpt lat="47.79311" lon="5.16456">
        <ele>497.388</ele>
        <time>2017-03-31T20:41:14Z</time>
      </trkpt>
      <trkpt lat="47.79398" lon="5.16191">
        <ele>494.231</ele>
        <time>2017-03-31T20:41:34Z</time>
      </trkpt>
      <trkpt lat="47.79371" lon="5.16134">
        <ele>489.161</ele>
        <time>2017-03-31T20:41:54Z</time>
      </trkpt>
      <trkpt lat="47.79269" lon="5.1606">
        <ele>483.107</ele>
        <time>2017-03-31T20:42:14Z</time>
      </trkpt>
      <trkpt lat="47.79163" lon="5.16044">
        <ele>481.108</ele>
        <time>2017-03-31T20:42:34Z</time>
      </trkpt>
      <trkpt lat="47.79135" lon="5.15902">
        <ele>462.089</ele>
        <time>2017-03-31T20:42:54Z</time>
      </trkpt>
      <trkpt lat="47.7909" lon="5.1583">
        <ele>457.594</ele>
        <time>2017-03-31T20:43:14Z</time>
      </trkpt>
      <trkpt lat="47.79115" lon="5.15791">
        <ele>450.395</ele>
        <time>2017-03-31T20:43:34Z</time>
      </trkpt>
      <trkpt lat="47.79087" lon="5.15784">
        <ele>449.33</ele>
        <time>2017-03-31T20:43:54Z</time>
      </trkpt>
      <trkpt lat="47.79039" lon="5.15788">
        <ele>446.559</ele>
        <time>2017-03-31T20:44:14Z</time>
      </trkpt>
      <trkpt lat="47.78981" lon="5.15801">
        <ele>447.012</ele>
        <time>2017-03-31T20:44:34Z</time>
      </trkpt>
      <trkpt lat="47.78937" lon="5.15827">
        <ele>446.919</ele>
        <time>2017-03-31T20:44:54Z</time>
      </trkpt>
      <trkpt lat="47.78901" lon="5.15822">
        <ele>439.473</ele>
        <time>2017-03-31T20:45:14Z</time>
      </trkpt>
      <trkpt lat="47.78863" lon="5.15806">
        <ele>432.423</ele>
        <time>2017-03-31T20:45:34Z</time>
      </trkpt>
      <trkpt lat="47.78841" lon="5.15772">
        <ele>429.183</ele>
        <time>2017-03-31T20:45:54Z</time>
      </trkpt>
      <trkpt lat="47.78764" lon="5.15667">
        <ele>421.011</ele>
        <time>2017-03-31T20:46:14Z</time>
      </trkpt>
      <trkpt lat="47.78718" lon="5.15572">
        <ele>413.208</ele>
        <time>2017-03-31T20:46:34Z</time>
      </trkpt>
      <trkpt lat="47.78686" lon="5.15567">
        <ele>412.088</ele>
        <time>2017-03-31T20:46:54Z</time>
      </trkpt>
      <trkpt lat="47.78688" lon="5.1539">
        <ele>416.843</ele>
        <time>2017-03-31T20:47:14Z</time>
      </trkpt>
      <trkpt lat="47.78664" lon="5.15254">
        <ele>413.214</ele>
        <time>2017-03-31T20:47:34Z</time>
      </trkpt>
      <trkpt lat="47.78661" lon="5.15192">
        <ele>412.029</ele>
        <time>2017-03-31T20:47:54Z</time>
      </trkpt>
      <trkpt lat="47.78672" lon="5.15122">
        <ele>412.348</ele>
        <time>2017-03-31T20:48:14Z</time>
      </trkpt>
      <trkpt lat="47.78735" lon="5.14973">
        <ele>412.451</ele>
        <time>2017-03-31T20:48:34Z</time>
      </trkpt>
      <trkpt lat="47.78746" lon="5.1491">
        <ele>410.028</ele>
        <time>2017-03-31T20:48:54Z</time>
      </trkpt>
      <trkpt lat="47.78741" lon="5.1486">
        <ele>409.472</ele>
        <time>2017-03-31T20:49:14Z</time>
      </trkpt>
      <trkpt lat="47.7869" lon="5.14677">
        <ele>406.968</ele>
        <time>2017-03-31T20:49:34Z</time>
      </trkpt>
      <trkpt lat="47.78692" lon="5.14306">
        <ele>403.142</ele>
        <time>2017-03-31T20:49:54Z</time>
      </trkpt>
      <trkpt lat="47.78721" lon="5.14151">
        <ele>400.526</ele>
        <time>2017-03-31T20:50:14Z</time>
      </trkpt>
      <trkpt lat="47.78643" lon="5.13655">
        <ele>393.608</ele>
        <time>2017-03-31T20:50:34Z</time>
      </trkpt>
      <trkpt lat="47.7865" lon="5.13579">
        <ele>391.192</ele>
        <time>2017-03-31T20:50:54Z</time>
      </trkpt>
      <trkpt lat="47.78681" lon="5.13447">
        <ele>388.057</ele>
        <time>2017-03-31T20:51:14Z</time>
      </trkpt>
      <trkpt lat="47.78728" lon="5.13421">
        <ele>391.958</ele>
        <time>2017-03-31T20:51:34Z</time>
      </trkpt>
      <trkpt lat="47.7876" lon="5.13383">
        <ele>401.343</ele>
        <time>2017-03-31T20:51:54Z</time>
      </trkpt>
      <trkpt lat="47.78768" lon="5.13357">
        <ele>405.182</ele>
        <time>2017-03-31T20:52:14Z</time>
      </trkpt>
      <trkpt lat="47.78754" lon="5.13339">
        <ele>404.865</ele>
        <time>2017-03-31T20:52:34Z</time>
      </trkpt>
      <trkpt lat="47.78665" lon="5.13363">
        <ele>396.522</ele>
        <time>2017-03-31T20:52:54Z</time>
      </trkpt>
      <trkpt lat="47.78637" lon="5.13306">
        <ele>401.686</ele>
        <time>2017-03-31T20:53:14Z</time>
      </trkpt>
      <trkpt lat="47.7862" lon="5.13242">
        <ele>401.679</ele>
        <time>2017-03-31T20:53:34Z</time>
      </trkpt>
      <trkpt lat="47.78615" lon="5.13175">
        <ele>400.605</ele>
        <time>2017-03-31T20:53:54Z</time>
      </trkpt>
      <trkpt lat="47.78632" lon="5.13105">
        <ele>404.325</ele>
        <time>2017-03-31T20:54:14Z</time>
      </trkpt>
      <trkpt lat="47.78707" lon="5.13061">
        <ele>411.908</ele>
        <time>2017-03-31T20:54:34Z</time>
      </trkpt>
      <trkpt lat="47.78724" lon="5.12997">
        <ele>418.623</ele>
        <time>2017-03-31T20:54:54Z</time>
      </trkpt>
      <trkpt lat="47.78719" lon="5.12881">
        <ele>418.118</ele>
        <time>2017-03-31T20:55:14Z</time>
      </trkpt>
      <trkpt lat="47.78769" lon="5.12742">
        <ele>430.649</ele>
        <time>2017-03-31T20:55:34Z</time>
      </trkpt>
      <trkpt lat="47.78784" lon="5.12613">
        <ele>434.874</ele>
        <time>2017-03-31T20:55:54Z</time>
      </trkpt>
      <trkpt lat="47.78799" lon="5.12503">
        <ele>436.443</ele>
        <time>2017-03-31T20:56:14Z</time>
      </trkpt>
      <trkpt lat="47.78855" lon="5.12382">
        <ele>440.426</ele>
        <time>2017-03-31T20:56:34Z</time>
      </trkpt>
      <trkpt lat="47.78896" lon="5.12339">
        <ele>441.663</ele>
        <time>2017-03-31T20:56:54Z</time>
      </trkpt>
      <trkpt lat="47.78972" lon="5.12307">
        <ele>446.117</ele>
        <time>2017-03-31T20:57:14Z</time>
      </trkpt>
      <trkpt lat="47.79007" lon="5.12313">
        <ele>449.761</ele>
        <time>2017-03-31T20:57:34Z</time>
      </trkpt>
      <trkpt lat="47.79007" lon="5.12313">
        <ele>449.721</ele>
        <time>2017-03-31T20:57:54Z</time>
      </trkpt>
      <trkpt lat="47.79328" lon="5.12756">
        <ele>480.613</ele>
        <time>2017-03-31T20:58:14Z</time>
      </trkpt>
      <trkpt lat="47.7918" lon="5.1129">
        <ele>456.008</ele>
        <time>2017-03-31T20:58:34Z</time>
      </trkpt>
      <trkpt lat="47.7919" lon="5.11227">
        <ele>454.222</ele>
        <time>2017-03-31T20:58:54Z</time>
      </trkpt>
      <trkpt lat="47.7922" lon="5.11154">
        <ele>455.547</ele>
        <time>2017-03-31T20:59:14Z</time>
      </trkpt>
      <trkpt lat="47.79218" lon="5.11079">
        <ele>455.848</ele>
        <time>2017-03-31T20:59:34Z</time>
      </trkpt>
      <trkpt lat="47.79136" lon="5.10893">
        <ele>454.123</ele>
        <time>2017-03-31T20:59:54Z</time>
      </trkpt>
      <trkpt lat="47.79085" lon="5.10485">
        <ele>468.112</ele>
        <time>2017-03-31T21:00:14Z</time>
      </trkpt>
      <trkpt lat="47.79068" lon="5.10362">
        <ele>468.995</ele>
        <time>2017-03-31T21:00:34Z</time>
      </trkpt>
      <trkpt lat="47.78962" lon="5.09523">
        <ele>465.022</ele>
        <time>2017-03-31T21:00:54Z</time>
      </trkpt>
      <trkpt lat="47.78939" lon="5.09526">
        <ele>464.836</ele>
        <time>2017-03-31T21:01:14Z</time>
      </trkpt>
      <trkpt lat="47.78918" lon="5.09543">
        <ele>464.191</ele>
        <time>2017-03-31T21:01:34Z</time>
      </trkpt>
      <trkpt lat="47.78862" lon="5.09684">
        <ele>466.681</ele>
        <time>2017-03-31T21:01:54Z</time>
      </trkpt>
      <trkpt lat="47.78847" lon="5.09748">
        <ele>465.119</ele>
        <time>2017-03-31T21:02:14Z</time>
      </trkpt>
      <trkpt lat="47.78842" lon="5.09795">
        <ele>463.408</ele>
        <time>2017-03-31T21:02:34Z</time>
      </trkpt>
      <trkpt lat="47.78861" lon="5.10044">
        <ele>448.895</ele>
        <time>2017-03-31T21:02:54Z</time>
      </trkpt>
      <trkpt lat="47.78853" lon="5.10155">
        <ele>441.59</ele>
        <time>2017-03-31T21:03:14Z</time>
      </trkpt>
      <trkpt lat="47.7886" lon="5.10279">
        <ele>441.631</ele>
        <time>2017-03-31T21:03:34Z</time>
      </trkpt>
      <trkpt lat="47.7889" lon="5.10472">
        <ele>444.326</ele>
        <time>2017-03-31T21:03:54Z</time>
      </trkpt>
      <trkpt lat="47.78891" lon="5.10576">
        <ele>440.825</ele>
        <time>2017-03-31T21:04:14Z</time>
      </trkpt>
      <trkpt lat="47.7888" lon="5.10596">
        <ele>438.538</ele>
        <time>2017-03-31T21:04:34Z</time>
      </trkpt>
      <trkpt lat="47.78868" lon="5.10603">
        <ele>436.255</ele>
        <time>2017-03-31T21:04:54Z</time>
      </trkpt>
      <trkpt lat="47.78836" lon="5.10603">
        <ele>432.389</ele>
        <time>2017-03-31T21:05:14Z</time>
      </trkpt>
      <trkpt lat="47.78797" lon="5.10587">
        <ele>429.479</ele>
        <time>2017-03-31T21:05:34Z</time>
      </trkpt>
      <trkpt lat="47.78774" lon="5.10572">
        <ele>427.805</ele>
        <time>2017-03-31T21:05:54Z</time>
      </trkpt>
      <trkpt lat="47.78737" lon="5.10539">
        <ele>426.425</ele>
        <time>2017-03-31T21:06:14Z</time>
      </trkpt>
      <trkpt lat="47.78681" lon="5.10501">
        <ele>426.208</ele>
        <time>2017-03-31T21:06:34Z</time>
      </trkpt>
      <trkpt lat="47.78518" lon="5.10343">
        <ele>414.743</ele>
        <time>2017-03-31T21:06:54Z</time>
      </trkpt>
      <trkpt lat="47.78472" lon="5.10323">
        <ele>412.618</ele>
        <time>2017-03-31T21:07:14Z</time>
      </trkpt>
      <trkpt lat="47.78433" lon="5.10317">
        <ele>409.719</ele>
        <time>2017-03-31T21:07:34Z</time>
      </trkpt>
      <trkpt lat="47.78392" lon="5.10337">
        <ele>405.864</ele>
        <time>2017-03-31T21:07:54Z</time>
      </trkpt>
      <trkpt lat="47.7834" lon="5.10437">
        <ele>401.053</ele>
        <time>2017-03-31T21:08:14Z</time>
      </trkpt>
      <trkpt lat="47.78326" lon="5.10509">
        <ele>402.316</ele>
        <time>2017-03-31T21:08:34Z</time>
      </trkpt>
      <trkpt lat="47.78306" lon="5.10682">
        <ele>401.113</ele>
        <time>2017-03-31T21:08:54Z</time>
      </trkpt>
      <trkpt lat="47.78267" lon="5.1039">
        <ele>383.737</ele>
        <time>2017-03-31T21:09:14Z</time>
      </trkpt>
      <trkpt lat="47.78233" lon="5.10223">
        <ele>375.551</ele>
        <time>2017-03-31T21:09:34Z</time>
      </trkpt>
      <trkpt lat="47.78245" lon="5.10137">
        <ele>367.401</ele>
        <time>2017-03-31T21:09:54Z</time>
      </trkpt>
      <trkpt lat="47.78297" lon="5.10111">
        <ele>370.811</ele>
        <time>2017-03-31T21:10:14Z</time>
      </trkpt>
      <trkpt lat="47.78297" lon="5.10082">
        <ele>370.008</ele>
        <time>2017-03-31T21:10:34Z</time>
      </trkpt>
      <trkpt lat="47.78243" lon="5.09964">
        <ele>367.111</ele>
        <time>2017-03-31T21:10:54Z</time>
      </trkpt>
      <trkpt lat="47.78222" lon="5.09845">
        <ele>370.716</ele>
        <time>2017-03-31T21:11:14Z</time>
      </trkpt>
      <trkpt lat="47.78198" lon="5.09679">
        <ele>374.287</ele>
        <time>2017-03-31T21:11:34Z</time>
      </trkpt>
      <trkpt lat="47.78146" lon="5.09531">
        <ele>371.622</ele>
        <time>2017-03-31T21:11:54Z</time>
      </trkpt>
      <trkpt lat="47.78104" lon="5.0937">
        <ele>376.941</ele>
        <time>2017-03-31T21:12:14Z</time>
      </trkpt>
      <trkpt lat="47.78068" lon="5.09167">
        <ele>385.334</ele>
        <time>2017-03-31T21:12:34Z</time>
      </trkpt>
      <trkpt lat="47.78004" lon="5.08763">
        <ele>377.451</ele>
        <time>2017-03-31T21:12:54Z</time>
      </trkpt>
      <trkpt lat="47.78004" lon="5.08737">
        <ele>377.095</ele>
        <time>2017-03-31T21:13:14Z</time>
      </trkpt>
      <trkpt lat="47.78067" lon="5.08549">
        <ele>377.052</ele>
        <time>2017-03-31T21:13:34Z</time>
      </trkpt>
      <trkpt lat="47.78086" lon="5.08535">
        <ele>376.853</ele>
        <time>2017-03-31T21:13:54Z</time>
      </trkpt>
      <trkpt lat="47.78166" lon="5.08545">
        <ele>374.008</ele>
        <time>2017-03-31T21:14:14Z</time>
      </trkpt>
      <trkpt lat="47.78191" lon="5.08542">
        <ele>373.108</ele>
        <time>2017-03-31T21:14:34Z</time>
      </trkpt>
      <trkpt lat="47.78232" lon="5.085">
        <ele>370.341</ele>
        <time>2017-03-31T21:14:54Z</time>
      </trkpt>
      <trkpt lat="47.78243" lon="5.08367">
        <ele>367.556</ele>
        <time>2017-03-31T21:15:14Z</time>
      </trkpt>
      <trkpt lat="47.78253" lon="5.08292">
        <ele>367.277</ele>
        <time>2017-03-31T21:15:34Z</time>
      </trkpt>
      <trkpt lat="47.78298" lon="5.08117">
        <ele>367.952</ele>
        <time>2017-03-31T21:15:54Z</time>
      </trkpt>
      <trkpt lat="47.78349" lon="5.07944">
        <ele>367.721</ele>
        <time>2017-03-31T21:16:14Z</time>
      </trkpt>
      <trkpt lat="47.78376" lon="5.07846">
        <ele>365.534</ele>
        <time>2017-03-31T21:16:34Z</time>
      </trkpt>
      <trkpt lat="47.78441" lon="5.07501">
        <ele>356.631</ele>
        <time>2017-03-31T21:16:54Z</time>
      </trkpt>
      <trkpt lat="47.78485" lon="5.07413">
        <ele>353.825</ele>
        <time>2017-03-31T21:17:14Z</time>
      </trkpt>
      <trkpt lat="47.78501" lon="5.07336">
        <ele>346.681</ele>
        <time>2017-03-31T21:17:34Z</time>
      </trkpt>
      <trkpt lat="47.78557" lon="5.07228">
        <ele>347.761</ele>
        <time>2017-03-31T21:17:54Z</time>
      </trkpt>
      <trkpt lat="47.78558" lon="5.07195">
        <ele>346.417</ele>
        <time>2017-03-31T21:18:14Z</time>
      </trkpt>
      <trkpt lat="47.78558" lon="5.07195">
        <ele>346.408</ele>
        <time>2017-03-31T21:18:34Z</time>
      </trkpt>
      <trkpt lat="47.78505" lon="5.07151">
        <ele>343.084</ele>
        <time>2017-03-31T21:18:54Z</time>
      </trkpt>
      <trkpt lat="47.78497" lon="5.07119">
        <ele>345.689</ele>
        <time>2017-03-31T21:19:14Z</time>
      </trkpt>
      <trkpt lat="47.78521" lon="5.06795">
        <ele>347.79</ele>
        <time>2017-03-31T21:19:34Z</time>
      </trkpt>
      <trkpt lat="47.78548" lon="5.06698">
        <ele>345.565</ele>
        <time>2017-03-31T21:19:54Z</time>
      </trkpt>
      <trkpt lat="47.78551" lon="5.06623">
        <ele>349.224</ele>
        <time>2017-03-31T21:20:14Z</time>
      </trkpt>
      <trkpt lat="47.78538" lon="5.06374">
        <ele>347.587</ele>
        <time>2017-03-31T21:20:34Z</time>
      </trkpt>
      <trkpt lat="47.78581" lon="5.05984">
        <ele>340.054</ele>
        <time>2017-03-31T21:20:54Z</time>
      </trkpt>
      <trkpt lat="47.78609" lon="5.0591">
        <ele>340.128</ele>
        <time>2017-03-31T21:21:14Z</time>
      </trkpt>
      <trkpt lat="47.78447" lon="5.05596">
        <ele>343.222</ele>
        <time>2017-03-31T21:21:34Z</time>
      </trkpt>
      <trkpt lat="47.78409" lon="5.05552">
        <ele>341.662</ele>
        <time>2017-03-31T21:21:54Z</time>
      </trkpt>
      <trkpt lat="47.78236" lon="5.05507">
        <ele>345.508</ele>
        <time>2017-03-31T21:22:14Z</time>
      </trkpt>
      <trkpt lat="47.78201" lon="5.05459">
        <ele>348.008</ele>
        <time>2017-03-31T21:22:34Z</time>
      </trkpt>
      <trkpt lat="47.78154" lon="5.05441">
        <ele>348.118</ele>
        <time>2017-03-31T21:22:54Z</time>
      </trkpt>
      <trkpt lat="47.7808" lon="5.05447">
        <ele>351.293</ele>
        <time>2017-03-31T21:23:14Z</time>
      </trkpt>
      <trkpt lat="47.78019" lon="5.05438">
        <ele>360.014</ele>
        <time>2017-03-31T21:23:34Z</time>
      </trkpt>
      <trkpt lat="47.77904" lon="5.05434">
        <ele>355.019</ele>
        <time>2017-03-31T21:23:54Z</time>
      </trkpt>
      <trkpt lat="47.77804" lon="5.05377">
        <ele>350.688</ele>
        <time>2017-03-31T21:24:14Z</time>
      </trkpt>
      <trkpt lat="47.77723" lon="5.05344">
        <ele>347.371</ele>
        <time>2017-03-31T21:24:34Z</time>
      </trkpt>
      <trkpt lat="47.7766" lon="5.05339">
        <ele>352.458</ele>
        <time>2017-03-31T21:24:54Z</time>
      </trkpt>
      <trkpt lat="47.77658" lon="5.05316">
        <ele>353.112</ele>
        <time>2017-03-31T21:25:14Z</time>
      </trkpt>
      <trkpt lat="47.7763" lon="5.05281">
        <ele>358.052</ele>
        <time>2017-03-31T21:25:34Z</time>
      </trkpt>
      <trkpt lat="47.77577" lon="5.05278">
        <ele>364.253</ele>
        <time>2017-03-31T21:25:54Z</time>
      </trkpt>
      <trkpt lat="47.77523" lon="5.05287">
        <ele>367.308</ele>
        <time>2017-03-31T21:26:14Z</time>
      </trkpt>
      <trkpt lat="47.7743" lon="5.05295">
        <ele>374.308</ele>
        <time>2017-03-31T21:26:34Z</time>
      </trkpt>
      <trkpt lat="47.77375" lon="5.05277">
        <ele>382.271</ele>
        <time>2017-03-31T21:26:54Z</time>
      </trkpt>
      <trkpt lat="47.77305" lon="5.05277">
        <ele>384.196</ele>
        <time>2017-03-31T21:27:14Z</time>
      </trkpt>
      <trkpt lat="47.77172" lon="5.05339">
        <ele>384.157</ele>
        <time>2017-03-31T21:27:34Z</time>
      </trkpt>
      <trkpt lat="47.77161" lon="5.0522">
        <ele>402.272</ele>
        <time>2017-03-31T21:27:54Z</time>
      </trkpt>
      <trkpt lat="47.77049" lon="5.05213">
        <ele>413.561</ele>
        <time>2017-03-31T21:28:14Z</time>
      </trkpt>
      <trkpt lat="47.76933" lon="5.05254">
        <ele>420.844</ele>
        <time>2017-03-31T21:28:34Z</time>
      </trkpt>
      <trkpt lat="47.76816" lon="5.05243">
        <ele>430.491</ele>
        <time>2017-03-31T21:28:54Z</time>
      </trkpt>
      <trkpt lat="47.76774" lon="5.05232">
        <ele>428.295</ele>
        <time>2017-03-31T21:29:14Z</time>
      </trkpt>
      <trkpt lat="47.76688" lon="5.05169">
        <ele>429.756</ele>
        <time>2017-03-31T21:29:34Z</time>
      </trkpt>
      <trkpt lat="47.76655" lon="5.05151">
        <ele>428.959</ele>
        <time>2017-03-31T21:29:54Z</time>
      </trkpt>
      <trkpt lat="47.76616" lon="5.05139">
        <ele>426.514</ele>
        <time>2017-03-31T21:30:14Z</time>
      </trkpt>
      <trkpt lat="47.76584" lon="5.05125">
        <ele>426.608</ele>
        <time>2017-03-31T21:30:34Z</time>
      </trkpt>
      <trkpt lat="47.76522" lon="5.0505">
        <ele>432.761</ele>
        <time>2017-03-31T21:30:54Z</time>
      </trkpt>
      <trkpt lat="47.76495" lon="5.05023">
        <ele>431.236</ele>
        <time>2017-03-31T21:31:14Z</time>
      </trkpt>
      <trkpt lat="47.76468" lon="5.05015">
        <ele>430.127</ele>
        <time>2017-03-31T21:31:34Z</time>
      </trkpt>
      <trkpt lat="47.76444" lon="5.05018">
        <ele>431.542</ele>
        <time>2017-03-31T21:31:54Z</time>
      </trkpt>
      <trkpt lat="47.76405" lon="5.0505">
        <ele>428.751</ele>
        <time>2017-03-31T21:32:14Z</time>
      </trkpt>
      <trkpt lat="47.76375" lon="5.05086">
        <ele>423.214</ele>
        <time>2017-03-31T21:32:34Z</time>
      </trkpt>
      <trkpt lat="47.76337" lon="5.05172">
        <ele>410.591</ele>
        <time>2017-03-31T21:32:54Z</time>
      </trkpt>
      <trkpt lat="47.7631" lon="5.05225">
        <ele>409.725</ele>
        <time>2017-03-31T21:33:14Z</time>
      </trkpt>
      <trkpt lat="47.76263" lon="5.05263">
        <ele>411.542</ele>
        <time>2017-03-31T21:33:34Z</time>
      </trkpt>
      <trkpt lat="47.7624" lon="5.05277">
        <ele>408.422</ele>
        <time>2017-03-31T21:33:54Z</time>
      </trkpt>
      <trkpt lat="47.76094" lon="5.05298">
        <ele>408.014</ele>
        <time>2017-03-31T21:34:14Z</time>
      </trkpt>
      <trkpt lat="47.75964" lon="5.05283">
        <ele>404.408</ele>
        <time>2017-03-31T21:34:34Z</time>
      </trkpt>
      <trkpt lat="47.75823" lon="5.05252">
        <ele>405.55</ele>
        <time>2017-03-31T21:34:54Z</time>
      </trkpt>
      <trkpt lat="47.75694" lon="5.05216">
        <ele>406.055</ele>
        <time>2017-03-31T21:35:14Z</time>
      </trkpt>
      <trkpt lat="47.75585" lon="5.05166">
        <ele>415.256</ele>
        <time>2017-03-31T21:35:34Z</time>
      </trkpt>
      <trkpt lat="47.75541" lon="5.05183">
        <ele>406.621</ele>
        <time>2017-03-31T21:35:54Z</time>
      </trkpt>
      <trkpt lat="47.75413" lon="5.05179">
        <ele>422.86</ele>
        <time>2017-03-31T21:36:14Z</time>
      </trkpt>
      <trkpt lat="47.75363" lon="5.05149">
        <ele>419.223</ele>
        <time>2017-03-31T21:36:34Z</time>
      </trkpt>
      <trkpt lat="47.75327" lon="5.05077">
        <ele>431.72</ele>
        <time>2017-03-31T21:36:54Z</time>
      </trkpt>
      <trkpt lat="47.75307" lon="5.05058">
        <ele>430.844</ele>
        <time>2017-03-31T21:37:14Z</time>
      </trkpt>
      <trkpt lat="47.75215" lon="5.0503">
        <ele>417.924</ele>
        <time>2017-03-31T21:37:34Z</time>
      </trkpt>
      <trkpt lat="47.75162" lon="5.05063">
        <ele>409.104</ele>
        <time>2017-03-31T21:37:54Z</time>
      </trkpt>
      <trkpt lat="47.75158" lon="5.0512">
        <ele>406.914</ele>
        <time>2017-03-31T21:38:14Z</time>
      </trkpt>
      <trkpt lat="47.75157" lon="5.05172">
        <ele>406.608</ele>
        <time>2017-03-31T21:38:34Z</time>
      </trkpt>
      <trkpt lat="47.75177" lon="5.05228">
        <ele>401.998</ele>
        <time>2017-03-31T21:38:54Z</time>
      </trkpt>
      <trkpt lat="47.75209" lon="5.05283">
        <ele>395.953</ele>
        <time>2017-03-31T21:39:14Z</time>
      </trkpt>
      <trkpt lat="47.75219" lon="5.05347">
        <ele>403.024</ele>
        <time>2017-03-31T21:39:34Z</time>
      </trkpt>
      <trkpt lat="47.75237" lon="5.05416">
        <ele>404.459</ele>
        <time>2017-03-31T21:39:54Z</time>
      </trkpt>
      <trkpt lat="47.7524" lon="5.05456">
        <ele>406.268</ele>
        <time>2017-03-31T21:40:14Z</time>
      </trkpt>
      <trkpt lat="47.75218" lon="5.05474">
        <ele>413.671</ele>
        <time>2017-03-31T21:40:34Z</time>
      </trkpt>
      <trkpt lat="47.75184" lon="5.05537">
        <ele>431.338</ele>
        <time>2017-03-31T21:40:54Z</time>
      </trkpt>
      <trkpt lat="47.75148" lon="5.05574">
        <ele>439.962</ele>
        <time>2017-03-31T21:41:14Z</time>
      </trkpt>
      <trkpt lat="47.75163" lon="5.05909">
        <ele>398.483</ele>
        <time>2017-03-31T21:41:34Z</time>
      </trkpt>
      <trkpt lat="47.74993" lon="5.0601">
        <ele>421.225</ele>
        <time>2017-03-31T21:41:54Z</time>
      </trkpt>
      <trkpt lat="47.74888" lon="5.06054">
        <ele>431.017</ele>
        <time>2017-03-31T21:42:14Z</time>
      </trkpt>
      <trkpt lat="47.74798" lon="5.06072">
        <ele>440.108</ele>
        <time>2017-03-31T21:42:34Z</time>
      </trkpt>
      <trkpt lat="47.74519" lon="5.06193">
        <ele>463.194</ele>
        <time>2017-03-31T21:42:54Z</time>
      </trkpt>
      <trkpt lat="47.7451" lon="5.06415">
        <ele>470.069</ele>
        <time>2017-03-31T21:43:14Z</time>
      </trkpt>
      <trkpt lat="47.74512" lon="5.06475">
        <ele>471.11</ele>
        <time>2017-03-31T21:43:34Z</time>
      </trkpt>
      <trkpt lat="47.74531" lon="5.06547">
        <ele>472.865</ele>
        <time>2017-03-31T21:43:54Z</time>
      </trkpt>
      <trkpt lat="47.74212" lon="5.06797">
        <ele>469.344</ele>
        <time>2017-03-31T21:44:14Z</time>
      </trkpt>
      <trkpt lat="47.74126" lon="5.06764">
        <ele>462.527</ele>
        <time>2017-03-31T21:44:34Z</time>
      </trkpt>
      <trkpt lat="47.74105" lon="5.06763">
        <ele>461.564</ele>
        <time>2017-03-31T21:44:54Z</time>
      </trkpt>
      <trkpt lat="47.74076" lon="5.06774">
        <ele>461.928</ele>
        <time>2017-03-31T21:45:14Z</time>
      </trkpt>
      <trkpt lat="47.74054" lon="5.0679">
        <ele>462.437</ele>
        <time>2017-03-31T21:45:34Z</time>
      </trkpt>
      <trkpt lat="47.7404" lon="5.06809">
        <ele>462.449</ele>
        <time>2017-03-31T21:45:54Z</time>
      </trkpt>
      <trkpt lat="47.74011" lon="5.06905">
        <ele>459.413</ele>
        <time>2017-03-31T21:46:14Z</time>
      </trkpt>
      <trkpt lat="47.73958" lon="5.06765">
        <ele>461.308</ele>
        <time>2017-03-31T21:46:34Z</time>
      </trkpt>
      <trkpt lat="47.73954" lon="5.06722">
        <ele>461.979</ele>
        <time>2017-03-31T21:46:54Z</time>
      </trkpt>
      <trkpt lat="47.73941" lon="5.06726">
        <ele>463.064</ele>
        <time>2017-03-31T21:47:14Z</time>
      </trkpt>
      <trkpt lat="47.73833" lon="5.06871">
        <ele>457.675</ele>
        <time>2017-03-31T21:47:34Z</time>
      </trkpt>
      <trkpt lat="47.73763" lon="5.06933">
        <ele>453.84</ele>
        <time>2017-03-31T21:47:54Z</time>
      </trkpt>
      <trkpt lat="47.73722" lon="5.06929">
        <ele>450.639</ele>
        <time>2017-03-31T21:48:14Z</time>
      </trkpt>
      <trkpt lat="47.73675" lon="5.06904">
        <ele>443.022</ele>
        <time>2017-03-31T21:48:34Z</time>
      </trkpt>
      <trkpt lat="47.7358" lon="5.06784">
        <ele>431.379</ele>
        <time>2017-03-31T21:48:54Z</time>
      </trkpt>
      <trkpt lat="47.73531" lon="5.06688">
        <ele>416.143</ele>
        <time>2017-03-31T21:49:14Z</time>
      </trkpt>
      <trkpt lat="47.73502" lon="5.06656">
        <ele>412.298</ele>
        <time>2017-03-31T21:49:34Z</time>
      </trkpt>
      <trkpt lat="47.7349" lon="5.06658">
        <ele>408.515</ele>
        <time>2017-03-31T21:49:54Z</time>
      </trkpt>
      <trkpt lat="47.73464" lon="5.06644">
        <ele>403.526</ele>
        <time>2017-03-31T21:50:14Z</time>
      </trkpt>
      <trkpt lat="47.73451" lon="5.06692">
        <ele>399.608</ele>
        <time>2017-03-31T21:50:34Z</time>
      </trkpt>
      <trkpt lat="47.73406" lon="5.06697">
        <ele>396.855</ele>
        <time>2017-03-31T21:50:54Z</time>
      </trkpt>
      <trkpt lat="47.73407" lon="5.06727">
        <ele>396.57</ele>
        <time>2017-03-31T21:51:14Z</time>
      </trkpt>
      <trkpt lat="47.73381" lon="5.06814">
        <ele>396.931</ele>
        <time>2017-03-31T21:51:34Z</time>
      </trkpt>
      <trkpt lat="47.73382" lon="5.06855">
        <ele>401.516</ele>
        <time>2017-03-31T21:51:54Z</time>
      </trkpt>
      <trkpt lat="47.73416" lon="5.07027">
        <ele>409.195</ele>
        <time>2017-03-31T21:52:14Z</time>
      </trkpt>
      <trkpt lat="47.73415" lon="5.07068">
        <ele>409.358</ele>
        <time>2017-03-31T21:52:34Z</time>
      </trkpt>
      <trkpt lat="47.73402" lon="5.07114">
        <ele>407.385</ele>
        <time>2017-03-31T21:52:54Z</time>
      </trkpt>
      <trkpt lat="47.73368" lon="5.07182">
        <ele>408.649</ele>
        <time>2017-03-31T21:53:14Z</time>
      </trkpt>
      <trkpt lat="47.73353" lon="5.07233">
        <ele>413.544</ele>
        <time>2017-03-31T21:53:34Z</time>
      </trkpt>
      <trkpt lat="47.73327" lon="5.07266">
        <ele>417.705</ele>
        <time>2017-03-31T21:53:54Z</time>
      </trkpt>
      <trkpt lat="47.73293" lon="5.07288">
        <ele>422.515</ele>
        <time>2017-03-31T21:54:14Z</time>
      </trkpt>
      <trkpt lat="47.73257" lon="5.07302">
        <ele>428.108</ele>
        <time>2017-03-31T21:54:34Z</time>
      </trkpt>
      <trkpt lat="47.73219" lon="5.07302">
        <ele>434.35</ele>
        <time>2017-03-31T21:54:54Z</time>
      </trkpt>
      <trkpt lat="47.73126" lon="5.07257">
        <ele>447.415</ele>
        <time>2017-03-31T21:55:14Z</time>
      </trkpt>
      <trkpt lat="47.73" lon="5.07211">
        <ele>460.616</ele>
        <time>2017-03-31T21:55:34Z</time>
      </trkpt>
      <trkpt lat="47.7296" lon="5.07214">
        <ele>462.821</ele>
        <time>2017-03-31T21:55:54Z</time>
      </trkpt>
      <trkpt lat="47.72901" lon="5.07238">
        <ele>466.79</ele>
        <time>2017-03-31T21:56:14Z</time>
      </trkpt>
      <trkpt lat="47.72832" lon="5.07242">
        <ele>469.993</ele>
        <time>2017-03-31T21:56:34Z</time>
      </trkpt>
      <trkpt lat="47.72764" lon="5.07309">
        <ele>469.16</ele>
        <time>2017-03-31T21:56:54Z</time>
      </trkpt>
      <trkpt lat="47.72728" lon="5.07301">
        <ele>469.854</ele>
        <time>2017-03-31T21:57:14Z</time>
      </trkpt>
      <trkpt lat="47.72688" lon="5.07299">
        <ele>471.857</ele>
        <time>2017-03-31T21:57:34Z</time>
      </trkpt>
      <trkpt lat="47.72625" lon="5.07359">
        <ele>471</ele>
        <time>2017-03-31T21:57:54Z</time>
      </trkpt>
      <trkpt lat="47.72537" lon="5.07361">
        <ele>475.32</ele>
        <time>2017-03-31T21:58:14Z</time>
      </trkpt>
      <trkpt lat="47.7248" lon="5.07336">
        <ele>484.408</ele>
        <time>2017-03-31T21:58:34Z</time>
      </trkpt>
      <trkpt lat="47.72419" lon="5.07362">
        <ele>487.041</ele>
        <time>2017-03-31T21:58:54Z</time>
      </trkpt>
      <trkpt lat="47.72374" lon="5.07339">
        <ele>485.316</ele>
        <time>2017-03-31T21:59:14Z</time>
      </trkpt>
      <trkpt lat="47.72269" lon="5.07191">
        <ele>485.787</ele>
        <time>2017-03-31T21:59:34Z</time>
      </trkpt>
      <trkpt lat="47.72203" lon="5.07059">
        <ele>486.952</ele>
        <time>2017-03-31T21:59:54Z</time>
      </trkpt>
      <trkpt lat="47.72203" lon="5.07059">
        <ele>486.961</ele>
        <time>2017-03-31T22:00:14Z</time>
      </trkpt>
      <trkpt lat="47.72131" lon="5.06992">
        <ele>480.924</ele>
        <time>2017-03-31T22:00:34Z</time>
      </trkpt>
      <trkpt lat="47.7207" lon="5.06994">
        <ele>481.591</ele>
        <time>2017-03-31T22:00:54Z</time>
      </trkpt>
      <trkpt lat="47.72127" lon="5.06825">
        <ele>482.175</ele>
        <time>2017-03-31T22:01:14Z</time>
      </trkpt>
      <trkpt lat="47.72158" lon="5.06629">
        <ele>482.711</ele>
        <time>2017-03-31T22:01:34Z</time>
      </trkpt>
      <trkpt lat="47.72157" lon="5.06456">
        <ele>481.321</ele>
        <time>2017-03-31T22:01:54Z</time>
      </trkpt>
      <trkpt lat="47.72134" lon="5.06312">
        <ele>480.203</ele>
        <time>2017-03-31T22:02:14Z</time>
      </trkpt>
      <trkpt lat="47.72082" lon="5.06127">
        <ele>478.508</ele>
        <time>2017-03-31T22:02:34Z</time>
      </trkpt>
      <trkpt lat="47.7202" lon="5.06151">
        <ele>480.987</ele>
        <time>2017-03-31T22:02:54Z</time>
      </trkpt>
      <trkpt lat="47.72007" lon="5.06127">
        <ele>482.192</ele>
        <time>2017-03-31T22:03:14Z</time>
      </trkpt>
      <trkpt lat="47.71723" lon="5.06127">
        <ele>483.093</ele>
        <time>2017-03-31T22:03:34Z</time>
      </trkpt>
      <trkpt lat="47.71632" lon="5.06097">
        <ele>477.548</ele>
        <time>2017-03-31T22:03:54Z</time>
      </trkpt>
      <trkpt lat="47.71523" lon="5.06119">
        <ele>473.757</ele>
        <time>2017-03-31T22:04:14Z</time>
      </trkpt>
      <trkpt lat="47.71486" lon="5.0614">
        <ele>474.57</ele>
        <time>2017-03-31T22:04:34Z</time>
      </trkpt>
      <trkpt lat="47.71399" lon="5.06121">
        <ele>477.517</ele>
        <time>2017-03-31T22:04:54Z</time>
      </trkpt>
      <trkpt lat="47.7137" lon="5.06123">
        <ele>476.831</ele>
        <time>2017-03-31T22:05:14Z</time>
      </trkpt>
      <trkpt lat="47.71204" lon="5.05199">
        <ele>478.697</ele>
        <time>2017-03-31T22:05:34Z</time>
      </trkpt>
      <trkpt lat="47.71178" lon="5.05181">
        <ele>480.523</ele>
        <time>2017-03-31T22:05:54Z</time>
      </trkpt>
      <trkpt lat="47.71094" lon="5.0517">
        <ele>476.625</ele>
        <time>2017-03-31T22:06:14Z</time>
      </trkpt>
      <trkpt lat="47.71056" lon="5.0515">
        <ele>478.408</ele>
        <time>2017-03-31T22:06:34Z</time>
      </trkpt>
      <trkpt lat="47.70978" lon="5.05073">
        <ele>474.545</ele>
        <time>2017-03-31T22:06:54Z</time>
      </trkpt>
      <trkpt lat="47.7086" lon="5.05024">
        <ele>472.23</ele>
        <time>2017-03-31T22:07:14Z</time>
      </trkpt>
      <trkpt lat="47.70801" lon="5.05015">
        <ele>469.071</ele>
        <time>2017-03-31T22:07:34Z</time>
      </trkpt>
      <trkpt lat="47.70689" lon="5.05084">
        <ele>467.176</ele>
        <time>2017-03-31T22:07:54Z</time>
      </trkpt>
      <trkpt lat="47.70673" lon="5.05084">
        <ele>464.225</ele>
        <time>2017-03-31T22:08:14Z</time>
      </trkpt>
      <trkpt lat="47.70661" lon="5.05069">
        <ele>461.618</ele>
        <time>2017-03-31T22:08:34Z</time>
      </trkpt>
      <trkpt lat="47.70655" lon="5.05035">
        <ele>460.565</ele>
        <time>2017-03-31T22:08:54Z</time>
      </trkpt>
      <trkpt lat="47.7064" lon="5.0501">
        <ele>455.719</ele>
        <time>2017-03-31T22:09:14Z</time>
      </trkpt>
      <trkpt lat="47.70615" lon="5.04995">
        <ele>447.776</ele>
        <time>2017-03-31T22:09:34Z</time>
      </trkpt>
      <trkpt lat="47.70516" lon="5.05024">
        <ele>434.29</ele>
        <time>2017-03-31T22:09:54Z</time>
      </trkpt>
      <trkpt lat="47.70416" lon="5.05022">
        <ele>425.719</ele>
        <time>2017-03-31T22:10:14Z</time>
      </trkpt>
      <trkpt lat="47.70367" lon="5.05036">
        <ele>421.808</ele>
        <time>2017-03-31T22:10:34Z</time>
      </trkpt>
      <trkpt lat="47.70344" lon="5.05033">
        <ele>418.783</ele>
        <time>2017-03-31T22:10:54Z</time>
      </trkpt>
      <trkpt lat="47.70326" lon="5.05012">
        <ele>415.698</ele>
        <time>2017-03-31T22:11:14Z</time>
      </trkpt>
      <trkpt lat="47.70305" lon="5.04892">
        <ele>402.259</ele>
        <time>2017-03-31T22:11:34Z</time>
      </trkpt>
      <trkpt lat="47.7024" lon="5.04734">
        <ele>390.274</ele>
        <time>2017-03-31T22:11:54Z</time>
      </trkpt>
      <trkpt lat="47.70232" lon="5.0468">
        <ele>386.273</ele>
        <time>2017-03-31T22:12:14Z</time>
      </trkpt>
      <trkpt lat="47.70202" lon="5.04647">
        <ele>383.626</ele>
        <time>2017-03-31T22:12:34Z</time>
      </trkpt>
      <trkpt lat="47.70195" lon="5.04591">
        <ele>383.073</ele>
        <time>2017-03-31T22:12:54Z</time>
      </trkpt>
      <trkpt lat="47.70152" lon="5.04574">
        <ele>381.817</ele>
        <time>2017-03-31T22:13:14Z</time>
      </trkpt>
      <trkpt lat="47.70122" lon="5.04525">
        <ele>383.019</ele>
        <time>2017-03-31T22:13:34Z</time>
      </trkpt>
      <trkpt lat="47.70095" lon="5.04532">
        <ele>382.209</ele>
        <time>2017-03-31T22:13:54Z</time>
      </trkpt>
      <trkpt lat="47.70082" lon="5.045">
        <ele>381.019</ele>
        <time>2017-03-31T22:14:14Z</time>
      </trkpt>
      <trkpt lat="47.70073" lon="5.04428">
        <ele>380.008</ele>
        <time>2017-03-31T22:14:34Z</time>
      </trkpt>
      <trkpt lat="47.70042" lon="5.04386">
        <ele>382.767</ele>
        <time>2017-03-31T22:14:54Z</time>
      </trkpt>
      <trkpt lat="47.70002" lon="5.04312">
        <ele>386.742</ele>
        <time>2017-03-31T22:15:14Z</time>
      </trkpt>
      <trkpt lat="47.69924" lon="5.04221">
        <ele>397.283</ele>
        <time>2017-03-31T22:15:34Z</time>
      </trkpt>
      <trkpt lat="47.69806" lon="5.04098">
        <ele>440.478</ele>
        <time>2017-03-31T22:15:54Z</time>
      </trkpt>
      <trkpt lat="47.69757" lon="5.04012">
        <ele>451.797</ele>
        <time>2017-03-31T22:16:14Z</time>
      </trkpt>
      <trkpt lat="47.69734" lon="5.04016">
        <ele>457.72</ele>
        <time>2017-03-31T22:16:34Z</time>
      </trkpt>
      <trkpt lat="47.69763" lon="5.04277">
        <ele>452.337</ele>
        <time>2017-03-31T22:16:54Z</time>
      </trkpt>
      <trkpt lat="47.69347" lon="5.04215">
        <ele>445.161</ele>
        <time>2017-03-31T22:17:14Z</time>
      </trkpt>
      <trkpt lat="47.69342" lon="5.04169">
        <ele>448.632</ele>
        <time>2017-03-31T22:17:34Z</time>
      </trkpt>
      <trkpt lat="47.69285" lon="5.0388">
        <ele>461.492</ele>
        <time>2017-03-31T22:17:54Z</time>
      </trkpt>
      <trkpt lat="47.69251" lon="5.03769">
        <ele>462.111</ele>
        <time>2017-03-31T22:18:14Z</time>
      </trkpt>
      <trkpt lat="47.69014" lon="5.03765">
        <ele>443.508</ele>
        <time>2017-03-31T22:18:34Z</time>
      </trkpt>
      <trkpt lat="47.68775" lon="5.03767">
        <ele>445.919</ele>
        <time>2017-03-31T22:18:54Z</time>
      </trkpt>
      <trkpt lat="47.68779" lon="5.03676">
        <ele>444.444</ele>
        <time>2017-03-31T22:19:14Z</time>
      </trkpt>
      <trkpt lat="47.68748" lon="5.03716">
        <ele>445.565</ele>
        <time>2017-03-31T22:19:34Z</time>
      </trkpt>
      <trkpt lat="47.68718" lon="5.03739">
        <ele>445.34</ele>
        <time>2017-03-31T22:19:54Z</time>
      </trkpt>
      <trkpt lat="47.68661" lon="5.03743">
        <ele>442.389</ele>
        <time>2017-03-31T22:20:14Z</time>
      </trkpt>
      <trkpt lat="47.68605" lon="5.03765">
        <ele>440.282</ele>
        <time>2017-03-31T22:20:34Z</time>
      </trkpt>
      <trkpt lat="47.6858" lon="5.03783">
        <ele>439.879</ele>
        <time>2017-03-31T22:20:54Z</time>
      </trkpt>
      <trkpt lat="47.68548" lon="5.03838">
        <ele>438.873</ele>
        <time>2017-03-31T22:21:14Z</time>
      </trkpt>
      <trkpt lat="47.68509" lon="5.039">
        <ele>437.224</ele>
        <time>2017-03-31T22:21:34Z</time>
      </trkpt>
      <trkpt lat="47.68452" lon="5.03904">
        <ele>432.604</ele>
        <time>2017-03-31T22:21:54Z</time>
      </trkpt>
      <trkpt lat="47.68424" lon="5.03947">
        <ele>423.914</ele>
        <time>2017-03-31T22:22:14Z</time>
      </trkpt>
      <trkpt lat="47.68399" lon="5.03955">
        <ele>418.308</ele>
        <time>2017-03-31T22:22:34Z</time>
      </trkpt>
      <trkpt lat="47.68378" lon="5.03949">
        <ele>416.118</ele>
        <time>2017-03-31T22:22:54Z</time>
      </trkpt>
      <trkpt lat="47.68338" lon="5.03925">
        <ele>413.383</ele>
        <time>2017-03-31T22:23:14Z</time>
      </trkpt>
      <trkpt lat="47.68314" lon="5.03899">
        <ele>411.784</ele>
        <time>2017-03-31T22:23:34Z</time>
      </trkpt>
      <trkpt lat="47.68296" lon="5.03862">
        <ele>408.799</ele>
        <time>2017-03-31T22:23:54Z</time>
      </trkpt>
      <trkpt lat="47.68278" lon="5.03758">
        <ele>407.018</ele>
        <time>2017-03-31T22:24:14Z</time>
      </trkpt>
      <trkpt lat="47.6828" lon="5.03697">
        <ele>407.971</ele>
        <time>2017-03-31T22:24:34Z</time>
      </trkpt>
      <trkpt lat="47.68317" lon="5.03589">
        <ele>414.518</ele>
        <time>2017-03-31T22:24:54Z</time>
      </trkpt>
      <trkpt lat="47.68369" lon="5.03504">
        <ele>418.642</ele>
        <time>2017-03-31T22:25:14Z</time>
      </trkpt>
      <trkpt lat="47.68372" lon="5.03465">
        <ele>424.573</ele>
        <time>2017-03-31T22:25:34Z</time>
      </trkpt>
      <trkpt lat="47.68274" lon="5.03493">
        <ele>433.185</ele>
        <time>2017-03-31T22:25:54Z</time>
      </trkpt>
      <trkpt lat="47.68251" lon="5.03476">
        <ele>435.713</ele>
        <time>2017-03-31T22:26:14Z</time>
      </trkpt>
      <trkpt lat="47.68234" lon="5.03442">
        <ele>438.008</ele>
        <time>2017-03-31T22:26:34Z</time>
      </trkpt>
      <trkpt lat="47.68199" lon="5.03413">
        <ele>438.183</ele>
        <time>2017-03-31T22:26:54Z</time>
      </trkpt>
      <trkpt lat="47.68119" lon="5.03399">
        <ele>434.648</ele>
        <time>2017-03-31T22:27:14Z</time>
      </trkpt>
      <trkpt lat="47.68064" lon="5.03359">
        <ele>431.279</ele>
        <time>2017-03-31T22:27:34Z</time>
      </trkpt>
      <trkpt lat="47.67958" lon="5.03245">
        <ele>418.594</ele>
        <time>2017-03-31T22:27:54Z</time>
      </trkpt>
      <trkpt lat="47.67786" lon="5.03082">
        <ele>406.253</ele>
        <time>2017-03-31T22:28:14Z</time>
      </trkpt>
      <trkpt lat="47.67747" lon="5.03021">
        <ele>403.946</ele>
        <time>2017-03-31T22:28:34Z</time>
      </trkpt>
      <trkpt lat="47.67734" lon="5.03013">
        <ele>404.353</ele>
        <time>2017-03-31T22:28:54Z</time>
      </trkpt>
      <trkpt lat="47.67615" lon="5.03213">
        <ele>399.177</ele>
        <time>2017-03-31T22:29:14Z</time>
      </trkpt>
      <trkpt lat="47.67562" lon="5.03273">
        <ele>392.523</ele>
        <time>2017-03-31T22:29:34Z</time>
      </trkpt>
      <trkpt lat="47.67534" lon="5.03297">
        <ele>388.583</ele>
        <time>2017-03-31T22:29:54Z</time>
      </trkpt>
      <trkpt lat="47.67479" lon="5.03306">
        <ele>387.011</ele>
        <time>2017-03-31T22:30:14Z</time>
      </trkpt>
      <trkpt lat="47.67408" lon="5.03247">
        <ele>380.308</ele>
        <time>2017-03-31T22:30:34Z</time>
      </trkpt>
      <trkpt lat="47.67334" lon="5.03206">
        <ele>378.688</ele>
        <time>2017-03-31T22:30:54Z</time>
      </trkpt>
      <trkpt lat="47.67297" lon="5.03152">
        <ele>374.753</ele>
        <time>2017-03-31T22:31:14Z</time>
      </trkpt>
      <trkpt lat="47.67205" lon="5.0309">
        <ele>373.414</ele>
        <time>2017-03-31T22:31:34Z</time>
      </trkpt>
      <trkpt lat="47.67161" lon="5.03051">
        <ele>370.279</ele>
        <time>2017-03-31T22:31:54Z</time>
      </trkpt>
      <trkpt lat="47.67049" lon="5.03037">
        <ele>377.298</ele>
        <time>2017-03-31T22:32:14Z</time>
      </trkpt>
      <trkpt lat="47.67019" lon="5.03051">
        <ele>382.731</ele>
        <time>2017-03-31T22:32:34Z</time>
      </trkpt>
      <trkpt lat="47.66962" lon="5.03061">
        <ele>376.838</ele>
        <time>2017-03-31T22:32:54Z</time>
      </trkpt>
      <trkpt lat="47.66845" lon="5.03113">
        <ele>376.212</ele>
        <time>2017-03-31T22:33:14Z</time>
      </trkpt>
      <trkpt lat="47.66788" lon="5.03123">
        <ele>374.018</ele>
        <time>2017-03-31T22:33:34Z</time>
      </trkpt>
      <trkpt lat="47.66758" lon="5.03111">
        <ele>369.298</ele>
        <time>2017-03-31T22:33:54Z</time>
      </trkpt>
      <trkpt lat="47.6672" lon="5.02968">
        <ele>357.217</ele>
        <time>2017-03-31T22:34:14Z</time>
      </trkpt>
      <trkpt lat="47.66699" lon="5.02925">
        <ele>359.408</ele>
        <time>2017-03-31T22:34:34Z</time>
      </trkpt>
      <trkpt lat="47.66657" lon="5.02944">
        <ele>354.387</ele>
        <time>2017-03-31T22:34:54Z</time>
      </trkpt>
      <trkpt lat="47.66577" lon="5.02899">
        <ele>353.712</ele>
        <time>2017-03-31T22:35:14Z</time>
      </trkpt>
      <trkpt lat="47.66544" lon="5.02863">
        <ele>352.643</ele>
        <time>2017-03-31T22:35:34Z</time>
      </trkpt>
      <trkpt lat="47.66525" lon="5.02827">
        <ele>353.428</ele>
        <time>2017-03-31T22:35:54Z</time>
      </trkpt>
      <trkpt lat="47.66468" lon="5.02799">
        <ele>350.017</ele>
        <time>2017-03-31T22:36:14Z</time>
      </trkpt>
      <trkpt lat="47.66448" lon="5.02777">
        <ele>350.22</ele>
        <time>2017-03-31T22:36:34Z</time>
      </trkpt>
      <trkpt lat="47.66411" lon="5.02766">
        <ele>352.967</ele>
        <time>2017-03-31T22:36:54Z</time>
      </trkpt>
      <trkpt lat="47.66374" lon="5.02783">
        <ele>362.451</ele>
        <time>2017-03-31T22:37:14Z</time>
      </trkpt>
      <trkpt lat="47.66319" lon="5.0288">
        <ele>367.464</ele>
        <time>2017-03-31T22:37:34Z</time>
      </trkpt>
      <trkpt lat="47.66235" lon="5.02984">
        <ele>376.006</ele>
        <time>2017-03-31T22:37:54Z</time>
      </trkpt>
      <trkpt lat="47.66146" lon="5.032">
        <ele>378.216</ele>
        <time>2017-03-31T22:38:14Z</time>
      </trkpt>
      <trkpt lat="47.66094" lon="5.03276">
        <ele>378.908</ele>
        <time>2017-03-31T22:38:34Z</time>
      </trkpt>
      <trkpt lat="47.6605" lon="5.03302">
        <ele>383.772</ele>
        <time>2017-03-31T22:38:54Z</time>
      </trkpt>
      <trkpt lat="47.66052" lon="5.03273">
        <ele>389.677</ele>
        <time>2017-03-31T22:39:14Z</time>
      </trkpt>
      <trkpt lat="47.6607" lon="5.03206">
        <ele>397.878</ele>
        <time>2017-03-31T22:39:34Z</time>
      </trkpt>
      <trkpt lat="47.66093" lon="5.03134">
        <ele>399.383</ele>
        <time>2017-03-31T22:39:54Z</time>
      </trkpt>
      <trkpt lat="47.66068" lon="5.03025">
        <ele>412.712</ele>
        <time>2017-03-31T22:40:14Z</time>
      </trkpt>
      <trkpt lat="47.66003" lon="5.03034">
        <ele>420.175</ele>
        <time>2017-03-31T22:40:34Z</time>
      </trkpt>
      <trkpt lat="47.65973" lon="5.03056">
        <ele>423.982</ele>
        <time>2017-03-31T22:40:54Z</time>
      </trkpt>
      <trkpt lat="47.65878" lon="5.03159">
        <ele>438.426</ele>
        <time>2017-03-31T22:41:14Z</time>
      </trkpt>
      <trkpt lat="47.65816" lon="5.03235">
        <ele>443.385</ele>
        <time>2017-03-31T22:41:34Z</time>
      </trkpt>
      <trkpt lat="47.65781" lon="5.03253">
        <ele>447.489</ele>
        <time>2017-03-31T22:41:54Z</time>
      </trkpt>
      <trkpt lat="47.65743" lon="5.03249">
        <ele>451.317</ele>
        <time>2017-03-31T22:42:14Z</time>
      </trkpt>
      <trkpt lat="47.6567" lon="5.03195">
        <ele>453.108</ele>
        <time>2017-03-31T22:42:34Z</time>
      </trkpt>
      <trkpt lat="47.65641" lon="5.03166">
        <ele>454.124</ele>
        <time>2017-03-31T22:42:54Z</time>
      </trkpt>
      <trkpt lat="47.65596" lon="5.03088">
        <ele>451.099</ele>
        <time>2017-03-31T22:43:14Z</time>
      </trkpt>
      <trkpt lat="47.65506" lon="5.03003">
        <ele>448.25</ele>
        <time>2017-03-31T22:43:34Z</time>
      </trkpt>
      <trkpt lat="47.6543" lon="5.02943">
        <ele>453.735</ele>
        <time>2017-03-31T22:43:54Z</time>
      </trkpt>
      <trkpt lat="47.65399" lon="5.02935">
        <ele>453.964</ele>
        <time>2017-03-31T22:44:14Z</time>
      </trkpt>
      <trkpt lat="47.65283" lon="5.0292">
        <ele>451.047</ele>
        <time>2017-03-31T22:44:34Z</time>
      </trkpt>
      <trkpt lat="47.65227" lon="5.02898">
        <ele>450.424</ele>
        <time>2017-03-31T22:44:54Z</time>
      </trkpt>
      <trkpt lat="47.64916" lon="5.02558">
        <ele>417.118</ele>
        <time>2017-03-31T22:45:14Z</time>
      </trkpt>
      <trkpt lat="47.6483" lon="5.02479">
        <ele>408.489</ele>
        <time>2017-03-31T22:45:34Z</time>
      </trkpt>
      <trkpt lat="47.64741" lon="5.02368">
        <ele>394.906</ele>
        <time>2017-03-31T22:45:54Z</time>
      </trkpt>
      <trkpt lat="47.64652" lon="5.02278">
        <ele>392.026</ele>
        <time>2017-03-31T22:46:14Z</time>
      </trkpt>
      <trkpt lat="47.6464" lon="5.02256">
        <ele>389.808</ele>
        <time>2017-03-31T22:46:34Z</time>
      </trkpt>
      <trkpt lat="47.64622" lon="5.02244">
        <ele>386.484</ele>
        <time>2017-03-31T22:46:54Z</time>
      </trkpt>
      <trkpt lat="47.64577" lon="5.02247">
        <ele>383.749</ele>
        <time>2017-03-31T22:47:14Z</time>
      </trkpt>
      <trkpt lat="47.64491" lon="5.02292">
        <ele>372.91</ele>
        <time>2017-03-31T22:47:34Z</time>
      </trkpt>
      <trkpt lat="47.64441" lon="5.0233">
        <ele>364.995</ele>
        <time>2017-03-31T22:47:54Z</time>
      </trkpt>
      <trkpt lat="47.64357" lon="5.02407">
        <ele>350.784</ele>
        <time>2017-03-31T22:48:14Z</time>
      </trkpt>
      <trkpt lat="47.64332" lon="5.02404">
        <ele>343.137</ele>
        <time>2017-03-31T22:48:34Z</time>
      </trkpt>
      <trkpt lat="47.64375" lon="5.02322">
        <ele>344.874</ele>
        <time>2017-03-31T22:48:54Z</time>
      </trkpt>
      <trkpt lat="47.6453" lon="5.02119">
        <ele>349.068</ele>
        <time>2017-03-31T22:49:14Z</time>
      </trkpt>
      <trkpt lat="47.64624" lon="5.02006">
        <ele>344.584</ele>
        <time>2017-03-31T22:49:34Z</time>
      </trkpt>
      <trkpt lat="47.64622" lon="5.01952">
        <ele>340.107</ele>
        <time>2017-03-31T22:49:54Z</time>
      </trkpt>
      <trkpt lat="47.64657" lon="5.01883">
        <ele>347.517</ele>
        <time>2017-03-31T22:50:14Z</time>
      </trkpt>
      <trkpt lat="47.64707" lon="5.01767">
        <ele>345.508</ele>
        <time>2017-03-31T22:50:34Z</time>
      </trkpt>
      <trkpt lat="47.6481" lon="5.01571">
        <ele>345.914</ele>
        <time>2017-03-31T22:50:54Z</time>
      </trkpt>
      <trkpt lat="47.64857" lon="5.01475">
        <ele>343.279</ele>
        <time>2017-03-31T22:51:14Z</time>
      </trkpt>
      <trkpt lat="47.65006" lon="5.01222">
        <ele>344.04</ele>
        <time>2017-03-31T22:51:34Z</time>
      </trkpt>
      <trkpt lat="47.65047" lon="5.0116">
        <ele>346.015</ele>
        <time>2017-03-31T22:51:54Z</time>
      </trkpt>
      <trkpt lat="47.65054" lon="5.01099">
        <ele>343.264</ele>
        <time>2017-03-31T22:52:14Z</time>
      </trkpt>
      <trkpt lat="47.6509" lon="5.00981">
        <ele>340.757</ele>
        <time>2017-03-31T22:52:34Z</time>
      </trkpt>
      <trkpt lat="47.65082" lon="5.00957">
        <ele>339.534</ele>
        <time>2017-03-31T22:52:54Z</time>
      </trkpt>
      <trkpt lat="47.65085" lon="5.00919">
        <ele>338.978</ele>
        <time>2017-03-31T22:53:14Z</time>
      </trkpt>
      <trkpt lat="47.65076" lon="5.00898">
        <ele>339.358</ele>
        <time>2017-03-31T22:53:34Z</time>
      </trkpt>
      <trkpt lat="47.65031" lon="5.00849">
        <ele>341.552</ele>
        <time>2017-03-31T22:53:54Z</time>
      </trkpt>
      <trkpt lat="47.64984" lon="5.00753">
        <ele>356.817</ele>
        <time>2017-03-31T22:54:14Z</time>
      </trkpt>
      <trkpt lat="47.64982" lon="5.00708">
        <ele>361.308</ele>
        <time>2017-03-31T22:54:34Z</time>
      </trkpt>
      <trkpt lat="47.64963" lon="5.00791">
        <ele>359.151</ele>
        <time>2017-03-31T22:54:54Z</time>
      </trkpt>
      <trkpt lat="47.64879" lon="5.00852">
        <ele>374.136</ele>
        <time>2017-03-31T22:55:14Z</time>
      </trkpt>
      <trkpt lat="47.64836" lon="5.00854">
        <ele>386.947</ele>
        <time>2017-03-31T22:55:34Z</time>
      </trkpt>
      <trkpt lat="47.64702" lon="5.00886">
        <ele>401.922</ele>
        <time>2017-03-31T22:55:54Z</time>
      </trkpt>
      <trkpt lat="47.64679" lon="5.00897">
        <ele>402.051</ele>
        <time>2017-03-31T22:56:14Z</time>
      </trkpt>
      <trkpt lat="47.64644" lon="5.009">
        <ele>402.434</ele>
        <time>2017-03-31T22:56:34Z</time>
      </trkpt>
      <trkpt lat="47.64627" lon="5.00934">
        <ele>403.521</ele>
        <time>2017-03-31T22:56:54Z</time>
      </trkpt>
      <trkpt lat="47.64603" lon="5.01123">
        <ele>401.345</ele>
        <time>2017-03-31T22:57:14Z</time>
      </trkpt>
      <trkpt lat="47.64566" lon="5.01263">
        <ele>397.527</ele>
        <time>2017-03-31T22:57:34Z</time>
      </trkpt>
      <trkpt lat="47.64482" lon="5.0142">
        <ele>389.368</ele>
        <time>2017-03-31T22:57:54Z</time>
      </trkpt>
      <trkpt lat="47.64361" lon="5.01551">
        <ele>389.514</ele>
        <time>2017-03-31T22:58:14Z</time>
      </trkpt>
      <trkpt lat="47.64269" lon="5.01609">
        <ele>389.808</ele>
        <time>2017-03-31T22:58:34Z</time>
      </trkpt>
      <trkpt lat="47.64209" lon="5.01619">
        <ele>388.728</ele>
        <time>2017-03-31T22:58:54Z</time>
      </trkpt>
      <trkpt lat="47.64147" lon="5.01602">
        <ele>388.183</ele>
        <time>2017-03-31T22:59:14Z</time>
      </trkpt>
      <trkpt lat="47.64061" lon="5.01547">
        <ele>389.584</ele>
        <time>2017-03-31T22:59:34Z</time>
      </trkpt>
      <trkpt lat="47.63985" lon="5.01503">
        <ele>390.189</ele>
        <time>2017-03-31T22:59:54Z</time>
      </trkpt>
      <trkpt lat="47.63969" lon="5.0151">
        <ele>389.448</ele>
        <time>2017-03-31T23:00:14Z</time>
      </trkpt>
      <trkpt lat="47.63948" lon="5.0162">
        <ele>389.971</ele>
        <time>2017-03-31T23:00:34Z</time>
      </trkpt>
      <trkpt lat="47.63918" lon="5.01639">
        <ele>393.818</ele>
        <time>2017-03-31T23:00:54Z</time>
      </trkpt>
      <trkpt lat="47.63889" lon="5.01667">
        <ele>397.032</ele>
        <time>2017-03-31T23:01:14Z</time>
      </trkpt>
      <trkpt lat="47.63827" lon="5.01654">
        <ele>399.286</ele>
        <time>2017-03-31T23:01:34Z</time>
      </trkpt>
      <trkpt lat="47.63748" lon="5.01605">
        <ele>405.16</ele>
        <time>2017-03-31T23:01:54Z</time>
      </trkpt>
      <trkpt lat="47.63586" lon="5.01602">
        <ele>402.426</ele>
        <time>2017-03-31T23:02:14Z</time>
      </trkpt>
      <trkpt lat="47.63533" lon="5.01585">
        <ele>402.008</ele>
        <time>2017-03-31T23:02:34Z</time>
      </trkpt>
      <trkpt lat="47.63366" lon="5.01546">
        <ele>395.854</ele>
        <time>2017-03-31T23:02:54Z</time>
      </trkpt>
      <trkpt lat="47.63292" lon="5.01541">
        <ele>391.559</ele>
        <time>2017-03-31T23:03:14Z</time>
      </trkpt>
      <trkpt lat="47.63241" lon="5.01561">
        <ele>389.56</ele>
        <time>2017-03-31T23:03:34Z</time>
      </trkpt>
      <trkpt lat="47.632" lon="5.01582">
        <ele>383.955</ele>
        <time>2017-03-31T23:03:54Z</time>
      </trkpt>
      <trkpt lat="47.63098" lon="5.01562">
        <ele>375.474</ele>
        <time>2017-03-31T23:04:14Z</time>
      </trkpt>
      <trkpt lat="47.63066" lon="5.01532">
        <ele>374.527</ele>
        <time>2017-03-31T23:04:34Z</time>
      </trkpt>
      <trkpt lat="47.63015" lon="5.01465">
        <ele>372.914</ele>
        <time>2017-03-31T23:04:54Z</time>
      </trkpt>
      <trkpt lat="47.62918" lon="5.01378">
        <ele>364.988</ele>
        <time>2017-03-31T23:05:14Z</time>
      </trkpt>
      <trkpt lat="47.62853" lon="5.01327">
        <ele>359.167</ele>
        <time>2017-03-31T23:05:34Z</time>
      </trkpt>
      <trkpt lat="47.62837" lon="5.01298">
        <ele>357.581</ele>
        <time>2017-03-31T23:05:54Z</time>
      </trkpt>
      <trkpt lat="47.62808" lon="5.01216">
        <ele>354.819</ele>
        <time>2017-03-31T23:06:14Z</time>
      </trkpt>
      <trkpt lat="47.6277" lon="5.01033">
        <ele>354.908</ele>
        <time>2017-03-31T23:06:34Z</time>
      </trkpt>
      <trkpt lat="47.62727" lon="5.00877">
        <ele>349.742</ele>
        <time>2017-03-31T23:06:54Z</time>
      </trkpt>
      <trkpt lat="47.62667" lon="5.00714">
        <ele>347.037</ele>
        <time>2017-03-31T23:07:14Z</time>
      </trkpt>
      <trkpt lat="47.62606" lon="5.00561">
        <ele>336.588</ele>
        <time>2017-03-31T23:07:34Z</time>
      </trkpt>
      <trkpt lat="47.62589" lon="5.00497">
        <ele>329.853</ele>
        <time>2017-03-31T23:07:54Z</time>
      </trkpt>
      <trkpt lat="47.6247" lon="5.0055">
        <ele>327.872</ele>
        <time>2017-03-31T23:08:14Z</time>
      </trkpt>
      <trkpt lat="47.62427" lon="5.00581">
        <ele>328.335</ele>
        <time>2017-03-31T23:08:34Z</time>
      </trkpt>
      <trkpt lat="47.61995" lon="5.01082">
        <ele>320.872</ele>
        <time>2017-03-31T23:08:54Z</time>
      </trkpt>
      <trkpt lat="47.6197" lon="5.01157">
        <ele>319.386</ele>
        <time>2017-03-31T23:09:14Z</time>
      </trkpt>
      <trkpt lat="47.61969" lon="5.01268">
        <ele>319.117</ele>
        <time>2017-03-31T23:09:34Z</time>
      </trkpt>
      <trkpt lat="47.6202" lon="5.01409">
        <ele>322.287</ele>
        <time>2017-03-31T23:09:54Z</time>
      </trkpt>
      <trkpt lat="47.62021" lon="5.0148">
        <ele>319.715</ele>
        <time>2017-03-31T23:10:14Z</time>
      </trkpt>
      <trkpt lat="47.62003" lon="5.01489">
        <ele>319.408</ele>
        <time>2017-03-31T23:10:34Z</time>
      </trkpt>
      <trkpt lat="47.61942" lon="5.01436">
        <ele>319.967</ele>
        <time>2017-03-31T23:10:54Z</time>
      </trkpt>
      <trkpt lat="47.61863" lon="5.01393">
        <ele>320.952</ele>
        <time>2017-03-31T23:11:14Z</time>
      </trkpt>
      <trkpt lat="47.61835" lon="5.01273">
        <ele>323.243</ele>
        <time>2017-03-31T23:11:34Z</time>
      </trkpt>
      <trkpt lat="47.61811" lon="5.01215">
        <ele>325.798</ele>
        <time>2017-03-31T23:11:54Z</time>
      </trkpt>
      <trkpt lat="47.61764" lon="5.01075">
        <ele>326.077</ele>
        <time>2017-03-31T23:12:14Z</time>
      </trkpt>
      <trkpt lat="47.61755" lon="5.00944">
        <ele>323.22</ele>
        <time>2017-03-31T23:12:34Z</time>
      </trkpt>
      <trkpt lat="47.61713" lon="5.00861">
        <ele>323.317</ele>
        <time>2017-03-31T23:12:54Z</time>
      </trkpt>
      <trkpt lat="47.61679" lon="5.00818">
        <ele>326.081</ele>
        <time>2017-03-31T23:13:14Z</time>
      </trkpt>
      <trkpt lat="47.61641" lon="5.00684">
        <ele>330.136</ele>
        <time>2017-03-31T23:13:34Z</time>
      </trkpt>
      <trkpt lat="47.61563" lon="5.00541">
        <ele>350.917</ele>
        <time>2017-03-31T23:13:54Z</time>
      </trkpt>
      <trkpt lat="47.61525" lon="5.0048">
        <ele>354.818</ele>
        <time>2017-03-31T23:14:14Z</time>
      </trkpt>
      <trkpt lat="47.61386" lon="5.00308">
        <ele>372.508</ele>
        <time>2017-03-31T23:14:34Z</time>
      </trkpt>
      <trkpt lat="47.61327" lon="5.0025">
        <ele>384.759</ele>
        <time>2017-03-31T23:14:54Z</time>
      </trkpt>
      <trkpt lat="47.61296" lon="5.00228">
        <ele>388.714</ele>
        <time>2017-03-31T23:15:14Z</time>
      </trkpt>
      <trkpt lat="47.61202" lon="5.00189">
        <ele>398.785</ele>
        <time>2017-03-31T23:15:34Z</time>
      </trkpt>
      <trkpt lat="47.61125" lon="5.00131">
        <ele>412.58</ele>
        <time>2017-03-31T23:15:54Z</time>
      </trkpt>
      <trkpt lat="47.61078" lon="5.00067">
        <ele>420.439</ele>
        <time>2017-03-31T23:16:14Z</time>
      </trkpt>
      <trkpt lat="47.60996" lon="4.9987">
        <ele>429.072</ele>
        <time>2017-03-31T23:16:34Z</time>
      </trkpt>
      <trkpt lat="47.60954" lon="4.99724">
        <ele>429.749</ele>
        <time>2017-03-31T23:16:54Z</time>
      </trkpt>
      <trkpt lat="47.60907" lon="4.99607">
        <ele>433.453</ele>
        <time>2017-03-31T23:17:14Z</time>
      </trkpt>
      <trkpt lat="47.60857" lon="4.99512">
        <ele>438.638</ele>
        <time>2017-03-31T23:17:34Z</time>
      </trkpt>
      <trkpt lat="47.60592" lon="4.99507">
        <ele>463.07</ele>
        <time>2017-03-31T23:17:54Z</time>
      </trkpt>
      <trkpt lat="47.60326" lon="4.9951">
        <ele>449.717</ele>
        <time>2017-03-31T23:18:14Z</time>
      </trkpt>
      <trkpt lat="47.60189" lon="4.9938">
        <ele>437.008</ele>
        <time>2017-03-31T23:18:34Z</time>
      </trkpt>
      <trkpt lat="47.60151" lon="4.99358">
        <ele>432.789</ele>
        <time>2017-03-31T23:18:54Z</time>
      </trkpt>
      <trkpt lat="47.60134" lon="4.9936">
        <ele>431.424</ele>
        <time>2017-03-31T23:19:14Z</time>
      </trkpt>
      <trkpt lat="47.601" lon="4.99384">
        <ele>429.115</ele>
        <time>2017-03-31T23:19:34Z</time>
      </trkpt>
      <trkpt lat="47.60073" lon="4.99412">
        <ele>426.93</ele>
        <time>2017-03-31T23:19:54Z</time>
      </trkpt>
      <trkpt lat="47.59751" lon="4.99404">
        <ele>394.079</ele>
        <time>2017-03-31T23:20:14Z</time>
      </trkpt>
      <trkpt lat="47.59722" lon="4.99447">
        <ele>396.142</ele>
        <time>2017-03-31T23:20:34Z</time>
      </trkpt>
      <trkpt lat="47.59705" lon="4.9952">
        <ele>402.539</ele>
        <time>2017-03-31T23:20:54Z</time>
      </trkpt>
      <trkpt lat="47.59703" lon="4.99595">
        <ele>402.993</ele>
        <time>2017-03-31T23:21:14Z</time>
      </trkpt>
      <trkpt lat="47.5963" lon="4.99677">
        <ele>409.238</ele>
        <time>2017-03-31T23:21:34Z</time>
      </trkpt>
      <trkpt lat="47.59551" lon="4.99744">
        <ele>419.67</ele>
        <time>2017-03-31T23:21:54Z</time>
      </trkpt>
      <trkpt lat="47.59559" lon="4.99772">
        <ele>418.217</ele>
        <time>2017-03-31T23:22:14Z</time>
      </trkpt>
      <trkpt lat="47.59517" lon="4.99803">
        <ele>421.408</ele>
        <time>2017-03-31T23:22:34Z</time>
      </trkpt>
      <trkpt lat="47.59592" lon="5.0005">
        <ele>431.549</ele>
        <time>2017-03-31T23:22:54Z</time>
      </trkpt>
      <trkpt lat="47.59567" lon="5.00164">
        <ele>451.714</ele>
        <time>2017-03-31T23:23:14Z</time>
      </trkpt>
      <trkpt lat="47.59502" lon="5.00169">
        <ele>453.945</ele>
        <time>2017-03-31T23:23:34Z</time>
      </trkpt>
      <trkpt lat="47.59179" lon="5.00177">
        <ele>452.06</ele>
        <time>2017-03-31T23:23:54Z</time>
      </trkpt>
      <trkpt lat="47.59147" lon="5.00044">
        <ele>451.179</ele>
        <time>2017-03-31T23:24:14Z</time>
      </trkpt>
      <trkpt lat="47.59071" lon="4.99971">
        <ele>446.152</ele>
        <time>2017-03-31T23:24:34Z</time>
      </trkpt>
      <trkpt lat="47.58984" lon="4.99918">
        <ele>431.719</ele>
        <time>2017-03-31T23:24:54Z</time>
      </trkpt>
      <trkpt lat="47.58964" lon="4.99909">
        <ele>430.633</ele>
        <time>2017-03-31T23:25:14Z</time>
      </trkpt>
      <trkpt lat="47.58949" lon="4.99937">
        <ele>430.287</ele>
        <time>2017-03-31T23:25:34Z</time>
      </trkpt>
      <trkpt lat="47.58936" lon="4.99995">
        <ele>430.042</ele>
        <time>2017-03-31T23:25:54Z</time>
      </trkpt>
      <trkpt lat="47.58931" lon="5.00049">
        <ele>428.726</ele>
        <time>2017-03-31T23:26:14Z</time>
      </trkpt>
      <trkpt lat="47.58919" lon="5.00073">
        <ele>427.308</ele>
        <time>2017-03-31T23:26:34Z</time>
      </trkpt>
      <trkpt lat="47.58898" lon="5.00091">
        <ele>425.574</ele>
        <time>2017-03-31T23:26:54Z</time>
      </trkpt>
      <trkpt lat="47.5881" lon="5.00089">
        <ele>423.759</ele>
        <time>2017-03-31T23:27:14Z</time>
      </trkpt>
      <trkpt lat="47.58754" lon="5.00122">
        <ele>420.21</ele>
        <time>2017-03-31T23:27:34Z</time>
      </trkpt>
      <trkpt lat="47.58729" lon="5.00167">
        <ele>420.035</ele>
        <time>2017-03-31T23:27:54Z</time>
      </trkpt>
      <trkpt lat="47.5869" lon="5.00257">
        <ele>414.844</ele>
        <time>2017-03-31T23:28:14Z</time>
      </trkpt>
      <trkpt lat="47.58651" lon="5.00293">
        <ele>414.637</ele>
        <time>2017-03-31T23:28:34Z</time>
      </trkpt>
      <trkpt lat="47.58478" lon="5.00345">
        <ele>410.594</ele>
        <time>2017-03-31T23:28:54Z</time>
      </trkpt>
      <trkpt lat="47.58445" lon="5.00377">
        <ele>409.798</ele>
        <time>2017-03-31T23:29:14Z</time>
      </trkpt>
      <trkpt lat="47.58397" lon="5.00462">
        <ele>408.471</ele>
        <time>2017-03-31T23:29:34Z</time>
      </trkpt>
      <trkpt lat="47.58345" lon="5.00482">
        <ele>407.841</ele>
        <time>2017-03-31T23:29:54Z</time>
      </trkpt>
      <trkpt lat="47.58263" lon="5.00485">
        <ele>405.715</ele>
        <time>2017-03-31T23:30:14Z</time>
      </trkpt>
      <trkpt lat="47.58224" lon="5.00514">
        <ele>402.108</ele>
        <time>2017-03-31T23:30:34Z</time>
      </trkpt>
      <trkpt lat="47.58188" lon="5.00559">
        <ele>400.373</ele>
        <time>2017-03-31T23:30:54Z</time>
      </trkpt>
      <trkpt lat="47.58142" lon="5.00535">
        <ele>401.418</ele>
        <time>2017-03-31T23:31:14Z</time>
      </trkpt>
      <trkpt lat="47.58093" lon="5.00539">
        <ele>403.259</ele>
        <time>2017-03-31T23:31:34Z</time>
      </trkpt>
      <trkpt lat="47.58078" lon="5.00522">
        <ele>405.744</ele>
        <time>2017-03-31T23:31:54Z</time>
      </trkpt>
      <trkpt lat="47.58077" lon="5.00476">
        <ele>413.323</ele>
        <time>2017-03-31T23:32:14Z</time>
      </trkpt>
      <trkpt lat="47.58086" lon="5.00431">
        <ele>418.336</ele>
        <time>2017-03-31T23:32:34Z</time>
      </trkpt>
      <trkpt lat="47.58086" lon="5.00387">
        <ele>420.843</ele>
        <time>2017-03-31T23:32:54Z</time>
      </trkpt>
      <trkpt lat="47.58058" lon="5.00321">
        <ele>426.837</ele>
        <time>2017-03-31T23:33:14Z</time>
      </trkpt>
      <trkpt lat="47.58022" lon="5.00253">
        <ele>428.024</ele>
        <time>2017-03-31T23:33:34Z</time>
      </trkpt>
      <trkpt lat="47.5799" lon="5.00182">
        <ele>428.804</ele>
        <time>2017-03-31T23:33:54Z</time>
      </trkpt>
      <trkpt lat="47.57945" lon="5.00111">
        <ele>426.114</ele>
        <time>2017-03-31T23:34:14Z</time>
      </trkpt>
      <trkpt lat="47.57906" lon="5.00072">
        <ele>424.708</ele>
        <time>2017-03-31T23:34:34Z</time>
      </trkpt>
      <trkpt lat="47.57882" lon="5.00005">
        <ele>425.398</ele>
        <time>2017-03-31T23:34:54Z</time>
      </trkpt>
      <trkpt lat="47.57855" lon="4.9997">
        <ele>424.623</ele>
        <time>2017-03-31T23:35:14Z</time>
      </trkpt>
      <trkpt lat="47.5784" lon="4.99961">
        <ele>423.514</ele>
        <time>2017-03-31T23:35:34Z</time>
      </trkpt>
      <trkpt lat="47.57824" lon="4.99943">
        <ele>422.329</ele>
        <time>2017-03-31T23:35:54Z</time>
      </trkpt>
      <trkpt lat="47.5779" lon="4.99881">
        <ele>419.038</ele>
        <time>2017-03-31T23:36:14Z</time>
      </trkpt>
      <trkpt lat="47.57732" lon="4.99838">
        <ele>410.251</ele>
        <time>2017-03-31T23:36:34Z</time>
      </trkpt>
      <trkpt lat="47.57696" lon="4.99797">
        <ele>409.728</ele>
        <time>2017-03-31T23:36:54Z</time>
      </trkpt>
      <trkpt lat="47.57621" lon="4.99752">
        <ele>412.772</ele>
        <time>2017-03-31T23:37:14Z</time>
      </trkpt>
      <trkpt lat="47.5759" lon="4.99727">
        <ele>413.566</ele>
        <time>2017-03-31T23:37:34Z</time>
      </trkpt>
      <trkpt lat="47.57571" lon="4.9969">
        <ele>415.029</ele>
        <time>2017-03-31T23:37:54Z</time>
      </trkpt>
      <trkpt lat="47.57543" lon="4.99559">
        <ele>415.521</ele>
        <time>2017-03-31T23:38:14Z</time>
      </trkpt>
      <trkpt lat="47.57524" lon="4.99499">
        <ele>418.108</ele>
        <time>2017-03-31T23:38:34Z</time>
      </trkpt>
      <trkpt lat="47.57496" lon="4.99389">
        <ele>422.162</ele>
        <time>2017-03-31T23:38:54Z</time>
      </trkpt>
      <trkpt lat="47.57468" lon="4.9932">
        <ele>422.387</ele>
        <time>2017-03-31T23:39:14Z</time>
      </trkpt>
      <trkpt lat="47.57442" lon="4.99241">
        <ele>422.718</ele>
        <time>2017-03-31T23:39:34Z</time>
      </trkpt>
      <trkpt lat="47.57422" lon="4.99217">
        <ele>422.883</ele>
        <time>2017-03-31T23:39:54Z</time>
      </trkpt>
      <trkpt lat="47.57394" lon="4.99133">
        <ele>423.822</ele>
        <time>2017-03-31T23:40:14Z</time>
      </trkpt>
      <trkpt lat="47.57365" lon="4.99014">
        <ele>425.995</ele>
        <time>2017-03-31T23:40:34Z</time>
      </trkpt>
      <trkpt lat="47.57328" lon="4.98945">
        <ele>425.032</ele>
        <time>2017-03-31T23:40:54Z</time>
      </trkpt>
      <trkpt lat="47.57284" lon="4.98882">
        <ele>424.466</ele>
        <time>2017-03-31T23:41:14Z</time>
      </trkpt>
      <trkpt lat="47.5725" lon="4.98869">
        <ele>423.014</ele>
        <time>2017-03-31T23:41:34Z</time>
      </trkpt>
      <trkpt lat="47.57126" lon="4.98874">
        <ele>417.854</ele>
        <time>2017-03-31T23:41:54Z</time>
      </trkpt>
      <trkpt lat="47.57056" lon="4.98827">
        <ele>415.809</ele>
        <time>2017-03-31T23:42:14Z</time>
      </trkpt>
      <trkpt lat="47.57" lon="4.98814">
        <ele>413.008</ele>
        <time>2017-03-31T23:42:34Z</time>
      </trkpt>
      <trkpt lat="47.56646" lon="4.98912">
        <ele>403.057</ele>
        <time>2017-03-31T23:42:54Z</time>
      </trkpt>
      <trkpt lat="47.56577" lon="4.98926">
        <ele>406.182</ele>
        <time>2017-03-31T23:43:14Z</time>
      </trkpt>
      <trkpt lat="47.56467" lon="4.98976">
        <ele>405.613</ele>
        <time>2017-03-31T23:43:34Z</time>
      </trkpt>
      <trkpt lat="47.56415" lon="4.9897">
        <ele>406.128</ele>
        <time>2017-03-31T23:43:54Z</time>
      </trkpt>
      <trkpt lat="47.56344" lon="4.9894">
        <ele>403.547</ele>
        <time>2017-03-31T23:44:14Z</time>
      </trkpt>
      <trkpt lat="47.56283" lon="4.98939">
        <ele>401.48</ele>
        <time>2017-03-31T23:44:34Z</time>
      </trkpt>
      <trkpt lat="47.56217" lon="4.98932">
        <ele>398.237</ele>
        <time>2017-03-31T23:44:54Z</time>
      </trkpt>
      <trkpt lat="47.56172" lon="4.98902">
        <ele>395.971</ele>
        <time>2017-03-31T23:45:14Z</time>
      </trkpt>
      <trkpt lat="47.5609" lon="4.98964">
        <ele>391.537</ele>
        <time>2017-03-31T23:45:34Z</time>
      </trkpt>
      <trkpt lat="47.56003" lon="4.98998">
        <ele>387.249</ele>
        <time>2017-03-31T23:45:54Z</time>
      </trkpt>
      <trkpt lat="47.55944" lon="4.99012">
        <ele>382.913</ele>
        <time>2017-03-31T23:46:14Z</time>
      </trkpt>
      <trkpt lat="47.55895" lon="4.99002">
        <ele>379.408</ele>
        <time>2017-03-31T23:46:34Z</time>
      </trkpt>
      <trkpt lat="47.55827" lon="4.99">
        <ele>374.559</ele>
        <time>2017-03-31T23:46:54Z</time>
      </trkpt>
      <trkpt lat="47.55782" lon="4.98982">
        <ele>369.424</ele>
        <time>2017-03-31T23:47:14Z</time>
      </trkpt>
      <trkpt lat="47.55745" lon="4.98926">
        <ele>363.475</ele>
        <time>2017-03-31T23:47:34Z</time>
      </trkpt>
      <trkpt lat="47.5557" lon="4.99075">
        <ele>340.35</ele>
        <time>2017-03-31T23:47:54Z</time>
      </trkpt>
      <trkpt lat="47.55501" lon="4.99089">
        <ele>343.669</ele>
        <time>2017-03-31T23:48:14Z</time>
      </trkpt>
      <trkpt lat="47.554" lon="4.99096">
        <ele>350.282</ele>
        <time>2017-03-31T23:48:34Z</time>
      </trkpt>
      <trkpt lat="47.55292" lon="4.99167">
        <ele>359.589</ele>
        <time>2017-03-31T23:48:54Z</time>
      </trkpt>
      <trkpt lat="47.55225" lon="4.992">
        <ele>367.733</ele>
        <time>2017-03-31T23:49:14Z</time>
      </trkpt>
      <trkpt lat="47.55173" lon="4.99248">
        <ele>370.669</ele>
        <time>2017-03-31T23:49:34Z</time>
      </trkpt>
      <trkpt lat="47.55119" lon="4.99291">
        <ele>377.604</ele>
        <time>2017-03-31T23:49:54Z</time>
      </trkpt>
      <trkpt lat="47.55087" lon="4.99402">
        <ele>383.924</ele>
        <time>2017-03-31T23:50:14Z</time>
      </trkpt>
      <trkpt lat="47.55054" lon="4.99505">
        <ele>391.408</ele>
        <time>2017-03-31T23:50:34Z</time>
      </trkpt>
      <trkpt lat="47.55031" lon="4.99634">
        <ele>396.752</ele>
        <time>2017-03-31T23:50:54Z</time>
      </trkpt>
      <trkpt lat="47.55029" lon="4.99688">
        <ele>397.837</ele>
        <time>2017-03-31T23:51:14Z</time>
      </trkpt>
      <trkpt lat="47.55009" lon="4.99794">
        <ele>400.958</ele>
        <time>2017-03-31T23:51:34Z</time>
      </trkpt>
      <trkpt lat="47.54988" lon="4.99857">
        <ele>403.753</ele>
        <time>2017-03-31T23:51:54Z</time>
      </trkpt>
      <trkpt lat="47.54106" lon="4.98798">
        <ele>393.552</ele>
        <time>2017-03-31T23:52:14Z</time>
      </trkpt>
      <trkpt lat="47.54039" lon="4.98913">
        <ele>394.345</ele>
        <time>2017-03-31T23:52:34Z</time>
      </trkpt>
      <trkpt lat="47.5388" lon="4.9871">
        <ele>373.842</ele>
        <time>2017-03-31T23:52:54Z</time>
      </trkpt>
      <trkpt lat="47.53393" lon="4.99065">
        <ele>348.656</ele>
        <time>2017-03-31T23:53:14Z</time>
      </trkpt>
      <trkpt lat="47.53457" lon="4.99142">
        <ele>354.757</ele>
        <time>2017-03-31T23:53:34Z</time>
      </trkpt>
      <trkpt lat="47.534" lon="4.99248">
        <ele>344.5</ele>
        <time>2017-03-31T23:53:54Z</time>
      </trkpt>
      <trkpt lat="47.53327" lon="4.99264">
        <ele>336.82</ele>
        <time>2017-03-31T23:54:14Z</time>
      </trkpt>
      <trkpt lat="47.53231" lon="4.99318">
        <ele>322.108</ele>
        <time>2017-03-31T23:54:34Z</time>
      </trkpt>
      <trkpt lat="47.53194" lon="4.99213">
        <ele>319.861</ele>
        <time>2017-03-31T23:54:54Z</time>
      </trkpt>
      <trkpt lat="47.53212" lon="4.99123">
        <ele>311.496</ele>
        <time>2017-03-31T23:55:14Z</time>
      </trkpt>
      <trkpt lat="47.53312" lon="4.9897">
        <ele>316.227</ele>
        <time>2017-03-31T23:55:34Z</time>
      </trkpt>
      <trkpt lat="47.53307" lon="4.98866">
        <ele>303.252</ele>
        <time>2017-03-31T23:55:54Z</time>
      </trkpt>
      <trkpt lat="47.53314" lon="4.98731">
        <ele>303.931</ele>
        <time>2017-03-31T23:56:14Z</time>
      </trkpt>
      <trkpt lat="47.53229" lon="4.98517">
        <ele>307.274</ele>
        <time>2017-03-31T23:56:34Z</time>
      </trkpt>
      <trkpt lat="47.53214" lon="4.98509">
        <ele>307.091</ele>
        <time>2017-03-31T23:56:54Z</time>
      </trkpt>
      <trkpt lat="47.53079" lon="4.98608">
        <ele>307.285</ele>
        <time>2017-03-31T23:57:14Z</time>
      </trkpt>
      <trkpt lat="47.53031" lon="4.98692">
        <ele>308.891</ele>
        <time>2017-03-31T23:57:34Z</time>
      </trkpt>
      <trkpt lat="47.5298" lon="4.98728">
        <ele>306.981</ele>
        <time>2017-03-31T23:57:54Z</time>
      </trkpt>
      <trkpt lat="47.52827" lon="4.98704">
        <ele>312.519</ele>
        <time>2017-03-31T23:58:14Z</time>
      </trkpt>
      <trkpt lat="47.52759" lon="4.98761">
        <ele>312.408</ele>
        <time>2017-03-31T23:58:34Z</time>
      </trkpt>
      <trkpt lat="47.52615" lon="4.99006">
        <ele>314.455</ele>
        <time>2017-03-31T23:58:54Z</time>
      </trkpt>
      <trkpt lat="47.52477" lon="4.99221">
        <ele>311.79</ele>
        <time>2017-03-31T23:59:14Z</time>
      </trkpt>
      <trkpt lat="47.52296" lon="4.99413">
        <ele>307.521</ele>
        <time>2017-03-31T23:59:34Z</time>
      </trkpt>
      <trkpt lat="47.52265" lon="4.99405">
        <ele>309.676</ele>
        <time>2017-03-31T23:59:54Z</time>
      </trkpt>
      <trkpt lat="47.5221" lon="4.99317">
        <ele>319.135</ele>
        <time>2017-04-01T00:00:14Z</time>
      </trkpt>
      <trkpt lat="47.52158" lon="4.9934">
        <ele>324.898</ele>
        <time>2017-04-01T00:00:34Z</time>
      </trkpt>
      <trkpt lat="47.52084" lon="4.99405">
        <ele>332.465</ele>
        <time>2017-04-01T00:00:54Z</time>
      </trkpt>
      <trkpt lat="47.52035" lon="4.99412">
        <ele>338.629</ele>
        <time>2017-04-01T00:01:14Z</time>
      </trkpt>
      <trkpt lat="47.51914" lon="4.99365">
        <ele>354.093</ele>
        <time>2017-04-01T00:01:34Z</time>
      </trkpt>
      <trkpt lat="47.5152" lon="4.99114">
        <ele>388.265</ele>
        <time>2017-04-01T00:01:54Z</time>
      </trkpt>
      <trkpt lat="47.51432" lon="4.99039">
        <ele>394.421</ele>
        <time>2017-04-01T00:02:14Z</time>
      </trkpt>
      <trkpt lat="47.5138" lon="4.99022">
        <ele>396.008</ele>
        <time>2017-04-01T00:02:34Z</time>
      </trkpt>
      <trkpt lat="47.51295" lon="4.98976">
        <ele>398.335</ele>
        <time>2017-04-01T00:02:54Z</time>
      </trkpt>
      <trkpt lat="47.51247" lon="4.98935">
        <ele>398.61</ele>
        <time>2017-04-01T00:03:14Z</time>
      </trkpt>
      <trkpt lat="47.51204" lon="4.98904">
        <ele>399.811</ele>
        <time>2017-04-01T00:03:34Z</time>
      </trkpt>
      <trkpt lat="47.51093" lon="4.98834">
        <ele>399.676</ele>
        <time>2017-04-01T00:03:54Z</time>
      </trkpt>
      <trkpt lat="47.51032" lon="4.98792">
        <ele>397.415</ele>
        <time>2017-04-01T00:04:14Z</time>
      </trkpt>
      <trkpt lat="47.50962" lon="4.98753">
        <ele>393.038</ele>
        <time>2017-04-01T00:04:34Z</time>
      </trkpt>
      <trkpt lat="47.50895" lon="4.98705">
        <ele>385.765</ele>
        <time>2017-04-01T00:04:54Z</time>
      </trkpt>
      <trkpt lat="47.50858" lon="4.98689">
        <ele>382.019</ele>
        <time>2017-04-01T00:05:14Z</time>
      </trkpt>
      <trkpt lat="47.5076" lon="4.98591">
        <ele>377.677</ele>
        <time>2017-04-01T00:05:34Z</time>
      </trkpt>
      <trkpt lat="47.50657" lon="4.98501">
        <ele>369.961</ele>
        <time>2017-04-01T00:05:54Z</time>
      </trkpt>
      <trkpt lat="47.50521" lon="4.98306">
        <ele>368.827</ele>
        <time>2017-04-01T00:06:14Z</time>
      </trkpt>
      <trkpt lat="47.50463" lon="4.98266">
        <ele>363.108</ele>
        <time>2017-04-01T00:06:34Z</time>
      </trkpt>
      <trkpt lat="47.50288" lon="4.98133">
        <ele>357.163</ele>
        <time>2017-04-01T00:06:54Z</time>
      </trkpt>
      <trkpt lat="47.50149" lon="4.98089">
        <ele>353.518</ele>
        <time>2017-04-01T00:07:14Z</time>
      </trkpt>
      <trkpt lat="47.49998" lon="4.97982">
        <ele>351.079</ele>
        <time>2017-04-01T00:07:34Z</time>
      </trkpt>
      <trkpt lat="47.49852" lon="4.97838">
        <ele>344.984</ele>
        <time>2017-04-01T00:07:54Z</time>
      </trkpt>
      <trkpt lat="47.49751" lon="4.97845">
        <ele>341.183</ele>
        <time>2017-04-01T00:08:14Z</time>
      </trkpt>
      <trkpt lat="47.49681" lon="4.97813">
        <ele>339.696</ele>
        <time>2017-04-01T00:08:34Z</time>
      </trkpt>
      <trkpt lat="47.49612" lon="4.97749">
        <ele>337.243</ele>
        <time>2017-04-01T00:08:54Z</time>
      </trkpt>
      <trkpt lat="47.49564" lon="4.97722">
        <ele>334.497</ele>
        <time>2017-04-01T00:09:14Z</time>
      </trkpt>
      <trkpt lat="47.49448" lon="4.97697">
        <ele>327.375</ele>
        <time>2017-04-01T00:09:34Z</time>
      </trkpt>
      <trkpt lat="47.49424" lon="4.97661">
        <ele>327.128</ele>
        <time>2017-04-01T00:09:54Z</time>
      </trkpt>
      <trkpt lat="47.49355" lon="4.9751">
        <ele>328.12</ele>
        <time>2017-04-01T00:10:14Z</time>
      </trkpt>
      <trkpt lat="47.49305" lon="4.97422">
        <ele>327.008</ele>
        <time>2017-04-01T00:10:34Z</time>
      </trkpt>
      <trkpt lat="47.49227" lon="4.97426">
        <ele>325.913</ele>
        <time>2017-04-01T00:10:54Z</time>
      </trkpt>
      <trkpt lat="47.49186" lon="4.97414">
        <ele>327.158</ele>
        <time>2017-04-01T00:11:14Z</time>
      </trkpt>
      <trkpt lat="47.49167" lon="4.97427">
        <ele>328.829</ele>
        <time>2017-04-01T00:11:34Z</time>
      </trkpt>
      <trkpt lat="47.49182" lon="4.97524">
        <ele>330.314</ele>
        <time>2017-04-01T00:11:54Z</time>
      </trkpt>
      <trkpt lat="47.49298" lon="4.97856">
        <ele>328.333</ele>
        <time>2017-04-01T00:12:14Z</time>
      </trkpt>
      <trkpt lat="47.49324" lon="4.97966">
        <ele>324.456</ele>
        <time>2017-04-01T00:12:34Z</time>
      </trkpt>
      <trkpt lat="47.49264" lon="4.97839">
        <ele>337.923</ele>
        <time>2017-04-01T00:12:54Z</time>
      </trkpt>
      <trkpt lat="47.49188" lon="4.97717">
        <ele>348.887</ele>
        <time>2017-04-01T00:13:14Z</time>
      </trkpt>
      <trkpt lat="47.49073" lon="4.97554">
        <ele>359.219</ele>
        <time>2017-04-01T00:13:34Z</time>
      </trkpt>
      <trkpt lat="47.48985" lon="4.97511">
        <ele>372.809</ele>
        <time>2017-04-01T00:13:54Z</time>
      </trkpt>
      <trkpt lat="47.48926" lon="4.97454">
        <ele>378.319</ele>
        <time>2017-04-01T00:14:14Z</time>
      </trkpt>
      <trkpt lat="47.48877" lon="4.97399">
        <ele>382.208</ele>
        <time>2017-04-01T00:14:34Z</time>
      </trkpt>
      <trkpt lat="47.4883" lon="4.97372">
        <ele>384.737</ele>
        <time>2017-04-01T00:14:54Z</time>
      </trkpt>
      <trkpt lat="47.48762" lon="4.97358">
        <ele>386.952</ele>
        <time>2017-04-01T00:15:14Z</time>
      </trkpt>
      <trkpt lat="47.48703" lon="4.97367">
        <ele>394.373</ele>
        <time>2017-04-01T00:15:34Z</time>
      </trkpt>
      <trkpt lat="47.48629" lon="4.9734">
        <ele>398.848</ele>
        <time>2017-04-01T00:15:54Z</time>
      </trkpt>
      <trkpt lat="47.48538" lon="4.97326">
        <ele>407.147</ele>
        <time>2017-04-01T00:16:14Z</time>
      </trkpt>
      <trkpt lat="47.48476" lon="4.97375">
        <ele>421.71</ele>
        <time>2017-04-01T00:16:34Z</time>
      </trkpt>
      <trkpt lat="47.48393" lon="4.97343">
        <ele>423.097</ele>
        <time>2017-04-01T00:16:54Z</time>
      </trkpt>
      <trkpt lat="47.48303" lon="4.97297">
        <ele>428.791</ele>
        <time>2017-04-01T00:17:14Z</time>
      </trkpt>
      <trkpt lat="47.48275" lon="4.97308">
        <ele>429.814</ele>
        <time>2017-04-01T00:17:34Z</time>
      </trkpt>
      <trkpt lat="47.48226" lon="4.97422">
        <ele>433.954</ele>
        <time>2017-04-01T00:17:54Z</time>
      </trkpt>
      <trkpt lat="47.48131" lon="4.9785">
        <ele>475.009</ele>
        <time>2017-04-01T00:18:14Z</time>
      </trkpt>
      <trkpt lat="47.481" lon="4.97915">
        <ele>485.908</ele>
        <time>2017-04-01T00:18:34Z</time>
      </trkpt>
      <trkpt lat="47.48099" lon="4.98004">
        <ele>489.817</ele>
        <time>2017-04-01T00:18:54Z</time>
      </trkpt>
      <trkpt lat="47.4812" lon="4.98146">
        <ele>490.872</ele>
        <time>2017-04-01T00:19:14Z</time>
      </trkpt>
      <trkpt lat="47.4812" lon="4.98189">
        <ele>494.813</ele>
        <time>2017-04-01T00:19:34Z</time>
      </trkpt>
      <trkpt lat="47.48137" lon="4.98251">
        <ele>493.818</ele>
        <time>2017-04-01T00:19:54Z</time>
      </trkpt>
      <trkpt lat="47.4814" lon="4.98318">
        <ele>496.827</ele>
        <time>2017-04-01T00:20:14Z</time>
      </trkpt>
      <trkpt lat="47.48129" lon="4.98389">
        <ele>497.57</ele>
        <time>2017-04-01T00:20:34Z</time>
      </trkpt>
      <trkpt lat="47.48114" lon="4.98392">
        <ele>499.237</ele>
        <time>2017-04-01T00:20:54Z</time>
      </trkpt>
      <trkpt lat="47.48119" lon="4.98331">
        <ele>502.111</ele>
        <time>2017-04-01T00:21:14Z</time>
      </trkpt>
      <trkpt lat="47.48112" lon="4.9829">
        <ele>504.699</ele>
        <time>2017-04-01T00:21:34Z</time>
      </trkpt>
      <trkpt lat="47.48077" lon="4.98222">
        <ele>511.807</ele>
        <time>2017-04-01T00:21:54Z</time>
      </trkpt>
      <trkpt lat="47.48062" lon="4.98164">
        <ele>514.427</ele>
        <time>2017-04-01T00:22:14Z</time>
      </trkpt>
      <trkpt lat="47.48032" lon="4.98093">
        <ele>518.508</ele>
        <time>2017-04-01T00:22:34Z</time>
      </trkpt>
      <trkpt lat="47.47918" lon="4.97906">
        <ele>533.315</ele>
        <time>2017-04-01T00:22:54Z</time>
      </trkpt>
      <trkpt lat="47.47884" lon="4.97865">
        <ele>536.92</ele>
        <time>2017-04-01T00:23:14Z</time>
      </trkpt>
      <trkpt lat="47.47841" lon="4.97802">
        <ele>533.611</ele>
        <time>2017-04-01T00:23:34Z</time>
      </trkpt>
      <trkpt lat="47.47817" lon="4.97797">
        <ele>532.786</ele>
        <time>2017-04-01T00:23:54Z</time>
      </trkpt>
      <trkpt lat="47.47665" lon="4.97935">
        <ele>549.315</ele>
        <time>2017-04-01T00:24:14Z</time>
      </trkpt>
      <trkpt lat="47.47621" lon="4.97953">
        <ele>551.018</ele>
        <time>2017-04-01T00:24:34Z</time>
      </trkpt>
      <trkpt lat="47.47549" lon="4.97941">
        <ele>554.545</ele>
        <time>2017-04-01T00:24:54Z</time>
      </trkpt>
      <trkpt lat="47.47482" lon="4.97914">
        <ele>557.049</ele>
        <time>2017-04-01T00:25:14Z</time>
      </trkpt>
      <trkpt lat="47.47415" lon="4.97875">
        <ele>560.185</ele>
        <time>2017-04-01T00:25:34Z</time>
      </trkpt>
      <trkpt lat="47.47325" lon="4.97805">
        <ele>563.489</ele>
        <time>2017-04-01T00:25:54Z</time>
      </trkpt>
      <trkpt lat="47.47303" lon="4.97733">
        <ele>564.517</ele>
        <time>2017-04-01T00:26:14Z</time>
      </trkpt>
      <trkpt lat="47.47252" lon="4.97618">
        <ele>563.908</ele>
        <time>2017-04-01T00:26:34Z</time>
      </trkpt>
      <trkpt lat="47.47212" lon="4.97543">
        <ele>566.874</ele>
        <time>2017-04-01T00:26:54Z</time>
      </trkpt>
      <trkpt lat="47.47066" lon="4.97439">
        <ele>566.429</ele>
        <time>2017-04-01T00:27:14Z</time>
      </trkpt>
      <trkpt lat="47.47003" lon="4.97286">
        <ele>566.28</ele>
        <time>2017-04-01T00:27:34Z</time>
      </trkpt>
      <trkpt lat="47.4695" lon="4.97131">
        <ele>561.485</ele>
        <time>2017-04-01T00:27:54Z</time>
      </trkpt>
      <trkpt lat="47.46895" lon="4.96989">
        <ele>558.864</ele>
        <time>2017-04-01T00:28:14Z</time>
      </trkpt>
      <trkpt lat="47.46875" lon="4.96887">
        <ele>556.927</ele>
        <time>2017-04-01T00:28:34Z</time>
      </trkpt>
      <trkpt lat="47.46816" lon="4.96658">
        <ele>554.684</ele>
        <time>2017-04-01T00:28:54Z</time>
      </trkpt>
      <trkpt lat="47.46815" lon="4.96521">
        <ele>554.258</ele>
        <time>2017-04-01T00:29:14Z</time>
      </trkpt>
      <trkpt lat="47.46845" lon="4.96391">
        <ele>553.091</ele>
        <time>2017-04-01T00:29:34Z</time>
      </trkpt>
      <trkpt lat="47.46826" lon="4.96188">
        <ele>554.981</ele>
        <time>2017-04-01T00:29:54Z</time>
      </trkpt>
      <trkpt lat="47.46805" lon="4.96153">
        <ele>553.519</ele>
        <time>2017-04-01T00:30:14Z</time>
      </trkpt>
      <trkpt lat="47.46784" lon="4.96134">
        <ele>553.808</ele>
        <time>2017-04-01T00:30:34Z</time>
      </trkpt>
      <trkpt lat="47.46784" lon="4.96119">
        <ele>553.955</ele>
        <time>2017-04-01T00:30:54Z</time>
      </trkpt>
      <trkpt lat="47.46705" lon="4.96079">
        <ele>555.06</ele>
        <time>2017-04-01T00:31:14Z</time>
      </trkpt>
      <trkpt lat="47.46536" lon="4.96107">
        <ele>555.891</ele>
        <time>2017-04-01T00:31:34Z</time>
      </trkpt>
      <trkpt lat="47.46488" lon="4.96133">
        <ele>556.036</ele>
        <time>2017-04-01T00:31:54Z</time>
      </trkpt>
      <trkpt lat="47.46371" lon="4.96262">
        <ele>551.385</ele>
        <time>2017-04-01T00:32:14Z</time>
      </trkpt>
      <trkpt lat="47.46339" lon="4.96257">
        <ele>550.078</ele>
        <time>2017-04-01T00:32:34Z</time>
      </trkpt>
      <trkpt lat="47.46059" lon="4.96108">
        <ele>537.055</ele>
        <time>2017-04-01T00:32:54Z</time>
      </trkpt>
      <trkpt lat="47.45853" lon="4.95881">
        <ele>529.529</ele>
        <time>2017-04-01T00:33:14Z</time>
      </trkpt>
      <trkpt lat="47.45816" lon="4.95848">
        <ele>529.293</ele>
        <time>2017-04-01T00:33:34Z</time>
      </trkpt>
      <trkpt lat="47.45736" lon="4.95832">
        <ele>519.665</ele>
        <time>2017-04-01T00:33:54Z</time>
      </trkpt>
      <trkpt lat="47.45679" lon="4.95782">
        <ele>519.221</ele>
        <time>2017-04-01T00:34:14Z</time>
      </trkpt>
      <trkpt lat="47.45646" lon="4.95754">
        <ele>518.208</ele>
        <time>2017-04-01T00:34:34Z</time>
      </trkpt>
      <trkpt lat="47.45601" lon="4.95732">
        <ele>516.855</ele>
        <time>2017-04-01T00:34:54Z</time>
      </trkpt>
      <trkpt lat="47.45558" lon="4.95745">
        <ele>509.92</ele>
        <time>2017-04-01T00:35:14Z</time>
      </trkpt>
      <trkpt lat="47.45536" lon="4.95727">
        <ele>506.151</ele>
        <time>2017-04-01T00:35:34Z</time>
      </trkpt>
      <trkpt lat="47.45512" lon="4.95644">
        <ele>504.636</ele>
        <time>2017-04-01T00:35:54Z</time>
      </trkpt>
      <trkpt lat="47.45479" lon="4.95577">
        <ele>502.665</ele>
        <time>2017-04-01T00:36:14Z</time>
      </trkpt>
      <trkpt lat="47.45418" lon="4.95506">
        <ele>490.838</ele>
        <time>2017-04-01T00:36:34Z</time>
      </trkpt>
      <trkpt lat="47.45413" lon="4.95489">
        <ele>490.025</ele>
        <time>2017-04-01T00:36:54Z</time>
      </trkpt>
      <trkpt lat="47.45438" lon="4.95368">
        <ele>489.079</ele>
        <time>2017-04-01T00:37:14Z</time>
      </trkpt>
      <trkpt lat="47.45458" lon="4.95326">
        <ele>488.814</ele>
        <time>2017-04-01T00:37:34Z</time>
      </trkpt>
      <trkpt lat="47.45476" lon="4.95308">
        <ele>488.954</ele>
        <time>2017-04-01T00:37:54Z</time>
      </trkpt>
      <trkpt lat="47.45507" lon="4.95291">
        <ele>491.609</ele>
        <time>2017-04-01T00:38:14Z</time>
      </trkpt>
      <trkpt lat="47.45515" lon="4.95276">
        <ele>491.108</ele>
        <time>2017-04-01T00:38:34Z</time>
      </trkpt>
      <trkpt lat="47.45513" lon="4.95255">
        <ele>491.447</ele>
        <time>2017-04-01T00:38:54Z</time>
      </trkpt>
      <trkpt lat="47.45496" lon="4.9525">
        <ele>491.062</ele>
        <time>2017-04-01T00:39:14Z</time>
      </trkpt>
      <trkpt lat="47.4541" lon="4.95299">
        <ele>488.063</ele>
        <time>2017-04-01T00:39:34Z</time>
      </trkpt>
      <trkpt lat="47.45356" lon="4.95409">
        <ele>479.278</ele>
        <time>2017-04-01T00:39:54Z</time>
      </trkpt>
      <trkpt lat="47.45302" lon="4.95475">
        <ele>468.727</ele>
        <time>2017-04-01T00:40:14Z</time>
      </trkpt>
      <trkpt lat="47.45185" lon="4.955">
        <ele>463.71</ele>
        <time>2017-04-01T00:40:34Z</time>
      </trkpt>
      <trkpt lat="47.45155" lon="4.95452">
        <ele>464.887</ele>
        <time>2017-04-01T00:40:54Z</time>
      </trkpt>
      <trkpt lat="47.45124" lon="4.95429">
        <ele>465.111</ele>
        <time>2017-04-01T00:41:14Z</time>
      </trkpt>
      <trkpt lat="47.45031" lon="4.95422">
        <ele>458.121</ele>
        <time>2017-04-01T00:41:34Z</time>
      </trkpt>
      <trkpt lat="47.44933" lon="4.95449">
        <ele>454.141</ele>
        <time>2017-04-01T00:41:54Z</time>
      </trkpt>
      <trkpt lat="47.44698" lon="4.9545">
        <ele>447.505</ele>
        <time>2017-04-01T00:42:14Z</time>
      </trkpt>
      <trkpt lat="47.44581" lon="4.95369">
        <ele>439.808</ele>
        <time>2017-04-01T00:42:34Z</time>
      </trkpt>
      <trkpt lat="47.44423" lon="4.95398">
        <ele>431.128</ele>
        <time>2017-04-01T00:42:54Z</time>
      </trkpt>
      <trkpt lat="47.44358" lon="4.95341">
        <ele>429.433</ele>
        <time>2017-04-01T00:43:14Z</time>
      </trkpt>
      <trkpt lat="47.4424" lon="4.95359">
        <ele>419.674</ele>
        <time>2017-04-01T00:43:34Z</time>
      </trkpt>
      <trkpt lat="47.44205" lon="4.95339">
        <ele>411.299</ele>
        <time>2017-04-01T00:43:54Z</time>
      </trkpt>
      <trkpt lat="47.44178" lon="4.95347">
        <ele>405.428</ele>
        <time>2017-04-01T00:44:14Z</time>
      </trkpt>
      <trkpt lat="47.44155" lon="4.95383">
        <ele>401.711</ele>
        <time>2017-04-01T00:44:34Z</time>
      </trkpt>
      <trkpt lat="47.44122" lon="4.95472">
        <ele>397.928</ele>
        <time>2017-04-01T00:44:54Z</time>
      </trkpt>
      <trkpt lat="47.44088" lon="4.95578">
        <ele>390.212</ele>
        <time>2017-04-01T00:45:14Z</time>
      </trkpt>
      <trkpt lat="47.44116" lon="4.95671">
        <ele>395.219</ele>
        <time>2017-04-01T00:45:34Z</time>
      </trkpt>
      <trkpt lat="47.44119" lon="4.95765">
        <ele>397.709</ele>
        <time>2017-04-01T00:45:54Z</time>
      </trkpt>
      <trkpt lat="47.44101" lon="4.95763">
        <ele>396.119</ele>
        <time>2017-04-01T00:46:14Z</time>
      </trkpt>
      <trkpt lat="47.44072" lon="4.95694">
        <ele>386.008</ele>
        <time>2017-04-01T00:46:34Z</time>
      </trkpt>
      <trkpt lat="47.44018" lon="4.95663">
        <ele>383.617</ele>
        <time>2017-04-01T00:46:54Z</time>
      </trkpt>
      <trkpt lat="47.43967" lon="4.95655">
        <ele>376.272</ele>
        <time>2017-04-01T00:47:14Z</time>
      </trkpt>
      <trkpt lat="47.43927" lon="4.95658">
        <ele>373.683</ele>
        <time>2017-04-01T00:47:34Z</time>
      </trkpt>
      <trkpt lat="47.43863" lon="4.95639">
        <ele>368.948</ele>
        <time>2017-04-01T00:47:54Z</time>
      </trkpt>
      <trkpt lat="47.4379" lon="4.95657">
        <ele>363.627</ele>
        <time>2017-04-01T00:48:14Z</time>
      </trkpt>
      <trkpt lat="47.43746" lon="4.95696">
        <ele>360.63</ele>
        <time>2017-04-01T00:48:34Z</time>
      </trkpt>
      <trkpt lat="47.43725" lon="4.95723">
        <ele>360.647</ele>
        <time>2017-04-01T00:48:54Z</time>
      </trkpt>
      <trkpt lat="47.43673" lon="4.95754">
        <ele>355.521</ele>
        <time>2017-04-01T00:49:14Z</time>
      </trkpt>
      <trkpt lat="47.43636" lon="4.95757">
        <ele>352.741</ele>
        <time>2017-04-01T00:49:34Z</time>
      </trkpt>
      <trkpt lat="47.43579" lon="4.95732">
        <ele>348.781</ele>
        <time>2017-04-01T00:49:54Z</time>
      </trkpt>
      <trkpt lat="47.43498" lon="4.95713">
        <ele>338.409</ele>
        <time>2017-04-01T00:50:14Z</time>
      </trkpt>
      <trkpt lat="47.43475" lon="4.95656">
        <ele>328.508</ele>
        <time>2017-04-01T00:50:34Z</time>
      </trkpt>
      <trkpt lat="47.43484" lon="4.95608">
        <ele>329.58</ele>
        <time>2017-04-01T00:50:54Z</time>
      </trkpt>
      <trkpt lat="47.43481" lon="4.95555">
        <ele>334.785</ele>
        <time>2017-04-01T00:51:14Z</time>
      </trkpt>
      <trkpt lat="47.43458" lon="4.95486">
        <ele>338.546</ele>
        <time>2017-04-01T00:51:34Z</time>
      </trkpt>
      <trkpt lat="47.43375" lon="4.95415">
        <ele>325.021</ele>
        <time>2017-04-01T00:51:54Z</time>
      </trkpt>
      <trkpt lat="47.43288" lon="4.95294">
        <ele>331.85</ele>
        <time>2017-04-01T00:52:14Z</time>
      </trkpt>
      <trkpt lat="47.43274" lon="4.95351">
        <ele>336.463</ele>
        <time>2017-04-01T00:52:34Z</time>
      </trkpt>
      <trkpt lat="47.43265" lon="4.95365">
        <ele>337.66</ele>
        <time>2017-04-01T00:52:54Z</time>
      </trkpt>
      <trkpt lat="47.43261" lon="4.95382">
        <ele>337.434</ele>
        <time>2017-04-01T00:53:14Z</time>
      </trkpt>
      <trkpt lat="47.43252" lon="4.95388">
        <ele>338.865</ele>
        <time>2017-04-01T00:53:34Z</time>
      </trkpt>
      <trkpt lat="47.43243" lon="4.95409">
        <ele>340.568</ele>
        <time>2017-04-01T00:53:54Z</time>
      </trkpt>
      <trkpt lat="47.43224" lon="4.95561">
        <ele>341.614</ele>
        <time>2017-04-01T00:54:14Z</time>
      </trkpt>
      <trkpt lat="47.43184" lon="4.95706">
        <ele>344.608</ele>
        <time>2017-04-01T00:54:34Z</time>
      </trkpt>
      <trkpt lat="47.43164" lon="4.95855">
        <ele>340.292</ele>
        <time>2017-04-01T00:54:54Z</time>
      </trkpt>
      <trkpt lat="47.43136" lon="4.95907">
        <ele>340.937</ele>
        <time>2017-04-01T00:55:14Z</time>
      </trkpt>
      <trkpt lat="47.43104" lon="4.95935">
        <ele>340.398</ele>
        <time>2017-04-01T00:55:34Z</time>
      </trkpt>
      <trkpt lat="47.43043" lon="4.95931">
        <ele>336.543</ele>
        <time>2017-04-01T00:55:54Z</time>
      </trkpt>
      <trkpt lat="47.42985" lon="4.9589">
        <ele>336.362</ele>
        <time>2017-04-01T00:56:14Z</time>
      </trkpt>
      <trkpt lat="47.42899" lon="4.95846">
        <ele>336.245</ele>
        <time>2017-04-01T00:56:34Z</time>
      </trkpt>
      <trkpt lat="47.42723" lon="4.95879">
        <ele>340.932</ele>
        <time>2017-04-01T00:56:54Z</time>
      </trkpt>
      <trkpt lat="47.42677" lon="4.95914">
        <ele>343.386</ele>
        <time>2017-04-01T00:57:14Z</time>
      </trkpt>
      <trkpt lat="47.42574" lon="4.96022">
        <ele>340.741</ele>
        <time>2017-04-01T00:57:34Z</time>
      </trkpt>
      <trkpt lat="47.42524" lon="4.9611">
        <ele>331.681</ele>
        <time>2017-04-01T00:57:54Z</time>
      </trkpt>
      <trkpt lat="47.42496" lon="4.96222">
        <ele>327.809</ele>
        <time>2017-04-01T00:58:14Z</time>
      </trkpt>
      <trkpt lat="47.42495" lon="4.96284">
        <ele>327.208</ele>
        <time>2017-04-01T00:58:34Z</time>
      </trkpt>
      <trkpt lat="47.4248" lon="4.9634">
        <ele>328.71</ele>
        <time>2017-04-01T00:58:54Z</time>
      </trkpt>
      <trkpt lat="47.4247" lon="4.96399">
        <ele>327.225</ele>
        <time>2017-04-01T00:59:14Z</time>
      </trkpt>
      <trkpt lat="47.42439" lon="4.96449">
        <ele>326.876</ele>
        <time>2017-04-01T00:59:34Z</time>
      </trkpt>
      <trkpt lat="47.42404" lon="4.96525">
        <ele>327.661</ele>
        <time>2017-04-01T00:59:54Z</time>
      </trkpt>
      <trkpt lat="47.42378" lon="4.96599">
        <ele>321.73</ele>
        <time>2017-04-01T01:00:14Z</time>
      </trkpt>
      <trkpt lat="47.42333" lon="4.96679">
        <ele>320.243</ele>
        <time>2017-04-01T01:00:34Z</time>
      </trkpt>
      <trkpt lat="47.42295" lon="4.96722">
        <ele>319.96</ele>
        <time>2017-04-01T01:00:54Z</time>
      </trkpt>
      <trkpt lat="47.42275" lon="4.96762">
        <ele>318.914</ele>
        <time>2017-04-01T01:01:14Z</time>
      </trkpt>
      <trkpt lat="47.42161" lon="4.96955">
        <ele>329.665</ele>
        <time>2017-04-01T01:01:34Z</time>
      </trkpt>
      <trkpt lat="47.42144" lon="4.97028">
        <ele>329.168</ele>
        <time>2017-04-01T01:01:54Z</time>
      </trkpt>
      <trkpt lat="47.42127" lon="4.97229">
        <ele>326.914</ele>
        <time>2017-04-01T01:02:14Z</time>
      </trkpt>
      <trkpt lat="47.4211" lon="4.97269">
        <ele>328.408</ele>
        <time>2017-04-01T01:02:34Z</time>
      </trkpt>
      <trkpt lat="47.42057" lon="4.97311">
        <ele>323.732</ele>
        <time>2017-04-01T01:02:54Z</time>
      </trkpt>
      <trkpt lat="47.41929" lon="4.97342">
        <ele>324.887</ele>
        <time>2017-04-01T01:03:14Z</time>
      </trkpt>
      <trkpt lat="47.41804" lon="4.9745">
        <ele>341.398</ele>
        <time>2017-04-01T01:03:34Z</time>
      </trkpt>
      <trkpt lat="47.41761" lon="4.97533">
        <ele>348.113</ele>
        <time>2017-04-01T01:03:54Z</time>
      </trkpt>
      <trkpt lat="47.41729" lon="4.97634">
        <ele>342.172</ele>
        <time>2017-04-01T01:04:14Z</time>
      </trkpt>
      <trkpt lat="47.4167" lon="4.9773">
        <ele>345.625</ele>
        <time>2017-04-01T01:04:34Z</time>
      </trkpt>
      <trkpt lat="47.41618" lon="4.97704">
        <ele>352.392</ele>
        <time>2017-04-01T01:04:54Z</time>
      </trkpt>
      <trkpt lat="47.41585" lon="4.97662">
        <ele>353.346</ele>
        <time>2017-04-01T01:05:14Z</time>
      </trkpt>
      <trkpt lat="47.41555" lon="4.97646">
        <ele>350.285</ele>
        <time>2017-04-01T01:05:34Z</time>
      </trkpt>
      <trkpt lat="47.41493" lon="4.97597">
        <ele>357.889</ele>
        <time>2017-04-01T01:05:54Z</time>
      </trkpt>
      <trkpt lat="47.41451" lon="4.97485">
        <ele>378.217</ele>
        <time>2017-04-01T01:06:14Z</time>
      </trkpt>
      <trkpt lat="47.41383" lon="4.97328">
        <ele>412.608</ele>
        <time>2017-04-01T01:06:34Z</time>
      </trkpt>
      <trkpt lat="47.41355" lon="4.97248">
        <ele>436.864</ele>
        <time>2017-04-01T01:06:54Z</time>
      </trkpt>
      <trkpt lat="47.41287" lon="4.97058">
        <ele>489.859</ele>
        <time>2020-11-28T14:58:48Z</time>
      </trkpt>
      <trkpt lat="47.41285" lon="4.97375">
        <ele>458.53</ele>
        <time>2020-11-28T14:59:08Z</time>
      </trkpt>
      <trkpt lat="47.41136" lon="4.97357">
        <ele>480.055</ele>
        <time>2020-11-28T14:59:28Z</time>
      </trkpt>
      <trkpt lat="47.41077" lon="4.97421">
        <ele>486.734</ele>
        <time>2020-11-28T14:59:48Z</time>
      </trkpt>
      <trkpt lat="47.41086" lon="4.97529">
        <ele>482.147</ele>
        <time>2020-11-28T15:00:08Z</time>
      </trkpt>
      <trkpt lat="47.41159" lon="4.97794">
        <ele>464.994</ele>
        <time>2020-11-28T15:00:28Z</time>
      </trkpt>
      <trkpt lat="47.41122" lon="4.98005">
        <ele>460.068</ele>
        <time>2020-11-28T15:00:48Z</time>
      </trkpt>
      <trkpt lat="47.41028" lon="4.98212">
        <ele>449.882</ele>
        <time>2020-11-28T15:01:08Z</time>
      </trkpt>
      <trkpt lat="47.40832" lon="4.9812">
        <ele>470.143</ele>
        <time>2020-11-28T15:01:28Z</time>
      </trkpt>
      <trkpt lat="47.40797" lon="4.98318">
        <ele>454.917</ele>
        <time>2020-11-28T15:01:48Z</time>
      </trkpt>
      <trkpt lat="47.40699" lon="4.98428">
        <ele>455.608</ele>
        <time>2020-11-28T15:02:08Z</time>
      </trkpt>
      <trkpt lat="47.40555" lon="4.98444">
        <ele>456.074</ele>
        <time>2020-11-28T15:02:28Z</time>
      </trkpt>
      <trkpt lat="47.40569" lon="4.98518">
        <ele>450.639</ele>
        <time>2020-11-28T15:02:48Z</time>
      </trkpt>
      <trkpt lat="47.40555" lon="4.98569">
        <ele>445.06</ele>
        <time>2020-11-28T15:03:08Z</time>
      </trkpt>
      <trkpt lat="47.40563" lon="4.9867">
        <ele>434.255</ele>
        <time>2020-11-28T15:03:28Z</time>
      </trkpt>
      <trkpt lat="47.40579" lon="4.98759">
        <ele>426.694</ele>
        <time>2020-11-28T15:03:48Z</time>
      </trkpt>
      <trkpt lat="47.40563" lon="4.98831">
        <ele>416.667</ele>
        <time>2020-11-28T15:04:08Z</time>
      </trkpt>
      <trkpt lat="47.40499" lon="4.98918">
        <ele>399.834</ele>
        <time>2020-11-28T15:04:28Z</time>
      </trkpt>
      <trkpt lat="47.40504" lon="4.98976">
        <ele>392.938</ele>
        <time>2020-11-28T15:04:48Z</time>
      </trkpt>
      <trkpt lat="47.40515" lon="4.99026">
        <ele>387.347</ele>
        <time>2020-11-28T15:05:08Z</time>
      </trkpt>
      <trkpt lat="47.4052" lon="4.99084">
        <ele>380.029</ele>
        <time>2020-11-28T15:05:28Z</time>
      </trkpt>
      <trkpt lat="47.40554" lon="4.99111">
        <ele>372.221</ele>
        <time>2020-11-28T15:05:48Z</time>
      </trkpt>
      <trkpt lat="47.40597" lon="4.99095">
        <ele>369.208</ele>
        <time>2020-11-28T15:06:08Z</time>
      </trkpt>
      <trkpt lat="47.4063" lon="4.99095">
        <ele>361.34</ele>
        <time>2020-11-28T15:06:28Z</time>
      </trkpt>
      <trkpt lat="47.40674" lon="4.99079">
        <ele>357.415</ele>
        <time>2020-11-28T15:06:48Z</time>
      </trkpt>
      <trkpt lat="47.40661" lon="4.99288">
        <ele>329.516</ele>
        <time>2020-11-28T15:07:08Z</time>
      </trkpt>
      <trkpt lat="47.4077" lon="4.99371">
        <ele>307.211</ele>
        <time>2020-11-28T15:07:28Z</time>
      </trkpt>
      <trkpt lat="47.40674" lon="4.99645">
        <ele>300.54</ele>
        <time>2020-11-28T15:07:48Z</time>
      </trkpt>
      <trkpt lat="47.40674" lon="4.99762">
        <ele>304.453</ele>
        <time>2020-11-28T15:08:08Z</time>
      </trkpt>
      <trkpt lat="47.40635" lon="4.99608">
        <ele>303.99</ele>
        <time>2020-11-28T15:08:28Z</time>
      </trkpt>
      <trkpt lat="47.40576" lon="4.99532">
        <ele>307.614</ele>
        <time>2020-11-28T15:08:48Z</time>
      </trkpt>
      <trkpt lat="47.40292" lon="4.99272">
        <ele>315.573</ele>
        <time>2020-11-28T15:09:08Z</time>
      </trkpt>
      <trkpt lat="47.40147" lon="4.99114">
        <ele>320.785</ele>
        <time>2020-11-28T15:09:28Z</time>
      </trkpt>
      <trkpt lat="47.40118" lon="4.99058">
        <ele>321.713</ele>
        <time>2020-11-28T15:09:48Z</time>
      </trkpt>
      <trkpt lat="47.40042" lon="4.98879">
        <ele>324.008</ele>
        <time>2020-11-28T15:10:08Z</time>
      </trkpt>
      <trkpt lat="47.40004" lon="4.98736">
        <ele>323.863</ele>
        <time>2020-11-28T15:10:28Z</time>
      </trkpt>
      <trkpt lat="47.3997" lon="4.98677">
        <ele>323.488</ele>
        <time>2020-11-28T15:10:48Z</time>
      </trkpt>
      <trkpt lat="47.39892" lon="4.98543">
        <ele>327.039</ele>
        <time>2020-11-28T15:11:08Z</time>
      </trkpt>
      <trkpt lat="47.39839" lon="4.98414">
        <ele>330.614</ele>
        <time>2020-11-28T15:11:28Z</time>
      </trkpt>
      <trkpt lat="47.39771" lon="4.98028">
        <ele>336.343</ele>
        <time>2020-11-28T15:11:48Z</time>
      </trkpt>
      <trkpt lat="47.39771" lon="4.97957">
        <ele>336.466</ele>
        <time>2020-11-28T15:12:08Z</time>
      </trkpt>
      <trkpt lat="47.3978" lon="4.97904">
        <ele>335.663</ele>
        <time>2020-11-28T15:12:28Z</time>
      </trkpt>
      <trkpt lat="47.39757" lon="4.97851">
        <ele>337.137</ele>
        <time>2020-11-28T15:12:48Z</time>
      </trkpt>
      <trkpt lat="47.39676" lon="4.97768">
        <ele>339.732</ele>
        <time>2020-11-28T15:13:08Z</time>
      </trkpt>
      <trkpt lat="47.39573" lon="4.97695">
        <ele>339.092</ele>
        <time>2020-11-28T15:13:28Z</time>
      </trkpt>
      <trkpt lat="47.395" lon="4.97616">
        <ele>342.211</ele>
        <time>2020-11-28T15:13:48Z</time>
      </trkpt>
      <trkpt lat="47.3938" lon="4.97366">
        <ele>347.008</ele>
        <time>2020-11-28T15:14:08Z</time>
      </trkpt>
      <trkpt lat="47.39315" lon="4.9734">
        <ele>342.849</ele>
        <time>2020-11-28T15:14:28Z</time>
      </trkpt>
      <trkpt lat="47.39366" lon="4.97267">
        <ele>347.514</ele>
        <time>2020-11-28T15:14:48Z</time>
      </trkpt>
      <trkpt lat="47.39431" lon="4.96989">
        <ele>355.935</ele>
        <time>2020-11-28T15:15:08Z</time>
      </trkpt>
      <trkpt lat="47.39435" lon="4.96841">
        <ele>360.32</ele>
        <time>2020-11-28T15:15:28Z</time>
      </trkpt>
      <trkpt lat="47.39413" lon="4.96763">
        <ele>359.899</ele>
        <time>2020-11-28T15:15:48Z</time>
      </trkpt>
      <trkpt lat="47.39315" lon="4.96563">
        <ele>370.682</ele>
        <time>2020-11-28T15:16:08Z</time>
      </trkpt>
      <trkpt lat="47.39279" lon="4.96349">
        <ele>376.179</ele>
        <time>2020-11-28T15:16:28Z</time>
      </trkpt>
      <trkpt lat="47.39274" lon="4.962">
        <ele>383.243</ele>
        <time>2020-11-28T15:16:48Z</time>
      </trkpt>
      <trkpt lat="47.39285" lon="4.96096">
        <ele>387.489</ele>
        <time>2020-11-28T15:17:08Z</time>
      </trkpt>
      <trkpt lat="47.39285" lon="4.96052">
        <ele>386.006</ele>
        <time>2017-04-01T01:34:34Z</time>
      </trkpt>
      <trkpt lat="47.39177" lon="4.95853">
        <ele>396.426</ele>
        <time>2017-04-01T01:34:54Z</time>
      </trkpt>
      <trkpt lat="47.39131" lon="4.95789">
        <ele>402.108</ele>
        <time>2017-04-01T01:35:14Z</time>
      </trkpt>
      <trkpt lat="47.39117" lon="4.95724">
        <ele>404.424</ele>
        <time>2017-04-01T01:35:34Z</time>
      </trkpt>
      <trkpt lat="47.3911" lon="4.95653">
        <ele>405.629</ele>
        <time>2017-04-01T01:35:54Z</time>
      </trkpt>
      <trkpt lat="47.39128" lon="4.95591">
        <ele>411.05</ele>
        <time>2017-04-01T01:36:14Z</time>
      </trkpt>
      <trkpt lat="47.39209" lon="4.95422">
        <ele>425.385</ele>
        <time>2017-04-01T01:36:34Z</time>
      </trkpt>
      <trkpt lat="47.39243" lon="4.95342">
        <ele>428.824</ele>
        <time>2017-04-01T01:36:54Z</time>
      </trkpt>
      <trkpt lat="47.39289" lon="4.95191">
        <ele>443.977</ele>
        <time>2017-04-01T01:37:14Z</time>
      </trkpt>
      <trkpt lat="47.39351" lon="4.95078">
        <ele>455.994</ele>
        <time>2017-04-01T01:37:34Z</time>
      </trkpt>
      <trkpt lat="47.39365" lon="4.95042">
        <ele>459.148</ele>
        <time>2017-04-01T01:37:54Z</time>
      </trkpt>
      <trkpt lat="47.39404" lon="4.94987">
        <ele>466.786</ele>
        <time>2017-04-01T01:38:14Z</time>
      </trkpt>
      <trkpt lat="47.39442" lon="4.94962">
        <ele>473.86</ele>
        <time>2017-04-01T01:38:34Z</time>
      </trkpt>
      <trkpt lat="47.39452" lon="4.9493">
        <ele>478.626</ele>
        <time>2017-04-01T01:38:54Z</time>
      </trkpt>
      <trkpt lat="47.39484" lon="4.94863">
        <ele>485.008</ele>
        <time>2017-04-01T01:39:14Z</time>
      </trkpt>
      <trkpt lat="47.39488" lon="4.94777">
        <ele>491.314</ele>
        <time>2017-04-01T01:39:34Z</time>
      </trkpt>
      <trkpt lat="47.3951" lon="4.94683">
        <ele>496.729</ele>
        <time>2017-04-01T01:39:54Z</time>
      </trkpt>
      <trkpt lat="47.39499" lon="4.94501">
        <ele>498.23</ele>
        <time>2017-04-01T01:40:14Z</time>
      </trkpt>
      <trkpt lat="47.39478" lon="4.94465">
        <ele>499.255</ele>
        <time>2017-04-01T01:40:34Z</time>
      </trkpt>
      <trkpt lat="47.39397" lon="4.94481">
        <ele>503.744</ele>
        <time>2017-04-01T01:40:54Z</time>
      </trkpt>
      <trkpt lat="47.39364" lon="4.94481">
        <ele>503.717</ele>
        <time>2017-04-01T01:41:14Z</time>
      </trkpt>
      <trkpt lat="47.39331" lon="4.94498">
        <ele>502.074</ele>
        <time>2017-04-01T01:41:34Z</time>
      </trkpt>
      <trkpt lat="47.39306" lon="4.94483">
        <ele>501.658</ele>
        <time>2017-04-01T01:41:54Z</time>
      </trkpt>
      <trkpt lat="47.39275" lon="4.94477">
        <ele>500.538</ele>
        <time>2017-04-01T01:42:14Z</time>
      </trkpt>
      <trkpt lat="47.39246" lon="4.94446">
        <ele>498.87</ele>
        <time>2017-04-01T01:42:34Z</time>
      </trkpt>
      <trkpt lat="47.39201" lon="4.94353">
        <ele>498.017</ele>
        <time>2017-04-01T01:42:54Z</time>
      </trkpt>
      <trkpt lat="47.39145" lon="4.94335">
        <ele>492.508</ele>
        <time>2017-04-01T01:43:14Z</time>
      </trkpt>
      <trkpt lat="47.39102" lon="4.94294">
        <ele>492.659</ele>
        <time>2017-04-01T01:43:34Z</time>
      </trkpt>
      <trkpt lat="47.38977" lon="4.9424">
        <ele>493.214</ele>
        <time>2017-04-01T01:43:54Z</time>
      </trkpt>
      <trkpt lat="47.38954" lon="4.94223">
        <ele>491.795</ele>
        <time>2017-04-01T01:44:14Z</time>
      </trkpt>
      <trkpt lat="47.3892" lon="4.94247">
        <ele>490.12</ele>
        <time>2017-04-01T01:44:34Z</time>
      </trkpt>
      <trkpt lat="47.38888" lon="4.94279">
        <ele>488.039</ele>
        <time>2017-04-01T01:44:54Z</time>
      </trkpt>
      <trkpt lat="47.38771" lon="4.94237">
        <ele>482.532</ele>
        <time>2017-04-01T01:45:14Z</time>
      </trkpt>
      <trkpt lat="47.38677" lon="4.94246">
        <ele>480.889</ele>
        <time>2017-04-01T01:45:34Z</time>
      </trkpt>
      <trkpt lat="47.38553" lon="4.94158">
        <ele>476.533</ele>
        <time>2017-04-01T01:45:54Z</time>
      </trkpt>
      <trkpt lat="47.3862" lon="4.94097">
        <ele>475.563</ele>
        <time>2017-04-01T01:46:14Z</time>
      </trkpt>
      <trkpt lat="47.38487" lon="4.94006">
        <ele>468.244</ele>
        <time>2017-04-01T01:46:34Z</time>
      </trkpt>
      <trkpt lat="47.38516" lon="4.93944">
        <ele>464.018</ele>
        <time>2017-04-01T01:46:54Z</time>
      </trkpt>
      <trkpt lat="47.38384" lon="4.93875">
        <ele>457.908</ele>
        <time>2017-04-01T01:47:14Z</time>
      </trkpt>
      <trkpt lat="47.38342" lon="4.93805">
        <ele>453.042</ele>
        <time>2017-04-01T01:47:34Z</time>
      </trkpt>
      <trkpt lat="47.38241" lon="4.93731">
        <ele>449.027</ele>
        <time>2017-04-01T01:47:54Z</time>
      </trkpt>
      <trkpt lat="47.38128" lon="4.93662">
        <ele>444.428</ele>
        <time>2017-04-01T01:48:14Z</time>
      </trkpt>
      <trkpt lat="47.38083" lon="4.9364">
        <ele>444.263</ele>
        <time>2017-04-01T01:48:34Z</time>
      </trkpt>
      <trkpt lat="47.38025" lon="4.93619">
        <ele>441.792</ele>
        <time>2017-04-01T01:48:54Z</time>
      </trkpt>
      <trkpt lat="47.38004" lon="4.93625">
        <ele>442.875</ele>
        <time>2017-04-01T01:49:14Z</time>
      </trkpt>
      <trkpt lat="47.37992" lon="4.9362">
        <ele>442.692</ele>
        <time>2017-04-01T01:49:34Z</time>
      </trkpt>
      <trkpt lat="47.37932" lon="4.93688">
        <ele>450.256</ele>
        <time>2017-04-01T01:49:54Z</time>
      </trkpt>
      <trkpt lat="47.37909" lon="4.93655">
        <ele>446.685</ele>
        <time>2017-04-01T01:50:14Z</time>
      </trkpt>
      <trkpt lat="47.37903" lon="4.93613">
        <ele>443.289</ele>
        <time>2017-04-01T01:50:34Z</time>
      </trkpt>
      <trkpt lat="47.37892" lon="4.93593">
        <ele>443.617</ele>
        <time>2017-04-01T01:50:54Z</time>
      </trkpt>
      <trkpt lat="47.37848" lon="4.93598">
        <ele>440.508</ele>
        <time>2017-04-01T01:51:14Z</time>
      </trkpt>
      <trkpt lat="47.37786" lon="4.93564">
        <ele>439.274</ele>
        <time>2017-04-01T01:51:34Z</time>
      </trkpt>
      <trkpt lat="47.37704" lon="4.93554">
        <ele>428.789</ele>
        <time>2017-04-01T01:51:54Z</time>
      </trkpt>
      <trkpt lat="47.37694" lon="4.93532">
        <ele>428.97</ele>
        <time>2017-04-01T01:52:14Z</time>
      </trkpt>
      <trkpt lat="47.37707" lon="4.93501">
        <ele>432.965</ele>
        <time>2017-04-01T01:52:34Z</time>
      </trkpt>
      <trkpt lat="47.377" lon="4.93469">
        <ele>436.494</ele>
        <time>2017-04-01T01:52:54Z</time>
      </trkpt>
      <trkpt lat="47.37653" lon="4.93454">
        <ele>441.377</ele>
        <time>2017-04-01T01:53:14Z</time>
      </trkpt>
      <trkpt lat="47.37611" lon="4.93414">
        <ele>442.944</ele>
        <time>2017-04-01T01:53:34Z</time>
      </trkpt>
      <trkpt lat="47.37508" lon="4.93477">
        <ele>440.348</ele>
        <time>2017-04-01T01:53:54Z</time>
      </trkpt>
      <trkpt lat="47.37379" lon="4.93463">
        <ele>436.091</ele>
        <time>2017-04-01T01:54:14Z</time>
      </trkpt>
      <trkpt lat="47.3729" lon="4.93401">
        <ele>439.681</ele>
        <time>2017-04-01T01:54:34Z</time>
      </trkpt>
      <trkpt lat="47.37234" lon="4.93377">
        <ele>438.219</ele>
        <time>2017-04-01T01:54:54Z</time>
      </trkpt>
      <trkpt lat="47.37173" lon="4.93336">
        <ele>440.008</ele>
        <time>2017-04-01T01:55:14Z</time>
      </trkpt>
      <trkpt lat="47.37139" lon="4.93287">
        <ele>445.675</ele>
        <time>2017-04-01T01:55:34Z</time>
      </trkpt>
      <trkpt lat="47.37034" lon="4.93253">
        <ele>441.56</ele>
        <time>2017-04-01T01:55:54Z</time>
      </trkpt>
      <trkpt lat="47.36995" lon="4.93227">
        <ele>443.851</ele>
        <time>2017-04-01T01:56:14Z</time>
      </trkpt>
      <trkpt lat="47.36948" lon="4.93213">
        <ele>442.226</ele>
        <time>2017-04-01T01:56:34Z</time>
      </trkpt>
      <trkpt lat="47.36823" lon="4.93152">
        <ele>436.385</ele>
        <time>2017-04-01T01:56:54Z</time>
      </trkpt>
      <trkpt lat="47.36774" lon="4.93096">
        <ele>439.798</ele>
        <time>2017-04-01T01:57:14Z</time>
      </trkpt>
      <trkpt lat="47.36674" lon="4.93018">
        <ele>433.335</ele>
        <time>2017-04-01T01:57:34Z</time>
      </trkpt>
      <trkpt lat="47.36592" lon="4.92891">
        <ele>431.619</ele>
        <time>2017-04-01T01:57:54Z</time>
      </trkpt>
      <trkpt lat="47.36522" lon="4.92845">
        <ele>425.874</ele>
        <time>2017-04-01T01:58:14Z</time>
      </trkpt>
      <trkpt lat="47.36567" lon="4.9269">
        <ele>442.056</ele>
        <time>2017-04-01T01:58:34Z</time>
      </trkpt>
      <trkpt lat="47.36626" lon="4.92613">
        <ele>444.721</ele>
        <time>2017-04-01T01:58:54Z</time>
      </trkpt>
      <trkpt lat="47.36676" lon="4.92586">
        <ele>448.708</ele>
        <time>2017-04-01T01:59:14Z</time>
      </trkpt>
      <trkpt lat="47.36779" lon="4.92563">
        <ele>452.923</ele>
        <time>2017-04-01T01:59:34Z</time>
      </trkpt>
      <trkpt lat="47.36806" lon="4.92548">
        <ele>452.918</ele>
        <time>2017-04-01T01:59:54Z</time>
      </trkpt>
      <trkpt lat="47.36826" lon="4.92474">
        <ele>440.379</ele>
        <time>2017-04-01T02:00:14Z</time>
      </trkpt>
      <trkpt lat="47.36855" lon="4.92398">
        <ele>429.684</ele>
        <time>2017-04-01T02:00:34Z</time>
      </trkpt>
      <trkpt lat="47.36882" lon="4.92362">
        <ele>431.613</ele>
        <time>2017-04-01T02:00:54Z</time>
      </trkpt>
      <trkpt lat="47.36784" lon="4.92211">
        <ele>438.846</ele>
        <time>2017-04-01T02:01:14Z</time>
      </trkpt>
      <trkpt lat="47.36748" lon="4.92276">
        <ele>432.443</ele>
        <time>2017-04-01T02:01:34Z</time>
      </trkpt>
      <trkpt lat="47.36725" lon="4.92279">
        <ele>433.467</ele>
        <time>2017-04-01T02:01:54Z</time>
      </trkpt>
      <trkpt lat="47.36622" lon="4.92247">
        <ele>446.738</ele>
        <time>2017-04-01T02:02:14Z</time>
      </trkpt>
      <trkpt lat="47.36527" lon="4.92273">
        <ele>450.17</ele>
        <time>2017-04-01T02:02:34Z</time>
      </trkpt>
      <trkpt lat="47.36414" lon="4.92357">
        <ele>449.117</ele>
        <time>2017-04-01T02:02:54Z</time>
      </trkpt>
      <trkpt lat="47.36285" lon="4.92513">
        <ele>439.608</ele>
        <time>2017-04-01T02:03:14Z</time>
      </trkpt>
      <trkpt lat="47.36246" lon="4.92523">
        <ele>441.859</ele>
        <time>2017-04-01T02:03:34Z</time>
      </trkpt>
      <trkpt lat="47.3622" lon="4.92554">
        <ele>437.514</ele>
        <time>2017-04-01T02:03:54Z</time>
      </trkpt>
      <trkpt lat="47.3619" lon="4.92598">
        <ele>433.665</ele>
        <time>2017-04-01T02:04:14Z</time>
      </trkpt>
      <trkpt lat="47.36175" lon="4.92635">
        <ele>429.04</ele>
        <time>2017-04-01T02:04:34Z</time>
      </trkpt>
      <trkpt lat="47.36141" lon="4.92674">
        <ele>424.929</ele>
        <time>2017-04-01T02:04:54Z</time>
      </trkpt>
      <trkpt lat="47.36076" lon="4.927">
        <ele>425.792</ele>
        <time>2017-04-01T02:05:14Z</time>
      </trkpt>
      <trkpt lat="47.36008" lon="4.92705">
        <ele>433.139</ele>
        <time>2017-04-01T02:05:34Z</time>
      </trkpt>
      <trkpt lat="47.35954" lon="4.92729">
        <ele>434.093</ele>
        <time>2017-04-01T02:05:54Z</time>
      </trkpt>
      <trkpt lat="47.35918" lon="4.92777">
        <ele>427.943</ele>
        <time>2017-04-01T02:06:14Z</time>
      </trkpt>
      <trkpt lat="47.35886" lon="4.92794">
        <ele>426.364</ele>
        <time>2017-04-01T02:06:34Z</time>
      </trkpt>
      <trkpt lat="47.35834" lon="4.92877">
        <ele>420.91</ele>
        <time>2017-04-01T02:06:54Z</time>
      </trkpt>
      <trkpt lat="47.35792" lon="4.92922">
        <ele>415.508</ele>
        <time>2017-04-01T02:07:14Z</time>
      </trkpt>
      <trkpt lat="47.35764" lon="4.92941">
        <ele>414.03</ele>
        <time>2017-04-01T02:07:34Z</time>
      </trkpt>
      <trkpt lat="47.35727" lon="4.93004">
        <ele>406.945</ele>
        <time>2017-04-01T02:07:54Z</time>
      </trkpt>
      <trkpt lat="47.35707" lon="4.93021">
        <ele>404.746</ele>
        <time>2017-04-01T02:08:14Z</time>
      </trkpt>
      <trkpt lat="47.35689" lon="4.93058">
        <ele>400.891</ele>
        <time>2017-04-01T02:08:34Z</time>
      </trkpt>
      <trkpt lat="47.35666" lon="4.93145">
        <ele>387.64</ele>
        <time>2017-04-01T02:08:54Z</time>
      </trkpt>
      <trkpt lat="47.35582" lon="4.93125">
        <ele>383.863</ele>
        <time>2017-04-01T02:09:14Z</time>
      </trkpt>
      <trkpt lat="47.35498" lon="4.93115">
        <ele>373.78</ele>
        <time>2017-04-01T02:09:34Z</time>
      </trkpt>
      <trkpt lat="47.35451" lon="4.93137">
        <ele>364.024</ele>
        <time>2017-04-01T02:09:54Z</time>
      </trkpt>
      <trkpt lat="47.35434" lon="4.93115">
        <ele>362.534</ele>
        <time>2017-04-01T02:10:14Z</time>
      </trkpt>
      <trkpt lat="47.35443" lon="4.93078">
        <ele>366.855</ele>
        <time>2017-04-01T02:10:34Z</time>
      </trkpt>
      <trkpt lat="47.35486" lon="4.93015">
        <ele>376.71</ele>
        <time>2017-04-01T02:10:54Z</time>
      </trkpt>
      <trkpt lat="47.35507" lon="4.92969">
        <ele>379.708</ele>
        <time>2017-04-01T02:11:14Z</time>
      </trkpt>
      <trkpt lat="47.35514" lon="4.92942">
        <ele>381.139</ele>
        <time>2017-04-01T02:11:34Z</time>
      </trkpt>
      <trkpt lat="47.35504" lon="4.92893">
        <ele>380.684</ele>
        <time>2017-04-01T02:11:54Z</time>
      </trkpt>
      <trkpt lat="47.35508" lon="4.92842">
        <ele>385.225</ele>
        <time>2017-04-01T02:12:14Z</time>
      </trkpt>
      <trkpt lat="47.35495" lon="4.92799">
        <ele>386.95</ele>
        <time>2017-04-01T02:12:34Z</time>
      </trkpt>
      <trkpt lat="47.35495" lon="4.92772">
        <ele>389.079</ele>
        <time>2017-04-01T02:12:54Z</time>
      </trkpt>
      <trkpt lat="47.35478" lon="4.9274">
        <ele>390.082</ele>
        <time>2017-04-01T02:13:14Z</time>
      </trkpt>
      <trkpt lat="47.35459" lon="4.92726">
        <ele>389.849</ele>
        <time>2017-04-01T02:13:34Z</time>
      </trkpt>
      <trkpt lat="47.35471" lon="4.92688">
        <ele>393.283</ele>
        <time>2017-04-01T02:13:54Z</time>
      </trkpt>
      <trkpt lat="47.35455" lon="4.92649">
        <ele>393.782</ele>
        <time>2017-04-01T02:14:14Z</time>
      </trkpt>
      <trkpt lat="47.35442" lon="4.92606">
        <ele>394.743</ele>
        <time>2017-04-01T02:14:34Z</time>
      </trkpt>
      <trkpt lat="47.35421" lon="4.92579">
        <ele>391.417</ele>
        <time>2017-04-01T02:14:54Z</time>
      </trkpt>
      <trkpt lat="47.35409" lon="4.92547">
        <ele>387.908</ele>
        <time>2017-04-01T02:15:14Z</time>
      </trkpt>
      <trkpt lat="47.35058" lon="4.92749">
        <ele>377.094</ele>
        <time>2017-04-01T02:15:34Z</time>
      </trkpt>
      <trkpt lat="47.35031" lon="4.92689">
        <ele>372.479</ele>
        <time>2017-04-01T02:15:54Z</time>
      </trkpt>
      <trkpt lat="47.34972" lon="4.92646">
        <ele>367.54</ele>
        <time>2017-04-01T02:16:14Z</time>
      </trkpt>
      <trkpt lat="47.34965" lon="4.92593">
        <ele>365.455</ele>
        <time>2017-04-01T02:16:34Z</time>
      </trkpt>
      <trkpt lat="47.34973" lon="4.92477">
        <ele>356.674</ele>
        <time>2017-04-01T02:16:54Z</time>
      </trkpt>
      <trkpt lat="47.3495" lon="4.92357">
        <ele>342.637</ele>
        <time>2017-04-01T02:17:14Z</time>
      </trkpt>
      <trkpt lat="47.34942" lon="4.9224">
        <ele>329.984</ele>
        <time>2017-04-01T02:17:34Z</time>
      </trkpt>
      <trkpt lat="47.34949" lon="4.9214">
        <ele>318.698</ele>
        <time>2017-04-01T02:17:54Z</time>
      </trkpt>
      <trkpt lat="47.34931" lon="4.92125">
        <ele>317.834</ele>
        <time>2017-04-01T02:18:14Z</time>
      </trkpt>
      <trkpt lat="47.34835" lon="4.92217">
        <ele>316.955</ele>
        <time>2017-04-01T02:18:34Z</time>
      </trkpt>
      <trkpt lat="47.34772" lon="4.92253">
        <ele>314.41</ele>
        <time>2017-04-01T02:18:54Z</time>
      </trkpt>
      <trkpt lat="47.3469" lon="4.92254">
        <ele>312.608</ele>
        <time>2017-04-01T02:19:14Z</time>
      </trkpt>
      <trkpt lat="47.34616" lon="4.92279">
        <ele>310.749</ele>
        <time>2017-04-01T02:19:34Z</time>
      </trkpt>
      <trkpt lat="47.34599" lon="4.92276">
        <ele>308.854</ele>
        <time>2017-04-01T02:19:54Z</time>
      </trkpt>
      <trkpt lat="47.34586" lon="4.92241">
        <ele>305.015</ele>
        <time>2017-04-01T02:20:14Z</time>
      </trkpt>
      <trkpt lat="47.34606" lon="4.92042">
        <ele>315.29</ele>
        <time>2017-04-01T02:20:34Z</time>
      </trkpt>
      <trkpt lat="47.34608" lon="4.91944">
        <ele>319.479</ele>
        <time>2017-04-01T02:20:54Z</time>
      </trkpt>
      <trkpt lat="47.34606" lon="4.91806">
        <ele>325.852</ele>
        <time>2017-04-01T02:21:14Z</time>
      </trkpt>
      <trkpt lat="47.34591" lon="4.91707">
        <ele>332.369</ele>
        <time>2017-04-01T02:21:34Z</time>
      </trkpt>
      <trkpt lat="47.34567" lon="4.91675">
        <ele>335.133</ele>
        <time>2017-04-01T02:21:54Z</time>
      </trkpt>
      <trkpt lat="47.34556" lon="4.91628">
        <ele>337.463</ele>
        <time>2017-04-01T02:22:14Z</time>
      </trkpt>
      <trkpt lat="47.3453" lon="4.91575">
        <ele>342.444</ele>
        <time>2017-04-01T02:22:34Z</time>
      </trkpt>
      <trkpt lat="47.345" lon="4.91562">
        <ele>344.518</ele>
        <time>2017-04-01T02:22:54Z</time>
      </trkpt>
      <trkpt lat="47.34404" lon="4.91557">
        <ele>357.908</ele>
        <time>2017-04-01T02:23:14Z</time>
      </trkpt>
      <trkpt lat="47.34344" lon="4.9153">
        <ele>365.682</ele>
        <time>2017-04-01T02:23:34Z</time>
      </trkpt>
      <trkpt lat="47.34257" lon="4.91528">
        <ele>370.887</ele>
        <time>2017-04-01T02:23:54Z</time>
      </trkpt>
      <trkpt lat="47.34209" lon="4.9158">
        <ele>372.418</ele>
        <time>2017-04-01T02:24:14Z</time>
      </trkpt>
      <trkpt lat="47.34185" lon="4.91601">
        <ele>376.233</ele>
        <time>2017-04-01T02:24:34Z</time>
      </trkpt>
      <trkpt lat="47.34121" lon="4.91591">
        <ele>387.232</ele>
        <time>2017-04-01T02:24:54Z</time>
      </trkpt>
      <trkpt lat="47.34066" lon="4.91583">
        <ele>392.385</ele>
        <time>2017-04-01T02:25:14Z</time>
      </trkpt>
      <trkpt lat="47.34027" lon="4.9157">
        <ele>394.512</ele>
        <time>2017-04-01T02:25:34Z</time>
      </trkpt>
      <trkpt lat="47.34017" lon="4.91556">
        <ele>395.046</ele>
        <time>2017-04-01T02:25:54Z</time>
      </trkpt>
      <trkpt lat="47.34021" lon="4.91511">
        <ele>395.994</ele>
        <time>2017-04-01T02:26:14Z</time>
      </trkpt>
      <trkpt lat="47.33961" lon="4.91508">
        <ele>396.857</ele>
        <time>2017-04-01T02:26:34Z</time>
      </trkpt>
      <trkpt lat="47.33936" lon="4.91503">
        <ele>397.922</ele>
        <time>2017-04-01T02:26:54Z</time>
      </trkpt>
      <trkpt lat="47.33682" lon="4.91541">
        <ele>393.908</ele>
        <time>2017-04-01T02:27:14Z</time>
      </trkpt>
      <trkpt lat="47.33627" lon="4.91563">
        <ele>393.655</ele>
        <time>2017-04-01T02:27:34Z</time>
      </trkpt>
      <trkpt lat="47.33574" lon="4.91598">
        <ele>392.59</ele>
        <time>2017-04-01T02:27:54Z</time>
      </trkpt>
      <trkpt lat="47.33531" lon="4.91641">
        <ele>394.291</ele>
        <time>2017-04-01T02:28:14Z</time>
      </trkpt>
      <trkpt lat="47.33503" lon="4.91649">
        <ele>394.186</ele>
        <time>2017-04-01T02:28:34Z</time>
      </trkpt>
      <trkpt lat="47.33499" lon="4.91593">
        <ele>400.745</ele>
        <time>2017-04-01T02:28:54Z</time>
      </trkpt>
      <trkpt lat="47.33504" lon="4.91533">
        <ele>402.888</ele>
        <time>2017-04-01T02:29:14Z</time>
      </trkpt>
      <trkpt lat="47.33491" lon="4.91505">
        <ele>405.125</ele>
        <time>2017-04-01T02:29:34Z</time>
      </trkpt>
      <trkpt lat="47.33495" lon="4.91441">
        <ele>406.099</ele>
        <time>2017-04-01T02:29:54Z</time>
      </trkpt>
      <trkpt lat="47.33478" lon="4.91396">
        <ele>406.011</ele>
        <time>2017-04-01T02:30:14Z</time>
      </trkpt>
      <trkpt lat="47.33476" lon="4.91358">
        <ele>405.121</ele>
        <time>2017-04-01T02:30:34Z</time>
      </trkpt>
      <trkpt lat="47.33459" lon="4.91322">
        <ele>404.503</ele>
        <time>2017-04-01T02:30:54Z</time>
      </trkpt>
      <trkpt lat="47.33437" lon="4.91261">
        <ele>403.508</ele>
        <time>2017-04-01T02:31:14Z</time>
      </trkpt>
      <trkpt lat="47.33394" lon="4.91218">
        <ele>403.017</ele>
        <time>2017-04-01T02:31:34Z</time>
      </trkpt>
      <trkpt lat="47.33376" lon="4.91183">
        <ele>403.312</ele>
        <time>2017-04-01T02:31:54Z</time>
      </trkpt>
      <trkpt lat="47.33349" lon="4.91141">
        <ele>401.293</ele>
        <time>2017-04-01T02:32:14Z</time>
      </trkpt>
      <trkpt lat="47.33297" lon="4.90972">
        <ele>391.378</ele>
        <time>2017-04-01T02:32:34Z</time>
      </trkpt>
      <trkpt lat="47.33245" lon="4.90928">
        <ele>387.527</ele>
        <time>2017-04-01T02:32:54Z</time>
      </trkpt>
      <trkpt lat="47.33229" lon="4.9092">
        <ele>387.83</ele>
        <time>2017-04-01T02:33:14Z</time>
      </trkpt>
      <trkpt lat="47.33173" lon="4.90865">
        <ele>383.547</ele>
        <time>2017-04-01T02:33:34Z</time>
      </trkpt>
      <trkpt lat="47.33167" lon="4.90884">
        <ele>384.861</ele>
        <time>2017-04-01T02:33:54Z</time>
      </trkpt>
      <trkpt lat="47.3307" lon="4.90827">
        <ele>383.781</ele>
        <time>2017-04-01T02:34:14Z</time>
      </trkpt>
      <trkpt lat="47.33017" lon="4.90763">
        <ele>379.361</ele>
        <time>2017-04-01T02:34:34Z</time>
      </trkpt>
      <trkpt lat="47.3296" lon="4.90731">
        <ele>378.217</ele>
        <time>2017-04-01T02:34:54Z</time>
      </trkpt>
      <trkpt lat="47.32932" lon="4.90703">
        <ele>376.708</ele>
        <time>2017-04-01T02:35:14Z</time>
      </trkpt>
      <trkpt lat="47.32903" lon="4.90687">
        <ele>375.694</ele>
        <time>2017-04-01T02:35:34Z</time>
      </trkpt>
      <trkpt lat="47.3288" lon="4.90668">
        <ele>374.159</ele>
        <time>2017-04-01T02:35:54Z</time>
      </trkpt>
      <trkpt lat="47.3284" lon="4.90646">
        <ele>371.98</ele>
        <time>2017-04-01T02:36:14Z</time>
      </trkpt>
      <trkpt lat="47.32752" lon="4.90624">
        <ele>367.685</ele>
        <time>2017-04-01T02:36:34Z</time>
      </trkpt>
      <trkpt lat="47.32692" lon="4.90591">
        <ele>364.224</ele>
        <time>2017-04-01T02:36:54Z</time>
      </trkpt>
      <trkpt lat="47.32656" lon="4.90586">
        <ele>361.727</ele>
        <time>2017-04-01T02:37:14Z</time>
      </trkpt>
      <trkpt lat="47.32579" lon="4.90585">
        <ele>352.374</ele>
        <time>2017-04-01T02:37:34Z</time>
      </trkpt>
      <trkpt lat="47.32562" lon="4.90587">
        <ele>349.718</ele>
        <time>2017-04-01T02:37:54Z</time>
      </trkpt>
      <trkpt lat="47.32493" lon="4.90563">
        <ele>345.166</ele>
        <time>2017-04-01T02:38:14Z</time>
      </trkpt>
      <trkpt lat="47.3242" lon="4.90583">
        <ele>333.729</ele>
        <time>2017-04-01T02:38:34Z</time>
      </trkpt>
      <trkpt lat="47.32402" lon="4.906">
        <ele>329.721</ele>
        <time>2017-04-01T02:38:54Z</time>
      </trkpt>
      <trkpt lat="47.32325" lon="4.90626">
        <ele>317.108</ele>
        <time>2017-04-01T02:39:14Z</time>
      </trkpt>
      <trkpt lat="47.32302" lon="4.90665">
        <ele>308.772</ele>
        <time>2017-04-01T02:39:34Z</time>
      </trkpt>
      <trkpt lat="47.32278" lon="4.90679">
        <ele>305.247</ele>
        <time>2017-04-01T02:39:54Z</time>
      </trkpt>
      <trkpt lat="47.32278" lon="4.90694">
        <ele>304.158</ele>
        <time>2017-04-01T02:40:14Z</time>
      </trkpt>
      <trkpt lat="47.32314" lon="4.90704">
        <ele>306.463</ele>
        <time>2017-04-01T02:40:34Z</time>
      </trkpt>
      <trkpt lat="47.32315" lon="4.90721">
        <ele>305.422</ele>
        <time>2017-04-01T02:40:54Z</time>
      </trkpt>
      <trkpt lat="47.32237" lon="4.90731">
        <ele>297.185</ele>
        <time>2017-04-01T02:41:14Z</time>
      </trkpt>
      <trkpt lat="47.32203" lon="4.90707">
        <ele>292.532</ele>
        <time>2017-04-01T02:41:34Z</time>
      </trkpt>
      <trkpt lat="47.32158" lon="4.90748">
        <ele>284.426</ele>
        <time>2017-04-01T02:41:54Z</time>
      </trkpt>
      <trkpt lat="47.32145" lon="4.90791">
        <ele>282.442</ele>
        <time>2017-04-01T02:42:14Z</time>
      </trkpt>
      <trkpt lat="47.32087" lon="4.90805">
        <ele>273.522</ele>
        <time>2017-04-01T02:42:34Z</time>
      </trkpt>
      <trkpt lat="47.32044" lon="4.90788">
        <ele>270.614</ele>
        <time>2017-04-01T02:42:54Z</time>
      </trkpt>
      <trkpt lat="47.32018" lon="4.90761">
        <ele>268.208</ele>
        <time>2017-04-01T02:43:14Z</time>
      </trkpt>
      <trkpt lat="47.31956" lon="4.9073">
        <ele>265.09</ele>
        <time>2017-04-01T02:43:34Z</time>
      </trkpt>
      <trkpt lat="47.31955" lon="4.90737">
        <ele>264.575</ele>
        <time>2017-03-31T19:37:43Z</time>
      </trkpt>
      <trkpt lat="47.31955" lon="4.90737">
        <ele>264.536</ele>
        <time>2017-03-31T19:37:43Z</time>
      </trkpt>
      <trkpt lat="47.31913" lon="4.90784">
        <ele>262.341</ele>
        <time>2017-03-31T19:38:03Z</time>
      </trkpt>
      <trkpt lat="47.31862" lon="4.90883">
        <ele>262.24</ele>
        <time>2017-03-31T19:38:23Z</time>
      </trkpt>
      <trkpt lat="47.31848" lon="4.90935">
        <ele>261.383</ele>
        <time>2017-03-31T19:38:43Z</time>
      </trkpt>
      <trkpt lat="47.31844" lon="4.91047">
        <ele>261.02</ele>
        <time>2017-03-31T19:39:03Z</time>
      </trkpt>
      <trkpt lat="47.31823" lon="4.91095">
        <ele>262.634</ele>
        <time>2017-03-31T19:39:23Z</time>
      </trkpt>
      <trkpt lat="47.31788" lon="4.9106">
        <ele>261.133</ele>
        <time>2017-03-31T19:39:43Z</time>
      </trkpt>
      <trkpt lat="47.31746" lon="4.91103">
        <ele>261.723</ele>
        <time>2017-03-31T19:40:03Z</time>
      </trkpt>
      <trkpt lat="47.3178" lon="4.91177">
        <ele>264.915</ele>
        <time>2017-03-31T19:40:23Z</time>
      </trkpt>
      <trkpt lat="47.31762" lon="4.91224">
        <ele>266.008</ele>
        <time>2017-03-31T19:40:43Z</time>
      </trkpt>
      <trkpt lat="47.31742" lon="4.9125">
        <ele>266.049</ele>
        <time>2017-03-31T19:41:03Z</time>
      </trkpt>
      <trkpt lat="47.31729" lon="4.91256">
        <ele>266.214</ele>
        <time>2017-03-31T19:41:23Z</time>
      </trkpt>
      <trkpt lat="47.31732" lon="4.91288">
        <ele>267.435</ele>
        <time>2017-03-31T19:41:43Z</time>
      </trkpt>
      <trkpt lat="47.31677" lon="4.9125">
        <ele>268.61</ele>
        <time>2017-03-31T19:42:03Z</time>
      </trkpt>
      <trkpt lat="47.31637" lon="4.91238">
        <ele>269.659</ele>
        <time>2017-03-31T19:42:23Z</time>
      </trkpt>
      <trkpt lat="47.31572" lon="4.91198">
        <ele>276.352</ele>
        <time>2017-03-31T19:42:43Z</time>
      </trkpt>
      <trkpt lat="47.31525" lon="4.91108">
        <ele>284.619</ele>
        <time>2017-03-31T19:43:03Z</time>
      </trkpt>
      <trkpt lat="47.31453" lon="4.91115">
        <ele>290.083</ele>
        <time>2017-03-31T19:43:23Z</time>
      </trkpt>
      <trkpt lat="47.31384" lon="4.91113">
        <ele>295.651</ele>
        <time>2017-03-31T19:43:43Z</time>
      </trkpt>
      <trkpt lat="47.31349" lon="4.91142">
        <ele>295.301</ele>
        <time>2017-03-31T19:44:03Z</time>
      </trkpt>
      <trkpt lat="47.31257" lon="4.91148">
        <ele>302.511</ele>
        <time>2017-03-31T19:44:23Z</time>
      </trkpt>
      <trkpt lat="47.31186" lon="4.911">
        <ele>310.608</ele>
        <time>2017-03-31T19:44:43Z</time>
      </trkpt>
      <trkpt lat="47.31168" lon="4.91073">
        <ele>315.341</ele>
        <time>2017-03-31T19:45:03Z</time>
      </trkpt>
      <trkpt lat="47.31008" lon="4.90964">
        <ele>326.776</ele>
        <time>2017-03-31T19:45:23Z</time>
      </trkpt>
      <trkpt lat="47.30951" lon="4.90954">
        <ele>326.467</ele>
        <time>2017-03-31T19:45:43Z</time>
      </trkpt>
      <trkpt lat="47.30882" lon="4.90913">
        <ele>333.862</ele>
        <time>2017-03-31T19:46:03Z</time>
      </trkpt>
      <trkpt lat="47.30814" lon="4.90911">
        <ele>335.381</ele>
        <time>2017-03-31T19:46:23Z</time>
      </trkpt>
      <trkpt lat="47.30736" lon="4.90925">
        <ele>336.594</ele>
        <time>2017-03-31T19:46:43Z</time>
      </trkpt>
      <trkpt lat="47.30618" lon="4.9092">
        <ele>337.861</ele>
        <time>2017-03-31T19:47:03Z</time>
      </trkpt>
      <trkpt lat="47.30586" lon="4.90926">
        <ele>339.225</ele>
        <time>2017-03-31T19:47:23Z</time>
      </trkpt>
      <trkpt lat="47.30512" lon="4.90924">
        <ele>338.277</ele>
        <time>2017-03-31T19:47:43Z</time>
      </trkpt>
      <trkpt lat="47.3043" lon="4.90912">
        <ele>341.361</ele>
        <time>2017-03-31T19:48:03Z</time>
      </trkpt>
      <trkpt lat="47.30369" lon="4.90914">
        <ele>343.227</ele>
        <time>2017-03-31T19:48:23Z</time>
      </trkpt>
      <trkpt lat="47.3035" lon="4.90933">
        <ele>344.808</ele>
        <time>2017-03-31T19:48:43Z</time>
      </trkpt>
      <trkpt lat="47.30372" lon="4.90885">
        <ele>344.593</ele>
        <time>2017-03-31T19:49:03Z</time>
      </trkpt>
      <trkpt lat="47.30374" lon="4.90836">
        <ele>352.588</ele>
        <time>2017-03-31T19:49:23Z</time>
      </trkpt>
      <trkpt lat="47.30406" lon="4.90795">
        <ele>360.139</ele>
        <time>2017-03-31T19:49:43Z</time>
      </trkpt>
      <trkpt lat="47.30409" lon="4.90766">
        <ele>366.064</ele>
        <time>2017-03-31T19:50:03Z</time>
      </trkpt>
      <trkpt lat="47.30421" lon="4.90746">
        <ele>371.083</ele>
        <time>2017-03-31T19:50:23Z</time>
      </trkpt>
      <trkpt lat="47.30426" lon="4.90706">
        <ele>378.346</ele>
        <time>2017-03-31T19:50:43Z</time>
      </trkpt>
      <trkpt lat="47.30438" lon="4.90668">
        <ele>385.593</ele>
        <time>2017-03-31T19:51:03Z</time>
      </trkpt>
      <trkpt lat="47.3049" lon="4.90558">
        <ele>401.717</ele>
        <time>2017-03-31T19:51:23Z</time>
      </trkpt>
      <trkpt lat="47.30525" lon="4.90498">
        <ele>414.333</ele>
        <time>2017-03-31T19:51:43Z</time>
      </trkpt>
      <trkpt lat="47.30488" lon="4.90494">
        <ele>414.423</ele>
        <time>2017-03-31T19:52:03Z</time>
      </trkpt>
      <trkpt lat="47.30426" lon="4.90469">
        <ele>422.415</ele>
        <time>2017-03-31T19:52:23Z</time>
      </trkpt>
      <trkpt lat="47.30415" lon="4.90319">
        <ele>454.108</ele>
        <time>2017-03-31T19:52:43Z</time>
      </trkpt>
      <trkpt lat="47.30397" lon="4.90334">
        <ele>449.699</ele>
        <time>2017-03-31T19:53:03Z</time>
      </trkpt>
      <trkpt lat="47.30403" lon="4.90298">
        <ele>459.144</ele>
        <time>2017-03-31T19:53:23Z</time>
      </trkpt>
      <trkpt lat="47.3039" lon="4.90251">
        <ele>477.435</ele>
        <time>2017-03-31T19:53:43Z</time>
      </trkpt>
      <trkpt lat="47.30396" lon="4.90231">
        <ele>485.36</ele>
        <time>2017-03-31T19:54:03Z</time>
      </trkpt>
      <trkpt lat="47.30389" lon="4.90189">
        <ele>506.469</ele>
        <time>2017-03-31T19:54:23Z</time>
      </trkpt>
      <trkpt lat="47.3035" lon="4.90156">
        <ele>522.552</ele>
        <time>2017-03-31T19:54:43Z</time>
      </trkpt>
      <trkpt lat="47.30325" lon="4.90125">
        <ele>533.099</ele>
        <time>2017-03-31T19:55:03Z</time>
      </trkpt>
      <trkpt lat="47.30283" lon="4.9011">
        <ele>535.673</ele>
        <time>2017-03-31T19:55:23Z</time>
      </trkpt>
      <trkpt lat="47.3024" lon="4.90088">
        <ele>541.856</ele>
        <time>2017-03-31T19:55:43Z</time>
      </trkpt>
      <trkpt lat="47.30189" lon="4.90039">
        <ele>547.859</ele>
        <time>2017-03-31T19:56:03Z</time>
      </trkpt>
      <trkpt lat="47.30009" lon="4.90014">
        <ele>550.214</ele>
        <time>2017-03-31T19:56:23Z</time>
      </trkpt>
      <trkpt lat="47.29854" lon="4.90027">
        <ele>557.908</ele>
        <time>2017-03-31T19:56:43Z</time>
      </trkpt>
      <trkpt lat="47.29785" lon="4.90047">
        <ele>558.331</ele>
        <time>2017-03-31T19:57:03Z</time>
      </trkpt>
      <trkpt lat="47.29726" lon="4.90079">
        <ele>562.086</ele>
        <time>2017-03-31T19:57:23Z</time>
      </trkpt>
      <trkpt lat="47.29681" lon="4.90122">
        <ele>565.487</ele>
        <time>2017-03-31T19:57:43Z</time>
      </trkpt>
      <trkpt lat="47.29579" lon="4.90171">
        <ele>570.042</ele>
        <time>2017-03-31T19:58:03Z</time>
      </trkpt>
      <trkpt lat="47.29563" lon="4.90196">
        <ele>572.091</ele>
        <time>2017-03-31T19:58:23Z</time>
      </trkpt>
      <trkpt lat="47.29509" lon="4.90225">
        <ele>571.814</ele>
        <time>2017-03-31T19:58:43Z</time>
      </trkpt>
      <trkpt lat="47.29456" lon="4.90261">
        <ele>572.821</ele>
        <time>2017-03-31T19:59:03Z</time>
      </trkpt>
      <trkpt lat="47.29414" lon="4.90269">
        <ele>574.295</ele>
        <time>2017-03-31T19:59:23Z</time>
      </trkpt>
      <trkpt lat="47.29366" lon="4.90298">
        <ele>577.636</ele>
        <time>2017-03-31T19:59:43Z</time>
      </trkpt>
      <trkpt lat="47.29305" lon="4.90287">
        <ele>569.917</ele>
        <time>2017-03-31T20:00:03Z</time>
      </trkpt>
      <trkpt lat="47.29255" lon="4.9032">
        <ele>571.118</ele>
        <time>2017-03-31T20:00:23Z</time>
      </trkpt>
      <trkpt lat="47.29213" lon="4.90374">
        <ele>570.308</ele>
        <time>2017-03-31T20:00:43Z</time>
      </trkpt>
      <trkpt lat="47.29186" lon="4.90401">
        <ele>567.819</ele>
        <time>2017-03-31T20:01:03Z</time>
      </trkpt>
      <trkpt lat="47.29163" lon="4.90401">
        <ele>565.454</ele>
        <time>2017-03-31T20:01:23Z</time>
      </trkpt>
      <trkpt lat="47.2911" lon="4.90378">
        <ele>565.365</ele>
        <time>2017-03-31T20:01:43Z</time>
      </trkpt>
      <trkpt lat="47.29081" lon="4.90358">
        <ele>564.63</ele>
        <time>2017-03-31T20:02:03Z</time>
      </trkpt>
      <trkpt lat="47.29065" lon="4.90336">
        <ele>562.259</ele>
        <time>2017-03-31T20:02:23Z</time>
      </trkpt>
      <trkpt lat="47.29016" lon="4.90326">
        <ele>555.342</ele>
        <time>2017-03-31T20:02:43Z</time>
      </trkpt>
      <trkpt lat="47.28982" lon="4.90313">
        <ele>551.549</ele>
        <time>2017-03-31T20:03:03Z</time>
      </trkpt>
      <trkpt lat="47.2893" lon="4.90307">
        <ele>546.513</ele>
        <time>2017-03-31T20:03:23Z</time>
      </trkpt>
      <trkpt lat="47.28884" lon="4.90306">
        <ele>541.896</ele>
        <time>2017-03-31T20:03:43Z</time>
      </trkpt>
      <trkpt lat="47.28797" lon="4.90269">
        <ele>539.231</ele>
        <time>2017-03-31T20:04:03Z</time>
      </trkpt>
      <trkpt lat="47.28763" lon="4.90237">
        <ele>536.824</ele>
        <time>2017-03-31T20:04:23Z</time>
      </trkpt>
      <trkpt lat="47.28689" lon="4.90202">
        <ele>542.208</ele>
        <time>2017-03-31T20:04:43Z</time>
      </trkpt>
      <trkpt lat="47.28663" lon="4.9018">
        <ele>541.575</ele>
        <time>2017-03-31T20:05:03Z</time>
      </trkpt>
      <trkpt lat="47.28561" lon="4.90146">
        <ele>540.09</ele>
        <time>2017-03-31T20:05:23Z</time>
      </trkpt>
      <trkpt lat="47.28526" lon="4.9013">
        <ele>539.711</ele>
        <time>2017-03-31T20:05:43Z</time>
      </trkpt>
      <trkpt lat="47.28492" lon="4.9012">
        <ele>540.466</ele>
        <time>2017-03-31T20:06:03Z</time>
      </trkpt>
      <trkpt lat="47.28466" lon="4.90088">
        <ele>540.735</ele>
        <time>2017-03-31T20:06:23Z</time>
      </trkpt>
      <trkpt lat="47.2843" lon="4.90068">
        <ele>540.068</ele>
        <time>2017-03-31T20:06:43Z</time>
      </trkpt>
      <trkpt lat="47.28399" lon="4.90009">
        <ele>540.655</ele>
        <time>2017-03-31T20:07:03Z</time>
      </trkpt>
      <trkpt lat="47.28362" lon="4.89982">
        <ele>541.389</ele>
        <time>2017-03-31T20:07:23Z</time>
      </trkpt>
      <trkpt lat="47.28341" lon="4.89941">
        <ele>540.369</ele>
        <time>2017-03-31T20:07:43Z</time>
      </trkpt>
      <trkpt lat="47.28301" lon="4.89913">
        <ele>541.004</ele>
        <time>2017-03-31T20:08:03Z</time>
      </trkpt>
      <trkpt lat="47.28259" lon="4.89908">
        <ele>541.924</ele>
        <time>2017-03-31T20:08:23Z</time>
      </trkpt>
      <trkpt lat="47.28241" lon="4.89889">
        <ele>541.708</ele>
        <time>2017-03-31T20:08:43Z</time>
      </trkpt>
      <trkpt lat="47.28217" lon="4.89821">
        <ele>539.042</ele>
        <time>2017-03-31T20:09:03Z</time>
      </trkpt>
      <trkpt lat="47.2815" lon="4.89753">
        <ele>538.787</ele>
        <time>2017-03-31T20:09:23Z</time>
      </trkpt>
      <trkpt lat="47.2812" lon="4.89681">
        <ele>539.818</ele>
        <time>2017-03-31T20:09:43Z</time>
      </trkpt>
      <trkpt lat="47.28102" lon="4.89665">
        <ele>540.753</ele>
        <time>2017-03-31T20:10:03Z</time>
      </trkpt>
      <trkpt lat="47.28073" lon="4.89651">
        <ele>540.092</ele>
        <time>2017-03-31T20:10:23Z</time>
      </trkpt>
      <trkpt lat="47.28032" lon="4.89608">
        <ele>538.435</ele>
        <time>2017-03-31T20:10:43Z</time>
      </trkpt>
      <trkpt lat="47.27979" lon="4.89584">
        <ele>536.572</ele>
        <time>2017-03-31T20:11:03Z</time>
      </trkpt>
      <trkpt lat="47.27942" lon="4.89594">
        <ele>535.946</ele>
        <time>2017-03-31T20:11:23Z</time>
      </trkpt>
      <trkpt lat="47.27913" lon="4.89611">
        <ele>534.613</ele>
        <time>2017-03-31T20:11:43Z</time>
      </trkpt>
      <trkpt lat="47.27868" lon="4.89648">
        <ele>531.243</ele>
        <time>2017-03-31T20:12:03Z</time>
      </trkpt>
      <trkpt lat="47.27846" lon="4.89649">
        <ele>528.907</ele>
        <time>2017-03-31T20:12:23Z</time>
      </trkpt>
      <trkpt lat="47.27804" lon="4.89668">
        <ele>522.708</ele>
        <time>2017-03-31T20:12:43Z</time>
      </trkpt>
      <trkpt lat="47.2777" lon="4.89694">
        <ele>515.737</ele>
        <time>2017-03-31T20:13:03Z</time>
      </trkpt>
      <trkpt lat="47.2771" lon="4.89688">
        <ele>507.892</ele>
        <time>2017-03-31T20:13:23Z</time>
      </trkpt>
      <trkpt lat="47.27683" lon="4.89681">
        <ele>507.543</ele>
        <time>2017-03-31T20:13:43Z</time>
      </trkpt>
      <trkpt lat="47.27661" lon="4.89681">
        <ele>507.768</ele>
        <time>2017-03-31T20:14:03Z</time>
      </trkpt>
      <trkpt lat="47.27596" lon="4.89709">
        <ele>507.427</ele>
        <time>2017-03-31T20:14:23Z</time>
      </trkpt>
      <trkpt lat="47.27596" lon="4.89709">
        <ele>507.48</ele>
        <time>2017-03-31T20:14:43Z</time>
      </trkpt>
      <trkpt lat="47.27584" lon="4.89733">
        <ele>504.167</ele>
        <time>2017-03-31T20:15:03Z</time>
      </trkpt>
      <trkpt lat="47.27507" lon="4.89761">
        <ele>501.191</ele>
        <time>2017-03-31T20:15:23Z</time>
      </trkpt>
      <trkpt lat="47.27475" lon="4.89825">
        <ele>487.218</ele>
        <time>2017-03-31T20:15:43Z</time>
      </trkpt>
      <trkpt lat="47.27459" lon="4.89917">
        <ele>474.298</ele>
        <time>2017-03-31T20:16:03Z</time>
      </trkpt>
      <trkpt lat="47.27446" lon="4.89954">
        <ele>471.617</ele>
        <time>2017-03-31T20:16:23Z</time>
      </trkpt>
      <trkpt lat="47.27432" lon="4.90132">
        <ele>463.808</ele>
        <time>2017-03-31T20:16:43Z</time>
      </trkpt>
      <trkpt lat="47.27446" lon="4.90222">
        <ele>452.737</ele>
        <time>2017-03-31T20:17:03Z</time>
      </trkpt>
      <trkpt lat="47.27451" lon="4.90278">
        <ele>447.732</ele>
        <time>2017-03-31T20:17:23Z</time>
      </trkpt>
      <trkpt lat="47.27472" lon="4.9034">
        <ele>434.843</ele>
        <time>2017-03-31T20:17:43Z</time>
      </trkpt>
      <trkpt lat="47.27469" lon="4.90366">
        <ele>431.078</ele>
        <time>2017-03-31T20:18:03Z</time>
      </trkpt>
      <trkpt lat="47.27434" lon="4.90445">
        <ele>421.427</ele>
        <time>2017-03-31T20:18:23Z</time>
      </trkpt>
      <trkpt lat="47.27424" lon="4.90512">
        <ele>415.25</ele>
        <time>2017-03-31T20:18:43Z</time>
      </trkpt>
      <trkpt lat="47.27434" lon="4.90565">
        <ele>407.177</ele>
        <time>2017-03-31T20:19:03Z</time>
      </trkpt>
      <trkpt lat="47.27426" lon="4.90602">
        <ele>402.321</ele>
        <time>2017-03-31T20:19:23Z</time>
      </trkpt>
      <trkpt lat="47.27344" lon="4.90773">
        <ele>392.313</ele>
        <time>2017-03-31T20:19:43Z</time>
      </trkpt>
      <trkpt lat="47.27333" lon="4.90831">
        <ele>392.943</ele>
        <time>2017-03-31T20:20:03Z</time>
      </trkpt>
      <trkpt lat="47.27343" lon="4.90842">
        <ele>393.707</ele>
        <time>2017-03-31T20:20:23Z</time>
      </trkpt>
      <trkpt lat="47.27373" lon="4.90831">
        <ele>396.508</ele>
        <time>2017-03-31T20:20:43Z</time>
      </trkpt>
      <trkpt lat="47.2737" lon="4.90864">
        <ele>399.297</ele>
        <time>2017-03-31T20:21:03Z</time>
      </trkpt>
      <trkpt lat="47.27395" lon="4.90904">
        <ele>410.222</ele>
        <time>2017-03-31T20:21:23Z</time>
      </trkpt>
      <trkpt lat="47.27424" lon="4.9093">
        <ele>420.113</ele>
        <time>2017-03-31T20:21:43Z</time>
      </trkpt>
      <trkpt lat="47.27525" lon="4.90975">
        <ele>443.278</ele>
        <time>2017-03-31T20:22:03Z</time>
      </trkpt>
      <trkpt lat="47.2755" lon="4.91042">
        <ele>457.477</ele>
        <time>2017-03-31T20:22:23Z</time>
      </trkpt>
      <trkpt lat="47.2759" lon="4.91097">
        <ele>464.67</ele>
        <time>2017-03-31T20:22:43Z</time>
      </trkpt>
      <trkpt lat="47.27628" lon="4.91132">
        <ele>470.197</ele>
        <time>2017-03-31T20:23:03Z</time>
      </trkpt>
      <trkpt lat="47.2772" lon="4.91297">
        <ele>484.131</ele>
        <time>2017-03-31T20:23:23Z</time>
      </trkpt>
      <trkpt lat="47.2778" lon="4.91443">
        <ele>492.053</ele>
        <time>2017-03-31T20:23:43Z</time>
      </trkpt>
      <trkpt lat="47.27849" lon="4.9164">
        <ele>498.604</ele>
        <time>2017-03-31T20:24:03Z</time>
      </trkpt>
      <trkpt lat="47.27871" lon="4.9167">
        <ele>499.014</ele>
        <time>2017-03-31T20:24:23Z</time>
      </trkpt>
      <trkpt lat="47.27857" lon="4.91707">
        <ele>498.208</ele>
        <time>2017-03-31T20:24:43Z</time>
      </trkpt>
      <trkpt lat="47.27854" lon="4.91806">
        <ele>495.421</ele>
        <time>2017-03-31T20:25:03Z</time>
      </trkpt>
      <trkpt lat="47.27781" lon="4.91964">
        <ele>477.856</ele>
        <time>2017-03-31T20:25:23Z</time>
      </trkpt>
      <trkpt lat="47.27782" lon="4.92007">
        <ele>476.417</ele>
        <time>2017-03-31T20:25:43Z</time>
      </trkpt>
      <trkpt lat="47.27871" lon="4.92278">
        <ele>480.112</ele>
        <time>2017-03-31T20:26:03Z</time>
      </trkpt>
      <trkpt lat="47.27854" lon="4.92299">
        <ele>479.541</ele>
        <time>2017-03-31T20:26:23Z</time>
      </trkpt>
      <trkpt lat="47.27806" lon="4.92282">
        <ele>476.644</ele>
        <time>2017-03-31T20:26:43Z</time>
      </trkpt>
      <trkpt lat="47.2771" lon="4.92466">
        <ele>493.581</ele>
        <time>2017-03-31T20:27:03Z</time>
      </trkpt>
      <trkpt lat="47.27686" lon="4.92561">
        <ele>499.095</ele>
        <time>2017-03-31T20:27:23Z</time>
      </trkpt>
      <trkpt lat="47.27643" lon="4.92668">
        <ele>500.449</ele>
        <time>2017-03-31T20:27:43Z</time>
      </trkpt>
      <trkpt lat="47.27599" lon="4.92851">
        <ele>507.002</ele>
        <time>2017-03-31T20:28:03Z</time>
      </trkpt>
      <trkpt lat="47.2749" lon="4.93069">
        <ele>492.422</ele>
        <time>2017-03-31T20:28:23Z</time>
      </trkpt>
      <trkpt lat="47.27493" lon="4.93202">
        <ele>497.508</ele>
        <time>2017-03-31T20:28:43Z</time>
      </trkpt>
      <trkpt lat="47.27462" lon="4.93284">
        <ele>503.09</ele>
        <time>2017-03-31T20:29:03Z</time>
      </trkpt>
      <trkpt lat="47.27333" lon="4.93439">
        <ele>514.025</ele>
        <time>2017-03-31T20:29:23Z</time>
      </trkpt>
      <trkpt lat="47.27298" lon="4.93526">
        <ele>513.636</ele>
        <time>2017-03-31T20:29:43Z</time>
      </trkpt>
      <trkpt lat="47.27257" lon="4.9366">
        <ele>513.481</ele>
        <time>2017-03-31T20:30:03Z</time>
      </trkpt>
      <trkpt lat="47.27054" lon="4.94114">
        <ele>502.85</ele>
        <time>2017-03-31T20:30:23Z</time>
      </trkpt>
      <trkpt lat="47.2703" lon="4.94481">
        <ele>485.623</ele>
        <time>2017-03-31T20:30:43Z</time>
      </trkpt>
      <trkpt lat="47.26865" lon="4.94966">
        <ele>470.06</ele>
        <time>2017-03-31T20:31:03Z</time>
      </trkpt>
      <trkpt lat="47.26835" lon="4.95104">
        <ele>467.384</ele>
        <time>2017-03-31T20:31:23Z</time>
      </trkpt>
      <trkpt lat="47.26797" lon="4.95425">
        <ele>464.372</ele>
        <time>2017-03-31T20:31:43Z</time>
      </trkpt>
      <trkpt lat="47.26792" lon="4.95593">
        <ele>467.013</ele>
        <time>2017-03-31T20:32:03Z</time>
      </trkpt>
      <trkpt lat="47.26753" lon="4.95717">
        <ele>464.114</ele>
        <time>2017-03-31T20:32:23Z</time>
      </trkpt>
      <trkpt lat="47.26728" lon="4.95825">
        <ele>462.508</ele>
        <time>2017-03-31T20:32:43Z</time>
      </trkpt>
      <trkpt lat="47.26696" lon="4.95904">
        <ele>460.453</ele>
        <time>2017-03-31T20:33:03Z</time>
      </trkpt>
      <trkpt lat="47.26677" lon="4.96026">
        <ele>456.418</ele>
        <time>2017-03-31T20:33:23Z</time>
      </trkpt>
      <trkpt lat="47.2659" lon="4.96213">
        <ele>447.379</ele>
        <time>2017-03-31T20:33:43Z</time>
      </trkpt>
      <trkpt lat="47.26554" lon="4.96385">
        <ele>438.194</ele>
        <time>2017-03-31T20:34:03Z</time>
      </trkpt>
      <trkpt lat="47.26524" lon="4.9647">
        <ele>434.083</ele>
        <time>2017-03-31T20:34:23Z</time>
      </trkpt>
      <trkpt lat="47.26462" lon="4.96543">
        <ele>426.546</ele>
        <time>2017-03-31T20:34:43Z</time>
      </trkpt>
      <trkpt lat="47.26411" lon="4.96666">
        <ele>419.493</ele>
        <time>2017-03-31T20:35:03Z</time>
      </trkpt>
      <trkpt lat="47.26392" lon="4.96739">
        <ele>413.027</ele>
        <time>2017-03-31T20:35:23Z</time>
      </trkpt>
      <trkpt lat="47.26393" lon="4.9679">
        <ele>408.358</ele>
        <time>2017-03-31T20:35:43Z</time>
      </trkpt>
      <trkpt lat="47.26424" lon="4.96835">
        <ele>403.452</ele>
        <time>2017-03-31T20:36:03Z</time>
      </trkpt>
      <trkpt lat="47.26428" lon="4.96887">
        <ele>399.617</ele>
        <time>2017-03-31T20:36:23Z</time>
      </trkpt>
      <trkpt lat="47.26503" lon="4.97114">
        <ele>380.608</ele>
        <time>2017-03-31T20:36:43Z</time>
      </trkpt>
      <trkpt lat="47.26554" lon="4.97168">
        <ele>372.991</ele>
        <time>2017-03-31T20:37:03Z</time>
      </trkpt>
      <trkpt lat="47.26573" lon="4.97219">
        <ele>362.996</ele>
        <time>2017-03-31T20:37:23Z</time>
      </trkpt>
      <trkpt lat="47.26526" lon="4.97249">
        <ele>358.067</ele>
        <time>2017-03-31T20:37:43Z</time>
      </trkpt>
      <trkpt lat="47.26474" lon="4.97262">
        <ele>352.422</ele>
        <time>2017-03-31T20:38:03Z</time>
      </trkpt>
      <trkpt lat="47.26423" lon="4.97284">
        <ele>344.171</ele>
        <time>2017-03-31T20:38:23Z</time>
      </trkpt>
      <trkpt lat="47.26277" lon="4.97286">
        <ele>325.934</ele>
        <time>2017-03-31T20:38:43Z</time>
      </trkpt>
      <trkpt lat="47.26204" lon="4.97312">
        <ele>318.951</ele>
        <time>2017-03-31T20:39:03Z</time>
      </trkpt>
      <trkpt lat="47.26174" lon="4.97359">
        <ele>317.185</ele>
        <time>2017-03-31T20:39:23Z</time>
      </trkpt>
      <trkpt lat="47.2615" lon="4.97664">
        <ele>304.597</ele>
        <time>2017-03-31T20:39:43Z</time>
      </trkpt>
      <trkpt lat="47.26038" lon="4.9761">
        <ele>303.423</ele>
        <time>2017-03-31T20:40:03Z</time>
      </trkpt>
      <trkpt lat="47.25927" lon="4.97595">
        <ele>301.925</ele>
        <time>2017-03-31T20:40:23Z</time>
      </trkpt>
      <trkpt lat="47.25913" lon="4.97606">
        <ele>302.508</ele>
        <time>2017-03-31T20:40:43Z</time>
      </trkpt>
      <trkpt lat="47.25655" lon="4.97509">
        <ele>306.995</ele>
        <time>2017-03-31T20:41:03Z</time>
      </trkpt>
      <trkpt lat="47.256" lon="4.97507">
        <ele>305.82</ele>
        <time>2017-03-31T20:41:23Z</time>
      </trkpt>
      <trkpt lat="47.25542" lon="4.97468">
        <ele>305.331</ele>
        <time>2017-03-31T20:41:43Z</time>
      </trkpt>
      <trkpt lat="47.25521" lon="4.97427">
        <ele>306.916</ele>
        <time>2017-03-31T20:42:03Z</time>
      </trkpt>
      <trkpt lat="47.25477" lon="4.97391">
        <ele>308.025</ele>
        <time>2017-03-31T20:42:23Z</time>
      </trkpt>
      <trkpt lat="47.25441" lon="4.97374">
        <ele>306.388</ele>
        <time>2017-03-31T20:42:43Z</time>
      </trkpt>
      <trkpt lat="47.25413" lon="4.97331">
        <ele>305.925</ele>
        <time>2017-03-31T20:43:03Z</time>
      </trkpt>
      <trkpt lat="47.25415" lon="4.97269">
        <ele>309.449</ele>
        <time>2017-03-31T20:43:23Z</time>
      </trkpt>
      <trkpt lat="47.25426" lon="4.97215">
        <ele>313.349</ele>
        <time>2017-03-31T20:43:43Z</time>
      </trkpt>
      <trkpt lat="47.25396" lon="4.97172">
        <ele>312.502</ele>
        <time>2017-03-31T20:44:03Z</time>
      </trkpt>
      <trkpt lat="47.25359" lon="4.9708">
        <ele>316.322</ele>
        <time>2017-03-31T20:44:23Z</time>
      </trkpt>
      <trkpt lat="47.25357" lon="4.97041">
        <ele>320.008</ele>
        <time>2017-03-31T20:44:43Z</time>
      </trkpt>
      <trkpt lat="47.25304" lon="4.97024">
        <ele>314.09</ele>
        <time>2017-03-31T20:45:03Z</time>
      </trkpt>
      <trkpt lat="47.25252" lon="4.97031">
        <ele>309.975</ele>
        <time>2017-03-31T20:45:23Z</time>
      </trkpt>
      <trkpt lat="47.25198" lon="4.97024">
        <ele>310.396</ele>
        <time>2017-03-31T20:45:43Z</time>
      </trkpt>
      <trkpt lat="47.25081" lon="4.97101">
        <ele>314.041</ele>
        <time>2017-03-31T20:46:03Z</time>
      </trkpt>
      <trkpt lat="47.2501" lon="4.97118">
        <ele>313.61</ele>
        <time>2017-03-31T20:46:23Z</time>
      </trkpt>
      <trkpt lat="47.25006" lon="4.97028">
        <ele>316.073</ele>
        <time>2017-03-31T20:46:43Z</time>
      </trkpt>
      <trkpt lat="47.24959" lon="4.97033">
        <ele>314.87</ele>
        <time>2017-03-31T20:47:03Z</time>
      </trkpt>
      <trkpt lat="47.2485" lon="4.96983">
        <ele>310.244</ele>
        <time>2017-03-31T20:47:23Z</time>
      </trkpt>
      <trkpt lat="47.24826" lon="4.96964">
        <ele>308.983</ele>
        <time>2017-03-31T20:47:43Z</time>
      </trkpt>
      <trkpt lat="47.24735" lon="4.96919">
        <ele>304.225</ele>
        <time>2017-03-31T20:48:03Z</time>
      </trkpt>
      <trkpt lat="47.24694" lon="4.96876">
        <ele>307.017</ele>
        <time>2017-03-31T20:48:23Z</time>
      </trkpt>
      <trkpt lat="47.24662" lon="4.96865">
        <ele>310.208</ele>
        <time>2017-03-31T20:48:43Z</time>
      </trkpt>
      <trkpt lat="47.24705" lon="4.96794">
        <ele>313.014</ele>
        <time>2017-03-31T20:49:03Z</time>
      </trkpt>
      <trkpt lat="47.24742" lon="4.96777">
        <ele>316.139</ele>
        <time>2017-03-31T20:49:23Z</time>
      </trkpt>
      <trkpt lat="47.24727" lon="4.9647">
        <ele>343.46</ele>
        <time>2017-03-31T20:49:43Z</time>
      </trkpt>
      <trkpt lat="47.24745" lon="4.96297">
        <ele>360.615</ele>
        <time>2017-03-31T20:50:03Z</time>
      </trkpt>
      <trkpt lat="47.24758" lon="4.96292">
        <ele>364.464</ele>
        <time>2017-03-31T20:50:23Z</time>
      </trkpt>
      <trkpt lat="47.24774" lon="4.96329">
        <ele>364.617</ele>
        <time>2017-03-31T20:50:43Z</time>
      </trkpt>
      <trkpt lat="47.24818" lon="4.96361">
        <ele>371.284</ele>
        <time>2017-03-31T20:51:03Z</time>
      </trkpt>
      <trkpt lat="47.24927" lon="4.96376">
        <ele>379.298</ele>
        <time>2017-03-31T20:51:23Z</time>
      </trkpt>
      <trkpt lat="47.24955" lon="4.96363">
        <ele>386.043</ele>
        <time>2017-03-31T20:51:43Z</time>
      </trkpt>
      <trkpt lat="47.2493" lon="4.96331">
        <ele>387.364</ele>
        <time>2017-03-31T20:52:03Z</time>
      </trkpt>
      <trkpt lat="47.24889" lon="4.96189">
        <ele>401.41</ele>
        <time>2017-03-31T20:52:23Z</time>
      </trkpt>
      <trkpt lat="47.24877" lon="4.96089">
        <ele>406.308</ele>
        <time>2017-03-31T20:52:43Z</time>
      </trkpt>
      <trkpt lat="47.24883" lon="4.96001">
        <ele>409.19</ele>
        <time>2017-03-31T20:53:03Z</time>
      </trkpt>
      <trkpt lat="47.24906" lon="4.9591">
        <ele>414.175</ele>
        <time>2017-03-31T20:53:23Z</time>
      </trkpt>
      <trkpt lat="47.25035" lon="4.95715">
        <ele>433.356</ele>
        <time>2017-03-31T20:53:43Z</time>
      </trkpt>
      <trkpt lat="47.25163" lon="4.95518">
        <ele>446.291</ele>
        <time>2017-03-31T20:54:03Z</time>
      </trkpt>
      <trkpt lat="47.2524" lon="4.95346">
        <ele>456.12</ele>
        <time>2017-03-31T20:54:23Z</time>
      </trkpt>
      <trkpt lat="47.25281" lon="4.95215">
        <ele>459.573</ele>
        <time>2017-03-31T20:54:43Z</time>
      </trkpt>
      <trkpt lat="47.25291" lon="4.95123">
        <ele>460.94</ele>
        <time>2017-03-31T20:55:03Z</time>
      </trkpt>
      <trkpt lat="47.25326" lon="4.9502">
        <ele>465.744</ele>
        <time>2017-03-31T20:55:23Z</time>
      </trkpt>
      <trkpt lat="47.25351" lon="4.94857">
        <ele>463.993</ele>
        <time>2017-03-31T20:55:43Z</time>
      </trkpt>
      <trkpt lat="47.25393" lon="4.94662">
        <ele>466.465</ele>
        <time>2017-03-31T20:56:03Z</time>
      </trkpt>
      <trkpt lat="47.25418" lon="4.94471">
        <ele>471.221</ele>
        <time>2017-03-31T20:56:23Z</time>
      </trkpt>
      <trkpt lat="47.25422" lon="4.94357">
        <ele>476.508</ele>
        <time>2017-03-31T20:56:43Z</time>
      </trkpt>
      <trkpt lat="47.25435" lon="4.94237">
        <ele>483.375</ele>
        <time>2017-03-31T20:57:03Z</time>
      </trkpt>
      <trkpt lat="47.25442" lon="4.94054">
        <ele>488.75</ele>
        <time>2017-03-31T20:57:23Z</time>
      </trkpt>
      <trkpt lat="47.25458" lon="4.93932">
        <ele>490.311</ele>
        <time>2017-03-31T20:57:43Z</time>
      </trkpt>
      <trkpt lat="47.25501" lon="4.93825">
        <ele>496.446</ele>
        <time>2017-03-31T20:58:03Z</time>
      </trkpt>
      <trkpt lat="47.25517" lon="4.937">
        <ele>501.015</ele>
        <time>2017-03-31T20:58:23Z</time>
      </trkpt>
      <trkpt lat="47.25469" lon="4.93511">
        <ele>507.478</ele>
        <time>2017-03-31T20:58:43Z</time>
      </trkpt>
      <trkpt lat="47.25472" lon="4.93404">
        <ele>512.965</ele>
        <time>2017-03-31T20:59:03Z</time>
      </trkpt>
      <trkpt lat="47.25457" lon="4.93293">
        <ele>518.519</ele>
        <time>2017-03-31T20:59:23Z</time>
      </trkpt>
      <trkpt lat="47.25458" lon="4.93205">
        <ele>523.599</ele>
        <time>2017-03-31T20:59:43Z</time>
      </trkpt>
      <trkpt lat="47.25419" lon="4.92942">
        <ele>531.007</ele>
        <time>2017-03-31T21:00:03Z</time>
      </trkpt>
      <trkpt lat="47.25158" lon="4.92896">
        <ele>525.227</ele>
        <time>2017-03-31T21:00:23Z</time>
      </trkpt>
      <trkpt lat="47.25098" lon="4.92874">
        <ele>525.208</ele>
        <time>2017-03-31T21:00:43Z</time>
      </trkpt>
      <trkpt lat="47.24943" lon="4.9274">
        <ele>528.145</ele>
        <time>2017-03-31T21:01:03Z</time>
      </trkpt>
      <trkpt lat="47.24877" lon="4.92714">
        <ele>530.44</ele>
        <time>2017-03-31T21:01:23Z</time>
      </trkpt>
      <trkpt lat="47.24858" lon="4.92692">
        <ele>531.081</ele>
        <time>2017-03-31T21:01:43Z</time>
      </trkpt>
      <trkpt lat="47.24687" lon="4.92588">
        <ele>534.426</ele>
        <time>2017-03-31T21:02:03Z</time>
      </trkpt>
      <trkpt lat="47.24643" lon="4.92539">
        <ele>535.865</ele>
        <time>2017-03-31T21:02:23Z</time>
      </trkpt>
      <trkpt lat="47.2455" lon="4.92485">
        <ele>537.988</ele>
        <time>2017-03-31T21:02:43Z</time>
      </trkpt>
      <trkpt lat="47.24454" lon="4.92456">
        <ele>533.545</ele>
        <time>2017-03-31T21:03:03Z</time>
      </trkpt>
      <trkpt lat="47.2443" lon="4.92474">
        <ele>530.929</ele>
        <time>2017-03-31T21:03:23Z</time>
      </trkpt>
      <trkpt lat="47.24349" lon="4.92465">
        <ele>525.371</ele>
        <time>2017-03-31T21:03:43Z</time>
      </trkpt>
      <trkpt lat="47.24274" lon="4.92447">
        <ele>519.741</ele>
        <time>2017-03-31T21:04:03Z</time>
      </trkpt>
      <trkpt lat="47.24031" lon="4.92414">
        <ele>518.815</ele>
        <time>2017-03-31T21:04:23Z</time>
      </trkpt>
      <trkpt lat="47.23896" lon="4.922">
        <ele>517.208</ele>
        <time>2017-03-31T21:04:43Z</time>
      </trkpt>
      <trkpt lat="47.23855" lon="4.92154">
        <ele>515.673</ele>
        <time>2017-03-31T21:05:03Z</time>
      </trkpt>
      <trkpt lat="47.23793" lon="4.92106">
        <ele>512.498</ele>
        <time>2017-03-31T21:05:23Z</time>
      </trkpt>
      <trkpt lat="47.23736" lon="4.92037">
        <ele>508.969</ele>
        <time>2017-03-31T21:05:43Z</time>
      </trkpt>
      <trkpt lat="47.23715" lon="4.92028">
        <ele>506.774</ele>
        <time>2017-03-31T21:06:03Z</time>
      </trkpt>
      <trkpt lat="47.23688" lon="4.92002">
        <ele>504.643</ele>
        <time>2017-03-31T21:06:23Z</time>
      </trkpt>
      <trkpt lat="47.23672" lon="4.91991">
        <ele>502.726</ele>
        <time>2017-03-31T21:06:43Z</time>
      </trkpt>
      <trkpt lat="47.23638" lon="4.91949">
        <ele>499.423</ele>
        <time>2017-03-31T21:07:03Z</time>
      </trkpt>
      <trkpt lat="47.2361" lon="4.91893">
        <ele>495.137</ele>
        <time>2017-03-31T21:07:23Z</time>
      </trkpt>
      <trkpt lat="47.23553" lon="4.91809">
        <ele>487.023</ele>
        <time>2017-03-31T21:07:43Z</time>
      </trkpt>
      <trkpt lat="47.23523" lon="4.91744">
        <ele>484.483</ele>
        <time>2017-03-31T21:08:03Z</time>
      </trkpt>
      <trkpt lat="47.23486" lon="4.91697">
        <ele>488.111</ele>
        <time>2017-03-31T21:08:23Z</time>
      </trkpt>
      <trkpt lat="47.23449" lon="4.91629">
        <ele>489.508</ele>
        <time>2017-03-31T21:08:43Z</time>
      </trkpt>
      <trkpt lat="47.23409" lon="4.91564">
        <ele>491.388</ele>
        <time>2017-03-31T21:09:03Z</time>
      </trkpt>
      <trkpt lat="47.23392" lon="4.9153">
        <ele>490.913</ele>
        <time>2017-03-31T21:09:23Z</time>
      </trkpt>
      <trkpt lat="47.23362" lon="4.91425">
        <ele>490.094</ele>
        <time>2017-03-31T21:09:43Z</time>
      </trkpt>
      <trkpt lat="47.23334" lon="4.91374">
        <ele>491.099</ele>
        <time>2017-03-31T21:10:03Z</time>
      </trkpt>
      <trkpt lat="47.23256" lon="4.91286">
        <ele>494.988</ele>
        <time>2017-03-31T21:10:23Z</time>
      </trkpt>
      <trkpt lat="47.23137" lon="4.91017">
        <ele>493.871</ele>
        <time>2017-03-31T21:10:43Z</time>
      </trkpt>
      <trkpt lat="47.23117" lon="4.90939">
        <ele>492.228</ele>
        <time>2017-03-31T21:11:03Z</time>
      </trkpt>
      <trkpt lat="47.23112" lon="4.90868">
        <ele>493.372</ele>
        <time>2017-03-31T21:11:23Z</time>
      </trkpt>
      <trkpt lat="47.23126" lon="4.90741">
        <ele>497.962</ele>
        <time>2017-03-31T21:11:43Z</time>
      </trkpt>
      <trkpt lat="47.23126" lon="4.90663">
        <ele>495.083</ele>
        <time>2017-03-31T21:12:03Z</time>
      </trkpt>
      <trkpt lat="47.23107" lon="4.90633">
        <ele>492.411</ele>
        <time>2017-03-31T21:12:23Z</time>
      </trkpt>
      <trkpt lat="47.23036" lon="4.9062">
        <ele>485.308</ele>
        <time>2017-03-31T21:12:43Z</time>
      </trkpt>
      <trkpt lat="47.22986" lon="4.90594">
        <ele>483.282</ele>
        <time>2017-03-31T21:13:03Z</time>
      </trkpt>
      <trkpt lat="47.22975" lon="4.90572">
        <ele>482.117</ele>
        <time>2017-03-31T21:13:23Z</time>
      </trkpt>
      <trkpt lat="47.22949" lon="4.90572">
        <ele>481.298</ele>
        <time>2017-03-31T21:13:43Z</time>
      </trkpt>
      <trkpt lat="47.22881" lon="4.90546">
        <ele>475.543</ele>
        <time>2017-03-31T21:14:03Z</time>
      </trkpt>
      <trkpt lat="47.22846" lon="4.90523">
        <ele>473.982</ele>
        <time>2017-03-31T21:14:23Z</time>
      </trkpt>
      <trkpt lat="47.22763" lon="4.90471">
        <ele>467.985</ele>
        <time>2017-03-31T21:14:43Z</time>
      </trkpt>
      <trkpt lat="47.22699" lon="4.90446">
        <ele>464.272</ele>
        <time>2017-03-31T21:15:03Z</time>
      </trkpt>
      <trkpt lat="47.22605" lon="4.90416">
        <ele>464.076</ele>
        <time>2017-03-31T21:15:23Z</time>
      </trkpt>
      <trkpt lat="47.22654" lon="4.9029">
        <ele>459.333</ele>
        <time>2017-03-31T21:15:43Z</time>
      </trkpt>
      <trkpt lat="47.22632" lon="4.90204">
        <ele>458.523</ele>
        <time>2017-03-31T21:16:03Z</time>
      </trkpt>
      <trkpt lat="47.22564" lon="4.90043">
        <ele>451.715</ele>
        <time>2017-03-31T21:16:23Z</time>
      </trkpt>
      <trkpt lat="47.22531" lon="4.90014">
        <ele>450.108</ele>
        <time>2017-03-31T21:16:43Z</time>
      </trkpt>
      <trkpt lat="47.22501" lon="4.89983">
        <ele>447.139</ele>
        <time>2017-03-31T21:17:03Z</time>
      </trkpt>
      <trkpt lat="47.22484" lon="4.89928">
        <ele>445.364</ele>
        <time>2017-03-31T21:17:23Z</time>
      </trkpt>
      <trkpt lat="47.22465" lon="4.89831">
        <ele>443.325</ele>
        <time>2017-03-31T21:17:43Z</time>
      </trkpt>
      <trkpt lat="47.22453" lon="4.89717">
        <ele>444.63</ele>
        <time>2017-03-31T21:18:03Z</time>
      </trkpt>
      <trkpt lat="47.22432" lon="4.89639">
        <ele>445.729</ele>
        <time>2017-03-31T21:18:23Z</time>
      </trkpt>
      <trkpt lat="47.22416" lon="4.89566">
        <ele>444.082</ele>
        <time>2017-03-31T21:18:43Z</time>
      </trkpt>
      <trkpt lat="47.22402" lon="4.89526">
        <ele>442.949</ele>
        <time>2017-03-31T21:19:03Z</time>
      </trkpt>
      <trkpt lat="47.22375" lon="4.89487">
        <ele>438.863</ele>
        <time>2017-03-31T21:19:23Z</time>
      </trkpt>
      <trkpt lat="47.22314" lon="4.89431">
        <ele>435.728</ele>
        <time>2017-03-31T21:19:43Z</time>
      </trkpt>
      <trkpt lat="47.22245" lon="4.89388">
        <ele>433.689</ele>
        <time>2017-03-31T21:20:03Z</time>
      </trkpt>
      <trkpt lat="47.222" lon="4.89384">
        <ele>430.117</ele>
        <time>2017-03-31T21:20:23Z</time>
      </trkpt>
      <trkpt lat="47.22184" lon="4.89364">
        <ele>427.808</ele>
        <time>2017-03-31T21:20:43Z</time>
      </trkpt>
      <trkpt lat="47.22156" lon="4.89297">
        <ele>425.678</ele>
        <time>2017-03-31T21:21:03Z</time>
      </trkpt>
      <trkpt lat="47.22128" lon="4.8927">
        <ele>422.933</ele>
        <time>2017-03-31T21:21:23Z</time>
      </trkpt>
      <trkpt lat="47.22061" lon="4.89218">
        <ele>418.684</ele>
        <time>2017-03-31T21:21:43Z</time>
      </trkpt>
      <trkpt lat="47.22053" lon="4.89199">
        <ele>416.679</ele>
        <time>2017-03-31T21:22:03Z</time>
      </trkpt>
      <trkpt lat="47.22048" lon="4.89163">
        <ele>415.048</ele>
        <time>2017-03-31T21:22:23Z</time>
      </trkpt>
      <trkpt lat="47.22038" lon="4.89142">
        <ele>414.421</ele>
        <time>2017-03-31T21:22:43Z</time>
      </trkpt>
      <trkpt lat="47.21959" lon="4.89079">
        <ele>412.698</ele>
        <time>2017-03-31T21:23:03Z</time>
      </trkpt>
      <trkpt lat="47.2191" lon="4.8906">
        <ele>410.412</ele>
        <time>2017-03-31T21:23:23Z</time>
      </trkpt>
      <trkpt lat="47.21863" lon="4.89063">
        <ele>409.598</ele>
        <time>2017-03-31T21:23:43Z</time>
      </trkpt>
      <trkpt lat="47.2185" lon="4.89055">
        <ele>409.415</ele>
        <time>2017-03-31T21:24:03Z</time>
      </trkpt>
      <trkpt lat="47.21836" lon="4.89037">
        <ele>409.326</ele>
        <time>2017-03-31T21:24:23Z</time>
      </trkpt>
      <trkpt lat="47.21782" lon="4.88911">
        <ele>404.808</ele>
        <time>2017-03-31T21:24:43Z</time>
      </trkpt>
      <trkpt lat="47.21748" lon="4.88879">
        <ele>400.835</ele>
        <time>2017-03-31T21:25:03Z</time>
      </trkpt>
      <trkpt lat="47.21729" lon="4.88851">
        <ele>400.34</ele>
        <time>2017-03-31T21:25:23Z</time>
      </trkpt>
      <trkpt lat="47.21708" lon="4.88783">
        <ele>398.091</ele>
        <time>2017-03-31T21:25:43Z</time>
      </trkpt>
      <trkpt lat="47.21689" lon="4.88765">
        <ele>396.816</ele>
        <time>2017-03-31T21:26:03Z</time>
      </trkpt>
      <trkpt lat="47.21681" lon="4.8875">
        <ele>396.535</ele>
        <time>2017-03-31T21:26:23Z</time>
      </trkpt>
      <trkpt lat="47.21654" lon="4.88729">
        <ele>396.968</ele>
        <time>2017-03-31T21:26:43Z</time>
      </trkpt>
      <trkpt lat="47.21529" lon="4.88514">
        <ele>392.295</ele>
        <time>2017-03-31T21:27:03Z</time>
      </trkpt>
      <trkpt lat="47.21498" lon="4.88476">
        <ele>392.929</ele>
        <time>2017-03-31T21:27:23Z</time>
      </trkpt>
      <trkpt lat="47.2143" lon="4.88419">
        <ele>388.473</ele>
        <time>2017-03-31T21:27:43Z</time>
      </trkpt>
      <trkpt lat="47.21394" lon="4.88413">
        <ele>388.085</ele>
        <time>2017-03-31T21:28:03Z</time>
      </trkpt>
      <trkpt lat="47.2135" lon="4.88436">
        <ele>387.013</ele>
        <time>2017-03-31T21:28:23Z</time>
      </trkpt>
      <trkpt lat="47.21313" lon="4.88445">
        <ele>385.308</ele>
        <time>2017-03-31T21:28:43Z</time>
      </trkpt>
      <trkpt lat="47.21263" lon="4.88429">
        <ele>384.873</ele>
        <time>2017-03-31T21:29:03Z</time>
      </trkpt>
      <trkpt lat="47.21233" lon="4.88403">
        <ele>382.758</ele>
        <time>2017-03-31T21:29:23Z</time>
      </trkpt>
      <trkpt lat="47.21171" lon="4.88407">
        <ele>377.839</ele>
        <time>2017-03-31T21:29:43Z</time>
      </trkpt>
      <trkpt lat="47.21083" lon="4.88473">
        <ele>373.184</ele>
        <time>2017-03-31T21:30:03Z</time>
      </trkpt>
      <trkpt lat="47.21026" lon="4.88491">
        <ele>371.943</ele>
        <time>2017-03-31T21:30:23Z</time>
      </trkpt>
      <trkpt lat="47.21003" lon="4.88476">
        <ele>374.196</ele>
        <time>2017-03-31T21:30:43Z</time>
      </trkpt>
      <trkpt lat="47.20956" lon="4.88406">
        <ele>371.583</ele>
        <time>2017-03-31T21:31:03Z</time>
      </trkpt>
      <trkpt lat="47.20923" lon="4.88371">
        <ele>371.177</ele>
        <time>2017-03-31T21:31:23Z</time>
      </trkpt>
      <trkpt lat="47.20884" lon="4.88358">
        <ele>370.896</ele>
        <time>2017-03-31T21:31:43Z</time>
      </trkpt>
      <trkpt lat="47.20862" lon="4.88341">
        <ele>370.031</ele>
        <time>2017-03-31T21:32:03Z</time>
      </trkpt>
      <trkpt lat="47.20772" lon="4.88326">
        <ele>370.424</ele>
        <time>2017-03-31T21:32:23Z</time>
      </trkpt>
      <trkpt lat="47.20731" lon="4.88331">
        <ele>370.608</ele>
        <time>2017-03-31T21:32:43Z</time>
      </trkpt>
      <trkpt lat="47.207" lon="4.88365">
        <ele>370.665</ele>
        <time>2017-03-31T21:33:03Z</time>
      </trkpt>
      <trkpt lat="47.20673" lon="4.88423">
        <ele>366.52</ele>
        <time>2017-03-31T21:33:23Z</time>
      </trkpt>
      <trkpt lat="47.20678" lon="4.88464">
        <ele>365.931</ele>
        <time>2017-03-31T21:33:43Z</time>
      </trkpt>
      <trkpt lat="47.20644" lon="4.88449">
        <ele>366.186</ele>
        <time>2017-03-31T21:34:03Z</time>
      </trkpt>
      <trkpt lat="47.20609" lon="4.8843">
        <ele>366.575</ele>
        <time>2017-03-31T21:34:23Z</time>
      </trkpt>
      <trkpt lat="47.20568" lon="4.88387">
        <ele>364.188</ele>
        <time>2017-03-31T21:34:43Z</time>
      </trkpt>
      <trkpt lat="47.20546" lon="4.88372">
        <ele>364.335</ele>
        <time>2017-03-31T21:35:03Z</time>
      </trkpt>
      <trkpt lat="47.20519" lon="4.88369">
        <ele>363.699</ele>
        <time>2017-03-31T21:35:23Z</time>
      </trkpt>
      <trkpt lat="47.20422" lon="4.88319">
        <ele>358.565</ele>
        <time>2017-03-31T21:35:43Z</time>
      </trkpt>
      <trkpt lat="47.20396" lon="4.88298">
        <ele>359.068</ele>
        <time>2017-03-31T21:36:03Z</time>
      </trkpt>
      <trkpt lat="47.20365" lon="4.88243">
        <ele>359.614</ele>
        <time>2017-03-31T21:36:23Z</time>
      </trkpt>
      <trkpt lat="47.20354" lon="4.88233">
        <ele>359.508</ele>
        <time>2017-03-31T21:36:43Z</time>
      </trkpt>
      <trkpt lat="47.20343" lon="4.88226">
        <ele>359.392</ele>
        <time>2017-03-31T21:37:03Z</time>
      </trkpt>
      <trkpt lat="47.20328" lon="4.8821">
        <ele>359.857</ele>
        <time>2017-03-31T21:37:23Z</time>
      </trkpt>
      <trkpt lat="47.20304" lon="4.88208">
        <ele>359.568</ele>
        <time>2017-03-31T21:37:43Z</time>
      </trkpt>
      <trkpt lat="47.20261" lon="4.88214">
        <ele>358.813</ele>
        <time>2017-03-31T21:38:03Z</time>
      </trkpt>
      <trkpt lat="47.20225" lon="4.882">
        <ele>358.172</ele>
        <time>2017-03-31T21:38:23Z</time>
      </trkpt>
      <trkpt lat="47.20206" lon="4.88182">
        <ele>358.155</ele>
        <time>2017-03-31T21:38:43Z</time>
      </trkpt>
      <trkpt lat="47.20174" lon="4.88139">
        <ele>357.552</ele>
        <time>2017-03-31T21:39:03Z</time>
      </trkpt>
      <trkpt lat="47.20115" lon="4.88084">
        <ele>356.356</ele>
        <time>2017-03-31T21:39:23Z</time>
      </trkpt>
      <trkpt lat="47.20073" lon="4.88077">
        <ele>354.622</ele>
        <time>2017-03-31T21:39:43Z</time>
      </trkpt>
      <trkpt lat="47.20042" lon="4.88081">
        <ele>353.862</ele>
        <time>2017-03-31T21:40:03Z</time>
      </trkpt>
      <trkpt lat="47.1996" lon="4.88125">
        <ele>349.808</ele>
        <time>2017-03-31T21:40:23Z</time>
      </trkpt>
      <trkpt lat="47.19918" lon="4.88155">
        <ele>349.308</ele>
        <time>2017-03-31T21:40:43Z</time>
      </trkpt>
      <trkpt lat="47.19876" lon="4.88162">
        <ele>347.598</ele>
        <time>2017-03-31T21:41:03Z</time>
      </trkpt>
      <trkpt lat="47.19859" lon="4.88149">
        <ele>347.033</ele>
        <time>2017-03-31T21:41:23Z</time>
      </trkpt>
      <trkpt lat="47.19799" lon="4.88075">
        <ele>345.524</ele>
        <time>2017-03-31T21:41:43Z</time>
      </trkpt>
      <trkpt lat="47.19765" lon="4.88053">
        <ele>344.769</ele>
        <time>2017-03-31T21:42:03Z</time>
      </trkpt>
      <trkpt lat="47.19732" lon="4.88046">
        <ele>344.248</ele>
        <time>2017-03-31T21:42:23Z</time>
      </trkpt>
      <trkpt lat="47.19673" lon="4.88055">
        <ele>341.321</ele>
        <time>2017-03-31T21:42:43Z</time>
      </trkpt>
      <trkpt lat="47.19649" lon="4.88069">
        <ele>341.578</ele>
        <time>2017-03-31T21:43:03Z</time>
      </trkpt>
      <trkpt lat="47.19588" lon="4.88117">
        <ele>341.812</ele>
        <time>2017-03-31T21:43:23Z</time>
      </trkpt>
      <trkpt lat="47.19524" lon="4.88212">
        <ele>338.178</ele>
        <time>2017-03-31T21:43:43Z</time>
      </trkpt>
      <trkpt lat="47.19481" lon="4.88266">
        <ele>335.733</ele>
        <time>2017-03-31T21:44:03Z</time>
      </trkpt>
      <trkpt lat="47.1943" lon="4.88358">
        <ele>335.626</ele>
        <time>2017-03-31T21:44:23Z</time>
      </trkpt>
      <trkpt lat="47.19409" lon="4.88382">
        <ele>335.108</ele>
        <time>2017-03-31T21:44:43Z</time>
      </trkpt>
      <trkpt lat="47.19371" lon="4.88407">
        <ele>334.063</ele>
        <time>2017-03-31T21:45:03Z</time>
      </trkpt>
      <trkpt lat="47.19311" lon="4.88424">
        <ele>330.958</ele>
        <time>2017-03-31T21:45:23Z</time>
      </trkpt>
      <trkpt lat="47.19246" lon="4.88438">
        <ele>329.789</ele>
        <time>2017-03-31T21:45:43Z</time>
      </trkpt>
      <trkpt lat="47.1922" lon="4.88491">
        <ele>329.744</ele>
        <time>2017-03-31T21:46:03Z</time>
      </trkpt>
      <trkpt lat="47.19244" lon="4.88528">
        <ele>332.083</ele>
        <time>2017-03-31T21:46:23Z</time>
      </trkpt>
      <trkpt lat="47.19266" lon="4.88572">
        <ele>334.776</ele>
        <time>2017-03-31T21:46:43Z</time>
      </trkpt>
      <trkpt lat="47.19284" lon="4.88648">
        <ele>338.733</ele>
        <time>2017-03-31T21:47:03Z</time>
      </trkpt>
      <trkpt lat="47.19306" lon="4.88673">
        <ele>339.467</ele>
        <time>2017-03-31T21:47:23Z</time>
      </trkpt>
      <trkpt lat="47.19404" lon="4.88681">
        <ele>336.521</ele>
        <time>2017-03-31T21:47:43Z</time>
      </trkpt>
      <trkpt lat="47.19414" lon="4.88698">
        <ele>336.241</ele>
        <time>2017-03-31T21:48:03Z</time>
      </trkpt>
      <trkpt lat="47.19413" lon="4.88714">
        <ele>336.905</ele>
        <time>2017-03-31T21:48:23Z</time>
      </trkpt>
      <trkpt lat="47.19392" lon="4.8874">
        <ele>341.308</ele>
        <time>2017-03-31T21:48:43Z</time>
      </trkpt>
      <trkpt lat="47.19388" lon="4.88766">
        <ele>345.358</ele>
        <time>2017-03-31T21:49:03Z</time>
      </trkpt>
      <trkpt lat="47.19399" lon="4.88777">
        <ele>345.933</ele>
        <time>2017-03-31T21:49:23Z</time>
      </trkpt>
      <trkpt lat="47.19429" lon="4.88773">
        <ele>342.974</ele>
        <time>2017-03-31T21:49:43Z</time>
      </trkpt>
      <trkpt lat="47.1943" lon="4.88818">
        <ele>349.119</ele>
        <time>2017-03-31T21:50:03Z</time>
      </trkpt>
      <trkpt lat="47.19419" lon="4.8884">
        <ele>352.558</ele>
        <time>2017-03-31T21:50:23Z</time>
      </trkpt>
      <trkpt lat="47.19404" lon="4.88936">
        <ele>361.151</ele>
        <time>2017-03-31T21:50:43Z</time>
      </trkpt>
      <trkpt lat="47.19388" lon="4.88934">
        <ele>363.398</ele>
        <time>2017-03-31T21:51:03Z</time>
      </trkpt>
      <trkpt lat="47.19383" lon="4.88879">
        <ele>359.142</ele>
        <time>2017-03-31T21:51:23Z</time>
      </trkpt>
      <trkpt lat="47.1937" lon="4.88863">
        <ele>358.862</ele>
        <time>2017-03-31T21:51:43Z</time>
      </trkpt>
      <trkpt lat="47.19347" lon="4.88858">
        <ele>359.683</ele>
        <time>2017-03-31T21:52:03Z</time>
      </trkpt>
      <trkpt lat="47.19301" lon="4.88906">
        <ele>364.111</ele>
        <time>2017-03-31T21:52:23Z</time>
      </trkpt>
      <trkpt lat="47.19264" lon="4.88921">
        <ele>364.708</ele>
        <time>2017-03-31T21:52:43Z</time>
      </trkpt>
      <trkpt lat="47.19197" lon="4.88917">
        <ele>367.992</ele>
        <time>2017-03-31T21:53:03Z</time>
      </trkpt>
      <trkpt lat="47.19154" lon="4.88932">
        <ele>372.367</ele>
        <time>2017-03-31T21:53:23Z</time>
      </trkpt>
      <trkpt lat="47.19109" lon="4.88966">
        <ele>378.398</ele>
        <time>2017-03-31T21:53:43Z</time>
      </trkpt>
      <trkpt lat="47.19088" lon="4.88998">
        <ele>381.733</ele>
        <time>2017-03-31T21:54:03Z</time>
      </trkpt>
      <trkpt lat="47.19057" lon="4.89144">
        <ele>387.412</ele>
        <time>2017-03-31T21:54:23Z</time>
      </trkpt>
      <trkpt lat="47.19039" lon="4.89182">
        <ele>389.025</ele>
        <time>2017-03-31T21:54:43Z</time>
      </trkpt>
      <trkpt lat="47.19007" lon="4.89226">
        <ele>391.272</ele>
        <time>2017-03-31T21:55:03Z</time>
      </trkpt>
      <trkpt lat="47.18962" lon="4.89245">
        <ele>394.676</ele>
        <time>2017-03-31T21:55:23Z</time>
      </trkpt>
      <trkpt lat="47.18915" lon="4.8926">
        <ele>399.158</ele>
        <time>2017-03-31T21:55:43Z</time>
      </trkpt>
      <trkpt lat="47.18848" lon="4.89321">
        <ele>404.752</ele>
        <time>2017-03-31T21:56:03Z</time>
      </trkpt>
      <trkpt lat="47.18796" lon="4.89388">
        <ele>408.617</ele>
        <time>2017-03-31T21:56:23Z</time>
      </trkpt>
      <trkpt lat="47.18752" lon="4.8947">
        <ele>414.908</ele>
        <time>2017-03-31T21:56:43Z</time>
      </trkpt>
      <trkpt lat="47.18719" lon="4.89499">
        <ele>415.661</ele>
        <time>2017-03-31T21:57:03Z</time>
      </trkpt>
      <trkpt lat="47.18698" lon="4.89572">
        <ele>417.496</ele>
        <time>2017-03-31T21:57:23Z</time>
      </trkpt>
      <trkpt lat="47.18695" lon="4.89613">
        <ele>418.157</ele>
        <time>2017-03-31T21:57:43Z</time>
      </trkpt>
      <trkpt lat="47.18645" lon="4.8959">
        <ele>417.252</ele>
        <time>2017-03-31T21:58:03Z</time>
      </trkpt>
      <trkpt lat="47.18542" lon="4.89555">
        <ele>423.571</ele>
        <time>2017-03-31T21:58:23Z</time>
      </trkpt>
      <trkpt lat="47.1854" lon="4.8952">
        <ele>426.174</ele>
        <time>2017-03-31T21:58:43Z</time>
      </trkpt>
      <trkpt lat="47.18521" lon="4.89537">
        <ele>426.011</ele>
        <time>2017-03-31T21:59:03Z</time>
      </trkpt>
      <trkpt lat="47.18472" lon="4.8951">
        <ele>425.945</ele>
        <time>2017-03-31T21:59:23Z</time>
      </trkpt>
      <trkpt lat="47.18434" lon="4.89462">
        <ele>426.791</ele>
        <time>2017-03-31T21:59:43Z</time>
      </trkpt>
      <trkpt lat="47.18399" lon="4.894">
        <ele>425.981</ele>
        <time>2017-03-31T22:00:03Z</time>
      </trkpt>
      <trkpt lat="47.18359" lon="4.89305">
        <ele>422.619</ele>
        <time>2017-03-31T22:00:23Z</time>
      </trkpt>
      <trkpt lat="47.18332" lon="4.89278">
        <ele>421.908</ele>
        <time>2017-03-31T22:00:43Z</time>
      </trkpt>
      <trkpt lat="47.18324" lon="4.89252">
        <ele>423.675</ele>
        <time>2017-03-31T22:01:03Z</time>
      </trkpt>
      <trkpt lat="47.18225" lon="4.89159">
        <ele>431.77</ele>
        <time>2017-03-31T22:01:23Z</time>
      </trkpt>
      <trkpt lat="47.18112" lon="4.89039">
        <ele>452.471</ele>
        <time>2017-03-31T22:01:43Z</time>
      </trkpt>
      <trkpt lat="47.18036" lon="4.88991">
        <ele>464.346</ele>
        <time>2017-03-31T22:02:03Z</time>
      </trkpt>
      <trkpt lat="47.18005" lon="4.88997">
        <ele>472.465</ele>
        <time>2017-03-31T22:02:23Z</time>
      </trkpt>
      <trkpt lat="47.17979" lon="4.89025">
        <ele>478.018</ele>
        <time>2017-03-31T22:02:43Z</time>
      </trkpt>
      <trkpt lat="47.17946" lon="4.89019">
        <ele>483.425</ele>
        <time>2017-03-31T22:03:03Z</time>
      </trkpt>
      <trkpt lat="47.17914" lon="4.89003">
        <ele>488.599</ele>
        <time>2017-03-31T22:03:23Z</time>
      </trkpt>
      <trkpt lat="47.179" lon="4.8898">
        <ele>492.774</ele>
        <time>2017-03-31T22:03:43Z</time>
      </trkpt>
      <trkpt lat="47.17933" lon="4.88977">
        <ele>491.056</ele>
        <time>2017-03-31T22:04:03Z</time>
      </trkpt>
      <trkpt lat="47.17933" lon="4.88962">
        <ele>492.021</ele>
        <time>2017-03-31T22:04:23Z</time>
      </trkpt>
      <trkpt lat="47.17916" lon="4.8895">
        <ele>496.508</ele>
        <time>2017-03-31T22:04:43Z</time>
      </trkpt>
      <trkpt lat="47.17897" lon="4.8892">
        <ele>500.253</ele>
        <time>2017-03-31T22:05:03Z</time>
      </trkpt>
      <trkpt lat="47.17867" lon="4.88931">
        <ele>500.128</ele>
        <time>2017-03-31T22:05:23Z</time>
      </trkpt>
      <trkpt lat="47.17833" lon="4.88906">
        <ele>500.739</ele>
        <time>2017-03-31T22:05:43Z</time>
      </trkpt>
      <trkpt lat="47.17814" lon="4.88869">
        <ele>500.084</ele>
        <time>2017-03-31T22:06:03Z</time>
      </trkpt>
      <trkpt lat="47.17771" lon="4.88847">
        <ele>497.473</ele>
        <time>2017-03-31T22:06:23Z</time>
      </trkpt>
      <trkpt lat="47.17744" lon="4.88824">
        <ele>496.476</ele>
        <time>2017-03-31T22:06:43Z</time>
      </trkpt>
      <trkpt lat="47.17731" lon="4.88829">
        <ele>496.243</ele>
        <time>2017-03-31T22:07:03Z</time>
      </trkpt>
      <trkpt lat="47.17712" lon="4.88821">
        <ele>494.517</ele>
        <time>2017-03-31T22:07:23Z</time>
      </trkpt>
      <trkpt lat="47.17682" lon="4.88812">
        <ele>492.073</ele>
        <time>2017-03-31T22:07:43Z</time>
      </trkpt>
      <trkpt lat="47.17666" lon="4.88797">
        <ele>490.785</ele>
        <time>2017-03-31T22:08:03Z</time>
      </trkpt>
      <trkpt lat="47.17617" lon="4.88763">
        <ele>487.113</ele>
        <time>2017-03-31T22:08:23Z</time>
      </trkpt>
      <trkpt lat="47.17604" lon="4.88758">
        <ele>485.708</ele>
        <time>2017-03-31T22:08:43Z</time>
      </trkpt>
      <trkpt lat="47.17592" lon="4.88747">
        <ele>485.173</ele>
        <time>2017-03-31T22:09:03Z</time>
      </trkpt>
      <trkpt lat="47.17563" lon="4.8874">
        <ele>484.718</ele>
        <time>2017-03-31T22:09:23Z</time>
      </trkpt>
      <trkpt lat="47.17556" lon="4.88719">
        <ele>485.529</ele>
        <time>2017-03-31T22:09:43Z</time>
      </trkpt>
      <trkpt lat="47.17536" lon="4.88711">
        <ele>484.014</ele>
        <time>2017-03-31T22:10:03Z</time>
      </trkpt>
      <trkpt lat="47.17514" lon="4.88681">
        <ele>482.833</ele>
        <time>2017-03-31T22:10:23Z</time>
      </trkpt>
      <trkpt lat="47.17491" lon="4.88676">
        <ele>482.196</ele>
        <time>2017-03-31T22:10:43Z</time>
      </trkpt>
      <trkpt lat="47.17479" lon="4.88655">
        <ele>481.243</ele>
        <time>2017-03-31T22:11:03Z</time>
      </trkpt>
      <trkpt lat="47.17446" lon="4.88644">
        <ele>478.527</ele>
        <time>2017-03-31T22:11:23Z</time>
      </trkpt>
      <trkpt lat="47.17435" lon="4.88647">
        <ele>477.863</ele>
        <time>2017-03-31T22:11:43Z</time>
      </trkpt>
      <trkpt lat="47.17424" lon="4.88636">
        <ele>476.144</ele>
        <time>2017-03-31T22:12:03Z</time>
      </trkpt>
      <trkpt lat="47.174" lon="4.88647">
        <ele>475.218</ele>
        <time>2017-03-31T22:12:23Z</time>
      </trkpt>
      <trkpt lat="47.17371" lon="4.88643">
        <ele>472.708</ele>
        <time>2017-03-31T22:12:43Z</time>
      </trkpt>
      <trkpt lat="47.1735" lon="4.88619">
        <ele>470.592</ele>
        <time>2017-03-31T22:13:03Z</time>
      </trkpt>
      <trkpt lat="47.17331" lon="4.88621">
        <ele>467.887</ele>
        <time>2017-03-31T22:13:23Z</time>
      </trkpt>
      <trkpt lat="47.17238" lon="4.88599">
        <ele>449.818</ele>
        <time>2017-03-31T22:13:43Z</time>
      </trkpt>
      <trkpt lat="47.17196" lon="4.88546">
        <ele>439.223</ele>
        <time>2017-03-31T22:14:03Z</time>
      </trkpt>
      <trkpt lat="47.17171" lon="4.88561">
        <ele>434.972</ele>
        <time>2017-03-31T22:14:23Z</time>
      </trkpt>
      <trkpt lat="47.17139" lon="4.88548">
        <ele>430.435</ele>
        <time>2017-03-31T22:14:43Z</time>
      </trkpt>
      <trkpt lat="47.17146" lon="4.88524">
        <ele>429.222</ele>
        <time>2017-03-31T22:15:03Z</time>
      </trkpt>
      <trkpt lat="47.17147" lon="4.88509">
        <ele>427.176</ele>
        <time>2017-03-31T22:15:23Z</time>
      </trkpt>
      <trkpt lat="47.17158" lon="4.8847">
        <ele>420.551</ele>
        <time>2017-03-31T22:15:43Z</time>
      </trkpt>
      <trkpt lat="47.17191" lon="4.88446">
        <ele>420.501</ele>
        <time>2017-03-31T22:16:03Z</time>
      </trkpt>
      <trkpt lat="47.17219" lon="4.88415">
        <ele>419.711</ele>
        <time>2017-03-31T22:16:23Z</time>
      </trkpt>
      <trkpt lat="47.17234" lon="4.88389">
        <ele>413.708</ele>
        <time>2017-03-31T22:16:43Z</time>
      </trkpt>
      <trkpt lat="47.17269" lon="4.88341">
        <ele>404.781</ele>
        <time>2017-03-31T22:17:03Z</time>
      </trkpt>
      <trkpt lat="47.17269" lon="4.88324">
        <ele>400.656</ele>
        <time>2017-03-31T22:17:23Z</time>
      </trkpt>
      <trkpt lat="47.1731" lon="4.88299">
        <ele>398.867</ele>
        <time>2017-03-31T22:17:43Z</time>
      </trkpt>
      <trkpt lat="47.17415" lon="4.88208">
        <ele>376.932</ele>
        <time>2017-03-31T22:18:03Z</time>
      </trkpt>
      <trkpt lat="47.17438" lon="4.88177">
        <ele>369.641</ele>
        <time>2017-03-31T22:18:23Z</time>
      </trkpt>
      <trkpt lat="47.17472" lon="4.88075">
        <ele>356.714</ele>
        <time>2017-03-31T22:18:43Z</time>
      </trkpt>
      <trkpt lat="47.17501" lon="4.88035">
        <ele>347.771</ele>
        <time>2017-03-31T22:19:03Z</time>
      </trkpt>
      <trkpt lat="47.17576" lon="4.87981">
        <ele>340.185</ele>
        <time>2017-03-31T22:19:23Z</time>
      </trkpt>
      <trkpt lat="47.17602" lon="4.87956">
        <ele>332.316</ele>
        <time>2017-03-31T22:19:43Z</time>
      </trkpt>
      <trkpt lat="47.1765" lon="4.87946">
        <ele>325.676</ele>
        <time>2017-03-31T22:20:03Z</time>
      </trkpt>
      <trkpt lat="47.17687" lon="4.87956">
        <ele>321.713</ele>
        <time>2017-03-31T22:20:23Z</time>
      </trkpt>
      <trkpt lat="47.17699" lon="4.87913">
        <ele>314.108</ele>
        <time>2017-03-31T22:20:43Z</time>
      </trkpt>
      <trkpt lat="47.17751" lon="4.87917">
        <ele>311.087</ele>
        <time>2017-03-31T22:21:03Z</time>
      </trkpt>
      <trkpt lat="47.1778" lon="4.87867">
        <ele>310.162</ele>
        <time>2017-03-31T22:21:23Z</time>
      </trkpt>
      <trkpt lat="47.17807" lon="4.87834">
        <ele>313.183</ele>
        <time>2017-03-31T22:21:43Z</time>
      </trkpt>
      <trkpt lat="47.17857" lon="4.87742">
        <ele>322.758</ele>
        <time>2017-03-31T22:22:03Z</time>
      </trkpt>
      <trkpt lat="47.17862" lon="4.87714">
        <ele>325.977</ele>
        <time>2017-03-31T22:22:23Z</time>
      </trkpt>
      <trkpt lat="47.17852" lon="4.87688">
        <ele>327.98</ele>
        <time>2017-03-31T22:22:43Z</time>
      </trkpt>
      <trkpt lat="47.17818" lon="4.87634">
        <ele>332.317</ele>
        <time>2017-03-31T22:23:03Z</time>
      </trkpt>
      <trkpt lat="47.17792" lon="4.87584">
        <ele>339.871</ele>
        <time>2017-03-31T22:23:23Z</time>
      </trkpt>
      <trkpt lat="47.17774" lon="4.87558">
        <ele>343.682</ele>
        <time>2017-03-31T22:23:43Z</time>
      </trkpt>
      <trkpt lat="47.17773" lon="4.87518">
        <ele>347.743</ele>
        <time>2017-03-31T22:24:03Z</time>
      </trkpt>
      <trkpt lat="47.17765" lon="4.8749">
        <ele>349.417</ele>
        <time>2017-03-31T22:24:23Z</time>
      </trkpt>
      <trkpt lat="47.17756" lon="4.87434">
        <ele>353.708</ele>
        <time>2017-03-31T22:24:43Z</time>
      </trkpt>
      <trkpt lat="47.17721" lon="4.87275">
        <ele>372.224</ele>
        <time>2017-03-31T22:25:03Z</time>
      </trkpt>
      <trkpt lat="47.17722" lon="4.87237">
        <ele>375.349</ele>
        <time>2017-03-31T22:25:23Z</time>
      </trkpt>
      <trkpt lat="47.17746" lon="4.87059">
        <ele>390.99</ele>
        <time>2017-03-31T22:25:43Z</time>
      </trkpt>
      <trkpt lat="47.17768" lon="4.8679">
        <ele>398.155</ele>
        <time>2017-03-31T22:26:03Z</time>
      </trkpt>
      <trkpt lat="47.17783" lon="4.86528">
        <ele>407.824</ele>
        <time>2017-03-31T22:26:23Z</time>
      </trkpt>
      <trkpt lat="47.17781" lon="4.8643">
        <ele>409.297</ele>
        <time>2017-03-31T22:26:43Z</time>
      </trkpt>
      <trkpt lat="47.17773" lon="4.86384">
        <ele>413.184</ele>
        <time>2017-03-31T22:27:03Z</time>
      </trkpt>
      <trkpt lat="47.17754" lon="4.86346">
        <ele>415.948</ele>
        <time>2017-03-31T22:27:23Z</time>
      </trkpt>
      <trkpt lat="47.17738" lon="4.86331">
        <ele>415.234</ele>
        <time>2017-03-31T22:27:43Z</time>
      </trkpt>
      <trkpt lat="47.17735" lon="4.86287">
        <ele>415.055</ele>
        <time>2017-03-31T22:28:03Z</time>
      </trkpt>
      <trkpt lat="47.17738" lon="4.86049">
        <ele>409.81</ele>
        <time>2017-03-31T22:28:23Z</time>
      </trkpt>
      <trkpt lat="47.17773" lon="4.8588">
        <ele>409.608</ele>
        <time>2017-03-31T22:28:43Z</time>
      </trkpt>
      <trkpt lat="47.17768" lon="4.85747">
        <ele>404.489</ele>
        <time>2017-03-31T22:29:03Z</time>
      </trkpt>
      <trkpt lat="47.17827" lon="4.85647">
        <ele>407.634</ele>
        <time>2017-03-31T22:29:23Z</time>
      </trkpt>
      <trkpt lat="47.17867" lon="4.85578">
        <ele>409.445</ele>
        <time>2017-03-31T22:29:43Z</time>
      </trkpt>
      <trkpt lat="47.17895" lon="4.85505">
        <ele>407.44</ele>
        <time>2017-03-31T22:30:03Z</time>
      </trkpt>
      <trkpt lat="47.17898" lon="4.85476">
        <ele>406.899</ele>
        <time>2017-03-31T22:30:23Z</time>
      </trkpt>
      <trkpt lat="47.1786" lon="4.85467">
        <ele>400.582</ele>
        <time>2017-03-31T22:30:43Z</time>
      </trkpt>
      <trkpt lat="47.17834" lon="4.85446">
        <ele>393.419</ele>
        <time>2017-03-31T22:31:03Z</time>
      </trkpt>
      <trkpt lat="47.17801" lon="4.85413">
        <ele>382.513</ele>
        <time>2017-03-31T22:31:23Z</time>
      </trkpt>
      <trkpt lat="47.17759" lon="4.85416">
        <ele>373.297</ele>
        <time>2017-03-31T22:31:43Z</time>
      </trkpt>
      <trkpt lat="47.17712" lon="4.85464">
        <ele>371.923</ele>
        <time>2017-03-31T22:32:03Z</time>
      </trkpt>
      <trkpt lat="47.17695" lon="4.85478">
        <ele>371.725</ele>
        <time>2017-03-31T22:32:23Z</time>
      </trkpt>
      <trkpt lat="47.17678" lon="4.85462">
        <ele>370.408</ele>
        <time>2017-03-31T22:32:43Z</time>
      </trkpt>
      <trkpt lat="47.17633" lon="4.8548">
        <ele>370.485</ele>
        <time>2017-03-31T22:33:03Z</time>
      </trkpt>
      <trkpt lat="47.17617" lon="4.8547">
        <ele>372.85</ele>
        <time>2017-03-31T22:33:23Z</time>
      </trkpt>
      <trkpt lat="47.17608" lon="4.85449">
        <ele>374.941</ele>
        <time>2017-03-31T22:33:43Z</time>
      </trkpt>
      <trkpt lat="47.17565" lon="4.85426">
        <ele>379.966</ele>
        <time>2017-03-31T22:34:03Z</time>
      </trkpt>
      <trkpt lat="47.17485" lon="4.85413">
        <ele>386.895</ele>
        <time>2017-03-31T22:34:23Z</time>
      </trkpt>
      <trkpt lat="47.1741" lon="4.85384">
        <ele>390.168</ele>
        <time>2017-03-31T22:34:43Z</time>
      </trkpt>
      <trkpt lat="47.17321" lon="4.85345">
        <ele>397.225</ele>
        <time>2017-03-31T22:35:03Z</time>
      </trkpt>
      <trkpt lat="47.17238" lon="4.85303">
        <ele>402.529</ele>
        <time>2017-03-31T22:35:23Z</time>
      </trkpt>
      <trkpt lat="47.17148" lon="4.85223">
        <ele>411.046</ele>
        <time>2017-03-31T22:35:43Z</time>
      </trkpt>
      <trkpt lat="47.17026" lon="4.85279">
        <ele>415.088</ele>
        <time>2017-03-31T22:36:03Z</time>
      </trkpt>
      <trkpt lat="47.17005" lon="4.85265">
        <ele>418.116</ele>
        <time>2017-03-31T22:36:23Z</time>
      </trkpt>
      <trkpt lat="47.17007" lon="4.85219">
        <ele>421.308</ele>
        <time>2017-03-31T22:36:43Z</time>
      </trkpt>
      <trkpt lat="47.16892" lon="4.85166">
        <ele>411.49</ele>
        <time>2017-03-31T22:37:03Z</time>
      </trkpt>
      <trkpt lat="47.16867" lon="4.85165">
        <ele>410.385</ele>
        <time>2017-03-31T22:37:23Z</time>
      </trkpt>
      <trkpt lat="47.16788" lon="4.85252">
        <ele>405.576</ele>
        <time>2017-03-31T22:37:43Z</time>
      </trkpt>
      <trkpt lat="47.16749" lon="4.85344">
        <ele>400.481</ele>
        <time>2017-03-31T22:38:03Z</time>
      </trkpt>
      <trkpt lat="47.16644" lon="4.8534">
        <ele>387.97</ele>
        <time>2017-03-31T22:38:23Z</time>
      </trkpt>
      <trkpt lat="47.16612" lon="4.85309">
        <ele>380.363</ele>
        <time>2017-03-31T22:38:43Z</time>
      </trkpt>
      <trkpt lat="47.16546" lon="4.85257">
        <ele>376.35</ele>
        <time>2017-03-31T22:39:03Z</time>
      </trkpt>
      <trkpt lat="47.16436" lon="4.85319">
        <ele>386.294</ele>
        <time>2017-03-31T22:39:23Z</time>
      </trkpt>
      <trkpt lat="47.16397" lon="4.85321">
        <ele>385.845</ele>
        <time>2017-03-31T22:39:43Z</time>
      </trkpt>
      <trkpt lat="47.16292" lon="4.85306">
        <ele>392.947</ele>
        <time>2017-03-31T22:40:03Z</time>
      </trkpt>
      <trkpt lat="47.16225" lon="4.85282">
        <ele>400.211</ele>
        <time>2017-03-31T22:40:23Z</time>
      </trkpt>
      <trkpt lat="47.16201" lon="4.85285">
        <ele>406.608</ele>
        <time>2017-03-31T22:40:43Z</time>
      </trkpt>
      <trkpt lat="47.1618" lon="4.85309">
        <ele>410.36</ele>
        <time>2017-03-31T22:41:03Z</time>
      </trkpt>
      <trkpt lat="47.16139" lon="4.85327">
        <ele>418.235</ele>
        <time>2017-03-31T22:41:23Z</time>
      </trkpt>
      <trkpt lat="47.16097" lon="4.85314">
        <ele>422.136</ele>
        <time>2017-03-31T22:41:43Z</time>
      </trkpt>
      <trkpt lat="47.16065" lon="4.85288">
        <ele>423.621</ele>
        <time>2017-03-31T22:42:03Z</time>
      </trkpt>
      <trkpt lat="47.16023" lon="4.85242">
        <ele>423.73</ele>
        <time>2017-03-31T22:42:23Z</time>
      </trkpt>
      <trkpt lat="47.15997" lon="4.85229">
        <ele>420.583</ele>
        <time>2017-03-31T22:42:43Z</time>
      </trkpt>
      <trkpt lat="47.15946" lon="4.85229">
        <ele>412.49</ele>
        <time>2017-03-31T22:43:03Z</time>
      </trkpt>
      <trkpt lat="47.15941" lon="4.85153">
        <ele>410.364</ele>
        <time>2017-03-31T22:43:23Z</time>
      </trkpt>
      <trkpt lat="47.15928" lon="4.85081">
        <ele>408.891</ele>
        <time>2017-03-31T22:43:43Z</time>
      </trkpt>
      <trkpt lat="47.15921" lon="4.85011">
        <ele>406.781</ele>
        <time>2017-03-31T22:44:03Z</time>
      </trkpt>
      <trkpt lat="47.15869" lon="4.84926">
        <ele>399.519</ele>
        <time>2017-03-31T22:44:23Z</time>
      </trkpt>
      <trkpt lat="47.15823" lon="4.84914">
        <ele>394.708</ele>
        <time>2017-03-31T22:44:43Z</time>
      </trkpt>
      <trkpt lat="47.15782" lon="4.84913">
        <ele>390.625</ele>
        <time>2017-03-31T22:45:03Z</time>
      </trkpt>
      <trkpt lat="47.15782" lon="4.84966">
        <ele>389.13</ele>
        <time>2017-03-31T22:45:23Z</time>
      </trkpt>
      <trkpt lat="47.15756" lon="4.8502">
        <ele>382.991</ele>
        <time>2017-03-31T22:45:43Z</time>
      </trkpt>
      <trkpt lat="47.15734" lon="4.85103">
        <ele>378.356</ele>
        <time>2017-03-31T22:46:03Z</time>
      </trkpt>
      <trkpt lat="47.15679" lon="4.85103">
        <ele>371.025</ele>
        <time>2017-03-31T22:46:23Z</time>
      </trkpt>
      <trkpt lat="47.15558" lon="4.85056">
        <ele>358.928</ele>
        <time>2017-03-31T22:46:43Z</time>
      </trkpt>
      <trkpt lat="47.15531" lon="4.85077">
        <ele>362.635</ele>
        <time>2017-03-31T22:47:03Z</time>
      </trkpt>
      <trkpt lat="47.15513" lon="4.85068">
        <ele>364.149</ele>
        <time>2017-03-31T22:47:23Z</time>
      </trkpt>
      <trkpt lat="47.15328" lon="4.85128">
        <ele>366.725</ele>
        <time>2017-03-31T22:47:43Z</time>
      </trkpt>
      <trkpt lat="47.15258" lon="4.8517">
        <ele>371.526</ele>
        <time>2017-03-31T22:48:03Z</time>
      </trkpt>
      <trkpt lat="47.15174" lon="4.85224">
        <ele>381.308</ele>
        <time>2017-03-31T22:48:23Z</time>
      </trkpt>
      <trkpt lat="47.15155" lon="4.85221">
        <ele>384.108</ele>
        <time>2017-03-31T22:48:43Z</time>
      </trkpt>
      <trkpt lat="47.15126" lon="4.85191">
        <ele>392.328</ele>
        <time>2017-03-31T22:49:03Z</time>
      </trkpt>
      <trkpt lat="47.15081" lon="4.85155">
        <ele>402.593</ele>
        <time>2017-03-31T22:49:23Z</time>
      </trkpt>
      <trkpt lat="47.1506" lon="4.85152">
        <ele>405.744</ele>
        <time>2017-03-31T22:49:43Z</time>
      </trkpt>
      <trkpt lat="47.14992" lon="4.85196">
        <ele>410.289</ele>
        <time>2017-03-31T22:50:03Z</time>
      </trkpt>
      <trkpt lat="47.14944" lon="4.85165">
        <ele>424.558</ele>
        <time>2017-03-31T22:50:23Z</time>
      </trkpt>
      <trkpt lat="47.14898" lon="4.85143">
        <ele>433.381</ele>
        <time>2017-03-31T22:50:43Z</time>
      </trkpt>
      <trkpt lat="47.14855" lon="4.85166">
        <ele>436.478</ele>
        <time>2017-03-31T22:51:03Z</time>
      </trkpt>
      <trkpt lat="47.14803" lon="4.8523">
        <ele>436.132</ele>
        <time>2017-03-31T22:51:23Z</time>
      </trkpt>
      <trkpt lat="47.14705" lon="4.85243">
        <ele>446.167</ele>
        <time>2017-03-31T22:51:43Z</time>
      </trkpt>
      <trkpt lat="47.1469" lon="4.85241">
        <ele>447.881</ele>
        <time>2017-03-31T22:52:03Z</time>
      </trkpt>
      <trkpt lat="47.14673" lon="4.85249">
        <ele>446.919</ele>
        <time>2017-03-31T22:52:23Z</time>
      </trkpt>
      <trkpt lat="47.14626" lon="4.85261">
        <ele>444.808</ele>
        <time>2017-03-31T22:52:43Z</time>
      </trkpt>
      <trkpt lat="47.1458" lon="4.85286">
        <ele>441.422</ele>
        <time>2017-03-31T22:53:03Z</time>
      </trkpt>
      <trkpt lat="47.14544" lon="4.85287">
        <ele>441.337</ele>
        <time>2017-03-31T22:53:23Z</time>
      </trkpt>
      <trkpt lat="47.14504" lon="4.85276">
        <ele>442.328</ele>
        <time>2017-03-31T22:53:43Z</time>
      </trkpt>
      <trkpt lat="47.1445" lon="4.85252">
        <ele>437.683</ele>
        <time>2017-03-31T22:54:03Z</time>
      </trkpt>
      <trkpt lat="47.1437" lon="4.85172">
        <ele>428.232</ele>
        <time>2017-03-31T22:54:23Z</time>
      </trkpt>
      <trkpt lat="47.14303" lon="4.85069">
        <ele>413.935</ele>
        <time>2017-03-31T22:54:43Z</time>
      </trkpt>
      <trkpt lat="47.14282" lon="4.85056">
        <ele>406.792</ele>
        <time>2017-03-31T22:55:03Z</time>
      </trkpt>
      <trkpt lat="47.14245" lon="4.85006">
        <ele>396.536</ele>
        <time>2017-03-31T22:55:23Z</time>
      </trkpt>
      <trkpt lat="47.14207" lon="4.84966">
        <ele>387.366</ele>
        <time>2017-03-31T22:55:43Z</time>
      </trkpt>
      <trkpt lat="47.14177" lon="4.84924">
        <ele>381.729</ele>
        <time>2017-03-31T22:56:03Z</time>
      </trkpt>
      <trkpt lat="47.14142" lon="4.84861">
        <ele>375.721</ele>
        <time>2017-03-31T22:56:23Z</time>
      </trkpt>
      <trkpt lat="47.14105" lon="4.84813">
        <ele>370.508</ele>
        <time>2017-03-31T22:56:43Z</time>
      </trkpt>
      <trkpt lat="47.14003" lon="4.8477">
        <ele>357.462</ele>
        <time>2017-03-31T22:57:03Z</time>
      </trkpt>
      <trkpt lat="47.13989" lon="4.84784">
        <ele>354.837</ele>
        <time>2017-03-31T22:57:23Z</time>
      </trkpt>
      <trkpt lat="47.13967" lon="4.84769">
        <ele>351.048</ele>
        <time>2017-03-31T22:57:43Z</time>
      </trkpt>
      <trkpt lat="47.13964" lon="4.84714">
        <ele>348.953</ele>
        <time>2017-03-31T22:58:03Z</time>
      </trkpt>
      <trkpt lat="47.13987" lon="4.84642">
        <ele>347.972</ele>
        <time>2017-03-31T22:58:23Z</time>
      </trkpt>
      <trkpt lat="47.13948" lon="4.84575">
        <ele>339.935</ele>
        <time>2017-03-31T22:58:43Z</time>
      </trkpt>
      <trkpt lat="47.13927" lon="4.84506">
        <ele>334.882</ele>
        <time>2017-03-31T22:59:03Z</time>
      </trkpt>
      <trkpt lat="47.13942" lon="4.84466">
        <ele>335.836</ele>
        <time>2017-03-31T22:59:23Z</time>
      </trkpt>
      <trkpt lat="47.13948" lon="4.84434">
        <ele>336.297</ele>
        <time>2017-03-31T22:59:43Z</time>
      </trkpt>
      <trkpt lat="47.13915" lon="4.8439">
        <ele>335.823</ele>
        <time>2017-03-31T23:00:03Z</time>
      </trkpt>
      <trkpt lat="47.13896" lon="4.84344">
        <ele>334.925</ele>
        <time>2017-03-31T23:00:23Z</time>
      </trkpt>
      <trkpt lat="47.13885" lon="4.84339">
        <ele>333.408</ele>
        <time>2017-03-31T23:00:43Z</time>
      </trkpt>
      <trkpt lat="47.13889" lon="4.84308">
        <ele>334.165</ele>
        <time>2017-03-31T23:01:03Z</time>
      </trkpt>
      <trkpt lat="47.1391" lon="4.84257">
        <ele>337.82</ele>
        <time>2017-03-31T23:01:23Z</time>
      </trkpt>
      <trkpt lat="47.13942" lon="4.84126">
        <ele>338.771</ele>
        <time>2017-03-31T23:01:43Z</time>
      </trkpt>
      <trkpt lat="47.13969" lon="4.84052">
        <ele>339.316</ele>
        <time>2017-03-31T23:02:03Z</time>
      </trkpt>
      <trkpt lat="47.14003" lon="4.83829">
        <ele>343.125</ele>
        <time>2017-03-31T23:02:23Z</time>
      </trkpt>
      <trkpt lat="47.14037" lon="4.83642">
        <ele>343.028</ele>
        <time>2017-03-31T23:02:43Z</time>
      </trkpt>
      <trkpt lat="47.14039" lon="4.83583">
        <ele>345.925</ele>
        <time>2017-03-31T23:03:03Z</time>
      </trkpt>
      <trkpt lat="47.1407" lon="4.8344">
        <ele>347.869</ele>
        <time>2017-03-31T23:03:23Z</time>
      </trkpt>
      <trkpt lat="47.14171" lon="4.83176">
        <ele>343.744</ele>
        <time>2017-03-31T23:03:43Z</time>
      </trkpt>
      <trkpt lat="47.14165" lon="4.8311">
        <ele>345.005</ele>
        <time>2017-03-31T23:04:03Z</time>
      </trkpt>
      <trkpt lat="47.1415" lon="4.83034">
        <ele>347.715</ele>
        <time>2017-03-31T23:04:23Z</time>
      </trkpt>
      <trkpt lat="47.14146" lon="4.8296">
        <ele>355.008</ele>
        <time>2017-03-31T23:04:43Z</time>
      </trkpt>
      <trkpt lat="47.14103" lon="4.829">
        <ele>364.45</ele>
        <time>2017-03-31T23:05:03Z</time>
      </trkpt>
      <trkpt lat="47.14095" lon="4.82874">
        <ele>368.055</ele>
        <time>2017-03-31T23:05:23Z</time>
      </trkpt>
      <trkpt lat="47.14096" lon="4.82852">
        <ele>372.176</ele>
        <time>2017-03-31T23:05:43Z</time>
      </trkpt>
      <trkpt lat="47.14103" lon="4.82843">
        <ele>375.371</ele>
        <time>2017-03-31T23:06:03Z</time>
      </trkpt>
      <trkpt lat="47.14166" lon="4.82851">
        <ele>381.65</ele>
        <time>2017-03-31T23:06:23Z</time>
      </trkpt>
      <trkpt lat="47.14245" lon="4.82849">
        <ele>400.723</ele>
        <time>2017-03-31T23:06:43Z</time>
      </trkpt>
      <trkpt lat="47.14332" lon="4.82818">
        <ele>411.62</ele>
        <time>2017-03-31T23:07:03Z</time>
      </trkpt>
      <trkpt lat="47.14369" lon="4.82764">
        <ele>424.494</ele>
        <time>2017-03-31T23:07:23Z</time>
      </trkpt>
      <trkpt lat="47.14365" lon="4.82685">
        <ele>440.492</ele>
        <time>2017-03-31T23:07:43Z</time>
      </trkpt>
      <trkpt lat="47.14369" lon="4.82667">
        <ele>441.573</ele>
        <time>2017-03-31T23:08:03Z</time>
      </trkpt>
      <trkpt lat="47.14364" lon="4.82608">
        <ele>453.32</ele>
        <time>2017-03-31T23:08:23Z</time>
      </trkpt>
      <trkpt lat="47.14338" lon="4.82585">
        <ele>461.208</ele>
        <time>2017-03-31T23:08:43Z</time>
      </trkpt>
      <trkpt lat="47.14307" lon="4.82571">
        <ele>466.685</ele>
        <time>2017-03-31T23:09:03Z</time>
      </trkpt>
      <trkpt lat="47.14271" lon="4.8252">
        <ele>476.35</ele>
        <time>2017-03-31T23:09:23Z</time>
      </trkpt>
      <trkpt lat="47.14238" lon="4.8248">
        <ele>484.261</ele>
        <time>2017-03-31T23:09:43Z</time>
      </trkpt>
      <trkpt lat="47.14202" lon="4.82399">
        <ele>492.116</ele>
        <time>2017-03-31T23:10:03Z</time>
      </trkpt>
      <trkpt lat="47.14197" lon="4.8236">
        <ele>494.195</ele>
        <time>2017-03-31T23:10:23Z</time>
      </trkpt>
      <trkpt lat="47.14187" lon="4.8234">
        <ele>494.548</ele>
        <time>2017-03-31T23:10:43Z</time>
      </trkpt>
      <trkpt lat="47.14164" lon="4.82272">
        <ele>501.055</ele>
        <time>2017-03-31T23:11:03Z</time>
      </trkpt>
      <trkpt lat="47.14159" lon="4.82227">
        <ele>507.559</ele>
        <time>2017-03-31T23:11:23Z</time>
      </trkpt>
      <trkpt lat="47.14151" lon="4.82188">
        <ele>510.596</ele>
        <time>2017-03-31T23:11:43Z</time>
      </trkpt>
      <trkpt lat="47.14128" lon="4.82134">
        <ele>513.131</ele>
        <time>2017-03-31T23:12:03Z</time>
      </trkpt>
      <trkpt lat="47.14112" lon="4.82054">
        <ele>518.224</ele>
        <time>2017-03-31T23:12:23Z</time>
      </trkpt>
      <trkpt lat="47.14107" lon="4.81997">
        <ele>521.408</ele>
        <time>2017-03-31T23:12:43Z</time>
      </trkpt>
      <trkpt lat="47.14076" lon="4.81904">
        <ele>520.955</ele>
        <time>2017-03-31T23:13:03Z</time>
      </trkpt>
      <trkpt lat="47.1407" lon="4.81862">
        <ele>520.52</ele>
        <time>2017-03-31T23:13:23Z</time>
      </trkpt>
      <trkpt lat="47.14074" lon="4.81807">
        <ele>522.321</ele>
        <time>2017-03-31T23:13:43Z</time>
      </trkpt>
      <trkpt lat="47.1408" lon="4.81788">
        <ele>524.196</ele>
        <time>2017-03-31T23:14:03Z</time>
      </trkpt>
      <trkpt lat="47.14085" lon="4.81738">
        <ele>527.755</ele>
        <time>2017-03-31T23:14:23Z</time>
      </trkpt>
      <trkpt lat="47.1408" lon="4.81711">
        <ele>527.278</ele>
        <time>2017-03-31T23:14:43Z</time>
      </trkpt>
      <trkpt lat="47.14168" lon="4.81246">
        <ele>547.465</ele>
        <time>2017-03-31T23:15:03Z</time>
      </trkpt>
      <trkpt lat="47.14164" lon="4.81225">
        <ele>548.789</ele>
        <time>2017-03-31T23:15:23Z</time>
      </trkpt>
      <trkpt lat="47.14165" lon="4.81201">
        <ele>548.993</ele>
        <time>2017-03-31T23:15:43Z</time>
      </trkpt>
      <trkpt lat="47.14175" lon="4.81182">
        <ele>550.065</ele>
        <time>2017-03-31T23:16:03Z</time>
      </trkpt>
      <trkpt lat="47.14183" lon="4.81156">
        <ele>551.621</ele>
        <time>2017-03-31T23:16:23Z</time>
      </trkpt>
      <trkpt lat="47.14179" lon="4.81102">
        <ele>552.808</ele>
        <time>2017-03-31T23:16:43Z</time>
      </trkpt>
      <trkpt lat="47.14172" lon="4.81075">
        <ele>553.315</ele>
        <time>2017-03-31T23:17:03Z</time>
      </trkpt>
      <trkpt lat="47.14173" lon="4.8101">
        <ele>554.77</ele>
        <time>2017-03-31T23:17:23Z</time>
      </trkpt>
      <trkpt lat="47.14147" lon="4.80951">
        <ele>552.871</ele>
        <time>2017-03-31T23:17:43Z</time>
      </trkpt>
      <trkpt lat="47.14119" lon="4.80929">
        <ele>550.986</ele>
        <time>2017-03-31T23:18:03Z</time>
      </trkpt>
      <trkpt lat="47.14105" lon="4.8091">
        <ele>549.765</ele>
        <time>2017-03-31T23:18:23Z</time>
      </trkpt>
      <trkpt lat="47.14096" lon="4.8085">
        <ele>548.978</ele>
        <time>2017-03-31T23:18:43Z</time>
      </trkpt>
      <trkpt lat="47.14101" lon="4.80796">
        <ele>550.015</ele>
        <time>2017-03-31T23:19:03Z</time>
      </trkpt>
      <trkpt lat="47.141" lon="4.80695">
        <ele>550.879</ele>
        <time>2017-03-31T23:19:23Z</time>
      </trkpt>
      <trkpt lat="47.14132" lon="4.8056">
        <ele>554.222</ele>
        <time>2017-03-31T23:19:43Z</time>
      </trkpt>
      <trkpt lat="47.1414" lon="4.80508">
        <ele>555.162</ele>
        <time>2017-03-31T23:20:03Z</time>
      </trkpt>
      <trkpt lat="47.14132" lon="4.80361">
        <ele>551.308</ele>
        <time>2017-03-31T23:20:23Z</time>
      </trkpt>
      <trkpt lat="47.13995" lon="4.8045">
        <ele>544.008</ele>
        <time>2017-03-31T23:20:43Z</time>
      </trkpt>
      <trkpt lat="47.13927" lon="4.8048">
        <ele>547.288</ele>
        <time>2017-03-31T23:21:03Z</time>
      </trkpt>
      <trkpt lat="47.13839" lon="4.80679">
        <ele>554.813</ele>
        <time>2017-03-31T23:21:23Z</time>
      </trkpt>
      <trkpt lat="47.13829" lon="4.80572">
        <ele>559.124</ele>
        <time>2017-03-31T23:21:43Z</time>
      </trkpt>
      <trkpt lat="47.13726" lon="4.80156">
        <ele>558.239</ele>
        <time>2017-03-31T23:22:03Z</time>
      </trkpt>
      <trkpt lat="47.13725" lon="4.80106">
        <ele>559.048</ele>
        <time>2017-03-31T23:22:23Z</time>
      </trkpt>
      <trkpt lat="47.13873" lon="4.79565">
        <ele>573.851</ele>
        <time>2017-03-31T23:22:43Z</time>
      </trkpt>
      <trkpt lat="47.13848" lon="4.79518">
        <ele>572.978</ele>
        <time>2017-03-31T23:23:03Z</time>
      </trkpt>
      <trkpt lat="47.13823" lon="4.79493">
        <ele>572.632</ele>
        <time>2017-03-31T23:23:23Z</time>
      </trkpt>
      <trkpt lat="47.13796" lon="4.79456">
        <ele>571.131</ele>
        <time>2017-03-31T23:23:43Z</time>
      </trkpt>
      <trkpt lat="47.13759" lon="4.79412">
        <ele>567.761</ele>
        <time>2017-03-31T23:24:03Z</time>
      </trkpt>
      <trkpt lat="47.13738" lon="4.7936">
        <ele>565.007</ele>
        <time>2017-03-31T23:24:23Z</time>
      </trkpt>
      <trkpt lat="47.13693" lon="4.79196">
        <ele>559.008</ele>
        <time>2017-03-31T23:24:43Z</time>
      </trkpt>
      <trkpt lat="47.13655" lon="4.79114">
        <ele>562.949</ele>
        <time>2017-03-31T23:25:03Z</time>
      </trkpt>
      <trkpt lat="47.13584" lon="4.7898">
        <ele>560.594</ele>
        <time>2017-03-31T23:25:23Z</time>
      </trkpt>
      <trkpt lat="47.13565" lon="4.78892">
        <ele>562.295</ele>
        <time>2017-03-31T23:25:43Z</time>
      </trkpt>
      <trkpt lat="47.13526" lon="4.788">
        <ele>558.26</ele>
        <time>2017-03-31T23:26:03Z</time>
      </trkpt>
      <trkpt lat="47.13492" lon="4.78684">
        <ele>558.619</ele>
        <time>2017-03-31T23:26:23Z</time>
      </trkpt>
      <trkpt lat="47.13462" lon="4.78625">
        <ele>557.132</ele>
        <time>2017-03-31T23:26:43Z</time>
      </trkpt>
      <trkpt lat="47.1344" lon="4.78603">
        <ele>554.789</ele>
        <time>2017-03-31T23:27:03Z</time>
      </trkpt>
      <trkpt lat="47.13436" lon="4.7858">
        <ele>554.083</ele>
        <time>2017-03-31T23:27:23Z</time>
      </trkpt>
      <trkpt lat="47.1344" lon="4.78527">
        <ele>552.831</ele>
        <time>2017-03-31T23:27:43Z</time>
      </trkpt>
      <trkpt lat="47.13458" lon="4.78493">
        <ele>551.861</ele>
        <time>2017-03-31T23:28:03Z</time>
      </trkpt>
      <trkpt lat="47.13483" lon="4.78466">
        <ele>550.907</ele>
        <time>2017-03-31T23:28:23Z</time>
      </trkpt>
      <trkpt lat="47.13514" lon="4.78447">
        <ele>548.508</ele>
        <time>2017-03-31T23:28:43Z</time>
      </trkpt>
      <trkpt lat="47.13518" lon="4.78429">
        <ele>545.049</ele>
        <time>2017-03-31T23:29:03Z</time>
      </trkpt>
      <trkpt lat="47.13512" lon="4.78406">
        <ele>540.424</ele>
        <time>2017-03-31T23:29:23Z</time>
      </trkpt>
      <trkpt lat="47.13525" lon="4.78352">
        <ele>532.545</ele>
        <time>2017-03-31T23:29:43Z</time>
      </trkpt>
      <trkpt lat="47.13571" lon="4.78265">
        <ele>525.21</ele>
        <time>2017-03-31T23:30:03Z</time>
      </trkpt>
      <trkpt lat="47.13582" lon="4.78202">
        <ele>517.199</ele>
        <time>2017-03-31T23:30:23Z</time>
      </trkpt>
      <trkpt lat="47.136" lon="4.78167">
        <ele>515.142</ele>
        <time>2017-03-31T23:30:43Z</time>
      </trkpt>
      <trkpt lat="47.13627" lon="4.78108">
        <ele>510.439</ele>
        <time>2017-03-31T23:31:03Z</time>
      </trkpt>
      <trkpt lat="47.13632" lon="4.78041">
        <ele>506.423</ele>
        <time>2017-03-31T23:31:23Z</time>
      </trkpt>
      <trkpt lat="47.13532" lon="4.78081">
        <ele>484.894</ele>
        <time>2017-03-31T23:31:43Z</time>
      </trkpt>
      <trkpt lat="47.1345" lon="4.78087">
        <ele>471.857</ele>
        <time>2017-03-31T23:32:03Z</time>
      </trkpt>
      <trkpt lat="47.13391" lon="4.78126">
        <ele>465.022</ele>
        <time>2017-03-31T23:32:23Z</time>
      </trkpt>
      <trkpt lat="47.13361" lon="4.78131">
        <ele>462.808</ele>
        <time>2017-03-31T23:32:43Z</time>
      </trkpt>
      <trkpt lat="47.13351" lon="4.78091">
        <ele>457.435</ele>
        <time>2017-03-31T23:33:03Z</time>
      </trkpt>
      <trkpt lat="47.13345" lon="4.78032">
        <ele>453.28</ele>
        <time>2017-03-31T23:33:23Z</time>
      </trkpt>
      <trkpt lat="47.13297" lon="4.78006">
        <ele>449.871</ele>
        <time>2017-03-31T23:33:43Z</time>
      </trkpt>
      <trkpt lat="47.1325" lon="4.77928">
        <ele>437.276</ele>
        <time>2017-03-31T23:34:03Z</time>
      </trkpt>
      <trkpt lat="47.13266" lon="4.77896">
        <ele>431.535</ele>
        <time>2017-03-31T23:34:23Z</time>
      </trkpt>
      <trkpt lat="47.13264" lon="4.77866">
        <ele>426.778</ele>
        <time>2017-03-31T23:34:43Z</time>
      </trkpt>
      <trkpt lat="47.1325" lon="4.7784">
        <ele>423.535</ele>
        <time>2017-03-31T23:35:03Z</time>
      </trkpt>
      <trkpt lat="47.13248" lon="4.77806">
        <ele>414.229</ele>
        <time>2017-03-31T23:35:23Z</time>
      </trkpt>
      <trkpt lat="47.13231" lon="4.77802">
        <ele>415.246</ele>
        <time>2017-03-31T23:35:43Z</time>
      </trkpt>
      <trkpt lat="47.1325" lon="4.77771">
        <ele>406.388</ele>
        <time>2017-03-31T23:36:03Z</time>
      </trkpt>
      <trkpt lat="47.13307" lon="4.7773">
        <ele>404.716</ele>
        <time>2017-03-31T23:36:23Z</time>
      </trkpt>
      <trkpt lat="47.1336" lon="4.7768">
        <ele>405.408</ele>
        <time>2017-03-31T23:36:43Z</time>
      </trkpt>
      <trkpt lat="47.13324" lon="4.77621">
        <ele>400.62</ele>
        <time>2017-03-31T23:37:03Z</time>
      </trkpt>
      <trkpt lat="47.13296" lon="4.77585">
        <ele>399.465</ele>
        <time>2017-03-31T23:37:23Z</time>
      </trkpt>
      <trkpt lat="47.13316" lon="4.77533">
        <ele>402.216</ele>
        <time>2017-03-31T23:37:43Z</time>
      </trkpt>
      <trkpt lat="47.13331" lon="4.77426">
        <ele>409.341</ele>
        <time>2017-03-31T23:38:03Z</time>
      </trkpt>
      <trkpt lat="47.1334" lon="4.77324">
        <ele>426.22</ele>
        <time>2017-03-31T23:38:23Z</time>
      </trkpt>
      <trkpt lat="47.13336" lon="4.77281">
        <ele>433.883</ele>
        <time>2017-03-31T23:38:43Z</time>
      </trkpt>
      <trkpt lat="47.13354" lon="4.77256">
        <ele>438.44</ele>
        <time>2017-03-31T23:39:03Z</time>
      </trkpt>
      <trkpt lat="47.13353" lon="4.77083">
        <ele>461.944</ele>
        <time>2017-03-31T23:39:23Z</time>
      </trkpt>
      <trkpt lat="47.13376" lon="4.77009">
        <ele>475.597</ele>
        <time>2017-03-31T23:39:43Z</time>
      </trkpt>
      <trkpt lat="47.13382" lon="4.76945">
        <ele>486.923</ele>
        <time>2017-03-31T23:40:03Z</time>
      </trkpt>
      <trkpt lat="47.13375" lon="4.76909">
        <ele>491.025</ele>
        <time>2017-03-31T23:40:23Z</time>
      </trkpt>
      <trkpt lat="47.13374" lon="4.76801">
        <ele>509.108</ele>
        <time>2017-03-31T23:40:43Z</time>
      </trkpt>
      <trkpt lat="47.13382" lon="4.76504">
        <ele>533.945</ele>
        <time>2017-03-31T23:41:03Z</time>
      </trkpt>
      <trkpt lat="47.13376" lon="4.76423">
        <ele>540.85</ele>
        <time>2017-03-31T23:41:23Z</time>
      </trkpt>
      <trkpt lat="47.13333" lon="4.76285">
        <ele>546.021</ele>
        <time>2017-03-31T23:41:43Z</time>
      </trkpt>
      <trkpt lat="47.13319" lon="4.76218">
        <ele>543.436</ele>
        <time>2017-03-31T23:42:03Z</time>
      </trkpt>
      <trkpt lat="47.13265" lon="4.76168">
        <ele>543.925</ele>
        <time>2017-03-31T23:42:23Z</time>
      </trkpt>
      <trkpt lat="47.13243" lon="4.7613">
        <ele>547.288</ele>
        <time>2017-03-31T23:42:43Z</time>
      </trkpt>
      <trkpt lat="47.13195" lon="4.76068">
        <ele>551.835</ele>
        <time>2017-03-31T23:43:03Z</time>
      </trkpt>
      <trkpt lat="47.12777" lon="4.76295">
        <ele>583.899</ele>
        <time>2017-03-31T23:43:23Z</time>
      </trkpt>
      <trkpt lat="47.12745" lon="4.76139">
        <ele>587.523</ele>
        <time>2017-03-31T23:43:43Z</time>
      </trkpt>
      <trkpt lat="47.12559" lon="4.75362">
        <ele>585.583</ele>
        <time>2017-03-31T23:44:03Z</time>
      </trkpt>
      <trkpt lat="47.12493" lon="4.7533">
        <ele>589.011</ele>
        <time>2017-03-31T23:44:23Z</time>
      </trkpt>
      <trkpt lat="47.12458" lon="4.75293">
        <ele>587.308</ele>
        <time>2017-03-31T23:44:43Z</time>
      </trkpt>
      <trkpt lat="47.12425" lon="4.75278">
        <ele>586.028</ele>
        <time>2017-03-31T23:45:03Z</time>
      </trkpt>
      <trkpt lat="47.12391" lon="4.75279">
        <ele>585.243</ele>
        <time>2017-03-31T23:45:23Z</time>
      </trkpt>
      <trkpt lat="47.12339" lon="4.75348">
        <ele>586.924</ele>
        <time>2017-03-31T23:45:43Z</time>
      </trkpt>
      <trkpt lat="47.123" lon="4.75415">
        <ele>584.699</ele>
        <time>2017-03-31T23:46:03Z</time>
      </trkpt>
      <trkpt lat="47.12175" lon="4.75299">
        <ele>569.778</ele>
        <time>2017-03-31T23:46:23Z</time>
      </trkpt>
      <trkpt lat="47.12037" lon="4.75268">
        <ele>558.721</ele>
        <time>2017-03-31T23:46:43Z</time>
      </trkpt>
      <trkpt lat="47.12014" lon="4.75279">
        <ele>558.068</ele>
        <time>2017-03-31T23:47:03Z</time>
      </trkpt>
      <trkpt lat="47.12045" lon="4.75486">
        <ele>556.732</ele>
        <time>2017-03-31T23:47:23Z</time>
      </trkpt>
      <trkpt lat="47.12053" lon="4.7569">
        <ele>545.057</ele>
        <time>2017-03-31T23:47:43Z</time>
      </trkpt>
      <trkpt lat="47.12035" lon="4.75849">
        <ele>541.4</ele>
        <time>2017-03-31T23:48:03Z</time>
      </trkpt>
      <trkpt lat="47.12061" lon="4.75922">
        <ele>535.42</ele>
        <time>2017-03-31T23:48:23Z</time>
      </trkpt>
      <trkpt lat="47.12055" lon="4.75966">
        <ele>534.708</ele>
        <time>2017-03-31T23:48:43Z</time>
      </trkpt>
      <trkpt lat="47.1202" lon="4.76037">
        <ele>532.481</ele>
        <time>2017-03-31T23:49:03Z</time>
      </trkpt>
      <trkpt lat="47.1198" lon="4.76185">
        <ele>530.616</ele>
        <time>2017-03-31T23:49:23Z</time>
      </trkpt>
      <trkpt lat="47.11938" lon="4.76233">
        <ele>524.387</ele>
        <time>2017-03-31T23:49:43Z</time>
      </trkpt>
      <trkpt lat="47.11917" lon="4.76275">
        <ele>524.022</ele>
        <time>2017-03-31T23:50:03Z</time>
      </trkpt>
      <trkpt lat="47.11902" lon="4.76349">
        <ele>525.051</ele>
        <time>2017-03-31T23:50:23Z</time>
      </trkpt>
      <trkpt lat="47.11899" lon="4.76487">
        <ele>508.244</ele>
        <time>2017-03-31T23:50:43Z</time>
      </trkpt>
      <trkpt lat="47.11854" lon="4.76579">
        <ele>504.071</ele>
        <time>2017-03-31T23:51:03Z</time>
      </trkpt>
      <trkpt lat="47.11739" lon="4.7672">
        <ele>504.215</ele>
        <time>2017-03-31T23:51:23Z</time>
      </trkpt>
      <trkpt lat="47.11682" lon="4.76776">
        <ele>506.126</ele>
        <time>2017-03-31T23:51:43Z</time>
      </trkpt>
      <trkpt lat="47.11622" lon="4.768">
        <ele>510.147</ele>
        <time>2017-03-31T23:52:03Z</time>
      </trkpt>
      <trkpt lat="47.11555" lon="4.76814">
        <ele>510.211</ele>
        <time>2017-03-31T23:52:23Z</time>
      </trkpt>
      <trkpt lat="47.11512" lon="4.7683">
        <ele>509.808</ele>
        <time>2017-03-31T23:52:43Z</time>
      </trkpt>
      <trkpt lat="47.11473" lon="4.76812">
        <ele>513.368</ele>
        <time>2017-03-31T23:53:03Z</time>
      </trkpt>
      <trkpt lat="47.11443" lon="4.76766">
        <ele>517.063</ele>
        <time>2017-03-31T23:53:23Z</time>
      </trkpt>
      <trkpt lat="47.11424" lon="4.76708">
        <ele>520.814</ele>
        <time>2017-03-31T23:53:43Z</time>
      </trkpt>
      <trkpt lat="47.11422" lon="4.76663">
        <ele>525.289</ele>
        <time>2017-03-31T23:54:03Z</time>
      </trkpt>
      <trkpt lat="47.11412" lon="4.76644">
        <ele>525.278</ele>
        <time>2017-03-31T23:54:23Z</time>
      </trkpt>
      <trkpt lat="47.11396" lon="4.766">
        <ele>525.251</ele>
        <time>2017-03-31T23:54:43Z</time>
      </trkpt>
      <trkpt lat="47.1137" lon="4.76567">
        <ele>525.568</ele>
        <time>2017-03-31T23:55:03Z</time>
      </trkpt>
      <trkpt lat="47.11357" lon="4.76561">
        <ele>526.322</ele>
        <time>2017-03-31T23:55:23Z</time>
      </trkpt>
      <trkpt lat="47.11311" lon="4.76606">
        <ele>521.794</ele>
        <time>2017-03-31T23:55:43Z</time>
      </trkpt>
      <trkpt lat="47.11249" lon="4.76657">
        <ele>517.557</ele>
        <time>2017-03-31T23:56:03Z</time>
      </trkpt>
      <trkpt lat="47.11203" lon="4.76669">
        <ele>516.722</ele>
        <time>2017-03-31T23:56:23Z</time>
      </trkpt>
      <trkpt lat="47.11173" lon="4.76672">
        <ele>510.808</ele>
        <time>2017-03-31T23:56:43Z</time>
      </trkpt>
      <trkpt lat="47.11125" lon="4.76649">
        <ele>506.535</ele>
        <time>2017-03-31T23:57:03Z</time>
      </trkpt>
      <trkpt lat="47.11" lon="4.76545">
        <ele>512.86</ele>
        <time>2017-03-31T23:57:23Z</time>
      </trkpt>
      <trkpt lat="47.1098" lon="4.76541">
        <ele>511.141</ele>
        <time>2017-03-31T23:57:43Z</time>
      </trkpt>
      <trkpt lat="47.10927" lon="4.76553">
        <ele>500.486</ele>
        <time>2017-03-31T23:58:03Z</time>
      </trkpt>
      <trkpt lat="47.10904" lon="4.7655">
        <ele>499.965</ele>
        <time>2017-03-31T23:58:23Z</time>
      </trkpt>
      <trkpt lat="47.10886" lon="4.76539">
        <ele>501.428</ele>
        <time>2017-03-31T23:58:43Z</time>
      </trkpt>
      <trkpt lat="47.10827" lon="4.76514">
        <ele>505.825</ele>
        <time>2017-03-31T23:59:03Z</time>
      </trkpt>
      <trkpt lat="47.10784" lon="4.76502">
        <ele>508.769</ele>
        <time>2017-03-31T23:59:23Z</time>
      </trkpt>
      <trkpt lat="47.10745" lon="4.76481">
        <ele>512.419</ele>
        <time>2017-03-31T23:59:43Z</time>
      </trkpt>
      <trkpt lat="47.10704" lon="4.76445">
        <ele>520.609</ele>
        <time>2017-04-01T00:00:03Z</time>
      </trkpt>
      <trkpt lat="47.10646" lon="4.76417">
        <ele>518.819</ele>
        <time>2017-04-01T00:00:23Z</time>
      </trkpt>
      <trkpt lat="47.10603" lon="4.76376">
        <ele>519.308</ele>
        <time>2017-04-01T00:00:43Z</time>
      </trkpt>
      <trkpt lat="47.10541" lon="4.76331">
        <ele>514.927</ele>
        <time>2017-04-01T00:01:03Z</time>
      </trkpt>
      <trkpt lat="47.10515" lon="4.76306">
        <ele>511.912</ele>
        <time>2017-04-01T00:01:23Z</time>
      </trkpt>
      <trkpt lat="47.10495" lon="4.76276">
        <ele>510.463</ele>
        <time>2017-04-01T00:01:43Z</time>
      </trkpt>
      <trkpt lat="47.10484" lon="4.7623">
        <ele>509.978</ele>
        <time>2017-04-01T00:02:03Z</time>
      </trkpt>
      <trkpt lat="47.10461" lon="4.76183">
        <ele>504.657</ele>
        <time>2017-04-01T00:02:23Z</time>
      </trkpt>
      <trkpt lat="47.10452" lon="4.7608">
        <ele>502.86</ele>
        <time>2017-04-01T00:02:43Z</time>
      </trkpt>
      <trkpt lat="47.10455" lon="4.76012">
        <ele>504.677</ele>
        <time>2017-04-01T00:03:03Z</time>
      </trkpt>
      <trkpt lat="47.10444" lon="4.75992">
        <ele>506.621</ele>
        <time>2017-04-01T00:03:23Z</time>
      </trkpt>
      <trkpt lat="47.10399" lon="4.76001">
        <ele>509.318</ele>
        <time>2017-04-01T00:03:43Z</time>
      </trkpt>
      <trkpt lat="47.10363" lon="4.75999">
        <ele>511.398</ele>
        <time>2017-04-01T00:04:03Z</time>
      </trkpt>
      <trkpt lat="47.10323" lon="4.75968">
        <ele>519.317</ele>
        <time>2017-04-01T00:04:23Z</time>
      </trkpt>
      <trkpt lat="47.10187" lon="4.75959">
        <ele>532.808</ele>
        <time>2017-04-01T00:04:43Z</time>
      </trkpt>
      <trkpt lat="47.10135" lon="4.75939">
        <ele>530.777</ele>
        <time>2017-04-01T00:05:03Z</time>
      </trkpt>
      <trkpt lat="47.10087" lon="4.75934">
        <ele>526.982</ele>
        <time>2017-04-01T00:05:23Z</time>
      </trkpt>
      <trkpt lat="47.10022" lon="4.75906">
        <ele>522.833</ele>
        <time>2017-04-01T00:05:43Z</time>
      </trkpt>
      <trkpt lat="47.09976" lon="4.75842">
        <ele>516.748</ele>
        <time>2017-04-01T00:06:03Z</time>
      </trkpt>
      <trkpt lat="47.09924" lon="4.75786">
        <ele>508.317</ele>
        <time>2017-04-01T00:06:23Z</time>
      </trkpt>
      <trkpt lat="47.09894" lon="4.75708">
        <ele>503.17</ele>
        <time>2017-04-01T00:06:43Z</time>
      </trkpt>
      <trkpt lat="47.0989" lon="4.7566">
        <ele>507.297</ele>
        <time>2017-04-01T00:07:03Z</time>
      </trkpt>
      <trkpt lat="47.0986" lon="4.75642">
        <ele>498.381</ele>
        <time>2017-04-01T00:07:23Z</time>
      </trkpt>
      <trkpt lat="47.09844" lon="4.75605">
        <ele>498.714</ele>
        <time>2017-04-01T00:07:43Z</time>
      </trkpt>
      <trkpt lat="47.09788" lon="4.75537">
        <ele>492.554</ele>
        <time>2017-04-01T00:08:03Z</time>
      </trkpt>
      <trkpt lat="47.09739" lon="4.75465">
        <ele>490.509</ele>
        <time>2017-04-01T00:08:23Z</time>
      </trkpt>
      <trkpt lat="47.09692" lon="4.75424">
        <ele>487.408</ele>
        <time>2017-04-01T00:08:43Z</time>
      </trkpt>
      <trkpt lat="47.09621" lon="4.75386">
        <ele>473.847</ele>
        <time>2017-04-01T00:09:03Z</time>
      </trkpt>
      <trkpt lat="47.09587" lon="4.7539">
        <ele>467.152</ele>
        <time>2017-04-01T00:09:23Z</time>
      </trkpt>
      <trkpt lat="47.09565" lon="4.75424">
        <ele>464.843</ele>
        <time>2017-04-01T00:09:43Z</time>
      </trkpt>
      <trkpt lat="47.09566" lon="4.75487">
        <ele>462.068</ele>
        <time>2017-04-01T00:10:03Z</time>
      </trkpt>
      <trkpt lat="47.09556" lon="4.75548">
        <ele>459.247</ele>
        <time>2017-04-01T00:10:23Z</time>
      </trkpt>
      <trkpt lat="47.09492" lon="4.75669">
        <ele>460.01</ele>
        <time>2017-04-01T00:10:43Z</time>
      </trkpt>
      <trkpt lat="47.09418" lon="4.75716">
        <ele>459.287</ele>
        <time>2017-04-01T00:11:03Z</time>
      </trkpt>
      <trkpt lat="47.09368" lon="4.75705">
        <ele>460.181</ele>
        <time>2017-04-01T00:11:23Z</time>
      </trkpt>
      <trkpt lat="47.093" lon="4.75667">
        <ele>464.452</ele>
        <time>2017-04-01T00:11:43Z</time>
      </trkpt>
      <trkpt lat="47.09252" lon="4.75621">
        <ele>472.153</ele>
        <time>2017-04-01T00:12:03Z</time>
      </trkpt>
      <trkpt lat="47.09129" lon="4.7555">
        <ele>490.608</ele>
        <time>2017-04-01T00:12:23Z</time>
      </trkpt>
      <trkpt lat="47.08999" lon="4.75488">
        <ele>508.508</ele>
        <time>2017-04-01T00:12:43Z</time>
      </trkpt>
      <trkpt lat="47.08918" lon="4.75527">
        <ele>514.871</ele>
        <time>2017-04-01T00:13:03Z</time>
      </trkpt>
      <trkpt lat="47.08795" lon="4.75486">
        <ele>524.426</ele>
        <time>2017-04-01T00:13:23Z</time>
      </trkpt>
      <trkpt lat="47.08767" lon="4.75454">
        <ele>526.267</ele>
        <time>2017-04-01T00:13:43Z</time>
      </trkpt>
      <trkpt lat="47.08748" lon="4.75409">
        <ele>529.662</ele>
        <time>2017-04-01T00:14:03Z</time>
      </trkpt>
      <trkpt lat="47.08746" lon="4.75432">
        <ele>528.131</ele>
        <time>2017-04-01T00:14:23Z</time>
      </trkpt>
      <trkpt lat="47.08768" lon="4.75505">
        <ele>525.644</ele>
        <time>2017-04-01T00:14:43Z</time>
      </trkpt>
      <trkpt lat="47.08746" lon="4.75514">
        <ele>527.431</ele>
        <time>2017-04-01T00:15:03Z</time>
      </trkpt>
      <trkpt lat="47.08646" lon="4.75504">
        <ele>533.465</ele>
        <time>2017-04-01T00:15:23Z</time>
      </trkpt>
      <trkpt lat="47.0859" lon="4.75486">
        <ele>535.018</ele>
        <time>2017-04-01T00:15:43Z</time>
      </trkpt>
      <trkpt lat="47.08493" lon="4.75482">
        <ele>533.198</ele>
        <time>2017-04-01T00:16:03Z</time>
      </trkpt>
      <trkpt lat="47.08423" lon="4.75502">
        <ele>532.817</ele>
        <time>2017-04-01T00:16:23Z</time>
      </trkpt>
      <trkpt lat="47.08326" lon="4.75486">
        <ele>542.508</ele>
        <time>2017-04-01T00:16:43Z</time>
      </trkpt>
      <trkpt lat="47.08288" lon="4.75434">
        <ele>541.637</ele>
        <time>2017-04-01T00:17:03Z</time>
      </trkpt>
      <trkpt lat="47.08185" lon="4.75388">
        <ele>552.082</ele>
        <time>2017-04-01T00:17:23Z</time>
      </trkpt>
      <trkpt lat="47.08116" lon="4.75393">
        <ele>554.313</ele>
        <time>2017-04-01T00:17:43Z</time>
      </trkpt>
      <trkpt lat="47.08095" lon="4.75407">
        <ele>554.518</ele>
        <time>2017-04-01T00:18:03Z</time>
      </trkpt>
      <trkpt lat="47.08064" lon="4.75415">
        <ele>554.247</ele>
        <time>2017-04-01T00:18:23Z</time>
      </trkpt>
      <trkpt lat="47.08028" lon="4.7543">
        <ele>551.55</ele>
        <time>2017-04-01T00:18:43Z</time>
      </trkpt>
      <trkpt lat="47.07986" lon="4.75437">
        <ele>546.387</ele>
        <time>2017-04-01T00:19:03Z</time>
      </trkpt>
      <trkpt lat="47.07919" lon="4.75437">
        <ele>536.191</ele>
        <time>2017-04-01T00:19:23Z</time>
      </trkpt>
      <trkpt lat="47.07891" lon="4.75454">
        <ele>532.757</ele>
        <time>2017-04-01T00:19:43Z</time>
      </trkpt>
      <trkpt lat="47.07866" lon="4.75507">
        <ele>531.3</ele>
        <time>2017-04-01T00:20:03Z</time>
      </trkpt>
      <trkpt lat="47.07855" lon="4.75507">
        <ele>528.92</ele>
        <time>2017-04-01T00:20:23Z</time>
      </trkpt>
      <trkpt lat="47.07827" lon="4.75449">
        <ele>521.808</ele>
        <time>2017-04-01T00:20:43Z</time>
      </trkpt>
      <trkpt lat="47.07808" lon="4.75432">
        <ele>516.941</ele>
        <time>2017-04-01T00:21:03Z</time>
      </trkpt>
      <trkpt lat="47.07661" lon="4.75366">
        <ele>502.546</ele>
        <time>2017-04-01T00:21:23Z</time>
      </trkpt>
      <trkpt lat="47.07624" lon="4.75368">
        <ele>505.647</ele>
        <time>2017-04-01T00:21:43Z</time>
      </trkpt>
      <trkpt lat="47.07596" lon="4.75394">
        <ele>510.582</ele>
        <time>2017-04-01T00:22:03Z</time>
      </trkpt>
      <trkpt lat="47.07542" lon="4.75505">
        <ele>519.211</ele>
        <time>2017-04-01T00:22:23Z</time>
      </trkpt>
      <trkpt lat="47.0748" lon="4.75577">
        <ele>527.064</ele>
        <time>2017-04-01T00:22:43Z</time>
      </trkpt>
      <trkpt lat="47.07472" lon="4.75602">
        <ele>527.711</ele>
        <time>2017-04-01T00:23:03Z</time>
      </trkpt>
      <trkpt lat="47.07436" lon="4.75671">
        <ele>533.465</ele>
        <time>2017-04-01T00:23:23Z</time>
      </trkpt>
      <trkpt lat="47.07425" lon="4.75716">
        <ele>532.332</ele>
        <time>2017-04-01T00:23:43Z</time>
      </trkpt>
      <trkpt lat="47.07383" lon="4.75754">
        <ele>535.392</ele>
        <time>2017-04-01T00:24:03Z</time>
      </trkpt>
      <trkpt lat="47.07345" lon="4.75762">
        <ele>535.211</ele>
        <time>2017-04-01T00:24:23Z</time>
      </trkpt>
      <trkpt lat="47.07252" lon="4.75655">
        <ele>533.608</ele>
        <time>2017-04-01T00:24:43Z</time>
      </trkpt>
      <trkpt lat="47.07189" lon="4.75613">
        <ele>533.139</ele>
        <time>2017-04-01T00:25:03Z</time>
      </trkpt>
      <trkpt lat="47.07061" lon="4.75554">
        <ele>532.724</ele>
        <time>2017-04-01T00:25:23Z</time>
      </trkpt>
      <trkpt lat="47.0698" lon="4.75472">
        <ele>526.555</ele>
        <time>2017-04-01T00:25:43Z</time>
      </trkpt>
      <trkpt lat="47.06965" lon="4.75416">
        <ele>526.07</ele>
        <time>2017-04-01T00:26:03Z</time>
      </trkpt>
      <trkpt lat="47.0691" lon="4.75427">
        <ele>526.579</ele>
        <time>2017-04-01T00:26:23Z</time>
      </trkpt>
      <trkpt lat="47.06867" lon="4.75413">
        <ele>529.022</ele>
        <time>2017-04-01T00:26:43Z</time>
      </trkpt>
      <trkpt lat="47.0679" lon="4.75407">
        <ele>528.019</ele>
        <time>2017-04-01T00:27:03Z</time>
      </trkpt>
      <trkpt lat="47.06761" lon="4.75417">
        <ele>526.413</ele>
        <time>2017-04-01T00:27:23Z</time>
      </trkpt>
      <trkpt lat="47.06674" lon="4.7542">
        <ele>523.685</ele>
        <time>2017-04-01T00:27:43Z</time>
      </trkpt>
      <trkpt lat="47.06611" lon="4.7543">
        <ele>523.689</ele>
        <time>2017-04-01T00:28:03Z</time>
      </trkpt>
      <trkpt lat="47.06527" lon="4.75473">
        <ele>522.017</ele>
        <time>2017-04-01T00:28:23Z</time>
      </trkpt>
      <trkpt lat="47.06482" lon="4.75504">
        <ele>520.208</ele>
        <time>2017-04-01T00:28:43Z</time>
      </trkpt>
      <trkpt lat="47.06453" lon="4.75518">
        <ele>518.934</ele>
        <time>2017-04-01T00:29:03Z</time>
      </trkpt>
      <trkpt lat="47.06434" lon="4.75537">
        <ele>517.149</ele>
        <time>2017-04-01T00:29:23Z</time>
      </trkpt>
      <trkpt lat="47.06346" lon="4.75702">
        <ele>506.13</ele>
        <time>2017-04-01T00:29:43Z</time>
      </trkpt>
      <trkpt lat="47.06301" lon="4.75795">
        <ele>501.185</ele>
        <time>2017-04-01T00:30:03Z</time>
      </trkpt>
      <trkpt lat="47.06273" lon="4.75812">
        <ele>497.214</ele>
        <time>2017-04-01T00:30:23Z</time>
      </trkpt>
      <trkpt lat="47.06241" lon="4.75811">
        <ele>494.567</ele>
        <time>2017-04-01T00:30:43Z</time>
      </trkpt>
      <trkpt lat="47.06205" lon="4.75789">
        <ele>495.284</ele>
        <time>2017-04-01T00:31:03Z</time>
      </trkpt>
      <trkpt lat="47.06128" lon="4.7576">
        <ele>492.568</ele>
        <time>2017-04-01T00:31:23Z</time>
      </trkpt>
      <trkpt lat="47.06075" lon="4.75768">
        <ele>491.073</ele>
        <time>2017-04-01T00:31:43Z</time>
      </trkpt>
      <trkpt lat="47.06023" lon="4.75763">
        <ele>490.085</ele>
        <time>2017-04-01T00:32:03Z</time>
      </trkpt>
      <trkpt lat="47.05947" lon="4.75769">
        <ele>482.613</ele>
        <time>2017-04-01T00:32:23Z</time>
      </trkpt>
      <trkpt lat="47.05915" lon="4.75779">
        <ele>480.908</ele>
        <time>2017-04-01T00:32:43Z</time>
      </trkpt>
      <trkpt lat="47.05822" lon="4.75774">
        <ele>475.523</ele>
        <time>2017-04-01T00:33:03Z</time>
      </trkpt>
      <trkpt lat="47.05726" lon="4.75782">
        <ele>466.658</ele>
        <time>2017-04-01T00:33:23Z</time>
      </trkpt>
      <trkpt lat="47.05672" lon="4.75862">
        <ele>458.319</ele>
        <time>2017-04-01T00:33:43Z</time>
      </trkpt>
      <trkpt lat="47.05624" lon="4.75872">
        <ele>452.874</ele>
        <time>2017-04-01T00:34:03Z</time>
      </trkpt>
      <trkpt lat="47.05558" lon="4.75876">
        <ele>447.193</ele>
        <time>2017-04-01T00:34:23Z</time>
      </trkpt>
      <trkpt lat="47.05477" lon="4.75918">
        <ele>441.126</ele>
        <time>2017-04-01T00:34:43Z</time>
      </trkpt>
      <trkpt lat="47.05421" lon="4.75929">
        <ele>438.383</ele>
        <time>2017-04-01T00:35:03Z</time>
      </trkpt>
      <trkpt lat="47.05371" lon="4.75947">
        <ele>437.957</ele>
        <time>2017-04-01T00:35:23Z</time>
      </trkpt>
      <trkpt lat="47.05327" lon="4.75988">
        <ele>431.272</ele>
        <time>2017-04-01T00:35:43Z</time>
      </trkpt>
      <trkpt lat="47.05246" lon="4.76019">
        <ele>422.813</ele>
        <time>2017-04-01T00:36:03Z</time>
      </trkpt>
      <trkpt lat="47.05243" lon="4.75996">
        <ele>420.214</ele>
        <time>2017-04-01T00:36:23Z</time>
      </trkpt>
      <trkpt lat="47.05195" lon="4.75933">
        <ele>411.608</ele>
        <time>2017-04-01T00:36:43Z</time>
      </trkpt>
      <trkpt lat="47.05178" lon="4.75929">
        <ele>410.293</ele>
        <time>2017-04-01T00:37:03Z</time>
      </trkpt>
      <trkpt lat="47.05158" lon="4.75917">
        <ele>407.868</ele>
        <time>2017-04-01T00:37:23Z</time>
      </trkpt>
      <trkpt lat="47.05145" lon="4.75917">
        <ele>406.089</ele>
        <time>2017-04-01T00:37:43Z</time>
      </trkpt>
      <trkpt lat="47.05135" lon="4.75907">
        <ele>404.154</ele>
        <time>2017-04-01T00:38:03Z</time>
      </trkpt>
      <trkpt lat="47.05092" lon="4.75879">
        <ele>397.763</ele>
        <time>2017-04-01T00:38:23Z</time>
      </trkpt>
      <trkpt lat="47.05046" lon="4.75842">
        <ele>390.516</ele>
        <time>2017-04-01T00:38:43Z</time>
      </trkpt>
      <trkpt lat="47.05041" lon="4.75831">
        <ele>389.253</ele>
        <time>2017-04-01T00:39:03Z</time>
      </trkpt>
      <trkpt lat="47.04989" lon="4.75802">
        <ele>384.197</ele>
        <time>2017-04-01T00:39:23Z</time>
      </trkpt>
      <trkpt lat="47.04991" lon="4.75794">
        <ele>382.583</ele>
        <time>2017-04-01T00:39:43Z</time>
      </trkpt>
      <trkpt lat="47.05026" lon="4.75782">
        <ele>379.925</ele>
        <time>2017-04-01T00:40:03Z</time>
      </trkpt>
      <trkpt lat="47.05068" lon="4.75763">
        <ele>384.417</ele>
        <time>2017-04-01T00:40:23Z</time>
      </trkpt>
      <trkpt lat="47.05067" lon="4.75749">
        <ele>384.408</ele>
        <time>2017-04-01T00:40:43Z</time>
      </trkpt>
      <trkpt lat="47.05023" lon="4.7569">
        <ele>378.164</ele>
        <time>2017-04-01T00:41:03Z</time>
      </trkpt>
      <trkpt lat="47.05008" lon="4.75686">
        <ele>373.829</ele>
        <time>2017-04-01T00:41:23Z</time>
      </trkpt>
      <trkpt lat="47.04969" lon="4.75653">
        <ele>361.79</ele>
        <time>2017-04-01T00:41:43Z</time>
      </trkpt>
      <trkpt lat="47.04951" lon="4.7561">
        <ele>353.815</ele>
        <time>2017-04-01T00:42:03Z</time>
      </trkpt>
      <trkpt lat="47.05032" lon="4.75395">
        <ele>357.624</ele>
        <time>2017-04-01T00:42:23Z</time>
      </trkpt>
      <trkpt lat="47.05011" lon="4.75373">
        <ele>355.817</ele>
        <time>2017-04-01T00:42:43Z</time>
      </trkpt>
      <trkpt lat="47.04977" lon="4.75393">
        <ele>360.174</ele>
        <time>2017-04-01T00:43:03Z</time>
      </trkpt>
      <trkpt lat="47.04964" lon="4.75432">
        <ele>359.578</ele>
        <time>2017-04-01T00:43:23Z</time>
      </trkpt>
      <trkpt lat="47.04889" lon="4.75363">
        <ele>405.846</ele>
        <time>2017-04-01T00:43:43Z</time>
      </trkpt>
      <trkpt lat="47.04871" lon="4.75433">
        <ele>404.788</ele>
        <time>2017-04-01T00:44:03Z</time>
      </trkpt>
      <trkpt lat="47.04844" lon="4.75418">
        <ele>420.316</ele>
        <time>2017-04-01T00:44:23Z</time>
      </trkpt>
      <trkpt lat="47.04838" lon="4.75383">
        <ele>429.308</ele>
        <time>2017-04-01T00:44:43Z</time>
      </trkpt>
      <trkpt lat="47.04808" lon="4.75357">
        <ele>445.15</ele>
        <time>2017-04-01T00:45:03Z</time>
      </trkpt>
      <trkpt lat="47.04779" lon="4.7536">
        <ele>450.865</ele>
        <time>2017-04-01T00:45:23Z</time>
      </trkpt>
      <trkpt lat="47.04768" lon="4.75341">
        <ele>454.176</ele>
        <time>2017-04-01T00:45:43Z</time>
      </trkpt>
      <trkpt lat="47.04771" lon="4.75331">
        <ele>454.911</ele>
        <time>2017-04-01T00:46:03Z</time>
      </trkpt>
      <trkpt lat="47.04764" lon="4.75318">
        <ele>456.69</ele>
        <time>2017-04-01T00:46:23Z</time>
      </trkpt>
      <trkpt lat="47.04765" lon="4.753">
        <ele>457.183</ele>
        <time>2017-04-01T00:46:43Z</time>
      </trkpt>
      <trkpt lat="47.04747" lon="4.75267">
        <ele>457.48</ele>
        <time>2017-04-01T00:47:03Z</time>
      </trkpt>
      <trkpt lat="47.04702" lon="4.75228">
        <ele>460.634</ele>
        <time>2017-04-01T00:47:23Z</time>
      </trkpt>
      <trkpt lat="47.04674" lon="4.75229">
        <ele>464.911</ele>
        <time>2017-04-01T00:47:43Z</time>
      </trkpt>
      <trkpt lat="47.04657" lon="4.75209">
        <ele>466.221</ele>
        <time>2017-04-01T00:48:03Z</time>
      </trkpt>
      <trkpt lat="47.04639" lon="4.75155">
        <ele>466.503</ele>
        <time>2017-04-01T00:48:23Z</time>
      </trkpt>
      <trkpt lat="47.04605" lon="4.75112">
        <ele>464.908</ele>
        <time>2017-04-01T00:48:43Z</time>
      </trkpt>
      <trkpt lat="47.04557" lon="4.75104">
        <ele>462.267</ele>
        <time>2017-04-01T00:49:03Z</time>
      </trkpt>
      <trkpt lat="47.04547" lon="4.75086">
        <ele>459.362</ele>
        <time>2017-04-01T00:49:23Z</time>
      </trkpt>
      <trkpt lat="47.04553" lon="4.7505">
        <ele>453.953</ele>
        <time>2017-04-01T00:49:43Z</time>
      </trkpt>
      <trkpt lat="47.04553" lon="4.75032">
        <ele>450.688</ele>
        <time>2017-04-01T00:50:03Z</time>
      </trkpt>
      <trkpt lat="47.04559" lon="4.75011">
        <ele>446.717</ele>
        <time>2017-04-01T00:50:23Z</time>
      </trkpt>
      <trkpt lat="47.04558" lon="4.74985">
        <ele>442.53</ele>
        <time>2017-04-01T00:50:43Z</time>
      </trkpt>
      <trkpt lat="47.04573" lon="4.74968">
        <ele>438.797</ele>
        <time>2017-04-01T00:51:03Z</time>
      </trkpt>
      <trkpt lat="47.04592" lon="4.74898">
        <ele>432.821</ele>
        <time>2017-04-01T00:51:23Z</time>
      </trkpt>
      <trkpt lat="47.04602" lon="4.74813">
        <ele>429.779</ele>
        <time>2017-04-01T00:51:43Z</time>
      </trkpt>
      <trkpt lat="47.04486" lon="4.74794">
        <ele>428.305</ele>
        <time>2017-04-01T00:52:03Z</time>
      </trkpt>
      <trkpt lat="47.04407" lon="4.74778">
        <ele>425.325</ele>
        <time>2017-04-01T00:52:23Z</time>
      </trkpt>
      <trkpt lat="47.04236" lon="4.74796">
        <ele>419.808</ele>
        <time>2017-04-01T00:52:43Z</time>
      </trkpt>
      <trkpt lat="47.03991" lon="4.74681">
        <ele>408.143</ele>
        <time>2017-04-01T00:53:03Z</time>
      </trkpt>
      <trkpt lat="47.03612" lon="4.74289">
        <ele>383.718</ele>
        <time>2017-04-01T00:53:23Z</time>
      </trkpt>
      <trkpt lat="47.03527" lon="4.74325">
        <ele>386.049</ele>
        <time>2017-04-01T00:53:43Z</time>
      </trkpt>
      <trkpt lat="47.03561" lon="4.74264">
        <ele>387.014</ele>
        <time>2017-04-01T00:54:03Z</time>
      </trkpt>
      <trkpt lat="47.03574" lon="4.74113">
        <ele>398.953</ele>
        <time>2017-04-01T00:54:23Z</time>
      </trkpt>
      <trkpt lat="47.03606" lon="4.73967">
        <ele>402.786</ele>
        <time>2017-04-01T00:54:43Z</time>
      </trkpt>
      <trkpt lat="47.03597" lon="4.73939">
        <ele>405.513</ele>
        <time>2017-04-01T00:55:03Z</time>
      </trkpt>
      <trkpt lat="47.03539" lon="4.73886">
        <ele>409.667</ele>
        <time>2017-04-01T00:55:23Z</time>
      </trkpt>
      <trkpt lat="47.035" lon="4.73783">
        <ele>409.063</ele>
        <time>2017-04-01T00:55:43Z</time>
      </trkpt>
      <trkpt lat="47.03428" lon="4.73754">
        <ele>405.344</ele>
        <time>2017-04-01T00:56:03Z</time>
      </trkpt>
      <trkpt lat="47.03256" lon="4.73626">
        <ele>402.418</ele>
        <time>2017-04-01T00:56:23Z</time>
      </trkpt>
      <trkpt lat="47.03204" lon="4.73618">
        <ele>400.208</ele>
        <time>2017-04-01T00:56:43Z</time>
      </trkpt>
      <trkpt lat="47.03134" lon="4.7358">
        <ele>396.662</ele>
        <time>2017-04-01T00:57:03Z</time>
      </trkpt>
      <trkpt lat="47.03126" lon="4.73519">
        <ele>392.627</ele>
        <time>2017-04-01T00:57:23Z</time>
      </trkpt>
      <trkpt lat="47.03068" lon="4.73376">
        <ele>384.138</ele>
        <time>2017-04-01T00:57:43Z</time>
      </trkpt>
      <trkpt lat="47.02991" lon="4.73265">
        <ele>374.813</ele>
        <time>2017-04-01T00:58:03Z</time>
      </trkpt>
      <trkpt lat="47.02944" lon="4.73231">
        <ele>374.322</ele>
        <time>2017-04-01T00:58:23Z</time>
      </trkpt>
      <trkpt lat="47.02842" lon="4.73053">
        <ele>361.895</ele>
        <time>2017-04-01T00:58:43Z</time>
      </trkpt>
      <trkpt lat="47.02809" lon="4.72963">
        <ele>355.512</ele>
        <time>2017-04-01T00:59:03Z</time>
      </trkpt>
      <trkpt lat="47.02749" lon="4.7287">
        <ele>346.356</ele>
        <time>2017-04-01T00:59:23Z</time>
      </trkpt>
      <trkpt lat="47.02729" lon="4.7281">
        <ele>342.596</ele>
        <time>2017-04-01T00:59:43Z</time>
      </trkpt>
      <trkpt lat="47.02699" lon="4.72745">
        <ele>337.631</ele>
        <time>2017-04-01T01:00:03Z</time>
      </trkpt>
      <trkpt lat="47.02668" lon="4.72659">
        <ele>339.724</ele>
        <time>2017-04-01T01:00:23Z</time>
      </trkpt>
      <trkpt lat="47.02605" lon="4.72569">
        <ele>344.508</ele>
        <time>2017-04-01T01:00:43Z</time>
      </trkpt>
      <trkpt lat="47.02554" lon="4.7254">
        <ele>351.945</ele>
        <time>2017-04-01T01:01:03Z</time>
      </trkpt>
      <trkpt lat="47.02473" lon="4.72517">
        <ele>358.48</ele>
        <time>2017-04-01T01:01:23Z</time>
      </trkpt>
      <trkpt lat="47.02417" lon="4.72479">
        <ele>366.371</ele>
        <time>2017-04-01T01:01:43Z</time>
      </trkpt>
      <trkpt lat="47.02387" lon="4.72429">
        <ele>374.226</ele>
        <time>2017-04-01T01:02:03Z</time>
      </trkpt>
      <trkpt lat="47.02281" lon="4.72384">
        <ele>380.785</ele>
        <time>2017-04-01T01:02:23Z</time>
      </trkpt>
      <trkpt lat="47.02097" lon="4.72229">
        <ele>389.528</ele>
        <time>2017-04-01T01:02:43Z</time>
      </trkpt>
      <trkpt lat="47.02038" lon="4.72187">
        <ele>391.865</ele>
        <time>2017-04-01T01:03:03Z</time>
      </trkpt>
      <trkpt lat="47.01965" lon="4.72126">
        <ele>390.719</ele>
        <time>2017-04-01T01:03:23Z</time>
      </trkpt>
      <trkpt lat="47.01893" lon="4.72085">
        <ele>387.213</ele>
        <time>2017-04-01T01:03:43Z</time>
      </trkpt>
      <trkpt lat="47.01848" lon="4.72067">
        <ele>384.443</ele>
        <time>2017-04-01T01:04:03Z</time>
      </trkpt>
      <trkpt lat="47.01792" lon="4.72027">
        <ele>383.007</ele>
        <time>2017-04-01T01:04:23Z</time>
      </trkpt>
      <trkpt lat="47.01779" lon="4.72085">
        <ele>386.008</ele>
        <time>2017-04-01T01:04:43Z</time>
      </trkpt>
      <trkpt lat="47.01779" lon="4.72121">
        <ele>386.497</ele>
        <time>2017-04-01T01:05:03Z</time>
      </trkpt>
      <trkpt lat="47.01754" lon="4.722">
        <ele>390.242</ele>
        <time>2017-04-01T01:05:23Z</time>
      </trkpt>
      <trkpt lat="47.01736" lon="4.72289">
        <ele>394.593</ele>
        <time>2017-04-01T01:05:43Z</time>
      </trkpt>
      <trkpt lat="47.01716" lon="4.72358">
        <ele>402.928</ele>
        <time>2017-04-01T01:06:03Z</time>
      </trkpt>
      <trkpt lat="47.01723" lon="4.72368">
        <ele>405.897</ele>
        <time>2017-04-01T01:06:23Z</time>
      </trkpt>
      <trkpt lat="47.01674" lon="4.72412">
        <ele>412.75</ele>
        <time>2017-04-01T01:06:43Z</time>
      </trkpt>
      <trkpt lat="47.01631" lon="4.72443">
        <ele>413.697</ele>
        <time>2017-04-01T01:07:03Z</time>
      </trkpt>
      <trkpt lat="47.01617" lon="4.72493">
        <ele>420.071</ele>
        <time>2017-04-01T01:07:23Z</time>
      </trkpt>
      <trkpt lat="47.01615" lon="4.72521">
        <ele>421.294</ele>
        <time>2017-04-01T01:07:43Z</time>
      </trkpt>
      <trkpt lat="47.01626" lon="4.72544">
        <ele>424.557</ele>
        <time>2017-04-01T01:08:03Z</time>
      </trkpt>
      <trkpt lat="47.01634" lon="4.7259">
        <ele>424.022</ele>
        <time>2017-04-01T01:08:23Z</time>
      </trkpt>
      <trkpt lat="47.01632" lon="4.72633">
        <ele>424.008</ele>
        <time>2017-04-01T01:08:43Z</time>
      </trkpt>
      <trkpt lat="47.01638" lon="4.72661">
        <ele>427.655</ele>
        <time>2017-04-01T01:09:03Z</time>
      </trkpt>
      <trkpt lat="47.01627" lon="4.72716">
        <ele>426.17</ele>
        <time>2017-04-01T01:09:23Z</time>
      </trkpt>
      <trkpt lat="47.01615" lon="4.72726">
        <ele>423.481</ele>
        <time>2017-04-01T01:09:43Z</time>
      </trkpt>
      <trkpt lat="47.01589" lon="4.72764">
        <ele>422.396</ele>
        <time>2017-04-01T01:10:03Z</time>
      </trkpt>
      <trkpt lat="47.01543" lon="4.72774">
        <ele>412.735</ele>
        <time>2017-04-01T01:10:23Z</time>
      </trkpt>
      <trkpt lat="47.01532" lon="4.72785">
        <ele>410.228</ele>
        <time>2017-04-01T01:10:43Z</time>
      </trkpt>
      <trkpt lat="47.01521" lon="4.72781">
        <ele>406.975</ele>
        <time>2017-04-01T01:11:03Z</time>
      </trkpt>
      <trkpt lat="47.01508" lon="4.72803">
        <ele>407.089</ele>
        <time>2017-04-01T01:11:23Z</time>
      </trkpt>
      <trkpt lat="47.01493" lon="4.7281">
        <ele>404.412</ele>
        <time>2017-04-01T01:11:43Z</time>
      </trkpt>
      <trkpt lat="47.01473" lon="4.72867">
        <ele>394.432</ele>
        <time>2017-04-01T01:12:03Z</time>
      </trkpt>
      <trkpt lat="47.01476" lon="4.72886">
        <ele>392.405</ele>
        <time>2017-04-01T01:12:23Z</time>
      </trkpt>
      <trkpt lat="47.01458" lon="4.72881">
        <ele>388.008</ele>
        <time>2017-04-01T01:12:43Z</time>
      </trkpt>
      <trkpt lat="47.01439" lon="4.72887">
        <ele>381.827</ele>
        <time>2017-04-01T01:13:03Z</time>
      </trkpt>
      <trkpt lat="47.01399" lon="4.72957">
        <ele>361.452</ele>
        <time>2017-04-01T01:13:23Z</time>
      </trkpt>
      <trkpt lat="47.01377" lon="4.72948">
        <ele>355.843</ele>
        <time>2017-04-01T01:13:43Z</time>
      </trkpt>
      <trkpt lat="47.0136" lon="4.72921">
        <ele>354.098</ele>
        <time>2017-04-01T01:14:03Z</time>
      </trkpt>
      <trkpt lat="47.01316" lon="4.72832">
        <ele>347.157</ele>
        <time>2017-04-01T01:14:23Z</time>
      </trkpt>
      <trkpt lat="47.01309" lon="4.72755">
        <ele>351.26</ele>
        <time>2017-04-01T01:14:43Z</time>
      </trkpt>
      <trkpt lat="47.01321" lon="4.72678">
        <ele>353.477</ele>
        <time>2017-04-01T01:15:03Z</time>
      </trkpt>
      <trkpt lat="47.01344" lon="4.72618">
        <ele>353.181</ele>
        <time>2017-04-01T01:15:23Z</time>
      </trkpt>
      <trkpt lat="47.01389" lon="4.72536">
        <ele>356.473</ele>
        <time>2017-04-01T01:15:43Z</time>
      </trkpt>
      <trkpt lat="47.014" lon="4.72478">
        <ele>360.685</ele>
        <time>2017-04-01T01:16:03Z</time>
      </trkpt>
      <trkpt lat="47.01399" lon="4.72411">
        <ele>360.113</ele>
        <time>2017-04-01T01:16:23Z</time>
      </trkpt>
      <trkpt lat="47.01385" lon="4.72426">
        <ele>361.708</ele>
        <time>2017-04-01T01:16:43Z</time>
      </trkpt>
      <trkpt lat="47.01334" lon="4.72412">
        <ele>371.533</ele>
        <time>2017-04-01T01:17:03Z</time>
      </trkpt>
      <trkpt lat="47.01305" lon="4.72393">
        <ele>382.058</ele>
        <time>2017-04-01T01:17:23Z</time>
      </trkpt>
      <trkpt lat="47.01296" lon="4.72395">
        <ele>386.779</ele>
        <time>2017-04-01T01:17:43Z</time>
      </trkpt>
      <trkpt lat="47.01276" lon="4.72358">
        <ele>397.834</ele>
        <time>2017-04-01T01:18:03Z</time>
      </trkpt>
      <trkpt lat="47.01234" lon="4.72305">
        <ele>407.963</ele>
        <time>2017-04-01T01:18:23Z</time>
      </trkpt>
      <trkpt lat="47.01181" lon="4.72261">
        <ele>417.336</ele>
        <time>2017-04-01T01:18:43Z</time>
      </trkpt>
      <trkpt lat="47.01142" lon="4.72219">
        <ele>429.523</ele>
        <time>2017-04-01T01:19:03Z</time>
      </trkpt>
      <trkpt lat="47.01127" lon="4.72193">
        <ele>434.117</ele>
        <time>2017-04-01T01:19:23Z</time>
      </trkpt>
      <trkpt lat="47.01099" lon="4.72101">
        <ele>438.441</ele>
        <time>2017-04-01T01:19:43Z</time>
      </trkpt>
      <trkpt lat="47.01077" lon="4.72057">
        <ele>446.081</ele>
        <time>2017-04-01T01:20:03Z</time>
      </trkpt>
      <trkpt lat="47.01057" lon="4.72035">
        <ele>450.509</ele>
        <time>2017-04-01T01:20:23Z</time>
      </trkpt>
      <trkpt lat="47.01016" lon="4.72021">
        <ele>453.808</ele>
        <time>2017-04-01T01:20:43Z</time>
      </trkpt>
      <trkpt lat="47.01001" lon="4.71986">
        <ele>455.52</ele>
        <time>2017-04-01T01:21:03Z</time>
      </trkpt>
      <trkpt lat="47.00991" lon="4.71986">
        <ele>455.035</ele>
        <time>2017-04-01T01:21:23Z</time>
      </trkpt>
      <trkpt lat="47.0099" lon="4.71955">
        <ele>456.186</ele>
        <time>2017-04-01T01:21:43Z</time>
      </trkpt>
      <trkpt lat="47.00984" lon="4.71929">
        <ele>457.571</ele>
        <time>2017-04-01T01:22:03Z</time>
      </trkpt>
      <trkpt lat="47.00992" lon="4.71907">
        <ele>457.66</ele>
        <time>2017-04-01T01:22:23Z</time>
      </trkpt>
      <trkpt lat="47.00988" lon="4.71887">
        <ele>457.863</ele>
        <time>2017-04-01T01:22:43Z</time>
      </trkpt>
      <trkpt lat="47.00922" lon="4.71821">
        <ele>455.61</ele>
        <time>2017-04-01T01:23:03Z</time>
      </trkpt>
      <trkpt lat="47.00885" lon="4.71795">
        <ele>453.514</ele>
        <time>2017-04-01T01:23:23Z</time>
      </trkpt>
      <trkpt lat="47.00855" lon="4.71758">
        <ele>452.081</ele>
        <time>2017-04-01T01:23:43Z</time>
      </trkpt>
      <trkpt lat="47.00803" lon="4.71714">
        <ele>446.961</ele>
        <time>2017-04-01T01:24:03Z</time>
      </trkpt>
      <trkpt lat="47.00756" lon="4.71661">
        <ele>439.817</ele>
        <time>2017-04-01T01:24:23Z</time>
      </trkpt>
      <trkpt lat="47.00714" lon="4.71633">
        <ele>434.808</ele>
        <time>2017-04-01T01:24:43Z</time>
      </trkpt>
      <trkpt lat="47.00672" lon="4.71599">
        <ele>430.574</ele>
        <time>2017-04-01T01:25:03Z</time>
      </trkpt>
      <trkpt lat="47.00638" lon="4.71577">
        <ele>427.379</ele>
        <time>2017-04-01T01:25:23Z</time>
      </trkpt>
      <trkpt lat="47.005" lon="4.71538">
        <ele>423.15</ele>
        <time>2017-04-01T01:25:43Z</time>
      </trkpt>
      <trkpt lat="47.00445" lon="4.71507">
        <ele>419.755</ele>
        <time>2017-04-01T01:26:03Z</time>
      </trkpt>
      <trkpt lat="47.00389" lon="4.71463">
        <ele>413.714</ele>
        <time>2017-04-01T01:26:23Z</time>
      </trkpt>
      <trkpt lat="47.00352" lon="4.7145">
        <ele>415.227</ele>
        <time>2017-04-01T01:26:43Z</time>
      </trkpt>
      <trkpt lat="47.00296" lon="4.71412">
        <ele>413.524</ele>
        <time>2017-04-01T01:27:03Z</time>
      </trkpt>
      <trkpt lat="47.00264" lon="4.71411">
        <ele>413.968</ele>
        <time>2017-04-01T01:27:23Z</time>
      </trkpt>
      <trkpt lat="47.00213" lon="4.71389">
        <ele>419.046</ele>
        <time>2017-04-01T01:27:43Z</time>
      </trkpt>
      <trkpt lat="47.00169" lon="4.71354">
        <ele>424.088</ele>
        <time>2017-04-01T01:28:03Z</time>
      </trkpt>
      <trkpt lat="47.0012" lon="4.71326">
        <ele>427.216</ele>
        <time>2017-04-01T01:28:23Z</time>
      </trkpt>
      <trkpt lat="47.00087" lon="4.71298">
        <ele>427.508</ele>
        <time>2017-04-01T01:28:43Z</time>
      </trkpt>
      <trkpt lat="47.00027" lon="4.71261">
        <ele>427.07</ele>
        <time>2017-04-01T01:29:03Z</time>
      </trkpt>
      <trkpt lat="47.00047" lon="4.71197">
        <ele>415.365</ele>
        <time>2017-04-01T01:29:23Z</time>
      </trkpt>
      <trkpt lat="46.99994" lon="4.71129">
        <ele>400.946</ele>
        <time>2017-04-01T01:29:43Z</time>
      </trkpt>
      <trkpt lat="47.0001" lon="4.7112">
        <ele>393.611</ele>
        <time>2017-04-01T01:30:03Z</time>
      </trkpt>
      <trkpt lat="46.99946" lon="4.7105">
        <ele>379.47</ele>
        <time>2017-04-01T01:30:23Z</time>
      </trkpt>
      <trkpt lat="46.99944" lon="4.71029">
        <ele>371.463</ele>
        <time>2017-04-01T01:30:43Z</time>
      </trkpt>
      <trkpt lat="46.99913" lon="4.70997">
        <ele>367.74</ele>
        <time>2017-04-01T01:31:03Z</time>
      </trkpt>
      <trkpt lat="46.99877" lon="4.70969">
        <ele>363.434</ele>
        <time>2017-04-01T01:31:23Z</time>
      </trkpt>
      <trkpt lat="46.99819" lon="4.70896">
        <ele>351.322</ele>
        <time>2017-04-01T01:31:43Z</time>
      </trkpt>
      <trkpt lat="46.99842" lon="4.70742">
        <ele>348.462</ele>
        <time>2017-04-01T01:32:03Z</time>
      </trkpt>
      <trkpt lat="46.99836" lon="4.7072">
        <ele>348.508</ele>
        <time>2017-04-01T01:32:23Z</time>
      </trkpt>
      <trkpt lat="46.99798" lon="4.70666">
        <ele>353.908</ele>
        <time>2017-04-01T01:32:43Z</time>
      </trkpt>
      <trkpt lat="46.99804" lon="4.70627">
        <ele>355.588</ele>
        <time>2017-04-01T01:33:03Z</time>
      </trkpt>
      <trkpt lat="46.99841" lon="4.70585">
        <ele>361.933</ele>
        <time>2017-04-01T01:33:23Z</time>
      </trkpt>
      <trkpt lat="46.99844" lon="4.70534">
        <ele>368.174</ele>
        <time>2017-04-01T01:33:43Z</time>
      </trkpt>
      <trkpt lat="46.9986" lon="4.70439">
        <ele>380.429</ele>
        <time>2017-04-01T01:34:03Z</time>
      </trkpt>
      <trkpt lat="46.99879" lon="4.70392">
        <ele>385.878</ele>
        <time>2017-04-01T01:34:23Z</time>
      </trkpt>
      <trkpt lat="46.99876" lon="4.70375">
        <ele>387.321</ele>
        <time>2017-04-01T01:34:43Z</time>
      </trkpt>
      <trkpt lat="46.99875" lon="4.70322">
        <ele>397.068</ele>
        <time>2017-04-01T01:35:03Z</time>
      </trkpt>
      <trkpt lat="46.99885" lon="4.70296">
        <ele>401.492</ele>
        <time>2017-04-01T01:35:23Z</time>
      </trkpt>
      <trkpt lat="46.99894" lon="4.70258">
        <ele>408.211</ele>
        <time>2017-04-01T01:35:43Z</time>
      </trkpt>
      <trkpt lat="46.99915" lon="4.70246">
        <ele>412.521</ele>
        <time>2017-04-01T01:36:03Z</time>
      </trkpt>
      <trkpt lat="46.9992" lon="4.70195">
        <ele>419.003</ele>
        <time>2017-04-01T01:36:23Z</time>
      </trkpt>
      <trkpt lat="46.9994" lon="4.7017">
        <ele>421.608</ele>
        <time>2017-04-01T01:36:43Z</time>
      </trkpt>
      <trkpt lat="46.99952" lon="4.70129">
        <ele>426.787</ele>
        <time>2017-04-01T01:37:03Z</time>
      </trkpt>
      <trkpt lat="46.99935" lon="4.70076">
        <ele>433.952</ele>
        <time>2017-04-01T01:37:23Z</time>
      </trkpt>
      <trkpt lat="46.99948" lon="4.70049">
        <ele>439.713</ele>
        <time>2017-04-01T01:37:43Z</time>
      </trkpt>
      <trkpt lat="46.99965" lon="4.70028">
        <ele>445.928</ele>
        <time>2017-04-01T01:38:03Z</time>
      </trkpt>
      <trkpt lat="46.99989" lon="4.69988">
        <ele>455.497</ele>
        <time>2017-04-01T01:38:23Z</time>
      </trkpt>
      <trkpt lat="47.00009" lon="4.69967">
        <ele>461.34</ele>
        <time>2017-04-01T01:38:43Z</time>
      </trkpt>
      <trkpt lat="47.00031" lon="4.69977">
        <ele>462.997</ele>
        <time>2017-04-01T01:39:03Z</time>
      </trkpt>
      <trkpt lat="47.00072" lon="4.69987">
        <ele>470.351</ele>
        <time>2017-04-01T01:39:23Z</time>
      </trkpt>
      <trkpt lat="47.00093" lon="4.69998">
        <ele>473.937</ele>
        <time>2017-04-01T01:39:43Z</time>
      </trkpt>
      <trkpt lat="47.00119" lon="4.69998">
        <ele>480.749</ele>
        <time>2017-04-01T01:40:03Z</time>
      </trkpt>
      <trkpt lat="47.00136" lon="4.70021">
        <ele>482.213</ele>
        <time>2017-04-01T01:40:23Z</time>
      </trkpt>
      <trkpt lat="47.00167" lon="4.70052">
        <ele>487.708</ele>
        <time>2017-04-01T01:40:43Z</time>
      </trkpt>
      <trkpt lat="47.00185" lon="4.70085">
        <ele>491.669</ele>
        <time>2017-04-01T01:41:03Z</time>
      </trkpt>
      <trkpt lat="47.00196" lon="4.70124">
        <ele>494.214</ele>
        <time>2017-04-01T01:41:23Z</time>
      </trkpt>
      <trkpt lat="47.00203" lon="4.70175">
        <ele>491.175</ele>
        <time>2017-04-01T01:41:43Z</time>
      </trkpt>
      <trkpt lat="47.00218" lon="4.70192">
        <ele>496.74</ele>
        <time>2017-04-01T01:42:03Z</time>
      </trkpt>
      <trkpt lat="47.00241" lon="4.70203">
        <ele>505.349</ele>
        <time>2017-04-01T01:42:23Z</time>
      </trkpt>
      <trkpt lat="47.00256" lon="4.70221">
        <ele>507.582</ele>
        <time>2017-04-01T01:42:43Z</time>
      </trkpt>
      <trkpt lat="47.00269" lon="4.70248">
        <ele>506.589</ele>
        <time>2017-04-01T01:43:03Z</time>
      </trkpt>
      <trkpt lat="47.00279" lon="4.70301">
        <ele>502.763</ele>
        <time>2017-04-01T01:43:23Z</time>
      </trkpt>
      <trkpt lat="47.00335" lon="4.7034">
        <ele>511.898</ele>
        <time>2017-04-01T01:43:43Z</time>
      </trkpt>
      <trkpt lat="47.00365" lon="4.70385">
        <ele>512.215</ele>
        <time>2017-04-01T01:44:03Z</time>
      </trkpt>
      <trkpt lat="47.00377" lon="4.70394">
        <ele>512.826</ele>
        <time>2017-04-01T01:44:23Z</time>
      </trkpt>
      <trkpt lat="47.00399" lon="4.704">
        <ele>515.308</ele>
        <time>2017-04-01T01:44:43Z</time>
      </trkpt>
      <trkpt lat="47.00363" lon="4.70293">
        <ele>520.685</ele>
        <time>2017-04-01T01:45:03Z</time>
      </trkpt>
      <trkpt lat="47.0036" lon="4.70254">
        <ele>520.91</ele>
        <time>2017-04-01T01:45:23Z</time>
      </trkpt>
      <trkpt lat="47.00379" lon="4.70145">
        <ele>527.951</ele>
        <time>2017-04-01T01:45:43Z</time>
      </trkpt>
      <trkpt lat="47.00276" lon="4.7006">
        <ele>526.536</ele>
        <time>2017-04-01T01:46:03Z</time>
      </trkpt>
      <trkpt lat="47.00215" lon="4.69983">
        <ele>514.875</ele>
        <time>2017-04-01T01:46:23Z</time>
      </trkpt>
      <trkpt lat="47.00185" lon="4.69911">
        <ele>520.628</ele>
        <time>2017-04-01T01:46:43Z</time>
      </trkpt>
      <trkpt lat="47.00085" lon="4.69796">
        <ele>519.685</ele>
        <time>2017-04-01T01:47:03Z</time>
      </trkpt>
      <trkpt lat="46.99965" lon="4.69725">
        <ele>521.389</ele>
        <time>2017-04-01T01:47:23Z</time>
      </trkpt>
      <trkpt lat="46.99709" lon="4.69643">
        <ele>533.577</ele>
        <time>2020-11-28T22:37:08Z</time>
      </trkpt>
      <trkpt lat="46.99348" lon="4.69436">
        <ele>529.961</ele>
        <time>2020-11-28T22:37:28Z</time>
      </trkpt>
      <trkpt lat="46.99291" lon="4.69435">
        <ele>523.127</ele>
        <time>2017-04-01T01:55:03Z</time>
      </trkpt>
      <trkpt lat="46.99234" lon="4.69381">
        <ele>522.608</ele>
        <time>2017-04-01T01:55:23Z</time>
      </trkpt>
      <trkpt lat="46.99215" lon="4.69336">
        <ele>529.113</ele>
        <time>2017-04-01T01:55:43Z</time>
      </trkpt>
      <trkpt lat="46.99211" lon="4.69302">
        <ele>531.818</ele>
        <time>2017-04-01T01:56:03Z</time>
      </trkpt>
      <trkpt lat="46.99097" lon="4.69215">
        <ele>527.569</ele>
        <time>2017-04-01T01:56:23Z</time>
      </trkpt>
      <trkpt lat="46.99066" lon="4.69159">
        <ele>520.644</ele>
        <time>2017-04-01T01:56:43Z</time>
      </trkpt>
      <trkpt lat="46.99053" lon="4.69122">
        <ele>518.873</ele>
        <time>2017-04-01T01:57:03Z</time>
      </trkpt>
      <trkpt lat="46.99052" lon="4.69088">
        <ele>523.936</ele>
        <time>2017-04-01T01:57:23Z</time>
      </trkpt>
      <trkpt lat="46.99019" lon="4.69012">
        <ele>519.543</ele>
        <time>2017-04-01T01:57:43Z</time>
      </trkpt>
      <trkpt lat="46.99014" lon="4.68963">
        <ele>522.447</ele>
        <time>2017-04-01T01:58:03Z</time>
      </trkpt>
      <trkpt lat="46.99007" lon="4.68938">
        <ele>522.316</ele>
        <time>2017-04-01T01:58:23Z</time>
      </trkpt>
      <trkpt lat="46.98984" lon="4.68848">
        <ele>522.876</ele>
        <time>2017-04-01T01:58:43Z</time>
      </trkpt>
      <trkpt lat="46.98971" lon="4.6882">
        <ele>520.713</ele>
        <time>2017-04-01T01:59:03Z</time>
      </trkpt>
      <trkpt lat="46.9895" lon="4.68746">
        <ele>518.908</ele>
        <time>2017-04-01T01:59:23Z</time>
      </trkpt>
      <trkpt lat="46.98911" lon="4.68705">
        <ele>509.437</ele>
        <time>2017-04-01T01:59:43Z</time>
      </trkpt>
      <trkpt lat="46.98892" lon="4.68622">
        <ele>511.112</ele>
        <time>2017-04-01T02:00:03Z</time>
      </trkpt>
      <trkpt lat="46.989" lon="4.68514">
        <ele>514.263</ele>
        <time>2017-04-01T02:00:23Z</time>
      </trkpt>
      <trkpt lat="46.98938" lon="4.6842">
        <ele>516.558</ele>
        <time>2017-04-01T02:00:43Z</time>
      </trkpt>
      <trkpt lat="46.98975" lon="4.68362">
        <ele>523.237</ele>
        <time>2017-04-01T02:01:03Z</time>
      </trkpt>
      <trkpt lat="46.98997" lon="4.68264">
        <ele>531.29</ele>
        <time>2017-04-01T02:01:23Z</time>
      </trkpt>
      <trkpt lat="46.98962" lon="4.68068">
        <ele>547.387</ele>
        <time>2017-04-01T02:01:43Z</time>
      </trkpt>
      <trkpt lat="46.98961" lon="4.68032">
        <ele>549.411</ele>
        <time>2020-11-28T22:44:48Z</time>
      </trkpt>
      <trkpt lat="46.98942" lon="4.68003">
        <ele>549.837</ele>
        <time>2020-11-28T22:45:08Z</time>
      </trkpt>
      <trkpt lat="46.98958" lon="4.68119">
        <ele>543.949</ele>
        <time>2020-11-28T22:45:28Z</time>
      </trkpt>
      <trkpt lat="46.98946" lon="4.68168">
        <ele>539.913</ele>
        <time>2020-11-28T22:45:48Z</time>
      </trkpt>
      <trkpt lat="46.98873" lon="4.68213">
        <ele>536.208</ele>
        <time>2020-11-28T22:46:08Z</time>
      </trkpt>
      <trkpt lat="46.98819" lon="4.68386">
        <ele>522.189</ele>
        <time>2020-11-28T22:46:28Z</time>
      </trkpt>
      <trkpt lat="46.98795" lon="4.68431">
        <ele>516.044</ele>
        <time>2020-11-28T22:46:48Z</time>
      </trkpt>
      <trkpt lat="46.98772" lon="4.6842">
        <ele>518.835</ele>
        <time>2020-11-28T22:47:08Z</time>
      </trkpt>
      <trkpt lat="46.98672" lon="4.68541">
        <ele>518.07</ele>
        <time>2020-11-28T22:47:28Z</time>
      </trkpt>
      <trkpt lat="46.98556" lon="4.68601">
        <ele>529.139</ele>
        <time>2020-11-28T22:47:48Z</time>
      </trkpt>
      <trkpt lat="46.98407" lon="4.68728">
        <ele>531.842</ele>
        <time>2020-11-28T22:48:08Z</time>
      </trkpt>
      <trkpt lat="46.98313" lon="4.68745">
        <ele>532.479</ele>
        <time>2020-11-28T22:48:28Z</time>
      </trkpt>
      <trkpt lat="46.98245" lon="4.68734">
        <ele>526.483</ele>
        <time>2020-11-28T22:48:48Z</time>
      </trkpt>
      <trkpt lat="46.98183" lon="4.68621">
        <ele>532.688</ele>
        <time>2020-11-28T22:49:08Z</time>
      </trkpt>
      <trkpt lat="46.98343" lon="4.68244">
        <ele>562.224</ele>
        <time>2020-11-28T22:49:28Z</time>
      </trkpt>
      <trkpt lat="46.97954" lon="4.67517">
        <ele>555.726</ele>
        <time>2020-11-28T22:49:48Z</time>
      </trkpt>
      <trkpt lat="46.97928" lon="4.67491">
        <ele>555.008</ele>
        <time>2020-11-28T22:50:08Z</time>
      </trkpt>
      <trkpt lat="46.979" lon="4.67479">
        <ele>553.914</ele>
        <time>2020-11-28T22:50:28Z</time>
      </trkpt>
      <trkpt lat="46.97919" lon="4.67427">
        <ele>554.949</ele>
        <time>2020-11-28T22:50:48Z</time>
      </trkpt>
      <trkpt lat="46.97897" lon="4.67292">
        <ele>556.13</ele>
        <time>2017-04-01T02:11:23Z</time>
      </trkpt>
      <trkpt lat="46.97858" lon="4.6728">
        <ele>556.055</ele>
        <time>2017-04-01T02:11:43Z</time>
      </trkpt>
      <trkpt lat="46.97769" lon="4.67295">
        <ele>552.774</ele>
        <time>2017-04-01T02:12:03Z</time>
      </trkpt>
      <trkpt lat="46.97758" lon="4.67212">
        <ele>554.237</ele>
        <time>2017-04-01T02:12:23Z</time>
      </trkpt>
      <trkpt lat="46.97719" lon="4.67131">
        <ele>551.914</ele>
        <time>2017-04-01T02:12:43Z</time>
      </trkpt>
      <trkpt lat="46.97711" lon="4.6699">
        <ele>551.998</ele>
        <time>2017-04-01T02:13:03Z</time>
      </trkpt>
      <trkpt lat="46.97713" lon="4.66943">
        <ele>549.619</ele>
        <time>2017-04-01T02:13:23Z</time>
      </trkpt>
      <trkpt lat="46.977" lon="4.66928">
        <ele>548.609</ele>
        <time>2017-04-01T02:13:43Z</time>
      </trkpt>
      <trkpt lat="46.97626" lon="4.6696">
        <ele>546.419</ele>
        <time>2017-04-01T02:14:03Z</time>
      </trkpt>
      <trkpt lat="46.97573" lon="4.67004">
        <ele>541.008</ele>
        <time>2017-04-01T02:14:23Z</time>
      </trkpt>
      <trkpt lat="46.97535" lon="4.6703">
        <ele>537.727</ele>
        <time>2017-04-01T02:14:43Z</time>
      </trkpt>
      <trkpt lat="46.97511" lon="4.67054">
        <ele>536.382</ele>
        <time>2017-04-01T02:15:03Z</time>
      </trkpt>
      <trkpt lat="46.97428" lon="4.67188">
        <ele>538.583</ele>
        <time>2017-04-01T02:15:23Z</time>
      </trkpt>
      <trkpt lat="46.97368" lon="4.67245">
        <ele>539.598</ele>
        <time>2017-04-01T02:15:43Z</time>
      </trkpt>
      <trkpt lat="46.97342" lon="4.67266">
        <ele>539.077</ele>
        <time>2017-04-01T02:16:03Z</time>
      </trkpt>
      <trkpt lat="46.97326" lon="4.67294">
        <ele>539.39</ele>
        <time>2017-04-01T02:16:23Z</time>
      </trkpt>
      <trkpt lat="46.97299" lon="4.67322">
        <ele>539.897</ele>
        <time>2017-04-01T02:16:43Z</time>
      </trkpt>
      <trkpt lat="46.97279" lon="4.67303">
        <ele>539.961</ele>
        <time>2017-04-01T02:17:03Z</time>
      </trkpt>
      <trkpt lat="46.97249" lon="4.67312">
        <ele>541.025</ele>
        <time>2017-04-01T02:17:23Z</time>
      </trkpt>
      <trkpt lat="46.972" lon="4.67372">
        <ele>540.526</ele>
        <time>2017-04-01T02:17:43Z</time>
      </trkpt>
      <trkpt lat="46.9714" lon="4.67368">
        <ele>537.908</ele>
        <time>2017-04-01T02:18:03Z</time>
      </trkpt>
      <trkpt lat="46.97018" lon="4.67306">
        <ele>540.608</ele>
        <time>2017-04-01T02:18:23Z</time>
      </trkpt>
      <trkpt lat="46.96985" lon="4.67253">
        <ele>544.878</ele>
        <time>2017-04-01T02:18:43Z</time>
      </trkpt>
      <trkpt lat="46.96961" lon="4.67234">
        <ele>545.743</ele>
        <time>2020-11-28T22:58:48Z</time>
      </trkpt>
      <trkpt lat="46.9705" lon="4.66966">
        <ele>545.884</ele>
        <time>2020-11-28T22:59:08Z</time>
      </trkpt>
      <trkpt lat="46.97071" lon="4.66925">
        <ele>544.019</ele>
        <time>2020-11-28T22:59:28Z</time>
      </trkpt>
      <trkpt lat="46.97116" lon="4.66797">
        <ele>539.138</ele>
        <time>2020-11-28T22:59:48Z</time>
      </trkpt>
      <trkpt lat="46.97126" lon="4.66755">
        <ele>538.281</ele>
        <time>2020-11-28T23:00:08Z</time>
      </trkpt>
      <trkpt lat="46.97147" lon="4.66693">
        <ele>535.738</ele>
        <time>2020-11-28T23:00:28Z</time>
      </trkpt>
      <trkpt lat="46.97155" lon="4.66631">
        <ele>534.442</ele>
        <time>2020-11-28T23:00:48Z</time>
      </trkpt>
      <trkpt lat="46.97138" lon="4.6662">
        <ele>535.081</ele>
        <time>2020-11-28T23:01:08Z</time>
      </trkpt>
      <trkpt lat="46.96976" lon="4.66611">
        <ele>537.961</ele>
        <time>2020-11-28T23:01:28Z</time>
      </trkpt>
      <trkpt lat="46.96909" lon="4.66614">
        <ele>539.917</ele>
        <time>2020-11-28T23:01:48Z</time>
      </trkpt>
      <trkpt lat="46.96891" lon="4.66599">
        <ele>540.808</ele>
        <time>2020-11-28T23:02:08Z</time>
      </trkpt>
      <trkpt lat="46.96707" lon="4.66556">
        <ele>542.164</ele>
        <time>2020-11-28T23:02:28Z</time>
      </trkpt>
      <trkpt lat="46.96743" lon="4.66511">
        <ele>542.089</ele>
        <time>2020-11-28T23:02:48Z</time>
      </trkpt>
      <trkpt lat="46.96773" lon="4.66474">
        <ele>544.68</ele>
        <time>2017-04-01T02:25:03Z</time>
      </trkpt>
      <trkpt lat="46.96781" lon="4.66471">
        <ele>545.275</ele>
        <time>2017-04-01T02:25:23Z</time>
      </trkpt>
      <trkpt lat="46.96953" lon="4.65782">
        <ele>533.394</ele>
        <time>2017-04-01T02:25:43Z</time>
      </trkpt>
      <trkpt lat="46.97012" lon="4.65533">
        <ele>512.427</ele>
        <time>2020-11-28T23:04:08Z</time>
      </trkpt>
      <trkpt lat="46.96946" lon="4.65538">
        <ele>510.324</ele>
        <time>2017-04-01T02:35:23Z</time>
      </trkpt>
      <trkpt lat="46.96911" lon="4.65546">
        <ele>510.958</ele>
        <time>2017-04-01T02:35:43Z</time>
      </trkpt>
      <trkpt lat="46.96929" lon="4.6538">
        <ele>474.584</ele>
        <time>2017-04-01T02:36:03Z</time>
      </trkpt>
      <trkpt lat="46.96839" lon="4.65361">
        <ele>477.207</ele>
        <time>2017-04-01T02:36:23Z</time>
      </trkpt>
      <trkpt lat="46.96786" lon="4.65334">
        <ele>476.917</ele>
        <time>2017-04-01T02:36:43Z</time>
      </trkpt>
      <trkpt lat="46.96753" lon="4.65328">
        <ele>478.208</ele>
        <time>2017-04-01T02:37:03Z</time>
      </trkpt>
      <trkpt lat="46.96737" lon="4.65343">
        <ele>482.564</ele>
        <time>2017-04-01T02:37:23Z</time>
      </trkpt>
      <trkpt lat="46.96645" lon="4.65318">
        <ele>494.159</ele>
        <time>2017-04-01T02:37:43Z</time>
      </trkpt>
      <trkpt lat="46.96608" lon="4.65331">
        <ele>502.77</ele>
        <time>2017-04-01T02:38:03Z</time>
      </trkpt>
      <trkpt lat="46.96567" lon="4.65321">
        <ele>501.125</ele>
        <time>2017-04-01T02:38:23Z</time>
      </trkpt>
      <trkpt lat="46.96542" lon="4.65292">
        <ele>492.784</ele>
        <time>2017-04-01T02:38:43Z</time>
      </trkpt>
      <trkpt lat="46.96496" lon="4.65168">
        <ele>467.777</ele>
        <time>2017-04-01T02:39:03Z</time>
      </trkpt>
      <trkpt lat="46.96484" lon="4.65122">
        <ele>458.034</ele>
        <time>2017-04-01T02:39:23Z</time>
      </trkpt>
      <trkpt lat="46.96479" lon="4.65063">
        <ele>447.468</ele>
        <time>2017-04-01T02:39:43Z</time>
      </trkpt>
      <trkpt lat="46.96461" lon="4.64997">
        <ele>439.952</ele>
        <time>2017-04-01T02:40:03Z</time>
      </trkpt>
      <trkpt lat="46.96451" lon="4.64945">
        <ele>431.853</ele>
        <time>2017-04-01T02:40:23Z</time>
      </trkpt>
      <trkpt lat="46.96412" lon="4.6482">
        <ele>406.108</ele>
        <time>2017-04-01T02:40:43Z</time>
      </trkpt>
      <trkpt lat="46.96382" lon="4.64741">
        <ele>397.108</ele>
        <time>2017-04-01T02:41:03Z</time>
      </trkpt>
      <trkpt lat="46.96318" lon="4.64675">
        <ele>385.471</ele>
        <time>2017-04-01T02:41:23Z</time>
      </trkpt>
      <trkpt lat="46.963" lon="4.64548">
        <ele>369.516</ele>
        <time>2017-04-01T02:41:43Z</time>
      </trkpt>
      <trkpt lat="46.96271" lon="4.64496">
        <ele>362.227</ele>
        <time>2017-04-01T02:42:03Z</time>
      </trkpt>
      <trkpt lat="46.96246" lon="4.6447">
        <ele>358.732</ele>
        <time>2017-04-01T02:42:23Z</time>
      </trkpt>
      <trkpt lat="46.96242" lon="4.64408">
        <ele>354.571</ele>
        <time>2017-04-01T02:42:43Z</time>
      </trkpt>
      <trkpt lat="46.96231" lon="4.64372">
        <ele>352.084</ele>
        <time>2017-04-01T02:43:03Z</time>
      </trkpt>
      <trkpt lat="46.96223" lon="4.64277">
        <ele>345.141</ele>
        <time>2017-04-01T02:43:23Z</time>
      </trkpt>
      <trkpt lat="46.96208" lon="4.64244">
        <ele>345.265</ele>
        <time>2017-04-01T02:43:43Z</time>
      </trkpt>
      <trkpt lat="46.96156" lon="4.64278">
        <ele>344.048</ele>
        <time>2017-04-01T02:44:03Z</time>
      </trkpt>
      <trkpt lat="46.96109" lon="4.64232">
        <ele>342.961</ele>
        <time>2017-04-01T02:44:23Z</time>
      </trkpt>
      <trkpt lat="46.96064" lon="4.6424">
        <ele>340.717</ele>
        <time>2017-04-01T02:44:43Z</time>
      </trkpt>
      <trkpt lat="46.96023" lon="4.64215">
        <ele>341.108</ele>
        <time>2017-04-01T02:45:03Z</time>
      </trkpt>
      <trkpt lat="46.95989" lon="4.64275">
        <ele>344.94</ele>
        <time>2017-04-01T02:45:23Z</time>
      </trkpt>
      <trkpt lat="46.95878" lon="4.64227">
        <ele>340.635</ele>
        <time>2017-04-01T02:45:43Z</time>
      </trkpt>
      <trkpt lat="46.95841" lon="4.64198">
        <ele>339.366</ele>
        <time>2017-04-01T02:46:03Z</time>
      </trkpt>
      <trkpt lat="46.95802" lon="4.64125">
        <ele>337.151</ele>
        <time>2017-04-01T02:46:23Z</time>
      </trkpt>
      <trkpt lat="46.95755" lon="4.64084">
        <ele>339.63</ele>
        <time>2017-04-01T02:46:43Z</time>
      </trkpt>
      <trkpt lat="46.95734" lon="4.64046">
        <ele>339.673</ele>
        <time>2017-04-01T02:47:03Z</time>
      </trkpt>
      <trkpt lat="46.95702" lon="4.64034">
        <ele>338.95</ele>
        <time>2017-04-01T02:47:23Z</time>
      </trkpt>
      <trkpt lat="46.95669" lon="4.64007">
        <ele>335.694</ele>
        <time>2017-04-01T02:47:43Z</time>
      </trkpt>
      <trkpt lat="46.95565" lon="4.63897">
        <ele>330.124</ele>
        <time>2017-04-01T02:48:03Z</time>
      </trkpt>
      <trkpt lat="46.95491" lon="4.63851">
        <ele>329.504</ele>
        <time>2017-04-01T02:48:23Z</time>
      </trkpt>
      <trkpt lat="46.95488" lon="4.63795">
        <ele>329.114</ele>
        <time>2017-04-01T02:48:43Z</time>
      </trkpt>
      <trkpt lat="46.95376" lon="4.63729">
        <ele>329.808</ele>
        <time>2017-04-01T02:49:03Z</time>
      </trkpt>
      <trkpt lat="46.95379" lon="4.63716">
        <ele>329.688</ele>
        <time>2017-04-01T02:49:23Z</time>
      </trkpt>
      <trkpt lat="46.95328" lon="4.63684">
        <ele>330.693</ele>
        <time>2017-04-01T02:49:43Z</time>
      </trkpt>
      <trkpt lat="46.9531" lon="4.63655">
        <ele>330.064</ele>
        <time>2017-04-01T02:50:03Z</time>
      </trkpt>
      <trkpt lat="46.95326" lon="4.63645">
        <ele>330.019</ele>
        <time>2017-04-01T02:50:23Z</time>
      </trkpt>
      <trkpt lat="46.95356" lon="4.63585">
        <ele>330.098</ele>
        <time>2017-04-01T02:50:43Z</time>
      </trkpt>
      <trkpt lat="46.95315" lon="4.63528">
        <ele>329.391</ele>
        <time>2017-04-01T02:51:03Z</time>
      </trkpt>
      <trkpt lat="46.95285" lon="4.63469">
        <ele>329.058</ele>
        <time>2017-04-01T02:51:23Z</time>
      </trkpt>
      <trkpt lat="46.95254" lon="4.63438">
        <ele>328.382</ele>
        <time>2017-04-01T02:51:43Z</time>
      </trkpt>
      <trkpt lat="46.95239" lon="4.63399">
        <ele>329.458</ele>
        <time>2017-04-01T02:52:03Z</time>
      </trkpt>
      <trkpt lat="46.95229" lon="4.63429">
        <ele>329.352</ele>
        <time>2017-04-01T02:52:23Z</time>
      </trkpt>
      <trkpt lat="46.95226" lon="4.63456">
        <ele>328.917</ele>
        <time>2017-04-01T02:52:43Z</time>
      </trkpt>
      <trkpt lat="46.9517" lon="4.63442">
        <ele>328.108</ele>
        <time>2017-04-01T02:53:03Z</time>
      </trkpt>
      <trkpt lat="46.95155" lon="4.63474">
        <ele>328.061</ele>
        <time>2017-04-01T02:53:23Z</time>
      </trkpt>
      <trkpt lat="46.95093" lon="4.63445">
        <ele>329.026</ele>
        <time>2017-04-01T02:53:43Z</time>
      </trkpt>
      <trkpt lat="46.94946" lon="4.63416">
        <ele>323.987</ele>
        <time>2017-04-01T02:54:03Z</time>
      </trkpt>
      <trkpt lat="46.94915" lon="4.63363">
        <ele>322.462</ele>
        <time>2017-04-01T02:54:23Z</time>
      </trkpt>
      <trkpt lat="46.94818" lon="4.63285">
        <ele>321.171</ele>
        <time>2017-04-01T02:54:43Z</time>
      </trkpt>
      <trkpt lat="46.94764" lon="4.63324">
        <ele>323.354</ele>
        <time>2017-04-01T02:55:03Z</time>
      </trkpt>
      <trkpt lat="46.94708" lon="4.63346">
        <ele>322.941</ele>
        <time>2017-04-01T02:55:23Z</time>
      </trkpt>
      <trkpt lat="46.94645" lon="4.6334">
        <ele>321.015</ele>
        <time>2017-04-01T02:55:43Z</time>
      </trkpt>
      <trkpt lat="46.94567" lon="4.633">
        <ele>319.862</ele>
        <time>2017-04-01T02:56:03Z</time>
      </trkpt>
      <trkpt lat="46.9444" lon="4.63263">
        <ele>321.783</ele>
        <time>2017-04-01T02:56:23Z</time>
      </trkpt>
      <trkpt lat="46.94392" lon="4.63262">
        <ele>323.411</ele>
        <time>2017-04-01T02:56:43Z</time>
      </trkpt>
      <trkpt lat="46.943" lon="4.63234">
        <ele>327.908</ele>
        <time>2017-04-01T02:57:03Z</time>
      </trkpt>
      <trkpt lat="46.94199" lon="4.63268">
        <ele>325.162</ele>
        <time>2017-04-01T02:57:23Z</time>
      </trkpt>
      <trkpt lat="46.94126" lon="4.63245">
        <ele>320.677</ele>
        <time>2017-04-01T02:57:43Z</time>
      </trkpt>
      <trkpt lat="46.94101" lon="4.63249">
        <ele>318.788</ele>
        <time>2017-04-01T02:58:03Z</time>
      </trkpt>
      <trkpt lat="46.94022" lon="4.63288">
        <ele>313.633</ele>
        <time>2017-04-01T02:58:23Z</time>
      </trkpt>
      <trkpt lat="46.93974" lon="4.63289">
        <ele>315.132</ele>
        <time>2017-04-01T02:58:43Z</time>
      </trkpt>
      <trkpt lat="46.93934" lon="4.63198">
        <ele>311.445</ele>
        <time>2017-04-01T02:59:03Z</time>
      </trkpt>
      <trkpt lat="46.93879" lon="4.63091">
        <ele>304.772</ele>
        <time>2017-04-01T02:59:23Z</time>
      </trkpt>
      <trkpt lat="46.93791" lon="4.63085">
        <ele>304.616</ele>
        <time>2017-04-01T02:59:43Z</time>
      </trkpt>
      <trkpt lat="46.93711" lon="4.63092">
        <ele>301.851</ele>
        <time>2017-04-01T03:00:03Z</time>
      </trkpt>
      <trkpt lat="46.93631" lon="4.63109">
        <ele>300.901</ele>
        <time>2017-04-01T03:00:23Z</time>
      </trkpt>
      <trkpt lat="46.93559" lon="4.63137">
        <ele>303.611</ele>
        <time>2017-04-01T03:00:43Z</time>
      </trkpt>
      <trkpt lat="46.9352" lon="4.63149">
        <ele>303.808</ele>
        <time>2017-04-01T03:01:03Z</time>
      </trkpt>
      <trkpt lat="46.93484" lon="4.63168">
        <ele>304.661</ele>
        <time>2017-04-01T03:01:23Z</time>
      </trkpt>
      <trkpt lat="46.93508" lon="4.63251">
        <ele>317.866</ele>
        <time>2017-04-01T03:01:43Z</time>
      </trkpt>
      <trkpt lat="46.93517" lon="4.63259">
        <ele>319.377</ele>
        <time>2017-04-01T03:02:03Z</time>
      </trkpt>
      <trkpt lat="46.93549" lon="4.63247">
        <ele>318.882</ele>
        <time>2017-04-01T03:02:23Z</time>
      </trkpt>
      <trkpt lat="46.93577" lon="4.63249">
        <ele>322.191</ele>
        <time>2017-04-01T03:02:43Z</time>
      </trkpt>
      <trkpt lat="46.93623" lon="4.63261">
        <ele>323.214</ele>
        <time>2017-04-01T03:03:03Z</time>
      </trkpt>
      <trkpt lat="46.93658" lon="4.63277">
        <ele>325.561</ele>
        <time>2017-04-01T03:03:23Z</time>
      </trkpt>
      <trkpt lat="46.93673" lon="4.63294">
        <ele>326.785</ele>
        <time>2017-04-01T03:03:43Z</time>
      </trkpt>
      <trkpt lat="46.93683" lon="4.63339">
        <ele>327.651</ele>
        <time>2017-04-01T03:04:03Z</time>
      </trkpt>
      <trkpt lat="46.93717" lon="4.63414">
        <ele>330.101</ele>
        <time>2017-04-01T03:04:23Z</time>
      </trkpt>
      <trkpt lat="46.9373" lon="4.63488">
        <ele>332.011</ele>
        <time>2017-04-01T03:04:43Z</time>
      </trkpt>
      <trkpt lat="46.93733" lon="4.63533">
        <ele>333.408</ele>
        <time>2017-04-01T03:05:03Z</time>
      </trkpt>
      <trkpt lat="46.93671" lon="4.63513">
        <ele>334.441</ele>
        <time>2017-04-01T03:05:23Z</time>
      </trkpt>
      <trkpt lat="46.93556" lon="4.63494">
        <ele>335.856</ele>
        <time>2017-04-01T03:05:43Z</time>
      </trkpt>
      <trkpt lat="46.93459" lon="4.63501">
        <ele>337.017</ele>
        <time>2017-04-01T03:06:03Z</time>
      </trkpt>
      <trkpt lat="46.93336" lon="4.63529">
        <ele>337.112</ele>
        <time>2017-04-01T03:06:23Z</time>
      </trkpt>
      <trkpt lat="46.93235" lon="4.63569">
        <ele>339.771</ele>
        <time>2017-04-01T03:06:43Z</time>
      </trkpt>
      <trkpt lat="46.9319" lon="4.63596">
        <ele>339.934</ele>
        <time>2017-04-01T03:07:03Z</time>
      </trkpt>
      <trkpt lat="46.93213" lon="4.63622">
        <ele>341.911</ele>
        <time>2017-04-01T03:07:23Z</time>
      </trkpt>
      <trkpt lat="46.93233" lon="4.63663">
        <ele>344.375</ele>
        <time>2017-04-01T03:07:43Z</time>
      </trkpt>
      <trkpt lat="46.93272" lon="4.63812">
        <ele>346.237</ele>
        <time>2017-04-01T03:08:03Z</time>
      </trkpt>
      <trkpt lat="46.93301" lon="4.63901">
        <ele>350.449</ele>
        <time>2017-04-01T03:08:23Z</time>
      </trkpt>
      <trkpt lat="46.93381" lon="4.64007">
        <ele>352.413</ele>
        <time>2017-04-01T03:08:43Z</time>
      </trkpt>
      <trkpt lat="46.93447" lon="4.64104">
        <ele>356.008</ele>
        <time>2017-04-01T03:09:03Z</time>
      </trkpt>
      <trkpt lat="46.93466" lon="4.64154">
        <ele>357.189</ele>
        <time>2017-04-01T03:09:23Z</time>
      </trkpt>
      <trkpt lat="46.93527" lon="4.64263">
        <ele>361.454</ele>
        <time>2017-04-01T03:09:43Z</time>
      </trkpt>
      <trkpt lat="46.9355" lon="4.64324">
        <ele>362.045</ele>
        <time>2017-04-01T03:10:03Z</time>
      </trkpt>
      <trkpt lat="46.93586" lon="4.64468">
        <ele>365.09</ele>
        <time>2017-04-01T03:10:23Z</time>
      </trkpt>
      <trkpt lat="46.93608" lon="4.64522">
        <ele>365.039</ele>
        <time>2017-04-01T03:10:43Z</time>
      </trkpt>
      <trkpt lat="46.93651" lon="4.64582">
        <ele>368.012</ele>
        <time>2017-04-01T03:11:03Z</time>
      </trkpt>
      <trkpt lat="46.93675" lon="4.64627">
        <ele>367.799</ele>
        <time>2017-04-01T03:11:23Z</time>
      </trkpt>
      <trkpt lat="46.93695" lon="4.64708">
        <ele>368.063</ele>
        <time>2017-04-01T03:11:43Z</time>
      </trkpt>
      <trkpt lat="46.93775" lon="4.6483">
        <ele>367.077</ele>
        <time>2017-04-01T03:12:03Z</time>
      </trkpt>
      <trkpt lat="46.93883" lon="4.64943">
        <ele>370.061</ele>
        <time>2017-04-01T03:12:23Z</time>
      </trkpt>
      <trkpt lat="46.93924" lon="4.6501">
        <ele>368.427</ele>
        <time>2017-04-01T03:12:43Z</time>
      </trkpt>
      <trkpt lat="46.93934" lon="4.65065">
        <ele>370.408</ele>
        <time>2017-04-01T03:13:03Z</time>
      </trkpt>
      <trkpt lat="46.93944" lon="4.6517">
        <ele>374.273</ele>
        <time>2017-04-01T03:13:23Z</time>
      </trkpt>
      <trkpt lat="46.93876" lon="4.65223">
        <ele>376.598</ele>
        <time>2017-04-01T03:13:43Z</time>
      </trkpt>
      <trkpt lat="46.93865" lon="4.65253">
        <ele>376.959</ele>
        <time>2017-04-01T03:14:03Z</time>
      </trkpt>
      <trkpt lat="46.93847" lon="4.6528">
        <ele>377.024</ele>
        <time>2017-04-01T03:14:23Z</time>
      </trkpt>
      <trkpt lat="46.93802" lon="4.65396">
        <ele>384.133</ele>
        <time>2017-04-01T03:14:43Z</time>
      </trkpt>
      <trkpt lat="46.93782" lon="4.65468">
        <ele>386.046</ele>
        <time>2017-04-01T03:15:03Z</time>
      </trkpt>
      <trkpt lat="46.9374" lon="4.65551">
        <ele>385.913</ele>
        <time>2017-04-01T03:15:23Z</time>
      </trkpt>
      <trkpt lat="46.93713" lon="4.65591">
        <ele>388.987</ele>
        <time>2017-04-01T03:15:43Z</time>
      </trkpt>
      <trkpt lat="46.93684" lon="4.65663">
        <ele>396.792</ele>
        <time>2017-04-01T03:16:03Z</time>
      </trkpt>
      <trkpt lat="46.93627" lon="4.65776">
        <ele>404.673</ele>
        <time>2017-04-01T03:16:23Z</time>
      </trkpt>
      <trkpt lat="46.9356" lon="4.65859">
        <ele>414.82</ele>
        <time>2017-04-01T03:16:43Z</time>
      </trkpt>
      <trkpt lat="46.93483" lon="4.65939">
        <ele>425.508</ele>
        <time>2017-04-01T03:17:03Z</time>
      </trkpt>
      <trkpt lat="46.93455" lon="4.65988">
        <ele>429.225</ele>
        <time>2017-04-01T03:17:23Z</time>
      </trkpt>
      <trkpt lat="46.93443" lon="4.66015">
        <ele>432.68</ele>
        <time>2017-04-01T03:17:43Z</time>
      </trkpt>
      <trkpt lat="46.93344" lon="4.66088">
        <ele>446.811</ele>
        <time>2017-04-01T03:18:03Z</time>
      </trkpt>
      <trkpt lat="46.93292" lon="4.66095">
        <ele>449.476</ele>
        <time>2017-04-01T03:18:23Z</time>
      </trkpt>
      <trkpt lat="46.932" lon="4.66197">
        <ele>458.655</ele>
        <time>2017-04-01T03:18:43Z</time>
      </trkpt>
      <trkpt lat="46.9317" lon="4.66266">
        <ele>455.788</ele>
        <time>2017-04-01T03:19:03Z</time>
      </trkpt>
      <trkpt lat="46.93106" lon="4.66357">
        <ele>452.115</ele>
        <time>2017-04-01T03:19:23Z</time>
      </trkpt>
      <trkpt lat="46.93064" lon="4.664">
        <ele>452.469</ele>
        <time>2017-04-01T03:19:43Z</time>
      </trkpt>
      <trkpt lat="46.9299" lon="4.66449">
        <ele>452.079</ele>
        <time>2017-04-01T03:20:03Z</time>
      </trkpt>
      <trkpt lat="46.92953" lon="4.66488">
        <ele>452.905</ele>
        <time>2017-04-01T03:20:23Z</time>
      </trkpt>
      <trkpt lat="46.92952" lon="4.66519">
        <ele>453.525</ele>
        <time>2017-04-01T03:20:43Z</time>
      </trkpt>
      <trkpt lat="46.92896" lon="4.6654">
        <ele>453.708</ele>
        <time>2017-04-01T03:21:03Z</time>
      </trkpt>
      <trkpt lat="46.92751" lon="4.6662">
        <ele>450.323</ele>
        <time>2017-04-01T03:21:23Z</time>
      </trkpt>
      <trkpt lat="46.92593" lon="4.6654">
        <ele>442.218</ele>
        <time>2017-04-01T03:21:43Z</time>
      </trkpt>
      <trkpt lat="46.92563" lon="4.66507">
        <ele>442.619</ele>
        <time>2017-04-01T03:22:03Z</time>
      </trkpt>
      <trkpt lat="46.92513" lon="4.66496">
        <ele>444.274</ele>
        <time>2017-04-01T03:22:23Z</time>
      </trkpt>
      <trkpt lat="46.92485" lon="4.66519">
        <ele>445.423</ele>
        <time>2017-04-01T03:22:43Z</time>
      </trkpt>
      <trkpt lat="46.92466" lon="4.66582">
        <ele>451.146</ele>
        <time>2017-04-01T03:23:03Z</time>
      </trkpt>
      <trkpt lat="46.92451" lon="4.66657">
        <ele>457.313</ele>
        <time>2017-04-01T03:23:23Z</time>
      </trkpt>
      <trkpt lat="46.92435" lon="4.66704">
        <ele>459.967</ele>
        <time>2017-04-01T03:23:43Z</time>
      </trkpt>
      <trkpt lat="46.92434" lon="4.66832">
        <ele>465.118</ele>
        <time>2017-04-01T03:24:03Z</time>
      </trkpt>
      <trkpt lat="46.92445" lon="4.66887">
        <ele>463.998</ele>
        <time>2017-04-01T03:24:23Z</time>
      </trkpt>
      <trkpt lat="46.92487" lon="4.66981">
        <ele>459.417</ele>
        <time>2017-04-01T03:24:43Z</time>
      </trkpt>
      <trkpt lat="46.92507" lon="4.6709">
        <ele>457.508</ele>
        <time>2017-04-01T03:25:03Z</time>
      </trkpt>
      <trkpt lat="46.92507" lon="4.67171">
        <ele>456.117</ele>
        <time>2017-04-01T03:25:23Z</time>
      </trkpt>
      <trkpt lat="46.92477" lon="4.67283">
        <ele>454.772</ele>
        <time>2017-04-01T03:25:43Z</time>
      </trkpt>
      <trkpt lat="46.9243" lon="4.67325">
        <ele>456.073</ele>
        <time>2017-04-01T03:26:03Z</time>
      </trkpt>
      <trkpt lat="46.92398" lon="4.67389">
        <ele>456.778</ele>
        <time>2017-04-01T03:26:23Z</time>
      </trkpt>
      <trkpt lat="46.92395" lon="4.67426">
        <ele>457.457</ele>
        <time>2017-04-01T03:26:43Z</time>
      </trkpt>
      <trkpt lat="46.92421" lon="4.67454">
        <ele>457.29</ele>
        <time>2017-04-01T03:27:03Z</time>
      </trkpt>
      <trkpt lat="46.92447" lon="4.67507">
        <ele>463.617</ele>
        <time>2017-04-01T03:27:23Z</time>
      </trkpt>
      <trkpt lat="46.92473" lon="4.67549">
        <ele>466.591</ele>
        <time>2017-04-01T03:27:43Z</time>
      </trkpt>
      <trkpt lat="46.92471" lon="4.67564">
        <ele>467.683</ele>
        <time>2017-04-01T03:28:03Z</time>
      </trkpt>
      <trkpt lat="46.92456" lon="4.67574">
        <ele>467.925</ele>
        <time>2017-04-01T03:28:23Z</time>
      </trkpt>
      <trkpt lat="46.92428" lon="4.67603">
        <ele>471.717</ele>
        <time>2017-04-01T03:28:43Z</time>
      </trkpt>
      <trkpt lat="46.92379" lon="4.67652">
        <ele>475.308</ele>
        <time>2017-04-01T03:29:03Z</time>
      </trkpt>
      <trkpt lat="46.92372" lon="4.67666">
        <ele>475.084</ele>
        <time>2017-04-01T03:29:23Z</time>
      </trkpt>
      <trkpt lat="46.92341" lon="4.6771">
        <ele>467.849</ele>
        <time>2017-04-01T03:29:43Z</time>
      </trkpt>
      <trkpt lat="46.92333" lon="4.67685">
        <ele>466.21</ele>
        <time>2017-04-01T03:30:03Z</time>
      </trkpt>
      <trkpt lat="46.9233" lon="4.67656">
        <ele>465.295</ele>
        <time>2017-04-01T03:30:23Z</time>
      </trkpt>
      <trkpt lat="46.92336" lon="4.67622">
        <ele>465.044</ele>
        <time>2017-04-01T03:30:43Z</time>
      </trkpt>
      <trkpt lat="46.92365" lon="4.67561">
        <ele>467.827</ele>
        <time>2017-04-01T03:31:03Z</time>
      </trkpt>
      <trkpt lat="46.92361" lon="4.6753">
        <ele>465.174</ele>
        <time>2017-04-01T03:31:23Z</time>
      </trkpt>
      <trkpt lat="46.92349" lon="4.67491">
        <ele>461.168</ele>
        <time>2017-04-01T03:31:43Z</time>
      </trkpt>
      <trkpt lat="46.92302" lon="4.67563">
        <ele>450.933</ele>
        <time>2017-04-01T03:32:03Z</time>
      </trkpt>
      <trkpt lat="46.92268" lon="4.67691">
        <ele>435.423</ele>
        <time>2017-04-01T03:32:23Z</time>
      </trkpt>
      <trkpt lat="46.92265" lon="4.6774">
        <ele>432.315</ele>
        <time>2017-04-01T03:32:43Z</time>
      </trkpt>
      <trkpt lat="46.92266" lon="4.67794">
        <ele>430.708</ele>
        <time>2017-04-01T03:33:03Z</time>
      </trkpt>
      <trkpt lat="46.92278" lon="4.67902">
        <ele>435.069</ele>
        <time>2017-04-01T03:33:23Z</time>
      </trkpt>
      <trkpt lat="46.92261" lon="4.67921">
        <ele>428.394</ele>
        <time>2017-04-01T03:33:43Z</time>
      </trkpt>
      <trkpt lat="46.9224" lon="4.67935">
        <ele>420.925</ele>
        <time>2017-04-01T03:34:03Z</time>
      </trkpt>
      <trkpt lat="46.92225" lon="4.67957">
        <ele>419.51</ele>
        <time>2017-04-01T03:34:23Z</time>
      </trkpt>
      <trkpt lat="46.92198" lon="4.67966">
        <ele>411.169</ele>
        <time>2017-04-01T03:34:43Z</time>
      </trkpt>
      <trkpt lat="46.92177" lon="4.6799">
        <ele>408.722</ele>
        <time>2017-04-01T03:35:03Z</time>
      </trkpt>
      <trkpt lat="46.92138" lon="4.68002">
        <ele>394.089</ele>
        <time>2017-04-01T03:35:23Z</time>
      </trkpt>
      <trkpt lat="46.92109" lon="4.68018">
        <ele>387.253</ele>
        <time>2017-04-01T03:35:43Z</time>
      </trkpt>
      <trkpt lat="46.92077" lon="4.68057">
        <ele>381.183</ele>
        <time>2017-04-01T03:36:03Z</time>
      </trkpt>
      <trkpt lat="46.92042" lon="4.68122">
        <ele>381.425</ele>
        <time>2017-04-01T03:36:23Z</time>
      </trkpt>
      <trkpt lat="46.91996" lon="4.68137">
        <ele>370.317</ele>
        <time>2017-04-01T03:36:43Z</time>
      </trkpt>
      <trkpt lat="46.91955" lon="4.68164">
        <ele>363.908</ele>
        <time>2017-04-01T03:37:03Z</time>
      </trkpt>
      <trkpt lat="46.91927" lon="4.6819">
        <ele>361.674</ele>
        <time>2017-04-01T03:37:23Z</time>
      </trkpt>
      <trkpt lat="46.9188" lon="4.68232">
        <ele>355.829</ele>
        <time>2017-04-01T03:37:43Z</time>
      </trkpt>
      <trkpt lat="46.91842" lon="4.68301">
        <ele>350.45</ele>
        <time>2017-04-01T03:38:03Z</time>
      </trkpt>
      <trkpt lat="46.91829" lon="4.68335">
        <ele>349.165</ele>
        <time>2017-04-01T03:38:23Z</time>
      </trkpt>
      <trkpt lat="46.91806" lon="4.68367">
        <ele>342.484</ele>
        <time>2017-04-01T03:38:43Z</time>
      </trkpt>
      <trkpt lat="46.91771" lon="4.68434">
        <ele>338.917</ele>
        <time>2017-04-01T03:39:03Z</time>
      </trkpt>
      <trkpt lat="46.91722" lon="4.68453">
        <ele>329.794</ele>
        <time>2017-04-01T03:39:23Z</time>
      </trkpt>
      <trkpt lat="46.917" lon="4.68414">
        <ele>324.068</ele>
        <time>2017-04-01T03:39:43Z</time>
      </trkpt>
      <trkpt lat="46.91682" lon="4.6842">
        <ele>321.066</ele>
        <time>2017-04-01T03:40:03Z</time>
      </trkpt>
      <trkpt lat="46.91674" lon="4.68451">
        <ele>320.029</ele>
        <time>2017-04-01T03:40:23Z</time>
      </trkpt>
      <trkpt lat="46.91644" lon="4.68394">
        <ele>309.621</ele>
        <time>2017-04-01T03:40:43Z</time>
      </trkpt>
      <trkpt lat="46.91622" lon="4.68423">
        <ele>306.508</ele>
        <time>2017-04-01T03:41:03Z</time>
      </trkpt>
      <trkpt lat="46.91582" lon="4.68412">
        <ele>298.912</ele>
        <time>2017-04-01T03:41:23Z</time>
      </trkpt>
      <trkpt lat="46.91571" lon="4.68383">
        <ele>297.077</ele>
        <time>2017-04-01T03:41:43Z</time>
      </trkpt>
      <trkpt lat="46.91548" lon="4.68376">
        <ele>293.418</ele>
        <time>2017-04-01T03:42:03Z</time>
      </trkpt>
      <trkpt lat="46.91523" lon="4.68468">
        <ele>288.433</ele>
        <time>2017-04-01T03:42:23Z</time>
      </trkpt>
      <trkpt lat="46.9151" lon="4.6847">
        <ele>285.932</ele>
        <time>2017-04-01T03:42:43Z</time>
      </trkpt>
      <trkpt lat="46.91479" lon="4.68374">
        <ele>281.865</ele>
        <time>2017-04-01T03:43:03Z</time>
      </trkpt>
      <trkpt lat="46.91452" lon="4.68318">
        <ele>277.592</ele>
        <time>2017-04-01T03:43:23Z</time>
      </trkpt>
      <trkpt lat="46.91318" lon="4.68383">
        <ele>268.216</ele>
        <time>2017-04-01T03:43:43Z</time>
      </trkpt>
      <trkpt lat="46.91169" lon="4.68488">
        <ele>257.287</ele>
        <time>2017-04-01T03:44:03Z</time>
      </trkpt>
      <trkpt lat="46.91038" lon="4.6862">
        <ele>245.742</ele>
        <time>2017-04-01T03:44:23Z</time>
      </trkpt>
      <trkpt lat="46.90899" lon="4.68844">
        <ele>232.026</ele>
        <time>2017-04-01T03:44:43Z</time>
      </trkpt>
      <trkpt lat="46.90805" lon="4.68931">
        <ele>228.008</ele>
        <time>2017-04-01T03:45:03Z</time>
      </trkpt>
      <trkpt lat="46.90779" lon="4.68969">
        <ele>227.114</ele>
        <time>2017-04-01T03:45:23Z</time>
      </trkpt>
      <trkpt lat="46.90763" lon="4.69009">
        <ele>226.959</ele>
        <time>2017-04-01T03:45:43Z</time>
      </trkpt>
      <trkpt lat="46.90707" lon="4.69288">
        <ele>214.18</ele>
        <time>2017-04-01T03:46:03Z</time>
      </trkpt>
      <trkpt lat="46.90744" lon="4.69387">
        <ele>213.955</ele>
        <time>2017-04-01T03:46:23Z</time>
      </trkpt>
      <trkpt lat="46.90778" lon="4.6946">
        <ele>215.094</ele>
        <time>2017-04-01T03:46:43Z</time>
      </trkpt>
      <trkpt lat="46.90739" lon="4.69471">
        <ele>215.017</ele>
        <time>2017-04-01T03:47:03Z</time>
      </trkpt>
      <trkpt lat="46.9066" lon="4.69537">
        <ele>212.914</ele>
        <time>2017-04-01T03:47:23Z</time>
      </trkpt>
      <trkpt lat="46.9057" lon="4.69551">
        <ele>213.868</ele>
        <time>2017-04-01T03:47:43Z</time>
      </trkpt>
      <trkpt lat="46.90514" lon="4.69579">
        <ele>212.659</ele>
        <time>2017-04-01T03:48:03Z</time>
      </trkpt>
      <trkpt lat="46.90471" lon="4.69552">
        <ele>215.103</ele>
        <time>2017-04-01T03:48:23Z</time>
      </trkpt>
      <trkpt lat="46.90425" lon="4.69482">
        <ele>217.623</ele>
        <time>2017-04-01T03:48:43Z</time>
      </trkpt>
      <trkpt lat="46.90357" lon="4.69461">
        <ele>221.608</ele>
        <time>2017-04-01T03:49:03Z</time>
      </trkpt>
      <trkpt lat="46.90278" lon="4.69396">
        <ele>224.541</ele>
        <time>2017-04-01T03:49:23Z</time>
      </trkpt>
      <trkpt lat="46.90236" lon="4.69339">
        <ele>221.366</ele>
        <time>2017-04-01T03:49:43Z</time>
      </trkpt>
      <trkpt lat="46.90165" lon="4.69209">
        <ele>224.647</ele>
        <time>2017-04-01T03:50:03Z</time>
      </trkpt>
      <trkpt lat="46.90144" lon="4.69237">
        <ele>225.812</ele>
        <time>2017-04-01T03:50:23Z</time>
      </trkpt>
      <trkpt lat="46.90099" lon="4.69174">
        <ele>226.231</ele>
        <time>2017-04-01T03:50:43Z</time>
      </trkpt>
      <trkpt lat="46.90018" lon="4.69123">
        <ele>226.614</ele>
        <time>2017-04-01T03:51:03Z</time>
      </trkpt>
      <trkpt lat="46.89949" lon="4.69054">
        <ele>227.761</ele>
        <time>2017-04-01T03:51:23Z</time>
      </trkpt>
      <trkpt lat="46.89874" lon="4.69009">
        <ele>231.075</ele>
        <time>2017-04-01T03:51:43Z</time>
      </trkpt>
      <trkpt lat="46.89857" lon="4.69133">
        <ele>241.178</ele>
        <time>2017-04-01T03:52:03Z</time>
      </trkpt>
      <trkpt lat="46.89778" lon="4.69318">
        <ele>260.933</ele>
        <time>2017-04-01T03:52:23Z</time>
      </trkpt>
      <trkpt lat="46.89735" lon="4.69402">
        <ele>272.726</ele>
        <time>2017-04-01T03:52:43Z</time>
      </trkpt>
      <trkpt lat="46.89692" lon="4.695">
        <ele>284.308</ele>
        <time>2017-04-01T03:53:03Z</time>
      </trkpt>
      <trkpt lat="46.89651" lon="4.69502">
        <ele>291.183</ele>
        <time>2017-04-01T03:53:23Z</time>
      </trkpt>
      <trkpt lat="46.89586" lon="4.69538">
        <ele>300.318</ele>
        <time>2017-04-01T03:53:43Z</time>
      </trkpt>
      <trkpt lat="46.89539" lon="4.69528">
        <ele>307.779</ele>
        <time>2017-04-01T03:54:03Z</time>
      </trkpt>
      <trkpt lat="46.89509" lon="4.69545">
        <ele>316.284</ele>
        <time>2017-04-01T03:54:23Z</time>
      </trkpt>
      <trkpt lat="46.89454" lon="4.69547">
        <ele>325.973</ele>
        <time>2017-04-01T03:54:43Z</time>
      </trkpt>
      <trkpt lat="46.89458" lon="4.69603">
        <ele>336.656</ele>
        <time>2017-04-01T03:55:03Z</time>
      </trkpt>
      <trkpt lat="46.89402" lon="4.69619">
        <ele>346.863</ele>
        <time>2017-04-01T03:55:23Z</time>
      </trkpt>
      <trkpt lat="46.89282" lon="4.69714">
        <ele>360.877</ele>
        <time>2017-04-01T03:55:43Z</time>
      </trkpt>
      <trkpt lat="46.89231" lon="4.6975">
        <ele>362.041</ele>
        <time>2017-04-01T03:56:03Z</time>
      </trkpt>
      <trkpt lat="46.89113" lon="4.69699">
        <ele>372.681</ele>
        <time>2017-04-01T03:56:23Z</time>
      </trkpt>
      <trkpt lat="46.88947" lon="4.69586">
        <ele>384.609</ele>
        <time>2017-04-01T03:56:43Z</time>
      </trkpt>
      <trkpt lat="46.88905" lon="4.6956">
        <ele>387.908</ele>
        <time>2017-04-01T03:57:03Z</time>
      </trkpt>
      <trkpt lat="46.88876" lon="4.69514">
        <ele>391.35</ele>
        <time>2017-04-01T03:57:23Z</time>
      </trkpt>
      <trkpt lat="46.88805" lon="4.69448">
        <ele>394.675</ele>
        <time>2017-04-01T03:57:43Z</time>
      </trkpt>
      <trkpt lat="46.88759" lon="4.69361">
        <ele>402.086</ele>
        <time>2017-04-01T03:58:03Z</time>
      </trkpt>
      <trkpt lat="46.88751" lon="4.6933">
        <ele>403.171</ele>
        <time>2017-04-01T03:58:23Z</time>
      </trkpt>
      <trkpt lat="46.88689" lon="4.69194">
        <ele>406.95</ele>
        <time>2017-04-01T03:58:43Z</time>
      </trkpt>
      <trkpt lat="46.88688" lon="4.69172">
        <ele>405.513</ele>
        <time>2017-04-01T03:59:03Z</time>
      </trkpt>
      <trkpt lat="46.88698" lon="4.69129">
        <ele>397.77</ele>
        <time>2017-04-01T03:59:23Z</time>
      </trkpt>
      <trkpt lat="46.88562" lon="4.69051">
        <ele>408.194</ele>
        <time>2017-04-01T03:59:43Z</time>
      </trkpt>
      <trkpt lat="46.88532" lon="4.6905">
        <ele>416.183</ele>
        <time>2017-04-01T04:00:03Z</time>
      </trkpt>
      <trkpt lat="46.88505" lon="4.6903">
        <ele>419.225</ele>
        <time>2017-04-01T04:00:23Z</time>
      </trkpt>
      <trkpt lat="46.88451" lon="4.68967">
        <ele>422.417</ele>
        <time>2017-04-01T04:00:43Z</time>
      </trkpt>
      <trkpt lat="46.88414" lon="4.68937">
        <ele>423.508</ele>
        <time>2017-04-01T04:01:03Z</time>
      </trkpt>
      <trkpt lat="46.88374" lon="4.68923">
        <ele>426.734</ele>
        <time>2017-04-01T04:01:23Z</time>
      </trkpt>
      <trkpt lat="46.88377" lon="4.68889">
        <ele>426.229</ele>
        <time>2017-04-01T04:01:43Z</time>
      </trkpt>
      <trkpt lat="46.88372" lon="4.6887">
        <ele>424.41</ele>
        <time>2017-04-01T04:02:03Z</time>
      </trkpt>
      <trkpt lat="46.88219" lon="4.68724">
        <ele>424.585</ele>
        <time>2017-04-01T04:02:23Z</time>
      </trkpt>
      <trkpt lat="46.88191" lon="4.6868">
        <ele>423.814</ele>
        <time>2017-04-01T04:02:43Z</time>
      </trkpt>
      <trkpt lat="46.8814" lon="4.68651">
        <ele>425.297</ele>
        <time>2017-04-01T04:03:03Z</time>
      </trkpt>
      <trkpt lat="46.88091" lon="4.68628">
        <ele>425.784</ele>
        <time>2017-04-01T04:03:23Z</time>
      </trkpt>
      <trkpt lat="46.8805" lon="4.68596">
        <ele>426.588</ele>
        <time>2017-04-01T04:03:43Z</time>
      </trkpt>
      <trkpt lat="46.88004" lon="4.68569">
        <ele>428.323</ele>
        <time>2017-04-01T04:04:03Z</time>
      </trkpt>
      <trkpt lat="46.88061" lon="4.68739">
        <ele>417.783</ele>
        <time>2017-04-01T04:04:23Z</time>
      </trkpt>
      <trkpt lat="46.8803" lon="4.68725">
        <ele>412.111</ele>
        <time>2017-04-01T04:04:43Z</time>
      </trkpt>
      <trkpt lat="46.87991" lon="4.68686">
        <ele>410.808</ele>
        <time>2017-04-01T04:05:03Z</time>
      </trkpt>
      <trkpt lat="46.87963" lon="4.68652">
        <ele>411.478</ele>
        <time>2017-04-01T04:05:23Z</time>
      </trkpt>
      <trkpt lat="46.87955" lon="4.68655">
        <ele>410.033</ele>
        <time>2017-04-01T04:05:43Z</time>
      </trkpt>
      <trkpt lat="46.87949" lon="4.68673">
        <ele>406.644</ele>
        <time>2017-04-01T04:06:03Z</time>
      </trkpt>
      <trkpt lat="46.87927" lon="4.68613">
        <ele>413.919</ele>
        <time>2017-04-01T04:06:23Z</time>
      </trkpt>
      <trkpt lat="46.87889" lon="4.68544">
        <ele>420.698</ele>
        <time>2017-04-01T04:06:43Z</time>
      </trkpt>
      <trkpt lat="46.87901" lon="4.68511">
        <ele>424.961</ele>
        <time>2017-04-01T04:07:03Z</time>
      </trkpt>
      <trkpt lat="46.87859" lon="4.68471">
        <ele>424.858</ele>
        <time>2017-04-01T04:07:23Z</time>
      </trkpt>
      <trkpt lat="46.87803" lon="4.68441">
        <ele>422.262</ele>
        <time>2017-04-01T04:07:43Z</time>
      </trkpt>
      <trkpt lat="46.87695" lon="4.68398">
        <ele>419.099</ele>
        <time>2017-04-01T04:08:03Z</time>
      </trkpt>
      <trkpt lat="46.8765" lon="4.68374">
        <ele>419.807</ele>
        <time>2017-04-01T04:08:23Z</time>
      </trkpt>
      <trkpt lat="46.87524" lon="4.68362">
        <ele>400.327</ele>
        <time>2017-04-01T04:08:43Z</time>
      </trkpt>
      <trkpt lat="46.87462" lon="4.68378">
        <ele>389.708</ele>
        <time>2017-04-01T04:09:03Z</time>
      </trkpt>
      <trkpt lat="46.8742" lon="4.68372">
        <ele>382.075</ele>
        <time>2017-04-01T04:09:23Z</time>
      </trkpt>
      <trkpt lat="46.8736" lon="4.68416">
        <ele>368.07</ele>
        <time>2017-04-01T04:09:43Z</time>
      </trkpt>
      <trkpt lat="46.87231" lon="4.68415">
        <ele>356.511</ele>
        <time>2017-04-01T04:10:03Z</time>
      </trkpt>
      <trkpt lat="46.87193" lon="4.68392">
        <ele>354.426</ele>
        <time>2017-04-01T04:10:23Z</time>
      </trkpt>
      <trkpt lat="46.87114" lon="4.68433">
        <ele>339.725</ele>
        <time>2017-04-01T04:10:43Z</time>
      </trkpt>
      <trkpt lat="46.87009" lon="4.68466">
        <ele>327.238</ele>
        <time>2017-04-01T04:11:03Z</time>
      </trkpt>
      <trkpt lat="46.86798" lon="4.68474">
        <ele>324.445</ele>
        <time>2017-04-01T04:11:23Z</time>
      </trkpt>
      <trkpt lat="46.86704" lon="4.68424">
        <ele>325.199</ele>
        <time>2017-04-01T04:11:43Z</time>
      </trkpt>
      <trkpt lat="46.86673" lon="4.68574">
        <ele>317.986</ele>
        <time>2017-04-01T04:12:03Z</time>
      </trkpt>
      <trkpt lat="46.86661" lon="4.68674">
        <ele>316.76</ele>
        <time>2017-04-01T04:12:23Z</time>
      </trkpt>
      <trkpt lat="46.86659" lon="4.68762">
        <ele>324.326</ele>
        <time>2017-04-01T04:12:43Z</time>
      </trkpt>
      <trkpt lat="46.86671" lon="4.68769">
        <ele>323.408</ele>
        <time>2017-04-01T04:13:03Z</time>
      </trkpt>
      <trkpt lat="46.86664" lon="4.68794">
        <ele>327.784</ele>
        <time>2017-04-01T04:13:23Z</time>
      </trkpt>
      <trkpt lat="46.86629" lon="4.68802">
        <ele>333.179</ele>
        <time>2017-04-01T04:13:43Z</time>
      </trkpt>
      <trkpt lat="46.86583" lon="4.68789">
        <ele>332.19</ele>
        <time>2017-04-01T04:14:03Z</time>
      </trkpt>
      <trkpt lat="46.8649" lon="4.68795">
        <ele>344.725</ele>
        <time>2017-04-01T04:14:23Z</time>
      </trkpt>
      <trkpt lat="46.8634" lon="4.68875">
        <ele>362.054</ele>
        <time>2017-04-01T04:14:43Z</time>
      </trkpt>
      <trkpt lat="46.8629" lon="4.68944">
        <ele>367.917</ele>
        <time>2017-04-01T04:15:03Z</time>
      </trkpt>
      <trkpt lat="46.86259" lon="4.69011">
        <ele>372.194</ele>
        <time>2017-04-01T04:15:23Z</time>
      </trkpt>
      <trkpt lat="46.86182" lon="4.69079">
        <ele>371.478</ele>
        <time>2017-04-01T04:15:43Z</time>
      </trkpt>
      <trkpt lat="46.86167" lon="4.69115">
        <ele>372.224</ele>
        <time>2017-04-01T04:16:03Z</time>
      </trkpt>
      <trkpt lat="46.86168" lon="4.69151">
        <ele>373.604</ele>
        <time>2017-04-01T04:16:23Z</time>
      </trkpt>
      <trkpt lat="46.86063" lon="4.6932">
        <ele>380.514</ele>
        <time>2017-04-01T04:16:43Z</time>
      </trkpt>
      <trkpt lat="46.86019" lon="4.69324">
        <ele>383.708</ele>
        <time>2017-04-01T04:17:03Z</time>
      </trkpt>
      <trkpt lat="46.86007" lon="4.69339">
        <ele>384.628</ele>
        <time>2017-04-01T04:17:23Z</time>
      </trkpt>
      <trkpt lat="46.85859" lon="4.69237">
        <ele>388.173</ele>
        <time>2017-04-01T04:17:43Z</time>
      </trkpt>
      <trkpt lat="46.85746" lon="4.69169">
        <ele>395.994</ele>
        <time>2017-04-01T04:18:03Z</time>
      </trkpt>
      <trkpt lat="46.85693" lon="4.69141">
        <ele>395.959</ele>
        <time>2017-04-01T04:18:23Z</time>
      </trkpt>
      <trkpt lat="46.85625" lon="4.69096">
        <ele>398.128</ele>
        <time>2017-04-01T04:18:43Z</time>
      </trkpt>
      <trkpt lat="46.8553" lon="4.69075">
        <ele>397.191</ele>
        <time>2017-04-01T04:19:03Z</time>
      </trkpt>
      <trkpt lat="46.85424" lon="4.69033">
        <ele>400.018</ele>
        <time>2017-04-01T04:19:23Z</time>
      </trkpt>
      <trkpt lat="46.85378" lon="4.69008">
        <ele>397.962</ele>
        <time>2017-04-01T04:19:43Z</time>
      </trkpt>
      <trkpt lat="46.85292" lon="4.68973">
        <ele>397.073</ele>
        <time>2017-04-01T04:20:03Z</time>
      </trkpt>
      <trkpt lat="46.85138" lon="4.68875">
        <ele>393.085</ele>
        <time>2017-04-01T04:20:23Z</time>
      </trkpt>
      <trkpt lat="46.85124" lon="4.68848">
        <ele>392.913</ele>
        <time>2017-04-01T04:20:43Z</time>
      </trkpt>
      <trkpt lat="46.8512" lon="4.68773">
        <ele>391.608</ele>
        <time>2017-04-01T04:21:03Z</time>
      </trkpt>
      <trkpt lat="46.8512" lon="4.68688">
        <ele>385.933</ele>
        <time>2017-04-01T04:21:23Z</time>
      </trkpt>
      <trkpt lat="46.85108" lon="4.68674">
        <ele>385.778</ele>
        <time>2017-04-01T04:21:43Z</time>
      </trkpt>
      <trkpt lat="46.85078" lon="4.6867">
        <ele>386.049</ele>
        <time>2017-04-01T04:22:03Z</time>
      </trkpt>
      <trkpt lat="46.84973" lon="4.6869">
        <ele>385.044</ele>
        <time>2017-04-01T04:22:23Z</time>
      </trkpt>
      <trkpt lat="46.8492" lon="4.68682">
        <ele>384.013</ele>
        <time>2017-04-01T04:22:43Z</time>
      </trkpt>
      <trkpt lat="46.84891" lon="4.68643">
        <ele>384.146</ele>
        <time>2017-04-01T04:23:03Z</time>
      </trkpt>
      <trkpt lat="46.84823" lon="4.68609">
        <ele>383.983</ele>
        <time>2017-04-01T04:23:23Z</time>
      </trkpt>
      <trkpt lat="46.84676" lon="4.68514">
        <ele>374.737</ele>
        <time>2020-11-29T00:52:48Z</time>
      </trkpt>
      <trkpt lat="46.84644" lon="4.68518">
        <ele>369.549</ele>
        <time>2020-11-29T00:53:08Z</time>
      </trkpt>
      <trkpt lat="46.84655" lon="4.6858">
        <ele>371.102</ele>
        <time>2020-11-29T00:53:28Z</time>
      </trkpt>
      <trkpt lat="46.84689" lon="4.68662">
        <ele>374.022</ele>
        <time>2020-11-29T00:53:48Z</time>
      </trkpt>
      <trkpt lat="46.84679" lon="4.68772">
        <ele>369.008</ele>
        <time>2020-11-29T00:54:08Z</time>
      </trkpt>
      <trkpt lat="46.84662" lon="4.68784">
        <ele>366.97</ele>
        <time>2017-04-01T04:25:43Z</time>
      </trkpt>
      <trkpt lat="46.84595" lon="4.68934">
        <ele>342.475</ele>
        <time>2017-04-01T04:26:03Z</time>
      </trkpt>
      <trkpt lat="46.84614" lon="4.68985">
        <ele>338.576</ele>
        <time>2017-04-01T04:26:23Z</time>
      </trkpt>
      <trkpt lat="46.84625" lon="4.69047">
        <ele>329.961</ele>
        <time>2017-04-01T04:26:43Z</time>
      </trkpt>
      <trkpt lat="46.84615" lon="4.69074">
        <ele>327.67</ele>
        <time>2017-04-01T04:27:03Z</time>
      </trkpt>
      <trkpt lat="46.84552" lon="4.69121">
        <ele>321.923</ele>
        <time>2017-04-01T04:27:23Z</time>
      </trkpt>
      <trkpt lat="46.84525" lon="4.69122">
        <ele>318.56</ele>
        <time>2017-04-01T04:27:43Z</time>
      </trkpt>
      <trkpt lat="46.84478" lon="4.69102">
        <ele>314.254</ele>
        <time>2017-04-01T04:28:03Z</time>
      </trkpt>
      <trkpt lat="46.84434" lon="4.69103">
        <ele>308.191</ele>
        <time>2017-04-01T04:28:23Z</time>
      </trkpt>
      <trkpt lat="46.84396" lon="4.69118">
        <ele>304.681</ele>
        <time>2017-04-01T04:28:43Z</time>
      </trkpt>
      <trkpt lat="46.84376" lon="4.69139">
        <ele>301.019</ele>
        <time>2017-04-01T04:29:03Z</time>
      </trkpt>
      <trkpt lat="46.84357" lon="4.6915">
        <ele>298.708</ele>
        <time>2017-04-01T04:29:23Z</time>
      </trkpt>
      <trkpt lat="46.84325" lon="4.69182">
        <ele>293.185</ele>
        <time>2017-04-01T04:29:43Z</time>
      </trkpt>
      <trkpt lat="46.84309" lon="4.69265">
        <ele>288.32</ele>
        <time>2017-04-01T04:30:03Z</time>
      </trkpt>
      <trkpt lat="46.84274" lon="4.69279">
        <ele>288.481</ele>
        <time>2017-04-01T04:30:23Z</time>
      </trkpt>
      <trkpt lat="46.84225" lon="4.69259">
        <ele>291.126</ele>
        <time>2017-04-01T04:30:43Z</time>
      </trkpt>
      <trkpt lat="46.84186" lon="4.69256">
        <ele>294.935</ele>
        <time>2017-04-01T04:31:03Z</time>
      </trkpt>
      <trkpt lat="46.84151" lon="4.69242">
        <ele>296.638</ele>
        <time>2017-04-01T04:31:23Z</time>
      </trkpt>
      <trkpt lat="46.8413" lon="4.69241">
        <ele>298.565</ele>
        <time>2017-04-01T04:31:43Z</time>
      </trkpt>
      <trkpt lat="46.84056" lon="4.69261">
        <ele>308.149</ele>
        <time>2017-04-01T04:32:03Z</time>
      </trkpt>
      <trkpt lat="46.84024" lon="4.69261">
        <ele>311.291</ele>
        <time>2017-04-01T04:32:23Z</time>
      </trkpt>
      <trkpt lat="46.83981" lon="4.6927">
        <ele>316.481</ele>
        <time>2017-04-01T04:32:43Z</time>
      </trkpt>
      <trkpt lat="46.83942" lon="4.69287">
        <ele>320.019</ele>
        <time>2017-04-01T04:33:03Z</time>
      </trkpt>
      <trkpt lat="46.8377" lon="4.69469">
        <ele>316.708</ele>
        <time>2017-04-01T04:33:23Z</time>
      </trkpt>
      <trkpt lat="46.83721" lon="4.69549">
        <ele>310.995</ele>
        <time>2017-04-01T04:33:43Z</time>
      </trkpt>
      <trkpt lat="46.837" lon="4.69631">
        <ele>300.08</ele>
        <time>2017-04-01T04:34:03Z</time>
      </trkpt>
      <trkpt lat="46.83647" lon="4.6969">
        <ele>289.431</ele>
        <time>2017-04-01T04:34:23Z</time>
      </trkpt>
      <trkpt lat="46.83612" lon="4.69752">
        <ele>280.956</ele>
        <time>2017-04-01T04:34:43Z</time>
      </trkpt>
      <trkpt lat="46.83457" lon="4.69838">
        <ele>274.215</ele>
        <time>2017-04-01T04:35:03Z</time>
      </trkpt>
      <trkpt lat="46.83481" lon="4.69946">
        <ele>273.148</ele>
        <time>2017-04-01T04:35:23Z</time>
      </trkpt>
      <trkpt lat="46.83473" lon="4.69947">
        <ele>274.175</ele>
        <time>2017-04-01T04:35:43Z</time>
      </trkpt>
      <trkpt lat="46.83418" lon="4.69804">
        <ele>279.769</ele>
        <time>2017-04-01T04:36:03Z</time>
      </trkpt>
      <trkpt lat="46.83362" lon="4.69737">
        <ele>282.655</ele>
        <time>2017-04-01T04:36:23Z</time>
      </trkpt>
      <trkpt lat="46.83335" lon="4.6971">
        <ele>280.107</ele>
        <time>2017-04-01T04:36:43Z</time>
      </trkpt>
      <trkpt lat="46.83312" lon="4.69667">
        <ele>278.817</ele>
        <time>2017-04-01T04:37:03Z</time>
      </trkpt>
      <trkpt lat="46.83312" lon="4.69684">
        <ele>279.408</ele>
        <time>2017-04-01T04:37:23Z</time>
      </trkpt>
      <trkpt lat="46.83298" lon="4.6971">
        <ele>282.331</ele>
        <time>2017-04-01T04:37:43Z</time>
      </trkpt>
      <trkpt lat="46.83294" lon="4.69732">
        <ele>284.846</ele>
        <time>2017-04-01T04:38:03Z</time>
      </trkpt>
      <trkpt lat="46.83279" lon="4.69759">
        <ele>289.197</ele>
        <time>2017-04-01T04:38:23Z</time>
      </trkpt>
      <trkpt lat="46.83272" lon="4.69792">
        <ele>291.142</ele>
        <time>2017-04-01T04:38:43Z</time>
      </trkpt>
      <trkpt lat="46.83267" lon="4.69827">
        <ele>292.241</ele>
        <time>2017-04-01T04:39:03Z</time>
      </trkpt>
      <trkpt lat="46.83255" lon="4.69887">
        <ele>295.824</ele>
        <time>2017-04-01T04:39:23Z</time>
      </trkpt>
      <trkpt lat="46.83213" lon="4.69984">
        <ele>301.121</ele>
        <time>2017-04-01T04:39:43Z</time>
      </trkpt>
      <trkpt lat="46.83189" lon="4.70046">
        <ele>304.355</ele>
        <time>2017-04-01T04:40:03Z</time>
      </trkpt>
      <trkpt lat="46.83164" lon="4.70118">
        <ele>307.181</ele>
        <time>2017-04-01T04:40:23Z</time>
      </trkpt>
      <trkpt lat="46.83149" lon="4.70141">
        <ele>308.461</ele>
        <time>2017-04-01T04:40:43Z</time>
      </trkpt>
      <trkpt lat="46.83129" lon="4.70202">
        <ele>311.917</ele>
        <time>2017-04-01T04:41:03Z</time>
      </trkpt>
      <trkpt lat="46.831" lon="4.70263">
        <ele>316.508</ele>
        <time>2017-04-01T04:41:23Z</time>
      </trkpt>
      <trkpt lat="46.83077" lon="4.70319">
        <ele>320.184</ele>
        <time>2017-04-01T04:41:43Z</time>
      </trkpt>
      <trkpt lat="46.83057" lon="4.7036">
        <ele>321.049</ele>
        <time>2017-04-01T04:42:03Z</time>
      </trkpt>
      <trkpt lat="46.83051" lon="4.70388">
        <ele>322.34</ele>
        <time>2017-04-01T04:42:23Z</time>
      </trkpt>
      <trkpt lat="46.83031" lon="4.70431">
        <ele>325.485</ele>
        <time>2017-04-01T04:42:43Z</time>
      </trkpt>
      <trkpt lat="46.83001" lon="4.70481">
        <ele>328.354</ele>
        <time>2017-04-01T04:43:03Z</time>
      </trkpt>
      <trkpt lat="46.82979" lon="4.70527">
        <ele>328.827</ele>
        <time>2017-04-01T04:43:23Z</time>
      </trkpt>
      <trkpt lat="46.82965" lon="4.70569">
        <ele>328.884</ele>
        <time>2017-04-01T04:43:43Z</time>
      </trkpt>
      <trkpt lat="46.82948" lon="4.7065">
        <ele>326.258</ele>
        <time>2017-04-01T04:44:03Z</time>
      </trkpt>
      <trkpt lat="46.82862" lon="4.7066">
        <ele>329.298</ele>
        <time>2017-04-01T04:44:23Z</time>
      </trkpt>
      <trkpt lat="46.82789" lon="4.7066">
        <ele>330.915</ele>
        <time>2017-04-01T04:44:43Z</time>
      </trkpt>
      <trkpt lat="46.82773" lon="4.7067">
        <ele>330.826</ele>
        <time>2017-04-01T04:45:03Z</time>
      </trkpt>
      <trkpt lat="46.82742" lon="4.70709">
        <ele>330.208</ele>
        <time>2017-04-01T04:45:23Z</time>
      </trkpt>
      <trkpt lat="46.82668" lon="4.70845">
        <ele>329.175</ele>
        <time>2017-04-01T04:45:43Z</time>
      </trkpt>
      <trkpt lat="46.82628" lon="4.70889">
        <ele>323.27</ele>
        <time>2017-04-01T04:46:03Z</time>
      </trkpt>
      <trkpt lat="46.82577" lon="4.70917">
        <ele>319.071</ele>
        <time>2017-04-01T04:46:23Z</time>
      </trkpt>
      <trkpt lat="46.82541" lon="4.70945">
        <ele>317.936</ele>
        <time>2017-04-01T04:46:43Z</time>
      </trkpt>
      <trkpt lat="46.82529" lon="4.7097">
        <ele>317.135</ele>
        <time>2017-04-01T04:47:03Z</time>
      </trkpt>
      <trkpt lat="46.82484" lon="4.71018">
        <ele>313.588</ele>
        <time>2017-04-01T04:47:23Z</time>
      </trkpt>
      <trkpt lat="46.82444" lon="4.71076">
        <ele>314.355</ele>
        <time>2017-04-01T04:47:43Z</time>
      </trkpt>
      <trkpt lat="46.82428" lon="4.71118">
        <ele>316.159</ele>
        <time>2017-04-01T04:48:03Z</time>
      </trkpt>
      <trkpt lat="46.82402" lon="4.71165">
        <ele>320.987</ele>
        <time>2017-04-01T04:48:23Z</time>
      </trkpt>
      <trkpt lat="46.82391" lon="4.71223">
        <ele>318.242</ele>
        <time>2017-04-01T04:48:43Z</time>
      </trkpt>
      <trkpt lat="46.82381" lon="4.71292">
        <ele>306.626</ele>
        <time>2017-04-01T04:49:03Z</time>
      </trkpt>
      <trkpt lat="46.82299" lon="4.71278">
        <ele>297.008</ele>
        <time>2017-04-01T04:49:23Z</time>
      </trkpt>
      <trkpt lat="46.82199" lon="4.7123">
        <ele>293.554</ele>
        <time>2017-04-01T04:49:43Z</time>
      </trkpt>
      <trkpt lat="46.82125" lon="4.71214">
        <ele>288.189</ele>
        <time>2017-04-01T04:50:03Z</time>
      </trkpt>
      <trkpt lat="46.82018" lon="4.71186">
        <ele>287.33</ele>
        <time>2017-04-01T04:50:23Z</time>
      </trkpt>
      <trkpt lat="46.81897" lon="4.7109">
        <ele>288.915</ele>
        <time>2017-04-01T04:50:43Z</time>
      </trkpt>
      <trkpt lat="46.8185" lon="4.71081">
        <ele>286.944</ele>
        <time>2017-04-01T04:51:03Z</time>
      </trkpt>
      <trkpt lat="46.81712" lon="4.71013">
        <ele>276.157</ele>
        <time>2017-04-01T04:51:23Z</time>
      </trkpt>
      <trkpt lat="46.81636" lon="4.71044">
        <ele>263.674</ele>
        <time>2017-04-01T04:51:43Z</time>
      </trkpt>
      <trkpt lat="46.81617" lon="4.7104">
        <ele>262.978</ele>
        <time>2017-04-01T04:52:03Z</time>
      </trkpt>
      <trkpt lat="46.81589" lon="4.71069">
        <ele>258.467</ele>
        <time>2017-04-01T04:52:23Z</time>
      </trkpt>
      <trkpt lat="46.81556" lon="4.71186">
        <ele>253.081</ele>
        <time>2017-04-01T04:52:43Z</time>
      </trkpt>
      <trkpt lat="46.81578" lon="4.71241">
        <ele>251.319</ele>
        <time>2017-04-01T04:53:03Z</time>
      </trkpt>
      <trkpt lat="46.81557" lon="4.71288">
        <ele>248.908</ele>
        <time>2017-04-01T04:53:23Z</time>
      </trkpt>
      <trkpt lat="46.81546" lon="4.71359">
        <ele>244.722</ele>
        <time>2017-04-01T04:53:43Z</time>
      </trkpt>
      <trkpt lat="46.81531" lon="4.71395">
        <ele>243.017</ele>
        <time>2017-04-01T04:54:03Z</time>
      </trkpt>
      <trkpt lat="46.81543" lon="4.71408">
        <ele>243.098</ele>
        <time>2017-04-01T04:54:23Z</time>
      </trkpt>
      <trkpt lat="46.8151" lon="4.71461">
        <ele>240.473</ele>
        <time>2017-04-01T04:54:43Z</time>
      </trkpt>
      <trkpt lat="46.81483" lon="4.71543">
        <ele>236.692</ele>
        <time>2017-04-01T04:55:03Z</time>
      </trkpt>
      <trkpt lat="46.81382" lon="4.71635">
        <ele>230.135</ele>
        <time>2017-04-01T04:55:23Z</time>
      </trkpt>
      <trkpt lat="46.81311" lon="4.71727">
        <ele>230.992</ele>
        <time>2017-04-01T04:55:43Z</time>
      </trkpt>
      <trkpt lat="46.81264" lon="4.71774">
        <ele>229.196</ele>
        <time>2017-04-01T04:56:03Z</time>
      </trkpt>
      <trkpt lat="46.81191" lon="4.71833">
        <ele>220.856</ele>
        <time>2017-04-01T04:56:23Z</time>
      </trkpt>
      <trkpt lat="46.812" lon="4.71878">
        <ele>218.459</ele>
        <time>2017-04-01T04:56:43Z</time>
      </trkpt>
      <trkpt lat="46.81187" lon="4.71916">
        <ele>214.714</ele>
        <time>2017-04-01T04:57:03Z</time>
      </trkpt>
      <trkpt lat="46.81094" lon="4.71987">
        <ele>217.108</ele>
        <time>2017-04-01T04:57:23Z</time>
      </trkpt>
      <trkpt lat="46.81101" lon="4.72065">
        <ele>217.751</ele>
        <time>2017-04-01T04:57:43Z</time>
      </trkpt>
      <trkpt lat="46.8108" lon="4.72057">
        <ele>220.736</ele>
        <time>2017-04-01T04:58:03Z</time>
      </trkpt>
      <trkpt lat="46.81066" lon="4.72025">
        <ele>221.777</ele>
        <time>2017-04-01T04:58:23Z</time>
      </trkpt>
      <trkpt lat="46.81045" lon="4.72012">
        <ele>223.482</ele>
        <time>2017-04-01T04:58:43Z</time>
      </trkpt>
      <trkpt lat="46.80991" lon="4.72013">
        <ele>230.921</ele>
        <time>2017-04-01T04:59:03Z</time>
      </trkpt>
      <trkpt lat="46.80942" lon="4.71992">
        <ele>234.514</ele>
        <time>2017-04-01T04:59:23Z</time>
      </trkpt>
      <trkpt lat="46.8085" lon="4.71928">
        <ele>238.291</ele>
        <time>2017-04-01T04:59:43Z</time>
      </trkpt>
      <trkpt lat="46.80808" lon="4.71922">
        <ele>244.445</ele>
        <time>2017-04-01T05:00:03Z</time>
      </trkpt>
      <trkpt lat="46.80753" lon="4.71889">
        <ele>247.424</ele>
        <time>2017-04-01T05:00:23Z</time>
      </trkpt>
      <trkpt lat="46.80651" lon="4.7185">
        <ele>258.704</ele>
        <time>2017-04-01T05:00:43Z</time>
      </trkpt>
      <trkpt lat="46.80567" lon="4.718">
        <ele>262.914</ele>
        <time>2017-04-01T05:01:03Z</time>
      </trkpt>
      <trkpt lat="46.80522" lon="4.71772">
        <ele>267.708</ele>
        <time>2017-04-01T05:01:23Z</time>
      </trkpt>
      <trkpt lat="46.80483" lon="4.71765">
        <ele>274.418</ele>
        <time>2017-04-01T05:01:43Z</time>
      </trkpt>
      <trkpt lat="46.8045" lon="4.71716">
        <ele>277.273</ele>
        <time>2017-04-01T05:02:03Z</time>
      </trkpt>
      <trkpt lat="46.80415" lon="4.71691">
        <ele>282.084</ele>
        <time>2017-04-01T05:02:23Z</time>
      </trkpt>
      <trkpt lat="46.80354" lon="4.71667">
        <ele>289.719</ele>
        <time>2017-04-01T05:02:43Z</time>
      </trkpt>
      <trkpt lat="46.80304" lon="4.71664">
        <ele>295.058</ele>
        <time>2017-04-01T05:03:03Z</time>
      </trkpt>
      <trkpt lat="46.80228" lon="4.71646">
        <ele>303.541</ele>
        <time>2017-04-01T05:03:23Z</time>
      </trkpt>
      <trkpt lat="46.80168" lon="4.71645">
        <ele>306.588</ele>
        <time>2017-04-01T05:03:43Z</time>
      </trkpt>
      <trkpt lat="46.80097" lon="4.71632">
        <ele>309.562</ele>
        <time>2017-04-01T05:04:03Z</time>
      </trkpt>
      <trkpt lat="46.80057" lon="4.7163">
        <ele>314.198</ele>
        <time>2017-04-01T05:04:23Z</time>
      </trkpt>
      <trkpt lat="46.79898" lon="4.71569">
        <ele>339.015</ele>
        <time>2017-04-01T05:04:43Z</time>
      </trkpt>
      <trkpt lat="46.79841" lon="4.71554">
        <ele>346.026</ele>
        <time>2017-04-01T05:05:03Z</time>
      </trkpt>
      <trkpt lat="46.79765" lon="4.71563">
        <ele>354.208</ele>
        <time>2017-04-01T05:05:23Z</time>
      </trkpt>
      <trkpt lat="46.79727" lon="4.71563">
        <ele>355.675</ele>
        <time>2017-04-01T05:05:43Z</time>
      </trkpt>
      <trkpt lat="46.79677" lon="4.71541">
        <ele>353.91</ele>
        <time>2017-04-01T05:06:03Z</time>
      </trkpt>
      <trkpt lat="46.79669" lon="4.71513">
        <ele>354.771</ele>
        <time>2017-04-01T05:06:23Z</time>
      </trkpt>
      <trkpt lat="46.79694" lon="4.71375">
        <ele>362.576</ele>
        <time>2017-04-01T05:06:43Z</time>
      </trkpt>
      <trkpt lat="46.79687" lon="4.7136">
        <ele>364.265</ele>
        <time>2017-04-01T05:07:03Z</time>
      </trkpt>
      <trkpt lat="46.79631" lon="4.7132">
        <ele>366.028</ele>
        <time>2017-04-01T05:07:23Z</time>
      </trkpt>
      <trkpt lat="46.79598" lon="4.71263">
        <ele>371.615</ele>
        <time>2017-04-01T05:07:43Z</time>
      </trkpt>
      <trkpt lat="46.79574" lon="4.71244">
        <ele>372.129</ele>
        <time>2017-04-01T05:08:03Z</time>
      </trkpt>
      <trkpt lat="46.79558" lon="4.71189">
        <ele>373.117</ele>
        <time>2017-04-01T05:08:23Z</time>
      </trkpt>
      <trkpt lat="46.79528" lon="4.7113">
        <ele>378.387</ele>
        <time>2017-04-01T05:08:43Z</time>
      </trkpt>
      <trkpt lat="46.79513" lon="4.71081">
        <ele>380.615</ele>
        <time>2017-04-01T05:09:03Z</time>
      </trkpt>
      <trkpt lat="46.79514" lon="4.71045">
        <ele>380.608</ele>
        <time>2017-04-01T05:09:23Z</time>
      </trkpt>
      <trkpt lat="46.7955" lon="4.7097">
        <ele>379.027</ele>
        <time>2017-04-01T05:09:43Z</time>
      </trkpt>
      <trkpt lat="46.79581" lon="4.70925">
        <ele>378.652</ele>
        <time>2017-04-01T05:10:03Z</time>
      </trkpt>
      <trkpt lat="46.79579" lon="4.70904">
        <ele>377.533</ele>
        <time>2017-04-01T05:10:23Z</time>
      </trkpt>
      <trkpt lat="46.7955" lon="4.70886">
        <ele>376.928</ele>
        <time>2017-04-01T05:10:43Z</time>
      </trkpt>
      <trkpt lat="46.79515" lon="4.70857">
        <ele>379.017</ele>
        <time>2017-04-01T05:11:03Z</time>
      </trkpt>
      <trkpt lat="46.79446" lon="4.70835">
        <ele>387.84</ele>
        <time>2017-04-01T05:11:23Z</time>
      </trkpt>
      <trkpt lat="46.79377" lon="4.70799">
        <ele>392.797</ele>
        <time>2017-04-01T05:11:43Z</time>
      </trkpt>
      <trkpt lat="46.79319" lon="4.70778">
        <ele>397.021</ele>
        <time>2017-04-01T05:12:03Z</time>
      </trkpt>
      <trkpt lat="46.79252" lon="4.70735">
        <ele>401.481</ele>
        <time>2017-04-01T05:12:23Z</time>
      </trkpt>
      <trkpt lat="46.79179" lon="4.707">
        <ele>406.461</ele>
        <time>2017-04-01T05:12:43Z</time>
      </trkpt>
      <trkpt lat="46.79123" lon="4.70656">
        <ele>409.617</ele>
        <time>2017-04-01T05:13:03Z</time>
      </trkpt>
      <trkpt lat="46.79064" lon="4.70648">
        <ele>412.008</ele>
        <time>2017-04-01T05:13:23Z</time>
      </trkpt>
      <trkpt lat="46.78978" lon="4.70606">
        <ele>416.054</ele>
        <time>2017-04-01T05:13:43Z</time>
      </trkpt>
      <trkpt lat="46.78937" lon="4.70609">
        <ele>418.839</ele>
        <time>2017-04-01T05:14:03Z</time>
      </trkpt>
      <trkpt lat="46.78895" lon="4.70621">
        <ele>421.94</ele>
        <time>2017-04-01T05:14:23Z</time>
      </trkpt>
      <trkpt lat="46.78838" lon="4.70657">
        <ele>426.185</ele>
        <time>2017-04-01T05:14:43Z</time>
      </trkpt>
      <trkpt lat="46.78743" lon="4.70737">
        <ele>430.954</ele>
        <time>2017-04-01T05:15:03Z</time>
      </trkpt>
      <trkpt lat="46.78616" lon="4.70689">
        <ele>434.047</ele>
        <time>2020-11-29T01:44:08Z</time>
      </trkpt>
      <trkpt lat="46.78513" lon="4.70718">
        <ele>430.114</ele>
        <time>2020-11-29T01:44:28Z</time>
      </trkpt>
      <trkpt lat="46.78415" lon="4.70755">
        <ele>417.968</ele>
        <time>2020-11-29T01:44:48Z</time>
      </trkpt>
      <trkpt lat="46.78317" lon="4.70735">
        <ele>405.399</ele>
        <time>2017-04-01T05:17:23Z</time>
      </trkpt>
      <trkpt lat="46.78274" lon="4.70683">
        <ele>401.707</ele>
        <time>2017-04-01T05:17:43Z</time>
      </trkpt>
      <trkpt lat="46.78219" lon="4.70659">
        <ele>396.327</ele>
        <time>2017-04-01T05:18:03Z</time>
      </trkpt>
      <trkpt lat="46.78201" lon="4.70622">
        <ele>397.008</ele>
        <time>2017-04-01T05:18:23Z</time>
      </trkpt>
      <trkpt lat="46.78183" lon="4.70621">
        <ele>392.975</ele>
        <time>2017-04-01T05:18:43Z</time>
      </trkpt>
      <trkpt lat="46.78158" lon="4.7064">
        <ele>384.73</ele>
        <time>2017-04-01T05:19:03Z</time>
      </trkpt>
      <trkpt lat="46.78132" lon="4.70639">
        <ele>380.861</ele>
        <time>2017-04-01T05:19:23Z</time>
      </trkpt>
      <trkpt lat="46.78112" lon="4.70634">
        <ele>377.976</ele>
        <time>2017-04-01T05:19:43Z</time>
      </trkpt>
      <trkpt lat="46.78054" lon="4.70644">
        <ele>371.785</ele>
        <time>2017-04-01T05:20:03Z</time>
      </trkpt>
      <trkpt lat="46.77986" lon="4.70604">
        <ele>370.778</ele>
        <time>2017-04-01T05:20:23Z</time>
      </trkpt>
      <trkpt lat="46.7794" lon="4.70561">
        <ele>374.735</ele>
        <time>2017-04-01T05:20:43Z</time>
      </trkpt>
      <trkpt lat="46.77898" lon="4.70558">
        <ele>376.129</ele>
        <time>2017-04-01T05:21:03Z</time>
      </trkpt>
      <trkpt lat="46.7786" lon="4.70572">
        <ele>373.096</ele>
        <time>2017-04-01T05:21:23Z</time>
      </trkpt>
      <trkpt lat="46.77776" lon="4.7056">
        <ele>369.531</ele>
        <time>2017-04-01T05:21:43Z</time>
      </trkpt>
      <trkpt lat="46.77759" lon="4.70591">
        <ele>365.724</ele>
        <time>2017-04-01T05:22:03Z</time>
      </trkpt>
      <trkpt lat="46.77713" lon="4.70597">
        <ele>366.508</ele>
        <time>2017-04-01T05:22:23Z</time>
      </trkpt>
      <trkpt lat="46.77597" lon="4.7069">
        <ele>365.485</ele>
        <time>2017-04-01T05:22:43Z</time>
      </trkpt>
      <trkpt lat="46.77554" lon="4.70704">
        <ele>359.97</ele>
        <time>2017-04-01T05:23:03Z</time>
      </trkpt>
      <trkpt lat="46.77528" lon="4.70706">
        <ele>355.281</ele>
        <time>2017-04-01T05:23:23Z</time>
      </trkpt>
      <trkpt lat="46.77481" lon="4.70718">
        <ele>345.386</ele>
        <time>2017-04-01T05:23:43Z</time>
      </trkpt>
      <trkpt lat="46.77416" lon="4.70753">
        <ele>330.245</ele>
        <time>2017-04-01T05:24:03Z</time>
      </trkpt>
      <trkpt lat="46.77341" lon="4.70707">
        <ele>313.088</ele>
        <time>2017-04-01T05:24:23Z</time>
      </trkpt>
      <trkpt lat="46.77339" lon="4.7064">
        <ele>308.115</ele>
        <time>2017-04-01T05:24:43Z</time>
      </trkpt>
      <trkpt lat="46.77326" lon="4.70595">
        <ele>305.189</ele>
        <time>2017-04-01T05:25:03Z</time>
      </trkpt>
      <trkpt lat="46.77302" lon="4.70544">
        <ele>298.673</ele>
        <time>2017-04-01T05:25:23Z</time>
      </trkpt>
      <trkpt lat="46.77312" lon="4.70485">
        <ele>296.385</ele>
        <time>2017-04-01T05:25:43Z</time>
      </trkpt>
      <trkpt lat="46.77312" lon="4.70444">
        <ele>295.413</ele>
        <time>2017-04-01T05:26:03Z</time>
      </trkpt>
      <trkpt lat="46.77295" lon="4.7039">
        <ele>290.808</ele>
        <time>2017-04-01T05:26:23Z</time>
      </trkpt>
      <trkpt lat="46.77228" lon="4.70213">
        <ele>280.153</ele>
        <time>2017-04-01T05:26:43Z</time>
      </trkpt>
      <trkpt lat="46.7723" lon="4.7005">
        <ele>274.078</ele>
        <time>2017-04-01T05:27:03Z</time>
      </trkpt>
      <trkpt lat="46.77241" lon="4.69849">
        <ele>269.659</ele>
        <time>2017-04-01T05:27:23Z</time>
      </trkpt>
      <trkpt lat="46.7725" lon="4.69746">
        <ele>271.024</ele>
        <time>2017-04-01T05:27:43Z</time>
      </trkpt>
      <trkpt lat="46.77191" lon="4.69693">
        <ele>266.893</ele>
        <time>2017-04-01T05:28:03Z</time>
      </trkpt>
      <trkpt lat="46.77222" lon="4.69456">
        <ele>271.656</ele>
        <time>2017-04-01T05:28:23Z</time>
      </trkpt>
      <trkpt lat="46.77203" lon="4.69393">
        <ele>274.283</ele>
        <time>2017-04-01T05:28:43Z</time>
      </trkpt>
      <trkpt lat="46.77158" lon="4.69374">
        <ele>277.987</ele>
        <time>2017-04-01T05:29:03Z</time>
      </trkpt>
      <trkpt lat="46.77102" lon="4.69367">
        <ele>284.599</ele>
        <time>2017-04-01T05:29:23Z</time>
      </trkpt>
      <trkpt lat="46.77073" lon="4.69467">
        <ele>282.907</ele>
        <time>2017-04-01T05:29:43Z</time>
      </trkpt>
      <trkpt lat="46.76988" lon="4.69438">
        <ele>288.627</ele>
        <time>2017-04-01T05:30:03Z</time>
      </trkpt>
      <trkpt lat="46.76933" lon="4.69416">
        <ele>295.808</ele>
        <time>2017-04-01T05:30:23Z</time>
      </trkpt>
      <trkpt lat="46.76823" lon="4.69421">
        <ele>311.755</ele>
        <time>2017-04-01T05:30:43Z</time>
      </trkpt>
      <trkpt lat="46.76795" lon="4.69389">
        <ele>320.55</ele>
        <time>2017-04-01T05:31:03Z</time>
      </trkpt>
      <trkpt lat="46.76729" lon="4.69426">
        <ele>337.031</ele>
        <time>2017-04-01T05:31:23Z</time>
      </trkpt>
      <trkpt lat="46.76702" lon="4.69453">
        <ele>345.546</ele>
        <time>2017-04-01T05:31:43Z</time>
      </trkpt>
      <trkpt lat="46.76687" lon="4.69492">
        <ele>350.115</ele>
        <time>2017-04-01T05:32:03Z</time>
      </trkpt>
      <trkpt lat="46.76674" lon="4.69575">
        <ele>354.368</ele>
        <time>2017-04-01T05:32:23Z</time>
      </trkpt>
      <trkpt lat="46.76677" lon="4.69639">
        <ele>354.165</ele>
        <time>2017-04-01T05:32:43Z</time>
      </trkpt>
      <trkpt lat="46.76683" lon="4.69678">
        <ele>354.529</ele>
        <time>2017-04-01T05:33:03Z</time>
      </trkpt>
      <trkpt lat="46.76673" lon="4.69756">
        <ele>357.314</ele>
        <time>2017-04-01T05:33:23Z</time>
      </trkpt>
      <trkpt lat="46.76655" lon="4.69766">
        <ele>359.054</ele>
        <time>2017-04-01T05:33:43Z</time>
      </trkpt>
      <trkpt lat="46.76628" lon="4.69746">
        <ele>364.409</ele>
        <time>2017-04-01T05:34:03Z</time>
      </trkpt>
      <trkpt lat="46.76609" lon="4.69714">
        <ele>368.008</ele>
        <time>2017-04-01T05:34:23Z</time>
      </trkpt>
      <trkpt lat="46.76455" lon="4.69483">
        <ele>392.727</ele>
        <time>2017-04-01T05:34:43Z</time>
      </trkpt>
      <trkpt lat="46.7643" lon="4.69424">
        <ele>398.232</ele>
        <time>2017-04-01T05:35:03Z</time>
      </trkpt>
      <trkpt lat="46.76372" lon="4.69423">
        <ele>391.463</ele>
        <time>2017-04-01T05:35:23Z</time>
      </trkpt>
      <trkpt lat="46.76325" lon="4.69448">
        <ele>382.968</ele>
        <time>2017-04-01T05:35:43Z</time>
      </trkpt>
      <trkpt lat="46.76126" lon="4.69439">
        <ele>365.577</ele>
        <time>2017-04-01T05:36:03Z</time>
      </trkpt>
      <trkpt lat="46.76077" lon="4.69458">
        <ele>356.15</ele>
        <time>2017-04-01T05:36:23Z</time>
      </trkpt>
      <trkpt lat="46.76037" lon="4.69425">
        <ele>348.587</ele>
        <time>2017-04-01T05:36:43Z</time>
      </trkpt>
      <trkpt lat="46.7599" lon="4.69353">
        <ele>341.121</ele>
        <time>2017-04-01T05:37:03Z</time>
      </trkpt>
      <trkpt lat="46.75925" lon="4.69206">
        <ele>324.835</ele>
        <time>2017-04-01T05:37:23Z</time>
      </trkpt>
      <trkpt lat="46.75895" lon="4.68982">
        <ele>312.386</ele>
        <time>2017-04-01T05:37:43Z</time>
      </trkpt>
      <trkpt lat="46.75872" lon="4.68933">
        <ele>306.214</ele>
        <time>2017-04-01T05:38:03Z</time>
      </trkpt>
      <trkpt lat="46.75856" lon="4.68877">
        <ele>302.008</ele>
        <time>2017-04-01T05:38:23Z</time>
      </trkpt>
      <trkpt lat="46.75764" lon="4.68788">
        <ele>296.089</ele>
        <time>2017-04-01T05:38:43Z</time>
      </trkpt>
      <trkpt lat="46.75737" lon="4.68813">
        <ele>295.924</ele>
        <time>2017-04-01T05:39:03Z</time>
      </trkpt>
      <trkpt lat="46.75681" lon="4.68777">
        <ele>298.025</ele>
        <time>2017-04-01T05:39:23Z</time>
      </trkpt>
      <trkpt lat="46.7562" lon="4.68746">
        <ele>297.69</ele>
        <time>2017-04-01T05:39:43Z</time>
      </trkpt>
      <trkpt lat="46.75509" lon="4.68731">
        <ele>282.969</ele>
        <time>2017-04-01T05:40:03Z</time>
      </trkpt>
      <trkpt lat="46.75487" lon="4.68662">
        <ele>276.652</ele>
        <time>2017-04-01T05:40:23Z</time>
      </trkpt>
      <trkpt lat="46.75491" lon="4.68598">
        <ele>274.979</ele>
        <time>2017-04-01T05:40:43Z</time>
      </trkpt>
      <trkpt lat="46.7546" lon="4.68606">
        <ele>271.643</ele>
        <time>2017-04-01T05:41:03Z</time>
      </trkpt>
      <trkpt lat="46.75384" lon="4.68638">
        <ele>263.633</ele>
        <time>2017-04-01T05:41:23Z</time>
      </trkpt>
      <trkpt lat="46.75282" lon="4.68645">
        <ele>256.823</ele>
        <time>2017-04-01T05:41:43Z</time>
      </trkpt>
      <trkpt lat="46.75247" lon="4.6863">
        <ele>258.315</ele>
        <time>2017-04-01T05:42:03Z</time>
      </trkpt>
      <trkpt lat="46.75142" lon="4.68538">
        <ele>269.308</ele>
        <time>2017-04-01T05:42:23Z</time>
      </trkpt>
      <trkpt lat="46.75116" lon="4.68607">
        <ele>267.989</ele>
        <time>2017-04-01T05:42:43Z</time>
      </trkpt>
      <trkpt lat="46.75085" lon="4.68615">
        <ele>268.754</ele>
        <time>2017-04-01T05:43:03Z</time>
      </trkpt>
      <trkpt lat="46.75043" lon="4.68603">
        <ele>269.675</ele>
        <time>2017-04-01T05:43:23Z</time>
      </trkpt>
      <trkpt lat="46.74988" lon="4.68594">
        <ele>268.86</ele>
        <time>2017-04-01T05:43:43Z</time>
      </trkpt>
      <trkpt lat="46.74925" lon="4.68548">
        <ele>271.169</ele>
        <time>2017-04-01T05:44:03Z</time>
      </trkpt>
      <trkpt lat="46.74875" lon="4.68475">
        <ele>273.322</ele>
        <time>2017-04-01T05:44:23Z</time>
      </trkpt>
      <trkpt lat="46.74896" lon="4.6843">
        <ele>275.719</ele>
        <time>2017-04-01T05:44:43Z</time>
      </trkpt>
      <trkpt lat="46.74839" lon="4.68319">
        <ele>276.693</ele>
        <time>2017-04-01T05:45:03Z</time>
      </trkpt>
      <trkpt lat="46.74876" lon="4.68293">
        <ele>281.823</ele>
        <time>2017-04-01T05:45:23Z</time>
      </trkpt>
      <trkpt lat="46.7501" lon="4.68096">
        <ele>298.383</ele>
        <time>2017-04-01T05:45:43Z</time>
      </trkpt>
      <trkpt lat="46.75035" lon="4.68049">
        <ele>307.511</ele>
        <time>2017-04-01T05:46:03Z</time>
      </trkpt>
      <trkpt lat="46.75073" lon="4.67994">
        <ele>318.408</ele>
        <time>2017-04-01T05:46:23Z</time>
      </trkpt>
      <trkpt lat="46.75071" lon="4.6793">
        <ele>325.168</ele>
        <time>2017-04-01T05:46:43Z</time>
      </trkpt>
      <trkpt lat="46.75083" lon="4.67893">
        <ele>329.793</ele>
        <time>2017-04-01T05:47:03Z</time>
      </trkpt>
      <trkpt lat="46.75095" lon="4.67879">
        <ele>330.894</ele>
        <time>2017-04-01T05:47:23Z</time>
      </trkpt>
      <trkpt lat="46.75104" lon="4.67772">
        <ele>336.959</ele>
        <time>2017-04-01T05:47:43Z</time>
      </trkpt>
      <trkpt lat="46.75042" lon="4.67643">
        <ele>343.828</ele>
        <time>2017-04-01T05:48:03Z</time>
      </trkpt>
      <trkpt lat="46.75017" lon="4.67605">
        <ele>344.641</ele>
        <time>2017-04-01T05:48:23Z</time>
      </trkpt>
      <trkpt lat="46.74925" lon="4.67526">
        <ele>338.648</ele>
        <time>2017-04-01T05:48:43Z</time>
      </trkpt>
      <trkpt lat="46.74896" lon="4.67455">
        <ele>336.912</ele>
        <time>2017-04-01T05:49:03Z</time>
      </trkpt>
      <trkpt lat="46.74877" lon="4.67434">
        <ele>335.299</ele>
        <time>2017-04-01T05:49:23Z</time>
      </trkpt>
      <trkpt lat="46.74856" lon="4.67303">
        <ele>333.007</ele>
        <time>2017-04-01T05:49:43Z</time>
      </trkpt>
      <trkpt lat="46.74774" lon="4.67224">
        <ele>334.927</ele>
        <time>2017-04-01T05:50:03Z</time>
      </trkpt>
      <trkpt lat="46.74709" lon="4.67141">
        <ele>333.608</ele>
        <time>2017-04-01T05:50:23Z</time>
      </trkpt>
      <trkpt lat="46.74613" lon="4.67086">
        <ele>334.995</ele>
        <time>2017-04-01T05:50:43Z</time>
      </trkpt>
      <trkpt lat="46.74589" lon="4.67057">
        <ele>334.92</ele>
        <time>2017-04-01T05:51:03Z</time>
      </trkpt>
      <trkpt lat="46.74576" lon="4.67005">
        <ele>335.051</ele>
        <time>2017-04-01T05:51:23Z</time>
      </trkpt>
      <trkpt lat="46.74583" lon="4.66788">
        <ele>330.466</ele>
        <time>2017-04-01T05:51:43Z</time>
      </trkpt>
      <trkpt lat="46.74588" lon="4.66424">
        <ele>318.175</ele>
        <time>2017-04-01T05:52:03Z</time>
      </trkpt>
      <trkpt lat="46.74548" lon="4.66324">
        <ele>315.688</ele>
        <time>2017-04-01T05:52:23Z</time>
      </trkpt>
      <trkpt lat="46.74538" lon="4.66327">
        <ele>316.435</ele>
        <time>2017-04-01T05:52:43Z</time>
      </trkpt>
      <trkpt lat="46.74504" lon="4.66287">
        <ele>319.559</ele>
        <time>2017-04-01T05:53:03Z</time>
      </trkpt>
      <trkpt lat="46.74497" lon="4.66257">
        <ele>320.075</ele>
        <time>2017-04-01T05:53:23Z</time>
      </trkpt>
      <trkpt lat="46.74499" lon="4.66163">
        <ele>317.928</ele>
        <time>2017-04-01T05:53:43Z</time>
      </trkpt>
      <trkpt lat="46.74494" lon="4.66092">
        <ele>317.02</ele>
        <time>2017-04-01T05:54:03Z</time>
      </trkpt>
      <trkpt lat="46.74481" lon="4.66004">
        <ele>318.908</ele>
        <time>2017-04-01T05:54:23Z</time>
      </trkpt>
      <trkpt lat="46.74414" lon="4.65996">
        <ele>323.223</ele>
        <time>2017-04-01T05:54:43Z</time>
      </trkpt>
      <trkpt lat="46.74406" lon="4.65977">
        <ele>323.698</ele>
        <time>2017-04-01T05:55:03Z</time>
      </trkpt>
      <trkpt lat="46.74406" lon="4.65923">
        <ele>324.419</ele>
        <time>2017-04-01T05:55:23Z</time>
      </trkpt>
      <trkpt lat="46.744" lon="4.65809">
        <ele>329.594</ele>
        <time>2017-04-01T05:55:43Z</time>
      </trkpt>
      <trkpt lat="46.74385" lon="4.65768">
        <ele>334.133</ele>
        <time>2017-04-01T05:56:03Z</time>
      </trkpt>
      <trkpt lat="46.74375" lon="4.65725">
        <ele>337.846</ele>
        <time>2017-04-01T05:56:23Z</time>
      </trkpt>
      <trkpt lat="46.74354" lon="4.6557">
        <ele>348.883</ele>
        <time>2017-04-01T05:56:43Z</time>
      </trkpt>
      <trkpt lat="46.74338" lon="4.65547">
        <ele>350.547</ele>
        <time>2017-04-01T05:57:03Z</time>
      </trkpt>
      <trkpt lat="46.74296" lon="4.65529">
        <ele>353.474</ele>
        <time>2017-04-01T05:57:23Z</time>
      </trkpt>
      <trkpt lat="46.74219" lon="4.65446">
        <ele>356.356</ele>
        <time>2017-04-01T05:57:43Z</time>
      </trkpt>
      <trkpt lat="46.74168" lon="4.65417">
        <ele>357.921</ele>
        <time>2017-04-01T05:58:03Z</time>
      </trkpt>
      <trkpt lat="46.74123" lon="4.65399">
        <ele>359.908</ele>
        <time>2017-04-01T05:58:23Z</time>
      </trkpt>
      <trkpt lat="46.7405" lon="4.65319">
        <ele>357.233</ele>
        <time>2017-04-01T05:58:43Z</time>
      </trkpt>
      <trkpt lat="46.73982" lon="4.65262">
        <ele>359.018</ele>
        <time>2017-04-01T05:59:03Z</time>
      </trkpt>
      <trkpt lat="46.73945" lon="4.6524">
        <ele>361.249</ele>
        <time>2017-04-01T05:59:23Z</time>
      </trkpt>
      <trkpt lat="46.73908" lon="4.65237">
        <ele>363.784</ele>
        <time>2017-04-01T05:59:43Z</time>
      </trkpt>
      <trkpt lat="46.73872" lon="4.65275">
        <ele>370.633</ele>
        <time>2017-04-01T06:00:03Z</time>
      </trkpt>
      <trkpt lat="46.73833" lon="4.65292">
        <ele>374.686</ele>
        <time>2017-04-01T06:00:23Z</time>
      </trkpt>
      <trkpt lat="46.73817" lon="4.65305">
        <ele>374.753</ele>
        <time>2017-04-01T06:00:43Z</time>
      </trkpt>
      <trkpt lat="46.73827" lon="4.65267">
        <ele>372.077</ele>
        <time>2017-04-01T06:01:03Z</time>
      </trkpt>
      <trkpt lat="46.73825" lon="4.65246">
        <ele>370.469</ele>
        <time>2017-04-01T06:01:23Z</time>
      </trkpt>
      <trkpt lat="46.7378" lon="4.65172">
        <ele>364.204</ele>
        <time>2017-04-01T06:01:43Z</time>
      </trkpt>
      <trkpt lat="46.7375" lon="4.65129">
        <ele>360.324</ele>
        <time>2017-04-01T06:02:03Z</time>
      </trkpt>
      <trkpt lat="46.73738" lon="4.65086">
        <ele>356.808</ele>
        <time>2017-04-01T06:02:23Z</time>
      </trkpt>
      <trkpt lat="46.7374" lon="4.65041">
        <ele>354.512</ele>
        <time>2017-04-01T06:02:43Z</time>
      </trkpt>
      <trkpt lat="46.73621" lon="4.64922">
        <ele>347.447</ele>
        <time>2017-04-01T06:03:03Z</time>
      </trkpt>
      <trkpt lat="46.73495" lon="4.64709">
        <ele>343.958</ele>
        <time>2017-04-01T06:03:23Z</time>
      </trkpt>
      <trkpt lat="46.73465" lon="4.64642">
        <ele>337.683</ele>
        <time>2017-04-01T06:03:43Z</time>
      </trkpt>
      <trkpt lat="46.73429" lon="4.64598">
        <ele>339.812</ele>
        <time>2017-04-01T06:04:03Z</time>
      </trkpt>
      <trkpt lat="46.73389" lon="4.64569">
        <ele>340.555</ele>
        <time>2017-04-01T06:04:23Z</time>
      </trkpt>
      <trkpt lat="46.73322" lon="4.6451">
        <ele>341.782</ele>
        <time>2017-04-01T06:04:43Z</time>
      </trkpt>
      <trkpt lat="46.73292" lon="4.64495">
        <ele>343.346</ele>
        <time>2017-04-01T06:05:03Z</time>
      </trkpt>
      <trkpt lat="46.73255" lon="4.64467">
        <ele>341.129</ele>
        <time>2017-04-01T06:05:23Z</time>
      </trkpt>
      <trkpt lat="46.73152" lon="4.64406">
        <ele>331.2</ele>
        <time>2017-04-01T06:05:43Z</time>
      </trkpt>
      <trkpt lat="46.73107" lon="4.64397">
        <ele>329.82</ele>
        <time>2017-04-01T06:06:03Z</time>
      </trkpt>
      <trkpt lat="46.73062" lon="4.64419">
        <ele>330.708</ele>
        <time>2017-04-01T06:06:23Z</time>
      </trkpt>
      <trkpt lat="46.73002" lon="4.64442">
        <ele>326.058</ele>
        <time>2017-04-01T06:06:43Z</time>
      </trkpt>
      <trkpt lat="46.72984" lon="4.6446">
        <ele>325.473</ele>
        <time>2017-04-01T06:07:03Z</time>
      </trkpt>
      <trkpt lat="46.72932" lon="4.64555">
        <ele>327.684</ele>
        <time>2017-04-01T06:07:23Z</time>
      </trkpt>
      <trkpt lat="46.72882" lon="4.64567">
        <ele>325.339</ele>
        <time>2017-04-01T06:07:43Z</time>
      </trkpt>
      <trkpt lat="46.7291" lon="4.64469">
        <ele>317.628</ele>
        <time>2017-04-01T06:08:03Z</time>
      </trkpt>
      <trkpt lat="46.72922" lon="4.64402">
        <ele>313.761</ele>
        <time>2017-04-01T06:08:23Z</time>
      </trkpt>
      <trkpt lat="46.7295" lon="4.6434">
        <ele>311.538</ele>
        <time>2017-04-01T06:08:43Z</time>
      </trkpt>
      <trkpt lat="46.72944" lon="4.64272">
        <ele>307.842</ele>
        <time>2017-04-01T06:09:03Z</time>
      </trkpt>
      <trkpt lat="46.72951" lon="4.64182">
        <ele>300.334</ele>
        <time>2017-04-01T06:09:23Z</time>
      </trkpt>
      <trkpt lat="46.72973" lon="4.6409">
        <ele>296.255</ele>
        <time>2017-04-01T06:09:43Z</time>
      </trkpt>
      <trkpt lat="46.73016" lon="4.63959">
        <ele>291.31</ele>
        <time>2017-04-01T06:10:03Z</time>
      </trkpt>
      <trkpt lat="46.73031" lon="4.6387">
        <ele>288.308</ele>
        <time>2017-04-01T06:10:23Z</time>
      </trkpt>
      <trkpt lat="46.73047" lon="4.63815">
        <ele>288.349</ele>
        <time>2017-04-01T06:10:43Z</time>
      </trkpt>
      <trkpt lat="46.73069" lon="4.63782">
        <ele>286.694</ele>
        <time>2017-04-01T06:11:03Z</time>
      </trkpt>
      <trkpt lat="46.73107" lon="4.6375">
        <ele>283.145</ele>
        <time>2017-04-01T06:11:23Z</time>
      </trkpt>
      <trkpt lat="46.73114" lon="4.63692">
        <ele>280.97</ele>
        <time>2017-04-01T06:11:43Z</time>
      </trkpt>
      <trkpt lat="46.73118" lon="4.63582">
        <ele>279.369</ele>
        <time>2017-04-01T06:12:03Z</time>
      </trkpt>
      <trkpt lat="46.73112" lon="4.63531">
        <ele>280.992</ele>
        <time>2017-04-01T06:12:23Z</time>
      </trkpt>
      <trkpt lat="46.73133" lon="4.63459">
        <ele>281.839</ele>
        <time>2017-04-01T06:12:43Z</time>
      </trkpt>
      <trkpt lat="46.7313" lon="4.6343">
        <ele>281.323</ele>
        <time>2017-04-01T06:13:03Z</time>
      </trkpt>
      <trkpt lat="46.731" lon="4.63402">
        <ele>281.047</ele>
        <time>2017-04-01T06:13:23Z</time>
      </trkpt>
      <trkpt lat="46.73035" lon="4.63398">
        <ele>280.829</ele>
        <time>2017-04-01T06:13:43Z</time>
      </trkpt>
      <trkpt lat="46.72979" lon="4.63376">
        <ele>280.621</ele>
        <time>2017-04-01T06:14:03Z</time>
      </trkpt>
      <trkpt lat="46.72867" lon="4.63343">
        <ele>282.508</ele>
        <time>2017-04-01T06:14:23Z</time>
      </trkpt>
      <trkpt lat="46.72787" lon="4.63331">
        <ele>281.41</ele>
        <time>2017-04-01T06:14:43Z</time>
      </trkpt>
      <trkpt lat="46.72703" lon="4.63302">
        <ele>280.055</ele>
        <time>2017-04-01T06:15:03Z</time>
      </trkpt>
      <trkpt lat="46.72648" lon="4.63266">
        <ele>279.636</ele>
        <time>2017-04-01T06:15:23Z</time>
      </trkpt>
      <trkpt lat="46.72586" lon="4.63245">
        <ele>280.221</ele>
        <time>2017-04-01T06:15:43Z</time>
      </trkpt>
      <trkpt lat="46.72548" lon="4.63225">
        <ele>280.71</ele>
        <time>2017-04-01T06:16:03Z</time>
      </trkpt>
      <trkpt lat="46.72521" lon="4.63202">
        <ele>279.573</ele>
        <time>2017-04-01T06:16:23Z</time>
      </trkpt>
      <trkpt lat="46.72493" lon="4.63186">
        <ele>278.25</ele>
        <time>2017-04-01T06:16:43Z</time>
      </trkpt>
      <trkpt lat="46.72468" lon="4.63159">
        <ele>278.144</ele>
        <time>2017-04-01T06:17:03Z</time>
      </trkpt>
      <trkpt lat="46.72447" lon="4.63127">
        <ele>277.624</ele>
        <time>2017-04-01T06:17:23Z</time>
      </trkpt>
      <trkpt lat="46.72406" lon="4.631">
        <ele>277.404</ele>
        <time>2017-04-01T06:17:43Z</time>
      </trkpt>
      <trkpt lat="46.72349" lon="4.6305">
        <ele>279.014</ele>
        <time>2017-04-01T06:18:03Z</time>
      </trkpt>
      <trkpt lat="46.72301" lon="4.63026">
        <ele>280.008</ele>
        <time>2017-04-01T06:18:23Z</time>
      </trkpt>
      <trkpt lat="46.72254" lon="4.63021">
        <ele>279.428</ele>
        <time>2017-04-01T06:18:43Z</time>
      </trkpt>
      <trkpt lat="46.72091" lon="4.6293">
        <ele>279.623</ele>
        <time>2017-04-01T06:19:03Z</time>
      </trkpt>
      <trkpt lat="46.72032" lon="4.62883">
        <ele>283.134</ele>
        <time>2017-04-01T06:19:23Z</time>
      </trkpt>
      <trkpt lat="46.71999" lon="4.62871">
        <ele>286.029</ele>
        <time>2017-04-01T06:19:43Z</time>
      </trkpt>
      <trkpt lat="46.71863" lon="4.6292">
        <ele>289.718</ele>
        <time>2017-04-01T06:20:03Z</time>
      </trkpt>
      <trkpt lat="46.71802" lon="4.6291">
        <ele>290.051</ele>
        <time>2017-04-01T06:20:23Z</time>
      </trkpt>
      <trkpt lat="46.71626" lon="4.62766">
        <ele>291.438</ele>
        <time>2017-04-01T06:20:43Z</time>
      </trkpt>
      <trkpt lat="46.71583" lon="4.62706">
        <ele>294.052</ele>
        <time>2017-04-01T06:21:03Z</time>
      </trkpt>
      <trkpt lat="46.71541" lon="4.62654">
        <ele>295.532</ele>
        <time>2017-04-01T06:21:23Z</time>
      </trkpt>
      <trkpt lat="46.71477" lon="4.6261">
        <ele>294.092</ele>
        <time>2017-04-01T06:21:43Z</time>
      </trkpt>
      <trkpt lat="46.71417" lon="4.62604">
        <ele>291.811</ele>
        <time>2017-04-01T06:22:03Z</time>
      </trkpt>
      <trkpt lat="46.71379" lon="4.62587">
        <ele>289.608</ele>
        <time>2017-04-01T06:22:23Z</time>
      </trkpt>
      <trkpt lat="46.7133" lon="4.62487">
        <ele>292.599</ele>
        <time>2017-04-01T06:22:43Z</time>
      </trkpt>
      <trkpt lat="46.71263" lon="4.62311">
        <ele>297.644</ele>
        <time>2017-04-01T06:23:03Z</time>
      </trkpt>
      <trkpt lat="46.71219" lon="4.62259">
        <ele>296.315</ele>
        <time>2017-04-01T06:23:23Z</time>
      </trkpt>
      <trkpt lat="46.71102" lon="4.62329">
        <ele>297.49</ele>
        <time>2017-04-01T06:23:43Z</time>
      </trkpt>
      <trkpt lat="46.70999" lon="4.62331">
        <ele>297.149</ele>
        <time>2017-04-01T06:24:03Z</time>
      </trkpt>
      <trkpt lat="46.70963" lon="4.62359">
        <ele>296.092</ele>
        <time>2017-04-01T06:24:23Z</time>
      </trkpt>
      <trkpt lat="46.70964" lon="4.62223">
        <ele>297.779</ele>
        <time>2017-04-01T06:24:43Z</time>
      </trkpt>
      <trkpt lat="46.70986" lon="4.61973">
        <ele>294.013</ele>
        <time>2017-04-01T06:25:03Z</time>
      </trkpt>
      <trkpt lat="46.70987" lon="4.61841">
        <ele>291.127</ele>
        <time>2017-04-01T06:25:23Z</time>
      </trkpt>
      <trkpt lat="46.70996" lon="4.61675">
        <ele>280.668</ele>
        <time>2017-04-01T06:25:43Z</time>
      </trkpt>
      <trkpt lat="46.70983" lon="4.61608">
        <ele>278.114</ele>
        <time>2017-04-01T06:26:03Z</time>
      </trkpt>
      <trkpt lat="46.70939" lon="4.61534">
        <ele>274.408</ele>
        <time>2017-04-01T06:26:23Z</time>
      </trkpt>
      <trkpt lat="46.70899" lon="4.61477">
        <ele>273.528</ele>
        <time>2017-04-01T06:26:43Z</time>
      </trkpt>
      <trkpt lat="46.7088" lon="4.61358">
        <ele>274.183</ele>
        <time>2017-04-01T06:27:03Z</time>
      </trkpt>
      <trkpt lat="46.70902" lon="4.61309">
        <ele>275.034</ele>
        <time>2017-04-01T06:27:23Z</time>
      </trkpt>
      <trkpt lat="46.70897" lon="4.6128">
        <ele>277.149</ele>
        <time>2017-04-01T06:27:43Z</time>
      </trkpt>
      <trkpt lat="46.70858" lon="4.61228">
        <ele>285.988</ele>
        <time>2017-04-01T06:28:03Z</time>
      </trkpt>
      <trkpt lat="46.70852" lon="4.61186">
        <ele>288.861</ele>
        <time>2017-04-01T06:28:23Z</time>
      </trkpt>
      <trkpt lat="46.70856" lon="4.61098">
        <ele>290.498</ele>
        <time>2017-04-01T06:28:43Z</time>
      </trkpt>
      <trkpt lat="46.70831" lon="4.61015">
        <ele>292.072</ele>
        <time>2017-04-01T06:29:03Z</time>
      </trkpt>
      <trkpt lat="46.70824" lon="4.60955">
        <ele>292.426</ele>
        <time>2017-04-01T06:29:23Z</time>
      </trkpt>
      <trkpt lat="46.70734" lon="4.60698">
        <ele>293.147</ele>
        <time>2017-04-01T06:29:43Z</time>
      </trkpt>
      <trkpt lat="46.70719" lon="4.60627">
        <ele>296.111</ele>
        <time>2017-04-01T06:30:03Z</time>
      </trkpt>
      <trkpt lat="46.70707" lon="4.6052">
        <ele>301.808</ele>
        <time>2017-04-01T06:30:23Z</time>
      </trkpt>
      <trkpt lat="46.70674" lon="4.60521">
        <ele>299.528</ele>
        <time>2017-04-01T06:30:43Z</time>
      </trkpt>
      <trkpt lat="46.70642" lon="4.60503">
        <ele>299.053</ele>
        <time>2017-04-01T06:31:03Z</time>
      </trkpt>
      <trkpt lat="46.70621" lon="4.60466">
        <ele>298.924</ele>
        <time>2017-04-01T06:31:23Z</time>
      </trkpt>
      <trkpt lat="46.70592" lon="4.60373">
        <ele>300.989</ele>
        <time>2017-04-01T06:31:43Z</time>
      </trkpt>
      <trkpt lat="46.70539" lon="4.60236">
        <ele>302.578</ele>
        <time>2017-04-01T06:32:03Z</time>
      </trkpt>
      <trkpt lat="46.70426" lon="4.60081">
        <ele>301.661</ele>
        <time>2017-04-01T06:32:23Z</time>
      </trkpt>
      <trkpt lat="46.70361" lon="4.60003">
        <ele>300.938</ele>
        <time>2017-04-01T06:32:43Z</time>
      </trkpt>
      <trkpt lat="46.70331" lon="4.5996">
        <ele>301.972</ele>
        <time>2017-04-01T06:33:03Z</time>
      </trkpt>
      <trkpt lat="46.70317" lon="4.59918">
        <ele>303.946</ele>
        <time>2017-04-01T06:33:23Z</time>
      </trkpt>
      <trkpt lat="46.70283" lon="4.59859">
        <ele>304.288</ele>
        <time>2017-04-01T06:33:43Z</time>
      </trkpt>
      <trkpt lat="46.70257" lon="4.59805">
        <ele>304.316</ele>
        <time>2017-04-01T06:34:03Z</time>
      </trkpt>
      <trkpt lat="46.70239" lon="4.59752">
        <ele>303.808</ele>
        <time>2017-04-01T06:34:23Z</time>
      </trkpt>
      <trkpt lat="46.70227" lon="4.59667">
        <ele>302.26</ele>
        <time>2017-04-01T06:34:43Z</time>
      </trkpt>
      <trkpt lat="46.70172" lon="4.59538">
        <ele>309.035</ele>
        <time>2017-04-01T06:35:03Z</time>
      </trkpt>
      <trkpt lat="46.70132" lon="4.59389">
        <ele>322.566</ele>
        <time>2017-04-01T06:35:23Z</time>
      </trkpt>
      <trkpt lat="46.70112" lon="4.59288">
        <ele>329.751</ele>
        <time>2017-04-01T06:35:43Z</time>
      </trkpt>
      <trkpt lat="46.7007" lon="4.5923">
        <ele>330.53</ele>
        <time>2017-04-01T06:36:03Z</time>
      </trkpt>
      <trkpt lat="46.70055" lon="4.59175">
        <ele>334.353</ele>
        <time>2017-04-01T06:36:23Z</time>
      </trkpt>
      <trkpt lat="46.70017" lon="4.59106">
        <ele>335.58</ele>
        <time>2017-04-01T06:36:43Z</time>
      </trkpt>
      <trkpt lat="46.70004" lon="4.59035">
        <ele>336.164</ele>
        <time>2017-04-01T06:37:03Z</time>
      </trkpt>
      <trkpt lat="46.70039" lon="4.58896">
        <ele>337.372</ele>
        <time>2017-04-01T06:37:23Z</time>
      </trkpt>
      <trkpt lat="46.70027" lon="4.58855">
        <ele>340.413</ele>
        <time>2017-04-01T06:37:43Z</time>
      </trkpt>
      <trkpt lat="46.69998" lon="4.58834">
        <ele>340.614</ele>
        <time>2017-04-01T06:38:03Z</time>
      </trkpt>
      <trkpt lat="46.69953" lon="4.58815">
        <ele>335.808</ele>
        <time>2017-04-01T06:38:23Z</time>
      </trkpt>
      <trkpt lat="46.69934" lon="4.58773">
        <ele>335.583</ele>
        <time>2017-04-01T06:38:43Z</time>
      </trkpt>
      <trkpt lat="46.69933" lon="4.58707">
        <ele>342.228</ele>
        <time>2017-04-01T06:39:03Z</time>
      </trkpt>
      <trkpt lat="46.69912" lon="4.58631">
        <ele>342.649</ele>
        <time>2017-04-01T06:39:23Z</time>
      </trkpt>
      <trkpt lat="46.69899" lon="4.58542">
        <ele>341.944</ele>
        <time>2017-04-01T06:39:43Z</time>
      </trkpt>
      <trkpt lat="46.69885" lon="4.5851">
        <ele>338.953</ele>
        <time>2017-04-01T06:40:03Z</time>
      </trkpt>
      <trkpt lat="46.69825" lon="4.58299">
        <ele>340.696</ele>
        <time>2017-04-01T06:40:23Z</time>
      </trkpt>
      <trkpt lat="46.69713" lon="4.58033">
        <ele>343.063</ele>
        <time>2017-04-01T06:40:43Z</time>
      </trkpt>
      <trkpt lat="46.69631" lon="4.5787">
        <ele>346.727</ele>
        <time>2017-04-01T06:41:03Z</time>
      </trkpt>
      <trkpt lat="46.69605" lon="4.57794">
        <ele>348.077</ele>
        <time>2017-04-01T06:41:23Z</time>
      </trkpt>
      <trkpt lat="46.69448" lon="4.57593">
        <ele>348.461</ele>
        <time>2017-04-01T06:41:43Z</time>
      </trkpt>
      <trkpt lat="46.69349" lon="4.57506">
        <ele>342.827</ele>
        <time>2017-04-01T06:42:03Z</time>
      </trkpt>
      <trkpt lat="46.69242" lon="4.57427">
        <ele>333.408</ele>
        <time>2017-04-01T06:42:23Z</time>
      </trkpt>
      <trkpt lat="46.69159" lon="4.5731">
        <ele>326.913</ele>
        <time>2017-04-01T06:42:43Z</time>
      </trkpt>
      <trkpt lat="46.69082" lon="4.57228">
        <ele>325.388</ele>
        <time>2017-04-01T06:43:03Z</time>
      </trkpt>
      <trkpt lat="46.69027" lon="4.5716">
        <ele>322.539</ele>
        <time>2017-04-01T06:43:23Z</time>
      </trkpt>
      <trkpt lat="46.69023" lon="4.57129">
        <ele>320.374</ele>
        <time>2017-04-01T06:43:43Z</time>
      </trkpt>
      <trkpt lat="46.69025" lon="4.57099">
        <ele>318.113</ele>
        <time>2017-04-01T06:44:03Z</time>
      </trkpt>
      <trkpt lat="46.69004" lon="4.57073">
        <ele>315.786</ele>
        <time>2017-04-01T06:44:23Z</time>
      </trkpt>
      <trkpt lat="46.68976" lon="4.57023">
        <ele>312.063</ele>
        <time>2017-04-01T06:44:43Z</time>
      </trkpt>
      <trkpt lat="46.68863" lon="4.56915">
        <ele>303.877</ele>
        <time>2017-04-01T06:45:03Z</time>
      </trkpt>
      <trkpt lat="46.68822" lon="4.56856">
        <ele>298.541</ele>
        <time>2017-04-01T06:45:23Z</time>
      </trkpt>
      <trkpt lat="46.68767" lon="4.56715">
        <ele>289.181</ele>
        <time>2017-04-01T06:45:43Z</time>
      </trkpt>
      <trkpt lat="46.68731" lon="4.56644">
        <ele>286.709</ele>
        <time>2017-04-01T06:46:03Z</time>
      </trkpt>
      <trkpt lat="46.68679" lon="4.56569">
        <ele>285.808</ele>
        <time>2017-04-01T06:46:23Z</time>
      </trkpt>
      <trkpt lat="46.68653" lon="4.56512">
        <ele>283.35</ele>
        <time>2017-04-01T06:46:43Z</time>
      </trkpt>
      <trkpt lat="46.68621" lon="4.5647">
        <ele>280.865</ele>
        <time>2017-04-01T06:47:03Z</time>
      </trkpt>
      <trkpt lat="46.6852" lon="4.56267">
        <ele>268.416</ele>
        <time>2017-04-01T06:47:23Z</time>
      </trkpt>
      <trkpt lat="46.68464" lon="4.56189">
        <ele>265.951</ele>
        <time>2017-04-01T06:47:43Z</time>
      </trkpt>
      <trkpt lat="46.68367" lon="4.56156">
        <ele>259.85</ele>
        <time>2017-04-01T06:48:03Z</time>
      </trkpt>
      <trkpt lat="46.68323" lon="4.56128">
        <ele>258.813</ele>
        <time>2017-04-01T06:48:23Z</time>
      </trkpt>
      <trkpt lat="46.68288" lon="4.56091">
        <ele>259.48</ele>
        <time>2017-04-01T06:48:43Z</time>
      </trkpt>
      <trkpt lat="46.68266" lon="4.5602">
        <ele>261.054</ele>
        <time>2017-04-01T06:49:03Z</time>
      </trkpt>
      <trkpt lat="46.68249" lon="4.55975">
        <ele>261.082</ele>
        <time>2020-03-10T17:29:59Z</time>
      </trkpt>
      <trkpt lat="46.68224" lon="4.55926">
        <ele>260.643</ele>
        <time>2017-04-01T09:25:30Z</time>
      </trkpt>
      <trkpt lat="46.68226" lon="4.5588">
        <ele>262.917</ele>
        <time>2017-04-01T09:25:50Z</time>
      </trkpt>
      <trkpt lat="46.6833" lon="4.5558">
        <ele>262.108</ele>
        <time>2017-04-01T09:26:10Z</time>
      </trkpt>
      <trkpt lat="46.68354" lon="4.55324">
        <ele>264.554</ele>
        <time>2017-04-01T09:26:30Z</time>
      </trkpt>
      <trkpt lat="46.68124" lon="4.55333">
        <ele>284.529</ele>
        <time>2017-04-01T09:26:50Z</time>
      </trkpt>
      <trkpt lat="46.68049" lon="4.55304">
        <ele>288.22</ele>
        <time>2017-04-01T09:27:10Z</time>
      </trkpt>
      <trkpt lat="46.67962" lon="4.55276">
        <ele>290.725</ele>
        <time>2017-04-01T09:27:30Z</time>
      </trkpt>
      <trkpt lat="46.67893" lon="4.5512">
        <ele>296.284</ele>
        <time>2017-04-01T09:27:50Z</time>
      </trkpt>
      <trkpt lat="46.67834" lon="4.55057">
        <ele>297.927</ele>
        <time>2017-04-01T09:28:10Z</time>
      </trkpt>
      <trkpt lat="46.67768" lon="4.54963">
        <ele>303.534</ele>
        <time>2017-04-01T09:28:30Z</time>
      </trkpt>
      <trkpt lat="46.67738" lon="4.54889">
        <ele>305.178</ele>
        <time>2017-04-01T09:28:50Z</time>
      </trkpt>
      <trkpt lat="46.6773" lon="4.54775">
        <ele>312.337</ele>
        <time>2017-04-01T09:29:10Z</time>
      </trkpt>
      <trkpt lat="46.67716" lon="4.54755">
        <ele>314.149</ele>
        <time>2017-04-01T09:29:30Z</time>
      </trkpt>
      <trkpt lat="46.67667" lon="4.5474">
        <ele>316.613</ele>
        <time>2017-04-01T09:29:50Z</time>
      </trkpt>
      <trkpt lat="46.67546" lon="4.54658">
        <ele>328.008</ele>
        <time>2017-04-01T09:30:10Z</time>
      </trkpt>
      <trkpt lat="46.67468" lon="4.54543">
        <ele>337.119</ele>
        <time>2017-04-01T09:30:30Z</time>
      </trkpt>
      <trkpt lat="46.67401" lon="4.54556">
        <ele>344.224</ele>
        <time>2017-04-01T09:30:50Z</time>
      </trkpt>
      <trkpt lat="46.6734" lon="4.54555">
        <ele>350.335</ele>
        <time>2017-04-01T09:31:10Z</time>
      </trkpt>
      <trkpt lat="46.67294" lon="4.54564">
        <ele>355.83</ele>
        <time>2017-04-01T09:31:30Z</time>
      </trkpt>
      <trkpt lat="46.67253" lon="4.54565">
        <ele>358.279</ele>
        <time>2017-04-01T09:31:50Z</time>
      </trkpt>
      <trkpt lat="46.67222" lon="4.54613">
        <ele>365.052</ele>
        <time>2017-04-01T09:32:10Z</time>
      </trkpt>
      <trkpt lat="46.67174" lon="4.54633">
        <ele>370.419</ele>
        <time>2017-04-01T09:32:30Z</time>
      </trkpt>
      <trkpt lat="46.67126" lon="4.54644">
        <ele>380.313</ele>
        <time>2017-04-01T09:32:50Z</time>
      </trkpt>
      <trkpt lat="46.67018" lon="4.54638">
        <ele>390.338</ele>
        <time>2017-04-01T09:33:10Z</time>
      </trkpt>
      <trkpt lat="46.66942" lon="4.54574">
        <ele>399.27</ele>
        <time>2017-04-01T09:33:30Z</time>
      </trkpt>
      <trkpt lat="46.66922" lon="4.54582">
        <ele>401.417</ele>
        <time>2017-04-01T09:33:50Z</time>
      </trkpt>
      <trkpt lat="46.66862" lon="4.54623">
        <ele>405.908</ele>
        <time>2017-04-01T09:34:10Z</time>
      </trkpt>
      <trkpt lat="46.66825" lon="4.5467">
        <ele>407.239</ele>
        <time>2017-04-01T09:34:30Z</time>
      </trkpt>
      <trkpt lat="46.66775" lon="4.547">
        <ele>412.164</ele>
        <time>2017-04-01T09:34:50Z</time>
      </trkpt>
      <trkpt lat="46.6675" lon="4.54726">
        <ele>413.035</ele>
        <time>2017-04-01T09:35:10Z</time>
      </trkpt>
      <trkpt lat="46.66666" lon="4.54595">
        <ele>413.04</ele>
        <time>2017-04-01T09:35:30Z</time>
      </trkpt>
      <trkpt lat="46.66682" lon="4.54566">
        <ele>413.299</ele>
        <time>2017-04-01T09:35:50Z</time>
      </trkpt>
      <trkpt lat="46.66701" lon="4.54489">
        <ele>412.572</ele>
        <time>2017-04-01T09:36:10Z</time>
      </trkpt>
      <trkpt lat="46.66739" lon="4.54367">
        <ele>413.529</ele>
        <time>2017-04-01T09:36:30Z</time>
      </trkpt>
      <trkpt lat="46.66766" lon="4.54292">
        <ele>416.673</ele>
        <time>2017-04-01T09:36:50Z</time>
      </trkpt>
      <trkpt lat="46.66784" lon="4.54224">
        <ele>416.595</ele>
        <time>2017-04-01T09:37:10Z</time>
      </trkpt>
      <trkpt lat="46.66812" lon="4.54155">
        <ele>416.449</ele>
        <time>2017-04-01T09:37:30Z</time>
      </trkpt>
      <trkpt lat="46.66816" lon="4.54107">
        <ele>414.623</ele>
        <time>2017-04-01T09:37:50Z</time>
      </trkpt>
      <trkpt lat="46.66777" lon="4.54055">
        <ele>417.008</ele>
        <time>2017-04-01T09:38:10Z</time>
      </trkpt>
      <trkpt lat="46.66714" lon="4.53876">
        <ele>418.955</ele>
        <time>2017-04-01T09:38:30Z</time>
      </trkpt>
      <trkpt lat="46.66692" lon="4.53764">
        <ele>428.65</ele>
        <time>2017-04-01T09:38:50Z</time>
      </trkpt>
      <trkpt lat="46.6667" lon="4.53691">
        <ele>433.021</ele>
        <time>2017-04-01T09:39:10Z</time>
      </trkpt>
      <trkpt lat="46.66658" lon="4.53631">
        <ele>436.526</ele>
        <time>2017-04-01T09:39:30Z</time>
      </trkpt>
      <trkpt lat="46.66587" lon="4.5352">
        <ele>446.015</ele>
        <time>2017-04-01T09:39:50Z</time>
      </trkpt>
      <trkpt lat="46.6655" lon="4.53495">
        <ele>450.388</ele>
        <time>2017-04-01T09:40:10Z</time>
      </trkpt>
      <trkpt lat="46.66525" lon="4.53496">
        <ele>453.065</ele>
        <time>2017-04-01T09:40:30Z</time>
      </trkpt>
      <trkpt lat="46.66502" lon="4.53453">
        <ele>452.479</ele>
        <time>2017-04-01T09:40:50Z</time>
      </trkpt>
      <trkpt lat="46.66487" lon="4.53403">
        <ele>450.932</ele>
        <time>2017-04-01T09:41:10Z</time>
      </trkpt>
      <trkpt lat="46.66458" lon="4.53369">
        <ele>452.092</ele>
        <time>2017-04-01T09:41:30Z</time>
      </trkpt>
      <trkpt lat="46.66417" lon="4.5328">
        <ele>451.111</ele>
        <time>2017-04-01T09:41:50Z</time>
      </trkpt>
      <trkpt lat="46.66397" lon="4.53232">
        <ele>451.008</ele>
        <time>2017-04-01T09:42:10Z</time>
      </trkpt>
      <trkpt lat="46.6634" lon="4.53176">
        <ele>454.099</ele>
        <time>2017-04-01T09:42:30Z</time>
      </trkpt>
      <trkpt lat="46.66284" lon="4.53093">
        <ele>451.624</ele>
        <time>2017-04-01T09:42:50Z</time>
      </trkpt>
      <trkpt lat="46.66279" lon="4.53079">
        <ele>450.865</ele>
        <time>2017-04-01T09:43:10Z</time>
      </trkpt>
      <trkpt lat="46.66213" lon="4.53033">
        <ele>453.98</ele>
        <time>2017-04-01T09:43:30Z</time>
      </trkpt>
      <trkpt lat="46.66163" lon="4.53011">
        <ele>456.939</ele>
        <time>2017-04-01T09:43:50Z</time>
      </trkpt>
      <trkpt lat="46.66134" lon="4.52977">
        <ele>459.562</ele>
        <time>2017-04-01T09:44:10Z</time>
      </trkpt>
      <trkpt lat="46.66105" lon="4.52951">
        <ele>460.039</ele>
        <time>2017-04-01T09:44:30Z</time>
      </trkpt>
      <trkpt lat="46.66029" lon="4.5291">
        <ele>457.273</ele>
        <time>2017-04-01T09:44:50Z</time>
      </trkpt>
      <trkpt lat="46.65987" lon="4.52875">
        <ele>455.524</ele>
        <time>2017-04-01T09:45:10Z</time>
      </trkpt>
      <trkpt lat="46.65964" lon="4.52825">
        <ele>451.404</ele>
        <time>2017-04-01T09:45:30Z</time>
      </trkpt>
      <trkpt lat="46.65934" lon="4.52781">
        <ele>449.014</ele>
        <time>2017-04-01T09:45:50Z</time>
      </trkpt>
      <trkpt lat="46.65899" lon="4.52772">
        <ele>449.908</ele>
        <time>2017-04-01T09:46:10Z</time>
      </trkpt>
      <trkpt lat="46.65872" lon="4.52736">
        <ele>444.858</ele>
        <time>2017-04-01T09:46:30Z</time>
      </trkpt>
      <trkpt lat="46.65819" lon="4.52705">
        <ele>445.273</ele>
        <time>2017-04-01T09:46:50Z</time>
      </trkpt>
      <trkpt lat="46.65752" lon="4.52687">
        <ele>453.374</ele>
        <time>2017-04-01T09:47:10Z</time>
      </trkpt>
      <trkpt lat="46.65715" lon="4.52657">
        <ele>452.269</ele>
        <time>2017-04-01T09:47:30Z</time>
      </trkpt>
      <trkpt lat="46.65677" lon="4.52645">
        <ele>451.838</ele>
        <time>2017-04-01T09:47:50Z</time>
      </trkpt>
      <trkpt lat="46.65605" lon="4.52609">
        <ele>451.391</ele>
        <time>2017-04-01T09:48:10Z</time>
      </trkpt>
      <trkpt lat="46.65564" lon="4.52561">
        <ele>451.688</ele>
        <time>2017-04-01T09:48:30Z</time>
      </trkpt>
      <trkpt lat="46.65542" lon="4.52544">
        <ele>452.832</ele>
        <time>2017-04-01T09:48:50Z</time>
      </trkpt>
      <trkpt lat="46.65466" lon="4.52511">
        <ele>455.259</ele>
        <time>2017-04-01T09:49:10Z</time>
      </trkpt>
      <trkpt lat="46.65426" lon="4.52482">
        <ele>456.403</ele>
        <time>2017-04-01T09:49:30Z</time>
      </trkpt>
      <trkpt lat="46.65352" lon="4.5242">
        <ele>460.623</ele>
        <time>2017-04-01T09:49:50Z</time>
      </trkpt>
      <trkpt lat="46.65337" lon="4.52379">
        <ele>457.408</ele>
        <time>2017-04-01T09:50:10Z</time>
      </trkpt>
      <trkpt lat="46.65324" lon="4.52313">
        <ele>448.251</ele>
        <time>2017-04-01T09:50:30Z</time>
      </trkpt>
      <trkpt lat="46.65322" lon="4.52188">
        <ele>435.836</ele>
        <time>2017-04-01T09:50:50Z</time>
      </trkpt>
      <trkpt lat="46.65311" lon="4.52085">
        <ele>435.997</ele>
        <time>2017-04-01T09:51:10Z</time>
      </trkpt>
      <trkpt lat="46.653" lon="4.51921">
        <ele>439.322</ele>
        <time>2017-04-01T09:51:30Z</time>
      </trkpt>
      <trkpt lat="46.65304" lon="4.51871">
        <ele>440.351</ele>
        <time>2017-04-01T09:51:50Z</time>
      </trkpt>
      <trkpt lat="46.65313" lon="4.51819">
        <ele>440.394</ele>
        <time>2017-04-01T09:52:10Z</time>
      </trkpt>
      <trkpt lat="46.653" lon="4.51759">
        <ele>444.211</ele>
        <time>2017-04-01T09:52:30Z</time>
      </trkpt>
      <trkpt lat="46.65281" lon="4.51717">
        <ele>448.895</ele>
        <time>2017-04-01T09:52:50Z</time>
      </trkpt>
      <trkpt lat="46.65224" lon="4.51667">
        <ele>453.067</ele>
        <time>2017-04-01T09:53:10Z</time>
      </trkpt>
      <trkpt lat="46.65215" lon="4.51621">
        <ele>451.281</ele>
        <time>2017-04-01T09:53:30Z</time>
      </trkpt>
      <trkpt lat="46.65187" lon="4.51577">
        <ele>449.219</ele>
        <time>2017-04-01T09:53:50Z</time>
      </trkpt>
      <trkpt lat="46.65177" lon="4.51531">
        <ele>449.008</ele>
        <time>2017-04-01T09:54:10Z</time>
      </trkpt>
      <trkpt lat="46.65133" lon="4.51508">
        <ele>448.942</ele>
        <time>2017-04-01T09:54:30Z</time>
      </trkpt>
      <trkpt lat="46.65094" lon="4.51445">
        <ele>451.497</ele>
        <time>2017-04-01T09:54:50Z</time>
      </trkpt>
      <trkpt lat="46.65085" lon="4.51343">
        <ele>452.058</ele>
        <time>2017-04-01T09:55:10Z</time>
      </trkpt>
      <trkpt lat="46.6506" lon="4.51252">
        <ele>449.713</ele>
        <time>2017-04-01T09:55:30Z</time>
      </trkpt>
      <trkpt lat="46.65003" lon="4.51195">
        <ele>453.952</ele>
        <time>2017-04-01T09:55:50Z</time>
      </trkpt>
      <trkpt lat="46.64979" lon="4.51155">
        <ele>452.045</ele>
        <time>2017-04-01T09:56:10Z</time>
      </trkpt>
      <trkpt lat="46.64939" lon="4.51129">
        <ele>454.732</ele>
        <time>2017-04-01T09:56:30Z</time>
      </trkpt>
      <trkpt lat="46.64912" lon="4.51096">
        <ele>456.126</ele>
        <time>2017-04-01T09:56:50Z</time>
      </trkpt>
      <trkpt lat="46.64885" lon="4.51046">
        <ele>453.198</ele>
        <time>2017-04-01T09:57:10Z</time>
      </trkpt>
      <trkpt lat="46.64882" lon="4.51029">
        <ele>451.615</ele>
        <time>2017-04-01T09:57:30Z</time>
      </trkpt>
      <trkpt lat="46.6485" lon="4.50984">
        <ele>447.126</ele>
        <time>2017-04-01T09:57:50Z</time>
      </trkpt>
      <trkpt lat="46.64814" lon="4.50972">
        <ele>448.408</ele>
        <time>2017-04-01T09:58:10Z</time>
      </trkpt>
      <trkpt lat="46.64755" lon="4.50914">
        <ele>451.495</ele>
        <time>2017-04-01T09:58:30Z</time>
      </trkpt>
      <trkpt lat="46.6471" lon="4.50889">
        <ele>452.39</ele>
        <time>2017-04-01T09:58:50Z</time>
      </trkpt>
      <trkpt lat="46.64667" lon="4.5088">
        <ele>454.041</ele>
        <time>2017-04-01T09:59:10Z</time>
      </trkpt>
      <trkpt lat="46.64638" lon="4.5085">
        <ele>453.326</ele>
        <time>2017-04-01T09:59:30Z</time>
      </trkpt>
      <trkpt lat="46.64617" lon="4.50811">
        <ele>452.995</ele>
        <time>2017-04-01T09:59:50Z</time>
      </trkpt>
      <trkpt lat="46.64601" lon="4.50734">
        <ele>451.048</ele>
        <time>2017-04-01T10:00:10Z</time>
      </trkpt>
      <trkpt lat="46.64553" lon="4.5057">
        <ele>452.025</ele>
        <time>2017-04-01T10:00:30Z</time>
      </trkpt>
      <trkpt lat="46.64518" lon="4.5051">
        <ele>455.379</ele>
        <time>2017-04-01T10:00:50Z</time>
      </trkpt>
      <trkpt lat="46.64487" lon="4.50468">
        <ele>457.579</ele>
        <time>2017-04-01T10:01:10Z</time>
      </trkpt>
      <trkpt lat="46.64445" lon="4.50467">
        <ele>458.405</ele>
        <time>2017-04-01T10:01:30Z</time>
      </trkpt>
      <trkpt lat="46.64413" lon="4.50453">
        <ele>461.625</ele>
        <time>2017-04-01T10:01:50Z</time>
      </trkpt>
      <trkpt lat="46.64304" lon="4.50344">
        <ele>463.008</ele>
        <time>2017-04-01T10:02:10Z</time>
      </trkpt>
      <trkpt lat="46.64252" lon="4.50272">
        <ele>465.043</ele>
        <time>2017-04-01T10:02:30Z</time>
      </trkpt>
      <trkpt lat="46.64221" lon="4.50202">
        <ele>463.968</ele>
        <time>2017-04-01T10:02:50Z</time>
      </trkpt>
      <trkpt lat="46.64211" lon="4.50173">
        <ele>464.289</ele>
        <time>2017-04-01T10:03:10Z</time>
      </trkpt>
      <trkpt lat="46.64173" lon="4.50109">
        <ele>462.534</ele>
        <time>2017-04-01T10:03:30Z</time>
      </trkpt>
      <trkpt lat="46.64145" lon="4.50078">
        <ele>462.523</ele>
        <time>2017-04-01T10:03:50Z</time>
      </trkpt>
      <trkpt lat="46.64124" lon="4.50021">
        <ele>463.676</ele>
        <time>2017-04-01T10:04:10Z</time>
      </trkpt>
      <trkpt lat="46.6411" lon="4.49952">
        <ele>465.763</ele>
        <time>2017-04-01T10:04:30Z</time>
      </trkpt>
      <trkpt lat="46.64093" lon="4.49913">
        <ele>465.447</ele>
        <time>2017-04-01T10:04:50Z</time>
      </trkpt>
      <trkpt lat="46.64082" lon="4.49868">
        <ele>465.058</ele>
        <time>2017-04-01T10:05:10Z</time>
      </trkpt>
      <trkpt lat="46.63971" lon="4.49663">
        <ele>472.052</ele>
        <time>2017-04-01T10:05:30Z</time>
      </trkpt>
      <trkpt lat="46.63952" lon="4.49617">
        <ele>472.317</ele>
        <time>2017-04-01T10:05:50Z</time>
      </trkpt>
      <trkpt lat="46.63908" lon="4.49561">
        <ele>472.808</ele>
        <time>2017-04-01T10:06:10Z</time>
      </trkpt>
      <trkpt lat="46.6386" lon="4.49507">
        <ele>471.771</ele>
        <time>2017-04-01T10:06:30Z</time>
      </trkpt>
      <trkpt lat="46.63826" lon="4.49459">
        <ele>471.686</ele>
        <time>2017-04-01T10:06:50Z</time>
      </trkpt>
      <trkpt lat="46.63764" lon="4.49352">
        <ele>474.317</ele>
        <time>2017-04-01T10:07:10Z</time>
      </trkpt>
      <trkpt lat="46.6372" lon="4.49297">
        <ele>479.492</ele>
        <time>2017-04-01T10:07:30Z</time>
      </trkpt>
      <trkpt lat="46.6367" lon="4.49213">
        <ele>480.191</ele>
        <time>2017-04-01T10:07:50Z</time>
      </trkpt>
      <trkpt lat="46.63585" lon="4.49081">
        <ele>484.974</ele>
        <time>2017-04-01T10:08:10Z</time>
      </trkpt>
      <trkpt lat="46.63473" lon="4.48942">
        <ele>490.181</ele>
        <time>2017-04-01T10:08:30Z</time>
      </trkpt>
      <trkpt lat="46.63406" lon="4.48822">
        <ele>493.855</ele>
        <time>2017-04-01T10:08:50Z</time>
      </trkpt>
      <trkpt lat="46.63356" lon="4.4868">
        <ele>502.033</ele>
        <time>2017-04-01T10:09:10Z</time>
      </trkpt>
      <trkpt lat="46.63347" lon="4.48521">
        <ele>512.523</ele>
        <time>2017-04-01T10:09:30Z</time>
      </trkpt>
      <trkpt lat="46.63423" lon="4.48389">
        <ele>524.515</ele>
        <time>2017-04-01T10:09:50Z</time>
      </trkpt>
      <trkpt lat="46.63475" lon="4.48359">
        <ele>531.208</ele>
        <time>2017-04-01T10:10:10Z</time>
      </trkpt>
      <trkpt lat="46.63487" lon="4.48322">
        <ele>532.259</ele>
        <time>2017-04-01T10:10:30Z</time>
      </trkpt>
      <trkpt lat="46.63451" lon="4.48247">
        <ele>537.684</ele>
        <time>2017-04-01T10:10:50Z</time>
      </trkpt>
      <trkpt lat="46.63419" lon="4.48198">
        <ele>544.495</ele>
        <time>2017-04-01T10:11:10Z</time>
      </trkpt>
      <trkpt lat="46.63345" lon="4.48168">
        <ele>556.67</ele>
        <time>2017-04-01T10:11:30Z</time>
      </trkpt>
      <trkpt lat="46.63289" lon="4.48133">
        <ele>566.169</ele>
        <time>2017-04-01T10:11:50Z</time>
      </trkpt>
      <trkpt lat="46.63251" lon="4.4813">
        <ele>572.882</ele>
        <time>2017-04-01T10:12:10Z</time>
      </trkpt>
      <trkpt lat="46.63293" lon="4.48105">
        <ele>569.099</ele>
        <time>2017-04-01T10:12:30Z</time>
      </trkpt>
      <trkpt lat="46.63306" lon="4.48067">
        <ele>571.223</ele>
        <time>2017-04-01T10:12:50Z</time>
      </trkpt>
      <trkpt lat="46.63325" lon="4.47984">
        <ele>576.766</ele>
        <time>2017-04-01T10:13:10Z</time>
      </trkpt>
      <trkpt lat="46.63322" lon="4.47964">
        <ele>579.329</ele>
        <time>2017-04-01T10:13:30Z</time>
      </trkpt>
      <trkpt lat="46.63311" lon="4.47962">
        <ele>583.121</ele>
        <time>2017-04-01T10:13:50Z</time>
      </trkpt>
      <trkpt lat="46.63273" lon="4.4802">
        <ele>584.408</ele>
        <time>2017-04-01T10:14:10Z</time>
      </trkpt>
      <trkpt lat="46.63242" lon="4.47995">
        <ele>589.922</ele>
        <time>2017-04-01T10:14:30Z</time>
      </trkpt>
      <trkpt lat="46.63211" lon="4.47991">
        <ele>591.627</ele>
        <time>2017-04-01T10:14:50Z</time>
      </trkpt>
      <trkpt lat="46.63193" lon="4.47965">
        <ele>592.098</ele>
        <time>2017-04-01T10:15:10Z</time>
      </trkpt>
      <trkpt lat="46.63155" lon="4.47941">
        <ele>591.683</ele>
        <time>2017-04-01T10:15:30Z</time>
      </trkpt>
      <trkpt lat="46.6316" lon="4.47928">
        <ele>591.952</ele>
        <time>2017-04-01T10:15:50Z</time>
      </trkpt>
      <trkpt lat="46.63138" lon="4.47905">
        <ele>592.445</ele>
        <time>2017-04-01T10:16:10Z</time>
      </trkpt>
      <trkpt lat="46.63076" lon="4.47862">
        <ele>594.042</ele>
        <time>2017-04-01T10:16:30Z</time>
      </trkpt>
      <trkpt lat="46.63014" lon="4.47795">
        <ele>595.756</ele>
        <time>2017-04-01T10:16:50Z</time>
      </trkpt>
      <trkpt lat="46.62994" lon="4.47723">
        <ele>597.076</ele>
        <time>2017-04-01T10:17:10Z</time>
      </trkpt>
      <trkpt lat="46.62953" lon="4.47668">
        <ele>591.19</ele>
        <time>2017-04-01T10:17:30Z</time>
      </trkpt>
      <trkpt lat="46.62895" lon="4.47667">
        <ele>588.719</ele>
        <time>2017-04-01T10:17:50Z</time>
      </trkpt>
      <trkpt lat="46.62838" lon="4.47602">
        <ele>584.908</ele>
        <time>2017-04-01T10:18:10Z</time>
      </trkpt>
      <trkpt lat="46.62728" lon="4.47519">
        <ele>576.163</ele>
        <time>2017-04-01T10:18:30Z</time>
      </trkpt>
      <trkpt lat="46.62633" lon="4.47534">
        <ele>574.218</ele>
        <time>2017-04-01T10:18:50Z</time>
      </trkpt>
      <trkpt lat="46.62567" lon="4.47515">
        <ele>568.999</ele>
        <time>2017-04-01T10:19:10Z</time>
      </trkpt>
      <trkpt lat="46.62538" lon="4.47523">
        <ele>567.054</ele>
        <time>2017-04-01T10:19:30Z</time>
      </trkpt>
      <trkpt lat="46.62491" lon="4.47564">
        <ele>561.693</ele>
        <time>2017-04-01T10:19:50Z</time>
      </trkpt>
      <trkpt lat="46.62414" lon="4.47879">
        <ele>554.576</ele>
        <time>2017-04-01T10:20:10Z</time>
      </trkpt>
      <trkpt lat="46.62354" lon="4.47907">
        <ele>551.113</ele>
        <time>2017-04-01T10:20:30Z</time>
      </trkpt>
      <trkpt lat="46.6229" lon="4.47858">
        <ele>548.177</ele>
        <time>2017-04-01T10:20:50Z</time>
      </trkpt>
      <trkpt lat="46.62242" lon="4.47758">
        <ele>546.556</ele>
        <time>2017-04-01T10:21:10Z</time>
      </trkpt>
      <trkpt lat="46.62128" lon="4.47641">
        <ele>538.159</ele>
        <time>2017-04-01T10:21:30Z</time>
      </trkpt>
      <trkpt lat="46.62032" lon="4.4761">
        <ele>536.014</ele>
        <time>2017-04-01T10:21:50Z</time>
      </trkpt>
      <trkpt lat="46.61896" lon="4.47447">
        <ele>516.408</ele>
        <time>2017-04-01T10:22:10Z</time>
      </trkpt>
      <trkpt lat="46.61874" lon="4.47401">
        <ele>512.431</ele>
        <time>2017-04-01T10:22:30Z</time>
      </trkpt>
      <trkpt lat="46.61837" lon="4.47357">
        <ele>513.076</ele>
        <time>2017-04-01T10:22:50Z</time>
      </trkpt>
      <trkpt lat="46.61804" lon="4.4736">
        <ele>515.287</ele>
        <time>2017-04-01T10:23:10Z</time>
      </trkpt>
      <trkpt lat="46.61802" lon="4.47337">
        <ele>516.312</ele>
        <time>2017-04-01T10:23:30Z</time>
      </trkpt>
      <trkpt lat="46.61795" lon="4.47315">
        <ele>516.971</ele>
        <time>2017-04-01T10:23:50Z</time>
      </trkpt>
      <trkpt lat="46.61791" lon="4.47285">
        <ele>514.824</ele>
        <time>2017-04-01T10:24:10Z</time>
      </trkpt>
      <trkpt lat="46.61755" lon="4.47233">
        <ele>507.411</ele>
        <time>2017-04-01T10:24:30Z</time>
      </trkpt>
      <trkpt lat="46.61626" lon="4.47159">
        <ele>506.385</ele>
        <time>2017-04-01T10:24:50Z</time>
      </trkpt>
      <trkpt lat="46.6159" lon="4.47156">
        <ele>509.628</ele>
        <time>2017-04-01T10:25:10Z</time>
      </trkpt>
      <trkpt lat="46.61549" lon="4.47137">
        <ele>510.689</ele>
        <time>2017-04-01T10:25:30Z</time>
      </trkpt>
      <trkpt lat="46.61474" lon="4.47126">
        <ele>508.117</ele>
        <time>2017-04-01T10:25:50Z</time>
      </trkpt>
      <trkpt lat="46.61441" lon="4.47069">
        <ele>509.708</ele>
        <time>2017-04-01T10:26:10Z</time>
      </trkpt>
      <trkpt lat="46.61407" lon="4.46962">
        <ele>507.688</ele>
        <time>2017-04-01T10:26:30Z</time>
      </trkpt>
      <trkpt lat="46.61383" lon="4.46925">
        <ele>503.883</ele>
        <time>2017-04-01T10:26:50Z</time>
      </trkpt>
      <trkpt lat="46.6137" lon="4.46893">
        <ele>503.854</ele>
        <time>2017-04-01T10:27:10Z</time>
      </trkpt>
      <trkpt lat="46.61325" lon="4.46838">
        <ele>501.099</ele>
        <time>2017-04-01T10:27:30Z</time>
      </trkpt>
      <trkpt lat="46.61296" lon="4.4663">
        <ele>487.648</ele>
        <time>2017-04-01T10:27:50Z</time>
      </trkpt>
      <trkpt lat="46.61302" lon="4.46587">
        <ele>485.091</ele>
        <time>2017-04-01T10:28:10Z</time>
      </trkpt>
      <trkpt lat="46.61233" lon="4.46536">
        <ele>479.888</ele>
        <time>2017-04-01T10:28:30Z</time>
      </trkpt>
      <trkpt lat="46.61208" lon="4.46502">
        <ele>479.152</ele>
        <time>2017-04-01T10:28:50Z</time>
      </trkpt>
      <trkpt lat="46.61176" lon="4.46512">
        <ele>480.855</ele>
        <time>2017-04-01T10:29:10Z</time>
      </trkpt>
      <trkpt lat="46.61113" lon="4.46562">
        <ele>482.207</ele>
        <time>2017-04-01T10:29:30Z</time>
      </trkpt>
      <trkpt lat="46.61067" lon="4.46584">
        <ele>485.817</ele>
        <time>2017-04-01T10:29:50Z</time>
      </trkpt>
      <trkpt lat="46.61047" lon="4.46568">
        <ele>485.908</ele>
        <time>2017-04-01T10:30:10Z</time>
      </trkpt>
      <trkpt lat="46.60999" lon="4.46541">
        <ele>483.081</ele>
        <time>2017-04-01T10:30:30Z</time>
      </trkpt>
      <trkpt lat="46.60931" lon="4.46537">
        <ele>480.776</ele>
        <time>2017-04-01T10:30:50Z</time>
      </trkpt>
      <trkpt lat="46.60881" lon="4.46528">
        <ele>478.747</ele>
        <time>2017-04-01T10:31:10Z</time>
      </trkpt>
      <trkpt lat="46.60763" lon="4.46578">
        <ele>476.532</ele>
        <time>2017-04-01T10:31:30Z</time>
      </trkpt>
      <trkpt lat="46.6073" lon="4.46604">
        <ele>473.641</ele>
        <time>2017-04-01T10:31:50Z</time>
      </trkpt>
      <trkpt lat="46.607" lon="4.46649">
        <ele>471.164</ele>
        <time>2017-04-01T10:32:10Z</time>
      </trkpt>
      <trkpt lat="46.60524" lon="4.46681">
        <ele>465.751</ele>
        <time>2017-04-01T10:32:30Z</time>
      </trkpt>
      <trkpt lat="46.60379" lon="4.46721">
        <ele>451.055</ele>
        <time>2017-04-01T10:32:50Z</time>
      </trkpt>
      <trkpt lat="46.60253" lon="4.46659">
        <ele>441.313</ele>
        <time>2017-04-01T10:33:10Z</time>
      </trkpt>
      <trkpt lat="46.60219" lon="4.46606">
        <ele>443.143</ele>
        <time>2017-04-01T10:33:30Z</time>
      </trkpt>
      <trkpt lat="46.60204" lon="4.46638">
        <ele>441.407</ele>
        <time>2017-04-01T10:33:50Z</time>
      </trkpt>
      <trkpt lat="46.60158" lon="4.46695">
        <ele>437.108</ele>
        <time>2017-04-01T10:34:10Z</time>
      </trkpt>
      <trkpt lat="46.60108" lon="4.46849">
        <ele>430.287</ele>
        <time>2017-04-01T10:34:30Z</time>
      </trkpt>
      <trkpt lat="46.60069" lon="4.46904">
        <ele>422.442</ele>
        <time>2017-04-01T10:34:50Z</time>
      </trkpt>
      <trkpt lat="46.60035" lon="4.46987">
        <ele>424.883</ele>
        <time>2017-04-01T10:35:10Z</time>
      </trkpt>
      <trkpt lat="46.59995" lon="4.47052">
        <ele>426.658</ele>
        <time>2017-04-01T10:35:30Z</time>
      </trkpt>
      <trkpt lat="46.59975" lon="4.4707">
        <ele>425.277</ele>
        <time>2017-04-01T10:35:50Z</time>
      </trkpt>
      <trkpt lat="46.59969" lon="4.47226">
        <ele>426.04</ele>
        <time>2017-04-01T10:36:10Z</time>
      </trkpt>
      <trkpt lat="46.59944" lon="4.47208">
        <ele>426.527</ele>
        <time>2017-04-01T10:36:30Z</time>
      </trkpt>
      <trkpt lat="46.59911" lon="4.47175">
        <ele>426.681</ele>
        <time>2017-04-01T10:36:50Z</time>
      </trkpt>
      <trkpt lat="46.5986" lon="4.47198">
        <ele>429.913</ele>
        <time>2017-04-01T10:37:10Z</time>
      </trkpt>
      <trkpt lat="46.59778" lon="4.47182">
        <ele>434.543</ele>
        <time>2017-04-01T10:37:30Z</time>
      </trkpt>
      <trkpt lat="46.59695" lon="4.47158">
        <ele>434.707</ele>
        <time>2017-04-01T10:37:50Z</time>
      </trkpt>
      <trkpt lat="46.59685" lon="4.47205">
        <ele>437.008</ele>
        <time>2017-04-01T10:38:10Z</time>
      </trkpt>
      <trkpt lat="46.59633" lon="4.47219">
        <ele>435.557</ele>
        <time>2017-04-01T10:38:30Z</time>
      </trkpt>
      <trkpt lat="46.59561" lon="4.47213">
        <ele>432.032</ele>
        <time>2017-04-01T10:38:50Z</time>
      </trkpt>
      <trkpt lat="46.5951" lon="4.47188">
        <ele>431.823</ele>
        <time>2017-04-01T10:39:10Z</time>
      </trkpt>
      <trkpt lat="46.59428" lon="4.47198">
        <ele>431.968</ele>
        <time>2017-04-01T10:39:30Z</time>
      </trkpt>
      <trkpt lat="46.59378" lon="4.47198">
        <ele>436.187</ele>
        <time>2017-04-01T10:39:50Z</time>
      </trkpt>
      <trkpt lat="46.59353" lon="4.4721">
        <ele>436.39</ele>
        <time>2017-04-01T10:40:10Z</time>
      </trkpt>
      <trkpt lat="46.59334" lon="4.47248">
        <ele>435.177</ele>
        <time>2017-04-01T10:40:30Z</time>
      </trkpt>
      <trkpt lat="46.59313" lon="4.47303">
        <ele>431.191</ele>
        <time>2017-04-01T10:40:50Z</time>
      </trkpt>
      <trkpt lat="46.59262" lon="4.47377">
        <ele>430.485</ele>
        <time>2017-04-01T10:41:10Z</time>
      </trkpt>
      <trkpt lat="46.59218" lon="4.47405">
        <ele>429.889</ele>
        <time>2017-04-01T10:41:30Z</time>
      </trkpt>
      <trkpt lat="46.59095" lon="4.47461">
        <ele>415.917</ele>
        <time>2017-04-01T10:41:50Z</time>
      </trkpt>
      <trkpt lat="46.59057" lon="4.47509">
        <ele>410.108</ele>
        <time>2017-04-01T10:42:10Z</time>
      </trkpt>
      <trkpt lat="46.5903" lon="4.4753">
        <ele>408.154</ele>
        <time>2017-04-01T10:42:30Z</time>
      </trkpt>
      <trkpt lat="46.58926" lon="4.47641">
        <ele>398.229</ele>
        <time>2017-04-01T10:42:50Z</time>
      </trkpt>
      <trkpt lat="46.58813" lon="4.47712">
        <ele>393.04</ele>
        <time>2017-04-01T10:43:10Z</time>
      </trkpt>
      <trkpt lat="46.58725" lon="4.4776">
        <ele>388.715</ele>
        <time>2017-04-01T10:43:30Z</time>
      </trkpt>
      <trkpt lat="46.58696" lon="4.47793">
        <ele>387.434</ele>
        <time>2017-04-01T10:43:50Z</time>
      </trkpt>
      <trkpt lat="46.58666" lon="4.47802">
        <ele>387.027</ele>
        <time>2017-04-01T10:44:10Z</time>
      </trkpt>
      <trkpt lat="46.58614" lon="4.47839">
        <ele>385.574</ele>
        <time>2017-04-01T10:44:30Z</time>
      </trkpt>
      <trkpt lat="46.58539" lon="4.47912">
        <ele>382.748</ele>
        <time>2017-04-01T10:44:50Z</time>
      </trkpt>
      <trkpt lat="46.58462" lon="4.47952">
        <ele>377.622</ele>
        <time>2017-04-01T10:45:10Z</time>
      </trkpt>
      <trkpt lat="46.58418" lon="4.47987">
        <ele>374.662</ele>
        <time>2017-04-01T10:45:30Z</time>
      </trkpt>
      <trkpt lat="46.58362" lon="4.48">
        <ele>373.008</ele>
        <time>2017-04-01T10:45:50Z</time>
      </trkpt>
      <trkpt lat="46.58335" lon="4.48029">
        <ele>375.908</ele>
        <time>2017-04-01T10:46:10Z</time>
      </trkpt>
      <trkpt lat="46.58282" lon="4.48134">
        <ele>378.868</ele>
        <time>2017-04-01T10:46:30Z</time>
      </trkpt>
      <trkpt lat="46.58226" lon="4.48162">
        <ele>380.133</ele>
        <time>2017-04-01T10:46:50Z</time>
      </trkpt>
      <trkpt lat="46.58165" lon="4.48173">
        <ele>381.124</ele>
        <time>2017-04-01T10:47:10Z</time>
      </trkpt>
      <trkpt lat="46.58138" lon="4.4823">
        <ele>383.189</ele>
        <time>2017-04-01T10:47:30Z</time>
      </trkpt>
      <trkpt lat="46.58061" lon="4.48321">
        <ele>387.498</ele>
        <time>2017-04-01T10:47:50Z</time>
      </trkpt>
      <trkpt lat="46.57987" lon="4.48421">
        <ele>395.781</ele>
        <time>2017-04-01T10:48:10Z</time>
      </trkpt>
      <trkpt lat="46.57958" lon="4.4841">
        <ele>396.068</ele>
        <time>2017-04-01T10:48:30Z</time>
      </trkpt>
      <trkpt lat="46.57925" lon="4.48429">
        <ele>398.242</ele>
        <time>2017-04-01T10:48:50Z</time>
      </trkpt>
      <trkpt lat="46.57855" lon="4.48651">
        <ele>409.114</ele>
        <time>2017-04-01T10:49:10Z</time>
      </trkpt>
      <trkpt lat="46.57815" lon="4.48617">
        <ele>406.054</ele>
        <time>2017-04-01T10:49:30Z</time>
      </trkpt>
      <trkpt lat="46.57759" lon="4.48591">
        <ele>400.709</ele>
        <time>2017-04-01T10:49:50Z</time>
      </trkpt>
      <trkpt lat="46.5768" lon="4.48503">
        <ele>397.108</ele>
        <time>2017-04-01T10:50:10Z</time>
      </trkpt>
      <trkpt lat="46.57587" lon="4.48435">
        <ele>396.197</ele>
        <time>2017-04-01T10:50:30Z</time>
      </trkpt>
      <trkpt lat="46.57539" lon="4.48372">
        <ele>391.912</ele>
        <time>2017-04-01T10:50:50Z</time>
      </trkpt>
      <trkpt lat="46.57499" lon="4.48373">
        <ele>388.473</ele>
        <time>2017-04-01T10:51:10Z</time>
      </trkpt>
      <trkpt lat="46.57434" lon="4.48347">
        <ele>377.818</ele>
        <time>2017-04-01T10:51:30Z</time>
      </trkpt>
      <trkpt lat="46.57395" lon="4.48376">
        <ele>372.217</ele>
        <time>2017-04-01T10:51:50Z</time>
      </trkpt>
      <trkpt lat="46.57352" lon="4.48441">
        <ele>364.33</ele>
        <time>2017-04-01T10:52:10Z</time>
      </trkpt>
      <trkpt lat="46.57306" lon="4.48386">
        <ele>357.957</ele>
        <time>2017-04-01T10:52:30Z</time>
      </trkpt>
      <trkpt lat="46.57266" lon="4.48394">
        <ele>354.091</ele>
        <time>2017-04-01T10:52:50Z</time>
      </trkpt>
      <trkpt lat="46.57243" lon="4.48413">
        <ele>352.313</ele>
        <time>2017-04-01T10:53:10Z</time>
      </trkpt>
      <trkpt lat="46.57229" lon="4.48444">
        <ele>352.543</ele>
        <time>2017-04-01T10:53:30Z</time>
      </trkpt>
      <trkpt lat="46.57204" lon="4.48455">
        <ele>355.107</ele>
        <time>2017-04-01T10:53:50Z</time>
      </trkpt>
      <trkpt lat="46.57184" lon="4.48509">
        <ele>362.108</ele>
        <time>2017-04-01T10:54:10Z</time>
      </trkpt>
      <trkpt lat="46.57147" lon="4.48542">
        <ele>365.287</ele>
        <time>2017-04-01T10:54:30Z</time>
      </trkpt>
      <trkpt lat="46.57056" lon="4.48582">
        <ele>368.062</ele>
        <time>2017-04-01T10:54:50Z</time>
      </trkpt>
      <trkpt lat="46.56922" lon="4.48558">
        <ele>378.033</ele>
        <time>2017-04-01T10:55:10Z</time>
      </trkpt>
      <trkpt lat="46.5691" lon="4.48582">
        <ele>378.088</ele>
        <time>2017-04-01T10:55:30Z</time>
      </trkpt>
      <trkpt lat="46.5688" lon="4.48604">
        <ele>378.547</ele>
        <time>2017-04-01T10:55:50Z</time>
      </trkpt>
      <trkpt lat="46.56847" lon="4.48561">
        <ele>376.64</ele>
        <time>2017-04-01T10:56:10Z</time>
      </trkpt>
      <trkpt lat="46.56816" lon="4.48497">
        <ele>371.627</ele>
        <time>2017-04-01T10:56:30Z</time>
      </trkpt>
      <trkpt lat="46.56804" lon="4.48458">
        <ele>369.411</ele>
        <time>2017-04-01T10:56:50Z</time>
      </trkpt>
      <trkpt lat="46.56776" lon="4.48444">
        <ele>366.938</ele>
        <time>2017-04-01T10:57:10Z</time>
      </trkpt>
      <trkpt lat="46.56768" lon="4.48359">
        <ele>365.57</ele>
        <time>2017-04-01T10:57:30Z</time>
      </trkpt>
      <trkpt lat="46.56748" lon="4.48325">
        <ele>364.417</ele>
        <time>2017-04-01T10:57:50Z</time>
      </trkpt>
      <trkpt lat="46.5673" lon="4.48316">
        <ele>363.808</ele>
        <time>2017-04-01T10:58:10Z</time>
      </trkpt>
      <trkpt lat="46.567" lon="4.48338">
        <ele>361.679</ele>
        <time>2017-04-01T10:58:30Z</time>
      </trkpt>
      <trkpt lat="46.56631" lon="4.483">
        <ele>361.694</ele>
        <time>2017-04-01T10:58:50Z</time>
      </trkpt>
      <trkpt lat="46.56622" lon="4.48248">
        <ele>360.165</ele>
        <time>2017-04-01T10:59:10Z</time>
      </trkpt>
      <trkpt lat="46.56578" lon="4.48152">
        <ele>354.33</ele>
        <time>2017-04-01T10:59:30Z</time>
      </trkpt>
      <trkpt lat="46.56556" lon="4.48125">
        <ele>355.059</ele>
        <time>2017-04-01T10:59:50Z</time>
      </trkpt>
      <trkpt lat="46.56511" lon="4.4815">
        <ele>353.772</ele>
        <time>2017-04-01T11:00:10Z</time>
      </trkpt>
      <trkpt lat="46.5647" lon="4.48156">
        <ele>354.749</ele>
        <time>2017-04-01T11:00:30Z</time>
      </trkpt>
      <trkpt lat="46.56445" lon="4.48142">
        <ele>354.943</ele>
        <time>2017-04-01T11:00:50Z</time>
      </trkpt>
      <trkpt lat="46.56407" lon="4.4809">
        <ele>360.656</ele>
        <time>2017-04-01T11:01:10Z</time>
      </trkpt>
      <trkpt lat="46.56382" lon="4.48073">
        <ele>363.059</ele>
        <time>2017-04-01T11:01:30Z</time>
      </trkpt>
      <trkpt lat="46.56324" lon="4.48114">
        <ele>363.514</ele>
        <time>2017-04-01T11:01:50Z</time>
      </trkpt>
      <trkpt lat="46.56306" lon="4.4815">
        <ele>368.608</ele>
        <time>2017-04-01T11:02:10Z</time>
      </trkpt>
      <trkpt lat="46.56259" lon="4.48154">
        <ele>371.731</ele>
        <time>2017-04-01T11:02:30Z</time>
      </trkpt>
      <trkpt lat="46.56211" lon="4.48174">
        <ele>374.716</ele>
        <time>2017-04-01T11:02:50Z</time>
      </trkpt>
      <trkpt lat="46.56144" lon="4.48166">
        <ele>376.757</ele>
        <time>2017-04-01T11:03:10Z</time>
      </trkpt>
      <trkpt lat="46.56075" lon="4.48221">
        <ele>381.262</ele>
        <time>2017-04-01T11:03:30Z</time>
      </trkpt>
      <trkpt lat="46.56037" lon="4.48234">
        <ele>385.831</ele>
        <time>2017-04-01T11:03:50Z</time>
      </trkpt>
      <trkpt lat="46.55971" lon="4.48218">
        <ele>394.944</ele>
        <time>2017-04-01T11:04:10Z</time>
      </trkpt>
      <trkpt lat="46.55888" lon="4.48232">
        <ele>404.171</ele>
        <time>2017-04-01T11:04:30Z</time>
      </trkpt>
      <trkpt lat="46.55851" lon="4.48241">
        <ele>409.745</ele>
        <time>2017-04-01T11:04:50Z</time>
      </trkpt>
      <trkpt lat="46.55744" lon="4.48228">
        <ele>424.978</ele>
        <time>2017-04-01T11:05:10Z</time>
      </trkpt>
      <trkpt lat="46.55654" lon="4.48273">
        <ele>434.433</ele>
        <time>2017-04-01T11:05:30Z</time>
      </trkpt>
      <trkpt lat="46.55565" lon="4.48138">
        <ele>441.326</ele>
        <time>2017-04-01T11:05:50Z</time>
      </trkpt>
      <trkpt lat="46.55508" lon="4.48134">
        <ele>443.908</ele>
        <time>2017-04-01T11:06:10Z</time>
      </trkpt>
      <trkpt lat="46.55456" lon="4.48109">
        <ele>450.393</ele>
        <time>2017-04-01T11:06:30Z</time>
      </trkpt>
      <trkpt lat="46.55405" lon="4.48055">
        <ele>455.318</ele>
        <time>2017-04-01T11:06:50Z</time>
      </trkpt>
      <trkpt lat="46.5537" lon="4.47996">
        <ele>459.649</ele>
        <time>2017-04-01T11:07:10Z</time>
      </trkpt>
      <trkpt lat="46.5534" lon="4.47933">
        <ele>464.524</ele>
        <time>2017-04-01T11:07:30Z</time>
      </trkpt>
      <trkpt lat="46.55311" lon="4.47914">
        <ele>463.493</ele>
        <time>2017-04-01T11:07:50Z</time>
      </trkpt>
      <trkpt lat="46.55221" lon="4.479">
        <ele>465.196</ele>
        <time>2017-04-01T11:08:10Z</time>
      </trkpt>
      <trkpt lat="46.5512" lon="4.47895">
        <ele>470.073</ele>
        <time>2017-04-01T11:08:30Z</time>
      </trkpt>
      <trkpt lat="46.55" lon="4.47854">
        <ele>479.397</ele>
        <time>2017-04-01T11:08:50Z</time>
      </trkpt>
      <trkpt lat="46.54936" lon="4.47854">
        <ele>480.555</ele>
        <time>2017-04-01T11:09:10Z</time>
      </trkpt>
      <trkpt lat="46.54883" lon="4.4781">
        <ele>476.207</ele>
        <time>2017-04-01T11:09:30Z</time>
      </trkpt>
      <trkpt lat="46.54865" lon="4.47732">
        <ele>468.417</ele>
        <time>2017-04-01T11:09:50Z</time>
      </trkpt>
      <trkpt lat="46.54842" lon="4.47757">
        <ele>466.008</ele>
        <time>2017-04-01T11:10:10Z</time>
      </trkpt>
      <trkpt lat="46.5483" lon="4.47783">
        <ele>463.341</ele>
        <time>2017-04-01T11:10:30Z</time>
      </trkpt>
      <trkpt lat="46.54815" lon="4.47806">
        <ele>459.736</ele>
        <time>2017-04-01T11:10:50Z</time>
      </trkpt>
      <trkpt lat="46.54787" lon="4.47893">
        <ele>460.987</ele>
        <time>2017-04-01T11:11:10Z</time>
      </trkpt>
      <trkpt lat="46.54786" lon="4.47951">
        <ele>460.012</ele>
        <time>2017-04-01T11:11:30Z</time>
      </trkpt>
      <trkpt lat="46.54781" lon="4.48018">
        <ele>454.961</ele>
        <time>2017-04-01T11:11:50Z</time>
      </trkpt>
      <trkpt lat="46.54785" lon="4.48056">
        <ele>448.194</ele>
        <time>2017-04-01T11:12:10Z</time>
      </trkpt>
      <trkpt lat="46.54827" lon="4.48113">
        <ele>445.961</ele>
        <time>2017-04-01T11:12:30Z</time>
      </trkpt>
      <trkpt lat="46.54871" lon="4.48186">
        <ele>446.065</ele>
        <time>2017-04-01T11:12:50Z</time>
      </trkpt>
      <trkpt lat="46.5491" lon="4.48235">
        <ele>440.517</ele>
        <time>2017-04-01T11:13:10Z</time>
      </trkpt>
      <trkpt lat="46.54924" lon="4.48242">
        <ele>439.787</ele>
        <time>2017-04-01T11:13:30Z</time>
      </trkpt>
      <trkpt lat="46.54911" lon="4.48263">
        <ele>433.515</ele>
        <time>2017-04-01T11:13:50Z</time>
      </trkpt>
      <trkpt lat="46.54875" lon="4.48293">
        <ele>423.608</ele>
        <time>2017-04-01T11:14:10Z</time>
      </trkpt>
      <trkpt lat="46.54857" lon="4.48343">
        <ele>413.687</ele>
        <time>2017-04-01T11:14:30Z</time>
      </trkpt>
      <trkpt lat="46.54833" lon="4.48339">
        <ele>410.332</ele>
        <time>2017-04-01T11:14:50Z</time>
      </trkpt>
      <trkpt lat="46.54792" lon="4.48302">
        <ele>408.583</ele>
        <time>2017-04-01T11:15:10Z</time>
      </trkpt>
      <trkpt lat="46.54757" lon="4.48312">
        <ele>402.738</ele>
        <time>2017-04-01T11:15:30Z</time>
      </trkpt>
      <trkpt lat="46.54741" lon="4.48336">
        <ele>399.947</ele>
        <time>2017-04-01T11:15:50Z</time>
      </trkpt>
      <trkpt lat="46.54691" lon="4.48471">
        <ele>386.06</ele>
        <time>2017-04-01T11:16:10Z</time>
      </trkpt>
      <trkpt lat="46.54612" lon="4.48557">
        <ele>372.067</ele>
        <time>2017-04-01T11:16:30Z</time>
      </trkpt>
      <trkpt lat="46.54594" lon="4.48592">
        <ele>371.071</ele>
        <time>2017-04-01T11:16:50Z</time>
      </trkpt>
      <trkpt lat="46.5457" lon="4.48613">
        <ele>368.476</ele>
        <time>2017-04-01T11:17:10Z</time>
      </trkpt>
      <trkpt lat="46.54559" lon="4.48684">
        <ele>360.79</ele>
        <time>2017-04-01T11:17:30Z</time>
      </trkpt>
      <trkpt lat="46.54547" lon="4.48736">
        <ele>356.719</ele>
        <time>2017-04-01T11:17:50Z</time>
      </trkpt>
      <trkpt lat="46.54501" lon="4.48748">
        <ele>349.308</ele>
        <time>2017-04-01T11:18:10Z</time>
      </trkpt>
      <trkpt lat="46.54472" lon="4.48782">
        <ele>343.583</ele>
        <time>2017-04-01T11:18:30Z</time>
      </trkpt>
      <trkpt lat="46.54387" lon="4.48893">
        <ele>330.558</ele>
        <time>2017-04-01T11:18:50Z</time>
      </trkpt>
      <trkpt lat="46.54344" lon="4.4895">
        <ele>326.119</ele>
        <time>2017-04-01T11:19:10Z</time>
      </trkpt>
      <trkpt lat="46.54169" lon="4.49295">
        <ele>323.334</ele>
        <time>2017-04-01T11:19:30Z</time>
      </trkpt>
      <trkpt lat="46.54124" lon="4.49373">
        <ele>321.483</ele>
        <time>2017-04-01T11:19:50Z</time>
      </trkpt>
      <trkpt lat="46.54078" lon="4.49485">
        <ele>319.326</ele>
        <time>2017-04-01T11:20:10Z</time>
      </trkpt>
      <trkpt lat="46.54053" lon="4.49659">
        <ele>309.913</ele>
        <time>2017-04-01T11:20:30Z</time>
      </trkpt>
      <trkpt lat="46.5403" lon="4.49729">
        <ele>303.037</ele>
        <time>2017-04-01T11:20:50Z</time>
      </trkpt>
      <trkpt lat="46.54017" lon="4.4983">
        <ele>294.313</ele>
        <time>2017-04-01T11:21:10Z</time>
      </trkpt>
      <trkpt lat="46.53984" lon="4.49898">
        <ele>287.343</ele>
        <time>2017-04-01T11:21:30Z</time>
      </trkpt>
      <trkpt lat="46.53989" lon="4.49926">
        <ele>284.307</ele>
        <time>2017-04-01T11:21:50Z</time>
      </trkpt>
      <trkpt lat="46.54017" lon="4.49937">
        <ele>282.608</ele>
        <time>2017-04-01T11:22:10Z</time>
      </trkpt>
      <trkpt lat="46.54003" lon="4.50104">
        <ele>269.437</ele>
        <time>2017-04-01T11:22:30Z</time>
      </trkpt>
      <trkpt lat="46.5394" lon="4.50142">
        <ele>265.852</ele>
        <time>2017-04-01T11:22:50Z</time>
      </trkpt>
      <trkpt lat="46.539" lon="4.50173">
        <ele>262.543</ele>
        <time>2017-04-01T11:23:10Z</time>
      </trkpt>
      <trkpt lat="46.539" lon="4.50196">
        <ele>261.348</ele>
        <time>2017-04-01T11:23:30Z</time>
      </trkpt>
      <trkpt lat="46.53908" lon="4.5026">
        <ele>258.797</ele>
        <time>2017-04-01T11:23:50Z</time>
      </trkpt>
      <trkpt lat="46.53896" lon="4.50302">
        <ele>256.37</ele>
        <time>2017-04-01T11:24:10Z</time>
      </trkpt>
      <trkpt lat="46.53859" lon="4.50315">
        <ele>255.367</ele>
        <time>2017-04-01T11:24:30Z</time>
      </trkpt>
      <trkpt lat="46.53848" lon="4.5034">
        <ele>256.461</ele>
        <time>2017-04-01T11:24:50Z</time>
      </trkpt>
      <trkpt lat="46.53851" lon="4.50396">
        <ele>259.089</ele>
        <time>2017-04-01T11:25:10Z</time>
      </trkpt>
      <trkpt lat="46.53878" lon="4.50494">
        <ele>259.106</ele>
        <time>2017-04-01T11:25:30Z</time>
      </trkpt>
      <trkpt lat="46.53851" lon="4.50633">
        <ele>261.626</ele>
        <time>2017-04-01T11:25:50Z</time>
      </trkpt>
      <trkpt lat="46.53816" lon="4.50659">
        <ele>257.308</ele>
        <time>2017-04-01T11:26:10Z</time>
      </trkpt>
      <trkpt lat="46.53806" lon="4.50684">
        <ele>255.484</ele>
        <time>2017-04-01T11:26:30Z</time>
      </trkpt>
      <trkpt lat="46.53803" lon="4.50708">
        <ele>254.849</ele>
        <time>2017-04-01T11:26:50Z</time>
      </trkpt>
      <trkpt lat="46.53791" lon="4.50757">
        <ele>253.87</ele>
        <time>2017-04-01T11:27:10Z</time>
      </trkpt>
      <trkpt lat="46.53507" lon="4.50655">
        <ele>262.055</ele>
        <time>2017-04-01T11:27:30Z</time>
      </trkpt>
      <trkpt lat="46.53469" lon="4.50697">
        <ele>267.444</ele>
        <time>2017-04-01T11:27:50Z</time>
      </trkpt>
      <trkpt lat="46.53447" lon="4.50725">
        <ele>271.047</ele>
        <time>2017-04-01T11:28:10Z</time>
      </trkpt>
      <trkpt lat="46.53289" lon="4.50864">
        <ele>295.684</ele>
        <time>2017-04-01T11:28:30Z</time>
      </trkpt>
      <trkpt lat="46.53125" lon="4.50988">
        <ele>299.068</ele>
        <time>2017-04-01T11:28:50Z</time>
      </trkpt>
      <trkpt lat="46.53091" lon="4.51001">
        <ele>299.497</ele>
        <time>2017-04-01T11:29:10Z</time>
      </trkpt>
      <trkpt lat="46.53056" lon="4.50999">
        <ele>295.923</ele>
        <time>2017-04-01T11:29:30Z</time>
      </trkpt>
      <trkpt lat="46.52817" lon="4.51135">
        <ele>270.525</ele>
        <time>2017-04-01T11:29:50Z</time>
      </trkpt>
      <trkpt lat="46.52758" lon="4.51157">
        <ele>267.108</ele>
        <time>2017-04-01T11:30:10Z</time>
      </trkpt>
      <trkpt lat="46.52732" lon="4.51175">
        <ele>268.465</ele>
        <time>2017-04-01T11:30:30Z</time>
      </trkpt>
      <trkpt lat="46.52658" lon="4.51192">
        <ele>278.27</ele>
        <time>2017-04-01T11:30:50Z</time>
      </trkpt>
      <trkpt lat="46.52602" lon="4.51209">
        <ele>280.591</ele>
        <time>2017-04-01T11:31:10Z</time>
      </trkpt>
      <trkpt lat="46.52571" lon="4.51255">
        <ele>280.636</ele>
        <time>2017-04-01T11:31:30Z</time>
      </trkpt>
      <trkpt lat="46.52519" lon="4.51283">
        <ele>280.565</ele>
        <time>2017-04-01T11:31:50Z</time>
      </trkpt>
      <trkpt lat="46.52448" lon="4.51289">
        <ele>283.688</ele>
        <time>2017-04-01T11:32:10Z</time>
      </trkpt>
      <trkpt lat="46.52377" lon="4.51286">
        <ele>285.395</ele>
        <time>2017-04-01T11:32:30Z</time>
      </trkpt>
      <trkpt lat="46.52317" lon="4.51359">
        <ele>281.429</ele>
        <time>2017-04-01T11:32:50Z</time>
      </trkpt>
      <trkpt lat="46.52226" lon="4.51506">
        <ele>273.057</ele>
        <time>2017-04-01T11:33:10Z</time>
      </trkpt>
      <trkpt lat="46.52112" lon="4.51311">
        <ele>271</ele>
        <time>2017-04-01T11:33:30Z</time>
      </trkpt>
      <trkpt lat="46.52064" lon="4.51194">
        <ele>269.32</ele>
        <time>2017-04-01T11:33:50Z</time>
      </trkpt>
      <trkpt lat="46.52012" lon="4.51122">
        <ele>265.808</ele>
        <time>2017-04-01T11:34:10Z</time>
      </trkpt>
      <trkpt lat="46.51928" lon="4.51056">
        <ele>259.821</ele>
        <time>2017-04-01T11:34:30Z</time>
      </trkpt>
      <trkpt lat="46.51899" lon="4.50993">
        <ele>260.096</ele>
        <time>2017-04-01T11:34:50Z</time>
      </trkpt>
      <trkpt lat="46.51607" lon="4.50824">
        <ele>279.037</ele>
        <time>2017-04-01T11:35:10Z</time>
      </trkpt>
      <trkpt lat="46.51637" lon="4.50722">
        <ele>274.172</ele>
        <time>2017-04-01T11:35:30Z</time>
      </trkpt>
      <trkpt lat="46.51691" lon="4.50685">
        <ele>273.591</ele>
        <time>2017-04-01T11:35:50Z</time>
      </trkpt>
      <trkpt lat="46.51735" lon="4.50604">
        <ele>274.584</ele>
        <time>2017-04-01T11:36:10Z</time>
      </trkpt>
      <trkpt lat="46.51744" lon="4.50526">
        <ele>278.751</ele>
        <time>2017-04-01T11:36:30Z</time>
      </trkpt>
      <trkpt lat="46.51728" lon="4.50485">
        <ele>279.945</ele>
        <time>2017-04-01T11:36:50Z</time>
      </trkpt>
      <trkpt lat="46.51704" lon="4.50455">
        <ele>282.653</ele>
        <time>2017-04-01T11:37:10Z</time>
      </trkpt>
      <trkpt lat="46.51692" lon="4.50374">
        <ele>288.604</ele>
        <time>2017-04-01T11:37:30Z</time>
      </trkpt>
      <trkpt lat="46.51708" lon="4.50297">
        <ele>282.414</ele>
        <time>2017-04-01T11:37:50Z</time>
      </trkpt>
      <trkpt lat="46.517" lon="4.50233">
        <ele>283.008</ele>
        <time>2017-04-01T11:38:10Z</time>
      </trkpt>
      <trkpt lat="46.51659" lon="4.50085">
        <ele>280.691</ele>
        <time>2017-04-01T11:38:30Z</time>
      </trkpt>
      <trkpt lat="46.51662" lon="4.50034">
        <ele>277.296</ele>
        <time>2017-04-01T11:38:50Z</time>
      </trkpt>
      <trkpt lat="46.51685" lon="4.50017">
        <ele>271.127</ele>
        <time>2017-04-01T11:39:10Z</time>
      </trkpt>
      <trkpt lat="46.5167" lon="4.49938">
        <ele>273.422</ele>
        <time>2017-04-01T11:39:30Z</time>
      </trkpt>
      <trkpt lat="46.51649" lon="4.4986">
        <ele>272.961</ele>
        <time>2017-04-01T11:39:50Z</time>
      </trkpt>
      <trkpt lat="46.51651" lon="4.4973">
        <ele>273.724</ele>
        <time>2017-04-01T11:40:10Z</time>
      </trkpt>
      <trkpt lat="46.51718" lon="4.49546">
        <ele>277.161</ele>
        <time>2017-04-01T11:40:30Z</time>
      </trkpt>
      <trkpt lat="46.51699" lon="4.49471">
        <ele>278.655</ele>
        <time>2017-04-01T11:40:50Z</time>
      </trkpt>
      <trkpt lat="46.51679" lon="4.49359">
        <ele>282.594</ele>
        <time>2017-04-01T11:41:10Z</time>
      </trkpt>
      <trkpt lat="46.51655" lon="4.49313">
        <ele>283.457</ele>
        <time>2017-04-01T11:41:30Z</time>
      </trkpt>
      <trkpt lat="46.5165" lon="4.49284">
        <ele>285.422</ele>
        <time>2017-04-01T11:41:50Z</time>
      </trkpt>
      <trkpt lat="46.51651" lon="4.49223">
        <ele>291.908</ele>
        <time>2017-04-01T11:42:10Z</time>
      </trkpt>
      <trkpt lat="46.5168" lon="4.49143">
        <ele>291.295</ele>
        <time>2017-04-01T11:42:30Z</time>
      </trkpt>
      <trkpt lat="46.51679" lon="4.49097">
        <ele>291.12</ele>
        <time>2017-04-01T11:42:50Z</time>
      </trkpt>
      <trkpt lat="46.51688" lon="4.49001">
        <ele>294.131</ele>
        <time>2017-04-01T11:43:10Z</time>
      </trkpt>
      <trkpt lat="46.51691" lon="4.48927">
        <ele>292.456</ele>
        <time>2017-04-01T11:43:30Z</time>
      </trkpt>
      <trkpt lat="46.5167" lon="4.4887">
        <ele>289.975</ele>
        <time>2017-04-01T11:43:50Z</time>
      </trkpt>
      <trkpt lat="46.51617" lon="4.4876">
        <ele>295.038</ele>
        <time>2017-04-01T11:44:10Z</time>
      </trkpt>
      <trkpt lat="46.51611" lon="4.48604">
        <ele>303.845</ele>
        <time>2017-04-01T11:44:30Z</time>
      </trkpt>
      <trkpt lat="46.51593" lon="4.48545">
        <ele>307.199</ele>
        <time>2017-04-01T11:44:50Z</time>
      </trkpt>
      <trkpt lat="46.51518" lon="4.48437">
        <ele>312.321</ele>
        <time>2017-04-01T11:45:10Z</time>
      </trkpt>
      <trkpt lat="46.51485" lon="4.48413">
        <ele>312.841</ele>
        <time>2017-04-01T11:45:30Z</time>
      </trkpt>
      <trkpt lat="46.51468" lon="4.48445">
        <ele>312.105</ele>
        <time>2017-04-01T11:45:50Z</time>
      </trkpt>
      <trkpt lat="46.51454" lon="4.48462">
        <ele>313.308</ele>
        <time>2017-04-01T11:46:10Z</time>
      </trkpt>
      <trkpt lat="46.51415" lon="4.48442">
        <ele>314.138</ele>
        <time>2017-04-01T11:46:30Z</time>
      </trkpt>
      <trkpt lat="46.51325" lon="4.48441">
        <ele>323.623</ele>
        <time>2017-04-01T11:46:50Z</time>
      </trkpt>
      <trkpt lat="46.51264" lon="4.48416">
        <ele>328.914</ele>
        <time>2017-04-01T11:47:10Z</time>
      </trkpt>
      <trkpt lat="46.51217" lon="4.48369">
        <ele>333.379</ele>
        <time>2017-04-01T11:47:30Z</time>
      </trkpt>
      <trkpt lat="46.5116" lon="4.48347">
        <ele>343.778</ele>
        <time>2017-04-01T11:47:50Z</time>
      </trkpt>
      <trkpt lat="46.51132" lon="4.48306">
        <ele>349.081</ele>
        <time>2017-04-01T11:48:10Z</time>
      </trkpt>
      <trkpt lat="46.51113" lon="4.48271">
        <ele>352.248</ele>
        <time>2017-04-01T11:48:30Z</time>
      </trkpt>
      <trkpt lat="46.51099" lon="4.48205">
        <ele>356.722</ele>
        <time>2017-04-01T11:48:50Z</time>
      </trkpt>
      <trkpt lat="46.51101" lon="4.48127">
        <ele>364.397</ele>
        <time>2017-04-01T11:49:10Z</time>
      </trkpt>
      <trkpt lat="46.51092" lon="4.48098">
        <ele>366.623</ele>
        <time>2017-04-01T11:49:30Z</time>
      </trkpt>
      <trkpt lat="46.51067" lon="4.48056">
        <ele>368.925</ele>
        <time>2017-04-01T11:49:50Z</time>
      </trkpt>
      <trkpt lat="46.50828" lon="4.47798">
        <ele>378.508</ele>
        <time>2017-04-01T11:50:10Z</time>
      </trkpt>
      <trkpt lat="46.50792" lon="4.47778">
        <ele>378.585</ele>
        <time>2017-04-01T11:50:30Z</time>
      </trkpt>
      <trkpt lat="46.50735" lon="4.47771">
        <ele>381.06</ele>
        <time>2017-04-01T11:50:50Z</time>
      </trkpt>
      <trkpt lat="46.50671" lon="4.47696">
        <ele>383.711</ele>
        <time>2017-04-01T11:51:10Z</time>
      </trkpt>
      <trkpt lat="46.50646" lon="4.4769">
        <ele>390.396</ele>
        <time>2017-04-01T11:51:30Z</time>
      </trkpt>
      <trkpt lat="46.50641" lon="4.47662">
        <ele>388.025</ele>
        <time>2017-04-01T11:51:50Z</time>
      </trkpt>
      <trkpt lat="46.5065" lon="4.47619">
        <ele>383.468</ele>
        <time>2017-04-01T11:52:10Z</time>
      </trkpt>
      <trkpt lat="46.50697" lon="4.47598">
        <ele>375.935</ele>
        <time>2017-04-01T11:52:30Z</time>
      </trkpt>
      <trkpt lat="46.50756" lon="4.47529">
        <ele>379.729</ele>
        <time>2017-04-01T11:52:50Z</time>
      </trkpt>
      <trkpt lat="46.5076" lon="4.47512">
        <ele>380.688</ele>
        <time>2017-04-01T11:53:10Z</time>
      </trkpt>
      <trkpt lat="46.50757" lon="4.47483">
        <ele>382.024</ele>
        <time>2017-04-01T11:53:30Z</time>
      </trkpt>
      <trkpt lat="46.50727" lon="4.47418">
        <ele>387.026</ele>
        <time>2017-04-01T11:53:50Z</time>
      </trkpt>
      <trkpt lat="46.50696" lon="4.47362">
        <ele>394.808</ele>
        <time>2017-04-01T11:54:10Z</time>
      </trkpt>
      <trkpt lat="46.50683" lon="4.4732">
        <ele>396.114</ele>
        <time>2017-04-01T11:54:30Z</time>
      </trkpt>
      <trkpt lat="46.50683" lon="4.47288">
        <ele>397.489</ele>
        <time>2017-04-01T11:54:50Z</time>
      </trkpt>
      <trkpt lat="46.50742" lon="4.47211">
        <ele>398.29</ele>
        <time>2017-04-01T11:55:10Z</time>
      </trkpt>
      <trkpt lat="46.50742" lon="4.47171">
        <ele>398.445</ele>
        <time>2017-04-01T11:55:30Z</time>
      </trkpt>
      <trkpt lat="46.50615" lon="4.46955">
        <ele>387.364</ele>
        <time>2017-04-01T11:55:50Z</time>
      </trkpt>
      <trkpt lat="46.506" lon="4.46919">
        <ele>387.087</ele>
        <time>2017-04-01T11:56:10Z</time>
      </trkpt>
      <trkpt lat="46.50584" lon="4.4678">
        <ele>390.044</ele>
        <time>2017-04-01T11:56:30Z</time>
      </trkpt>
      <trkpt lat="46.50521" lon="4.46726">
        <ele>403.728</ele>
        <time>2017-04-01T11:56:50Z</time>
      </trkpt>
      <trkpt lat="46.50463" lon="4.46666">
        <ele>409.341</ele>
        <time>2017-04-01T11:57:10Z</time>
      </trkpt>
      <trkpt lat="46.50417" lon="4.46581">
        <ele>402.881</ele>
        <time>2017-04-01T11:57:30Z</time>
      </trkpt>
      <trkpt lat="46.50333" lon="4.46653">
        <ele>404.009</ele>
        <time>2017-04-01T11:57:50Z</time>
      </trkpt>
      <trkpt lat="46.50301" lon="4.46698">
        <ele>408.508</ele>
        <time>2017-04-01T11:58:10Z</time>
      </trkpt>
      <trkpt lat="46.50182" lon="4.46572">
        <ele>409.68</ele>
        <time>2017-04-01T11:58:30Z</time>
      </trkpt>
      <trkpt lat="46.50153" lon="4.46571">
        <ele>409.535</ele>
        <time>2017-04-01T11:58:50Z</time>
      </trkpt>
      <trkpt lat="46.50098" lon="4.46589">
        <ele>407.796</ele>
        <time>2017-04-01T11:59:10Z</time>
      </trkpt>
      <trkpt lat="46.50013" lon="4.46557">
        <ele>401.471</ele>
        <time>2017-04-01T11:59:30Z</time>
      </trkpt>
      <trkpt lat="46.49978" lon="4.46495">
        <ele>396.62</ele>
        <time>2017-04-01T11:59:50Z</time>
      </trkpt>
      <trkpt lat="46.49743" lon="4.46384">
        <ele>383.383</ele>
        <time>2017-04-01T12:00:10Z</time>
      </trkpt>
      <trkpt lat="46.49723" lon="4.46293">
        <ele>378.64</ele>
        <time>2017-04-01T12:00:30Z</time>
      </trkpt>
      <trkpt lat="46.49701" lon="4.46213">
        <ele>376.294</ele>
        <time>2017-04-01T12:00:50Z</time>
      </trkpt>
      <trkpt lat="46.49641" lon="4.46174">
        <ele>370.354</ele>
        <time>2017-04-01T12:01:10Z</time>
      </trkpt>
      <trkpt lat="46.4958" lon="4.46224">
        <ele>374.256</ele>
        <time>2017-04-01T12:01:30Z</time>
      </trkpt>
      <trkpt lat="46.49512" lon="4.4627">
        <ele>382.011</ele>
        <time>2017-04-01T12:01:50Z</time>
      </trkpt>
      <trkpt lat="46.49356" lon="4.46399">
        <ele>393.508</ele>
        <time>2017-04-01T12:02:10Z</time>
      </trkpt>
      <trkpt lat="46.49251" lon="4.46419">
        <ele>388.311</ele>
        <time>2017-04-01T12:02:30Z</time>
      </trkpt>
      <trkpt lat="46.49226" lon="4.46449">
        <ele>387.996</ele>
        <time>2017-04-01T12:02:50Z</time>
      </trkpt>
      <trkpt lat="46.49186" lon="4.46467">
        <ele>385.387</ele>
        <time>2017-04-01T12:03:10Z</time>
      </trkpt>
      <trkpt lat="46.49135" lon="4.4645">
        <ele>381.842</ele>
        <time>2017-04-01T12:03:30Z</time>
      </trkpt>
      <trkpt lat="46.49109" lon="4.4647">
        <ele>379.821</ele>
        <time>2017-04-01T12:03:50Z</time>
      </trkpt>
      <trkpt lat="46.49045" lon="4.4668">
        <ele>384.334</ele>
        <time>2017-04-01T12:04:10Z</time>
      </trkpt>
      <trkpt lat="46.4903" lon="4.46748">
        <ele>386.031</ele>
        <time>2017-04-01T12:04:30Z</time>
      </trkpt>
      <trkpt lat="46.49032" lon="4.46812">
        <ele>389.635</ele>
        <time>2017-04-01T12:04:50Z</time>
      </trkpt>
      <trkpt lat="46.48931" lon="4.46926">
        <ele>390.591</ele>
        <time>2017-04-01T12:05:10Z</time>
      </trkpt>
      <trkpt lat="46.48898" lon="4.46938">
        <ele>391.581</ele>
        <time>2017-04-01T12:05:30Z</time>
      </trkpt>
      <trkpt lat="46.48869" lon="4.46961">
        <ele>392.619</ele>
        <time>2017-04-01T12:05:50Z</time>
      </trkpt>
      <trkpt lat="46.48837" lon="4.47002">
        <ele>394.908</ele>
        <time>2017-04-01T12:06:10Z</time>
      </trkpt>
      <trkpt lat="46.48812" lon="4.47019">
        <ele>398.355</ele>
        <time>2017-04-01T12:06:30Z</time>
      </trkpt>
      <trkpt lat="46.48768" lon="4.47035">
        <ele>403.99</ele>
        <time>2017-04-01T12:06:50Z</time>
      </trkpt>
      <trkpt lat="46.48742" lon="4.47053">
        <ele>407.491</ele>
        <time>2017-04-01T12:07:10Z</time>
      </trkpt>
      <trkpt lat="46.4868" lon="4.47137">
        <ele>413.916</ele>
        <time>2017-04-01T12:07:30Z</time>
      </trkpt>
      <trkpt lat="46.48645" lon="4.47159">
        <ele>417.075</ele>
        <time>2017-04-01T12:07:50Z</time>
      </trkpt>
      <trkpt lat="46.48404" lon="4.4697">
        <ele>428.558</ele>
        <time>2017-04-01T12:08:10Z</time>
      </trkpt>
      <trkpt lat="46.48239" lon="4.46751">
        <ele>432.695</ele>
        <time>2017-04-01T12:08:30Z</time>
      </trkpt>
      <trkpt lat="46.48219" lon="4.46711">
        <ele>434.329</ele>
        <time>2017-04-01T12:08:50Z</time>
      </trkpt>
      <trkpt lat="46.48222" lon="4.4667">
        <ele>435.818</ele>
        <time>2017-04-01T12:09:10Z</time>
      </trkpt>
      <trkpt lat="46.4815" lon="4.46602">
        <ele>438.098</ele>
        <time>2017-04-01T12:09:30Z</time>
      </trkpt>
      <trkpt lat="46.48103" lon="4.46505">
        <ele>440.217</ele>
        <time>2017-04-01T12:09:50Z</time>
      </trkpt>
      <trkpt lat="46.48017" lon="4.46285">
        <ele>432.608</ele>
        <time>2017-04-01T12:10:10Z</time>
      </trkpt>
      <trkpt lat="46.47982" lon="4.46247">
        <ele>432.067</ele>
        <time>2017-04-01T12:10:30Z</time>
      </trkpt>
      <trkpt lat="46.47848" lon="4.46029">
        <ele>427.062</ele>
        <time>2017-04-01T12:10:50Z</time>
      </trkpt>
      <trkpt lat="46.47767" lon="4.46011">
        <ele>423.993</ele>
        <time>2017-04-01T12:11:10Z</time>
      </trkpt>
      <trkpt lat="46.47746" lon="4.4602">
        <ele>422.248</ele>
        <time>2017-04-01T12:11:30Z</time>
      </trkpt>
      <trkpt lat="46.47559" lon="4.46166">
        <ele>417.267</ele>
        <time>2017-04-01T12:11:50Z</time>
      </trkpt>
      <trkpt lat="46.47528" lon="4.46228">
        <ele>417.28</ele>
        <time>2017-04-01T12:12:10Z</time>
      </trkpt>
      <trkpt lat="46.47462" lon="4.46323">
        <ele>416.597</ele>
        <time>2017-04-01T12:12:30Z</time>
      </trkpt>
      <trkpt lat="46.47428" lon="4.46363">
        <ele>417.251</ele>
        <time>2017-04-01T12:12:50Z</time>
      </trkpt>
      <trkpt lat="46.47351" lon="4.46473">
        <ele>412.388</ele>
        <time>2017-04-01T12:13:10Z</time>
      </trkpt>
      <trkpt lat="46.47319" lon="4.46565">
        <ele>410.224</ele>
        <time>2017-04-01T12:13:30Z</time>
      </trkpt>
      <trkpt lat="46.47229" lon="4.46677">
        <ele>402.926</ele>
        <time>2017-04-01T12:13:50Z</time>
      </trkpt>
      <trkpt lat="46.47172" lon="4.46721">
        <ele>405.708</ele>
        <time>2017-04-01T12:14:10Z</time>
      </trkpt>
      <trkpt lat="46.47107" lon="4.46784">
        <ele>402.154</ele>
        <time>2017-04-01T12:14:30Z</time>
      </trkpt>
      <trkpt lat="46.47073" lon="4.46819">
        <ele>401.729</ele>
        <time>2017-04-01T12:14:50Z</time>
      </trkpt>
      <trkpt lat="46.47021" lon="4.46853">
        <ele>397.42</ele>
        <time>2017-04-01T12:15:10Z</time>
      </trkpt>
      <trkpt lat="46.47001" lon="4.4686">
        <ele>396.035</ele>
        <time>2017-04-01T12:15:30Z</time>
      </trkpt>
      <trkpt lat="46.46935" lon="4.46901">
        <ele>390.624</ele>
        <time>2017-04-01T12:15:50Z</time>
      </trkpt>
      <trkpt lat="46.46879" lon="4.46992">
        <ele>388.097</ele>
        <time>2017-04-01T12:16:10Z</time>
      </trkpt>
      <trkpt lat="46.468" lon="4.47079">
        <ele>389.684</ele>
        <time>2017-04-01T12:16:30Z</time>
      </trkpt>
      <trkpt lat="46.4674" lon="4.47168">
        <ele>391.638</ele>
        <time>2017-04-01T12:16:50Z</time>
      </trkpt>
      <trkpt lat="46.46683" lon="4.4722">
        <ele>394.854</ele>
        <time>2017-04-01T12:17:10Z</time>
      </trkpt>
      <trkpt lat="46.4662" lon="4.47352">
        <ele>399.156</ele>
        <time>2017-04-01T12:17:30Z</time>
      </trkpt>
      <trkpt lat="46.46608" lon="4.47395">
        <ele>402.311</ele>
        <time>2017-04-01T12:17:50Z</time>
      </trkpt>
      <trkpt lat="46.46546" lon="4.47495">
        <ele>410.108</ele>
        <time>2017-04-01T12:18:10Z</time>
      </trkpt>
      <trkpt lat="46.46515" lon="4.47568">
        <ele>413.761</ele>
        <time>2017-04-01T12:18:30Z</time>
      </trkpt>
      <trkpt lat="46.46495" lon="4.47569">
        <ele>414.326</ele>
        <time>2017-04-01T12:18:50Z</time>
      </trkpt>
      <trkpt lat="46.46361" lon="4.47647">
        <ele>416.347</ele>
        <time>2017-04-01T12:19:10Z</time>
      </trkpt>
      <trkpt lat="46.46299" lon="4.47667">
        <ele>417.232</ele>
        <time>2017-04-01T12:19:30Z</time>
      </trkpt>
      <trkpt lat="46.46259" lon="4.47696">
        <ele>418.031</ele>
        <time>2017-04-01T12:19:50Z</time>
      </trkpt>
      <trkpt lat="46.46109" lon="4.47704">
        <ele>416.354</ele>
        <time>2017-04-01T12:20:10Z</time>
      </trkpt>
      <trkpt lat="46.46033" lon="4.47735">
        <ele>415.791</ele>
        <time>2017-04-01T12:20:30Z</time>
      </trkpt>
      <trkpt lat="46.45967" lon="4.47772">
        <ele>413.655</ele>
        <time>2017-04-01T12:20:50Z</time>
      </trkpt>
      <trkpt lat="46.45933" lon="4.47782">
        <ele>414.447</ele>
        <time>2017-04-01T12:21:10Z</time>
      </trkpt>
      <trkpt lat="46.45864" lon="4.47823">
        <ele>418.529</ele>
        <time>2017-04-01T12:21:30Z</time>
      </trkpt>
      <trkpt lat="46.45824" lon="4.47825">
        <ele>419.221</ele>
        <time>2017-04-01T12:21:50Z</time>
      </trkpt>
      <trkpt lat="46.45776" lon="4.47806">
        <ele>420.208</ele>
        <time>2017-04-01T12:22:10Z</time>
      </trkpt>
      <trkpt lat="46.45725" lon="4.47771">
        <ele>424.57</ele>
        <time>2017-04-01T12:22:30Z</time>
      </trkpt>
      <trkpt lat="46.45676" lon="4.4775">
        <ele>424.065</ele>
        <time>2017-04-01T12:22:50Z</time>
      </trkpt>
      <trkpt lat="46.45619" lon="4.47762">
        <ele>427.176</ele>
        <time>2017-04-01T12:23:10Z</time>
      </trkpt>
      <trkpt lat="46.45598" lon="4.47752">
        <ele>427.691</ele>
        <time>2017-04-01T12:23:30Z</time>
      </trkpt>
      <trkpt lat="46.45567" lon="4.47693">
        <ele>427.12</ele>
        <time>2017-04-01T12:23:50Z</time>
      </trkpt>
      <trkpt lat="46.45534" lon="4.47651">
        <ele>429.483</ele>
        <time>2017-04-01T12:24:10Z</time>
      </trkpt>
      <trkpt lat="46.45502" lon="4.47597">
        <ele>433.49</ele>
        <time>2017-04-01T12:24:30Z</time>
      </trkpt>
      <trkpt lat="46.4544" lon="4.47537">
        <ele>438.514</ele>
        <time>2017-04-01T12:24:50Z</time>
      </trkpt>
      <trkpt lat="46.45413" lon="4.47533">
        <ele>441.481</ele>
        <time>2017-04-01T12:25:10Z</time>
      </trkpt>
      <trkpt lat="46.45329" lon="4.47536">
        <ele>455.961</ele>
        <time>2017-04-01T12:25:30Z</time>
      </trkpt>
      <trkpt lat="46.45308" lon="4.47526">
        <ele>459.917</ele>
        <time>2017-04-01T12:25:50Z</time>
      </trkpt>
      <trkpt lat="46.45291" lon="4.47533">
        <ele>465.208</ele>
        <time>2017-04-01T12:26:10Z</time>
      </trkpt>
      <trkpt lat="46.45276" lon="4.47521">
        <ele>467.624</ele>
        <time>2017-04-01T12:26:30Z</time>
      </trkpt>
      <trkpt lat="46.45256" lon="4.47468">
        <ele>469.129</ele>
        <time>2017-04-01T12:26:50Z</time>
      </trkpt>
      <trkpt lat="46.45231" lon="4.47443">
        <ele>472.33</ele>
        <time>2017-04-01T12:27:10Z</time>
      </trkpt>
      <trkpt lat="46.45125" lon="4.4741">
        <ele>485.525</ele>
        <time>2017-04-01T12:27:30Z</time>
      </trkpt>
      <trkpt lat="46.4506" lon="4.47429">
        <ele>485.914</ele>
        <time>2017-04-01T12:27:50Z</time>
      </trkpt>
      <trkpt lat="46.45033" lon="4.4745">
        <ele>482.797</ele>
        <time>2017-04-01T12:28:10Z</time>
      </trkpt>
      <trkpt lat="46.44874" lon="4.47539">
        <ele>484.214</ele>
        <time>2017-04-01T12:28:30Z</time>
      </trkpt>
      <trkpt lat="46.44787" lon="4.47544">
        <ele>494.678</ele>
        <time>2017-04-01T12:28:50Z</time>
      </trkpt>
      <trkpt lat="46.44726" lon="4.47517">
        <ele>496.439</ele>
        <time>2017-04-01T12:29:10Z</time>
      </trkpt>
      <trkpt lat="46.44654" lon="4.47458">
        <ele>490.601</ele>
        <time>2017-04-01T12:29:30Z</time>
      </trkpt>
      <trkpt lat="46.44603" lon="4.47431">
        <ele>494.421</ele>
        <time>2017-04-01T12:29:50Z</time>
      </trkpt>
      <trkpt lat="46.44526" lon="4.47418">
        <ele>496.808</ele>
        <time>2017-04-01T12:30:10Z</time>
      </trkpt>
      <trkpt lat="46.44345" lon="4.47442">
        <ele>495.659</ele>
        <time>2017-04-01T12:30:30Z</time>
      </trkpt>
      <trkpt lat="46.44263" lon="4.47443">
        <ele>495.684</ele>
        <time>2017-04-01T12:30:50Z</time>
      </trkpt>
      <trkpt lat="46.44151" lon="4.47478">
        <ele>502.285</ele>
        <time>2017-04-01T12:31:10Z</time>
      </trkpt>
      <trkpt lat="46.44026" lon="4.4747">
        <ele>509.45</ele>
        <time>2017-04-01T12:31:30Z</time>
      </trkpt>
      <trkpt lat="46.43964" lon="4.47457">
        <ele>516.099</ele>
        <time>2017-04-01T12:31:50Z</time>
      </trkpt>
      <trkpt lat="46.43936" lon="4.47437">
        <ele>518.112</ele>
        <time>2017-04-01T12:32:10Z</time>
      </trkpt>
      <trkpt lat="46.43916" lon="4.47441">
        <ele>518.499</ele>
        <time>2017-04-01T12:32:30Z</time>
      </trkpt>
      <trkpt lat="46.43815" lon="4.47401">
        <ele>530.573</ele>
        <time>2017-04-01T12:32:50Z</time>
      </trkpt>
      <trkpt lat="46.43786" lon="4.47376">
        <ele>535.754</ele>
        <time>2017-04-01T12:33:10Z</time>
      </trkpt>
      <trkpt lat="46.43686" lon="4.47357">
        <ele>546.156</ele>
        <time>2017-04-01T12:33:30Z</time>
      </trkpt>
      <trkpt lat="46.43531" lon="4.47382">
        <ele>571.311</ele>
        <time>2017-04-01T12:33:50Z</time>
      </trkpt>
      <trkpt lat="46.4346" lon="4.47465">
        <ele>581.908</ele>
        <time>2017-04-01T12:34:10Z</time>
      </trkpt>
      <trkpt lat="46.43429" lon="4.47424">
        <ele>586.031</ele>
        <time>2017-04-01T12:34:30Z</time>
      </trkpt>
      <trkpt lat="46.43406" lon="4.47413">
        <ele>585.876</ele>
        <time>2017-04-01T12:34:50Z</time>
      </trkpt>
      <trkpt lat="46.43377" lon="4.47414">
        <ele>585.347</ele>
        <time>2017-04-01T12:35:10Z</time>
      </trkpt>
      <trkpt lat="46.43322" lon="4.47381">
        <ele>575.652</ele>
        <time>2017-04-01T12:35:30Z</time>
      </trkpt>
      <trkpt lat="46.43288" lon="4.47399">
        <ele>572.661</ele>
        <time>2017-04-01T12:35:50Z</time>
      </trkpt>
      <trkpt lat="46.43279" lon="4.47362">
        <ele>568.324</ele>
        <time>2017-04-01T12:36:10Z</time>
      </trkpt>
      <trkpt lat="46.43197" lon="4.47281">
        <ele>546.521</ele>
        <time>2017-04-01T12:36:30Z</time>
      </trkpt>
      <trkpt lat="46.4302" lon="4.47417">
        <ele>526.235</ele>
        <time>2017-04-01T12:36:50Z</time>
      </trkpt>
      <trkpt lat="46.42922" lon="4.47427">
        <ele>519.761</ele>
        <time>2017-04-01T12:37:10Z</time>
      </trkpt>
      <trkpt lat="46.42879" lon="4.47455">
        <ele>517.421</ele>
        <time>2017-04-01T12:37:30Z</time>
      </trkpt>
      <trkpt lat="46.42855" lon="4.47497">
        <ele>513.713</ele>
        <time>2017-04-01T12:37:50Z</time>
      </trkpt>
      <trkpt lat="46.42807" lon="4.47689">
        <ele>507.508</ele>
        <time>2017-04-01T12:38:10Z</time>
      </trkpt>
      <trkpt lat="46.42813" lon="4.47764">
        <ele>497.372</ele>
        <time>2017-04-01T12:38:30Z</time>
      </trkpt>
      <trkpt lat="46.42882" lon="4.47827">
        <ele>490.987</ele>
        <time>2017-04-01T12:38:50Z</time>
      </trkpt>
      <trkpt lat="46.42893" lon="4.4789">
        <ele>480.518</ele>
        <time>2017-04-01T12:39:10Z</time>
      </trkpt>
      <trkpt lat="46.42866" lon="4.47987">
        <ele>473.883</ele>
        <time>2017-04-01T12:39:30Z</time>
      </trkpt>
      <trkpt lat="46.42856" lon="4.48077">
        <ele>464.552</ele>
        <time>2017-04-01T12:39:50Z</time>
      </trkpt>
      <trkpt lat="46.42791" lon="4.48131">
        <ele>456.395</ele>
        <time>2017-04-01T12:40:10Z</time>
      </trkpt>
      <trkpt lat="46.42713" lon="4.48186">
        <ele>455.222</ele>
        <time>2017-04-01T12:40:30Z</time>
      </trkpt>
      <trkpt lat="46.42663" lon="4.48235">
        <ele>456.556</ele>
        <time>2017-04-01T12:40:50Z</time>
      </trkpt>
      <trkpt lat="46.42615" lon="4.48201">
        <ele>456.931</ele>
        <time>2017-04-01T12:41:10Z</time>
      </trkpt>
      <trkpt lat="46.42568" lon="4.482">
        <ele>457.161</ele>
        <time>2017-04-01T12:41:30Z</time>
      </trkpt>
      <trkpt lat="46.42521" lon="4.48181">
        <ele>455.607</ele>
        <time>2017-04-01T12:41:50Z</time>
      </trkpt>
      <trkpt lat="46.42487" lon="4.48185">
        <ele>453.208</ele>
        <time>2017-04-01T12:42:10Z</time>
      </trkpt>
      <trkpt lat="46.42299" lon="4.48292">
        <ele>442.389</ele>
        <time>2017-04-01T12:42:30Z</time>
      </trkpt>
      <trkpt lat="46.4226" lon="4.4833">
        <ele>443.524</ele>
        <time>2017-04-01T12:42:50Z</time>
      </trkpt>
      <trkpt lat="46.42159" lon="4.4834">
        <ele>449.675</ele>
        <time>2017-04-01T12:43:10Z</time>
      </trkpt>
      <trkpt lat="46.42078" lon="4.48323">
        <ele>458.36</ele>
        <time>2017-04-01T12:43:30Z</time>
      </trkpt>
      <trkpt lat="46.42035" lon="4.48303">
        <ele>461.679</ele>
        <time>2017-04-01T12:43:50Z</time>
      </trkpt>
      <trkpt lat="46.41978" lon="4.48259">
        <ele>469.932</ele>
        <time>2017-04-01T12:44:10Z</time>
      </trkpt>
      <trkpt lat="46.41908" lon="4.48259">
        <ele>469.779</ele>
        <time>2017-04-01T12:44:30Z</time>
      </trkpt>
      <trkpt lat="46.41815" lon="4.48221">
        <ele>474.663</ele>
        <time>2017-04-01T12:44:50Z</time>
      </trkpt>
      <trkpt lat="46.41703" lon="4.48097">
        <ele>502.549</ele>
        <time>2017-04-01T12:45:10Z</time>
      </trkpt>
      <trkpt lat="46.41624" lon="4.48048">
        <ele>500.202</ele>
        <time>2017-04-01T12:45:30Z</time>
      </trkpt>
      <trkpt lat="46.41549" lon="4.48023">
        <ele>496.522</ele>
        <time>2017-04-01T12:45:50Z</time>
      </trkpt>
      <trkpt lat="46.4136" lon="4.48038">
        <ele>486.108</ele>
        <time>2017-04-01T12:46:10Z</time>
      </trkpt>
      <trkpt lat="46.41339" lon="4.4804">
        <ele>485.99</ele>
        <time>2017-04-01T12:46:30Z</time>
      </trkpt>
      <trkpt lat="46.41342" lon="4.48005">
        <ele>484.245</ele>
        <time>2017-04-01T12:46:50Z</time>
      </trkpt>
      <trkpt lat="46.41298" lon="4.47938">
        <ele>481.036</ele>
        <time>2017-04-01T12:47:10Z</time>
      </trkpt>
      <trkpt lat="46.41217" lon="4.47782">
        <ele>476.851</ele>
        <time>2017-04-01T12:47:30Z</time>
      </trkpt>
      <trkpt lat="46.4117" lon="4.47733">
        <ele>474.87</ele>
        <time>2017-04-01T12:47:50Z</time>
      </trkpt>
      <trkpt lat="46.41121" lon="4.47691">
        <ele>473.073</ele>
        <time>2017-04-01T12:48:10Z</time>
      </trkpt>
      <trkpt lat="46.4102" lon="4.47662">
        <ele>477.53</ele>
        <time>2017-04-01T12:48:30Z</time>
      </trkpt>
      <trkpt lat="46.40918" lon="4.47592">
        <ele>471.544</ele>
        <time>2017-04-01T12:48:50Z</time>
      </trkpt>
      <trkpt lat="46.40861" lon="4.47574">
        <ele>471.094</ele>
        <time>2017-04-01T12:49:10Z</time>
      </trkpt>
      <trkpt lat="46.40825" lon="4.47545">
        <ele>473.357</ele>
        <time>2017-04-01T12:49:30Z</time>
      </trkpt>
      <trkpt lat="46.40751" lon="4.47527">
        <ele>476.022</ele>
        <time>2017-04-01T12:49:50Z</time>
      </trkpt>
      <trkpt lat="46.40626" lon="4.47446">
        <ele>464.908</ele>
        <time>2017-04-01T12:50:10Z</time>
      </trkpt>
      <trkpt lat="46.40574" lon="4.47437">
        <ele>469.415</ele>
        <time>2017-04-01T12:50:30Z</time>
      </trkpt>
      <trkpt lat="46.40525" lon="4.47444">
        <ele>480.91</ele>
        <time>2017-04-01T12:50:50Z</time>
      </trkpt>
      <trkpt lat="46.40459" lon="4.47432">
        <ele>490.691</ele>
        <time>2017-04-01T12:51:10Z</time>
      </trkpt>
      <trkpt lat="46.40368" lon="4.47386">
        <ele>481.926</ele>
        <time>2017-04-01T12:51:30Z</time>
      </trkpt>
      <trkpt lat="46.40311" lon="4.47404">
        <ele>486.185</ele>
        <time>2017-04-01T12:51:50Z</time>
      </trkpt>
      <trkpt lat="46.40274" lon="4.4743">
        <ele>495.818</ele>
        <time>2017-04-01T12:52:10Z</time>
      </trkpt>
      <trkpt lat="46.40237" lon="4.47444">
        <ele>497.025</ele>
        <time>2017-04-01T12:52:30Z</time>
      </trkpt>
      <trkpt lat="46.40217" lon="4.47442">
        <ele>497.829</ele>
        <time>2017-04-01T12:52:50Z</time>
      </trkpt>
      <trkpt lat="46.40186" lon="4.47408">
        <ele>501.281</ele>
        <time>2017-04-01T12:53:10Z</time>
      </trkpt>
      <trkpt lat="46.40164" lon="4.47361">
        <ele>508.961</ele>
        <time>2017-04-01T12:53:30Z</time>
      </trkpt>
      <trkpt lat="46.40138" lon="4.47325">
        <ele>508.817</ele>
        <time>2017-04-01T12:53:50Z</time>
      </trkpt>
      <trkpt lat="46.4008" lon="4.47291">
        <ele>501.608</ele>
        <time>2017-04-01T12:54:10Z</time>
      </trkpt>
      <trkpt lat="46.39999" lon="4.47229">
        <ele>501.764</ele>
        <time>2017-04-01T12:54:30Z</time>
      </trkpt>
      <trkpt lat="46.39977" lon="4.47189">
        <ele>494.629</ele>
        <time>2017-04-01T12:54:50Z</time>
      </trkpt>
      <trkpt lat="46.39952" lon="4.47174">
        <ele>493.55</ele>
        <time>2017-04-01T12:55:10Z</time>
      </trkpt>
      <trkpt lat="46.39865" lon="4.47155">
        <ele>488.615</ele>
        <time>2017-04-01T12:55:30Z</time>
      </trkpt>
      <trkpt lat="46.3975" lon="4.47114">
        <ele>485.464</ele>
        <time>2017-04-01T12:55:50Z</time>
      </trkpt>
      <trkpt lat="46.39691" lon="4.47084">
        <ele>487.427</ele>
        <time>2017-04-01T12:56:10Z</time>
      </trkpt>
      <trkpt lat="46.39673" lon="4.47084">
        <ele>489.374</ele>
        <time>2017-04-01T12:56:30Z</time>
      </trkpt>
      <trkpt lat="46.3967" lon="4.47053">
        <ele>492.758</ele>
        <time>2017-04-01T12:56:50Z</time>
      </trkpt>
      <trkpt lat="46.39635" lon="4.4696">
        <ele>503.882</ele>
        <time>2017-04-01T12:57:10Z</time>
      </trkpt>
      <trkpt lat="46.39516" lon="4.46851">
        <ele>523.443</ele>
        <time>2017-04-01T12:57:30Z</time>
      </trkpt>
      <trkpt lat="46.39419" lon="4.46753">
        <ele>516.117</ele>
        <time>2017-04-01T12:57:50Z</time>
      </trkpt>
      <trkpt lat="46.39371" lon="4.46667">
        <ele>503.408</ele>
        <time>2017-04-01T12:58:10Z</time>
      </trkpt>
      <trkpt lat="46.39316" lon="4.46625">
        <ele>496.654</ele>
        <time>2017-04-01T12:58:30Z</time>
      </trkpt>
      <trkpt lat="46.39293" lon="4.46585">
        <ele>495.139</ele>
        <time>2017-04-01T12:58:50Z</time>
      </trkpt>
      <trkpt lat="46.39257" lon="4.46537">
        <ele>485.47</ele>
        <time>2017-04-01T12:59:10Z</time>
      </trkpt>
      <trkpt lat="46.39257" lon="4.46468">
        <ele>484.645</ele>
        <time>2017-04-01T12:59:30Z</time>
      </trkpt>
      <trkpt lat="46.39234" lon="4.46433">
        <ele>481.114</ele>
        <time>2017-04-01T12:59:50Z</time>
      </trkpt>
      <trkpt lat="46.39185" lon="4.46386">
        <ele>479.667</ele>
        <time>2017-04-01T13:00:10Z</time>
      </trkpt>
      <trkpt lat="46.39129" lon="4.46286">
        <ele>467.074</ele>
        <time>2017-04-01T13:00:30Z</time>
      </trkpt>
      <trkpt lat="46.3905" lon="4.46191">
        <ele>462.088</ele>
        <time>2017-04-01T13:00:50Z</time>
      </trkpt>
      <trkpt lat="46.39025" lon="4.46139">
        <ele>467.583</ele>
        <time>2017-04-01T13:01:10Z</time>
      </trkpt>
      <trkpt lat="46.38992" lon="4.46091">
        <ele>468.325</ele>
        <time>2017-04-01T13:01:30Z</time>
      </trkpt>
      <trkpt lat="46.38955" lon="4.46051">
        <ele>472.617</ele>
        <time>2017-04-01T13:01:50Z</time>
      </trkpt>
      <trkpt lat="46.38875" lon="4.46064">
        <ele>465.108</ele>
        <time>2017-04-01T13:02:10Z</time>
      </trkpt>
      <trkpt lat="46.38841" lon="4.46056">
        <ele>460.134</ele>
        <time>2017-04-01T13:02:30Z</time>
      </trkpt>
      <trkpt lat="46.38803" lon="4.46028">
        <ele>462.989</ele>
        <time>2017-04-01T13:02:50Z</time>
      </trkpt>
      <trkpt lat="46.38763" lon="4.46012">
        <ele>461.49</ele>
        <time>2017-04-01T13:03:10Z</time>
      </trkpt>
      <trkpt lat="46.38679" lon="4.46051">
        <ele>452.025</ele>
        <time>2017-04-01T13:03:30Z</time>
      </trkpt>
      <trkpt lat="46.38516" lon="4.46021">
        <ele>429.534</ele>
        <time>2017-04-01T13:03:50Z</time>
      </trkpt>
      <trkpt lat="46.38525" lon="4.45967">
        <ele>429.657</ele>
        <time>2017-04-01T13:04:10Z</time>
      </trkpt>
      <trkpt lat="46.38547" lon="4.45912">
        <ele>428.854</ele>
        <time>2017-04-01T13:04:30Z</time>
      </trkpt>
      <trkpt lat="46.38668" lon="4.4576">
        <ele>425.398</ele>
        <time>2017-04-01T13:04:50Z</time>
      </trkpt>
      <trkpt lat="46.38786" lon="4.45637">
        <ele>417.476</ele>
        <time>2017-04-01T13:05:10Z</time>
      </trkpt>
      <trkpt lat="46.38743" lon="4.45636">
        <ele>412.89</ele>
        <time>2017-04-01T13:05:30Z</time>
      </trkpt>
      <trkpt lat="46.38599" lon="4.45763">
        <ele>415.519</ele>
        <time>2017-04-01T13:05:50Z</time>
      </trkpt>
      <trkpt lat="46.38552" lon="4.45802">
        <ele>416.708</ele>
        <time>2017-04-01T13:06:10Z</time>
      </trkpt>
      <trkpt lat="46.3851" lon="4.45796">
        <ele>415.823</ele>
        <time>2017-04-01T13:06:30Z</time>
      </trkpt>
      <trkpt lat="46.38389" lon="4.45724">
        <ele>413.528</ele>
        <time>2017-04-01T13:06:50Z</time>
      </trkpt>
      <trkpt lat="46.38124" lon="4.45691">
        <ele>449.459</ele>
        <time>2017-04-01T13:07:10Z</time>
      </trkpt>
      <trkpt lat="46.37975" lon="4.45731">
        <ele>448.294</ele>
        <time>2017-04-01T13:07:30Z</time>
      </trkpt>
      <trkpt lat="46.37686" lon="4.45623">
        <ele>451.073</ele>
        <time>2017-04-01T13:07:50Z</time>
      </trkpt>
      <trkpt lat="46.37678" lon="4.45575">
        <ele>450.416</ele>
        <time>2017-04-01T13:08:10Z</time>
      </trkpt>
      <trkpt lat="46.37657" lon="4.45489">
        <ele>454.763</ele>
        <time>2017-04-01T13:08:30Z</time>
      </trkpt>
      <trkpt lat="46.37626" lon="4.4538">
        <ele>463.957</ele>
        <time>2017-04-01T13:08:50Z</time>
      </trkpt>
      <trkpt lat="46.37608" lon="4.45333">
        <ele>473.928</ele>
        <time>2017-04-01T13:09:10Z</time>
      </trkpt>
      <trkpt lat="46.37613" lon="4.45256">
        <ele>484.289</ele>
        <time>2017-04-01T13:09:30Z</time>
      </trkpt>
      <trkpt lat="46.37601" lon="4.45176">
        <ele>490.217</ele>
        <time>2017-04-01T13:09:50Z</time>
      </trkpt>
      <trkpt lat="46.37618" lon="4.4511">
        <ele>494.608</ele>
        <time>2017-04-01T13:10:10Z</time>
      </trkpt>
      <trkpt lat="46.37616" lon="4.45023">
        <ele>506.088</ele>
        <time>2017-04-01T13:10:30Z</time>
      </trkpt>
      <trkpt lat="46.37633" lon="4.44966">
        <ele>511.343</ele>
        <time>2017-04-01T13:10:50Z</time>
      </trkpt>
      <trkpt lat="46.37637" lon="4.44899">
        <ele>513.794</ele>
        <time>2017-04-01T13:11:10Z</time>
      </trkpt>
      <trkpt lat="46.37626" lon="4.44851">
        <ele>515.919</ele>
        <time>2017-04-01T13:11:30Z</time>
      </trkpt>
      <trkpt lat="46.37607" lon="4.44845">
        <ele>517.848</ele>
        <time>2017-04-01T13:11:50Z</time>
      </trkpt>
      <trkpt lat="46.37567" lon="4.44793">
        <ele>517.781</ele>
        <time>2017-04-01T13:12:10Z</time>
      </trkpt>
      <trkpt lat="46.37535" lon="4.44781">
        <ele>521.798</ele>
        <time>2017-04-01T13:12:30Z</time>
      </trkpt>
      <trkpt lat="46.37477" lon="4.44689">
        <ele>509.252</ele>
        <time>2017-04-01T13:12:50Z</time>
      </trkpt>
      <trkpt lat="46.37458" lon="4.44666">
        <ele>507.564</ele>
        <time>2017-04-01T13:13:10Z</time>
      </trkpt>
      <trkpt lat="46.37419" lon="4.44682">
        <ele>509.106</ele>
        <time>2017-04-01T13:13:30Z</time>
      </trkpt>
      <trkpt lat="46.37369" lon="4.4473">
        <ele>511.916</ele>
        <time>2017-04-01T13:13:50Z</time>
      </trkpt>
      <trkpt lat="46.37283" lon="4.44822">
        <ele>510.808</ele>
        <time>2017-04-01T13:14:10Z</time>
      </trkpt>
      <trkpt lat="46.37189" lon="4.44944">
        <ele>515.312</ele>
        <time>2017-04-01T13:14:30Z</time>
      </trkpt>
      <trkpt lat="46.37082" lon="4.45045">
        <ele>526.217</ele>
        <time>2017-04-01T13:14:50Z</time>
      </trkpt>
      <trkpt lat="46.3704" lon="4.45072">
        <ele>524.798</ele>
        <time>2017-04-01T13:15:10Z</time>
      </trkpt>
      <trkpt lat="46.36975" lon="4.45098">
        <ele>521.123</ele>
        <time>2017-04-01T13:15:30Z</time>
      </trkpt>
      <trkpt lat="46.36905" lon="4.45123">
        <ele>522.452</ele>
        <time>2017-04-01T13:15:50Z</time>
      </trkpt>
      <trkpt lat="46.36848" lon="4.45135">
        <ele>525.955</ele>
        <time>2017-04-01T13:16:10Z</time>
      </trkpt>
      <trkpt lat="46.36804" lon="4.45139">
        <ele>531.232</ele>
        <time>2017-04-01T13:16:30Z</time>
      </trkpt>
      <trkpt lat="46.36692" lon="4.45103">
        <ele>537.986</ele>
        <time>2017-04-01T13:16:50Z</time>
      </trkpt>
      <trkpt lat="46.36603" lon="4.45104">
        <ele>538.529</ele>
        <time>2017-04-01T13:17:10Z</time>
      </trkpt>
      <trkpt lat="46.36518" lon="4.45128">
        <ele>533</ele>
        <time>2017-04-01T13:17:30Z</time>
      </trkpt>
      <trkpt lat="46.36446" lon="4.45114">
        <ele>536.02</ele>
        <time>2017-04-01T13:17:50Z</time>
      </trkpt>
      <trkpt lat="46.3637" lon="4.45085">
        <ele>534.308</ele>
        <time>2017-04-01T13:18:10Z</time>
      </trkpt>
      <trkpt lat="46.36306" lon="4.45034">
        <ele>533.488</ele>
        <time>2017-04-01T13:18:30Z</time>
      </trkpt>
      <trkpt lat="46.3624" lon="4.44945">
        <ele>535.273</ele>
        <time>2017-04-01T13:18:50Z</time>
      </trkpt>
      <trkpt lat="46.36179" lon="4.44891">
        <ele>549.624</ele>
        <time>2017-04-01T13:19:10Z</time>
      </trkpt>
      <trkpt lat="46.36143" lon="4.44847">
        <ele>552.779</ele>
        <time>2017-04-01T13:19:30Z</time>
      </trkpt>
      <trkpt lat="46.36117" lon="4.44774">
        <ele>543.378</ele>
        <time>2017-04-01T13:19:50Z</time>
      </trkpt>
      <trkpt lat="46.36095" lon="4.44726">
        <ele>533.261</ele>
        <time>2017-04-01T13:20:10Z</time>
      </trkpt>
      <trkpt lat="46.36059" lon="4.4468">
        <ele>528.148</ele>
        <time>2017-04-01T13:20:30Z</time>
      </trkpt>
      <trkpt lat="46.36041" lon="4.44649">
        <ele>524.892</ele>
        <time>2017-04-01T13:20:50Z</time>
      </trkpt>
      <trkpt lat="46.35968" lon="4.44589">
        <ele>520.466</ele>
        <time>2017-04-01T13:21:10Z</time>
      </trkpt>
      <trkpt lat="46.359" lon="4.44571">
        <ele>518.529</ele>
        <time>2017-04-01T13:21:30Z</time>
      </trkpt>
      <trkpt lat="46.35841" lon="4.44573">
        <ele>512.221</ele>
        <time>2017-04-01T13:21:50Z</time>
      </trkpt>
      <trkpt lat="46.35743" lon="4.44548">
        <ele>506.308</ele>
        <time>2017-04-01T13:22:10Z</time>
      </trkpt>
      <trkpt lat="46.35635" lon="4.44543">
        <ele>504.742</ele>
        <time>2017-04-01T13:22:30Z</time>
      </trkpt>
      <trkpt lat="46.35516" lon="4.44515">
        <ele>501.957</ele>
        <time>2017-04-01T13:22:50Z</time>
      </trkpt>
      <trkpt lat="46.35307" lon="4.44392">
        <ele>509.188</ele>
        <time>2017-04-01T13:23:10Z</time>
      </trkpt>
      <trkpt lat="46.35243" lon="4.44369">
        <ele>508.383</ele>
        <time>2017-04-01T13:23:30Z</time>
      </trkpt>
      <trkpt lat="46.35181" lon="4.44324">
        <ele>508.372</ele>
        <time>2017-04-01T13:23:50Z</time>
      </trkpt>
      <trkpt lat="46.3515" lon="4.44285">
        <ele>510.445</ele>
        <time>2017-04-01T13:24:10Z</time>
      </trkpt>
      <trkpt lat="46.35102" lon="4.44293">
        <ele>510.862</ele>
        <time>2017-04-01T13:24:30Z</time>
      </trkpt>
      <trkpt lat="46.34993" lon="4.44267">
        <ele>515.626</ele>
        <time>2017-04-01T13:24:50Z</time>
      </trkpt>
      <trkpt lat="46.34968" lon="4.44216">
        <ele>517.077</ele>
        <time>2017-04-01T13:25:10Z</time>
      </trkpt>
      <trkpt lat="46.34923" lon="4.44179">
        <ele>517.861</ele>
        <time>2017-04-01T13:25:30Z</time>
      </trkpt>
      <trkpt lat="46.34874" lon="4.44064">
        <ele>523.227</ele>
        <time>2017-04-01T13:25:50Z</time>
      </trkpt>
      <trkpt lat="46.34838" lon="4.43919">
        <ele>524.708</ele>
        <time>2017-04-01T13:26:10Z</time>
      </trkpt>
      <trkpt lat="46.34835" lon="4.43884">
        <ele>524.793</ele>
        <time>2017-04-01T13:26:30Z</time>
      </trkpt>
      <trkpt lat="46.34805" lon="4.43746">
        <ele>525.118</ele>
        <time>2017-04-01T13:26:50Z</time>
      </trkpt>
      <trkpt lat="46.34799" lon="4.43672">
        <ele>527.739</ele>
        <time>2017-04-01T13:27:10Z</time>
      </trkpt>
      <trkpt lat="46.34784" lon="4.43575">
        <ele>533.394</ele>
        <time>2017-04-01T13:27:30Z</time>
      </trkpt>
      <trkpt lat="46.34785" lon="4.43333">
        <ele>531.543</ele>
        <time>2017-04-01T13:27:50Z</time>
      </trkpt>
      <trkpt lat="46.34793" lon="4.4326">
        <ele>533.366</ele>
        <time>2017-04-01T13:28:10Z</time>
      </trkpt>
      <trkpt lat="46.34778" lon="4.43156">
        <ele>538.453</ele>
        <time>2017-04-01T13:28:30Z</time>
      </trkpt>
      <trkpt lat="46.34712" lon="4.4315">
        <ele>537.657</ele>
        <time>2017-04-01T13:28:50Z</time>
      </trkpt>
      <trkpt lat="46.34657" lon="4.43168">
        <ele>537.027</ele>
        <time>2017-04-01T13:29:10Z</time>
      </trkpt>
      <trkpt lat="46.34505" lon="4.4331">
        <ele>540.668</ele>
        <time>2017-04-01T13:29:30Z</time>
      </trkpt>
      <trkpt lat="46.34445" lon="4.43342">
        <ele>540.714</ele>
        <time>2017-04-01T13:29:50Z</time>
      </trkpt>
      <trkpt lat="46.343" lon="4.43427">
        <ele>535.608</ele>
        <time>2017-04-01T13:30:10Z</time>
      </trkpt>
      <trkpt lat="46.34205" lon="4.43456">
        <ele>528.668</ele>
        <time>2017-04-01T13:30:30Z</time>
      </trkpt>
      <trkpt lat="46.34063" lon="4.43483">
        <ele>525.673</ele>
        <time>2017-04-01T13:30:50Z</time>
      </trkpt>
      <trkpt lat="46.33999" lon="4.43467">
        <ele>525.894</ele>
        <time>2017-04-01T13:31:10Z</time>
      </trkpt>
      <trkpt lat="46.33882" lon="4.43491">
        <ele>532.329</ele>
        <time>2017-04-01T13:31:30Z</time>
      </trkpt>
      <trkpt lat="46.3385" lon="4.43497">
        <ele>535.018</ele>
        <time>2017-04-01T13:31:50Z</time>
      </trkpt>
      <trkpt lat="46.33807" lon="4.43494">
        <ele>536.321</ele>
        <time>2017-04-01T13:32:10Z</time>
      </trkpt>
      <trkpt lat="46.33665" lon="4.43498">
        <ele>543.228</ele>
        <time>2017-04-01T13:32:30Z</time>
      </trkpt>
      <trkpt lat="46.3358" lon="4.43492">
        <ele>557.712</ele>
        <time>2017-04-01T13:32:50Z</time>
      </trkpt>
      <trkpt lat="46.33546" lon="4.43497">
        <ele>563.771</ele>
        <time>2017-04-01T13:33:10Z</time>
      </trkpt>
      <trkpt lat="46.33517" lon="4.4349">
        <ele>565.941</ele>
        <time>2017-04-01T13:33:30Z</time>
      </trkpt>
      <trkpt lat="46.33431" lon="4.43438">
        <ele>571.815</ele>
        <time>2017-04-01T13:33:50Z</time>
      </trkpt>
      <trkpt lat="46.33363" lon="4.43417">
        <ele>587.608</ele>
        <time>2017-04-01T13:34:10Z</time>
      </trkpt>
      <trkpt lat="46.33313" lon="4.4343">
        <ele>593.323</ele>
        <time>2017-04-01T13:34:30Z</time>
      </trkpt>
      <trkpt lat="46.33281" lon="4.43418">
        <ele>594.778</ele>
        <time>2017-04-01T13:34:50Z</time>
      </trkpt>
      <trkpt lat="46.3325" lon="4.43432">
        <ele>596.579</ele>
        <time>2017-04-01T13:35:10Z</time>
      </trkpt>
      <trkpt lat="46.33171" lon="4.43441">
        <ele>606.514</ele>
        <time>2017-04-01T13:35:30Z</time>
      </trkpt>
      <trkpt lat="46.33118" lon="4.43431">
        <ele>617.713</ele>
        <time>2017-04-01T13:35:50Z</time>
      </trkpt>
      <trkpt lat="46.33062" lon="4.43443">
        <ele>622.526</ele>
        <time>2017-04-01T13:36:10Z</time>
      </trkpt>
      <trkpt lat="46.33014" lon="4.43428">
        <ele>630.643</ele>
        <time>2017-04-01T13:36:30Z</time>
      </trkpt>
      <trkpt lat="46.32978" lon="4.43461">
        <ele>630.447</ele>
        <time>2017-04-01T13:36:50Z</time>
      </trkpt>
      <trkpt lat="46.32936" lon="4.43487">
        <ele>632.452</ele>
        <time>2017-04-01T13:37:10Z</time>
      </trkpt>
      <trkpt lat="46.32874" lon="4.43493">
        <ele>638.253</ele>
        <time>2017-04-01T13:37:30Z</time>
      </trkpt>
      <trkpt lat="46.32822" lon="4.43509">
        <ele>649.008</ele>
        <time>2017-04-01T13:37:50Z</time>
      </trkpt>
      <trkpt lat="46.32767" lon="4.43494">
        <ele>652.808</ele>
        <time>2017-04-01T13:38:10Z</time>
      </trkpt>
      <trkpt lat="46.32741" lon="4.43449">
        <ele>659.281</ele>
        <time>2017-04-01T13:38:30Z</time>
      </trkpt>
      <trkpt lat="46.32713" lon="4.43378">
        <ele>669.976</ele>
        <time>2017-04-01T13:38:50Z</time>
      </trkpt>
      <trkpt lat="46.32592" lon="4.43241">
        <ele>681.867</ele>
        <time>2017-04-01T13:39:10Z</time>
      </trkpt>
      <trkpt lat="46.32577" lon="4.4322">
        <ele>687.322</ele>
        <time>2017-04-01T13:39:30Z</time>
      </trkpt>
      <trkpt lat="46.32538" lon="4.43196">
        <ele>692.821</ele>
        <time>2017-04-01T13:39:50Z</time>
      </trkpt>
      <trkpt lat="46.32514" lon="4.4317">
        <ele>697.294</ele>
        <time>2017-04-01T13:40:10Z</time>
      </trkpt>
      <trkpt lat="46.32474" lon="4.43165">
        <ele>704.891</ele>
        <time>2017-04-01T13:40:30Z</time>
      </trkpt>
      <trkpt lat="46.32463" lon="4.43151">
        <ele>708.055</ele>
        <time>2017-04-01T13:40:50Z</time>
      </trkpt>
      <trkpt lat="46.32433" lon="4.43157">
        <ele>713.055</ele>
        <time>2017-04-01T13:41:10Z</time>
      </trkpt>
      <trkpt lat="46.32404" lon="4.43179">
        <ele>714.007</ele>
        <time>2017-04-01T13:41:30Z</time>
      </trkpt>
      <trkpt lat="46.3231" lon="4.43173">
        <ele>709.617</ele>
        <time>2017-04-01T13:41:50Z</time>
      </trkpt>
      <trkpt lat="46.32284" lon="4.43126">
        <ele>705.208</ele>
        <time>2017-04-01T13:42:10Z</time>
      </trkpt>
      <trkpt lat="46.32087" lon="4.43106">
        <ele>692.991</ele>
        <time>2017-04-01T13:42:30Z</time>
      </trkpt>
      <trkpt lat="46.32039" lon="4.43068">
        <ele>685.096</ele>
        <time>2017-04-01T13:42:50Z</time>
      </trkpt>
      <trkpt lat="46.31989" lon="4.43051">
        <ele>677.747</ele>
        <time>2017-04-01T13:43:10Z</time>
      </trkpt>
      <trkpt lat="46.31963" lon="4.43029">
        <ele>674.522</ele>
        <time>2017-04-01T13:43:30Z</time>
      </trkpt>
      <trkpt lat="46.3192" lon="4.43018">
        <ele>674.731</ele>
        <time>2017-04-01T13:43:50Z</time>
      </trkpt>
      <trkpt lat="46.31912" lon="4.43004">
        <ele>672.454</ele>
        <time>2017-04-01T13:44:10Z</time>
      </trkpt>
      <trkpt lat="46.31887" lon="4.43002">
        <ele>674.411</ele>
        <time>2017-04-01T13:44:30Z</time>
      </trkpt>
      <trkpt lat="46.31865" lon="4.43016">
        <ele>678.245</ele>
        <time>2017-04-01T13:44:50Z</time>
      </trkpt>
      <trkpt lat="46.31735" lon="4.43031">
        <ele>691.063</ele>
        <time>2017-04-01T13:45:10Z</time>
      </trkpt>
      <trkpt lat="46.31704" lon="4.43046">
        <ele>694.944</ele>
        <time>2017-04-01T13:45:30Z</time>
      </trkpt>
      <trkpt lat="46.31682" lon="4.43069">
        <ele>698.718</ele>
        <time>2017-04-01T13:45:50Z</time>
      </trkpt>
      <trkpt lat="46.31578" lon="4.43217">
        <ele>706.608</ele>
        <time>2017-04-01T13:46:10Z</time>
      </trkpt>
      <trkpt lat="46.31561" lon="4.43217">
        <ele>706.252</ele>
        <time>2017-04-01T13:46:30Z</time>
      </trkpt>
      <trkpt lat="46.31446" lon="4.43111">
        <ele>703.117</ele>
        <time>2017-04-01T13:46:50Z</time>
      </trkpt>
      <trkpt lat="46.31404" lon="4.4309">
        <ele>699.878</ele>
        <time>2017-04-01T13:47:10Z</time>
      </trkpt>
      <trkpt lat="46.31367" lon="4.4309">
        <ele>694.863</ele>
        <time>2017-04-01T13:47:30Z</time>
      </trkpt>
      <trkpt lat="46.31296" lon="4.43064">
        <ele>681.732</ele>
        <time>2017-04-01T13:47:50Z</time>
      </trkpt>
      <trkpt lat="46.31238" lon="4.43027">
        <ele>675.785</ele>
        <time>2017-04-01T13:48:10Z</time>
      </trkpt>
      <trkpt lat="46.31194" lon="4.42974">
        <ele>667.112</ele>
        <time>2017-04-01T13:48:30Z</time>
      </trkpt>
      <trkpt lat="46.31148" lon="4.42904">
        <ele>661.436</ele>
        <time>2017-04-01T13:48:50Z</time>
      </trkpt>
      <trkpt lat="46.31154" lon="4.42938">
        <ele>663.725</ele>
        <time>2017-04-01T13:49:10Z</time>
      </trkpt>
      <trkpt lat="46.31175" lon="4.43028">
        <ele>668.826</ele>
        <time>2017-04-01T13:49:30Z</time>
      </trkpt>
      <trkpt lat="46.31241" lon="4.43146">
        <ele>676.908</ele>
        <time>2017-04-01T13:49:50Z</time>
      </trkpt>
      <trkpt lat="46.31277" lon="4.43189">
        <ele>679.008</ele>
        <time>2017-04-01T13:50:10Z</time>
      </trkpt>
      <trkpt lat="46.31316" lon="4.43221">
        <ele>680.238</ele>
        <time>2017-04-01T13:50:30Z</time>
      </trkpt>
      <trkpt lat="46.31339" lon="4.43251">
        <ele>680.473</ele>
        <time>2017-04-01T13:50:50Z</time>
      </trkpt>
      <trkpt lat="46.31412" lon="4.433">
        <ele>684.764</ele>
        <time>2017-04-01T13:51:10Z</time>
      </trkpt>
      <trkpt lat="46.3143" lon="4.43341">
        <ele>685.369</ele>
        <time>2017-04-01T13:51:30Z</time>
      </trkpt>
      <trkpt lat="46.31398" lon="4.43418">
        <ele>685.798</ele>
        <time>2017-04-01T13:51:50Z</time>
      </trkpt>
      <trkpt lat="46.31372" lon="4.43465">
        <ele>686.911</ele>
        <time>2017-04-01T13:52:10Z</time>
      </trkpt>
      <trkpt lat="46.31363" lon="4.43548">
        <ele>693.238</ele>
        <time>2017-04-01T13:52:30Z</time>
      </trkpt>
      <trkpt lat="46.31338" lon="4.43632">
        <ele>691.862</ele>
        <time>2017-04-01T13:52:50Z</time>
      </trkpt>
      <trkpt lat="46.31321" lon="4.43727">
        <ele>691.615</ele>
        <time>2017-04-01T13:53:10Z</time>
      </trkpt>
      <trkpt lat="46.31318" lon="4.43803">
        <ele>690.565</ele>
        <time>2017-04-01T13:53:30Z</time>
      </trkpt>
      <trkpt lat="46.31322" lon="4.43869">
        <ele>691.711</ele>
        <time>2017-04-01T13:53:50Z</time>
      </trkpt>
      <trkpt lat="46.31291" lon="4.43948">
        <ele>682.808</ele>
        <time>2017-04-01T13:54:10Z</time>
      </trkpt>
      <trkpt lat="46.31292" lon="4.44009">
        <ele>682.167</ele>
        <time>2017-04-01T13:54:30Z</time>
      </trkpt>
      <trkpt lat="46.31281" lon="4.44078">
        <ele>679.622</ele>
        <time>2017-04-01T13:54:50Z</time>
      </trkpt>
      <trkpt lat="46.313" lon="4.44177">
        <ele>672.583</ele>
        <time>2017-04-01T13:55:10Z</time>
      </trkpt>
      <trkpt lat="46.31313" lon="4.44209">
        <ele>668.568</ele>
        <time>2017-04-01T13:55:30Z</time>
      </trkpt>
      <trkpt lat="46.31335" lon="4.44226">
        <ele>667.387</ele>
        <time>2017-04-01T13:55:50Z</time>
      </trkpt>
      <trkpt lat="46.31344" lon="4.44241">
        <ele>669.14</ele>
        <time>2017-04-01T13:56:10Z</time>
      </trkpt>
      <trkpt lat="46.31353" lon="4.44298">
        <ele>674.917</ele>
        <time>2017-04-01T13:56:30Z</time>
      </trkpt>
      <trkpt lat="46.3135" lon="4.4434">
        <ele>674.361</ele>
        <time>2017-04-01T13:56:50Z</time>
      </trkpt>
      <trkpt lat="46.31333" lon="4.44388">
        <ele>668.939</ele>
        <time>2017-04-01T13:57:10Z</time>
      </trkpt>
      <trkpt lat="46.31297" lon="4.44438">
        <ele>671.201</ele>
        <time>2017-04-01T13:57:30Z</time>
      </trkpt>
      <trkpt lat="46.31249" lon="4.44468">
        <ele>669.421</ele>
        <time>2017-04-01T13:57:50Z</time>
      </trkpt>
      <trkpt lat="46.31207" lon="4.4448">
        <ele>664.208</ele>
        <time>2017-04-01T13:58:10Z</time>
      </trkpt>
      <trkpt lat="46.31162" lon="4.4448">
        <ele>661.519</ele>
        <time>2017-04-01T13:58:30Z</time>
      </trkpt>
      <trkpt lat="46.31109" lon="4.44457">
        <ele>657.624</ele>
        <time>2017-04-01T13:58:50Z</time>
      </trkpt>
      <trkpt lat="46.31046" lon="4.44451">
        <ele>652.735</ele>
        <time>2017-04-01T13:59:10Z</time>
      </trkpt>
      <trkpt lat="46.3102" lon="4.44462">
        <ele>649.25</ele>
        <time>2017-04-01T13:59:30Z</time>
      </trkpt>
      <trkpt lat="46.30993" lon="4.44479">
        <ele>644.969</ele>
        <time>2017-04-01T13:59:50Z</time>
      </trkpt>
      <trkpt lat="46.3094" lon="4.44528">
        <ele>640.712</ele>
        <time>2017-04-01T14:00:10Z</time>
      </trkpt>
      <trkpt lat="46.309" lon="4.44545">
        <ele>638.139</ele>
        <time>2017-04-01T14:00:30Z</time>
      </trkpt>
      <trkpt lat="46.30842" lon="4.44589">
        <ele>629.973</ele>
        <time>2017-04-01T14:00:50Z</time>
      </trkpt>
      <trkpt lat="46.30821" lon="4.44613">
        <ele>624.697</ele>
        <time>2017-04-01T14:01:10Z</time>
      </trkpt>
      <trkpt lat="46.30812" lon="4.44628">
        <ele>622.123</ele>
        <time>2017-04-01T14:01:30Z</time>
      </trkpt>
      <trkpt lat="46.30768" lon="4.44655">
        <ele>612.825</ele>
        <time>2017-04-01T14:01:50Z</time>
      </trkpt>
      <trkpt lat="46.30705" lon="4.44676">
        <ele>604.908</ele>
        <time>2017-04-01T14:02:10Z</time>
      </trkpt>
      <trkpt lat="46.30694" lon="4.44699">
        <ele>603.615</ele>
        <time>2017-04-01T14:02:30Z</time>
      </trkpt>
      <trkpt lat="46.30595" lon="4.44781">
        <ele>584.96</ele>
        <time>2017-04-01T14:02:50Z</time>
      </trkpt>
      <trkpt lat="46.30484" lon="4.44866">
        <ele>571.211</ele>
        <time>2017-04-01T14:03:10Z</time>
      </trkpt>
      <trkpt lat="46.30426" lon="4.44919">
        <ele>566.436</ele>
        <time>2017-04-01T14:03:30Z</time>
      </trkpt>
      <trkpt lat="46.30337" lon="4.44982">
        <ele>560.415</ele>
        <time>2017-04-01T14:03:50Z</time>
      </trkpt>
      <trkpt lat="46.30291" lon="4.45023">
        <ele>557.588</ele>
        <time>2017-04-01T14:04:10Z</time>
      </trkpt>
      <trkpt lat="46.30213" lon="4.45077">
        <ele>555.695</ele>
        <time>2017-04-01T14:04:30Z</time>
      </trkpt>
      <trkpt lat="46.30249" lon="4.45186">
        <ele>548.819</ele>
        <time>2017-04-01T14:04:50Z</time>
      </trkpt>
      <trkpt lat="46.30275" lon="4.45367">
        <ele>542.784</ele>
        <time>2017-04-01T14:05:10Z</time>
      </trkpt>
      <trkpt lat="46.30307" lon="4.45487">
        <ele>541.807</ele>
        <time>2017-04-01T14:05:30Z</time>
      </trkpt>
      <trkpt lat="46.30336" lon="4.4561">
        <ele>533.517</ele>
        <time>2017-04-01T14:05:50Z</time>
      </trkpt>
      <trkpt lat="46.30311" lon="4.45686">
        <ele>535.608</ele>
        <time>2017-04-01T14:06:10Z</time>
      </trkpt>
      <trkpt lat="46.30265" lon="4.45771">
        <ele>551.034</ele>
        <time>2017-04-01T14:06:30Z</time>
      </trkpt>
      <trkpt lat="46.30206" lon="4.45859">
        <ele>560.979</ele>
        <time>2017-04-01T14:06:50Z</time>
      </trkpt>
      <trkpt lat="46.30131" lon="4.45958">
        <ele>573.85</ele>
        <time>2017-04-01T14:07:10Z</time>
      </trkpt>
      <trkpt lat="46.30098" lon="4.45979">
        <ele>575.515</ele>
        <time>2017-04-01T14:07:30Z</time>
      </trkpt>
      <trkpt lat="46.30072" lon="4.45989">
        <ele>575.984</ele>
        <time>2017-04-01T14:07:50Z</time>
      </trkpt>
      <trkpt lat="46.30027" lon="4.45974">
        <ele>582.637</ele>
        <time>2017-04-01T14:08:10Z</time>
      </trkpt>
      <trkpt lat="46.29993" lon="4.45967">
        <ele>587.644</ele>
        <time>2017-04-01T14:08:30Z</time>
      </trkpt>
      <trkpt lat="46.29955" lon="4.45948">
        <ele>590.328</ele>
        <time>2017-04-01T14:08:50Z</time>
      </trkpt>
      <trkpt lat="46.29932" lon="4.45926">
        <ele>591.617</ele>
        <time>2017-04-01T14:09:10Z</time>
      </trkpt>
      <trkpt lat="46.29918" lon="4.45891">
        <ele>594.087</ele>
        <time>2017-04-01T14:09:30Z</time>
      </trkpt>
      <trkpt lat="46.29903" lon="4.45812">
        <ele>600.315</ele>
        <time>2017-04-01T14:09:50Z</time>
      </trkpt>
      <trkpt lat="46.29885" lon="4.45794">
        <ele>599.708</ele>
        <time>2017-04-01T14:10:10Z</time>
      </trkpt>
      <trkpt lat="46.29836" lon="4.45789">
        <ele>601.737</ele>
        <time>2017-04-01T14:10:30Z</time>
      </trkpt>
      <trkpt lat="46.29782" lon="4.45824">
        <ele>603.572</ele>
        <time>2017-04-01T14:10:50Z</time>
      </trkpt>
      <trkpt lat="46.29719" lon="4.45839">
        <ele>602.553</ele>
        <time>2017-04-01T14:11:10Z</time>
      </trkpt>
      <trkpt lat="46.29699" lon="4.45882">
        <ele>604.228</ele>
        <time>2017-04-01T14:11:30Z</time>
      </trkpt>
      <trkpt lat="46.29651" lon="4.45932">
        <ele>602.467</ele>
        <time>2017-04-01T14:11:50Z</time>
      </trkpt>
      <trkpt lat="46.2961" lon="4.45987">
        <ele>611.62</ele>
        <time>2017-04-01T14:12:10Z</time>
      </trkpt>
      <trkpt lat="46.29562" lon="4.46029">
        <ele>609.527</ele>
        <time>2017-04-01T14:12:30Z</time>
      </trkpt>
      <trkpt lat="46.29522" lon="4.46073">
        <ele>607.751</ele>
        <time>2017-04-01T14:12:50Z</time>
      </trkpt>
      <trkpt lat="46.29442" lon="4.46192">
        <ele>614.286</ele>
        <time>2017-04-01T14:13:10Z</time>
      </trkpt>
      <trkpt lat="46.29429" lon="4.46227">
        <ele>615.96</ele>
        <time>2017-04-01T14:13:30Z</time>
      </trkpt>
      <trkpt lat="46.29411" lon="4.46223">
        <ele>623.626</ele>
        <time>2017-04-01T14:13:50Z</time>
      </trkpt>
      <trkpt lat="46.29381" lon="4.46239">
        <ele>632.908</ele>
        <time>2017-04-01T14:14:10Z</time>
      </trkpt>
      <trkpt lat="46.29347" lon="4.46265">
        <ele>641.724</ele>
        <time>2017-04-01T14:14:30Z</time>
      </trkpt>
      <trkpt lat="46.29325" lon="4.46292">
        <ele>648.349</ele>
        <time>2017-04-01T14:14:50Z</time>
      </trkpt>
      <trkpt lat="46.29299" lon="4.46383">
        <ele>644.16</ele>
        <time>2017-04-01T14:15:10Z</time>
      </trkpt>
      <trkpt lat="46.29279" lon="4.46415">
        <ele>643.275</ele>
        <time>2017-04-01T14:15:30Z</time>
      </trkpt>
      <trkpt lat="46.29247" lon="4.46434">
        <ele>650.884</ele>
        <time>2017-04-01T14:15:50Z</time>
      </trkpt>
      <trkpt lat="46.29207" lon="4.46475">
        <ele>653.767</ele>
        <time>2017-04-01T14:16:10Z</time>
      </trkpt>
      <trkpt lat="46.29177" lon="4.46528">
        <ele>659.924</ele>
        <time>2017-04-01T14:16:30Z</time>
      </trkpt>
      <trkpt lat="46.29149" lon="4.46607">
        <ele>663.238</ele>
        <time>2017-04-01T14:16:50Z</time>
      </trkpt>
      <trkpt lat="46.29124" lon="4.46652">
        <ele>662.555</ele>
        <time>2017-04-01T14:17:10Z</time>
      </trkpt>
      <trkpt lat="46.29095" lon="4.46679">
        <ele>664.807</ele>
        <time>2017-04-01T14:17:30Z</time>
      </trkpt>
      <trkpt lat="46.29069" lon="4.46682">
        <ele>666.117</ele>
        <time>2017-04-01T14:17:50Z</time>
      </trkpt>
      <trkpt lat="46.29023" lon="4.46606">
        <ele>673.308</ele>
        <time>2017-04-01T14:18:10Z</time>
      </trkpt>
      <trkpt lat="46.28921" lon="4.46585">
        <ele>659.541</ele>
        <time>2017-04-01T14:18:30Z</time>
      </trkpt>
      <trkpt lat="46.28888" lon="4.4654">
        <ele>655.666</ele>
        <time>2017-04-01T14:18:50Z</time>
      </trkpt>
      <trkpt lat="46.28856" lon="4.46555">
        <ele>645.687</ele>
        <time>2017-04-01T14:19:10Z</time>
      </trkpt>
      <trkpt lat="46.2876" lon="4.46466">
        <ele>648.312</ele>
        <time>2017-04-01T14:19:30Z</time>
      </trkpt>
      <trkpt lat="46.28727" lon="4.46424">
        <ele>644.781</ele>
        <time>2017-04-01T14:19:50Z</time>
      </trkpt>
      <trkpt lat="46.28706" lon="4.46378">
        <ele>639.484</ele>
        <time>2017-04-01T14:20:10Z</time>
      </trkpt>
      <trkpt lat="46.28698" lon="4.46196">
        <ele>630.611</ele>
        <time>2017-04-01T14:20:30Z</time>
      </trkpt>
      <trkpt lat="46.2866" lon="4.46249">
        <ele>631.445</ele>
        <time>2017-04-01T14:20:50Z</time>
      </trkpt>
      <trkpt lat="46.28637" lon="4.46305">
        <ele>632.839</ele>
        <time>2017-04-01T14:21:10Z</time>
      </trkpt>
      <trkpt lat="46.28598" lon="4.46343">
        <ele>633.201</ele>
        <time>2017-04-01T14:21:30Z</time>
      </trkpt>
      <trkpt lat="46.28485" lon="4.46349">
        <ele>639.621</ele>
        <time>2017-04-01T14:21:50Z</time>
      </trkpt>
      <trkpt lat="46.28416" lon="4.46383">
        <ele>644.708</ele>
        <time>2017-04-01T14:22:10Z</time>
      </trkpt>
      <trkpt lat="46.28404" lon="4.46403">
        <ele>644.849</ele>
        <time>2017-04-01T14:22:30Z</time>
      </trkpt>
      <trkpt lat="46.28377" lon="4.46532">
        <ele>641.124</ele>
        <time>2017-04-01T14:22:50Z</time>
      </trkpt>
      <trkpt lat="46.28308" lon="4.46729">
        <ele>637.265</ele>
        <time>2017-04-01T14:23:10Z</time>
      </trkpt>
      <trkpt lat="46.28275" lon="4.46802">
        <ele>637.11</ele>
        <time>2017-04-01T14:23:30Z</time>
      </trkpt>
      <trkpt lat="46.28228" lon="4.46964">
        <ele>636.659</ele>
        <time>2017-04-01T14:23:50Z</time>
      </trkpt>
      <trkpt lat="46.28207" lon="4.47013">
        <ele>643.762</ele>
        <time>2017-04-01T14:24:10Z</time>
      </trkpt>
      <trkpt lat="46.28091" lon="4.47153">
        <ele>650.859</ele>
        <time>2017-04-01T14:24:30Z</time>
      </trkpt>
      <trkpt lat="46.28049" lon="4.47215">
        <ele>654.843</ele>
        <time>2017-04-01T14:24:50Z</time>
      </trkpt>
      <trkpt lat="46.27975" lon="4.47221">
        <ele>639.735</ele>
        <time>2017-04-01T14:25:10Z</time>
      </trkpt>
      <trkpt lat="46.27942" lon="4.47249">
        <ele>632.586</ele>
        <time>2017-04-01T14:25:30Z</time>
      </trkpt>
      <trkpt lat="46.27866" lon="4.47256">
        <ele>620.514</ele>
        <time>2017-04-01T14:25:50Z</time>
      </trkpt>
      <trkpt lat="46.27839" lon="4.47306">
        <ele>615.608</ele>
        <time>2017-04-01T14:26:10Z</time>
      </trkpt>
      <trkpt lat="46.27815" lon="4.47314">
        <ele>613.769</ele>
        <time>2017-04-01T14:26:30Z</time>
      </trkpt>
      <trkpt lat="46.27726" lon="4.47252">
        <ele>613.984</ele>
        <time>2017-04-01T14:26:50Z</time>
      </trkpt>
      <trkpt lat="46.27641" lon="4.47177">
        <ele>612.685</ele>
        <time>2017-04-01T14:27:10Z</time>
      </trkpt>
      <trkpt lat="46.27601" lon="4.47169">
        <ele>604.22</ele>
        <time>2017-04-01T14:27:30Z</time>
      </trkpt>
      <trkpt lat="46.27549" lon="4.47174">
        <ele>596.229</ele>
        <time>2017-04-01T14:27:50Z</time>
      </trkpt>
      <trkpt lat="46.27517" lon="4.47152">
        <ele>590.852</ele>
        <time>2017-04-01T14:28:10Z</time>
      </trkpt>
      <trkpt lat="46.27438" lon="4.47174">
        <ele>585.869</ele>
        <time>2017-04-01T14:28:30Z</time>
      </trkpt>
      <trkpt lat="46.27339" lon="4.47295">
        <ele>571.073</ele>
        <time>2017-04-01T14:28:50Z</time>
      </trkpt>
      <trkpt lat="46.27303" lon="4.47268">
        <ele>573.095</ele>
        <time>2017-04-01T14:29:10Z</time>
      </trkpt>
      <trkpt lat="46.27204" lon="4.47279">
        <ele>566.549</ele>
        <time>2017-04-01T14:29:30Z</time>
      </trkpt>
      <trkpt lat="46.27093" lon="4.47221">
        <ele>565.323</ele>
        <time>2017-04-01T14:29:50Z</time>
      </trkpt>
      <trkpt lat="46.27072" lon="4.47228">
        <ele>566.208</ele>
        <time>2017-04-01T14:30:10Z</time>
      </trkpt>
      <trkpt lat="46.27029" lon="4.47255">
        <ele>570.945</ele>
        <time>2017-04-01T14:30:30Z</time>
      </trkpt>
      <trkpt lat="46.27013" lon="4.47288">
        <ele>575.29</ele>
        <time>2017-04-01T14:30:50Z</time>
      </trkpt>
      <trkpt lat="46.26969" lon="4.47252">
        <ele>589.941</ele>
        <time>2017-04-01T14:31:10Z</time>
      </trkpt>
      <trkpt lat="46.26946" lon="4.47213">
        <ele>595.616</ele>
        <time>2017-04-01T14:31:30Z</time>
      </trkpt>
      <trkpt lat="46.26907" lon="4.47173">
        <ele>600.615</ele>
        <time>2017-04-01T14:31:50Z</time>
      </trkpt>
      <trkpt lat="46.26851" lon="4.4716">
        <ele>613.318</ele>
        <time>2017-04-01T14:32:10Z</time>
      </trkpt>
      <trkpt lat="46.26779" lon="4.47123">
        <ele>630.785</ele>
        <time>2017-04-01T14:32:30Z</time>
      </trkpt>
      <trkpt lat="46.26727" lon="4.47102">
        <ele>636.669</ele>
        <time>2017-04-01T14:32:50Z</time>
      </trkpt>
      <trkpt lat="46.26688" lon="4.47052">
        <ele>637.282</ele>
        <time>2017-04-01T14:33:10Z</time>
      </trkpt>
      <trkpt lat="46.26614" lon="4.47013">
        <ele>636.543</ele>
        <time>2017-04-01T14:33:30Z</time>
      </trkpt>
      <trkpt lat="46.26594" lon="4.46991">
        <ele>635.217</ele>
        <time>2017-04-01T14:33:50Z</time>
      </trkpt>
      <trkpt lat="46.26577" lon="4.46988">
        <ele>635.208</ele>
        <time>2017-04-01T14:34:10Z</time>
      </trkpt>
      <trkpt lat="46.26562" lon="4.46974">
        <ele>635.844</ele>
        <time>2017-04-01T14:34:30Z</time>
      </trkpt>
      <trkpt lat="46.2653" lon="4.4699">
        <ele>636.079</ele>
        <time>2017-04-01T14:34:50Z</time>
      </trkpt>
      <trkpt lat="46.26487" lon="4.46985">
        <ele>635.88</ele>
        <time>2017-04-01T14:35:10Z</time>
      </trkpt>
      <trkpt lat="46.26414" lon="4.46986">
        <ele>639.995</ele>
        <time>2017-04-01T14:35:30Z</time>
      </trkpt>
      <trkpt lat="46.26336" lon="4.47018">
        <ele>635.124</ele>
        <time>2017-04-01T14:35:50Z</time>
      </trkpt>
      <trkpt lat="46.26286" lon="4.46983">
        <ele>635.327</ele>
        <time>2017-04-01T14:36:10Z</time>
      </trkpt>
      <trkpt lat="46.26237" lon="4.4697">
        <ele>637.834</ele>
        <time>2017-04-01T14:36:30Z</time>
      </trkpt>
      <trkpt lat="46.26152" lon="4.46958">
        <ele>629.538</ele>
        <time>2017-04-01T14:36:50Z</time>
      </trkpt>
      <trkpt lat="46.26131" lon="4.46932">
        <ele>624.173</ele>
        <time>2017-04-01T14:37:10Z</time>
      </trkpt>
      <trkpt lat="46.26032" lon="4.46873">
        <ele>611.185</ele>
        <time>2017-04-01T14:37:30Z</time>
      </trkpt>
      <trkpt lat="46.25998" lon="4.4683">
        <ele>613.513</ele>
        <time>2017-04-01T14:37:50Z</time>
      </trkpt>
      <trkpt lat="46.25918" lon="4.46712">
        <ele>638.108</ele>
        <time>2017-04-01T14:38:10Z</time>
      </trkpt>
      <trkpt lat="46.25894" lon="4.46653">
        <ele>641.283</ele>
        <time>2017-04-01T14:38:30Z</time>
      </trkpt>
      <trkpt lat="46.25873" lon="4.46618">
        <ele>640.788</ele>
        <time>2017-04-01T14:38:50Z</time>
      </trkpt>
      <trkpt lat="46.25858" lon="4.46571">
        <ele>638.659</ele>
        <time>2017-04-01T14:39:10Z</time>
      </trkpt>
      <trkpt lat="46.25836" lon="4.46542">
        <ele>639.314</ele>
        <time>2017-04-01T14:39:30Z</time>
      </trkpt>
      <trkpt lat="46.25738" lon="4.46502">
        <ele>654.593</ele>
        <time>2017-04-01T14:39:50Z</time>
      </trkpt>
      <trkpt lat="46.25694" lon="4.46475">
        <ele>655.036</ele>
        <time>2017-04-01T14:40:10Z</time>
      </trkpt>
      <trkpt lat="46.25673" lon="4.46471">
        <ele>654.253</ele>
        <time>2017-04-01T14:40:30Z</time>
      </trkpt>
      <trkpt lat="46.25592" lon="4.46485">
        <ele>653.367</ele>
        <time>2017-04-01T14:40:50Z</time>
      </trkpt>
      <trkpt lat="46.25512" lon="4.4647">
        <ele>655.993</ele>
        <time>2017-04-01T14:41:10Z</time>
      </trkpt>
      <trkpt lat="46.25477" lon="4.46452">
        <ele>657.665</ele>
        <time>2017-04-01T14:41:30Z</time>
      </trkpt>
      <trkpt lat="46.25398" lon="4.46383">
        <ele>655.721</ele>
        <time>2017-04-01T14:41:50Z</time>
      </trkpt>
      <trkpt lat="46.25185" lon="4.46271">
        <ele>654.408</ele>
        <time>2017-04-01T14:42:10Z</time>
      </trkpt>
      <trkpt lat="46.25118" lon="4.46215">
        <ele>653.785</ele>
        <time>2017-04-01T14:42:30Z</time>
      </trkpt>
      <trkpt lat="46.25099" lon="4.46192">
        <ele>656.98</ele>
        <time>2017-04-01T14:42:50Z</time>
      </trkpt>
      <trkpt lat="46.25078" lon="4.46143">
        <ele>664.191</ele>
        <time>2017-04-01T14:43:10Z</time>
      </trkpt>
      <trkpt lat="46.25073" lon="4.46105">
        <ele>665.976</ele>
        <time>2017-04-01T14:43:30Z</time>
      </trkpt>
      <trkpt lat="46.2508" lon="4.46004">
        <ele>670.385</ele>
        <time>2017-04-01T14:43:50Z</time>
      </trkpt>
      <trkpt lat="46.25076" lon="4.45968">
        <ele>678.528</ele>
        <time>2017-04-01T14:44:10Z</time>
      </trkpt>
      <trkpt lat="46.25061" lon="4.45929">
        <ele>683.895</ele>
        <time>2017-04-01T14:44:30Z</time>
      </trkpt>
      <trkpt lat="46.25024" lon="4.45896">
        <ele>685.029</ele>
        <time>2017-04-01T14:44:50Z</time>
      </trkpt>
      <trkpt lat="46.24973" lon="4.45865">
        <ele>690.281</ele>
        <time>2017-04-01T14:45:10Z</time>
      </trkpt>
      <trkpt lat="46.24937" lon="4.45804">
        <ele>693.861</ele>
        <time>2017-04-01T14:45:30Z</time>
      </trkpt>
      <trkpt lat="46.2491" lon="4.45742">
        <ele>698.817</ele>
        <time>2017-04-01T14:45:50Z</time>
      </trkpt>
      <trkpt lat="46.24904" lon="4.45789">
        <ele>695.708</ele>
        <time>2017-04-01T14:46:10Z</time>
      </trkpt>
      <trkpt lat="46.24908" lon="4.45963">
        <ele>706.674</ele>
        <time>2017-04-01T14:46:30Z</time>
      </trkpt>
      <trkpt lat="46.24906" lon="4.46017">
        <ele>704.899</ele>
        <time>2017-04-01T14:46:50Z</time>
      </trkpt>
      <trkpt lat="46.24875" lon="4.46163">
        <ele>707.99</ele>
        <time>2017-04-01T14:47:10Z</time>
      </trkpt>
      <trkpt lat="46.24853" lon="4.46214">
        <ele>703.665</ele>
        <time>2017-04-01T14:47:30Z</time>
      </trkpt>
      <trkpt lat="46.24751" lon="4.46388">
        <ele>684.084</ele>
        <time>2017-04-01T14:47:50Z</time>
      </trkpt>
      <trkpt lat="46.2463" lon="4.46601">
        <ele>672.447</ele>
        <time>2017-04-01T14:48:10Z</time>
      </trkpt>
      <trkpt lat="46.24554" lon="4.46751">
        <ele>671.924</ele>
        <time>2017-04-01T14:48:30Z</time>
      </trkpt>
      <trkpt lat="46.24501" lon="4.46904">
        <ele>674.758</ele>
        <time>2017-04-01T14:48:50Z</time>
      </trkpt>
      <trkpt lat="46.24449" lon="4.4699">
        <ele>673.143</ele>
        <time>2017-04-01T14:49:10Z</time>
      </trkpt>
      <trkpt lat="46.24388" lon="4.47104">
        <ele>677.364</ele>
        <time>2017-04-01T14:49:30Z</time>
      </trkpt>
      <trkpt lat="46.24361" lon="4.47175">
        <ele>675.41</ele>
        <time>2017-04-01T14:49:50Z</time>
      </trkpt>
      <trkpt lat="46.24348" lon="4.47247">
        <ele>667.208</ele>
        <time>2017-04-01T14:50:10Z</time>
      </trkpt>
      <trkpt lat="46.24273" lon="4.47343">
        <ele>650.11</ele>
        <time>2017-04-01T14:50:30Z</time>
      </trkpt>
      <trkpt lat="46.24225" lon="4.47291">
        <ele>642.355</ele>
        <time>2017-04-01T14:50:50Z</time>
      </trkpt>
      <trkpt lat="46.24214" lon="4.47377">
        <ele>643.436</ele>
        <time>2017-04-01T14:51:10Z</time>
      </trkpt>
      <trkpt lat="46.24191" lon="4.4745">
        <ele>643.611</ele>
        <time>2017-04-01T14:51:30Z</time>
      </trkpt>
      <trkpt lat="46.24225" lon="4.47532">
        <ele>646.22</ele>
        <time>2017-04-01T14:51:50Z</time>
      </trkpt>
      <trkpt lat="46.24236" lon="4.47662">
        <ele>649.073</ele>
        <time>2017-04-01T14:52:10Z</time>
      </trkpt>
      <trkpt lat="46.24189" lon="4.47766">
        <ele>658.59</ele>
        <time>2017-04-01T14:52:30Z</time>
      </trkpt>
      <trkpt lat="46.24164" lon="4.47843">
        <ele>663.274</ele>
        <time>2017-04-01T14:52:50Z</time>
      </trkpt>
      <trkpt lat="46.24145" lon="4.47918">
        <ele>666.438</ele>
        <time>2017-04-01T14:53:10Z</time>
      </trkpt>
      <trkpt lat="46.24135" lon="4.47942">
        <ele>669.57</ele>
        <time>2017-04-01T14:53:30Z</time>
      </trkpt>
      <trkpt lat="46.24052" lon="4.47998">
        <ele>695.217</ele>
        <time>2017-04-01T14:53:50Z</time>
      </trkpt>
      <trkpt lat="46.23917" lon="4.48006">
        <ele>714.308</ele>
        <time>2017-04-01T14:54:10Z</time>
      </trkpt>
      <trkpt lat="46.23892" lon="4.48022">
        <ele>716.489</ele>
        <time>2017-04-01T14:54:30Z</time>
      </trkpt>
      <trkpt lat="46.23828" lon="4.48112">
        <ele>724.964</ele>
        <time>2017-04-01T14:54:50Z</time>
      </trkpt>
      <trkpt lat="46.23809" lon="4.48153">
        <ele>726.325</ele>
        <time>2017-04-01T14:55:10Z</time>
      </trkpt>
      <trkpt lat="46.23771" lon="4.48286">
        <ele>732.51</ele>
        <time>2017-04-01T14:55:30Z</time>
      </trkpt>
      <trkpt lat="46.2371" lon="4.48419">
        <ele>734.049</ele>
        <time>2017-04-01T14:55:50Z</time>
      </trkpt>
      <trkpt lat="46.23664" lon="4.48487">
        <ele>734.812</ele>
        <time>2017-04-01T14:56:10Z</time>
      </trkpt>
      <trkpt lat="46.23616" lon="4.48561">
        <ele>739.479</ele>
        <time>2017-04-01T14:56:30Z</time>
      </trkpt>
      <trkpt lat="46.23543" lon="4.48632">
        <ele>733.063</ele>
        <time>2017-04-01T14:56:50Z</time>
      </trkpt>
      <trkpt lat="46.23507" lon="4.4866">
        <ele>729.785</ele>
        <time>2017-04-01T14:57:10Z</time>
      </trkpt>
      <trkpt lat="46.23414" lon="4.4872">
        <ele>729.989</ele>
        <time>2017-04-01T14:57:30Z</time>
      </trkpt>
      <trkpt lat="46.23358" lon="4.48743">
        <ele>730.017</ele>
        <time>2017-04-01T14:57:50Z</time>
      </trkpt>
      <trkpt lat="46.23328" lon="4.48772">
        <ele>728.608</ele>
        <time>2017-04-01T14:58:10Z</time>
      </trkpt>
      <trkpt lat="46.23314" lon="4.48744">
        <ele>730.984</ele>
        <time>2017-04-01T14:58:30Z</time>
      </trkpt>
      <trkpt lat="46.23305" lon="4.48713">
        <ele>731.719</ele>
        <time>2017-04-01T14:58:50Z</time>
      </trkpt>
      <trkpt lat="46.23273" lon="4.48712">
        <ele>732.31</ele>
        <time>2017-04-01T14:59:10Z</time>
      </trkpt>
      <trkpt lat="46.23163" lon="4.4868">
        <ele>750.045</ele>
        <time>2017-04-01T14:59:30Z</time>
      </trkpt>
      <trkpt lat="46.23099" lon="4.48645">
        <ele>753.124</ele>
        <time>2017-04-01T14:59:50Z</time>
      </trkpt>
      <trkpt lat="46.23032" lon="4.48639">
        <ele>761.367</ele>
        <time>2017-04-01T15:00:10Z</time>
      </trkpt>
      <trkpt lat="46.22925" lon="4.48639">
        <ele>773.474</ele>
        <time>2017-04-01T15:00:30Z</time>
      </trkpt>
      <trkpt lat="46.22898" lon="4.48624">
        <ele>776.748</ele>
        <time>2017-04-01T15:00:50Z</time>
      </trkpt>
      <trkpt lat="46.22859" lon="4.48582">
        <ele>783.378</ele>
        <time>2017-04-01T15:01:10Z</time>
      </trkpt>
      <trkpt lat="46.22824" lon="4.48564">
        <ele>790.633</ele>
        <time>2017-04-01T15:01:30Z</time>
      </trkpt>
      <trkpt lat="46.22806" lon="4.48567">
        <ele>795.026</ele>
        <time>2017-04-01T15:01:50Z</time>
      </trkpt>
      <trkpt lat="46.22783" lon="4.48589">
        <ele>798.308</ele>
        <time>2017-04-01T15:02:10Z</time>
      </trkpt>
      <trkpt lat="46.2274" lon="4.48592">
        <ele>803.483</ele>
        <time>2017-04-01T15:02:30Z</time>
      </trkpt>
      <trkpt lat="46.22709" lon="4.48574">
        <ele>806.228</ele>
        <time>2017-04-01T15:02:50Z</time>
      </trkpt>
      <trkpt lat="46.22688" lon="4.48512">
        <ele>809.179</ele>
        <time>2017-04-01T15:03:10Z</time>
      </trkpt>
      <trkpt lat="46.22645" lon="4.48454">
        <ele>810.464</ele>
        <time>2017-04-01T15:03:30Z</time>
      </trkpt>
      <trkpt lat="46.22601" lon="4.48442">
        <ele>813.593</ele>
        <time>2017-04-01T15:03:50Z</time>
      </trkpt>
      <trkpt lat="46.22569" lon="4.48405">
        <ele>816.156</ele>
        <time>2017-04-01T15:04:10Z</time>
      </trkpt>
      <trkpt lat="46.22547" lon="4.48398">
        <ele>818.993</ele>
        <time>2017-04-01T15:04:30Z</time>
      </trkpt>
      <trkpt lat="46.22502" lon="4.4834">
        <ele>827.167</ele>
        <time>2017-04-01T15:04:50Z</time>
      </trkpt>
      <trkpt lat="46.22467" lon="4.48317">
        <ele>829.636</ele>
        <time>2017-04-01T15:05:10Z</time>
      </trkpt>
      <trkpt lat="46.22384" lon="4.48186">
        <ele>839.217</ele>
        <time>2017-04-01T15:05:30Z</time>
      </trkpt>
      <trkpt lat="46.22353" lon="4.48144">
        <ele>838.818</ele>
        <time>2017-04-01T15:05:50Z</time>
      </trkpt>
      <trkpt lat="46.22352" lon="4.47968">
        <ele>828.108</ele>
        <time>2017-04-01T15:06:10Z</time>
      </trkpt>
      <trkpt lat="46.21699" lon="4.47924">
        <ele>871.239</ele>
        <time>2017-04-01T15:06:30Z</time>
      </trkpt>
      <trkpt lat="46.21687" lon="4.47735">
        <ele>850.654</ele>
        <time>2017-04-01T15:06:50Z</time>
      </trkpt>
      <trkpt lat="46.21624" lon="4.47829">
        <ele>867.395</ele>
        <time>2017-04-01T15:07:10Z</time>
      </trkpt>
      <trkpt lat="46.21578" lon="4.47879">
        <ele>868.03</ele>
        <time>2017-04-01T15:07:30Z</time>
      </trkpt>
      <trkpt lat="46.21552" lon="4.47931">
        <ele>875.369</ele>
        <time>2017-04-01T15:07:50Z</time>
      </trkpt>
      <trkpt lat="46.21519" lon="4.4799">
        <ele>884.582</ele>
        <time>2017-04-01T15:08:10Z</time>
      </trkpt>
      <trkpt lat="46.2149" lon="4.48051">
        <ele>894.189</ele>
        <time>2017-04-01T15:08:30Z</time>
      </trkpt>
      <trkpt lat="46.21425" lon="4.48125">
        <ele>899.363</ele>
        <time>2017-04-01T15:08:50Z</time>
      </trkpt>
      <trkpt lat="46.21407" lon="4.48179">
        <ele>905.555</ele>
        <time>2017-04-01T15:09:10Z</time>
      </trkpt>
      <trkpt lat="46.21362" lon="4.48247">
        <ele>908.007</ele>
        <time>2017-04-01T15:09:30Z</time>
      </trkpt>
      <trkpt lat="46.21238" lon="4.4834">
        <ele>900.817</ele>
        <time>2017-04-01T15:09:50Z</time>
      </trkpt>
      <trkpt lat="46.21145" lon="4.48368">
        <ele>902.608</ele>
        <time>2020-11-29T09:02:08Z</time>
      </trkpt>
      <trkpt lat="46.21063" lon="4.48422">
        <ele>914.791</ele>
        <time>2020-11-29T09:02:28Z</time>
      </trkpt>
      <trkpt lat="46.20996" lon="4.48484">
        <ele>935.486</ele>
        <time>2020-11-29T09:02:48Z</time>
      </trkpt>
      <trkpt lat="46.20845" lon="4.4849">
        <ele>978.337</ele>
        <time>2020-11-29T09:03:08Z</time>
      </trkpt>
      <trkpt lat="46.20908" lon="4.48597">
        <ele>984.242</ele>
        <time>2020-11-29T09:03:28Z</time>
      </trkpt>
      <trkpt lat="46.20896" lon="4.48708">
        <ele>988.661</ele>
        <time>2020-11-29T09:03:48Z</time>
      </trkpt>
      <trkpt lat="46.20869" lon="4.48756">
        <ele>997.454</ele>
        <time>2020-11-29T09:04:08Z</time>
      </trkpt>
      <trkpt lat="46.20826" lon="4.4879">
        <ele>1002.711</ele>
        <time>2020-11-29T09:04:28Z</time>
      </trkpt>
      <trkpt lat="46.20826" lon="4.48699">
        <ele>1005.845</ele>
        <time>2020-11-29T09:04:48Z</time>
      </trkpt>
      <trkpt lat="46.20794" lon="4.48682">
        <ele>1004.286</ele>
        <time>2020-11-29T09:05:08Z</time>
      </trkpt>
      <trkpt lat="46.20747" lon="4.48804">
        <ele>997.86</ele>
        <time>2020-11-29T09:05:28Z</time>
      </trkpt>
      <trkpt lat="46.20693" lon="4.48778">
        <ele>987.126</ele>
        <time>2020-11-29T09:05:48Z</time>
      </trkpt>
      <trkpt lat="46.20653" lon="4.48727">
        <ele>973.808</ele>
        <time>2020-11-29T09:06:08Z</time>
      </trkpt>
      <trkpt lat="46.20548" lon="4.48631">
        <ele>957.184</ele>
        <time>2020-11-29T09:06:28Z</time>
      </trkpt>
      <trkpt lat="46.20475" lon="4.48626">
        <ele>946.859</ele>
        <time>2020-11-29T09:06:48Z</time>
      </trkpt>
      <trkpt lat="46.20434" lon="4.48643">
        <ele>946.93</ele>
        <time>2020-11-29T09:07:08Z</time>
      </trkpt>
      <trkpt lat="46.20314" lon="4.48589">
        <ele>955.945</ele>
        <time>2020-11-29T09:07:28Z</time>
      </trkpt>
      <trkpt lat="46.20232" lon="4.48558">
        <ele>960.834</ele>
        <time>2020-11-29T09:07:48Z</time>
      </trkpt>
      <trkpt lat="46.20148" lon="4.48566">
        <ele>960.857</ele>
        <time>2020-11-29T09:08:08Z</time>
      </trkpt>
      <trkpt lat="46.20089" lon="4.48623">
        <ele>967.294</ele>
        <time>2020-11-29T09:08:28Z</time>
      </trkpt>
      <trkpt lat="46.20048" lon="4.486">
        <ele>967.188</ele>
        <time>2020-11-29T09:08:48Z</time>
      </trkpt>
      <trkpt lat="46.19997" lon="4.48521">
        <ele>959.381</ele>
        <time>2020-11-29T09:09:08Z</time>
      </trkpt>
      <trkpt lat="46.19971" lon="4.48413">
        <ele>944.761</ele>
        <time>2020-11-29T09:09:28Z</time>
      </trkpt>
      <trkpt lat="46.19909" lon="4.48286">
        <ele>937.017</ele>
        <time>2020-11-29T09:09:48Z</time>
      </trkpt>
      <trkpt lat="46.19836" lon="4.48209">
        <ele>924.708</ele>
        <time>2020-11-29T09:10:08Z</time>
      </trkpt>
      <trkpt lat="46.19779" lon="4.4817">
        <ele>919.564</ele>
        <time>2020-11-29T09:10:28Z</time>
      </trkpt>
      <trkpt lat="46.19766" lon="4.48119">
        <ele>914.279</ele>
        <time>2020-11-29T09:10:48Z</time>
      </trkpt>
      <trkpt lat="46.19771" lon="4.47943">
        <ele>911.37</ele>
        <time>2020-11-29T09:11:08Z</time>
      </trkpt>
      <trkpt lat="46.19826" lon="4.47861">
        <ele>912.585</ele>
        <time>2020-11-29T09:11:28Z</time>
      </trkpt>
      <trkpt lat="46.19926" lon="4.47793">
        <ele>909.364</ele>
        <time>2020-11-29T09:11:48Z</time>
      </trkpt>
      <trkpt lat="46.19987" lon="4.47615">
        <ele>892.617</ele>
        <time>2020-11-29T09:12:08Z</time>
      </trkpt>
      <trkpt lat="46.20014" lon="4.47468">
        <ele>874.184</ele>
        <time>2020-11-29T09:12:28Z</time>
      </trkpt>
      <trkpt lat="46.19997" lon="4.47391">
        <ele>868.918</ele>
        <time>2020-11-29T09:12:48Z</time>
      </trkpt>
      <trkpt lat="46.19895" lon="4.47238">
        <ele>864.538</ele>
        <time>2020-11-29T09:13:08Z</time>
      </trkpt>
      <trkpt lat="46.1984" lon="4.4717">
        <ele>849.27</ele>
        <time>2020-11-29T09:13:28Z</time>
      </trkpt>
      <trkpt lat="46.1975" lon="4.47131">
        <ele>837.917</ele>
        <time>2020-11-29T09:13:48Z</time>
      </trkpt>
      <trkpt lat="46.19677" lon="4.4706">
        <ele>822.808</ele>
        <time>2020-11-29T09:14:08Z</time>
      </trkpt>
      <trkpt lat="46.1965" lon="4.46992">
        <ele>811.349</ele>
        <time>2020-11-29T09:14:28Z</time>
      </trkpt>
      <trkpt lat="46.19579" lon="4.46924">
        <ele>804.184</ele>
        <time>2020-11-29T09:14:48Z</time>
      </trkpt>
      <trkpt lat="46.19558" lon="4.46876">
        <ele>805.845</ele>
        <time>2020-11-29T09:15:08Z</time>
      </trkpt>
      <trkpt lat="46.19564" lon="4.46813">
        <ele>799.63</ele>
        <time>2020-11-29T09:15:28Z</time>
      </trkpt>
      <trkpt lat="46.1963" lon="4.46683">
        <ele>779.669</ele>
        <time>2020-11-29T09:15:48Z</time>
      </trkpt>
      <trkpt lat="46.19634" lon="4.46632">
        <ele>771.642</ele>
        <time>2020-11-29T09:16:08Z</time>
      </trkpt>
      <trkpt lat="46.19589" lon="4.4642">
        <ele>752.579</ele>
        <time>2020-11-29T09:16:28Z</time>
      </trkpt>
      <trkpt lat="46.19593" lon="4.46369">
        <ele>746.643</ele>
        <time>2020-11-29T09:16:48Z</time>
      </trkpt>
      <trkpt lat="46.1964" lon="4.4629">
        <ele>724.925</ele>
        <time>2020-11-29T09:17:08Z</time>
      </trkpt>
      <trkpt lat="46.19628" lon="4.46182">
        <ele>715.426</ele>
        <time>2020-11-29T09:17:28Z</time>
      </trkpt>
      <trkpt lat="46.19634" lon="4.46125">
        <ele>705.108</ele>
        <time>2020-11-29T09:17:48Z</time>
      </trkpt>
      <trkpt lat="46.19607" lon="4.46052">
        <ele>700.308</ele>
        <time>2020-11-29T09:18:08Z</time>
      </trkpt>
      <trkpt lat="46.19607" lon="4.46009">
        <ele>695.998</ele>
        <time>2020-11-29T09:18:28Z</time>
      </trkpt>
      <trkpt lat="46.19628" lon="4.45924">
        <ele>685.763</ele>
        <time>2020-11-29T09:18:48Z</time>
      </trkpt>
      <trkpt lat="46.19623" lon="4.45856">
        <ele>683.154</ele>
        <time>2020-11-29T09:19:08Z</time>
      </trkpt>
      <trkpt lat="46.19601" lon="4.45808">
        <ele>681.819</ele>
        <time>2020-11-29T09:19:28Z</time>
      </trkpt>
      <trkpt lat="46.19589" lon="4.45667">
        <ele>673.438</ele>
        <time>2020-11-29T09:19:48Z</time>
      </trkpt>
      <trkpt lat="46.1956" lon="4.4559">
        <ele>670.371</ele>
        <time>2020-11-29T09:20:08Z</time>
      </trkpt>
      <trkpt lat="46.19556" lon="4.45537">
        <ele>667.388</ele>
        <time>2020-11-29T09:20:28Z</time>
      </trkpt>
      <trkpt lat="46.19513" lon="4.45486">
        <ele>665.262</ele>
        <time>2020-11-29T09:20:48Z</time>
      </trkpt>
      <trkpt lat="46.1945" lon="4.45435">
        <ele>659.467</ele>
        <time>2020-11-29T09:21:08Z</time>
      </trkpt>
      <trkpt lat="46.19378" lon="4.4533">
        <ele>639.481</ele>
        <time>2020-11-29T09:21:28Z</time>
      </trkpt>
      <trkpt lat="46.19356" lon="4.4527">
        <ele>631.219</ele>
        <time>2020-11-29T09:21:48Z</time>
      </trkpt>
      <trkpt lat="46.19301" lon="4.45256">
        <ele>633.308</ele>
        <time>2020-11-29T09:22:08Z</time>
      </trkpt>
      <trkpt lat="46.19289" lon="4.45211">
        <ele>628.782</ele>
        <time>2020-11-29T09:22:28Z</time>
      </trkpt>
      <trkpt lat="46.19317" lon="4.45095">
        <ele>617.157</ele>
        <time>2020-11-29T09:22:48Z</time>
      </trkpt>
      <trkpt lat="46.19356" lon="4.45021">
        <ele>614.958</ele>
        <time>2020-11-29T09:23:08Z</time>
      </trkpt>
      <trkpt lat="46.19346" lon="4.44942">
        <ele>615.723</ele>
        <time>2020-11-29T09:23:28Z</time>
      </trkpt>
      <trkpt lat="46.1936" lon="4.44865">
        <ele>617.982</ele>
        <time>2020-11-29T09:23:48Z</time>
      </trkpt>
      <trkpt lat="46.19352" lon="4.44809">
        <ele>620.215</ele>
        <time>2020-11-29T09:24:08Z</time>
      </trkpt>
      <trkpt lat="46.19401" lon="4.44611">
        <ele>629.972</ele>
        <time>2020-11-29T09:24:28Z</time>
      </trkpt>
      <trkpt lat="46.19393" lon="4.4452">
        <ele>633.456</ele>
        <time>2020-11-29T09:24:48Z</time>
      </trkpt>
      <trkpt lat="46.19362" lon="4.44449">
        <ele>627.314</ele>
        <time>2020-11-29T09:25:08Z</time>
      </trkpt>
      <trkpt lat="46.19303" lon="4.44386">
        <ele>630.054</ele>
        <time>2020-11-29T09:25:28Z</time>
      </trkpt>
      <trkpt lat="46.19281" lon="4.44332">
        <ele>630.609</ele>
        <time>2020-11-29T09:25:48Z</time>
      </trkpt>
      <trkpt lat="46.19285" lon="4.44238">
        <ele>631.708</ele>
        <time>2020-11-29T09:26:08Z</time>
      </trkpt>
      <trkpt lat="46.19251" lon="4.44091">
        <ele>637.777</ele>
        <time>2020-11-29T09:26:28Z</time>
      </trkpt>
      <trkpt lat="46.19227" lon="4.44033">
        <ele>641.532</ele>
        <time>2020-11-29T09:26:48Z</time>
      </trkpt>
      <trkpt lat="46.19205" lon="4.4399">
        <ele>647.463</ele>
        <time>2020-11-29T09:27:08Z</time>
      </trkpt>
      <trkpt lat="46.19195" lon="4.43819">
        <ele>661.068</ele>
        <time>2020-11-29T09:27:28Z</time>
      </trkpt>
      <trkpt lat="46.19193" lon="4.43735">
        <ele>658.157</ele>
        <time>2020-11-29T09:27:48Z</time>
      </trkpt>
      <trkpt lat="46.19197" lon="4.43708">
        <ele>657.47</ele>
        <time>2020-11-29T09:28:08Z</time>
      </trkpt>
      <trkpt lat="46.19155" lon="4.43697">
        <ele>656.867</ele>
        <time>2020-11-29T09:28:28Z</time>
      </trkpt>
      <trkpt lat="46.1903" lon="4.43603">
        <ele>644.481</ele>
        <time>2020-11-29T09:28:48Z</time>
      </trkpt>
      <trkpt lat="46.18989" lon="4.43587">
        <ele>640.529</ele>
        <time>2020-11-29T09:29:08Z</time>
      </trkpt>
      <trkpt lat="46.18945" lon="4.43549">
        <ele>633</ele>
        <time>2020-11-29T09:29:28Z</time>
      </trkpt>
      <trkpt lat="46.18846" lon="4.43506">
        <ele>619.42</ele>
        <time>2020-11-29T09:29:48Z</time>
      </trkpt>
      <trkpt lat="46.18806" lon="4.4348">
        <ele>611.408</ele>
        <time>2020-11-29T09:30:08Z</time>
      </trkpt>
      <trkpt lat="46.18739" lon="4.43416">
        <ele>604.448</ele>
        <time>2020-11-29T09:30:28Z</time>
      </trkpt>
      <trkpt lat="46.18699" lon="4.43401">
        <ele>603.093</ele>
        <time>2020-11-29T09:30:48Z</time>
      </trkpt>
      <trkpt lat="46.18654" lon="4.43372">
        <ele>597.064</ele>
        <time>2020-11-29T09:31:08Z</time>
      </trkpt>
      <trkpt lat="46.18604" lon="4.43313">
        <ele>588.969</ele>
        <time>2020-11-29T09:31:28Z</time>
      </trkpt>
      <trkpt lat="46.18559" lon="4.43279">
        <ele>581.618</ele>
        <time>2020-11-29T09:31:48Z</time>
      </trkpt>
      <trkpt lat="46.18464" lon="4.43166">
        <ele>569.431</ele>
        <time>2020-11-29T09:32:08Z</time>
      </trkpt>
      <trkpt lat="46.18416" lon="4.43156">
        <ele>571.498</ele>
        <time>2020-11-29T09:32:28Z</time>
      </trkpt>
      <trkpt lat="46.18326" lon="4.43135">
        <ele>574.742</ele>
        <time>2020-11-29T09:32:48Z</time>
      </trkpt>
      <trkpt lat="46.18264" lon="4.43154">
        <ele>577.376</ele>
        <time>2020-11-29T09:33:08Z</time>
      </trkpt>
      <trkpt lat="46.18197" lon="4.43197">
        <ele>581.19</ele>
        <time>2020-11-29T09:33:28Z</time>
      </trkpt>
      <trkpt lat="46.18162" lon="4.43181">
        <ele>579.819</ele>
        <time>2020-11-29T09:33:48Z</time>
      </trkpt>
      <trkpt lat="46.18091" lon="4.43171">
        <ele>573.708</ele>
        <time>2020-11-29T09:34:08Z</time>
      </trkpt>
      <trkpt lat="46.1805" lon="4.43146">
        <ele>572.223</ele>
        <time>2020-11-29T09:34:28Z</time>
      </trkpt>
      <trkpt lat="46.18026" lon="4.43101">
        <ele>574.578</ele>
        <time>2020-11-29T09:34:48Z</time>
      </trkpt>
      <trkpt lat="46.17918" lon="4.43142">
        <ele>577.969</ele>
        <time>2020-11-29T09:35:08Z</time>
      </trkpt>
      <trkpt lat="46.17831" lon="4.43271">
        <ele>593.944</ele>
        <time>2020-11-29T09:35:28Z</time>
      </trkpt>
      <trkpt lat="46.17708" lon="4.43333">
        <ele>607.673</ele>
        <time>2020-11-29T09:35:48Z</time>
      </trkpt>
      <trkpt lat="46.17644" lon="4.43382">
        <ele>622.016</ele>
        <time>2020-11-29T09:36:08Z</time>
      </trkpt>
      <trkpt lat="46.176" lon="4.4344">
        <ele>629.673</ele>
        <time>2020-11-29T09:36:28Z</time>
      </trkpt>
      <trkpt lat="46.17546" lon="4.43477">
        <ele>630.757</ele>
        <time>2020-11-29T09:36:48Z</time>
      </trkpt>
      <trkpt lat="46.17498" lon="4.43493">
        <ele>636.137</ele>
        <time>2020-11-29T09:37:08Z</time>
      </trkpt>
      <trkpt lat="46.17379" lon="4.43583">
        <ele>648.949</ele>
        <time>2020-11-29T09:37:28Z</time>
      </trkpt>
      <trkpt lat="46.17311" lon="4.43611">
        <ele>646.913</ele>
        <time>2020-11-29T09:37:48Z</time>
      </trkpt>
      <trkpt lat="46.17248" lon="4.43645">
        <ele>652.708</ele>
        <time>2020-11-29T09:38:08Z</time>
      </trkpt>
      <trkpt lat="46.17183" lon="4.43666">
        <ele>662.949</ele>
        <time>2020-11-29T09:38:28Z</time>
      </trkpt>
      <trkpt lat="46.1709" lon="4.43763">
        <ele>675.654</ele>
        <time>2020-11-29T09:38:48Z</time>
      </trkpt>
      <trkpt lat="46.1702" lon="4.43818">
        <ele>686.245</ele>
        <time>2020-11-29T09:39:08Z</time>
      </trkpt>
      <trkpt lat="46.16999" lon="4.43858">
        <ele>692.18</ele>
        <time>2020-11-29T09:39:28Z</time>
      </trkpt>
      <trkpt lat="46.16962" lon="4.43959">
        <ele>699.289</ele>
        <time>2020-11-29T09:39:48Z</time>
      </trkpt>
      <trkpt lat="46.16915" lon="4.44031">
        <ele>707.262</ele>
        <time>2020-11-29T09:40:08Z</time>
      </trkpt>
      <trkpt lat="46.16889" lon="4.44054">
        <ele>710.069</ele>
        <time>2020-11-29T09:40:28Z</time>
      </trkpt>
      <trkpt lat="46.16858" lon="4.44074">
        <ele>712.593</ele>
        <time>2020-11-29T09:40:48Z</time>
      </trkpt>
      <trkpt lat="46.16848" lon="4.44098">
        <ele>712.796</ele>
        <time>2020-11-29T09:41:08Z</time>
      </trkpt>
      <trkpt lat="46.16828" lon="4.44084">
        <ele>714.231</ele>
        <time>2020-11-29T09:41:28Z</time>
      </trkpt>
      <trkpt lat="46.16777" lon="4.44126">
        <ele>714.424</ele>
        <time>2020-11-29T09:41:48Z</time>
      </trkpt>
      <trkpt lat="46.16754" lon="4.44103">
        <ele>714.408</ele>
        <time>2017-04-01T16:08:10Z</time>
      </trkpt>
      <trkpt lat="46.16727" lon="4.44071">
        <ele>712.625</ele>
        <time>2017-04-01T16:08:30Z</time>
      </trkpt>
      <trkpt lat="46.16739" lon="4.43959">
        <ele>714.07</ele>
        <time>2017-04-01T16:08:50Z</time>
      </trkpt>
      <trkpt lat="46.16763" lon="4.43864">
        <ele>718.911</ele>
        <time>2017-04-01T16:09:10Z</time>
      </trkpt>
      <trkpt lat="46.16707" lon="4.43826">
        <ele>730.776</ele>
        <time>2017-04-01T16:09:30Z</time>
      </trkpt>
      <trkpt lat="46.16617" lon="4.4378">
        <ele>736.875</ele>
        <time>2017-04-01T16:09:50Z</time>
      </trkpt>
      <trkpt lat="46.16588" lon="4.43777">
        <ele>737.298</ele>
        <time>2017-04-01T16:10:10Z</time>
      </trkpt>
      <trkpt lat="46.16479" lon="4.43721">
        <ele>749.565</ele>
        <time>2017-04-01T16:10:30Z</time>
      </trkpt>
      <trkpt lat="46.1641" lon="4.43679">
        <ele>752.629</ele>
        <time>2017-04-01T16:10:50Z</time>
      </trkpt>
      <trkpt lat="46.16291" lon="4.43632">
        <ele>754.014</ele>
        <time>2017-04-01T16:11:10Z</time>
      </trkpt>
      <trkpt lat="46.1619" lon="4.4357">
        <ele>757.754</ele>
        <time>2017-04-01T16:11:30Z</time>
      </trkpt>
      <trkpt lat="46.16136" lon="4.43547">
        <ele>757.409</ele>
        <time>2017-04-01T16:11:50Z</time>
      </trkpt>
      <trkpt lat="46.1605" lon="4.435">
        <ele>758.408</ele>
        <time>2017-04-01T16:12:10Z</time>
      </trkpt>
      <trkpt lat="46.15964" lon="4.43465">
        <ele>749.627</ele>
        <time>2017-04-01T16:12:30Z</time>
      </trkpt>
      <trkpt lat="46.15915" lon="4.43433">
        <ele>742.112</ele>
        <time>2017-04-01T16:12:50Z</time>
      </trkpt>
      <trkpt lat="46.15866" lon="4.43388">
        <ele>734.893</ele>
        <time>2017-04-01T16:13:10Z</time>
      </trkpt>
      <trkpt lat="46.15773" lon="4.43324">
        <ele>726.378</ele>
        <time>2017-04-01T16:13:30Z</time>
      </trkpt>
      <trkpt lat="46.15725" lon="4.4332">
        <ele>722.247</ele>
        <time>2017-04-01T16:13:50Z</time>
      </trkpt>
      <trkpt lat="46.15673" lon="4.43269">
        <ele>718.12</ele>
        <time>2017-04-01T16:14:10Z</time>
      </trkpt>
      <trkpt lat="46.15618" lon="4.43205">
        <ele>711.587</ele>
        <time>2017-04-01T16:14:30Z</time>
      </trkpt>
      <trkpt lat="46.15581" lon="4.43174">
        <ele>707.241</ele>
        <time>2017-04-01T16:14:50Z</time>
      </trkpt>
      <trkpt lat="46.15522" lon="4.431">
        <ele>702.531</ele>
        <time>2017-04-01T16:15:10Z</time>
      </trkpt>
      <trkpt lat="46.15492" lon="4.43049">
        <ele>701.961</ele>
        <time>2017-04-01T16:15:30Z</time>
      </trkpt>
      <trkpt lat="46.15411" lon="4.42973">
        <ele>702.707</ele>
        <time>2017-04-01T16:15:50Z</time>
      </trkpt>
      <trkpt lat="46.1533" lon="4.42892">
        <ele>702.508</ele>
        <time>2017-04-01T16:16:10Z</time>
      </trkpt>
      <trkpt lat="46.15297" lon="4.42869">
        <ele>700.869</ele>
        <time>2017-04-01T16:16:30Z</time>
      </trkpt>
      <trkpt lat="46.15271" lon="4.42831">
        <ele>701.964</ele>
        <time>2017-04-01T16:16:50Z</time>
      </trkpt>
      <trkpt lat="46.15151" lon="4.42721">
        <ele>709.185</ele>
        <time>2017-04-01T16:17:10Z</time>
      </trkpt>
      <trkpt lat="46.15054" lon="4.42687">
        <ele>704.87</ele>
        <time>2017-04-01T16:17:30Z</time>
      </trkpt>
      <trkpt lat="46.14998" lon="4.42628">
        <ele>710.339</ele>
        <time>2017-04-01T16:17:50Z</time>
      </trkpt>
      <trkpt lat="46.14889" lon="4.42481">
        <ele>716.352</ele>
        <time>2017-04-01T16:18:10Z</time>
      </trkpt>
      <trkpt lat="46.14845" lon="4.42519">
        <ele>720.479</ele>
        <time>2017-04-01T16:18:30Z</time>
      </trkpt>
      <trkpt lat="46.14792" lon="4.42552">
        <ele>726.773</ele>
        <time>2017-04-01T16:18:50Z</time>
      </trkpt>
      <trkpt lat="46.14725" lon="4.42556">
        <ele>742.434</ele>
        <time>2017-04-01T16:19:10Z</time>
      </trkpt>
      <trkpt lat="46.14676" lon="4.42594">
        <ele>750.355</ele>
        <time>2017-04-01T16:19:30Z</time>
      </trkpt>
      <trkpt lat="46.14624" lon="4.42614">
        <ele>760.81</ele>
        <time>2017-04-01T16:19:50Z</time>
      </trkpt>
      <trkpt lat="46.14568" lon="4.42594">
        <ele>775.208</ele>
        <time>2017-04-01T16:20:10Z</time>
      </trkpt>
      <trkpt lat="46.14501" lon="4.42578">
        <ele>776.069</ele>
        <time>2017-04-01T16:20:30Z</time>
      </trkpt>
      <trkpt lat="46.14462" lon="4.42547">
        <ele>776.924</ele>
        <time>2017-04-01T16:20:50Z</time>
      </trkpt>
      <trkpt lat="46.14401" lon="4.42479">
        <ele>779.235</ele>
        <time>2017-04-01T16:21:10Z</time>
      </trkpt>
      <trkpt lat="46.14344" lon="4.42435">
        <ele>778.72</ele>
        <time>2017-04-01T16:21:30Z</time>
      </trkpt>
      <trkpt lat="46.14292" lon="4.42353">
        <ele>767.679</ele>
        <time>2017-04-01T16:21:50Z</time>
      </trkpt>
      <trkpt lat="46.14264" lon="4.42296">
        <ele>762.542</ele>
        <time>2017-04-01T16:22:10Z</time>
      </trkpt>
      <trkpt lat="46.14265" lon="4.4225">
        <ele>761.299</ele>
        <time>2017-04-01T16:22:30Z</time>
      </trkpt>
      <trkpt lat="46.14276" lon="4.42212">
        <ele>757.243</ele>
        <time>2017-04-01T16:22:50Z</time>
      </trkpt>
      <trkpt lat="46.14236" lon="4.42178">
        <ele>764.077</ele>
        <time>2017-04-01T16:23:10Z</time>
      </trkpt>
      <trkpt lat="46.14199" lon="4.42121">
        <ele>763.761</ele>
        <time>2017-04-01T16:23:30Z</time>
      </trkpt>
      <trkpt lat="46.14167" lon="4.42044">
        <ele>763.127</ele>
        <time>2017-04-01T16:23:50Z</time>
      </trkpt>
      <trkpt lat="46.14133" lon="4.42024">
        <ele>768.508</ele>
        <time>2017-04-01T16:24:10Z</time>
      </trkpt>
      <trkpt lat="46.14076" lon="4.4192">
        <ele>775.423</ele>
        <time>2017-04-01T16:24:30Z</time>
      </trkpt>
      <trkpt lat="46.14037" lon="4.41861">
        <ele>787.458</ele>
        <time>2017-04-01T16:24:50Z</time>
      </trkpt>
      <trkpt lat="46.14016" lon="4.41808">
        <ele>793.769</ele>
        <time>2017-04-01T16:25:10Z</time>
      </trkpt>
      <trkpt lat="46.13974" lon="4.41774">
        <ele>797.734</ele>
        <time>2017-04-01T16:25:30Z</time>
      </trkpt>
      <trkpt lat="46.13937" lon="4.41733">
        <ele>805.493</ele>
        <time>2017-04-01T16:25:50Z</time>
      </trkpt>
      <trkpt lat="46.139" lon="4.41683">
        <ele>814.316</ele>
        <time>2017-04-01T16:26:10Z</time>
      </trkpt>
      <trkpt lat="46.13872" lon="4.41669">
        <ele>824.913</ele>
        <time>2017-04-01T16:26:30Z</time>
      </trkpt>
      <trkpt lat="46.13855" lon="4.41684">
        <ele>830.177</ele>
        <time>2017-04-01T16:26:50Z</time>
      </trkpt>
      <trkpt lat="46.13815" lon="4.41746">
        <ele>834.736</ele>
        <time>2017-04-01T16:27:10Z</time>
      </trkpt>
      <trkpt lat="46.13802" lon="4.4175">
        <ele>838.117</ele>
        <time>2017-04-01T16:27:30Z</time>
      </trkpt>
      <trkpt lat="46.13772" lon="4.4173">
        <ele>848.218</ele>
        <time>2017-04-01T16:27:50Z</time>
      </trkpt>
      <trkpt lat="46.13668" lon="4.4173">
        <ele>863.608</ele>
        <time>2017-04-01T16:28:10Z</time>
      </trkpt>
      <trkpt lat="46.13633" lon="4.41724">
        <ele>866.229</ele>
        <time>2017-04-01T16:28:30Z</time>
      </trkpt>
      <trkpt lat="46.1357" lon="4.41726">
        <ele>870.484</ele>
        <time>2017-04-01T16:28:50Z</time>
      </trkpt>
      <trkpt lat="46.13528" lon="4.417">
        <ele>871.415</ele>
        <time>2017-04-01T16:29:10Z</time>
      </trkpt>
      <trkpt lat="46.13483" lon="4.41675">
        <ele>871.21</ele>
        <time>2017-04-01T16:29:30Z</time>
      </trkpt>
      <trkpt lat="46.13456" lon="4.41742">
        <ele>873.569</ele>
        <time>2017-04-01T16:29:50Z</time>
      </trkpt>
      <trkpt lat="46.13425" lon="4.41854">
        <ele>881.112</ele>
        <time>2017-04-01T16:30:10Z</time>
      </trkpt>
      <trkpt lat="46.13283" lon="4.42116">
        <ele>864.099</ele>
        <time>2017-04-01T16:30:30Z</time>
      </trkpt>
      <trkpt lat="46.13139" lon="4.42263">
        <ele>857.923</ele>
        <time>2017-04-01T16:30:50Z</time>
      </trkpt>
      <trkpt lat="46.12956" lon="4.42395">
        <ele>864.068</ele>
        <time>2017-04-01T16:31:10Z</time>
      </trkpt>
      <trkpt lat="46.12897" lon="4.42417">
        <ele>860.642</ele>
        <time>2017-04-01T16:31:30Z</time>
      </trkpt>
      <trkpt lat="46.12726" lon="4.42542">
        <ele>880.826</ele>
        <time>2017-04-01T16:31:50Z</time>
      </trkpt>
      <trkpt lat="46.12666" lon="4.42552">
        <ele>877.408</ele>
        <time>2017-04-01T16:32:10Z</time>
      </trkpt>
      <trkpt lat="46.12457" lon="4.42726">
        <ele>878.992</ele>
        <time>2017-04-01T16:32:30Z</time>
      </trkpt>
      <trkpt lat="46.12384" lon="4.42824">
        <ele>874.227</ele>
        <time>2017-04-01T16:32:50Z</time>
      </trkpt>
      <trkpt lat="46.12195" lon="4.42952">
        <ele>889.378</ele>
        <time>2017-04-01T16:33:10Z</time>
      </trkpt>
      <trkpt lat="46.12123" lon="4.4304">
        <ele>896.383</ele>
        <time>2017-04-01T16:33:30Z</time>
      </trkpt>
      <trkpt lat="46.12049" lon="4.43105">
        <ele>900.952</ele>
        <time>2017-04-01T16:33:50Z</time>
      </trkpt>
      <trkpt lat="46.11987" lon="4.43125">
        <ele>896.715</ele>
        <time>2017-04-01T16:34:10Z</time>
      </trkpt>
      <trkpt lat="46.11898" lon="4.43109">
        <ele>893.962</ele>
        <time>2017-04-01T16:34:30Z</time>
      </trkpt>
      <trkpt lat="46.11847" lon="4.4312">
        <ele>891.296</ele>
        <time>2017-04-01T16:34:50Z</time>
      </trkpt>
      <trkpt lat="46.1179" lon="4.43162">
        <ele>893.699</ele>
        <time>2017-04-01T16:35:10Z</time>
      </trkpt>
      <trkpt lat="46.11738" lon="4.43173">
        <ele>884.807</ele>
        <time>2017-04-01T16:35:30Z</time>
      </trkpt>
      <trkpt lat="46.11702" lon="4.43153">
        <ele>882.527</ele>
        <time>2017-04-01T16:35:50Z</time>
      </trkpt>
      <trkpt lat="46.11667" lon="4.43141">
        <ele>880.908</ele>
        <time>2017-04-01T16:36:10Z</time>
      </trkpt>
      <trkpt lat="46.11639" lon="4.43121">
        <ele>880.715</ele>
        <time>2017-04-01T16:36:30Z</time>
      </trkpt>
      <trkpt lat="46.11597" lon="4.43101">
        <ele>883.63</ele>
        <time>2017-04-01T16:36:50Z</time>
      </trkpt>
      <trkpt lat="46.11516" lon="4.43026">
        <ele>889.761</ele>
        <time>2017-04-01T16:37:10Z</time>
      </trkpt>
      <trkpt lat="46.11428" lon="4.43018">
        <ele>895.636</ele>
        <time>2017-04-01T16:37:30Z</time>
      </trkpt>
      <trkpt lat="46.11363" lon="4.42996">
        <ele>898.845</ele>
        <time>2017-04-01T16:37:50Z</time>
      </trkpt>
      <trkpt lat="46.11243" lon="4.43046">
        <ele>888.898</ele>
        <time>2017-04-01T16:38:10Z</time>
      </trkpt>
      <trkpt lat="46.11086" lon="4.43013">
        <ele>863.765</ele>
        <time>2017-04-01T16:38:30Z</time>
      </trkpt>
      <trkpt lat="46.10975" lon="4.4297">
        <ele>858.369</ele>
        <time>2017-04-01T16:38:50Z</time>
      </trkpt>
      <trkpt lat="46.10953" lon="4.42942">
        <ele>863.224</ele>
        <time>2017-04-01T16:39:10Z</time>
      </trkpt>
      <trkpt lat="46.10929" lon="4.42945">
        <ele>867.204</ele>
        <time>2017-04-01T16:39:30Z</time>
      </trkpt>
      <trkpt lat="46.10856" lon="4.42936">
        <ele>870.314</ele>
        <time>2017-04-01T16:39:50Z</time>
      </trkpt>
      <trkpt lat="46.10749" lon="4.42996">
        <ele>874.808</ele>
        <time>2017-04-01T16:40:10Z</time>
      </trkpt>
      <trkpt lat="46.1071" lon="4.43045">
        <ele>871.028</ele>
        <time>2017-04-01T16:40:30Z</time>
      </trkpt>
      <trkpt lat="46.10652" lon="4.43087">
        <ele>868.523</ele>
        <time>2017-04-01T16:40:50Z</time>
      </trkpt>
      <trkpt lat="46.10545" lon="4.43099">
        <ele>881.874</ele>
        <time>2017-04-01T16:41:10Z</time>
      </trkpt>
      <trkpt lat="46.105" lon="4.43099">
        <ele>882.359</ele>
        <time>2017-04-01T16:41:30Z</time>
      </trkpt>
      <trkpt lat="46.10455" lon="4.43097">
        <ele>883.268</ele>
        <time>2017-04-01T16:41:50Z</time>
      </trkpt>
      <trkpt lat="46.10405" lon="4.4312">
        <ele>885.741</ele>
        <time>2017-04-01T16:42:10Z</time>
      </trkpt>
      <trkpt lat="46.10355" lon="4.43173">
        <ele>885.418</ele>
        <time>2017-04-01T16:42:30Z</time>
      </trkpt>
      <trkpt lat="46.10321" lon="4.43191">
        <ele>885.482</ele>
        <time>2017-04-01T16:42:50Z</time>
      </trkpt>
      <trkpt lat="46.10267" lon="4.43228">
        <ele>882.263</ele>
        <time>2017-04-01T16:43:10Z</time>
      </trkpt>
      <trkpt lat="46.10239" lon="4.43226">
        <ele>880.444</ele>
        <time>2017-04-01T16:43:30Z</time>
      </trkpt>
      <trkpt lat="46.10181" lon="4.43213">
        <ele>867.618</ele>
        <time>2017-04-01T16:43:50Z</time>
      </trkpt>
      <trkpt lat="46.10155" lon="4.43295">
        <ele>857.208</ele>
        <time>2017-04-01T16:44:10Z</time>
      </trkpt>
      <trkpt lat="46.10064" lon="4.43345">
        <ele>841.222</ele>
        <time>2017-04-01T16:44:30Z</time>
      </trkpt>
      <trkpt lat="46.10002" lon="4.43401">
        <ele>840.047</ele>
        <time>2017-04-01T16:44:50Z</time>
      </trkpt>
      <trkpt lat="46.09881" lon="4.43442">
        <ele>839.028</ele>
        <time>2017-04-01T16:45:10Z</time>
      </trkpt>
      <trkpt lat="46.09779" lon="4.43512">
        <ele>818.953</ele>
        <time>2017-04-01T16:45:30Z</time>
      </trkpt>
      <trkpt lat="46.09751" lon="4.43542">
        <ele>817.552</ele>
        <time>2017-04-01T16:45:50Z</time>
      </trkpt>
      <trkpt lat="46.09677" lon="4.43586">
        <ele>817.075</ele>
        <time>2017-04-01T16:46:10Z</time>
      </trkpt>
      <trkpt lat="46.0962" lon="4.4362">
        <ele>831.972</ele>
        <time>2017-04-01T16:46:30Z</time>
      </trkpt>
      <trkpt lat="46.09547" lon="4.43626">
        <ele>843.246</ele>
        <time>2017-04-01T16:46:50Z</time>
      </trkpt>
      <trkpt lat="46.09461" lon="4.43657">
        <ele>842.711</ele>
        <time>2017-04-01T16:47:10Z</time>
      </trkpt>
      <trkpt lat="46.09423" lon="4.43701">
        <ele>835.321</ele>
        <time>2017-04-01T16:47:30Z</time>
      </trkpt>
      <trkpt lat="46.09408" lon="4.43709">
        <ele>830.603</ele>
        <time>2017-04-01T16:47:50Z</time>
      </trkpt>
      <trkpt lat="46.09387" lon="4.43746">
        <ele>825.208</ele>
        <time>2017-04-01T16:48:10Z</time>
      </trkpt>
      <trkpt lat="46.09365" lon="4.43774">
        <ele>816.597</ele>
        <time>2017-04-01T16:48:30Z</time>
      </trkpt>
      <trkpt lat="46.09201" lon="4.43935">
        <ele>796.622</ele>
        <time>2017-04-01T16:48:50Z</time>
      </trkpt>
      <trkpt lat="46.0917" lon="4.43898">
        <ele>797.893</ele>
        <time>2017-04-01T16:49:10Z</time>
      </trkpt>
      <trkpt lat="46.0912" lon="4.43949">
        <ele>797.938</ele>
        <time>2017-04-01T16:49:30Z</time>
      </trkpt>
      <trkpt lat="46.09087" lon="4.43997">
        <ele>803.797</ele>
        <time>2017-04-01T16:49:50Z</time>
      </trkpt>
      <trkpt lat="46.09045" lon="4.44034">
        <ele>801.23</ele>
        <time>2017-04-01T16:50:10Z</time>
      </trkpt>
      <trkpt lat="46.08969" lon="4.44064">
        <ele>799.177</ele>
        <time>2017-04-01T16:50:30Z</time>
      </trkpt>
      <trkpt lat="46.08905" lon="4.44121">
        <ele>799.731</ele>
        <time>2017-04-01T16:50:50Z</time>
      </trkpt>
      <trkpt lat="46.08815" lon="4.44151">
        <ele>805.662</ele>
        <time>2017-04-01T16:51:10Z</time>
      </trkpt>
      <trkpt lat="46.08664" lon="4.44253">
        <ele>822.783</ele>
        <time>2017-04-01T16:51:30Z</time>
      </trkpt>
      <trkpt lat="46.08585" lon="4.44274">
        <ele>829.811</ele>
        <time>2017-04-01T16:51:50Z</time>
      </trkpt>
      <trkpt lat="46.08541" lon="4.44268">
        <ele>837.508</ele>
        <time>2017-04-01T16:52:10Z</time>
      </trkpt>
      <trkpt lat="46.08498" lon="4.4424">
        <ele>847.132</ele>
        <time>2017-04-01T16:52:30Z</time>
      </trkpt>
      <trkpt lat="46.08457" lon="4.44196">
        <ele>859.047</ele>
        <time>2017-04-01T16:52:50Z</time>
      </trkpt>
      <trkpt lat="46.08415" lon="4.44184">
        <ele>864.648</ele>
        <time>2017-04-01T16:53:10Z</time>
      </trkpt>
      <trkpt lat="46.0836" lon="4.44185">
        <ele>865.763</ele>
        <time>2017-04-01T16:53:30Z</time>
      </trkpt>
      <trkpt lat="46.0827" lon="4.44215">
        <ele>856.872</ele>
        <time>2017-04-01T16:53:50Z</time>
      </trkpt>
      <trkpt lat="46.08179" lon="4.44218">
        <ele>841.985</ele>
        <time>2017-04-01T16:54:10Z</time>
      </trkpt>
      <trkpt lat="46.08128" lon="4.44225">
        <ele>836.562</ele>
        <time>2017-04-01T16:54:30Z</time>
      </trkpt>
      <trkpt lat="46.07974" lon="4.44325">
        <ele>844.256</ele>
        <time>2017-04-01T16:54:50Z</time>
      </trkpt>
      <trkpt lat="46.07937" lon="4.44328">
        <ele>847.373</ele>
        <time>2017-04-01T16:55:10Z</time>
      </trkpt>
      <trkpt lat="46.07805" lon="4.44305">
        <ele>853.085</ele>
        <time>2017-04-01T16:55:30Z</time>
      </trkpt>
      <trkpt lat="46.07756" lon="4.44304">
        <ele>849.713</ele>
        <time>2017-04-01T16:55:50Z</time>
      </trkpt>
      <trkpt lat="46.07718" lon="4.44291">
        <ele>848.508</ele>
        <time>2017-04-01T16:56:10Z</time>
      </trkpt>
      <trkpt lat="46.07633" lon="4.44342">
        <ele>841.753</ele>
        <time>2017-04-01T16:56:30Z</time>
      </trkpt>
      <trkpt lat="46.07473" lon="4.44397">
        <ele>835.438</ele>
        <time>2017-04-01T16:56:50Z</time>
      </trkpt>
      <trkpt lat="46.0738" lon="4.44402">
        <ele>830.269</ele>
        <time>2017-04-01T16:57:10Z</time>
      </trkpt>
      <trkpt lat="46.07333" lon="4.44421">
        <ele>836.394</ele>
        <time>2017-04-01T16:57:30Z</time>
      </trkpt>
      <trkpt lat="46.07218" lon="4.4442">
        <ele>846.463</ele>
        <time>2017-04-01T16:57:50Z</time>
      </trkpt>
      <trkpt lat="46.06964" lon="4.44441">
        <ele>876.916</ele>
        <time>2017-04-01T16:58:10Z</time>
      </trkpt>
      <trkpt lat="46.06894" lon="4.44414">
        <ele>885.673</ele>
        <time>2017-04-01T16:58:30Z</time>
      </trkpt>
      <trkpt lat="46.06786" lon="4.44443">
        <ele>891.897</ele>
        <time>2017-04-01T16:58:50Z</time>
      </trkpt>
      <trkpt lat="46.06661" lon="4.44422">
        <ele>887.382</ele>
        <time>2017-04-01T16:59:10Z</time>
      </trkpt>
      <trkpt lat="46.06613" lon="4.44457">
        <ele>888.443</ele>
        <time>2017-04-01T16:59:30Z</time>
      </trkpt>
      <trkpt lat="46.06573" lon="4.4445">
        <ele>888.617</ele>
        <time>2017-04-01T16:59:50Z</time>
      </trkpt>
      <trkpt lat="46.06441" lon="4.44372">
        <ele>881.808</ele>
        <time>2017-04-01T17:00:10Z</time>
      </trkpt>
      <trkpt lat="46.06366" lon="4.44294">
        <ele>871.854</ele>
        <time>2017-04-01T17:00:30Z</time>
      </trkpt>
      <trkpt lat="46.06328" lon="4.44271">
        <ele>865.239</ele>
        <time>2017-04-01T17:00:50Z</time>
      </trkpt>
      <trkpt lat="46.06298" lon="4.44244">
        <ele>863.61</ele>
        <time>2017-04-01T17:01:10Z</time>
      </trkpt>
      <trkpt lat="46.06247" lon="4.44213">
        <ele>867.255</ele>
        <time>2017-04-01T17:01:30Z</time>
      </trkpt>
      <trkpt lat="46.06189" lon="4.44149">
        <ele>863.094</ele>
        <time>2017-04-01T17:01:50Z</time>
      </trkpt>
      <trkpt lat="46.06119" lon="4.44119">
        <ele>850.557</ele>
        <time>2017-04-01T17:02:10Z</time>
      </trkpt>
      <trkpt lat="46.06069" lon="4.44143">
        <ele>846.934</ele>
        <time>2017-04-01T17:02:30Z</time>
      </trkpt>
      <trkpt lat="46.06001" lon="4.4412">
        <ele>845.678</ele>
        <time>2017-04-01T17:02:50Z</time>
      </trkpt>
      <trkpt lat="46.0593" lon="4.44126">
        <ele>854.042</ele>
        <time>2017-04-01T17:03:10Z</time>
      </trkpt>
      <trkpt lat="46.05855" lon="4.44116">
        <ele>863.622</ele>
        <time>2017-04-01T17:03:30Z</time>
      </trkpt>
      <trkpt lat="46.05803" lon="4.44088">
        <ele>866.114</ele>
        <time>2017-04-01T17:03:50Z</time>
      </trkpt>
      <trkpt lat="46.05726" lon="4.44108">
        <ele>869.208</ele>
        <time>2017-04-01T17:04:10Z</time>
      </trkpt>
      <trkpt lat="46.05689" lon="4.44091">
        <ele>867.57</ele>
        <time>2017-04-01T17:04:30Z</time>
      </trkpt>
      <trkpt lat="46.0566" lon="4.44059">
        <ele>861.845</ele>
        <time>2017-04-01T17:04:50Z</time>
      </trkpt>
      <trkpt lat="46.05623" lon="4.43983">
        <ele>848.196</ele>
        <time>2017-04-01T17:05:10Z</time>
      </trkpt>
      <trkpt lat="46.05557" lon="4.43903">
        <ele>832.651</ele>
        <time>2017-04-01T17:05:30Z</time>
      </trkpt>
      <trkpt lat="46.05497" lon="4.43842">
        <ele>829.96</ele>
        <time>2017-04-01T17:05:50Z</time>
      </trkpt>
      <trkpt lat="46.0541" lon="4.43728">
        <ele>838.193</ele>
        <time>2017-04-01T17:06:10Z</time>
      </trkpt>
      <trkpt lat="46.05374" lon="4.43672">
        <ele>838.51</ele>
        <time>2017-04-01T17:06:30Z</time>
      </trkpt>
      <trkpt lat="46.05272" lon="4.43606">
        <ele>843.834</ele>
        <time>2017-04-01T17:06:50Z</time>
      </trkpt>
      <trkpt lat="46.05225" lon="4.43562">
        <ele>842.686</ele>
        <time>2017-04-01T17:07:10Z</time>
      </trkpt>
      <trkpt lat="46.05166" lon="4.43541">
        <ele>832.46</ele>
        <time>2017-04-01T17:07:30Z</time>
      </trkpt>
      <trkpt lat="46.05117" lon="4.43543">
        <ele>826.226</ele>
        <time>2017-04-01T17:07:50Z</time>
      </trkpt>
      <trkpt lat="46.05041" lon="4.43531">
        <ele>813.308</ele>
        <time>2017-04-01T17:08:10Z</time>
      </trkpt>
      <trkpt lat="46.04986" lon="4.43552">
        <ele>800.374</ele>
        <time>2017-04-01T17:08:30Z</time>
      </trkpt>
      <trkpt lat="46.04946" lon="4.43538">
        <ele>790.489</ele>
        <time>2017-04-01T17:08:50Z</time>
      </trkpt>
      <trkpt lat="46.04851" lon="4.43461">
        <ele>770.16</ele>
        <time>2017-04-01T17:09:10Z</time>
      </trkpt>
      <trkpt lat="46.04811" lon="4.43453">
        <ele>762.965</ele>
        <time>2017-04-01T17:09:30Z</time>
      </trkpt>
      <trkpt lat="46.04703" lon="4.43386">
        <ele>751.054</ele>
        <time>2017-04-01T17:09:50Z</time>
      </trkpt>
      <trkpt lat="46.04675" lon="4.43375">
        <ele>748.087</ele>
        <time>2017-04-01T17:10:10Z</time>
      </trkpt>
      <trkpt lat="46.04584" lon="4.43257">
        <ele>729.324</ele>
        <time>2017-04-01T17:10:30Z</time>
      </trkpt>
      <trkpt lat="46.04505" lon="4.43319">
        <ele>729.238</ele>
        <time>2017-04-01T17:10:50Z</time>
      </trkpt>
      <trkpt lat="46.04467" lon="4.43296">
        <ele>732.649</ele>
        <time>2017-04-01T17:11:10Z</time>
      </trkpt>
      <trkpt lat="46.04434" lon="4.4329">
        <ele>735.402</ele>
        <time>2017-04-01T17:11:30Z</time>
      </trkpt>
      <trkpt lat="46.04312" lon="4.43305">
        <ele>742.322</ele>
        <time>2017-04-01T17:11:50Z</time>
      </trkpt>
      <trkpt lat="46.04237" lon="4.43371">
        <ele>733.408</ele>
        <time>2017-04-01T17:12:10Z</time>
      </trkpt>
      <trkpt lat="46.04181" lon="4.43392">
        <ele>731.22</ele>
        <time>2017-04-01T17:12:30Z</time>
      </trkpt>
      <trkpt lat="46.0401" lon="4.43437">
        <ele>728.425</ele>
        <time>2017-04-01T17:12:50Z</time>
      </trkpt>
      <trkpt lat="46.03967" lon="4.43433">
        <ele>729.336</ele>
        <time>2017-04-01T17:13:10Z</time>
      </trkpt>
      <trkpt lat="46.03907" lon="4.43417">
        <ele>733.641</ele>
        <time>2017-04-01T17:13:30Z</time>
      </trkpt>
      <trkpt lat="46.03768" lon="4.43409">
        <ele>735.86</ele>
        <time>2017-04-01T17:13:50Z</time>
      </trkpt>
      <trkpt lat="46.03719" lon="4.43389">
        <ele>729.893</ele>
        <time>2017-04-01T17:14:10Z</time>
      </trkpt>
      <trkpt lat="46.03675" lon="4.43327">
        <ele>729.74</ele>
        <time>2017-04-01T17:14:30Z</time>
      </trkpt>
      <trkpt lat="46.03624" lon="4.43266">
        <ele>721.014</ele>
        <time>2017-04-01T17:14:50Z</time>
      </trkpt>
      <trkpt lat="46.03554" lon="4.43188">
        <ele>710.934</ele>
        <time>2017-04-01T17:15:10Z</time>
      </trkpt>
      <trkpt lat="46.03558" lon="4.4317">
        <ele>711.455</ele>
        <time>2017-04-01T17:15:30Z</time>
      </trkpt>
      <trkpt lat="46.03542" lon="4.43124">
        <ele>712.31</ele>
        <time>2017-04-01T17:15:50Z</time>
      </trkpt>
      <trkpt lat="46.03521" lon="4.43084">
        <ele>715.208</ele>
        <time>2017-04-01T17:16:10Z</time>
      </trkpt>
      <trkpt lat="46.0349" lon="4.42996">
        <ele>713.149</ele>
        <time>2017-04-01T17:16:30Z</time>
      </trkpt>
      <trkpt lat="46.03453" lon="4.42856">
        <ele>701.344</ele>
        <time>2017-04-01T17:16:50Z</time>
      </trkpt>
      <trkpt lat="46.03456" lon="4.42742">
        <ele>701.835</ele>
        <time>2017-04-01T17:17:10Z</time>
      </trkpt>
      <trkpt lat="46.03437" lon="4.42661">
        <ele>699.74</ele>
        <time>2017-04-01T17:17:30Z</time>
      </trkpt>
      <trkpt lat="46.03432" lon="4.42614">
        <ele>698.299</ele>
        <time>2017-04-01T17:17:50Z</time>
      </trkpt>
      <trkpt lat="46.03424" lon="4.42589">
        <ele>696.262</ele>
        <time>2017-04-01T17:18:10Z</time>
      </trkpt>
      <trkpt lat="46.03412" lon="4.42508">
        <ele>690.179</ele>
        <time>2017-04-01T17:18:30Z</time>
      </trkpt>
      <trkpt lat="46.03406" lon="4.42423">
        <ele>691.663</ele>
        <time>2017-04-01T17:18:50Z</time>
      </trkpt>
      <trkpt lat="46.03404" lon="4.42187">
        <ele>680.286</ele>
        <time>2017-04-01T17:19:10Z</time>
      </trkpt>
      <trkpt lat="46.03396" lon="4.42128">
        <ele>674.56</ele>
        <time>2017-04-01T17:19:30Z</time>
      </trkpt>
      <trkpt lat="46.03355" lon="4.42107">
        <ele>686.326</ele>
        <time>2017-04-01T17:19:50Z</time>
      </trkpt>
      <trkpt lat="46.03257" lon="4.42038">
        <ele>696.908</ele>
        <time>2017-04-01T17:20:10Z</time>
      </trkpt>
      <trkpt lat="46.03194" lon="4.42003">
        <ele>704.964</ele>
        <time>2017-04-01T17:20:30Z</time>
      </trkpt>
      <trkpt lat="46.03134" lon="4.41964">
        <ele>702.829</ele>
        <time>2017-04-01T17:20:50Z</time>
      </trkpt>
      <trkpt lat="46.03066" lon="4.41939">
        <ele>709.18</ele>
        <time>2017-04-01T17:21:10Z</time>
      </trkpt>
      <trkpt lat="46.03016" lon="4.41936">
        <ele>711.425</ele>
        <time>2017-04-01T17:21:30Z</time>
      </trkpt>
      <trkpt lat="46.0298" lon="4.41969">
        <ele>716.924</ele>
        <time>2017-04-01T17:21:50Z</time>
      </trkpt>
      <trkpt lat="46.02931" lon="4.42037">
        <ele>720.987</ele>
        <time>2017-04-01T17:22:10Z</time>
      </trkpt>
      <trkpt lat="46.02837" lon="4.42103">
        <ele>713.774</ele>
        <time>2017-04-01T17:22:30Z</time>
      </trkpt>
      <trkpt lat="46.02786" lon="4.42156">
        <ele>719.358</ele>
        <time>2017-04-01T17:22:50Z</time>
      </trkpt>
      <trkpt lat="46.02786" lon="4.42156">
        <ele>719.367</ele>
        <time>2017-04-01T17:23:10Z</time>
      </trkpt>
      <trkpt lat="46.02741" lon="4.42235">
        <ele>720.681</ele>
        <time>2017-04-01T17:23:30Z</time>
      </trkpt>
      <trkpt lat="46.02713" lon="4.42293">
        <ele>720.519</ele>
        <time>2017-04-01T17:23:50Z</time>
      </trkpt>
      <trkpt lat="46.02641" lon="4.42229">
        <ele>718.608</ele>
        <time>2017-04-01T17:24:10Z</time>
      </trkpt>
      <trkpt lat="46.02565" lon="4.42128">
        <ele>719.342</ele>
        <time>2017-04-01T17:24:30Z</time>
      </trkpt>
      <trkpt lat="46.02465" lon="4.42044">
        <ele>731.537</ele>
        <time>2017-04-01T17:24:50Z</time>
      </trkpt>
      <trkpt lat="46.02434" lon="4.41982">
        <ele>725.748</ele>
        <time>2017-04-01T17:25:10Z</time>
      </trkpt>
      <trkpt lat="46.02355" lon="4.41888">
        <ele>732.363</ele>
        <time>2017-04-01T17:25:30Z</time>
      </trkpt>
      <trkpt lat="46.0231" lon="4.41855">
        <ele>726.762</ele>
        <time>2017-04-01T17:25:50Z</time>
      </trkpt>
      <trkpt lat="46.02273" lon="4.41849">
        <ele>724.065</ele>
        <time>2017-04-01T17:26:10Z</time>
      </trkpt>
      <trkpt lat="46.02216" lon="4.41802">
        <ele>719.052</ele>
        <time>2017-04-01T17:26:30Z</time>
      </trkpt>
      <trkpt lat="46.02136" lon="4.41793">
        <ele>722.796</ele>
        <time>2017-04-01T17:26:50Z</time>
      </trkpt>
      <trkpt lat="46.02054" lon="4.41825">
        <ele>727.521</ele>
        <time>2017-04-01T17:27:10Z</time>
      </trkpt>
      <trkpt lat="46.01993" lon="4.41883">
        <ele>737.941</ele>
        <time>2017-04-01T17:27:30Z</time>
      </trkpt>
      <trkpt lat="46.01924" lon="4.41973">
        <ele>749.005</ele>
        <time>2017-04-01T17:27:50Z</time>
      </trkpt>
      <trkpt lat="46.01875" lon="4.42074">
        <ele>746.708</ele>
        <time>2017-04-01T17:28:10Z</time>
      </trkpt>
      <trkpt lat="46.01872" lon="4.42156">
        <ele>749.858</ele>
        <time>2017-04-01T17:28:30Z</time>
      </trkpt>
      <trkpt lat="46.01898" lon="4.4236">
        <ele>752.813</ele>
        <time>2017-04-01T17:28:50Z</time>
      </trkpt>
      <trkpt lat="46.01887" lon="4.42488">
        <ele>755.664</ele>
        <time>2017-04-01T17:29:10Z</time>
      </trkpt>
      <trkpt lat="46.01857" lon="4.42574">
        <ele>753.059</ele>
        <time>2017-04-01T17:29:30Z</time>
      </trkpt>
      <trkpt lat="46.01857" lon="4.42574">
        <ele>753.088</ele>
        <time>2017-04-01T17:29:50Z</time>
      </trkpt>
      <trkpt lat="46.01813" lon="4.42637">
        <ele>763.051</ele>
        <time>2017-04-01T17:30:10Z</time>
      </trkpt>
      <trkpt lat="46.01784" lon="4.42693">
        <ele>772.798</ele>
        <time>2017-04-01T17:30:30Z</time>
      </trkpt>
      <trkpt lat="46.01779" lon="4.42715">
        <ele>773.782</ele>
        <time>2017-04-01T17:30:50Z</time>
      </trkpt>
      <trkpt lat="46.01775" lon="4.42751">
        <ele>773.876</ele>
        <time>2017-04-01T17:31:10Z</time>
      </trkpt>
      <trkpt lat="46.01775" lon="4.42751">
        <ele>773.89</ele>
        <time>2017-04-01T17:31:30Z</time>
      </trkpt>
      <trkpt lat="46.0177" lon="4.4279">
        <ele>771.519</ele>
        <time>2017-04-01T17:31:50Z</time>
      </trkpt>
      <trkpt lat="46.01716" lon="4.42892">
        <ele>760.508</ele>
        <time>2017-04-01T17:32:10Z</time>
      </trkpt>
      <trkpt lat="46.01668" lon="4.42955">
        <ele>756.293</ele>
        <time>2017-04-01T17:32:30Z</time>
      </trkpt>
      <trkpt lat="46.01607" lon="4.43017">
        <ele>746.638</ele>
        <time>2017-04-01T17:32:50Z</time>
      </trkpt>
      <trkpt lat="46.01555" lon="4.43048">
        <ele>748.959</ele>
        <time>2017-04-01T17:33:10Z</time>
      </trkpt>
      <trkpt lat="46.01532" lon="4.43083">
        <ele>747.044</ele>
        <time>2017-04-01T17:33:30Z</time>
      </trkpt>
      <trkpt lat="46.01522" lon="4.43121">
        <ele>743.583</ele>
        <time>2017-04-01T17:33:50Z</time>
      </trkpt>
      <trkpt lat="46.01518" lon="4.43171">
        <ele>741.066</ele>
        <time>2017-04-01T17:34:10Z</time>
      </trkpt>
      <trkpt lat="46.01498" lon="4.43227">
        <ele>738.333</ele>
        <time>2017-04-01T17:34:30Z</time>
      </trkpt>
      <trkpt lat="46.01463" lon="4.4334">
        <ele>721.557</ele>
        <time>2017-04-01T17:34:50Z</time>
      </trkpt>
      <trkpt lat="46.01425" lon="4.43223">
        <ele>727.089</ele>
        <time>2017-04-01T17:35:10Z</time>
      </trkpt>
      <trkpt lat="46.014" lon="4.43182">
        <ele>725.406</ele>
        <time>2017-04-01T17:35:30Z</time>
      </trkpt>
      <trkpt lat="46.01319" lon="4.43023">
        <ele>731.826</ele>
        <time>2017-04-01T17:35:50Z</time>
      </trkpt>
      <trkpt lat="46.01283" lon="4.42934">
        <ele>736.308</ele>
        <time>2017-04-01T17:36:10Z</time>
      </trkpt>
      <trkpt lat="46.01208" lon="4.42805">
        <ele>741.174</ele>
        <time>2017-04-01T17:36:30Z</time>
      </trkpt>
      <trkpt lat="46.01196" lon="4.42794">
        <ele>741.249</ele>
        <time>2017-04-01T17:36:50Z</time>
      </trkpt>
      <trkpt lat="46.01186" lon="4.4278">
        <ele>742.55</ele>
        <time>2017-04-01T17:37:10Z</time>
      </trkpt>
      <trkpt lat="46.01162" lon="4.42765">
        <ele>740.515</ele>
        <time>2017-04-01T17:37:30Z</time>
      </trkpt>
      <trkpt lat="46.01134" lon="4.42721">
        <ele>744.214</ele>
        <time>2017-04-01T17:37:50Z</time>
      </trkpt>
      <trkpt lat="46.0112" lon="4.42651">
        <ele>758.997</ele>
        <time>2017-04-01T17:38:10Z</time>
      </trkpt>
      <trkpt lat="46.01099" lon="4.4258">
        <ele>769.214</ele>
        <time>2017-04-01T17:38:30Z</time>
      </trkpt>
      <trkpt lat="46.0107" lon="4.42417">
        <ele>778.638</ele>
        <time>2017-04-01T17:38:50Z</time>
      </trkpt>
      <trkpt lat="46.01054" lon="4.4239">
        <ele>777.776</ele>
        <time>2017-04-01T17:39:10Z</time>
      </trkpt>
      <trkpt lat="46.01019" lon="4.42358">
        <ele>772.39</ele>
        <time>2017-04-01T17:39:30Z</time>
      </trkpt>
      <trkpt lat="46.00972" lon="4.423">
        <ele>771.019</ele>
        <time>2017-04-01T17:39:50Z</time>
      </trkpt>
      <trkpt lat="46.00954" lon="4.42271">
        <ele>768.808</ele>
        <time>2017-04-01T17:40:10Z</time>
      </trkpt>
      <trkpt lat="46.00872" lon="4.42215">
        <ele>760.683</ele>
        <time>2017-04-01T17:40:30Z</time>
      </trkpt>
      <trkpt lat="46.00835" lon="4.42188">
        <ele>761.728</ele>
        <time>2020-11-29T11:14:48Z</time>
      </trkpt>
      <trkpt lat="46.00811" lon="4.422">
        <ele>763.369</ele>
        <time>2020-11-29T11:15:08Z</time>
      </trkpt>
      <trkpt lat="46.00744" lon="4.42191">
        <ele>768.924</ele>
        <time>2020-11-29T11:15:28Z</time>
      </trkpt>
      <trkpt lat="46.00602" lon="4.42256">
        <ele>772.053</ele>
        <time>2020-11-29T11:15:48Z</time>
      </trkpt>
      <trkpt lat="46.00488" lon="4.42282">
        <ele>762.776</ele>
        <time>2020-11-29T11:16:08Z</time>
      </trkpt>
      <trkpt lat="46.00409" lon="4.42339">
        <ele>756.523</ele>
        <time>2020-11-29T11:16:28Z</time>
      </trkpt>
      <trkpt lat="46.00373" lon="4.4234">
        <ele>753.387</ele>
        <time>2020-11-29T11:16:48Z</time>
      </trkpt>
      <trkpt lat="46.00349" lon="4.42303">
        <ele>755.873</ele>
        <time>2020-11-29T11:17:08Z</time>
      </trkpt>
      <trkpt lat="46.003" lon="4.42061">
        <ele>792.185</ele>
        <time>2020-11-29T11:17:28Z</time>
      </trkpt>
      <trkpt lat="46.00274" lon="4.4203">
        <ele>796.113</ele>
        <time>2020-11-29T11:17:48Z</time>
      </trkpt>
      <trkpt lat="46.00164" lon="4.4201">
        <ele>788.208</ele>
        <time>2020-11-29T11:18:08Z</time>
      </trkpt>
      <trkpt lat="46.00132" lon="4.4203">
        <ele>779.963</ele>
        <time>2020-11-29T11:18:28Z</time>
      </trkpt>
      <trkpt lat="46.00088" lon="4.4203">
        <ele>791.348</ele>
        <time>2020-11-29T11:18:48Z</time>
      </trkpt>
      <trkpt lat="46.00014" lon="4.41959">
        <ele>791.569</ele>
        <time>2020-11-29T11:19:08Z</time>
      </trkpt>
      <trkpt lat="45.9994" lon="4.41922">
        <ele>787.424</ele>
        <time>2020-11-29T11:19:28Z</time>
      </trkpt>
      <trkpt lat="45.99845" lon="4.41901">
        <ele>777.693</ele>
        <time>2017-04-01T17:47:30Z</time>
      </trkpt>
      <trkpt lat="45.99811" lon="4.41912">
        <ele>777.176</ele>
        <time>2017-04-01T17:47:50Z</time>
      </trkpt>
      <trkpt lat="45.99714" lon="4.41868">
        <ele>785.273</ele>
        <time>2017-04-01T17:48:10Z</time>
      </trkpt>
      <trkpt lat="45.99643" lon="4.4189">
        <ele>794.487</ele>
        <time>2017-04-01T17:48:30Z</time>
      </trkpt>
      <trkpt lat="45.99542" lon="4.41874">
        <ele>793.965</ele>
        <time>2017-04-01T17:48:50Z</time>
      </trkpt>
      <trkpt lat="45.99478" lon="4.41816">
        <ele>792.568</ele>
        <time>2017-04-01T17:49:10Z</time>
      </trkpt>
      <trkpt lat="45.99457" lon="4.41809">
        <ele>794.414</ele>
        <time>2017-04-01T17:49:30Z</time>
      </trkpt>
      <trkpt lat="45.99415" lon="4.41822">
        <ele>798.708</ele>
        <time>2017-04-01T17:49:50Z</time>
      </trkpt>
      <trkpt lat="45.99344" lon="4.41757">
        <ele>811.282</ele>
        <time>2017-04-01T17:50:10Z</time>
      </trkpt>
      <trkpt lat="45.99279" lon="4.41688">
        <ele>816.167</ele>
        <time>2017-04-01T17:50:30Z</time>
      </trkpt>
      <trkpt lat="45.99231" lon="4.4165">
        <ele>821.568</ele>
        <time>2017-04-01T17:50:50Z</time>
      </trkpt>
      <trkpt lat="45.99154" lon="4.41578">
        <ele>828.573</ele>
        <time>2017-04-01T17:51:10Z</time>
      </trkpt>
      <trkpt lat="45.99017" lon="4.41431">
        <ele>852.112</ele>
        <time>2017-04-01T17:51:30Z</time>
      </trkpt>
      <trkpt lat="45.98994" lon="4.41388">
        <ele>856.845</ele>
        <time>2017-04-01T17:51:50Z</time>
      </trkpt>
      <trkpt lat="45.98983" lon="4.4138">
        <ele>857.922</ele>
        <time>2017-04-01T17:52:10Z</time>
      </trkpt>
      <trkpt lat="45.98948" lon="4.41366">
        <ele>861.696</ele>
        <time>2017-04-01T17:52:30Z</time>
      </trkpt>
      <trkpt lat="45.98914" lon="4.41246">
        <ele>868.948</ele>
        <time>2017-04-01T17:52:50Z</time>
      </trkpt>
      <trkpt lat="45.98878" lon="4.41146">
        <ele>867.661</ele>
        <time>2017-04-01T17:53:10Z</time>
      </trkpt>
      <trkpt lat="45.98835" lon="4.41074">
        <ele>870.017</ele>
        <time>2017-04-01T17:53:30Z</time>
      </trkpt>
      <trkpt lat="45.98779" lon="4.41005">
        <ele>872.708</ele>
        <time>2017-04-01T17:53:50Z</time>
      </trkpt>
      <trkpt lat="45.98763" lon="4.40972">
        <ele>873.12</ele>
        <time>2017-04-01T17:54:10Z</time>
      </trkpt>
      <trkpt lat="45.98746" lon="4.40948">
        <ele>874.155</ele>
        <time>2017-04-01T17:54:30Z</time>
      </trkpt>
      <trkpt lat="45.98718" lon="4.40901">
        <ele>877.056</ele>
        <time>2017-04-01T17:54:50Z</time>
      </trkpt>
      <trkpt lat="45.98704" lon="4.40866">
        <ele>878.921</ele>
        <time>2017-04-01T17:55:10Z</time>
      </trkpt>
      <trkpt lat="45.98668" lon="4.40803">
        <ele>878.96</ele>
        <time>2017-04-01T17:55:30Z</time>
      </trkpt>
      <trkpt lat="45.98653" lon="4.40744">
        <ele>877.343</ele>
        <time>2017-04-01T17:55:50Z</time>
      </trkpt>
      <trkpt lat="45.98628" lon="4.4071">
        <ele>875.47</ele>
        <time>2020-11-29T11:28:28Z</time>
      </trkpt>
      <trkpt lat="45.98448" lon="4.40879">
        <ele>849.714</ele>
        <time>2020-11-29T11:28:48Z</time>
      </trkpt>
      <trkpt lat="45.9841" lon="4.40826">
        <ele>845.015</ele>
        <time>2020-11-29T11:29:08Z</time>
      </trkpt>
      <trkpt lat="45.98353" lon="4.4071">
        <ele>819.765</ele>
        <time>2020-11-29T11:29:28Z</time>
      </trkpt>
      <trkpt lat="45.98278" lon="4.40588">
        <ele>802.311</ele>
        <time>2020-11-29T11:29:48Z</time>
      </trkpt>
      <trkpt lat="45.98271" lon="4.40514">
        <ele>799.008</ele>
        <time>2017-04-01T17:58:50Z</time>
      </trkpt>
      <trkpt lat="45.98217" lon="4.40363">
        <ele>783.757</ele>
        <time>2017-04-01T17:59:10Z</time>
      </trkpt>
      <trkpt lat="45.98185" lon="4.40292">
        <ele>775.592</ele>
        <time>2017-04-01T17:59:30Z</time>
      </trkpt>
      <trkpt lat="45.98134" lon="4.40219">
        <ele>762.043</ele>
        <time>2017-04-01T17:59:50Z</time>
      </trkpt>
      <trkpt lat="45.98108" lon="4.40151">
        <ele>753.578</ele>
        <time>2017-04-01T18:00:10Z</time>
      </trkpt>
      <trkpt lat="45.9809" lon="4.40049">
        <ele>740.527</ele>
        <time>2017-04-01T18:00:30Z</time>
      </trkpt>
      <trkpt lat="45.98008" lon="4.40146">
        <ele>729.05</ele>
        <time>2017-04-01T18:00:50Z</time>
      </trkpt>
      <trkpt lat="45.97995" lon="4.40176">
        <ele>733.717</ele>
        <time>2017-04-01T18:01:10Z</time>
      </trkpt>
      <trkpt lat="45.97979" lon="4.4018">
        <ele>735.361</ele>
        <time>2017-04-01T18:01:30Z</time>
      </trkpt>
      <trkpt lat="45.97945" lon="4.40151">
        <ele>739.619</ele>
        <time>2017-04-01T18:01:50Z</time>
      </trkpt>
      <trkpt lat="45.97906" lon="4.40069">
        <ele>739.309</ele>
        <time>2017-04-01T18:02:10Z</time>
      </trkpt>
      <trkpt lat="45.97856" lon="4.40031">
        <ele>737.319</ele>
        <time>2017-04-01T18:02:30Z</time>
      </trkpt>
      <trkpt lat="45.97823" lon="4.40022">
        <ele>737.508</ele>
        <time>2017-04-01T18:02:50Z</time>
      </trkpt>
      <trkpt lat="45.9776" lon="4.39997">
        <ele>741.697</ele>
        <time>2017-04-01T18:03:10Z</time>
      </trkpt>
      <trkpt lat="45.97707" lon="4.39962">
        <ele>745.592</ele>
        <time>2017-04-01T18:03:30Z</time>
      </trkpt>
      <trkpt lat="45.97643" lon="4.39902">
        <ele>745.793</ele>
        <time>2017-04-01T18:03:50Z</time>
      </trkpt>
      <trkpt lat="45.97583" lon="4.39868">
        <ele>745.758</ele>
        <time>2017-04-01T18:04:10Z</time>
      </trkpt>
      <trkpt lat="45.9755" lon="4.39824">
        <ele>743.217</ele>
        <time>2017-04-01T18:04:30Z</time>
      </trkpt>
      <trkpt lat="45.97483" lon="4.39795">
        <ele>733.82</ele>
        <time>2017-04-01T18:04:50Z</time>
      </trkpt>
      <trkpt lat="45.97456" lon="4.39759">
        <ele>731.757</ele>
        <time>2017-04-01T18:05:10Z</time>
      </trkpt>
      <trkpt lat="45.97288" lon="4.39636">
        <ele>730.691</ele>
        <time>2017-04-01T18:05:30Z</time>
      </trkpt>
      <trkpt lat="45.97275" lon="4.39623">
        <ele>729.962</ele>
        <time>2017-04-01T18:05:50Z</time>
      </trkpt>
      <trkpt lat="45.97232" lon="4.39606">
        <ele>728.583</ele>
        <time>2017-04-01T18:06:10Z</time>
      </trkpt>
      <trkpt lat="45.97177" lon="4.39625">
        <ele>737.111</ele>
        <time>2017-04-01T18:06:30Z</time>
      </trkpt>
      <trkpt lat="45.97137" lon="4.3963">
        <ele>741.408</ele>
        <time>2017-04-01T18:06:50Z</time>
      </trkpt>
      <trkpt lat="45.97099" lon="4.39617">
        <ele>745.652</ele>
        <time>2017-04-01T18:07:10Z</time>
      </trkpt>
      <trkpt lat="45.97048" lon="4.39581">
        <ele>749.957</ele>
        <time>2017-04-01T18:07:30Z</time>
      </trkpt>
      <trkpt lat="45.96989" lon="4.39547">
        <ele>755.278</ele>
        <time>2017-04-01T18:07:50Z</time>
      </trkpt>
      <trkpt lat="45.96959" lon="4.39509">
        <ele>759.653</ele>
        <time>2017-04-01T18:08:10Z</time>
      </trkpt>
      <trkpt lat="45.96892" lon="4.39491">
        <ele>760.412</ele>
        <time>2017-04-01T18:08:30Z</time>
      </trkpt>
      <trkpt lat="45.96848" lon="4.39463">
        <ele>768.985</ele>
        <time>2017-04-01T18:08:50Z</time>
      </trkpt>
      <trkpt lat="45.96759" lon="4.3936">
        <ele>778.942</ele>
        <time>2017-04-01T18:09:10Z</time>
      </trkpt>
      <trkpt lat="45.96707" lon="4.39243">
        <ele>774.056</ele>
        <time>2017-04-01T18:09:30Z</time>
      </trkpt>
      <trkpt lat="45.96666" lon="4.39108">
        <ele>765.735</ele>
        <time>2017-04-01T18:09:50Z</time>
      </trkpt>
      <trkpt lat="45.96661" lon="4.39076">
        <ele>763.186</ele>
        <time>2017-04-01T18:10:10Z</time>
      </trkpt>
      <trkpt lat="45.9664" lon="4.39033">
        <ele>760.214</ele>
        <time>2017-04-01T18:10:30Z</time>
      </trkpt>
      <trkpt lat="45.9661" lon="4.38944">
        <ele>761.008</ele>
        <time>2017-04-01T18:10:50Z</time>
      </trkpt>
      <trkpt lat="45.96574" lon="4.38879">
        <ele>766.019</ele>
        <time>2017-04-01T18:11:10Z</time>
      </trkpt>
      <trkpt lat="45.96536" lon="4.38804">
        <ele>764.574</ele>
        <time>2017-04-01T18:11:30Z</time>
      </trkpt>
      <trkpt lat="45.96518" lon="4.38782">
        <ele>763.485</ele>
        <time>2017-04-01T18:11:50Z</time>
      </trkpt>
      <trkpt lat="45.96453" lon="4.38742">
        <ele>770.88</ele>
        <time>2017-04-01T18:12:10Z</time>
      </trkpt>
      <trkpt lat="45.96409" lon="4.38738">
        <ele>773.429</ele>
        <time>2017-04-01T18:12:30Z</time>
      </trkpt>
      <trkpt lat="45.96319" lon="4.3875">
        <ele>774.962</ele>
        <time>2017-04-01T18:12:50Z</time>
      </trkpt>
      <trkpt lat="45.96259" lon="4.38726">
        <ele>772.259</ele>
        <time>2017-04-01T18:13:10Z</time>
      </trkpt>
      <trkpt lat="45.96208" lon="4.3869">
        <ele>770.643</ele>
        <time>2017-04-01T18:13:30Z</time>
      </trkpt>
      <trkpt lat="45.96141" lon="4.38674">
        <ele>769.035</ele>
        <time>2017-04-01T18:13:50Z</time>
      </trkpt>
      <trkpt lat="45.96048" lon="4.38622">
        <ele>772.486</ele>
        <time>2017-04-01T18:14:10Z</time>
      </trkpt>
      <trkpt lat="45.95923" lon="4.38638">
        <ele>769.614</ele>
        <time>2017-04-01T18:14:30Z</time>
      </trkpt>
      <trkpt lat="45.95808" lon="4.38725">
        <ele>767.908</ele>
        <time>2020-11-29T11:46:08Z</time>
      </trkpt>
      <trkpt lat="45.95768" lon="4.38776">
        <ele>767.099</ele>
        <time>2020-11-29T11:46:28Z</time>
      </trkpt>
      <trkpt lat="45.95751" lon="4.38647">
        <ele>767.084</ele>
        <time>2020-11-29T11:46:48Z</time>
      </trkpt>
      <trkpt lat="45.95685" lon="4.38593">
        <ele>760.195</ele>
        <time>2020-11-29T11:47:08Z</time>
      </trkpt>
      <trkpt lat="45.95642" lon="4.38596">
        <ele>755.85</ele>
        <time>2020-11-29T11:47:28Z</time>
      </trkpt>
      <trkpt lat="45.95544" lon="4.38613">
        <ele>737.599</ele>
        <time>2020-11-29T11:47:48Z</time>
      </trkpt>
      <trkpt lat="45.95513" lon="4.38591">
        <ele>733.952</ele>
        <time>2020-11-29T11:48:08Z</time>
      </trkpt>
      <trkpt lat="45.95466" lon="4.38475">
        <ele>721.539</ele>
        <time>2020-11-29T11:48:28Z</time>
      </trkpt>
      <trkpt lat="45.95351" lon="4.38423">
        <ele>710.173</ele>
        <time>2020-11-29T11:48:48Z</time>
      </trkpt>
      <trkpt lat="45.9543" lon="4.38363">
        <ele>694.484</ele>
        <time>2020-11-29T11:49:08Z</time>
      </trkpt>
      <trkpt lat="45.95474" lon="4.38352">
        <ele>688.707</ele>
        <time>2020-11-29T11:49:28Z</time>
      </trkpt>
      <trkpt lat="45.95446" lon="4.38314">
        <ele>683.017</ele>
        <time>2020-11-29T11:49:48Z</time>
      </trkpt>
      <trkpt lat="45.95356" lon="4.38309">
        <ele>676.308</ele>
        <time>2020-11-29T11:50:08Z</time>
      </trkpt>
      <trkpt lat="45.9523" lon="4.38337">
        <ele>679.834</ele>
        <time>2020-11-29T11:50:28Z</time>
      </trkpt>
      <trkpt lat="45.95125" lon="4.38397">
        <ele>679.629</ele>
        <time>2020-11-29T11:50:48Z</time>
      </trkpt>
      <trkpt lat="45.95081" lon="4.38456">
        <ele>687.11</ele>
        <time>2020-11-29T11:51:08Z</time>
      </trkpt>
      <trkpt lat="45.95061" lon="4.38497">
        <ele>689.595</ele>
        <time>2020-11-29T11:51:28Z</time>
      </trkpt>
      <trkpt lat="45.95057" lon="4.38441">
        <ele>684.834</ele>
        <time>2020-11-29T11:51:48Z</time>
      </trkpt>
      <trkpt lat="45.95088" lon="4.3827">
        <ele>673.427</ele>
        <time>2020-11-29T11:52:08Z</time>
      </trkpt>
      <trkpt lat="45.95108" lon="4.38169">
        <ele>670.094</ele>
        <time>2020-11-29T11:52:28Z</time>
      </trkpt>
      <trkpt lat="45.95108" lon="4.38122">
        <ele>671.018</ele>
        <time>2020-11-29T11:52:48Z</time>
      </trkpt>
      <trkpt lat="45.95097" lon="4.38085">
        <ele>674.898</ele>
        <time>2020-11-29T11:53:08Z</time>
      </trkpt>
      <trkpt lat="45.95113" lon="4.38057">
        <ele>675.115</ele>
        <time>2020-11-29T11:53:28Z</time>
      </trkpt>
      <trkpt lat="45.95144" lon="4.38029">
        <ele>665.126</ele>
        <time>2020-11-29T11:53:48Z</time>
      </trkpt>
      <trkpt lat="45.95172" lon="4.37933">
        <ele>654.608</ele>
        <time>2020-11-29T11:54:08Z</time>
      </trkpt>
      <trkpt lat="45.95157" lon="4.37887">
        <ele>654.735</ele>
        <time>2020-11-29T11:54:28Z</time>
      </trkpt>
      <trkpt lat="45.95136" lon="4.37851">
        <ele>663.65</ele>
        <time>2020-11-29T11:54:48Z</time>
      </trkpt>
      <trkpt lat="45.95186" lon="4.3778">
        <ele>659.911</ele>
        <time>2020-11-29T11:55:08Z</time>
      </trkpt>
      <trkpt lat="45.95179" lon="4.37763">
        <ele>663.126</ele>
        <time>2020-11-29T11:55:28Z</time>
      </trkpt>
      <trkpt lat="45.95149" lon="4.37763">
        <ele>669.665</ele>
        <time>2020-11-29T11:55:48Z</time>
      </trkpt>
      <trkpt lat="45.951" lon="4.37708">
        <ele>678.148</ele>
        <time>2020-11-29T11:56:08Z</time>
      </trkpt>
      <trkpt lat="45.95062" lon="4.37647">
        <ele>684.035</ele>
        <time>2020-11-29T11:56:28Z</time>
      </trkpt>
      <trkpt lat="45.95" lon="4.37618">
        <ele>692.959</ele>
        <time>2020-11-29T11:56:48Z</time>
      </trkpt>
      <trkpt lat="45.94948" lon="4.37647">
        <ele>705.572</ele>
        <time>2020-11-29T11:57:08Z</time>
      </trkpt>
      <trkpt lat="45.94943" lon="4.37677">
        <ele>711.913</ele>
        <time>2020-11-29T11:57:28Z</time>
      </trkpt>
      <trkpt lat="45.94944" lon="4.37721">
        <ele>717.914</ele>
        <time>2020-11-29T11:57:48Z</time>
      </trkpt>
      <trkpt lat="45.94938" lon="4.37747">
        <ele>721.808</ele>
        <time>2020-11-29T11:58:08Z</time>
      </trkpt>
      <trkpt lat="45.94899" lon="4.37701">
        <ele>714.883</ele>
        <time>2020-11-29T11:58:28Z</time>
      </trkpt>
      <trkpt lat="45.94881" lon="4.37729">
        <ele>715.128</ele>
        <time>2020-11-29T11:58:48Z</time>
      </trkpt>
      <trkpt lat="45.9487" lon="4.37769">
        <ele>718.369</ele>
        <time>2020-11-29T11:59:08Z</time>
      </trkpt>
      <trkpt lat="45.94824" lon="4.37822">
        <ele>720.594</ele>
        <time>2020-11-29T11:59:28Z</time>
      </trkpt>
      <trkpt lat="45.94735" lon="4.37847">
        <ele>705.773</ele>
        <time>2020-11-29T11:59:48Z</time>
      </trkpt>
      <trkpt lat="45.94708" lon="4.37901">
        <ele>711.736</ele>
        <time>2020-11-29T12:00:08Z</time>
      </trkpt>
      <trkpt lat="45.94697" lon="4.3795">
        <ele>718.083</ele>
        <time>2020-11-29T12:00:28Z</time>
      </trkpt>
      <trkpt lat="45.94662" lon="4.37969">
        <ele>714.537</ele>
        <time>2020-11-29T12:00:48Z</time>
      </trkpt>
      <trkpt lat="45.94596" lon="4.37948">
        <ele>702.461</ele>
        <time>2020-11-29T12:01:08Z</time>
      </trkpt>
      <trkpt lat="45.94553" lon="4.37978">
        <ele>705.321</ele>
        <time>2020-11-29T12:01:28Z</time>
      </trkpt>
      <trkpt lat="45.94527" lon="4.38053">
        <ele>709.413</ele>
        <time>2020-11-29T12:01:48Z</time>
      </trkpt>
      <trkpt lat="45.94509" lon="4.38148">
        <ele>711.208</ele>
        <time>2020-11-29T12:02:08Z</time>
      </trkpt>
      <trkpt lat="45.94529" lon="4.3821">
        <ele>721.492</ele>
        <time>2020-11-29T12:02:28Z</time>
      </trkpt>
      <trkpt lat="45.94525" lon="4.38243">
        <ele>721.227</ele>
        <time>2020-11-29T12:02:48Z</time>
      </trkpt>
      <trkpt lat="45.94483" lon="4.38279">
        <ele>715.168</ele>
        <time>2020-11-29T12:03:08Z</time>
      </trkpt>
      <trkpt lat="45.94471" lon="4.38329">
        <ele>721.053</ele>
        <time>2020-11-29T12:03:28Z</time>
      </trkpt>
      <trkpt lat="45.94457" lon="4.38457">
        <ele>728.822</ele>
        <time>2020-11-29T12:03:48Z</time>
      </trkpt>
      <trkpt lat="45.94441" lon="4.38528">
        <ele>734.795</ele>
        <time>2020-11-29T12:04:08Z</time>
      </trkpt>
      <trkpt lat="45.9441" lon="4.3852">
        <ele>731.422</ele>
        <time>2020-11-29T12:04:28Z</time>
      </trkpt>
      <trkpt lat="45.9437" lon="4.38479">
        <ele>733.346</ele>
        <time>2020-11-29T12:04:48Z</time>
      </trkpt>
      <trkpt lat="45.94341" lon="4.38472">
        <ele>733.222</ele>
        <time>2020-11-29T12:05:08Z</time>
      </trkpt>
      <trkpt lat="45.94306" lon="4.385">
        <ele>733.162</ele>
        <time>2020-11-29T12:05:28Z</time>
      </trkpt>
      <trkpt lat="45.94266" lon="4.38551">
        <ele>746.508</ele>
        <time>2020-11-29T12:05:48Z</time>
      </trkpt>
      <trkpt lat="45.94242" lon="4.38558">
        <ele>749.808</ele>
        <time>2020-11-29T12:06:08Z</time>
      </trkpt>
      <trkpt lat="45.94204" lon="4.38549">
        <ele>745.248</ele>
        <time>2020-11-29T12:06:28Z</time>
      </trkpt>
      <trkpt lat="45.94157" lon="4.38578">
        <ele>755.383</ele>
        <time>2020-11-29T12:06:48Z</time>
      </trkpt>
      <trkpt lat="45.94129" lon="4.38594">
        <ele>761.934</ele>
        <time>2020-11-29T12:07:08Z</time>
      </trkpt>
      <trkpt lat="45.94112" lon="4.38596">
        <ele>760.759</ele>
        <time>2020-11-29T12:07:28Z</time>
      </trkpt>
      <trkpt lat="45.9408" lon="4.38612">
        <ele>769.938</ele>
        <time>2020-11-29T12:07:48Z</time>
      </trkpt>
      <trkpt lat="45.94063" lon="4.38605">
        <ele>774.311</ele>
        <time>2020-11-29T12:08:08Z</time>
      </trkpt>
      <trkpt lat="45.94039" lon="4.38532">
        <ele>771.628</ele>
        <time>2020-11-29T12:08:28Z</time>
      </trkpt>
      <trkpt lat="45.94018" lon="4.38398">
        <ele>761.352</ele>
        <time>2020-11-29T12:08:48Z</time>
      </trkpt>
      <trkpt lat="45.94006" lon="4.38395">
        <ele>763.891</ele>
        <time>2020-11-29T12:09:08Z</time>
      </trkpt>
      <trkpt lat="45.93948" lon="4.38388">
        <ele>766.881</ele>
        <time>2020-11-29T12:09:28Z</time>
      </trkpt>
      <trkpt lat="45.93916" lon="4.384">
        <ele>767.419</ele>
        <time>2020-11-29T12:09:48Z</time>
      </trkpt>
      <trkpt lat="45.9384" lon="4.38446">
        <ele>773.608</ele>
        <time>2020-11-29T12:10:08Z</time>
      </trkpt>
      <trkpt lat="45.93818" lon="4.3844">
        <ele>773.815</ele>
        <time>2020-11-29T12:10:28Z</time>
      </trkpt>
      <trkpt lat="45.9378" lon="4.38384">
        <ele>772.99</ele>
        <time>2020-11-29T12:10:48Z</time>
      </trkpt>
      <trkpt lat="45.93737" lon="4.38351">
        <ele>779.421</ele>
        <time>2020-11-29T12:11:08Z</time>
      </trkpt>
      <trkpt lat="45.93661" lon="4.38313">
        <ele>787.556</ele>
        <time>2020-11-29T12:11:28Z</time>
      </trkpt>
      <trkpt lat="45.93563" lon="4.38236">
        <ele>804.435</ele>
        <time>2020-11-29T12:11:48Z</time>
      </trkpt>
      <trkpt lat="45.93534" lon="4.38196">
        <ele>809.828</ele>
        <time>2020-11-29T12:12:08Z</time>
      </trkpt>
      <trkpt lat="45.93469" lon="4.38215">
        <ele>815.335</ele>
        <time>2020-11-29T12:12:28Z</time>
      </trkpt>
      <trkpt lat="45.93392" lon="4.38223">
        <ele>812.249</ele>
        <time>2020-11-29T12:12:48Z</time>
      </trkpt>
      <trkpt lat="45.93306" lon="4.38153">
        <ele>810.534</ele>
        <time>2020-11-29T12:13:08Z</time>
      </trkpt>
      <trkpt lat="45.93281" lon="4.38136">
        <ele>809.455</ele>
        <time>2017-04-01T18:26:30Z</time>
      </trkpt>
      <trkpt lat="45.93195" lon="4.38124">
        <ele>807.61</ele>
        <time>2017-04-01T18:26:50Z</time>
      </trkpt>
      <trkpt lat="45.93103" lon="4.38065">
        <ele>788.108</ele>
        <time>2017-04-01T18:27:10Z</time>
      </trkpt>
      <trkpt lat="45.93044" lon="4.3805">
        <ele>780.039</ele>
        <time>2017-04-01T18:27:30Z</time>
      </trkpt>
      <trkpt lat="45.92935" lon="4.3797">
        <ele>762.094</ele>
        <time>2017-04-01T18:27:50Z</time>
      </trkpt>
      <trkpt lat="45.92831" lon="4.37855">
        <ele>733.815</ele>
        <time>2017-04-01T18:28:10Z</time>
      </trkpt>
      <trkpt lat="45.92753" lon="4.37843">
        <ele>727.69</ele>
        <time>2017-04-01T18:28:30Z</time>
      </trkpt>
      <trkpt lat="45.92728" lon="4.37854">
        <ele>723.889</ele>
        <time>2017-04-01T18:28:50Z</time>
      </trkpt>
      <trkpt lat="45.92686" lon="4.37833">
        <ele>721.712</ele>
        <time>2017-04-01T18:29:10Z</time>
      </trkpt>
      <trkpt lat="45.92655" lon="4.37748">
        <ele>721.459</ele>
        <time>2017-04-01T18:29:30Z</time>
      </trkpt>
      <trkpt lat="45.92616" lon="4.37724">
        <ele>723.653</ele>
        <time>2017-04-01T18:29:50Z</time>
      </trkpt>
      <trkpt lat="45.92554" lon="4.37706">
        <ele>730.038</ele>
        <time>2020-03-11T02:34:59Z</time>
      </trkpt>
      <trkpt lat="45.92516" lon="4.37658">
        <ele>730.67</ele>
        <time>2017-04-01T10:43:08Z</time>
      </trkpt>
      <trkpt lat="45.92516" lon="4.37658">
        <ele>730.617</ele>
        <time>2017-04-01T10:43:08Z</time>
      </trkpt>
      <trkpt lat="45.92492" lon="4.37679">
        <ele>730.008</ele>
        <time>2017-04-01T10:43:28Z</time>
      </trkpt>
      <trkpt lat="45.92428" lon="4.37697">
        <ele>728.759</ele>
        <time>2017-04-01T10:43:48Z</time>
      </trkpt>
      <trkpt lat="45.92421" lon="4.37728">
        <ele>726.954</ele>
        <time>2017-04-01T10:44:08Z</time>
      </trkpt>
      <trkpt lat="45.92289" lon="4.37729">
        <ele>720.785</ele>
        <time>2017-04-01T10:44:28Z</time>
      </trkpt>
      <trkpt lat="45.92224" lon="4.37745">
        <ele>722.58</ele>
        <time>2017-04-01T10:44:48Z</time>
      </trkpt>
      <trkpt lat="45.92144" lon="4.37746">
        <ele>723.769</ele>
        <time>2017-04-01T10:45:08Z</time>
      </trkpt>
      <trkpt lat="45.92073" lon="4.37811">
        <ele>726.582</ele>
        <time>2017-04-01T10:45:28Z</time>
      </trkpt>
      <trkpt lat="45.92047" lon="4.3781">
        <ele>726.679</ele>
        <time>2017-04-01T10:45:48Z</time>
      </trkpt>
      <trkpt lat="45.9198" lon="4.37829">
        <ele>731.443</ele>
        <time>2017-04-01T10:46:08Z</time>
      </trkpt>
      <trkpt lat="45.91912" lon="4.37778">
        <ele>734.589</ele>
        <time>2017-04-01T10:46:28Z</time>
      </trkpt>
      <trkpt lat="45.91877" lon="4.37735">
        <ele>739.206</ele>
        <time>2017-04-01T10:46:48Z</time>
      </trkpt>
      <trkpt lat="45.9173" lon="4.37608">
        <ele>757.726</ele>
        <time>2017-04-01T10:47:08Z</time>
      </trkpt>
      <trkpt lat="45.91665" lon="4.37522">
        <ele>766.008</ele>
        <time>2017-04-01T10:47:28Z</time>
      </trkpt>
      <trkpt lat="45.91624" lon="4.3749">
        <ele>769.254</ele>
        <time>2017-04-01T10:47:48Z</time>
      </trkpt>
      <trkpt lat="45.91544" lon="4.37418">
        <ele>767.639</ele>
        <time>2017-04-01T10:48:08Z</time>
      </trkpt>
      <trkpt lat="45.91461" lon="4.37373">
        <ele>764.56</ele>
        <time>2017-04-01T10:48:28Z</time>
      </trkpt>
      <trkpt lat="45.91398" lon="4.37322">
        <ele>760.845</ele>
        <time>2017-04-01T10:48:48Z</time>
      </trkpt>
      <trkpt lat="45.91352" lon="4.37291">
        <ele>763.574</ele>
        <time>2017-04-01T10:49:08Z</time>
      </trkpt>
      <trkpt lat="45.91324" lon="4.37252">
        <ele>766.617</ele>
        <time>2017-04-01T10:49:28Z</time>
      </trkpt>
      <trkpt lat="45.91268" lon="4.37144">
        <ele>772.554</ele>
        <time>2017-04-01T10:49:48Z</time>
      </trkpt>
      <trkpt lat="45.91211" lon="4.37067">
        <ele>769.878</ele>
        <time>2017-04-01T10:50:08Z</time>
      </trkpt>
      <trkpt lat="45.91176" lon="4.37085">
        <ele>771.016</ele>
        <time>2017-04-01T10:50:28Z</time>
      </trkpt>
      <trkpt lat="45.911" lon="4.37178">
        <ele>761.776</ele>
        <time>2017-04-01T10:50:48Z</time>
      </trkpt>
      <trkpt lat="45.91067" lon="4.37156">
        <ele>762.213</ele>
        <time>2017-04-01T10:51:08Z</time>
      </trkpt>
      <trkpt lat="45.91057" lon="4.37167">
        <ele>761.008</ele>
        <time>2017-04-01T10:51:28Z</time>
      </trkpt>
      <trkpt lat="45.91033" lon="4.37154">
        <ele>761.967</ele>
        <time>2017-04-01T10:51:48Z</time>
      </trkpt>
      <trkpt lat="45.91" lon="4.37186">
        <ele>758.562</ele>
        <time>2017-04-01T10:52:08Z</time>
      </trkpt>
      <trkpt lat="45.90983" lon="4.37193">
        <ele>760.413</ele>
        <time>2017-04-01T10:52:28Z</time>
      </trkpt>
      <trkpt lat="45.91026" lon="4.37086">
        <ele>770.018</ele>
        <time>2017-04-01T10:52:48Z</time>
      </trkpt>
      <trkpt lat="45.91073" lon="4.36979">
        <ele>775.227</ele>
        <time>2017-04-01T10:53:08Z</time>
      </trkpt>
      <trkpt lat="45.91155" lon="4.36775">
        <ele>775.27</ele>
        <time>2017-04-01T10:53:28Z</time>
      </trkpt>
      <trkpt lat="45.91284" lon="4.36468">
        <ele>772.147</ele>
        <time>2017-04-01T10:53:48Z</time>
      </trkpt>
      <trkpt lat="45.91307" lon="4.36421">
        <ele>771.471</ele>
        <time>2017-04-01T10:54:08Z</time>
      </trkpt>
      <trkpt lat="45.91325" lon="4.36364">
        <ele>771.789</ele>
        <time>2017-04-01T10:54:28Z</time>
      </trkpt>
      <trkpt lat="45.91349" lon="4.36317">
        <ele>770.306</ele>
        <time>2017-04-01T10:54:48Z</time>
      </trkpt>
      <trkpt lat="45.91379" lon="4.36235">
        <ele>767.026</ele>
        <time>2017-04-01T10:55:08Z</time>
      </trkpt>
      <trkpt lat="45.91457" lon="4.36047">
        <ele>758.308</ele>
        <time>2017-04-01T10:55:28Z</time>
      </trkpt>
      <trkpt lat="45.91497" lon="4.3593">
        <ele>755.034</ele>
        <time>2017-04-01T10:55:48Z</time>
      </trkpt>
      <trkpt lat="45.91562" lon="4.35786">
        <ele>766.829</ele>
        <time>2017-04-01T10:56:08Z</time>
      </trkpt>
      <trkpt lat="45.91583" lon="4.35711">
        <ele>768.21</ele>
        <time>2017-04-01T10:56:28Z</time>
      </trkpt>
      <trkpt lat="45.91591" lon="4.35636">
        <ele>769.655</ele>
        <time>2017-04-01T10:56:48Z</time>
      </trkpt>
      <trkpt lat="45.91587" lon="4.35536">
        <ele>774.694</ele>
        <time>2017-04-01T10:57:08Z</time>
      </trkpt>
      <trkpt lat="45.91588" lon="4.35417">
        <ele>778.137</ele>
        <time>2017-04-01T10:57:28Z</time>
      </trkpt>
      <trkpt lat="45.91579" lon="4.35197">
        <ele>777.014</ele>
        <time>2017-04-01T10:57:48Z</time>
      </trkpt>
      <trkpt lat="45.91586" lon="4.35136">
        <ele>772.348</ele>
        <time>2017-04-01T10:58:08Z</time>
      </trkpt>
      <trkpt lat="45.91578" lon="4.34676">
        <ele>762.419</ele>
        <time>2017-04-01T10:58:28Z</time>
      </trkpt>
      <trkpt lat="45.91581" lon="4.34614">
        <ele>759.809</ele>
        <time>2017-04-01T10:58:48Z</time>
      </trkpt>
      <trkpt lat="45.91559" lon="4.34602">
        <ele>758.219</ele>
        <time>2017-04-01T10:59:08Z</time>
      </trkpt>
      <trkpt lat="45.91553" lon="4.34558">
        <ele>757.908</ele>
        <time>2017-04-01T10:59:28Z</time>
      </trkpt>
      <trkpt lat="45.91533" lon="4.34547">
        <ele>757.567</ele>
        <time>2017-04-01T10:59:48Z</time>
      </trkpt>
      <trkpt lat="45.91546" lon="4.34483">
        <ele>759.612</ele>
        <time>2017-04-01T11:00:08Z</time>
      </trkpt>
      <trkpt lat="45.91505" lon="4.34397">
        <ele>767.213</ele>
        <time>2017-04-01T11:00:28Z</time>
      </trkpt>
      <trkpt lat="45.9143" lon="4.34167">
        <ele>801.888</ele>
        <time>2017-04-01T11:00:48Z</time>
      </trkpt>
      <trkpt lat="45.91435" lon="4.34073">
        <ele>806.967</ele>
        <time>2017-04-01T11:01:08Z</time>
      </trkpt>
      <trkpt lat="45.91426" lon="4.3403">
        <ele>812.41</ele>
        <time>2017-04-01T11:01:28Z</time>
      </trkpt>
      <trkpt lat="45.9141" lon="4.34002">
        <ele>816.367</ele>
        <time>2017-04-01T11:01:48Z</time>
      </trkpt>
      <trkpt lat="45.91378" lon="4.33973">
        <ele>818.831</ele>
        <time>2017-04-01T11:02:08Z</time>
      </trkpt>
      <trkpt lat="45.91329" lon="4.33959">
        <ele>824.343</ele>
        <time>2017-04-01T11:02:28Z</time>
      </trkpt>
      <trkpt lat="45.9122" lon="4.33949">
        <ele>841.364</ele>
        <time>2017-04-01T11:02:48Z</time>
      </trkpt>
      <trkpt lat="45.91162" lon="4.33956">
        <ele>843.71</ele>
        <time>2017-04-01T11:03:08Z</time>
      </trkpt>
      <trkpt lat="45.91135" lon="4.33939">
        <ele>842.208</ele>
        <time>2017-04-01T11:03:28Z</time>
      </trkpt>
      <trkpt lat="45.91082" lon="4.33847">
        <ele>845.86</ele>
        <time>2017-04-01T11:03:48Z</time>
      </trkpt>
      <trkpt lat="45.90965" lon="4.33744">
        <ele>860.635</ele>
        <time>2017-04-01T11:04:08Z</time>
      </trkpt>
      <trkpt lat="45.90906" lon="4.33706">
        <ele>868.816</ele>
        <time>2017-04-01T11:04:28Z</time>
      </trkpt>
      <trkpt lat="45.9088" lon="4.33669">
        <ele>874.711</ele>
        <time>2017-04-01T11:04:48Z</time>
      </trkpt>
      <trkpt lat="45.90853" lon="4.33616">
        <ele>870.75</ele>
        <time>2017-04-01T11:05:08Z</time>
      </trkpt>
      <trkpt lat="45.90833" lon="4.3356">
        <ele>868.793</ele>
        <time>2017-04-01T11:05:28Z</time>
      </trkpt>
      <trkpt lat="45.90791" lon="4.33468">
        <ele>859.94</ele>
        <time>2017-04-01T11:05:48Z</time>
      </trkpt>
      <trkpt lat="45.9078" lon="4.33426">
        <ele>858.324</ele>
        <time>2017-04-01T11:06:08Z</time>
      </trkpt>
      <trkpt lat="45.90781" lon="4.33376">
        <ele>856.755</ele>
        <time>2017-04-01T11:06:28Z</time>
      </trkpt>
      <trkpt lat="45.90763" lon="4.33273">
        <ele>845.307</ele>
        <time>2017-04-01T11:06:48Z</time>
      </trkpt>
      <trkpt lat="45.90748" lon="4.33173">
        <ele>830.717</ele>
        <time>2017-04-01T11:07:08Z</time>
      </trkpt>
      <trkpt lat="45.9075" lon="4.33124">
        <ele>832.608</ele>
        <time>2017-04-01T11:07:28Z</time>
      </trkpt>
      <trkpt lat="45.90741" lon="4.33089">
        <ele>834.821</ele>
        <time>2017-04-01T11:07:48Z</time>
      </trkpt>
      <trkpt lat="45.90718" lon="4.3305">
        <ele>833.346</ele>
        <time>2017-04-01T11:08:08Z</time>
      </trkpt>
      <trkpt lat="45.90702" lon="4.33042">
        <ele>830.697</ele>
        <time>2017-04-01T11:08:28Z</time>
      </trkpt>
      <trkpt lat="45.90687" lon="4.3301">
        <ele>828.112</ele>
        <time>2017-04-01T11:08:48Z</time>
      </trkpt>
      <trkpt lat="45.90671" lon="4.32957">
        <ele>825.241</ele>
        <time>2017-04-01T11:09:08Z</time>
      </trkpt>
      <trkpt lat="45.90778" lon="4.32732">
        <ele>845.094</ele>
        <time>2017-04-01T11:09:28Z</time>
      </trkpt>
      <trkpt lat="45.90813" lon="4.32668">
        <ele>842.961</ele>
        <time>2017-04-01T11:09:48Z</time>
      </trkpt>
      <trkpt lat="45.90921" lon="4.32556">
        <ele>845.735</ele>
        <time>2017-04-01T11:10:08Z</time>
      </trkpt>
      <trkpt lat="45.90961" lon="4.32502">
        <ele>842.518</ele>
        <time>2017-04-01T11:10:28Z</time>
      </trkpt>
      <trkpt lat="45.90928" lon="4.32493">
        <ele>844.398</ele>
        <time>2017-04-01T11:10:48Z</time>
      </trkpt>
      <trkpt lat="45.90897" lon="4.32479">
        <ele>845.217</ele>
        <time>2017-04-01T11:11:08Z</time>
      </trkpt>
      <trkpt lat="45.90832" lon="4.32485">
        <ele>843.408</ele>
        <time>2017-04-01T11:11:28Z</time>
      </trkpt>
      <trkpt lat="45.90749" lon="4.32458">
        <ele>838.497</ele>
        <time>2017-04-01T11:11:48Z</time>
      </trkpt>
      <trkpt lat="45.90698" lon="4.32451">
        <ele>834.342</ele>
        <time>2017-04-01T11:12:08Z</time>
      </trkpt>
      <trkpt lat="45.9068" lon="4.32432">
        <ele>831.633</ele>
        <time>2017-04-01T11:12:28Z</time>
      </trkpt>
      <trkpt lat="45.90661" lon="4.32384">
        <ele>829.378</ele>
        <time>2017-04-01T11:12:48Z</time>
      </trkpt>
      <trkpt lat="45.90648" lon="4.32375">
        <ele>828.137</ele>
        <time>2017-04-01T11:13:08Z</time>
      </trkpt>
      <trkpt lat="45.90634" lon="4.32382">
        <ele>826.27</ele>
        <time>2017-04-01T11:13:28Z</time>
      </trkpt>
      <trkpt lat="45.90628" lon="4.3239">
        <ele>825.227</ele>
        <time>2017-04-01T11:13:48Z</time>
      </trkpt>
      <trkpt lat="45.90601" lon="4.32384">
        <ele>823.361</ele>
        <time>2017-04-01T11:14:08Z</time>
      </trkpt>
      <trkpt lat="45.90559" lon="4.32363">
        <ele>820.353</ele>
        <time>2017-04-01T11:14:28Z</time>
      </trkpt>
      <trkpt lat="45.90518" lon="4.32387">
        <ele>811.004</ele>
        <time>2017-04-01T11:14:48Z</time>
      </trkpt>
      <trkpt lat="45.905" lon="4.32386">
        <ele>809.014</ele>
        <time>2017-04-01T11:15:08Z</time>
      </trkpt>
      <trkpt lat="45.90388" lon="4.32342">
        <ele>808.308</ele>
        <time>2017-04-01T11:15:28Z</time>
      </trkpt>
      <trkpt lat="45.90347" lon="4.32337">
        <ele>808.691</ele>
        <time>2017-04-01T11:15:48Z</time>
      </trkpt>
      <trkpt lat="45.90331" lon="4.3234">
        <ele>808.326</ele>
        <time>2017-04-01T11:16:08Z</time>
      </trkpt>
      <trkpt lat="45.90239" lon="4.3237">
        <ele>811.397</ele>
        <time>2017-04-01T11:16:28Z</time>
      </trkpt>
      <trkpt lat="45.90185" lon="4.32369">
        <ele>808.652</ele>
        <time>2017-04-01T11:16:48Z</time>
      </trkpt>
      <trkpt lat="45.90117" lon="4.32356">
        <ele>799.461</ele>
        <time>2017-04-01T11:17:08Z</time>
      </trkpt>
      <trkpt lat="45.90013" lon="4.32417">
        <ele>787.494</ele>
        <time>2017-04-01T11:17:28Z</time>
      </trkpt>
      <trkpt lat="45.89931" lon="4.32491">
        <ele>782.491</ele>
        <time>2017-04-01T11:17:48Z</time>
      </trkpt>
      <trkpt lat="45.89753" lon="4.32622">
        <ele>776.095</ele>
        <time>2017-04-01T11:18:08Z</time>
      </trkpt>
      <trkpt lat="45.89718" lon="4.32658">
        <ele>775.913</ele>
        <time>2017-04-01T11:18:28Z</time>
      </trkpt>
      <trkpt lat="45.89688" lon="4.32674">
        <ele>773.943</ele>
        <time>2017-04-01T11:18:48Z</time>
      </trkpt>
      <trkpt lat="45.89662" lon="4.32737">
        <ele>778.507</ele>
        <time>2017-04-01T11:19:08Z</time>
      </trkpt>
      <trkpt lat="45.89613" lon="4.3283">
        <ele>781.908</ele>
        <time>2017-04-01T11:19:28Z</time>
      </trkpt>
      <trkpt lat="45.89535" lon="4.32936">
        <ele>784.567</ele>
        <time>2017-04-01T11:19:48Z</time>
      </trkpt>
      <trkpt lat="45.89436" lon="4.33045">
        <ele>796.622</ele>
        <time>2017-04-01T11:20:08Z</time>
      </trkpt>
      <trkpt lat="45.89369" lon="4.33107">
        <ele>815.483</ele>
        <time>2017-04-01T11:20:28Z</time>
      </trkpt>
      <trkpt lat="45.89336" lon="4.33168">
        <ele>823.028</ele>
        <time>2017-04-01T11:20:48Z</time>
      </trkpt>
      <trkpt lat="45.89303" lon="4.33243">
        <ele>837.267</ele>
        <time>2017-04-01T11:21:08Z</time>
      </trkpt>
      <trkpt lat="45.89168" lon="4.33387">
        <ele>837.19</ele>
        <time>2017-04-01T11:21:28Z</time>
      </trkpt>
      <trkpt lat="45.89114" lon="4.3346">
        <ele>842.227</ele>
        <time>2017-04-01T11:21:48Z</time>
      </trkpt>
      <trkpt lat="45.89084" lon="4.33524">
        <ele>846.811</ele>
        <time>2017-04-01T11:22:08Z</time>
      </trkpt>
      <trkpt lat="45.8904" lon="4.33664">
        <ele>853.632</ele>
        <time>2017-04-01T11:22:28Z</time>
      </trkpt>
      <trkpt lat="45.89013" lon="4.33714">
        <ele>857.692</ele>
        <time>2017-04-01T11:22:48Z</time>
      </trkpt>
      <trkpt lat="45.88963" lon="4.33775">
        <ele>864.611</ele>
        <time>2017-04-01T11:23:08Z</time>
      </trkpt>
      <trkpt lat="45.88929" lon="4.33801">
        <ele>867.308</ele>
        <time>2017-04-01T11:23:28Z</time>
      </trkpt>
      <trkpt lat="45.88903" lon="4.33806">
        <ele>867.529</ele>
        <time>2017-04-01T11:23:48Z</time>
      </trkpt>
      <trkpt lat="45.88875" lon="4.33807">
        <ele>867.194</ele>
        <time>2017-04-01T11:24:08Z</time>
      </trkpt>
      <trkpt lat="45.88866" lon="4.33814">
        <ele>867.665</ele>
        <time>2017-04-01T11:24:28Z</time>
      </trkpt>
      <trkpt lat="45.88804" lon="4.33823">
        <ele>868.12</ele>
        <time>2017-04-01T11:24:48Z</time>
      </trkpt>
      <trkpt lat="45.88599" lon="4.33868">
        <ele>880.239</ele>
        <time>2017-04-01T11:25:08Z</time>
      </trkpt>
      <trkpt lat="45.88564" lon="4.33872">
        <ele>883.622</ele>
        <time>2017-04-01T11:25:28Z</time>
      </trkpt>
      <trkpt lat="45.88501" lon="4.339">
        <ele>888.179</ele>
        <time>2017-04-01T11:25:48Z</time>
      </trkpt>
      <trkpt lat="45.88474" lon="4.33923">
        <ele>893.333</ele>
        <time>2017-04-01T11:26:08Z</time>
      </trkpt>
      <trkpt lat="45.88436" lon="4.33943">
        <ele>897.943</ele>
        <time>2017-04-01T11:26:28Z</time>
      </trkpt>
      <trkpt lat="45.88298" lon="4.3397">
        <ele>889.664</ele>
        <time>2017-04-01T11:26:48Z</time>
      </trkpt>
      <trkpt lat="45.8814" lon="4.33988">
        <ele>878.61</ele>
        <time>2017-04-01T11:27:08Z</time>
      </trkpt>
      <trkpt lat="45.88017" lon="4.34022">
        <ele>873.008</ele>
        <time>2017-04-01T11:27:28Z</time>
      </trkpt>
      <trkpt lat="45.87982" lon="4.3405">
        <ele>864.72</ele>
        <time>2017-04-01T11:27:48Z</time>
      </trkpt>
      <trkpt lat="45.87912" lon="4.34149">
        <ele>843.195</ele>
        <time>2017-04-01T11:28:08Z</time>
      </trkpt>
      <trkpt lat="45.87845" lon="4.34177">
        <ele>834.346</ele>
        <time>2017-04-01T11:28:28Z</time>
      </trkpt>
      <trkpt lat="45.87763" lon="4.34226">
        <ele>838.191</ele>
        <time>2017-04-01T11:28:48Z</time>
      </trkpt>
      <trkpt lat="45.87699" lon="4.34253">
        <ele>842.66</ele>
        <time>2017-04-01T11:29:08Z</time>
      </trkpt>
      <trkpt lat="45.87688" lon="4.34283">
        <ele>840.433</ele>
        <time>2017-04-01T11:29:28Z</time>
      </trkpt>
      <trkpt lat="45.87676" lon="4.34301">
        <ele>838.56</ele>
        <time>2017-04-01T11:29:48Z</time>
      </trkpt>
      <trkpt lat="45.8763" lon="4.34414">
        <ele>835.684</ele>
        <time>2017-04-01T11:30:08Z</time>
      </trkpt>
      <trkpt lat="45.87571" lon="4.34522">
        <ele>837.051</ele>
        <time>2017-04-01T11:30:28Z</time>
      </trkpt>
      <trkpt lat="45.87503" lon="4.34723">
        <ele>846.101</ele>
        <time>2017-04-01T11:30:48Z</time>
      </trkpt>
      <trkpt lat="45.87453" lon="4.34804">
        <ele>837.711</ele>
        <time>2017-04-01T11:31:08Z</time>
      </trkpt>
      <trkpt lat="45.87432" lon="4.34822">
        <ele>834.608</ele>
        <time>2017-04-01T11:31:28Z</time>
      </trkpt>
      <trkpt lat="45.87283" lon="4.34836">
        <ele>823.381</ele>
        <time>2017-04-01T11:31:48Z</time>
      </trkpt>
      <trkpt lat="45.87245" lon="4.34846">
        <ele>817.966</ele>
        <time>2017-04-01T11:32:08Z</time>
      </trkpt>
      <trkpt lat="45.87209" lon="4.34883">
        <ele>818.227</ele>
        <time>2017-04-01T11:32:28Z</time>
      </trkpt>
      <trkpt lat="45.87188" lon="4.34923">
        <ele>820.232</ele>
        <time>2017-04-01T11:32:48Z</time>
      </trkpt>
      <trkpt lat="45.87129" lon="4.3499">
        <ele>822.611</ele>
        <time>2017-04-01T11:33:08Z</time>
      </trkpt>
      <trkpt lat="45.87091" lon="4.35027">
        <ele>829.124</ele>
        <time>2017-04-01T11:33:28Z</time>
      </trkpt>
      <trkpt lat="45.87077" lon="4.35057">
        <ele>831.081</ele>
        <time>2017-04-01T11:33:48Z</time>
      </trkpt>
      <trkpt lat="45.87048" lon="4.35154">
        <ele>836.335</ele>
        <time>2017-04-01T11:34:08Z</time>
      </trkpt>
      <trkpt lat="45.87027" lon="4.35184">
        <ele>839.225</ele>
        <time>2017-04-01T11:34:28Z</time>
      </trkpt>
      <trkpt lat="45.86995" lon="4.35287">
        <ele>845.526</ele>
        <time>2017-04-01T11:34:48Z</time>
      </trkpt>
      <trkpt lat="45.86896" lon="4.3554">
        <ele>853.508</ele>
        <time>2017-04-01T11:35:08Z</time>
      </trkpt>
      <trkpt lat="45.86832" lon="4.35639">
        <ele>855.908</ele>
        <time>2017-04-01T11:35:28Z</time>
      </trkpt>
      <trkpt lat="45.86807" lon="4.35694">
        <ele>857.038</ele>
        <time>2017-04-01T11:35:48Z</time>
      </trkpt>
      <trkpt lat="45.86793" lon="4.35743">
        <ele>858.563</ele>
        <time>2017-04-01T11:36:08Z</time>
      </trkpt>
      <trkpt lat="45.86732" lon="4.35849">
        <ele>852.844</ele>
        <time>2017-04-01T11:36:28Z</time>
      </trkpt>
      <trkpt lat="45.86687" lon="4.35942">
        <ele>854.989</ele>
        <time>2017-04-01T11:36:48Z</time>
      </trkpt>
      <trkpt lat="45.86568" lon="4.36166">
        <ele>865.058</ele>
        <time>2017-04-01T11:37:08Z</time>
      </trkpt>
      <trkpt lat="45.86534" lon="4.36213">
        <ele>866.781</ele>
        <time>2017-04-01T11:37:28Z</time>
      </trkpt>
      <trkpt lat="45.86456" lon="4.36303">
        <ele>869.488</ele>
        <time>2017-04-01T11:37:48Z</time>
      </trkpt>
      <trkpt lat="45.86424" lon="4.36328">
        <ele>868.982</ele>
        <time>2017-04-01T11:38:08Z</time>
      </trkpt>
      <trkpt lat="45.86286" lon="4.36333">
        <ele>870.428</ele>
        <time>2017-04-01T11:38:28Z</time>
      </trkpt>
      <trkpt lat="45.86243" lon="4.36323">
        <ele>872.689</ele>
        <time>2017-04-01T11:38:48Z</time>
      </trkpt>
      <trkpt lat="45.86113" lon="4.36265">
        <ele>871.017</ele>
        <time>2017-04-01T11:39:08Z</time>
      </trkpt>
      <trkpt lat="45.86017" lon="4.36242">
        <ele>873.408</ele>
        <time>2017-04-01T11:39:28Z</time>
      </trkpt>
      <trkpt lat="45.85953" lon="4.36219">
        <ele>872.168</ele>
        <time>2017-04-01T11:39:48Z</time>
      </trkpt>
      <trkpt lat="45.85781" lon="4.36177">
        <ele>873.243</ele>
        <time>2017-04-01T11:40:08Z</time>
      </trkpt>
      <trkpt lat="45.85695" lon="4.36238">
        <ele>872.934</ele>
        <time>2017-04-01T11:40:28Z</time>
      </trkpt>
      <trkpt lat="45.85614" lon="4.3633">
        <ele>868.599</ele>
        <time>2017-04-01T11:40:48Z</time>
      </trkpt>
      <trkpt lat="45.85585" lon="4.36344">
        <ele>869.228</ele>
        <time>2017-04-01T11:41:08Z</time>
      </trkpt>
      <trkpt lat="45.85512" lon="4.36354">
        <ele>865.311</ele>
        <time>2017-04-01T11:41:28Z</time>
      </trkpt>
      <trkpt lat="45.85483" lon="4.36393">
        <ele>862.028</ele>
        <time>2017-04-01T11:41:48Z</time>
      </trkpt>
      <trkpt lat="45.85441" lon="4.36571">
        <ele>879.722</ele>
        <time>2017-04-01T11:42:08Z</time>
      </trkpt>
      <trkpt lat="45.85265" lon="4.36834">
        <ele>908.585</ele>
        <time>2017-04-01T11:42:28Z</time>
      </trkpt>
      <trkpt lat="45.85212" lon="4.36919">
        <ele>915.989</ele>
        <time>2017-04-01T11:42:48Z</time>
      </trkpt>
      <trkpt lat="45.85152" lon="4.37045">
        <ele>926.817</ele>
        <time>2017-04-01T11:43:08Z</time>
      </trkpt>
      <trkpt lat="45.85103" lon="4.37243">
        <ele>926.908</ele>
        <time>2017-04-01T11:43:28Z</time>
      </trkpt>
      <trkpt lat="45.85048" lon="4.37374">
        <ele>939.244</ele>
        <time>2017-04-01T11:43:48Z</time>
      </trkpt>
      <trkpt lat="45.8497" lon="4.37509">
        <ele>963.969</ele>
        <time>2017-04-01T11:44:08Z</time>
      </trkpt>
      <trkpt lat="45.84918" lon="4.3761">
        <ele>971.99</ele>
        <time>2017-04-01T11:44:28Z</time>
      </trkpt>
      <trkpt lat="45.8503" lon="4.37712">
        <ele>977.985</ele>
        <time>2017-04-01T11:44:48Z</time>
      </trkpt>
      <trkpt lat="45.85042" lon="4.37832">
        <ele>996.334</ele>
        <time>2017-04-01T11:45:08Z</time>
      </trkpt>
      <trkpt lat="45.85056" lon="4.37886">
        <ele>999.917</ele>
        <time>2017-04-01T11:45:28Z</time>
      </trkpt>
      <trkpt lat="45.85073" lon="4.38032">
        <ele>999.774</ele>
        <time>2017-04-01T11:45:48Z</time>
      </trkpt>
      <trkpt lat="45.85047" lon="4.38027">
        <ele>1000.068</ele>
        <time>2017-04-01T11:46:08Z</time>
      </trkpt>
      <trkpt lat="45.84994" lon="4.37995">
        <ele>998.381</ele>
        <time>2017-04-01T11:46:28Z</time>
      </trkpt>
      <trkpt lat="45.84962" lon="4.37962">
        <ele>993.761</ele>
        <time>2017-04-01T11:46:48Z</time>
      </trkpt>
      <trkpt lat="45.8491" lon="4.37834">
        <ele>983.217</ele>
        <time>2017-04-01T11:47:08Z</time>
      </trkpt>
      <trkpt lat="45.84871" lon="4.37762">
        <ele>973.208</ele>
        <time>2017-04-01T11:47:28Z</time>
      </trkpt>
      <trkpt lat="45.8485" lon="4.3783">
        <ele>968.394</ele>
        <time>2017-04-01T11:47:48Z</time>
      </trkpt>
      <trkpt lat="45.84816" lon="4.37906">
        <ele>966.669</ele>
        <time>2017-04-01T11:48:08Z</time>
      </trkpt>
      <trkpt lat="45.84793" lon="4.38006">
        <ele>966.96</ele>
        <time>2017-04-01T11:48:28Z</time>
      </trkpt>
      <trkpt lat="45.84787" lon="4.38053">
        <ele>961.915</ele>
        <time>2017-04-01T11:48:48Z</time>
      </trkpt>
      <trkpt lat="45.84787" lon="4.3818">
        <ele>957.664</ele>
        <time>2017-04-01T11:49:08Z</time>
      </trkpt>
      <trkpt lat="45.84808" lon="4.38288">
        <ele>956.827</ele>
        <time>2017-04-01T11:49:28Z</time>
      </trkpt>
      <trkpt lat="45.84808" lon="4.38358">
        <ele>955.434</ele>
        <time>2017-04-01T11:49:48Z</time>
      </trkpt>
      <trkpt lat="45.84782" lon="4.3844">
        <ele>955.448</ele>
        <time>2017-04-01T11:50:08Z</time>
      </trkpt>
      <trkpt lat="45.8477" lon="4.38465">
        <ele>954.764</ele>
        <time>2017-04-01T11:50:28Z</time>
      </trkpt>
      <trkpt lat="45.84757" lon="4.38524">
        <ele>952.906</ele>
        <time>2017-04-01T11:50:48Z</time>
      </trkpt>
      <trkpt lat="45.84758" lon="4.38585">
        <ele>950.116</ele>
        <time>2017-04-01T11:51:08Z</time>
      </trkpt>
      <trkpt lat="45.84746" lon="4.38704">
        <ele>945.708</ele>
        <time>2017-04-01T11:51:28Z</time>
      </trkpt>
      <trkpt lat="45.84748" lon="4.38798">
        <ele>941.452</ele>
        <time>2017-04-01T11:51:48Z</time>
      </trkpt>
      <trkpt lat="45.84738" lon="4.3895">
        <ele>931.147</ele>
        <time>2017-04-01T11:52:08Z</time>
      </trkpt>
      <trkpt lat="45.84741" lon="4.39044">
        <ele>921.858</ele>
        <time>2017-04-01T11:52:28Z</time>
      </trkpt>
      <trkpt lat="45.84748" lon="4.39086">
        <ele>919.443</ele>
        <time>2017-04-01T11:52:48Z</time>
      </trkpt>
      <trkpt lat="45.84731" lon="4.39074">
        <ele>922.512</ele>
        <time>2017-04-01T11:53:08Z</time>
      </trkpt>
      <trkpt lat="45.8471" lon="4.39038">
        <ele>926.075</ele>
        <time>2017-04-01T11:53:28Z</time>
      </trkpt>
      <trkpt lat="45.84673" lon="4.38958">
        <ele>934.162</ele>
        <time>2017-04-01T11:53:48Z</time>
      </trkpt>
      <trkpt lat="45.84642" lon="4.38915">
        <ele>935.996</ele>
        <time>2017-04-01T11:54:08Z</time>
      </trkpt>
      <trkpt lat="45.84603" lon="4.38873">
        <ele>934.337</ele>
        <time>2017-04-01T11:54:28Z</time>
      </trkpt>
      <trkpt lat="45.84548" lon="4.38854">
        <ele>930.249</ele>
        <time>2017-04-01T11:54:48Z</time>
      </trkpt>
      <trkpt lat="45.84474" lon="4.38838">
        <ele>918.013</ele>
        <time>2017-04-01T11:55:08Z</time>
      </trkpt>
      <trkpt lat="45.84407" lon="4.38798">
        <ele>910.308</ele>
        <time>2017-04-01T11:55:28Z</time>
      </trkpt>
      <trkpt lat="45.84351" lon="4.3878">
        <ele>912.649</ele>
        <time>2017-04-01T11:55:48Z</time>
      </trkpt>
      <trkpt lat="45.84335" lon="4.38769">
        <ele>912.034</ele>
        <time>2017-04-01T11:56:08Z</time>
      </trkpt>
      <trkpt lat="45.84306" lon="4.38798">
        <ele>912.585</ele>
        <time>2017-04-01T11:56:28Z</time>
      </trkpt>
      <trkpt lat="45.84275" lon="4.38858">
        <ele>911.71</ele>
        <time>2017-04-01T11:56:48Z</time>
      </trkpt>
      <trkpt lat="45.84253" lon="4.38941">
        <ele>912.549</ele>
        <time>2017-04-01T11:57:08Z</time>
      </trkpt>
      <trkpt lat="45.84222" lon="4.39034">
        <ele>907.342</ele>
        <time>2017-04-01T11:57:28Z</time>
      </trkpt>
      <trkpt lat="45.84176" lon="4.39144">
        <ele>891.379</ele>
        <time>2017-04-01T11:57:48Z</time>
      </trkpt>
      <trkpt lat="45.84091" lon="4.39217">
        <ele>869.753</ele>
        <time>2017-04-01T11:58:08Z</time>
      </trkpt>
      <trkpt lat="45.84001" lon="4.39265">
        <ele>868.586</ele>
        <time>2017-04-01T11:58:28Z</time>
      </trkpt>
      <trkpt lat="45.8395" lon="4.39306">
        <ele>867.46</ele>
        <time>2017-04-01T11:58:48Z</time>
      </trkpt>
      <trkpt lat="45.83871" lon="4.39419">
        <ele>865.626</ele>
        <time>2017-04-01T11:59:08Z</time>
      </trkpt>
      <trkpt lat="45.83778" lon="4.39498">
        <ele>854.308</ele>
        <time>2017-04-01T11:59:28Z</time>
      </trkpt>
      <trkpt lat="45.8372" lon="4.39522">
        <ele>851.214</ele>
        <time>2017-04-01T11:59:48Z</time>
      </trkpt>
      <trkpt lat="45.83686" lon="4.39563">
        <ele>843.859</ele>
        <time>2017-04-01T12:00:08Z</time>
      </trkpt>
      <trkpt lat="45.83598" lon="4.39717">
        <ele>839.66</ele>
        <time>2017-04-01T12:00:28Z</time>
      </trkpt>
      <trkpt lat="45.83478" lon="4.39616">
        <ele>823.825</ele>
        <time>2017-04-01T12:00:48Z</time>
      </trkpt>
      <trkpt lat="45.8341" lon="4.39616">
        <ele>811.574</ele>
        <time>2017-04-01T12:01:08Z</time>
      </trkpt>
      <trkpt lat="45.83385" lon="4.39585">
        <ele>817.737</ele>
        <time>2017-04-01T12:01:28Z</time>
      </trkpt>
      <trkpt lat="45.83364" lon="4.39591">
        <ele>822.624</ele>
        <time>2017-04-01T12:01:48Z</time>
      </trkpt>
      <trkpt lat="45.83312" lon="4.39711">
        <ele>820.788</ele>
        <time>2017-04-01T12:02:08Z</time>
      </trkpt>
      <trkpt lat="45.83211" lon="4.39819">
        <ele>819.926</ele>
        <time>2017-04-01T12:02:28Z</time>
      </trkpt>
      <trkpt lat="45.83199" lon="4.39862">
        <ele>811.447</ele>
        <time>2017-04-01T12:02:48Z</time>
      </trkpt>
      <trkpt lat="45.83173" lon="4.39901">
        <ele>807.611</ele>
        <time>2017-04-01T12:03:08Z</time>
      </trkpt>
      <trkpt lat="45.83132" lon="4.39925">
        <ele>816.008</ele>
        <time>2017-04-01T12:03:28Z</time>
      </trkpt>
      <trkpt lat="45.83102" lon="4.39967">
        <ele>817.518</ele>
        <time>2017-04-01T12:03:48Z</time>
      </trkpt>
      <trkpt lat="45.83064" lon="4.40067">
        <ele>814.323</ele>
        <time>2017-04-01T12:04:08Z</time>
      </trkpt>
      <trkpt lat="45.83024" lon="4.40127">
        <ele>815.954</ele>
        <time>2017-04-01T12:04:28Z</time>
      </trkpt>
      <trkpt lat="45.82973" lon="4.40177">
        <ele>816.689</ele>
        <time>2017-04-01T12:04:48Z</time>
      </trkpt>
      <trkpt lat="45.8294" lon="4.40181">
        <ele>818.778</ele>
        <time>2017-04-01T12:05:08Z</time>
      </trkpt>
      <trkpt lat="45.82878" lon="4.40257">
        <ele>808.281</ele>
        <time>2017-04-01T12:05:28Z</time>
      </trkpt>
      <trkpt lat="45.82841" lon="4.40271">
        <ele>806.558</ele>
        <time>2017-04-01T12:05:48Z</time>
      </trkpt>
      <trkpt lat="45.82803" lon="4.40259">
        <ele>803.722</ele>
        <time>2017-04-01T12:06:08Z</time>
      </trkpt>
      <trkpt lat="45.82754" lon="4.4023">
        <ele>805.058</ele>
        <time>2017-04-01T12:06:28Z</time>
      </trkpt>
      <trkpt lat="45.82718" lon="4.40217">
        <ele>804.952</ele>
        <time>2017-04-01T12:06:48Z</time>
      </trkpt>
      <trkpt lat="45.82581" lon="4.40131">
        <ele>806.117</ele>
        <time>2017-04-01T12:07:08Z</time>
      </trkpt>
      <trkpt lat="45.82541" lon="4.40082">
        <ele>803.908</ele>
        <time>2017-04-01T12:07:28Z</time>
      </trkpt>
      <trkpt lat="45.82502" lon="4.40029">
        <ele>802.661</ele>
        <time>2017-04-01T12:07:48Z</time>
      </trkpt>
      <trkpt lat="45.82446" lon="4.39997">
        <ele>798.376</ele>
        <time>2017-04-01T12:08:08Z</time>
      </trkpt>
      <trkpt lat="45.82253" lon="4.39861">
        <ele>791.647</ele>
        <time>2017-04-01T12:08:28Z</time>
      </trkpt>
      <trkpt lat="45.82216" lon="4.39868">
        <ele>780.392</ele>
        <time>2017-04-01T12:08:48Z</time>
      </trkpt>
      <trkpt lat="45.82184" lon="4.39867">
        <ele>771.221</ele>
        <time>2017-04-01T12:09:08Z</time>
      </trkpt>
      <trkpt lat="45.82157" lon="4.39885">
        <ele>765.484</ele>
        <time>2017-04-01T12:09:28Z</time>
      </trkpt>
      <trkpt lat="45.8213" lon="4.39882">
        <ele>765.781</ele>
        <time>2017-04-01T12:09:48Z</time>
      </trkpt>
      <trkpt lat="45.82118" lon="4.39905">
        <ele>763.755</ele>
        <time>2017-04-01T12:10:08Z</time>
      </trkpt>
      <trkpt lat="45.81996" lon="4.4002">
        <ele>754.258</ele>
        <time>2017-04-01T12:10:28Z</time>
      </trkpt>
      <trkpt lat="45.81711" lon="4.40482">
        <ele>726.452</ele>
        <time>2017-04-01T12:10:48Z</time>
      </trkpt>
      <trkpt lat="45.81673" lon="4.40484">
        <ele>724.917</ele>
        <time>2017-04-01T12:11:08Z</time>
      </trkpt>
      <trkpt lat="45.81561" lon="4.40585">
        <ele>736.708</ele>
        <time>2017-04-01T12:11:28Z</time>
      </trkpt>
      <trkpt lat="45.81496" lon="4.40694">
        <ele>751.661</ele>
        <time>2017-04-01T12:11:48Z</time>
      </trkpt>
      <trkpt lat="45.81433" lon="4.40765">
        <ele>756.226</ele>
        <time>2017-04-01T12:12:08Z</time>
      </trkpt>
      <trkpt lat="45.8138" lon="4.40785">
        <ele>754.477</ele>
        <time>2017-04-01T12:12:28Z</time>
      </trkpt>
      <trkpt lat="45.81323" lon="4.40872">
        <ele>753.192</ele>
        <time>2017-04-01T12:12:48Z</time>
      </trkpt>
      <trkpt lat="45.81272" lon="4.40879">
        <ele>749.571</ele>
        <time>2017-04-01T12:13:08Z</time>
      </trkpt>
      <trkpt lat="45.81225" lon="4.40918">
        <ele>746.524</ele>
        <time>2017-04-01T12:13:28Z</time>
      </trkpt>
      <trkpt lat="45.81156" lon="4.40997">
        <ele>743.881</ele>
        <time>2017-04-01T12:13:48Z</time>
      </trkpt>
      <trkpt lat="45.8111" lon="4.41035">
        <ele>741.435</ele>
        <time>2017-04-01T12:14:08Z</time>
      </trkpt>
      <trkpt lat="45.81087" lon="4.41059">
        <ele>739.711</ele>
        <time>2017-04-01T12:14:28Z</time>
      </trkpt>
      <trkpt lat="45.81053" lon="4.41082">
        <ele>737.721</ele>
        <time>2017-04-01T12:14:48Z</time>
      </trkpt>
      <trkpt lat="45.81033" lon="4.41044">
        <ele>734.703</ele>
        <time>2017-04-01T12:15:08Z</time>
      </trkpt>
      <trkpt lat="45.80984" lon="4.41109">
        <ele>735.008</ele>
        <time>2017-04-01T12:15:28Z</time>
      </trkpt>
      <trkpt lat="45.80903" lon="4.41383">
        <ele>729.097</ele>
        <time>2017-04-01T12:15:48Z</time>
      </trkpt>
      <trkpt lat="45.80902" lon="4.41422">
        <ele>727.762</ele>
        <time>2017-04-01T12:16:08Z</time>
      </trkpt>
      <trkpt lat="45.80875" lon="4.41437">
        <ele>725.783</ele>
        <time>2017-04-01T12:16:28Z</time>
      </trkpt>
      <trkpt lat="45.80744" lon="4.41577">
        <ele>727.448</ele>
        <time>2017-04-01T12:16:48Z</time>
      </trkpt>
      <trkpt lat="45.80691" lon="4.41623">
        <ele>726.237</ele>
        <time>2017-04-01T12:17:08Z</time>
      </trkpt>
      <trkpt lat="45.80645" lon="4.41707">
        <ele>722.54</ele>
        <time>2017-04-01T12:17:28Z</time>
      </trkpt>
      <trkpt lat="45.80602" lon="4.41774">
        <ele>713.457</ele>
        <time>2017-04-01T12:17:48Z</time>
      </trkpt>
      <trkpt lat="45.80483" lon="4.419">
        <ele>700.961</ele>
        <time>2017-04-01T12:18:08Z</time>
      </trkpt>
      <trkpt lat="45.80307" lon="4.42155">
        <ele>670.664</ele>
        <time>2017-04-01T12:18:28Z</time>
      </trkpt>
      <trkpt lat="45.803" lon="4.42201">
        <ele>670.506</ele>
        <time>2017-04-01T12:18:48Z</time>
      </trkpt>
      <trkpt lat="45.80274" lon="4.42251">
        <ele>674.816</ele>
        <time>2017-04-01T12:19:08Z</time>
      </trkpt>
      <trkpt lat="45.80252" lon="4.42256">
        <ele>673.408</ele>
        <time>2017-04-01T12:19:28Z</time>
      </trkpt>
      <trkpt lat="45.80252" lon="4.42271">
        <ele>673.972</ele>
        <time>2017-04-01T12:19:48Z</time>
      </trkpt>
      <trkpt lat="45.80268" lon="4.42289">
        <ele>676.747</ele>
        <time>2017-04-01T12:20:08Z</time>
      </trkpt>
      <trkpt lat="45.80275" lon="4.42323">
        <ele>679.938</ele>
        <time>2017-04-01T12:20:28Z</time>
      </trkpt>
      <trkpt lat="45.80296" lon="4.42332">
        <ele>681.673</ele>
        <time>2017-04-01T12:20:48Z</time>
      </trkpt>
      <trkpt lat="45.80318" lon="4.42395">
        <ele>688.952</ele>
        <time>2017-04-01T12:21:08Z</time>
      </trkpt>
      <trkpt lat="45.80333" lon="4.42452">
        <ele>695.835</ele>
        <time>2017-04-01T12:21:28Z</time>
      </trkpt>
      <trkpt lat="45.80367" lon="4.4254">
        <ele>709.242</ele>
        <time>2017-04-01T12:21:48Z</time>
      </trkpt>
      <trkpt lat="45.8025" lon="4.42591">
        <ele>706.956</ele>
        <time>2017-04-01T12:22:08Z</time>
      </trkpt>
      <trkpt lat="45.80207" lon="4.42651">
        <ele>707.266</ele>
        <time>2017-04-01T12:22:28Z</time>
      </trkpt>
      <trkpt lat="45.80099" lon="4.42732">
        <ele>704.629</ele>
        <time>2017-04-01T12:22:48Z</time>
      </trkpt>
      <trkpt lat="45.7998" lon="4.42746">
        <ele>711.721</ele>
        <time>2017-04-01T12:23:08Z</time>
      </trkpt>
      <trkpt lat="45.79907" lon="4.42728">
        <ele>719.708</ele>
        <time>2017-04-01T12:23:28Z</time>
      </trkpt>
      <trkpt lat="45.79872" lon="4.42807">
        <ele>724.892</ele>
        <time>2017-04-01T12:23:48Z</time>
      </trkpt>
      <trkpt lat="45.79958" lon="4.42872">
        <ele>729.427</ele>
        <time>2017-04-01T12:24:08Z</time>
      </trkpt>
      <trkpt lat="45.79922" lon="4.42954">
        <ele>733.538</ele>
        <time>2017-04-01T12:24:28Z</time>
      </trkpt>
      <trkpt lat="45.79892" lon="4.43063">
        <ele>741.543</ele>
        <time>2017-04-01T12:24:48Z</time>
      </trkpt>
      <trkpt lat="45.79839" lon="4.4315">
        <ele>749.282</ele>
        <time>2017-04-01T12:25:08Z</time>
      </trkpt>
      <trkpt lat="45.79781" lon="4.43203">
        <ele>746.335</ele>
        <time>2017-04-01T12:25:28Z</time>
      </trkpt>
      <trkpt lat="45.79761" lon="4.43236">
        <ele>746.812</ele>
        <time>2017-04-01T12:25:48Z</time>
      </trkpt>
      <trkpt lat="45.79757" lon="4.43266">
        <ele>748.276</ele>
        <time>2017-04-01T12:26:08Z</time>
      </trkpt>
      <trkpt lat="45.79762" lon="4.43332">
        <ele>749.451</ele>
        <time>2017-04-01T12:26:28Z</time>
      </trkpt>
      <trkpt lat="45.79757" lon="4.4338">
        <ele>747.501</ele>
        <time>2017-04-01T12:26:48Z</time>
      </trkpt>
      <trkpt lat="45.7972" lon="4.43448">
        <ele>747.311</ele>
        <time>2017-04-01T12:27:08Z</time>
      </trkpt>
      <trkpt lat="45.79626" lon="4.43451">
        <ele>749.808</ele>
        <time>2017-04-01T12:27:28Z</time>
      </trkpt>
      <trkpt lat="45.79601" lon="4.43446">
        <ele>749.711</ele>
        <time>2017-04-01T12:27:48Z</time>
      </trkpt>
      <trkpt lat="45.79575" lon="4.43439">
        <ele>748.256</ele>
        <time>2017-04-01T12:28:08Z</time>
      </trkpt>
      <trkpt lat="45.79537" lon="4.43595">
        <ele>748.947</ele>
        <time>2017-04-01T12:28:28Z</time>
      </trkpt>
      <trkpt lat="45.79516" lon="4.43644">
        <ele>749.612</ele>
        <time>2017-04-01T12:28:48Z</time>
      </trkpt>
      <trkpt lat="45.7947" lon="4.43691">
        <ele>750.691</ele>
        <time>2017-04-01T12:29:08Z</time>
      </trkpt>
      <trkpt lat="45.79443" lon="4.43747">
        <ele>757.384</ele>
        <time>2017-04-01T12:29:28Z</time>
      </trkpt>
      <trkpt lat="45.79432" lon="4.43759">
        <ele>757.111</ele>
        <time>2017-04-01T12:29:48Z</time>
      </trkpt>
      <trkpt lat="45.79331" lon="4.43754">
        <ele>750.255</ele>
        <time>2017-04-01T12:30:08Z</time>
      </trkpt>
      <trkpt lat="45.79327" lon="4.43817">
        <ele>748.246</ele>
        <time>2017-04-01T12:30:28Z</time>
      </trkpt>
      <trkpt lat="45.79364" lon="4.43872">
        <ele>742.488</ele>
        <time>2017-04-01T12:30:48Z</time>
      </trkpt>
      <trkpt lat="45.79374" lon="4.43905">
        <ele>741.416</ele>
        <time>2017-04-01T12:31:08Z</time>
      </trkpt>
      <trkpt lat="45.79333" lon="4.44269">
        <ele>726.308</ele>
        <time>2017-04-01T12:31:28Z</time>
      </trkpt>
      <trkpt lat="45.79328" lon="4.44433">
        <ele>723.38</ele>
        <time>2017-04-01T12:31:48Z</time>
      </trkpt>
      <trkpt lat="45.79338" lon="4.44485">
        <ele>724.555</ele>
        <time>2017-04-01T12:32:08Z</time>
      </trkpt>
      <trkpt lat="45.79314" lon="4.44536">
        <ele>728.076</ele>
        <time>2017-04-01T12:32:28Z</time>
      </trkpt>
      <trkpt lat="45.79362" lon="4.4456">
        <ele>727.811</ele>
        <time>2017-04-01T12:32:48Z</time>
      </trkpt>
      <trkpt lat="45.79411" lon="4.44618">
        <ele>724.45</ele>
        <time>2017-04-01T12:33:08Z</time>
      </trkpt>
      <trkpt lat="45.79439" lon="4.44687">
        <ele>721.273</ele>
        <time>2017-04-01T12:33:28Z</time>
      </trkpt>
      <trkpt lat="45.79443" lon="4.4475">
        <ele>713.88</ele>
        <time>2017-04-01T12:33:48Z</time>
      </trkpt>
      <trkpt lat="45.79388" lon="4.44991">
        <ele>705.184</ele>
        <time>2017-04-01T12:34:08Z</time>
      </trkpt>
      <trkpt lat="45.79361" lon="4.45044">
        <ele>701.857</ele>
        <time>2017-04-01T12:34:28Z</time>
      </trkpt>
      <trkpt lat="45.79358" lon="4.45087">
        <ele>704.3</ele>
        <time>2017-04-01T12:34:48Z</time>
      </trkpt>
      <trkpt lat="45.79347" lon="4.45168">
        <ele>702.92</ele>
        <time>2017-04-01T12:35:08Z</time>
      </trkpt>
      <trkpt lat="45.79366" lon="4.45189">
        <ele>702.708</ele>
        <time>2017-04-01T12:35:28Z</time>
      </trkpt>
      <trkpt lat="45.79472" lon="4.45249">
        <ele>692.461</ele>
        <time>2017-04-01T12:35:48Z</time>
      </trkpt>
      <trkpt lat="45.79497" lon="4.45282">
        <ele>685.196</ele>
        <time>2017-04-01T12:36:08Z</time>
      </trkpt>
      <trkpt lat="45.79514" lon="4.45329">
        <ele>680.097</ele>
        <time>2017-04-01T12:36:28Z</time>
      </trkpt>
      <trkpt lat="45.79512" lon="4.45428">
        <ele>674.292</ele>
        <time>2017-04-01T12:36:48Z</time>
      </trkpt>
      <trkpt lat="45.79502" lon="4.45519">
        <ele>663.161</ele>
        <time>2017-04-01T12:37:08Z</time>
      </trkpt>
      <trkpt lat="45.7941" lon="4.45732">
        <ele>639.984</ele>
        <time>2017-04-01T12:37:28Z</time>
      </trkpt>
      <trkpt lat="45.79378" lon="4.45783">
        <ele>640.361</ele>
        <time>2017-04-01T12:37:48Z</time>
      </trkpt>
      <trkpt lat="45.79355" lon="4.45796">
        <ele>640.125</ele>
        <time>2017-04-01T12:38:08Z</time>
      </trkpt>
      <trkpt lat="45.79334" lon="4.45855">
        <ele>640.023</ele>
        <time>2017-04-01T12:38:28Z</time>
      </trkpt>
      <trkpt lat="45.79327" lon="4.45928">
        <ele>641.583</ele>
        <time>2017-04-01T12:38:48Z</time>
      </trkpt>
      <trkpt lat="45.79285" lon="4.46029">
        <ele>644.811</ele>
        <time>2017-04-01T12:39:08Z</time>
      </trkpt>
      <trkpt lat="45.79265" lon="4.46137">
        <ele>647.008</ele>
        <time>2017-04-01T12:39:28Z</time>
      </trkpt>
      <trkpt lat="45.79305" lon="4.46311">
        <ele>648.438</ele>
        <time>2017-04-01T12:39:48Z</time>
      </trkpt>
      <trkpt lat="45.79301" lon="4.46367">
        <ele>650.023</ele>
        <time>2017-04-01T12:40:08Z</time>
      </trkpt>
      <trkpt lat="45.79269" lon="4.46491">
        <ele>654.544</ele>
        <time>2017-04-01T12:40:28Z</time>
      </trkpt>
      <trkpt lat="45.79237" lon="4.46523">
        <ele>656.029</ele>
        <time>2017-04-01T12:40:48Z</time>
      </trkpt>
      <trkpt lat="45.79066" lon="4.46573">
        <ele>663.048</ele>
        <time>2017-04-01T12:41:08Z</time>
      </trkpt>
      <trkpt lat="45.79021" lon="4.46616">
        <ele>667.891</ele>
        <time>2017-04-01T12:41:28Z</time>
      </trkpt>
      <trkpt lat="45.78991" lon="4.4667">
        <ele>666.118</ele>
        <time>2017-04-01T12:41:48Z</time>
      </trkpt>
      <trkpt lat="45.7899" lon="4.46727">
        <ele>664.642</ele>
        <time>2017-04-01T12:42:08Z</time>
      </trkpt>
      <trkpt lat="45.79007" lon="4.46769">
        <ele>662.789</ele>
        <time>2017-04-01T12:42:28Z</time>
      </trkpt>
      <trkpt lat="45.79011" lon="4.46804">
        <ele>658.506</ele>
        <time>2017-04-01T12:42:48Z</time>
      </trkpt>
      <trkpt lat="45.78853" lon="4.47036">
        <ele>647.526</ele>
        <time>2017-04-01T12:43:08Z</time>
      </trkpt>
      <trkpt lat="45.78789" lon="4.47151">
        <ele>640.108</ele>
        <time>2017-04-01T12:43:28Z</time>
      </trkpt>
      <trkpt lat="45.7876" lon="4.47173">
        <ele>638.994</ele>
        <time>2017-04-01T12:43:48Z</time>
      </trkpt>
      <trkpt lat="45.78635" lon="4.47208">
        <ele>629.979</ele>
        <time>2017-04-01T12:44:08Z</time>
      </trkpt>
      <trkpt lat="45.78594" lon="4.47233">
        <ele>628.43</ele>
        <time>2017-04-01T12:44:28Z</time>
      </trkpt>
      <trkpt lat="45.78583" lon="4.47263">
        <ele>628.455</ele>
        <time>2017-04-01T12:44:48Z</time>
      </trkpt>
      <trkpt lat="45.78549" lon="4.4731">
        <ele>631.954</ele>
        <time>2017-04-01T12:45:08Z</time>
      </trkpt>
      <trkpt lat="45.78517" lon="4.47381">
        <ele>643.037</ele>
        <time>2017-04-01T12:45:28Z</time>
      </trkpt>
      <trkpt lat="45.78481" lon="4.47424">
        <ele>650.164</ele>
        <time>2017-04-01T12:45:48Z</time>
      </trkpt>
      <trkpt lat="45.78368" lon="4.47422">
        <ele>665.668</ele>
        <time>2017-04-01T12:46:08Z</time>
      </trkpt>
      <trkpt lat="45.78299" lon="4.47565">
        <ele>679.799</ele>
        <time>2017-04-01T12:46:28Z</time>
      </trkpt>
      <trkpt lat="45.78255" lon="4.47665">
        <ele>687.807</ele>
        <time>2017-04-01T12:46:48Z</time>
      </trkpt>
      <trkpt lat="45.78194" lon="4.47785">
        <ele>689.727</ele>
        <time>2017-04-01T12:47:08Z</time>
      </trkpt>
      <trkpt lat="45.78142" lon="4.47839">
        <ele>690.908</ele>
        <time>2017-04-01T12:47:28Z</time>
      </trkpt>
      <trkpt lat="45.7811" lon="4.4789">
        <ele>695.045</ele>
        <time>2017-04-01T12:47:48Z</time>
      </trkpt>
      <trkpt lat="45.78037" lon="4.47989">
        <ele>702.64</ele>
        <time>2017-04-01T12:48:08Z</time>
      </trkpt>
      <trkpt lat="45.78027" lon="4.48091">
        <ele>716.231</ele>
        <time>2017-04-01T12:48:28Z</time>
      </trkpt>
      <trkpt lat="45.78002" lon="4.48149">
        <ele>718.136</ele>
        <time>2017-04-01T12:48:48Z</time>
      </trkpt>
      <trkpt lat="45.77974" lon="4.48178">
        <ele>721.725</ele>
        <time>2017-04-01T12:49:08Z</time>
      </trkpt>
      <trkpt lat="45.77943" lon="4.48266">
        <ele>729.278</ele>
        <time>2017-04-01T12:49:28Z</time>
      </trkpt>
      <trkpt lat="45.77926" lon="4.48328">
        <ele>736.925</ele>
        <time>2017-04-01T12:49:48Z</time>
      </trkpt>
      <trkpt lat="45.77829" lon="4.4846">
        <ele>735.099</ele>
        <time>2017-04-01T12:50:08Z</time>
      </trkpt>
      <trkpt lat="45.7783" lon="4.48458">
        <ele>735.121</ele>
        <time>2017-04-01T12:50:28Z</time>
      </trkpt>
      <trkpt lat="45.77727" lon="4.48559">
        <ele>731.541</ele>
        <time>2017-04-01T12:50:48Z</time>
      </trkpt>
      <trkpt lat="45.77672" lon="4.48597">
        <ele>737.805</ele>
        <time>2017-04-01T12:51:08Z</time>
      </trkpt>
      <trkpt lat="45.77639" lon="4.48639">
        <ele>742.008</ele>
        <time>2017-04-01T12:51:28Z</time>
      </trkpt>
      <trkpt lat="45.77606" lon="4.48705">
        <ele>746.328</ele>
        <time>2017-04-01T12:51:48Z</time>
      </trkpt>
      <trkpt lat="45.77588" lon="4.48729">
        <ele>749.483</ele>
        <time>2017-04-01T12:52:08Z</time>
      </trkpt>
      <trkpt lat="45.7756" lon="4.48753">
        <ele>751.174</ele>
        <time>2017-04-01T12:52:28Z</time>
      </trkpt>
      <trkpt lat="45.77528" lon="4.48789">
        <ele>753.479</ele>
        <time>2017-04-01T12:52:48Z</time>
      </trkpt>
      <trkpt lat="45.77524" lon="4.48868">
        <ele>737.858</ele>
        <time>2017-04-01T12:53:08Z</time>
      </trkpt>
      <trkpt lat="45.77496" lon="4.49045">
        <ele>735.341</ele>
        <time>2017-04-01T12:53:28Z</time>
      </trkpt>
      <trkpt lat="45.775" lon="4.49095">
        <ele>733.598</ele>
        <time>2017-04-01T12:53:48Z</time>
      </trkpt>
      <trkpt lat="45.77498" lon="4.49184">
        <ele>735.172</ele>
        <time>2017-04-01T12:54:08Z</time>
      </trkpt>
      <trkpt lat="45.77493" lon="4.4939">
        <ele>740.578</ele>
        <time>2017-04-01T12:54:28Z</time>
      </trkpt>
      <trkpt lat="45.77522" lon="4.49533">
        <ele>739.133</ele>
        <time>2017-04-01T12:54:48Z</time>
      </trkpt>
      <trkpt lat="45.77527" lon="4.49549">
        <ele>738.126</ele>
        <time>2017-04-01T12:55:08Z</time>
      </trkpt>
      <trkpt lat="45.77537" lon="4.49624">
        <ele>728.208</ele>
        <time>2017-04-01T12:55:28Z</time>
      </trkpt>
      <trkpt lat="45.77546" lon="4.49671">
        <ele>715.383</ele>
        <time>2017-04-01T12:55:48Z</time>
      </trkpt>
      <trkpt lat="45.77552" lon="4.4968">
        <ele>713.288</ele>
        <time>2017-04-01T12:56:08Z</time>
      </trkpt>
      <trkpt lat="45.77558" lon="4.49718">
        <ele>710.619</ele>
        <time>2017-04-01T12:56:28Z</time>
      </trkpt>
      <trkpt lat="45.77556" lon="4.49813">
        <ele>701.724</ele>
        <time>2017-04-01T12:56:48Z</time>
      </trkpt>
      <trkpt lat="45.77551" lon="4.49856">
        <ele>698.923</ele>
        <time>2017-04-01T12:57:08Z</time>
      </trkpt>
      <trkpt lat="45.77553" lon="4.49903">
        <ele>695.916</ele>
        <time>2017-04-01T12:57:28Z</time>
      </trkpt>
      <trkpt lat="45.77549" lon="4.49937">
        <ele>692.933</ele>
        <time>2017-04-01T12:57:48Z</time>
      </trkpt>
      <trkpt lat="45.77462" lon="4.49941">
        <ele>686.347</ele>
        <time>2017-04-01T12:58:08Z</time>
      </trkpt>
      <trkpt lat="45.77372" lon="4.49885">
        <ele>681.916</ele>
        <time>2017-04-01T12:58:28Z</time>
      </trkpt>
      <trkpt lat="45.77304" lon="4.4986">
        <ele>676.076</ele>
        <time>2017-04-01T12:58:48Z</time>
      </trkpt>
      <trkpt lat="45.77264" lon="4.49868">
        <ele>668.813</ele>
        <time>2017-04-01T12:59:08Z</time>
      </trkpt>
      <trkpt lat="45.77218" lon="4.49865">
        <ele>665.308</ele>
        <time>2017-04-01T12:59:28Z</time>
      </trkpt>
      <trkpt lat="45.77171" lon="4.49832">
        <ele>667.467</ele>
        <time>2017-04-01T12:59:48Z</time>
      </trkpt>
      <trkpt lat="45.77132" lon="4.49836">
        <ele>665.762</ele>
        <time>2017-04-01T13:00:08Z</time>
      </trkpt>
      <trkpt lat="45.77061" lon="4.49883">
        <ele>661.753</ele>
        <time>2017-04-01T13:00:28Z</time>
      </trkpt>
      <trkpt lat="45.76972" lon="4.49928">
        <ele>649.998</ele>
        <time>2017-04-01T13:00:48Z</time>
      </trkpt>
      <trkpt lat="45.76951" lon="4.49963">
        <ele>643.087</ele>
        <time>2017-04-01T13:01:08Z</time>
      </trkpt>
      <trkpt lat="45.76924" lon="4.49975">
        <ele>636.03</ele>
        <time>2017-04-01T13:01:28Z</time>
      </trkpt>
      <trkpt lat="45.76903" lon="4.50024">
        <ele>624.177</ele>
        <time>2017-04-01T13:01:48Z</time>
      </trkpt>
      <trkpt lat="45.76866" lon="4.5006">
        <ele>613.461</ele>
        <time>2017-04-01T13:02:08Z</time>
      </trkpt>
      <trkpt lat="45.7683" lon="4.50103">
        <ele>602.131</ele>
        <time>2017-04-01T13:02:28Z</time>
      </trkpt>
      <trkpt lat="45.76804" lon="4.50118">
        <ele>595.061</ele>
        <time>2017-04-01T13:02:48Z</time>
      </trkpt>
      <trkpt lat="45.76781" lon="4.50145">
        <ele>589.307</ele>
        <time>2017-04-01T13:03:08Z</time>
      </trkpt>
      <trkpt lat="45.76737" lon="4.50175">
        <ele>579.108</ele>
        <time>2017-04-01T13:03:28Z</time>
      </trkpt>
      <trkpt lat="45.76716" lon="4.50155">
        <ele>574.739</ele>
        <time>2017-04-01T13:03:48Z</time>
      </trkpt>
      <trkpt lat="45.76702" lon="4.50102">
        <ele>571.674</ele>
        <time>2017-04-01T13:04:08Z</time>
      </trkpt>
      <trkpt lat="45.76714" lon="4.50004">
        <ele>576.175</ele>
        <time>2017-04-01T13:04:28Z</time>
      </trkpt>
      <trkpt lat="45.76702" lon="4.49955">
        <ele>573.84</ele>
        <time>2017-04-01T13:04:48Z</time>
      </trkpt>
      <trkpt lat="45.76669" lon="4.49909">
        <ele>571.179</ele>
        <time>2017-04-01T13:05:08Z</time>
      </trkpt>
      <trkpt lat="45.76622" lon="4.49916">
        <ele>562.592</ele>
        <time>2017-04-01T13:05:28Z</time>
      </trkpt>
      <trkpt lat="45.76595" lon="4.49903">
        <ele>559.599</ele>
        <time>2017-04-01T13:05:48Z</time>
      </trkpt>
      <trkpt lat="45.76523" lon="4.49907">
        <ele>555.413</ele>
        <time>2017-04-01T13:06:08Z</time>
      </trkpt>
      <trkpt lat="45.76479" lon="4.4988">
        <ele>558.265</ele>
        <time>2017-04-01T13:06:28Z</time>
      </trkpt>
      <trkpt lat="45.76413" lon="4.499">
        <ele>552.368</ele>
        <time>2017-04-01T13:06:48Z</time>
      </trkpt>
      <trkpt lat="45.76346" lon="4.49892">
        <ele>549.214</ele>
        <time>2017-04-01T13:07:08Z</time>
      </trkpt>
      <trkpt lat="45.76289" lon="4.49919">
        <ele>550.608</ele>
        <time>2017-04-01T13:07:28Z</time>
      </trkpt>
      <trkpt lat="45.76271" lon="4.49899">
        <ele>553.092</ele>
        <time>2017-04-01T13:07:48Z</time>
      </trkpt>
      <trkpt lat="45.76191" lon="4.49879">
        <ele>553.017</ele>
        <time>2017-04-01T13:08:08Z</time>
      </trkpt>
      <trkpt lat="45.76159" lon="4.49889">
        <ele>551.078</ele>
        <time>2017-04-01T13:08:28Z</time>
      </trkpt>
      <trkpt lat="45.76167" lon="4.4994">
        <ele>551.283</ele>
        <time>2017-04-01T13:08:48Z</time>
      </trkpt>
      <trkpt lat="45.76179" lon="4.49963">
        <ele>549.432</ele>
        <time>2017-04-01T13:09:08Z</time>
      </trkpt>
      <trkpt lat="45.76174" lon="4.49985">
        <ele>546.615</ele>
        <time>2017-04-01T13:09:28Z</time>
      </trkpt>
      <trkpt lat="45.76112" lon="4.49987">
        <ele>546.432</ele>
        <time>2017-04-01T13:09:48Z</time>
      </trkpt>
      <trkpt lat="45.76053" lon="4.50008">
        <ele>541.236</ele>
        <time>2017-04-01T13:10:08Z</time>
      </trkpt>
      <trkpt lat="45.75948" lon="4.50019">
        <ele>533.868</ele>
        <time>2017-04-01T13:10:28Z</time>
      </trkpt>
      <trkpt lat="45.75876" lon="4.50101">
        <ele>529.542</ele>
        <time>2017-04-01T13:10:48Z</time>
      </trkpt>
      <trkpt lat="45.75829" lon="4.50121">
        <ele>526.226</ele>
        <time>2017-04-01T13:11:08Z</time>
      </trkpt>
      <trkpt lat="45.75777" lon="4.50136">
        <ele>520.508</ele>
        <time>2017-04-01T13:11:28Z</time>
      </trkpt>
      <trkpt lat="45.75758" lon="4.50136">
        <ele>516.342</ele>
        <time>2017-04-01T13:11:48Z</time>
      </trkpt>
      <trkpt lat="45.75747" lon="4.50088">
        <ele>509.137</ele>
        <time>2017-04-01T13:12:08Z</time>
      </trkpt>
      <trkpt lat="45.75664" lon="4.50074">
        <ele>496.518</ele>
        <time>2017-04-01T13:12:28Z</time>
      </trkpt>
      <trkpt lat="45.75521" lon="4.50041">
        <ele>469.343</ele>
        <time>2017-04-01T13:12:48Z</time>
      </trkpt>
      <trkpt lat="45.75489" lon="4.50106">
        <ele>465.792</ele>
        <time>2017-04-01T13:13:08Z</time>
      </trkpt>
      <trkpt lat="45.75452" lon="4.50284">
        <ele>444.545</ele>
        <time>2017-04-01T13:13:28Z</time>
      </trkpt>
      <trkpt lat="45.75487" lon="4.50423">
        <ele>440.662</ele>
        <time>2017-04-01T13:13:48Z</time>
      </trkpt>
      <trkpt lat="45.7549" lon="4.50515">
        <ele>434.766</ele>
        <time>2017-04-01T13:14:08Z</time>
      </trkpt>
      <trkpt lat="45.75404" lon="4.50535">
        <ele>428.232</ele>
        <time>2017-04-01T13:14:28Z</time>
      </trkpt>
      <trkpt lat="45.7538" lon="4.50551">
        <ele>431.692</ele>
        <time>2017-04-01T13:14:48Z</time>
      </trkpt>
      <trkpt lat="45.7538" lon="4.50609">
        <ele>430.311</ele>
        <time>2017-04-01T13:15:08Z</time>
      </trkpt>
      <trkpt lat="45.7535" lon="4.50753">
        <ele>441.708</ele>
        <time>2017-04-01T13:15:28Z</time>
      </trkpt>
      <trkpt lat="45.75333" lon="4.50782">
        <ele>447.299</ele>
        <time>2017-04-01T13:15:48Z</time>
      </trkpt>
      <trkpt lat="45.75287" lon="4.50836">
        <ele>459.434</ele>
        <time>2017-04-01T13:16:08Z</time>
      </trkpt>
      <trkpt lat="45.75316" lon="4.50867">
        <ele>454.345</ele>
        <time>2017-04-01T13:16:28Z</time>
      </trkpt>
      <trkpt lat="45.75332" lon="4.50913">
        <ele>454.82</ele>
        <time>2017-04-01T13:16:48Z</time>
      </trkpt>
      <trkpt lat="45.7533" lon="4.50962">
        <ele>462.289</ele>
        <time>2017-04-01T13:17:08Z</time>
      </trkpt>
      <trkpt lat="45.75316" lon="4.51012">
        <ele>469.522</ele>
        <time>2017-04-01T13:17:28Z</time>
      </trkpt>
      <trkpt lat="45.75268" lon="4.51069">
        <ele>481.269</ele>
        <time>2017-04-01T13:17:48Z</time>
      </trkpt>
      <trkpt lat="45.7526" lon="4.51104">
        <ele>484.183</ele>
        <time>2017-04-01T13:18:08Z</time>
      </trkpt>
      <trkpt lat="45.75218" lon="4.51219">
        <ele>500.597</ele>
        <time>2017-04-01T13:18:28Z</time>
      </trkpt>
      <trkpt lat="45.75206" lon="4.51282">
        <ele>505.723</ele>
        <time>2017-04-01T13:18:48Z</time>
      </trkpt>
      <trkpt lat="45.75208" lon="4.51418">
        <ele>508.125</ele>
        <time>2017-04-01T13:19:08Z</time>
      </trkpt>
      <trkpt lat="45.75168" lon="4.51513">
        <ele>514.508</ele>
        <time>2017-04-01T13:19:28Z</time>
      </trkpt>
      <trkpt lat="45.75173" lon="4.51706">
        <ele>505.935</ele>
        <time>2017-04-01T13:19:48Z</time>
      </trkpt>
      <trkpt lat="45.75169" lon="4.5182">
        <ele>498.53</ele>
        <time>2017-04-01T13:20:08Z</time>
      </trkpt>
      <trkpt lat="45.75182" lon="4.51927">
        <ele>491.391</ele>
        <time>2017-04-01T13:20:28Z</time>
      </trkpt>
      <trkpt lat="45.75115" lon="4.51953">
        <ele>487.396</ele>
        <time>2017-04-01T13:20:48Z</time>
      </trkpt>
      <trkpt lat="45.75082" lon="4.51974">
        <ele>483.955</ele>
        <time>2017-04-01T13:21:08Z</time>
      </trkpt>
      <trkpt lat="45.7504" lon="4.52022">
        <ele>476.188</ele>
        <time>2017-04-01T13:21:28Z</time>
      </trkpt>
      <trkpt lat="45.75001" lon="4.52035">
        <ele>466.435</ele>
        <time>2017-04-01T13:21:48Z</time>
      </trkpt>
      <trkpt lat="45.74991" lon="4.52114">
        <ele>458.019</ele>
        <time>2017-04-01T13:22:08Z</time>
      </trkpt>
      <trkpt lat="45.74967" lon="4.52186">
        <ele>449.636</ele>
        <time>2017-04-01T13:22:28Z</time>
      </trkpt>
      <trkpt lat="45.74959" lon="4.52224">
        <ele>447.017</ele>
        <time>2017-04-01T13:22:48Z</time>
      </trkpt>
      <trkpt lat="45.74942" lon="4.52256">
        <ele>444.018</ele>
        <time>2017-04-01T13:23:08Z</time>
      </trkpt>
      <trkpt lat="45.74918" lon="4.52248">
        <ele>444.008</ele>
        <time>2017-04-01T13:23:28Z</time>
      </trkpt>
      <trkpt lat="45.74901" lon="4.52271">
        <ele>447.769</ele>
        <time>2017-04-01T13:23:48Z</time>
      </trkpt>
      <trkpt lat="45.74866" lon="4.52411">
        <ele>450.644</ele>
        <time>2017-04-01T13:24:08Z</time>
      </trkpt>
      <trkpt lat="45.74849" lon="4.5243">
        <ele>451.275</ele>
        <time>2017-04-01T13:24:28Z</time>
      </trkpt>
      <trkpt lat="45.74824" lon="4.52442">
        <ele>451.31</ele>
        <time>2017-04-01T13:24:48Z</time>
      </trkpt>
      <trkpt lat="45.74865" lon="4.52539">
        <ele>445.079</ele>
        <time>2017-04-01T13:25:08Z</time>
      </trkpt>
      <trkpt lat="45.74873" lon="4.52642">
        <ele>445.512</ele>
        <time>2017-04-01T13:25:28Z</time>
      </trkpt>
      <trkpt lat="45.74859" lon="4.52821">
        <ele>442.899</ele>
        <time>2017-04-01T13:25:48Z</time>
      </trkpt>
      <trkpt lat="45.74822" lon="4.52926">
        <ele>446.543</ele>
        <time>2017-04-01T13:26:08Z</time>
      </trkpt>
      <trkpt lat="45.74813" lon="4.5308">
        <ele>437.662</ele>
        <time>2017-04-01T13:26:28Z</time>
      </trkpt>
      <trkpt lat="45.74802" lon="4.53176">
        <ele>428.283</ele>
        <time>2017-04-01T13:26:48Z</time>
      </trkpt>
      <trkpt lat="45.74792" lon="4.53291">
        <ele>417.311</ele>
        <time>2017-04-01T13:27:08Z</time>
      </trkpt>
      <trkpt lat="45.74791" lon="4.5339">
        <ele>406.608</ele>
        <time>2017-04-01T13:27:28Z</time>
      </trkpt>
      <trkpt lat="45.74774" lon="4.53438">
        <ele>403.182</ele>
        <time>2017-04-01T13:27:48Z</time>
      </trkpt>
      <trkpt lat="45.74743" lon="4.53606">
        <ele>391.967</ele>
        <time>2017-04-01T13:28:08Z</time>
      </trkpt>
      <trkpt lat="45.74719" lon="4.53685">
        <ele>382.438</ele>
        <time>2017-04-01T13:28:28Z</time>
      </trkpt>
      <trkpt lat="45.74704" lon="4.53798">
        <ele>371.883</ele>
        <time>2017-04-01T13:28:48Z</time>
      </trkpt>
      <trkpt lat="45.74714" lon="4.53894">
        <ele>362.762</ele>
        <time>2017-04-01T13:29:08Z</time>
      </trkpt>
      <trkpt lat="45.74691" lon="4.53955">
        <ele>354.325</ele>
        <time>2017-04-01T13:29:28Z</time>
      </trkpt>
      <trkpt lat="45.74672" lon="4.54044">
        <ele>333.532</ele>
        <time>2017-04-01T13:29:48Z</time>
      </trkpt>
      <trkpt lat="45.74642" lon="4.54074">
        <ele>326.186</ele>
        <time>2017-04-01T13:30:08Z</time>
      </trkpt>
      <trkpt lat="45.74672" lon="4.5411">
        <ele>323.781</ele>
        <time>2017-04-01T13:30:28Z</time>
      </trkpt>
      <trkpt lat="45.74671" lon="4.54126">
        <ele>322.061</ele>
        <time>2017-04-01T13:30:48Z</time>
      </trkpt>
      <trkpt lat="45.74655" lon="4.54114">
        <ele>321.517</ele>
        <time>2017-04-01T13:31:08Z</time>
      </trkpt>
      <trkpt lat="45.74605" lon="4.54087">
        <ele>321.108</ele>
        <time>2017-04-01T13:31:28Z</time>
      </trkpt>
      <trkpt lat="45.74588" lon="4.54089">
        <ele>319.354</ele>
        <time>2017-04-01T13:31:48Z</time>
      </trkpt>
      <trkpt lat="45.74575" lon="4.54139">
        <ele>319.789</ele>
        <time>2017-04-01T13:32:08Z</time>
      </trkpt>
      <trkpt lat="45.74576" lon="4.54168">
        <ele>321.15</ele>
        <time>2017-04-01T13:32:28Z</time>
      </trkpt>
      <trkpt lat="45.74598" lon="4.54209">
        <ele>321.965</ele>
        <time>2017-04-01T13:32:48Z</time>
      </trkpt>
      <trkpt lat="45.74634" lon="4.54247">
        <ele>319.594</ele>
        <time>2017-04-01T13:33:08Z</time>
      </trkpt>
      <trkpt lat="45.74618" lon="4.5428">
        <ele>320.317</ele>
        <time>2017-04-01T13:33:28Z</time>
      </trkpt>
      <trkpt lat="45.74623" lon="4.54371">
        <ele>325.214</ele>
        <time>2017-04-01T13:33:48Z</time>
      </trkpt>
      <trkpt lat="45.7461" lon="4.54413">
        <ele>329.888</ele>
        <time>2017-04-01T13:34:08Z</time>
      </trkpt>
      <trkpt lat="45.74413" lon="4.54347">
        <ele>332.145</ele>
        <time>2017-04-01T13:34:28Z</time>
      </trkpt>
      <trkpt lat="45.74377" lon="4.54346">
        <ele>333.847</ele>
        <time>2017-04-01T13:34:48Z</time>
      </trkpt>
      <trkpt lat="45.7437" lon="4.54321">
        <ele>334.311</ele>
        <time>2017-04-01T13:35:08Z</time>
      </trkpt>
      <trkpt lat="45.74373" lon="4.54289">
        <ele>337.108</ele>
        <time>2017-04-01T13:35:28Z</time>
      </trkpt>
      <trkpt lat="45.74334" lon="4.54243">
        <ele>348.05</ele>
        <time>2017-04-01T13:35:48Z</time>
      </trkpt>
      <trkpt lat="45.74313" lon="4.54173">
        <ele>357.535</ele>
        <time>2017-04-01T13:36:08Z</time>
      </trkpt>
      <trkpt lat="45.74324" lon="4.54122">
        <ele>361.596</ele>
        <time>2017-04-01T13:36:28Z</time>
      </trkpt>
      <trkpt lat="45.74344" lon="4.54099">
        <ele>361.681</ele>
        <time>2017-04-01T13:36:48Z</time>
      </trkpt>
      <trkpt lat="45.74341" lon="4.5406">
        <ele>363.55</ele>
        <time>2017-04-01T13:37:08Z</time>
      </trkpt>
      <trkpt lat="45.743" lon="4.54062">
        <ele>367.433</ele>
        <time>2017-04-01T13:37:28Z</time>
      </trkpt>
      <trkpt lat="45.74221" lon="4.54033">
        <ele>372.33</ele>
        <time>2017-04-01T13:37:48Z</time>
      </trkpt>
      <trkpt lat="45.74169" lon="4.53964">
        <ele>378.354</ele>
        <time>2017-04-01T13:38:08Z</time>
      </trkpt>
      <trkpt lat="45.74125" lon="4.53852">
        <ele>384.016</ele>
        <time>2017-04-01T13:38:28Z</time>
      </trkpt>
      <trkpt lat="45.74096" lon="4.53822">
        <ele>382.376</ele>
        <time>2017-04-01T13:38:48Z</time>
      </trkpt>
      <trkpt lat="45.7407" lon="4.53777">
        <ele>379.313</ele>
        <time>2017-04-01T13:39:08Z</time>
      </trkpt>
      <trkpt lat="45.74037" lon="4.53765">
        <ele>380.708</ele>
        <time>2017-04-01T13:39:28Z</time>
      </trkpt>
      <trkpt lat="45.73996" lon="4.53793">
        <ele>387.857</ele>
        <time>2017-04-01T13:39:48Z</time>
      </trkpt>
      <trkpt lat="45.73973" lon="4.5377">
        <ele>391.972</ele>
        <time>2017-04-01T13:40:08Z</time>
      </trkpt>
      <trkpt lat="45.73949" lon="4.53787">
        <ele>398.363</ele>
        <time>2017-04-01T13:40:28Z</time>
      </trkpt>
      <trkpt lat="45.73931" lon="4.53821">
        <ele>399.998</ele>
        <time>2017-04-01T13:40:48Z</time>
      </trkpt>
      <trkpt lat="45.73906" lon="4.53849">
        <ele>404.437</ele>
        <time>2017-04-01T13:41:08Z</time>
      </trkpt>
      <trkpt lat="45.73877" lon="4.53868">
        <ele>410.45</ele>
        <time>2017-04-01T13:41:28Z</time>
      </trkpt>
      <trkpt lat="45.73851" lon="4.53881">
        <ele>416.527</ele>
        <time>2017-04-01T13:41:48Z</time>
      </trkpt>
      <trkpt lat="45.7383" lon="4.53917">
        <ele>419.921</ele>
        <time>2017-04-01T13:42:08Z</time>
      </trkpt>
      <trkpt lat="45.73826" lon="4.53951">
        <ele>423.131</ele>
        <time>2017-04-01T13:42:28Z</time>
      </trkpt>
      <trkpt lat="45.73898" lon="4.54012">
        <ele>421.661</ele>
        <time>2017-04-01T13:42:48Z</time>
      </trkpt>
      <trkpt lat="45.73916" lon="4.5404">
        <ele>423.307</ele>
        <time>2017-04-01T13:43:08Z</time>
      </trkpt>
      <trkpt lat="45.73849" lon="4.54094">
        <ele>444.208</ele>
        <time>2017-04-01T13:43:28Z</time>
      </trkpt>
      <trkpt lat="45.73817" lon="4.54146">
        <ele>451.979</ele>
        <time>2017-04-01T13:43:48Z</time>
      </trkpt>
      <trkpt lat="45.73779" lon="4.54174">
        <ele>456.994</ele>
        <time>2017-04-01T13:44:08Z</time>
      </trkpt>
      <trkpt lat="45.73746" lon="4.54181">
        <ele>463.295</ele>
        <time>2017-04-01T13:44:28Z</time>
      </trkpt>
      <trkpt lat="45.73672" lon="4.54213">
        <ele>478.01</ele>
        <time>2017-04-01T13:44:48Z</time>
      </trkpt>
      <trkpt lat="45.73593" lon="4.54242">
        <ele>499.649</ele>
        <time>2017-04-01T13:45:08Z</time>
      </trkpt>
      <trkpt lat="45.73564" lon="4.54258">
        <ele>502.512</ele>
        <time>2017-04-01T13:45:28Z</time>
      </trkpt>
      <trkpt lat="45.73517" lon="4.54293">
        <ele>502.719</ele>
        <time>2017-04-01T13:45:48Z</time>
      </trkpt>
      <trkpt lat="45.73465" lon="4.54345">
        <ele>504.593</ele>
        <time>2017-04-01T13:46:08Z</time>
      </trkpt>
      <trkpt lat="45.73333" lon="4.54528">
        <ele>537.055</ele>
        <time>2017-04-01T13:46:28Z</time>
      </trkpt>
      <trkpt lat="45.73311" lon="4.54549">
        <ele>540.507</ele>
        <time>2017-04-01T13:46:48Z</time>
      </trkpt>
      <trkpt lat="45.73298" lon="4.5456">
        <ele>542.517</ele>
        <time>2017-04-01T13:47:08Z</time>
      </trkpt>
      <trkpt lat="45.7319" lon="4.5467">
        <ele>564.108</ele>
        <time>2017-04-01T13:47:28Z</time>
      </trkpt>
      <trkpt lat="45.73163" lon="4.54692">
        <ele>571.771</ele>
        <time>2017-04-01T13:47:48Z</time>
      </trkpt>
      <trkpt lat="45.73128" lon="4.54729">
        <ele>582.296</ele>
        <time>2017-04-01T13:48:08Z</time>
      </trkpt>
      <trkpt lat="45.73116" lon="4.54733">
        <ele>584.657</ele>
        <time>2017-04-01T13:48:28Z</time>
      </trkpt>
      <trkpt lat="45.73059" lon="4.54798">
        <ele>603.382</ele>
        <time>2017-04-01T13:48:48Z</time>
      </trkpt>
      <trkpt lat="45.73046" lon="4.5484">
        <ele>610.421</ele>
        <time>2017-04-01T13:49:08Z</time>
      </trkpt>
      <trkpt lat="45.72939" lon="4.54884">
        <ele>635.414</ele>
        <time>2017-04-01T13:49:28Z</time>
      </trkpt>
      <trkpt lat="45.72843" lon="4.54911">
        <ele>656.721</ele>
        <time>2017-04-01T13:49:48Z</time>
      </trkpt>
      <trkpt lat="45.72819" lon="4.54906">
        <ele>658.995</ele>
        <time>2017-04-01T13:50:08Z</time>
      </trkpt>
      <trkpt lat="45.72792" lon="4.54905">
        <ele>662.658</ele>
        <time>2017-04-01T13:50:28Z</time>
      </trkpt>
      <trkpt lat="45.72679" lon="4.54865">
        <ele>672.652</ele>
        <time>2017-04-01T13:50:48Z</time>
      </trkpt>
      <trkpt lat="45.72646" lon="4.54865">
        <ele>673.317</ele>
        <time>2017-04-01T13:51:08Z</time>
      </trkpt>
      <trkpt lat="45.72612" lon="4.54883">
        <ele>675.608</ele>
        <time>2017-04-01T13:51:28Z</time>
      </trkpt>
      <trkpt lat="45.72577" lon="4.54945">
        <ele>674.571</ele>
        <time>2017-04-01T13:51:48Z</time>
      </trkpt>
      <trkpt lat="45.72548" lon="4.54946">
        <ele>672.636</ele>
        <time>2017-04-01T13:52:08Z</time>
      </trkpt>
      <trkpt lat="45.72438" lon="4.54926">
        <ele>671.467</ele>
        <time>2017-04-01T13:52:28Z</time>
      </trkpt>
      <trkpt lat="45.7239" lon="4.54896">
        <ele>669.072</ele>
        <time>2017-04-01T13:52:48Z</time>
      </trkpt>
      <trkpt lat="45.7235" lon="4.54892">
        <ele>670.171</ele>
        <time>2017-04-01T13:53:08Z</time>
      </trkpt>
      <trkpt lat="45.72304" lon="4.54866">
        <ele>669.884</ele>
        <time>2017-04-01T13:53:28Z</time>
      </trkpt>
      <trkpt lat="45.72257" lon="4.5482">
        <ele>669.551</ele>
        <time>2017-04-01T13:53:48Z</time>
      </trkpt>
      <trkpt lat="45.72248" lon="4.54794">
        <ele>667.375</ele>
        <time>2017-04-01T13:54:08Z</time>
      </trkpt>
      <trkpt lat="45.7219" lon="4.54735">
        <ele>668.065</ele>
        <time>2017-04-01T13:54:28Z</time>
      </trkpt>
      <trkpt lat="45.72143" lon="4.5466">
        <ele>660.268</ele>
        <time>2017-04-01T13:54:48Z</time>
      </trkpt>
      <trkpt lat="45.7202" lon="4.54589">
        <ele>660.214</ele>
        <time>2017-04-01T13:55:08Z</time>
      </trkpt>
      <trkpt lat="45.71966" lon="4.54596">
        <ele>665.008</ele>
        <time>2017-04-01T13:55:28Z</time>
      </trkpt>
      <trkpt lat="45.71955" lon="4.54589">
        <ele>668.122</ele>
        <time>2017-04-01T13:55:48Z</time>
      </trkpt>
      <trkpt lat="45.71946" lon="4.54543">
        <ele>668.917</ele>
        <time>2017-04-01T13:56:08Z</time>
      </trkpt>
      <trkpt lat="45.71919" lon="4.54512">
        <ele>670.088</ele>
        <time>2017-04-01T13:56:28Z</time>
      </trkpt>
      <trkpt lat="45.71898" lon="4.54544">
        <ele>683.093</ele>
        <time>2017-04-01T13:56:48Z</time>
      </trkpt>
      <trkpt lat="45.71856" lon="4.54507">
        <ele>691.492</ele>
        <time>2017-04-01T13:57:08Z</time>
      </trkpt>
      <trkpt lat="45.7183" lon="4.54499">
        <ele>697.915</ele>
        <time>2017-04-01T13:57:28Z</time>
      </trkpt>
      <trkpt lat="45.71805" lon="4.54481">
        <ele>702.152</ele>
        <time>2017-04-01T13:57:48Z</time>
      </trkpt>
      <trkpt lat="45.71757" lon="4.54465">
        <ele>715.896</ele>
        <time>2017-04-01T13:58:08Z</time>
      </trkpt>
      <trkpt lat="45.71684" lon="4.54389">
        <ele>730.046</ele>
        <time>2017-04-01T13:58:28Z</time>
      </trkpt>
      <trkpt lat="45.71636" lon="4.5431">
        <ele>740.388</ele>
        <time>2017-04-01T13:58:48Z</time>
      </trkpt>
      <trkpt lat="45.71606" lon="4.54291">
        <ele>746.016</ele>
        <time>2017-04-01T13:59:08Z</time>
      </trkpt>
      <trkpt lat="45.71566" lon="4.54286">
        <ele>748.008</ele>
        <time>2017-04-01T13:59:28Z</time>
      </trkpt>
      <trkpt lat="45.71556" lon="4.54298">
        <ele>749.27</ele>
        <time>2017-04-01T13:59:48Z</time>
      </trkpt>
      <trkpt lat="45.71552" lon="4.54352">
        <ele>754.765</ele>
        <time>2017-04-01T14:00:08Z</time>
      </trkpt>
      <trkpt lat="45.71571" lon="4.54462">
        <ele>770.926</ele>
        <time>2017-04-01T14:00:28Z</time>
      </trkpt>
      <trkpt lat="45.7157" lon="4.54501">
        <ele>774.761</ele>
        <time>2017-04-01T14:00:48Z</time>
      </trkpt>
      <trkpt lat="45.71577" lon="4.54545">
        <ele>780.88</ele>
        <time>2017-04-01T14:01:08Z</time>
      </trkpt>
      <trkpt lat="45.71555" lon="4.54655">
        <ele>795.663</ele>
        <time>2017-04-01T14:01:28Z</time>
      </trkpt>
      <trkpt lat="45.7154" lon="4.54741">
        <ele>802.56</ele>
        <time>2017-04-01T14:01:48Z</time>
      </trkpt>
      <trkpt lat="45.71515" lon="4.54823">
        <ele>804.484</ele>
        <time>2017-04-01T14:02:08Z</time>
      </trkpt>
      <trkpt lat="45.71468" lon="4.54928">
        <ele>810.517</ele>
        <time>2017-04-01T14:02:28Z</time>
      </trkpt>
      <trkpt lat="45.7142" lon="4.54998">
        <ele>816.087</ele>
        <time>2017-04-01T14:02:48Z</time>
      </trkpt>
      <trkpt lat="45.71384" lon="4.55077">
        <ele>824.015</ele>
        <time>2017-04-01T14:03:08Z</time>
      </trkpt>
      <trkpt lat="45.71341" lon="4.55147">
        <ele>826.708</ele>
        <time>2017-04-01T14:03:28Z</time>
      </trkpt>
      <trkpt lat="45.713" lon="4.55208">
        <ele>835.617</ele>
        <time>2017-04-01T14:03:48Z</time>
      </trkpt>
      <trkpt lat="45.71232" lon="4.55261">
        <ele>842.482</ele>
        <time>2017-04-01T14:04:08Z</time>
      </trkpt>
      <trkpt lat="45.71175" lon="4.55318">
        <ele>851.993</ele>
        <time>2017-04-01T14:04:28Z</time>
      </trkpt>
      <trkpt lat="45.71105" lon="4.55406">
        <ele>858.988</ele>
        <time>2017-04-01T14:04:48Z</time>
      </trkpt>
      <trkpt lat="45.71081" lon="4.55427">
        <ele>861.777</ele>
        <time>2017-04-01T14:05:08Z</time>
      </trkpt>
      <trkpt lat="45.71072" lon="4.55458">
        <ele>863.19</ele>
        <time>2017-04-01T14:05:28Z</time>
      </trkpt>
      <trkpt lat="45.70994" lon="4.55523">
        <ele>873.177</ele>
        <time>2017-04-01T14:05:48Z</time>
      </trkpt>
      <trkpt lat="45.70976" lon="4.55545">
        <ele>877.531</ele>
        <time>2017-04-01T14:06:08Z</time>
      </trkpt>
      <trkpt lat="45.7093" lon="4.55568">
        <ele>880.237</ele>
        <time>2017-04-01T14:06:28Z</time>
      </trkpt>
      <trkpt lat="45.70901" lon="4.55596">
        <ele>884.849</ele>
        <time>2017-04-01T14:06:48Z</time>
      </trkpt>
      <trkpt lat="45.70866" lon="4.55616">
        <ele>887.913</ele>
        <time>2017-04-01T14:07:08Z</time>
      </trkpt>
      <trkpt lat="45.7081" lon="4.5564">
        <ele>889.308</ele>
        <time>2017-04-01T14:07:28Z</time>
      </trkpt>
      <trkpt lat="45.70779" lon="4.5568">
        <ele>893.079</ele>
        <time>2017-04-01T14:07:48Z</time>
      </trkpt>
      <trkpt lat="45.70701" lon="4.55838">
        <ele>896.574</ele>
        <time>2017-04-01T14:08:08Z</time>
      </trkpt>
      <trkpt lat="45.70626" lon="4.55975">
        <ele>889.345</ele>
        <time>2017-04-01T14:08:28Z</time>
      </trkpt>
      <trkpt lat="45.70576" lon="4.56039">
        <ele>886.21</ele>
        <time>2017-04-01T14:08:48Z</time>
      </trkpt>
      <trkpt lat="45.70512" lon="4.56132">
        <ele>875.749</ele>
        <time>2017-04-01T14:09:08Z</time>
      </trkpt>
      <trkpt lat="45.70493" lon="4.56177">
        <ele>873.212</ele>
        <time>2017-04-01T14:09:28Z</time>
      </trkpt>
      <trkpt lat="45.7047" lon="4.56216">
        <ele>870.049</ele>
        <time>2017-04-01T14:09:48Z</time>
      </trkpt>
      <trkpt lat="45.70452" lon="4.56236">
        <ele>867.733</ele>
        <time>2017-04-01T14:10:08Z</time>
      </trkpt>
      <trkpt lat="45.70422" lon="4.56257">
        <ele>867.788</ele>
        <time>2017-04-01T14:10:28Z</time>
      </trkpt>
      <trkpt lat="45.70392" lon="4.56272">
        <ele>870.024</ele>
        <time>2017-04-01T14:10:48Z</time>
      </trkpt>
      <trkpt lat="45.70329" lon="4.5633">
        <ele>869.126</ele>
        <time>2017-04-01T14:11:08Z</time>
      </trkpt>
      <trkpt lat="45.7026" lon="4.5636">
        <ele>870.308</ele>
        <time>2017-04-01T14:11:28Z</time>
      </trkpt>
      <trkpt lat="45.70203" lon="4.56363">
        <ele>871.354</ele>
        <time>2017-04-01T14:11:48Z</time>
      </trkpt>
      <trkpt lat="45.70164" lon="4.56399">
        <ele>876.429</ele>
        <time>2017-04-01T14:12:08Z</time>
      </trkpt>
      <trkpt lat="45.70154" lon="4.5642">
        <ele>878.77</ele>
        <time>2017-04-01T14:12:28Z</time>
      </trkpt>
      <trkpt lat="45.70146" lon="4.56455">
        <ele>879.255</ele>
        <time>2017-04-01T14:12:48Z</time>
      </trkpt>
      <trkpt lat="45.70098" lon="4.56447">
        <ele>881.464</ele>
        <time>2017-04-01T14:13:08Z</time>
      </trkpt>
      <trkpt lat="45.70064" lon="4.56456">
        <ele>884.437</ele>
        <time>2017-04-01T14:13:28Z</time>
      </trkpt>
      <trkpt lat="45.70034" lon="4.56478">
        <ele>886.094</ele>
        <time>2017-04-01T14:13:48Z</time>
      </trkpt>
      <trkpt lat="45.69982" lon="4.56482">
        <ele>884.798</ele>
        <time>2017-04-01T14:14:08Z</time>
      </trkpt>
      <trkpt lat="45.69942" lon="4.56468">
        <ele>880.131</ele>
        <time>2017-04-01T14:14:28Z</time>
      </trkpt>
      <trkpt lat="45.6983" lon="4.56473">
        <ele>873.561</ele>
        <time>2017-04-01T14:14:48Z</time>
      </trkpt>
      <trkpt lat="45.69755" lon="4.56458">
        <ele>874.607</ele>
        <time>2017-04-01T14:15:08Z</time>
      </trkpt>
      <trkpt lat="45.69699" lon="4.56436">
        <ele>871.908</ele>
        <time>2017-04-01T14:15:28Z</time>
      </trkpt>
      <trkpt lat="45.69656" lon="4.56435">
        <ele>871.969</ele>
        <time>2017-04-01T14:15:48Z</time>
      </trkpt>
      <trkpt lat="45.69542" lon="4.56455">
        <ele>866.994</ele>
        <time>2017-04-01T14:16:08Z</time>
      </trkpt>
      <trkpt lat="45.6941" lon="4.5654">
        <ele>851.755</ele>
        <time>2017-04-01T14:16:28Z</time>
      </trkpt>
      <trkpt lat="45.69366" lon="4.56544">
        <ele>849.79</ele>
        <time>2017-04-01T14:16:48Z</time>
      </trkpt>
      <trkpt lat="45.69327" lon="4.56562">
        <ele>848.099</ele>
        <time>2017-04-01T14:17:08Z</time>
      </trkpt>
      <trkpt lat="45.69291" lon="4.56569">
        <ele>845.492</ele>
        <time>2017-04-01T14:17:28Z</time>
      </trkpt>
      <trkpt lat="45.6926" lon="4.5659">
        <ele>840.849</ele>
        <time>2017-04-01T14:17:48Z</time>
      </trkpt>
      <trkpt lat="45.6923" lon="4.56632">
        <ele>836.053</ele>
        <time>2017-04-01T14:18:08Z</time>
      </trkpt>
      <trkpt lat="45.69199" lon="4.56662">
        <ele>829.371</ele>
        <time>2017-04-01T14:18:28Z</time>
      </trkpt>
      <trkpt lat="45.69181" lon="4.56713">
        <ele>822.741</ele>
        <time>2017-04-01T14:18:48Z</time>
      </trkpt>
      <trkpt lat="45.6916" lon="4.5674">
        <ele>819.415</ele>
        <time>2017-04-01T14:19:08Z</time>
      </trkpt>
      <trkpt lat="45.69135" lon="4.56745">
        <ele>815.808</ele>
        <time>2017-04-01T14:19:28Z</time>
      </trkpt>
      <trkpt lat="45.69046" lon="4.56852">
        <ele>812.673</ele>
        <time>2017-04-01T14:19:48Z</time>
      </trkpt>
      <trkpt lat="45.69019" lon="4.56943">
        <ele>813.238</ele>
        <time>2017-04-01T14:20:08Z</time>
      </trkpt>
      <trkpt lat="45.68999" lon="4.56985">
        <ele>814.689</ele>
        <time>2017-04-01T14:20:28Z</time>
      </trkpt>
      <trkpt lat="45.68897" lon="4.57066">
        <ele>805.414</ele>
        <time>2017-04-01T14:20:48Z</time>
      </trkpt>
      <trkpt lat="45.68867" lon="4.57182">
        <ele>798.613</ele>
        <time>2017-04-01T14:21:08Z</time>
      </trkpt>
      <trkpt lat="45.6883" lon="4.57271">
        <ele>792.196</ele>
        <time>2017-04-01T14:21:28Z</time>
      </trkpt>
      <trkpt lat="45.68784" lon="4.57342">
        <ele>786.293</ele>
        <time>2017-04-01T14:21:48Z</time>
      </trkpt>
      <trkpt lat="45.68675" lon="4.5753">
        <ele>772.847</ele>
        <time>2017-04-01T14:22:08Z</time>
      </trkpt>
      <trkpt lat="45.68628" lon="4.57585">
        <ele>769.638</ele>
        <time>2017-04-01T14:22:28Z</time>
      </trkpt>
      <trkpt lat="45.68582" lon="4.57677">
        <ele>769.47</ele>
        <time>2017-04-01T14:22:48Z</time>
      </trkpt>
      <trkpt lat="45.68566" lon="4.57733">
        <ele>771.017</ele>
        <time>2017-04-01T14:23:08Z</time>
      </trkpt>
      <trkpt lat="45.6856" lon="4.578">
        <ele>772.508</ele>
        <time>2017-04-01T14:23:28Z</time>
      </trkpt>
      <trkpt lat="45.68543" lon="4.5784">
        <ele>774.779</ele>
        <time>2017-04-01T14:23:48Z</time>
      </trkpt>
      <trkpt lat="45.68555" lon="4.57916">
        <ele>770.214</ele>
        <time>2017-04-01T14:24:08Z</time>
      </trkpt>
      <trkpt lat="45.68552" lon="4.57989">
        <ele>765.295</ele>
        <time>2017-04-01T14:24:28Z</time>
      </trkpt>
      <trkpt lat="45.68501" lon="4.58216">
        <ele>772.02</ele>
        <time>2017-04-01T14:24:48Z</time>
      </trkpt>
      <trkpt lat="45.68479" lon="4.58251">
        <ele>768.429</ele>
        <time>2017-04-01T14:25:08Z</time>
      </trkpt>
      <trkpt lat="45.68437" lon="4.58293">
        <ele>761.732</ele>
        <time>2017-04-01T14:25:28Z</time>
      </trkpt>
      <trkpt lat="45.68396" lon="4.58313">
        <ele>756.659</ele>
        <time>2017-04-01T14:25:48Z</time>
      </trkpt>
      <trkpt lat="45.68376" lon="4.58345">
        <ele>754.093</ele>
        <time>2017-04-01T14:26:08Z</time>
      </trkpt>
      <trkpt lat="45.68355" lon="4.58363">
        <ele>753.711</ele>
        <time>2017-04-01T14:26:28Z</time>
      </trkpt>
      <trkpt lat="45.68231" lon="4.5833">
        <ele>734.821</ele>
        <time>2017-04-01T14:26:48Z</time>
      </trkpt>
      <trkpt lat="45.68216" lon="4.58287">
        <ele>735.103</ele>
        <time>2017-04-01T14:27:08Z</time>
      </trkpt>
      <trkpt lat="45.68105" lon="4.58112">
        <ele>736.108</ele>
        <time>2017-04-01T14:27:28Z</time>
      </trkpt>
      <trkpt lat="45.68042" lon="4.58048">
        <ele>735.067</ele>
        <time>2017-04-01T14:27:48Z</time>
      </trkpt>
      <trkpt lat="45.68017" lon="4.58029">
        <ele>733.132</ele>
        <time>2017-04-01T14:28:08Z</time>
      </trkpt>
      <trkpt lat="45.6801" lon="4.58011">
        <ele>737.833</ele>
        <time>2017-04-01T14:28:28Z</time>
      </trkpt>
      <trkpt lat="45.67948" lon="4.57982">
        <ele>744.638</ele>
        <time>2017-04-01T14:28:48Z</time>
      </trkpt>
      <trkpt lat="45.67912" lon="4.57978">
        <ele>745.477</ele>
        <time>2017-04-01T14:29:08Z</time>
      </trkpt>
      <trkpt lat="45.6788" lon="4.57985">
        <ele>744.03</ele>
        <time>2017-04-01T14:29:28Z</time>
      </trkpt>
      <trkpt lat="45.67834" lon="4.57984">
        <ele>746.737</ele>
        <time>2017-04-01T14:29:48Z</time>
      </trkpt>
      <trkpt lat="45.67785" lon="4.57987">
        <ele>746.581</ele>
        <time>2017-04-01T14:30:08Z</time>
      </trkpt>
      <trkpt lat="45.67691" lon="4.57933">
        <ele>761.061</ele>
        <time>2017-04-01T14:30:28Z</time>
      </trkpt>
      <trkpt lat="45.67667" lon="4.57898">
        <ele>765.021</ele>
        <time>2017-04-01T14:30:48Z</time>
      </trkpt>
      <trkpt lat="45.67638" lon="4.57868">
        <ele>765.913</ele>
        <time>2017-04-01T14:31:08Z</time>
      </trkpt>
      <trkpt lat="45.67624" lon="4.5782">
        <ele>768.008</ele>
        <time>2017-04-01T14:31:28Z</time>
      </trkpt>
      <trkpt lat="45.67603" lon="4.57706">
        <ele>769.082</ele>
        <time>2017-04-01T14:31:48Z</time>
      </trkpt>
      <trkpt lat="45.67565" lon="4.57603">
        <ele>764.847</ele>
        <time>2017-04-01T14:32:08Z</time>
      </trkpt>
      <trkpt lat="45.67539" lon="4.57551">
        <ele>760.958</ele>
        <time>2017-04-01T14:32:28Z</time>
      </trkpt>
      <trkpt lat="45.67486" lon="4.57501">
        <ele>754.173</ele>
        <time>2017-04-01T14:32:48Z</time>
      </trkpt>
      <trkpt lat="45.67465" lon="4.57474">
        <ele>748.492</ele>
        <time>2017-04-01T14:33:08Z</time>
      </trkpt>
      <trkpt lat="45.67413" lon="4.5742">
        <ele>731.935</ele>
        <time>2017-04-01T14:33:28Z</time>
      </trkpt>
      <trkpt lat="45.67399" lon="4.57408">
        <ele>727.222</ele>
        <time>2017-04-01T14:33:48Z</time>
      </trkpt>
      <trkpt lat="45.67354" lon="4.5736">
        <ele>711.756</ele>
        <time>2017-04-01T14:34:08Z</time>
      </trkpt>
      <trkpt lat="45.67316" lon="4.57329">
        <ele>703.785</ele>
        <time>2017-04-01T14:34:28Z</time>
      </trkpt>
      <trkpt lat="45.67307" lon="4.57308">
        <ele>701.389</ele>
        <time>2017-04-01T14:34:48Z</time>
      </trkpt>
      <trkpt lat="45.67274" lon="4.57279">
        <ele>695.817</ele>
        <time>2017-04-01T14:35:08Z</time>
      </trkpt>
      <trkpt lat="45.67201" lon="4.57233">
        <ele>683.308</ele>
        <time>2017-04-01T14:35:28Z</time>
      </trkpt>
      <trkpt lat="45.67182" lon="4.57209">
        <ele>682.074</ele>
        <time>2017-04-01T14:35:48Z</time>
      </trkpt>
      <trkpt lat="45.67151" lon="4.57235">
        <ele>679.839</ele>
        <time>2017-04-01T14:36:08Z</time>
      </trkpt>
      <trkpt lat="45.67106" lon="4.57242">
        <ele>682.34</ele>
        <time>2017-04-01T14:36:28Z</time>
      </trkpt>
      <trkpt lat="45.67039" lon="4.57268">
        <ele>695.775</ele>
        <time>2017-04-01T14:36:48Z</time>
      </trkpt>
      <trkpt lat="45.66996" lon="4.57271">
        <ele>700.594</ele>
        <time>2017-04-01T14:37:08Z</time>
      </trkpt>
      <trkpt lat="45.66973" lon="4.57251">
        <ele>706.827</ele>
        <time>2017-04-01T14:37:28Z</time>
      </trkpt>
      <trkpt lat="45.66969" lon="4.57234">
        <ele>709.284</ele>
        <time>2017-04-01T14:37:48Z</time>
      </trkpt>
      <trkpt lat="45.66978" lon="4.57167">
        <ele>711.458</ele>
        <time>2017-04-01T14:38:08Z</time>
      </trkpt>
      <trkpt lat="45.66959" lon="4.57162">
        <ele>716.315</ele>
        <time>2017-04-01T14:38:28Z</time>
      </trkpt>
      <trkpt lat="45.66941" lon="4.57178">
        <ele>720.865</ele>
        <time>2017-04-01T14:38:48Z</time>
      </trkpt>
      <trkpt lat="45.66918" lon="4.57235">
        <ele>724.611</ele>
        <time>2017-04-01T14:39:08Z</time>
      </trkpt>
      <trkpt lat="45.66918" lon="4.57235">
        <ele>724.608</ele>
        <time>2017-04-01T14:39:28Z</time>
      </trkpt>
      <trkpt lat="45.66913" lon="4.57295">
        <ele>722.157</ele>
        <time>2017-04-01T14:39:48Z</time>
      </trkpt>
      <trkpt lat="45.66886" lon="4.57314">
        <ele>721.942</ele>
        <time>2017-04-01T14:40:08Z</time>
      </trkpt>
      <trkpt lat="45.66872" lon="4.57297">
        <ele>725.683</ele>
        <time>2017-04-01T14:40:28Z</time>
      </trkpt>
      <trkpt lat="45.66838" lon="4.5728">
        <ele>728.818</ele>
        <time>2017-04-01T14:40:48Z</time>
      </trkpt>
      <trkpt lat="45.66776" lon="4.5731">
        <ele>718.667</ele>
        <time>2017-04-01T14:41:08Z</time>
      </trkpt>
      <trkpt lat="45.66623" lon="4.57295">
        <ele>717.13</ele>
        <time>2017-04-01T14:41:28Z</time>
      </trkpt>
      <trkpt lat="45.66593" lon="4.57316">
        <ele>714.427</ele>
        <time>2017-04-01T14:41:48Z</time>
      </trkpt>
      <trkpt lat="45.66565" lon="4.57303">
        <ele>720.921</ele>
        <time>2017-04-01T14:42:08Z</time>
      </trkpt>
      <trkpt lat="45.66511" lon="4.57217">
        <ele>729.923</ele>
        <time>2017-04-01T14:42:28Z</time>
      </trkpt>
      <trkpt lat="45.66499" lon="4.57108">
        <ele>732.883</ele>
        <time>2017-04-01T14:42:48Z</time>
      </trkpt>
      <trkpt lat="45.66493" lon="4.57035">
        <ele>734.211</ele>
        <time>2017-04-01T14:43:08Z</time>
      </trkpt>
      <trkpt lat="45.66478" lon="4.5699">
        <ele>735.108</ele>
        <time>2017-04-01T14:43:28Z</time>
      </trkpt>
      <trkpt lat="45.66446" lon="4.56962">
        <ele>737.338</ele>
        <time>2017-04-01T14:43:48Z</time>
      </trkpt>
      <trkpt lat="45.66427" lon="4.56896">
        <ele>735.813</ele>
        <time>2017-04-01T14:44:08Z</time>
      </trkpt>
      <trkpt lat="45.66407" lon="4.56728">
        <ele>732.354</ele>
        <time>2017-04-01T14:44:28Z</time>
      </trkpt>
      <trkpt lat="45.66407" lon="4.56662">
        <ele>731.589</ele>
        <time>2017-04-01T14:44:48Z</time>
      </trkpt>
      <trkpt lat="45.6635" lon="4.56505">
        <ele>735.758</ele>
        <time>2017-04-01T14:45:08Z</time>
      </trkpt>
      <trkpt lat="45.66323" lon="4.56393">
        <ele>734.891</ele>
        <time>2017-04-01T14:45:28Z</time>
      </trkpt>
      <trkpt lat="45.66301" lon="4.56344">
        <ele>735.968</ele>
        <time>2017-04-01T14:45:48Z</time>
      </trkpt>
      <trkpt lat="45.66296" lon="4.5629">
        <ele>737.022</ele>
        <time>2017-04-01T14:46:08Z</time>
      </trkpt>
      <trkpt lat="45.66162" lon="4.56312">
        <ele>733.581</ele>
        <time>2017-04-01T14:46:28Z</time>
      </trkpt>
      <trkpt lat="45.66082" lon="4.56347">
        <ele>735.061</ele>
        <time>2017-04-01T14:46:48Z</time>
      </trkpt>
      <trkpt lat="45.6593" lon="4.56425">
        <ele>729.517</ele>
        <time>2017-04-01T14:47:08Z</time>
      </trkpt>
      <trkpt lat="45.65864" lon="4.5648">
        <ele>728.008</ele>
        <time>2017-04-01T14:47:28Z</time>
      </trkpt>
      <trkpt lat="45.65869" lon="4.56456">
        <ele>727.024</ele>
        <time>2017-04-01T14:47:48Z</time>
      </trkpt>
      <trkpt lat="45.65761" lon="4.56494">
        <ele>730.139</ele>
        <time>2017-04-01T14:48:08Z</time>
      </trkpt>
      <trkpt lat="45.6552" lon="4.56668">
        <ele>767.49</ele>
        <time>2017-04-01T14:48:28Z</time>
      </trkpt>
      <trkpt lat="45.65426" lon="4.56643">
        <ele>780.555</ele>
        <time>2017-04-01T14:48:48Z</time>
      </trkpt>
      <trkpt lat="45.6539" lon="4.56678">
        <ele>785.144</ele>
        <time>2017-04-01T14:49:08Z</time>
      </trkpt>
      <trkpt lat="45.65342" lon="4.56641">
        <ele>786.887</ele>
        <time>2017-04-01T14:49:28Z</time>
      </trkpt>
      <trkpt lat="45.65189" lon="4.56667">
        <ele>788.964</ele>
        <time>2017-04-01T14:49:48Z</time>
      </trkpt>
      <trkpt lat="45.65134" lon="4.56661">
        <ele>793.988</ele>
        <time>2017-04-01T14:50:08Z</time>
      </trkpt>
      <trkpt lat="45.65093" lon="4.56702">
        <ele>795.427</ele>
        <time>2017-04-01T14:50:28Z</time>
      </trkpt>
      <trkpt lat="45.6499" lon="4.56816">
        <ele>800.468</ele>
        <time>2017-04-01T14:50:48Z</time>
      </trkpt>
      <trkpt lat="45.64891" lon="4.56997">
        <ele>805.014</ele>
        <time>2017-04-01T14:51:08Z</time>
      </trkpt>
      <trkpt lat="45.64852" lon="4.57043">
        <ele>805.508</ele>
        <time>2017-04-01T14:51:28Z</time>
      </trkpt>
      <trkpt lat="45.64801" lon="4.57121">
        <ele>806.188</ele>
        <time>2017-04-01T14:51:48Z</time>
      </trkpt>
      <trkpt lat="45.64753" lon="4.57168">
        <ele>808.023</ele>
        <time>2017-04-01T14:52:08Z</time>
      </trkpt>
      <trkpt lat="45.64612" lon="4.57267">
        <ele>806.444</ele>
        <time>2017-04-01T14:52:28Z</time>
      </trkpt>
      <trkpt lat="45.64462" lon="4.57383">
        <ele>799.189</ele>
        <time>2017-04-01T14:52:48Z</time>
      </trkpt>
      <trkpt lat="45.64428" lon="4.57384">
        <ele>794.758</ele>
        <time>2017-04-01T14:53:08Z</time>
      </trkpt>
      <trkpt lat="45.64388" lon="4.5737">
        <ele>790.681</ele>
        <time>2017-04-01T14:53:28Z</time>
      </trkpt>
      <trkpt lat="45.64371" lon="4.57388">
        <ele>788.768</ele>
        <time>2017-04-01T14:53:48Z</time>
      </trkpt>
      <trkpt lat="45.6435" lon="4.57414">
        <ele>784.922</ele>
        <time>2017-04-01T14:54:08Z</time>
      </trkpt>
      <trkpt lat="45.64285" lon="4.57427">
        <ele>779.646</ele>
        <time>2017-04-01T14:54:28Z</time>
      </trkpt>
      <trkpt lat="45.64296" lon="4.57463">
        <ele>784.588</ele>
        <time>2017-04-01T14:54:48Z</time>
      </trkpt>
      <trkpt lat="45.6433" lon="4.57522">
        <ele>789.716</ele>
        <time>2017-04-01T14:55:08Z</time>
      </trkpt>
      <trkpt lat="45.64344" lon="4.57579">
        <ele>792.308</ele>
        <time>2017-04-01T14:55:28Z</time>
      </trkpt>
      <trkpt lat="45.64322" lon="4.57756">
        <ele>806.06</ele>
        <time>2017-04-01T14:55:48Z</time>
      </trkpt>
      <trkpt lat="45.64335" lon="4.57949">
        <ele>818.175</ele>
        <time>2017-04-01T14:56:08Z</time>
      </trkpt>
      <trkpt lat="45.64326" lon="4.57963">
        <ele>821.646</ele>
        <time>2017-04-01T14:56:28Z</time>
      </trkpt>
      <trkpt lat="45.64259" lon="4.57973">
        <ele>833.761</ele>
        <time>2017-04-01T14:56:48Z</time>
      </trkpt>
      <trkpt lat="45.64245" lon="4.5799">
        <ele>837.04</ele>
        <time>2017-04-01T14:57:08Z</time>
      </trkpt>
      <trkpt lat="45.64245" lon="4.58008">
        <ele>838.333</ele>
        <time>2017-04-01T14:57:28Z</time>
      </trkpt>
      <trkpt lat="45.64228" lon="4.58025">
        <ele>842.77</ele>
        <time>2017-04-01T14:57:48Z</time>
      </trkpt>
      <trkpt lat="45.64218" lon="4.58045">
        <ele>846.484</ele>
        <time>2017-04-01T14:58:08Z</time>
      </trkpt>
      <trkpt lat="45.64221" lon="4.58103">
        <ele>849.779</ele>
        <time>2017-04-01T14:58:28Z</time>
      </trkpt>
      <trkpt lat="45.64196" lon="4.58236">
        <ele>858.005</ele>
        <time>2017-04-01T14:58:48Z</time>
      </trkpt>
      <trkpt lat="45.64194" lon="4.58276">
        <ele>858.225</ele>
        <time>2017-04-01T14:59:08Z</time>
      </trkpt>
      <trkpt lat="45.64157" lon="4.58428">
        <ele>856.108</ele>
        <time>2017-04-01T14:59:28Z</time>
      </trkpt>
      <trkpt lat="45.64211" lon="4.58535">
        <ele>845.183</ele>
        <time>2017-04-01T14:59:48Z</time>
      </trkpt>
      <trkpt lat="45.64206" lon="4.58616">
        <ele>848.368</ele>
        <time>2017-04-01T15:00:08Z</time>
      </trkpt>
      <trkpt lat="45.64218" lon="4.58655">
        <ele>847.459</ele>
        <time>2017-04-01T15:00:28Z</time>
      </trkpt>
      <trkpt lat="45.64252" lon="4.58694">
        <ele>843.884</ele>
        <time>2017-04-01T15:00:48Z</time>
      </trkpt>
      <trkpt lat="45.64243" lon="4.58742">
        <ele>847.273</ele>
        <time>2017-04-01T15:01:08Z</time>
      </trkpt>
      <trkpt lat="45.64223" lon="4.58762">
        <ele>850.896</ele>
        <time>2017-04-01T15:01:28Z</time>
      </trkpt>
      <trkpt lat="45.64105" lon="4.58814">
        <ele>867.643</ele>
        <time>2017-04-01T15:01:48Z</time>
      </trkpt>
      <trkpt lat="45.6408" lon="4.58798">
        <ele>871.627</ele>
        <time>2017-04-01T15:02:08Z</time>
      </trkpt>
      <trkpt lat="45.64048" lon="4.58881">
        <ele>884.149</ele>
        <time>2017-04-01T15:02:28Z</time>
      </trkpt>
      <trkpt lat="45.64051" lon="4.58945">
        <ele>886.402</ele>
        <time>2017-04-01T15:02:48Z</time>
      </trkpt>
      <trkpt lat="45.64038" lon="4.59028">
        <ele>889.322</ele>
        <time>2017-04-01T15:03:08Z</time>
      </trkpt>
      <trkpt lat="45.64018" lon="4.59062">
        <ele>893.808</ele>
        <time>2017-04-01T15:03:28Z</time>
      </trkpt>
      <trkpt lat="45.6399" lon="4.59119">
        <ele>902.71</ele>
        <time>2017-04-01T15:03:48Z</time>
      </trkpt>
      <trkpt lat="45.63977" lon="4.59126">
        <ele>905.915</ele>
        <time>2017-04-01T15:04:08Z</time>
      </trkpt>
      <trkpt lat="45.63947" lon="4.59161">
        <ele>911.626</ele>
        <time>2017-04-01T15:04:28Z</time>
      </trkpt>
      <trkpt lat="45.63983" lon="4.59324">
        <ele>917.661</ele>
        <time>2017-04-01T15:04:48Z</time>
      </trkpt>
      <trkpt lat="45.63956" lon="4.59413">
        <ele>923.69</ele>
        <time>2017-04-01T15:05:08Z</time>
      </trkpt>
      <trkpt lat="45.63925" lon="4.59417">
        <ele>926.873</ele>
        <time>2017-04-01T15:05:28Z</time>
      </trkpt>
      <trkpt lat="45.63895" lon="4.59452">
        <ele>926.46</ele>
        <time>2017-04-01T15:05:48Z</time>
      </trkpt>
      <trkpt lat="45.63867" lon="4.59455">
        <ele>925.624</ele>
        <time>2017-04-01T15:06:08Z</time>
      </trkpt>
      <trkpt lat="45.63808" lon="4.59454">
        <ele>921.618</ele>
        <time>2017-04-01T15:06:28Z</time>
      </trkpt>
      <trkpt lat="45.6376" lon="4.59388">
        <ele>926.598</ele>
        <time>2017-04-01T15:06:48Z</time>
      </trkpt>
      <trkpt lat="45.63724" lon="4.59348">
        <ele>921.817</ele>
        <time>2017-04-01T15:07:08Z</time>
      </trkpt>
      <trkpt lat="45.63715" lon="4.59316">
        <ele>920.008</ele>
        <time>2017-04-01T15:07:28Z</time>
      </trkpt>
      <trkpt lat="45.63687" lon="4.59264">
        <ele>908.257</ele>
        <time>2017-04-01T15:07:48Z</time>
      </trkpt>
      <trkpt lat="45.63684" lon="4.59224">
        <ele>903.592</ele>
        <time>2017-04-01T15:08:08Z</time>
      </trkpt>
      <trkpt lat="45.63672" lon="4.59207">
        <ele>899.523</ele>
        <time>2017-04-01T15:08:28Z</time>
      </trkpt>
      <trkpt lat="45.63657" lon="4.59174">
        <ele>894.048</ele>
        <time>2017-04-01T15:08:48Z</time>
      </trkpt>
      <trkpt lat="45.63634" lon="4.59194">
        <ele>890.357</ele>
        <time>2017-04-01T15:09:08Z</time>
      </trkpt>
      <trkpt lat="45.63621" lon="4.59212">
        <ele>888.59</ele>
        <time>2017-04-01T15:09:28Z</time>
      </trkpt>
      <trkpt lat="45.63578" lon="4.59256">
        <ele>881.727</ele>
        <time>2017-04-01T15:09:48Z</time>
      </trkpt>
      <trkpt lat="45.63565" lon="4.59277">
        <ele>878.461</ele>
        <time>2017-04-01T15:10:08Z</time>
      </trkpt>
      <trkpt lat="45.63541" lon="4.59351">
        <ele>867.644</ele>
        <time>2017-04-01T15:10:28Z</time>
      </trkpt>
      <trkpt lat="45.63508" lon="4.5942">
        <ele>855.705</ele>
        <time>2017-04-01T15:10:48Z</time>
      </trkpt>
      <trkpt lat="45.63506" lon="4.59456">
        <ele>855.015</ele>
        <time>2017-04-01T15:11:08Z</time>
      </trkpt>
      <trkpt lat="45.63514" lon="4.59483">
        <ele>856.108</ele>
        <time>2017-04-01T15:11:28Z</time>
      </trkpt>
      <trkpt lat="45.63524" lon="4.59572">
        <ele>858.85</ele>
        <time>2017-04-01T15:11:48Z</time>
      </trkpt>
      <trkpt lat="45.6356" lon="4.5962">
        <ele>861.425</ele>
        <time>2017-04-01T15:12:08Z</time>
      </trkpt>
      <trkpt lat="45.63575" lon="4.59675">
        <ele>860.766</ele>
        <time>2017-04-01T15:12:28Z</time>
      </trkpt>
      <trkpt lat="45.63527" lon="4.59675">
        <ele>864.651</ele>
        <time>2017-04-01T15:12:48Z</time>
      </trkpt>
      <trkpt lat="45.63475" lon="4.59655">
        <ele>863.61</ele>
        <time>2017-04-01T15:13:08Z</time>
      </trkpt>
      <trkpt lat="45.63315" lon="4.59667">
        <ele>869.413</ele>
        <time>2017-04-01T15:13:28Z</time>
      </trkpt>
      <trkpt lat="45.63179" lon="4.59701">
        <ele>872.14</ele>
        <time>2017-04-01T15:13:48Z</time>
      </trkpt>
      <trkpt lat="45.63116" lon="4.59689">
        <ele>871.094</ele>
        <time>2017-04-01T15:14:08Z</time>
      </trkpt>
      <trkpt lat="45.6308" lon="4.59774">
        <ele>868.731</ele>
        <time>2017-04-01T15:14:28Z</time>
      </trkpt>
      <trkpt lat="45.63039" lon="4.59838">
        <ele>858.961</ele>
        <time>2017-04-01T15:14:48Z</time>
      </trkpt>
      <trkpt lat="45.63016" lon="4.59943">
        <ele>852.507</ele>
        <time>2017-04-01T15:15:08Z</time>
      </trkpt>
      <trkpt lat="45.62982" lon="4.6004">
        <ele>843.408</ele>
        <time>2017-04-01T15:15:28Z</time>
      </trkpt>
      <trkpt lat="45.62958" lon="4.60042">
        <ele>841.739</ele>
        <time>2017-04-01T15:15:48Z</time>
      </trkpt>
      <trkpt lat="45.6293" lon="4.59999">
        <ele>839.984</ele>
        <time>2017-04-01T15:16:08Z</time>
      </trkpt>
      <trkpt lat="45.62863" lon="4.5999">
        <ele>836.025</ele>
        <time>2017-04-01T15:16:28Z</time>
      </trkpt>
      <trkpt lat="45.62613" lon="4.59991">
        <ele>821.59</ele>
        <time>2017-04-01T15:16:48Z</time>
      </trkpt>
      <trkpt lat="45.62488" lon="4.60041">
        <ele>827.219</ele>
        <time>2017-04-01T15:17:08Z</time>
      </trkpt>
      <trkpt lat="45.62448" lon="4.60038">
        <ele>823.912</ele>
        <time>2017-04-01T15:17:28Z</time>
      </trkpt>
      <trkpt lat="45.62348" lon="4.59928">
        <ele>825.459</ele>
        <time>2017-04-01T15:17:48Z</time>
      </trkpt>
      <trkpt lat="45.6229" lon="4.59827">
        <ele>832.613</ele>
        <time>2017-04-01T15:18:08Z</time>
      </trkpt>
      <trkpt lat="45.62223" lon="4.59722">
        <ele>840.672</ele>
        <time>2017-04-01T15:18:28Z</time>
      </trkpt>
      <trkpt lat="45.62224" lon="4.5963">
        <ele>843.713</ele>
        <time>2017-04-01T15:18:48Z</time>
      </trkpt>
      <trkpt lat="45.6221" lon="4.59551">
        <ele>846.514</ele>
        <time>2017-04-01T15:19:08Z</time>
      </trkpt>
      <trkpt lat="45.62186" lon="4.59495">
        <ele>853.608</ele>
        <time>2017-04-01T15:19:28Z</time>
      </trkpt>
      <trkpt lat="45.62056" lon="4.59355">
        <ele>865.623</ele>
        <time>2017-04-01T15:19:48Z</time>
      </trkpt>
      <trkpt lat="45.61994" lon="4.59329">
        <ele>868.858</ele>
        <time>2017-04-01T15:20:08Z</time>
      </trkpt>
      <trkpt lat="45.61936" lon="4.59354">
        <ele>866.379</ele>
        <time>2017-04-01T15:20:28Z</time>
      </trkpt>
      <trkpt lat="45.61894" lon="4.5935">
        <ele>861.254</ele>
        <time>2017-04-01T15:20:48Z</time>
      </trkpt>
      <trkpt lat="45.61811" lon="4.59361">
        <ele>858.123</ele>
        <time>2017-04-01T15:21:08Z</time>
      </trkpt>
      <trkpt lat="45.61755" lon="4.59353">
        <ele>857.176</ele>
        <time>2017-04-01T15:21:28Z</time>
      </trkpt>
      <trkpt lat="45.61673" lon="4.59337">
        <ele>857.163</ele>
        <time>2017-04-01T15:21:48Z</time>
      </trkpt>
      <trkpt lat="45.61598" lon="4.59329">
        <ele>857.927</ele>
        <time>2017-04-01T15:22:08Z</time>
      </trkpt>
      <trkpt lat="45.61529" lon="4.59317">
        <ele>852.762</ele>
        <time>2017-04-01T15:22:28Z</time>
      </trkpt>
      <trkpt lat="45.61448" lon="4.5931">
        <ele>847.583</ele>
        <time>2017-04-01T15:22:48Z</time>
      </trkpt>
      <trkpt lat="45.61389" lon="4.59296">
        <ele>842.811</ele>
        <time>2017-04-01T15:23:08Z</time>
      </trkpt>
      <trkpt lat="45.61266" lon="4.59247">
        <ele>832.208</ele>
        <time>2017-04-01T15:23:28Z</time>
      </trkpt>
      <trkpt lat="45.61234" lon="4.59249">
        <ele>826.152</ele>
        <time>2017-04-01T15:23:48Z</time>
      </trkpt>
      <trkpt lat="45.6113" lon="4.59128">
        <ele>803.867</ele>
        <time>2017-04-01T15:24:08Z</time>
      </trkpt>
      <trkpt lat="45.61082" lon="4.59099">
        <ele>794.328</ele>
        <time>2017-04-01T15:24:28Z</time>
      </trkpt>
      <trkpt lat="45.61037" lon="4.59057">
        <ele>788.753</ele>
        <time>2017-04-01T15:24:48Z</time>
      </trkpt>
      <trkpt lat="45.60891" lon="4.59024">
        <ele>772.312</ele>
        <time>2017-04-01T15:25:08Z</time>
      </trkpt>
      <trkpt lat="45.60854" lon="4.5903">
        <ele>767.535</ele>
        <time>2017-04-01T15:25:28Z</time>
      </trkpt>
      <trkpt lat="45.60833" lon="4.59002">
        <ele>766.082</ele>
        <time>2020-11-29T17:00:28Z</time>
      </trkpt>
      <trkpt lat="45.60781" lon="4.58988">
        <ele>764.056</ele>
        <time>2020-11-29T17:00:48Z</time>
      </trkpt>
      <trkpt lat="45.60699" lon="4.58903">
        <ele>772.583</ele>
        <time>2020-11-29T17:01:08Z</time>
      </trkpt>
      <trkpt lat="45.60646" lon="4.58778">
        <ele>778.825</ele>
        <time>2020-11-29T17:01:28Z</time>
      </trkpt>
      <trkpt lat="45.60535" lon="4.58666">
        <ele>775.517</ele>
        <time>2020-11-29T17:01:48Z</time>
      </trkpt>
      <trkpt lat="45.60467" lon="4.58461">
        <ele>771.208</ele>
        <time>2020-11-29T17:02:08Z</time>
      </trkpt>
      <trkpt lat="45.60422" lon="4.58364">
        <ele>766.824</ele>
        <time>2020-11-29T17:02:28Z</time>
      </trkpt>
      <trkpt lat="45.60386" lon="4.58276">
        <ele>761.739</ele>
        <time>2020-11-29T17:02:48Z</time>
      </trkpt>
      <trkpt lat="45.60348" lon="4.581">
        <ele>764.89</ele>
        <time>2020-11-29T17:03:08Z</time>
      </trkpt>
      <trkpt lat="45.6029" lon="4.57912">
        <ele>757.465</ele>
        <time>2020-11-29T17:03:28Z</time>
      </trkpt>
      <trkpt lat="45.60245" lon="4.57777">
        <ele>752.644</ele>
        <time>2020-11-29T17:03:48Z</time>
      </trkpt>
      <trkpt lat="45.60252" lon="4.57695">
        <ele>756.447</ele>
        <time>2020-11-29T17:04:08Z</time>
      </trkpt>
      <trkpt lat="45.60246" lon="4.57633">
        <ele>753.974</ele>
        <time>2020-11-29T17:04:28Z</time>
      </trkpt>
      <trkpt lat="45.60186" lon="4.57579">
        <ele>744.718</ele>
        <time>2020-11-29T17:04:48Z</time>
      </trkpt>
      <trkpt lat="45.60133" lon="4.57486">
        <ele>739.872</ele>
        <time>2020-11-29T17:05:08Z</time>
      </trkpt>
      <trkpt lat="45.60109" lon="4.57411">
        <ele>732.213</ele>
        <time>2020-11-29T17:05:28Z</time>
      </trkpt>
      <trkpt lat="45.60069" lon="4.57316">
        <ele>720.614</ele>
        <time>2020-11-29T17:05:48Z</time>
      </trkpt>
      <trkpt lat="45.60056" lon="4.5723">
        <ele>720.108</ele>
        <time>2020-11-29T17:06:08Z</time>
      </trkpt>
      <trkpt lat="45.60037" lon="4.57168">
        <ele>715.043</ele>
        <time>2020-11-29T17:06:28Z</time>
      </trkpt>
      <trkpt lat="45.6001" lon="4.57107">
        <ele>706.578</ele>
        <time>2020-11-29T17:06:48Z</time>
      </trkpt>
      <trkpt lat="45.59986" lon="4.57059">
        <ele>701.539</ele>
        <time>2020-11-29T17:07:08Z</time>
      </trkpt>
      <trkpt lat="45.59976" lon="4.57051">
        <ele>701.174</ele>
        <time>2020-11-29T17:07:28Z</time>
      </trkpt>
      <trkpt lat="45.59962" lon="4.57058">
        <ele>700.923</ele>
        <time>2020-11-29T17:07:48Z</time>
      </trkpt>
      <trkpt lat="45.59946" lon="4.57023">
        <ele>701.076</ele>
        <time>2020-11-29T17:08:08Z</time>
      </trkpt>
      <trkpt lat="45.59904" lon="4.57066">
        <ele>696.753</ele>
        <time>2020-11-29T17:08:28Z</time>
      </trkpt>
      <trkpt lat="45.59877" lon="4.57079">
        <ele>696.017</ele>
        <time>2020-11-29T17:08:48Z</time>
      </trkpt>
      <trkpt lat="45.59856" lon="4.57078">
        <ele>695.946</ele>
        <time>2020-11-29T17:09:08Z</time>
      </trkpt>
      <trkpt lat="45.59789" lon="4.5712">
        <ele>692.688</ele>
        <time>2017-04-01T15:36:48Z</time>
      </trkpt>
      <trkpt lat="45.59698" lon="4.571">
        <ele>693.516</ele>
        <time>2017-04-01T15:37:08Z</time>
      </trkpt>
      <trkpt lat="45.59593" lon="4.57102">
        <ele>696.508</ele>
        <time>2017-04-01T15:37:28Z</time>
      </trkpt>
      <trkpt lat="45.59475" lon="4.57082">
        <ele>708.41</ele>
        <time>2017-04-01T15:37:48Z</time>
      </trkpt>
      <trkpt lat="45.59444" lon="4.57109">
        <ele>713.115</ele>
        <time>2017-04-01T15:38:08Z</time>
      </trkpt>
      <trkpt lat="45.5942" lon="4.57113">
        <ele>718.126</ele>
        <time>2017-04-01T15:38:28Z</time>
      </trkpt>
      <trkpt lat="45.59413" lon="4.57105">
        <ele>720.151</ele>
        <time>2017-04-01T15:38:48Z</time>
      </trkpt>
      <trkpt lat="45.59412" lon="4.57077">
        <ele>721.11</ele>
        <time>2017-04-01T15:39:08Z</time>
      </trkpt>
      <trkpt lat="45.59405" lon="4.57054">
        <ele>722.513</ele>
        <time>2017-04-01T15:39:28Z</time>
      </trkpt>
      <trkpt lat="45.59358" lon="4.57002">
        <ele>726.44</ele>
        <time>2017-04-01T15:39:48Z</time>
      </trkpt>
      <trkpt lat="45.59297" lon="4.57158">
        <ele>744.174</ele>
        <time>2017-04-01T15:40:08Z</time>
      </trkpt>
      <trkpt lat="45.5918" lon="4.5721">
        <ele>755.112</ele>
        <time>2017-04-01T15:40:28Z</time>
      </trkpt>
      <trkpt lat="45.59145" lon="4.57165">
        <ele>754.732</ele>
        <time>2017-04-01T15:40:48Z</time>
      </trkpt>
      <trkpt lat="45.59127" lon="4.57163">
        <ele>758.305</ele>
        <time>2017-04-01T15:41:08Z</time>
      </trkpt>
      <trkpt lat="45.59078" lon="4.57206">
        <ele>770.508</ele>
        <time>2017-04-01T15:41:28Z</time>
      </trkpt>
      <trkpt lat="45.59046" lon="4.57223">
        <ele>774.427</ele>
        <time>2017-04-01T15:41:48Z</time>
      </trkpt>
      <trkpt lat="45.59013" lon="4.57245">
        <ele>777.852</ele>
        <time>2017-04-01T15:42:08Z</time>
      </trkpt>
      <trkpt lat="45.5898" lon="4.57257">
        <ele>781.993</ele>
        <time>2017-04-01T15:42:28Z</time>
      </trkpt>
      <trkpt lat="45.58955" lon="4.57275">
        <ele>785.428</ele>
        <time>2017-04-01T15:42:48Z</time>
      </trkpt>
      <trkpt lat="45.58911" lon="4.5727">
        <ele>795.867</ele>
        <time>2017-04-01T15:43:08Z</time>
      </trkpt>
      <trkpt lat="45.58871" lon="4.57275">
        <ele>803.02</ele>
        <time>2017-04-01T15:43:28Z</time>
      </trkpt>
      <trkpt lat="45.58836" lon="4.57263">
        <ele>804.957</ele>
        <time>2017-04-01T15:43:48Z</time>
      </trkpt>
      <trkpt lat="45.58789" lon="4.57276">
        <ele>809.921</ele>
        <time>2017-04-01T15:44:08Z</time>
      </trkpt>
      <trkpt lat="45.58718" lon="4.57242">
        <ele>814.389</ele>
        <time>2017-04-01T15:44:28Z</time>
      </trkpt>
      <trkpt lat="45.58687" lon="4.57216">
        <ele>813.106</ele>
        <time>2017-04-01T15:44:48Z</time>
      </trkpt>
      <trkpt lat="45.58627" lon="4.57133">
        <ele>817.126</ele>
        <time>2017-04-01T15:45:08Z</time>
      </trkpt>
      <trkpt lat="45.58604" lon="4.5708">
        <ele>819.908</ele>
        <time>2017-04-01T15:45:28Z</time>
      </trkpt>
      <trkpt lat="45.58563" lon="4.56996">
        <ele>815.664</ele>
        <time>2017-04-01T15:45:48Z</time>
      </trkpt>
      <trkpt lat="45.58534" lon="4.5698">
        <ele>811.469</ele>
        <time>2017-04-01T15:46:08Z</time>
      </trkpt>
      <trkpt lat="45.5848" lon="4.5693">
        <ele>805.26</ele>
        <time>2017-04-01T15:46:28Z</time>
      </trkpt>
      <trkpt lat="45.58454" lon="4.5693">
        <ele>803.895</ele>
        <time>2017-04-01T15:46:48Z</time>
      </trkpt>
      <trkpt lat="45.58436" lon="4.56902">
        <ele>801.734</ele>
        <time>2017-04-01T15:47:08Z</time>
      </trkpt>
      <trkpt lat="45.58397" lon="4.56866">
        <ele>798.147</ele>
        <time>2017-04-01T15:47:28Z</time>
      </trkpt>
      <trkpt lat="45.58371" lon="4.56855">
        <ele>796.674</ele>
        <time>2017-04-01T15:47:48Z</time>
      </trkpt>
      <trkpt lat="45.58364" lon="4.56841">
        <ele>796.148</ele>
        <time>2017-04-01T15:48:08Z</time>
      </trkpt>
      <trkpt lat="45.58361" lon="4.56809">
        <ele>796.055</ele>
        <time>2017-04-01T15:48:28Z</time>
      </trkpt>
      <trkpt lat="45.5837" lon="4.56781">
        <ele>797.807</ele>
        <time>2017-04-01T15:48:48Z</time>
      </trkpt>
      <trkpt lat="45.5837" lon="4.56756">
        <ele>801.217</ele>
        <time>2017-04-01T15:49:08Z</time>
      </trkpt>
      <trkpt lat="45.58347" lon="4.56692">
        <ele>808.908</ele>
        <time>2017-04-01T15:49:28Z</time>
      </trkpt>
      <trkpt lat="45.5832" lon="4.56667">
        <ele>813.541</ele>
        <time>2017-04-01T15:49:48Z</time>
      </trkpt>
      <trkpt lat="45.5829" lon="4.56621">
        <ele>817.196</ele>
        <time>2017-04-01T15:50:08Z</time>
      </trkpt>
      <trkpt lat="45.58229" lon="4.5652">
        <ele>824.987</ele>
        <time>2017-04-01T15:50:28Z</time>
      </trkpt>
      <trkpt lat="45.58214" lon="4.56474">
        <ele>826.932</ele>
        <time>2017-04-01T15:50:48Z</time>
      </trkpt>
      <trkpt lat="45.58184" lon="4.56448">
        <ele>828.151</ele>
        <time>2017-04-01T15:51:08Z</time>
      </trkpt>
      <trkpt lat="45.58159" lon="4.56398">
        <ele>829.424</ele>
        <time>2017-04-01T15:51:28Z</time>
      </trkpt>
      <trkpt lat="45.58137" lon="4.56399">
        <ele>829.511</ele>
        <time>2017-04-01T15:51:48Z</time>
      </trkpt>
      <trkpt lat="45.58126" lon="4.56388">
        <ele>829.665</ele>
        <time>2017-04-01T15:52:08Z</time>
      </trkpt>
      <trkpt lat="45.58091" lon="4.56292">
        <ele>832.313</ele>
        <time>2017-04-01T15:52:28Z</time>
      </trkpt>
      <trkpt lat="45.58048" lon="4.56198">
        <ele>831.243</ele>
        <time>2017-04-01T15:52:48Z</time>
      </trkpt>
      <trkpt lat="45.58037" lon="4.56139">
        <ele>828.707</ele>
        <time>2017-04-01T15:53:08Z</time>
      </trkpt>
      <trkpt lat="45.58034" lon="4.56082">
        <ele>825.208</ele>
        <time>2017-04-01T15:53:28Z</time>
      </trkpt>
      <trkpt lat="45.58042" lon="4.56067">
        <ele>825.217</ele>
        <time>2017-04-01T15:53:48Z</time>
      </trkpt>
      <trkpt lat="45.58035" lon="4.56027">
        <ele>825.112</ele>
        <time>2017-04-01T15:54:08Z</time>
      </trkpt>
      <trkpt lat="45.58021" lon="4.55988">
        <ele>823.773</ele>
        <time>2017-04-01T15:54:28Z</time>
      </trkpt>
      <trkpt lat="45.58011" lon="4.55944">
        <ele>821.488</ele>
        <time>2017-04-01T15:54:48Z</time>
      </trkpt>
      <trkpt lat="45.57987" lon="4.55864">
        <ele>814.357</ele>
        <time>2017-04-01T15:55:08Z</time>
      </trkpt>
      <trkpt lat="45.57985" lon="4.55817">
        <ele>811.69</ele>
        <time>2017-04-01T15:55:28Z</time>
      </trkpt>
      <trkpt lat="45.57966" lon="4.5575">
        <ele>810.667</ele>
        <time>2017-04-01T15:55:48Z</time>
      </trkpt>
      <trkpt lat="45.57953" lon="4.55685">
        <ele>809.441</ele>
        <time>2017-04-01T15:56:08Z</time>
      </trkpt>
      <trkpt lat="45.57919" lon="4.55574">
        <ele>804.342</ele>
        <time>2017-04-01T15:56:28Z</time>
      </trkpt>
      <trkpt lat="45.57917" lon="4.55533">
        <ele>806.622</ele>
        <time>2017-04-01T15:56:48Z</time>
      </trkpt>
      <trkpt lat="45.57907" lon="4.55503">
        <ele>808.214</ele>
        <time>2017-04-01T15:57:08Z</time>
      </trkpt>
      <trkpt lat="45.57902" lon="4.5546">
        <ele>808.508</ele>
        <time>2017-04-01T15:57:28Z</time>
      </trkpt>
      <trkpt lat="45.57897" lon="4.55444">
        <ele>808.78</ele>
        <time>2017-04-01T15:57:48Z</time>
      </trkpt>
      <trkpt lat="45.57873" lon="4.55405">
        <ele>808.215</ele>
        <time>2017-04-01T15:58:08Z</time>
      </trkpt>
      <trkpt lat="45.57859" lon="4.55357">
        <ele>809.986</ele>
        <time>2017-04-01T15:58:28Z</time>
      </trkpt>
      <trkpt lat="45.57854" lon="4.55325">
        <ele>810.371</ele>
        <time>2017-04-01T15:58:48Z</time>
      </trkpt>
      <trkpt lat="45.57847" lon="4.55242">
        <ele>813.54</ele>
        <time>2017-04-01T15:59:08Z</time>
      </trkpt>
      <trkpt lat="45.57851" lon="4.55205">
        <ele>814.823</ele>
        <time>2017-04-01T15:59:28Z</time>
      </trkpt>
      <trkpt lat="45.57855" lon="4.5513">
        <ele>818.95</ele>
        <time>2017-04-01T15:59:48Z</time>
      </trkpt>
      <trkpt lat="45.57891" lon="4.5497">
        <ele>821.914</ele>
        <time>2017-04-01T16:00:08Z</time>
      </trkpt>
      <trkpt lat="45.57897" lon="4.54835">
        <ele>828.629</ele>
        <time>2017-04-01T16:00:28Z</time>
      </trkpt>
      <trkpt lat="45.57896" lon="4.54784">
        <ele>830.2</ele>
        <time>2017-04-01T16:00:48Z</time>
      </trkpt>
      <trkpt lat="45.57903" lon="4.54652">
        <ele>842.22</ele>
        <time>2017-04-01T16:01:08Z</time>
      </trkpt>
      <trkpt lat="45.57904" lon="4.54589">
        <ele>844.908</ele>
        <time>2017-04-01T16:01:28Z</time>
      </trkpt>
      <trkpt lat="45.57887" lon="4.54497">
        <ele>842.118</ele>
        <time>2017-04-01T16:01:48Z</time>
      </trkpt>
      <trkpt lat="45.57833" lon="4.54391">
        <ele>847.483</ele>
        <time>2017-04-01T16:02:08Z</time>
      </trkpt>
      <trkpt lat="45.57677" lon="4.54228">
        <ele>850.044</ele>
        <time>2017-04-01T16:02:28Z</time>
      </trkpt>
      <trkpt lat="45.57657" lon="4.54214">
        <ele>851.549</ele>
        <time>2017-04-01T16:02:48Z</time>
      </trkpt>
      <trkpt lat="45.5761" lon="4.54161">
        <ele>852.978</ele>
        <time>2017-04-01T16:03:08Z</time>
      </trkpt>
      <trkpt lat="45.57588" lon="4.54106">
        <ele>853.521</ele>
        <time>2017-04-01T16:03:28Z</time>
      </trkpt>
      <trkpt lat="45.57575" lon="4.54035">
        <ele>852.138</ele>
        <time>2017-04-01T16:03:48Z</time>
      </trkpt>
      <trkpt lat="45.57546" lon="4.53955">
        <ele>854.762</ele>
        <time>2017-04-01T16:04:08Z</time>
      </trkpt>
      <trkpt lat="45.57508" lon="4.53879">
        <ele>856.085</ele>
        <time>2017-04-01T16:04:28Z</time>
      </trkpt>
      <trkpt lat="45.57481" lon="4.53834">
        <ele>859.489</ele>
        <time>2017-04-01T16:04:48Z</time>
      </trkpt>
      <trkpt lat="45.57464" lon="4.53797">
        <ele>860.417</ele>
        <time>2017-04-01T16:05:08Z</time>
      </trkpt>
      <trkpt lat="45.57434" lon="4.53754">
        <ele>863.308</ele>
        <time>2017-04-01T16:05:28Z</time>
      </trkpt>
      <trkpt lat="45.57374" lon="4.53679">
        <ele>866.064</ele>
        <time>2017-04-01T16:05:48Z</time>
      </trkpt>
      <trkpt lat="45.57328" lon="4.53582">
        <ele>865.129</ele>
        <time>2017-04-01T16:06:08Z</time>
      </trkpt>
      <trkpt lat="45.57324" lon="4.53537">
        <ele>867.68</ele>
        <time>2017-04-01T16:06:28Z</time>
      </trkpt>
      <trkpt lat="45.57285" lon="4.53451">
        <ele>867.545</ele>
        <time>2017-04-01T16:06:48Z</time>
      </trkpt>
      <trkpt lat="45.57269" lon="4.53365">
        <ele>870.144</ele>
        <time>2017-04-01T16:07:08Z</time>
      </trkpt>
      <trkpt lat="45.57285" lon="4.53267">
        <ele>870.077</ele>
        <time>2017-04-01T16:07:28Z</time>
      </trkpt>
      <trkpt lat="45.57289" lon="4.53079">
        <ele>872.674</ele>
        <time>2017-04-01T16:07:48Z</time>
      </trkpt>
      <trkpt lat="45.57279" lon="4.52943">
        <ele>876.218</ele>
        <time>2017-04-01T16:08:08Z</time>
      </trkpt>
      <trkpt lat="45.57261" lon="4.52874">
        <ele>876.439</ele>
        <time>2017-04-01T16:08:28Z</time>
      </trkpt>
      <trkpt lat="45.57274" lon="4.52811">
        <ele>878.201</ele>
        <time>2017-04-01T16:08:48Z</time>
      </trkpt>
      <trkpt lat="45.57304" lon="4.52739">
        <ele>870.921</ele>
        <time>2017-04-01T16:09:08Z</time>
      </trkpt>
      <trkpt lat="45.57344" lon="4.52614">
        <ele>854.308</ele>
        <time>2017-04-01T16:09:28Z</time>
      </trkpt>
      <trkpt lat="45.57335" lon="4.52556">
        <ele>854.849</ele>
        <time>2017-04-01T16:09:48Z</time>
      </trkpt>
      <trkpt lat="45.57324" lon="4.52528">
        <ele>856.034</ele>
        <time>2017-04-01T16:10:08Z</time>
      </trkpt>
      <trkpt lat="45.57314" lon="4.52476">
        <ele>851.915</ele>
        <time>2017-04-01T16:10:28Z</time>
      </trkpt>
      <trkpt lat="45.57247" lon="4.52418">
        <ele>852.65</ele>
        <time>2017-04-01T16:10:48Z</time>
      </trkpt>
      <trkpt lat="45.57165" lon="4.5219">
        <ele>855.339</ele>
        <time>2017-04-01T16:11:08Z</time>
      </trkpt>
      <trkpt lat="45.57161" lon="4.5213">
        <ele>858.082</ele>
        <time>2017-04-01T16:11:28Z</time>
      </trkpt>
      <trkpt lat="45.57184" lon="4.51992">
        <ele>864.039</ele>
        <time>2017-04-01T16:11:48Z</time>
      </trkpt>
      <trkpt lat="45.57217" lon="4.51851">
        <ele>868.983</ele>
        <time>2017-04-01T16:12:08Z</time>
      </trkpt>
      <trkpt lat="45.57212" lon="4.51804">
        <ele>871.332</ele>
        <time>2017-04-01T16:12:28Z</time>
      </trkpt>
      <trkpt lat="45.57103" lon="4.5165">
        <ele>862.892</ele>
        <time>2017-04-01T16:12:48Z</time>
      </trkpt>
      <trkpt lat="45.57042" lon="4.51514">
        <ele>860.811</ele>
        <time>2017-04-01T16:13:08Z</time>
      </trkpt>
      <trkpt lat="45.57019" lon="4.5141">
        <ele>862.208</ele>
        <time>2017-04-01T16:13:28Z</time>
      </trkpt>
      <trkpt lat="45.57029" lon="4.51313">
        <ele>865.779</ele>
        <time>2017-04-01T16:13:48Z</time>
      </trkpt>
      <trkpt lat="45.57027" lon="4.51225">
        <ele>869.084</ele>
        <time>2017-04-01T16:14:08Z</time>
      </trkpt>
      <trkpt lat="45.56984" lon="4.51044">
        <ele>863.985</ele>
        <time>2017-04-01T16:14:28Z</time>
      </trkpt>
      <trkpt lat="45.56968" lon="4.50889">
        <ele>865.06</ele>
        <time>2017-04-01T16:14:48Z</time>
      </trkpt>
      <trkpt lat="45.56928" lon="4.5076">
        <ele>875.439</ele>
        <time>2017-04-01T16:15:08Z</time>
      </trkpt>
      <trkpt lat="45.56925" lon="4.50654">
        <ele>879.382</ele>
        <time>2017-04-01T16:15:28Z</time>
      </trkpt>
      <trkpt lat="45.56886" lon="4.50482">
        <ele>865.189</ele>
        <time>2017-04-01T16:15:48Z</time>
      </trkpt>
      <trkpt lat="45.56871" lon="4.5033">
        <ele>844.383</ele>
        <time>2017-04-01T16:16:08Z</time>
      </trkpt>
      <trkpt lat="45.56874" lon="4.50277">
        <ele>843.333</ele>
        <time>2017-04-01T16:16:28Z</time>
      </trkpt>
      <trkpt lat="45.56863" lon="4.50221">
        <ele>837.023</ele>
        <time>2017-04-01T16:16:48Z</time>
      </trkpt>
      <trkpt lat="45.5678" lon="4.50082">
        <ele>826.815</ele>
        <time>2017-04-01T16:17:08Z</time>
      </trkpt>
      <trkpt lat="45.5666" lon="4.49953">
        <ele>825.408</ele>
        <time>2017-04-01T16:17:28Z</time>
      </trkpt>
      <trkpt lat="45.56506" lon="4.49831">
        <ele>833.369</ele>
        <time>2017-04-01T16:17:48Z</time>
      </trkpt>
      <trkpt lat="45.56467" lon="4.49807">
        <ele>830.234</ele>
        <time>2017-04-01T16:18:08Z</time>
      </trkpt>
      <trkpt lat="45.56404" lon="4.49739">
        <ele>833.745</ele>
        <time>2017-04-01T16:18:28Z</time>
      </trkpt>
      <trkpt lat="45.56107" lon="4.49503">
        <ele>834.77</ele>
        <time>2017-04-01T16:18:48Z</time>
      </trkpt>
      <trkpt lat="45.56044" lon="4.49478">
        <ele>838.539</ele>
        <time>2017-04-01T16:19:08Z</time>
      </trkpt>
      <trkpt lat="45.56007" lon="4.49486">
        <ele>842.062</ele>
        <time>2017-04-01T16:19:28Z</time>
      </trkpt>
      <trkpt lat="45.55945" lon="4.49486">
        <ele>842.549</ele>
        <time>2017-04-01T16:19:48Z</time>
      </trkpt>
      <trkpt lat="45.55882" lon="4.49507">
        <ele>843.793</ele>
        <time>2017-04-01T16:20:08Z</time>
      </trkpt>
      <trkpt lat="45.55836" lon="4.49547">
        <ele>847.086</ele>
        <time>2017-04-01T16:20:28Z</time>
      </trkpt>
      <trkpt lat="45.55771" lon="4.49594">
        <ele>853.86</ele>
        <time>2017-04-01T16:20:48Z</time>
      </trkpt>
      <trkpt lat="45.55632" lon="4.49598">
        <ele>864.026</ele>
        <time>2017-04-01T16:21:08Z</time>
      </trkpt>
      <trkpt lat="45.55582" lon="4.49577">
        <ele>862.408</ele>
        <time>2017-04-01T16:21:28Z</time>
      </trkpt>
      <trkpt lat="45.55526" lon="4.49546">
        <ele>862.434</ele>
        <time>2017-04-01T16:21:48Z</time>
      </trkpt>
      <trkpt lat="45.55416" lon="4.49505">
        <ele>860.079</ele>
        <time>2017-04-01T16:22:08Z</time>
      </trkpt>
      <trkpt lat="45.55384" lon="4.49466">
        <ele>858.99</ele>
        <time>2017-04-01T16:22:28Z</time>
      </trkpt>
      <trkpt lat="45.55245" lon="4.49439">
        <ele>855.355</ele>
        <time>2017-04-01T16:22:48Z</time>
      </trkpt>
      <trkpt lat="45.55185" lon="4.4942">
        <ele>853.854</ele>
        <time>2017-04-01T16:23:08Z</time>
      </trkpt>
      <trkpt lat="45.55109" lon="4.4944">
        <ele>841.867</ele>
        <time>2017-04-01T16:23:28Z</time>
      </trkpt>
      <trkpt lat="45.55043" lon="4.49518">
        <ele>827.214</ele>
        <time>2017-04-01T16:23:48Z</time>
      </trkpt>
      <trkpt lat="45.54952" lon="4.49612">
        <ele>805.538</ele>
        <time>2017-04-01T16:24:08Z</time>
      </trkpt>
      <trkpt lat="45.54909" lon="4.4964">
        <ele>795.932</ele>
        <time>2017-04-01T16:24:28Z</time>
      </trkpt>
      <trkpt lat="45.54822" lon="4.49657">
        <ele>784.692</ele>
        <time>2017-04-01T16:24:48Z</time>
      </trkpt>
      <trkpt lat="45.54729" lon="4.49661">
        <ele>774.511</ele>
        <time>2017-04-01T16:25:08Z</time>
      </trkpt>
      <trkpt lat="45.54684" lon="4.49653">
        <ele>771.608</ele>
        <time>2017-04-01T16:25:28Z</time>
      </trkpt>
      <trkpt lat="45.54647" lon="4.4967">
        <ele>771.389</ele>
        <time>2017-04-01T16:25:48Z</time>
      </trkpt>
      <trkpt lat="45.54618" lon="4.49657">
        <ele>771.024</ele>
        <time>2017-04-01T16:26:08Z</time>
      </trkpt>
      <trkpt lat="45.54483" lon="4.49654">
        <ele>765.365</ele>
        <time>2017-04-01T16:26:28Z</time>
      </trkpt>
      <trkpt lat="45.54415" lon="4.49618">
        <ele>766.39</ele>
        <time>2017-04-01T16:26:48Z</time>
      </trkpt>
      <trkpt lat="45.54332" lon="4.49541">
        <ele>766.049</ele>
        <time>2017-04-01T16:27:08Z</time>
      </trkpt>
      <trkpt lat="45.54299" lon="4.49514">
        <ele>768.942</ele>
        <time>2017-04-01T16:27:28Z</time>
      </trkpt>
      <trkpt lat="45.54211" lon="4.49408">
        <ele>770.099</ele>
        <time>2017-04-01T16:27:48Z</time>
      </trkpt>
      <trkpt lat="45.54084" lon="4.49287">
        <ele>774.613</ele>
        <time>2017-04-01T16:28:08Z</time>
      </trkpt>
      <trkpt lat="45.54035" lon="4.49257">
        <ele>775.136</ele>
        <time>2017-04-01T16:28:28Z</time>
      </trkpt>
      <trkpt lat="45.53956" lon="4.49187">
        <ele>773.517</ele>
        <time>2017-04-01T16:28:48Z</time>
      </trkpt>
      <trkpt lat="45.53824" lon="4.49061">
        <ele>771.918</ele>
        <time>2017-04-01T16:29:08Z</time>
      </trkpt>
      <trkpt lat="45.53766" lon="4.49026">
        <ele>764.508</ele>
        <time>2017-04-01T16:29:28Z</time>
      </trkpt>
      <trkpt lat="45.53705" lon="4.48979">
        <ele>763.699</ele>
        <time>2017-04-01T16:29:48Z</time>
      </trkpt>
      <trkpt lat="45.53668" lon="4.48925">
        <ele>763.574</ele>
        <time>2017-04-01T16:30:08Z</time>
      </trkpt>
      <trkpt lat="45.53642" lon="4.48861">
        <ele>764.235</ele>
        <time>2017-04-01T16:30:28Z</time>
      </trkpt>
      <trkpt lat="45.53595" lon="4.48817">
        <ele>757.64</ele>
        <time>2017-04-01T16:30:48Z</time>
      </trkpt>
      <trkpt lat="45.53518" lon="4.48703">
        <ele>752.919</ele>
        <time>2017-04-01T16:31:08Z</time>
      </trkpt>
      <trkpt lat="45.53484" lon="4.48677">
        <ele>752.092</ele>
        <time>2017-04-01T16:31:28Z</time>
      </trkpt>
      <trkpt lat="45.53448" lon="4.48622">
        <ele>754.449</ele>
        <time>2017-04-01T16:31:48Z</time>
      </trkpt>
      <trkpt lat="45.53429" lon="4.4862">
        <ele>756.133</ele>
        <time>2017-04-01T16:32:08Z</time>
      </trkpt>
      <trkpt lat="45.5336" lon="4.48659">
        <ele>756.746</ele>
        <time>2017-04-01T16:32:28Z</time>
      </trkpt>
      <trkpt lat="45.53336" lon="4.48697">
        <ele>756.088</ele>
        <time>2017-04-01T16:32:48Z</time>
      </trkpt>
      <trkpt lat="45.5331" lon="4.48758">
        <ele>756.516</ele>
        <time>2017-04-01T16:33:08Z</time>
      </trkpt>
      <trkpt lat="45.5327" lon="4.48821">
        <ele>751.608</ele>
        <time>2017-04-01T16:33:28Z</time>
      </trkpt>
      <trkpt lat="45.53236" lon="4.48843">
        <ele>748.84</ele>
        <time>2017-04-01T16:33:48Z</time>
      </trkpt>
      <trkpt lat="45.53144" lon="4.48882">
        <ele>742.895</ele>
        <time>2017-04-01T16:34:08Z</time>
      </trkpt>
      <trkpt lat="45.53094" lon="4.48884">
        <ele>741.996</ele>
        <time>2017-04-01T16:34:28Z</time>
      </trkpt>
      <trkpt lat="45.53051" lon="4.48877">
        <ele>738.391</ele>
        <time>2017-04-01T16:34:48Z</time>
      </trkpt>
      <trkpt lat="45.52967" lon="4.48884">
        <ele>732.33</ele>
        <time>2017-04-01T16:35:08Z</time>
      </trkpt>
      <trkpt lat="45.52861" lon="4.48935">
        <ele>728.063</ele>
        <time>2017-04-01T16:35:28Z</time>
      </trkpt>
      <trkpt lat="45.52782" lon="4.48933">
        <ele>729.12</ele>
        <time>2017-04-01T16:35:48Z</time>
      </trkpt>
      <trkpt lat="45.5268" lon="4.48926">
        <ele>728.334</ele>
        <time>2017-04-01T16:36:08Z</time>
      </trkpt>
      <trkpt lat="45.52505" lon="4.4886">
        <ele>744.457</ele>
        <time>2017-04-01T16:36:28Z</time>
      </trkpt>
      <trkpt lat="45.52478" lon="4.48859">
        <ele>748</ele>
        <time>2017-04-01T16:36:48Z</time>
      </trkpt>
      <trkpt lat="45.52416" lon="4.48891">
        <ele>751.92</ele>
        <time>2017-04-01T16:37:08Z</time>
      </trkpt>
      <trkpt lat="45.52349" lon="4.48865">
        <ele>749.908</ele>
        <time>2017-04-01T16:37:28Z</time>
      </trkpt>
      <trkpt lat="45.52277" lon="4.48855">
        <ele>752.771</ele>
        <time>2017-04-01T16:37:48Z</time>
      </trkpt>
      <trkpt lat="45.52197" lon="4.48804">
        <ele>750.876</ele>
        <time>2017-04-01T16:38:08Z</time>
      </trkpt>
      <trkpt lat="45.52163" lon="4.48803">
        <ele>752.447</ele>
        <time>2017-04-01T16:38:28Z</time>
      </trkpt>
      <trkpt lat="45.52085" lon="4.48828">
        <ele>757.642</ele>
        <time>2017-04-01T16:38:48Z</time>
      </trkpt>
      <trkpt lat="45.52045" lon="4.48845">
        <ele>759.951</ele>
        <time>2017-04-01T16:39:08Z</time>
      </trkpt>
      <trkpt lat="45.51964" lon="4.48873">
        <ele>772.874</ele>
        <time>2017-04-01T16:39:28Z</time>
      </trkpt>
      <trkpt lat="45.51925" lon="4.48911">
        <ele>772.991</ele>
        <time>2017-04-01T16:39:48Z</time>
      </trkpt>
      <trkpt lat="45.51873" lon="4.4894">
        <ele>769.945</ele>
        <time>2017-04-01T16:40:08Z</time>
      </trkpt>
      <trkpt lat="45.51833" lon="4.4898">
        <ele>774.191</ele>
        <time>2017-04-01T16:40:28Z</time>
      </trkpt>
      <trkpt lat="45.51702" lon="4.48987">
        <ele>788.281</ele>
        <time>2017-04-01T16:40:48Z</time>
      </trkpt>
      <trkpt lat="45.51669" lon="4.48995">
        <ele>788.919</ele>
        <time>2017-04-01T16:41:08Z</time>
      </trkpt>
      <trkpt lat="45.51635" lon="4.49009">
        <ele>789.608</ele>
        <time>2017-04-01T16:41:28Z</time>
      </trkpt>
      <trkpt lat="45.51635" lon="4.49106">
        <ele>794.895</ele>
        <time>2017-04-01T16:41:48Z</time>
      </trkpt>
      <trkpt lat="45.51619" lon="4.49184">
        <ele>794.18</ele>
        <time>2017-04-01T16:42:08Z</time>
      </trkpt>
      <trkpt lat="45.51614" lon="4.49269">
        <ele>794.771</ele>
        <time>2017-04-01T16:42:28Z</time>
      </trkpt>
      <trkpt lat="45.5164" lon="4.49392">
        <ele>793.976</ele>
        <time>2017-04-01T16:42:48Z</time>
      </trkpt>
      <trkpt lat="45.51684" lon="4.49518">
        <ele>790.135</ele>
        <time>2017-04-01T16:43:08Z</time>
      </trkpt>
      <trkpt lat="45.51708" lon="4.49563">
        <ele>790.238</ele>
        <time>2017-04-01T16:43:28Z</time>
      </trkpt>
      <trkpt lat="45.51725" lon="4.49624">
        <ele>795.075</ele>
        <time>2017-04-01T16:43:48Z</time>
      </trkpt>
      <trkpt lat="45.51714" lon="4.49702">
        <ele>796.029</ele>
        <time>2017-04-01T16:44:08Z</time>
      </trkpt>
      <trkpt lat="45.51714" lon="4.49741">
        <ele>795.834</ele>
        <time>2017-04-01T16:44:28Z</time>
      </trkpt>
      <trkpt lat="45.51724" lon="4.49808">
        <ele>799.555</ele>
        <time>2017-04-01T16:44:48Z</time>
      </trkpt>
      <trkpt lat="45.51758" lon="4.49923">
        <ele>796.61</ele>
        <time>2017-04-01T16:45:08Z</time>
      </trkpt>
      <trkpt lat="45.51773" lon="4.49953">
        <ele>792.408</ele>
        <time>2017-04-01T16:45:28Z</time>
      </trkpt>
      <trkpt lat="45.51795" lon="4.49978">
        <ele>787.569</ele>
        <time>2017-04-01T16:45:48Z</time>
      </trkpt>
      <trkpt lat="45.51846" lon="4.5">
        <ele>781.224</ele>
        <time>2017-04-01T16:46:08Z</time>
      </trkpt>
      <trkpt lat="45.5187" lon="4.50029">
        <ele>776.175</ele>
        <time>2017-04-01T16:46:28Z</time>
      </trkpt>
      <trkpt lat="45.51891" lon="4.50062">
        <ele>773.34</ele>
        <time>2017-04-01T16:46:48Z</time>
      </trkpt>
      <trkpt lat="45.51931" lon="4.50148">
        <ele>764.719</ele>
        <time>2017-04-01T16:47:08Z</time>
      </trkpt>
      <trkpt lat="45.51949" lon="4.50169">
        <ele>763.672</ele>
        <time>2017-04-01T16:47:28Z</time>
      </trkpt>
      <trkpt lat="45.52013" lon="4.50182">
        <ele>757.059</ele>
        <time>2017-04-01T16:47:48Z</time>
      </trkpt>
      <trkpt lat="45.52021" lon="4.50199">
        <ele>757.143</ele>
        <time>2017-04-01T16:48:08Z</time>
      </trkpt>
      <trkpt lat="45.51965" lon="4.50231">
        <ele>756.318</ele>
        <time>2017-04-01T16:48:28Z</time>
      </trkpt>
      <trkpt lat="45.5192" lon="4.50228">
        <ele>752.598</ele>
        <time>2017-04-01T16:48:48Z</time>
      </trkpt>
      <trkpt lat="45.51873" lon="4.50179">
        <ele>750.417</ele>
        <time>2017-04-01T16:49:08Z</time>
      </trkpt>
      <trkpt lat="45.51849" lon="4.50159">
        <ele>750.508</ele>
        <time>2017-04-01T16:49:28Z</time>
      </trkpt>
      <trkpt lat="45.51823" lon="4.50148">
        <ele>749.317</ele>
        <time>2017-04-01T16:49:48Z</time>
      </trkpt>
      <trkpt lat="45.51691" lon="4.50159">
        <ele>742.162</ele>
        <time>2017-04-01T16:50:08Z</time>
      </trkpt>
      <trkpt lat="45.51616" lon="4.50181">
        <ele>724.883</ele>
        <time>2017-04-01T16:50:28Z</time>
      </trkpt>
      <trkpt lat="45.51573" lon="4.50186">
        <ele>719.958</ele>
        <time>2017-04-01T16:50:48Z</time>
      </trkpt>
      <trkpt lat="45.51541" lon="4.50208">
        <ele>712.967</ele>
        <time>2017-04-01T16:51:08Z</time>
      </trkpt>
      <trkpt lat="45.51497" lon="4.50254">
        <ele>702.16</ele>
        <time>2017-04-01T16:51:28Z</time>
      </trkpt>
      <trkpt lat="45.51491" lon="4.50255">
        <ele>701.057</ele>
        <time>2017-04-01T16:51:48Z</time>
      </trkpt>
      <trkpt lat="45.51463" lon="4.5028">
        <ele>695.531</ele>
        <time>2017-04-01T16:52:08Z</time>
      </trkpt>
      <trkpt lat="45.5139" lon="4.50409">
        <ele>672.494</ele>
        <time>2017-04-01T16:52:28Z</time>
      </trkpt>
      <trkpt lat="45.51334" lon="4.50472">
        <ele>657.257</ele>
        <time>2017-04-01T16:52:48Z</time>
      </trkpt>
      <trkpt lat="45.5132" lon="4.50482">
        <ele>653.122</ele>
        <time>2017-04-01T16:53:08Z</time>
      </trkpt>
      <trkpt lat="45.51305" lon="4.50503">
        <ele>648.708</ele>
        <time>2017-04-01T16:53:28Z</time>
      </trkpt>
      <trkpt lat="45.51282" lon="4.50514">
        <ele>642.445</ele>
        <time>2017-04-01T16:53:48Z</time>
      </trkpt>
      <trkpt lat="45.51257" lon="4.50537">
        <ele>635.59</ele>
        <time>2017-04-01T16:54:08Z</time>
      </trkpt>
      <trkpt lat="45.51208" lon="4.50556">
        <ele>623.471</ele>
        <time>2017-04-01T16:54:28Z</time>
      </trkpt>
      <trkpt lat="45.5119" lon="4.50587">
        <ele>616.936</ele>
        <time>2017-04-01T16:54:48Z</time>
      </trkpt>
      <trkpt lat="45.51163" lon="4.50612">
        <ele>609.765</ele>
        <time>2017-04-01T16:55:08Z</time>
      </trkpt>
      <trkpt lat="45.51148" lon="4.50618">
        <ele>608.358</ele>
        <time>2017-04-01T16:55:28Z</time>
      </trkpt>
      <trkpt lat="45.51129" lon="4.50672">
        <ele>603.445</ele>
        <time>2017-04-01T16:55:48Z</time>
      </trkpt>
      <trkpt lat="45.51078" lon="4.50775">
        <ele>589.949</ele>
        <time>2017-04-01T16:56:08Z</time>
      </trkpt>
      <trkpt lat="45.51006" lon="4.50844">
        <ele>580.866</ele>
        <time>2017-04-01T16:56:28Z</time>
      </trkpt>
      <trkpt lat="45.50979" lon="4.50855">
        <ele>576.129</ele>
        <time>2017-04-01T16:56:48Z</time>
      </trkpt>
      <trkpt lat="45.50902" lon="4.50851">
        <ele>564.921</ele>
        <time>2017-04-01T16:57:08Z</time>
      </trkpt>
      <trkpt lat="45.50862" lon="4.50858">
        <ele>560.708</ele>
        <time>2017-04-01T16:57:28Z</time>
      </trkpt>
      <trkpt lat="45.50831" lon="4.50854">
        <ele>558.192</ele>
        <time>2017-04-01T16:57:48Z</time>
      </trkpt>
      <trkpt lat="45.50808" lon="4.50862">
        <ele>555.437</ele>
        <time>2017-04-01T16:58:08Z</time>
      </trkpt>
      <trkpt lat="45.50777" lon="4.5087">
        <ele>549.418</ele>
        <time>2017-04-01T16:58:28Z</time>
      </trkpt>
      <trkpt lat="45.50762" lon="4.50881">
        <ele>547.563</ele>
        <time>2017-04-01T16:58:48Z</time>
      </trkpt>
      <trkpt lat="45.50731" lon="4.50896">
        <ele>543.012</ele>
        <time>2017-04-01T16:59:08Z</time>
      </trkpt>
      <trkpt lat="45.5073" lon="4.50917">
        <ele>544.185</ele>
        <time>2017-04-01T16:59:28Z</time>
      </trkpt>
      <trkpt lat="45.50632" lon="4.50926">
        <ele>528.062</ele>
        <time>2017-04-01T16:59:48Z</time>
      </trkpt>
      <trkpt lat="45.50552" lon="4.50917">
        <ele>516.966</ele>
        <time>2017-04-01T17:00:08Z</time>
      </trkpt>
      <trkpt lat="45.50484" lon="4.50945">
        <ele>513.394</ele>
        <time>2017-04-01T17:00:28Z</time>
      </trkpt>
      <trkpt lat="45.50451" lon="4.50932">
        <ele>510.657</ele>
        <time>2017-04-01T17:00:48Z</time>
      </trkpt>
      <trkpt lat="45.50412" lon="4.50941">
        <ele>506.522</ele>
        <time>2017-04-01T17:01:08Z</time>
      </trkpt>
      <trkpt lat="45.50388" lon="4.50962">
        <ele>505.608</ele>
        <time>2017-04-01T17:01:28Z</time>
      </trkpt>
      <trkpt lat="45.50381" lon="4.50975">
        <ele>505.145</ele>
        <time>2017-04-01T17:01:48Z</time>
      </trkpt>
      <trkpt lat="45.50291" lon="4.51119">
        <ele>486.88</ele>
        <time>2017-04-01T17:02:08Z</time>
      </trkpt>
      <trkpt lat="45.5018" lon="4.51238">
        <ele>468.731</ele>
        <time>2017-04-01T17:02:28Z</time>
      </trkpt>
      <trkpt lat="45.50116" lon="4.51308">
        <ele>460.656</ele>
        <time>2017-04-01T17:02:48Z</time>
      </trkpt>
      <trkpt lat="45.50026" lon="4.51415">
        <ele>447.085</ele>
        <time>2017-04-01T17:03:08Z</time>
      </trkpt>
      <trkpt lat="45.49989" lon="4.51475">
        <ele>447.078</ele>
        <time>2017-04-01T17:03:28Z</time>
      </trkpt>
      <trkpt lat="45.49977" lon="4.51506">
        <ele>447.355</ele>
        <time>2017-04-01T17:03:48Z</time>
      </trkpt>
      <trkpt lat="45.4992" lon="4.51575">
        <ele>452.649</ele>
        <time>2017-04-01T17:04:08Z</time>
      </trkpt>
      <trkpt lat="45.49613" lon="4.51465">
        <ele>431.292</ele>
        <time>2017-04-01T17:04:28Z</time>
      </trkpt>
      <trkpt lat="45.49492" lon="4.51439">
        <ele>418.473</ele>
        <time>2017-04-01T17:04:48Z</time>
      </trkpt>
      <trkpt lat="45.49442" lon="4.51445">
        <ele>415.82</ele>
        <time>2017-04-01T17:05:08Z</time>
      </trkpt>
      <trkpt lat="45.49349" lon="4.51495">
        <ele>409.008</ele>
        <time>2017-04-01T17:05:28Z</time>
      </trkpt>
      <trkpt lat="45.49171" lon="4.51581">
        <ele>394.755</ele>
        <time>2017-04-01T17:05:48Z</time>
      </trkpt>
      <trkpt lat="45.49038" lon="4.51626">
        <ele>383.71</ele>
        <time>2017-04-01T17:06:08Z</time>
      </trkpt>
      <trkpt lat="45.49011" lon="4.51655">
        <ele>378.371</ele>
        <time>2017-04-01T17:06:28Z</time>
      </trkpt>
      <trkpt lat="45.48996" lon="4.51626">
        <ele>377.666</ele>
        <time>2017-04-01T17:06:48Z</time>
      </trkpt>
      <trkpt lat="45.48938" lon="4.51618">
        <ele>373.395</ele>
        <time>2017-04-01T17:07:08Z</time>
      </trkpt>
      <trkpt lat="45.48915" lon="4.51589">
        <ele>371.758</ele>
        <time>2017-04-01T17:07:28Z</time>
      </trkpt>
      <trkpt lat="45.48895" lon="4.51491">
        <ele>367.715</ele>
        <time>2017-04-01T17:07:48Z</time>
      </trkpt>
      <trkpt lat="45.4887" lon="4.51461">
        <ele>369.529</ele>
        <time>2017-04-01T17:08:08Z</time>
      </trkpt>
      <trkpt lat="45.48888" lon="4.5144">
        <ele>370.484</ele>
        <time>2017-04-01T17:08:28Z</time>
      </trkpt>
      <trkpt lat="45.48876" lon="4.51392">
        <ele>374.307</ele>
        <time>2017-04-01T17:08:48Z</time>
      </trkpt>
      <trkpt lat="45.4887" lon="4.51248">
        <ele>384.817</ele>
        <time>2017-04-01T17:09:08Z</time>
      </trkpt>
      <trkpt lat="45.48845" lon="4.51113">
        <ele>397.508</ele>
        <time>2017-04-01T17:09:28Z</time>
      </trkpt>
      <trkpt lat="45.48819" lon="4.50938">
        <ele>404.074</ele>
        <time>2017-04-01T17:09:48Z</time>
      </trkpt>
      <trkpt lat="45.48826" lon="4.50841">
        <ele>406.269</ele>
        <time>2017-04-01T17:10:08Z</time>
      </trkpt>
      <trkpt lat="45.48744" lon="4.50804">
        <ele>405.24</ele>
        <time>2017-04-01T17:10:28Z</time>
      </trkpt>
      <trkpt lat="45.487" lon="4.50838">
        <ele>400.255</ele>
        <time>2017-04-01T17:10:48Z</time>
      </trkpt>
      <trkpt lat="45.48666" lon="4.50853">
        <ele>399.354</ele>
        <time>2017-04-01T17:11:08Z</time>
      </trkpt>
      <trkpt lat="45.48627" lon="4.50883">
        <ele>394.997</ele>
        <time>2017-04-01T17:11:28Z</time>
      </trkpt>
      <trkpt lat="45.48601" lon="4.50887">
        <ele>392.184</ele>
        <time>2017-04-01T17:11:48Z</time>
      </trkpt>
      <trkpt lat="45.48585" lon="4.50879">
        <ele>388.648</ele>
        <time>2017-04-01T17:12:08Z</time>
      </trkpt>
      <trkpt lat="45.48568" lon="4.50881">
        <ele>385.833</ele>
        <time>2017-04-01T17:12:28Z</time>
      </trkpt>
      <trkpt lat="45.48572" lon="4.50847">
        <ele>384.723</ele>
        <time>2017-04-01T17:12:48Z</time>
      </trkpt>
      <trkpt lat="45.48568" lon="4.50825">
        <ele>383.615</ele>
        <time>2017-04-01T17:13:08Z</time>
      </trkpt>
      <trkpt lat="45.48511" lon="4.50804">
        <ele>379.908</ele>
        <time>2017-04-01T17:13:28Z</time>
      </trkpt>
      <trkpt lat="45.48475" lon="4.50829">
        <ele>379.939</ele>
        <time>2017-04-01T17:13:48Z</time>
      </trkpt>
      <trkpt lat="45.48394" lon="4.50853">
        <ele>378.394</ele>
        <time>2017-04-01T17:14:08Z</time>
      </trkpt>
      <trkpt lat="45.48335" lon="4.50877">
        <ele>380.265</ele>
        <time>2017-04-01T17:14:28Z</time>
      </trkpt>
      <trkpt lat="45.48264" lon="4.50935">
        <ele>381.22</ele>
        <time>2017-04-01T17:14:48Z</time>
      </trkpt>
      <trkpt lat="45.48212" lon="4.50966">
        <ele>379.399</ele>
        <time>2017-04-01T17:15:08Z</time>
      </trkpt>
      <trkpt lat="45.48151" lon="4.51012">
        <ele>379.982</ele>
        <time>2017-04-01T17:15:28Z</time>
      </trkpt>
      <trkpt lat="45.48106" lon="4.51032">
        <ele>382.899</ele>
        <time>2017-04-01T17:15:48Z</time>
      </trkpt>
      <trkpt lat="45.48117" lon="4.51108">
        <ele>374.573</ele>
        <time>2017-04-01T17:16:08Z</time>
      </trkpt>
      <trkpt lat="45.48084" lon="4.5123">
        <ele>370.584</ele>
        <time>2017-04-01T17:16:28Z</time>
      </trkpt>
      <trkpt lat="45.48016" lon="4.51327">
        <ele>371.207</ele>
        <time>2017-04-01T17:16:48Z</time>
      </trkpt>
      <trkpt lat="45.4793" lon="4.51117">
        <ele>388.417</ele>
        <time>2017-04-01T17:17:08Z</time>
      </trkpt>
      <trkpt lat="45.47926" lon="4.51083">
        <ele>391.408</ele>
        <time>2017-04-01T17:17:28Z</time>
      </trkpt>
      <trkpt lat="45.47878" lon="4.51113">
        <ele>377.794</ele>
        <time>2017-04-01T17:17:48Z</time>
      </trkpt>
      <trkpt lat="45.47855" lon="4.51044">
        <ele>380.529</ele>
        <time>2017-04-01T17:18:08Z</time>
      </trkpt>
      <trkpt lat="45.47817" lon="4.51025">
        <ele>368.42</ele>
        <time>2017-04-01T17:18:28Z</time>
      </trkpt>
      <trkpt lat="45.47789" lon="4.50953">
        <ele>363.915</ele>
        <time>2020-11-29T18:51:28Z</time>
      </trkpt>
      <trkpt lat="45.47761" lon="4.50965">
        <ele>358.784</ele>
        <time>2020-11-29T18:51:48Z</time>
      </trkpt>
      <trkpt lat="45.4779" lon="4.51075">
        <ele>358.797</ele>
        <time>2020-11-29T18:52:08Z</time>
      </trkpt>
      <trkpt lat="45.47798" lon="4.51165">
        <ele>355.144</ele>
        <time>2020-11-29T18:52:28Z</time>
      </trkpt>
      <trkpt lat="45.47804" lon="4.5118">
        <ele>354.778</ele>
        <time>2020-11-29T18:52:48Z</time>
      </trkpt>
      <trkpt lat="45.47805" lon="4.5119">
        <ele>354.919</ele>
        <time>2020-11-29T18:53:08Z</time>
      </trkpt>
      <trkpt lat="45.47705" lon="4.51237">
        <ele>363.309</ele>
        <time>2020-11-29T18:53:28Z</time>
      </trkpt>
      <trkpt lat="45.47697" lon="4.51216">
        <ele>363.019</ele>
        <time>2020-11-29T18:53:48Z</time>
      </trkpt>
      <trkpt lat="45.47665" lon="4.51241">
        <ele>366.008</ele>
        <time>2020-11-29T18:54:08Z</time>
      </trkpt>
      <trkpt lat="45.47632" lon="4.5121">
        <ele>368.927</ele>
        <time>2020-11-29T18:54:28Z</time>
      </trkpt>
      <trkpt lat="45.47478" lon="4.51293">
        <ele>374.822</ele>
        <time>2020-11-29T18:54:48Z</time>
      </trkpt>
      <trkpt lat="45.47493" lon="4.514">
        <ele>373.233</ele>
        <time>2020-11-29T18:55:08Z</time>
      </trkpt>
      <trkpt lat="45.47384" lon="4.51432">
        <ele>378.748</ele>
        <time>2020-11-29T18:55:28Z</time>
      </trkpt>
      <trkpt lat="45.47315" lon="4.51628">
        <ele>377.017</ele>
        <time>2017-04-01T17:22:48Z</time>
      </trkpt>
      <trkpt lat="45.47212" lon="4.51614">
        <ele>378.95</ele>
        <time>2017-04-01T17:23:08Z</time>
      </trkpt>
      <trkpt lat="45.47189" lon="4.51642">
        <ele>378.257</ele>
        <time>2017-04-01T17:23:28Z</time>
      </trkpt>
      <trkpt lat="45.47172" lon="4.51689">
        <ele>381.081</ele>
        <time>2017-04-01T17:23:48Z</time>
      </trkpt>
      <trkpt lat="45.4705" lon="4.51561">
        <ele>393.551</ele>
        <time>2017-04-01T17:24:08Z</time>
      </trkpt>
      <trkpt lat="45.46924" lon="4.5145">
        <ele>401.501</ele>
        <time>2017-04-01T17:24:28Z</time>
      </trkpt>
      <trkpt lat="45.46709" lon="4.51671">
        <ele>414.611</ele>
        <time>2017-04-01T17:24:48Z</time>
      </trkpt>
      <trkpt lat="45.46657" lon="4.51746">
        <ele>420.408</ele>
        <time>2017-04-01T17:25:08Z</time>
      </trkpt>
      <trkpt lat="45.46568" lon="4.51835">
        <ele>427.191</ele>
        <time>2017-04-01T17:25:28Z</time>
      </trkpt>
      <trkpt lat="45.46478" lon="4.51894">
        <ele>438.756</ele>
        <time>2017-04-01T17:25:48Z</time>
      </trkpt>
      <trkpt lat="45.46431" lon="4.51931">
        <ele>446.467</ele>
        <time>2017-04-01T17:26:08Z</time>
      </trkpt>
      <trkpt lat="45.46391" lon="4.52007">
        <ele>449.412</ele>
        <time>2017-04-01T17:26:28Z</time>
      </trkpt>
      <trkpt lat="45.4634" lon="4.52039">
        <ele>462.321</ele>
        <time>2017-04-01T17:26:48Z</time>
      </trkpt>
      <trkpt lat="45.46278" lon="4.52113">
        <ele>472.944</ele>
        <time>2017-04-01T17:27:08Z</time>
      </trkpt>
      <trkpt lat="45.4615" lon="4.52136">
        <ele>487.341</ele>
        <time>2017-04-01T17:27:28Z</time>
      </trkpt>
      <trkpt lat="45.4613" lon="4.52123">
        <ele>490.445</ele>
        <time>2017-04-01T17:27:48Z</time>
      </trkpt>
      <trkpt lat="45.46079" lon="4.52148">
        <ele>492.543</ele>
        <time>2017-04-01T17:28:08Z</time>
      </trkpt>
      <trkpt lat="45.46022" lon="4.52154">
        <ele>497.764</ele>
        <time>2017-04-01T17:28:28Z</time>
      </trkpt>
      <trkpt lat="45.45977" lon="4.52175">
        <ele>501.51</ele>
        <time>2017-04-01T17:28:48Z</time>
      </trkpt>
      <trkpt lat="45.4585" lon="4.52179">
        <ele>516.008</ele>
        <time>2017-04-01T17:29:08Z</time>
      </trkpt>
      <trkpt lat="45.45742" lon="4.52198">
        <ele>542.15</ele>
        <time>2017-04-01T17:29:28Z</time>
      </trkpt>
      <trkpt lat="45.45697" lon="4.52195">
        <ele>544.965</ele>
        <time>2017-04-01T17:29:48Z</time>
      </trkpt>
      <trkpt lat="45.45662" lon="4.52186">
        <ele>551.936</ele>
        <time>2017-04-01T17:30:08Z</time>
      </trkpt>
      <trkpt lat="45.45605" lon="4.52185">
        <ele>557.451</ele>
        <time>2017-04-01T17:30:28Z</time>
      </trkpt>
      <trkpt lat="45.45542" lon="4.52195">
        <ele>558.53</ele>
        <time>2017-04-01T17:30:48Z</time>
      </trkpt>
      <trkpt lat="45.45467" lon="4.52238">
        <ele>563.633</ele>
        <time>2017-04-01T17:31:08Z</time>
      </trkpt>
      <trkpt lat="45.4536" lon="4.5227">
        <ele>577.37</ele>
        <time>2017-04-01T17:31:28Z</time>
      </trkpt>
      <trkpt lat="45.45205" lon="4.52294">
        <ele>592.954</ele>
        <time>2017-04-01T17:31:48Z</time>
      </trkpt>
      <trkpt lat="45.45156" lon="4.52294">
        <ele>592.843</ele>
        <time>2017-04-01T17:32:08Z</time>
      </trkpt>
      <trkpt lat="45.45079" lon="4.52274">
        <ele>588.564</ele>
        <time>2017-04-01T17:32:28Z</time>
      </trkpt>
      <trkpt lat="45.44999" lon="4.52327">
        <ele>599.31</ele>
        <time>2017-04-01T17:32:48Z</time>
      </trkpt>
      <trkpt lat="45.44879" lon="4.5231">
        <ele>605.408</ele>
        <time>2017-04-01T17:33:08Z</time>
      </trkpt>
      <trkpt lat="45.44815" lon="4.52357">
        <ele>612.35</ele>
        <time>2017-04-01T17:33:28Z</time>
      </trkpt>
      <trkpt lat="45.4476" lon="4.52408">
        <ele>616.735</ele>
        <time>2017-04-01T17:33:48Z</time>
      </trkpt>
      <trkpt lat="45.44725" lon="4.52496">
        <ele>625.686</ele>
        <time>2017-04-01T17:34:08Z</time>
      </trkpt>
      <trkpt lat="45.44669" lon="4.52584">
        <ele>633.031</ele>
        <time>2017-04-01T17:34:28Z</time>
      </trkpt>
      <trkpt lat="45.44607" lon="4.52671">
        <ele>645.38</ele>
        <time>2017-04-01T17:34:48Z</time>
      </trkpt>
      <trkpt lat="45.44578" lon="4.52694">
        <ele>647.273</ele>
        <time>2017-04-01T17:35:08Z</time>
      </trkpt>
      <trkpt lat="45.44503" lon="4.52796">
        <ele>663.03</ele>
        <time>2017-04-01T17:35:28Z</time>
      </trkpt>
      <trkpt lat="45.44474" lon="4.52805">
        <ele>664.944</ele>
        <time>2017-04-01T17:35:48Z</time>
      </trkpt>
      <trkpt lat="45.44437" lon="4.52849">
        <ele>666.849</ele>
        <time>2017-04-01T17:36:08Z</time>
      </trkpt>
      <trkpt lat="45.4436" lon="4.52859">
        <ele>675.102</ele>
        <time>2017-04-01T17:36:28Z</time>
      </trkpt>
      <trkpt lat="45.44269" lon="4.52838">
        <ele>692.822</ele>
        <time>2017-04-01T17:36:48Z</time>
      </trkpt>
      <trkpt lat="45.44229" lon="4.52855">
        <ele>701.608</ele>
        <time>2017-04-01T17:37:08Z</time>
      </trkpt>
      <trkpt lat="45.44087" lon="4.52873">
        <ele>722.89</ele>
        <time>2017-04-01T17:37:28Z</time>
      </trkpt>
      <trkpt lat="45.44012" lon="4.52919">
        <ele>743.265</ele>
        <time>2017-04-01T17:37:48Z</time>
      </trkpt>
      <trkpt lat="45.43962" lon="4.52949">
        <ele>754.936</ele>
        <time>2017-04-01T17:38:08Z</time>
      </trkpt>
      <trkpt lat="45.43897" lon="4.53004">
        <ele>768.681</ele>
        <time>2017-04-01T17:38:28Z</time>
      </trkpt>
      <trkpt lat="45.43782" lon="4.53083">
        <ele>785.79</ele>
        <time>2017-04-01T17:38:48Z</time>
      </trkpt>
      <trkpt lat="45.4376" lon="4.53127">
        <ele>789.423</ele>
        <time>2017-04-01T17:39:08Z</time>
      </trkpt>
      <trkpt lat="45.4372" lon="4.53246">
        <ele>799.41</ele>
        <time>2017-04-01T17:39:28Z</time>
      </trkpt>
      <trkpt lat="45.43657" lon="4.53341">
        <ele>807.814</ele>
        <time>2017-04-01T17:39:48Z</time>
      </trkpt>
      <trkpt lat="45.43614" lon="4.5342">
        <ele>815.686</ele>
        <time>2017-04-01T17:40:08Z</time>
      </trkpt>
      <trkpt lat="45.43532" lon="4.53523">
        <ele>817.16</ele>
        <time>2017-04-01T17:40:28Z</time>
      </trkpt>
      <trkpt lat="45.43468" lon="4.53583">
        <ele>819.126</ele>
        <time>2017-04-01T17:40:48Z</time>
      </trkpt>
      <trkpt lat="45.43427" lon="4.5364">
        <ele>821.608</ele>
        <time>2017-04-01T17:41:08Z</time>
      </trkpt>
      <trkpt lat="45.43362" lon="4.53688">
        <ele>831.284</ele>
        <time>2017-04-01T17:41:28Z</time>
      </trkpt>
      <trkpt lat="45.43298" lon="4.53714">
        <ele>838.989</ele>
        <time>2017-04-01T17:41:48Z</time>
      </trkpt>
      <trkpt lat="45.4326" lon="4.53748">
        <ele>841.57</ele>
        <time>2017-04-01T17:42:08Z</time>
      </trkpt>
      <trkpt lat="45.43129" lon="4.53959">
        <ele>845.695</ele>
        <time>2017-04-01T17:42:28Z</time>
      </trkpt>
      <trkpt lat="45.43102" lon="4.54089">
        <ele>843.874</ele>
        <time>2017-04-01T17:42:48Z</time>
      </trkpt>
      <trkpt lat="45.43099" lon="4.54112">
        <ele>843.617</ele>
        <time>2017-04-01T17:43:08Z</time>
      </trkpt>
      <trkpt lat="45.43086" lon="4.5416">
        <ele>847.334</ele>
        <time>2017-04-01T17:43:28Z</time>
      </trkpt>
      <trkpt lat="45.43054" lon="4.54192">
        <ele>848.418</ele>
        <time>2017-04-01T17:43:48Z</time>
      </trkpt>
      <trkpt lat="45.43031" lon="4.54224">
        <ele>848.536</ele>
        <time>2017-04-01T17:44:08Z</time>
      </trkpt>
      <trkpt lat="45.42995" lon="4.54259">
        <ele>850.417</ele>
        <time>2017-04-01T17:44:28Z</time>
      </trkpt>
      <trkpt lat="45.4296" lon="4.54342">
        <ele>851.718</ele>
        <time>2017-04-01T17:44:48Z</time>
      </trkpt>
      <trkpt lat="45.42916" lon="4.54401">
        <ele>858.608</ele>
        <time>2017-04-01T17:45:08Z</time>
      </trkpt>
      <trkpt lat="45.42867" lon="4.5443">
        <ele>861.659</ele>
        <time>2017-04-01T17:45:28Z</time>
      </trkpt>
      <trkpt lat="45.42818" lon="4.5444">
        <ele>872.244</ele>
        <time>2017-04-01T17:45:48Z</time>
      </trkpt>
      <trkpt lat="45.42713" lon="4.5447">
        <ele>878.795</ele>
        <time>2017-04-01T17:46:08Z</time>
      </trkpt>
      <trkpt lat="45.42619" lon="4.54518">
        <ele>886.24</ele>
        <time>2017-04-01T17:46:28Z</time>
      </trkpt>
      <trkpt lat="45.42536" lon="4.54565">
        <ele>889.129</ele>
        <time>2017-04-01T17:46:48Z</time>
      </trkpt>
      <trkpt lat="45.42441" lon="4.54597">
        <ele>889.632</ele>
        <time>2017-04-01T17:47:08Z</time>
      </trkpt>
      <trkpt lat="45.424" lon="4.54622">
        <ele>890.189</ele>
        <time>2017-04-01T17:47:28Z</time>
      </trkpt>
      <trkpt lat="45.42283" lon="4.54662">
        <ele>885.993</ele>
        <time>2017-04-01T17:47:48Z</time>
      </trkpt>
      <trkpt lat="45.42251" lon="4.54657">
        <ele>884.344</ele>
        <time>2017-04-01T17:48:08Z</time>
      </trkpt>
      <trkpt lat="45.42216" lon="4.54633">
        <ele>882.605</ele>
        <time>2017-04-01T17:48:28Z</time>
      </trkpt>
      <trkpt lat="45.42133" lon="4.54607">
        <ele>881.415</ele>
        <time>2017-04-01T17:48:48Z</time>
      </trkpt>
      <trkpt lat="45.42091" lon="4.54608">
        <ele>884.408</ele>
        <time>2017-04-01T17:49:08Z</time>
      </trkpt>
      <trkpt lat="45.41956" lon="4.54715">
        <ele>880.05</ele>
        <time>2017-04-01T17:49:28Z</time>
      </trkpt>
      <trkpt lat="45.4184" lon="4.54784">
        <ele>864.985</ele>
        <time>2017-04-01T17:49:48Z</time>
      </trkpt>
      <trkpt lat="45.41704" lon="4.54809">
        <ele>859.276</ele>
        <time>2017-04-01T17:50:08Z</time>
      </trkpt>
      <trkpt lat="45.41637" lon="4.54807">
        <ele>850.681</ele>
        <time>2017-04-01T17:50:28Z</time>
      </trkpt>
      <trkpt lat="45.41588" lon="4.54846">
        <ele>843.46</ele>
        <time>2017-04-01T17:50:48Z</time>
      </trkpt>
      <trkpt lat="45.41534" lon="4.54901">
        <ele>847.613</ele>
        <time>2017-04-01T17:51:08Z</time>
      </trkpt>
      <trkpt lat="45.41501" lon="4.54968">
        <ele>852.66</ele>
        <time>2017-04-01T17:51:28Z</time>
      </trkpt>
      <trkpt lat="45.41483" lon="4.54969">
        <ele>854.024</ele>
        <time>2017-04-01T17:51:48Z</time>
      </trkpt>
      <trkpt lat="45.41414" lon="4.55039">
        <ele>872.663</ele>
        <time>2017-04-01T17:52:08Z</time>
      </trkpt>
      <trkpt lat="45.4134" lon="4.55111">
        <ele>884.744</ele>
        <time>2017-04-01T17:52:28Z</time>
      </trkpt>
      <trkpt lat="45.41288" lon="4.55203">
        <ele>895.918</ele>
        <time>2017-04-01T17:52:48Z</time>
      </trkpt>
      <trkpt lat="45.41286" lon="4.55348">
        <ele>915.708</ele>
        <time>2017-04-01T17:53:08Z</time>
      </trkpt>
      <trkpt lat="45.41274" lon="4.55379">
        <ele>923.132</ele>
        <time>2017-04-01T17:53:28Z</time>
      </trkpt>
      <trkpt lat="45.41272" lon="4.55409">
        <ele>929.417</ele>
        <time>2017-04-01T17:53:48Z</time>
      </trkpt>
      <trkpt lat="45.41285" lon="4.5547">
        <ele>939.798</ele>
        <time>2017-04-01T17:54:08Z</time>
      </trkpt>
      <trkpt lat="45.41299" lon="4.55503">
        <ele>941.393</ele>
        <time>2017-04-01T17:54:28Z</time>
      </trkpt>
      <trkpt lat="45.41304" lon="4.55568">
        <ele>942.462</ele>
        <time>2017-04-01T17:54:48Z</time>
      </trkpt>
      <trkpt lat="45.41297" lon="4.55711">
        <ele>949.775</ele>
        <time>2017-04-01T17:55:08Z</time>
      </trkpt>
      <trkpt lat="45.41279" lon="4.55756">
        <ele>951.822</ele>
        <time>2017-04-01T17:55:28Z</time>
      </trkpt>
      <trkpt lat="45.4125" lon="4.55794">
        <ele>967.736</ele>
        <time>2017-04-01T17:55:48Z</time>
      </trkpt>
      <trkpt lat="45.41221" lon="4.55811">
        <ele>975.328</ele>
        <time>2017-04-01T17:56:08Z</time>
      </trkpt>
      <trkpt lat="45.41148" lon="4.55901">
        <ele>984.389</ele>
        <time>2017-04-01T17:56:28Z</time>
      </trkpt>
      <trkpt lat="45.41117" lon="4.55928">
        <ele>985.117</ele>
        <time>2017-04-01T17:56:48Z</time>
      </trkpt>
      <trkpt lat="45.41076" lon="4.55948">
        <ele>990.308</ele>
        <time>2017-04-01T17:57:08Z</time>
      </trkpt>
      <trkpt lat="45.41035" lon="4.55974">
        <ele>993.398</ele>
        <time>2017-04-01T17:57:28Z</time>
      </trkpt>
      <trkpt lat="45.41004" lon="4.55989">
        <ele>993.933</ele>
        <time>2017-04-01T17:57:48Z</time>
      </trkpt>
      <trkpt lat="45.40978" lon="4.56018">
        <ele>993.234</ele>
        <time>2017-04-01T17:58:08Z</time>
      </trkpt>
      <trkpt lat="45.40927" lon="4.56114">
        <ele>993.129</ele>
        <time>2017-04-01T17:58:28Z</time>
      </trkpt>
      <trkpt lat="45.40914" lon="4.56129">
        <ele>995.768</ele>
        <time>2017-04-01T17:58:48Z</time>
      </trkpt>
      <trkpt lat="45.40913" lon="4.56185">
        <ele>1000.691</ele>
        <time>2017-04-01T17:59:08Z</time>
      </trkpt>
      <trkpt lat="45.40894" lon="4.56252">
        <ele>1014.018</ele>
        <time>2017-04-01T17:59:28Z</time>
      </trkpt>
      <trkpt lat="45.40862" lon="4.56276">
        <ele>1025.422</ele>
        <time>2017-04-01T17:59:48Z</time>
      </trkpt>
      <trkpt lat="45.40783" lon="4.56289">
        <ele>1033.196</ele>
        <time>2017-04-01T18:00:08Z</time>
      </trkpt>
      <trkpt lat="45.40747" lon="4.56319">
        <ele>1038.031</ele>
        <time>2017-04-01T18:00:28Z</time>
      </trkpt>
      <trkpt lat="45.40689" lon="4.5638">
        <ele>1043.824</ele>
        <time>2017-04-01T18:00:48Z</time>
      </trkpt>
      <trkpt lat="45.40659" lon="4.56383">
        <ele>1039.808</ele>
        <time>2017-04-01T18:01:08Z</time>
      </trkpt>
      <trkpt lat="45.40616" lon="4.56428">
        <ele>1046.485</ele>
        <time>2017-04-01T18:01:28Z</time>
      </trkpt>
      <trkpt lat="45.40515" lon="4.56479">
        <ele>1052.04</ele>
        <time>2017-04-01T18:01:48Z</time>
      </trkpt>
      <trkpt lat="45.40462" lon="4.56517">
        <ele>1065.271</ele>
        <time>2017-04-01T18:02:08Z</time>
      </trkpt>
      <trkpt lat="45.40447" lon="4.56564">
        <ele>1077.126</ele>
        <time>2017-04-01T18:02:28Z</time>
      </trkpt>
      <trkpt lat="45.40429" lon="4.56575">
        <ele>1081.295</ele>
        <time>2017-04-01T18:02:48Z</time>
      </trkpt>
      <trkpt lat="45.40409" lon="4.56603">
        <ele>1090.388</ele>
        <time>2017-04-01T18:03:08Z</time>
      </trkpt>
      <trkpt lat="45.40384" lon="4.56613">
        <ele>1096.025</ele>
        <time>2017-04-01T18:03:28Z</time>
      </trkpt>
      <trkpt lat="45.40362" lon="4.56616">
        <ele>1099.689</ele>
        <time>2017-04-01T18:03:48Z</time>
      </trkpt>
      <trkpt lat="45.40301" lon="4.56582">
        <ele>1103.723</ele>
        <time>2017-04-01T18:04:08Z</time>
      </trkpt>
      <trkpt lat="45.40225" lon="4.56495">
        <ele>1113.483</ele>
        <time>2017-04-01T18:04:28Z</time>
      </trkpt>
      <trkpt lat="45.40195" lon="4.56451">
        <ele>1115.911</ele>
        <time>2017-04-01T18:04:48Z</time>
      </trkpt>
      <trkpt lat="45.40096" lon="4.56357">
        <ele>1125.908</ele>
        <time>2017-04-01T18:05:08Z</time>
      </trkpt>
      <trkpt lat="45.40013" lon="4.56348">
        <ele>1142.958</ele>
        <time>2017-04-01T18:05:28Z</time>
      </trkpt>
      <trkpt lat="45.39963" lon="4.56352">
        <ele>1155.883</ele>
        <time>2017-04-01T18:05:48Z</time>
      </trkpt>
      <trkpt lat="45.39874" lon="4.56392">
        <ele>1180.764</ele>
        <time>2017-04-01T18:06:08Z</time>
      </trkpt>
      <trkpt lat="45.39781" lon="4.56407">
        <ele>1184.839</ele>
        <time>2017-04-01T18:06:28Z</time>
      </trkpt>
      <trkpt lat="45.39702" lon="4.5643">
        <ele>1199.258</ele>
        <time>2017-04-01T18:06:48Z</time>
      </trkpt>
      <trkpt lat="45.39657" lon="4.56388">
        <ele>1188.841</ele>
        <time>2019-03-28T22:44:44Z</time>
      </trkpt>
      <trkpt lat="45.3961" lon="4.56381">
        <ele>1182.388</ele>
        <time>2019-03-28T22:45:04Z</time>
      </trkpt>
      <trkpt lat="45.39492" lon="4.567">
        <ele>1216.212</ele>
        <time>2017-04-01T18:07:48Z</time>
      </trkpt>
      <trkpt lat="45.39444" lon="4.56739">
        <ele>1209.338</ele>
        <time>2017-04-01T18:08:08Z</time>
      </trkpt>
      <trkpt lat="45.39292" lon="4.56917">
        <ele>1242.67</ele>
        <time>2019-03-28T22:46:04Z</time>
      </trkpt>
      <trkpt lat="45.39258" lon="4.57016">
        <ele>1265.417</ele>
        <time>2019-03-28T22:46:24Z</time>
      </trkpt>
      <trkpt lat="45.39345" lon="4.57039">
        <ele>1269.308</ele>
        <time>2019-03-28T22:46:44Z</time>
      </trkpt>
      <trkpt lat="45.39487" lon="4.57032">
        <ele>1287.829</ele>
        <time>2019-03-28T22:47:04Z</time>
      </trkpt>
      <trkpt lat="45.39545" lon="4.57055">
        <ele>1291.044</ele>
        <time>2019-03-28T22:47:24Z</time>
      </trkpt>
      <trkpt lat="45.39538" lon="4.57139">
        <ele>1295.935</ele>
        <time>2017-04-01T18:11:28Z</time>
      </trkpt>
      <trkpt lat="45.39488" lon="4.57159">
        <ele>1299.98</ele>
        <time>2017-04-01T18:11:48Z</time>
      </trkpt>
      <trkpt lat="45.39413" lon="4.57178">
        <ele>1300.429</ele>
        <time>2017-04-01T18:12:08Z</time>
      </trkpt>
      <trkpt lat="45.39357" lon="4.57221">
        <ele>1301.512</ele>
        <time>2017-04-01T18:12:28Z</time>
      </trkpt>
      <trkpt lat="45.39071" lon="4.57401">
        <ele>1311.139</ele>
        <time>2017-04-01T18:12:48Z</time>
      </trkpt>
      <trkpt lat="45.39001" lon="4.57413">
        <ele>1308.533</ele>
        <time>2017-04-01T18:13:08Z</time>
      </trkpt>
      <trkpt lat="45.38958" lon="4.57406">
        <ele>1305.643</ele>
        <time>2017-04-01T18:13:28Z</time>
      </trkpt>
      <trkpt lat="45.38915" lon="4.57432">
        <ele>1310.164</ele>
        <time>2017-04-01T18:13:48Z</time>
      </trkpt>
      <trkpt lat="45.38829" lon="4.57466">
        <ele>1323.91</ele>
        <time>2017-04-01T18:14:08Z</time>
      </trkpt>
      <trkpt lat="45.38776" lon="4.57468">
        <ele>1327.508</ele>
        <time>2017-04-01T18:14:28Z</time>
      </trkpt>
      <trkpt lat="45.38754" lon="4.57476">
        <ele>1332.59</ele>
        <time>2017-04-01T18:14:48Z</time>
      </trkpt>
      <trkpt lat="45.38671" lon="4.57523">
        <ele>1351.035</ele>
        <time>2017-04-01T18:15:08Z</time>
      </trkpt>
      <trkpt lat="45.38639" lon="4.57555">
        <ele>1357.046</ele>
        <time>2017-04-01T18:15:28Z</time>
      </trkpt>
      <trkpt lat="45.3853" lon="4.57602">
        <ele>1374.241</ele>
        <time>2017-04-01T18:15:48Z</time>
      </trkpt>
      <trkpt lat="45.38455" lon="4.57612">
        <ele>1387.25</ele>
        <time>2017-04-01T18:16:08Z</time>
      </trkpt>
      <trkpt lat="45.38386" lon="4.57615">
        <ele>1396.113</ele>
        <time>2017-04-01T18:16:28Z</time>
      </trkpt>
      <trkpt lat="45.38288" lon="4.57633">
        <ele>1398.99</ele>
        <time>2017-04-01T18:16:48Z</time>
      </trkpt>
      <trkpt lat="45.38261" lon="4.57471">
        <ele>1405.584</ele>
        <time>2017-04-01T18:17:08Z</time>
      </trkpt>
      <trkpt lat="45.38262" lon="4.57372">
        <ele>1417.134</ele>
        <time>2017-04-01T18:17:28Z</time>
      </trkpt>
      <trkpt lat="45.38249" lon="4.57357">
        <ele>1419.355</ele>
        <time>2017-04-01T18:17:48Z</time>
      </trkpt>
      <trkpt lat="45.38253" lon="4.57313">
        <ele>1423.41</ele>
        <time>2017-04-01T18:18:08Z</time>
      </trkpt>
      <trkpt lat="45.38248" lon="4.57252">
        <ele>1423.008</ele>
        <time>2017-04-01T18:18:28Z</time>
      </trkpt>
      <trkpt lat="45.38233" lon="4.57219">
        <ele>1420.379</ele>
        <time>2017-04-01T18:18:48Z</time>
      </trkpt>
      <trkpt lat="45.3823" lon="4.57163">
        <ele>1417.784</ele>
        <time>2017-04-01T18:19:08Z</time>
      </trkpt>
      <trkpt lat="45.38199" lon="4.5709">
        <ele>1409.195</ele>
        <time>2017-04-01T18:19:28Z</time>
      </trkpt>
      <trkpt lat="45.38153" lon="4.57019">
        <ele>1400.47</ele>
        <time>2017-04-01T18:19:48Z</time>
      </trkpt>
      <trkpt lat="45.38129" lon="4.56968">
        <ele>1395.679</ele>
        <time>2017-04-01T18:20:08Z</time>
      </trkpt>
      <trkpt lat="45.38097" lon="4.5692">
        <ele>1390.392</ele>
        <time>2017-04-01T18:20:28Z</time>
      </trkpt>
      <trkpt lat="45.38088" lon="4.56885">
        <ele>1387.759</ele>
        <time>2017-04-01T18:20:48Z</time>
      </trkpt>
      <trkpt lat="45.38057" lon="4.56842">
        <ele>1384.033</ele>
        <time>2017-04-01T18:21:08Z</time>
      </trkpt>
      <trkpt lat="45.38045" lon="4.56799">
        <ele>1380.335</ele>
        <time>2017-04-01T18:21:28Z</time>
      </trkpt>
      <trkpt lat="45.38017" lon="4.56766">
        <ele>1378.586</ele>
        <time>2017-04-01T18:21:48Z</time>
      </trkpt>
      <trkpt lat="45.38014" lon="4.56754">
        <ele>1377.814</ele>
        <time>2017-04-01T18:22:08Z</time>
      </trkpt>
      <trkpt lat="45.37975" lon="4.56758">
        <ele>1378.508</ele>
        <time>2017-04-01T18:22:28Z</time>
      </trkpt>
      <trkpt lat="45.37921" lon="4.56739">
        <ele>1375.469</ele>
        <time>2017-04-01T18:22:48Z</time>
      </trkpt>
      <trkpt lat="45.37887" lon="4.56717">
        <ele>1370.524</ele>
        <time>2017-04-01T18:23:08Z</time>
      </trkpt>
      <trkpt lat="45.37822" lon="4.56653">
        <ele>1366.075</ele>
        <time>2017-04-01T18:23:28Z</time>
      </trkpt>
      <trkpt lat="45.37759" lon="4.56578">
        <ele>1358.59</ele>
        <time>2017-04-01T18:23:48Z</time>
      </trkpt>
      <trkpt lat="45.37728" lon="4.56545">
        <ele>1353.819</ele>
        <time>2017-04-01T18:24:08Z</time>
      </trkpt>
      <trkpt lat="45.37644" lon="4.56423">
        <ele>1340.362</ele>
        <time>2017-04-01T18:24:28Z</time>
      </trkpt>
      <trkpt lat="45.37605" lon="4.56403">
        <ele>1335.469</ele>
        <time>2017-04-01T18:24:48Z</time>
      </trkpt>
      <trkpt lat="45.37514" lon="4.56378">
        <ele>1330.063</ele>
        <time>2017-04-01T18:25:08Z</time>
      </trkpt>
      <trkpt lat="45.37459" lon="4.56322">
        <ele>1319.495</ele>
        <time>2017-04-01T18:25:28Z</time>
      </trkpt>
      <trkpt lat="45.37395" lon="4.56273">
        <ele>1309.649</ele>
        <time>2017-04-01T18:25:48Z</time>
      </trkpt>
      <trkpt lat="45.37361" lon="4.56237">
        <ele>1303.023</ele>
        <time>2017-04-01T18:26:08Z</time>
      </trkpt>
      <trkpt lat="45.37262" lon="4.56075">
        <ele>1304.208</ele>
        <time>2017-04-01T18:26:28Z</time>
      </trkpt>
      <trkpt lat="45.37215" lon="4.55958">
        <ele>1307.095</ele>
        <time>2017-04-01T18:26:48Z</time>
      </trkpt>
      <trkpt lat="45.37206" lon="4.55859">
        <ele>1299.29</ele>
        <time>2017-04-01T18:27:08Z</time>
      </trkpt>
      <trkpt lat="45.37164" lon="4.55782">
        <ele>1297.461</ele>
        <time>2017-04-01T18:27:28Z</time>
      </trkpt>
      <trkpt lat="45.37115" lon="4.55634">
        <ele>1298.476</ele>
        <time>2017-04-01T18:27:48Z</time>
      </trkpt>
      <trkpt lat="45.37115" lon="4.55556">
        <ele>1299.185</ele>
        <time>2017-04-01T18:28:08Z</time>
      </trkpt>
      <trkpt lat="45.37156" lon="4.55399">
        <ele>1295.478</ele>
        <time>2017-04-01T18:28:28Z</time>
      </trkpt>
      <trkpt lat="45.37151" lon="4.55264">
        <ele>1292.285</ele>
        <time>2017-04-01T18:28:48Z</time>
      </trkpt>
      <trkpt lat="45.37162" lon="4.55186">
        <ele>1291.889</ele>
        <time>2017-04-01T18:29:08Z</time>
      </trkpt>
      <trkpt lat="45.3722" lon="4.54924">
        <ele>1282.516</ele>
        <time>2017-04-01T18:29:28Z</time>
      </trkpt>
      <trkpt lat="45.37204" lon="4.54831">
        <ele>1283.176</ele>
        <time>2017-04-01T18:29:48Z</time>
      </trkpt>
      <trkpt lat="45.37168" lon="4.5475">
        <ele>1276.113</ele>
        <time>2017-04-01T18:30:08Z</time>
      </trkpt>
      <trkpt lat="45.37094" lon="4.54607">
        <ele>1256.308</ele>
        <time>2017-04-01T18:30:28Z</time>
      </trkpt>
      <trkpt lat="45.37045" lon="4.54533">
        <ele>1247.257</ele>
        <time>2017-04-01T18:30:48Z</time>
      </trkpt>
      <trkpt lat="45.37025" lon="4.54482">
        <ele>1238.822</ele>
        <time>2017-04-01T18:31:08Z</time>
      </trkpt>
      <trkpt lat="45.37018" lon="4.54426">
        <ele>1230.593</ele>
        <time>2017-04-01T18:31:28Z</time>
      </trkpt>
      <trkpt lat="45.37005" lon="4.54381">
        <ele>1224.778</ele>
        <time>2017-04-01T18:31:48Z</time>
      </trkpt>
      <trkpt lat="45.37014" lon="4.54342">
        <ele>1223.137</ele>
        <time>2017-04-01T18:32:08Z</time>
      </trkpt>
      <trkpt lat="45.37003" lon="4.54191">
        <ele>1224.99</ele>
        <time>2017-04-01T18:32:28Z</time>
      </trkpt>
      <trkpt lat="45.36993" lon="4.54123">
        <ele>1225.817</ele>
        <time>2017-04-01T18:32:48Z</time>
      </trkpt>
      <trkpt lat="45.36988" lon="4.54063">
        <ele>1226.361</ele>
        <time>2017-04-01T18:33:08Z</time>
      </trkpt>
      <trkpt lat="45.36998" lon="4.5403">
        <ele>1227.857</ele>
        <time>2017-04-01T18:33:28Z</time>
      </trkpt>
      <trkpt lat="45.37004" lon="4.53996">
        <ele>1231.2</ele>
        <time>2017-04-01T18:33:48Z</time>
      </trkpt>
      <trkpt lat="45.37" lon="4.53879">
        <ele>1241.42</ele>
        <time>2017-04-01T18:34:08Z</time>
      </trkpt>
      <trkpt lat="45.36994" lon="4.53836">
        <ele>1243.108</ele>
        <time>2017-04-01T18:34:28Z</time>
      </trkpt>
      <trkpt lat="45.36995" lon="4.53739">
        <ele>1245.091</ele>
        <time>2017-04-01T18:34:48Z</time>
      </trkpt>
      <trkpt lat="45.37004" lon="4.53685">
        <ele>1244.196</ele>
        <time>2017-04-01T18:35:08Z</time>
      </trkpt>
      <trkpt lat="45.37011" lon="4.53632">
        <ele>1247.427</ele>
        <time>2017-04-01T18:35:28Z</time>
      </trkpt>
      <trkpt lat="45.37022" lon="4.53561">
        <ele>1248.642</ele>
        <time>2017-04-01T18:35:48Z</time>
      </trkpt>
      <trkpt lat="45.37019" lon="4.53501">
        <ele>1248.231</ele>
        <time>2017-04-01T18:36:08Z</time>
      </trkpt>
      <trkpt lat="45.36999" lon="4.53443">
        <ele>1250.114</ele>
        <time>2017-04-01T18:36:28Z</time>
      </trkpt>
      <trkpt lat="45.36991" lon="4.53404">
        <ele>1250.081</ele>
        <time>2017-04-01T18:36:48Z</time>
      </trkpt>
      <trkpt lat="45.3695" lon="4.53302">
        <ele>1245.635</ele>
        <time>2017-04-01T18:37:08Z</time>
      </trkpt>
      <trkpt lat="45.36929" lon="4.53241">
        <ele>1237.293</ele>
        <time>2017-04-01T18:37:28Z</time>
      </trkpt>
      <trkpt lat="45.36923" lon="4.53183">
        <ele>1236.665</ele>
        <time>2017-04-01T18:37:48Z</time>
      </trkpt>
      <trkpt lat="45.36905" lon="4.53076">
        <ele>1226.621</ele>
        <time>2017-04-01T18:38:08Z</time>
      </trkpt>
      <trkpt lat="45.36907" lon="4.5305">
        <ele>1223.908</ele>
        <time>2017-04-01T18:38:28Z</time>
      </trkpt>
      <trkpt lat="45.3684" lon="4.52823">
        <ele>1203.365</ele>
        <time>2017-04-01T18:40:08Z</time>
      </trkpt>
      <trkpt lat="45.36774" lon="4.52794">
        <ele>1207.19</ele>
        <time>2019-03-28T23:15:24Z</time>
      </trkpt>
      <trkpt lat="45.36814" lon="4.52642">
        <ele>1205.331</ele>
        <time>2019-03-28T23:15:44Z</time>
      </trkpt>
      <trkpt lat="45.36809" lon="4.52435">
        <ele>1206.286</ele>
        <time>2019-03-28T23:16:04Z</time>
      </trkpt>
      <trkpt lat="45.36816" lon="4.52297">
        <ele>1205.485</ele>
        <time>2019-03-28T23:16:24Z</time>
      </trkpt>
      <trkpt lat="45.3678" lon="4.52065">
        <ele>1196.548</ele>
        <time>2019-03-28T23:16:44Z</time>
      </trkpt>
      <trkpt lat="45.36764" lon="4.51964">
        <ele>1194.485</ele>
        <time>2019-03-28T23:17:04Z</time>
      </trkpt>
      <trkpt lat="45.36764" lon="4.51881">
        <ele>1188.669</ele>
        <time>2019-03-28T23:17:24Z</time>
      </trkpt>
      <trkpt lat="45.36751" lon="4.51821">
        <ele>1187.449</ele>
        <time>2019-03-28T23:17:44Z</time>
      </trkpt>
      <trkpt lat="45.36721" lon="4.51827">
        <ele>1192.702</ele>
        <time>2017-04-01T18:42:48Z</time>
      </trkpt>
      <trkpt lat="45.36663" lon="4.51856">
        <ele>1196.922</ele>
        <time>2017-04-01T18:43:08Z</time>
      </trkpt>
      <trkpt lat="45.36596" lon="4.51934">
        <ele>1204.808</ele>
        <time>2017-04-01T18:43:28Z</time>
      </trkpt>
      <trkpt lat="45.36548" lon="4.52005">
        <ele>1205.72</ele>
        <time>2017-04-01T18:43:48Z</time>
      </trkpt>
      <trkpt lat="45.36447" lon="4.52209">
        <ele>1210.995</ele>
        <time>2017-04-01T18:44:08Z</time>
      </trkpt>
      <trkpt lat="45.36409" lon="4.52373">
        <ele>1213.826</ele>
        <time>2017-04-01T18:44:28Z</time>
      </trkpt>
      <trkpt lat="45.36384" lon="4.5241">
        <ele>1214.371</ele>
        <time>2017-04-01T18:44:48Z</time>
      </trkpt>
      <trkpt lat="45.36325" lon="4.52433">
        <ele>1218.78</ele>
        <time>2017-04-01T18:45:08Z</time>
      </trkpt>
      <trkpt lat="45.36287" lon="4.5241">
        <ele>1220.533</ele>
        <time>2017-04-01T18:45:28Z</time>
      </trkpt>
      <trkpt lat="45.36182" lon="4.52401">
        <ele>1230.98</ele>
        <time>2017-04-01T18:45:48Z</time>
      </trkpt>
      <trkpt lat="45.3612" lon="4.52366">
        <ele>1227.464</ele>
        <time>2017-04-01T18:46:08Z</time>
      </trkpt>
      <trkpt lat="45.3607" lon="4.52333">
        <ele>1230.541</ele>
        <time>2017-04-01T18:46:28Z</time>
      </trkpt>
      <trkpt lat="45.36" lon="4.52319">
        <ele>1227.581</ele>
        <time>2017-04-01T18:46:48Z</time>
      </trkpt>
      <trkpt lat="45.35919" lon="4.52414">
        <ele>1241.409</ele>
        <time>2017-04-01T18:47:08Z</time>
      </trkpt>
      <trkpt lat="45.35818" lon="4.52446">
        <ele>1252.808</ele>
        <time>2017-04-01T18:47:28Z</time>
      </trkpt>
      <trkpt lat="45.35775" lon="4.52508">
        <ele>1258.78</ele>
        <time>2017-04-01T18:47:48Z</time>
      </trkpt>
      <trkpt lat="45.35699" lon="4.52585">
        <ele>1266.015</ele>
        <time>2017-04-01T18:48:08Z</time>
      </trkpt>
      <trkpt lat="45.35676" lon="4.52624">
        <ele>1269.676</ele>
        <time>2017-04-01T18:48:28Z</time>
      </trkpt>
      <trkpt lat="45.35653" lon="4.52646">
        <ele>1272.251</ele>
        <time>2017-04-01T18:48:48Z</time>
      </trkpt>
      <trkpt lat="45.35627" lon="4.52721">
        <ele>1279.84</ele>
        <time>2017-04-01T18:49:08Z</time>
      </trkpt>
      <trkpt lat="45.35606" lon="4.52739">
        <ele>1281.233</ele>
        <time>2017-04-01T18:49:28Z</time>
      </trkpt>
      <trkpt lat="45.3555" lon="4.52739">
        <ele>1282.14</ele>
        <time>2017-04-01T18:49:48Z</time>
      </trkpt>
      <trkpt lat="45.35501" lon="4.52789">
        <ele>1285.084</ele>
        <time>2017-04-01T18:50:08Z</time>
      </trkpt>
      <trkpt lat="45.35468" lon="4.52777">
        <ele>1288.528</ele>
        <time>2017-04-01T18:50:28Z</time>
      </trkpt>
      <trkpt lat="45.35405" lon="4.52734">
        <ele>1299.089</ele>
        <time>2017-04-01T18:50:48Z</time>
      </trkpt>
      <trkpt lat="45.35276" lon="4.52623">
        <ele>1305.517</ele>
        <time>2017-04-01T18:51:08Z</time>
      </trkpt>
      <trkpt lat="45.35211" lon="4.52577">
        <ele>1305.408</ele>
        <time>2017-04-01T18:51:28Z</time>
      </trkpt>
      <trkpt lat="45.35145" lon="4.52564">
        <ele>1308.178</ele>
        <time>2017-04-01T18:51:48Z</time>
      </trkpt>
      <trkpt lat="45.34981" lon="4.52578">
        <ele>1301.043</ele>
        <time>2017-04-01T18:52:08Z</time>
      </trkpt>
      <trkpt lat="45.34925" lon="4.52591">
        <ele>1296.794</ele>
        <time>2017-04-01T18:52:28Z</time>
      </trkpt>
      <trkpt lat="45.3487" lon="4.5261">
        <ele>1292.069</ele>
        <time>2017-04-01T18:52:48Z</time>
      </trkpt>
      <trkpt lat="45.34815" lon="4.52615">
        <ele>1286.648</ele>
        <time>2017-04-01T18:53:08Z</time>
      </trkpt>
      <trkpt lat="45.34755" lon="4.52625">
        <ele>1281.671</ele>
        <time>2017-04-01T18:53:28Z</time>
      </trkpt>
      <trkpt lat="45.34701" lon="4.52579">
        <ele>1286.018</ele>
        <time>2017-04-01T18:53:48Z</time>
      </trkpt>
      <trkpt lat="45.34656" lon="4.5256">
        <ele>1288.452</ele>
        <time>2017-04-01T18:54:08Z</time>
      </trkpt>
      <trkpt lat="45.34587" lon="4.52548">
        <ele>1293.698</ele>
        <time>2017-04-01T18:54:28Z</time>
      </trkpt>
      <trkpt lat="45.34559" lon="4.52513">
        <ele>1299.415</ele>
        <time>2017-04-01T18:54:48Z</time>
      </trkpt>
      <trkpt lat="45.34491" lon="4.5237">
        <ele>1305.526</ele>
        <time>2017-04-01T18:55:08Z</time>
      </trkpt>
      <trkpt lat="45.34474" lon="4.52241">
        <ele>1302.408</ele>
        <time>2017-04-01T18:55:28Z</time>
      </trkpt>
      <trkpt lat="45.3438" lon="4.52097">
        <ele>1297.535</ele>
        <time>2017-04-01T18:55:48Z</time>
      </trkpt>
      <trkpt lat="45.34361" lon="4.52024">
        <ele>1290.64</ele>
        <time>2017-04-01T18:56:08Z</time>
      </trkpt>
      <trkpt lat="45.34341" lon="4.51904">
        <ele>1283.591</ele>
        <time>2017-04-01T18:56:28Z</time>
      </trkpt>
      <trkpt lat="45.34308" lon="4.51851">
        <ele>1277.026</ele>
        <time>2017-04-01T18:56:48Z</time>
      </trkpt>
      <trkpt lat="45.34257" lon="4.51805">
        <ele>1273.245</ele>
        <time>2017-04-01T18:57:08Z</time>
      </trkpt>
      <trkpt lat="45.34235" lon="4.51749">
        <ele>1271.528</ele>
        <time>2017-04-01T18:57:28Z</time>
      </trkpt>
      <trkpt lat="45.34219" lon="4.51648">
        <ele>1272.715</ele>
        <time>2017-04-01T18:57:48Z</time>
      </trkpt>
      <trkpt lat="45.3419" lon="4.51559">
        <ele>1269.869</ele>
        <time>2017-04-01T18:58:08Z</time>
      </trkpt>
      <trkpt lat="45.34163" lon="4.51492">
        <ele>1268.688</ele>
        <time>2017-04-01T18:58:28Z</time>
      </trkpt>
      <trkpt lat="45.34152" lon="4.51434">
        <ele>1266.824</ele>
        <time>2017-04-01T18:58:48Z</time>
      </trkpt>
      <trkpt lat="45.3413" lon="4.51395">
        <ele>1265.226</ele>
        <time>2017-04-01T18:59:08Z</time>
      </trkpt>
      <trkpt lat="45.34117" lon="4.5135">
        <ele>1268.108</ele>
        <time>2017-04-01T18:59:28Z</time>
      </trkpt>
      <trkpt lat="45.34095" lon="4.51305">
        <ele>1272.044</ele>
        <time>2017-04-01T18:59:48Z</time>
      </trkpt>
      <trkpt lat="45.34068" lon="4.51292">
        <ele>1273.269</ele>
        <time>2017-04-01T19:00:08Z</time>
      </trkpt>
      <trkpt lat="45.34028" lon="4.51123">
        <ele>1278.42</ele>
        <time>2017-04-01T19:00:28Z</time>
      </trkpt>
      <trkpt lat="45.33987" lon="4.50839">
        <ele>1264.565</ele>
        <time>2017-04-01T19:00:48Z</time>
      </trkpt>
      <trkpt lat="45.33962" lon="4.5076">
        <ele>1260.094</ele>
        <time>2017-04-01T19:01:08Z</time>
      </trkpt>
      <trkpt lat="45.33969" lon="4.50656">
        <ele>1253.637</ele>
        <time>2017-04-01T19:01:28Z</time>
      </trkpt>
      <trkpt lat="45.34005" lon="4.50563">
        <ele>1247.684</ele>
        <time>2017-04-01T19:01:48Z</time>
      </trkpt>
      <trkpt lat="45.3402" lon="4.50495">
        <ele>1244.768</ele>
        <time>2017-04-01T19:02:08Z</time>
      </trkpt>
      <trkpt lat="45.34041" lon="4.5052">
        <ele>1245.547</ele>
        <time>2017-04-01T19:02:28Z</time>
      </trkpt>
      <trkpt lat="45.34034" lon="4.50426">
        <ele>1245.229</ele>
        <time>2017-04-01T19:02:48Z</time>
      </trkpt>
      <trkpt lat="45.34042" lon="4.50376">
        <ele>1244.121</ele>
        <time>2017-04-01T19:03:08Z</time>
      </trkpt>
      <trkpt lat="45.34031" lon="4.50245">
        <ele>1234.408</ele>
        <time>2017-04-01T19:03:28Z</time>
      </trkpt>
      <trkpt lat="45.33988" lon="4.50153">
        <ele>1239.69</ele>
        <time>2017-04-01T19:03:48Z</time>
      </trkpt>
      <trkpt lat="45.33878" lon="4.50025">
        <ele>1242.025</ele>
        <time>2017-04-01T19:04:08Z</time>
      </trkpt>
      <trkpt lat="45.33832" lon="4.49913">
        <ele>1253.256</ele>
        <time>2017-04-01T19:04:28Z</time>
      </trkpt>
      <trkpt lat="45.33759" lon="4.49806">
        <ele>1255.321</ele>
        <time>2017-04-01T19:04:48Z</time>
      </trkpt>
      <trkpt lat="45.33749" lon="4.4971">
        <ele>1255.96</ele>
        <time>2017-04-01T19:05:08Z</time>
      </trkpt>
      <trkpt lat="45.33712" lon="4.49662">
        <ele>1257.823</ele>
        <time>2017-04-01T19:05:28Z</time>
      </trkpt>
      <trkpt lat="45.33681" lon="4.49641">
        <ele>1257.16</ele>
        <time>2017-04-01T19:05:48Z</time>
      </trkpt>
      <trkpt lat="45.33606" lon="4.49637">
        <ele>1258.344</ele>
        <time>2017-04-01T19:06:08Z</time>
      </trkpt>
      <trkpt lat="45.33546" lon="4.4959">
        <ele>1261.763</ele>
        <time>2017-04-01T19:06:28Z</time>
      </trkpt>
      <trkpt lat="45.33505" lon="4.49566">
        <ele>1262.144</ele>
        <time>2017-04-01T19:06:48Z</time>
      </trkpt>
      <trkpt lat="45.33467" lon="4.49508">
        <ele>1264.218</ele>
        <time>2017-04-01T19:07:08Z</time>
      </trkpt>
      <trkpt lat="45.33439" lon="4.49421">
        <ele>1261.208</ele>
        <time>2017-04-01T19:07:28Z</time>
      </trkpt>
      <trkpt lat="45.33379" lon="4.49324">
        <ele>1259.292</ele>
        <time>2017-04-01T19:07:48Z</time>
      </trkpt>
      <trkpt lat="45.33327" lon="4.49246">
        <ele>1260.167</ele>
        <time>2017-04-01T19:08:08Z</time>
      </trkpt>
      <trkpt lat="45.33296" lon="4.49073">
        <ele>1255.058</ele>
        <time>2017-04-01T19:08:28Z</time>
      </trkpt>
      <trkpt lat="45.33268" lon="4.49027">
        <ele>1251.943</ele>
        <time>2017-04-01T19:08:48Z</time>
      </trkpt>
      <trkpt lat="45.33222" lon="4.49">
        <ele>1249.972</ele>
        <time>2017-04-01T19:09:08Z</time>
      </trkpt>
      <trkpt lat="45.33159" lon="4.48947">
        <ele>1242.175</ele>
        <time>2017-04-01T19:09:28Z</time>
      </trkpt>
      <trkpt lat="45.33105" lon="4.48995">
        <ele>1233.482</ele>
        <time>2017-04-01T19:09:48Z</time>
      </trkpt>
      <trkpt lat="45.33057" lon="4.49014">
        <ele>1226.356</ele>
        <time>2017-04-01T19:10:08Z</time>
      </trkpt>
      <trkpt lat="45.32999" lon="4.49002">
        <ele>1217.189</ele>
        <time>2017-04-01T19:10:28Z</time>
      </trkpt>
      <trkpt lat="45.32945" lon="4.48979">
        <ele>1211.806</ele>
        <time>2017-04-01T19:10:48Z</time>
      </trkpt>
      <trkpt lat="45.32903" lon="4.48969">
        <ele>1208.726</ele>
        <time>2017-04-01T19:11:08Z</time>
      </trkpt>
      <trkpt lat="45.32851" lon="4.4888">
        <ele>1208.508</ele>
        <time>2017-04-01T19:11:28Z</time>
      </trkpt>
      <trkpt lat="45.3282" lon="4.48848">
        <ele>1204.354</ele>
        <time>2017-04-01T19:11:48Z</time>
      </trkpt>
      <trkpt lat="45.32806" lon="4.48805">
        <ele>1205.189</ele>
        <time>2017-04-01T19:12:08Z</time>
      </trkpt>
      <trkpt lat="45.32797" lon="4.4871">
        <ele>1203.95</ele>
        <time>2017-04-01T19:12:28Z</time>
      </trkpt>
      <trkpt lat="45.32752" lon="4.48593">
        <ele>1188.285</ele>
        <time>2017-04-01T19:12:48Z</time>
      </trkpt>
      <trkpt lat="45.32754" lon="4.48436">
        <ele>1176.034</ele>
        <time>2017-04-01T19:13:08Z</time>
      </trkpt>
      <trkpt lat="45.32767" lon="4.48372">
        <ele>1175.077</ele>
        <time>2017-04-01T19:13:28Z</time>
      </trkpt>
      <trkpt lat="45.3275" lon="4.48257">
        <ele>1167.334</ele>
        <time>2017-04-01T19:13:48Z</time>
      </trkpt>
      <trkpt lat="45.32671" lon="4.48142">
        <ele>1143.438</ele>
        <time>2017-04-01T19:14:08Z</time>
      </trkpt>
      <trkpt lat="45.3265" lon="4.48135">
        <ele>1138.958</ele>
        <time>2017-04-01T19:14:28Z</time>
      </trkpt>
      <trkpt lat="45.32589" lon="4.48151">
        <ele>1139.652</ele>
        <time>2017-04-01T19:14:48Z</time>
      </trkpt>
      <trkpt lat="45.32546" lon="4.48171">
        <ele>1141.717</ele>
        <time>2020-11-29T20:45:48Z</time>
      </trkpt>
      <trkpt lat="45.32477" lon="4.48144">
        <ele>1152.108</ele>
        <time>2020-11-29T20:46:08Z</time>
      </trkpt>
      <trkpt lat="45.32451" lon="4.48103">
        <ele>1159.231</ele>
        <time>2020-11-29T20:46:28Z</time>
      </trkpt>
      <trkpt lat="45.32424" lon="4.47987">
        <ele>1171.376</ele>
        <time>2020-11-29T20:46:48Z</time>
      </trkpt>
      <trkpt lat="45.32401" lon="4.47927">
        <ele>1173.237</ele>
        <time>2020-11-29T20:47:08Z</time>
      </trkpt>
      <trkpt lat="45.32299" lon="4.47801">
        <ele>1181.842</ele>
        <time>2020-11-29T20:47:28Z</time>
      </trkpt>
      <trkpt lat="45.32197" lon="4.47736">
        <ele>1190.861</ele>
        <time>2020-11-29T20:47:48Z</time>
      </trkpt>
      <trkpt lat="45.32087" lon="4.47652">
        <ele>1191.414</ele>
        <time>2020-11-29T20:48:08Z</time>
      </trkpt>
      <trkpt lat="45.32081" lon="4.47627">
        <ele>1189.271</ele>
        <time>2020-11-29T20:48:28Z</time>
      </trkpt>
      <trkpt lat="45.32031" lon="4.47665">
        <ele>1192.035</ele>
        <time>2020-11-29T20:48:48Z</time>
      </trkpt>
      <trkpt lat="45.31979" lon="4.47689">
        <ele>1194.878</ele>
        <time>2020-11-29T20:49:08Z</time>
      </trkpt>
      <trkpt lat="45.31933" lon="4.47689">
        <ele>1199.633</ele>
        <time>2020-11-29T20:49:28Z</time>
      </trkpt>
      <trkpt lat="45.31828" lon="4.47719">
        <ele>1205.726</ele>
        <time>2020-11-29T20:49:48Z</time>
      </trkpt>
      <trkpt lat="45.31727" lon="4.47824">
        <ele>1209.508</ele>
        <time>2020-11-29T20:50:08Z</time>
      </trkpt>
      <trkpt lat="45.31664" lon="4.47906">
        <ele>1207.343</ele>
        <time>2020-11-29T20:50:28Z</time>
      </trkpt>
      <trkpt lat="45.31604" lon="4.47953">
        <ele>1205.378</ele>
        <time>2020-11-29T20:50:48Z</time>
      </trkpt>
      <trkpt lat="45.31552" lon="4.47953">
        <ele>1203.189</ele>
        <time>2020-11-29T20:51:08Z</time>
      </trkpt>
      <trkpt lat="45.31503" lon="4.48013">
        <ele>1203.254</ele>
        <time>2020-11-29T20:51:28Z</time>
      </trkpt>
      <trkpt lat="45.31478" lon="4.4808">
        <ele>1202.383</ele>
        <time>2020-11-29T20:51:48Z</time>
      </trkpt>
      <trkpt lat="45.31447" lon="4.48141">
        <ele>1203.646</ele>
        <time>2020-11-29T20:52:08Z</time>
      </trkpt>
      <trkpt lat="45.31408" lon="4.48149">
        <ele>1199.713</ele>
        <time>2020-11-29T20:52:28Z</time>
      </trkpt>
      <trkpt lat="45.31258" lon="4.48132">
        <ele>1196.847</ele>
        <time>2020-11-29T20:52:48Z</time>
      </trkpt>
      <trkpt lat="45.31177" lon="4.48109">
        <ele>1190.239</ele>
        <time>2020-11-29T20:53:08Z</time>
      </trkpt>
      <trkpt lat="45.31109" lon="4.48111">
        <ele>1185.001</ele>
        <time>2020-11-29T20:53:28Z</time>
      </trkpt>
      <trkpt lat="45.31038" lon="4.48094">
        <ele>1184.721</ele>
        <time>2020-11-29T20:53:48Z</time>
      </trkpt>
      <trkpt lat="45.30912" lon="4.48026">
        <ele>1178.408</ele>
        <time>2020-11-29T20:54:08Z</time>
      </trkpt>
      <trkpt lat="45.30853" lon="4.48012">
        <ele>1171.599</ele>
        <time>2020-11-29T20:54:28Z</time>
      </trkpt>
      <trkpt lat="45.30788" lon="4.48006">
        <ele>1167.364</ele>
        <time>2020-11-29T20:54:48Z</time>
      </trkpt>
      <trkpt lat="45.30751" lon="4.47974">
        <ele>1165.925</ele>
        <time>2020-11-29T20:55:08Z</time>
      </trkpt>
      <trkpt lat="45.30711" lon="4.47963">
        <ele>1165.48</ele>
        <time>2020-11-29T20:55:28Z</time>
      </trkpt>
      <trkpt lat="45.30678" lon="4.47968">
        <ele>1165.659</ele>
        <time>2020-11-29T20:55:48Z</time>
      </trkpt>
      <trkpt lat="45.30589" lon="4.47918">
        <ele>1168.452</ele>
        <time>2020-11-29T20:56:08Z</time>
      </trkpt>
      <trkpt lat="45.30536" lon="4.47874">
        <ele>1166.759</ele>
        <time>2020-11-29T20:56:28Z</time>
      </trkpt>
      <trkpt lat="45.30453" lon="4.4786">
        <ele>1168.723</ele>
        <time>2020-11-29T20:56:48Z</time>
      </trkpt>
      <trkpt lat="45.30435" lon="4.4787">
        <ele>1169.184</ele>
        <time>2017-04-01T19:29:28Z</time>
      </trkpt>
      <trkpt lat="45.30274" lon="4.47877">
        <ele>1173.307</ele>
        <time>2017-04-01T19:29:48Z</time>
      </trkpt>
      <trkpt lat="45.30158" lon="4.47854">
        <ele>1178.217</ele>
        <time>2017-04-01T19:30:08Z</time>
      </trkpt>
      <trkpt lat="45.30059" lon="4.47875">
        <ele>1179.008</ele>
        <time>2017-04-01T19:30:28Z</time>
      </trkpt>
      <trkpt lat="45.29935" lon="4.47972">
        <ele>1183.684</ele>
        <time>2017-04-01T19:30:48Z</time>
      </trkpt>
      <trkpt lat="45.2985" lon="4.48066">
        <ele>1184.839</ele>
        <time>2017-04-01T19:31:08Z</time>
      </trkpt>
      <trkpt lat="45.29801" lon="4.48064">
        <ele>1190.36</ele>
        <time>2017-04-01T19:31:28Z</time>
      </trkpt>
      <trkpt lat="45.29775" lon="4.48045">
        <ele>1192.695</ele>
        <time>2017-04-01T19:31:48Z</time>
      </trkpt>
      <trkpt lat="45.29734" lon="4.47974">
        <ele>1194.674</ele>
        <time>2017-04-01T19:32:08Z</time>
      </trkpt>
      <trkpt lat="45.29703" lon="4.47933">
        <ele>1197.177</ele>
        <time>2017-04-01T19:32:28Z</time>
      </trkpt>
      <trkpt lat="45.29653" lon="4.47844">
        <ele>1204.414</ele>
        <time>2017-04-01T19:32:48Z</time>
      </trkpt>
      <trkpt lat="45.29638" lon="4.47755">
        <ele>1215.838</ele>
        <time>2017-04-01T19:33:08Z</time>
      </trkpt>
      <trkpt lat="45.29656" lon="4.47659">
        <ele>1221.441</ele>
        <time>2017-04-01T19:33:28Z</time>
      </trkpt>
      <trkpt lat="45.29694" lon="4.47559">
        <ele>1222.981</ele>
        <time>2017-04-01T19:33:48Z</time>
      </trkpt>
      <trkpt lat="45.29706" lon="4.47455">
        <ele>1231.109</ele>
        <time>2017-04-01T19:34:08Z</time>
      </trkpt>
      <trkpt lat="45.29734" lon="4.47387">
        <ele>1234.408</ele>
        <time>2017-04-01T19:34:28Z</time>
      </trkpt>
      <trkpt lat="45.29722" lon="4.47375">
        <ele>1236.03</ele>
        <time>2017-04-01T19:34:48Z</time>
      </trkpt>
      <trkpt lat="45.29667" lon="4.47408">
        <ele>1236.665</ele>
        <time>2017-04-01T19:35:08Z</time>
      </trkpt>
      <trkpt lat="45.29626" lon="4.47401">
        <ele>1239.556</ele>
        <time>2017-04-01T19:35:28Z</time>
      </trkpt>
      <trkpt lat="45.29574" lon="4.47388">
        <ele>1245.051</ele>
        <time>2017-04-01T19:35:48Z</time>
      </trkpt>
      <trkpt lat="45.29491" lon="4.47334">
        <ele>1252.99</ele>
        <time>2017-04-01T19:36:08Z</time>
      </trkpt>
      <trkpt lat="45.29454" lon="4.4733">
        <ele>1258.023</ele>
        <time>2017-04-01T19:36:28Z</time>
      </trkpt>
      <trkpt lat="45.29422" lon="4.47351">
        <ele>1259.78</ele>
        <time>2017-04-01T19:36:48Z</time>
      </trkpt>
      <trkpt lat="45.29347" lon="4.47492">
        <ele>1257.684</ele>
        <time>2020-11-29T21:04:48Z</time>
      </trkpt>
      <trkpt lat="45.29309" lon="4.47543">
        <ele>1255.525</ele>
        <time>2020-11-29T21:05:08Z</time>
      </trkpt>
      <trkpt lat="45.29268" lon="4.47616">
        <ele>1248.526</ele>
        <time>2020-11-29T21:05:28Z</time>
      </trkpt>
      <trkpt lat="45.28773" lon="4.46721">
        <ele>1279.108</ele>
        <time>2020-11-29T21:05:48Z</time>
      </trkpt>
      <trkpt lat="45.28741" lon="4.46742">
        <ele>1281.508</ele>
        <time>2020-11-29T21:06:08Z</time>
      </trkpt>
      <trkpt lat="45.28685" lon="4.46833">
        <ele>1282.778</ele>
        <time>2020-11-29T21:06:28Z</time>
      </trkpt>
      <trkpt lat="45.28615" lon="4.47036">
        <ele>1276.413</ele>
        <time>2020-11-29T21:06:48Z</time>
      </trkpt>
      <trkpt lat="45.28593" lon="4.47173">
        <ele>1270.184</ele>
        <time>2020-11-29T21:07:08Z</time>
      </trkpt>
      <trkpt lat="45.28504" lon="4.46918">
        <ele>1266.329</ele>
        <time>2017-04-01T19:42:48Z</time>
      </trkpt>
      <trkpt lat="45.28515" lon="4.46746">
        <ele>1263.598</ele>
        <time>2017-04-01T19:43:08Z</time>
      </trkpt>
      <trkpt lat="45.28531" lon="4.4656">
        <ele>1255.431</ele>
        <time>2017-04-01T19:43:28Z</time>
      </trkpt>
      <trkpt lat="45.28507" lon="4.46491">
        <ele>1249.858</ele>
        <time>2017-04-01T19:43:48Z</time>
      </trkpt>
      <trkpt lat="45.28454" lon="4.46478">
        <ele>1250.232</ele>
        <time>2017-04-01T19:44:08Z</time>
      </trkpt>
      <trkpt lat="45.28385" lon="4.46476">
        <ele>1246.762</ele>
        <time>2017-04-01T19:44:28Z</time>
      </trkpt>
      <trkpt lat="45.28309" lon="4.46486">
        <ele>1241.283</ele>
        <time>2017-04-01T19:44:48Z</time>
      </trkpt>
      <trkpt lat="45.28234" lon="4.46457">
        <ele>1241.411</ele>
        <time>2017-04-01T19:45:08Z</time>
      </trkpt>
      <trkpt lat="45.28173" lon="4.4644">
        <ele>1243.608</ele>
        <time>2017-04-01T19:45:28Z</time>
      </trkpt>
      <trkpt lat="45.28125" lon="4.4644">
        <ele>1244.882</ele>
        <time>2017-04-01T19:45:48Z</time>
      </trkpt>
      <trkpt lat="45.28014" lon="4.46483">
        <ele>1243.857</ele>
        <time>2017-04-01T19:46:08Z</time>
      </trkpt>
      <trkpt lat="45.27961" lon="4.46491">
        <ele>1244.138</ele>
        <time>2017-04-01T19:46:28Z</time>
      </trkpt>
      <trkpt lat="45.27905" lon="4.46489">
        <ele>1241.073</ele>
        <time>2017-04-01T19:46:48Z</time>
      </trkpt>
      <trkpt lat="45.27788" lon="4.46542">
        <ele>1230.682</ele>
        <time>2017-04-01T19:47:08Z</time>
      </trkpt>
      <trkpt lat="45.27729" lon="4.46551">
        <ele>1226.515</ele>
        <time>2017-04-01T19:47:28Z</time>
      </trkpt>
      <trkpt lat="45.27679" lon="4.46545">
        <ele>1221.042</ele>
        <time>2017-04-01T19:47:48Z</time>
      </trkpt>
      <trkpt lat="45.27632" lon="4.46518">
        <ele>1213.436</ele>
        <time>2017-04-01T19:48:08Z</time>
      </trkpt>
      <trkpt lat="45.27597" lon="4.46477">
        <ele>1209.547</ele>
        <time>2017-04-01T19:48:28Z</time>
      </trkpt>
      <trkpt lat="45.27594" lon="4.46429">
        <ele>1209.829</ele>
        <time>2017-04-01T19:48:48Z</time>
      </trkpt>
      <trkpt lat="45.2754" lon="4.46399">
        <ele>1202.721</ele>
        <time>2017-04-01T19:49:08Z</time>
      </trkpt>
      <trkpt lat="45.27491" lon="4.4639">
        <ele>1196.408</ele>
        <time>2017-04-01T19:49:28Z</time>
      </trkpt>
      <trkpt lat="45.27465" lon="4.46399">
        <ele>1195.13</ele>
        <time>2017-04-01T19:49:48Z</time>
      </trkpt>
      <trkpt lat="45.27445" lon="4.46397">
        <ele>1194.345</ele>
        <time>2017-04-01T19:50:08Z</time>
      </trkpt>
      <trkpt lat="45.27405" lon="4.46417">
        <ele>1192.276</ele>
        <time>2017-04-01T19:50:28Z</time>
      </trkpt>
      <trkpt lat="45.27356" lon="4.46429">
        <ele>1189.841</ele>
        <time>2017-04-01T19:50:48Z</time>
      </trkpt>
      <trkpt lat="45.27337" lon="4.4642">
        <ele>1189.19</ele>
        <time>2017-04-01T19:51:08Z</time>
      </trkpt>
      <trkpt lat="45.27306" lon="4.46438">
        <ele>1187.043</ele>
        <time>2017-04-01T19:51:28Z</time>
      </trkpt>
      <trkpt lat="45.27228" lon="4.46364">
        <ele>1185.13</ele>
        <time>2017-04-01T19:51:48Z</time>
      </trkpt>
      <trkpt lat="45.27213" lon="4.46327">
        <ele>1180.044</ele>
        <time>2017-04-01T19:52:08Z</time>
      </trkpt>
      <trkpt lat="45.27192" lon="4.46327">
        <ele>1178.335</ele>
        <time>2017-04-01T19:52:28Z</time>
      </trkpt>
      <trkpt lat="45.27164" lon="4.46349">
        <ele>1177.486</ele>
        <time>2017-04-01T19:52:48Z</time>
      </trkpt>
      <trkpt lat="45.27092" lon="4.46375">
        <ele>1170.714</ele>
        <time>2017-04-01T19:53:08Z</time>
      </trkpt>
      <trkpt lat="45.27026" lon="4.4635">
        <ele>1170.608</ele>
        <time>2017-04-01T19:53:28Z</time>
      </trkpt>
      <trkpt lat="45.27004" lon="4.46369">
        <ele>1171.539</ele>
        <time>2017-04-01T19:53:48Z</time>
      </trkpt>
      <trkpt lat="45.26988" lon="4.46366">
        <ele>1173.184</ele>
        <time>2017-04-01T19:54:08Z</time>
      </trkpt>
      <trkpt lat="45.26937" lon="4.46302">
        <ele>1178.295</ele>
        <time>2017-04-01T19:54:28Z</time>
      </trkpt>
      <trkpt lat="45.26906" lon="4.46294">
        <ele>1176.06</ele>
        <time>2017-04-01T19:54:48Z</time>
      </trkpt>
      <trkpt lat="45.2683" lon="4.46279">
        <ele>1173.069</ele>
        <time>2017-04-01T19:55:08Z</time>
      </trkpt>
      <trkpt lat="45.26703" lon="4.46246">
        <ele>1170.732</ele>
        <time>2017-04-01T19:55:28Z</time>
      </trkpt>
      <trkpt lat="45.26595" lon="4.46192">
        <ele>1159.689</ele>
        <time>2017-04-01T19:55:48Z</time>
      </trkpt>
      <trkpt lat="45.26576" lon="4.46188">
        <ele>1156.733</ele>
        <time>2017-04-01T19:56:08Z</time>
      </trkpt>
      <trkpt lat="45.26539" lon="4.46129">
        <ele>1152.071</ele>
        <time>2017-04-01T19:56:28Z</time>
      </trkpt>
      <trkpt lat="45.26503" lon="4.46039">
        <ele>1148.341</ele>
        <time>2017-04-01T19:56:48Z</time>
      </trkpt>
      <trkpt lat="45.26484" lon="4.4598">
        <ele>1146.315</ele>
        <time>2017-04-01T19:57:08Z</time>
      </trkpt>
      <trkpt lat="45.26455" lon="4.45806">
        <ele>1140.708</ele>
        <time>2017-04-01T19:57:28Z</time>
      </trkpt>
      <trkpt lat="45.26432" lon="4.45716">
        <ele>1136.023</ele>
        <time>2017-04-01T19:57:48Z</time>
      </trkpt>
      <trkpt lat="45.26397" lon="4.45635">
        <ele>1135.548</ele>
        <time>2017-04-01T19:58:08Z</time>
      </trkpt>
      <trkpt lat="45.26348" lon="4.45571">
        <ele>1131.139</ele>
        <time>2017-04-01T19:58:28Z</time>
      </trkpt>
      <trkpt lat="45.26245" lon="4.45489">
        <ele>1126.094</ele>
        <time>2017-04-01T19:58:48Z</time>
      </trkpt>
      <trkpt lat="45.26216" lon="4.45479">
        <ele>1125.243</ele>
        <time>2017-04-01T19:59:08Z</time>
      </trkpt>
      <trkpt lat="45.26131" lon="4.45475">
        <ele>1120.476</ele>
        <time>2017-04-01T19:59:28Z</time>
      </trkpt>
      <trkpt lat="45.26104" lon="4.45488">
        <ele>1121.363</ele>
        <time>2017-04-01T19:59:48Z</time>
      </trkpt>
      <trkpt lat="45.26012" lon="4.45442">
        <ele>1116.457</ele>
        <time>2017-04-01T20:00:08Z</time>
      </trkpt>
      <trkpt lat="45.25996" lon="4.45408">
        <ele>1112.796</ele>
        <time>2017-04-01T20:00:28Z</time>
      </trkpt>
      <trkpt lat="45.25966" lon="4.4536">
        <ele>1107.731</ele>
        <time>2017-04-01T20:00:48Z</time>
      </trkpt>
      <trkpt lat="45.25869" lon="4.45489">
        <ele>1104.524</ele>
        <time>2017-04-01T20:01:08Z</time>
      </trkpt>
      <trkpt lat="45.25789" lon="4.45573">
        <ele>1094.908</ele>
        <time>2017-04-01T20:01:28Z</time>
      </trkpt>
      <trkpt lat="45.25731" lon="4.45587">
        <ele>1090.835</ele>
        <time>2017-04-01T20:01:48Z</time>
      </trkpt>
      <trkpt lat="45.25657" lon="4.45623">
        <ele>1085.52</ele>
        <time>2017-04-01T20:02:08Z</time>
      </trkpt>
      <trkpt lat="45.25572" lon="4.45631">
        <ele>1081.231</ele>
        <time>2017-04-01T20:02:28Z</time>
      </trkpt>
      <trkpt lat="45.25559" lon="4.45651">
        <ele>1083.866</ele>
        <time>2017-04-01T20:02:48Z</time>
      </trkpt>
      <trkpt lat="45.25536" lon="4.45668">
        <ele>1084.615</ele>
        <time>2017-04-01T20:03:08Z</time>
      </trkpt>
      <trkpt lat="45.25532" lon="4.45727">
        <ele>1082.358</ele>
        <time>2017-04-01T20:03:28Z</time>
      </trkpt>
      <trkpt lat="45.2551" lon="4.45714">
        <ele>1077.965</ele>
        <time>2017-04-01T20:03:48Z</time>
      </trkpt>
      <trkpt lat="45.25492" lon="4.45689">
        <ele>1074.369</ele>
        <time>2017-04-01T20:04:08Z</time>
      </trkpt>
      <trkpt lat="45.25479" lon="4.45651">
        <ele>1069.379</ele>
        <time>2017-04-01T20:04:28Z</time>
      </trkpt>
      <trkpt lat="45.25457" lon="4.45645">
        <ele>1062.405</ele>
        <time>2017-04-01T20:04:48Z</time>
      </trkpt>
      <trkpt lat="45.25428" lon="4.4573">
        <ele>1053.325</ele>
        <time>2017-04-01T20:05:08Z</time>
      </trkpt>
      <trkpt lat="45.25433" lon="4.4576">
        <ele>1051.208</ele>
        <time>2017-04-01T20:05:28Z</time>
      </trkpt>
      <trkpt lat="45.25446" lon="4.4579">
        <ele>1050.153</ele>
        <time>2017-04-01T20:05:48Z</time>
      </trkpt>
      <trkpt lat="45.25428" lon="4.45791">
        <ele>1043.548</ele>
        <time>2017-04-01T20:06:08Z</time>
      </trkpt>
      <trkpt lat="45.25387" lon="4.45759">
        <ele>1034.419</ele>
        <time>2017-04-01T20:06:28Z</time>
      </trkpt>
      <trkpt lat="45.2536" lon="4.45706">
        <ele>1027.684</ele>
        <time>2017-04-01T20:06:48Z</time>
      </trkpt>
      <trkpt lat="45.25358" lon="4.45682">
        <ele>1026.633</ele>
        <time>2017-04-01T20:07:08Z</time>
      </trkpt>
      <trkpt lat="45.25365" lon="4.45641">
        <ele>1027.536</ele>
        <time>2017-04-01T20:07:28Z</time>
      </trkpt>
      <trkpt lat="45.25348" lon="4.45668">
        <ele>1023.163</ele>
        <time>2017-04-01T20:07:48Z</time>
      </trkpt>
      <trkpt lat="45.25335" lon="4.45667">
        <ele>1019.567</ele>
        <time>2017-04-01T20:08:08Z</time>
      </trkpt>
      <trkpt lat="45.25324" lon="4.45712">
        <ele>1022.722</ele>
        <time>2017-04-01T20:08:28Z</time>
      </trkpt>
      <trkpt lat="45.2533" lon="4.45763">
        <ele>1025.662</ele>
        <time>2017-04-01T20:08:48Z</time>
      </trkpt>
      <trkpt lat="45.25312" lon="4.45857">
        <ele>1029.908</ele>
        <time>2017-04-01T20:09:08Z</time>
      </trkpt>
      <trkpt lat="45.25298" lon="4.45877">
        <ele>1033.708</ele>
        <time>2017-04-01T20:09:28Z</time>
      </trkpt>
      <trkpt lat="45.2524" lon="4.4601">
        <ele>1050.858</ele>
        <time>2017-04-01T20:09:48Z</time>
      </trkpt>
      <trkpt lat="45.25169" lon="4.46052">
        <ele>1068.733</ele>
        <time>2017-04-01T20:10:08Z</time>
      </trkpt>
      <trkpt lat="45.25093" lon="4.46127">
        <ele>1076.414</ele>
        <time>2017-04-01T20:10:28Z</time>
      </trkpt>
      <trkpt lat="45.25065" lon="4.46121">
        <ele>1075.649</ele>
        <time>2017-04-01T20:10:48Z</time>
      </trkpt>
      <trkpt lat="45.25006" lon="4.46161">
        <ele>1086.578</ele>
        <time>2017-04-01T20:11:08Z</time>
      </trkpt>
      <trkpt lat="45.24967" lon="4.46176">
        <ele>1097.691</ele>
        <time>2017-04-01T20:11:28Z</time>
      </trkpt>
      <trkpt lat="45.2493" lon="4.46176">
        <ele>1108.068</ele>
        <time>2017-04-01T20:11:48Z</time>
      </trkpt>
      <trkpt lat="45.24895" lon="4.46154">
        <ele>1116.532</ele>
        <time>2017-04-01T20:12:08Z</time>
      </trkpt>
      <trkpt lat="45.24871" lon="4.46113">
        <ele>1117.494</ele>
        <time>2017-04-01T20:12:28Z</time>
      </trkpt>
      <trkpt lat="45.24848" lon="4.46093">
        <ele>1122.257</ele>
        <time>2017-04-01T20:12:48Z</time>
      </trkpt>
      <trkpt lat="45.24823" lon="4.46098">
        <ele>1129.522</ele>
        <time>2017-04-01T20:13:08Z</time>
      </trkpt>
      <trkpt lat="45.24806" lon="4.4612">
        <ele>1134.008</ele>
        <time>2017-04-01T20:13:28Z</time>
      </trkpt>
      <trkpt lat="45.24798" lon="4.46139">
        <ele>1135.935</ele>
        <time>2017-04-01T20:13:48Z</time>
      </trkpt>
      <trkpt lat="45.24797" lon="4.46198">
        <ele>1142.05</ele>
        <time>2017-04-01T20:14:08Z</time>
      </trkpt>
      <trkpt lat="45.24807" lon="4.46277">
        <ele>1152.621</ele>
        <time>2017-04-01T20:14:28Z</time>
      </trkpt>
      <trkpt lat="45.24827" lon="4.46372">
        <ele>1162.096</ele>
        <time>2017-04-01T20:14:48Z</time>
      </trkpt>
      <trkpt lat="45.24827" lon="4.46406">
        <ele>1165.785</ele>
        <time>2017-04-01T20:15:08Z</time>
      </trkpt>
      <trkpt lat="45.24821" lon="4.46435">
        <ele>1170.138</ele>
        <time>2017-04-01T20:15:28Z</time>
      </trkpt>
      <trkpt lat="45.24809" lon="4.46472">
        <ele>1178.045</ele>
        <time>2017-04-01T20:15:48Z</time>
      </trkpt>
      <trkpt lat="45.24803" lon="4.4651">
        <ele>1182.579</ele>
        <time>2017-04-01T20:16:08Z</time>
      </trkpt>
      <trkpt lat="45.24803" lon="4.46543">
        <ele>1183.697</ele>
        <time>2017-04-01T20:16:28Z</time>
      </trkpt>
      <trkpt lat="45.24811" lon="4.46579">
        <ele>1184.823</ele>
        <time>2017-04-01T20:16:48Z</time>
      </trkpt>
      <trkpt lat="45.24828" lon="4.46622">
        <ele>1188.225</ele>
        <time>2017-04-01T20:17:08Z</time>
      </trkpt>
      <trkpt lat="45.24862" lon="4.46666">
        <ele>1188.608</ele>
        <time>2017-04-01T20:17:28Z</time>
      </trkpt>
      <trkpt lat="45.24869" lon="4.4669">
        <ele>1192.095</ele>
        <time>2017-04-01T20:17:48Z</time>
      </trkpt>
      <trkpt lat="45.24901" lon="4.46766">
        <ele>1203.13</ele>
        <time>2017-04-01T20:18:08Z</time>
      </trkpt>
      <trkpt lat="45.24907" lon="4.46802">
        <ele>1207.881</ele>
        <time>2017-04-01T20:18:28Z</time>
      </trkpt>
      <trkpt lat="45.24907" lon="4.46848">
        <ele>1212.846</ele>
        <time>2017-04-01T20:18:48Z</time>
      </trkpt>
      <trkpt lat="45.24896" lon="4.46886">
        <ele>1216.045</ele>
        <time>2017-04-01T20:19:08Z</time>
      </trkpt>
      <trkpt lat="45.24882" lon="4.46919">
        <ele>1219.258</ele>
        <time>2017-04-01T20:19:28Z</time>
      </trkpt>
      <trkpt lat="45.24863" lon="4.46937">
        <ele>1222.745</ele>
        <time>2017-04-01T20:19:48Z</time>
      </trkpt>
      <trkpt lat="45.24788" lon="4.46947">
        <ele>1237.019</ele>
        <time>2017-04-01T20:20:08Z</time>
      </trkpt>
      <trkpt lat="45.24741" lon="4.46962">
        <ele>1241.791</ele>
        <time>2017-04-01T20:20:28Z</time>
      </trkpt>
      <trkpt lat="45.24691" lon="4.46959">
        <ele>1249.881</ele>
        <time>2017-04-01T20:20:48Z</time>
      </trkpt>
      <trkpt lat="45.24635" lon="4.46962">
        <ele>1257.119</ele>
        <time>2017-04-01T20:21:08Z</time>
      </trkpt>
      <trkpt lat="45.24587" lon="4.46992">
        <ele>1264.708</ele>
        <time>2017-04-01T20:21:28Z</time>
      </trkpt>
      <trkpt lat="45.24546" lon="4.47003">
        <ele>1273.135</ele>
        <time>2017-04-01T20:21:48Z</time>
      </trkpt>
      <trkpt lat="45.24481" lon="4.47011">
        <ele>1277.23</ele>
        <time>2017-04-01T20:22:08Z</time>
      </trkpt>
      <trkpt lat="45.24403" lon="4.47026">
        <ele>1285.681</ele>
        <time>2017-04-01T20:22:28Z</time>
      </trkpt>
      <trkpt lat="45.24347" lon="4.47015">
        <ele>1291.586</ele>
        <time>2017-04-01T20:22:48Z</time>
      </trkpt>
      <trkpt lat="45.24296" lon="4.47015">
        <ele>1296.585</ele>
        <time>2017-04-01T20:23:08Z</time>
      </trkpt>
      <trkpt lat="45.24249" lon="4.47026">
        <ele>1300.278</ele>
        <time>2017-04-01T20:23:28Z</time>
      </trkpt>
      <trkpt lat="45.24228" lon="4.47041">
        <ele>1298.535</ele>
        <time>2017-04-01T20:23:48Z</time>
      </trkpt>
      <trkpt lat="45.24171" lon="4.47031">
        <ele>1303.359</ele>
        <time>2017-04-01T20:24:08Z</time>
      </trkpt>
      <trkpt lat="45.24151" lon="4.4704">
        <ele>1307.791</ele>
        <time>2017-04-01T20:24:28Z</time>
      </trkpt>
      <trkpt lat="45.24088" lon="4.47088">
        <ele>1318.981</ele>
        <time>2017-04-01T20:24:48Z</time>
      </trkpt>
      <trkpt lat="45.24019" lon="4.47149">
        <ele>1324.119</ele>
        <time>2017-04-01T20:25:08Z</time>
      </trkpt>
      <trkpt lat="45.24" lon="4.47156">
        <ele>1325.008</ele>
        <time>2017-04-01T20:25:28Z</time>
      </trkpt>
      <trkpt lat="45.23932" lon="4.47369">
        <ele>1337.055</ele>
        <time>2017-04-01T20:25:48Z</time>
      </trkpt>
      <trkpt lat="45.23905" lon="4.47427">
        <ele>1341.54</ele>
        <time>2017-04-01T20:26:08Z</time>
      </trkpt>
      <trkpt lat="45.23881" lon="4.47494">
        <ele>1346.121</ele>
        <time>2017-04-01T20:26:28Z</time>
      </trkpt>
      <trkpt lat="45.2385" lon="4.47552">
        <ele>1347.426</ele>
        <time>2017-04-01T20:26:48Z</time>
      </trkpt>
      <trkpt lat="45.23845" lon="4.47581">
        <ele>1347.465</ele>
        <time>2017-04-01T20:27:08Z</time>
      </trkpt>
      <trkpt lat="45.23816" lon="4.47588">
        <ele>1348.378</ele>
        <time>2017-04-01T20:27:28Z</time>
      </trkpt>
      <trkpt lat="45.2379" lon="4.47588">
        <ele>1350.645</ele>
        <time>2017-04-01T20:27:48Z</time>
      </trkpt>
      <trkpt lat="45.23744" lon="4.47663">
        <ele>1352.029</ele>
        <time>2017-04-01T20:28:08Z</time>
      </trkpt>
      <trkpt lat="45.23695" lon="4.47734">
        <ele>1353.063</ele>
        <time>2017-04-01T20:28:28Z</time>
      </trkpt>
      <trkpt lat="45.2364" lon="4.47799">
        <ele>1353.844</ele>
        <time>2017-04-01T20:28:48Z</time>
      </trkpt>
      <trkpt lat="45.23567" lon="4.47885">
        <ele>1351.718</ele>
        <time>2019-03-29T01:04:24Z</time>
      </trkpt>
      <trkpt lat="45.23483" lon="4.47953">
        <ele>1348.908</ele>
        <time>2017-04-01T20:29:28Z</time>
      </trkpt>
      <trkpt lat="45.23443" lon="4.47992">
        <ele>1345.642</ele>
        <time>2017-04-01T20:29:48Z</time>
      </trkpt>
      <trkpt lat="45.23408" lon="4.4804">
        <ele>1342.137</ele>
        <time>2017-04-01T20:30:08Z</time>
      </trkpt>
      <trkpt lat="45.23383" lon="4.48088">
        <ele>1338.338</ele>
        <time>2017-04-01T20:30:28Z</time>
      </trkpt>
      <trkpt lat="45.23364" lon="4.48152">
        <ele>1336.693</ele>
        <time>2017-04-01T20:30:48Z</time>
      </trkpt>
      <trkpt lat="45.23356" lon="4.48214">
        <ele>1332.252</ele>
        <time>2017-04-01T20:31:08Z</time>
      </trkpt>
      <trkpt lat="45.23335" lon="4.48294">
        <ele>1328.295</ele>
        <time>2017-04-01T20:31:28Z</time>
      </trkpt>
      <trkpt lat="45.23312" lon="4.48343">
        <ele>1325.912</ele>
        <time>2017-04-01T20:31:48Z</time>
      </trkpt>
      <trkpt lat="45.23301" lon="4.48358">
        <ele>1324.526</ele>
        <time>2017-04-01T20:32:08Z</time>
      </trkpt>
      <trkpt lat="45.23255" lon="4.48376">
        <ele>1319.441</ele>
        <time>2017-04-01T20:32:28Z</time>
      </trkpt>
      <trkpt lat="45.232" lon="4.48423">
        <ele>1318.081</ele>
        <time>2017-04-01T20:32:48Z</time>
      </trkpt>
      <trkpt lat="45.23089" lon="4.48677">
        <ele>1308.809</ele>
        <time>2017-04-01T20:33:28Z</time>
      </trkpt>
      <trkpt lat="45.22993" lon="4.48691">
        <ele>1312.508</ele>
        <time>2017-04-01T20:33:48Z</time>
      </trkpt>
      <trkpt lat="45.22934" lon="4.48678">
        <ele>1307.12</ele>
        <time>2017-04-01T20:34:08Z</time>
      </trkpt>
      <trkpt lat="45.22896" lon="4.48693">
        <ele>1306.115</ele>
        <time>2017-04-01T20:34:28Z</time>
      </trkpt>
      <trkpt lat="45.22849" lon="4.48726">
        <ele>1308.436</ele>
        <time>2017-04-01T20:34:48Z</time>
      </trkpt>
      <trkpt lat="45.22794" lon="4.4873">
        <ele>1306.421</ele>
        <time>2017-04-01T20:35:08Z</time>
      </trkpt>
      <trkpt lat="45.2272" lon="4.48762">
        <ele>1307.69</ele>
        <time>2017-04-01T20:35:28Z</time>
      </trkpt>
      <trkpt lat="45.22594" lon="4.48858">
        <ele>1294.353</ele>
        <time>2017-04-01T20:35:48Z</time>
      </trkpt>
      <trkpt lat="45.22564" lon="4.48899">
        <ele>1294.42</ele>
        <time>2017-04-01T20:36:08Z</time>
      </trkpt>
      <trkpt lat="45.22553" lon="4.4891">
        <ele>1293.424</ele>
        <time>2017-04-01T20:36:28Z</time>
      </trkpt>
      <trkpt lat="45.22495" lon="4.489">
        <ele>1291.511</ele>
        <time>2017-04-01T20:36:48Z</time>
      </trkpt>
      <trkpt lat="45.22463" lon="4.48873">
        <ele>1294.621</ele>
        <time>2017-04-01T20:37:08Z</time>
      </trkpt>
      <trkpt lat="45.22455" lon="4.48852">
        <ele>1295.303</ele>
        <time>2017-04-01T20:37:28Z</time>
      </trkpt>
      <trkpt lat="45.22435" lon="4.48808">
        <ele>1298.108</ele>
        <time>2017-04-01T20:37:48Z</time>
      </trkpt>
      <trkpt lat="45.22426" lon="4.48758">
        <ele>1300.427</ele>
        <time>2017-04-01T20:38:08Z</time>
      </trkpt>
      <trkpt lat="45.22411" lon="4.48734">
        <ele>1305.922</ele>
        <time>2017-04-01T20:38:28Z</time>
      </trkpt>
      <trkpt lat="45.22399" lon="4.48708">
        <ele>1310.453</ele>
        <time>2017-04-01T20:38:48Z</time>
      </trkpt>
      <trkpt lat="45.22393" lon="4.48654">
        <ele>1313.758</ele>
        <time>2017-04-01T20:39:08Z</time>
      </trkpt>
      <trkpt lat="45.22405" lon="4.48573">
        <ele>1312.637</ele>
        <time>2017-04-01T20:39:28Z</time>
      </trkpt>
      <trkpt lat="45.22419" lon="4.48462">
        <ele>1308.62</ele>
        <time>2017-04-01T20:39:48Z</time>
      </trkpt>
      <trkpt lat="45.22416" lon="4.48428">
        <ele>1306.567</ele>
        <time>2017-04-01T20:40:08Z</time>
      </trkpt>
      <trkpt lat="45.22379" lon="4.4841">
        <ele>1306.611</ele>
        <time>2017-04-01T20:40:28Z</time>
      </trkpt>
      <trkpt lat="45.22323" lon="4.48401">
        <ele>1303.421</ele>
        <time>2017-04-01T20:40:48Z</time>
      </trkpt>
      <trkpt lat="45.22236" lon="4.48371">
        <ele>1298.441</ele>
        <time>2017-04-01T20:41:08Z</time>
      </trkpt>
      <trkpt lat="45.22191" lon="4.48347">
        <ele>1297.005</ele>
        <time>2017-04-01T20:41:28Z</time>
      </trkpt>
      <trkpt lat="45.22088" lon="4.48311">
        <ele>1290.808</ele>
        <time>2017-04-01T20:42:08Z</time>
      </trkpt>
      <trkpt lat="45.2199" lon="4.48304">
        <ele>1285.538</ele>
        <time>2017-04-01T20:42:28Z</time>
      </trkpt>
      <trkpt lat="45.21842" lon="4.48308">
        <ele>1269.693</ele>
        <time>2017-04-01T20:42:48Z</time>
      </trkpt>
      <trkpt lat="45.21777" lon="4.48285">
        <ele>1265.494</ele>
        <time>2017-04-01T20:43:08Z</time>
      </trkpt>
      <trkpt lat="45.21689" lon="4.48219">
        <ele>1254.569</ele>
        <time>2017-04-01T20:43:28Z</time>
      </trkpt>
      <trkpt lat="45.21638" lon="4.48189">
        <ele>1252.388</ele>
        <time>2017-04-01T20:43:48Z</time>
      </trkpt>
      <trkpt lat="45.21606" lon="4.48156">
        <ele>1248.921</ele>
        <time>2017-04-01T20:44:08Z</time>
      </trkpt>
      <trkpt lat="45.21605" lon="4.48143">
        <ele>1248.858</ele>
        <time>2015-08-23T07:41:32Z</time>
      </trkpt>
      <trkpt lat="45.21605" lon="4.48143">
        <ele>1248.832</ele>
        <time>2015-08-23T07:41:32Z</time>
      </trkpt>
      <trkpt lat="45.21513" lon="4.48011">
        <ele>1259.971</ele>
        <time>2015-08-23T07:41:52Z</time>
      </trkpt>
      <trkpt lat="45.21455" lon="4.47854">
        <ele>1270.441</ele>
        <time>2015-08-23T07:42:12Z</time>
      </trkpt>
      <trkpt lat="45.21381" lon="4.47793">
        <ele>1276.115</ele>
        <time>2015-08-23T07:42:32Z</time>
      </trkpt>
      <trkpt lat="45.21319" lon="4.47731">
        <ele>1279.208</ele>
        <time>2015-08-23T07:42:52Z</time>
      </trkpt>
      <trkpt lat="45.21275" lon="4.47719">
        <ele>1280.053</ele>
        <time>2015-08-23T07:43:12Z</time>
      </trkpt>
      <trkpt lat="45.2124" lon="4.47689">
        <ele>1281.498</ele>
        <time>2015-08-23T07:43:32Z</time>
      </trkpt>
      <trkpt lat="45.21188" lon="4.47662">
        <ele>1285.539</ele>
        <time>2015-08-23T07:43:52Z</time>
      </trkpt>
      <trkpt lat="45.20999" lon="4.47661">
        <ele>1286.364</ele>
        <time>2015-08-23T07:44:12Z</time>
      </trkpt>
      <trkpt lat="45.20879" lon="4.4767">
        <ele>1280.663</ele>
        <time>2015-08-23T07:44:32Z</time>
      </trkpt>
      <trkpt lat="45.20866" lon="4.47689">
        <ele>1280.236</ele>
        <time>2015-08-23T07:44:52Z</time>
      </trkpt>
      <trkpt lat="45.2084" lon="4.47707">
        <ele>1278.983</ele>
        <time>2015-08-23T07:45:12Z</time>
      </trkpt>
      <trkpt lat="45.20668" lon="4.47765">
        <ele>1283.067</ele>
        <time>2015-08-23T07:45:32Z</time>
      </trkpt>
      <trkpt lat="45.20517" lon="4.47846">
        <ele>1288.777</ele>
        <time>2015-08-23T07:45:52Z</time>
      </trkpt>
      <trkpt lat="45.2039" lon="4.47887">
        <ele>1297.761</ele>
        <time>2015-08-23T07:46:12Z</time>
      </trkpt>
      <trkpt lat="45.20312" lon="4.47843">
        <ele>1305.127</ele>
        <time>2015-08-23T07:46:32Z</time>
      </trkpt>
      <trkpt lat="45.20224" lon="4.47818">
        <ele>1315.308</ele>
        <time>2015-08-23T07:46:52Z</time>
      </trkpt>
      <trkpt lat="45.20165" lon="4.47791">
        <ele>1319.273</ele>
        <time>2015-08-23T07:47:12Z</time>
      </trkpt>
      <trkpt lat="45.20132" lon="4.47763">
        <ele>1323.658</ele>
        <time>2015-08-23T07:47:32Z</time>
      </trkpt>
      <trkpt lat="45.20081" lon="4.47694">
        <ele>1333.219</ele>
        <time>2015-08-23T07:47:52Z</time>
      </trkpt>
      <trkpt lat="45.20008" lon="4.47613">
        <ele>1337.444</ele>
        <time>2015-08-23T07:48:12Z</time>
      </trkpt>
      <trkpt lat="45.19998" lon="4.47608">
        <ele>1336.853</ele>
        <time>2015-08-23T07:48:32Z</time>
      </trkpt>
      <trkpt lat="45.19958" lon="4.47563">
        <ele>1331.896</ele>
        <time>2015-08-23T07:48:52Z</time>
      </trkpt>
      <trkpt lat="45.19919" lon="4.4755">
        <ele>1328.783</ele>
        <time>2015-08-23T07:49:12Z</time>
      </trkpt>
      <trkpt lat="45.19772" lon="4.4742">
        <ele>1316.217</ele>
        <time>2015-08-23T07:49:32Z</time>
      </trkpt>
      <trkpt lat="45.19735" lon="4.47371">
        <ele>1311.472</ele>
        <time>2015-08-23T07:49:52Z</time>
      </trkpt>
      <trkpt lat="45.19695" lon="4.47331">
        <ele>1305.613</ele>
        <time>2015-08-23T07:50:12Z</time>
      </trkpt>
      <trkpt lat="45.19657" lon="4.47278">
        <ele>1299.014</ele>
        <time>2015-08-23T07:50:32Z</time>
      </trkpt>
      <trkpt lat="45.19619" lon="4.47248">
        <ele>1297.008</ele>
        <time>2015-08-23T07:50:52Z</time>
      </trkpt>
      <trkpt lat="45.19533" lon="4.47191">
        <ele>1291.143</ele>
        <time>2015-08-23T07:51:12Z</time>
      </trkpt>
      <trkpt lat="45.19472" lon="4.47144">
        <ele>1279.588</ele>
        <time>2015-08-23T07:51:32Z</time>
      </trkpt>
      <trkpt lat="45.19445" lon="4.47111">
        <ele>1275.059</ele>
        <time>2015-08-23T07:51:52Z</time>
      </trkpt>
      <trkpt lat="45.19416" lon="4.47092">
        <ele>1271.934</ele>
        <time>2015-08-23T07:52:12Z</time>
      </trkpt>
      <trkpt lat="45.19379" lon="4.47084">
        <ele>1266.413</ele>
        <time>2015-08-23T07:52:32Z</time>
      </trkpt>
      <trkpt lat="45.19331" lon="4.47097">
        <ele>1260.096</ele>
        <time>2015-08-23T07:52:52Z</time>
      </trkpt>
      <trkpt lat="45.19282" lon="4.47143">
        <ele>1256.783</ele>
        <time>2015-08-23T07:53:12Z</time>
      </trkpt>
      <trkpt lat="45.192" lon="4.47207">
        <ele>1246.677</ele>
        <time>2015-08-23T07:53:32Z</time>
      </trkpt>
      <trkpt lat="45.19177" lon="4.47212">
        <ele>1246.554</ele>
        <time>2015-08-23T07:53:52Z</time>
      </trkpt>
      <trkpt lat="45.19164" lon="4.47203">
        <ele>1244.656</ele>
        <time>2015-08-23T07:54:12Z</time>
      </trkpt>
      <trkpt lat="45.19148" lon="4.47156">
        <ele>1241.611</ele>
        <time>2015-08-23T07:54:32Z</time>
      </trkpt>
      <trkpt lat="45.19136" lon="4.47093">
        <ele>1241.208</ele>
        <time>2015-08-23T07:54:52Z</time>
      </trkpt>
      <trkpt lat="45.19135" lon="4.47068">
        <ele>1238.691</ele>
        <time>2015-08-23T07:55:12Z</time>
      </trkpt>
      <trkpt lat="45.19128" lon="4.47043">
        <ele>1236.596</ele>
        <time>2015-08-23T07:55:32Z</time>
      </trkpt>
      <trkpt lat="45.19101" lon="4.4697">
        <ele>1232.257</ele>
        <time>2015-08-23T07:55:52Z</time>
      </trkpt>
      <trkpt lat="45.19076" lon="4.46918">
        <ele>1228.732</ele>
        <time>2015-08-23T07:56:12Z</time>
      </trkpt>
      <trkpt lat="45.19055" lon="4.46889">
        <ele>1227.121</ele>
        <time>2015-08-23T07:56:32Z</time>
      </trkpt>
      <trkpt lat="45.18995" lon="4.4681">
        <ele>1221.044</ele>
        <time>2015-08-23T07:56:52Z</time>
      </trkpt>
      <trkpt lat="45.18895" lon="4.46729">
        <ele>1218.721</ele>
        <time>2015-08-23T07:57:12Z</time>
      </trkpt>
      <trkpt lat="45.18864" lon="4.467">
        <ele>1214.935</ele>
        <time>2015-08-23T07:57:32Z</time>
      </trkpt>
      <trkpt lat="45.18813" lon="4.46662">
        <ele>1208.844</ele>
        <time>2015-08-23T07:57:52Z</time>
      </trkpt>
      <trkpt lat="45.1877" lon="4.46639">
        <ele>1207.305</ele>
        <time>2015-08-23T07:58:12Z</time>
      </trkpt>
      <trkpt lat="45.1872" lon="4.46592">
        <ele>1201.215</ele>
        <time>2015-08-23T07:58:32Z</time>
      </trkpt>
      <trkpt lat="45.18699" lon="4.46565">
        <ele>1197.508</ele>
        <time>2015-08-23T07:58:52Z</time>
      </trkpt>
      <trkpt lat="45.18652" lon="4.46534">
        <ele>1192.21</ele>
        <time>2015-08-23T07:59:12Z</time>
      </trkpt>
      <trkpt lat="45.18612" lon="4.465">
        <ele>1184.945</ele>
        <time>2015-08-23T07:59:32Z</time>
      </trkpt>
      <trkpt lat="45.18551" lon="4.46472">
        <ele>1183.146</ele>
        <time>2015-08-23T07:59:52Z</time>
      </trkpt>
      <trkpt lat="45.18509" lon="4.46445">
        <ele>1177.761</ele>
        <time>2015-08-23T08:00:12Z</time>
      </trkpt>
      <trkpt lat="45.18428" lon="4.46422">
        <ele>1172.82</ele>
        <time>2015-08-23T08:00:32Z</time>
      </trkpt>
      <trkpt lat="45.18365" lon="4.46375">
        <ele>1172.243</ele>
        <time>2015-08-23T08:00:52Z</time>
      </trkpt>
      <trkpt lat="45.18313" lon="4.46351">
        <ele>1170.15</ele>
        <time>2015-08-23T08:01:12Z</time>
      </trkpt>
      <trkpt lat="45.18324" lon="4.46301">
        <ele>1162.564</ele>
        <time>2015-08-23T08:01:32Z</time>
      </trkpt>
      <trkpt lat="45.1834" lon="4.46259">
        <ele>1159.865</ele>
        <time>2015-08-23T08:01:52Z</time>
      </trkpt>
      <trkpt lat="45.18353" lon="4.46199">
        <ele>1160.868</ele>
        <time>2015-08-23T08:02:12Z</time>
      </trkpt>
      <trkpt lat="45.18331" lon="4.46198">
        <ele>1158.814</ele>
        <time>2015-08-23T08:02:32Z</time>
      </trkpt>
      <trkpt lat="45.18272" lon="4.46244">
        <ele>1153.908</ele>
        <time>2015-08-23T08:02:52Z</time>
      </trkpt>
      <trkpt lat="45.18227" lon="4.46299">
        <ele>1156.242</ele>
        <time>2015-08-23T08:03:12Z</time>
      </trkpt>
      <trkpt lat="45.18151" lon="4.4638">
        <ele>1157.717</ele>
        <time>2015-08-23T08:03:32Z</time>
      </trkpt>
      <trkpt lat="45.18132" lon="4.46453">
        <ele>1165.098</ele>
        <time>2015-08-23T08:03:52Z</time>
      </trkpt>
      <trkpt lat="45.18114" lon="4.46468">
        <ele>1167.353</ele>
        <time>2015-08-23T08:04:12Z</time>
      </trkpt>
      <trkpt lat="45.18093" lon="4.46467">
        <ele>1170.522</ele>
        <time>2015-08-23T08:04:32Z</time>
      </trkpt>
      <trkpt lat="45.18053" lon="4.46401">
        <ele>1166.645</ele>
        <time>2015-08-23T08:04:52Z</time>
      </trkpt>
      <trkpt lat="45.18002" lon="4.46321">
        <ele>1168.192</ele>
        <time>2020-01-18T12:49:08Z</time>
      </trkpt>
      <trkpt lat="45.17919" lon="4.46281">
        <ele>1180.746</ele>
        <time>2015-08-23T08:05:32Z</time>
      </trkpt>
      <trkpt lat="45.1789" lon="4.46275">
        <ele>1180.823</ele>
        <time>2015-08-23T08:05:52Z</time>
      </trkpt>
      <trkpt lat="45.17831" lon="4.4621">
        <ele>1173.583</ele>
        <time>2015-08-23T08:06:12Z</time>
      </trkpt>
      <trkpt lat="45.17788" lon="4.46173">
        <ele>1172.511</ele>
        <time>2015-08-23T08:06:32Z</time>
      </trkpt>
      <trkpt lat="45.17717" lon="4.46034">
        <ele>1180.408</ele>
        <time>2015-08-23T08:06:52Z</time>
      </trkpt>
      <trkpt lat="45.17681" lon="4.45999">
        <ele>1184.958</ele>
        <time>2015-08-23T08:07:12Z</time>
      </trkpt>
      <trkpt lat="45.17602" lon="4.45961">
        <ele>1191.553</ele>
        <time>2015-08-23T08:07:32Z</time>
      </trkpt>
      <trkpt lat="45.17581" lon="4.45946">
        <ele>1193.124</ele>
        <time>2015-08-23T08:07:52Z</time>
      </trkpt>
      <trkpt lat="45.17506" lon="4.45923">
        <ele>1194.889</ele>
        <time>2015-08-23T08:08:12Z</time>
      </trkpt>
      <trkpt lat="45.17413" lon="4.45877">
        <ele>1198.268</ele>
        <time>2015-08-23T08:08:32Z</time>
      </trkpt>
      <trkpt lat="45.17346" lon="4.4586">
        <ele>1198.011</ele>
        <time>2015-08-23T08:08:52Z</time>
      </trkpt>
      <trkpt lat="45.17306" lon="4.45864">
        <ele>1195.948</ele>
        <time>2015-08-23T08:09:12Z</time>
      </trkpt>
      <trkpt lat="45.17263" lon="4.45878">
        <ele>1186.622</ele>
        <time>2015-08-23T08:09:32Z</time>
      </trkpt>
      <trkpt lat="45.17222" lon="4.45907">
        <ele>1179.985</ele>
        <time>2015-08-23T08:09:52Z</time>
      </trkpt>
      <trkpt lat="45.17204" lon="4.45904">
        <ele>1177.789</ele>
        <time>2015-08-23T08:10:12Z</time>
      </trkpt>
      <trkpt lat="45.17169" lon="4.45841">
        <ele>1163.917</ele>
        <time>2015-08-23T08:10:32Z</time>
      </trkpt>
      <trkpt lat="45.17137" lon="4.45832">
        <ele>1155.608</ele>
        <time>2015-08-23T08:10:52Z</time>
      </trkpt>
      <trkpt lat="45.17083" lon="4.4584">
        <ele>1145.374</ele>
        <time>2015-08-23T08:11:12Z</time>
      </trkpt>
      <trkpt lat="45.17048" lon="4.4583">
        <ele>1140.449</ele>
        <time>2015-08-23T08:11:32Z</time>
      </trkpt>
      <trkpt lat="45.16919" lon="4.4581">
        <ele>1129.18</ele>
        <time>2015-08-23T08:11:52Z</time>
      </trkpt>
      <trkpt lat="45.16859" lon="4.45789">
        <ele>1128.215</ele>
        <time>2015-08-23T08:12:12Z</time>
      </trkpt>
      <trkpt lat="45.16785" lon="4.45739">
        <ele>1122.844</ele>
        <time>2015-08-23T08:12:32Z</time>
      </trkpt>
      <trkpt lat="45.16716" lon="4.45663">
        <ele>1114.967</ele>
        <time>2015-08-23T08:12:52Z</time>
      </trkpt>
      <trkpt lat="45.1668" lon="4.45606">
        <ele>1112.624</ele>
        <time>2015-08-23T08:13:12Z</time>
      </trkpt>
      <trkpt lat="45.16652" lon="4.45503">
        <ele>1111.118</ele>
        <time>2015-08-23T08:13:32Z</time>
      </trkpt>
      <trkpt lat="45.16607" lon="4.45402">
        <ele>1119.417</ele>
        <time>2015-08-23T08:13:52Z</time>
      </trkpt>
      <trkpt lat="45.16601" lon="4.45302">
        <ele>1123.187</ele>
        <time>2015-08-23T08:14:12Z</time>
      </trkpt>
      <trkpt lat="45.1658" lon="4.45234">
        <ele>1125.715</ele>
        <time>2015-08-23T08:14:32Z</time>
      </trkpt>
      <trkpt lat="45.1653" lon="4.45127">
        <ele>1129.908</ele>
        <time>2015-08-23T08:14:52Z</time>
      </trkpt>
      <trkpt lat="45.16495" lon="4.45091">
        <ele>1132.257</ele>
        <time>2015-08-23T08:15:12Z</time>
      </trkpt>
      <trkpt lat="45.16459" lon="4.44976">
        <ele>1137.242</ele>
        <time>2015-08-23T08:15:32Z</time>
      </trkpt>
      <trkpt lat="45.16408" lon="4.4493">
        <ele>1132.563</ele>
        <time>2020-01-18T12:59:48Z</time>
      </trkpt>
      <trkpt lat="45.16327" lon="4.44877">
        <ele>1125.888</ele>
        <time>2020-01-18T13:00:08Z</time>
      </trkpt>
      <trkpt lat="45.16249" lon="4.44838">
        <ele>1132.837</ele>
        <time>2020-01-18T13:00:28Z</time>
      </trkpt>
      <trkpt lat="45.16185" lon="4.44799">
        <ele>1139.33</ele>
        <time>2015-08-23T08:16:52Z</time>
      </trkpt>
      <trkpt lat="45.16123" lon="4.44751">
        <ele>1140.457</ele>
        <time>2015-08-23T08:17:12Z</time>
      </trkpt>
      <trkpt lat="45.16076" lon="4.44716">
        <ele>1136.371</ele>
        <time>2015-08-23T08:17:32Z</time>
      </trkpt>
      <trkpt lat="45.16008" lon="4.44736">
        <ele>1134.032</ele>
        <time>2015-08-23T08:17:52Z</time>
      </trkpt>
      <trkpt lat="45.15911" lon="4.44787">
        <ele>1132.392</ele>
        <time>2015-08-23T08:18:12Z</time>
      </trkpt>
      <trkpt lat="45.15685" lon="4.44745">
        <ele>1118.611</ele>
        <time>2015-08-23T08:18:32Z</time>
      </trkpt>
      <trkpt lat="45.1552" lon="4.44656">
        <ele>1108.908</ele>
        <time>2015-08-23T08:18:52Z</time>
      </trkpt>
      <trkpt lat="45.1531" lon="4.4452">
        <ele>1112.469</ele>
        <time>2015-08-23T08:19:12Z</time>
      </trkpt>
      <trkpt lat="45.15229" lon="4.44491">
        <ele>1109.324</ele>
        <time>2015-08-23T08:19:32Z</time>
      </trkpt>
      <trkpt lat="45.15079" lon="4.4448">
        <ele>1096.295</ele>
        <time>2015-08-23T08:19:52Z</time>
      </trkpt>
      <trkpt lat="45.14934" lon="4.44453">
        <ele>1088.53</ele>
        <time>2015-08-23T08:20:12Z</time>
      </trkpt>
      <trkpt lat="45.14906" lon="4.44433">
        <ele>1087.699</ele>
        <time>2015-08-23T08:20:32Z</time>
      </trkpt>
      <trkpt lat="45.14869" lon="4.44365">
        <ele>1084.642</ele>
        <time>2015-08-23T08:20:52Z</time>
      </trkpt>
      <trkpt lat="45.14812" lon="4.44229">
        <ele>1085.789</ele>
        <time>2015-08-23T08:21:12Z</time>
      </trkpt>
      <trkpt lat="45.14751" lon="4.44126">
        <ele>1086.913</ele>
        <time>2015-08-23T08:21:32Z</time>
      </trkpt>
      <trkpt lat="45.14694" lon="4.44062">
        <ele>1095.018</ele>
        <time>2015-08-23T08:21:52Z</time>
      </trkpt>
      <trkpt lat="45.14682" lon="4.44009">
        <ele>1098.298</ele>
        <time>2015-08-23T08:22:12Z</time>
      </trkpt>
      <trkpt lat="45.14679" lon="4.43954">
        <ele>1097.917</ele>
        <time>2015-08-23T08:22:32Z</time>
      </trkpt>
      <trkpt lat="45.14641" lon="4.43888">
        <ele>1100.508</ele>
        <time>2015-08-23T08:22:52Z</time>
      </trkpt>
      <trkpt lat="45.146" lon="4.43859">
        <ele>1101.617</ele>
        <time>2015-08-23T08:23:12Z</time>
      </trkpt>
      <trkpt lat="45.14535" lon="4.43826">
        <ele>1105.462</ele>
        <time>2015-08-23T08:23:32Z</time>
      </trkpt>
      <trkpt lat="45.14393" lon="4.4368">
        <ele>1109.693</ele>
        <time>2015-08-23T08:23:52Z</time>
      </trkpt>
      <trkpt lat="45.14274" lon="4.43645">
        <ele>1116.718</ele>
        <time>2015-08-23T08:24:12Z</time>
      </trkpt>
      <trkpt lat="45.14261" lon="4.43614">
        <ele>1115.597</ele>
        <time>2015-08-23T08:24:32Z</time>
      </trkpt>
      <trkpt lat="45.1423" lon="4.43586">
        <ele>1116.74</ele>
        <time>2015-08-23T08:24:52Z</time>
      </trkpt>
      <trkpt lat="45.14205" lon="4.43516">
        <ele>1120.547</ele>
        <time>2015-08-23T08:25:12Z</time>
      </trkpt>
      <trkpt lat="45.14189" lon="4.43529">
        <ele>1121.281</ele>
        <time>2015-08-23T08:25:32Z</time>
      </trkpt>
      <trkpt lat="45.14113" lon="4.43472">
        <ele>1127.744</ele>
        <time>2015-08-23T08:25:52Z</time>
      </trkpt>
      <trkpt lat="45.1406" lon="4.43413">
        <ele>1135.505</ele>
        <time>2015-08-23T08:26:12Z</time>
      </trkpt>
      <trkpt lat="45.13972" lon="4.43356">
        <ele>1138.415</ele>
        <time>2015-08-23T08:26:32Z</time>
      </trkpt>
      <trkpt lat="45.13829" lon="4.43286">
        <ele>1139.708</ele>
        <time>2015-08-23T08:26:52Z</time>
      </trkpt>
      <trkpt lat="45.13658" lon="4.43257">
        <ele>1140.55</ele>
        <time>2015-08-23T08:27:12Z</time>
      </trkpt>
      <trkpt lat="45.13647" lon="4.43247">
        <ele>1141.775</ele>
        <time>2015-08-23T08:27:32Z</time>
      </trkpt>
      <trkpt lat="45.13591" lon="4.43246">
        <ele>1145.226</ele>
        <time>2015-08-23T08:27:52Z</time>
      </trkpt>
      <trkpt lat="45.13569" lon="4.43232">
        <ele>1146.741</ele>
        <time>2015-08-23T08:28:12Z</time>
      </trkpt>
      <trkpt lat="45.13498" lon="4.43169">
        <ele>1146.27</ele>
        <time>2015-08-23T08:28:32Z</time>
      </trkpt>
      <trkpt lat="45.13424" lon="4.43115">
        <ele>1141.653</ele>
        <time>2015-08-23T08:28:52Z</time>
      </trkpt>
      <trkpt lat="45.13399" lon="4.43102">
        <ele>1140.56</ele>
        <time>2015-08-23T08:29:12Z</time>
      </trkpt>
      <trkpt lat="45.13365" lon="4.42966">
        <ele>1135.664</ele>
        <time>2015-08-23T08:29:32Z</time>
      </trkpt>
      <trkpt lat="45.13353" lon="4.42884">
        <ele>1128.261</ele>
        <time>2015-08-23T08:29:52Z</time>
      </trkpt>
      <trkpt lat="45.13411" lon="4.42797">
        <ele>1134.621</ele>
        <time>2015-08-23T08:30:12Z</time>
      </trkpt>
      <trkpt lat="45.13429" lon="4.42734">
        <ele>1137.813</ele>
        <time>2015-08-23T08:30:32Z</time>
      </trkpt>
      <trkpt lat="45.13465" lon="4.4255">
        <ele>1142.508</ele>
        <time>2015-08-23T08:30:52Z</time>
      </trkpt>
      <trkpt lat="45.1332" lon="4.42352">
        <ele>1149.182</ele>
        <time>2015-08-23T08:31:12Z</time>
      </trkpt>
      <trkpt lat="45.13291" lon="4.42273">
        <ele>1148.517</ele>
        <time>2015-08-23T08:31:32Z</time>
      </trkpt>
      <trkpt lat="45.13278" lon="4.42151">
        <ele>1154.228</ele>
        <time>2015-08-23T08:31:52Z</time>
      </trkpt>
      <trkpt lat="45.13284" lon="4.4206">
        <ele>1159.123</ele>
        <time>2015-08-23T08:32:12Z</time>
      </trkpt>
      <trkpt lat="45.13284" lon="4.41912">
        <ele>1163.832</ele>
        <time>2015-08-23T08:32:32Z</time>
      </trkpt>
      <trkpt lat="45.13305" lon="4.41774">
        <ele>1173.255</ele>
        <time>2015-08-23T08:32:52Z</time>
      </trkpt>
      <trkpt lat="45.1338" lon="4.4139">
        <ele>1165.282</ele>
        <time>2015-08-23T08:33:12Z</time>
      </trkpt>
      <trkpt lat="45.13371" lon="4.41311">
        <ele>1158.976</ele>
        <time>2015-08-23T08:33:32Z</time>
      </trkpt>
      <trkpt lat="45.13354" lon="4.4128">
        <ele>1162.992</ele>
        <time>2015-08-23T08:33:52Z</time>
      </trkpt>
      <trkpt lat="45.13317" lon="4.41268">
        <ele>1165.073</ele>
        <time>2015-08-23T08:34:12Z</time>
      </trkpt>
      <trkpt lat="45.13269" lon="4.41231">
        <ele>1169.92</ele>
        <time>2015-08-23T08:34:32Z</time>
      </trkpt>
      <trkpt lat="45.13172" lon="4.41206">
        <ele>1174.008</ele>
        <time>2015-08-23T08:34:52Z</time>
      </trkpt>
      <trkpt lat="45.1306" lon="4.41201">
        <ele>1176.215</ele>
        <time>2015-08-23T08:35:12Z</time>
      </trkpt>
      <trkpt lat="45.1297" lon="4.41203">
        <ele>1173.39</ele>
        <time>2015-08-23T08:35:32Z</time>
      </trkpt>
      <trkpt lat="45.12941" lon="4.41182">
        <ele>1172.061</ele>
        <time>2015-08-23T08:35:52Z</time>
      </trkpt>
      <trkpt lat="45.12902" lon="4.41105">
        <ele>1167.976</ele>
        <time>2015-08-23T08:36:12Z</time>
      </trkpt>
      <trkpt lat="45.12868" lon="4.40965">
        <ele>1163.075</ele>
        <time>2015-08-23T08:36:32Z</time>
      </trkpt>
      <trkpt lat="45.12855" lon="4.40898">
        <ele>1155.188</ele>
        <time>2015-08-23T08:36:52Z</time>
      </trkpt>
      <trkpt lat="45.1286" lon="4.40806">
        <ele>1150.825</ele>
        <time>2015-08-23T08:37:12Z</time>
      </trkpt>
      <trkpt lat="45.12885" lon="4.40739">
        <ele>1146.169</ele>
        <time>2015-08-23T08:37:32Z</time>
      </trkpt>
      <trkpt lat="45.12875" lon="4.40704">
        <ele>1147.034</ele>
        <time>2015-08-23T08:37:52Z</time>
      </trkpt>
      <trkpt lat="45.1268" lon="4.40674">
        <ele>1138.155</ele>
        <time>2015-08-23T08:38:12Z</time>
      </trkpt>
      <trkpt lat="45.12621" lon="4.40639">
        <ele>1137.81</ele>
        <time>2015-08-23T08:38:32Z</time>
      </trkpt>
      <trkpt lat="45.12549" lon="4.40556">
        <ele>1137.308</ele>
        <time>2015-08-23T08:38:52Z</time>
      </trkpt>
      <trkpt lat="45.12244" lon="4.40327">
        <ele>1115.649</ele>
        <time>2015-08-23T08:39:12Z</time>
      </trkpt>
      <trkpt lat="45.12118" lon="4.40233">
        <ele>1115.894</ele>
        <time>2015-08-23T08:39:32Z</time>
      </trkpt>
      <trkpt lat="45.11926" lon="4.4012">
        <ele>1123.985</ele>
        <time>2015-08-23T08:39:52Z</time>
      </trkpt>
      <trkpt lat="45.11889" lon="4.40091">
        <ele>1124.71</ele>
        <time>2015-08-23T08:40:12Z</time>
      </trkpt>
      <trkpt lat="45.11741" lon="4.40027">
        <ele>1130.769</ele>
        <time>2020-01-18T13:24:28Z</time>
      </trkpt>
      <trkpt lat="45.11702" lon="4.40045">
        <ele>1131.262</ele>
        <time>2020-01-18T13:24:48Z</time>
      </trkpt>
      <trkpt lat="45.11628" lon="4.40034">
        <ele>1133.919</ele>
        <time>2020-01-18T13:25:08Z</time>
      </trkpt>
      <trkpt lat="45.11495" lon="4.40036">
        <ele>1142.983</ele>
        <time>2020-01-18T13:25:28Z</time>
      </trkpt>
      <trkpt lat="45.11451" lon="4.40006">
        <ele>1142.877</ele>
        <time>2019-03-28T16:45:43Z</time>
      </trkpt>
      <trkpt lat="45.11366" lon="4.39974">
        <ele>1128.261</ele>
        <time>2019-03-28T16:46:03Z</time>
      </trkpt>
      <trkpt lat="45.11294" lon="4.40006">
        <ele>1133.527</ele>
        <time>2019-03-28T16:46:23Z</time>
      </trkpt>
      <trkpt lat="45.11247" lon="4.40052">
        <ele>1136.608</ele>
        <time>2015-08-23T08:43:12Z</time>
      </trkpt>
      <trkpt lat="45.11228" lon="4.40151">
        <ele>1131.233</ele>
        <time>2015-08-23T08:43:32Z</time>
      </trkpt>
      <trkpt lat="45.1117" lon="4.40272">
        <ele>1120.748</ele>
        <time>2015-08-23T08:43:52Z</time>
      </trkpt>
      <trkpt lat="45.11142" lon="4.4039">
        <ele>1121.189</ele>
        <time>2015-08-23T08:44:12Z</time>
      </trkpt>
      <trkpt lat="45.11133" lon="4.40493">
        <ele>1116.264</ele>
        <time>2015-08-23T08:44:32Z</time>
      </trkpt>
      <trkpt lat="45.11118" lon="4.40557">
        <ele>1109.213</ele>
        <time>2015-08-23T08:44:52Z</time>
      </trkpt>
      <trkpt lat="45.11082" lon="4.40563">
        <ele>1110.676</ele>
        <time>2015-08-23T08:45:12Z</time>
      </trkpt>
      <trkpt lat="45.1099" lon="4.40604">
        <ele>1123.773</ele>
        <time>2015-08-23T08:45:32Z</time>
      </trkpt>
      <trkpt lat="45.10936" lon="4.40636">
        <ele>1125.717</ele>
        <time>2015-08-23T08:45:52Z</time>
      </trkpt>
      <trkpt lat="45.1068" lon="4.40713">
        <ele>1138.983</ele>
        <time>2015-08-23T08:46:12Z</time>
      </trkpt>
      <trkpt lat="45.10575" lon="4.40697">
        <ele>1145.525</ele>
        <time>2015-08-23T08:46:32Z</time>
      </trkpt>
      <trkpt lat="45.1053" lon="4.40683">
        <ele>1148.317</ele>
        <time>2015-08-23T08:46:52Z</time>
      </trkpt>
      <trkpt lat="45.10397" lon="4.40606">
        <ele>1158.108</ele>
        <time>2015-08-23T08:47:12Z</time>
      </trkpt>
      <trkpt lat="45.10331" lon="4.40564">
        <ele>1154.524</ele>
        <time>2015-08-23T08:47:32Z</time>
      </trkpt>
      <trkpt lat="45.10255" lon="4.40529">
        <ele>1157.359</ele>
        <time>2015-08-23T08:47:52Z</time>
      </trkpt>
      <trkpt lat="45.10162" lon="4.40456">
        <ele>1163.52</ele>
        <time>2015-08-23T08:48:12Z</time>
      </trkpt>
      <trkpt lat="45.09934" lon="4.40343">
        <ele>1163.415</ele>
        <time>2015-08-23T08:48:32Z</time>
      </trkpt>
      <trkpt lat="45.09838" lon="4.40287">
        <ele>1169.344</ele>
        <time>2015-08-23T08:48:52Z</time>
      </trkpt>
      <trkpt lat="45.0976" lon="4.40251">
        <ele>1164.357</ele>
        <time>2015-08-23T08:49:12Z</time>
      </trkpt>
      <trkpt lat="45.09676" lon="4.40184">
        <ele>1162.664</ele>
        <time>2015-08-23T08:49:32Z</time>
      </trkpt>
      <trkpt lat="45.09635" lon="4.40125">
        <ele>1161.678</ele>
        <time>2015-08-23T08:49:52Z</time>
      </trkpt>
      <trkpt lat="45.09596" lon="4.40052">
        <ele>1163.572</ele>
        <time>2015-08-23T08:50:12Z</time>
      </trkpt>
      <trkpt lat="45.09537" lon="4.39953">
        <ele>1167.413</ele>
        <time>2015-08-23T08:50:32Z</time>
      </trkpt>
      <trkpt lat="45.09296" lon="4.39504">
        <ele>1181.414</ele>
        <time>2015-08-23T08:50:52Z</time>
      </trkpt>
      <trkpt lat="45.09035" lon="4.39012">
        <ele>1201.208</ele>
        <time>2015-08-23T08:51:12Z</time>
      </trkpt>
      <trkpt lat="45.08965" lon="4.38734">
        <ele>1202.343</ele>
        <time>2015-08-23T08:51:32Z</time>
      </trkpt>
      <trkpt lat="45.0891" lon="4.38568">
        <ele>1200.258</ele>
        <time>2015-08-23T08:51:52Z</time>
      </trkpt>
      <trkpt lat="45.08868" lon="4.38513">
        <ele>1201.579</ele>
        <time>2015-08-23T08:52:12Z</time>
      </trkpt>
      <trkpt lat="45.08761" lon="4.38438">
        <ele>1197.424</ele>
        <time>2015-08-23T08:52:32Z</time>
      </trkpt>
      <trkpt lat="45.08629" lon="4.38387">
        <ele>1194.643</ele>
        <time>2015-08-23T08:52:52Z</time>
      </trkpt>
      <trkpt lat="45.08551" lon="4.3836">
        <ele>1189.896</ele>
        <time>2015-08-23T08:53:12Z</time>
      </trkpt>
      <trkpt lat="45.08488" lon="4.38358">
        <ele>1190.563</ele>
        <time>2015-08-23T08:53:32Z</time>
      </trkpt>
      <trkpt lat="45.08327" lon="4.38438">
        <ele>1199.067</ele>
        <time>2015-08-23T08:53:52Z</time>
      </trkpt>
      <trkpt lat="45.08259" lon="4.38462">
        <ele>1200.257</ele>
        <time>2015-08-23T08:54:12Z</time>
      </trkpt>
      <trkpt lat="45.08064" lon="4.38482">
        <ele>1201.8</ele>
        <time>2020-11-29T23:21:28Z</time>
      </trkpt>
      <trkpt lat="45.07927" lon="4.38697">
        <ele>1201.12</ele>
        <time>2020-11-29T23:21:48Z</time>
      </trkpt>
      <trkpt lat="45.08009" lon="4.38767">
        <ele>1200.008</ele>
        <time>2020-11-29T23:22:08Z</time>
      </trkpt>
      <trkpt lat="45.0806" lon="4.38958">
        <ele>1196.371</ele>
        <time>2020-11-29T23:22:28Z</time>
      </trkpt>
      <trkpt lat="45.08077" lon="4.3921">
        <ele>1192.896</ele>
        <time>2020-11-29T23:22:48Z</time>
      </trkpt>
      <trkpt lat="45.08009" lon="4.39256">
        <ele>1195.767</ele>
        <time>2020-11-29T23:23:08Z</time>
      </trkpt>
      <trkpt lat="45.07934" lon="4.39274">
        <ele>1189.742</ele>
        <time>2020-11-29T23:23:28Z</time>
      </trkpt>
      <trkpt lat="45.07904" lon="4.39362">
        <ele>1188.171</ele>
        <time>2020-11-29T23:23:48Z</time>
      </trkpt>
      <trkpt lat="45.07861" lon="4.39332">
        <ele>1183.044</ele>
        <time>2020-11-29T23:24:08Z</time>
      </trkpt>
      <trkpt lat="45.07758" lon="4.39286">
        <ele>1177.461</ele>
        <time>2020-11-29T23:24:28Z</time>
      </trkpt>
      <trkpt lat="45.07614" lon="4.39195">
        <ele>1181.935</ele>
        <time>2020-11-29T23:24:48Z</time>
      </trkpt>
      <trkpt lat="45.07404" lon="4.39222">
        <ele>1184.526</ele>
        <time>2020-11-29T23:25:08Z</time>
      </trkpt>
      <trkpt lat="45.07274" lon="4.39195">
        <ele>1181.747</ele>
        <time>2020-11-29T23:25:28Z</time>
      </trkpt>
      <trkpt lat="45.07158" lon="4.39143">
        <ele>1176.211</ele>
        <time>2020-11-29T23:25:48Z</time>
      </trkpt>
      <trkpt lat="45.07117" lon="4.39019">
        <ele>1177.608</ele>
        <time>2020-11-29T23:26:08Z</time>
      </trkpt>
      <trkpt lat="45.07031" lon="4.39037">
        <ele>1174.378</ele>
        <time>2015-08-23T08:57:12Z</time>
      </trkpt>
      <trkpt lat="45.06969" lon="4.39036">
        <ele>1175.643</ele>
        <time>2015-08-23T08:57:32Z</time>
      </trkpt>
      <trkpt lat="45.06856" lon="4.39012">
        <ele>1168.794</ele>
        <time>2015-08-23T08:57:52Z</time>
      </trkpt>
      <trkpt lat="45.06794" lon="4.39001">
        <ele>1165.219</ele>
        <time>2015-08-23T08:58:12Z</time>
      </trkpt>
      <trkpt lat="45.06785" lon="4.39067">
        <ele>1171.798</ele>
        <time>2015-08-23T08:58:32Z</time>
      </trkpt>
      <trkpt lat="45.06731" lon="4.39243">
        <ele>1168.361</ele>
        <time>2015-08-23T08:58:52Z</time>
      </trkpt>
      <trkpt lat="45.06703" lon="4.39317">
        <ele>1166.528</ele>
        <time>2015-08-23T08:59:12Z</time>
      </trkpt>
      <trkpt lat="45.06665" lon="4.39446">
        <ele>1165.922</ele>
        <time>2015-08-23T08:59:32Z</time>
      </trkpt>
      <trkpt lat="45.06662" lon="4.39522">
        <ele>1166.868</ele>
        <time>2015-08-23T08:59:52Z</time>
      </trkpt>
      <trkpt lat="45.06594" lon="4.39527">
        <ele>1161.042</ele>
        <time>2015-08-23T09:00:12Z</time>
      </trkpt>
      <trkpt lat="45.06532" lon="4.3952">
        <ele>1153.626</ele>
        <time>2015-08-23T09:00:32Z</time>
      </trkpt>
      <trkpt lat="45.06493" lon="4.39541">
        <ele>1149.308</ele>
        <time>2015-08-23T09:00:52Z</time>
      </trkpt>
      <trkpt lat="45.06441" lon="4.39557">
        <ele>1145.952</ele>
        <time>2015-08-23T09:01:12Z</time>
      </trkpt>
      <trkpt lat="45.06346" lon="4.39529">
        <ele>1137.447</ele>
        <time>2015-08-23T09:01:32Z</time>
      </trkpt>
      <trkpt lat="45.06276" lon="4.39527">
        <ele>1134.868</ele>
        <time>2015-08-23T09:01:52Z</time>
      </trkpt>
      <trkpt lat="45.06197" lon="4.39534">
        <ele>1129.393</ele>
        <time>2015-08-23T09:02:12Z</time>
      </trkpt>
      <trkpt lat="45.06169" lon="4.3952">
        <ele>1124.712</ele>
        <time>2015-08-23T09:02:32Z</time>
      </trkpt>
      <trkpt lat="45.06023" lon="4.39402">
        <ele>1121.895</ele>
        <time>2015-08-23T09:02:52Z</time>
      </trkpt>
      <trkpt lat="45.05967" lon="4.39379">
        <ele>1124.172</ele>
        <time>2015-08-23T09:03:12Z</time>
      </trkpt>
      <trkpt lat="45.05937" lon="4.3937">
        <ele>1122.836</ele>
        <time>2015-08-23T09:03:32Z</time>
      </trkpt>
      <trkpt lat="45.05884" lon="4.39426">
        <ele>1122.348</ele>
        <time>2015-08-23T09:03:52Z</time>
      </trkpt>
      <trkpt lat="45.05864" lon="4.39464">
        <ele>1122.861</ele>
        <time>2015-08-23T09:04:12Z</time>
      </trkpt>
      <trkpt lat="45.05825" lon="4.39551">
        <ele>1117.117</ele>
        <time>2015-08-23T09:04:32Z</time>
      </trkpt>
      <trkpt lat="45.05624" lon="4.39832">
        <ele>1110.008</ele>
        <time>2015-08-23T09:04:52Z</time>
      </trkpt>
      <trkpt lat="45.05566" lon="4.39902">
        <ele>1103.76</ele>
        <time>2015-08-23T09:05:12Z</time>
      </trkpt>
      <trkpt lat="45.05468" lon="4.40088">
        <ele>1096.195</ele>
        <time>2019-03-28T17:09:03Z</time>
      </trkpt>
      <trkpt lat="45.05456" lon="4.39925">
        <ele>1099.186</ele>
        <time>2015-08-23T09:06:32Z</time>
      </trkpt>
      <trkpt lat="45.05377" lon="4.39753">
        <ele>1103.791</ele>
        <time>2015-08-23T09:06:52Z</time>
      </trkpt>
      <trkpt lat="45.05336" lon="4.39623">
        <ele>1099.77</ele>
        <time>2015-08-23T09:07:12Z</time>
      </trkpt>
      <trkpt lat="45.05295" lon="4.39601">
        <ele>1094.613</ele>
        <time>2015-08-23T09:07:32Z</time>
      </trkpt>
      <trkpt lat="45.05206" lon="4.39521">
        <ele>1085.75</ele>
        <time>2015-08-23T09:07:52Z</time>
      </trkpt>
      <trkpt lat="45.05162" lon="4.39567">
        <ele>1082.054</ele>
        <time>2015-08-23T09:08:12Z</time>
      </trkpt>
      <trkpt lat="45.05117" lon="4.3959">
        <ele>1076.037</ele>
        <time>2015-08-23T09:08:32Z</time>
      </trkpt>
      <trkpt lat="45.04994" lon="4.39692">
        <ele>1080.449</ele>
        <time>2015-08-23T09:08:52Z</time>
      </trkpt>
      <trkpt lat="45.04948" lon="4.39661">
        <ele>1079.413</ele>
        <time>2015-08-23T09:09:12Z</time>
      </trkpt>
      <trkpt lat="45.04947" lon="4.39587">
        <ele>1082.808</ele>
        <time>2015-08-23T09:09:32Z</time>
      </trkpt>
      <trkpt lat="45.0489" lon="4.39533">
        <ele>1091.089</ele>
        <time>2015-08-23T09:09:52Z</time>
      </trkpt>
      <trkpt lat="45.04871" lon="4.39547">
        <ele>1094.284</ele>
        <time>2015-08-23T09:10:12Z</time>
      </trkpt>
      <trkpt lat="45.04855" lon="4.39579">
        <ele>1096.665</ele>
        <time>2015-08-23T09:10:32Z</time>
      </trkpt>
      <trkpt lat="45.04844" lon="4.39628">
        <ele>1097.89</ele>
        <time>2015-08-23T09:10:52Z</time>
      </trkpt>
      <trkpt lat="45.04822" lon="4.39658">
        <ele>1099.179</ele>
        <time>2015-08-23T09:11:12Z</time>
      </trkpt>
      <trkpt lat="45.04795" lon="4.39759">
        <ele>1106.492</ele>
        <time>2015-08-23T09:11:32Z</time>
      </trkpt>
      <trkpt lat="45.04779" lon="4.39798">
        <ele>1105.529</ele>
        <time>2015-08-23T09:11:52Z</time>
      </trkpt>
      <trkpt lat="45.04743" lon="4.39861">
        <ele>1106.533</ele>
        <time>2015-08-23T09:12:12Z</time>
      </trkpt>
      <trkpt lat="45.04674" lon="4.3997">
        <ele>1103.943</ele>
        <time>2015-08-23T09:12:32Z</time>
      </trkpt>
      <trkpt lat="45.04585" lon="4.4009">
        <ele>1099.364</ele>
        <time>2015-08-23T09:12:52Z</time>
      </trkpt>
      <trkpt lat="45.04428" lon="4.40394">
        <ele>1106.11</ele>
        <time>2015-08-23T09:13:12Z</time>
      </trkpt>
      <trkpt lat="45.044" lon="4.40463">
        <ele>1108.708</ele>
        <time>2015-08-23T09:13:32Z</time>
      </trkpt>
      <trkpt lat="45.04387" lon="4.40524">
        <ele>1109.05</ele>
        <time>2015-08-23T09:13:52Z</time>
      </trkpt>
      <trkpt lat="45.04385" lon="4.40594">
        <ele>1102.995</ele>
        <time>2015-08-23T09:14:12Z</time>
      </trkpt>
      <trkpt lat="45.04377" lon="4.40595">
        <ele>1102.166</ele>
        <time>2015-08-23T09:14:32Z</time>
      </trkpt>
      <trkpt lat="45.04346" lon="4.40575">
        <ele>1102.581</ele>
        <time>2015-08-23T09:14:52Z</time>
      </trkpt>
      <trkpt lat="45.04107" lon="4.4067">
        <ele>1107.39</ele>
        <time>2015-08-23T09:15:12Z</time>
      </trkpt>
      <trkpt lat="45.03789" lon="4.40681">
        <ele>1111.143</ele>
        <time>2015-08-23T09:15:32Z</time>
      </trkpt>
      <trkpt lat="45.03548" lon="4.40631">
        <ele>1100.96</ele>
        <time>2015-08-23T09:15:52Z</time>
      </trkpt>
      <trkpt lat="45.03395" lon="4.4065">
        <ele>1096.954</ele>
        <time>2015-08-23T09:16:12Z</time>
      </trkpt>
      <trkpt lat="45.03332" lon="4.4065">
        <ele>1089.861</ele>
        <time>2015-08-23T09:16:32Z</time>
      </trkpt>
      <trkpt lat="45.03107" lon="4.40678">
        <ele>1074.921</ele>
        <time>2015-08-23T09:16:52Z</time>
      </trkpt>
      <trkpt lat="45.03065" lon="4.40665">
        <ele>1073.313</ele>
        <time>2015-08-23T09:17:12Z</time>
      </trkpt>
      <trkpt lat="45.03027" lon="4.40664">
        <ele>1071.908</ele>
        <time>2015-08-23T09:17:32Z</time>
      </trkpt>
      <trkpt lat="45.0295" lon="4.40623">
        <ele>1068.182</ele>
        <time>2015-08-23T09:17:52Z</time>
      </trkpt>
      <trkpt lat="45.02318" lon="4.40151">
        <ele>1058.437</ele>
        <time>2015-08-23T09:18:12Z</time>
      </trkpt>
      <trkpt lat="45.02285" lon="4.4016">
        <ele>1052.048</ele>
        <time>2015-08-23T09:18:32Z</time>
      </trkpt>
      <trkpt lat="45.02275" lon="4.40222">
        <ele>1048.023</ele>
        <time>2015-08-23T09:18:52Z</time>
      </trkpt>
      <trkpt lat="45.02254" lon="4.40274">
        <ele>1043.812</ele>
        <time>2015-08-23T09:19:12Z</time>
      </trkpt>
      <trkpt lat="45.02215" lon="4.4027">
        <ele>1039.985</ele>
        <time>2015-08-23T09:19:32Z</time>
      </trkpt>
      <trkpt lat="45.02193" lon="4.40249">
        <ele>1041.432</ele>
        <time>2015-08-23T09:19:52Z</time>
      </trkpt>
      <trkpt lat="45.02169" lon="4.40158">
        <ele>1045.296</ele>
        <time>2015-08-23T09:20:12Z</time>
      </trkpt>
      <trkpt lat="45.02107" lon="4.40152">
        <ele>1057.549</ele>
        <time>2015-08-23T09:20:32Z</time>
      </trkpt>
      <trkpt lat="45.0206" lon="4.40099">
        <ele>1065.302</ele>
        <time>2015-08-23T09:20:52Z</time>
      </trkpt>
      <trkpt lat="45.02009" lon="4.39942">
        <ele>1070.922</ele>
        <time>2015-08-23T09:21:12Z</time>
      </trkpt>
      <trkpt lat="45.01956" lon="4.39814">
        <ele>1071.608</ele>
        <time>2015-08-23T09:21:32Z</time>
      </trkpt>
      <trkpt lat="45.01914" lon="4.39798">
        <ele>1071.71</ele>
        <time>2015-08-23T09:21:52Z</time>
      </trkpt>
      <trkpt lat="45.01857" lon="4.39822">
        <ele>1076.445</ele>
        <time>2015-08-23T09:22:12Z</time>
      </trkpt>
      <trkpt lat="45.01798" lon="4.39856">
        <ele>1074.146</ele>
        <time>2015-08-23T09:22:32Z</time>
      </trkpt>
      <trkpt lat="45.0176" lon="4.3985">
        <ele>1068.971</ele>
        <time>2015-08-23T09:22:52Z</time>
      </trkpt>
      <trkpt lat="45.01657" lon="4.39889">
        <ele>1076.73</ele>
        <time>2020-11-29T23:51:48Z</time>
      </trkpt>
      <trkpt lat="45.01629" lon="4.3985">
        <ele>1082.043</ele>
        <time>2020-11-29T23:52:08Z</time>
      </trkpt>
      <trkpt lat="45.01562" lon="4.39824">
        <ele>1084.59</ele>
        <time>2020-11-29T23:52:28Z</time>
      </trkpt>
      <trkpt lat="45.01493" lon="4.3971">
        <ele>1087.944</ele>
        <time>2015-08-23T09:24:52Z</time>
      </trkpt>
      <trkpt lat="45.01404" lon="4.39697">
        <ele>1098.341</ele>
        <time>2015-08-23T09:25:12Z</time>
      </trkpt>
      <trkpt lat="45.01312" lon="4.39677">
        <ele>1109.081</ele>
        <time>2015-08-23T09:25:32Z</time>
      </trkpt>
      <trkpt lat="45.01329" lon="4.39664">
        <ele>1112.309</ele>
        <time>2015-08-23T09:25:52Z</time>
      </trkpt>
      <trkpt lat="45.0138" lon="4.39609">
        <ele>1117.208</ele>
        <time>2015-08-23T09:26:12Z</time>
      </trkpt>
      <trkpt lat="45.01401" lon="4.39544">
        <ele>1119.47</ele>
        <time>2015-08-23T09:26:32Z</time>
      </trkpt>
      <trkpt lat="45.01397" lon="4.39489">
        <ele>1117.665</ele>
        <time>2015-08-23T09:26:52Z</time>
      </trkpt>
      <trkpt lat="45.0138" lon="4.39457">
        <ele>1115.536</ele>
        <time>2015-08-23T09:27:12Z</time>
      </trkpt>
      <trkpt lat="45.01354" lon="4.39444">
        <ele>1116.171</ele>
        <time>2015-08-23T09:27:32Z</time>
      </trkpt>
      <trkpt lat="45.01311" lon="4.39444">
        <ele>1115.96</ele>
        <time>2015-08-23T09:27:52Z</time>
      </trkpt>
      <trkpt lat="45.01278" lon="4.39463">
        <ele>1115.873</ele>
        <time>2015-08-23T09:28:12Z</time>
      </trkpt>
      <trkpt lat="45.01264" lon="4.39501">
        <ele>1118.16</ele>
        <time>2015-08-23T09:28:32Z</time>
      </trkpt>
      <trkpt lat="45.01226" lon="4.39567">
        <ele>1111.434</ele>
        <time>2015-08-23T09:28:52Z</time>
      </trkpt>
      <trkpt lat="45.01218" lon="4.39576">
        <ele>1109.676</ele>
        <time>2015-08-23T09:29:12Z</time>
      </trkpt>
      <trkpt lat="45.01204" lon="4.39604">
        <ele>1106.59</ele>
        <time>2015-08-23T09:29:32Z</time>
      </trkpt>
      <trkpt lat="45.01206" lon="4.39632">
        <ele>1105.519</ele>
        <time>2015-08-23T09:29:52Z</time>
      </trkpt>
      <trkpt lat="45.01178" lon="4.39673">
        <ele>1100.608</ele>
        <time>2015-08-23T09:30:12Z</time>
      </trkpt>
      <trkpt lat="45.01154" lon="4.39694">
        <ele>1097.213</ele>
        <time>2015-08-23T09:30:32Z</time>
      </trkpt>
      <trkpt lat="45.01086" lon="4.39702">
        <ele>1083.388</ele>
        <time>2015-08-23T09:30:52Z</time>
      </trkpt>
      <trkpt lat="45.01086" lon="4.39702">
        <ele>1083.379</ele>
        <time>2015-08-23T09:31:12Z</time>
      </trkpt>
      <trkpt lat="45.00995" lon="4.3976">
        <ele>1075.844</ele>
        <time>2020-11-29T23:59:28Z</time>
      </trkpt>
      <trkpt lat="45.00945" lon="4.39786">
        <ele>1069.813</ele>
        <time>2020-11-29T23:59:48Z</time>
      </trkpt>
      <trkpt lat="45.00957" lon="4.39863">
        <ele>1066.316</ele>
        <time>2020-11-30T00:00:08Z</time>
      </trkpt>
      <trkpt lat="45.00908" lon="4.39876">
        <ele>1064.943</ele>
        <time>2020-11-30T00:00:28Z</time>
      </trkpt>
      <trkpt lat="45.00952" lon="4.39663">
        <ele>1066.957</ele>
        <time>2020-11-30T00:00:48Z</time>
      </trkpt>
      <trkpt lat="45.00984" lon="4.39595">
        <ele>1066.382</ele>
        <time>2015-08-23T09:32:12Z</time>
      </trkpt>
      <trkpt lat="45.01001" lon="4.39572">
        <ele>1066.643</ele>
        <time>2015-08-23T09:32:32Z</time>
      </trkpt>
      <trkpt lat="45.01026" lon="4.39479">
        <ele>1067.917</ele>
        <time>2015-08-23T09:32:52Z</time>
      </trkpt>
      <trkpt lat="45.01103" lon="4.39311">
        <ele>1059.808</ele>
        <time>2015-08-23T09:33:12Z</time>
      </trkpt>
      <trkpt lat="45.01155" lon="4.39202">
        <ele>1058.514</ele>
        <time>2015-08-23T09:33:32Z</time>
      </trkpt>
      <trkpt lat="45.01314" lon="4.3906">
        <ele>1056.529</ele>
        <time>2015-08-23T09:33:52Z</time>
      </trkpt>
      <trkpt lat="45.01337" lon="4.3903">
        <ele>1054.34</ele>
        <time>2015-08-23T09:34:12Z</time>
      </trkpt>
      <trkpt lat="45.01363" lon="4.38979">
        <ele>1054.115</ele>
        <time>2015-08-23T09:34:32Z</time>
      </trkpt>
      <trkpt lat="45.01395" lon="4.38892">
        <ele>1054.834</ele>
        <time>2015-08-23T09:34:52Z</time>
      </trkpt>
      <trkpt lat="45.01472" lon="4.38773">
        <ele>1051.897</ele>
        <time>2015-08-23T09:35:12Z</time>
      </trkpt>
      <trkpt lat="45.01503" lon="4.38628">
        <ele>1046.964</ele>
        <time>2015-08-23T09:35:32Z</time>
      </trkpt>
      <trkpt lat="45.01546" lon="4.38648">
        <ele>1044.988</ele>
        <time>2015-08-23T09:35:52Z</time>
      </trkpt>
      <trkpt lat="45.01567" lon="4.38689">
        <ele>1044.683</ele>
        <time>2015-08-23T09:36:12Z</time>
      </trkpt>
      <trkpt lat="45.01672" lon="4.3859">
        <ele>1032.825</ele>
        <time>2015-08-23T09:36:32Z</time>
      </trkpt>
      <trkpt lat="45.01754" lon="4.38569">
        <ele>1025.717</ele>
        <time>2015-08-23T09:36:52Z</time>
      </trkpt>
      <trkpt lat="45.01789" lon="4.38525">
        <ele>1020.408</ele>
        <time>2015-08-23T09:37:12Z</time>
      </trkpt>
      <trkpt lat="45.01957" lon="4.38607">
        <ele>1003.664</ele>
        <time>2015-08-23T09:37:32Z</time>
      </trkpt>
      <trkpt lat="45.02001" lon="4.38672">
        <ele>1003.089</ele>
        <time>2015-08-23T09:37:52Z</time>
      </trkpt>
      <trkpt lat="45.02025" lon="4.3868">
        <ele>1003.09</ele>
        <time>2015-08-23T09:38:12Z</time>
      </trkpt>
      <trkpt lat="45.02066" lon="4.3864">
        <ele>1006.765</ele>
        <time>2015-08-23T09:38:32Z</time>
      </trkpt>
      <trkpt lat="45.02026" lon="4.38535">
        <ele>1013.174</ele>
        <time>2015-08-23T09:38:52Z</time>
      </trkpt>
      <trkpt lat="45.02011" lon="4.38484">
        <ele>1014.137</ele>
        <time>2015-08-23T09:39:12Z</time>
      </trkpt>
      <trkpt lat="45.02009" lon="4.38418">
        <ele>1019.264</ele>
        <time>2015-08-23T09:39:32Z</time>
      </trkpt>
      <trkpt lat="45.01974" lon="4.38395">
        <ele>1020.268</ele>
        <time>2015-08-23T09:39:52Z</time>
      </trkpt>
      <trkpt lat="45.01898" lon="4.38388">
        <ele>1014.511</ele>
        <time>2015-08-23T09:40:12Z</time>
      </trkpt>
      <trkpt lat="45.01884" lon="4.38373">
        <ele>1014.521</ele>
        <time>2015-08-23T09:40:32Z</time>
      </trkpt>
      <trkpt lat="45.01868" lon="4.38205">
        <ele>1023.103</ele>
        <time>2015-08-23T09:40:52Z</time>
      </trkpt>
      <trkpt lat="45.01857" lon="4.38158">
        <ele>1020.508</ele>
        <time>2015-08-23T09:41:12Z</time>
      </trkpt>
      <trkpt lat="45.01828" lon="4.38111">
        <ele>1015.737</ele>
        <time>2015-08-23T09:41:32Z</time>
      </trkpt>
      <trkpt lat="45.01775" lon="4.38058">
        <ele>1011.532</ele>
        <time>2015-08-23T09:41:52Z</time>
      </trkpt>
      <trkpt lat="45.01758" lon="4.38015">
        <ele>1014.813</ele>
        <time>2015-08-23T09:42:12Z</time>
      </trkpt>
      <trkpt lat="45.01729" lon="4.37974">
        <ele>1016.448</ele>
        <time>2015-08-23T09:42:32Z</time>
      </trkpt>
      <trkpt lat="45.01727" lon="4.37933">
        <ele>1020.437</ele>
        <time>2015-08-23T09:42:52Z</time>
      </trkpt>
      <trkpt lat="45.01709" lon="4.37899">
        <ele>1019.55</ele>
        <time>2015-08-23T09:43:12Z</time>
      </trkpt>
      <trkpt lat="45.01724" lon="4.37895">
        <ele>1020.457</ele>
        <time>2015-08-23T09:43:32Z</time>
      </trkpt>
      <trkpt lat="45.01735" lon="4.37881">
        <ele>1020.661</ele>
        <time>2020-11-30T00:12:48Z</time>
      </trkpt>
      <trkpt lat="45.0184" lon="4.37743">
        <ele>1016.674</ele>
        <time>2020-11-30T00:13:08Z</time>
      </trkpt>
      <trkpt lat="45.01832" lon="4.3769">
        <ele>1019.556</ele>
        <time>2020-11-30T00:13:28Z</time>
      </trkpt>
      <trkpt lat="45.01885" lon="4.37548">
        <ele>1016.321</ele>
        <time>2020-11-30T00:13:48Z</time>
      </trkpt>
      <trkpt lat="45.01989" lon="4.37366">
        <ele>1019.808</ele>
        <time>2020-11-30T00:14:08Z</time>
      </trkpt>
      <trkpt lat="45.02049" lon="4.37196">
        <ele>1027.063</ele>
        <time>2020-11-30T00:14:28Z</time>
      </trkpt>
      <trkpt lat="45.02019" lon="4.37199">
        <ele>1027.458</ele>
        <time>2020-11-30T00:14:48Z</time>
      </trkpt>
      <trkpt lat="45.01974" lon="4.37133">
        <ele>1023.529</ele>
        <time>2020-11-30T00:15:08Z</time>
      </trkpt>
      <trkpt lat="45.01776" lon="4.36938">
        <ele>1020.094</ele>
        <time>2020-11-30T00:15:28Z</time>
      </trkpt>
      <trkpt lat="45.01672" lon="4.36874">
        <ele>1010.753</ele>
        <time>2020-11-30T00:15:48Z</time>
      </trkpt>
      <trkpt lat="45.01681" lon="4.36739">
        <ele>1007.536</ele>
        <time>2020-11-30T00:16:08Z</time>
      </trkpt>
      <trkpt lat="45.01662" lon="4.3666">
        <ele>1013.293</ele>
        <time>2020-11-30T00:16:28Z</time>
      </trkpt>
      <trkpt lat="45.01689" lon="4.36584">
        <ele>1022.827</ele>
        <time>2020-11-30T00:16:48Z</time>
      </trkpt>
      <trkpt lat="45.01739" lon="4.36544">
        <ele>1022.293</ele>
        <time>2020-11-30T00:17:08Z</time>
      </trkpt>
      <trkpt lat="45.01827" lon="4.36417">
        <ele>1031.465</ele>
        <time>2020-11-30T00:17:28Z</time>
      </trkpt>
      <trkpt lat="45.01866" lon="4.3629">
        <ele>1031.321</ele>
        <time>2020-11-30T00:17:48Z</time>
      </trkpt>
      <trkpt lat="45.01793" lon="4.36268">
        <ele>1035.908</ele>
        <time>2015-08-23T09:53:52Z</time>
      </trkpt>
      <trkpt lat="45.01791" lon="4.36173">
        <ele>1033.455</ele>
        <time>2015-08-23T09:54:12Z</time>
      </trkpt>
      <trkpt lat="45.01776" lon="4.36102">
        <ele>1028.93</ele>
        <time>2015-08-23T09:54:32Z</time>
      </trkpt>
      <trkpt lat="45.01757" lon="4.36031">
        <ele>1028.681</ele>
        <time>2015-08-23T09:54:52Z</time>
      </trkpt>
      <trkpt lat="45.01725" lon="4.35942">
        <ele>1030.286</ele>
        <time>2015-08-23T09:55:12Z</time>
      </trkpt>
      <trkpt lat="45.01673" lon="4.35781">
        <ele>1029.615</ele>
        <time>2015-08-23T09:55:32Z</time>
      </trkpt>
      <trkpt lat="45.01623" lon="4.35689">
        <ele>1024.918</ele>
        <time>2015-08-23T09:55:52Z</time>
      </trkpt>
      <trkpt lat="45.01648" lon="4.35679">
        <ele>1026.595</ele>
        <time>2015-08-23T09:56:12Z</time>
      </trkpt>
      <trkpt lat="45.01691" lon="4.35672">
        <ele>1028.279</ele>
        <time>2015-08-23T09:56:32Z</time>
      </trkpt>
      <trkpt lat="45.0187" lon="4.35573">
        <ele>1038.187</ele>
        <time>2015-08-23T09:56:52Z</time>
      </trkpt>
      <trkpt lat="45.01931" lon="4.35545">
        <ele>1036.542</ele>
        <time>2015-08-23T09:57:12Z</time>
      </trkpt>
      <trkpt lat="45.0193" lon="4.35523">
        <ele>1036.726</ele>
        <time>2015-08-23T09:57:32Z</time>
      </trkpt>
      <trkpt lat="45.01887" lon="4.35454">
        <ele>1039.608</ele>
        <time>2015-08-23T09:57:52Z</time>
      </trkpt>
      <trkpt lat="45.01848" lon="4.35336">
        <ele>1040.534</ele>
        <time>2015-08-23T09:58:12Z</time>
      </trkpt>
      <trkpt lat="45.01745" lon="4.35165">
        <ele>1026.459</ele>
        <time>2015-08-23T09:58:32Z</time>
      </trkpt>
      <trkpt lat="45.01671" lon="4.34997">
        <ele>1026.74</ele>
        <time>2015-08-23T09:58:52Z</time>
      </trkpt>
      <trkpt lat="45.01591" lon="4.3479">
        <ele>1014.075</ele>
        <time>2015-08-23T09:59:12Z</time>
      </trkpt>
      <trkpt lat="45.01571" lon="4.34767">
        <ele>1015.344</ele>
        <time>2015-08-23T09:59:32Z</time>
      </trkpt>
      <trkpt lat="45.01576" lon="4.34737">
        <ele>1016.077</ele>
        <time>2015-08-23T09:59:52Z</time>
      </trkpt>
      <trkpt lat="45.01568" lon="4.34698">
        <ele>1018.864</ele>
        <time>2015-08-23T10:00:12Z</time>
      </trkpt>
      <trkpt lat="45.01532" lon="4.34627">
        <ele>1027.398</ele>
        <time>2015-08-23T10:00:32Z</time>
      </trkpt>
      <trkpt lat="45.01547" lon="4.34539">
        <ele>1031.415</ele>
        <time>2015-08-23T10:00:52Z</time>
      </trkpt>
      <trkpt lat="45.01538" lon="4.34455">
        <ele>1034.765</ele>
        <time>2015-08-23T10:01:12Z</time>
      </trkpt>
      <trkpt lat="45.01496" lon="4.34354">
        <ele>1041.411</ele>
        <time>2015-08-23T10:01:32Z</time>
      </trkpt>
      <trkpt lat="45.01433" lon="4.34156">
        <ele>1044.608</ele>
        <time>2015-08-23T10:01:52Z</time>
      </trkpt>
      <trkpt lat="45.01405" lon="4.34045">
        <ele>1046.987</ele>
        <time>2020-01-18T14:44:28Z</time>
      </trkpt>
      <trkpt lat="45.01311" lon="4.33932">
        <ele>1043.782</ele>
        <time>2015-08-23T10:02:32Z</time>
      </trkpt>
      <trkpt lat="45.0127" lon="4.33863">
        <ele>1042.483</ele>
        <time>2015-08-23T10:02:52Z</time>
      </trkpt>
      <trkpt lat="45.0124" lon="4.33735">
        <ele>1042.258</ele>
        <time>2015-08-23T10:03:12Z</time>
      </trkpt>
      <trkpt lat="45.01212" lon="4.33662">
        <ele>1040.547</ele>
        <time>2015-08-23T10:03:32Z</time>
      </trkpt>
      <trkpt lat="45.01202" lon="4.33582">
        <ele>1039.68</ele>
        <time>2015-08-23T10:03:52Z</time>
      </trkpt>
      <trkpt lat="45.01141" lon="4.33473">
        <ele>1046.887</ele>
        <time>2015-08-23T10:04:12Z</time>
      </trkpt>
      <trkpt lat="45.01141" lon="4.33411">
        <ele>1049.611</ele>
        <time>2015-08-23T10:04:32Z</time>
      </trkpt>
      <trkpt lat="45.01111" lon="4.3334">
        <ele>1061.711</ele>
        <time>2015-08-23T10:04:52Z</time>
      </trkpt>
      <trkpt lat="45.01091" lon="4.3327">
        <ele>1068.521</ele>
        <time>2015-08-23T10:05:12Z</time>
      </trkpt>
      <trkpt lat="45.01063" lon="4.33246">
        <ele>1070.903</ele>
        <time>2015-08-23T10:05:32Z</time>
      </trkpt>
      <trkpt lat="45.01032" lon="4.3323">
        <ele>1074.908</ele>
        <time>2015-08-23T10:05:52Z</time>
      </trkpt>
      <trkpt lat="45.0098" lon="4.33225">
        <ele>1080.427</ele>
        <time>2015-08-23T10:06:12Z</time>
      </trkpt>
      <trkpt lat="45.00936" lon="4.33185">
        <ele>1084.072</ele>
        <time>2015-08-23T10:06:32Z</time>
      </trkpt>
      <trkpt lat="45.00877" lon="4.33093">
        <ele>1081.683</ele>
        <time>2020-11-30T00:31:08Z</time>
      </trkpt>
      <trkpt lat="45.0101" lon="4.32906">
        <ele>1082.368</ele>
        <time>2020-11-30T00:31:28Z</time>
      </trkpt>
      <trkpt lat="45.01074" lon="4.3284">
        <ele>1079.577</ele>
        <time>2020-11-30T00:31:48Z</time>
      </trkpt>
      <trkpt lat="45.01062" lon="4.32734">
        <ele>1082.59</ele>
        <time>2020-11-30T00:32:08Z</time>
      </trkpt>
      <trkpt lat="45.00952" lon="4.32295">
        <ele>1085.427</ele>
        <time>2020-11-30T00:32:28Z</time>
      </trkpt>
      <trkpt lat="45.00746" lon="4.32014">
        <ele>1074.491</ele>
        <time>2020-11-30T00:32:48Z</time>
      </trkpt>
      <trkpt lat="45.00766" lon="4.31888">
        <ele>1070.393</ele>
        <time>2020-11-30T00:33:08Z</time>
      </trkpt>
      <trkpt lat="45.00774" lon="4.31782">
        <ele>1068.665</ele>
        <time>2020-11-30T00:33:28Z</time>
      </trkpt>
      <trkpt lat="45.00797" lon="4.31659">
        <ele>1067.721</ele>
        <time>2020-11-30T00:33:48Z</time>
      </trkpt>
      <trkpt lat="45.00748" lon="4.31491">
        <ele>1067.108</ele>
        <time>2020-11-30T00:34:08Z</time>
      </trkpt>
      <trkpt lat="45.00734" lon="4.31287">
        <ele>1072.475</ele>
        <time>2020-11-30T00:34:28Z</time>
      </trkpt>
      <trkpt lat="45.00778" lon="4.3106">
        <ele>1081.89</ele>
        <time>2020-11-30T00:34:48Z</time>
      </trkpt>
      <trkpt lat="45.00724" lon="4.30882">
        <ele>1086.351</ele>
        <time>2020-11-30T00:35:08Z</time>
      </trkpt>
      <trkpt lat="45.00699" lon="4.30831">
        <ele>1087.136</ele>
        <time>2020-11-30T00:35:28Z</time>
      </trkpt>
      <trkpt lat="45.00626" lon="4.30816">
        <ele>1090.465</ele>
        <time>2020-11-30T00:35:48Z</time>
      </trkpt>
      <trkpt lat="45.0048" lon="4.30836">
        <ele>1094.058</ele>
        <time>2020-11-30T00:36:08Z</time>
      </trkpt>
      <trkpt lat="45.00302" lon="4.30838">
        <ele>1097.095</ele>
        <time>2020-11-30T00:36:28Z</time>
      </trkpt>
      <trkpt lat="45.00126" lon="4.30757">
        <ele>1097.599</ele>
        <time>2020-11-30T00:36:48Z</time>
      </trkpt>
      <trkpt lat="45.00063" lon="4.30705">
        <ele>1098.695</ele>
        <time>2020-11-30T00:37:08Z</time>
      </trkpt>
      <trkpt lat="45" lon="4.30707">
        <ele>1099.549</ele>
        <time>2020-11-30T00:37:28Z</time>
      </trkpt>
      <trkpt lat="44.99966" lon="4.30732">
        <ele>1099.223</ele>
        <time>2020-11-30T00:37:48Z</time>
      </trkpt>
      <trkpt lat="44.99886" lon="4.30601">
        <ele>1103.808</ele>
        <time>2015-08-23T10:13:32Z</time>
      </trkpt>
      <trkpt lat="44.99882" lon="4.30517">
        <ele>1106.695</ele>
        <time>2015-08-23T10:13:52Z</time>
      </trkpt>
      <trkpt lat="44.99851" lon="4.30459">
        <ele>1110.48</ele>
        <time>2015-08-23T10:14:12Z</time>
      </trkpt>
      <trkpt lat="44.99832" lon="4.30445">
        <ele>1111.161</ele>
        <time>2015-08-23T10:14:32Z</time>
      </trkpt>
      <trkpt lat="44.99781" lon="4.30426">
        <ele>1112.976</ele>
        <time>2020-01-18T14:57:08Z</time>
      </trkpt>
      <trkpt lat="44.99733" lon="4.30281">
        <ele>1126.615</ele>
        <time>2015-08-23T10:15:12Z</time>
      </trkpt>
      <trkpt lat="44.99682" lon="4.30149">
        <ele>1129.998</ele>
        <time>2015-08-23T10:15:32Z</time>
      </trkpt>
      <trkpt lat="44.99637" lon="4.30151">
        <ele>1136.055</ele>
        <time>2015-08-23T10:15:52Z</time>
      </trkpt>
      <trkpt lat="44.99548" lon="4.30078">
        <ele>1139.159</ele>
        <time>2015-08-23T10:16:12Z</time>
      </trkpt>
      <trkpt lat="44.99524" lon="4.30042">
        <ele>1139.341</ele>
        <time>2015-08-23T10:16:32Z</time>
      </trkpt>
      <trkpt lat="44.99505" lon="4.29979">
        <ele>1139.081</ele>
        <time>2015-08-23T10:16:52Z</time>
      </trkpt>
      <trkpt lat="44.99514" lon="4.29947">
        <ele>1138.509</ele>
        <time>2015-08-23T10:17:12Z</time>
      </trkpt>
      <trkpt lat="44.99515" lon="4.29917">
        <ele>1137.908</ele>
        <time>2015-08-23T10:17:32Z</time>
      </trkpt>
      <trkpt lat="44.99496" lon="4.29862">
        <ele>1137.95</ele>
        <time>2015-08-23T10:17:52Z</time>
      </trkpt>
      <trkpt lat="44.99463" lon="4.29812">
        <ele>1133.345</ele>
        <time>2015-08-23T10:18:12Z</time>
      </trkpt>
      <trkpt lat="44.99438" lon="4.29793">
        <ele>1130.076</ele>
        <time>2015-08-23T10:18:32Z</time>
      </trkpt>
      <trkpt lat="44.99417" lon="4.29791">
        <ele>1127.991</ele>
        <time>2015-08-23T10:18:52Z</time>
      </trkpt>
      <trkpt lat="44.9939" lon="4.29812">
        <ele>1128.86</ele>
        <time>2015-08-23T10:19:12Z</time>
      </trkpt>
      <trkpt lat="44.99369" lon="4.29798">
        <ele>1125.973</ele>
        <time>2015-08-23T10:19:32Z</time>
      </trkpt>
      <trkpt lat="44.99347" lon="4.29725">
        <ele>1121.63</ele>
        <time>2015-08-23T10:19:52Z</time>
      </trkpt>
      <trkpt lat="44.99329" lon="4.2968">
        <ele>1119.614</ele>
        <time>2015-08-23T10:20:12Z</time>
      </trkpt>
      <trkpt lat="44.99217" lon="4.29515">
        <ele>1116.611</ele>
        <time>2015-08-23T10:20:32Z</time>
      </trkpt>
      <trkpt lat="44.99174" lon="4.29442">
        <ele>1117.221</ele>
        <time>2015-08-23T10:20:52Z</time>
      </trkpt>
      <trkpt lat="44.99149" lon="4.29405">
        <ele>1116.203</ele>
        <time>2015-08-23T10:21:12Z</time>
      </trkpt>
      <trkpt lat="44.9912" lon="4.29385">
        <ele>1116.808</ele>
        <time>2015-08-23T10:21:32Z</time>
      </trkpt>
      <trkpt lat="44.99018" lon="4.29285">
        <ele>1125.667</ele>
        <time>2015-08-23T10:21:52Z</time>
      </trkpt>
      <trkpt lat="44.98991" lon="4.29265">
        <ele>1126.612</ele>
        <time>2015-08-23T10:22:12Z</time>
      </trkpt>
      <trkpt lat="44.98968" lon="4.29241">
        <ele>1126.623</ele>
        <time>2015-08-23T10:22:32Z</time>
      </trkpt>
      <trkpt lat="44.98897" lon="4.29107">
        <ele>1130.828</ele>
        <time>2015-08-23T10:22:52Z</time>
      </trkpt>
      <trkpt lat="44.98832" lon="4.29027">
        <ele>1128.077</ele>
        <time>2015-08-23T10:23:12Z</time>
      </trkpt>
      <trkpt lat="44.98773" lon="4.28934">
        <ele>1128.63</ele>
        <time>2015-08-23T10:23:32Z</time>
      </trkpt>
      <trkpt lat="44.98709" lon="4.28848">
        <ele>1124.657</ele>
        <time>2015-08-23T10:23:52Z</time>
      </trkpt>
      <trkpt lat="44.98651" lon="4.28751">
        <ele>1129.671</ele>
        <time>2015-08-23T10:24:12Z</time>
      </trkpt>
      <trkpt lat="44.98616" lon="4.28675">
        <ele>1130.425</ele>
        <time>2015-08-23T10:24:32Z</time>
      </trkpt>
      <trkpt lat="44.9859" lon="4.28642">
        <ele>1129.726</ele>
        <time>2015-08-23T10:24:52Z</time>
      </trkpt>
      <trkpt lat="44.98557" lon="4.2857">
        <ele>1128.808</ele>
        <time>2015-08-23T10:25:12Z</time>
      </trkpt>
      <trkpt lat="44.9852" lon="4.2847">
        <ele>1129.108</ele>
        <time>2015-08-23T10:25:32Z</time>
      </trkpt>
      <trkpt lat="44.98476" lon="4.28391">
        <ele>1134.558</ele>
        <time>2015-08-23T10:25:52Z</time>
      </trkpt>
      <trkpt lat="44.98438" lon="4.28303">
        <ele>1128.113</ele>
        <time>2015-08-23T10:26:12Z</time>
      </trkpt>
      <trkpt lat="44.984" lon="4.28243">
        <ele>1126.974</ele>
        <time>2015-08-23T10:26:32Z</time>
      </trkpt>
      <trkpt lat="44.9838" lon="4.28204">
        <ele>1126.329</ele>
        <time>2015-08-23T10:26:52Z</time>
      </trkpt>
      <trkpt lat="44.98345" lon="4.28123">
        <ele>1127.118</ele>
        <time>2015-08-23T10:27:12Z</time>
      </trkpt>
      <trkpt lat="44.98336" lon="4.28093">
        <ele>1128.641</ele>
        <time>2015-08-23T10:27:32Z</time>
      </trkpt>
      <trkpt lat="44.98298" lon="4.27998">
        <ele>1133.168</ele>
        <time>2015-08-23T10:27:52Z</time>
      </trkpt>
      <trkpt lat="44.98294" lon="4.27962">
        <ele>1134.432</ele>
        <time>2015-08-23T10:28:12Z</time>
      </trkpt>
      <trkpt lat="44.98307" lon="4.27859">
        <ele>1139.079</ele>
        <time>2015-08-23T10:28:32Z</time>
      </trkpt>
      <trkpt lat="44.98308" lon="4.27812">
        <ele>1139.805</ele>
        <time>2015-08-23T10:28:52Z</time>
      </trkpt>
      <trkpt lat="44.9834" lon="4.27665">
        <ele>1138.825</ele>
        <time>2015-08-23T10:29:12Z</time>
      </trkpt>
      <trkpt lat="44.9834" lon="4.2762">
        <ele>1137.808</ele>
        <time>2015-08-23T10:29:32Z</time>
      </trkpt>
      <trkpt lat="44.98342" lon="4.27568">
        <ele>1136.223</ele>
        <time>2015-08-23T10:29:52Z</time>
      </trkpt>
      <trkpt lat="44.98343" lon="4.27472">
        <ele>1136.358</ele>
        <time>2015-08-23T10:30:12Z</time>
      </trkpt>
      <trkpt lat="44.98386" lon="4.27386">
        <ele>1136.329</ele>
        <time>2015-08-23T10:30:32Z</time>
      </trkpt>
      <trkpt lat="44.98429" lon="4.2734">
        <ele>1137.644</ele>
        <time>2015-08-23T10:30:52Z</time>
      </trkpt>
      <trkpt lat="44.98504" lon="4.27239">
        <ele>1136.833</ele>
        <time>2015-08-23T10:31:12Z</time>
      </trkpt>
      <trkpt lat="44.9853" lon="4.27224">
        <ele>1135.846</ele>
        <time>2015-08-23T10:31:32Z</time>
      </trkpt>
      <trkpt lat="44.98591" lon="4.27131">
        <ele>1134.813</ele>
        <time>2015-08-23T10:31:52Z</time>
      </trkpt>
      <trkpt lat="44.9865" lon="4.27028">
        <ele>1135.087</ele>
        <time>2015-08-23T10:32:12Z</time>
      </trkpt>
      <trkpt lat="44.98674" lon="4.27015">
        <ele>1134.763</ele>
        <time>2015-08-23T10:32:32Z</time>
      </trkpt>
      <trkpt lat="44.98712" lon="4.26922">
        <ele>1135.944</ele>
        <time>2015-08-23T10:32:52Z</time>
      </trkpt>
      <trkpt lat="44.98757" lon="4.26822">
        <ele>1134.818</ele>
        <time>2015-08-23T10:33:12Z</time>
      </trkpt>
      <trkpt lat="44.98765" lon="4.26779">
        <ele>1135.508</ele>
        <time>2015-08-23T10:33:32Z</time>
      </trkpt>
      <trkpt lat="44.98781" lon="4.26601">
        <ele>1140.042</ele>
        <time>2015-08-23T10:33:52Z</time>
      </trkpt>
      <trkpt lat="44.98784" lon="4.2653">
        <ele>1137.317</ele>
        <time>2015-08-23T10:34:12Z</time>
      </trkpt>
      <trkpt lat="44.98798" lon="4.26469">
        <ele>1137.868</ele>
        <time>2015-08-23T10:34:32Z</time>
      </trkpt>
      <trkpt lat="44.98766" lon="4.26435">
        <ele>1140.153</ele>
        <time>2020-11-30T00:59:28Z</time>
      </trkpt>
      <trkpt lat="44.98755" lon="4.26332">
        <ele>1137.862</ele>
        <time>2020-11-30T00:59:48Z</time>
      </trkpt>
      <trkpt lat="44.98789" lon="4.26272">
        <ele>1134.035</ele>
        <time>2020-11-30T01:00:08Z</time>
      </trkpt>
      <trkpt lat="44.98848" lon="4.26222">
        <ele>1128.572</ele>
        <time>2019-03-28T18:38:03Z</time>
      </trkpt>
      <trkpt lat="44.98916" lon="4.26199">
        <ele>1124.986</ele>
        <time>2019-03-28T18:38:23Z</time>
      </trkpt>
      <trkpt lat="44.98841" lon="4.2606">
        <ele>1120.416</ele>
        <time>2020-01-18T15:18:08Z</time>
      </trkpt>
      <trkpt lat="44.98728" lon="4.25936">
        <ele>1117.376</ele>
        <time>2015-08-23T10:36:52Z</time>
      </trkpt>
      <trkpt lat="44.98737" lon="4.25841">
        <ele>1112.613</ele>
        <time>2015-08-23T10:37:12Z</time>
      </trkpt>
      <trkpt lat="44.98782" lon="4.25691">
        <ele>1113.108</ele>
        <time>2015-08-23T10:37:32Z</time>
      </trkpt>
      <trkpt lat="44.98781" lon="4.25444">
        <ele>1123.897</ele>
        <time>2015-08-23T10:37:52Z</time>
      </trkpt>
      <trkpt lat="44.98792" lon="4.25369">
        <ele>1126.912</ele>
        <time>2015-08-23T10:38:12Z</time>
      </trkpt>
      <trkpt lat="44.98846" lon="4.25201">
        <ele>1137.283</ele>
        <time>2019-03-28T18:40:43Z</time>
      </trkpt>
      <trkpt lat="44.98866" lon="4.25177">
        <ele>1137.448</ele>
        <time>2020-01-18T15:20:28Z</time>
      </trkpt>
      <trkpt lat="44.9888" lon="4.2513">
        <ele>1139.757</ele>
        <time>2020-01-18T15:20:48Z</time>
      </trkpt>
      <trkpt lat="44.98901" lon="4.25098">
        <ele>1140.03</ele>
        <time>2019-03-28T18:41:03Z</time>
      </trkpt>
      <trkpt lat="44.98881" lon="4.2507">
        <ele>1140.987</ele>
        <time>2019-03-28T18:41:23Z</time>
      </trkpt>
      <trkpt lat="44.98845" lon="4.25067">
        <ele>1142.441</ele>
        <time>2015-08-23T10:39:12Z</time>
      </trkpt>
      <trkpt lat="44.98839" lon="4.24994">
        <ele>1146.277</ele>
        <time>2015-08-23T10:39:32Z</time>
      </trkpt>
      <trkpt lat="44.98838" lon="4.24927">
        <ele>1147.861</ele>
        <time>2015-08-23T10:39:52Z</time>
      </trkpt>
      <trkpt lat="44.98826" lon="4.24846">
        <ele>1151.527</ele>
        <time>2015-08-23T10:40:12Z</time>
      </trkpt>
      <trkpt lat="44.98829" lon="4.24806">
        <ele>1153.108</ele>
        <time>2015-08-23T10:40:32Z</time>
      </trkpt>
      <trkpt lat="44.98829" lon="4.24753">
        <ele>1153.333</ele>
        <time>2015-08-23T10:40:52Z</time>
      </trkpt>
      <trkpt lat="44.98834" lon="4.24715">
        <ele>1154.068</ele>
        <time>2015-08-23T10:41:12Z</time>
      </trkpt>
      <trkpt lat="44.98834" lon="4.24654">
        <ele>1155.549</ele>
        <time>2015-08-23T10:41:32Z</time>
      </trkpt>
      <trkpt lat="44.98792" lon="4.24515">
        <ele>1157.174</ele>
        <time>2015-08-23T10:41:52Z</time>
      </trkpt>
      <trkpt lat="44.9878" lon="4.24373">
        <ele>1147.873</ele>
        <time>2015-08-23T10:42:12Z</time>
      </trkpt>
      <trkpt lat="44.98785" lon="4.24278">
        <ele>1139.046</ele>
        <time>2015-08-23T10:42:32Z</time>
      </trkpt>
      <trkpt lat="44.98795" lon="4.2426">
        <ele>1133.523</ele>
        <time>2015-08-23T10:42:52Z</time>
      </trkpt>
      <trkpt lat="44.98791" lon="4.24184">
        <ele>1123.757</ele>
        <time>2015-08-23T10:43:12Z</time>
      </trkpt>
      <trkpt lat="44.9878" lon="4.24127">
        <ele>1116.186</ele>
        <time>2015-08-23T10:43:32Z</time>
      </trkpt>
      <trkpt lat="44.98749" lon="4.24043">
        <ele>1103.36</ele>
        <time>2015-08-23T10:43:52Z</time>
      </trkpt>
      <trkpt lat="44.98755" lon="4.23979">
        <ele>1096.326</ele>
        <time>2015-08-23T10:44:12Z</time>
      </trkpt>
      <trkpt lat="44.9876" lon="4.23918">
        <ele>1092.708</ele>
        <time>2015-08-23T10:44:32Z</time>
      </trkpt>
      <trkpt lat="44.98785" lon="4.23743">
        <ele>1085.254</ele>
        <time>2015-08-23T10:44:52Z</time>
      </trkpt>
      <trkpt lat="44.98782" lon="4.23605">
        <ele>1088.999</ele>
        <time>2015-08-23T10:45:12Z</time>
      </trkpt>
      <trkpt lat="44.98792" lon="4.2345">
        <ele>1094.21</ele>
        <time>2015-08-23T10:45:32Z</time>
      </trkpt>
      <trkpt lat="44.98764" lon="4.23447">
        <ele>1095.915</ele>
        <time>2015-08-23T10:45:52Z</time>
      </trkpt>
      <trkpt lat="44.98742" lon="4.23429">
        <ele>1097.684</ele>
        <time>2015-08-23T10:46:12Z</time>
      </trkpt>
      <trkpt lat="44.98709" lon="4.23245">
        <ele>1109.887</ele>
        <time>2015-08-23T10:46:32Z</time>
      </trkpt>
      <trkpt lat="44.98705" lon="4.23193">
        <ele>1112.664</ele>
        <time>2015-08-23T10:46:52Z</time>
      </trkpt>
      <trkpt lat="44.987" lon="4.23146">
        <ele>1118.658</ele>
        <time>2015-08-23T10:47:12Z</time>
      </trkpt>
      <trkpt lat="44.987" lon="4.23083">
        <ele>1125.877</ele>
        <time>2015-08-23T10:47:32Z</time>
      </trkpt>
      <trkpt lat="44.98696" lon="4.2302">
        <ele>1135.361</ele>
        <time>2015-08-23T10:47:52Z</time>
      </trkpt>
      <trkpt lat="44.98703" lon="4.23013">
        <ele>1136.627</ele>
        <time>2015-08-23T10:48:12Z</time>
      </trkpt>
      <trkpt lat="44.98712" lon="4.23011">
        <ele>1137.108</ele>
        <time>2015-08-23T10:48:32Z</time>
      </trkpt>
      <trkpt lat="44.98703" lon="4.22971">
        <ele>1143.953</ele>
        <time>2015-08-23T10:48:52Z</time>
      </trkpt>
      <trkpt lat="44.98685" lon="4.22948">
        <ele>1148.168</ele>
        <time>2015-08-23T10:49:12Z</time>
      </trkpt>
      <trkpt lat="44.98659" lon="4.22838">
        <ele>1165.659</ele>
        <time>2015-08-23T10:49:32Z</time>
      </trkpt>
      <trkpt lat="44.98628" lon="4.22773">
        <ele>1172.674</ele>
        <time>2015-08-23T10:49:52Z</time>
      </trkpt>
      <trkpt lat="44.98628" lon="4.22748">
        <ele>1176.473</ele>
        <time>2015-08-23T10:50:12Z</time>
      </trkpt>
      <trkpt lat="44.98641" lon="4.22688">
        <ele>1180.946</ele>
        <time>2015-08-23T10:50:32Z</time>
      </trkpt>
      <trkpt lat="44.98637" lon="4.22623">
        <ele>1181.113</ele>
        <time>2015-08-23T10:50:52Z</time>
      </trkpt>
      <trkpt lat="44.98612" lon="4.22604">
        <ele>1182.097</ele>
        <time>2015-08-23T10:51:12Z</time>
      </trkpt>
      <trkpt lat="44.98563" lon="4.22609">
        <ele>1182.741</ele>
        <time>2015-08-23T10:51:32Z</time>
      </trkpt>
      <trkpt lat="44.98499" lon="4.22635">
        <ele>1184.981</ele>
        <time>2015-08-23T10:51:52Z</time>
      </trkpt>
      <trkpt lat="44.98494" lon="4.22617">
        <ele>1184.409</ele>
        <time>2015-08-23T10:52:12Z</time>
      </trkpt>
      <trkpt lat="44.98432" lon="4.22552">
        <ele>1185.108</ele>
        <time>2015-08-23T10:52:32Z</time>
      </trkpt>
      <trkpt lat="44.98408" lon="4.22519">
        <ele>1184.58</ele>
        <time>2015-08-23T10:52:52Z</time>
      </trkpt>
      <trkpt lat="44.98316" lon="4.22432">
        <ele>1180.545</ele>
        <time>2015-08-23T10:53:12Z</time>
      </trkpt>
      <trkpt lat="44.98244" lon="4.2229">
        <ele>1174.546</ele>
        <time>2015-08-23T10:53:32Z</time>
      </trkpt>
      <trkpt lat="44.98209" lon="4.2223">
        <ele>1172.281</ele>
        <time>2015-08-23T10:53:52Z</time>
      </trkpt>
      <trkpt lat="44.98186" lon="4.22213">
        <ele>1173.31</ele>
        <time>2015-08-23T10:54:12Z</time>
      </trkpt>
      <trkpt lat="44.98161" lon="4.22179">
        <ele>1169.773</ele>
        <time>2015-08-23T10:54:32Z</time>
      </trkpt>
      <trkpt lat="44.98118" lon="4.22147">
        <ele>1166.94</ele>
        <time>2015-08-23T10:54:52Z</time>
      </trkpt>
      <trkpt lat="44.98077" lon="4.22109">
        <ele>1159.134</ele>
        <time>2015-08-23T10:55:12Z</time>
      </trkpt>
      <trkpt lat="44.97971" lon="4.22063">
        <ele>1143.064</ele>
        <time>2015-08-23T10:55:32Z</time>
      </trkpt>
      <trkpt lat="44.97951" lon="4.22048">
        <ele>1138.306</ele>
        <time>2015-08-23T10:55:52Z</time>
      </trkpt>
      <trkpt lat="44.97901" lon="4.22022">
        <ele>1133.616</ele>
        <time>2015-08-23T10:56:12Z</time>
      </trkpt>
      <trkpt lat="44.97819" lon="4.21988">
        <ele>1127.208</ele>
        <time>2015-08-23T10:56:32Z</time>
      </trkpt>
      <trkpt lat="44.97787" lon="4.21963">
        <ele>1126.972</ele>
        <time>2015-08-23T10:56:52Z</time>
      </trkpt>
      <trkpt lat="44.9775" lon="4.21946">
        <ele>1127.167</ele>
        <time>2015-08-23T10:57:12Z</time>
      </trkpt>
      <trkpt lat="44.97655" lon="4.21878">
        <ele>1125.878</ele>
        <time>2015-08-23T10:57:32Z</time>
      </trkpt>
      <trkpt lat="44.97628" lon="4.21827">
        <ele>1123.223</ele>
        <time>2015-08-23T10:57:52Z</time>
      </trkpt>
      <trkpt lat="44.97595" lon="4.21807">
        <ele>1123.632</ele>
        <time>2015-08-23T10:58:12Z</time>
      </trkpt>
      <trkpt lat="44.97557" lon="4.21749">
        <ele>1125.955</ele>
        <time>2015-08-23T10:58:32Z</time>
      </trkpt>
      <trkpt lat="44.97504" lon="4.2175">
        <ele>1126.822</ele>
        <time>2015-08-23T10:58:52Z</time>
      </trkpt>
      <trkpt lat="44.97449" lon="4.21694">
        <ele>1134.496</ele>
        <time>2015-08-23T10:59:12Z</time>
      </trkpt>
      <trkpt lat="44.9741" lon="4.2163">
        <ele>1140.544</ele>
        <time>2015-08-23T10:59:32Z</time>
      </trkpt>
      <trkpt lat="44.9737" lon="4.21585">
        <ele>1141.505</ele>
        <time>2015-08-23T10:59:52Z</time>
      </trkpt>
      <trkpt lat="44.97346" lon="4.21534">
        <ele>1145.015</ele>
        <time>2015-08-23T11:00:12Z</time>
      </trkpt>
      <trkpt lat="44.97261" lon="4.21486">
        <ele>1149.008</ele>
        <time>2015-08-23T11:00:32Z</time>
      </trkpt>
      <trkpt lat="44.97193" lon="4.21465">
        <ele>1155.57</ele>
        <time>2015-08-23T11:00:52Z</time>
      </trkpt>
      <trkpt lat="44.97154" lon="4.21424">
        <ele>1160.145</ele>
        <time>2015-08-23T11:01:12Z</time>
      </trkpt>
      <trkpt lat="44.9709" lon="4.21295">
        <ele>1167.726</ele>
        <time>2015-08-23T11:01:32Z</time>
      </trkpt>
      <trkpt lat="44.9703" lon="4.21236">
        <ele>1165.761</ele>
        <time>2015-08-23T11:01:52Z</time>
      </trkpt>
      <trkpt lat="44.96955" lon="4.21177">
        <ele>1165.14</ele>
        <time>2015-08-23T11:02:12Z</time>
      </trkpt>
      <trkpt lat="44.96939" lon="4.21114">
        <ele>1165.733</ele>
        <time>2015-08-23T11:02:32Z</time>
      </trkpt>
      <trkpt lat="44.96909" lon="4.21084">
        <ele>1165.73</ele>
        <time>2015-08-23T11:02:52Z</time>
      </trkpt>
      <trkpt lat="44.96855" lon="4.21077">
        <ele>1166.434</ele>
        <time>2015-08-23T11:03:12Z</time>
      </trkpt>
      <trkpt lat="44.96706" lon="4.21221">
        <ele>1168.367</ele>
        <time>2015-08-23T11:03:32Z</time>
      </trkpt>
      <trkpt lat="44.96609" lon="4.21304">
        <ele>1175.281</ele>
        <time>2015-08-23T11:03:52Z</time>
      </trkpt>
      <trkpt lat="44.96543" lon="4.21353">
        <ele>1176.319</ele>
        <time>2015-08-23T11:04:12Z</time>
      </trkpt>
      <trkpt lat="44.96505" lon="4.21397">
        <ele>1178.008</ele>
        <time>2015-08-23T11:04:32Z</time>
      </trkpt>
      <trkpt lat="44.96392" lon="4.21495">
        <ele>1186.072</ele>
        <time>2015-08-23T11:04:52Z</time>
      </trkpt>
      <trkpt lat="44.9636" lon="4.21478">
        <ele>1192.627</ele>
        <time>2015-08-23T11:05:12Z</time>
      </trkpt>
      <trkpt lat="44.9634" lon="4.21487">
        <ele>1194.078</ele>
        <time>2015-08-23T11:05:32Z</time>
      </trkpt>
      <trkpt lat="44.96247" lon="4.21576">
        <ele>1204.573</ele>
        <time>2015-08-23T11:05:52Z</time>
      </trkpt>
      <trkpt lat="44.96225" lon="4.21581">
        <ele>1208.732</ele>
        <time>2015-08-23T11:06:12Z</time>
      </trkpt>
      <trkpt lat="44.96132" lon="4.21575">
        <ele>1219.445</ele>
        <time>2015-08-23T11:06:32Z</time>
      </trkpt>
      <trkpt lat="44.96117" lon="4.21564">
        <ele>1222.212</ele>
        <time>2015-08-23T11:06:52Z</time>
      </trkpt>
      <trkpt lat="44.96077" lon="4.2119">
        <ele>1249.256</ele>
        <time>2015-08-23T11:07:12Z</time>
      </trkpt>
      <trkpt lat="44.96006" lon="4.20942">
        <ele>1260.013</ele>
        <time>2015-08-23T11:07:32Z</time>
      </trkpt>
      <trkpt lat="44.95828" lon="4.20683">
        <ele>1296.943</ele>
        <time>2015-08-23T11:07:52Z</time>
      </trkpt>
      <trkpt lat="44.95758" lon="4.20611">
        <ele>1305.707</ele>
        <time>2015-08-23T11:08:12Z</time>
      </trkpt>
      <trkpt lat="44.95667" lon="4.20558">
        <ele>1312.108</ele>
        <time>2015-08-23T11:08:32Z</time>
      </trkpt>
      <trkpt lat="44.95527" lon="4.20452">
        <ele>1312.837</ele>
        <time>2015-08-23T11:08:52Z</time>
      </trkpt>
      <trkpt lat="44.9519" lon="4.20271">
        <ele>1319.412</ele>
        <time>2015-08-23T11:09:12Z</time>
      </trkpt>
      <trkpt lat="44.95139" lon="4.20275">
        <ele>1317.833</ele>
        <time>2015-08-23T11:09:32Z</time>
      </trkpt>
      <trkpt lat="44.95141" lon="4.2019">
        <ele>1314.818</ele>
        <time>2015-08-23T11:09:52Z</time>
      </trkpt>
      <trkpt lat="44.9513" lon="4.20179">
        <ele>1312.347</ele>
        <time>2015-08-23T11:10:12Z</time>
      </trkpt>
      <trkpt lat="44.95087" lon="4.20204">
        <ele>1303.23</ele>
        <time>2015-08-23T11:10:32Z</time>
      </trkpt>
      <trkpt lat="44.95081" lon="4.20225">
        <ele>1302.417</ele>
        <time>2015-08-23T11:10:52Z</time>
      </trkpt>
      <trkpt lat="44.95048" lon="4.20278">
        <ele>1298.451</ele>
        <time>2015-08-23T11:11:12Z</time>
      </trkpt>
      <trkpt lat="44.95034" lon="4.20268">
        <ele>1296.545</ele>
        <time>2015-08-23T11:11:32Z</time>
      </trkpt>
      <trkpt lat="44.94978" lon="4.20379">
        <ele>1296.747</ele>
        <time>2015-08-23T11:11:52Z</time>
      </trkpt>
      <trkpt lat="44.94939" lon="4.2046">
        <ele>1300.711</ele>
        <time>2015-08-23T11:12:12Z</time>
      </trkpt>
      <trkpt lat="44.94928" lon="4.20513">
        <ele>1303.408</ele>
        <time>2020-01-18T15:55:08Z</time>
      </trkpt>
      <trkpt lat="44.94813" lon="4.2077">
        <ele>1334.68</ele>
        <time>2020-01-18T15:55:28Z</time>
      </trkpt>
      <trkpt lat="44.94776" lon="4.20842">
        <ele>1342.445</ele>
        <time>2015-08-23T11:13:52Z</time>
      </trkpt>
      <trkpt lat="44.9468" lon="4.20925">
        <ele>1353.096</ele>
        <time>2015-08-23T11:14:12Z</time>
      </trkpt>
      <trkpt lat="44.94613" lon="4.2098">
        <ele>1360.221</ele>
        <time>2015-08-23T11:14:32Z</time>
      </trkpt>
      <trkpt lat="44.94494" lon="4.21055">
        <ele>1365.11</ele>
        <time>2015-08-23T11:14:52Z</time>
      </trkpt>
      <trkpt lat="44.9441" lon="4.21081">
        <ele>1371.893</ele>
        <time>2015-08-23T11:15:12Z</time>
      </trkpt>
      <trkpt lat="44.94304" lon="4.2097">
        <ele>1373.98</ele>
        <time>2015-08-23T11:15:32Z</time>
      </trkpt>
      <trkpt lat="44.94199" lon="4.20822">
        <ele>1370.794</ele>
        <time>2015-08-23T11:15:52Z</time>
      </trkpt>
      <trkpt lat="44.94112" lon="4.20729">
        <ele>1361.136</ele>
        <time>2015-08-23T11:16:12Z</time>
      </trkpt>
      <trkpt lat="44.94065" lon="4.20573">
        <ele>1347.417</ele>
        <time>2015-08-23T11:16:32Z</time>
      </trkpt>
      <trkpt lat="44.9401" lon="4.2045">
        <ele>1332.118</ele>
        <time>2015-08-23T11:16:52Z</time>
      </trkpt>
      <trkpt lat="44.93917" lon="4.20407">
        <ele>1324.708</ele>
        <time>2015-08-23T11:17:12Z</time>
      </trkpt>
      <trkpt lat="44.93869" lon="4.20394">
        <ele>1323.849</ele>
        <time>2015-08-23T11:17:32Z</time>
      </trkpt>
      <trkpt lat="44.93795" lon="4.2042">
        <ele>1327.964</ele>
        <time>2020-11-30T01:42:48Z</time>
      </trkpt>
      <trkpt lat="44.93782" lon="4.20469">
        <ele>1325.995</ele>
        <time>2020-11-30T01:43:08Z</time>
      </trkpt>
      <trkpt lat="44.93666" lon="4.20669">
        <ele>1314.91</ele>
        <time>2020-11-30T01:43:28Z</time>
      </trkpt>
      <trkpt lat="44.9352" lon="4.20957">
        <ele>1305.879</ele>
        <time>2020-11-30T01:43:48Z</time>
      </trkpt>
      <trkpt lat="44.9346" lon="4.21009">
        <ele>1314.252</ele>
        <time>2020-11-30T01:44:08Z</time>
      </trkpt>
      <trkpt lat="44.93338" lon="4.2103">
        <ele>1327.869</ele>
        <time>2020-11-30T01:44:28Z</time>
      </trkpt>
      <trkpt lat="44.93095" lon="4.21212">
        <ele>1359.513</ele>
        <time>2020-11-30T01:44:48Z</time>
      </trkpt>
      <trkpt lat="44.93041" lon="4.21203">
        <ele>1363.869</ele>
        <time>2020-11-30T01:45:08Z</time>
      </trkpt>
      <trkpt lat="44.92979" lon="4.21233">
        <ele>1358.904</ele>
        <time>2020-11-30T01:45:28Z</time>
      </trkpt>
      <trkpt lat="44.92942" lon="4.21264">
        <ele>1350.424</ele>
        <time>2020-11-30T01:45:48Z</time>
      </trkpt>
      <trkpt lat="44.92867" lon="4.21176">
        <ele>1345.008</ele>
        <time>2020-11-30T01:46:08Z</time>
      </trkpt>
      <trkpt lat="44.92684" lon="4.21142">
        <ele>1332.152</ele>
        <time>2020-11-30T01:46:28Z</time>
      </trkpt>
      <trkpt lat="44.92656" lon="4.21133">
        <ele>1334.517</ele>
        <time>2020-11-30T01:46:48Z</time>
      </trkpt>
      <trkpt lat="44.92553" lon="4.21145">
        <ele>1325.068</ele>
        <time>2020-11-30T01:47:08Z</time>
      </trkpt>
      <trkpt lat="44.92414" lon="4.21188">
        <ele>1324.073</ele>
        <time>2020-11-30T01:47:28Z</time>
      </trkpt>
      <trkpt lat="44.92296" lon="4.2117">
        <ele>1351.112</ele>
        <time>2020-11-30T01:47:48Z</time>
      </trkpt>
      <trkpt lat="44.92169" lon="4.21264">
        <ele>1364.295</ele>
        <time>2020-11-30T01:48:08Z</time>
      </trkpt>
      <trkpt lat="44.92083" lon="4.21288">
        <ele>1375.612</ele>
        <time>2020-11-30T01:48:28Z</time>
      </trkpt>
      <trkpt lat="44.92066" lon="4.21264">
        <ele>1377.396</ele>
        <time>2020-11-30T01:48:48Z</time>
      </trkpt>
      <trkpt lat="44.92115" lon="4.2123">
        <ele>1377.016</ele>
        <time>2020-11-30T01:49:08Z</time>
      </trkpt>
      <trkpt lat="44.9216" lon="4.21136">
        <ele>1380.476</ele>
        <time>2020-11-30T01:49:28Z</time>
      </trkpt>
      <trkpt lat="44.92235" lon="4.2103">
        <ele>1402.113</ele>
        <time>2020-11-30T01:49:48Z</time>
      </trkpt>
      <trkpt lat="44.92304" lon="4.2089">
        <ele>1425.708</ele>
        <time>2020-11-30T01:50:08Z</time>
      </trkpt>
      <trkpt lat="44.92356" lon="4.20833">
        <ele>1429.917</ele>
        <time>2020-11-30T01:50:28Z</time>
      </trkpt>
      <trkpt lat="44.92375" lon="4.20754">
        <ele>1436.392</ele>
        <time>2020-11-30T01:50:48Z</time>
      </trkpt>
      <trkpt lat="44.92429" lon="4.20721">
        <ele>1437.183</ele>
        <time>2020-11-30T01:51:08Z</time>
      </trkpt>
      <trkpt lat="44.92571" lon="4.20739">
        <ele>1432.918</ele>
        <time>2020-11-30T01:51:28Z</time>
      </trkpt>
      <trkpt lat="44.92583" lon="4.20793">
        <ele>1422.797</ele>
        <time>2020-11-30T01:51:48Z</time>
      </trkpt>
      <trkpt lat="44.92616" lon="4.20796">
        <ele>1424.53</ele>
        <time>2020-11-30T01:52:08Z</time>
      </trkpt>
      <trkpt lat="44.92639" lon="4.20766">
        <ele>1429.387</ele>
        <time>2020-11-30T01:52:28Z</time>
      </trkpt>
      <trkpt lat="44.92719" lon="4.20739">
        <ele>1430.891</ele>
        <time>2020-11-30T01:52:48Z</time>
      </trkpt>
      <trkpt lat="44.92779" lon="4.20678">
        <ele>1432.573</ele>
        <time>2020-11-30T01:53:08Z</time>
      </trkpt>
      <trkpt lat="44.92695" lon="4.2069">
        <ele>1433.285</ele>
        <time>2020-11-30T01:53:28Z</time>
      </trkpt>
      <trkpt lat="44.92665" lon="4.2066">
        <ele>1437.213</ele>
        <time>2020-11-30T01:53:48Z</time>
      </trkpt>
      <trkpt lat="44.92687" lon="4.20581">
        <ele>1445.008</ele>
        <time>2020-11-30T01:54:08Z</time>
      </trkpt>
      <trkpt lat="44.92637" lon="4.20599">
        <ele>1450.363</ele>
        <time>2020-11-30T01:54:28Z</time>
      </trkpt>
      <trkpt lat="44.92644" lon="4.20542">
        <ele>1456.698</ele>
        <time>2020-11-30T01:54:48Z</time>
      </trkpt>
      <trkpt lat="44.92579" lon="4.20605">
        <ele>1456.999</ele>
        <time>2020-11-30T01:55:08Z</time>
      </trkpt>
      <trkpt lat="44.92502" lon="4.20593">
        <ele>1461.634</ele>
        <time>2020-11-30T01:55:28Z</time>
      </trkpt>
      <trkpt lat="44.92495" lon="4.20569">
        <ele>1465.633</ele>
        <time>2020-11-30T01:55:48Z</time>
      </trkpt>
      <trkpt lat="44.92601" lon="4.20457">
        <ele>1470.786</ele>
        <time>2020-11-30T01:56:08Z</time>
      </trkpt>
      <trkpt lat="44.92594" lon="4.20369">
        <ele>1479.553</ele>
        <time>2020-11-30T01:56:28Z</time>
      </trkpt>
      <trkpt lat="44.92603" lon="4.20332">
        <ele>1479.427</ele>
        <time>2020-11-30T01:56:48Z</time>
      </trkpt>
      <trkpt lat="44.92609" lon="4.20277">
        <ele>1478.674</ele>
        <time>2020-11-30T01:57:08Z</time>
      </trkpt>
      <trkpt lat="44.92476" lon="4.20347">
        <ele>1503.656</ele>
        <time>2020-11-30T01:57:28Z</time>
      </trkpt>
      <trkpt lat="44.92394" lon="4.19868">
        <ele>1496.821</ele>
        <time>2020-11-30T01:57:48Z</time>
      </trkpt>
      <trkpt lat="44.92293" lon="4.19658">
        <ele>1498.308</ele>
        <time>2020-11-30T01:58:08Z</time>
      </trkpt>
      <trkpt lat="44.92326" lon="4.19625">
        <ele>1495.943</ele>
        <time>2020-11-30T01:58:28Z</time>
      </trkpt>
      <trkpt lat="44.92321" lon="4.1957">
        <ele>1491.118</ele>
        <time>2020-11-30T01:58:48Z</time>
      </trkpt>
      <trkpt lat="44.9234" lon="4.1955">
        <ele>1490.479</ele>
        <time>2020-11-30T01:59:08Z</time>
      </trkpt>
      <trkpt lat="44.92339" lon="4.19527">
        <ele>1490.024</ele>
        <time>2020-11-30T01:59:28Z</time>
      </trkpt>
      <trkpt lat="44.92366" lon="4.19489">
        <ele>1489.083</ele>
        <time>2020-11-30T01:59:48Z</time>
      </trkpt>
      <trkpt lat="44.92385" lon="4.1948">
        <ele>1487.096</ele>
        <time>2020-11-30T02:00:08Z</time>
      </trkpt>
      <trkpt lat="44.92421" lon="4.19444">
        <ele>1484.773</ele>
        <time>2020-11-30T02:00:28Z</time>
      </trkpt>
      <trkpt lat="44.92455" lon="4.19431">
        <ele>1481.427</ele>
        <time>2020-11-30T02:00:48Z</time>
      </trkpt>
      <trkpt lat="44.92465" lon="4.19423">
        <ele>1480.028</ele>
        <time>2020-11-30T02:01:08Z</time>
      </trkpt>
      <trkpt lat="44.9251" lon="4.1941">
        <ele>1472.489</ele>
        <time>2020-11-30T02:01:28Z</time>
      </trkpt>
      <trkpt lat="44.92559" lon="4.19362">
        <ele>1459.617</ele>
        <time>2020-11-30T02:01:48Z</time>
      </trkpt>
      <trkpt lat="44.92562" lon="4.19348">
        <ele>1460.208</ele>
        <time>2020-11-30T02:02:08Z</time>
      </trkpt>
      <trkpt lat="44.92536" lon="4.19338">
        <ele>1464.878</ele>
        <time>2020-11-30T02:02:28Z</time>
      </trkpt>
      <trkpt lat="44.92594" lon="4.19156">
        <ele>1466.593</ele>
        <time>2020-11-30T02:02:48Z</time>
      </trkpt>
      <trkpt lat="44.92551" lon="4.19091">
        <ele>1481.584</ele>
        <time>2020-11-30T02:03:08Z</time>
      </trkpt>
      <trkpt lat="44.9252" lon="4.19082">
        <ele>1483.189</ele>
        <time>2020-11-30T02:03:28Z</time>
      </trkpt>
      <trkpt lat="44.92493" lon="4.18927">
        <ele>1494.728</ele>
        <time>2020-11-30T02:03:48Z</time>
      </trkpt>
      <trkpt lat="44.92458" lon="4.18912">
        <ele>1495.411</ele>
        <time>2020-11-30T02:04:08Z</time>
      </trkpt>
      <trkpt lat="44.92341" lon="4.18914">
        <ele>1502.438</ele>
        <time>2020-11-30T02:04:28Z</time>
      </trkpt>
      <trkpt lat="44.92288" lon="4.189">
        <ele>1506.572</ele>
        <time>2020-11-30T02:04:48Z</time>
      </trkpt>
      <trkpt lat="44.92164" lon="4.18805">
        <ele>1515.437</ele>
        <time>2020-11-30T02:05:08Z</time>
      </trkpt>
      <trkpt lat="44.92079" lon="4.18663">
        <ele>1526.649</ele>
        <time>2020-11-30T02:05:28Z</time>
      </trkpt>
      <trkpt lat="44.92055" lon="4.18647">
        <ele>1529.413</ele>
        <time>2020-11-30T02:05:48Z</time>
      </trkpt>
      <trkpt lat="44.9196" lon="4.18463">
        <ele>1531.008</ele>
        <time>2020-11-30T02:06:08Z</time>
      </trkpt>
      <trkpt lat="44.91901" lon="4.18406">
        <ele>1533.629</ele>
        <time>2020-11-30T02:06:28Z</time>
      </trkpt>
      <trkpt lat="44.91851" lon="4.1834">
        <ele>1535.574</ele>
        <time>2020-11-30T02:06:48Z</time>
      </trkpt>
      <trkpt lat="44.91624" lon="4.17921">
        <ele>1568.275</ele>
        <time>2020-11-30T02:07:08Z</time>
      </trkpt>
      <trkpt lat="44.91612" lon="4.17871">
        <ele>1568.24</ele>
        <time>2020-11-30T02:07:28Z</time>
      </trkpt>
      <trkpt lat="44.91581" lon="4.17741">
        <ele>1563.339</ele>
        <time>2020-11-30T02:07:48Z</time>
      </trkpt>
      <trkpt lat="44.91554" lon="4.1758">
        <ele>1552.922</ele>
        <time>2020-11-30T02:08:08Z</time>
      </trkpt>
      <trkpt lat="44.9154" lon="4.17603">
        <ele>1552.699</ele>
        <time>2015-08-23T11:47:32Z</time>
      </trkpt>
      <trkpt lat="44.91397" lon="4.17751">
        <ele>1551.533</ele>
        <time>2015-08-23T11:47:52Z</time>
      </trkpt>
      <trkpt lat="44.91343" lon="4.17823">
        <ele>1550.494</ele>
        <time>2015-08-23T11:48:12Z</time>
      </trkpt>
      <trkpt lat="44.91287" lon="4.17874">
        <ele>1553.857</ele>
        <time>2015-08-23T11:48:32Z</time>
      </trkpt>
      <trkpt lat="44.91166" lon="4.17955">
        <ele>1557.822</ele>
        <time>2015-08-23T11:48:52Z</time>
      </trkpt>
      <trkpt lat="44.91121" lon="4.17982">
        <ele>1556.308</ele>
        <time>2015-08-23T11:49:12Z</time>
      </trkpt>
      <trkpt lat="44.91074" lon="4.18017">
        <ele>1559.775</ele>
        <time>2015-08-23T11:49:32Z</time>
      </trkpt>
      <trkpt lat="44.91049" lon="4.18026">
        <ele>1560.38</ele>
        <time>2015-08-23T11:49:52Z</time>
      </trkpt>
      <trkpt lat="44.9102" lon="4.18048">
        <ele>1561.881</ele>
        <time>2015-08-23T11:50:12Z</time>
      </trkpt>
      <trkpt lat="44.90877" lon="4.18144">
        <ele>1567.586</ele>
        <time>2015-08-23T11:50:32Z</time>
      </trkpt>
      <trkpt lat="44.90837" lon="4.1819">
        <ele>1569.715</ele>
        <time>2015-08-23T11:50:52Z</time>
      </trkpt>
      <trkpt lat="44.90816" lon="4.18192">
        <ele>1566.518</ele>
        <time>2020-01-18T16:33:08Z</time>
      </trkpt>
      <trkpt lat="44.90677" lon="4.18244">
        <ele>1560.495</ele>
        <time>2020-01-18T16:33:28Z</time>
      </trkpt>
      <trkpt lat="44.90601" lon="4.18268">
        <ele>1550.899</ele>
        <time>2020-01-18T16:33:48Z</time>
      </trkpt>
      <trkpt lat="44.90374" lon="4.18285">
        <ele>1528.052</ele>
        <time>2015-08-23T11:52:52Z</time>
      </trkpt>
      <trkpt lat="44.90241" lon="4.18282">
        <ele>1514.053</ele>
        <time>2020-01-18T16:34:28Z</time>
      </trkpt>
      <trkpt lat="44.90068" lon="4.18254">
        <ele>1502.808</ele>
        <time>2020-01-18T16:34:48Z</time>
      </trkpt>
      <trkpt lat="44.90024" lon="4.18267">
        <ele>1500.708</ele>
        <time>2020-01-18T16:35:08Z</time>
      </trkpt>
      <trkpt lat="44.89976" lon="4.18497">
        <ele>1513.011</ele>
        <time>2015-08-23T11:53:32Z</time>
      </trkpt>
      <trkpt lat="44.89943" lon="4.18523">
        <ele>1511.156</ele>
        <time>2015-08-23T11:53:52Z</time>
      </trkpt>
      <trkpt lat="44.89934" lon="4.18492">
        <ele>1512.047</ele>
        <time>2015-08-23T11:54:12Z</time>
      </trkpt>
      <trkpt lat="44.89901" lon="4.18491">
        <ele>1515.162</ele>
        <time>2015-08-23T11:54:32Z</time>
      </trkpt>
      <trkpt lat="44.89848" lon="4.18459">
        <ele>1519.511</ele>
        <time>2015-08-23T11:54:52Z</time>
      </trkpt>
      <trkpt lat="44.89739" lon="4.18419">
        <ele>1530.864</ele>
        <time>2015-08-23T11:55:12Z</time>
      </trkpt>
      <trkpt lat="44.89635" lon="4.18404">
        <ele>1540.081</ele>
        <time>2020-01-18T16:37:28Z</time>
      </trkpt>
      <trkpt lat="44.89618" lon="4.18388">
        <ele>1541.885</ele>
        <time>2020-01-18T16:37:48Z</time>
      </trkpt>
      <trkpt lat="44.8957" lon="4.18397">
        <ele>1544.953</ele>
        <time>2020-01-18T16:38:08Z</time>
      </trkpt>
      <trkpt lat="44.89545" lon="4.18362">
        <ele>1550.204</ele>
        <time>2015-08-23T11:55:52Z</time>
      </trkpt>
      <trkpt lat="44.89522" lon="4.18362">
        <ele>1551.614</ele>
        <time>2015-08-23T11:56:12Z</time>
      </trkpt>
      <trkpt lat="44.89484" lon="4.18378">
        <ele>1554.408</ele>
        <time>2015-08-23T11:56:32Z</time>
      </trkpt>
      <trkpt lat="44.89447" lon="4.1838">
        <ele>1558.461</ele>
        <time>2015-08-23T11:56:52Z</time>
      </trkpt>
      <trkpt lat="44.89425" lon="4.18361">
        <ele>1564.866</ele>
        <time>2015-08-23T11:57:12Z</time>
      </trkpt>
      <trkpt lat="44.89399" lon="4.18355">
        <ele>1568.567</ele>
        <time>2015-08-23T11:57:32Z</time>
      </trkpt>
      <trkpt lat="44.89369" lon="4.18371">
        <ele>1569.192</ele>
        <time>2019-03-28T20:00:23Z</time>
      </trkpt>
      <trkpt lat="44.89358" lon="4.18326">
        <ele>1572.381</ele>
        <time>2019-03-28T20:00:43Z</time>
      </trkpt>
      <trkpt lat="44.89331" lon="4.18281">
        <ele>1574.834</ele>
        <time>2019-03-28T20:01:03Z</time>
      </trkpt>
      <trkpt lat="44.89256" lon="4.18294">
        <ele>1571.131</ele>
        <time>2019-03-28T20:01:23Z</time>
      </trkpt>
      <trkpt lat="44.89194" lon="4.18317">
        <ele>1562.995</ele>
        <time>2019-03-28T20:01:43Z</time>
      </trkpt>
      <trkpt lat="44.8909" lon="4.18292">
        <ele>1555.016</ele>
        <time>2019-03-28T20:02:03Z</time>
      </trkpt>
      <trkpt lat="44.88997" lon="4.18217">
        <ele>1549.776</ele>
        <time>2020-01-18T16:42:28Z</time>
      </trkpt>
      <trkpt lat="44.88925" lon="4.18178">
        <ele>1545.513</ele>
        <time>2019-03-28T20:02:23Z</time>
      </trkpt>
      <trkpt lat="44.889" lon="4.18137">
        <ele>1547.508</ele>
        <time>2019-03-28T20:02:43Z</time>
      </trkpt>
      <trkpt lat="44.88793" lon="4.18094">
        <ele>1536.927</ele>
        <time>2019-03-28T20:03:03Z</time>
      </trkpt>
      <trkpt lat="44.88735" lon="4.18096">
        <ele>1529.892</ele>
        <time>2019-03-28T20:03:23Z</time>
      </trkpt>
      <trkpt lat="44.88704" lon="4.18077">
        <ele>1527.173</ele>
        <time>2019-03-28T20:03:43Z</time>
      </trkpt>
      <trkpt lat="44.88669" lon="4.18116">
        <ele>1520.238</ele>
        <time>2015-08-23T12:00:32Z</time>
      </trkpt>
      <trkpt lat="44.88636" lon="4.18114">
        <ele>1516.637</ele>
        <time>2015-08-23T12:00:52Z</time>
      </trkpt>
      <trkpt lat="44.88565" lon="4.18158">
        <ele>1510.28</ele>
        <time>2015-08-23T12:01:12Z</time>
      </trkpt>
      <trkpt lat="44.88554" lon="4.18188">
        <ele>1506.657</ele>
        <time>2015-08-23T12:01:32Z</time>
      </trkpt>
      <trkpt lat="44.88482" lon="4.18227">
        <ele>1497.151</ele>
        <time>2015-08-23T12:01:52Z</time>
      </trkpt>
      <trkpt lat="44.8842" lon="4.18232">
        <ele>1491.591</ele>
        <time>2015-08-23T12:02:12Z</time>
      </trkpt>
      <trkpt lat="44.88349" lon="4.18212">
        <ele>1488.081</ele>
        <time>2015-08-23T12:02:32Z</time>
      </trkpt>
      <trkpt lat="44.88248" lon="4.18164">
        <ele>1476.619</ele>
        <time>2015-08-23T12:02:52Z</time>
      </trkpt>
      <trkpt lat="44.8814" lon="4.18069">
        <ele>1468.908</ele>
        <time>2015-08-23T12:03:12Z</time>
      </trkpt>
      <trkpt lat="44.87998" lon="4.17969">
        <ele>1457.455</ele>
        <time>2015-08-23T12:03:32Z</time>
      </trkpt>
      <trkpt lat="44.87928" lon="4.17978">
        <ele>1451.13</ele>
        <time>2015-08-23T12:03:52Z</time>
      </trkpt>
      <trkpt lat="44.87812" lon="4.17934">
        <ele>1435.181</ele>
        <time>2015-08-23T12:04:12Z</time>
      </trkpt>
      <trkpt lat="44.87808" lon="4.17948">
        <ele>1433.326</ele>
        <time>2015-08-23T12:04:32Z</time>
      </trkpt>
      <trkpt lat="44.87889" lon="4.18152">
        <ele>1422.795</ele>
        <time>2015-08-23T12:04:52Z</time>
      </trkpt>
      <trkpt lat="44.87909" lon="4.1821">
        <ele>1416.448</ele>
        <time>2015-08-23T12:05:12Z</time>
      </trkpt>
      <trkpt lat="44.87934" lon="4.18255">
        <ele>1410.925</ele>
        <time>2015-08-23T12:05:32Z</time>
      </trkpt>
      <trkpt lat="44.87931" lon="4.1827">
        <ele>1407.459</ele>
        <time>2015-08-23T12:05:52Z</time>
      </trkpt>
      <trkpt lat="44.87908" lon="4.18261">
        <ele>1408.492</ele>
        <time>2015-08-23T12:06:12Z</time>
      </trkpt>
      <trkpt lat="44.87877" lon="4.1822">
        <ele>1409.573</ele>
        <time>2015-08-23T12:06:32Z</time>
      </trkpt>
      <trkpt lat="44.87867" lon="4.18231">
        <ele>1406.52</ele>
        <time>2015-08-23T12:06:52Z</time>
      </trkpt>
      <trkpt lat="44.87886" lon="4.18287">
        <ele>1401.308</ele>
        <time>2015-08-23T12:07:12Z</time>
      </trkpt>
      <trkpt lat="44.87879" lon="4.18298">
        <ele>1399.215</ele>
        <time>2015-08-23T12:07:32Z</time>
      </trkpt>
      <trkpt lat="44.87852" lon="4.1828">
        <ele>1397.59</ele>
        <time>2015-08-23T12:07:52Z</time>
      </trkpt>
      <trkpt lat="44.87836" lon="4.18288">
        <ele>1394.641</ele>
        <time>2015-08-23T12:08:12Z</time>
      </trkpt>
      <trkpt lat="44.87822" lon="4.18359">
        <ele>1388.666</ele>
        <time>2015-08-23T12:08:32Z</time>
      </trkpt>
      <trkpt lat="44.87798" lon="4.18399">
        <ele>1387.145</ele>
        <time>2015-08-23T12:08:52Z</time>
      </trkpt>
      <trkpt lat="44.87627" lon="4.18536">
        <ele>1395.158</ele>
        <time>2020-01-18T16:53:08Z</time>
      </trkpt>
      <trkpt lat="44.87549" lon="4.18597">
        <ele>1406.515</ele>
        <time>2020-01-18T16:53:28Z</time>
      </trkpt>
      <trkpt lat="44.87492" lon="4.18595">
        <ele>1415.189</ele>
        <time>2020-01-18T16:53:48Z</time>
      </trkpt>
      <trkpt lat="44.87447" lon="4.18612">
        <ele>1422.895</ele>
        <time>2015-08-23T12:10:12Z</time>
      </trkpt>
      <trkpt lat="44.87401" lon="4.1862">
        <ele>1427.049</ele>
        <time>2015-08-23T12:10:32Z</time>
      </trkpt>
      <trkpt lat="44.87379" lon="4.18642">
        <ele>1433.923</ele>
        <time>2015-08-23T12:10:52Z</time>
      </trkpt>
      <trkpt lat="44.8735" lon="4.18662">
        <ele>1436.908</ele>
        <time>2015-08-23T12:11:12Z</time>
      </trkpt>
      <trkpt lat="44.87304" lon="4.18697">
        <ele>1439.535</ele>
        <time>2015-08-23T12:11:32Z</time>
      </trkpt>
      <trkpt lat="44.87285" lon="4.18739">
        <ele>1448.34</ele>
        <time>2015-08-23T12:11:52Z</time>
      </trkpt>
      <trkpt lat="44.87269" lon="4.18749">
        <ele>1449.531</ele>
        <time>2015-08-23T12:12:12Z</time>
      </trkpt>
      <trkpt lat="44.87151" lon="4.18748">
        <ele>1450.736</ele>
        <time>2015-08-23T12:12:32Z</time>
      </trkpt>
      <trkpt lat="44.87106" lon="4.18728">
        <ele>1454.785</ele>
        <time>2015-08-23T12:12:52Z</time>
      </trkpt>
      <trkpt lat="44.87051" lon="4.18698">
        <ele>1461.278</ele>
        <time>2015-08-23T12:13:12Z</time>
      </trkpt>
      <trkpt lat="44.8703" lon="4.18676">
        <ele>1462.015</ele>
        <time>2015-08-23T12:13:32Z</time>
      </trkpt>
      <trkpt lat="44.87006" lon="4.1866">
        <ele>1460.769</ele>
        <time>2015-08-23T12:13:52Z</time>
      </trkpt>
      <trkpt lat="44.86953" lon="4.18637">
        <ele>1460.599</ele>
        <time>2015-08-23T12:14:12Z</time>
      </trkpt>
      <trkpt lat="44.86922" lon="4.1864">
        <ele>1460.307</ele>
        <time>2020-11-30T02:37:28Z</time>
      </trkpt>
      <trkpt lat="44.86846" lon="4.18852">
        <ele>1472.327</ele>
        <time>2020-11-30T02:37:48Z</time>
      </trkpt>
      <trkpt lat="44.86646" lon="4.19365">
        <ele>1408.708</ele>
        <time>2020-11-30T02:38:08Z</time>
      </trkpt>
      <trkpt lat="44.86611" lon="4.19403">
        <ele>1403.915</ele>
        <time>2020-11-30T02:38:28Z</time>
      </trkpt>
      <trkpt lat="44.8659" lon="4.19449">
        <ele>1402.79</ele>
        <time>2020-11-30T02:38:48Z</time>
      </trkpt>
      <trkpt lat="44.86586" lon="4.19482">
        <ele>1401.381</ele>
        <time>2020-11-30T02:39:08Z</time>
      </trkpt>
      <trkpt lat="44.86562" lon="4.19509">
        <ele>1402.316</ele>
        <time>2020-11-30T02:39:28Z</time>
      </trkpt>
      <trkpt lat="44.86374" lon="4.19658">
        <ele>1398.035</ele>
        <time>2020-11-30T02:39:48Z</time>
      </trkpt>
      <trkpt lat="44.8618" lon="4.19748">
        <ele>1391.948</ele>
        <time>2020-11-30T02:40:08Z</time>
      </trkpt>
      <trkpt lat="44.8608" lon="4.19741">
        <ele>1392.685</ele>
        <time>2020-11-30T02:40:28Z</time>
      </trkpt>
      <trkpt lat="44.86026" lon="4.19782">
        <ele>1394.199</ele>
        <time>2020-11-30T02:40:48Z</time>
      </trkpt>
      <trkpt lat="44.85991" lon="4.19838">
        <ele>1393.856</ele>
        <time>2020-11-30T02:41:08Z</time>
      </trkpt>
      <trkpt lat="44.85945" lon="4.19875">
        <ele>1389.159</ele>
        <time>2020-11-30T02:41:28Z</time>
      </trkpt>
      <trkpt lat="44.85898" lon="4.19889">
        <ele>1383.014</ele>
        <time>2020-11-30T02:41:48Z</time>
      </trkpt>
      <trkpt lat="44.85761" lon="4.19999">
        <ele>1379.208</ele>
        <time>2020-11-30T02:42:08Z</time>
      </trkpt>
      <trkpt lat="44.85732" lon="4.20049">
        <ele>1381.221</ele>
        <time>2020-11-30T02:42:28Z</time>
      </trkpt>
      <trkpt lat="44.85688" lon="4.20079">
        <ele>1380.666</ele>
        <time>2020-11-30T02:42:48Z</time>
      </trkpt>
      <trkpt lat="44.85678" lon="4.20104">
        <ele>1380.417</ele>
        <time>2020-11-30T02:43:08Z</time>
      </trkpt>
      <trkpt lat="44.85656" lon="4.20129">
        <ele>1381.862</ele>
        <time>2020-11-30T02:43:28Z</time>
      </trkpt>
      <trkpt lat="44.85635" lon="4.20165">
        <ele>1383.111</ele>
        <time>2020-11-30T02:43:48Z</time>
      </trkpt>
      <trkpt lat="44.85558" lon="4.20413">
        <ele>1375.294</ele>
        <time>2020-11-30T02:44:08Z</time>
      </trkpt>
      <trkpt lat="44.85513" lon="4.20453">
        <ele>1366.891</ele>
        <time>2020-11-30T02:44:28Z</time>
      </trkpt>
      <trkpt lat="44.85495" lon="4.20449">
        <ele>1365.275</ele>
        <time>2020-11-30T02:44:48Z</time>
      </trkpt>
      <trkpt lat="44.85479" lon="4.20469">
        <ele>1361.953</ele>
        <time>2020-11-30T02:45:08Z</time>
      </trkpt>
      <trkpt lat="44.85474" lon="4.20497">
        <ele>1359.404</ele>
        <time>2020-11-30T02:45:28Z</time>
      </trkpt>
      <trkpt lat="44.85461" lon="4.20495">
        <ele>1358.414</ele>
        <time>2020-11-30T02:45:48Z</time>
      </trkpt>
      <trkpt lat="44.85389" lon="4.20561">
        <ele>1354.808</ele>
        <time>2020-11-30T02:46:08Z</time>
      </trkpt>
      <trkpt lat="44.8535" lon="4.20569">
        <ele>1355.441</ele>
        <time>2020-11-30T02:46:28Z</time>
      </trkpt>
      <trkpt lat="44.85295" lon="4.20542">
        <ele>1356.226</ele>
        <time>2020-11-30T02:46:48Z</time>
      </trkpt>
      <trkpt lat="44.8512" lon="4.20487">
        <ele>1358.397</ele>
        <time>2020-11-30T02:47:08Z</time>
      </trkpt>
      <trkpt lat="44.85048" lon="4.20489">
        <ele>1369.532</ele>
        <time>2020-11-30T02:47:28Z</time>
      </trkpt>
      <trkpt lat="44.84957" lon="4.20514">
        <ele>1376.221</ele>
        <time>2020-11-30T02:47:48Z</time>
      </trkpt>
      <trkpt lat="44.84909" lon="4.20583">
        <ele>1380.444</ele>
        <time>2020-11-30T02:48:08Z</time>
      </trkpt>
      <trkpt lat="44.84878" lon="4.20656">
        <ele>1384.531</ele>
        <time>2020-11-30T02:48:28Z</time>
      </trkpt>
      <trkpt lat="44.84868" lon="4.20696">
        <ele>1384.095</ele>
        <time>2020-11-30T02:48:48Z</time>
      </trkpt>
      <trkpt lat="44.84844" lon="4.20724">
        <ele>1382.489</ele>
        <time>2020-11-30T02:49:08Z</time>
      </trkpt>
      <trkpt lat="44.84819" lon="4.2077">
        <ele>1384.406</ele>
        <time>2020-11-30T02:49:28Z</time>
      </trkpt>
      <trkpt lat="44.84782" lon="4.20812">
        <ele>1387.626</ele>
        <time>2020-11-30T02:49:48Z</time>
      </trkpt>
      <trkpt lat="44.84759" lon="4.20865">
        <ele>1391.008</ele>
        <time>2020-11-30T02:50:08Z</time>
      </trkpt>
      <trkpt lat="44.84749" lon="4.20963">
        <ele>1394.054</ele>
        <time>2020-11-30T02:50:28Z</time>
      </trkpt>
      <trkpt lat="44.84721" lon="4.21051">
        <ele>1400.639</ele>
        <time>2020-11-30T02:50:48Z</time>
      </trkpt>
      <trkpt lat="44.84665" lon="4.21125">
        <ele>1403.19</ele>
        <time>2020-11-30T02:51:08Z</time>
      </trkpt>
      <trkpt lat="44.84553" lon="4.21202">
        <ele>1408.695</ele>
        <time>2020-11-30T02:51:28Z</time>
      </trkpt>
      <trkpt lat="44.84475" lon="4.21239">
        <ele>1410.794</ele>
        <time>2020-11-30T02:51:48Z</time>
      </trkpt>
      <trkpt lat="44.8444" lon="4.21289">
        <ele>1411.067</ele>
        <time>2020-11-30T02:52:08Z</time>
      </trkpt>
      <trkpt lat="44.84423" lon="4.21342">
        <ele>1413.614</ele>
        <time>2020-11-30T02:52:28Z</time>
      </trkpt>
      <trkpt lat="44.84406" lon="4.21354">
        <ele>1412.668</ele>
        <time>2020-11-30T02:52:48Z</time>
      </trkpt>
      <trkpt lat="44.84386" lon="4.21452">
        <ele>1411.376</ele>
        <time>2020-11-30T02:53:08Z</time>
      </trkpt>
      <trkpt lat="44.84343" lon="4.21572">
        <ele>1414.19</ele>
        <time>2020-11-30T02:53:28Z</time>
      </trkpt>
      <trkpt lat="44.84317" lon="4.21626">
        <ele>1414.519</ele>
        <time>2020-11-30T02:53:48Z</time>
      </trkpt>
      <trkpt lat="44.84244" lon="4.21695">
        <ele>1416.608</ele>
        <time>2020-11-30T02:54:08Z</time>
      </trkpt>
      <trkpt lat="44.84215" lon="4.21744">
        <ele>1416.553</ele>
        <time>2020-11-30T02:54:28Z</time>
      </trkpt>
      <trkpt lat="44.84184" lon="4.21837">
        <ele>1418.928</ele>
        <time>2020-11-30T02:54:48Z</time>
      </trkpt>
      <trkpt lat="44.84163" lon="4.22">
        <ele>1416.419</ele>
        <time>2020-11-30T02:55:08Z</time>
      </trkpt>
      <trkpt lat="44.84085" lon="4.22413">
        <ele>1413.984</ele>
        <time>2020-11-30T02:55:28Z</time>
      </trkpt>
      <trkpt lat="44.83961" lon="4.2265">
        <ele>1414.143</ele>
        <time>2020-11-30T02:55:48Z</time>
      </trkpt>
      <trkpt lat="44.83934" lon="4.22672">
        <ele>1415.276</ele>
        <time>2020-11-30T02:56:08Z</time>
      </trkpt>
      <trkpt lat="44.83816" lon="4.22685">
        <ele>1410.213</ele>
        <time>2020-11-30T02:56:28Z</time>
      </trkpt>
      <trkpt lat="44.83481" lon="4.22633">
        <ele>1428.097</ele>
        <time>2020-11-30T02:56:48Z</time>
      </trkpt>
      <trkpt lat="44.83452" lon="4.22614">
        <ele>1430.426</ele>
        <time>2020-11-30T02:57:08Z</time>
      </trkpt>
      <trkpt lat="44.83388" lon="4.22553">
        <ele>1435.847</ele>
        <time>2020-11-30T02:57:28Z</time>
      </trkpt>
      <trkpt lat="44.83333" lon="4.22539">
        <ele>1438.211</ele>
        <time>2020-11-30T02:57:48Z</time>
      </trkpt>
      <trkpt lat="44.8321" lon="4.22565">
        <ele>1444.308</ele>
        <time>2020-11-30T02:58:08Z</time>
      </trkpt>
      <trkpt lat="44.83086" lon="4.22609">
        <ele>1451.838</ele>
        <time>2020-11-30T02:58:28Z</time>
      </trkpt>
      <trkpt lat="44.82799" lon="4.22829">
        <ele>1445.843</ele>
        <time>2020-11-30T02:58:48Z</time>
      </trkpt>
      <trkpt lat="44.82731" lon="4.22868">
        <ele>1441.874</ele>
        <time>2020-11-30T02:59:08Z</time>
      </trkpt>
      <trkpt lat="44.82681" lon="4.22885">
        <ele>1438.599</ele>
        <time>2020-11-30T02:59:28Z</time>
      </trkpt>
      <trkpt lat="44.8244" lon="4.22948">
        <ele>1426.058</ele>
        <time>2020-11-30T02:59:48Z</time>
      </trkpt>
      <trkpt lat="44.82401" lon="4.22979">
        <ele>1425.281</ele>
        <time>2020-11-30T03:00:08Z</time>
      </trkpt>
      <trkpt lat="44.82366" lon="4.23023">
        <ele>1423.518</ele>
        <time>2020-11-30T03:00:28Z</time>
      </trkpt>
      <trkpt lat="44.8235" lon="4.23084">
        <ele>1419.232</ele>
        <time>2020-11-30T03:00:48Z</time>
      </trkpt>
      <trkpt lat="44.82292" lon="4.23432">
        <ele>1404.555</ele>
        <time>2020-11-30T03:01:08Z</time>
      </trkpt>
      <trkpt lat="44.8225" lon="4.23535">
        <ele>1394.507</ele>
        <time>2020-11-30T03:01:28Z</time>
      </trkpt>
      <trkpt lat="44.82192" lon="4.23742">
        <ele>1379.517</ele>
        <time>2020-11-30T03:01:48Z</time>
      </trkpt>
      <trkpt lat="44.82144" lon="4.23857">
        <ele>1376.408</ele>
        <time>2020-11-30T03:02:08Z</time>
      </trkpt>
      <trkpt lat="44.82091" lon="4.23956">
        <ele>1374.021</ele>
        <time>2020-11-30T03:02:28Z</time>
      </trkpt>
      <trkpt lat="44.82018" lon="4.24058">
        <ele>1370.796</ele>
        <time>2020-11-30T03:02:48Z</time>
      </trkpt>
      <trkpt lat="44.81907" lon="4.24165">
        <ele>1372.617</ele>
        <time>2020-11-30T03:03:08Z</time>
      </trkpt>
      <trkpt lat="44.81894" lon="4.24222">
        <ele>1373.822</ele>
        <time>2020-11-30T03:03:28Z</time>
      </trkpt>
      <trkpt lat="44.81846" lon="4.24323">
        <ele>1376.331</ele>
        <time>2020-11-30T03:03:48Z</time>
      </trkpt>
      <trkpt lat="44.81801" lon="4.24363">
        <ele>1379.184</ele>
        <time>2020-11-30T03:04:08Z</time>
      </trkpt>
      <trkpt lat="44.81753" lon="4.24379">
        <ele>1381.851</ele>
        <time>2020-11-30T03:04:28Z</time>
      </trkpt>
      <trkpt lat="44.81387" lon="4.24387">
        <ele>1399.865</ele>
        <time>2020-11-30T03:04:48Z</time>
      </trkpt>
      <trkpt lat="44.81349" lon="4.24402">
        <ele>1400.551</ele>
        <time>2020-11-30T03:05:08Z</time>
      </trkpt>
      <trkpt lat="44.81331" lon="4.24436">
        <ele>1402.101</ele>
        <time>2020-11-30T03:05:28Z</time>
      </trkpt>
      <trkpt lat="44.8124" lon="4.24383">
        <ele>1397.111</ele>
        <time>2020-11-30T03:05:48Z</time>
      </trkpt>
      <trkpt lat="44.81145" lon="4.2435">
        <ele>1398.608</ele>
        <time>2020-11-30T03:06:08Z</time>
      </trkpt>
      <trkpt lat="44.8103" lon="4.24282">
        <ele>1395.371</ele>
        <time>2020-11-30T03:06:28Z</time>
      </trkpt>
      <trkpt lat="44.81031" lon="4.24243">
        <ele>1394.786</ele>
        <time>2020-11-30T03:06:48Z</time>
      </trkpt>
      <trkpt lat="44.81059" lon="4.24178">
        <ele>1393.387</ele>
        <time>2020-11-30T03:07:08Z</time>
      </trkpt>
      <trkpt lat="44.8108" lon="4.24155">
        <ele>1393.992</ele>
        <time>2020-11-30T03:07:28Z</time>
      </trkpt>
      <trkpt lat="44.81083" lon="4.24137">
        <ele>1391.551</ele>
        <time>2020-11-30T03:07:48Z</time>
      </trkpt>
      <trkpt lat="44.80851" lon="4.24042">
        <ele>1360.394</ele>
        <time>2020-11-30T03:08:08Z</time>
      </trkpt>
      <trkpt lat="44.80657" lon="4.23978">
        <ele>1350.531</ele>
        <time>2020-11-30T03:08:28Z</time>
      </trkpt>
      <trkpt lat="44.80605" lon="4.23982">
        <ele>1348.135</ele>
        <time>2020-11-30T03:08:48Z</time>
      </trkpt>
      <trkpt lat="44.80567" lon="4.24002">
        <ele>1348.915</ele>
        <time>2020-11-30T03:09:08Z</time>
      </trkpt>
      <trkpt lat="44.80543" lon="4.23997">
        <ele>1345.565</ele>
        <time>2020-11-30T03:09:28Z</time>
      </trkpt>
      <trkpt lat="44.8052" lon="4.23981">
        <ele>1340.311</ele>
        <time>2020-11-30T03:09:48Z</time>
      </trkpt>
      <trkpt lat="44.80499" lon="4.2399">
        <ele>1337.208</ele>
        <time>2020-11-30T03:10:08Z</time>
      </trkpt>
      <trkpt lat="44.80479" lon="4.2399">
        <ele>1335.517</ele>
        <time>2020-11-30T03:10:28Z</time>
      </trkpt>
      <trkpt lat="44.80409" lon="4.24026">
        <ele>1332.292</ele>
        <time>2020-11-30T03:10:48Z</time>
      </trkpt>
      <trkpt lat="44.80337" lon="4.24018">
        <ele>1313.993</ele>
        <time>2020-11-30T03:11:08Z</time>
      </trkpt>
      <trkpt lat="44.80298" lon="4.24031">
        <ele>1310.158</ele>
        <time>2020-11-30T03:11:28Z</time>
      </trkpt>
      <trkpt lat="44.8022" lon="4.24006">
        <ele>1295.837</ele>
        <time>2020-11-30T03:11:48Z</time>
      </trkpt>
      <trkpt lat="44.80204" lon="4.24012">
        <ele>1292.41</ele>
        <time>2020-11-30T03:12:08Z</time>
      </trkpt>
      <trkpt lat="44.80163" lon="4.23982">
        <ele>1282.517</ele>
        <time>2020-11-30T03:12:28Z</time>
      </trkpt>
      <trkpt lat="44.80147" lon="4.23959">
        <ele>1280.041</ele>
        <time>2020-11-30T03:12:48Z</time>
      </trkpt>
      <trkpt lat="44.80058" lon="4.23938">
        <ele>1275.824</ele>
        <time>2020-11-30T03:13:08Z</time>
      </trkpt>
      <trkpt lat="44.79992" lon="4.23825">
        <ele>1273.004</ele>
        <time>2020-11-30T03:13:28Z</time>
      </trkpt>
      <trkpt lat="44.79966" lon="4.23757">
        <ele>1268.514</ele>
        <time>2020-11-30T03:13:48Z</time>
      </trkpt>
      <trkpt lat="44.79887" lon="4.2363">
        <ele>1261.508</ele>
        <time>2020-11-30T03:14:08Z</time>
      </trkpt>
      <trkpt lat="44.79876" lon="4.23584">
        <ele>1260.538</ele>
        <time>2020-11-30T03:14:28Z</time>
      </trkpt>
      <trkpt lat="44.79847" lon="4.23535">
        <ele>1259.123</ele>
        <time>2020-11-30T03:14:48Z</time>
      </trkpt>
      <trkpt lat="44.79837" lon="4.23494">
        <ele>1256.884</ele>
        <time>2020-11-30T03:15:08Z</time>
      </trkpt>
      <trkpt lat="44.79756" lon="4.23418">
        <ele>1250.689</ele>
        <time>2020-11-30T03:15:28Z</time>
      </trkpt>
      <trkpt lat="44.79625" lon="4.23216">
        <ele>1255.628</ele>
        <time>2020-11-30T03:15:48Z</time>
      </trkpt>
      <trkpt lat="44.79545" lon="4.2308">
        <ele>1263.091</ele>
        <time>2020-11-30T03:16:08Z</time>
      </trkpt>
      <trkpt lat="44.79415" lon="4.22964">
        <ele>1260.398</ele>
        <time>2020-11-30T03:16:28Z</time>
      </trkpt>
      <trkpt lat="44.79383" lon="4.22965">
        <ele>1260.052</ele>
        <time>2020-11-30T03:16:48Z</time>
      </trkpt>
      <trkpt lat="44.79338" lon="4.22976">
        <ele>1259.048</ele>
        <time>2020-11-30T03:17:08Z</time>
      </trkpt>
      <trkpt lat="44.79248" lon="4.22931">
        <ele>1253.461</ele>
        <time>2020-11-30T03:17:28Z</time>
      </trkpt>
      <trkpt lat="44.79187" lon="4.22887">
        <ele>1247.217</ele>
        <time>2020-11-30T03:17:48Z</time>
      </trkpt>
      <trkpt lat="44.79151" lon="4.22839">
        <ele>1244.108</ele>
        <time>2020-11-30T03:18:08Z</time>
      </trkpt>
      <trkpt lat="44.79107" lon="4.22876">
        <ele>1242.19</ele>
        <time>2020-11-30T03:18:28Z</time>
      </trkpt>
      <trkpt lat="44.7907" lon="4.22936">
        <ele>1237.465</ele>
        <time>2020-11-30T03:18:48Z</time>
      </trkpt>
      <trkpt lat="44.79031" lon="4.2294">
        <ele>1231.656</ele>
        <time>2020-11-30T03:19:08Z</time>
      </trkpt>
      <trkpt lat="44.78944" lon="4.22909">
        <ele>1224.041</ele>
        <time>2020-11-30T03:19:28Z</time>
      </trkpt>
      <trkpt lat="44.78932" lon="4.2289">
        <ele>1224.09</ele>
        <time>2020-11-30T03:19:48Z</time>
      </trkpt>
      <trkpt lat="44.78884" lon="4.22888">
        <ele>1226.143</ele>
        <time>2020-11-30T03:20:08Z</time>
      </trkpt>
      <trkpt lat="44.78836" lon="4.22946">
        <ele>1235.19</ele>
        <time>2020-11-30T03:20:28Z</time>
      </trkpt>
      <trkpt lat="44.78749" lon="4.22989">
        <ele>1245.734</ele>
        <time>2020-11-30T03:20:48Z</time>
      </trkpt>
      <trkpt lat="44.78711" lon="4.22991">
        <ele>1247.119</ele>
        <time>2020-11-30T03:21:08Z</time>
      </trkpt>
      <trkpt lat="44.78642" lon="4.22947">
        <ele>1249.909</ele>
        <time>2020-11-30T03:21:28Z</time>
      </trkpt>
      <trkpt lat="44.78609" lon="4.2296">
        <ele>1251.019</ele>
        <time>2020-11-30T03:21:48Z</time>
      </trkpt>
      <trkpt lat="44.78567" lon="4.22965">
        <ele>1251.408</ele>
        <time>2020-11-30T03:22:08Z</time>
      </trkpt>
      <trkpt lat="44.78543" lon="4.22989">
        <ele>1252.617</ele>
        <time>2020-11-30T03:22:28Z</time>
      </trkpt>
      <trkpt lat="44.7853" lon="4.22984">
        <ele>1254.982</ele>
        <time>2020-11-30T03:22:48Z</time>
      </trkpt>
      <trkpt lat="44.78482" lon="4.22946">
        <ele>1265.813</ele>
        <time>2020-11-30T03:23:08Z</time>
      </trkpt>
      <trkpt lat="44.78422" lon="4.22941">
        <ele>1270.988</ele>
        <time>2020-11-30T03:23:28Z</time>
      </trkpt>
      <trkpt lat="44.7833" lon="4.2295">
        <ele>1275.837</ele>
        <time>2020-11-30T03:23:48Z</time>
      </trkpt>
      <trkpt lat="44.78281" lon="4.22966">
        <ele>1276.03</ele>
        <time>2020-11-30T03:24:08Z</time>
      </trkpt>
      <trkpt lat="44.78215" lon="4.22984">
        <ele>1279.427</ele>
        <time>2020-11-30T03:24:28Z</time>
      </trkpt>
      <trkpt lat="44.78115" lon="4.2297">
        <ele>1282.831</ele>
        <time>2020-11-30T03:24:48Z</time>
      </trkpt>
      <trkpt lat="44.78062" lon="4.22998">
        <ele>1282.083</ele>
        <time>2020-11-30T03:25:08Z</time>
      </trkpt>
      <trkpt lat="44.77999" lon="4.23007">
        <ele>1279.725</ele>
        <time>2020-11-30T03:25:28Z</time>
      </trkpt>
      <trkpt lat="44.77936" lon="4.23059">
        <ele>1283.217</ele>
        <time>2020-11-30T03:25:48Z</time>
      </trkpt>
      <trkpt lat="44.77883" lon="4.23062">
        <ele>1279.208</ele>
        <time>2020-11-30T03:26:08Z</time>
      </trkpt>
      <trkpt lat="44.77833" lon="4.23086">
        <ele>1280.384</ele>
        <time>2020-11-30T03:26:28Z</time>
      </trkpt>
      <trkpt lat="44.77775" lon="4.23062">
        <ele>1279.719</ele>
        <time>2020-11-30T03:26:48Z</time>
      </trkpt>
      <trkpt lat="44.7773" lon="4.23028">
        <ele>1281.84</ele>
        <time>2020-11-30T03:27:08Z</time>
      </trkpt>
      <trkpt lat="44.77697" lon="4.23011">
        <ele>1283.955</ele>
        <time>2020-11-30T03:27:28Z</time>
      </trkpt>
      <trkpt lat="44.77646" lon="4.22912">
        <ele>1292.124</ele>
        <time>2020-11-30T03:27:48Z</time>
      </trkpt>
      <trkpt lat="44.77594" lon="4.22848">
        <ele>1283.517</ele>
        <time>2020-11-30T03:28:08Z</time>
      </trkpt>
      <trkpt lat="44.77531" lon="4.22825">
        <ele>1276.184</ele>
        <time>2020-11-30T03:28:28Z</time>
      </trkpt>
      <trkpt lat="44.77488" lon="4.22842">
        <ele>1270.248</ele>
        <time>2020-11-30T03:28:48Z</time>
      </trkpt>
      <trkpt lat="44.77436" lon="4.22837">
        <ele>1262.965</ele>
        <time>2020-11-30T03:29:08Z</time>
      </trkpt>
      <trkpt lat="44.77367" lon="4.22794">
        <ele>1262.168</ele>
        <time>2020-11-30T03:29:28Z</time>
      </trkpt>
      <trkpt lat="44.77324" lon="4.22728">
        <ele>1262.114</ele>
        <time>2020-11-30T03:29:48Z</time>
      </trkpt>
      <trkpt lat="44.77309" lon="4.22669">
        <ele>1262.608</ele>
        <time>2020-11-30T03:30:08Z</time>
      </trkpt>
      <trkpt lat="44.77281" lon="4.22651">
        <ele>1265.872</ele>
        <time>2020-11-30T03:30:28Z</time>
      </trkpt>
      <trkpt lat="44.77249" lon="4.22604">
        <ele>1265.067</ele>
        <time>2020-11-30T03:30:48Z</time>
      </trkpt>
      <trkpt lat="44.77228" lon="4.22588">
        <ele>1264.398</ele>
        <time>2020-11-30T03:31:08Z</time>
      </trkpt>
      <trkpt lat="44.77219" lon="4.22561">
        <ele>1266.733</ele>
        <time>2020-11-30T03:31:28Z</time>
      </trkpt>
      <trkpt lat="44.77219" lon="4.2252">
        <ele>1273.162</ele>
        <time>2020-11-30T03:31:48Z</time>
      </trkpt>
      <trkpt lat="44.77239" lon="4.22439">
        <ele>1274.745</ele>
        <time>2020-11-30T03:32:08Z</time>
      </trkpt>
      <trkpt lat="44.77236" lon="4.22371">
        <ele>1279.262</ele>
        <time>2020-11-30T03:32:28Z</time>
      </trkpt>
      <trkpt lat="44.77248" lon="4.22283">
        <ele>1280.366</ele>
        <time>2020-11-30T03:32:48Z</time>
      </trkpt>
      <trkpt lat="44.77246" lon="4.22222">
        <ele>1278.917</ele>
        <time>2020-11-30T03:33:08Z</time>
      </trkpt>
      <trkpt lat="44.77234" lon="4.2211">
        <ele>1273.587</ele>
        <time>2020-11-30T03:33:28Z</time>
      </trkpt>
      <trkpt lat="44.77233" lon="4.22025">
        <ele>1269.215</ele>
        <time>2020-11-30T03:33:48Z</time>
      </trkpt>
      <trkpt lat="44.77226" lon="4.21955">
        <ele>1267.308</ele>
        <time>2020-11-30T03:34:08Z</time>
      </trkpt>
      <trkpt lat="44.77235" lon="4.21876">
        <ele>1267.057</ele>
        <time>2020-11-30T03:34:28Z</time>
      </trkpt>
      <trkpt lat="44.77212" lon="4.2177">
        <ele>1260.192</ele>
        <time>2020-11-30T03:34:48Z</time>
      </trkpt>
      <trkpt lat="44.77175" lon="4.21724">
        <ele>1259.063</ele>
        <time>2020-11-30T03:35:08Z</time>
      </trkpt>
      <trkpt lat="44.77158" lon="4.21674">
        <ele>1258.378</ele>
        <time>2020-11-30T03:35:28Z</time>
      </trkpt>
      <trkpt lat="44.77155" lon="4.21632">
        <ele>1257.327</ele>
        <time>2020-11-30T03:35:48Z</time>
      </trkpt>
      <trkpt lat="44.77167" lon="4.21598">
        <ele>1256.57</ele>
        <time>2020-11-30T03:36:08Z</time>
      </trkpt>
      <trkpt lat="44.77171" lon="4.21571">
        <ele>1257.567</ele>
        <time>2020-11-30T03:36:28Z</time>
      </trkpt>
      <trkpt lat="44.77044" lon="4.21442">
        <ele>1248.711</ele>
        <time>2020-11-30T03:36:48Z</time>
      </trkpt>
      <trkpt lat="44.77013" lon="4.21437">
        <ele>1247.977</ele>
        <time>2020-11-30T03:37:08Z</time>
      </trkpt>
      <trkpt lat="44.7695" lon="4.21457">
        <ele>1240.061</ele>
        <time>2020-11-30T03:37:28Z</time>
      </trkpt>
      <trkpt lat="44.76912" lon="4.21495">
        <ele>1240.627</ele>
        <time>2020-11-30T03:37:48Z</time>
      </trkpt>
      <trkpt lat="44.76874" lon="4.21513">
        <ele>1238.908</ele>
        <time>2020-11-30T03:38:08Z</time>
      </trkpt>
      <trkpt lat="44.76825" lon="4.21524">
        <ele>1235.733</ele>
        <time>2020-11-30T03:38:28Z</time>
      </trkpt>
      <trkpt lat="44.76805" lon="4.21504">
        <ele>1233.068</ele>
        <time>2020-11-30T03:38:48Z</time>
      </trkpt>
      <trkpt lat="44.76788" lon="4.2151">
        <ele>1234.079</ele>
        <time>2020-11-30T03:39:08Z</time>
      </trkpt>
      <trkpt lat="44.76728" lon="4.21476">
        <ele>1236.274</ele>
        <time>2020-11-30T03:39:28Z</time>
      </trkpt>
      <trkpt lat="44.76702" lon="4.21435">
        <ele>1238.773</ele>
        <time>2020-11-30T03:39:48Z</time>
      </trkpt>
      <trkpt lat="44.76648" lon="4.2141">
        <ele>1240.416</ele>
        <time>2020-11-30T03:40:08Z</time>
      </trkpt>
      <trkpt lat="44.76618" lon="4.21367">
        <ele>1236.683</ele>
        <time>2020-11-30T03:40:28Z</time>
      </trkpt>
      <trkpt lat="44.76572" lon="4.21325">
        <ele>1236.267</ele>
        <time>2020-11-30T03:40:48Z</time>
      </trkpt>
      <trkpt lat="44.76525" lon="4.21236">
        <ele>1230.929</ele>
        <time>2020-11-30T03:41:08Z</time>
      </trkpt>
      <trkpt lat="44.76494" lon="4.21222">
        <ele>1229.6</ele>
        <time>2020-11-30T03:41:28Z</time>
      </trkpt>
      <trkpt lat="44.76481" lon="4.21196">
        <ele>1229.92</ele>
        <time>2020-11-30T03:41:48Z</time>
      </trkpt>
      <trkpt lat="44.76481" lon="4.21148">
        <ele>1234.208</ele>
        <time>2020-11-30T03:42:08Z</time>
      </trkpt>
      <trkpt lat="44.7649" lon="4.21113">
        <ele>1236.518</ele>
        <time>2020-11-30T03:42:28Z</time>
      </trkpt>
      <trkpt lat="44.76532" lon="4.21056">
        <ele>1235.273</ele>
        <time>2020-11-30T03:42:48Z</time>
      </trkpt>
      <trkpt lat="44.76538" lon="4.21001">
        <ele>1238.834</ele>
        <time>2020-11-30T03:43:08Z</time>
      </trkpt>
      <trkpt lat="44.76558" lon="4.20935">
        <ele>1242.139</ele>
        <time>2020-11-30T03:43:28Z</time>
      </trkpt>
      <trkpt lat="44.76555" lon="4.20805">
        <ele>1241.028</ele>
        <time>2020-11-30T03:43:48Z</time>
      </trkpt>
      <trkpt lat="44.76519" lon="4.20622">
        <ele>1250.871</ele>
        <time>2020-11-30T03:44:08Z</time>
      </trkpt>
      <trkpt lat="44.76532" lon="4.20547">
        <ele>1257.448</ele>
        <time>2020-11-30T03:44:28Z</time>
      </trkpt>
      <trkpt lat="44.76548" lon="4.2052">
        <ele>1258.492</ele>
        <time>2020-11-30T03:44:48Z</time>
      </trkpt>
      <trkpt lat="44.76548" lon="4.20459">
        <ele>1260.941</ele>
        <time>2020-11-30T03:45:08Z</time>
      </trkpt>
      <trkpt lat="44.76522" lon="4.20383">
        <ele>1263.881</ele>
        <time>2020-11-30T03:45:28Z</time>
      </trkpt>
      <trkpt lat="44.76511" lon="4.20376">
        <ele>1265.309</ele>
        <time>2020-11-30T03:45:48Z</time>
      </trkpt>
      <trkpt lat="44.76486" lon="4.20364">
        <ele>1269.308</ele>
        <time>2015-08-23T13:42:52Z</time>
      </trkpt>
      <trkpt lat="44.76434" lon="4.20282">
        <ele>1282.33</ele>
        <time>2015-08-23T13:43:12Z</time>
      </trkpt>
      <trkpt lat="44.764" lon="4.20223">
        <ele>1285.175</ele>
        <time>2015-08-23T13:43:32Z</time>
      </trkpt>
      <trkpt lat="44.76379" lon="4.20154">
        <ele>1289.536</ele>
        <time>2015-08-23T13:43:52Z</time>
      </trkpt>
      <trkpt lat="44.76324" lon="4.20132">
        <ele>1288.681</ele>
        <time>2015-08-23T13:44:12Z</time>
      </trkpt>
      <trkpt lat="44.76288" lon="4.2013">
        <ele>1287.78</ele>
        <time>2015-08-23T13:44:32Z</time>
      </trkpt>
      <trkpt lat="44.76262" lon="4.20138">
        <ele>1287.743</ele>
        <time>2015-08-23T13:44:52Z</time>
      </trkpt>
      <trkpt lat="44.76155" lon="4.20147">
        <ele>1289.19</ele>
        <time>2015-08-23T13:45:12Z</time>
      </trkpt>
      <trkpt lat="44.76114" lon="4.20134">
        <ele>1289.254</ele>
        <time>2015-08-23T13:45:32Z</time>
      </trkpt>
      <trkpt lat="44.7606" lon="4.20103">
        <ele>1291.214</ele>
        <time>2015-08-23T13:45:52Z</time>
      </trkpt>
      <trkpt lat="44.76026" lon="4.20092">
        <ele>1291.254</ele>
        <time>2015-08-23T13:46:12Z</time>
      </trkpt>
      <trkpt lat="44.75956" lon="4.20087">
        <ele>1287.109</ele>
        <time>2015-08-23T13:46:32Z</time>
      </trkpt>
      <trkpt lat="44.75846" lon="4.20124">
        <ele>1287.108</ele>
        <time>2015-08-23T13:46:52Z</time>
      </trkpt>
      <trkpt lat="44.7576" lon="4.20138">
        <ele>1286.837</ele>
        <time>2015-08-23T13:47:12Z</time>
      </trkpt>
      <trkpt lat="44.75718" lon="4.2014">
        <ele>1281.892</ele>
        <time>2015-08-23T13:47:32Z</time>
      </trkpt>
      <trkpt lat="44.75623" lon="4.20015">
        <ele>1274.343</ele>
        <time>2015-08-23T13:47:52Z</time>
      </trkpt>
      <trkpt lat="44.75638" lon="4.19933">
        <ele>1276.978</ele>
        <time>2015-08-23T13:48:12Z</time>
      </trkpt>
      <trkpt lat="44.7564" lon="4.1988">
        <ele>1275.847</ele>
        <time>2015-08-23T13:48:32Z</time>
      </trkpt>
      <trkpt lat="44.75643" lon="4.19757">
        <ele>1274.71</ele>
        <time>2015-08-23T13:48:52Z</time>
      </trkpt>
      <trkpt lat="44.75627" lon="4.19685">
        <ele>1274.117</ele>
        <time>2015-08-23T13:49:12Z</time>
      </trkpt>
      <trkpt lat="44.75619" lon="4.19617">
        <ele>1272.791</ele>
        <time>2015-08-23T13:49:32Z</time>
      </trkpt>
      <trkpt lat="44.75596" lon="4.19533">
        <ele>1271.241</ele>
        <time>2015-08-23T13:49:52Z</time>
      </trkpt>
      <trkpt lat="44.75569" lon="4.1947">
        <ele>1273.681</ele>
        <time>2015-08-23T13:50:12Z</time>
      </trkpt>
      <trkpt lat="44.7554" lon="4.19429">
        <ele>1274.209</ele>
        <time>2019-03-28T21:54:03Z</time>
      </trkpt>
      <trkpt lat="44.75536" lon="4.19319">
        <ele>1274.008</ele>
        <time>2019-03-28T21:54:23Z</time>
      </trkpt>
      <trkpt lat="44.75526" lon="4.19244">
        <ele>1275.28</ele>
        <time>2015-08-23T13:51:12Z</time>
      </trkpt>
      <trkpt lat="44.75513" lon="4.19156">
        <ele>1268.745</ele>
        <time>2015-08-23T13:51:32Z</time>
      </trkpt>
      <trkpt lat="44.75493" lon="4.19083">
        <ele>1260.786</ele>
        <time>2015-08-23T13:51:52Z</time>
      </trkpt>
      <trkpt lat="44.75482" lon="4.19048">
        <ele>1258.641</ele>
        <time>2015-08-23T13:52:12Z</time>
      </trkpt>
      <trkpt lat="44.75441" lon="4.18958">
        <ele>1249.01</ele>
        <time>2015-08-23T13:52:32Z</time>
      </trkpt>
      <trkpt lat="44.75409" lon="4.18879">
        <ele>1234.333</ele>
        <time>2015-08-23T13:52:52Z</time>
      </trkpt>
      <trkpt lat="44.75333" lon="4.18906">
        <ele>1236.46</ele>
        <time>2020-01-18T18:36:48Z</time>
      </trkpt>
      <trkpt lat="44.75326" lon="4.18855">
        <ele>1235.114</ele>
        <time>2015-08-23T13:53:32Z</time>
      </trkpt>
      <trkpt lat="44.75329" lon="4.18785">
        <ele>1236.833</ele>
        <time>2015-08-23T13:53:52Z</time>
      </trkpt>
      <trkpt lat="44.75305" lon="4.18744">
        <ele>1239.423</ele>
        <time>2015-08-23T13:54:12Z</time>
      </trkpt>
      <trkpt lat="44.75246" lon="4.18701">
        <ele>1238.815</ele>
        <time>2015-08-23T13:54:32Z</time>
      </trkpt>
      <trkpt lat="44.75226" lon="4.1867">
        <ele>1237.808</ele>
        <time>2015-08-23T13:54:52Z</time>
      </trkpt>
      <trkpt lat="44.75183" lon="4.18629">
        <ele>1234.329</ele>
        <time>2015-08-23T13:55:12Z</time>
      </trkpt>
      <trkpt lat="44.75148" lon="4.1862">
        <ele>1235.734</ele>
        <time>2015-08-23T13:55:32Z</time>
      </trkpt>
      <trkpt lat="44.75088" lon="4.18616">
        <ele>1238.735</ele>
        <time>2015-08-23T13:55:52Z</time>
      </trkpt>
      <trkpt lat="44.75017" lon="4.18596">
        <ele>1247.52</ele>
        <time>2015-08-23T13:56:12Z</time>
      </trkpt>
      <trkpt lat="44.74966" lon="4.18572">
        <ele>1250.139</ele>
        <time>2015-08-23T13:56:32Z</time>
      </trkpt>
      <trkpt lat="44.74934" lon="4.18561">
        <ele>1253.612</ele>
        <time>2015-08-23T13:56:52Z</time>
      </trkpt>
      <trkpt lat="44.74904" lon="4.1854">
        <ele>1258.669</ele>
        <time>2015-08-23T13:57:12Z</time>
      </trkpt>
      <trkpt lat="44.74895" lon="4.18519">
        <ele>1260.273</ele>
        <time>2015-08-23T13:57:32Z</time>
      </trkpt>
      <trkpt lat="44.74895" lon="4.18487">
        <ele>1259.745</ele>
        <time>2015-08-23T13:57:52Z</time>
      </trkpt>
      <trkpt lat="44.74913" lon="4.18455">
        <ele>1256.847</ele>
        <time>2015-08-23T13:58:12Z</time>
      </trkpt>
      <trkpt lat="44.74965" lon="4.184">
        <ele>1261.311</ele>
        <time>2015-08-23T13:58:32Z</time>
      </trkpt>
      <trkpt lat="44.74993" lon="4.18379">
        <ele>1261.708</ele>
        <time>2015-08-23T13:58:52Z</time>
      </trkpt>
      <trkpt lat="44.75037" lon="4.18356">
        <ele>1262.47</ele>
        <time>2015-08-23T13:59:12Z</time>
      </trkpt>
      <trkpt lat="44.75091" lon="4.18341">
        <ele>1265.335</ele>
        <time>2015-08-23T13:59:32Z</time>
      </trkpt>
      <trkpt lat="44.75116" lon="4.18324">
        <ele>1266.816</ele>
        <time>2015-08-23T13:59:52Z</time>
      </trkpt>
      <trkpt lat="44.75121" lon="4.18301">
        <ele>1268.941</ele>
        <time>2015-08-23T14:00:12Z</time>
      </trkpt>
      <trkpt lat="44.75088" lon="4.18263">
        <ele>1276.13</ele>
        <time>2015-08-23T14:00:32Z</time>
      </trkpt>
      <trkpt lat="44.75055" lon="4.18235">
        <ele>1282.533</ele>
        <time>2015-08-23T14:00:52Z</time>
      </trkpt>
      <trkpt lat="44.75038" lon="4.18211">
        <ele>1283.19</ele>
        <time>2015-08-23T14:01:12Z</time>
      </trkpt>
      <trkpt lat="44.75014" lon="4.18197">
        <ele>1283.044</ele>
        <time>2015-08-23T14:01:32Z</time>
      </trkpt>
      <trkpt lat="44.74979" lon="4.18127">
        <ele>1277.311</ele>
        <time>2015-08-23T14:01:52Z</time>
      </trkpt>
      <trkpt lat="44.74966" lon="4.18085">
        <ele>1270.221</ele>
        <time>2015-08-23T14:02:12Z</time>
      </trkpt>
      <trkpt lat="44.74946" lon="4.18065">
        <ele>1266.703</ele>
        <time>2015-08-23T14:02:32Z</time>
      </trkpt>
      <trkpt lat="44.74902" lon="4.18045">
        <ele>1258.408</ele>
        <time>2015-08-23T14:02:52Z</time>
      </trkpt>
      <trkpt lat="44.74883" lon="4.18019">
        <ele>1255.537</ele>
        <time>2015-08-23T14:03:12Z</time>
      </trkpt>
      <trkpt lat="44.74873" lon="4.17947">
        <ele>1252.182</ele>
        <time>2015-08-23T14:03:32Z</time>
      </trkpt>
      <trkpt lat="44.74806" lon="4.17911">
        <ele>1239.173</ele>
        <time>2015-08-23T14:03:52Z</time>
      </trkpt>
      <trkpt lat="44.74784" lon="4.17871">
        <ele>1237.228</ele>
        <time>2015-08-23T14:04:12Z</time>
      </trkpt>
      <trkpt lat="44.74761" lon="4.17736">
        <ele>1234.497</ele>
        <time>2015-08-23T14:04:32Z</time>
      </trkpt>
      <trkpt lat="44.74747" lon="4.17491">
        <ele>1229.59</ele>
        <time>2015-08-23T14:04:52Z</time>
      </trkpt>
      <trkpt lat="44.74728" lon="4.17397">
        <ele>1228.777</ele>
        <time>2015-08-23T14:05:12Z</time>
      </trkpt>
      <trkpt lat="44.74675" lon="4.1729">
        <ele>1223.511</ele>
        <time>2015-08-23T14:05:32Z</time>
      </trkpt>
      <trkpt lat="44.74643" lon="4.17247">
        <ele>1220.234</ele>
        <time>2015-08-23T14:05:52Z</time>
      </trkpt>
      <trkpt lat="44.74623" lon="4.17206">
        <ele>1224.255</ele>
        <time>2015-08-23T14:06:12Z</time>
      </trkpt>
      <trkpt lat="44.74556" lon="4.17109">
        <ele>1224.91</ele>
        <time>2015-08-23T14:06:32Z</time>
      </trkpt>
      <trkpt lat="44.74495" lon="4.17062">
        <ele>1219.208</ele>
        <time>2015-08-23T14:06:52Z</time>
      </trkpt>
      <trkpt lat="44.74422" lon="4.17043">
        <ele>1212.339</ele>
        <time>2015-08-23T14:07:12Z</time>
      </trkpt>
      <trkpt lat="44.74213" lon="4.17008">
        <ele>1212.994</ele>
        <time>2019-03-28T22:11:03Z</time>
      </trkpt>
      <trkpt lat="44.74106" lon="4.17028">
        <ele>1204.395</ele>
        <time>2019-03-28T22:11:23Z</time>
      </trkpt>
      <trkpt lat="44.74066" lon="4.17011">
        <ele>1197.13</ele>
        <time>2020-01-18T18:51:48Z</time>
      </trkpt>
      <trkpt lat="44.74007" lon="4.17019">
        <ele>1193.999</ele>
        <time>2019-03-28T22:11:43Z</time>
      </trkpt>
      <trkpt lat="44.74009" lon="4.16949">
        <ele>1198.162</ele>
        <time>2020-01-18T18:52:28Z</time>
      </trkpt>
      <trkpt lat="44.74044" lon="4.16944">
        <ele>1200.169</ele>
        <time>2020-01-18T18:52:48Z</time>
      </trkpt>
      <trkpt lat="44.74087" lon="4.16903">
        <ele>1208.183</ele>
        <time>2019-03-28T22:12:23Z</time>
      </trkpt>
      <trkpt lat="44.74065" lon="4.16871">
        <ele>1216.349</ele>
        <time>2019-03-28T22:12:43Z</time>
      </trkpt>
      <trkpt lat="44.74097" lon="4.16843">
        <ele>1221.502</ele>
        <time>2020-01-18T18:53:48Z</time>
      </trkpt>
      <trkpt lat="44.74105" lon="4.16824">
        <ele>1226.722</ele>
        <time>2020-01-18T18:54:08Z</time>
      </trkpt>
      <trkpt lat="44.74169" lon="4.16775">
        <ele>1240.908</ele>
        <time>2015-08-23T14:09:12Z</time>
      </trkpt>
      <trkpt lat="44.74156" lon="4.16752">
        <ele>1243.39</ele>
        <time>2015-08-23T14:09:32Z</time>
      </trkpt>
      <trkpt lat="44.7415" lon="4.16724">
        <ele>1246.035</ele>
        <time>2015-08-23T14:09:52Z</time>
      </trkpt>
      <trkpt lat="44.74157" lon="4.16674">
        <ele>1250.866</ele>
        <time>2015-08-23T14:10:12Z</time>
      </trkpt>
      <trkpt lat="44.74166" lon="4.16647">
        <ele>1253.791</ele>
        <time>2015-08-23T14:10:32Z</time>
      </trkpt>
      <trkpt lat="44.74161" lon="4.1657">
        <ele>1257.17</ele>
        <time>2015-08-23T14:10:52Z</time>
      </trkpt>
      <trkpt lat="44.74143" lon="4.16535">
        <ele>1259.053</ele>
        <time>2015-08-23T14:11:12Z</time>
      </trkpt>
      <trkpt lat="44.74161" lon="4.1648">
        <ele>1258.46</ele>
        <time>2015-08-23T14:11:32Z</time>
      </trkpt>
      <trkpt lat="44.74204" lon="4.16382">
        <ele>1260.324</ele>
        <time>2015-08-23T14:11:52Z</time>
      </trkpt>
      <trkpt lat="44.74264" lon="4.16264">
        <ele>1258.358</ele>
        <time>2015-08-23T14:12:12Z</time>
      </trkpt>
      <trkpt lat="44.74287" lon="4.16086">
        <ele>1262.352</ele>
        <time>2015-08-23T14:12:32Z</time>
      </trkpt>
      <trkpt lat="44.74315" lon="4.15976">
        <ele>1264.717</ele>
        <time>2015-08-23T14:12:52Z</time>
      </trkpt>
      <trkpt lat="44.74341" lon="4.15913">
        <ele>1270.108</ele>
        <time>2015-08-23T14:13:12Z</time>
      </trkpt>
      <trkpt lat="44.74343" lon="4.15897">
        <ele>1270.421</ele>
        <time>2015-08-23T14:13:32Z</time>
      </trkpt>
      <trkpt lat="44.7434" lon="4.15877">
        <ele>1270.976</ele>
        <time>2015-08-23T14:13:52Z</time>
      </trkpt>
      <trkpt lat="44.74307" lon="4.15802">
        <ele>1272.777</ele>
        <time>2015-08-23T14:14:12Z</time>
      </trkpt>
      <trkpt lat="44.74267" lon="4.1573">
        <ele>1278.422</ele>
        <time>2015-08-23T14:14:32Z</time>
      </trkpt>
      <trkpt lat="44.74267" lon="4.1569">
        <ele>1281.241</ele>
        <time>2015-08-23T14:14:52Z</time>
      </trkpt>
      <trkpt lat="44.74277" lon="4.15623">
        <ele>1282.034</ele>
        <time>2015-08-23T14:15:12Z</time>
      </trkpt>
      <trkpt lat="44.74294" lon="4.15542">
        <ele>1284.751</ele>
        <time>2015-08-23T14:15:32Z</time>
      </trkpt>
      <trkpt lat="44.74301" lon="4.15429">
        <ele>1287.215</ele>
        <time>2015-08-23T14:15:52Z</time>
      </trkpt>
      <trkpt lat="44.74306" lon="4.1538">
        <ele>1287.011</ele>
        <time>2015-08-23T14:16:12Z</time>
      </trkpt>
      <trkpt lat="44.74305" lon="4.15342">
        <ele>1287.721</ele>
        <time>2015-08-23T14:16:32Z</time>
      </trkpt>
      <trkpt lat="44.74292" lon="4.15297">
        <ele>1287.703</ele>
        <time>2015-08-23T14:16:52Z</time>
      </trkpt>
      <trkpt lat="44.74251" lon="4.15219">
        <ele>1285.508</ele>
        <time>2015-08-23T14:17:12Z</time>
      </trkpt>
      <trkpt lat="44.74168" lon="4.15107">
        <ele>1283.757</ele>
        <time>2015-08-23T14:17:32Z</time>
      </trkpt>
      <trkpt lat="44.74126" lon="4.15056">
        <ele>1284.092</ele>
        <time>2015-08-23T14:17:52Z</time>
      </trkpt>
      <trkpt lat="44.74087" lon="4.15026">
        <ele>1283.423</ele>
        <time>2015-08-23T14:18:12Z</time>
      </trkpt>
      <trkpt lat="44.74" lon="4.15003">
        <ele>1283.678</ele>
        <time>2015-08-23T14:18:32Z</time>
      </trkpt>
      <trkpt lat="44.73935" lon="4.14965">
        <ele>1284.867</ele>
        <time>2015-08-23T14:18:52Z</time>
      </trkpt>
      <trkpt lat="44.73887" lon="4.14922">
        <ele>1280.15</ele>
        <time>2015-08-23T14:19:12Z</time>
      </trkpt>
      <trkpt lat="44.73845" lon="4.14877">
        <ele>1276.167</ele>
        <time>2015-08-23T14:19:32Z</time>
      </trkpt>
      <trkpt lat="44.7377" lon="4.1481">
        <ele>1267.091</ele>
        <time>2020-11-30T04:24:48Z</time>
      </trkpt>
      <trkpt lat="44.73761" lon="4.14847">
        <ele>1267.481</ele>
        <time>2020-11-30T04:25:08Z</time>
      </trkpt>
      <trkpt lat="44.7373" lon="4.14789">
        <ele>1265.661</ele>
        <time>2020-11-30T04:25:28Z</time>
      </trkpt>
      <trkpt lat="44.73676" lon="4.14655">
        <ele>1256.717</ele>
        <time>2020-11-30T04:25:48Z</time>
      </trkpt>
      <trkpt lat="44.73657" lon="4.14525">
        <ele>1251.508</ele>
        <time>2020-11-30T04:26:08Z</time>
      </trkpt>
      <trkpt lat="44.73673" lon="4.14436">
        <ele>1249.244</ele>
        <time>2020-11-30T04:26:28Z</time>
      </trkpt>
      <trkpt lat="44.73729" lon="4.14306">
        <ele>1244.249</ele>
        <time>2020-11-30T04:26:48Z</time>
      </trkpt>
      <trkpt lat="44.73744" lon="4.14225">
        <ele>1238.63</ele>
        <time>2020-11-30T04:27:08Z</time>
      </trkpt>
      <trkpt lat="44.73757" lon="4.1419">
        <ele>1236.265</ele>
        <time>2020-11-30T04:27:28Z</time>
      </trkpt>
      <trkpt lat="44.73744" lon="4.14164">
        <ele>1233.274</ele>
        <time>2020-11-30T04:27:48Z</time>
      </trkpt>
      <trkpt lat="44.73763" lon="4.14117">
        <ele>1230.587</ele>
        <time>2020-11-30T04:28:08Z</time>
      </trkpt>
      <trkpt lat="44.73814" lon="4.14088">
        <ele>1225.134</ele>
        <time>2020-11-30T04:28:28Z</time>
      </trkpt>
      <trkpt lat="44.73867" lon="4.14106">
        <ele>1222.318</ele>
        <time>2020-11-30T04:28:48Z</time>
      </trkpt>
      <trkpt lat="44.7391" lon="4.14084">
        <ele>1220.875</ele>
        <time>2020-11-30T04:29:08Z</time>
      </trkpt>
      <trkpt lat="44.73947" lon="4.13966">
        <ele>1221.328</ele>
        <time>2020-11-30T04:29:28Z</time>
      </trkpt>
      <trkpt lat="44.73978" lon="4.13899">
        <ele>1220.12</ele>
        <time>2020-11-30T04:29:48Z</time>
      </trkpt>
      <trkpt lat="44.74032" lon="4.13835">
        <ele>1213.608</ele>
        <time>2020-11-30T04:30:08Z</time>
      </trkpt>
      <trkpt lat="44.74086" lon="4.13813">
        <ele>1212.833</ele>
        <time>2020-11-30T04:30:28Z</time>
      </trkpt>
      <trkpt lat="44.74141" lon="4.13649">
        <ele>1195.378</ele>
        <time>2020-11-30T04:30:48Z</time>
      </trkpt>
      <trkpt lat="44.7419" lon="4.13538">
        <ele>1188.829</ele>
        <time>2020-11-30T04:31:08Z</time>
      </trkpt>
      <trkpt lat="44.74191" lon="4.1346">
        <ele>1186.184</ele>
        <time>2020-11-30T04:31:28Z</time>
      </trkpt>
      <trkpt lat="44.74187" lon="4.13421">
        <ele>1182.553</ele>
        <time>2020-11-30T04:31:48Z</time>
      </trkpt>
      <trkpt lat="44.74231" lon="4.13315">
        <ele>1187.516</ele>
        <time>2020-11-30T04:32:08Z</time>
      </trkpt>
      <trkpt lat="44.74248" lon="4.13206">
        <ele>1189.383</ele>
        <time>2020-11-30T04:32:28Z</time>
      </trkpt>
      <trkpt lat="44.74242" lon="4.13179">
        <ele>1189.037</ele>
        <time>2020-11-30T04:32:48Z</time>
      </trkpt>
      <trkpt lat="44.74209" lon="4.13122">
        <ele>1183.558</ele>
        <time>2020-11-30T04:33:08Z</time>
      </trkpt>
      <trkpt lat="44.74198" lon="4.13061">
        <ele>1184.352</ele>
        <time>2020-11-30T04:33:28Z</time>
      </trkpt>
      <trkpt lat="44.74194" lon="4.12936">
        <ele>1180.217</ele>
        <time>2020-11-30T04:33:48Z</time>
      </trkpt>
      <trkpt lat="44.74183" lon="4.12862">
        <ele>1180.208</ele>
        <time>2020-11-30T04:34:08Z</time>
      </trkpt>
      <trkpt lat="44.74201" lon="4.12822">
        <ele>1178.951</ele>
        <time>2020-11-30T04:34:28Z</time>
      </trkpt>
      <trkpt lat="44.74178" lon="4.12807">
        <ele>1179.056</ele>
        <time>2020-11-30T04:34:48Z</time>
      </trkpt>
      <trkpt lat="44.7415" lon="4.12763">
        <ele>1179.817</ele>
        <time>2020-11-30T04:35:08Z</time>
      </trkpt>
      <trkpt lat="44.74038" lon="4.12675">
        <ele>1188.632</ele>
        <time>2020-11-30T04:35:28Z</time>
      </trkpt>
      <trkpt lat="44.73973" lon="4.1261">
        <ele>1188.291</ele>
        <time>2020-11-30T04:35:48Z</time>
      </trkpt>
      <trkpt lat="44.73926" lon="4.12396">
        <ele>1180.524</ele>
        <time>2020-11-30T04:36:08Z</time>
      </trkpt>
      <trkpt lat="44.73923" lon="4.12351">
        <ele>1179.291</ele>
        <time>2020-11-30T04:36:28Z</time>
      </trkpt>
      <trkpt lat="44.73896" lon="4.1236">
        <ele>1178.345</ele>
        <time>2020-11-30T04:36:48Z</time>
      </trkpt>
      <trkpt lat="44.73869" lon="4.12342">
        <ele>1177.789</ele>
        <time>2020-11-30T04:37:08Z</time>
      </trkpt>
      <trkpt lat="44.73819" lon="4.12279">
        <ele>1175.806</ele>
        <time>2020-11-30T04:37:28Z</time>
      </trkpt>
      <trkpt lat="44.73766" lon="4.12172">
        <ele>1172.226</ele>
        <time>2020-11-30T04:37:48Z</time>
      </trkpt>
      <trkpt lat="44.73721" lon="4.12116">
        <ele>1166.108</ele>
        <time>2020-11-30T04:38:08Z</time>
      </trkpt>
      <trkpt lat="44.73657" lon="4.12073">
        <ele>1158.584</ele>
        <time>2020-11-30T04:38:28Z</time>
      </trkpt>
      <trkpt lat="44.7361" lon="4.12081">
        <ele>1156.189</ele>
        <time>2020-11-30T04:38:48Z</time>
      </trkpt>
      <trkpt lat="44.73589" lon="4.12099">
        <ele>1158.07</ele>
        <time>2020-11-30T04:39:08Z</time>
      </trkpt>
      <trkpt lat="44.73561" lon="4.12145">
        <ele>1154.595</ele>
        <time>2020-11-30T04:39:28Z</time>
      </trkpt>
      <trkpt lat="44.73534" lon="4.12179">
        <ele>1150.834</ele>
        <time>2020-11-30T04:39:48Z</time>
      </trkpt>
      <trkpt lat="44.73472" lon="4.12206">
        <ele>1148.737</ele>
        <time>2020-11-30T04:40:08Z</time>
      </trkpt>
      <trkpt lat="44.73431" lon="4.12206">
        <ele>1142.734</ele>
        <time>2020-11-30T04:40:28Z</time>
      </trkpt>
      <trkpt lat="44.73445" lon="4.12227">
        <ele>1143.058</ele>
        <time>2020-11-30T04:40:48Z</time>
      </trkpt>
      <trkpt lat="44.73398" lon="4.12206">
        <ele>1137.936</ele>
        <time>2020-11-30T04:41:08Z</time>
      </trkpt>
      <trkpt lat="44.73383" lon="4.12247">
        <ele>1134.917</ele>
        <time>2020-11-30T04:41:28Z</time>
      </trkpt>
      <trkpt lat="44.73315" lon="4.12183">
        <ele>1133.618</ele>
        <time>2020-11-30T04:41:48Z</time>
      </trkpt>
      <trkpt lat="44.73303" lon="4.1219">
        <ele>1136.108</ele>
        <time>2020-11-30T04:42:08Z</time>
      </trkpt>
      <trkpt lat="44.7332" lon="4.12276">
        <ele>1140.799</ele>
        <time>2020-11-30T04:42:28Z</time>
      </trkpt>
      <trkpt lat="44.73352" lon="4.12366">
        <ele>1148.124</ele>
        <time>2020-11-30T04:42:48Z</time>
      </trkpt>
      <trkpt lat="44.73355" lon="4.124">
        <ele>1151.055</ele>
        <time>2020-11-30T04:43:08Z</time>
      </trkpt>
      <trkpt lat="44.7329" lon="4.12378">
        <ele>1154.28</ele>
        <time>2020-11-30T04:43:28Z</time>
      </trkpt>
      <trkpt lat="44.7316" lon="4.12219">
        <ele>1175.659</ele>
        <time>2020-11-30T04:43:48Z</time>
      </trkpt>
      <trkpt lat="44.73044" lon="4.12112">
        <ele>1192.272</ele>
        <time>2020-11-30T04:44:08Z</time>
      </trkpt>
      <trkpt lat="44.72929" lon="4.12042">
        <ele>1208.029</ele>
        <time>2020-11-30T04:44:28Z</time>
      </trkpt>
      <trkpt lat="44.72849" lon="4.12035">
        <ele>1213.323</ele>
        <time>2020-11-30T04:44:48Z</time>
      </trkpt>
      <trkpt lat="44.72763" lon="4.11983">
        <ele>1219.346</ele>
        <time>2020-11-30T04:45:08Z</time>
      </trkpt>
      <trkpt lat="44.7272" lon="4.11958">
        <ele>1220.988</ele>
        <time>2015-08-23T14:35:52Z</time>
      </trkpt>
      <trkpt lat="44.72666" lon="4.1194">
        <ele>1222.716</ele>
        <time>2015-08-23T14:36:12Z</time>
      </trkpt>
      <trkpt lat="44.72627" lon="4.11918">
        <ele>1227.808</ele>
        <time>2015-08-23T14:36:32Z</time>
      </trkpt>
      <trkpt lat="44.72587" lon="4.11904">
        <ele>1231.21</ele>
        <time>2015-08-23T14:36:52Z</time>
      </trkpt>
      <trkpt lat="44.72565" lon="4.11889">
        <ele>1233.715</ele>
        <time>2020-01-18T19:22:28Z</time>
      </trkpt>
      <trkpt lat="44.72557" lon="4.11837">
        <ele>1236.946</ele>
        <time>2015-08-23T14:37:12Z</time>
      </trkpt>
      <trkpt lat="44.72549" lon="4.11797">
        <ele>1238.421</ele>
        <time>2015-08-23T14:37:32Z</time>
      </trkpt>
      <trkpt lat="44.72537" lon="4.11758">
        <ele>1244.07</ele>
        <time>2015-08-23T14:37:52Z</time>
      </trkpt>
      <trkpt lat="44.72505" lon="4.11689">
        <ele>1252.383</ele>
        <time>2015-08-23T14:38:12Z</time>
      </trkpt>
      <trkpt lat="44.72481" lon="4.116">
        <ele>1249.54</ele>
        <time>2015-08-23T14:38:32Z</time>
      </trkpt>
      <trkpt lat="44.72452" lon="4.11526">
        <ele>1253.554</ele>
        <time>2015-08-23T14:38:52Z</time>
      </trkpt>
      <trkpt lat="44.72407" lon="4.11423">
        <ele>1247.292</ele>
        <time>2015-08-23T14:39:12Z</time>
      </trkpt>
      <trkpt lat="44.72354" lon="4.11409">
        <ele>1247.773</ele>
        <time>2015-08-23T14:39:32Z</time>
      </trkpt>
      <trkpt lat="44.72198" lon="4.11394">
        <ele>1242.42</ele>
        <time>2015-08-23T14:39:52Z</time>
      </trkpt>
      <trkpt lat="44.72145" lon="4.1137">
        <ele>1238.808</ele>
        <time>2015-08-23T14:40:12Z</time>
      </trkpt>
      <trkpt lat="44.72107" lon="4.11405">
        <ele>1237.365</ele>
        <time>2015-08-23T14:40:32Z</time>
      </trkpt>
      <trkpt lat="44.7196" lon="4.11464">
        <ele>1226.05</ele>
        <time>2015-08-23T14:40:52Z</time>
      </trkpt>
      <trkpt lat="44.71927" lon="4.11461">
        <ele>1219.381</ele>
        <time>2015-08-23T14:41:12Z</time>
      </trkpt>
      <trkpt lat="44.71914" lon="4.11465">
        <ele>1216.426</ele>
        <time>2015-08-23T14:41:32Z</time>
      </trkpt>
      <trkpt lat="44.71899" lon="4.11479">
        <ele>1213.485</ele>
        <time>2015-08-23T14:41:52Z</time>
      </trkpt>
      <trkpt lat="44.71887" lon="4.11509">
        <ele>1213.548</ele>
        <time>2015-08-23T14:42:12Z</time>
      </trkpt>
      <trkpt lat="44.71866" lon="4.11513">
        <ele>1212.315</ele>
        <time>2015-08-23T14:42:32Z</time>
      </trkpt>
      <trkpt lat="44.71852" lon="4.11507">
        <ele>1212.769</ele>
        <time>2015-08-23T14:42:52Z</time>
      </trkpt>
      <trkpt lat="44.71829" lon="4.11438">
        <ele>1214.471</ele>
        <time>2015-08-23T14:43:12Z</time>
      </trkpt>
      <trkpt lat="44.71766" lon="4.114">
        <ele>1229.041</ele>
        <time>2015-08-23T14:43:32Z</time>
      </trkpt>
      <trkpt lat="44.71746" lon="4.11376">
        <ele>1232.315</ele>
        <time>2015-08-23T14:43:52Z</time>
      </trkpt>
      <trkpt lat="44.71668" lon="4.11212">
        <ele>1251.808</ele>
        <time>2015-08-23T14:44:12Z</time>
      </trkpt>
      <trkpt lat="44.7166" lon="4.11166">
        <ele>1254.883</ele>
        <time>2015-08-23T14:44:32Z</time>
      </trkpt>
      <trkpt lat="44.71609" lon="4.11077">
        <ele>1260.068</ele>
        <time>2015-08-23T14:44:52Z</time>
      </trkpt>
      <trkpt lat="44.71589" lon="4.1106">
        <ele>1264.729</ele>
        <time>2015-08-23T14:45:12Z</time>
      </trkpt>
      <trkpt lat="44.7157" lon="4.11051">
        <ele>1265.884</ele>
        <time>2015-08-23T14:45:32Z</time>
      </trkpt>
      <trkpt lat="44.71557" lon="4.11019">
        <ele>1267.343</ele>
        <time>2015-08-23T14:45:52Z</time>
      </trkpt>
      <trkpt lat="44.71557" lon="4.11003">
        <ele>1267.986</ele>
        <time>2015-08-23T14:46:12Z</time>
      </trkpt>
      <trkpt lat="44.7152" lon="4.10973">
        <ele>1271.633</ele>
        <time>2015-08-23T14:46:32Z</time>
      </trkpt>
      <trkpt lat="44.7152" lon="4.10962">
        <ele>1272.597</ele>
        <time>2015-08-23T14:46:52Z</time>
      </trkpt>
      <trkpt lat="44.71544" lon="4.10941">
        <ele>1273.734</ele>
        <time>2015-08-23T14:47:12Z</time>
      </trkpt>
      <trkpt lat="44.71579" lon="4.1092">
        <ele>1273.855</ele>
        <time>2015-08-23T14:47:32Z</time>
      </trkpt>
      <trkpt lat="44.71555" lon="4.10893">
        <ele>1276.71</ele>
        <time>2015-08-23T14:47:52Z</time>
      </trkpt>
      <trkpt lat="44.71533" lon="4.10782">
        <ele>1285.008</ele>
        <time>2015-08-23T14:48:12Z</time>
      </trkpt>
      <trkpt lat="44.71526" lon="4.10708">
        <ele>1290.599</ele>
        <time>2015-08-23T14:48:32Z</time>
      </trkpt>
      <trkpt lat="44.71517" lon="4.10634">
        <ele>1299.494</ele>
        <time>2015-08-23T14:48:52Z</time>
      </trkpt>
      <trkpt lat="44.71499" lon="4.10528">
        <ele>1303.945</ele>
        <time>2015-08-23T14:49:12Z</time>
      </trkpt>
      <trkpt lat="44.71473" lon="4.10469">
        <ele>1303.39</ele>
        <time>2015-08-23T14:49:32Z</time>
      </trkpt>
      <trkpt lat="44.71451" lon="4.10406">
        <ele>1302.929</ele>
        <time>2015-08-23T14:49:52Z</time>
      </trkpt>
      <trkpt lat="44.71394" lon="4.10263">
        <ele>1297.112</ele>
        <time>2015-08-23T14:50:12Z</time>
      </trkpt>
      <trkpt lat="44.7138" lon="4.1027">
        <ele>1296.819</ele>
        <time>2015-08-23T14:50:32Z</time>
      </trkpt>
      <trkpt lat="44.71313" lon="4.10177">
        <ele>1294.583</ele>
        <time>2015-08-23T14:50:52Z</time>
      </trkpt>
      <trkpt lat="44.71271" lon="4.10137">
        <ele>1302.437</ele>
        <time>2015-08-23T14:51:12Z</time>
      </trkpt>
      <trkpt lat="44.71236" lon="4.10119">
        <ele>1304.549</ele>
        <time>2015-08-23T14:51:32Z</time>
      </trkpt>
      <trkpt lat="44.7122" lon="4.10102">
        <ele>1306.813</ele>
        <time>2015-08-23T14:51:52Z</time>
      </trkpt>
      <trkpt lat="44.7125" lon="4.10076">
        <ele>1305.608</ele>
        <time>2020-11-30T05:02:08Z</time>
      </trkpt>
      <trkpt lat="44.71266" lon="4.09997">
        <ele>1311.029</ele>
        <time>2020-11-30T05:02:28Z</time>
      </trkpt>
      <trkpt lat="44.71275" lon="4.09932">
        <ele>1313.724</ele>
        <time>2020-11-30T05:02:48Z</time>
      </trkpt>
      <trkpt lat="44.71297" lon="4.09878">
        <ele>1314.795</ele>
        <time>2020-11-30T05:03:08Z</time>
      </trkpt>
      <trkpt lat="44.71303" lon="4.09814">
        <ele>1325.08</ele>
        <time>2020-11-30T05:03:28Z</time>
      </trkpt>
      <trkpt lat="44.71272" lon="4.0967">
        <ele>1329.099</ele>
        <time>2020-11-30T05:03:48Z</time>
      </trkpt>
      <trkpt lat="44.71243" lon="4.09599">
        <ele>1332.572</ele>
        <time>2020-11-30T05:04:08Z</time>
      </trkpt>
      <trkpt lat="44.71176" lon="4.09613">
        <ele>1335.029</ele>
        <time>2020-11-30T05:04:28Z</time>
      </trkpt>
      <trkpt lat="44.71146" lon="4.09574">
        <ele>1338.573</ele>
        <time>2020-11-30T05:04:48Z</time>
      </trkpt>
      <trkpt lat="44.71129" lon="4.09489">
        <ele>1336.748</ele>
        <time>2020-11-30T05:05:08Z</time>
      </trkpt>
      <trkpt lat="44.71128" lon="4.0932">
        <ele>1328.861</ele>
        <time>2020-11-30T05:05:28Z</time>
      </trkpt>
      <trkpt lat="44.71142" lon="4.09194">
        <ele>1327.917</ele>
        <time>2020-11-30T05:05:48Z</time>
      </trkpt>
      <trkpt lat="44.71079" lon="4.09085">
        <ele>1324.808</ele>
        <time>2020-11-30T05:06:08Z</time>
      </trkpt>
      <trkpt lat="44.70987" lon="4.08904">
        <ele>1324.33</ele>
        <time>2020-11-30T05:06:28Z</time>
      </trkpt>
      <trkpt lat="44.70969" lon="4.0884">
        <ele>1323.845</ele>
        <time>2020-11-30T05:06:48Z</time>
      </trkpt>
      <trkpt lat="44.70947" lon="4.08707">
        <ele>1319.636</ele>
        <time>2020-11-30T05:07:08Z</time>
      </trkpt>
      <trkpt lat="44.70909" lon="4.08618">
        <ele>1314.631</ele>
        <time>2020-11-30T05:07:28Z</time>
      </trkpt>
      <trkpt lat="44.70816" lon="4.08507">
        <ele>1297.47</ele>
        <time>2020-11-30T05:07:48Z</time>
      </trkpt>
      <trkpt lat="44.70762" lon="4.08407">
        <ele>1290.393</ele>
        <time>2015-08-23T14:59:52Z</time>
      </trkpt>
      <trkpt lat="44.7074" lon="4.08354">
        <ele>1288.27</ele>
        <time>2015-08-23T15:00:12Z</time>
      </trkpt>
      <trkpt lat="44.70686" lon="4.08272">
        <ele>1289.754</ele>
        <time>2015-08-23T15:00:32Z</time>
      </trkpt>
      <trkpt lat="44.70666" lon="4.08218">
        <ele>1291.583</ele>
        <time>2015-08-23T15:00:52Z</time>
      </trkpt>
      <trkpt lat="44.70667" lon="4.08168">
        <ele>1294.925</ele>
        <time>2015-08-23T15:01:12Z</time>
      </trkpt>
      <trkpt lat="44.70646" lon="4.08071">
        <ele>1297.117</ele>
        <time>2015-08-23T15:01:32Z</time>
      </trkpt>
      <trkpt lat="44.7058" lon="4.07999">
        <ele>1306.408</ele>
        <time>2015-08-23T15:01:52Z</time>
      </trkpt>
      <trkpt lat="44.70518" lon="4.07963">
        <ele>1317.084</ele>
        <time>2015-08-23T15:02:12Z</time>
      </trkpt>
      <trkpt lat="44.70469" lon="4.07948">
        <ele>1321.139</ele>
        <time>2015-08-23T15:02:32Z</time>
      </trkpt>
      <trkpt lat="44.70401" lon="4.07848">
        <ele>1330.67</ele>
        <time>2015-08-23T15:02:52Z</time>
      </trkpt>
      <trkpt lat="44.70364" lon="4.07801">
        <ele>1335.825</ele>
        <time>2015-08-23T15:03:12Z</time>
      </trkpt>
      <trkpt lat="44.7033" lon="4.07742">
        <ele>1339.494</ele>
        <time>2015-08-23T15:03:32Z</time>
      </trkpt>
      <trkpt lat="44.70317" lon="4.07699">
        <ele>1341.557</ele>
        <time>2015-08-23T15:03:52Z</time>
      </trkpt>
      <trkpt lat="44.70257" lon="4.07561">
        <ele>1333.634</ele>
        <time>2015-08-23T15:04:12Z</time>
      </trkpt>
      <trkpt lat="44.70209" lon="4.07467">
        <ele>1333.528</ele>
        <time>2015-08-23T15:04:32Z</time>
      </trkpt>
      <trkpt lat="44.70108" lon="4.0727">
        <ele>1328.646</ele>
        <time>2015-08-23T15:04:52Z</time>
      </trkpt>
      <trkpt lat="44.70076" lon="4.07207">
        <ele>1327.688</ele>
        <time>2015-08-23T15:05:12Z</time>
      </trkpt>
      <trkpt lat="44.70012" lon="4.07054">
        <ele>1333.416</ele>
        <time>2015-08-23T15:05:32Z</time>
      </trkpt>
      <trkpt lat="44.69913" lon="4.06877">
        <ele>1337.408</ele>
        <time>2015-08-23T15:05:52Z</time>
      </trkpt>
      <trkpt lat="44.69884" lon="4.06837">
        <ele>1335.12</ele>
        <time>2015-08-23T15:06:12Z</time>
      </trkpt>
      <trkpt lat="44.69861" lon="4.06783">
        <ele>1338.665</ele>
        <time>2015-08-23T15:06:32Z</time>
      </trkpt>
      <trkpt lat="44.69845" lon="4.06712">
        <ele>1343.446</ele>
        <time>2015-08-23T15:06:52Z</time>
      </trkpt>
      <trkpt lat="44.69807" lon="4.06598">
        <ele>1348.921</ele>
        <time>2015-08-23T15:07:12Z</time>
      </trkpt>
      <trkpt lat="44.69756" lon="4.06545">
        <ele>1350.39</ele>
        <time>2015-08-23T15:07:32Z</time>
      </trkpt>
      <trkpt lat="44.69711" lon="4.06464">
        <ele>1350.573</ele>
        <time>2015-08-23T15:07:52Z</time>
      </trkpt>
      <trkpt lat="44.69708" lon="4.06419">
        <ele>1349.55</ele>
        <time>2015-08-23T15:08:12Z</time>
      </trkpt>
      <trkpt lat="44.69729" lon="4.06154">
        <ele>1351.864</ele>
        <time>2015-08-23T15:08:32Z</time>
      </trkpt>
      <trkpt lat="44.69747" lon="4.06071">
        <ele>1353.267</ele>
        <time>2019-03-28T23:12:43Z</time>
      </trkpt>
      <trkpt lat="44.69779" lon="4.06066">
        <ele>1353.781</ele>
        <time>2020-01-18T19:54:48Z</time>
      </trkpt>
      <trkpt lat="44.69795" lon="4.06016">
        <ele>1355.219</ele>
        <time>2019-03-28T23:13:03Z</time>
      </trkpt>
      <trkpt lat="44.69811" lon="4.05893">
        <ele>1354.508</ele>
        <time>2019-03-28T23:13:23Z</time>
      </trkpt>
      <trkpt lat="44.69805" lon="4.05829">
        <ele>1354.012</ele>
        <time>2019-03-28T23:13:43Z</time>
      </trkpt>
      <trkpt lat="44.69816" lon="4.0573">
        <ele>1354.927</ele>
        <time>2019-03-28T23:14:03Z</time>
      </trkpt>
      <trkpt lat="44.69855" lon="4.05658">
        <ele>1352.998</ele>
        <time>2015-08-23T15:10:32Z</time>
      </trkpt>
      <trkpt lat="44.69901" lon="4.05591">
        <ele>1352.383</ele>
        <time>2015-08-23T15:10:52Z</time>
      </trkpt>
      <trkpt lat="44.69951" lon="4.05477">
        <ele>1354.922</ele>
        <time>2015-08-23T15:11:12Z</time>
      </trkpt>
      <trkpt lat="44.69972" lon="4.05401">
        <ele>1358.185</ele>
        <time>2015-08-23T15:11:32Z</time>
      </trkpt>
      <trkpt lat="44.69974" lon="4.05376">
        <ele>1360.422</ele>
        <time>2015-08-23T15:11:52Z</time>
      </trkpt>
      <trkpt lat="44.69966" lon="4.05355">
        <ele>1363.286</ele>
        <time>2015-08-23T15:12:12Z</time>
      </trkpt>
      <trkpt lat="44.69954" lon="4.05333">
        <ele>1367.434</ele>
        <time>2015-08-23T15:12:32Z</time>
      </trkpt>
      <trkpt lat="44.69921" lon="4.05296">
        <ele>1371.055</ele>
        <time>2015-08-23T15:12:52Z</time>
      </trkpt>
      <trkpt lat="44.69907" lon="4.05262">
        <ele>1374.61</ele>
        <time>2015-08-23T15:13:12Z</time>
      </trkpt>
      <trkpt lat="44.69903" lon="4.05234">
        <ele>1381.808</ele>
        <time>2015-08-23T15:13:32Z</time>
      </trkpt>
      <trkpt lat="44.69854" lon="4.05169">
        <ele>1383.529</ele>
        <time>2015-08-23T15:13:52Z</time>
      </trkpt>
      <trkpt lat="44.69805" lon="4.05058">
        <ele>1384.674</ele>
        <time>2015-08-23T15:14:12Z</time>
      </trkpt>
      <trkpt lat="44.69743" lon="4.04999">
        <ele>1383.595</ele>
        <time>2015-08-23T15:14:32Z</time>
      </trkpt>
      <trkpt lat="44.69718" lon="4.04948">
        <ele>1386.85</ele>
        <time>2015-08-23T15:14:52Z</time>
      </trkpt>
      <trkpt lat="44.69662" lon="4.04866">
        <ele>1385.419</ele>
        <time>2015-08-23T15:15:12Z</time>
      </trkpt>
      <trkpt lat="44.69655" lon="4.04817">
        <ele>1390.182</ele>
        <time>2015-08-23T15:15:32Z</time>
      </trkpt>
      <trkpt lat="44.69658" lon="4.04754">
        <ele>1395.429</ele>
        <time>2015-08-23T15:15:52Z</time>
      </trkpt>
      <trkpt lat="44.69643" lon="4.04617">
        <ele>1400.143</ele>
        <time>2015-08-23T15:16:12Z</time>
      </trkpt>
      <trkpt lat="44.69647" lon="4.04578">
        <ele>1402.092</ele>
        <time>2015-08-23T15:16:32Z</time>
      </trkpt>
      <trkpt lat="44.69644" lon="4.04541">
        <ele>1401.973</ele>
        <time>2015-08-23T15:16:52Z</time>
      </trkpt>
      <trkpt lat="44.69647" lon="4.04502">
        <ele>1401.22</ele>
        <time>2015-08-23T15:17:12Z</time>
      </trkpt>
      <trkpt lat="44.69643" lon="4.04469">
        <ele>1400.108</ele>
        <time>2015-08-23T15:17:32Z</time>
      </trkpt>
      <trkpt lat="44.69627" lon="4.04415">
        <ele>1397.485</ele>
        <time>2015-08-23T15:17:52Z</time>
      </trkpt>
      <trkpt lat="44.6962" lon="4.04385">
        <ele>1394.64</ele>
        <time>2015-08-23T15:18:12Z</time>
      </trkpt>
      <trkpt lat="44.69613" lon="4.04379">
        <ele>1393.941</ele>
        <time>2015-08-23T15:18:32Z</time>
      </trkpt>
      <trkpt lat="44.69576" lon="4.0431">
        <ele>1390.396</ele>
        <time>2015-08-23T15:18:52Z</time>
      </trkpt>
      <trkpt lat="44.69577" lon="4.04274">
        <ele>1388.375</ele>
        <time>2015-08-23T15:19:12Z</time>
      </trkpt>
      <trkpt lat="44.69592" lon="4.04219">
        <ele>1383.388</ele>
        <time>2015-08-23T15:19:32Z</time>
      </trkpt>
      <trkpt lat="44.69589" lon="4.04182">
        <ele>1382.715</ele>
        <time>2015-08-23T15:19:52Z</time>
      </trkpt>
      <trkpt lat="44.69569" lon="4.04059">
        <ele>1372.729</ele>
        <time>2015-08-23T15:20:12Z</time>
      </trkpt>
      <trkpt lat="44.69561" lon="4.04009">
        <ele>1367.767</ele>
        <time>2015-08-23T15:20:32Z</time>
      </trkpt>
      <trkpt lat="44.69558" lon="4.03916">
        <ele>1357.781</ele>
        <time>2015-08-23T15:20:52Z</time>
      </trkpt>
      <trkpt lat="44.69552" lon="4.03877">
        <ele>1356.019</ele>
        <time>2015-08-23T15:21:12Z</time>
      </trkpt>
      <trkpt lat="44.69545" lon="4.03792">
        <ele>1354.808</ele>
        <time>2015-08-23T15:21:32Z</time>
      </trkpt>
      <trkpt lat="44.6954" lon="4.03642">
        <ele>1347.482</ele>
        <time>2015-08-23T15:21:52Z</time>
      </trkpt>
      <trkpt lat="44.69536" lon="4.0349">
        <ele>1338.997</ele>
        <time>2015-08-23T15:22:12Z</time>
      </trkpt>
      <trkpt lat="44.6952" lon="4.03357">
        <ele>1326.738</ele>
        <time>2015-08-23T15:22:32Z</time>
      </trkpt>
      <trkpt lat="44.6953" lon="4.03288">
        <ele>1322.713</ele>
        <time>2015-08-23T15:22:52Z</time>
      </trkpt>
      <trkpt lat="44.69573" lon="4.03288">
        <ele>1319.362</ele>
        <time>2015-08-23T15:23:12Z</time>
      </trkpt>
      <trkpt lat="44.69626" lon="4.0333">
        <ele>1321.215</ele>
        <time>2015-08-23T15:23:32Z</time>
      </trkpt>
      <trkpt lat="44.69642" lon="4.03304">
        <ele>1317.552</ele>
        <time>2015-08-23T15:23:52Z</time>
      </trkpt>
      <trkpt lat="44.69603" lon="4.03205">
        <ele>1308.726</ele>
        <time>2015-08-23T15:24:12Z</time>
      </trkpt>
      <trkpt lat="44.69589" lon="4.03115">
        <ele>1300.641</ele>
        <time>2015-08-23T15:24:32Z</time>
      </trkpt>
      <trkpt lat="44.69601" lon="4.03039">
        <ele>1299.981</ele>
        <time>2015-08-23T15:24:52Z</time>
      </trkpt>
      <trkpt lat="44.6968" lon="4.02858">
        <ele>1295.409</ele>
        <time>2015-08-23T15:25:12Z</time>
      </trkpt>
      <trkpt lat="44.69758" lon="4.02625">
        <ele>1288.408</ele>
        <time>2015-08-23T15:25:32Z</time>
      </trkpt>
      <trkpt lat="44.6979" lon="4.02554">
        <ele>1286.46</ele>
        <time>2015-08-23T15:25:52Z</time>
      </trkpt>
      <trkpt lat="44.69802" lon="4.02446">
        <ele>1279.925</ele>
        <time>2015-08-23T15:26:12Z</time>
      </trkpt>
      <trkpt lat="44.6976" lon="4.02291">
        <ele>1268.336</ele>
        <time>2015-08-23T15:26:32Z</time>
      </trkpt>
      <trkpt lat="44.69745" lon="4.02183">
        <ele>1267.381</ele>
        <time>2015-08-23T15:26:52Z</time>
      </trkpt>
      <trkpt lat="44.69763" lon="4.02115">
        <ele>1264.79</ele>
        <time>2015-08-23T15:27:12Z</time>
      </trkpt>
      <trkpt lat="44.69756" lon="4.02093">
        <ele>1262.593</ele>
        <time>2015-08-23T15:27:32Z</time>
      </trkpt>
      <trkpt lat="44.69742" lon="4.02082">
        <ele>1260.89</ele>
        <time>2015-08-23T15:27:52Z</time>
      </trkpt>
      <trkpt lat="44.69704" lon="4.021">
        <ele>1261.794</ele>
        <time>2015-08-23T15:28:12Z</time>
      </trkpt>
      <trkpt lat="44.69632" lon="4.02059">
        <ele>1256.169</ele>
        <time>2015-08-23T15:28:32Z</time>
      </trkpt>
      <trkpt lat="44.69557" lon="4.01997">
        <ele>1257.004</ele>
        <time>2015-08-23T15:28:52Z</time>
      </trkpt>
      <trkpt lat="44.69529" lon="4.01996">
        <ele>1259.124</ele>
        <time>2015-08-23T15:29:12Z</time>
      </trkpt>
      <trkpt lat="44.69458" lon="4.01958">
        <ele>1268.608</ele>
        <time>2015-08-23T15:29:32Z</time>
      </trkpt>
      <trkpt lat="44.69429" lon="4.01964">
        <ele>1271.612</ele>
        <time>2015-08-23T15:29:52Z</time>
      </trkpt>
      <trkpt lat="44.69407" lon="4.01959">
        <ele>1273.767</ele>
        <time>2015-08-23T15:30:12Z</time>
      </trkpt>
      <trkpt lat="44.69378" lon="4.01985">
        <ele>1278.218</ele>
        <time>2015-08-23T15:30:32Z</time>
      </trkpt>
      <trkpt lat="44.69276" lon="4.01951">
        <ele>1282.023</ele>
        <time>2015-08-23T15:30:52Z</time>
      </trkpt>
      <trkpt lat="44.69246" lon="4.01951">
        <ele>1282.312</ele>
        <time>2015-08-23T15:31:12Z</time>
      </trkpt>
      <trkpt lat="44.69087" lon="4.02036">
        <ele>1286.235</ele>
        <time>2015-08-23T15:31:32Z</time>
      </trkpt>
      <trkpt lat="44.69015" lon="4.02064">
        <ele>1292.342</ele>
        <time>2015-08-23T15:31:52Z</time>
      </trkpt>
      <trkpt lat="44.69003" lon="4.02058">
        <ele>1292.886</ele>
        <time>2015-08-23T15:32:12Z</time>
      </trkpt>
      <trkpt lat="44.6893" lon="4.02082">
        <ele>1296.329</ele>
        <time>2015-08-23T15:32:32Z</time>
      </trkpt>
      <trkpt lat="44.6889" lon="4.02086">
        <ele>1303.6</ele>
        <time>2015-08-23T15:32:52Z</time>
      </trkpt>
      <trkpt lat="44.68833" lon="4.02083">
        <ele>1312.12</ele>
        <time>2015-08-23T15:33:12Z</time>
      </trkpt>
      <trkpt lat="44.68768" lon="4.02058">
        <ele>1318.708</ele>
        <time>2015-08-23T15:33:32Z</time>
      </trkpt>
      <trkpt lat="44.68721" lon="4.02022">
        <ele>1322.288</ele>
        <time>2015-08-23T15:33:52Z</time>
      </trkpt>
      <trkpt lat="44.68689" lon="4.01986">
        <ele>1323.413</ele>
        <time>2015-08-23T15:34:12Z</time>
      </trkpt>
      <trkpt lat="44.68649" lon="4.01953">
        <ele>1323.824</ele>
        <time>2015-08-23T15:34:32Z</time>
      </trkpt>
      <trkpt lat="44.68608" lon="4.01927">
        <ele>1326.749</ele>
        <time>2015-08-23T15:34:52Z</time>
      </trkpt>
      <trkpt lat="44.6859" lon="4.01923">
        <ele>1328.318</ele>
        <time>2015-08-23T15:35:12Z</time>
      </trkpt>
      <trkpt lat="44.68571" lon="4.01925">
        <ele>1329.161</ele>
        <time>2015-08-23T15:35:32Z</time>
      </trkpt>
      <trkpt lat="44.6851" lon="4.01949">
        <ele>1332.738</ele>
        <time>2015-08-23T15:35:52Z</time>
      </trkpt>
      <trkpt lat="44.68483" lon="4.01966">
        <ele>1337.932</ele>
        <time>2015-08-23T15:36:12Z</time>
      </trkpt>
      <trkpt lat="44.68464" lon="4.01998">
        <ele>1344.491</ele>
        <time>2015-08-23T15:36:32Z</time>
      </trkpt>
      <trkpt lat="44.68344" lon="4.02108">
        <ele>1357.881</ele>
        <time>2015-08-23T15:36:52Z</time>
      </trkpt>
      <trkpt lat="44.68288" lon="4.02145">
        <ele>1359.819</ele>
        <time>2015-08-23T15:37:12Z</time>
      </trkpt>
      <trkpt lat="44.68247" lon="4.02164">
        <ele>1360.008</ele>
        <time>2015-08-23T15:37:32Z</time>
      </trkpt>
      <trkpt lat="44.68185" lon="4.02184">
        <ele>1363.475</ele>
        <time>2015-08-23T15:37:52Z</time>
      </trkpt>
      <trkpt lat="44.68136" lon="4.02197">
        <ele>1371.13</ele>
        <time>2015-08-23T15:38:12Z</time>
      </trkpt>
      <trkpt lat="44.68072" lon="4.02226">
        <ele>1375.721</ele>
        <time>2015-08-23T15:38:32Z</time>
      </trkpt>
      <trkpt lat="44.67978" lon="4.02318">
        <ele>1379.546</ele>
        <time>2015-08-23T15:38:52Z</time>
      </trkpt>
      <trkpt lat="44.67957" lon="4.02334">
        <ele>1379.025</ele>
        <time>2015-08-23T15:39:12Z</time>
      </trkpt>
      <trkpt lat="44.67849" lon="4.02452">
        <ele>1382.138</ele>
        <time>2015-08-23T15:39:32Z</time>
      </trkpt>
      <trkpt lat="44.67807" lon="4.02489">
        <ele>1380.165</ele>
        <time>2015-08-23T15:39:52Z</time>
      </trkpt>
      <trkpt lat="44.67686" lon="4.02577">
        <ele>1392.389</ele>
        <time>2015-08-23T15:40:12Z</time>
      </trkpt>
      <trkpt lat="44.67661" lon="4.02607">
        <ele>1396.859</ele>
        <time>2015-08-23T15:40:32Z</time>
      </trkpt>
      <trkpt lat="44.67623" lon="4.0263">
        <ele>1401.303</ele>
        <time>2015-08-23T15:40:52Z</time>
      </trkpt>
      <trkpt lat="44.67523" lon="4.0262">
        <ele>1409.223</ele>
        <time>2015-08-23T15:41:12Z</time>
      </trkpt>
      <trkpt lat="44.67447" lon="4.0257">
        <ele>1415.208</ele>
        <time>2015-08-23T15:41:32Z</time>
      </trkpt>
      <trkpt lat="44.67355" lon="4.02557">
        <ele>1421.881</ele>
        <time>2015-08-23T15:41:52Z</time>
      </trkpt>
      <trkpt lat="44.67316" lon="4.02534">
        <ele>1419.966</ele>
        <time>2015-08-23T15:42:12Z</time>
      </trkpt>
      <trkpt lat="44.67269" lon="4.02472">
        <ele>1416.747</ele>
        <time>2015-08-23T15:42:32Z</time>
      </trkpt>
      <trkpt lat="44.67214" lon="4.02429">
        <ele>1414.722</ele>
        <time>2015-08-23T15:42:52Z</time>
      </trkpt>
      <trkpt lat="44.67188" lon="4.02416">
        <ele>1413.561</ele>
        <time>2015-08-23T15:43:12Z</time>
      </trkpt>
      <trkpt lat="44.67068" lon="4.02342">
        <ele>1413.214</ele>
        <time>2015-08-23T15:43:32Z</time>
      </trkpt>
      <trkpt lat="44.66992" lon="4.02392">
        <ele>1413.251</ele>
        <time>2015-08-23T15:43:52Z</time>
      </trkpt>
      <trkpt lat="44.66819" lon="4.02477">
        <ele>1421.675</ele>
        <time>2015-08-23T15:44:12Z</time>
      </trkpt>
      <trkpt lat="44.66746" lon="4.02476">
        <ele>1429.515</ele>
        <time>2015-08-23T15:44:32Z</time>
      </trkpt>
      <trkpt lat="44.66711" lon="4.02472">
        <ele>1429.165</ele>
        <time>2015-08-23T15:44:52Z</time>
      </trkpt>
      <trkpt lat="44.66631" lon="4.02451">
        <ele>1434.011</ele>
        <time>2015-08-23T15:45:12Z</time>
      </trkpt>
      <trkpt lat="44.66555" lon="4.02399">
        <ele>1434.908</ele>
        <time>2015-08-23T15:45:32Z</time>
      </trkpt>
      <trkpt lat="44.66527" lon="4.02374">
        <ele>1434.057</ele>
        <time>2015-08-23T15:45:52Z</time>
      </trkpt>
      <trkpt lat="44.66481" lon="4.02366">
        <ele>1431.022</ele>
        <time>2015-08-23T15:46:12Z</time>
      </trkpt>
      <trkpt lat="44.66464" lon="4.0238">
        <ele>1429.953</ele>
        <time>2015-08-23T15:46:32Z</time>
      </trkpt>
      <trkpt lat="44.66405" lon="4.02499">
        <ele>1422.028</ele>
        <time>2015-08-23T15:46:52Z</time>
      </trkpt>
      <trkpt lat="44.66379" lon="4.02525">
        <ele>1420.067</ele>
        <time>2015-08-23T15:47:12Z</time>
      </trkpt>
      <trkpt lat="44.66355" lon="4.02559">
        <ele>1415.27</ele>
        <time>2015-08-23T15:47:32Z</time>
      </trkpt>
      <trkpt lat="44.66312" lon="4.02588">
        <ele>1414.157</ele>
        <time>2015-08-23T15:47:52Z</time>
      </trkpt>
      <trkpt lat="44.66276" lon="4.02602">
        <ele>1411.731</ele>
        <time>2015-08-23T15:48:12Z</time>
      </trkpt>
      <trkpt lat="44.66235" lon="4.02606">
        <ele>1408.784</ele>
        <time>2015-08-23T15:48:32Z</time>
      </trkpt>
      <trkpt lat="44.66182" lon="4.02587">
        <ele>1403.307</ele>
        <time>2015-08-23T15:48:52Z</time>
      </trkpt>
      <trkpt lat="44.66165" lon="4.02569">
        <ele>1401.317</ele>
        <time>2015-08-23T15:49:12Z</time>
      </trkpt>
      <trkpt lat="44.66124" lon="4.02549">
        <ele>1395.508</ele>
        <time>2015-08-23T15:49:32Z</time>
      </trkpt>
      <trkpt lat="44.66098" lon="4.02521">
        <ele>1390.874</ele>
        <time>2015-08-23T15:49:52Z</time>
      </trkpt>
      <trkpt lat="44.66072" lon="4.02479">
        <ele>1383.459</ele>
        <time>2015-08-23T15:50:12Z</time>
      </trkpt>
      <trkpt lat="44.66048" lon="4.02518">
        <ele>1379.56</ele>
        <time>2015-08-23T15:50:32Z</time>
      </trkpt>
      <trkpt lat="44.65991" lon="4.02581">
        <ele>1374.495</ele>
        <time>2015-08-23T15:50:52Z</time>
      </trkpt>
      <trkpt lat="44.65962" lon="4.02601">
        <ele>1371.644</ele>
        <time>2015-08-23T15:51:12Z</time>
      </trkpt>
      <trkpt lat="44.65917" lon="4.02652">
        <ele>1375.067</ele>
        <time>2015-08-23T15:51:32Z</time>
      </trkpt>
      <trkpt lat="44.65856" lon="4.02766">
        <ele>1387.564</ele>
        <time>2015-08-23T15:51:52Z</time>
      </trkpt>
      <trkpt lat="44.65819" lon="4.02809">
        <ele>1393.098</ele>
        <time>2015-08-23T15:52:12Z</time>
      </trkpt>
      <trkpt lat="44.65774" lon="4.02832">
        <ele>1395.025</ele>
        <time>2015-08-23T15:52:32Z</time>
      </trkpt>
      <trkpt lat="44.65733" lon="4.02855">
        <ele>1394.826</ele>
        <time>2015-08-23T15:52:52Z</time>
      </trkpt>
      <trkpt lat="44.65691" lon="4.02869">
        <ele>1391.308</ele>
        <time>2015-08-23T15:53:12Z</time>
      </trkpt>
      <trkpt lat="44.65615" lon="4.02884">
        <ele>1389.808</ele>
        <time>2015-08-23T15:53:32Z</time>
      </trkpt>
      <trkpt lat="44.65564" lon="4.0291">
        <ele>1391.078</ele>
        <time>2015-08-23T15:53:52Z</time>
      </trkpt>
      <trkpt lat="44.6553" lon="4.02921">
        <ele>1390.733</ele>
        <time>2015-08-23T15:54:12Z</time>
      </trkpt>
      <trkpt lat="44.65468" lon="4.02921">
        <ele>1390.364</ele>
        <time>2015-08-23T15:54:32Z</time>
      </trkpt>
      <trkpt lat="44.65418" lon="4.02942">
        <ele>1397.819</ele>
        <time>2015-08-23T15:54:52Z</time>
      </trkpt>
      <trkpt lat="44.65373" lon="4.0297">
        <ele>1401.548</ele>
        <time>2015-08-23T15:55:12Z</time>
      </trkpt>
      <trkpt lat="44.65304" lon="4.02996">
        <ele>1405.331</ele>
        <time>2015-08-23T15:55:32Z</time>
      </trkpt>
      <trkpt lat="44.65224" lon="4.03034">
        <ele>1402.998</ele>
        <time>2015-08-23T15:55:52Z</time>
      </trkpt>
      <trkpt lat="44.65195" lon="4.03055">
        <ele>1400.162</ele>
        <time>2015-08-23T15:56:12Z</time>
      </trkpt>
      <trkpt lat="44.6518" lon="4.03086">
        <ele>1400.262</ele>
        <time>2015-08-23T15:56:32Z</time>
      </trkpt>
      <trkpt lat="44.65179" lon="4.03114">
        <ele>1401.883</ele>
        <time>2015-08-23T15:56:52Z</time>
      </trkpt>
      <trkpt lat="44.65167" lon="4.03178">
        <ele>1402.411</ele>
        <time>2015-08-23T15:57:12Z</time>
      </trkpt>
      <trkpt lat="44.65171" lon="4.03223">
        <ele>1402.308</ele>
        <time>2015-08-23T15:57:32Z</time>
      </trkpt>
      <trkpt lat="44.65168" lon="4.03267">
        <ele>1409.382</ele>
        <time>2015-08-23T15:57:52Z</time>
      </trkpt>
      <trkpt lat="44.65177" lon="4.03345">
        <ele>1412.847</ele>
        <time>2015-08-23T15:58:12Z</time>
      </trkpt>
      <trkpt lat="44.65179" lon="4.03402">
        <ele>1411.378</ele>
        <time>2015-08-23T15:58:32Z</time>
      </trkpt>
      <trkpt lat="44.65159" lon="4.03585">
        <ele>1414.573</ele>
        <time>2015-08-23T15:58:52Z</time>
      </trkpt>
      <trkpt lat="44.65165" lon="4.0369">
        <ele>1415.942</ele>
        <time>2015-08-23T15:59:12Z</time>
      </trkpt>
      <trkpt lat="44.65157" lon="4.03845">
        <ele>1420.865</ele>
        <time>2015-08-23T15:59:32Z</time>
      </trkpt>
      <trkpt lat="44.6511" lon="4.04035">
        <ele>1426.592</ele>
        <time>2015-08-23T15:59:52Z</time>
      </trkpt>
      <trkpt lat="44.64965" lon="4.04392">
        <ele>1429.776</ele>
        <time>2015-08-23T16:00:12Z</time>
      </trkpt>
      <trkpt lat="44.64856" lon="4.04475">
        <ele>1413.638</ele>
        <time>2015-08-23T16:00:32Z</time>
      </trkpt>
      <trkpt lat="44.64776" lon="4.04545">
        <ele>1405.57</ele>
        <time>2015-08-23T16:00:52Z</time>
      </trkpt>
      <trkpt lat="44.64762" lon="4.04534">
        <ele>1399.417</ele>
        <time>2015-08-23T16:01:12Z</time>
      </trkpt>
      <trkpt lat="44.64701" lon="4.04577">
        <ele>1393.008</ele>
        <time>2015-08-23T16:01:32Z</time>
      </trkpt>
      <trkpt lat="44.64643" lon="4.0453">
        <ele>1372.989</ele>
        <time>2015-08-23T16:01:52Z</time>
      </trkpt>
      <trkpt lat="44.64616" lon="4.04475">
        <ele>1361.074</ele>
        <time>2015-08-23T16:02:12Z</time>
      </trkpt>
      <trkpt lat="44.646" lon="4.04462">
        <ele>1357.175</ele>
        <time>2015-08-23T16:02:32Z</time>
      </trkpt>
      <trkpt lat="44.64584" lon="4.04425">
        <ele>1349.55</ele>
        <time>2015-08-23T16:02:52Z</time>
      </trkpt>
      <trkpt lat="44.64582" lon="4.044">
        <ele>1345.299</ele>
        <time>2015-08-23T16:03:12Z</time>
      </trkpt>
      <trkpt lat="44.64595" lon="4.04372">
        <ele>1342.932</ele>
        <time>2015-08-23T16:03:32Z</time>
      </trkpt>
      <trkpt lat="44.64588" lon="4.04358">
        <ele>1339.439</ele>
        <time>2015-08-23T16:03:52Z</time>
      </trkpt>
      <trkpt lat="44.64591" lon="4.04337">
        <ele>1337.933</ele>
        <time>2015-08-23T16:04:12Z</time>
      </trkpt>
      <trkpt lat="44.64582" lon="4.04315">
        <ele>1335.462</ele>
        <time>2015-08-23T16:04:32Z</time>
      </trkpt>
      <trkpt lat="44.64574" lon="4.04252">
        <ele>1330.483</ele>
        <time>2015-08-23T16:04:52Z</time>
      </trkpt>
      <trkpt lat="44.64539" lon="4.04152">
        <ele>1319.211</ele>
        <time>2015-08-23T16:05:12Z</time>
      </trkpt>
      <trkpt lat="44.64516" lon="4.04124">
        <ele>1313.208</ele>
        <time>2015-08-23T16:05:32Z</time>
      </trkpt>
      <trkpt lat="44.64489" lon="4.04166">
        <ele>1307.682</ele>
        <time>2015-08-23T16:05:52Z</time>
      </trkpt>
      <trkpt lat="44.64438" lon="4.043">
        <ele>1293.647</ele>
        <time>2015-08-23T16:06:12Z</time>
      </trkpt>
      <trkpt lat="44.64413" lon="4.04386">
        <ele>1296.728</ele>
        <time>2015-08-23T16:06:32Z</time>
      </trkpt>
      <trkpt lat="44.64409" lon="4.04413">
        <ele>1298.443</ele>
        <time>2015-08-23T16:06:52Z</time>
      </trkpt>
      <trkpt lat="44.64398" lon="4.0444">
        <ele>1298.622</ele>
        <time>2015-08-23T16:07:12Z</time>
      </trkpt>
      <trkpt lat="44.64397" lon="4.04467">
        <ele>1299.585</ele>
        <time>2015-08-23T16:07:32Z</time>
      </trkpt>
      <trkpt lat="44.64385" lon="4.04487">
        <ele>1296.292</ele>
        <time>2015-08-23T16:07:52Z</time>
      </trkpt>
      <trkpt lat="44.64375" lon="4.04566">
        <ele>1295.236</ele>
        <time>2015-08-23T16:08:12Z</time>
      </trkpt>
      <trkpt lat="44.6436" lon="4.04576">
        <ele>1292.932</ele>
        <time>2015-08-23T16:08:32Z</time>
      </trkpt>
      <trkpt lat="44.64352" lon="4.04592">
        <ele>1293.492</ele>
        <time>2015-08-23T16:08:52Z</time>
      </trkpt>
      <trkpt lat="44.64334" lon="4.04613">
        <ele>1293.411</ele>
        <time>2015-08-23T16:09:12Z</time>
      </trkpt>
      <trkpt lat="44.64307" lon="4.04626">
        <ele>1289.508</ele>
        <time>2015-08-23T16:09:32Z</time>
      </trkpt>
      <trkpt lat="44.6424" lon="4.04665">
        <ele>1289.239</ele>
        <time>2015-08-23T16:09:52Z</time>
      </trkpt>
      <trkpt lat="44.64225" lon="4.04683">
        <ele>1289.774</ele>
        <time>2015-08-23T16:10:12Z</time>
      </trkpt>
      <trkpt lat="44.64206" lon="4.04736">
        <ele>1288.895</ele>
        <time>2015-08-23T16:10:32Z</time>
      </trkpt>
      <trkpt lat="44.64191" lon="4.04755">
        <ele>1286.21</ele>
        <time>2015-08-23T16:10:52Z</time>
      </trkpt>
      <trkpt lat="44.64176" lon="4.04779">
        <ele>1283.379</ele>
        <time>2015-08-23T16:11:12Z</time>
      </trkpt>
      <trkpt lat="44.64142" lon="4.04816">
        <ele>1273.882</ele>
        <time>2015-08-23T16:11:32Z</time>
      </trkpt>
      <trkpt lat="44.64133" lon="4.04854">
        <ele>1273.229</ele>
        <time>2015-08-23T16:11:52Z</time>
      </trkpt>
      <trkpt lat="44.64117" lon="4.04874">
        <ele>1271.763</ele>
        <time>2015-08-23T16:12:12Z</time>
      </trkpt>
      <trkpt lat="44.64106" lon="4.04925">
        <ele>1272.822</ele>
        <time>2015-08-23T16:12:32Z</time>
      </trkpt>
      <trkpt lat="44.6409" lon="4.04948">
        <ele>1269.362</ele>
        <time>2015-08-23T16:12:52Z</time>
      </trkpt>
      <trkpt lat="44.64071" lon="4.0501">
        <ele>1271.608</ele>
        <time>2015-08-23T16:13:12Z</time>
      </trkpt>
      <trkpt lat="44.64049" lon="4.05028">
        <ele>1267.708</ele>
        <time>2015-08-23T16:13:32Z</time>
      </trkpt>
      <trkpt lat="44.64028" lon="4.05057">
        <ele>1266.188</ele>
        <time>2015-08-23T16:13:52Z</time>
      </trkpt>
      <trkpt lat="44.63994" lon="4.05075">
        <ele>1256.463</ele>
        <time>2015-08-23T16:14:12Z</time>
      </trkpt>
      <trkpt lat="44.63968" lon="4.05098">
        <ele>1248.954</ele>
        <time>2015-08-23T16:14:32Z</time>
      </trkpt>
      <trkpt lat="44.63877" lon="4.05073">
        <ele>1232.849</ele>
        <time>2015-08-23T16:14:52Z</time>
      </trkpt>
      <trkpt lat="44.6385" lon="4.05078">
        <ele>1230.168</ele>
        <time>2015-08-23T16:15:12Z</time>
      </trkpt>
      <trkpt lat="44.6384" lon="4.05054">
        <ele>1229.241</ele>
        <time>2015-08-23T16:15:32Z</time>
      </trkpt>
      <trkpt lat="44.63768" lon="4.05054">
        <ele>1232.888</ele>
        <time>2015-08-23T16:15:52Z</time>
      </trkpt>
      <trkpt lat="44.63736" lon="4.05075">
        <ele>1232.872</ele>
        <time>2015-08-23T16:16:12Z</time>
      </trkpt>
      <trkpt lat="44.63648" lon="4.05103">
        <ele>1237.516</ele>
        <time>2015-08-23T16:16:32Z</time>
      </trkpt>
      <trkpt lat="44.63594" lon="4.05061">
        <ele>1242.376</ele>
        <time>2015-08-23T16:16:52Z</time>
      </trkpt>
      <trkpt lat="44.63565" lon="4.0502">
        <ele>1245.113</ele>
        <time>2015-08-23T16:17:12Z</time>
      </trkpt>
      <trkpt lat="44.63535" lon="4.04972">
        <ele>1248.008</ele>
        <time>2015-08-23T16:17:32Z</time>
      </trkpt>
      <trkpt lat="44.63532" lon="4.04782">
        <ele>1268.727</ele>
        <time>2020-11-30T06:26:28Z</time>
      </trkpt>
      <trkpt lat="44.63335" lon="4.04497">
        <ele>1315.862</ele>
        <time>2015-08-23T16:19:12Z</time>
      </trkpt>
      <trkpt lat="44.63308" lon="4.04476">
        <ele>1309.683</ele>
        <time>2015-08-23T16:19:32Z</time>
      </trkpt>
      <trkpt lat="44.63298" lon="4.04463">
        <ele>1307.138</ele>
        <time>2015-08-23T16:19:52Z</time>
      </trkpt>
      <trkpt lat="44.63261" lon="4.04444">
        <ele>1301.167</ele>
        <time>2015-08-23T16:20:12Z</time>
      </trkpt>
      <trkpt lat="44.63218" lon="4.04396">
        <ele>1296.45</ele>
        <time>2015-08-23T16:20:32Z</time>
      </trkpt>
      <trkpt lat="44.63187" lon="4.04352">
        <ele>1297.437</ele>
        <time>2015-08-23T16:20:52Z</time>
      </trkpt>
      <trkpt lat="44.63171" lon="4.04311">
        <ele>1302.631</ele>
        <time>2015-08-23T16:21:12Z</time>
      </trkpt>
      <trkpt lat="44.6317" lon="4.04286">
        <ele>1307.394</ele>
        <time>2015-08-23T16:21:32Z</time>
      </trkpt>
      <trkpt lat="44.63164" lon="4.04251">
        <ele>1312.657</ele>
        <time>2015-08-23T16:21:52Z</time>
      </trkpt>
      <trkpt lat="44.63151" lon="4.04225">
        <ele>1315.122</ele>
        <time>2015-08-23T16:22:12Z</time>
      </trkpt>
      <trkpt lat="44.63146" lon="4.04185">
        <ele>1317.908</ele>
        <time>2015-08-23T16:22:32Z</time>
      </trkpt>
      <trkpt lat="44.63135" lon="4.04135">
        <ele>1319.985</ele>
        <time>2015-08-23T16:22:52Z</time>
      </trkpt>
      <trkpt lat="44.63114" lon="4.04063">
        <ele>1323.47</ele>
        <time>2015-08-23T16:23:12Z</time>
      </trkpt>
      <trkpt lat="44.63115" lon="4.04011">
        <ele>1327.391</ele>
        <time>2015-08-23T16:23:32Z</time>
      </trkpt>
      <trkpt lat="44.63122" lon="4.03945">
        <ele>1330.296</ele>
        <time>2015-08-23T16:23:52Z</time>
      </trkpt>
      <trkpt lat="44.63101" lon="4.03874">
        <ele>1332.455</ele>
        <time>2015-08-23T16:24:12Z</time>
      </trkpt>
      <trkpt lat="44.6305" lon="4.03809">
        <ele>1329.768</ele>
        <time>2015-08-23T16:24:32Z</time>
      </trkpt>
      <trkpt lat="44.63021" lon="4.03799">
        <ele>1327.035</ele>
        <time>2015-08-23T16:24:52Z</time>
      </trkpt>
      <trkpt lat="44.63" lon="4.03771">
        <ele>1328.069</ele>
        <time>2015-08-23T16:25:12Z</time>
      </trkpt>
      <trkpt lat="44.62977" lon="4.03748">
        <ele>1326.499</ele>
        <time>2015-08-23T16:25:32Z</time>
      </trkpt>
      <trkpt lat="44.62967" lon="4.03722">
        <ele>1326.007</ele>
        <time>2015-08-23T16:25:52Z</time>
      </trkpt>
      <trkpt lat="44.62937" lon="4.03693">
        <ele>1328.727</ele>
        <time>2015-08-23T16:26:12Z</time>
      </trkpt>
      <trkpt lat="44.62931" lon="4.03681">
        <ele>1330.308</ele>
        <time>2015-08-23T16:26:32Z</time>
      </trkpt>
      <trkpt lat="44.62934" lon="4.03657">
        <ele>1333.985</ele>
        <time>2015-08-23T16:26:52Z</time>
      </trkpt>
      <trkpt lat="44.62931" lon="4.03576">
        <ele>1339.21</ele>
        <time>2015-08-23T16:27:12Z</time>
      </trkpt>
      <trkpt lat="44.62924" lon="4.03534">
        <ele>1347.321</ele>
        <time>2015-08-23T16:27:32Z</time>
      </trkpt>
      <trkpt lat="44.62899" lon="4.03483">
        <ele>1350.326</ele>
        <time>2015-08-23T16:27:52Z</time>
      </trkpt>
      <trkpt lat="44.62894" lon="4.03435">
        <ele>1352.715</ele>
        <time>2015-08-23T16:28:12Z</time>
      </trkpt>
      <trkpt lat="44.62883" lon="4.03402">
        <ele>1354.398</ele>
        <time>2015-08-23T16:28:32Z</time>
      </trkpt>
      <trkpt lat="44.62884" lon="4.03361">
        <ele>1354.995</ele>
        <time>2015-08-23T16:28:52Z</time>
      </trkpt>
      <trkpt lat="44.62893" lon="4.03334">
        <ele>1354.359</ele>
        <time>2015-08-23T16:29:12Z</time>
      </trkpt>
      <trkpt lat="44.62904" lon="4.03311">
        <ele>1354.329</ele>
        <time>2015-08-23T16:29:32Z</time>
      </trkpt>
      <trkpt lat="44.62896" lon="4.03285">
        <ele>1353.5</ele>
        <time>2015-08-23T16:29:52Z</time>
      </trkpt>
      <trkpt lat="44.62903" lon="4.03251">
        <ele>1351.62</ele>
        <time>2015-08-23T16:30:12Z</time>
      </trkpt>
      <trkpt lat="44.62924" lon="4.0321">
        <ele>1348.808</ele>
        <time>2015-08-23T16:30:32Z</time>
      </trkpt>
      <trkpt lat="44.62922" lon="4.03189">
        <ele>1347.488</ele>
        <time>2015-08-23T16:30:52Z</time>
      </trkpt>
      <trkpt lat="44.62931" lon="4.0317">
        <ele>1348.023</ele>
        <time>2015-08-23T16:31:12Z</time>
      </trkpt>
      <trkpt lat="44.62932" lon="4.03147">
        <ele>1347.734</ele>
        <time>2015-08-23T16:31:32Z</time>
      </trkpt>
      <trkpt lat="44.62951" lon="4.0312">
        <ele>1345.579</ele>
        <time>2015-08-23T16:31:52Z</time>
      </trkpt>
      <trkpt lat="44.62988" lon="4.03028">
        <ele>1332.918</ele>
        <time>2015-08-23T16:32:12Z</time>
      </trkpt>
      <trkpt lat="44.63011" lon="4.03008">
        <ele>1333.411</ele>
        <time>2015-08-23T16:32:32Z</time>
      </trkpt>
      <trkpt lat="44.63024" lon="4.02961">
        <ele>1331.128</ele>
        <time>2015-08-23T16:32:52Z</time>
      </trkpt>
      <trkpt lat="44.63039" lon="4.02935">
        <ele>1330.252</ele>
        <time>2015-08-23T16:33:12Z</time>
      </trkpt>
      <trkpt lat="44.63046" lon="4.02838">
        <ele>1330.715</ele>
        <time>2015-08-23T16:33:32Z</time>
      </trkpt>
      <trkpt lat="44.63084" lon="4.02742">
        <ele>1330.865</ele>
        <time>2015-08-23T16:33:52Z</time>
      </trkpt>
      <trkpt lat="44.63082" lon="4.02711">
        <ele>1325.911</ele>
        <time>2015-08-23T16:34:12Z</time>
      </trkpt>
      <trkpt lat="44.63067" lon="4.02692">
        <ele>1322.008</ele>
        <time>2015-08-23T16:34:32Z</time>
      </trkpt>
      <trkpt lat="44.63058" lon="4.02662">
        <ele>1316.687</ele>
        <time>2015-08-23T16:34:52Z</time>
      </trkpt>
      <trkpt lat="44.63062" lon="4.02598">
        <ele>1309.922</ele>
        <time>2015-08-23T16:35:12Z</time>
      </trkpt>
      <trkpt lat="44.63077" lon="4.02545">
        <ele>1306.893</ele>
        <time>2015-08-23T16:35:32Z</time>
      </trkpt>
      <trkpt lat="44.63049" lon="4.02423">
        <ele>1296.468</ele>
        <time>2015-08-23T16:35:52Z</time>
      </trkpt>
      <trkpt lat="44.63054" lon="4.02371">
        <ele>1298.167</ele>
        <time>2015-08-23T16:36:12Z</time>
      </trkpt>
      <trkpt lat="44.63046" lon="4.02312">
        <ele>1304.37</ele>
        <time>2015-08-23T16:36:32Z</time>
      </trkpt>
      <trkpt lat="44.63041" lon="4.02299">
        <ele>1307.187</ele>
        <time>2015-08-23T16:36:52Z</time>
      </trkpt>
      <trkpt lat="44.63034" lon="4.02268">
        <ele>1312.751</ele>
        <time>2015-08-23T16:37:12Z</time>
      </trkpt>
      <trkpt lat="44.63041" lon="4.02248">
        <ele>1313.419</ele>
        <time>2015-08-23T16:37:32Z</time>
      </trkpt>
      <trkpt lat="44.63035" lon="4.02222">
        <ele>1317.109</ele>
        <time>2015-08-23T16:37:52Z</time>
      </trkpt>
      <trkpt lat="44.63038" lon="4.02149">
        <ele>1334.319</ele>
        <time>2015-08-23T16:38:12Z</time>
      </trkpt>
      <trkpt lat="44.63035" lon="4.0213">
        <ele>1339.308</ele>
        <time>2015-08-23T16:38:32Z</time>
      </trkpt>
      <trkpt lat="44.63045" lon="4.021">
        <ele>1342.297</ele>
        <time>2015-08-23T16:38:52Z</time>
      </trkpt>
      <trkpt lat="44.63045" lon="4.02062">
        <ele>1343.182</ele>
        <time>2015-08-23T16:39:12Z</time>
      </trkpt>
      <trkpt lat="44.63041" lon="4.02031">
        <ele>1341.413</ele>
        <time>2015-08-23T16:39:32Z</time>
      </trkpt>
      <trkpt lat="44.63026" lon="4.02018">
        <ele>1342.678</ele>
        <time>2015-08-23T16:39:52Z</time>
      </trkpt>
      <trkpt lat="44.63002" lon="4.0199">
        <ele>1343.437</ele>
        <time>2015-08-23T16:40:12Z</time>
      </trkpt>
      <trkpt lat="44.62993" lon="4.01951">
        <ele>1346.07</ele>
        <time>2015-08-23T16:40:32Z</time>
      </trkpt>
      <trkpt lat="44.62985" lon="4.01927">
        <ele>1346.917</ele>
        <time>2015-08-23T16:40:52Z</time>
      </trkpt>
      <trkpt lat="44.6297" lon="4.01868">
        <ele>1348.341</ele>
        <time>2015-08-23T16:41:12Z</time>
      </trkpt>
      <trkpt lat="44.62962" lon="4.01808">
        <ele>1345.598</ele>
        <time>2015-08-23T16:41:32Z</time>
      </trkpt>
      <trkpt lat="44.62956" lon="4.01797">
        <ele>1344.915</ele>
        <time>2015-08-23T16:41:52Z</time>
      </trkpt>
      <trkpt lat="44.62944" lon="4.01758">
        <ele>1343.526</ele>
        <time>2015-08-23T16:42:12Z</time>
      </trkpt>
      <trkpt lat="44.62928" lon="4.01719">
        <ele>1340.108</ele>
        <time>2015-08-23T16:42:32Z</time>
      </trkpt>
      <trkpt lat="44.62908" lon="4.0171">
        <ele>1336.965</ele>
        <time>2015-08-23T16:42:52Z</time>
      </trkpt>
      <trkpt lat="44.62876" lon="4.01673">
        <ele>1330.84</ele>
        <time>2015-08-23T16:43:12Z</time>
      </trkpt>
      <trkpt lat="44.62841" lon="4.01649">
        <ele>1323.951</ele>
        <time>2015-08-23T16:43:32Z</time>
      </trkpt>
      <trkpt lat="44.62831" lon="4.01634">
        <ele>1321.246</ele>
        <time>2015-08-23T16:43:52Z</time>
      </trkpt>
      <trkpt lat="44.62798" lon="4.01607">
        <ele>1313.635</ele>
        <time>2015-08-23T16:44:12Z</time>
      </trkpt>
      <trkpt lat="44.62754" lon="4.01549">
        <ele>1304.078</ele>
        <time>2015-08-23T16:44:32Z</time>
      </trkpt>
      <trkpt lat="44.62702" lon="4.015">
        <ele>1301.335</ele>
        <time>2015-08-23T16:44:52Z</time>
      </trkpt>
      <trkpt lat="44.6268" lon="4.01468">
        <ele>1300.999</ele>
        <time>2015-08-23T16:45:12Z</time>
      </trkpt>
      <trkpt lat="44.62669" lon="4.01433">
        <ele>1302.511</ele>
        <time>2015-08-23T16:45:32Z</time>
      </trkpt>
      <trkpt lat="44.62666" lon="4.01304">
        <ele>1309.121</ele>
        <time>2015-08-23T16:45:52Z</time>
      </trkpt>
      <trkpt lat="44.62653" lon="4.01224">
        <ele>1309.403</ele>
        <time>2015-08-23T16:46:12Z</time>
      </trkpt>
      <trkpt lat="44.62677" lon="4.01162">
        <ele>1309.108</ele>
        <time>2015-08-23T16:46:32Z</time>
      </trkpt>
      <trkpt lat="44.62701" lon="4.01108">
        <ele>1305.387</ele>
        <time>2015-08-23T16:46:52Z</time>
      </trkpt>
      <trkpt lat="44.62706" lon="4.01084">
        <ele>1305.642</ele>
        <time>2015-08-23T16:47:12Z</time>
      </trkpt>
      <trkpt lat="44.6273" lon="4.01008">
        <ele>1303.673</ele>
        <time>2015-08-23T16:47:32Z</time>
      </trkpt>
      <trkpt lat="44.62756" lon="4.00946">
        <ele>1304.098</ele>
        <time>2015-08-23T16:47:52Z</time>
      </trkpt>
      <trkpt lat="44.62765" lon="4.0088">
        <ele>1304.977</ele>
        <time>2015-08-23T16:48:12Z</time>
      </trkpt>
      <trkpt lat="44.62782" lon="4.00827">
        <ele>1309.83</ele>
        <time>2015-08-23T16:48:32Z</time>
      </trkpt>
      <trkpt lat="44.62806" lon="4.00763">
        <ele>1311.097</ele>
        <time>2015-08-23T16:48:52Z</time>
      </trkpt>
      <trkpt lat="44.62813" lon="4.00731">
        <ele>1310.661</ele>
        <time>2015-08-23T16:49:12Z</time>
      </trkpt>
      <trkpt lat="44.62835" lon="4.00679">
        <ele>1312.412</ele>
        <time>2015-08-23T16:49:32Z</time>
      </trkpt>
      <trkpt lat="44.62853" lon="4.00605">
        <ele>1312.132</ele>
        <time>2015-08-23T16:49:52Z</time>
      </trkpt>
      <trkpt lat="44.62872" lon="4.00556">
        <ele>1312.005</ele>
        <time>2015-08-23T16:50:12Z</time>
      </trkpt>
      <trkpt lat="44.62886" lon="4.00498">
        <ele>1312.608</ele>
        <time>2015-08-23T16:50:32Z</time>
      </trkpt>
      <trkpt lat="44.62885" lon="4.0046">
        <ele>1314.897</ele>
        <time>2015-08-23T16:50:52Z</time>
      </trkpt>
      <trkpt lat="44.62893" lon="4.00406">
        <ele>1318.422</ele>
        <time>2015-08-23T16:51:12Z</time>
      </trkpt>
      <trkpt lat="44.62891" lon="4.00377">
        <ele>1319.593</ele>
        <time>2015-08-23T16:51:32Z</time>
      </trkpt>
      <trkpt lat="44.62875" lon="4.00351">
        <ele>1319.058</ele>
        <time>2015-08-23T16:51:52Z</time>
      </trkpt>
      <trkpt lat="44.62835" lon="4.00248">
        <ele>1322.717</ele>
        <time>2015-08-23T16:52:12Z</time>
      </trkpt>
      <trkpt lat="44.62812" lon="4.0014">
        <ele>1331.94</ele>
        <time>2015-08-23T16:52:32Z</time>
      </trkpt>
      <trkpt lat="44.62798" lon="4.0011">
        <ele>1331.317</ele>
        <time>2015-08-23T16:52:52Z</time>
      </trkpt>
      <trkpt lat="44.6278" lon="4.00014">
        <ele>1330.391</ele>
        <time>2015-08-23T16:53:12Z</time>
      </trkpt>
      <trkpt lat="44.62783" lon="3.99881">
        <ele>1323.217</ele>
        <time>2015-08-23T16:53:32Z</time>
      </trkpt>
      <trkpt lat="44.62789" lon="3.99816">
        <ele>1316.687</ele>
        <time>2015-08-23T16:53:52Z</time>
      </trkpt>
      <trkpt lat="44.62795" lon="3.9979">
        <ele>1315.815</ele>
        <time>2015-08-23T16:54:12Z</time>
      </trkpt>
      <trkpt lat="44.62798" lon="3.99694">
        <ele>1307.408</ele>
        <time>2015-08-23T16:54:32Z</time>
      </trkpt>
      <trkpt lat="44.62772" lon="3.99555">
        <ele>1300.167</ele>
        <time>2015-08-23T16:54:52Z</time>
      </trkpt>
      <trkpt lat="44.62753" lon="3.99489">
        <ele>1296.962</ele>
        <time>2015-08-23T16:55:12Z</time>
      </trkpt>
      <trkpt lat="44.62722" lon="3.9929">
        <ele>1279.573</ele>
        <time>2015-08-23T16:55:32Z</time>
      </trkpt>
      <trkpt lat="44.62707" lon="3.99238">
        <ele>1270.928</ele>
        <time>2015-08-23T16:55:52Z</time>
      </trkpt>
      <trkpt lat="44.62687" lon="3.99191">
        <ele>1262.137</ele>
        <time>2020-11-30T07:03:48Z</time>
      </trkpt>
      <trkpt lat="44.62657" lon="3.99179">
        <ele>1255.34</ele>
        <time>2020-11-30T07:04:08Z</time>
      </trkpt>
      <trkpt lat="44.62654" lon="3.99158">
        <ele>1252.497</ele>
        <time>2020-11-30T07:04:28Z</time>
      </trkpt>
      <trkpt lat="44.62635" lon="3.99147">
        <ele>1247.481</ele>
        <time>2020-11-30T07:04:48Z</time>
      </trkpt>
      <trkpt lat="44.6261" lon="3.99089">
        <ele>1232.685</ele>
        <time>2020-11-30T07:05:08Z</time>
      </trkpt>
      <trkpt lat="44.62543" lon="3.99112">
        <ele>1223.289</ele>
        <time>2020-11-30T07:05:28Z</time>
      </trkpt>
      <trkpt lat="44.62487" lon="3.99023">
        <ele>1226.317</ele>
        <time>2020-11-30T07:05:48Z</time>
      </trkpt>
      <trkpt lat="44.6234" lon="3.98708">
        <ele>1279.708</ele>
        <time>2020-11-30T07:06:08Z</time>
      </trkpt>
      <trkpt lat="44.62225" lon="3.98606">
        <ele>1301.284</ele>
        <time>2020-11-30T07:06:28Z</time>
      </trkpt>
      <trkpt lat="44.62194" lon="3.98512">
        <ele>1326.179</ele>
        <time>2020-11-30T07:06:48Z</time>
      </trkpt>
      <trkpt lat="44.62145" lon="3.98443">
        <ele>1339.72</ele>
        <time>2020-11-30T07:07:08Z</time>
      </trkpt>
      <trkpt lat="44.62068" lon="3.98422">
        <ele>1353.995</ele>
        <time>2020-11-30T07:07:28Z</time>
      </trkpt>
      <trkpt lat="44.61927" lon="3.98413">
        <ele>1369.224</ele>
        <time>2020-11-30T07:07:48Z</time>
      </trkpt>
      <trkpt lat="44.61895" lon="3.9822">
        <ele>1372.487</ele>
        <time>2020-11-30T07:08:08Z</time>
      </trkpt>
      <trkpt lat="44.6189" lon="3.98119">
        <ele>1368.164</ele>
        <time>2020-11-30T07:08:28Z</time>
      </trkpt>
      <trkpt lat="44.61916" lon="3.97882">
        <ele>1364.398</ele>
        <time>2020-11-30T07:08:48Z</time>
      </trkpt>
      <trkpt lat="44.61895" lon="3.97689">
        <ele>1350.858</ele>
        <time>2020-11-30T07:09:08Z</time>
      </trkpt>
      <trkpt lat="44.61867" lon="3.97624">
        <ele>1352.752</ele>
        <time>2020-11-30T07:09:28Z</time>
      </trkpt>
      <trkpt lat="44.61848" lon="3.97539">
        <ele>1356.817</ele>
        <time>2015-08-23T17:09:12Z</time>
      </trkpt>
      <trkpt lat="44.61844" lon="3.97489">
        <ele>1357.608</ele>
        <time>2015-08-23T17:09:32Z</time>
      </trkpt>
      <trkpt lat="44.61857" lon="3.97436">
        <ele>1355.221</ele>
        <time>2015-08-23T17:09:52Z</time>
      </trkpt>
      <trkpt lat="44.61874" lon="3.97376">
        <ele>1352.286</ele>
        <time>2015-08-23T17:10:12Z</time>
      </trkpt>
      <trkpt lat="44.61895" lon="3.97342">
        <ele>1355.637</ele>
        <time>2015-08-23T17:10:32Z</time>
      </trkpt>
      <trkpt lat="44.61913" lon="3.97267">
        <ele>1352.462</ele>
        <time>2015-08-23T17:10:52Z</time>
      </trkpt>
      <trkpt lat="44.61909" lon="3.97233">
        <ele>1348.621</ele>
        <time>2015-08-23T17:11:12Z</time>
      </trkpt>
      <trkpt lat="44.61914" lon="3.97206">
        <ele>1349.744</ele>
        <time>2015-08-23T17:11:32Z</time>
      </trkpt>
      <trkpt lat="44.61934" lon="3.97169">
        <ele>1351.311</ele>
        <time>2015-08-23T17:11:52Z</time>
      </trkpt>
      <trkpt lat="44.6194" lon="3.97125">
        <ele>1352.195</ele>
        <time>2015-08-23T17:12:12Z</time>
      </trkpt>
      <trkpt lat="44.61919" lon="3.97002">
        <ele>1361.183</ele>
        <time>2015-08-23T17:12:32Z</time>
      </trkpt>
      <trkpt lat="44.61916" lon="3.96911">
        <ele>1362.725</ele>
        <time>2015-08-23T17:12:52Z</time>
      </trkpt>
      <trkpt lat="44.6192" lon="3.96788">
        <ele>1363.817</ele>
        <time>2015-08-23T17:13:12Z</time>
      </trkpt>
      <trkpt lat="44.61918" lon="3.96735">
        <ele>1359.408</ele>
        <time>2015-08-23T17:13:32Z</time>
      </trkpt>
      <trkpt lat="44.6192" lon="3.96696">
        <ele>1357.264</ele>
        <time>2015-08-23T17:13:52Z</time>
      </trkpt>
      <trkpt lat="44.61931" lon="3.96651">
        <ele>1353.969</ele>
        <time>2015-08-23T17:14:12Z</time>
      </trkpt>
      <trkpt lat="44.61944" lon="3.96539">
        <ele>1339.31</ele>
        <time>2015-08-23T17:14:32Z</time>
      </trkpt>
      <trkpt lat="44.6195" lon="3.96478">
        <ele>1330.035</ele>
        <time>2015-08-23T17:14:52Z</time>
      </trkpt>
      <trkpt lat="44.61958" lon="3.96453">
        <ele>1329.494</ele>
        <time>2015-08-23T17:15:12Z</time>
      </trkpt>
      <trkpt lat="44.61955" lon="3.96428">
        <ele>1328.147</ele>
        <time>2015-08-23T17:15:32Z</time>
      </trkpt>
      <trkpt lat="44.61927" lon="3.96391">
        <ele>1324.534</ele>
        <time>2015-08-23T17:15:52Z</time>
      </trkpt>
      <trkpt lat="44.61921" lon="3.96344">
        <ele>1326.368</ele>
        <time>2015-08-23T17:16:12Z</time>
      </trkpt>
      <trkpt lat="44.61913" lon="3.96331">
        <ele>1324.985</ele>
        <time>2015-08-23T17:16:32Z</time>
      </trkpt>
      <trkpt lat="44.61914" lon="3.96289">
        <ele>1324.089</ele>
        <time>2015-08-23T17:16:52Z</time>
      </trkpt>
      <trkpt lat="44.61896" lon="3.96199">
        <ele>1321.017</ele>
        <time>2015-08-23T17:17:12Z</time>
      </trkpt>
      <trkpt lat="44.61883" lon="3.96162">
        <ele>1323.708</ele>
        <time>2015-08-23T17:17:32Z</time>
      </trkpt>
      <trkpt lat="44.61858" lon="3.96123">
        <ele>1326.584</ele>
        <time>2015-08-23T17:17:52Z</time>
      </trkpt>
      <trkpt lat="44.61829" lon="3.96089">
        <ele>1331.429</ele>
        <time>2015-08-23T17:18:12Z</time>
      </trkpt>
      <trkpt lat="44.61766" lon="3.96005">
        <ele>1348.66</ele>
        <time>2015-08-23T17:18:32Z</time>
      </trkpt>
      <trkpt lat="44.61745" lon="3.95995">
        <ele>1350.165</ele>
        <time>2015-08-23T17:18:52Z</time>
      </trkpt>
      <trkpt lat="44.61683" lon="3.95915">
        <ele>1361.444</ele>
        <time>2015-08-23T17:19:12Z</time>
      </trkpt>
      <trkpt lat="44.61673" lon="3.95879">
        <ele>1360.987</ele>
        <time>2015-08-23T17:19:32Z</time>
      </trkpt>
      <trkpt lat="44.61589" lon="3.95835">
        <ele>1354.374</ele>
        <time>2015-08-23T17:19:52Z</time>
      </trkpt>
      <trkpt lat="44.61548" lon="3.95822">
        <ele>1349.538</ele>
        <time>2015-08-23T17:20:12Z</time>
      </trkpt>
      <trkpt lat="44.61492" lon="3.95742">
        <ele>1339.075</ele>
        <time>2015-08-23T17:20:32Z</time>
      </trkpt>
      <trkpt lat="44.61445" lon="3.95693">
        <ele>1332.028</ele>
        <time>2015-08-23T17:20:52Z</time>
      </trkpt>
      <trkpt lat="44.61417" lon="3.95658">
        <ele>1329.72</ele>
        <time>2015-08-23T17:21:12Z</time>
      </trkpt>
      <trkpt lat="44.6138" lon="3.95625">
        <ele>1321.708</ele>
        <time>2015-08-23T17:21:32Z</time>
      </trkpt>
      <trkpt lat="44.61349" lon="3.95588">
        <ele>1315.343</ele>
        <time>2015-08-23T17:21:52Z</time>
      </trkpt>
      <trkpt lat="44.61333" lon="3.95578">
        <ele>1312.268</ele>
        <time>2015-08-23T17:22:12Z</time>
      </trkpt>
      <trkpt lat="44.61285" lon="3.95522">
        <ele>1307.029</ele>
        <time>2015-08-23T17:22:32Z</time>
      </trkpt>
      <trkpt lat="44.61271" lon="3.95498">
        <ele>1303.364</ele>
        <time>2015-08-23T17:22:52Z</time>
      </trkpt>
      <trkpt lat="44.61243" lon="3.95486">
        <ele>1295.253</ele>
        <time>2015-08-23T17:23:12Z</time>
      </trkpt>
      <trkpt lat="44.61229" lon="3.95462">
        <ele>1288.036</ele>
        <time>2015-08-23T17:23:32Z</time>
      </trkpt>
      <trkpt lat="44.61205" lon="3.95457">
        <ele>1281.883</ele>
        <time>2015-08-23T17:23:52Z</time>
      </trkpt>
      <trkpt lat="44.61176" lon="3.95441">
        <ele>1274.237</ele>
        <time>2015-08-23T17:24:12Z</time>
      </trkpt>
      <trkpt lat="44.61102" lon="3.95423">
        <ele>1265.063</ele>
        <time>2015-08-23T17:24:32Z</time>
      </trkpt>
      <trkpt lat="44.61053" lon="3.9547">
        <ele>1263.744</ele>
        <time>2015-08-23T17:24:52Z</time>
      </trkpt>
      <trkpt lat="44.60996" lon="3.95508">
        <ele>1270.718</ele>
        <time>2015-08-23T17:25:12Z</time>
      </trkpt>
      <trkpt lat="44.60918" lon="3.95515">
        <ele>1259.508</ele>
        <time>2015-08-23T17:25:32Z</time>
      </trkpt>
      <trkpt lat="44.60872" lon="3.95474">
        <ele>1257.282</ele>
        <time>2015-08-23T17:25:52Z</time>
      </trkpt>
      <trkpt lat="44.60849" lon="3.95425">
        <ele>1257.077</ele>
        <time>2015-08-23T17:26:12Z</time>
      </trkpt>
      <trkpt lat="44.60809" lon="3.9542">
        <ele>1246.538</ele>
        <time>2015-08-23T17:26:32Z</time>
      </trkpt>
      <trkpt lat="44.60766" lon="3.95372">
        <ele>1238.353</ele>
        <time>2015-08-23T17:26:52Z</time>
      </trkpt>
      <trkpt lat="44.60719" lon="3.953">
        <ele>1230.722</ele>
        <time>2015-08-23T17:27:12Z</time>
      </trkpt>
      <trkpt lat="44.60645" lon="3.95223">
        <ele>1211.055</ele>
        <time>2015-08-23T17:27:32Z</time>
      </trkpt>
      <trkpt lat="44.60613" lon="3.95174">
        <ele>1205.372</ele>
        <time>2015-08-23T17:27:52Z</time>
      </trkpt>
      <trkpt lat="44.60529" lon="3.95174">
        <ele>1186.136</ele>
        <time>2015-08-23T17:28:12Z</time>
      </trkpt>
      <trkpt lat="44.60483" lon="3.95203">
        <ele>1178.346</ele>
        <time>2015-08-23T17:28:32Z</time>
      </trkpt>
      <trkpt lat="44.60412" lon="3.95207">
        <ele>1168.888</ele>
        <time>2015-08-23T17:28:52Z</time>
      </trkpt>
      <trkpt lat="44.60425" lon="3.9515">
        <ele>1172.016</ele>
        <time>2015-08-23T17:29:12Z</time>
      </trkpt>
      <trkpt lat="44.60434" lon="3.95066">
        <ele>1174.608</ele>
        <time>2015-08-23T17:29:32Z</time>
      </trkpt>
      <trkpt lat="44.60455" lon="3.94977">
        <ele>1170.49</ele>
        <time>2015-08-23T17:29:52Z</time>
      </trkpt>
      <trkpt lat="44.60494" lon="3.94868">
        <ele>1164.495</ele>
        <time>2015-08-23T17:30:12Z</time>
      </trkpt>
      <trkpt lat="44.60544" lon="3.94776">
        <ele>1163.266</ele>
        <time>2015-08-23T17:30:32Z</time>
      </trkpt>
      <trkpt lat="44.60594" lon="3.94699">
        <ele>1161.591</ele>
        <time>2015-08-23T17:30:52Z</time>
      </trkpt>
      <trkpt lat="44.60648" lon="3.94642">
        <ele>1161.52</ele>
        <time>2015-08-23T17:31:12Z</time>
      </trkpt>
      <trkpt lat="44.6066" lon="3.94621">
        <ele>1158.933</ele>
        <time>2015-08-23T17:31:32Z</time>
      </trkpt>
      <trkpt lat="44.6062" lon="3.94651">
        <ele>1157.33</ele>
        <time>2015-08-23T17:31:52Z</time>
      </trkpt>
      <trkpt lat="44.60577" lon="3.94664">
        <ele>1153.124</ele>
        <time>2015-08-23T17:32:12Z</time>
      </trkpt>
      <trkpt lat="44.605" lon="3.9466">
        <ele>1141.569</ele>
        <time>2015-08-23T17:32:32Z</time>
      </trkpt>
      <trkpt lat="44.60471" lon="3.94668">
        <ele>1141.204</ele>
        <time>2015-08-23T17:32:52Z</time>
      </trkpt>
      <trkpt lat="44.60454" lon="3.94648">
        <ele>1142.724</ele>
        <time>2015-08-23T17:33:12Z</time>
      </trkpt>
      <trkpt lat="44.6046" lon="3.94617">
        <ele>1143.308</ele>
        <time>2015-08-23T17:33:32Z</time>
      </trkpt>
      <trkpt lat="44.60517" lon="3.94563">
        <ele>1142.512</ele>
        <time>2015-08-23T17:33:52Z</time>
      </trkpt>
      <trkpt lat="44.60556" lon="3.94491">
        <ele>1139.947</ele>
        <time>2015-08-23T17:34:12Z</time>
      </trkpt>
      <trkpt lat="44.60571" lon="3.94389">
        <ele>1139.878</ele>
        <time>2015-08-23T17:34:32Z</time>
      </trkpt>
      <trkpt lat="44.60558" lon="3.94269">
        <ele>1139.853</ele>
        <time>2015-08-23T17:34:52Z</time>
      </trkpt>
      <trkpt lat="44.6052" lon="3.94113">
        <ele>1133.932</ele>
        <time>2015-08-23T17:35:12Z</time>
      </trkpt>
      <trkpt lat="44.60522" lon="3.93982">
        <ele>1129.175</ele>
        <time>2015-08-23T17:35:32Z</time>
      </trkpt>
      <trkpt lat="44.60507" lon="3.93879">
        <ele>1122.342</ele>
        <time>2015-08-23T17:35:52Z</time>
      </trkpt>
      <trkpt lat="44.60467" lon="3.93755">
        <ele>1115.096</ele>
        <time>2015-08-23T17:36:12Z</time>
      </trkpt>
      <trkpt lat="44.60394" lon="3.93666">
        <ele>1104.854</ele>
        <time>2015-08-23T17:36:32Z</time>
      </trkpt>
      <trkpt lat="44.60296" lon="3.93622">
        <ele>1100.956</ele>
        <time>2015-08-23T17:36:52Z</time>
      </trkpt>
      <trkpt lat="44.60219" lon="3.93615">
        <ele>1090.011</ele>
        <time>2015-08-23T17:37:12Z</time>
      </trkpt>
      <trkpt lat="44.60165" lon="3.93624">
        <ele>1087.408</ele>
        <time>2015-08-23T17:37:32Z</time>
      </trkpt>
      <trkpt lat="44.60092" lon="3.93614">
        <ele>1084.211</ele>
        <time>2015-08-23T17:37:52Z</time>
      </trkpt>
      <trkpt lat="44.6006" lon="3.93553">
        <ele>1083.146</ele>
        <time>2015-08-23T17:38:12Z</time>
      </trkpt>
      <trkpt lat="44.60016" lon="3.93491">
        <ele>1089.577</ele>
        <time>2015-08-23T17:38:32Z</time>
      </trkpt>
      <trkpt lat="44.59992" lon="3.93435">
        <ele>1093.082</ele>
        <time>2015-08-23T17:38:52Z</time>
      </trkpt>
      <trkpt lat="44.59976" lon="3.93394">
        <ele>1091.431</ele>
        <time>2015-08-23T17:39:12Z</time>
      </trkpt>
      <trkpt lat="44.59951" lon="3.93326">
        <ele>1087.774</ele>
        <time>2015-08-23T17:39:32Z</time>
      </trkpt>
      <trkpt lat="44.59963" lon="3.93215">
        <ele>1090.061</ele>
        <time>2015-08-23T17:39:52Z</time>
      </trkpt>
      <trkpt lat="44.59945" lon="3.93065">
        <ele>1089.795</ele>
        <time>2015-08-23T17:40:12Z</time>
      </trkpt>
      <trkpt lat="44.59939" lon="3.9298">
        <ele>1091.164</ele>
        <time>2015-08-23T17:40:32Z</time>
      </trkpt>
      <trkpt lat="44.59875" lon="3.9294">
        <ele>1085.906</ele>
        <time>2015-08-23T17:40:52Z</time>
      </trkpt>
      <trkpt lat="44.59839" lon="3.9291">
        <ele>1086.716</ele>
        <time>2015-08-23T17:41:12Z</time>
      </trkpt>
      <trkpt lat="44.59816" lon="3.92859">
        <ele>1086.508</ele>
        <time>2015-08-23T17:41:32Z</time>
      </trkpt>
      <trkpt lat="44.59822" lon="3.92748">
        <ele>1088.642</ele>
        <time>2015-08-23T17:41:52Z</time>
      </trkpt>
      <trkpt lat="44.59845" lon="3.92659">
        <ele>1095.027</ele>
        <time>2015-08-23T17:42:12Z</time>
      </trkpt>
      <trkpt lat="44.59837" lon="3.92621">
        <ele>1096.678</ele>
        <time>2015-08-23T17:42:32Z</time>
      </trkpt>
      <trkpt lat="44.59775" lon="3.92589">
        <ele>1085.473</ele>
        <time>2015-08-23T17:42:52Z</time>
      </trkpt>
      <trkpt lat="44.59752" lon="3.92548">
        <ele>1083.552</ele>
        <time>2015-08-23T17:43:12Z</time>
      </trkpt>
      <trkpt lat="44.59725" lon="3.92405">
        <ele>1078.895</ele>
        <time>2015-08-23T17:43:32Z</time>
      </trkpt>
      <trkpt lat="44.5967" lon="3.92288">
        <ele>1066.372</ele>
        <time>2015-08-23T17:43:52Z</time>
      </trkpt>
      <trkpt lat="44.59662" lon="3.92229">
        <ele>1062.436</ele>
        <time>2015-08-23T17:44:12Z</time>
      </trkpt>
      <trkpt lat="44.59681" lon="3.92193">
        <ele>1059.351</ele>
        <time>2015-08-23T17:44:32Z</time>
      </trkpt>
      <trkpt lat="44.59746" lon="3.92173">
        <ele>1057.501</ele>
        <time>2015-08-23T17:44:52Z</time>
      </trkpt>
      <trkpt lat="44.59744" lon="3.92159">
        <ele>1055.111</ele>
        <time>2015-08-23T17:45:12Z</time>
      </trkpt>
      <trkpt lat="44.59626" lon="3.92165">
        <ele>1048.908</ele>
        <time>2015-08-23T17:45:32Z</time>
      </trkpt>
      <trkpt lat="44.59598" lon="3.9215">
        <ele>1046.021</ele>
        <time>2015-08-23T17:45:52Z</time>
      </trkpt>
      <trkpt lat="44.59582" lon="3.92074">
        <ele>1047.336</ele>
        <time>2015-08-23T17:46:12Z</time>
      </trkpt>
      <trkpt lat="44.59604" lon="3.91965">
        <ele>1051.767</ele>
        <time>2015-08-23T17:46:32Z</time>
      </trkpt>
      <trkpt lat="44.59623" lon="3.91911">
        <ele>1053.892</ele>
        <time>2015-08-23T17:46:52Z</time>
      </trkpt>
      <trkpt lat="44.59655" lon="3.91891">
        <ele>1058.821</ele>
        <time>2015-08-23T17:47:12Z</time>
      </trkpt>
      <trkpt lat="44.59683" lon="3.91794">
        <ele>1058.944</ele>
        <time>2015-08-23T17:47:32Z</time>
      </trkpt>
      <trkpt lat="44.5971" lon="3.91745">
        <ele>1059.611</ele>
        <time>2015-08-23T17:47:52Z</time>
      </trkpt>
      <trkpt lat="44.59742" lon="3.9171">
        <ele>1061.025</ele>
        <time>2015-08-23T17:48:12Z</time>
      </trkpt>
      <trkpt lat="44.59827" lon="3.91702">
        <ele>1068.967</ele>
        <time>2015-08-23T17:48:32Z</time>
      </trkpt>
      <trkpt lat="44.59918" lon="3.91713">
        <ele>1077.281</ele>
        <time>2015-08-23T17:48:52Z</time>
      </trkpt>
      <trkpt lat="44.59932" lon="3.9169">
        <ele>1078.719</ele>
        <time>2015-08-23T17:49:12Z</time>
      </trkpt>
      <trkpt lat="44.59924" lon="3.91643">
        <ele>1075.908</ele>
        <time>2015-08-23T17:49:32Z</time>
      </trkpt>
      <trkpt lat="44.59924" lon="3.91599">
        <ele>1076.852</ele>
        <time>2015-08-23T17:49:52Z</time>
      </trkpt>
      <trkpt lat="44.59879" lon="3.9153">
        <ele>1080.537</ele>
        <time>2015-08-23T17:50:12Z</time>
      </trkpt>
      <trkpt lat="44.59824" lon="3.9143">
        <ele>1084.948</ele>
        <time>2015-08-23T17:50:32Z</time>
      </trkpt>
      <trkpt lat="44.59807" lon="3.91353">
        <ele>1089.353</ele>
        <time>2015-08-23T17:50:52Z</time>
      </trkpt>
      <trkpt lat="44.59763" lon="3.91318">
        <ele>1086.112</ele>
        <time>2015-08-23T17:51:12Z</time>
      </trkpt>
      <trkpt lat="44.59713" lon="3.91313">
        <ele>1086.245</ele>
        <time>2015-08-23T17:51:32Z</time>
      </trkpt>
      <trkpt lat="44.59688" lon="3.91296">
        <ele>1086.792</ele>
        <time>2015-08-23T17:51:52Z</time>
      </trkpt>
      <trkpt lat="44.59611" lon="3.91192">
        <ele>1077.766</ele>
        <time>2015-08-23T17:52:12Z</time>
      </trkpt>
      <trkpt lat="44.59521" lon="3.91092">
        <ele>1071.024</ele>
        <time>2015-08-23T17:52:32Z</time>
      </trkpt>
      <trkpt lat="44.59434" lon="3.90969">
        <ele>1063.404</ele>
        <time>2015-08-23T17:52:52Z</time>
      </trkpt>
      <trkpt lat="44.59383" lon="3.9091">
        <ele>1057.014</ele>
        <time>2015-08-23T17:53:12Z</time>
      </trkpt>
      <trkpt lat="44.59319" lon="3.90819">
        <ele>1045.208</ele>
        <time>2015-08-23T17:53:32Z</time>
      </trkpt>
      <trkpt lat="44.59282" lon="3.90662">
        <ele>1023.278</ele>
        <time>2015-08-23T17:53:52Z</time>
      </trkpt>
      <trkpt lat="44.59265" lon="3.90638">
        <ele>1019.513</ele>
        <time>2015-08-23T17:54:12Z</time>
      </trkpt>
      <trkpt lat="44.59222" lon="3.90591">
        <ele>1016.334</ele>
        <time>2015-08-23T17:54:32Z</time>
      </trkpt>
      <trkpt lat="44.59177" lon="3.9058">
        <ele>1021.119</ele>
        <time>2015-08-23T17:54:52Z</time>
      </trkpt>
      <trkpt lat="44.59187" lon="3.90514">
        <ele>1018.938</ele>
        <time>2015-08-23T17:55:12Z</time>
      </trkpt>
      <trkpt lat="44.59205" lon="3.9044">
        <ele>1020.631</ele>
        <time>2015-08-23T17:55:32Z</time>
      </trkpt>
      <trkpt lat="44.59263" lon="3.90443">
        <ele>1020.128</ele>
        <time>2020-03-11T22:50:39Z</time>
      </trkpt>
      <trkpt lat="44.59331" lon="3.90463">
        <ele>1022.012</ele>
        <time>2019-03-28T16:13:57Z</time>
      </trkpt>
      <trkpt lat="44.59392" lon="3.90432">
        <ele>1025.074</ele>
        <time>2019-03-28T16:14:17Z</time>
      </trkpt>
      <trkpt lat="44.59439" lon="3.90423">
        <ele>1026.356</ele>
        <time>2019-03-28T16:14:37Z</time>
      </trkpt>
      <trkpt lat="44.59438" lon="3.90392">
        <ele>1029.021</ele>
        <time>2019-03-28T16:14:57Z</time>
      </trkpt>
      <trkpt lat="44.59395" lon="3.90374">
        <ele>1030.908</ele>
        <time>2019-03-28T16:15:17Z</time>
      </trkpt>
      <trkpt lat="44.59394" lon="3.90285">
        <ele>1041.773</ele>
        <time>2019-03-28T16:15:37Z</time>
      </trkpt>
      <trkpt lat="44.59409" lon="3.90244">
        <ele>1048.748</ele>
        <time>2019-03-28T16:15:57Z</time>
      </trkpt>
      <trkpt lat="44.59397" lon="3.9024">
        <ele>1050.979</ele>
        <time>2019-03-28T16:16:17Z</time>
      </trkpt>
      <trkpt lat="44.59356" lon="3.90282">
        <ele>1050.324</ele>
        <time>2019-03-28T16:16:37Z</time>
      </trkpt>
      <trkpt lat="44.5931" lon="3.90264">
        <ele>1054.923</ele>
        <time>2019-03-28T16:16:57Z</time>
      </trkpt>
      <trkpt lat="44.59255" lon="3.90212">
        <ele>1066.046</ele>
        <time>2019-03-28T16:17:17Z</time>
      </trkpt>
      <trkpt lat="44.5916" lon="3.90162">
        <ele>1074.613</ele>
        <time>2019-03-28T16:17:37Z</time>
      </trkpt>
      <trkpt lat="44.58966" lon="3.90017">
        <ele>1085.097</ele>
        <time>2019-03-28T16:17:57Z</time>
      </trkpt>
      <trkpt lat="44.58947" lon="3.89977">
        <ele>1086.261</ele>
        <time>2019-03-28T16:18:17Z</time>
      </trkpt>
      <trkpt lat="44.59004" lon="3.89916">
        <ele>1091.521</ele>
        <time>2019-03-28T16:18:37Z</time>
      </trkpt>
      <trkpt lat="44.59126" lon="3.89862">
        <ele>1107.213</ele>
        <time>2019-03-28T16:18:57Z</time>
      </trkpt>
      <trkpt lat="44.59214" lon="3.89855">
        <ele>1116.908</ele>
        <time>2019-03-28T16:19:17Z</time>
      </trkpt>
      <trkpt lat="44.59289" lon="3.89796">
        <ele>1124.762</ele>
        <time>2019-03-28T16:19:37Z</time>
      </trkpt>
      <trkpt lat="44.59371" lon="3.89698">
        <ele>1131.887</ele>
        <time>2019-03-28T16:19:57Z</time>
      </trkpt>
      <trkpt lat="44.59274" lon="3.89491">
        <ele>1149.248</ele>
        <time>2019-03-28T16:20:17Z</time>
      </trkpt>
      <trkpt lat="44.59254" lon="3.89292">
        <ele>1164.693</ele>
        <time>2019-03-28T16:20:37Z</time>
      </trkpt>
      <trkpt lat="44.59254" lon="3.8918">
        <ele>1175.292</ele>
        <time>2019-03-28T16:20:57Z</time>
      </trkpt>
      <trkpt lat="44.59235" lon="3.89128">
        <ele>1181.795</ele>
        <time>2019-03-28T16:21:17Z</time>
      </trkpt>
      <trkpt lat="44.59161" lon="3.89017">
        <ele>1195.862</ele>
        <time>2019-03-28T16:21:37Z</time>
      </trkpt>
      <trkpt lat="44.59099" lon="3.88963">
        <ele>1198.896</ele>
        <time>2019-03-28T16:21:57Z</time>
      </trkpt>
      <trkpt lat="44.59027" lon="3.88926">
        <ele>1202.743</ele>
        <time>2019-03-28T16:22:17Z</time>
      </trkpt>
      <trkpt lat="44.58992" lon="3.88844">
        <ele>1208.164</ele>
        <time>2019-03-28T16:22:37Z</time>
      </trkpt>
      <trkpt lat="44.58986" lon="3.88753">
        <ele>1218.61</ele>
        <time>2019-03-28T16:22:57Z</time>
      </trkpt>
      <trkpt lat="44.58967" lon="3.88624">
        <ele>1237.708</ele>
        <time>2019-03-28T16:23:17Z</time>
      </trkpt>
      <trkpt lat="44.58934" lon="3.88553">
        <ele>1248.66</ele>
        <time>2019-03-28T16:23:37Z</time>
      </trkpt>
      <trkpt lat="44.58889" lon="3.88591">
        <ele>1235.375</ele>
        <time>2019-03-28T16:23:57Z</time>
      </trkpt>
      <trkpt lat="44.58798" lon="3.88619">
        <ele>1245.756</ele>
        <time>2019-03-28T16:24:17Z</time>
      </trkpt>
      <trkpt lat="44.58771" lon="3.88607">
        <ele>1245.531</ele>
        <time>2019-03-28T16:24:37Z</time>
      </trkpt>
      <trkpt lat="44.58679" lon="3.88481">
        <ele>1273.64</ele>
        <time>2019-03-28T16:24:57Z</time>
      </trkpt>
      <trkpt lat="44.5863" lon="3.88502">
        <ele>1269.363</ele>
        <time>2019-03-28T16:25:17Z</time>
      </trkpt>
      <trkpt lat="44.5854" lon="3.88447">
        <ele>1271.48</ele>
        <time>2019-03-28T16:25:37Z</time>
      </trkpt>
      <trkpt lat="44.5853" lon="3.88319">
        <ele>1280.074</ele>
        <time>2019-03-28T16:25:57Z</time>
      </trkpt>
      <trkpt lat="44.58508" lon="3.88213">
        <ele>1286.386</ele>
        <time>2019-03-28T16:26:17Z</time>
      </trkpt>
      <trkpt lat="44.58358" lon="3.88074">
        <ele>1292.16</ele>
        <time>2019-03-28T16:26:37Z</time>
      </trkpt>
      <trkpt lat="44.58344" lon="3.88002">
        <ele>1298.526</ele>
        <time>2019-03-28T16:26:57Z</time>
      </trkpt>
      <trkpt lat="44.58409" lon="3.87964">
        <ele>1305.408</ele>
        <time>2019-03-28T16:27:17Z</time>
      </trkpt>
      <trkpt lat="44.58462" lon="3.8792">
        <ele>1308.024</ele>
        <time>2019-03-28T16:27:37Z</time>
      </trkpt>
      <trkpt lat="44.58554" lon="3.87824">
        <ele>1309.319</ele>
        <time>2019-03-28T16:27:57Z</time>
      </trkpt>
      <trkpt lat="44.58628" lon="3.87413">
        <ele>1311.12</ele>
        <time>2019-03-28T16:28:17Z</time>
      </trkpt>
      <trkpt lat="44.58633" lon="3.87254">
        <ele>1309.895</ele>
        <time>2019-03-28T16:28:37Z</time>
      </trkpt>
      <trkpt lat="44.58612" lon="3.87094">
        <ele>1307.074</ele>
        <time>2019-03-28T16:28:57Z</time>
      </trkpt>
      <trkpt lat="44.58573" lon="3.86925">
        <ele>1307.717</ele>
        <time>2019-03-28T16:29:17Z</time>
      </trkpt>
      <trkpt lat="44.58519" lon="3.86793">
        <ele>1307.854</ele>
        <time>2019-03-28T16:29:37Z</time>
      </trkpt>
      <trkpt lat="44.58484" lon="3.86646">
        <ele>1306.968</ele>
        <time>2019-03-28T16:29:57Z</time>
      </trkpt>
      <trkpt lat="44.5854" lon="3.8642">
        <ele>1305.094</ele>
        <time>2019-03-28T16:30:17Z</time>
      </trkpt>
      <trkpt lat="44.58534" lon="3.86315">
        <ele>1308.457</ele>
        <time>2019-03-28T16:30:37Z</time>
      </trkpt>
      <trkpt lat="44.58533" lon="3.86186">
        <ele>1308.622</ele>
        <time>2019-03-28T16:30:57Z</time>
      </trkpt>
      <trkpt lat="44.58436" lon="3.85965">
        <ele>1294.408</ele>
        <time>2019-03-28T16:31:17Z</time>
      </trkpt>
      <trkpt lat="44.58411" lon="3.85844">
        <ele>1286.945</ele>
        <time>2019-03-28T16:31:37Z</time>
      </trkpt>
      <trkpt lat="44.58354" lon="3.85717">
        <ele>1284.98</ele>
        <time>2019-03-28T16:31:57Z</time>
      </trkpt>
      <trkpt lat="44.58359" lon="3.85635">
        <ele>1284.161</ele>
        <time>2019-03-28T16:32:17Z</time>
      </trkpt>
      <trkpt lat="44.58275" lon="3.85365">
        <ele>1277.176</ele>
        <time>2019-03-28T16:32:37Z</time>
      </trkpt>
      <trkpt lat="44.58296" lon="3.85299">
        <ele>1275.355</ele>
        <time>2019-03-28T16:32:57Z</time>
      </trkpt>
      <trkpt lat="44.58297" lon="3.85234">
        <ele>1278.888</ele>
        <time>2019-03-28T16:33:17Z</time>
      </trkpt>
      <trkpt lat="44.58325" lon="3.85221">
        <ele>1280.855</ele>
        <time>2019-03-28T16:33:37Z</time>
      </trkpt>
      <trkpt lat="44.58353" lon="3.8525">
        <ele>1281.719</ele>
        <time>2019-03-28T16:33:57Z</time>
      </trkpt>
      <trkpt lat="44.58369" lon="3.85309">
        <ele>1283.232</ele>
        <time>2019-03-28T16:34:17Z</time>
      </trkpt>
      <trkpt lat="44.58472" lon="3.854">
        <ele>1286.892</ele>
        <time>2019-03-28T16:34:37Z</time>
      </trkpt>
      <trkpt lat="44.58539" lon="3.85426">
        <ele>1288.211</ele>
        <time>2019-03-28T16:34:57Z</time>
      </trkpt>
      <trkpt lat="44.586" lon="3.85417">
        <ele>1290.108</ele>
        <time>2019-03-28T16:35:17Z</time>
      </trkpt>
      <trkpt lat="44.5877" lon="3.85193">
        <ele>1311.599</ele>
        <time>2019-03-28T16:35:37Z</time>
      </trkpt>
      <trkpt lat="44.5879" lon="3.85139">
        <ele>1313.954</ele>
        <time>2019-03-28T16:35:57Z</time>
      </trkpt>
      <trkpt lat="44.58862" lon="3.85079">
        <ele>1320.095</ele>
        <time>2019-03-28T16:36:17Z</time>
      </trkpt>
      <trkpt lat="44.58914" lon="3.84992">
        <ele>1323.08</ele>
        <time>2019-03-28T16:36:37Z</time>
      </trkpt>
      <trkpt lat="44.58964" lon="3.85025">
        <ele>1325.379</ele>
        <time>2019-03-28T16:36:57Z</time>
      </trkpt>
      <trkpt lat="44.59155" lon="3.85079">
        <ele>1335.612</ele>
        <time>2019-03-28T16:37:17Z</time>
      </trkpt>
      <trkpt lat="44.59299" lon="3.85123">
        <ele>1331.649</ele>
        <time>2019-03-28T16:37:37Z</time>
      </trkpt>
      <trkpt lat="44.59317" lon="3.85207">
        <ele>1324.343</ele>
        <time>2019-03-28T16:37:57Z</time>
      </trkpt>
      <trkpt lat="44.59393" lon="3.85344">
        <ele>1322.261</ele>
        <time>2019-03-28T16:38:17Z</time>
      </trkpt>
      <trkpt lat="44.59474" lon="3.85414">
        <ele>1330.021</ele>
        <time>2019-03-28T16:38:37Z</time>
      </trkpt>
      <trkpt lat="44.59505" lon="3.85275">
        <ele>1334.413</ele>
        <time>2019-03-28T16:38:57Z</time>
      </trkpt>
      <trkpt lat="44.59505" lon="3.85265">
        <ele>1335.108</ele>
        <time>2015-08-24T07:43:29Z</time>
      </trkpt>
      <trkpt lat="44.59498" lon="3.85189">
        <ele>1339.632</ele>
        <time>2015-08-24T07:43:49Z</time>
      </trkpt>
      <trkpt lat="44.59451" lon="3.85047">
        <ele>1352.037</ele>
        <time>2015-08-24T07:44:09Z</time>
      </trkpt>
      <trkpt lat="44.59458" lon="3.84965">
        <ele>1355.688</ele>
        <time>2015-08-24T07:44:29Z</time>
      </trkpt>
      <trkpt lat="44.59535" lon="3.84737">
        <ele>1354.433</ele>
        <time>2015-08-24T07:44:49Z</time>
      </trkpt>
      <trkpt lat="44.59573" lon="3.84678">
        <ele>1354.032</ele>
        <time>2015-08-24T07:45:09Z</time>
      </trkpt>
      <trkpt lat="44.59602" lon="3.84658">
        <ele>1354.015</ele>
        <time>2015-08-24T07:45:29Z</time>
      </trkpt>
      <trkpt lat="44.59673" lon="3.84631">
        <ele>1357.212</ele>
        <time>2015-08-24T07:45:49Z</time>
      </trkpt>
      <trkpt lat="44.59698" lon="3.84591">
        <ele>1359.826</ele>
        <time>2015-08-24T07:46:09Z</time>
      </trkpt>
      <trkpt lat="44.59706" lon="3.84559">
        <ele>1361.231</ele>
        <time>2015-08-24T07:46:29Z</time>
      </trkpt>
      <trkpt lat="44.59727" lon="3.84525">
        <ele>1363.661</ele>
        <time>2015-08-24T07:46:49Z</time>
      </trkpt>
      <trkpt lat="44.59759" lon="3.84459">
        <ele>1370.407</ele>
        <time>2015-08-24T07:47:09Z</time>
      </trkpt>
      <trkpt lat="44.59856" lon="3.8432">
        <ele>1387.908</ele>
        <time>2015-08-24T07:47:29Z</time>
      </trkpt>
      <trkpt lat="44.59858" lon="3.84259">
        <ele>1389.999</ele>
        <time>2015-08-24T07:47:49Z</time>
      </trkpt>
      <trkpt lat="44.59824" lon="3.8418">
        <ele>1396.584</ele>
        <time>2015-08-24T07:48:09Z</time>
      </trkpt>
      <trkpt lat="44.59795" lon="3.84132">
        <ele>1398.365</ele>
        <time>2015-08-24T07:48:29Z</time>
      </trkpt>
      <trkpt lat="44.59765" lon="3.8398">
        <ele>1407.03</ele>
        <time>2015-08-24T07:48:49Z</time>
      </trkpt>
      <trkpt lat="44.59766" lon="3.83888">
        <ele>1408.579</ele>
        <time>2015-08-24T07:49:09Z</time>
      </trkpt>
      <trkpt lat="44.59789" lon="3.83825">
        <ele>1407.722</ele>
        <time>2015-08-24T07:49:29Z</time>
      </trkpt>
      <trkpt lat="44.59813" lon="3.83693">
        <ele>1412.939</ele>
        <time>2015-08-24T07:49:49Z</time>
      </trkpt>
      <trkpt lat="44.59811" lon="3.83544">
        <ele>1414.633</ele>
        <time>2015-08-24T07:50:09Z</time>
      </trkpt>
      <trkpt lat="44.59772" lon="3.83359">
        <ele>1419.537</ele>
        <time>2015-08-24T07:50:29Z</time>
      </trkpt>
      <trkpt lat="44.59737" lon="3.83078">
        <ele>1436.849</ele>
        <time>2015-08-24T07:50:49Z</time>
      </trkpt>
      <trkpt lat="44.59702" lon="3.82992">
        <ele>1439.713</ele>
        <time>2015-08-24T07:51:09Z</time>
      </trkpt>
      <trkpt lat="44.59678" lon="3.82956">
        <ele>1441.608</ele>
        <time>2015-08-24T07:51:29Z</time>
      </trkpt>
      <trkpt lat="44.59633" lon="3.82857">
        <ele>1441.129</ele>
        <time>2015-08-24T07:51:49Z</time>
      </trkpt>
      <trkpt lat="44.59657" lon="3.82804">
        <ele>1441.414</ele>
        <time>2015-08-24T07:52:09Z</time>
      </trkpt>
      <trkpt lat="44.59672" lon="3.82691">
        <ele>1440.965</ele>
        <time>2015-08-24T07:52:29Z</time>
      </trkpt>
      <trkpt lat="44.59673" lon="3.8266">
        <ele>1441.68</ele>
        <time>2015-08-24T07:52:49Z</time>
      </trkpt>
      <trkpt lat="44.59691" lon="3.82583">
        <ele>1441.099</ele>
        <time>2015-08-24T07:53:09Z</time>
      </trkpt>
      <trkpt lat="44.597" lon="3.82455">
        <ele>1446.352</ele>
        <time>2015-08-24T07:53:29Z</time>
      </trkpt>
      <trkpt lat="44.59713" lon="3.82363">
        <ele>1445.439</ele>
        <time>2015-08-24T07:53:49Z</time>
      </trkpt>
      <trkpt lat="44.59699" lon="3.82273">
        <ele>1446.013</ele>
        <time>2015-08-24T07:54:09Z</time>
      </trkpt>
      <trkpt lat="44.59683" lon="3.82223">
        <ele>1448.488</ele>
        <time>2015-08-24T07:54:29Z</time>
      </trkpt>
      <trkpt lat="44.59672" lon="3.82169">
        <ele>1450.424</ele>
        <time>2015-08-24T07:54:49Z</time>
      </trkpt>
      <trkpt lat="44.59663" lon="3.82108">
        <ele>1453.126</ele>
        <time>2015-08-24T07:55:09Z</time>
      </trkpt>
      <trkpt lat="44.59646" lon="3.82072">
        <ele>1455.208</ele>
        <time>2015-08-24T07:55:29Z</time>
      </trkpt>
      <trkpt lat="44.59636" lon="3.82037">
        <ele>1458.534</ele>
        <time>2015-08-24T07:55:49Z</time>
      </trkpt>
      <trkpt lat="44.59633" lon="3.82016">
        <ele>1459.749</ele>
        <time>2015-08-24T07:56:09Z</time>
      </trkpt>
      <trkpt lat="44.59617" lon="3.81979">
        <ele>1462.91</ele>
        <time>2015-08-24T07:56:29Z</time>
      </trkpt>
      <trkpt lat="44.59594" lon="3.81908">
        <ele>1468.435</ele>
        <time>2015-08-24T07:56:49Z</time>
      </trkpt>
      <trkpt lat="44.59568" lon="3.81883">
        <ele>1469.444</ele>
        <time>2015-08-24T07:57:09Z</time>
      </trkpt>
      <trkpt lat="44.59543" lon="3.81825">
        <ele>1470.287</ele>
        <time>2015-08-24T07:57:29Z</time>
      </trkpt>
      <trkpt lat="44.59522" lon="3.81752">
        <ele>1474.424</ele>
        <time>2015-08-24T07:57:49Z</time>
      </trkpt>
      <trkpt lat="44.59495" lon="3.81681">
        <ele>1476.668</ele>
        <time>2015-08-24T07:58:09Z</time>
      </trkpt>
      <trkpt lat="44.59477" lon="3.8162">
        <ele>1475.687</ele>
        <time>2015-08-24T07:58:29Z</time>
      </trkpt>
      <trkpt lat="44.59461" lon="3.81571">
        <ele>1475.142</ele>
        <time>2015-08-24T07:58:49Z</time>
      </trkpt>
      <trkpt lat="44.59446" lon="3.81511">
        <ele>1469.826</ele>
        <time>2015-08-24T07:59:09Z</time>
      </trkpt>
      <trkpt lat="44.59436" lon="3.81453">
        <ele>1467.308</ele>
        <time>2015-08-24T07:59:29Z</time>
      </trkpt>
      <trkpt lat="44.59437" lon="3.81416">
        <ele>1466.774</ele>
        <time>2015-08-24T07:59:49Z</time>
      </trkpt>
      <trkpt lat="44.59449" lon="3.81354">
        <ele>1464.049</ele>
        <time>2015-08-24T08:00:09Z</time>
      </trkpt>
      <trkpt lat="44.59451" lon="3.81268">
        <ele>1465.16</ele>
        <time>2015-08-24T08:00:29Z</time>
      </trkpt>
      <trkpt lat="44.59444" lon="3.81255">
        <ele>1465.185</ele>
        <time>2015-08-24T08:00:49Z</time>
      </trkpt>
      <trkpt lat="44.59445" lon="3.81225">
        <ele>1463.264</ele>
        <time>2015-08-24T08:01:09Z</time>
      </trkpt>
      <trkpt lat="44.59429" lon="3.81153">
        <ele>1462.577</ele>
        <time>2015-08-24T08:01:29Z</time>
      </trkpt>
      <trkpt lat="44.59417" lon="3.81057">
        <ele>1464.944</ele>
        <time>2015-08-24T08:01:49Z</time>
      </trkpt>
      <trkpt lat="44.59388" lon="3.80947">
        <ele>1463.958</ele>
        <time>2015-08-24T08:02:09Z</time>
      </trkpt>
      <trkpt lat="44.59393" lon="3.80824">
        <ele>1471.739</ele>
        <time>2015-08-24T08:02:29Z</time>
      </trkpt>
      <trkpt lat="44.59389" lon="3.80786">
        <ele>1472.101</ele>
        <time>2015-08-24T08:02:49Z</time>
      </trkpt>
      <trkpt lat="44.5939" lon="3.80668">
        <ele>1475.221</ele>
        <time>2015-08-24T08:03:09Z</time>
      </trkpt>
      <trkpt lat="44.59356" lon="3.80508">
        <ele>1471.408</ele>
        <time>2015-08-24T08:03:29Z</time>
      </trkpt>
      <trkpt lat="44.5932" lon="3.80444">
        <ele>1475.059</ele>
        <time>2015-08-24T08:03:49Z</time>
      </trkpt>
      <trkpt lat="44.59286" lon="3.80406">
        <ele>1476.494</ele>
        <time>2015-08-24T08:04:09Z</time>
      </trkpt>
      <trkpt lat="44.59231" lon="3.80361">
        <ele>1482.065</ele>
        <time>2015-08-24T08:04:29Z</time>
      </trkpt>
      <trkpt lat="44.59188" lon="3.80316">
        <ele>1485.63</ele>
        <time>2015-08-24T08:04:49Z</time>
      </trkpt>
      <trkpt lat="44.59168" lon="3.80285">
        <ele>1486.769</ele>
        <time>2015-08-24T08:05:09Z</time>
      </trkpt>
      <trkpt lat="44.59152" lon="3.8021">
        <ele>1482.782</ele>
        <time>2015-08-24T08:05:29Z</time>
      </trkpt>
      <trkpt lat="44.59111" lon="3.8008">
        <ele>1476.049</ele>
        <time>2015-08-24T08:05:49Z</time>
      </trkpt>
      <trkpt lat="44.59077" lon="3.80008">
        <ele>1474.313</ele>
        <time>2015-08-24T08:06:09Z</time>
      </trkpt>
      <trkpt lat="44.5904" lon="3.79963">
        <ele>1474.468</ele>
        <time>2015-08-24T08:06:29Z</time>
      </trkpt>
      <trkpt lat="44.5899" lon="3.79871">
        <ele>1474.242</ele>
        <time>2015-08-24T08:06:49Z</time>
      </trkpt>
      <trkpt lat="44.58952" lon="3.79809">
        <ele>1475.226</ele>
        <time>2015-08-24T08:07:09Z</time>
      </trkpt>
      <trkpt lat="44.5894" lon="3.79785">
        <ele>1474.208</ele>
        <time>2015-08-24T08:07:29Z</time>
      </trkpt>
      <trkpt lat="44.58933" lon="3.79739">
        <ele>1472.992</ele>
        <time>2015-08-24T08:07:49Z</time>
      </trkpt>
      <trkpt lat="44.58937" lon="3.79684">
        <ele>1473.777</ele>
        <time>2015-08-24T08:08:09Z</time>
      </trkpt>
      <trkpt lat="44.5893" lon="3.7961">
        <ele>1477.158</ele>
        <time>2015-08-24T08:08:29Z</time>
      </trkpt>
      <trkpt lat="44.589" lon="3.79496">
        <ele>1474.613</ele>
        <time>2015-08-24T08:08:49Z</time>
      </trkpt>
      <trkpt lat="44.58899" lon="3.79321">
        <ele>1474.142</ele>
        <time>2015-08-24T08:09:09Z</time>
      </trkpt>
      <trkpt lat="44.58886" lon="3.79242">
        <ele>1475.125</ele>
        <time>2015-08-24T08:09:29Z</time>
      </trkpt>
      <trkpt lat="44.58874" lon="3.79194">
        <ele>1476.522</ele>
        <time>2015-08-24T08:09:49Z</time>
      </trkpt>
      <trkpt lat="44.58859" lon="3.79156">
        <ele>1476.876</ele>
        <time>2015-08-24T08:10:09Z</time>
      </trkpt>
      <trkpt lat="44.58847" lon="3.79104">
        <ele>1476.887</ele>
        <time>2015-08-24T08:10:29Z</time>
      </trkpt>
      <trkpt lat="44.58843" lon="3.79058">
        <ele>1477.742</ele>
        <time>2015-08-24T08:10:49Z</time>
      </trkpt>
      <trkpt lat="44.5883" lon="3.78975">
        <ele>1480.426</ele>
        <time>2015-08-24T08:11:09Z</time>
      </trkpt>
      <trkpt lat="44.58818" lon="3.78918">
        <ele>1481.308</ele>
        <time>2015-08-24T08:11:29Z</time>
      </trkpt>
      <trkpt lat="44.588" lon="3.78865">
        <ele>1480.134</ele>
        <time>2015-08-24T08:11:49Z</time>
      </trkpt>
      <trkpt lat="44.58716" lon="3.78677">
        <ele>1473.139</ele>
        <time>2015-08-24T08:12:09Z</time>
      </trkpt>
      <trkpt lat="44.58696" lon="3.78643">
        <ele>1469.45</ele>
        <time>2015-08-24T08:12:29Z</time>
      </trkpt>
      <trkpt lat="44.58665" lon="3.78627">
        <ele>1463.915</ele>
        <time>2015-08-24T08:12:49Z</time>
      </trkpt>
      <trkpt lat="44.58632" lon="3.78599">
        <ele>1459.334</ele>
        <time>2015-08-24T08:13:09Z</time>
      </trkpt>
      <trkpt lat="44.58571" lon="3.78504">
        <ele>1450.857</ele>
        <time>2020-11-30T08:52:08Z</time>
      </trkpt>
      <trkpt lat="44.58476" lon="3.78359">
        <ele>1436.934</ele>
        <time>2020-11-30T08:52:28Z</time>
      </trkpt>
      <trkpt lat="44.58317" lon="3.78159">
        <ele>1419.458</ele>
        <time>2020-11-30T08:52:48Z</time>
      </trkpt>
      <trkpt lat="44.58277" lon="3.78083">
        <ele>1416.081</ele>
        <time>2020-11-30T08:53:08Z</time>
      </trkpt>
      <trkpt lat="44.58219" lon="3.78104">
        <ele>1415.861</ele>
        <time>2020-11-30T08:53:28Z</time>
      </trkpt>
      <trkpt lat="44.58184" lon="3.78092">
        <ele>1414.017</ele>
        <time>2020-11-30T08:53:48Z</time>
      </trkpt>
      <trkpt lat="44.58128" lon="3.7812">
        <ele>1411.208</ele>
        <time>2020-11-30T08:54:08Z</time>
      </trkpt>
      <trkpt lat="44.57865" lon="3.77833">
        <ele>1374.054</ele>
        <time>2020-11-30T08:54:28Z</time>
      </trkpt>
      <trkpt lat="44.57768" lon="3.77676">
        <ele>1362.129</ele>
        <time>2020-11-30T08:54:48Z</time>
      </trkpt>
      <trkpt lat="44.57775" lon="3.77591">
        <ele>1359.12</ele>
        <time>2019-03-28T17:13:37Z</time>
      </trkpt>
      <trkpt lat="44.57776" lon="3.77581">
        <ele>1358.825</ele>
        <time>2015-08-24T08:20:09Z</time>
      </trkpt>
      <trkpt lat="44.57764" lon="3.77537">
        <ele>1356.874</ele>
        <time>2015-08-24T08:20:29Z</time>
      </trkpt>
      <trkpt lat="44.57708" lon="3.77439">
        <ele>1351.397</ele>
        <time>2015-08-24T08:20:49Z</time>
      </trkpt>
      <trkpt lat="44.5771" lon="3.77427">
        <ele>1351.064</ele>
        <time>2015-08-24T08:21:09Z</time>
      </trkpt>
      <trkpt lat="44.57742" lon="3.77381">
        <ele>1351.238</ele>
        <time>2015-08-24T08:21:29Z</time>
      </trkpt>
      <trkpt lat="44.57779" lon="3.77312">
        <ele>1345.435</ele>
        <time>2015-08-24T08:21:49Z</time>
      </trkpt>
      <trkpt lat="44.57813" lon="3.77209">
        <ele>1338.486</ele>
        <time>2015-08-24T08:22:09Z</time>
      </trkpt>
      <trkpt lat="44.57865" lon="3.77143">
        <ele>1327.514</ele>
        <time>2015-08-24T08:22:29Z</time>
      </trkpt>
      <trkpt lat="44.57865" lon="3.77062">
        <ele>1318.408</ele>
        <time>2015-08-24T08:22:49Z</time>
      </trkpt>
      <trkpt lat="44.57848" lon="3.76993">
        <ele>1309.139</ele>
        <time>2015-08-24T08:23:09Z</time>
      </trkpt>
      <trkpt lat="44.57821" lon="3.76925">
        <ele>1302.174</ele>
        <time>2015-08-24T08:23:29Z</time>
      </trkpt>
      <trkpt lat="44.57819" lon="3.76846">
        <ele>1289.245</ele>
        <time>2015-08-24T08:23:49Z</time>
      </trkpt>
      <trkpt lat="44.57741" lon="3.76528">
        <ele>1267.02</ele>
        <time>2015-08-24T08:24:09Z</time>
      </trkpt>
      <trkpt lat="44.5773" lon="3.76369">
        <ele>1264.279</ele>
        <time>2015-08-24T08:24:29Z</time>
      </trkpt>
      <trkpt lat="44.57711" lon="3.76194">
        <ele>1259.682</ele>
        <time>2015-08-24T08:24:49Z</time>
      </trkpt>
      <trkpt lat="44.57735" lon="3.76206">
        <ele>1259.899</ele>
        <time>2015-08-24T08:25:09Z</time>
      </trkpt>
      <trkpt lat="44.57759" lon="3.76163">
        <ele>1257.733</ele>
        <time>2015-08-24T08:25:29Z</time>
      </trkpt>
      <trkpt lat="44.57738" lon="3.76106">
        <ele>1258.456</ele>
        <time>2015-08-24T08:25:49Z</time>
      </trkpt>
      <trkpt lat="44.57647" lon="3.75959">
        <ele>1255.359</ele>
        <time>2015-08-24T08:26:09Z</time>
      </trkpt>
      <trkpt lat="44.57511" lon="3.75859">
        <ele>1247.814</ele>
        <time>2015-08-24T08:26:29Z</time>
      </trkpt>
      <trkpt lat="44.57463" lon="3.75826">
        <ele>1246.808</ele>
        <time>2015-08-24T08:26:49Z</time>
      </trkpt>
      <trkpt lat="44.57387" lon="3.758">
        <ele>1243.991</ele>
        <time>2015-08-24T08:27:09Z</time>
      </trkpt>
      <trkpt lat="44.57357" lon="3.75787">
        <ele>1241.866</ele>
        <time>2015-08-24T08:27:29Z</time>
      </trkpt>
      <trkpt lat="44.57248" lon="3.75762">
        <ele>1234.127</ele>
        <time>2015-08-24T08:27:49Z</time>
      </trkpt>
      <trkpt lat="44.57219" lon="3.75735">
        <ele>1229.972</ele>
        <time>2015-08-24T08:28:09Z</time>
      </trkpt>
      <trkpt lat="44.57148" lon="3.75721">
        <ele>1217.421</ele>
        <time>2015-08-24T08:28:29Z</time>
      </trkpt>
      <trkpt lat="44.57129" lon="3.75689">
        <ele>1214.854</ele>
        <time>2015-08-24T08:28:49Z</time>
      </trkpt>
      <trkpt lat="44.57096" lon="3.75685">
        <ele>1206.171</ele>
        <time>2015-08-24T08:29:09Z</time>
      </trkpt>
      <trkpt lat="44.57077" lon="3.75734">
        <ele>1201.495</ele>
        <time>2015-08-24T08:29:29Z</time>
      </trkpt>
      <trkpt lat="44.57035" lon="3.75762">
        <ele>1192.345</ele>
        <time>2015-08-24T08:29:49Z</time>
      </trkpt>
      <trkpt lat="44.57007" lon="3.75749">
        <ele>1186.547</ele>
        <time>2015-08-24T08:30:09Z</time>
      </trkpt>
      <trkpt lat="44.56989" lon="3.75718">
        <ele>1183.411</ele>
        <time>2015-08-24T08:30:29Z</time>
      </trkpt>
      <trkpt lat="44.56999" lon="3.75664">
        <ele>1184.008</ele>
        <time>2015-08-24T08:30:49Z</time>
      </trkpt>
      <trkpt lat="44.56965" lon="3.75627">
        <ele>1180.12</ele>
        <time>2015-08-24T08:31:09Z</time>
      </trkpt>
      <trkpt lat="44.56897" lon="3.75604">
        <ele>1175.815</ele>
        <time>2015-08-24T08:31:29Z</time>
      </trkpt>
      <trkpt lat="44.5684" lon="3.75568">
        <ele>1172.396</ele>
        <time>2015-08-24T08:31:49Z</time>
      </trkpt>
      <trkpt lat="44.56798" lon="3.7545">
        <ele>1172.721</ele>
        <time>2015-08-24T08:32:09Z</time>
      </trkpt>
      <trkpt lat="44.56767" lon="3.75439">
        <ele>1170.24</ele>
        <time>2015-08-24T08:32:29Z</time>
      </trkpt>
      <trkpt lat="44.56801" lon="3.75511">
        <ele>1171.033</ele>
        <time>2015-08-24T08:32:49Z</time>
      </trkpt>
      <trkpt lat="44.56828" lon="3.7562">
        <ele>1168.75</ele>
        <time>2015-08-24T08:33:09Z</time>
      </trkpt>
      <trkpt lat="44.5682" lon="3.75649">
        <ele>1166.374</ele>
        <time>2015-08-24T08:33:29Z</time>
      </trkpt>
      <trkpt lat="44.56798" lon="3.75687">
        <ele>1164.314</ele>
        <time>2015-08-24T08:33:49Z</time>
      </trkpt>
      <trkpt lat="44.56753" lon="3.75682">
        <ele>1163.254</ele>
        <time>2015-08-24T08:34:09Z</time>
      </trkpt>
      <trkpt lat="44.5672" lon="3.75664">
        <ele>1162.209</ele>
        <time>2015-08-24T08:34:29Z</time>
      </trkpt>
      <trkpt lat="44.56707" lon="3.75648">
        <ele>1163.408</ele>
        <time>2015-08-24T08:34:49Z</time>
      </trkpt>
      <trkpt lat="44.56683" lon="3.75642">
        <ele>1167.967</ele>
        <time>2015-08-24T08:35:09Z</time>
      </trkpt>
      <trkpt lat="44.56626" lon="3.75655">
        <ele>1176.712</ele>
        <time>2015-08-24T08:35:29Z</time>
      </trkpt>
      <trkpt lat="44.56557" lon="3.75646">
        <ele>1185.513</ele>
        <time>2015-08-24T08:35:49Z</time>
      </trkpt>
      <trkpt lat="44.56505" lon="3.75633">
        <ele>1189.098</ele>
        <time>2015-08-24T08:36:09Z</time>
      </trkpt>
      <trkpt lat="44.56426" lon="3.75607">
        <ele>1192.057</ele>
        <time>2015-08-24T08:36:29Z</time>
      </trkpt>
      <trkpt lat="44.56364" lon="3.75607">
        <ele>1191.82</ele>
        <time>2015-08-24T08:36:49Z</time>
      </trkpt>
      <trkpt lat="44.5631" lon="3.75597">
        <ele>1193.387</ele>
        <time>2015-08-24T08:37:09Z</time>
      </trkpt>
      <trkpt lat="44.56269" lon="3.75594">
        <ele>1194.641</ele>
        <time>2015-08-24T08:37:29Z</time>
      </trkpt>
      <trkpt lat="44.56214" lon="3.75582">
        <ele>1195.754</ele>
        <time>2015-08-24T08:37:49Z</time>
      </trkpt>
      <trkpt lat="44.56117" lon="3.75529">
        <ele>1194.856</ele>
        <time>2015-08-24T08:38:09Z</time>
      </trkpt>
      <trkpt lat="44.56193" lon="3.75407">
        <ele>1189.111</ele>
        <time>2015-08-24T08:38:29Z</time>
      </trkpt>
      <trkpt lat="44.56181" lon="3.75392">
        <ele>1189.508</ele>
        <time>2015-08-24T08:38:49Z</time>
      </trkpt>
      <trkpt lat="44.5616" lon="3.75301">
        <ele>1193.271</ele>
        <time>2015-08-24T08:39:09Z</time>
      </trkpt>
      <trkpt lat="44.56181" lon="3.75252">
        <ele>1192.896</ele>
        <time>2015-08-24T08:39:29Z</time>
      </trkpt>
      <trkpt lat="44.56217" lon="3.7522">
        <ele>1193.577</ele>
        <time>2015-08-24T08:39:49Z</time>
      </trkpt>
      <trkpt lat="44.56233" lon="3.75156">
        <ele>1192.612</ele>
        <time>2015-08-24T08:40:09Z</time>
      </trkpt>
      <trkpt lat="44.56245" lon="3.7505">
        <ele>1192.841</ele>
        <time>2015-08-24T08:40:29Z</time>
      </trkpt>
      <trkpt lat="44.56297" lon="3.74754">
        <ele>1189.214</ele>
        <time>2015-08-24T08:41:09Z</time>
      </trkpt>
      <trkpt lat="44.56299" lon="3.74603">
        <ele>1192.541</ele>
        <time>2015-08-24T08:41:29Z</time>
      </trkpt>
      <trkpt lat="44.56346" lon="3.74508">
        <ele>1192.765</ele>
        <time>2015-08-24T08:41:49Z</time>
      </trkpt>
      <trkpt lat="44.5632" lon="3.74413">
        <ele>1193.954</ele>
        <time>2015-08-24T08:42:09Z</time>
      </trkpt>
      <trkpt lat="44.56287" lon="3.74333">
        <ele>1192.756</ele>
        <time>2015-08-24T08:42:29Z</time>
      </trkpt>
      <trkpt lat="44.56222" lon="3.74204">
        <ele>1186.111</ele>
        <time>2019-03-28T17:36:37Z</time>
      </trkpt>
      <trkpt lat="44.56179" lon="3.7422">
        <ele>1189.408</ele>
        <time>2020-11-30T09:18:08Z</time>
      </trkpt>
      <trkpt lat="44.56118" lon="3.74132">
        <ele>1192.241</ele>
        <time>2020-11-30T09:18:28Z</time>
      </trkpt>
      <trkpt lat="44.5605" lon="3.73992">
        <ele>1191.546</ele>
        <time>2020-11-30T09:18:48Z</time>
      </trkpt>
      <trkpt lat="44.55971" lon="3.73864">
        <ele>1191.477</ele>
        <time>2020-11-30T09:19:08Z</time>
      </trkpt>
      <trkpt lat="44.55853" lon="3.73773">
        <ele>1191.982</ele>
        <time>2020-11-30T09:19:28Z</time>
      </trkpt>
      <trkpt lat="44.55809" lon="3.73771">
        <ele>1192.421</ele>
        <time>2020-11-30T09:19:48Z</time>
      </trkpt>
      <trkpt lat="44.5576" lon="3.73842">
        <ele>1197.584</ele>
        <time>2020-11-30T09:20:08Z</time>
      </trkpt>
      <trkpt lat="44.55708" lon="3.73816">
        <ele>1201.731</ele>
        <time>2020-11-30T09:20:28Z</time>
      </trkpt>
      <trkpt lat="44.55699" lon="3.73769">
        <ele>1206.765</ele>
        <time>2020-11-30T09:20:48Z</time>
      </trkpt>
      <trkpt lat="44.55702" lon="3.73705">
        <ele>1203.087</ele>
        <time>2020-11-30T09:21:08Z</time>
      </trkpt>
      <trkpt lat="44.55688" lon="3.73662">
        <ele>1205.542</ele>
        <time>2020-11-30T09:21:28Z</time>
      </trkpt>
      <trkpt lat="44.55636" lon="3.73615">
        <ele>1207.226</ele>
        <time>2020-11-30T09:21:48Z</time>
      </trkpt>
      <trkpt lat="44.55584" lon="3.73615">
        <ele>1205.208</ele>
        <time>2020-11-30T09:22:08Z</time>
      </trkpt>
      <trkpt lat="44.55491" lon="3.7364">
        <ele>1211.634</ele>
        <time>2020-11-30T09:22:28Z</time>
      </trkpt>
      <trkpt lat="44.55437" lon="3.7367">
        <ele>1212.889</ele>
        <time>2020-11-30T09:22:48Z</time>
      </trkpt>
      <trkpt lat="44.55372" lon="3.7364">
        <ele>1215.76</ele>
        <time>2020-11-30T09:23:08Z</time>
      </trkpt>
      <trkpt lat="44.55291" lon="3.73578">
        <ele>1229.155</ele>
        <time>2020-11-30T09:23:28Z</time>
      </trkpt>
      <trkpt lat="44.55229" lon="3.73479">
        <ele>1224.844</ele>
        <time>2020-11-30T09:23:48Z</time>
      </trkpt>
      <trkpt lat="44.55182" lon="3.73471">
        <ele>1227.497</ele>
        <time>2020-11-30T09:24:08Z</time>
      </trkpt>
      <trkpt lat="44.55142" lon="3.73494">
        <ele>1226.614</ele>
        <time>2020-11-30T09:24:28Z</time>
      </trkpt>
      <trkpt lat="44.55087" lon="3.73587">
        <ele>1233.898</ele>
        <time>2020-11-30T09:24:48Z</time>
      </trkpt>
      <trkpt lat="44.55005" lon="3.73679">
        <ele>1237.854</ele>
        <time>2020-11-30T09:25:08Z</time>
      </trkpt>
      <trkpt lat="44.54986" lon="3.73649">
        <ele>1240.956</ele>
        <time>2020-11-30T09:25:28Z</time>
      </trkpt>
      <trkpt lat="44.55035" lon="3.73552">
        <ele>1239.011</ele>
        <time>2020-11-30T09:25:48Z</time>
      </trkpt>
      <trkpt lat="44.55038" lon="3.7349">
        <ele>1237.008</ele>
        <time>2020-11-30T09:26:08Z</time>
      </trkpt>
      <trkpt lat="44.55009" lon="3.73458">
        <ele>1239.841</ele>
        <time>2020-11-30T09:26:28Z</time>
      </trkpt>
      <trkpt lat="44.54839" lon="3.73323">
        <ele>1249.916</ele>
        <time>2020-11-30T09:26:48Z</time>
      </trkpt>
      <trkpt lat="44.5479" lon="3.7334">
        <ele>1256.457</ele>
        <time>2020-11-30T09:27:08Z</time>
      </trkpt>
      <trkpt lat="44.54752" lon="3.73284">
        <ele>1254.472</ele>
        <time>2020-11-30T09:27:28Z</time>
      </trkpt>
      <trkpt lat="44.54714" lon="3.73258">
        <ele>1262.221</ele>
        <time>2020-11-30T09:27:48Z</time>
      </trkpt>
      <trkpt lat="44.54716" lon="3.73188">
        <ele>1265.164</ele>
        <time>2020-11-30T09:28:08Z</time>
      </trkpt>
      <trkpt lat="44.54766" lon="3.73119">
        <ele>1264.461</ele>
        <time>2020-11-30T09:28:28Z</time>
      </trkpt>
      <trkpt lat="44.54751" lon="3.73042">
        <ele>1264.945</ele>
        <time>2020-11-30T09:28:48Z</time>
      </trkpt>
      <trkpt lat="44.54726" lon="3.73031">
        <ele>1268.433</ele>
        <time>2020-11-30T09:29:08Z</time>
      </trkpt>
      <trkpt lat="44.54652" lon="3.731">
        <ele>1280.223</ele>
        <time>2015-08-24T08:58:09Z</time>
      </trkpt>
      <trkpt lat="44.54646" lon="3.73102">
        <ele>1281.415</ele>
        <time>2015-08-24T08:58:29Z</time>
      </trkpt>
      <trkpt lat="44.546" lon="3.73106">
        <ele>1285.708</ele>
        <time>2015-08-24T08:58:49Z</time>
      </trkpt>
      <trkpt lat="44.54573" lon="3.73117">
        <ele>1287.979</ele>
        <time>2015-08-24T08:59:09Z</time>
      </trkpt>
      <trkpt lat="44.54554" lon="3.73174">
        <ele>1290.694</ele>
        <time>2015-08-24T08:59:29Z</time>
      </trkpt>
      <trkpt lat="44.54482" lon="3.73269">
        <ele>1305.195</ele>
        <time>2015-08-24T08:59:49Z</time>
      </trkpt>
      <trkpt lat="44.54456" lon="3.73281">
        <ele>1307.95</ele>
        <time>2015-08-24T09:00:09Z</time>
      </trkpt>
      <trkpt lat="44.54393" lon="3.73372">
        <ele>1325.249</ele>
        <time>2015-08-24T09:00:29Z</time>
      </trkpt>
      <trkpt lat="44.54285" lon="3.73422">
        <ele>1344.532</ele>
        <time>2015-08-24T09:00:49Z</time>
      </trkpt>
      <trkpt lat="44.54182" lon="3.73463">
        <ele>1359.329</ele>
        <time>2015-08-24T09:01:09Z</time>
      </trkpt>
      <trkpt lat="44.54076" lon="3.73563">
        <ele>1369.323</ele>
        <time>2015-08-24T09:01:29Z</time>
      </trkpt>
      <trkpt lat="44.5403" lon="3.73585">
        <ele>1371.068</ele>
        <time>2015-08-24T09:01:49Z</time>
      </trkpt>
      <trkpt lat="44.53966" lon="3.73675">
        <ele>1378.542</ele>
        <time>2015-08-24T09:02:09Z</time>
      </trkpt>
      <trkpt lat="44.53897" lon="3.73704">
        <ele>1385.226</ele>
        <time>2015-08-24T09:02:29Z</time>
      </trkpt>
      <trkpt lat="44.53888" lon="3.7375">
        <ele>1386.208</ele>
        <time>2015-08-24T09:02:49Z</time>
      </trkpt>
      <trkpt lat="44.53921" lon="3.73927">
        <ele>1398.422</ele>
        <time>2015-08-24T09:03:09Z</time>
      </trkpt>
      <trkpt lat="44.53924" lon="3.73998">
        <ele>1406.717</ele>
        <time>2015-08-24T09:03:29Z</time>
      </trkpt>
      <trkpt lat="44.53903" lon="3.74059">
        <ele>1413.648</ele>
        <time>2015-08-24T09:03:49Z</time>
      </trkpt>
      <trkpt lat="44.53852" lon="3.74119">
        <ele>1418.843</ele>
        <time>2015-08-24T09:04:09Z</time>
      </trkpt>
      <trkpt lat="44.53806" lon="3.74178">
        <ele>1422.992</ele>
        <time>2015-08-24T09:04:29Z</time>
      </trkpt>
      <trkpt lat="44.53764" lon="3.74202">
        <ele>1425.915</ele>
        <time>2015-08-24T09:04:49Z</time>
      </trkpt>
      <trkpt lat="44.5375" lon="3.74233">
        <ele>1428.432</ele>
        <time>2015-08-24T09:05:09Z</time>
      </trkpt>
      <trkpt lat="44.53706" lon="3.74179">
        <ele>1427.636</ele>
        <time>2015-08-24T09:05:29Z</time>
      </trkpt>
      <trkpt lat="44.53684" lon="3.74094">
        <ele>1429.529</ele>
        <time>2015-08-24T09:05:49Z</time>
      </trkpt>
      <trkpt lat="44.53636" lon="3.74022">
        <ele>1433.9</ele>
        <time>2015-08-24T09:06:09Z</time>
      </trkpt>
      <trkpt lat="44.53588" lon="3.73845">
        <ele>1431.72</ele>
        <time>2015-08-24T09:06:29Z</time>
      </trkpt>
      <trkpt lat="44.53566" lon="3.73781">
        <ele>1433.208</ele>
        <time>2015-08-24T09:06:49Z</time>
      </trkpt>
      <trkpt lat="44.53488" lon="3.73468">
        <ele>1420.058</ele>
        <time>2015-08-24T09:07:09Z</time>
      </trkpt>
      <trkpt lat="44.53469" lon="3.73409">
        <ele>1417.073</ele>
        <time>2015-08-24T09:07:29Z</time>
      </trkpt>
      <trkpt lat="44.53464" lon="3.73355">
        <ele>1414.334</ele>
        <time>2015-08-24T09:07:49Z</time>
      </trkpt>
      <trkpt lat="44.53421" lon="3.73198">
        <ele>1406.749</ele>
        <time>2015-08-24T09:08:09Z</time>
      </trkpt>
      <trkpt lat="44.53396" lon="3.73156">
        <ele>1405.018</ele>
        <time>2015-08-24T09:08:29Z</time>
      </trkpt>
      <trkpt lat="44.53366" lon="3.73116">
        <ele>1403.261</ele>
        <time>2015-08-24T09:08:49Z</time>
      </trkpt>
      <trkpt lat="44.53306" lon="3.73025">
        <ele>1400.178</ele>
        <time>2015-08-24T09:09:09Z</time>
      </trkpt>
      <trkpt lat="44.53252" lon="3.72972">
        <ele>1399.132</ele>
        <time>2015-08-24T09:09:29Z</time>
      </trkpt>
      <trkpt lat="44.53207" lon="3.72933">
        <ele>1396.472</ele>
        <time>2015-08-24T09:09:49Z</time>
      </trkpt>
      <trkpt lat="44.53121" lon="3.72905">
        <ele>1391.013</ele>
        <time>2015-08-24T09:10:09Z</time>
      </trkpt>
      <trkpt lat="44.53029" lon="3.72918">
        <ele>1380.114</ele>
        <time>2015-08-24T09:10:29Z</time>
      </trkpt>
      <trkpt lat="44.52961" lon="3.72945">
        <ele>1372.108</ele>
        <time>2015-08-24T09:10:49Z</time>
      </trkpt>
      <trkpt lat="44.52778" lon="3.72944">
        <ele>1358.023</ele>
        <time>2015-08-24T09:11:09Z</time>
      </trkpt>
      <trkpt lat="44.52727" lon="3.72968">
        <ele>1355.338</ele>
        <time>2015-08-24T09:11:29Z</time>
      </trkpt>
      <trkpt lat="44.5266" lon="3.73021">
        <ele>1352.359</ele>
        <time>2015-08-24T09:11:49Z</time>
      </trkpt>
      <trkpt lat="44.52613" lon="3.73028">
        <ele>1351.154</ele>
        <time>2015-08-24T09:12:09Z</time>
      </trkpt>
      <trkpt lat="44.52545" lon="3.7306">
        <ele>1347.133</ele>
        <time>2015-08-24T09:12:29Z</time>
      </trkpt>
      <trkpt lat="44.5241" lon="3.73141">
        <ele>1337.376</ele>
        <time>2015-08-24T09:12:49Z</time>
      </trkpt>
      <trkpt lat="44.52338" lon="3.73198">
        <ele>1333.053</ele>
        <time>2015-08-24T09:13:09Z</time>
      </trkpt>
      <trkpt lat="44.52269" lon="3.73205">
        <ele>1331.417</ele>
        <time>2015-08-24T09:13:29Z</time>
      </trkpt>
      <trkpt lat="44.5214" lon="3.73143">
        <ele>1328.418</ele>
        <time>2015-08-24T09:13:49Z</time>
      </trkpt>
      <trkpt lat="44.52054" lon="3.73125">
        <ele>1325.498</ele>
        <time>2015-08-24T09:14:09Z</time>
      </trkpt>
      <trkpt lat="44.51896" lon="3.73034">
        <ele>1308.917</ele>
        <time>2015-08-24T09:14:29Z</time>
      </trkpt>
      <trkpt lat="44.51724" lon="3.72871">
        <ele>1291.808</ele>
        <time>2015-08-24T09:14:49Z</time>
      </trkpt>
      <trkpt lat="44.51624" lon="3.72799">
        <ele>1282.177</ele>
        <time>2015-08-24T09:15:09Z</time>
      </trkpt>
      <trkpt lat="44.51534" lon="3.7277">
        <ele>1275.062</ele>
        <time>2015-08-24T09:15:29Z</time>
      </trkpt>
      <trkpt lat="44.51466" lon="3.72769">
        <ele>1270.443</ele>
        <time>2015-08-24T09:15:49Z</time>
      </trkpt>
      <trkpt lat="44.51429" lon="3.72787">
        <ele>1265.748</ele>
        <time>2015-08-24T09:16:09Z</time>
      </trkpt>
      <trkpt lat="44.51337" lon="3.72813">
        <ele>1255.387</ele>
        <time>2015-08-24T09:16:29Z</time>
      </trkpt>
      <trkpt lat="44.51286" lon="3.72821">
        <ele>1252.68</ele>
        <time>2015-08-24T09:16:49Z</time>
      </trkpt>
      <trkpt lat="44.51243" lon="3.72863">
        <ele>1248.127</ele>
        <time>2015-08-24T09:17:09Z</time>
      </trkpt>
      <trkpt lat="44.51206" lon="3.72916">
        <ele>1238.471</ele>
        <time>2015-08-24T09:17:29Z</time>
      </trkpt>
      <trkpt lat="44.51173" lon="3.72927">
        <ele>1237.292</ele>
        <time>2015-08-24T09:17:49Z</time>
      </trkpt>
      <trkpt lat="44.51138" lon="3.7298">
        <ele>1226.273</ele>
        <time>2015-08-24T09:18:09Z</time>
      </trkpt>
      <trkpt lat="44.51204" lon="3.7303">
        <ele>1215.42</ele>
        <time>2015-08-24T09:18:29Z</time>
      </trkpt>
      <trkpt lat="44.51227" lon="3.73059">
        <ele>1209.008</ele>
        <time>2015-08-24T09:18:49Z</time>
      </trkpt>
      <trkpt lat="44.51292" lon="3.73098">
        <ele>1200.925</ele>
        <time>2015-08-24T09:19:09Z</time>
      </trkpt>
      <trkpt lat="44.5129" lon="3.73138">
        <ele>1195.23</ele>
        <time>2015-08-24T09:19:29Z</time>
      </trkpt>
      <trkpt lat="44.51114" lon="3.73116">
        <ele>1190.071</ele>
        <time>2015-08-24T09:19:49Z</time>
      </trkpt>
      <trkpt lat="44.51044" lon="3.7311">
        <ele>1194.346</ele>
        <time>2015-08-24T09:20:09Z</time>
      </trkpt>
      <trkpt lat="44.50925" lon="3.73069">
        <ele>1191.385</ele>
        <time>2015-08-24T09:20:29Z</time>
      </trkpt>
      <trkpt lat="44.50862" lon="3.73027">
        <ele>1194.298</ele>
        <time>2015-08-24T09:20:49Z</time>
      </trkpt>
      <trkpt lat="44.50782" lon="3.73014">
        <ele>1189.175</ele>
        <time>2015-08-24T09:21:09Z</time>
      </trkpt>
      <trkpt lat="44.50711" lon="3.72971">
        <ele>1182.649</ele>
        <time>2015-08-24T09:21:29Z</time>
      </trkpt>
      <trkpt lat="44.50662" lon="3.72916">
        <ele>1177.126</ele>
        <time>2015-08-24T09:21:49Z</time>
      </trkpt>
      <trkpt lat="44.50613" lon="3.72871">
        <ele>1173.647</ele>
        <time>2015-08-24T09:22:09Z</time>
      </trkpt>
      <trkpt lat="44.50542" lon="3.72841">
        <ele>1167.211</ele>
        <time>2015-08-24T09:22:29Z</time>
      </trkpt>
      <trkpt lat="44.50449" lon="3.72783">
        <ele>1161.808</ele>
        <time>2015-08-24T09:22:49Z</time>
      </trkpt>
      <trkpt lat="44.50305" lon="3.72783">
        <ele>1146.448</ele>
        <time>2015-08-24T09:23:09Z</time>
      </trkpt>
      <trkpt lat="44.50212" lon="3.72798">
        <ele>1134.953</ele>
        <time>2015-08-24T09:23:29Z</time>
      </trkpt>
      <trkpt lat="44.50186" lon="3.72793">
        <ele>1132.684</ele>
        <time>2015-08-24T09:23:49Z</time>
      </trkpt>
      <trkpt lat="44.50049" lon="3.72702">
        <ele>1121.589</ele>
        <time>2015-08-24T09:24:09Z</time>
      </trkpt>
      <trkpt lat="44.50015" lon="3.72674">
        <ele>1111.558</ele>
        <time>2015-08-24T09:24:29Z</time>
      </trkpt>
      <trkpt lat="44.49999" lon="3.72687">
        <ele>1106.581</ele>
        <time>2015-08-24T09:24:49Z</time>
      </trkpt>
      <trkpt lat="44.5" lon="3.72748">
        <ele>1103.178</ele>
        <time>2015-08-24T09:25:09Z</time>
      </trkpt>
      <trkpt lat="44.50084" lon="3.72822">
        <ele>1101.482</ele>
        <time>2015-08-24T09:25:29Z</time>
      </trkpt>
      <trkpt lat="44.5012" lon="3.72847">
        <ele>1103.363</ele>
        <time>2015-08-24T09:25:49Z</time>
      </trkpt>
      <trkpt lat="44.50118" lon="3.72866">
        <ele>1097.444</ele>
        <time>2015-08-24T09:26:09Z</time>
      </trkpt>
      <trkpt lat="44.50079" lon="3.72841">
        <ele>1095.718</ele>
        <time>2015-08-24T09:26:29Z</time>
      </trkpt>
      <trkpt lat="44.50024" lon="3.72821">
        <ele>1089.908</ele>
        <time>2015-08-24T09:26:49Z</time>
      </trkpt>
      <trkpt lat="44.49942" lon="3.72814">
        <ele>1074.792</ele>
        <time>2015-08-24T09:27:09Z</time>
      </trkpt>
      <trkpt lat="44.49931" lon="3.72803">
        <ele>1072.497</ele>
        <time>2015-08-24T09:27:29Z</time>
      </trkpt>
      <trkpt lat="44.4992" lon="3.72704">
        <ele>1070.758</ele>
        <time>2015-08-24T09:27:49Z</time>
      </trkpt>
      <trkpt lat="44.49903" lon="3.72656">
        <ele>1068.153</ele>
        <time>2015-08-24T09:28:09Z</time>
      </trkpt>
      <trkpt lat="44.49824" lon="3.72553">
        <ele>1048.832</ele>
        <time>2015-08-24T09:28:29Z</time>
      </trkpt>
      <trkpt lat="44.49754" lon="3.72652">
        <ele>1053.735</ele>
        <time>2015-08-24T09:28:49Z</time>
      </trkpt>
      <trkpt lat="44.49674" lon="3.72706">
        <ele>1055.992</ele>
        <time>2015-08-24T09:29:09Z</time>
      </trkpt>
      <trkpt lat="44.49575" lon="3.72738">
        <ele>1054.376</ele>
        <time>2015-08-24T09:29:29Z</time>
      </trkpt>
      <trkpt lat="44.49532" lon="3.72775">
        <ele>1054.962</ele>
        <time>2015-08-24T09:29:49Z</time>
      </trkpt>
      <trkpt lat="44.49443" lon="3.72921">
        <ele>1056.083</ele>
        <time>2015-08-24T09:30:09Z</time>
      </trkpt>
      <trkpt lat="44.49392" lon="3.72995">
        <ele>1057.011</ele>
        <time>2015-08-24T09:30:29Z</time>
      </trkpt>
      <trkpt lat="44.49301" lon="3.73271">
        <ele>1055.608</ele>
        <time>2015-08-24T09:30:49Z</time>
      </trkpt>
      <trkpt lat="44.49245" lon="3.7353">
        <ele>1063.222</ele>
        <time>2015-08-24T09:31:09Z</time>
      </trkpt>
      <trkpt lat="44.49222" lon="3.73585">
        <ele>1061.297</ele>
        <time>2015-08-24T09:31:29Z</time>
      </trkpt>
      <trkpt lat="44.49171" lon="3.73671">
        <ele>1065.118</ele>
        <time>2015-08-24T09:31:49Z</time>
      </trkpt>
      <trkpt lat="44.49077" lon="3.73746">
        <ele>1068.763</ele>
        <time>2015-08-24T09:32:09Z</time>
      </trkpt>
      <trkpt lat="44.49022" lon="3.73902">
        <ele>1071.242</ele>
        <time>2015-08-24T09:32:29Z</time>
      </trkpt>
      <trkpt lat="44.49018" lon="3.7395">
        <ele>1071.135</ele>
        <time>2015-08-24T09:32:49Z</time>
      </trkpt>
      <trkpt lat="44.48921" lon="3.73924">
        <ele>1064.712</ele>
        <time>2015-08-24T09:33:09Z</time>
      </trkpt>
      <trkpt lat="44.48902" lon="3.73846">
        <ele>1069.596</ele>
        <time>2015-08-24T09:33:29Z</time>
      </trkpt>
      <trkpt lat="44.48879" lon="3.73794">
        <ele>1072.791</ele>
        <time>2015-08-24T09:33:49Z</time>
      </trkpt>
      <trkpt lat="44.48831" lon="3.73754">
        <ele>1080.481</ele>
        <time>2015-08-24T09:34:09Z</time>
      </trkpt>
      <trkpt lat="44.4878" lon="3.73659">
        <ele>1082.719</ele>
        <time>2015-08-24T09:34:29Z</time>
      </trkpt>
      <trkpt lat="44.48753" lon="3.73625">
        <ele>1083.508</ele>
        <time>2015-08-24T09:35:29Z</time>
      </trkpt>
      <trkpt lat="44.48664" lon="3.73545">
        <ele>1079.195</ele>
        <time>2015-08-24T09:35:49Z</time>
      </trkpt>
      <trkpt lat="44.48657" lon="3.73564">
        <ele>1082.17</ele>
        <time>2015-08-24T09:36:09Z</time>
      </trkpt>
      <trkpt lat="44.48657" lon="3.73635">
        <ele>1093.041</ele>
        <time>2015-08-24T09:36:29Z</time>
      </trkpt>
      <trkpt lat="44.48692" lon="3.73656">
        <ele>1095.616</ele>
        <time>2015-08-24T09:36:49Z</time>
      </trkpt>
      <trkpt lat="44.48651" lon="3.73686">
        <ele>1100.755</ele>
        <time>2015-08-24T09:37:09Z</time>
      </trkpt>
      <trkpt lat="44.48616" lon="3.73728">
        <ele>1106.688</ele>
        <time>2015-08-24T09:37:29Z</time>
      </trkpt>
      <trkpt lat="44.4863" lon="3.73754">
        <ele>1108.815</ele>
        <time>2015-08-24T09:37:49Z</time>
      </trkpt>
      <trkpt lat="44.4861" lon="3.7378">
        <ele>1112.169</ele>
        <time>2015-08-24T09:38:09Z</time>
      </trkpt>
      <trkpt lat="44.48559" lon="3.73813">
        <ele>1114.931</ele>
        <time>2015-08-24T09:38:29Z</time>
      </trkpt>
      <trkpt lat="44.48502" lon="3.73868">
        <ele>1119.861</ele>
        <time>2015-08-24T09:38:49Z</time>
      </trkpt>
      <trkpt lat="44.48428" lon="3.73938">
        <ele>1124.707</ele>
        <time>2015-08-24T09:39:09Z</time>
      </trkpt>
      <trkpt lat="44.48361" lon="3.74013">
        <ele>1130.408</ele>
        <time>2015-08-24T09:39:29Z</time>
      </trkpt>
      <trkpt lat="44.48343" lon="3.74022">
        <ele>1132.859</ele>
        <time>2015-08-24T09:39:49Z</time>
      </trkpt>
      <trkpt lat="44.48331" lon="3.74016">
        <ele>1133.914</ele>
        <time>2015-08-24T09:40:09Z</time>
      </trkpt>
      <trkpt lat="44.48283" lon="3.73906">
        <ele>1146.025</ele>
        <time>2015-08-24T09:40:29Z</time>
      </trkpt>
      <trkpt lat="44.48275" lon="3.73897">
        <ele>1146.22</ele>
        <time>2015-08-24T09:40:49Z</time>
      </trkpt>
      <trkpt lat="44.48255" lon="3.73891">
        <ele>1145.419</ele>
        <time>2015-08-24T09:41:09Z</time>
      </trkpt>
      <trkpt lat="44.48233" lon="3.73893">
        <ele>1145.222</ele>
        <time>2015-08-24T09:41:29Z</time>
      </trkpt>
      <trkpt lat="44.48196" lon="3.73911">
        <ele>1148.779</ele>
        <time>2015-08-24T09:41:49Z</time>
      </trkpt>
      <trkpt lat="44.48163" lon="3.73939">
        <ele>1156.353</ele>
        <time>2015-08-24T09:42:09Z</time>
      </trkpt>
      <trkpt lat="44.48105" lon="3.73962">
        <ele>1162.258</ele>
        <time>2015-08-24T09:42:29Z</time>
      </trkpt>
      <trkpt lat="44.48072" lon="3.73966">
        <ele>1165.952</ele>
        <time>2015-08-24T09:42:49Z</time>
      </trkpt>
      <trkpt lat="44.48033" lon="3.7399">
        <ele>1172.617</ele>
        <time>2015-08-24T09:43:09Z</time>
      </trkpt>
      <trkpt lat="44.48017" lon="3.73993">
        <ele>1174.508</ele>
        <time>2015-08-24T09:43:29Z</time>
      </trkpt>
      <trkpt lat="44.47935" lon="3.7404">
        <ele>1188.231</ele>
        <time>2015-08-24T09:43:49Z</time>
      </trkpt>
      <trkpt lat="44.47832" lon="3.74048">
        <ele>1187.266</ele>
        <time>2015-08-24T09:44:09Z</time>
      </trkpt>
      <trkpt lat="44.47763" lon="3.74045">
        <ele>1184.467</ele>
        <time>2015-08-24T09:44:29Z</time>
      </trkpt>
      <trkpt lat="44.4773" lon="3.74028">
        <ele>1184.312</ele>
        <time>2015-08-24T09:44:49Z</time>
      </trkpt>
      <trkpt lat="44.47671" lon="3.74006">
        <ele>1187.061</ele>
        <time>2015-08-24T09:45:09Z</time>
      </trkpt>
      <trkpt lat="44.47572" lon="3.73992">
        <ele>1192.514</ele>
        <time>2015-08-24T09:45:29Z</time>
      </trkpt>
      <trkpt lat="44.47522" lon="3.73962">
        <ele>1195.041</ele>
        <time>2015-08-24T09:45:49Z</time>
      </trkpt>
      <trkpt lat="44.47459" lon="3.73872">
        <ele>1192.865</ele>
        <time>2015-08-24T09:46:09Z</time>
      </trkpt>
      <trkpt lat="44.47437" lon="3.73856">
        <ele>1192.538</ele>
        <time>2015-08-24T09:46:29Z</time>
      </trkpt>
      <trkpt lat="44.47357" lon="3.73831">
        <ele>1195.77</ele>
        <time>2015-08-24T09:46:49Z</time>
      </trkpt>
      <trkpt lat="44.47314" lon="3.73834">
        <ele>1201.417</ele>
        <time>2015-08-24T09:47:09Z</time>
      </trkpt>
      <trkpt lat="44.47278" lon="3.73828">
        <ele>1209.808</ele>
        <time>2015-08-24T09:47:29Z</time>
      </trkpt>
      <trkpt lat="44.47234" lon="3.73807">
        <ele>1219.749</ele>
        <time>2015-08-24T09:47:49Z</time>
      </trkpt>
      <trkpt lat="44.47185" lon="3.73809">
        <ele>1226.074</ele>
        <time>2015-08-24T09:48:09Z</time>
      </trkpt>
      <trkpt lat="44.47157" lon="3.73821">
        <ele>1231.385</ele>
        <time>2015-08-24T09:48:29Z</time>
      </trkpt>
      <trkpt lat="44.47095" lon="3.73859">
        <ele>1241.57</ele>
        <time>2015-08-24T09:48:49Z</time>
      </trkpt>
      <trkpt lat="44.47066" lon="3.73924">
        <ele>1248.369</ele>
        <time>2015-08-24T09:49:09Z</time>
      </trkpt>
      <trkpt lat="44.47051" lon="3.73949">
        <ele>1249.752</ele>
        <time>2015-08-24T09:49:29Z</time>
      </trkpt>
      <trkpt lat="44.47031" lon="3.73978">
        <ele>1252.489</ele>
        <time>2015-08-24T09:49:49Z</time>
      </trkpt>
      <trkpt lat="44.47007" lon="3.74022">
        <ele>1254.273</ele>
        <time>2015-08-24T09:50:09Z</time>
      </trkpt>
      <trkpt lat="44.46963" lon="3.74063">
        <ele>1260.258</ele>
        <time>2015-08-24T09:50:29Z</time>
      </trkpt>
      <trkpt lat="44.46916" lon="3.74117">
        <ele>1263.152</ele>
        <time>2015-08-24T09:50:49Z</time>
      </trkpt>
      <trkpt lat="44.46887" lon="3.74153">
        <ele>1265.417</ele>
        <time>2015-08-24T09:51:09Z</time>
      </trkpt>
      <trkpt lat="44.46866" lon="3.74184">
        <ele>1270.008</ele>
        <time>2015-08-24T09:51:29Z</time>
      </trkpt>
      <trkpt lat="44.46846" lon="3.74233">
        <ele>1275.921</ele>
        <time>2015-08-24T09:51:49Z</time>
      </trkpt>
      <trkpt lat="44.46845" lon="3.74259">
        <ele>1276.066</ele>
        <time>2015-08-24T09:52:09Z</time>
      </trkpt>
      <trkpt lat="44.46852" lon="3.74315">
        <ele>1278.127</ele>
        <time>2015-08-24T09:52:29Z</time>
      </trkpt>
      <trkpt lat="44.46854" lon="3.74358">
        <ele>1279.212</ele>
        <time>2015-08-24T09:52:49Z</time>
      </trkpt>
      <trkpt lat="44.46865" lon="3.74418">
        <ele>1277.681</ele>
        <time>2015-08-24T09:53:09Z</time>
      </trkpt>
      <trkpt lat="44.46857" lon="3.74453">
        <ele>1280.494</ele>
        <time>2015-08-24T09:53:29Z</time>
      </trkpt>
      <trkpt lat="44.46762" lon="3.74566">
        <ele>1300.061</ele>
        <time>2015-08-24T09:53:49Z</time>
      </trkpt>
      <trkpt lat="44.46705" lon="3.74618">
        <ele>1318.525</ele>
        <time>2015-08-24T09:54:09Z</time>
      </trkpt>
      <trkpt lat="44.46655" lon="3.74647">
        <ele>1330.645</ele>
        <time>2015-08-24T09:54:29Z</time>
      </trkpt>
      <trkpt lat="44.46617" lon="3.74654">
        <ele>1335.047</ele>
        <time>2015-08-24T09:54:49Z</time>
      </trkpt>
      <trkpt lat="44.46586" lon="3.74667">
        <ele>1338.511</ele>
        <time>2015-08-24T09:55:09Z</time>
      </trkpt>
      <trkpt lat="44.46566" lon="3.74679">
        <ele>1343.408</ele>
        <time>2015-08-24T09:55:29Z</time>
      </trkpt>
      <trkpt lat="44.46534" lon="3.74723">
        <ele>1342.28</ele>
        <time>2015-08-24T09:55:49Z</time>
      </trkpt>
      <trkpt lat="44.46505" lon="3.74744">
        <ele>1345.715</ele>
        <time>2015-08-24T09:56:09Z</time>
      </trkpt>
      <trkpt lat="44.46487" lon="3.74767">
        <ele>1347.946</ele>
        <time>2015-08-24T09:56:29Z</time>
      </trkpt>
      <trkpt lat="44.46474" lon="3.74771">
        <ele>1350.651</ele>
        <time>2015-08-24T09:56:49Z</time>
      </trkpt>
      <trkpt lat="44.46429" lon="3.748">
        <ele>1363.27</ele>
        <time>2015-08-24T09:57:09Z</time>
      </trkpt>
      <trkpt lat="44.46414" lon="3.74816">
        <ele>1366.373</ele>
        <time>2015-08-24T09:57:29Z</time>
      </trkpt>
      <trkpt lat="44.46392" lon="3.74828">
        <ele>1371.07</ele>
        <time>2015-08-24T09:57:49Z</time>
      </trkpt>
      <trkpt lat="44.46312" lon="3.7483">
        <ele>1381.084</ele>
        <time>2015-08-24T09:58:09Z</time>
      </trkpt>
      <trkpt lat="44.46285" lon="3.74819">
        <ele>1385.767</ele>
        <time>2015-08-24T09:58:29Z</time>
      </trkpt>
      <trkpt lat="44.46255" lon="3.74814">
        <ele>1389.781</ele>
        <time>2015-08-24T09:58:49Z</time>
      </trkpt>
      <trkpt lat="44.46198" lon="3.74795">
        <ele>1397.919</ele>
        <time>2015-08-24T09:59:09Z</time>
      </trkpt>
      <trkpt lat="44.46148" lon="3.74788">
        <ele>1401.508</ele>
        <time>2015-08-24T09:59:29Z</time>
      </trkpt>
      <trkpt lat="44.46003" lon="3.74829">
        <ele>1409.012</ele>
        <time>2015-08-24T09:59:49Z</time>
      </trkpt>
      <trkpt lat="44.45936" lon="3.74841">
        <ele>1409.967</ele>
        <time>2015-08-24T10:00:09Z</time>
      </trkpt>
      <trkpt lat="44.45835" lon="3.74878">
        <ele>1406.358</ele>
        <time>2015-08-24T10:00:29Z</time>
      </trkpt>
      <trkpt lat="44.45713" lon="3.74944">
        <ele>1401.643</ele>
        <time>2015-08-24T10:00:49Z</time>
      </trkpt>
      <trkpt lat="44.45681" lon="3.7495">
        <ele>1401.192</ele>
        <time>2015-08-24T10:01:09Z</time>
      </trkpt>
      <trkpt lat="44.4565" lon="3.74944">
        <ele>1402.235</ele>
        <time>2015-08-24T10:02:29Z</time>
      </trkpt>
      <trkpt lat="44.45436" lon="3.74931">
        <ele>1412.522</ele>
        <time>2015-08-24T10:02:49Z</time>
      </trkpt>
      <trkpt lat="44.45392" lon="3.74922">
        <ele>1414.896</ele>
        <time>2015-08-24T10:03:09Z</time>
      </trkpt>
      <trkpt lat="44.45309" lon="3.74878">
        <ele>1417.443</ele>
        <time>2015-08-24T10:03:29Z</time>
      </trkpt>
      <trkpt lat="44.45292" lon="3.74859">
        <ele>1417.164</ele>
        <time>2015-08-24T10:03:49Z</time>
      </trkpt>
      <trkpt lat="44.45167" lon="3.74781">
        <ele>1412.01</ele>
        <time>2015-08-24T10:04:09Z</time>
      </trkpt>
      <trkpt lat="44.45051" lon="3.74762">
        <ele>1418.208</ele>
        <time>2015-08-24T10:04:29Z</time>
      </trkpt>
      <trkpt lat="44.45031" lon="3.74757">
        <ele>1419.68</ele>
        <time>2015-08-24T10:04:49Z</time>
      </trkpt>
      <trkpt lat="44.44977" lon="3.74772">
        <ele>1423.935</ele>
        <time>2015-08-24T10:05:09Z</time>
      </trkpt>
      <trkpt lat="44.4483" lon="3.74749">
        <ele>1436.266</ele>
        <time>2015-08-24T10:05:29Z</time>
      </trkpt>
      <trkpt lat="44.44758" lon="3.74758">
        <ele>1441.411</ele>
        <time>2015-08-24T10:05:49Z</time>
      </trkpt>
      <trkpt lat="44.44671" lon="3.74837">
        <ele>1447.74</ele>
        <time>2015-08-24T10:06:09Z</time>
      </trkpt>
      <trkpt lat="44.4457" lon="3.74946">
        <ele>1458.633</ele>
        <time>2015-08-24T10:06:29Z</time>
      </trkpt>
      <trkpt lat="44.44541" lon="3.74957">
        <ele>1460.38</ele>
        <time>2015-08-24T10:06:49Z</time>
      </trkpt>
      <trkpt lat="44.44442" lon="3.74979">
        <ele>1465.754</ele>
        <time>2015-08-24T10:07:09Z</time>
      </trkpt>
      <trkpt lat="44.44424" lon="3.75001">
        <ele>1462.672</ele>
        <time>2015-08-24T10:07:29Z</time>
      </trkpt>
      <trkpt lat="44.44388" lon="3.75036">
        <ele>1463.613</ele>
        <time>2015-08-24T10:07:49Z</time>
      </trkpt>
      <trkpt lat="44.44366" lon="3.75064">
        <ele>1466.514</ele>
        <time>2015-08-24T10:08:09Z</time>
      </trkpt>
      <trkpt lat="44.44335" lon="3.75127">
        <ele>1469.908</ele>
        <time>2015-08-24T10:08:29Z</time>
      </trkpt>
      <trkpt lat="44.443" lon="3.75162">
        <ele>1470.463</ele>
        <time>2015-08-24T10:08:49Z</time>
      </trkpt>
      <trkpt lat="44.44282" lon="3.75172">
        <ele>1473.248</ele>
        <time>2015-08-24T10:09:09Z</time>
      </trkpt>
      <trkpt lat="44.44258" lon="3.75188">
        <ele>1475.779</ele>
        <time>2015-08-24T10:09:29Z</time>
      </trkpt>
      <trkpt lat="44.44244" lon="3.75211">
        <ele>1473.714</ele>
        <time>2015-08-24T10:09:49Z</time>
      </trkpt>
      <trkpt lat="44.44231" lon="3.75212">
        <ele>1474.723</ele>
        <time>2019-03-28T18:54:37Z</time>
      </trkpt>
      <trkpt lat="44.44218" lon="3.75227">
        <ele>1472.536</ele>
        <time>2019-03-28T18:54:57Z</time>
      </trkpt>
      <trkpt lat="44.44107" lon="3.75266">
        <ele>1476.933</ele>
        <time>2015-08-24T10:10:49Z</time>
      </trkpt>
      <trkpt lat="44.44046" lon="3.75258">
        <ele>1482.287</ele>
        <time>2015-08-24T10:11:09Z</time>
      </trkpt>
      <trkpt lat="44.43939" lon="3.75233">
        <ele>1491.989</ele>
        <time>2015-08-24T10:11:29Z</time>
      </trkpt>
      <trkpt lat="44.4383" lon="3.75232">
        <ele>1495.806</ele>
        <time>2015-08-24T10:11:49Z</time>
      </trkpt>
      <trkpt lat="44.43683" lon="3.75319">
        <ele>1503.226</ele>
        <time>2015-08-24T10:12:09Z</time>
      </trkpt>
      <trkpt lat="44.43585" lon="3.75348">
        <ele>1499.908</ele>
        <time>2015-08-24T10:12:29Z</time>
      </trkpt>
      <trkpt lat="44.43438" lon="3.75535">
        <ele>1505.014</ele>
        <time>2015-08-24T10:12:49Z</time>
      </trkpt>
      <trkpt lat="44.43413" lon="3.7557">
        <ele>1506.129</ele>
        <time>2015-08-24T10:13:09Z</time>
      </trkpt>
      <trkpt lat="44.43386" lon="3.75592">
        <ele>1509.45</ele>
        <time>2015-08-24T10:13:29Z</time>
      </trkpt>
      <trkpt lat="44.43361" lon="3.75638">
        <ele>1512.035</ele>
        <time>2015-08-24T10:13:49Z</time>
      </trkpt>
      <trkpt lat="44.43362" lon="3.75723">
        <ele>1510.044</ele>
        <time>2015-08-24T10:14:09Z</time>
      </trkpt>
      <trkpt lat="44.43369" lon="3.75805">
        <ele>1512.767</ele>
        <time>2015-08-24T10:14:29Z</time>
      </trkpt>
      <trkpt lat="44.43339" lon="3.75936">
        <ele>1513.724</ele>
        <time>2015-08-24T10:14:49Z</time>
      </trkpt>
      <trkpt lat="44.43312" lon="3.76001">
        <ele>1518.628</ele>
        <time>2015-08-24T10:15:09Z</time>
      </trkpt>
      <trkpt lat="44.43291" lon="3.7607">
        <ele>1519.298</ele>
        <time>2015-08-24T10:15:29Z</time>
      </trkpt>
      <trkpt lat="44.43255" lon="3.76219">
        <ele>1521.615</ele>
        <time>2015-08-24T10:15:49Z</time>
      </trkpt>
      <trkpt lat="44.4319" lon="3.76346">
        <ele>1527.526</ele>
        <time>2015-08-24T10:16:09Z</time>
      </trkpt>
      <trkpt lat="44.43124" lon="3.76421">
        <ele>1526.508</ele>
        <time>2015-08-24T10:16:29Z</time>
      </trkpt>
      <trkpt lat="44.43072" lon="3.76467">
        <ele>1527.385</ele>
        <time>2015-08-24T10:16:49Z</time>
      </trkpt>
      <trkpt lat="44.4303" lon="3.76484">
        <ele>1526.26</ele>
        <time>2015-08-24T10:17:09Z</time>
      </trkpt>
      <trkpt lat="44.43001" lon="3.76478">
        <ele>1529.371</ele>
        <time>2015-08-24T10:17:29Z</time>
      </trkpt>
      <trkpt lat="44.42961" lon="3.7648">
        <ele>1527.656</ele>
        <time>2015-08-24T10:17:49Z</time>
      </trkpt>
      <trkpt lat="44.42887" lon="3.76454">
        <ele>1526.935</ele>
        <time>2015-08-24T10:18:09Z</time>
      </trkpt>
      <trkpt lat="44.42746" lon="3.76454">
        <ele>1527.018</ele>
        <time>2015-08-24T10:18:29Z</time>
      </trkpt>
      <trkpt lat="44.42635" lon="3.76532">
        <ele>1531.065</ele>
        <time>2015-08-24T10:19:29Z</time>
      </trkpt>
      <trkpt lat="44.42499" lon="3.76545">
        <ele>1542.239</ele>
        <time>2015-08-24T10:19:49Z</time>
      </trkpt>
      <trkpt lat="44.42477" lon="3.76576">
        <ele>1541.159</ele>
        <time>2015-08-24T10:20:09Z</time>
      </trkpt>
      <trkpt lat="44.42471" lon="3.76695">
        <ele>1542.003</ele>
        <time>2015-08-24T10:20:29Z</time>
      </trkpt>
      <trkpt lat="44.4244" lon="3.76794">
        <ele>1542.123</ele>
        <time>2015-08-24T10:20:49Z</time>
      </trkpt>
      <trkpt lat="44.42385" lon="3.76899">
        <ele>1543.808</ele>
        <time>2015-08-24T10:21:09Z</time>
      </trkpt>
      <trkpt lat="44.42469" lon="3.7717">
        <ele>1546.021</ele>
        <time>2015-08-24T10:21:29Z</time>
      </trkpt>
      <trkpt lat="44.42476" lon="3.77181">
        <ele>1547.246</ele>
        <time>2015-08-24T10:21:49Z</time>
      </trkpt>
      <trkpt lat="44.42452" lon="3.77223">
        <ele>1547.537</ele>
        <time>2015-08-24T10:22:09Z</time>
      </trkpt>
      <trkpt lat="44.4243" lon="3.77266">
        <ele>1548.082</ele>
        <time>2015-08-24T10:22:29Z</time>
      </trkpt>
      <trkpt lat="44.42363" lon="3.77482">
        <ele>1550.591</ele>
        <time>2015-08-24T10:22:49Z</time>
      </trkpt>
      <trkpt lat="44.42347" lon="3.77557">
        <ele>1551.664</ele>
        <time>2015-08-24T10:23:09Z</time>
      </trkpt>
      <trkpt lat="44.42319" lon="3.77622">
        <ele>1553.021</ele>
        <time>2015-08-24T10:23:29Z</time>
      </trkpt>
      <trkpt lat="44.42266" lon="3.77708">
        <ele>1555.655</ele>
        <time>2015-08-24T10:23:49Z</time>
      </trkpt>
      <trkpt lat="44.42214" lon="3.77778">
        <ele>1558.932</ele>
        <time>2015-08-24T10:24:09Z</time>
      </trkpt>
      <trkpt lat="44.42147" lon="3.77853">
        <ele>1558.592</ele>
        <time>2015-08-24T10:24:29Z</time>
      </trkpt>
      <trkpt lat="44.4207" lon="3.77944">
        <ele>1559.411</ele>
        <time>2015-08-24T10:24:49Z</time>
      </trkpt>
      <trkpt lat="44.42041" lon="3.77973">
        <ele>1559.108</ele>
        <time>2015-08-24T10:25:09Z</time>
      </trkpt>
      <trkpt lat="44.41992" lon="3.78035">
        <ele>1558.449</ele>
        <time>2015-08-24T10:25:29Z</time>
      </trkpt>
      <trkpt lat="44.41897" lon="3.78173">
        <ele>1558.524</ele>
        <time>2015-08-24T10:25:49Z</time>
      </trkpt>
      <trkpt lat="44.41855" lon="3.78197">
        <ele>1558.045</ele>
        <time>2015-08-24T10:26:09Z</time>
      </trkpt>
      <trkpt lat="44.41782" lon="3.7823">
        <ele>1555.03</ele>
        <time>2015-08-24T10:26:29Z</time>
      </trkpt>
      <trkpt lat="44.41728" lon="3.78275">
        <ele>1557.089</ele>
        <time>2015-08-24T10:26:49Z</time>
      </trkpt>
      <trkpt lat="44.4169" lon="3.78317">
        <ele>1555.882</ele>
        <time>2015-08-24T10:27:09Z</time>
      </trkpt>
      <trkpt lat="44.41654" lon="3.78342">
        <ele>1557.549</ele>
        <time>2015-08-24T10:27:29Z</time>
      </trkpt>
      <trkpt lat="44.41601" lon="3.78366">
        <ele>1559.463</ele>
        <time>2015-08-24T10:27:49Z</time>
      </trkpt>
      <trkpt lat="44.41566" lon="3.78379">
        <ele>1560.394</ele>
        <time>2015-08-24T10:28:09Z</time>
      </trkpt>
      <trkpt lat="44.41444" lon="3.78409">
        <ele>1563.957</ele>
        <time>2015-08-24T10:28:29Z</time>
      </trkpt>
      <trkpt lat="44.41376" lon="3.78446">
        <ele>1567.422</ele>
        <time>2015-08-24T10:28:49Z</time>
      </trkpt>
      <trkpt lat="44.41303" lon="3.78472">
        <ele>1569.908</ele>
        <time>2015-08-24T10:29:09Z</time>
      </trkpt>
      <trkpt lat="44.41234" lon="3.78479">
        <ele>1568.625</ele>
        <time>2015-08-24T10:29:29Z</time>
      </trkpt>
      <trkpt lat="44.41146" lon="3.78458">
        <ele>1570.29</ele>
        <time>2015-08-24T10:29:49Z</time>
      </trkpt>
      <trkpt lat="44.41095" lon="3.7843">
        <ele>1570.881</ele>
        <time>2015-08-24T10:30:09Z</time>
      </trkpt>
      <trkpt lat="44.41052" lon="3.7838">
        <ele>1569.036</ele>
        <time>2015-08-24T10:30:29Z</time>
      </trkpt>
      <trkpt lat="44.41008" lon="3.78336">
        <ele>1564.975</ele>
        <time>2015-08-24T10:30:49Z</time>
      </trkpt>
      <trkpt lat="44.40978" lon="3.78323">
        <ele>1563.918</ele>
        <time>2015-08-24T10:31:09Z</time>
      </trkpt>
      <trkpt lat="44.40922" lon="3.78331">
        <ele>1561.995</ele>
        <time>2015-08-24T10:31:29Z</time>
      </trkpt>
      <trkpt lat="44.40867" lon="3.78353">
        <ele>1557.989</ele>
        <time>2015-08-24T10:31:49Z</time>
      </trkpt>
      <trkpt lat="44.4081" lon="3.78369">
        <ele>1555.018</ele>
        <time>2015-08-24T10:32:09Z</time>
      </trkpt>
      <trkpt lat="44.40786" lon="3.78379">
        <ele>1554.598</ele>
        <time>2015-08-24T10:32:29Z</time>
      </trkpt>
      <trkpt lat="44.4076" lon="3.78398">
        <ele>1553.717</ele>
        <time>2015-08-24T10:32:49Z</time>
      </trkpt>
      <trkpt lat="44.40711" lon="3.7842">
        <ele>1548.508</ele>
        <time>2015-08-24T10:33:09Z</time>
      </trkpt>
      <trkpt lat="44.40674" lon="3.78445">
        <ele>1544.837</ele>
        <time>2015-08-24T10:33:29Z</time>
      </trkpt>
      <trkpt lat="44.40623" lon="3.78499">
        <ele>1541.952</ele>
        <time>2015-08-24T10:33:49Z</time>
      </trkpt>
      <trkpt lat="44.40572" lon="3.78533">
        <ele>1540.053</ele>
        <time>2015-08-24T10:34:09Z</time>
      </trkpt>
      <trkpt lat="44.40512" lon="3.7857">
        <ele>1538.278</ele>
        <time>2015-08-24T10:34:29Z</time>
      </trkpt>
      <trkpt lat="44.40473" lon="3.78571">
        <ele>1537.117</ele>
        <time>2015-08-24T10:34:49Z</time>
      </trkpt>
      <trkpt lat="44.40445" lon="3.78585">
        <ele>1536.12</ele>
        <time>2015-08-24T10:35:09Z</time>
      </trkpt>
      <trkpt lat="44.40386" lon="3.78579">
        <ele>1530.767</ele>
        <time>2015-08-24T10:35:29Z</time>
      </trkpt>
      <trkpt lat="44.40364" lon="3.78567">
        <ele>1528.581</ele>
        <time>2015-08-24T10:35:49Z</time>
      </trkpt>
      <trkpt lat="44.40345" lon="3.78569">
        <ele>1525.461</ele>
        <time>2015-08-24T10:36:09Z</time>
      </trkpt>
      <trkpt lat="44.40327" lon="3.78583">
        <ele>1521.221</ele>
        <time>2015-08-24T10:36:29Z</time>
      </trkpt>
      <trkpt lat="44.40301" lon="3.78577">
        <ele>1518.413</ele>
        <time>2015-08-24T10:36:49Z</time>
      </trkpt>
      <trkpt lat="44.40268" lon="3.78589">
        <ele>1515.108</ele>
        <time>2015-08-24T10:37:09Z</time>
      </trkpt>
      <trkpt lat="44.402" lon="3.78598">
        <ele>1507.912</ele>
        <time>2015-08-24T10:37:29Z</time>
      </trkpt>
      <trkpt lat="44.40157" lon="3.78593">
        <ele>1505.127</ele>
        <time>2015-08-24T10:37:49Z</time>
      </trkpt>
      <trkpt lat="44.40133" lon="3.78602">
        <ele>1503.758</ele>
        <time>2015-08-24T10:38:09Z</time>
      </trkpt>
      <trkpt lat="44.40112" lon="3.78608">
        <ele>1505.853</ele>
        <time>2015-08-24T10:38:29Z</time>
      </trkpt>
      <trkpt lat="44.40061" lon="3.78651">
        <ele>1494.732</ele>
        <time>2015-08-24T10:38:49Z</time>
      </trkpt>
      <trkpt lat="44.40027" lon="3.78701">
        <ele>1487.185</ele>
        <time>2015-08-24T10:39:09Z</time>
      </trkpt>
      <trkpt lat="44.39997" lon="3.78725">
        <ele>1483.422</ele>
        <time>2015-08-24T10:39:29Z</time>
      </trkpt>
      <trkpt lat="44.39996" lon="3.78739">
        <ele>1479.856</ele>
        <time>2015-08-24T10:39:49Z</time>
      </trkpt>
      <trkpt lat="44.40021" lon="3.7875">
        <ele>1478.586</ele>
        <time>2015-08-24T10:40:09Z</time>
      </trkpt>
      <trkpt lat="44.40028" lon="3.78762">
        <ele>1477.36</ele>
        <time>2015-08-24T10:40:29Z</time>
      </trkpt>
      <trkpt lat="44.40057" lon="3.7877">
        <ele>1477.926</ele>
        <time>2015-08-24T10:40:49Z</time>
      </trkpt>
      <trkpt lat="44.40065" lon="3.78808">
        <ele>1475.308</ele>
        <time>2015-08-24T10:41:09Z</time>
      </trkpt>
      <trkpt lat="44.40044" lon="3.78841">
        <ele>1470.894</ele>
        <time>2015-08-24T10:41:29Z</time>
      </trkpt>
      <trkpt lat="44.40018" lon="3.78875">
        <ele>1464.329</ele>
        <time>2015-08-24T10:41:49Z</time>
      </trkpt>
      <trkpt lat="44.40006" lon="3.78916">
        <ele>1464.67</ele>
        <time>2015-08-24T10:42:09Z</time>
      </trkpt>
      <trkpt lat="44.39991" lon="3.78936">
        <ele>1462.715</ele>
        <time>2015-08-24T10:42:29Z</time>
      </trkpt>
      <trkpt lat="44.39959" lon="3.78933">
        <ele>1454.854</ele>
        <time>2015-08-24T10:42:49Z</time>
      </trkpt>
      <trkpt lat="44.39946" lon="3.78943">
        <ele>1454.117</ele>
        <time>2015-08-24T10:43:09Z</time>
      </trkpt>
      <trkpt lat="44.39906" lon="3.78945">
        <ele>1443.424</ele>
        <time>2015-08-24T10:43:29Z</time>
      </trkpt>
      <trkpt lat="44.39865" lon="3.78967">
        <ele>1438.918</ele>
        <time>2015-08-24T10:43:49Z</time>
      </trkpt>
      <trkpt lat="44.39851" lon="3.78962">
        <ele>1435.528</ele>
        <time>2015-08-24T10:44:09Z</time>
      </trkpt>
      <trkpt lat="44.39823" lon="3.78984">
        <ele>1433.389</ele>
        <time>2015-08-24T10:44:29Z</time>
      </trkpt>
      <trkpt lat="44.39778" lon="3.78993">
        <ele>1423.417</ele>
        <time>2015-08-24T10:44:49Z</time>
      </trkpt>
      <trkpt lat="44.39763" lon="3.79002">
        <ele>1421.008</ele>
        <time>2015-08-24T10:45:09Z</time>
      </trkpt>
      <trkpt lat="44.39748" lon="3.79002">
        <ele>1418.128</ele>
        <time>2015-08-24T10:45:29Z</time>
      </trkpt>
      <trkpt lat="44.39737" lon="3.79012">
        <ele>1417.723</ele>
        <time>2015-08-24T10:45:49Z</time>
      </trkpt>
      <trkpt lat="44.39721" lon="3.79012">
        <ele>1414.514</ele>
        <time>2015-08-24T10:46:09Z</time>
      </trkpt>
      <trkpt lat="44.39666" lon="3.79055">
        <ele>1408.749</ele>
        <time>2015-08-24T10:46:29Z</time>
      </trkpt>
      <trkpt lat="44.39651" lon="3.7905">
        <ele>1404.238</ele>
        <time>2015-08-24T10:46:49Z</time>
      </trkpt>
      <trkpt lat="44.39627" lon="3.79066">
        <ele>1402.771</ele>
        <time>2015-08-24T10:47:09Z</time>
      </trkpt>
      <trkpt lat="44.39612" lon="3.79073">
        <ele>1401.298</ele>
        <time>2015-08-24T10:47:29Z</time>
      </trkpt>
      <trkpt lat="44.39593" lon="3.7909">
        <ele>1400.352</ele>
        <time>2015-08-24T10:47:49Z</time>
      </trkpt>
      <trkpt lat="44.39562" lon="3.79103">
        <ele>1395.925</ele>
        <time>2015-08-24T10:48:09Z</time>
      </trkpt>
      <trkpt lat="44.39545" lon="3.79123">
        <ele>1395.726</ele>
        <time>2015-08-24T10:48:29Z</time>
      </trkpt>
      <trkpt lat="44.39474" lon="3.79172">
        <ele>1387.908</ele>
        <time>2015-08-24T10:48:49Z</time>
      </trkpt>
      <trkpt lat="44.39435" lon="3.79189">
        <ele>1380.908</ele>
        <time>2015-08-24T10:49:09Z</time>
      </trkpt>
      <trkpt lat="44.39394" lon="3.7921">
        <ele>1376.038</ele>
        <time>2015-08-24T10:49:29Z</time>
      </trkpt>
      <trkpt lat="44.39381" lon="3.79209">
        <ele>1372.923</ele>
        <time>2015-08-24T10:49:49Z</time>
      </trkpt>
      <trkpt lat="44.39338" lon="3.79228">
        <ele>1368.234</ele>
        <time>2015-08-24T10:50:09Z</time>
      </trkpt>
      <trkpt lat="44.39326" lon="3.79224">
        <ele>1365.699</ele>
        <time>2015-08-24T10:50:29Z</time>
      </trkpt>
      <trkpt lat="44.39302" lon="3.79228">
        <ele>1363.968</ele>
        <time>2015-08-24T10:50:49Z</time>
      </trkpt>
      <trkpt lat="44.39278" lon="3.79226">
        <ele>1360.661</ele>
        <time>2015-08-24T10:51:09Z</time>
      </trkpt>
      <trkpt lat="44.39249" lon="3.79244">
        <ele>1361.098</ele>
        <time>2015-08-24T10:51:29Z</time>
      </trkpt>
      <trkpt lat="44.39221" lon="3.79255">
        <ele>1358.512</ele>
        <time>2015-08-24T10:51:49Z</time>
      </trkpt>
      <trkpt lat="44.392" lon="3.79274">
        <ele>1359.173</ele>
        <time>2015-08-24T10:52:09Z</time>
      </trkpt>
      <trkpt lat="44.39194" lon="3.79305">
        <ele>1360.085</ele>
        <time>2015-08-24T10:52:29Z</time>
      </trkpt>
      <trkpt lat="44.39203" lon="3.79364">
        <ele>1358.613</ele>
        <time>2015-08-24T10:52:49Z</time>
      </trkpt>
      <trkpt lat="44.39268" lon="3.79451">
        <ele>1365.408</ele>
        <time>2015-08-24T10:53:09Z</time>
      </trkpt>
      <trkpt lat="44.39281" lon="3.79512">
        <ele>1365.373</ele>
        <time>2015-08-24T10:53:29Z</time>
      </trkpt>
      <trkpt lat="44.3926" lon="3.79627">
        <ele>1368.218</ele>
        <time>2015-08-24T10:53:49Z</time>
      </trkpt>
      <trkpt lat="44.39213" lon="3.79714">
        <ele>1365.959</ele>
        <time>2015-08-24T10:54:09Z</time>
      </trkpt>
      <trkpt lat="44.39178" lon="3.7976">
        <ele>1365.474</ele>
        <time>2015-08-24T10:54:29Z</time>
      </trkpt>
      <trkpt lat="44.39183" lon="3.79828">
        <ele>1366.743</ele>
        <time>2015-08-24T10:54:49Z</time>
      </trkpt>
      <trkpt lat="44.39173" lon="3.79851">
        <ele>1368.266</ele>
        <time>2015-08-24T10:55:09Z</time>
      </trkpt>
      <trkpt lat="44.39097" lon="3.7987">
        <ele>1368.423</ele>
        <time>2015-08-24T10:55:29Z</time>
      </trkpt>
      <trkpt lat="44.39002" lon="3.79982">
        <ele>1375.867</ele>
        <time>2015-08-24T10:55:49Z</time>
      </trkpt>
      <trkpt lat="44.38991" lon="3.80063">
        <ele>1375.988</ele>
        <time>2015-08-24T10:56:09Z</time>
      </trkpt>
      <trkpt lat="44.3898" lon="3.80124">
        <ele>1375.024</ele>
        <time>2015-08-24T10:56:29Z</time>
      </trkpt>
      <trkpt lat="44.38983" lon="3.80187">
        <ele>1378.026</ele>
        <time>2015-08-24T10:56:49Z</time>
      </trkpt>
      <trkpt lat="44.38967" lon="3.80248">
        <ele>1380.708</ele>
        <time>2015-08-24T10:57:09Z</time>
      </trkpt>
      <trkpt lat="44.38948" lon="3.80282">
        <ele>1381.914</ele>
        <time>2015-08-24T10:57:29Z</time>
      </trkpt>
      <trkpt lat="44.38895" lon="3.80321">
        <ele>1383.139</ele>
        <time>2015-08-24T10:57:49Z</time>
      </trkpt>
      <trkpt lat="44.38774" lon="3.80357">
        <ele>1375.49</ele>
        <time>2015-08-24T10:58:09Z</time>
      </trkpt>
      <trkpt lat="44.38741" lon="3.80359">
        <ele>1370.075</ele>
        <time>2015-08-24T10:58:29Z</time>
      </trkpt>
      <trkpt lat="44.38688" lon="3.80413">
        <ele>1371.974</ele>
        <time>2015-08-24T10:58:49Z</time>
      </trkpt>
      <trkpt lat="44.3867" lon="3.80454">
        <ele>1373.897</ele>
        <time>2015-08-24T10:59:09Z</time>
      </trkpt>
      <trkpt lat="44.38673" lon="3.80501">
        <ele>1376.364</ele>
        <time>2015-08-24T10:59:29Z</time>
      </trkpt>
      <trkpt lat="44.38649" lon="3.80586">
        <ele>1374.588</ele>
        <time>2015-08-24T10:59:49Z</time>
      </trkpt>
      <trkpt lat="44.38634" lon="3.80659">
        <ele>1372.736</ele>
        <time>2015-08-24T11:00:09Z</time>
      </trkpt>
      <trkpt lat="44.38591" lon="3.80735">
        <ele>1368.517</ele>
        <time>2015-08-24T11:00:29Z</time>
      </trkpt>
      <trkpt lat="44.3849" lon="3.80861">
        <ele>1366.718</ele>
        <time>2015-08-24T11:00:49Z</time>
      </trkpt>
      <trkpt lat="44.38333" lon="3.81024">
        <ele>1364.008</ele>
        <time>2015-08-24T11:01:09Z</time>
      </trkpt>
      <trkpt lat="44.38299" lon="3.8103">
        <ele>1362.939</ele>
        <time>2015-08-24T11:01:29Z</time>
      </trkpt>
      <trkpt lat="44.38246" lon="3.81118">
        <ele>1363.194</ele>
        <time>2015-08-24T11:01:49Z</time>
      </trkpt>
      <trkpt lat="44.38193" lon="3.81182">
        <ele>1364.515</ele>
        <time>2015-08-24T11:02:09Z</time>
      </trkpt>
      <trkpt lat="44.38189" lon="3.81198">
        <ele>1364.91</ele>
        <time>2015-08-24T11:02:29Z</time>
      </trkpt>
      <trkpt lat="44.38172" lon="3.81199">
        <ele>1364.299</ele>
        <time>2015-08-24T11:02:49Z</time>
      </trkpt>
      <trkpt lat="44.38119" lon="3.81223">
        <ele>1361.942</ele>
        <time>2015-08-24T11:03:09Z</time>
      </trkpt>
      <trkpt lat="44.38012" lon="3.8129">
        <ele>1360.429</ele>
        <time>2015-08-24T11:03:29Z</time>
      </trkpt>
      <trkpt lat="44.3793" lon="3.8138">
        <ele>1353.563</ele>
        <time>2015-08-24T11:03:49Z</time>
      </trkpt>
      <trkpt lat="44.37903" lon="3.81427">
        <ele>1354.229</ele>
        <time>2015-08-24T11:04:09Z</time>
      </trkpt>
      <trkpt lat="44.37848" lon="3.81483">
        <ele>1352.6</ele>
        <time>2015-08-24T11:04:29Z</time>
      </trkpt>
      <trkpt lat="44.37792" lon="3.81557">
        <ele>1351.02</ele>
        <time>2015-08-24T11:04:49Z</time>
      </trkpt>
      <trkpt lat="44.3776" lon="3.8164">
        <ele>1349.008</ele>
        <time>2015-08-24T11:05:09Z</time>
      </trkpt>
      <trkpt lat="44.37734" lon="3.81672">
        <ele>1348.948</ele>
        <time>2015-08-24T11:05:29Z</time>
      </trkpt>
      <trkpt lat="44.37697" lon="3.8171">
        <ele>1349.013</ele>
        <time>2015-08-24T11:05:49Z</time>
      </trkpt>
      <trkpt lat="44.37632" lon="3.81786">
        <ele>1345.834</ele>
        <time>2015-08-24T11:06:09Z</time>
      </trkpt>
      <trkpt lat="44.3761" lon="3.81801">
        <ele>1345.819</ele>
        <time>2015-08-24T11:06:29Z</time>
      </trkpt>
      <trkpt lat="44.37586" lon="3.81836">
        <ele>1347.068</ele>
        <time>2015-08-24T11:06:49Z</time>
      </trkpt>
      <trkpt lat="44.37551" lon="3.81856">
        <ele>1345.711</ele>
        <time>2015-08-24T11:07:09Z</time>
      </trkpt>
      <trkpt lat="44.3752" lon="3.81859">
        <ele>1345.328</ele>
        <time>2015-08-24T11:07:29Z</time>
      </trkpt>
      <trkpt lat="44.37486" lon="3.81885">
        <ele>1345.152</ele>
        <time>2015-08-24T11:07:49Z</time>
      </trkpt>
      <trkpt lat="44.37466" lon="3.81891">
        <ele>1345.258</ele>
        <time>2015-08-24T11:08:09Z</time>
      </trkpt>
      <trkpt lat="44.37424" lon="3.81886">
        <ele>1343.752</ele>
        <time>2015-08-24T11:08:29Z</time>
      </trkpt>
      <trkpt lat="44.37353" lon="3.81894">
        <ele>1339.517</ele>
        <time>2015-08-24T11:08:49Z</time>
      </trkpt>
      <trkpt lat="44.37334" lon="3.81919">
        <ele>1339.008</ele>
        <time>2015-08-24T11:09:09Z</time>
      </trkpt>
      <trkpt lat="44.37292" lon="3.8193">
        <ele>1333.861</ele>
        <time>2015-08-24T11:09:29Z</time>
      </trkpt>
      <trkpt lat="44.37281" lon="3.81943">
        <ele>1332.386</ele>
        <time>2015-08-24T11:09:49Z</time>
      </trkpt>
      <trkpt lat="44.3727" lon="3.82041">
        <ele>1326.977</ele>
        <time>2015-08-24T11:10:09Z</time>
      </trkpt>
      <trkpt lat="44.37273" lon="3.82063">
        <ele>1326.242</ele>
        <time>2015-08-24T11:10:29Z</time>
      </trkpt>
      <trkpt lat="44.37294" lon="3.82126">
        <ele>1328.391</ele>
        <time>2015-08-24T11:10:49Z</time>
      </trkpt>
      <trkpt lat="44.37328" lon="3.82159">
        <ele>1327.234</ele>
        <time>2015-08-24T11:11:09Z</time>
      </trkpt>
      <trkpt lat="44.3737" lon="3.8218">
        <ele>1326.341</ele>
        <time>2015-08-24T11:11:29Z</time>
      </trkpt>
      <trkpt lat="44.37372" lon="3.82207">
        <ele>1326.465</ele>
        <time>2015-08-24T11:11:49Z</time>
      </trkpt>
      <trkpt lat="44.37368" lon="3.82278">
        <ele>1329.024</ele>
        <time>2015-08-24T11:12:09Z</time>
      </trkpt>
      <trkpt lat="44.37317" lon="3.82269">
        <ele>1330.304</ele>
        <time>2015-08-24T11:12:29Z</time>
      </trkpt>
      <trkpt lat="44.37272" lon="3.82265">
        <ele>1328.714</ele>
        <time>2015-08-24T11:12:49Z</time>
      </trkpt>
      <trkpt lat="44.37254" lon="3.82262">
        <ele>1327.708</ele>
        <time>2015-08-24T11:13:09Z</time>
      </trkpt>
      <trkpt lat="44.37206" lon="3.82293">
        <ele>1328.768</ele>
        <time>2015-08-24T11:13:29Z</time>
      </trkpt>
      <trkpt lat="44.3716" lon="3.82319">
        <ele>1331.393</ele>
        <time>2015-08-24T11:13:49Z</time>
      </trkpt>
      <trkpt lat="44.3714" lon="3.82323">
        <ele>1332.074</ele>
        <time>2015-08-24T11:14:09Z</time>
      </trkpt>
      <trkpt lat="44.37128" lon="3.82332">
        <ele>1332.049</ele>
        <time>2015-08-24T11:14:29Z</time>
      </trkpt>
      <trkpt lat="44.37034" lon="3.82376">
        <ele>1334.628</ele>
        <time>2015-08-24T11:14:49Z</time>
      </trkpt>
      <trkpt lat="44.3698" lon="3.82417">
        <ele>1336.761</ele>
        <time>2015-08-24T11:15:09Z</time>
      </trkpt>
      <trkpt lat="44.36957" lon="3.82442">
        <ele>1336.818</ele>
        <time>2015-08-24T11:15:29Z</time>
      </trkpt>
      <trkpt lat="44.36887" lon="3.82495">
        <ele>1342.582</ele>
        <time>2015-08-24T11:15:49Z</time>
      </trkpt>
      <trkpt lat="44.36809" lon="3.82544">
        <ele>1343.766</ele>
        <time>2015-08-24T11:16:09Z</time>
      </trkpt>
      <trkpt lat="44.36799" lon="3.82559">
        <ele>1343.029</ele>
        <time>2015-08-24T11:16:29Z</time>
      </trkpt>
      <trkpt lat="44.36753" lon="3.82585">
        <ele>1345.021</ele>
        <time>2015-08-24T11:16:49Z</time>
      </trkpt>
      <trkpt lat="44.36737" lon="3.82599">
        <ele>1346.108</ele>
        <time>2015-08-24T11:17:09Z</time>
      </trkpt>
      <trkpt lat="44.36685" lon="3.82636">
        <ele>1350.932</ele>
        <time>2015-08-24T11:17:29Z</time>
      </trkpt>
      <trkpt lat="44.36666" lon="3.82644">
        <ele>1353.487</ele>
        <time>2015-08-24T11:17:49Z</time>
      </trkpt>
      <trkpt lat="44.36648" lon="3.82684">
        <ele>1357.848</ele>
        <time>2015-08-24T11:18:09Z</time>
      </trkpt>
      <trkpt lat="44.36586" lon="3.82714">
        <ele>1361.933</ele>
        <time>2015-08-24T11:18:29Z</time>
      </trkpt>
      <trkpt lat="44.36565" lon="3.82729">
        <ele>1363.342</ele>
        <time>2015-08-24T11:18:49Z</time>
      </trkpt>
      <trkpt lat="44.36489" lon="3.82763">
        <ele>1365.815</ele>
        <time>2015-08-24T11:19:09Z</time>
      </trkpt>
      <trkpt lat="44.36466" lon="3.82788">
        <ele>1367.842</ele>
        <time>2015-08-24T11:19:29Z</time>
      </trkpt>
      <trkpt lat="44.36401" lon="3.82826">
        <ele>1366.716</ele>
        <time>2015-08-24T11:19:49Z</time>
      </trkpt>
      <trkpt lat="44.36334" lon="3.82885">
        <ele>1367.446</ele>
        <time>2015-08-24T11:20:09Z</time>
      </trkpt>
      <trkpt lat="44.36303" lon="3.82902">
        <ele>1364.488</ele>
        <time>2015-08-24T11:20:29Z</time>
      </trkpt>
      <trkpt lat="44.36274" lon="3.82928">
        <ele>1362.316</ele>
        <time>2015-08-24T11:20:49Z</time>
      </trkpt>
      <trkpt lat="44.3626" lon="3.82932">
        <ele>1361.208</ele>
        <time>2015-08-24T11:21:09Z</time>
      </trkpt>
      <trkpt lat="44.36253" lon="3.82946">
        <ele>1361.45</ele>
        <time>2015-08-24T11:21:29Z</time>
      </trkpt>
      <trkpt lat="44.36213" lon="3.82979">
        <ele>1359.895</ele>
        <time>2015-08-24T11:21:49Z</time>
      </trkpt>
      <trkpt lat="44.36198" lon="3.83005">
        <ele>1358.626</ele>
        <time>2015-08-24T11:22:09Z</time>
      </trkpt>
      <trkpt lat="44.36149" lon="3.83057">
        <ele>1358.471</ele>
        <time>2015-08-24T11:22:29Z</time>
      </trkpt>
      <trkpt lat="44.36126" lon="3.83075">
        <ele>1357.85</ele>
        <time>2015-08-24T11:22:49Z</time>
      </trkpt>
      <trkpt lat="44.36095" lon="3.83114">
        <ele>1358.463</ele>
        <time>2015-08-24T11:23:09Z</time>
      </trkpt>
      <trkpt lat="44.36066" lon="3.83166">
        <ele>1356.16</ele>
        <time>2015-08-24T11:23:29Z</time>
      </trkpt>
      <trkpt lat="44.36036" lon="3.83186">
        <ele>1351.964</ele>
        <time>2015-08-24T11:23:49Z</time>
      </trkpt>
      <trkpt lat="44.36024" lon="3.83203">
        <ele>1351.171</ele>
        <time>2015-08-24T11:24:09Z</time>
      </trkpt>
      <trkpt lat="44.35978" lon="3.83245">
        <ele>1345.941</ele>
        <time>2015-08-24T11:24:29Z</time>
      </trkpt>
      <trkpt lat="44.35967" lon="3.83268">
        <ele>1346.815</ele>
        <time>2015-08-24T11:24:49Z</time>
      </trkpt>
      <trkpt lat="44.35946" lon="3.83274">
        <ele>1344.608</ele>
        <time>2015-08-24T11:25:09Z</time>
      </trkpt>
      <trkpt lat="44.35913" lon="3.83306">
        <ele>1347.813</ele>
        <time>2015-08-24T11:25:29Z</time>
      </trkpt>
      <trkpt lat="44.35881" lon="3.83325">
        <ele>1348.188</ele>
        <time>2015-08-24T11:25:49Z</time>
      </trkpt>
      <trkpt lat="44.35855" lon="3.83346">
        <ele>1345.859</ele>
        <time>2015-08-24T11:26:09Z</time>
      </trkpt>
      <trkpt lat="44.35834" lon="3.83348">
        <ele>1342.984</ele>
        <time>2015-08-24T11:26:29Z</time>
      </trkpt>
      <trkpt lat="44.35829" lon="3.83363">
        <ele>1341.113</ele>
        <time>2015-08-24T11:26:49Z</time>
      </trkpt>
      <trkpt lat="44.3584" lon="3.83404">
        <ele>1339.546</ele>
        <time>2015-08-24T11:27:09Z</time>
      </trkpt>
      <trkpt lat="44.35831" lon="3.83408">
        <ele>1337.413</ele>
        <time>2015-08-24T11:27:29Z</time>
      </trkpt>
      <trkpt lat="44.35826" lon="3.8343">
        <ele>1335.547</ele>
        <time>2015-08-24T11:27:49Z</time>
      </trkpt>
      <trkpt lat="44.35762" lon="3.8344">
        <ele>1328.391</ele>
        <time>2015-08-24T11:28:09Z</time>
      </trkpt>
      <trkpt lat="44.35741" lon="3.83458">
        <ele>1324.681</ele>
        <time>2015-08-24T11:28:29Z</time>
      </trkpt>
      <trkpt lat="44.35711" lon="3.83477">
        <ele>1319.919</ele>
        <time>2015-08-24T11:28:49Z</time>
      </trkpt>
      <trkpt lat="44.35692" lon="3.83522">
        <ele>1314.308</ele>
        <time>2015-08-24T11:29:09Z</time>
      </trkpt>
      <trkpt lat="44.35652" lon="3.83553">
        <ele>1306.525</ele>
        <time>2015-08-24T11:29:29Z</time>
      </trkpt>
      <trkpt lat="44.35626" lon="3.83581">
        <ele>1303.62</ele>
        <time>2015-08-24T11:29:49Z</time>
      </trkpt>
      <trkpt lat="44.35618" lon="3.83604">
        <ele>1303.281</ele>
        <time>2015-08-24T11:30:09Z</time>
      </trkpt>
      <trkpt lat="44.35603" lon="3.83614">
        <ele>1302.626</ele>
        <time>2015-08-24T11:30:29Z</time>
      </trkpt>
      <trkpt lat="44.35552" lon="3.83628">
        <ele>1298.325</ele>
        <time>2015-08-24T11:30:49Z</time>
      </trkpt>
      <trkpt lat="44.35521" lon="3.83647">
        <ele>1293.388</ele>
        <time>2015-08-24T11:31:09Z</time>
      </trkpt>
      <trkpt lat="44.35508" lon="3.83667">
        <ele>1291.835</ele>
        <time>2015-08-24T11:31:29Z</time>
      </trkpt>
      <trkpt lat="44.35496" lon="3.83702">
        <ele>1289.469</ele>
        <time>2015-08-24T11:31:49Z</time>
      </trkpt>
      <trkpt lat="44.35477" lon="3.83718">
        <ele>1284.367</ele>
        <time>2015-08-24T11:33:09Z</time>
      </trkpt>
      <trkpt lat="44.35446" lon="3.83728">
        <ele>1274.481</ele>
        <time>2015-08-24T11:33:29Z</time>
      </trkpt>
      <trkpt lat="44.35429" lon="3.83742">
        <ele>1271.819</ele>
        <time>2015-08-24T11:33:49Z</time>
      </trkpt>
      <trkpt lat="44.35384" lon="3.83753">
        <ele>1268.408</ele>
        <time>2015-08-24T11:34:09Z</time>
      </trkpt>
      <trkpt lat="44.35361" lon="3.83758">
        <ele>1266.042</ele>
        <time>2015-08-24T11:34:29Z</time>
      </trkpt>
      <trkpt lat="44.35349" lon="3.8377">
        <ele>1264.777</ele>
        <time>2015-08-24T11:34:49Z</time>
      </trkpt>
      <trkpt lat="44.35344" lon="3.83783">
        <ele>1263.628</ele>
        <time>2015-08-24T11:35:09Z</time>
      </trkpt>
      <trkpt lat="44.35321" lon="3.83789">
        <ele>1260.443</ele>
        <time>2015-08-24T11:35:29Z</time>
      </trkpt>
      <trkpt lat="44.35296" lon="3.83797">
        <ele>1257.562</ele>
        <time>2015-08-24T11:35:49Z</time>
      </trkpt>
      <trkpt lat="44.35293" lon="3.83792">
        <ele>1257.415</ele>
        <time>2015-08-24T11:36:09Z</time>
      </trkpt>
      <trkpt lat="44.35261" lon="3.83805">
        <ele>1253.522</ele>
        <time>2015-08-24T11:36:29Z</time>
      </trkpt>
      <trkpt lat="44.35243" lon="3.83819">
        <ele>1251.826</ele>
        <time>2015-08-24T11:36:49Z</time>
      </trkpt>
      <trkpt lat="44.35154" lon="3.83812">
        <ele>1248.966</ele>
        <time>2015-08-24T11:37:09Z</time>
      </trkpt>
      <trkpt lat="44.35117" lon="3.8382">
        <ele>1250.129</ele>
        <time>2015-08-24T11:37:29Z</time>
      </trkpt>
      <trkpt lat="44.35096" lon="3.83802">
        <ele>1250.921</ele>
        <time>2015-08-24T11:37:49Z</time>
      </trkpt>
      <trkpt lat="44.35072" lon="3.83795">
        <ele>1251.208</ele>
        <time>2015-08-24T11:38:09Z</time>
      </trkpt>
      <trkpt lat="44.35058" lon="3.83786">
        <ele>1251.682</ele>
        <time>2015-08-24T11:38:29Z</time>
      </trkpt>
      <trkpt lat="44.35023" lon="3.83777">
        <ele>1253.457</ele>
        <time>2015-08-24T11:38:49Z</time>
      </trkpt>
      <trkpt lat="44.35003" lon="3.83765">
        <ele>1256.528</ele>
        <time>2015-08-24T11:39:09Z</time>
      </trkpt>
      <trkpt lat="44.34976" lon="3.83773">
        <ele>1258.383</ele>
        <time>2015-08-24T11:39:29Z</time>
      </trkpt>
      <trkpt lat="44.34954" lon="3.83767">
        <ele>1262.412</ele>
        <time>2015-08-24T11:39:49Z</time>
      </trkpt>
      <trkpt lat="44.34945" lon="3.83743">
        <ele>1265.255</ele>
        <time>2015-08-24T11:40:09Z</time>
      </trkpt>
      <trkpt lat="44.34934" lon="3.83739">
        <ele>1266.342</ele>
        <time>2015-08-24T11:40:29Z</time>
      </trkpt>
      <trkpt lat="44.349" lon="3.83757">
        <ele>1268.136</ele>
        <time>2015-08-24T11:40:49Z</time>
      </trkpt>
      <trkpt lat="44.34885" lon="3.8376">
        <ele>1269.335</ele>
        <time>2015-08-24T11:41:09Z</time>
      </trkpt>
      <trkpt lat="44.34884" lon="3.8374">
        <ele>1272.586</ele>
        <time>2015-08-24T11:41:29Z</time>
      </trkpt>
      <trkpt lat="44.34855" lon="3.83753">
        <ele>1276.414</ele>
        <time>2015-08-24T11:41:49Z</time>
      </trkpt>
      <trkpt lat="44.34833" lon="3.8375">
        <ele>1282.008</ele>
        <time>2015-08-24T11:42:09Z</time>
      </trkpt>
      <trkpt lat="44.3479" lon="3.83737">
        <ele>1282.339</ele>
        <time>2015-08-24T11:42:29Z</time>
      </trkpt>
      <trkpt lat="44.34748" lon="3.8374">
        <ele>1281.584</ele>
        <time>2015-08-24T11:42:49Z</time>
      </trkpt>
      <trkpt lat="44.34733" lon="3.83747">
        <ele>1280.865</ele>
        <time>2015-08-24T11:43:09Z</time>
      </trkpt>
      <trkpt lat="44.34712" lon="3.83744">
        <ele>1280.16</ele>
        <time>2015-08-24T11:43:29Z</time>
      </trkpt>
      <trkpt lat="44.34591" lon="3.8378">
        <ele>1283.519</ele>
        <time>2015-08-24T11:43:49Z</time>
      </trkpt>
      <trkpt lat="44.34538" lon="3.83804">
        <ele>1282.262</ele>
        <time>2015-08-24T11:44:09Z</time>
      </trkpt>
      <trkpt lat="44.34449" lon="3.83821">
        <ele>1268.439</ele>
        <time>2015-08-24T11:44:29Z</time>
      </trkpt>
      <trkpt lat="44.34409" lon="3.83813">
        <ele>1263.633</ele>
        <time>2015-08-24T11:44:49Z</time>
      </trkpt>
      <trkpt lat="44.34376" lon="3.83814">
        <ele>1258.129</ele>
        <time>2015-08-24T11:45:09Z</time>
      </trkpt>
      <trkpt lat="44.34311" lon="3.8383">
        <ele>1250.6</ele>
        <time>2015-08-24T11:45:29Z</time>
      </trkpt>
      <trkpt lat="44.34289" lon="3.83829">
        <ele>1247.62</ele>
        <time>2015-08-24T11:45:49Z</time>
      </trkpt>
      <trkpt lat="44.34267" lon="3.8382">
        <ele>1244.008</ele>
        <time>2015-08-24T11:46:09Z</time>
      </trkpt>
      <trkpt lat="44.34129" lon="3.83788">
        <ele>1217.778</ele>
        <time>2015-08-24T11:46:29Z</time>
      </trkpt>
      <trkpt lat="44.3411" lon="3.83789">
        <ele>1216.883</ele>
        <time>2015-08-24T11:46:49Z</time>
      </trkpt>
      <trkpt lat="44.34016" lon="3.83758">
        <ele>1218.364</ele>
        <time>2015-08-24T11:47:09Z</time>
      </trkpt>
      <trkpt lat="44.33919" lon="3.83703">
        <ele>1224.519</ele>
        <time>2015-08-24T11:47:29Z</time>
      </trkpt>
      <trkpt lat="44.33838" lon="3.83645">
        <ele>1229.678</ele>
        <time>2015-08-24T11:47:49Z</time>
      </trkpt>
      <trkpt lat="44.33721" lon="3.83517">
        <ele>1223.811</ele>
        <time>2015-08-24T11:48:09Z</time>
      </trkpt>
      <trkpt lat="44.33687" lon="3.83476">
        <ele>1216.858</ele>
        <time>2015-08-24T11:48:29Z</time>
      </trkpt>
      <trkpt lat="44.33653" lon="3.83449">
        <ele>1212.392</ele>
        <time>2015-08-24T11:48:49Z</time>
      </trkpt>
      <trkpt lat="44.33637" lon="3.83411">
        <ele>1209.375</ele>
        <time>2015-08-24T11:49:09Z</time>
      </trkpt>
      <trkpt lat="44.3358" lon="3.83352">
        <ele>1199.128</ele>
        <time>2015-08-24T11:49:29Z</time>
      </trkpt>
      <trkpt lat="44.33561" lon="3.83329">
        <ele>1196.02</ele>
        <time>2015-08-24T11:49:49Z</time>
      </trkpt>
      <trkpt lat="44.33539" lon="3.83311">
        <ele>1191.608</ele>
        <time>2015-08-24T11:50:09Z</time>
      </trkpt>
      <trkpt lat="44.33502" lon="3.83295">
        <ele>1184.653</ele>
        <time>2015-08-24T11:50:29Z</time>
      </trkpt>
      <trkpt lat="44.33487" lon="3.83273">
        <ele>1180.288</ele>
        <time>2015-08-24T11:50:49Z</time>
      </trkpt>
      <trkpt lat="44.33466" lon="3.83263">
        <ele>1175.979</ele>
        <time>2015-08-24T11:51:09Z</time>
      </trkpt>
      <trkpt lat="44.33439" lon="3.83227">
        <ele>1169.444</ele>
        <time>2015-08-24T11:51:29Z</time>
      </trkpt>
      <trkpt lat="44.33413" lon="3.83215">
        <ele>1165.623</ele>
        <time>2015-08-24T11:51:49Z</time>
      </trkpt>
      <trkpt lat="44.33407" lon="3.83184">
        <ele>1163.856</ele>
        <time>2015-08-24T11:52:09Z</time>
      </trkpt>
      <trkpt lat="44.33394" lon="3.83159">
        <ele>1161.743</ele>
        <time>2015-08-24T11:52:29Z</time>
      </trkpt>
      <trkpt lat="44.33355" lon="3.8311">
        <ele>1161.047</ele>
        <time>2015-08-24T11:52:49Z</time>
      </trkpt>
      <trkpt lat="44.33321" lon="3.83096">
        <ele>1162.036</ele>
        <time>2015-08-24T11:53:09Z</time>
      </trkpt>
      <trkpt lat="44.33175" lon="3.83046">
        <ele>1167.217</ele>
        <time>2015-08-24T11:53:29Z</time>
      </trkpt>
      <trkpt lat="44.33088" lon="3.83008">
        <ele>1162.018</ele>
        <time>2015-08-24T11:53:49Z</time>
      </trkpt>
      <trkpt lat="44.33052" lon="3.82986">
        <ele>1161.108</ele>
        <time>2015-08-24T11:54:09Z</time>
      </trkpt>
      <trkpt lat="44.32979" lon="3.82882">
        <ele>1155.949</ele>
        <time>2015-08-24T11:54:29Z</time>
      </trkpt>
      <trkpt lat="44.32967" lon="3.82805">
        <ele>1157.224</ele>
        <time>2015-08-24T11:54:49Z</time>
      </trkpt>
      <trkpt lat="44.32948" lon="3.8277">
        <ele>1156.165</ele>
        <time>2015-08-24T11:55:09Z</time>
      </trkpt>
      <trkpt lat="44.32932" lon="3.82675">
        <ele>1153.01</ele>
        <time>2015-08-24T11:55:29Z</time>
      </trkpt>
      <trkpt lat="44.32898" lon="3.82591">
        <ele>1146.139</ele>
        <time>2015-08-24T11:55:49Z</time>
      </trkpt>
      <trkpt lat="44.32916" lon="3.8253">
        <ele>1144.292</ele>
        <time>2015-08-24T11:56:09Z</time>
      </trkpt>
      <trkpt lat="44.32905" lon="3.82449">
        <ele>1139.939</ele>
        <time>2015-08-24T11:56:29Z</time>
      </trkpt>
      <trkpt lat="44.32925" lon="3.82411">
        <ele>1137.233</ele>
        <time>2015-08-24T11:56:49Z</time>
      </trkpt>
      <trkpt lat="44.32933" lon="3.82346">
        <ele>1135.384</ele>
        <time>2015-08-24T11:57:09Z</time>
      </trkpt>
      <trkpt lat="44.32996" lon="3.82064">
        <ele>1125.107</ele>
        <time>2015-08-24T11:57:29Z</time>
      </trkpt>
      <trkpt lat="44.33002" lon="3.8199">
        <ele>1121.917</ele>
        <time>2015-08-24T11:57:49Z</time>
      </trkpt>
      <trkpt lat="44.32997" lon="3.81941">
        <ele>1120.908</ele>
        <time>2015-08-24T11:58:09Z</time>
      </trkpt>
      <trkpt lat="44.32999" lon="3.81815">
        <ele>1115.024</ele>
        <time>2015-08-24T11:58:29Z</time>
      </trkpt>
      <trkpt lat="44.32982" lon="3.8175">
        <ele>1112.079</ele>
        <time>2015-08-24T11:58:49Z</time>
      </trkpt>
      <trkpt lat="44.32942" lon="3.81698">
        <ele>1108.76</ele>
        <time>2015-08-24T11:59:09Z</time>
      </trkpt>
      <trkpt lat="44.32906" lon="3.81656">
        <ele>1100.995</ele>
        <time>2015-08-24T11:59:29Z</time>
      </trkpt>
      <trkpt lat="44.32862" lon="3.81639">
        <ele>1102.814</ele>
        <time>2015-08-24T11:59:49Z</time>
      </trkpt>
      <trkpt lat="44.3284" lon="3.81622">
        <ele>1098.587</ele>
        <time>2015-08-24T12:00:09Z</time>
      </trkpt>
      <trkpt lat="44.32759" lon="3.81603">
        <ele>1091.624</ele>
        <time>2015-08-24T12:00:29Z</time>
      </trkpt>
      <trkpt lat="44.32703" lon="3.81624">
        <ele>1092.048</ele>
        <time>2015-08-24T12:00:49Z</time>
      </trkpt>
      <trkpt lat="44.32659" lon="3.81649">
        <ele>1091.132</ele>
        <time>2015-08-24T12:01:09Z</time>
      </trkpt>
      <trkpt lat="44.32628" lon="3.81677">
        <ele>1092.292</ele>
        <time>2015-08-24T12:01:29Z</time>
      </trkpt>
      <trkpt lat="44.32608" lon="3.81671">
        <ele>1094.711</ele>
        <time>2015-08-24T12:01:49Z</time>
      </trkpt>
      <trkpt lat="44.32583" lon="3.81688">
        <ele>1099.208</ele>
        <time>2015-08-24T12:02:09Z</time>
      </trkpt>
      <trkpt lat="44.32553" lon="3.81702">
        <ele>1103.389</ele>
        <time>2015-08-24T12:02:29Z</time>
      </trkpt>
      <trkpt lat="44.32528" lon="3.81706">
        <ele>1106.914</ele>
        <time>2015-08-24T12:02:49Z</time>
      </trkpt>
      <trkpt lat="44.32505" lon="3.81706">
        <ele>1111.395</ele>
        <time>2015-08-24T12:03:09Z</time>
      </trkpt>
      <trkpt lat="44.32469" lon="3.81723">
        <ele>1121.75</ele>
        <time>2015-08-24T12:03:29Z</time>
      </trkpt>
      <trkpt lat="44.32444" lon="3.8175">
        <ele>1130.119</ele>
        <time>2015-08-24T12:03:49Z</time>
      </trkpt>
      <trkpt lat="44.32398" lon="3.81763">
        <ele>1131.362</ele>
        <time>2015-08-24T12:04:09Z</time>
      </trkpt>
      <trkpt lat="44.3234" lon="3.81766">
        <ele>1138.539</ele>
        <time>2015-08-24T12:04:29Z</time>
      </trkpt>
      <trkpt lat="44.32258" lon="3.81755">
        <ele>1156.483</ele>
        <time>2015-08-24T12:04:49Z</time>
      </trkpt>
      <trkpt lat="44.32154" lon="3.81725">
        <ele>1182.339</ele>
        <time>2015-08-24T12:05:09Z</time>
      </trkpt>
      <trkpt lat="44.32136" lon="3.81727">
        <ele>1186.501</ele>
        <time>2015-08-24T12:05:29Z</time>
      </trkpt>
      <trkpt lat="44.32077" lon="3.81717">
        <ele>1195.821</ele>
        <time>2015-08-24T12:05:49Z</time>
      </trkpt>
      <trkpt lat="44.32062" lon="3.81705">
        <ele>1198.308</ele>
        <time>2015-08-24T12:06:09Z</time>
      </trkpt>
      <trkpt lat="44.32053" lon="3.81708">
        <ele>1199.329</ele>
        <time>2015-08-24T12:06:29Z</time>
      </trkpt>
      <trkpt lat="44.32024" lon="3.81712">
        <ele>1202.364</ele>
        <time>2015-08-24T12:06:49Z</time>
      </trkpt>
      <trkpt lat="44.31979" lon="3.81698">
        <ele>1209.785</ele>
        <time>2015-08-24T12:07:09Z</time>
      </trkpt>
      <trkpt lat="44.31842" lon="3.81684">
        <ele>1215.32</ele>
        <time>2015-08-24T12:07:29Z</time>
      </trkpt>
      <trkpt lat="44.31749" lon="3.81664">
        <ele>1216.239</ele>
        <time>2015-08-24T12:07:49Z</time>
      </trkpt>
      <trkpt lat="44.31633" lon="3.81644">
        <ele>1233.472</ele>
        <time>2015-08-24T12:08:09Z</time>
      </trkpt>
      <trkpt lat="44.31598" lon="3.81641">
        <ele>1240.369</ele>
        <time>2015-08-24T12:08:29Z</time>
      </trkpt>
      <trkpt lat="44.31567" lon="3.81628">
        <ele>1249.473</ele>
        <time>2015-08-24T12:08:49Z</time>
      </trkpt>
      <trkpt lat="44.31527" lon="3.81622">
        <ele>1258.929</ele>
        <time>2015-08-24T12:09:09Z</time>
      </trkpt>
      <trkpt lat="44.31434" lon="3.81601">
        <ele>1280</ele>
        <time>2015-08-24T12:09:29Z</time>
      </trkpt>
      <trkpt lat="44.31419" lon="3.81599">
        <ele>1283.72</ele>
        <time>2015-08-24T12:09:49Z</time>
      </trkpt>
      <trkpt lat="44.31337" lon="3.81563">
        <ele>1299.108</ele>
        <time>2015-08-24T12:10:09Z</time>
      </trkpt>
      <trkpt lat="44.31259" lon="3.816">
        <ele>1305.378</ele>
        <time>2015-08-24T12:10:29Z</time>
      </trkpt>
      <trkpt lat="44.31198" lon="3.81616">
        <ele>1306.033</ele>
        <time>2015-08-24T12:10:49Z</time>
      </trkpt>
      <trkpt lat="44.31163" lon="3.81628">
        <ele>1301.124</ele>
        <time>2015-08-24T12:11:09Z</time>
      </trkpt>
      <trkpt lat="44.3112" lon="3.81621">
        <ele>1298.419</ele>
        <time>2015-08-24T12:11:29Z</time>
      </trkpt>
      <trkpt lat="44.31082" lon="3.81608">
        <ele>1297.388</ele>
        <time>2015-08-24T12:11:49Z</time>
      </trkpt>
      <trkpt lat="44.31037" lon="3.816">
        <ele>1294.231</ele>
        <time>2015-08-24T12:12:09Z</time>
      </trkpt>
      <trkpt lat="44.30945" lon="3.81575">
        <ele>1289.658</ele>
        <time>2015-08-24T12:12:29Z</time>
      </trkpt>
      <trkpt lat="44.30909" lon="3.8157">
        <ele>1287.682</ele>
        <time>2015-08-24T12:12:49Z</time>
      </trkpt>
      <trkpt lat="44.30857" lon="3.81549">
        <ele>1283.594</ele>
        <time>2015-08-24T12:13:09Z</time>
      </trkpt>
      <trkpt lat="44.30831" lon="3.81543">
        <ele>1280.557</ele>
        <time>2015-08-24T12:14:29Z</time>
      </trkpt>
      <trkpt lat="44.3082" lon="3.81527">
        <ele>1279.422</ele>
        <time>2015-08-24T12:14:49Z</time>
      </trkpt>
      <trkpt lat="44.30801" lon="3.81516">
        <ele>1277.008</ele>
        <time>2015-08-24T12:15:09Z</time>
      </trkpt>
      <trkpt lat="44.30717" lon="3.81546">
        <ele>1278.755</ele>
        <time>2015-08-24T12:15:29Z</time>
      </trkpt>
      <trkpt lat="44.30585" lon="3.81571">
        <ele>1292.02</ele>
        <time>2015-08-24T12:15:49Z</time>
      </trkpt>
      <trkpt lat="44.30562" lon="3.81587">
        <ele>1291.871</ele>
        <time>2015-08-24T12:16:09Z</time>
      </trkpt>
      <trkpt lat="44.30541" lon="3.81587">
        <ele>1290.466</ele>
        <time>2015-08-24T12:16:29Z</time>
      </trkpt>
      <trkpt lat="44.3052" lon="3.81578">
        <ele>1287.515</ele>
        <time>2015-08-24T12:16:49Z</time>
      </trkpt>
      <trkpt lat="44.30445" lon="3.81574">
        <ele>1275.558</ele>
        <time>2015-08-24T12:17:09Z</time>
      </trkpt>
      <trkpt lat="44.30415" lon="3.81609">
        <ele>1271.675</ele>
        <time>2015-08-24T12:17:29Z</time>
      </trkpt>
      <trkpt lat="44.30367" lon="3.81594">
        <ele>1260.689</ele>
        <time>2015-08-24T12:17:49Z</time>
      </trkpt>
      <trkpt lat="44.30331" lon="3.81571">
        <ele>1253.749</ele>
        <time>2015-08-24T12:18:09Z</time>
      </trkpt>
      <trkpt lat="44.30241" lon="3.81538">
        <ele>1242.002</ele>
        <time>2015-08-24T12:18:29Z</time>
      </trkpt>
      <trkpt lat="44.3021" lon="3.81505">
        <ele>1231.822</ele>
        <time>2015-08-24T12:18:49Z</time>
      </trkpt>
      <trkpt lat="44.30174" lon="3.81416">
        <ele>1218.008</ele>
        <time>2015-08-24T12:19:09Z</time>
      </trkpt>
      <trkpt lat="44.30131" lon="3.81382">
        <ele>1210.45</ele>
        <time>2015-08-24T12:19:29Z</time>
      </trkpt>
      <trkpt lat="44.30059" lon="3.81309">
        <ele>1190.585</ele>
        <time>2015-08-24T12:19:49Z</time>
      </trkpt>
      <trkpt lat="44.30044" lon="3.81271">
        <ele>1179.386</ele>
        <time>2015-08-24T12:20:09Z</time>
      </trkpt>
      <trkpt lat="44.30041" lon="3.81196">
        <ele>1166.721</ele>
        <time>2015-08-24T12:20:29Z</time>
      </trkpt>
      <trkpt lat="44.30038" lon="3.81163">
        <ele>1158.21</ele>
        <time>2015-08-24T12:20:49Z</time>
      </trkpt>
      <trkpt lat="44.30045" lon="3.81116">
        <ele>1149.163</ele>
        <time>2015-08-24T12:21:09Z</time>
      </trkpt>
      <trkpt lat="44.30035" lon="3.81075">
        <ele>1138.46</ele>
        <time>2015-08-24T12:21:29Z</time>
      </trkpt>
      <trkpt lat="44.29998" lon="3.80964">
        <ele>1112.714</ele>
        <time>2015-08-24T12:21:49Z</time>
      </trkpt>
      <trkpt lat="44.29997" lon="3.80939">
        <ele>1109.474</ele>
        <time>2015-08-24T12:22:09Z</time>
      </trkpt>
      <trkpt lat="44.29953" lon="3.80923">
        <ele>1096.356</ele>
        <time>2015-08-24T12:22:29Z</time>
      </trkpt>
      <trkpt lat="44.29889" lon="3.8087">
        <ele>1077.221</ele>
        <time>2015-08-24T12:22:49Z</time>
      </trkpt>
      <trkpt lat="44.29834" lon="3.80863">
        <ele>1063.208</ele>
        <time>2015-08-24T12:23:09Z</time>
      </trkpt>
      <trkpt lat="44.29816" lon="3.80848">
        <ele>1056.963</ele>
        <time>2015-08-24T12:23:29Z</time>
      </trkpt>
      <trkpt lat="44.29763" lon="3.80769">
        <ele>1038.998</ele>
        <time>2015-08-24T12:23:49Z</time>
      </trkpt>
      <trkpt lat="44.29747" lon="3.80736">
        <ele>1033.049</ele>
        <time>2015-08-24T12:24:09Z</time>
      </trkpt>
      <trkpt lat="44.29727" lon="3.80676">
        <ele>1027.034</ele>
        <time>2015-08-24T12:24:29Z</time>
      </trkpt>
      <trkpt lat="44.29682" lon="3.80594">
        <ele>1025.993</ele>
        <time>2015-08-24T12:24:49Z</time>
      </trkpt>
      <trkpt lat="44.29648" lon="3.8056">
        <ele>1025.696</ele>
        <time>2020-11-30T12:52:08Z</time>
      </trkpt>
      <trkpt lat="44.29648" lon="3.8056">
        <ele>1025.693</ele>
        <time>2020-11-30T12:52:28Z</time>
      </trkpt>
      <trkpt lat="44.2964" lon="3.80509">
        <ele>1030.937</ele>
        <time>2020-11-30T12:52:48Z</time>
      </trkpt>
      <trkpt lat="44.29607" lon="3.80446">
        <ele>1042.093</ele>
        <time>2020-11-30T12:53:08Z</time>
      </trkpt>
      <trkpt lat="44.29492" lon="3.80412">
        <ele>1042.465</ele>
        <time>2020-11-30T12:53:28Z</time>
      </trkpt>
      <trkpt lat="44.29439" lon="3.8041">
        <ele>1034.321</ele>
        <time>2020-11-30T12:53:48Z</time>
      </trkpt>
      <trkpt lat="44.29356" lon="3.80376">
        <ele>1010.708</ele>
        <time>2020-11-30T12:54:08Z</time>
      </trkpt>
      <trkpt lat="44.29123" lon="3.80342">
        <ele>956.255</ele>
        <time>2020-11-30T12:54:28Z</time>
      </trkpt>
      <trkpt lat="44.28922" lon="3.80342">
        <ele>909.86</ele>
        <time>2020-11-30T12:54:48Z</time>
      </trkpt>
      <trkpt lat="44.28897" lon="3.80332">
        <ele>906.241</ele>
        <time>2015-08-24T12:32:09Z</time>
      </trkpt>
      <trkpt lat="44.28883" lon="3.803">
        <ele>904.256</ele>
        <time>2015-08-24T12:32:29Z</time>
      </trkpt>
      <trkpt lat="44.28877" lon="3.8023">
        <ele>906.435</ele>
        <time>2015-08-24T12:32:49Z</time>
      </trkpt>
      <trkpt lat="44.28879" lon="3.80083">
        <ele>900.018</ele>
        <time>2015-08-24T12:33:09Z</time>
      </trkpt>
      <trkpt lat="44.28865" lon="3.79836">
        <ele>888.515</ele>
        <time>2015-08-24T12:33:29Z</time>
      </trkpt>
      <trkpt lat="44.28841" lon="3.79739">
        <ele>887.729</ele>
        <time>2015-08-24T12:33:49Z</time>
      </trkpt>
      <trkpt lat="44.28812" lon="3.79672">
        <ele>882.984</ele>
        <time>2015-08-24T12:34:09Z</time>
      </trkpt>
      <trkpt lat="44.28793" lon="3.79645">
        <ele>883.107</ele>
        <time>2015-08-24T12:34:29Z</time>
      </trkpt>
      <trkpt lat="44.28734" lon="3.79522">
        <ele>876.317</ele>
        <time>2015-08-24T12:34:49Z</time>
      </trkpt>
      <trkpt lat="44.28711" lon="3.79487">
        <ele>878.108</ele>
        <time>2015-08-24T12:35:09Z</time>
      </trkpt>
      <trkpt lat="44.28673" lon="3.79456">
        <ele>884.534</ele>
        <time>2015-08-24T12:35:29Z</time>
      </trkpt>
      <trkpt lat="44.2867" lon="3.7944">
        <ele>882.499</ele>
        <time>2015-08-24T12:35:49Z</time>
      </trkpt>
      <trkpt lat="44.28675" lon="3.79404">
        <ele>874.36</ele>
        <time>2015-08-24T12:36:09Z</time>
      </trkpt>
      <trkpt lat="44.28669" lon="3.79394">
        <ele>873.695</ele>
        <time>2015-08-24T12:36:29Z</time>
      </trkpt>
      <trkpt lat="44.28623" lon="3.79381">
        <ele>876.414</ele>
        <time>2015-08-24T12:36:49Z</time>
      </trkpt>
      <trkpt lat="44.28605" lon="3.79382">
        <ele>877.157</ele>
        <time>2015-08-24T12:37:09Z</time>
      </trkpt>
      <trkpt lat="44.28578" lon="3.79375">
        <ele>874.984</ele>
        <time>2015-08-24T12:37:29Z</time>
      </trkpt>
      <trkpt lat="44.28544" lon="3.79376">
        <ele>876.878</ele>
        <time>2015-08-24T12:37:49Z</time>
      </trkpt>
      <trkpt lat="44.28533" lon="3.7937">
        <ele>877.983</ele>
        <time>2015-08-24T12:38:09Z</time>
      </trkpt>
      <trkpt lat="44.28536" lon="3.79353">
        <ele>876.025</ele>
        <time>2015-08-24T12:38:29Z</time>
      </trkpt>
      <trkpt lat="44.28553" lon="3.79329">
        <ele>871.517</ele>
        <time>2015-08-24T12:38:49Z</time>
      </trkpt>
      <trkpt lat="44.28567" lon="3.79301">
        <ele>868.308</ele>
        <time>2015-08-24T12:39:09Z</time>
      </trkpt>
      <trkpt lat="44.28582" lon="3.79253">
        <ele>866.454</ele>
        <time>2015-08-24T12:39:29Z</time>
      </trkpt>
      <trkpt lat="44.286" lon="3.792">
        <ele>862.689</ele>
        <time>2015-08-24T12:39:49Z</time>
      </trkpt>
      <trkpt lat="44.28595" lon="3.79175">
        <ele>863.53</ele>
        <time>2015-08-24T12:40:09Z</time>
      </trkpt>
      <trkpt lat="44.28568" lon="3.79118">
        <ele>860.655</ele>
        <time>2015-08-24T12:40:29Z</time>
      </trkpt>
      <trkpt lat="44.28555" lon="3.79103">
        <ele>862.524</ele>
        <time>2015-08-24T12:40:49Z</time>
      </trkpt>
      <trkpt lat="44.28536" lon="3.79064">
        <ele>861.067</ele>
        <time>2015-08-24T12:41:09Z</time>
      </trkpt>
      <trkpt lat="44.28511" lon="3.79027">
        <ele>860.024</ele>
        <time>2015-08-24T12:41:29Z</time>
      </trkpt>
      <trkpt lat="44.285" lon="3.79006">
        <ele>855.388</ele>
        <time>2015-08-24T12:41:49Z</time>
      </trkpt>
      <trkpt lat="44.28478" lon="3.78998">
        <ele>855.546</ele>
        <time>2015-08-24T12:42:09Z</time>
      </trkpt>
      <trkpt lat="44.28436" lon="3.78999">
        <ele>861.688</ele>
        <time>2015-08-24T12:42:29Z</time>
      </trkpt>
      <trkpt lat="44.28425" lon="3.78941">
        <ele>847.916</ele>
        <time>2015-08-24T12:42:49Z</time>
      </trkpt>
      <trkpt lat="44.28409" lon="3.78927">
        <ele>846.308</ele>
        <time>2015-08-24T12:43:09Z</time>
      </trkpt>
      <trkpt lat="44.28369" lon="3.78903">
        <ele>848.22</ele>
        <time>2015-08-24T12:43:49Z</time>
      </trkpt>
      <trkpt lat="44.28334" lon="3.78871">
        <ele>848.655</ele>
        <time>2015-08-24T12:44:09Z</time>
      </trkpt>
      <trkpt lat="44.28288" lon="3.78841">
        <ele>844.956</ele>
        <time>2015-08-24T12:44:29Z</time>
      </trkpt>
      <trkpt lat="44.28244" lon="3.78821">
        <ele>843.681</ele>
        <time>2015-08-24T12:44:49Z</time>
      </trkpt>
      <trkpt lat="44.28225" lon="3.78801">
        <ele>841.49</ele>
        <time>2015-08-24T12:45:09Z</time>
      </trkpt>
      <trkpt lat="44.28205" lon="3.78767">
        <ele>836.173</ele>
        <time>2015-08-24T12:45:29Z</time>
      </trkpt>
      <trkpt lat="44.28191" lon="3.78754">
        <ele>834.99</ele>
        <time>2015-08-24T12:45:49Z</time>
      </trkpt>
      <trkpt lat="44.28177" lon="3.78754">
        <ele>834.584</ele>
        <time>2015-08-24T12:46:09Z</time>
      </trkpt>
      <trkpt lat="44.28143" lon="3.7877">
        <ele>834.526</ele>
        <time>2015-08-24T12:46:29Z</time>
      </trkpt>
      <trkpt lat="44.28116" lon="3.78776">
        <ele>833.147</ele>
        <time>2015-08-24T12:46:49Z</time>
      </trkpt>
      <trkpt lat="44.28073" lon="3.78792">
        <ele>832.511</ele>
        <time>2015-08-24T12:47:09Z</time>
      </trkpt>
      <trkpt lat="44.28057" lon="3.78829">
        <ele>833.108</ele>
        <time>2015-08-24T12:47:29Z</time>
      </trkpt>
      <trkpt lat="44.28036" lon="3.78836">
        <ele>833.678</ele>
        <time>2015-08-24T12:47:49Z</time>
      </trkpt>
      <trkpt lat="44.28019" lon="3.7881">
        <ele>836.863</ele>
        <time>2015-08-24T12:48:09Z</time>
      </trkpt>
      <trkpt lat="44.28012" lon="3.78787">
        <ele>839.464</ele>
        <time>2015-08-24T12:48:29Z</time>
      </trkpt>
      <trkpt lat="44.27974" lon="3.78765">
        <ele>848.459</ele>
        <time>2015-08-24T12:48:49Z</time>
      </trkpt>
      <trkpt lat="44.27936" lon="3.78752">
        <ele>858.588</ele>
        <time>2015-08-24T12:49:09Z</time>
      </trkpt>
      <trkpt lat="44.27921" lon="3.78738">
        <ele>864.951</ele>
        <time>2015-08-24T12:49:29Z</time>
      </trkpt>
      <trkpt lat="44.2791" lon="3.7872">
        <ele>872.148</ele>
        <time>2015-08-24T12:49:49Z</time>
      </trkpt>
      <trkpt lat="44.27875" lon="3.78696">
        <ele>886.882</ele>
        <time>2015-08-24T12:50:09Z</time>
      </trkpt>
      <trkpt lat="44.27862" lon="3.78738">
        <ele>884.417</ele>
        <time>2015-08-24T12:50:29Z</time>
      </trkpt>
      <trkpt lat="44.27843" lon="3.78764">
        <ele>884.887</ele>
        <time>2015-08-24T12:50:49Z</time>
      </trkpt>
      <trkpt lat="44.27801" lon="3.78771">
        <ele>893.815</ele>
        <time>2015-08-24T12:51:09Z</time>
      </trkpt>
      <trkpt lat="44.27774" lon="3.78786">
        <ele>897.708</ele>
        <time>2015-08-24T12:51:29Z</time>
      </trkpt>
      <trkpt lat="44.27749" lon="3.7878">
        <ele>907.957</ele>
        <time>2015-08-24T12:51:49Z</time>
      </trkpt>
      <trkpt lat="44.27744" lon="3.78797">
        <ele>904.022</ele>
        <time>2015-08-24T12:52:09Z</time>
      </trkpt>
      <trkpt lat="44.27718" lon="3.78855">
        <ele>899.683</ele>
        <time>2015-08-24T12:52:29Z</time>
      </trkpt>
      <trkpt lat="44.27681" lon="3.78879">
        <ele>907.568</ele>
        <time>2015-08-24T12:52:49Z</time>
      </trkpt>
      <trkpt lat="44.27652" lon="3.7891">
        <ele>912.877</ele>
        <time>2015-08-24T12:53:09Z</time>
      </trkpt>
      <trkpt lat="44.27617" lon="3.78958">
        <ele>911.97</ele>
        <time>2015-08-24T12:53:29Z</time>
      </trkpt>
      <trkpt lat="44.27599" lon="3.78957">
        <ele>917.397</ele>
        <time>2015-08-24T12:53:49Z</time>
      </trkpt>
      <trkpt lat="44.27588" lon="3.7897">
        <ele>915.361</ele>
        <time>2015-08-24T12:54:09Z</time>
      </trkpt>
      <trkpt lat="44.27559" lon="3.78968">
        <ele>923.466</ele>
        <time>2015-08-24T12:54:29Z</time>
      </trkpt>
      <trkpt lat="44.27526" lon="3.78983">
        <ele>927.329</ele>
        <time>2015-08-24T12:54:49Z</time>
      </trkpt>
      <trkpt lat="44.27515" lon="3.78998">
        <ele>928.321</ele>
        <time>2015-08-24T12:55:09Z</time>
      </trkpt>
      <trkpt lat="44.27516" lon="3.79038">
        <ele>918.908</ele>
        <time>2015-08-24T12:55:29Z</time>
      </trkpt>
      <trkpt lat="44.27526" lon="3.7909">
        <ele>912.092</ele>
        <time>2015-08-24T12:55:49Z</time>
      </trkpt>
      <trkpt lat="44.27535" lon="3.79101">
        <ele>907.487</ele>
        <time>2015-08-24T12:56:09Z</time>
      </trkpt>
      <trkpt lat="44.27536" lon="3.79136">
        <ele>904.678</ele>
        <time>2015-08-24T12:56:29Z</time>
      </trkpt>
      <trkpt lat="44.27529" lon="3.79145">
        <ele>906.873</ele>
        <time>2015-08-24T12:56:49Z</time>
      </trkpt>
      <trkpt lat="44.27476" lon="3.79173">
        <ele>910.832</ele>
        <time>2015-08-24T12:57:09Z</time>
      </trkpt>
      <trkpt lat="44.27463" lon="3.79185">
        <ele>911.365</ele>
        <time>2015-08-24T12:57:29Z</time>
      </trkpt>
      <trkpt lat="44.27443" lon="3.79189">
        <ele>916.492</ele>
        <time>2015-08-24T12:57:49Z</time>
      </trkpt>
      <trkpt lat="44.27423" lon="3.79214">
        <ele>915.646</ele>
        <time>2015-08-24T12:58:09Z</time>
      </trkpt>
      <trkpt lat="44.27407" lon="3.79231">
        <ele>916.262</ele>
        <time>2015-08-24T12:58:29Z</time>
      </trkpt>
      <trkpt lat="44.27391" lon="3.79254">
        <ele>916.983</ele>
        <time>2015-08-24T12:58:49Z</time>
      </trkpt>
      <trkpt lat="44.2736" lon="3.79289">
        <ele>923.711</ele>
        <time>2015-08-24T12:59:09Z</time>
      </trkpt>
      <trkpt lat="44.27353" lon="3.79313">
        <ele>922.908</ele>
        <time>2015-08-24T12:59:29Z</time>
      </trkpt>
      <trkpt lat="44.27343" lon="3.79331">
        <ele>922.162</ele>
        <time>2015-08-24T12:59:49Z</time>
      </trkpt>
      <trkpt lat="44.27316" lon="3.7934">
        <ele>921.217</ele>
        <time>2015-08-24T13:00:09Z</time>
      </trkpt>
      <trkpt lat="44.27291" lon="3.79388">
        <ele>917.678</ele>
        <time>2015-08-24T13:00:29Z</time>
      </trkpt>
      <trkpt lat="44.27239" lon="3.79441">
        <ele>921.423</ele>
        <time>2015-08-24T13:00:49Z</time>
      </trkpt>
      <trkpt lat="44.27146" lon="3.79516">
        <ele>943.912</ele>
        <time>2015-08-24T13:03:49Z</time>
      </trkpt>
      <trkpt lat="44.2705" lon="3.79562">
        <ele>972.835</ele>
        <time>2015-08-24T13:04:09Z</time>
      </trkpt>
      <trkpt lat="44.27032" lon="3.79574">
        <ele>978.632</ele>
        <time>2015-08-24T13:04:29Z</time>
      </trkpt>
      <trkpt lat="44.26983" lon="3.79616">
        <ele>994.036</ele>
        <time>2015-08-24T13:04:49Z</time>
      </trkpt>
      <trkpt lat="44.26982" lon="3.79649">
        <ele>1000.484</ele>
        <time>2015-08-24T13:05:09Z</time>
      </trkpt>
      <trkpt lat="44.26943" lon="3.79715">
        <ele>1020.007</ele>
        <time>2015-08-24T13:05:29Z</time>
      </trkpt>
      <trkpt lat="44.2692" lon="3.79784">
        <ele>1032.317</ele>
        <time>2015-08-24T13:05:49Z</time>
      </trkpt>
      <trkpt lat="44.2689" lon="3.79823">
        <ele>1038.208</ele>
        <time>2015-08-24T13:06:09Z</time>
      </trkpt>
      <trkpt lat="44.26874" lon="3.79847">
        <ele>1035.844</ele>
        <time>2015-08-24T13:06:29Z</time>
      </trkpt>
      <trkpt lat="44.26856" lon="3.79902">
        <ele>1033.399</ele>
        <time>2015-08-24T13:06:49Z</time>
      </trkpt>
      <trkpt lat="44.26851" lon="3.79946">
        <ele>1030.92</ele>
        <time>2015-08-24T13:07:09Z</time>
      </trkpt>
      <trkpt lat="44.26843" lon="3.79976">
        <ele>1030.795</ele>
        <time>2015-08-24T13:07:29Z</time>
      </trkpt>
      <trkpt lat="44.26812" lon="3.80014">
        <ele>1031.834</ele>
        <time>2019-03-28T21:51:37Z</time>
      </trkpt>
      <trkpt lat="44.2679" lon="3.80054">
        <ele>1032.957</ele>
        <time>2019-03-28T21:51:57Z</time>
      </trkpt>
      <trkpt lat="44.26708" lon="3.80138">
        <ele>1048.924</ele>
        <time>2019-03-28T21:52:17Z</time>
      </trkpt>
      <trkpt lat="44.26619" lon="3.80178">
        <ele>1057.778</ele>
        <time>2019-03-28T21:52:57Z</time>
      </trkpt>
      <trkpt lat="44.26605" lon="3.8014">
        <ele>1055.664</ele>
        <time>2019-03-28T21:53:17Z</time>
      </trkpt>
      <trkpt lat="44.26569" lon="3.80091">
        <ele>1048.106</ele>
        <time>2019-03-28T21:53:37Z</time>
      </trkpt>
      <trkpt lat="44.26555" lon="3.80063">
        <ele>1042.916</ele>
        <time>2019-03-28T21:53:57Z</time>
      </trkpt>
      <trkpt lat="44.26527" lon="3.80037">
        <ele>1035.708</ele>
        <time>2019-03-28T21:54:17Z</time>
      </trkpt>
      <trkpt lat="44.26478" lon="3.80008">
        <ele>1023.332</ele>
        <time>2019-03-28T21:54:37Z</time>
      </trkpt>
      <trkpt lat="44.2647" lon="3.79971">
        <ele>1021.417</ele>
        <time>2019-03-28T21:54:57Z</time>
      </trkpt>
      <trkpt lat="44.26412" lon="3.79929">
        <ele>1006.938</ele>
        <time>2019-03-28T21:55:17Z</time>
      </trkpt>
      <trkpt lat="44.26355" lon="3.79867">
        <ele>998.443</ele>
        <time>2015-08-24T13:16:29Z</time>
      </trkpt>
      <trkpt lat="44.26343" lon="3.79852">
        <ele>996.682</ele>
        <time>2015-08-24T13:16:49Z</time>
      </trkpt>
      <trkpt lat="44.26322" lon="3.79801">
        <ele>996.155</ele>
        <time>2015-08-24T13:17:09Z</time>
      </trkpt>
      <trkpt lat="44.2628" lon="3.79762">
        <ele>995.572</ele>
        <time>2015-08-24T13:17:29Z</time>
      </trkpt>
      <trkpt lat="44.26247" lon="3.79709">
        <ele>993.776</ele>
        <time>2015-08-24T13:17:49Z</time>
      </trkpt>
      <trkpt lat="44.26207" lon="3.79596">
        <ele>991.132</ele>
        <time>2015-08-24T13:18:09Z</time>
      </trkpt>
      <trkpt lat="44.26218" lon="3.79566">
        <ele>990.692</ele>
        <time>2020-11-30T13:33:28Z</time>
      </trkpt>
      <trkpt lat="44.26278" lon="3.79538">
        <ele>981.411</ele>
        <time>2020-11-30T13:33:48Z</time>
      </trkpt>
      <trkpt lat="44.2632" lon="3.79532">
        <ele>970.608</ele>
        <time>2020-11-30T13:34:08Z</time>
      </trkpt>
      <trkpt lat="44.26292" lon="3.79482">
        <ele>979.249</ele>
        <time>2020-11-30T13:34:28Z</time>
      </trkpt>
      <trkpt lat="44.26302" lon="3.79468">
        <ele>979.774</ele>
        <time>2020-11-30T13:34:48Z</time>
      </trkpt>
      <trkpt lat="44.26357" lon="3.79464">
        <ele>968.865</ele>
        <time>2020-11-30T13:35:08Z</time>
      </trkpt>
      <trkpt lat="44.26364" lon="3.79428">
        <ele>970.32</ele>
        <time>2020-11-30T13:35:28Z</time>
      </trkpt>
      <trkpt lat="44.26304" lon="3.7926">
        <ele>991.119</ele>
        <time>2020-11-30T13:35:48Z</time>
      </trkpt>
      <trkpt lat="44.26381" lon="3.79117">
        <ele>990.092</ele>
        <time>2020-11-30T13:36:08Z</time>
      </trkpt>
      <trkpt lat="44.26452" lon="3.79073">
        <ele>988.849</ele>
        <time>2020-11-30T13:36:28Z</time>
      </trkpt>
      <trkpt lat="44.26462" lon="3.78983">
        <ele>985.983</ele>
        <time>2020-11-30T13:36:48Z</time>
      </trkpt>
      <trkpt lat="44.26496" lon="3.78851">
        <ele>982.977</ele>
        <time>2020-11-30T13:37:08Z</time>
      </trkpt>
      <trkpt lat="44.26548" lon="3.78811">
        <ele>982.761</ele>
        <time>2020-11-30T13:37:28Z</time>
      </trkpt>
      <trkpt lat="44.26485" lon="3.78527">
        <ele>988.427</ele>
        <time>2020-11-30T13:37:48Z</time>
      </trkpt>
      <trkpt lat="44.2645" lon="3.78427">
        <ele>984.008</ele>
        <time>2020-11-30T13:38:08Z</time>
      </trkpt>
      <trkpt lat="44.26411" lon="3.78245">
        <ele>982.053</ele>
        <time>2020-11-30T13:38:28Z</time>
      </trkpt>
      <trkpt lat="44.26436" lon="3.78207">
        <ele>986.478</ele>
        <time>2020-11-30T13:38:48Z</time>
      </trkpt>
      <trkpt lat="44.26501" lon="3.78149">
        <ele>984.429</ele>
        <time>2015-08-24T13:25:29Z</time>
      </trkpt>
      <trkpt lat="44.26524" lon="3.78091">
        <ele>984.124</ele>
        <time>2015-08-24T13:25:49Z</time>
      </trkpt>
      <trkpt lat="44.26547" lon="3.78">
        <ele>978.653</ele>
        <time>2015-08-24T13:26:09Z</time>
      </trkpt>
      <trkpt lat="44.26539" lon="3.77977">
        <ele>974.946</ele>
        <time>2015-08-24T13:26:29Z</time>
      </trkpt>
      <trkpt lat="44.26418" lon="3.77999">
        <ele>984.033</ele>
        <time>2015-08-24T13:26:49Z</time>
      </trkpt>
      <trkpt lat="44.26396" lon="3.77976">
        <ele>985.417</ele>
        <time>2015-08-24T13:27:09Z</time>
      </trkpt>
      <trkpt lat="44.26383" lon="3.77777">
        <ele>987.736</ele>
        <time>2015-08-24T13:27:29Z</time>
      </trkpt>
      <trkpt lat="44.26365" lon="3.77722">
        <ele>993.717</ele>
        <time>2015-08-24T13:27:49Z</time>
      </trkpt>
      <trkpt lat="44.26362" lon="3.77561">
        <ele>998.318</ele>
        <time>2015-08-24T13:28:09Z</time>
      </trkpt>
      <trkpt lat="44.26367" lon="3.77512">
        <ele>989.808</ele>
        <time>2015-08-24T13:28:29Z</time>
      </trkpt>
      <trkpt lat="44.26361" lon="3.77486">
        <ele>987.079</ele>
        <time>2015-08-24T13:28:49Z</time>
      </trkpt>
      <trkpt lat="44.26282" lon="3.77483">
        <ele>989.994</ele>
        <time>2015-08-24T13:29:09Z</time>
      </trkpt>
      <trkpt lat="44.26196" lon="3.77528">
        <ele>996.145</ele>
        <time>2015-08-24T13:29:29Z</time>
      </trkpt>
      <trkpt lat="44.26164" lon="3.77521">
        <ele>993.16</ele>
        <time>2015-08-24T13:29:49Z</time>
      </trkpt>
      <trkpt lat="44.26066" lon="3.77445">
        <ele>993.379</ele>
        <time>2015-08-24T13:30:09Z</time>
      </trkpt>
      <trkpt lat="44.26007" lon="3.77322">
        <ele>996.592</ele>
        <time>2015-08-24T13:30:29Z</time>
      </trkpt>
      <trkpt lat="44.25898" lon="3.77231">
        <ele>996.899</ele>
        <time>2015-08-24T13:30:49Z</time>
      </trkpt>
      <trkpt lat="44.25814" lon="3.77225">
        <ele>1006.153</ele>
        <time>2015-08-24T13:31:09Z</time>
      </trkpt>
      <trkpt lat="44.25556" lon="3.76642">
        <ele>1112.817</ele>
        <time>2015-08-24T13:31:29Z</time>
      </trkpt>
      <trkpt lat="44.25445" lon="3.76595">
        <ele>1112.487</ele>
        <time>2015-08-24T13:31:49Z</time>
      </trkpt>
      <trkpt lat="44.25317" lon="3.76576">
        <ele>1098.315</ele>
        <time>2015-08-24T13:32:09Z</time>
      </trkpt>
      <trkpt lat="44.25224" lon="3.76629">
        <ele>1099.908</ele>
        <time>2015-08-24T13:32:29Z</time>
      </trkpt>
      <trkpt lat="44.25174" lon="3.76676">
        <ele>1102.467</ele>
        <time>2015-08-24T13:32:49Z</time>
      </trkpt>
      <trkpt lat="44.25138" lon="3.76691">
        <ele>1098.572</ele>
        <time>2015-08-24T13:33:09Z</time>
      </trkpt>
      <trkpt lat="44.25077" lon="3.76745">
        <ele>1098.173</ele>
        <time>2015-08-24T13:33:29Z</time>
      </trkpt>
      <trkpt lat="44.24993" lon="3.76777">
        <ele>1089.428</ele>
        <time>2015-08-24T13:33:49Z</time>
      </trkpt>
      <trkpt lat="44.24924" lon="3.76795">
        <ele>1089.017</ele>
        <time>2015-08-24T13:34:09Z</time>
      </trkpt>
      <trkpt lat="44.24882" lon="3.76768">
        <ele>1087.72</ele>
        <time>2015-08-24T13:34:29Z</time>
      </trkpt>
      <trkpt lat="44.24834" lon="3.76746">
        <ele>1094.577</ele>
        <time>2015-08-24T13:34:49Z</time>
      </trkpt>
      <trkpt lat="44.24838" lon="3.7673">
        <ele>1095.871</ele>
        <time>2015-08-24T13:35:09Z</time>
      </trkpt>
      <trkpt lat="44.24863" lon="3.76702">
        <ele>1091.122</ele>
        <time>2015-08-24T13:35:29Z</time>
      </trkpt>
      <trkpt lat="44.24961" lon="3.76509">
        <ele>1086.162</ele>
        <time>2015-08-24T13:35:49Z</time>
      </trkpt>
      <trkpt lat="44.24976" lon="3.76434">
        <ele>1083.808</ele>
        <time>2015-08-24T13:36:09Z</time>
      </trkpt>
      <trkpt lat="44.24981" lon="3.76342">
        <ele>1079.708</ele>
        <time>2015-08-24T13:36:29Z</time>
      </trkpt>
      <trkpt lat="44.24961" lon="3.76272">
        <ele>1081.038</ele>
        <time>2015-08-24T13:36:49Z</time>
      </trkpt>
      <trkpt lat="44.24883" lon="3.7617">
        <ele>1094.433</ele>
        <time>2015-08-24T13:37:09Z</time>
      </trkpt>
      <trkpt lat="44.24885" lon="3.76153">
        <ele>1093.974</ele>
        <time>2015-08-24T13:37:29Z</time>
      </trkpt>
      <trkpt lat="44.24957" lon="3.76071">
        <ele>1081.569</ele>
        <time>2015-08-24T13:37:49Z</time>
      </trkpt>
      <trkpt lat="44.24968" lon="3.76035">
        <ele>1082.278</ele>
        <time>2015-08-24T13:38:09Z</time>
      </trkpt>
      <trkpt lat="44.2496" lon="3.75991">
        <ele>1082.531</ele>
        <time>2015-08-24T13:38:29Z</time>
      </trkpt>
      <trkpt lat="44.24855" lon="3.759">
        <ele>1085.768</ele>
        <time>2015-08-24T13:38:49Z</time>
      </trkpt>
      <trkpt lat="44.24813" lon="3.75855">
        <ele>1082.572</ele>
        <time>2015-08-24T13:39:09Z</time>
      </trkpt>
      <trkpt lat="44.24738" lon="3.758">
        <ele>1076.995</ele>
        <time>2015-08-24T13:39:29Z</time>
      </trkpt>
      <trkpt lat="44.24696" lon="3.75753">
        <ele>1076.349</ele>
        <time>2015-08-24T13:39:49Z</time>
      </trkpt>
      <trkpt lat="44.24668" lon="3.75721">
        <ele>1073.823</ele>
        <time>2015-08-24T13:40:09Z</time>
      </trkpt>
      <trkpt lat="44.2461" lon="3.75715">
        <ele>1071.308</ele>
        <time>2015-08-24T13:40:29Z</time>
      </trkpt>
      <trkpt lat="44.24549" lon="3.75734">
        <ele>1068.245</ele>
        <time>2015-08-24T13:40:49Z</time>
      </trkpt>
      <trkpt lat="44.24518" lon="3.75761">
        <ele>1065.65</ele>
        <time>2015-08-24T13:41:09Z</time>
      </trkpt>
      <trkpt lat="44.24487" lon="3.75827">
        <ele>1067.321</ele>
        <time>2015-08-24T13:41:29Z</time>
      </trkpt>
      <trkpt lat="44.24437" lon="3.75869">
        <ele>1066.366</ele>
        <time>2015-08-24T13:41:49Z</time>
      </trkpt>
      <trkpt lat="44.24423" lon="3.75861">
        <ele>1067.315</ele>
        <time>2015-08-24T13:42:09Z</time>
      </trkpt>
      <trkpt lat="44.2442" lon="3.75824">
        <ele>1067.258</ele>
        <time>2015-08-24T13:42:29Z</time>
      </trkpt>
      <trkpt lat="44.24427" lon="3.75777">
        <ele>1065.245</ele>
        <time>2015-08-24T13:42:49Z</time>
      </trkpt>
      <trkpt lat="44.24366" lon="3.75643">
        <ele>1069.759</ele>
        <time>2015-08-24T13:43:09Z</time>
      </trkpt>
      <trkpt lat="44.24334" lon="3.75598">
        <ele>1069.081</ele>
        <time>2015-08-24T13:43:29Z</time>
      </trkpt>
      <trkpt lat="44.2434" lon="3.75524">
        <ele>1074.461</ele>
        <time>2015-08-24T13:43:49Z</time>
      </trkpt>
      <trkpt lat="44.24327" lon="3.75495">
        <ele>1075.417</ele>
        <time>2015-08-24T13:44:09Z</time>
      </trkpt>
      <trkpt lat="44.24301" lon="3.75487">
        <ele>1069.908</ele>
        <time>2015-08-24T13:44:29Z</time>
      </trkpt>
      <trkpt lat="44.24241" lon="3.7551">
        <ele>1058.674</ele>
        <time>2015-08-24T13:44:49Z</time>
      </trkpt>
      <trkpt lat="44.2422" lon="3.75495">
        <ele>1051.729</ele>
        <time>2015-08-24T13:45:09Z</time>
      </trkpt>
      <trkpt lat="44.24222" lon="3.75443">
        <ele>1045.87</ele>
        <time>2015-08-24T13:45:29Z</time>
      </trkpt>
      <trkpt lat="44.24258" lon="3.75402">
        <ele>1049.635</ele>
        <time>2015-08-24T13:45:49Z</time>
      </trkpt>
      <trkpt lat="44.24287" lon="3.75312">
        <ele>1048.954</ele>
        <time>2015-08-24T13:46:09Z</time>
      </trkpt>
      <trkpt lat="44.24317" lon="3.75224">
        <ele>1041.937</ele>
        <time>2015-08-24T13:46:29Z</time>
      </trkpt>
      <trkpt lat="44.24323" lon="3.75176">
        <ele>1045.434</ele>
        <time>2015-08-24T13:46:49Z</time>
      </trkpt>
      <trkpt lat="44.243" lon="3.75072">
        <ele>1032.338</ele>
        <time>2015-08-24T13:47:09Z</time>
      </trkpt>
      <trkpt lat="44.24295" lon="3.75026">
        <ele>1030.782</ele>
        <time>2015-08-24T13:47:29Z</time>
      </trkpt>
      <trkpt lat="44.24275" lon="3.74994">
        <ele>1025.743</ele>
        <time>2015-08-24T13:47:49Z</time>
      </trkpt>
      <trkpt lat="44.24244" lon="3.74863">
        <ele>1027.717</ele>
        <time>2015-08-24T13:48:09Z</time>
      </trkpt>
      <trkpt lat="44.24188" lon="3.74817">
        <ele>1015.108</ele>
        <time>2015-08-24T13:48:29Z</time>
      </trkpt>
      <trkpt lat="44.24176" lon="3.74773">
        <ele>1013.684</ele>
        <time>2015-08-24T13:48:49Z</time>
      </trkpt>
      <trkpt lat="44.24175" lon="3.74727">
        <ele>1011.079</ele>
        <time>2015-08-24T13:49:09Z</time>
      </trkpt>
      <trkpt lat="44.24211" lon="3.74644">
        <ele>1013.41</ele>
        <time>2015-08-24T13:49:29Z</time>
      </trkpt>
      <trkpt lat="44.24222" lon="3.74572">
        <ele>1010.225</ele>
        <time>2015-08-24T13:49:49Z</time>
      </trkpt>
      <trkpt lat="44.24241" lon="3.74499">
        <ele>1010.614</ele>
        <time>2015-08-24T13:50:09Z</time>
      </trkpt>
      <trkpt lat="44.24205" lon="3.74425">
        <ele>1000.827</ele>
        <time>2015-08-24T13:50:29Z</time>
      </trkpt>
      <trkpt lat="44.24204" lon="3.74382">
        <ele>992.784</ele>
        <time>2015-08-24T13:50:49Z</time>
      </trkpt>
      <trkpt lat="44.24233" lon="3.74329">
        <ele>991.968</ele>
        <time>2015-08-24T13:51:09Z</time>
      </trkpt>
      <trkpt lat="44.24257" lon="3.74269">
        <ele>993.849</ele>
        <time>2015-08-24T13:51:29Z</time>
      </trkpt>
      <trkpt lat="44.24231" lon="3.74242">
        <ele>982.902</ele>
        <time>2015-08-24T13:51:49Z</time>
      </trkpt>
      <trkpt lat="44.24234" lon="3.74216">
        <ele>983.222</ele>
        <time>2015-08-24T13:52:09Z</time>
      </trkpt>
      <trkpt lat="44.24246" lon="3.74178">
        <ele>987.008</ele>
        <time>2015-08-24T13:52:29Z</time>
      </trkpt>
      <trkpt lat="44.24248" lon="3.74078">
        <ele>978.44</ele>
        <time>2015-08-24T13:52:49Z</time>
      </trkpt>
      <trkpt lat="44.24261" lon="3.74004">
        <ele>977.995</ele>
        <time>2015-08-24T13:53:09Z</time>
      </trkpt>
      <trkpt lat="44.2427" lon="3.73926">
        <ele>968.656</ele>
        <time>2015-08-24T13:53:29Z</time>
      </trkpt>
      <trkpt lat="44.24291" lon="3.7387">
        <ele>973.741</ele>
        <time>2015-08-24T13:53:49Z</time>
      </trkpt>
      <trkpt lat="44.24284" lon="3.73795">
        <ele>966.33</ele>
        <time>2015-08-24T13:54:09Z</time>
      </trkpt>
      <trkpt lat="44.24265" lon="3.7376">
        <ele>961.223</ele>
        <time>2015-08-24T13:54:29Z</time>
      </trkpt>
      <trkpt lat="44.24267" lon="3.73733">
        <ele>959.49</ele>
        <time>2015-08-24T13:54:49Z</time>
      </trkpt>
      <trkpt lat="44.2429" lon="3.73701">
        <ele>962.674</ele>
        <time>2015-08-24T13:55:09Z</time>
      </trkpt>
      <trkpt lat="44.24291" lon="3.73676">
        <ele>962.052</ele>
        <time>2015-08-24T13:55:29Z</time>
      </trkpt>
      <trkpt lat="44.24267" lon="3.73632">
        <ele>954.453</ele>
        <time>2015-08-24T13:55:49Z</time>
      </trkpt>
      <trkpt lat="44.24266" lon="3.7359">
        <ele>947.808</ele>
        <time>2015-08-24T13:56:09Z</time>
      </trkpt>
      <trkpt lat="44.24295" lon="3.73533">
        <ele>956.508</ele>
        <time>2015-08-24T13:56:29Z</time>
      </trkpt>
      <trkpt lat="44.24259" lon="3.73482">
        <ele>948.611</ele>
        <time>2015-08-24T13:56:49Z</time>
      </trkpt>
      <trkpt lat="44.24238" lon="3.73397">
        <ele>945.386</ele>
        <time>2015-08-24T13:57:09Z</time>
      </trkpt>
      <trkpt lat="44.24227" lon="3.73365">
        <ele>942.197</ele>
        <time>2015-08-24T13:57:29Z</time>
      </trkpt>
      <trkpt lat="44.24213" lon="3.73297">
        <ele>929.982</ele>
        <time>2015-08-24T13:57:49Z</time>
      </trkpt>
      <trkpt lat="44.24265" lon="3.73187">
        <ele>928.431</ele>
        <time>2015-08-24T14:00:29Z</time>
      </trkpt>
      <trkpt lat="44.24284" lon="3.73164">
        <ele>931.144</ele>
        <time>2019-03-28T22:37:57Z</time>
      </trkpt>
      <trkpt lat="44.24327" lon="3.73074">
        <ele>923.211</ele>
        <time>2019-03-28T22:38:17Z</time>
      </trkpt>
      <trkpt lat="44.24355" lon="3.73039">
        <ele>927.925</ele>
        <time>2019-03-28T22:38:37Z</time>
      </trkpt>
      <trkpt lat="44.24378" lon="3.72986">
        <ele>929.386</ele>
        <time>2019-03-28T22:38:57Z</time>
      </trkpt>
      <trkpt lat="44.24379" lon="3.72883">
        <ele>930.26</ele>
        <time>2019-03-28T22:39:17Z</time>
      </trkpt>
      <trkpt lat="44.24386" lon="3.72793">
        <ele>934.426</ele>
        <time>2019-03-28T22:39:37Z</time>
      </trkpt>
      <trkpt lat="44.2438" lon="3.72716">
        <ele>937.908</ele>
        <time>2015-08-24T14:03:09Z</time>
      </trkpt>
      <trkpt lat="44.24356" lon="3.72681">
        <ele>940.454</ele>
        <time>2015-08-24T14:03:29Z</time>
      </trkpt>
      <trkpt lat="44.24341" lon="3.72647">
        <ele>942.539</ele>
        <time>2015-08-24T14:03:49Z</time>
      </trkpt>
      <trkpt lat="44.24337" lon="3.72582">
        <ele>944.45</ele>
        <time>2019-03-28T22:40:57Z</time>
      </trkpt>
      <trkpt lat="44.24352" lon="3.72496">
        <ele>941.015</ele>
        <time>2019-03-28T22:41:17Z</time>
      </trkpt>
      <trkpt lat="44.24363" lon="3.72404">
        <ele>933.964</ele>
        <time>2019-03-28T22:41:37Z</time>
      </trkpt>
      <trkpt lat="44.24347" lon="3.72374">
        <ele>927.667</ele>
        <time>2019-03-28T22:41:57Z</time>
      </trkpt>
      <trkpt lat="44.2434" lon="3.72332">
        <ele>923.864</ele>
        <time>2019-03-28T22:42:17Z</time>
      </trkpt>
      <trkpt lat="44.24326" lon="3.72299">
        <ele>918.638</ele>
        <time>2015-08-24T14:05:29Z</time>
      </trkpt>
      <trkpt lat="44.24318" lon="3.72244">
        <ele>909.857</ele>
        <time>2015-08-24T14:05:49Z</time>
      </trkpt>
      <trkpt lat="44.24291" lon="3.72201">
        <ele>900.9</ele>
        <time>2015-08-24T14:06:09Z</time>
      </trkpt>
      <trkpt lat="44.24286" lon="3.72164">
        <ele>901.62</ele>
        <time>2015-08-24T14:06:29Z</time>
      </trkpt>
      <trkpt lat="44.24259" lon="3.72091">
        <ele>903.608</ele>
        <time>2015-08-24T14:06:49Z</time>
      </trkpt>
      <trkpt lat="44.24279" lon="3.71888">
        <ele>912.831</ele>
        <time>2020-11-30T14:18:28Z</time>
      </trkpt>
      <trkpt lat="44.2426" lon="3.71859">
        <ele>914.066</ele>
        <time>2020-11-30T14:18:48Z</time>
      </trkpt>
      <trkpt lat="44.24146" lon="3.71763">
        <ele>910.827</ele>
        <time>2020-11-30T14:19:08Z</time>
      </trkpt>
      <trkpt lat="44.2408" lon="3.71746">
        <ele>918.342</ele>
        <time>2020-11-30T14:19:28Z</time>
      </trkpt>
      <trkpt lat="44.2405" lon="3.7171">
        <ele>919.771</ele>
        <time>2020-11-30T14:19:48Z</time>
      </trkpt>
      <trkpt lat="44.24015" lon="3.71567">
        <ele>920.914</ele>
        <time>2020-11-30T14:20:08Z</time>
      </trkpt>
      <trkpt lat="44.23993" lon="3.71443">
        <ele>923.641</ele>
        <time>2020-11-30T14:20:28Z</time>
      </trkpt>
      <trkpt lat="44.23988" lon="3.71331">
        <ele>928.435</ele>
        <time>2020-11-30T14:20:48Z</time>
      </trkpt>
      <trkpt lat="44.23945" lon="3.71201">
        <ele>936.298</ele>
        <time>2020-11-30T14:21:08Z</time>
      </trkpt>
      <trkpt lat="44.23939" lon="3.71148">
        <ele>936.315</ele>
        <time>2020-11-30T14:21:28Z</time>
      </trkpt>
      <trkpt lat="44.23985" lon="3.71083">
        <ele>939.226</ele>
        <time>2020-11-30T14:21:48Z</time>
      </trkpt>
      <trkpt lat="44.2401" lon="3.71081">
        <ele>933.308</ele>
        <time>2020-11-30T14:22:08Z</time>
      </trkpt>
      <trkpt lat="44.24033" lon="3.7105">
        <ele>928.255</ele>
        <time>2020-11-30T14:22:28Z</time>
      </trkpt>
      <trkpt lat="44.24024" lon="3.70966">
        <ele>919.15</ele>
        <time>2020-11-30T14:22:48Z</time>
      </trkpt>
      <trkpt lat="44.24001" lon="3.70963">
        <ele>924.841</ele>
        <time>2020-11-30T14:23:08Z</time>
      </trkpt>
      <trkpt lat="44.23986" lon="3.70968">
        <ele>929.356</ele>
        <time>2020-11-30T14:23:28Z</time>
      </trkpt>
      <trkpt lat="44.23967" lon="3.70928">
        <ele>928.145</ele>
        <time>2020-11-30T14:23:48Z</time>
      </trkpt>
      <trkpt lat="44.23989" lon="3.70764">
        <ele>908.888</ele>
        <time>2020-11-30T14:24:08Z</time>
      </trkpt>
      <trkpt lat="44.23984" lon="3.7071">
        <ele>907.675</ele>
        <time>2020-11-30T14:24:28Z</time>
      </trkpt>
      <trkpt lat="44.23992" lon="3.70655">
        <ele>898.339</ele>
        <time>2020-11-30T14:24:48Z</time>
      </trkpt>
      <trkpt lat="44.23975" lon="3.70589">
        <ele>893.969</ele>
        <time>2020-11-30T14:25:08Z</time>
      </trkpt>
      <trkpt lat="44.23866" lon="3.70511">
        <ele>911.404</ele>
        <time>2020-11-30T14:25:28Z</time>
      </trkpt>
      <trkpt lat="44.23818" lon="3.70446">
        <ele>916.524</ele>
        <time>2020-11-30T14:25:48Z</time>
      </trkpt>
      <trkpt lat="44.23789" lon="3.70362">
        <ele>915.508</ele>
        <time>2020-11-30T14:26:08Z</time>
      </trkpt>
      <trkpt lat="44.23725" lon="3.70315">
        <ele>917.282</ele>
        <time>2020-11-30T14:26:28Z</time>
      </trkpt>
      <trkpt lat="44.23713" lon="3.70265">
        <ele>917.137</ele>
        <time>2020-11-30T14:26:48Z</time>
      </trkpt>
      <trkpt lat="44.23704" lon="3.70175">
        <ele>932.938</ele>
        <time>2020-11-30T14:27:08Z</time>
      </trkpt>
      <trkpt lat="44.23648" lon="3.70037">
        <ele>967.343</ele>
        <time>2020-11-30T14:27:28Z</time>
      </trkpt>
      <trkpt lat="44.23638" lon="3.69948">
        <ele>972.062</ele>
        <time>2020-11-30T14:27:48Z</time>
      </trkpt>
      <trkpt lat="44.23638" lon="3.69849">
        <ele>963.865</ele>
        <time>2020-11-30T14:28:08Z</time>
      </trkpt>
      <trkpt lat="44.23646" lon="3.69783">
        <ele>967.262</ele>
        <time>2020-11-30T14:28:28Z</time>
      </trkpt>
      <trkpt lat="44.2364" lon="3.69719">
        <ele>969.256</ele>
        <time>2020-11-30T14:28:48Z</time>
      </trkpt>
      <trkpt lat="44.23651" lon="3.6965">
        <ele>970.283</ele>
        <time>2020-11-30T14:29:08Z</time>
      </trkpt>
      <trkpt lat="44.23626" lon="3.69577">
        <ele>965.725</ele>
        <time>2020-11-30T14:29:28Z</time>
      </trkpt>
      <trkpt lat="44.23619" lon="3.69482">
        <ele>971.117</ele>
        <time>2015-08-24T14:18:09Z</time>
      </trkpt>
      <trkpt lat="44.23606" lon="3.69413">
        <ele>970.908</ele>
        <time>2015-08-24T14:18:29Z</time>
      </trkpt>
      <trkpt lat="44.23608" lon="3.69389">
        <ele>973.084</ele>
        <time>2015-08-24T14:18:49Z</time>
      </trkpt>
      <trkpt lat="44.23593" lon="3.69368">
        <ele>974.589</ele>
        <time>2015-08-24T14:19:09Z</time>
      </trkpt>
      <trkpt lat="44.23567" lon="3.69377">
        <ele>973.59</ele>
        <time>2015-08-24T14:19:29Z</time>
      </trkpt>
      <trkpt lat="44.23497" lon="3.69312">
        <ele>975.465</ele>
        <time>2015-08-24T14:19:49Z</time>
      </trkpt>
      <trkpt lat="44.2332" lon="3.69149">
        <ele>983.434</ele>
        <time>2015-08-24T14:20:09Z</time>
      </trkpt>
      <trkpt lat="44.23252" lon="3.69097">
        <ele>986.547</ele>
        <time>2015-08-24T14:20:29Z</time>
      </trkpt>
      <trkpt lat="44.23145" lon="3.6903">
        <ele>994.614</ele>
        <time>2015-08-24T14:20:49Z</time>
      </trkpt>
      <trkpt lat="44.23043" lon="3.68936">
        <ele>1002.188</ele>
        <time>2015-08-24T14:21:09Z</time>
      </trkpt>
      <trkpt lat="44.22993" lon="3.68875">
        <ele>1006.386</ele>
        <time>2015-08-24T14:21:29Z</time>
      </trkpt>
      <trkpt lat="44.22913" lon="3.68819">
        <ele>1000.96</ele>
        <time>2015-08-24T14:21:49Z</time>
      </trkpt>
      <trkpt lat="44.22796" lon="3.68714">
        <ele>991.326</ele>
        <time>2015-08-24T14:22:09Z</time>
      </trkpt>
      <trkpt lat="44.22772" lon="3.68678">
        <ele>992.008</ele>
        <time>2015-08-24T14:22:29Z</time>
      </trkpt>
      <trkpt lat="44.22767" lon="3.68626">
        <ele>995.944</ele>
        <time>2015-08-24T14:22:49Z</time>
      </trkpt>
      <trkpt lat="44.22774" lon="3.68582">
        <ele>998.619</ele>
        <time>2015-08-24T14:23:09Z</time>
      </trkpt>
      <trkpt lat="44.22817" lon="3.68502">
        <ele>990.56</ele>
        <time>2015-08-24T14:23:29Z</time>
      </trkpt>
      <trkpt lat="44.22836" lon="3.68435">
        <ele>993.365</ele>
        <time>2015-08-24T14:23:49Z</time>
      </trkpt>
      <trkpt lat="44.22849" lon="3.68296">
        <ele>994.474</ele>
        <time>2015-08-24T14:24:09Z</time>
      </trkpt>
      <trkpt lat="44.22862" lon="3.68265">
        <ele>991.767</ele>
        <time>2015-08-24T14:24:29Z</time>
      </trkpt>
      <trkpt lat="44.229" lon="3.68206">
        <ele>989.064</ele>
        <time>2015-08-24T14:24:49Z</time>
      </trkpt>
      <trkpt lat="44.22933" lon="3.68123">
        <ele>984.658</ele>
        <time>2015-08-24T14:25:09Z</time>
      </trkpt>
      <trkpt lat="44.22954" lon="3.68084">
        <ele>986.015</ele>
        <time>2015-08-24T14:25:29Z</time>
      </trkpt>
      <trkpt lat="44.23031" lon="3.68016">
        <ele>990.165</ele>
        <time>2015-08-24T14:25:49Z</time>
      </trkpt>
      <trkpt lat="44.23094" lon="3.67927">
        <ele>989.611</ele>
        <time>2015-08-24T14:26:09Z</time>
      </trkpt>
      <trkpt lat="44.23123" lon="3.67893">
        <ele>989.608</ele>
        <time>2015-08-24T14:26:29Z</time>
      </trkpt>
      <trkpt lat="44.23196" lon="3.67847">
        <ele>982.027</ele>
        <time>2015-08-24T14:26:49Z</time>
      </trkpt>
      <trkpt lat="44.23264" lon="3.67782">
        <ele>980.672</ele>
        <time>2015-08-24T14:27:09Z</time>
      </trkpt>
      <trkpt lat="44.23271" lon="3.67756">
        <ele>982.643</ele>
        <time>2015-08-24T14:27:29Z</time>
      </trkpt>
      <trkpt lat="44.23287" lon="3.67664">
        <ele>986.038</ele>
        <time>2015-08-24T14:27:49Z</time>
      </trkpt>
      <trkpt lat="44.23284" lon="3.67591">
        <ele>984.387</ele>
        <time>2015-08-24T14:28:09Z</time>
      </trkpt>
      <trkpt lat="44.23274" lon="3.67511">
        <ele>981.14</ele>
        <time>2015-08-24T14:28:29Z</time>
      </trkpt>
      <trkpt lat="44.23224" lon="3.67337">
        <ele>982.077</ele>
        <time>2015-08-24T14:28:49Z</time>
      </trkpt>
      <trkpt lat="44.23217" lon="3.67258">
        <ele>985.631</ele>
        <time>2015-08-24T14:29:09Z</time>
      </trkpt>
      <trkpt lat="44.23241" lon="3.67178">
        <ele>993.836</ele>
        <time>2015-08-24T14:29:29Z</time>
      </trkpt>
      <trkpt lat="44.2325" lon="3.67107">
        <ele>997.017</ele>
        <time>2015-08-24T14:29:49Z</time>
      </trkpt>
      <trkpt lat="44.2327" lon="3.67035">
        <ele>992.418</ele>
        <time>2015-08-24T14:30:09Z</time>
      </trkpt>
      <trkpt lat="44.23274" lon="3.6695">
        <ele>985.508</ele>
        <time>2015-08-24T14:30:29Z</time>
      </trkpt>
      <trkpt lat="44.23299" lon="3.66864">
        <ele>985.489</ele>
        <time>2015-08-24T14:30:49Z</time>
      </trkpt>
      <trkpt lat="44.23284" lon="3.66807">
        <ele>984.114</ele>
        <time>2015-08-24T14:31:09Z</time>
      </trkpt>
      <trkpt lat="44.23317" lon="3.66586">
        <ele>972.865</ele>
        <time>2015-08-24T14:31:29Z</time>
      </trkpt>
      <trkpt lat="44.2334" lon="3.66545">
        <ele>970.15</ele>
        <time>2015-08-24T14:31:49Z</time>
      </trkpt>
      <trkpt lat="44.2341" lon="3.66498">
        <ele>964.359</ele>
        <time>2015-08-24T14:32:09Z</time>
      </trkpt>
      <trkpt lat="44.23449" lon="3.66442">
        <ele>961.582</ele>
        <time>2015-08-24T14:32:29Z</time>
      </trkpt>
      <trkpt lat="44.2347" lon="3.66373">
        <ele>956.199</ele>
        <time>2015-08-24T14:32:49Z</time>
      </trkpt>
      <trkpt lat="44.23513" lon="3.66299">
        <ele>948.013</ele>
        <time>2015-08-24T14:33:09Z</time>
      </trkpt>
      <trkpt lat="44.23555" lon="3.66253">
        <ele>948.049</ele>
        <time>2015-08-24T14:33:29Z</time>
      </trkpt>
      <trkpt lat="44.23623" lon="3.6622">
        <ele>948.602</ele>
        <time>2015-08-24T14:33:49Z</time>
      </trkpt>
      <trkpt lat="44.23709" lon="3.66187">
        <ele>946.422</ele>
        <time>2015-08-24T14:34:09Z</time>
      </trkpt>
      <trkpt lat="44.23751" lon="3.66154">
        <ele>945.608</ele>
        <time>2015-08-24T14:34:29Z</time>
      </trkpt>
      <trkpt lat="44.23796" lon="3.66085">
        <ele>950.26</ele>
        <time>2015-08-24T14:34:49Z</time>
      </trkpt>
      <trkpt lat="44.23834" lon="3.66002">
        <ele>951.195</ele>
        <time>2015-08-24T14:35:09Z</time>
      </trkpt>
      <trkpt lat="44.23892" lon="3.65922">
        <ele>944.516</ele>
        <time>2015-08-24T14:35:29Z</time>
      </trkpt>
      <trkpt lat="44.23973" lon="3.65848">
        <ele>943.551</ele>
        <time>2015-08-24T14:35:49Z</time>
      </trkpt>
      <trkpt lat="44.24065" lon="3.65825">
        <ele>944.48</ele>
        <time>2015-08-24T14:36:09Z</time>
      </trkpt>
      <trkpt lat="44.24133" lon="3.65857">
        <ele>946.773</ele>
        <time>2015-08-24T14:36:29Z</time>
      </trkpt>
      <trkpt lat="44.24179" lon="3.65854">
        <ele>946.42</ele>
        <time>2015-08-24T14:36:49Z</time>
      </trkpt>
      <trkpt lat="44.24216" lon="3.65839">
        <ele>946.824</ele>
        <time>2015-08-24T14:37:09Z</time>
      </trkpt>
      <trkpt lat="44.24225" lon="3.65754">
        <ele>941.159</ele>
        <time>2015-08-24T14:37:29Z</time>
      </trkpt>
      <trkpt lat="44.2439" lon="3.65554">
        <ele>932.203</ele>
        <time>2015-08-24T14:37:49Z</time>
      </trkpt>
      <trkpt lat="44.24412" lon="3.65464">
        <ele>926.723</ele>
        <time>2015-08-24T14:38:09Z</time>
      </trkpt>
      <trkpt lat="44.24469" lon="3.65372">
        <ele>924.608</ele>
        <time>2015-08-24T14:38:29Z</time>
      </trkpt>
      <trkpt lat="44.24523" lon="3.65312">
        <ele>922.441</ele>
        <time>2015-08-24T14:38:49Z</time>
      </trkpt>
      <trkpt lat="44.24642" lon="3.65157">
        <ele>915.836</ele>
        <time>2015-08-24T14:39:09Z</time>
      </trkpt>
      <trkpt lat="44.24689" lon="3.65124">
        <ele>915.137</ele>
        <time>2015-08-24T14:39:29Z</time>
      </trkpt>
      <trkpt lat="44.24747" lon="3.65085">
        <ele>913.882</ele>
        <time>2015-08-24T14:39:49Z</time>
      </trkpt>
      <trkpt lat="44.24805" lon="3.65007">
        <ele>915.041</ele>
        <time>2015-08-24T14:40:09Z</time>
      </trkpt>
      <trkpt lat="44.24805" lon="3.64894">
        <ele>914.314</ele>
        <time>2015-08-24T14:40:29Z</time>
      </trkpt>
      <trkpt lat="44.24812" lon="3.6483">
        <ele>918.361</ele>
        <time>2015-08-24T14:40:49Z</time>
      </trkpt>
      <trkpt lat="44.24799" lon="3.64779">
        <ele>918.265</ele>
        <time>2015-08-24T14:41:09Z</time>
      </trkpt>
      <trkpt lat="44.24783" lon="3.64752">
        <ele>919.023</ele>
        <time>2015-08-24T14:41:29Z</time>
      </trkpt>
      <trkpt lat="44.24764" lon="3.64751">
        <ele>919.483</ele>
        <time>2015-08-24T14:41:49Z</time>
      </trkpt>
      <trkpt lat="44.24735" lon="3.64784">
        <ele>915.611</ele>
        <time>2015-08-24T14:42:09Z</time>
      </trkpt>
      <trkpt lat="44.24712" lon="3.64789">
        <ele>916.708</ele>
        <time>2015-08-24T14:42:29Z</time>
      </trkpt>
      <trkpt lat="44.24675" lon="3.64767">
        <ele>917.898</ele>
        <time>2015-08-24T14:42:49Z</time>
      </trkpt>
      <trkpt lat="44.2461" lon="3.6472">
        <ele>925.353</ele>
        <time>2015-08-24T14:43:09Z</time>
      </trkpt>
      <trkpt lat="44.24558" lon="3.64716">
        <ele>925.754</ele>
        <time>2015-08-24T14:43:29Z</time>
      </trkpt>
      <trkpt lat="44.24545" lon="3.64649">
        <ele>927.939</ele>
        <time>2015-08-24T14:43:49Z</time>
      </trkpt>
      <trkpt lat="44.24511" lon="3.6462">
        <ele>926.198</ele>
        <time>2015-08-24T14:44:09Z</time>
      </trkpt>
      <trkpt lat="44.24453" lon="3.64592">
        <ele>926.451</ele>
        <time>2015-08-24T14:44:29Z</time>
      </trkpt>
      <trkpt lat="44.24422" lon="3.64591">
        <ele>926.658</ele>
        <time>2015-08-24T14:44:49Z</time>
      </trkpt>
      <trkpt lat="44.24375" lon="3.64576">
        <ele>931.032</ele>
        <time>2015-08-24T14:45:09Z</time>
      </trkpt>
      <trkpt lat="44.24349" lon="3.64585">
        <ele>931.757</ele>
        <time>2015-08-24T14:45:29Z</time>
      </trkpt>
      <trkpt lat="44.2432" lon="3.64563">
        <ele>937.6</ele>
        <time>2015-08-24T14:45:49Z</time>
      </trkpt>
      <trkpt lat="44.24274" lon="3.64584">
        <ele>938.42</ele>
        <time>2015-08-24T14:46:09Z</time>
      </trkpt>
      <trkpt lat="44.24227" lon="3.64582">
        <ele>939.608</ele>
        <time>2015-08-24T14:46:29Z</time>
      </trkpt>
      <trkpt lat="44.24186" lon="3.64541">
        <ele>939.641</ele>
        <time>2015-08-24T14:46:49Z</time>
      </trkpt>
      <trkpt lat="44.24086" lon="3.64514">
        <ele>947.996</ele>
        <time>2015-08-24T14:47:09Z</time>
      </trkpt>
      <trkpt lat="44.24023" lon="3.64471">
        <ele>957.317</ele>
        <time>2015-08-24T14:47:29Z</time>
      </trkpt>
      <trkpt lat="44.23988" lon="3.6446">
        <ele>959.752</ele>
        <time>2015-08-24T14:47:49Z</time>
      </trkpt>
      <trkpt lat="44.23975" lon="3.64446">
        <ele>963.681</ele>
        <time>2015-08-24T14:48:09Z</time>
      </trkpt>
      <trkpt lat="44.23935" lon="3.64446">
        <ele>958.084</ele>
        <time>2015-08-24T14:48:29Z</time>
      </trkpt>
      <trkpt lat="44.23921" lon="3.64389">
        <ele>960.881</ele>
        <time>2015-08-24T14:48:49Z</time>
      </trkpt>
      <trkpt lat="44.23909" lon="3.64281">
        <ele>967.915</ele>
        <time>2015-08-24T14:49:09Z</time>
      </trkpt>
      <trkpt lat="44.23922" lon="3.64252">
        <ele>970.739</ele>
        <time>2015-08-24T14:49:29Z</time>
      </trkpt>
      <trkpt lat="44.23931" lon="3.64216">
        <ele>967.501</ele>
        <time>2015-08-24T14:49:49Z</time>
      </trkpt>
      <trkpt lat="44.23957" lon="3.64143">
        <ele>964.421</ele>
        <time>2015-08-24T14:50:09Z</time>
      </trkpt>
      <trkpt lat="44.24035" lon="3.64101">
        <ele>967.108</ele>
        <time>2015-08-24T14:50:29Z</time>
      </trkpt>
      <trkpt lat="44.24061" lon="3.64077">
        <ele>966.599</ele>
        <time>2015-08-24T14:50:49Z</time>
      </trkpt>
      <trkpt lat="44.24095" lon="3.64063">
        <ele>967.244</ele>
        <time>2015-08-24T14:51:09Z</time>
      </trkpt>
      <trkpt lat="44.2413" lon="3.64027">
        <ele>963.945</ele>
        <time>2015-08-24T14:51:29Z</time>
      </trkpt>
      <trkpt lat="44.24161" lon="3.64016">
        <ele>969.33</ele>
        <time>2015-08-24T14:51:49Z</time>
      </trkpt>
      <trkpt lat="44.24201" lon="3.63986">
        <ele>972.739</ele>
        <time>2015-08-24T14:52:09Z</time>
      </trkpt>
      <trkpt lat="44.24224" lon="3.63931">
        <ele>974.252</ele>
        <time>2015-08-24T14:52:29Z</time>
      </trkpt>
      <trkpt lat="44.24225" lon="3.63906">
        <ele>974.529</ele>
        <time>2015-08-24T14:52:49Z</time>
      </trkpt>
      <trkpt lat="44.24221" lon="3.6388">
        <ele>973.963</ele>
        <time>2015-08-24T14:53:29Z</time>
      </trkpt>
      <trkpt lat="44.24218" lon="3.63834">
        <ele>976.454</ele>
        <time>2015-08-24T14:53:49Z</time>
      </trkpt>
      <trkpt lat="44.24219" lon="3.63791">
        <ele>980.156</ele>
        <time>2015-08-24T14:54:09Z</time>
      </trkpt>
      <trkpt lat="44.24234" lon="3.63745">
        <ele>987.811</ele>
        <time>2015-08-24T14:54:29Z</time>
      </trkpt>
      <trkpt lat="44.24243" lon="3.63743">
        <ele>989.908</ele>
        <time>2015-08-24T14:54:49Z</time>
      </trkpt>
      <trkpt lat="44.24249" lon="3.63747">
        <ele>991.181</ele>
        <time>2015-08-24T14:55:09Z</time>
      </trkpt>
      <trkpt lat="44.24252" lon="3.63791">
        <ele>989.536</ele>
        <time>2015-08-24T14:55:29Z</time>
      </trkpt>
      <trkpt lat="44.24265" lon="3.63835">
        <ele>990.077</ele>
        <time>2015-08-24T14:55:49Z</time>
      </trkpt>
      <trkpt lat="44.24273" lon="3.63844">
        <ele>990.822</ele>
        <time>2015-08-24T14:56:09Z</time>
      </trkpt>
      <trkpt lat="44.24297" lon="3.63836">
        <ele>997.621</ele>
        <time>2015-08-24T14:56:29Z</time>
      </trkpt>
      <trkpt lat="44.2431" lon="3.63784">
        <ele>1001.234</ele>
        <time>2015-08-24T14:56:49Z</time>
      </trkpt>
      <trkpt lat="44.24303" lon="3.6371">
        <ele>1002.451</ele>
        <time>2015-08-24T14:57:09Z</time>
      </trkpt>
      <trkpt lat="44.24281" lon="3.63641">
        <ele>1004.195</ele>
        <time>2015-08-24T14:57:29Z</time>
      </trkpt>
      <trkpt lat="44.24293" lon="3.6351">
        <ele>1004.762</ele>
        <time>2015-08-24T14:57:49Z</time>
      </trkpt>
      <trkpt lat="44.24302" lon="3.63483">
        <ele>1006.383</ele>
        <time>2015-08-24T14:58:09Z</time>
      </trkpt>
      <trkpt lat="44.24313" lon="3.63463">
        <ele>1006.911</ele>
        <time>2015-08-24T14:58:29Z</time>
      </trkpt>
      <trkpt lat="44.24342" lon="3.63438">
        <ele>1007.908</ele>
        <time>2015-08-24T14:58:49Z</time>
      </trkpt>
      <trkpt lat="44.24356" lon="3.63342">
        <ele>1012.062</ele>
        <time>2015-08-24T14:59:09Z</time>
      </trkpt>
      <trkpt lat="44.24356" lon="3.63298">
        <ele>1010.027</ele>
        <time>2015-08-24T14:59:29Z</time>
      </trkpt>
      <trkpt lat="44.24371" lon="3.6319">
        <ele>1008.128</ele>
        <time>2015-08-24T14:59:49Z</time>
      </trkpt>
      <trkpt lat="44.24386" lon="3.63171">
        <ele>1012.923</ele>
        <time>2015-08-24T15:00:09Z</time>
      </trkpt>
      <trkpt lat="44.24396" lon="3.63139">
        <ele>1017.792</ele>
        <time>2015-08-24T15:00:29Z</time>
      </trkpt>
      <trkpt lat="44.24391" lon="3.63093">
        <ele>1017.255</ele>
        <time>2015-08-24T15:00:49Z</time>
      </trkpt>
      <trkpt lat="44.24404" lon="3.63057">
        <ele>1019.652</ele>
        <time>2015-08-24T15:01:09Z</time>
      </trkpt>
      <trkpt lat="44.24432" lon="3.62961">
        <ele>1023.326</ele>
        <time>2015-08-24T15:01:29Z</time>
      </trkpt>
      <trkpt lat="44.24448" lon="3.62919">
        <ele>1025.135</ele>
        <time>2015-08-24T15:01:49Z</time>
      </trkpt>
      <trkpt lat="44.24493" lon="3.62836">
        <ele>1022.686</ele>
        <time>2015-08-24T15:02:09Z</time>
      </trkpt>
      <trkpt lat="44.24502" lon="3.62812">
        <ele>1022.314</ele>
        <time>2015-08-24T15:02:29Z</time>
      </trkpt>
      <trkpt lat="44.24518" lon="3.62791">
        <ele>1021.808</ele>
        <time>2015-08-24T15:02:49Z</time>
      </trkpt>
      <trkpt lat="44.2454" lon="3.62758">
        <ele>1021.299</ele>
        <time>2015-08-24T15:03:09Z</time>
      </trkpt>
      <trkpt lat="44.24599" lon="3.62711">
        <ele>1020.414</ele>
        <time>2015-08-24T15:03:29Z</time>
      </trkpt>
      <trkpt lat="44.24623" lon="3.62686">
        <ele>1018.685</ele>
        <time>2015-08-24T15:03:49Z</time>
      </trkpt>
      <trkpt lat="44.24694" lon="3.6263">
        <ele>1015.68</ele>
        <time>2015-08-24T15:04:09Z</time>
      </trkpt>
      <trkpt lat="44.24705" lon="3.62597">
        <ele>1015.279</ele>
        <time>2015-08-24T15:04:29Z</time>
      </trkpt>
      <trkpt lat="44.24703" lon="3.62567">
        <ele>1014.532</ele>
        <time>2015-08-24T15:04:49Z</time>
      </trkpt>
      <trkpt lat="44.24693" lon="3.62512">
        <ele>1013.589</ele>
        <time>2015-08-24T15:05:09Z</time>
      </trkpt>
      <trkpt lat="44.24703" lon="3.62495">
        <ele>1014.553</ele>
        <time>2015-08-24T15:05:29Z</time>
      </trkpt>
      <trkpt lat="44.24517" lon="3.62214">
        <ele>1010.286</ele>
        <time>2015-08-24T15:05:49Z</time>
      </trkpt>
      <trkpt lat="44.24408" lon="3.62144">
        <ele>1012.16</ele>
        <time>2015-08-24T15:06:09Z</time>
      </trkpt>
      <trkpt lat="44.24387" lon="3.62133">
        <ele>1011.226</ele>
        <time>2015-08-24T15:06:29Z</time>
      </trkpt>
      <trkpt lat="44.24361" lon="3.62108">
        <ele>1011.108</ele>
        <time>2015-08-24T15:06:49Z</time>
      </trkpt>
      <trkpt lat="44.2432" lon="3.62094">
        <ele>1013.734</ele>
        <time>2015-08-24T15:07:09Z</time>
      </trkpt>
      <trkpt lat="44.24299" lon="3.62065">
        <ele>1011.529</ele>
        <time>2015-08-24T15:07:29Z</time>
      </trkpt>
      <trkpt lat="44.24303" lon="3.61972">
        <ele>1009.89</ele>
        <time>2015-08-24T15:07:49Z</time>
      </trkpt>
      <trkpt lat="44.24268" lon="3.619">
        <ele>1014.785</ele>
        <time>2015-08-24T15:08:09Z</time>
      </trkpt>
      <trkpt lat="44.24188" lon="3.61765">
        <ele>1014.784</ele>
        <time>2015-08-24T15:08:29Z</time>
      </trkpt>
      <trkpt lat="44.24147" lon="3.61707">
        <ele>1009.247</ele>
        <time>2015-08-24T15:08:49Z</time>
      </trkpt>
      <trkpt lat="44.24095" lon="3.61676">
        <ele>1006.584</ele>
        <time>2015-08-24T15:09:09Z</time>
      </trkpt>
      <trkpt lat="44.24022" lon="3.61669">
        <ele>1009.838</ele>
        <time>2015-08-24T15:09:29Z</time>
      </trkpt>
      <trkpt lat="44.23819" lon="3.61717">
        <ele>1006.489</ele>
        <time>2015-08-24T15:09:49Z</time>
      </trkpt>
      <trkpt lat="44.23654" lon="3.61707">
        <ele>1017.906</ele>
        <time>2015-08-24T15:10:09Z</time>
      </trkpt>
      <trkpt lat="44.23515" lon="3.61746">
        <ele>1024.426</ele>
        <time>2015-08-24T15:10:29Z</time>
      </trkpt>
      <trkpt lat="44.23167" lon="3.61895">
        <ele>1029.708</ele>
        <time>2015-08-24T15:10:49Z</time>
      </trkpt>
      <trkpt lat="44.22966" lon="3.61884">
        <ele>1037.994</ele>
        <time>2015-08-24T15:11:09Z</time>
      </trkpt>
      <trkpt lat="44.22785" lon="3.61855">
        <ele>1045.949</ele>
        <time>2015-08-24T15:11:29Z</time>
      </trkpt>
      <trkpt lat="44.22689" lon="3.61879">
        <ele>1040.97</ele>
        <time>2015-08-24T15:11:49Z</time>
      </trkpt>
      <trkpt lat="44.22682" lon="3.61861">
        <ele>1041.045</ele>
        <time>2015-08-24T15:12:09Z</time>
      </trkpt>
      <trkpt lat="44.22577" lon="3.61694">
        <ele>1043.264</ele>
        <time>2015-08-24T15:12:29Z</time>
      </trkpt>
      <trkpt lat="44.22552" lon="3.61673">
        <ele>1045.877</ele>
        <time>2015-08-24T15:12:49Z</time>
      </trkpt>
      <trkpt lat="44.22518" lon="3.6166">
        <ele>1049.024</ele>
        <time>2015-08-24T15:13:09Z</time>
      </trkpt>
      <trkpt lat="44.22506" lon="3.61617">
        <ele>1053.448</ele>
        <time>2015-08-24T15:13:29Z</time>
      </trkpt>
      <trkpt lat="44.22444" lon="3.61544">
        <ele>1054.456</ele>
        <time>2015-08-24T15:13:49Z</time>
      </trkpt>
      <trkpt lat="44.2242" lon="3.61395">
        <ele>1054.559</ele>
        <time>2015-08-24T15:14:09Z</time>
      </trkpt>
      <trkpt lat="44.22396" lon="3.61366">
        <ele>1055.614</ele>
        <time>2015-08-24T15:14:29Z</time>
      </trkpt>
      <trkpt lat="44.22366" lon="3.61306">
        <ele>1062.208</ele>
        <time>2015-08-24T15:14:49Z</time>
      </trkpt>
      <trkpt lat="44.22343" lon="3.61291">
        <ele>1065.161</ele>
        <time>2015-08-24T15:15:09Z</time>
      </trkpt>
      <trkpt lat="44.22288" lon="3.61287">
        <ele>1066.446</ele>
        <time>2015-08-24T15:15:29Z</time>
      </trkpt>
      <trkpt lat="44.222" lon="3.61235">
        <ele>1066.917</ele>
        <time>2015-08-24T15:15:49Z</time>
      </trkpt>
      <trkpt lat="44.22107" lon="3.61173">
        <ele>1069.322</ele>
        <time>2015-08-24T15:16:09Z</time>
      </trkpt>
      <trkpt lat="44.22095" lon="3.61155">
        <ele>1065.721</ele>
        <time>2015-08-24T15:16:29Z</time>
      </trkpt>
      <trkpt lat="44.22058" lon="3.61141">
        <ele>1071.674</ele>
        <time>2015-08-24T15:16:49Z</time>
      </trkpt>
      <trkpt lat="44.22014" lon="3.61086">
        <ele>1066.141</ele>
        <time>2015-08-24T15:17:09Z</time>
      </trkpt>
      <trkpt lat="44.2197" lon="3.61055">
        <ele>1068.275</ele>
        <time>2015-08-24T15:17:29Z</time>
      </trkpt>
      <trkpt lat="44.21957" lon="3.61038">
        <ele>1066.352</ele>
        <time>2015-08-24T15:17:49Z</time>
      </trkpt>
      <trkpt lat="44.21889" lon="3.60994">
        <ele>1063.353</ele>
        <time>2015-08-24T15:18:09Z</time>
      </trkpt>
      <trkpt lat="44.2182" lon="3.60931">
        <ele>1059.808</ele>
        <time>2015-08-24T15:18:29Z</time>
      </trkpt>
      <trkpt lat="44.21689" lon="3.60832">
        <ele>1059.208</ele>
        <time>2015-08-24T15:18:49Z</time>
      </trkpt>
      <trkpt lat="44.21658" lon="3.6084">
        <ele>1060.361</ele>
        <time>2015-08-24T15:19:09Z</time>
      </trkpt>
      <trkpt lat="44.2164" lon="3.60832">
        <ele>1061.096</ele>
        <time>2015-08-24T15:19:29Z</time>
      </trkpt>
      <trkpt lat="44.21632" lon="3.60813">
        <ele>1062.657</ele>
        <time>2015-08-24T15:19:49Z</time>
      </trkpt>
      <trkpt lat="44.21626" lon="3.60758">
        <ele>1063.772</ele>
        <time>2015-08-24T15:20:09Z</time>
      </trkpt>
      <trkpt lat="44.21584" lon="3.60694">
        <ele>1064.011</ele>
        <time>2015-08-24T15:20:29Z</time>
      </trkpt>
      <trkpt lat="44.21498" lon="3.60638">
        <ele>1056.984</ele>
        <time>2015-08-24T15:20:49Z</time>
      </trkpt>
      <trkpt lat="44.21389" lon="3.60577">
        <ele>1054.021</ele>
        <time>2015-08-24T15:21:09Z</time>
      </trkpt>
      <trkpt lat="44.21354" lon="3.60571">
        <ele>1056.825</ele>
        <time>2015-08-24T15:21:29Z</time>
      </trkpt>
      <trkpt lat="44.21141" lon="3.60619">
        <ele>1063.676</ele>
        <time>2015-08-24T15:21:49Z</time>
      </trkpt>
      <trkpt lat="44.21018" lon="3.60617">
        <ele>1059.59</ele>
        <time>2015-08-24T15:22:09Z</time>
      </trkpt>
      <trkpt lat="44.20986" lon="3.60606">
        <ele>1056.619</ele>
        <time>2015-08-24T15:22:29Z</time>
      </trkpt>
      <trkpt lat="44.20885" lon="3.60567">
        <ele>1060.008</ele>
        <time>2015-08-24T15:22:49Z</time>
      </trkpt>
      <trkpt lat="44.20842" lon="3.6056">
        <ele>1060.583</ele>
        <time>2015-08-24T15:23:09Z</time>
      </trkpt>
      <trkpt lat="44.20801" lon="3.60571">
        <ele>1062.298</ele>
        <time>2015-08-24T15:23:29Z</time>
      </trkpt>
      <trkpt lat="44.20726" lon="3.60615">
        <ele>1066.469</ele>
        <time>2015-08-24T15:23:49Z</time>
      </trkpt>
      <trkpt lat="44.20637" lon="3.6064">
        <ele>1068.124</ele>
        <time>2015-08-24T15:24:09Z</time>
      </trkpt>
      <trkpt lat="44.20547" lon="3.60659">
        <ele>1072.273</ele>
        <time>2015-08-24T15:24:29Z</time>
      </trkpt>
      <trkpt lat="44.20488" lon="3.60662">
        <ele>1072.146</ele>
        <time>2015-08-24T15:24:49Z</time>
      </trkpt>
      <trkpt lat="44.20452" lon="3.60666">
        <ele>1073.083</ele>
        <time>2015-08-24T15:25:09Z</time>
      </trkpt>
      <trkpt lat="44.2038" lon="3.60661">
        <ele>1074.477</ele>
        <time>2015-08-24T15:25:29Z</time>
      </trkpt>
      <trkpt lat="44.20276" lon="3.6062">
        <ele>1073.797</ele>
        <time>2015-08-24T15:25:49Z</time>
      </trkpt>
      <trkpt lat="44.2022" lon="3.60609">
        <ele>1073.923</ele>
        <time>2015-08-24T15:26:09Z</time>
      </trkpt>
      <trkpt lat="44.20102" lon="3.60595">
        <ele>1071.225</ele>
        <time>2015-08-24T15:26:29Z</time>
      </trkpt>
      <trkpt lat="44.20059" lon="3.60612">
        <ele>1069.308</ele>
        <time>2015-08-24T15:26:49Z</time>
      </trkpt>
      <trkpt lat="44.19996" lon="3.60632">
        <ele>1074.385</ele>
        <time>2015-08-24T15:27:09Z</time>
      </trkpt>
      <trkpt lat="44.19947" lon="3.60635">
        <ele>1075.72</ele>
        <time>2015-08-24T15:27:29Z</time>
      </trkpt>
      <trkpt lat="44.19901" lon="3.60619">
        <ele>1075.781</ele>
        <time>2015-08-24T15:27:49Z</time>
      </trkpt>
      <trkpt lat="44.19863" lon="3.60618">
        <ele>1073.386</ele>
        <time>2015-08-24T15:28:09Z</time>
      </trkpt>
      <trkpt lat="44.19836" lon="3.60622">
        <ele>1071.945</ele>
        <time>2015-08-24T15:28:29Z</time>
      </trkpt>
      <trkpt lat="44.1981" lon="3.60616">
        <ele>1067.988</ele>
        <time>2015-08-24T15:28:49Z</time>
      </trkpt>
      <trkpt lat="44.19749" lon="3.6062">
        <ele>1063.615</ele>
        <time>2015-08-24T15:29:09Z</time>
      </trkpt>
      <trkpt lat="44.19716" lon="3.6064">
        <ele>1061.739</ele>
        <time>2015-08-24T15:29:29Z</time>
      </trkpt>
      <trkpt lat="44.1965" lon="3.60658">
        <ele>1058.035</ele>
        <time>2015-08-24T15:29:49Z</time>
      </trkpt>
      <trkpt lat="44.19543" lon="3.60654">
        <ele>1052.986</ele>
        <time>2015-08-24T15:30:09Z</time>
      </trkpt>
      <trkpt lat="44.19503" lon="3.6067">
        <ele>1056.914</ele>
        <time>2015-08-24T15:30:29Z</time>
      </trkpt>
      <trkpt lat="44.19422" lon="3.60675">
        <ele>1065.108</ele>
        <time>2015-08-24T15:30:49Z</time>
      </trkpt>
      <trkpt lat="44.19278" lon="3.60654">
        <ele>1074.849</ele>
        <time>2015-08-24T15:31:09Z</time>
      </trkpt>
      <trkpt lat="44.19236" lon="3.6064">
        <ele>1076.984</ele>
        <time>2015-08-24T15:31:29Z</time>
      </trkpt>
      <trkpt lat="44.1919" lon="3.60638">
        <ele>1080.325</ele>
        <time>2015-08-24T15:31:49Z</time>
      </trkpt>
      <trkpt lat="44.19145" lon="3.60642">
        <ele>1081.03</ele>
        <time>2015-08-24T15:32:09Z</time>
      </trkpt>
      <trkpt lat="44.19103" lon="3.60643">
        <ele>1081.489</ele>
        <time>2015-08-24T15:32:29Z</time>
      </trkpt>
      <trkpt lat="44.19041" lon="3.60657">
        <ele>1083.462</ele>
        <time>2015-08-24T15:32:49Z</time>
      </trkpt>
      <trkpt lat="44.18988" lon="3.60676">
        <ele>1084.919</ele>
        <time>2015-08-24T15:33:09Z</time>
      </trkpt>
      <trkpt lat="44.18931" lon="3.60708">
        <ele>1075.033</ele>
        <time>2015-08-24T15:33:29Z</time>
      </trkpt>
      <trkpt lat="44.18902" lon="3.60707">
        <ele>1077.439</ele>
        <time>2015-08-24T15:33:49Z</time>
      </trkpt>
      <trkpt lat="44.18863" lon="3.60729">
        <ele>1069.301</ele>
        <time>2015-08-24T15:34:09Z</time>
      </trkpt>
      <trkpt lat="44.18839" lon="3.6075">
        <ele>1065.121</ele>
        <time>2015-08-24T15:34:29Z</time>
      </trkpt>
      <trkpt lat="44.18783" lon="3.60789">
        <ele>1066.408</ele>
        <time>2015-08-24T15:34:49Z</time>
      </trkpt>
      <trkpt lat="44.18745" lon="3.6081">
        <ele>1056.469</ele>
        <time>2015-08-24T15:35:09Z</time>
      </trkpt>
      <trkpt lat="44.1867" lon="3.60826">
        <ele>1050.174</ele>
        <time>2015-08-24T15:35:29Z</time>
      </trkpt>
      <trkpt lat="44.18663" lon="3.60815">
        <ele>1050.055</ele>
        <time>2015-08-24T15:35:49Z</time>
      </trkpt>
      <trkpt lat="44.18668" lon="3.60787">
        <ele>1049.27</ele>
        <time>2015-08-24T15:36:09Z</time>
      </trkpt>
      <trkpt lat="44.18683" lon="3.60753">
        <ele>1048.499</ele>
        <time>2015-08-24T15:36:29Z</time>
      </trkpt>
      <trkpt lat="44.18696" lon="3.60713">
        <ele>1046.092</ele>
        <time>2015-08-24T15:36:49Z</time>
      </trkpt>
      <trkpt lat="44.18714" lon="3.60683">
        <ele>1049.389</ele>
        <time>2015-08-24T15:37:09Z</time>
      </trkpt>
      <trkpt lat="44.18709" lon="3.60673">
        <ele>1046.863</ele>
        <time>2015-08-24T15:37:29Z</time>
      </trkpt>
      <trkpt lat="44.18657" lon="3.6073">
        <ele>1038.372</ele>
        <time>2015-08-24T15:37:49Z</time>
      </trkpt>
      <trkpt lat="44.18519" lon="3.60829">
        <ele>1020.913</ele>
        <time>2015-08-24T15:38:09Z</time>
      </trkpt>
      <trkpt lat="44.18485" lon="3.60846">
        <ele>1013.314</ele>
        <time>2015-08-24T15:38:29Z</time>
      </trkpt>
      <trkpt lat="44.18455" lon="3.60872">
        <ele>1010.008</ele>
        <time>2015-08-24T15:38:49Z</time>
      </trkpt>
      <trkpt lat="44.18414" lon="3.60888">
        <ele>1004.193</ele>
        <time>2015-08-24T15:39:09Z</time>
      </trkpt>
      <trkpt lat="44.18395" lon="3.60881">
        <ele>1004.878</ele>
        <time>2015-08-24T15:39:29Z</time>
      </trkpt>
      <trkpt lat="44.1839" lon="3.60894">
        <ele>1005.999</ele>
        <time>2015-08-24T15:39:49Z</time>
      </trkpt>
      <trkpt lat="44.18289" lon="3.60938">
        <ele>1026.254</ele>
        <time>2015-08-24T15:40:09Z</time>
      </trkpt>
      <trkpt lat="44.18249" lon="3.60958">
        <ele>1041.853</ele>
        <time>2015-08-24T15:40:29Z</time>
      </trkpt>
      <trkpt lat="44.18212" lon="3.60969">
        <ele>1051.696</ele>
        <time>2015-08-24T15:40:49Z</time>
      </trkpt>
      <trkpt lat="44.18129" lon="3.60963">
        <ele>1062.933</ele>
        <time>2015-08-24T15:41:09Z</time>
      </trkpt>
      <trkpt lat="44.18086" lon="3.60941">
        <ele>1068.267</ele>
        <time>2015-08-24T15:41:29Z</time>
      </trkpt>
      <trkpt lat="44.18035" lon="3.60845">
        <ele>1074.973</ele>
        <time>2015-08-24T15:41:49Z</time>
      </trkpt>
      <trkpt lat="44.17987" lon="3.60776">
        <ele>1082.985</ele>
        <time>2015-08-24T15:42:09Z</time>
      </trkpt>
      <trkpt lat="44.17963" lon="3.60729">
        <ele>1090.613</ele>
        <time>2015-08-24T15:42:29Z</time>
      </trkpt>
      <trkpt lat="44.17938" lon="3.60696">
        <ele>1095.308</ele>
        <time>2015-08-24T15:42:49Z</time>
      </trkpt>
      <trkpt lat="44.17882" lon="3.60659">
        <ele>1099.743</ele>
        <time>2015-08-24T15:43:09Z</time>
      </trkpt>
      <trkpt lat="44.17824" lon="3.6061">
        <ele>1109.368</ele>
        <time>2015-08-24T15:43:29Z</time>
      </trkpt>
      <trkpt lat="44.17719" lon="3.60552">
        <ele>1125.089</ele>
        <time>2015-08-24T15:43:49Z</time>
      </trkpt>
      <trkpt lat="44.17697" lon="3.60538">
        <ele>1130.284</ele>
        <time>2015-08-24T15:44:09Z</time>
      </trkpt>
      <trkpt lat="44.17674" lon="3.60529">
        <ele>1134.023</ele>
        <time>2015-08-24T15:44:29Z</time>
      </trkpt>
      <trkpt lat="44.17624" lon="3.60532">
        <ele>1135.426</ele>
        <time>2015-08-24T15:44:49Z</time>
      </trkpt>
      <trkpt lat="44.17564" lon="3.60563">
        <ele>1132.733</ele>
        <time>2015-08-24T15:45:09Z</time>
      </trkpt>
      <trkpt lat="44.17535" lon="3.60568">
        <ele>1134.337</ele>
        <time>2015-08-24T15:45:29Z</time>
      </trkpt>
      <trkpt lat="44.17467" lon="3.60603">
        <ele>1140.557</ele>
        <time>2015-08-24T15:45:49Z</time>
      </trkpt>
      <trkpt lat="44.17446" lon="3.60636">
        <ele>1145.6</ele>
        <time>2015-08-24T15:46:09Z</time>
      </trkpt>
      <trkpt lat="44.17414" lon="3.60665">
        <ele>1145.42</ele>
        <time>2015-08-24T15:46:29Z</time>
      </trkpt>
      <trkpt lat="44.17383" lon="3.60705">
        <ele>1142.108</ele>
        <time>2015-08-24T15:46:49Z</time>
      </trkpt>
      <trkpt lat="44.17373" lon="3.60725">
        <ele>1141.491</ele>
        <time>2015-08-24T15:47:09Z</time>
      </trkpt>
      <trkpt lat="44.17348" lon="3.60745">
        <ele>1136.836</ele>
        <time>2015-08-24T15:47:29Z</time>
      </trkpt>
      <trkpt lat="44.17331" lon="3.60788">
        <ele>1137.357</ele>
        <time>2015-08-24T15:47:49Z</time>
      </trkpt>
      <trkpt lat="44.17308" lon="3.60806">
        <ele>1134.352</ele>
        <time>2015-08-24T15:48:09Z</time>
      </trkpt>
      <trkpt lat="44.17295" lon="3.60858">
        <ele>1130.761</ele>
        <time>2015-08-24T15:48:29Z</time>
      </trkpt>
      <trkpt lat="44.1729" lon="3.60904">
        <ele>1128.934</ele>
        <time>2015-08-24T15:48:49Z</time>
      </trkpt>
      <trkpt lat="44.17251" lon="3.60954">
        <ele>1122.511</ele>
        <time>2015-08-24T15:49:09Z</time>
      </trkpt>
      <trkpt lat="44.17209" lon="3.60966">
        <ele>1117.965</ele>
        <time>2015-08-24T15:49:29Z</time>
      </trkpt>
      <trkpt lat="44.17096" lon="3.61012">
        <ele>1113.253</ele>
        <time>2015-08-24T15:49:49Z</time>
      </trkpt>
      <trkpt lat="44.17045" lon="3.61047">
        <ele>1108.604</ele>
        <time>2015-08-24T15:50:09Z</time>
      </trkpt>
      <trkpt lat="44.1701" lon="3.61088">
        <ele>1104.814</ele>
        <time>2015-08-24T15:50:29Z</time>
      </trkpt>
      <trkpt lat="44.16982" lon="3.61116">
        <ele>1099.908</ele>
        <time>2015-08-24T15:50:49Z</time>
      </trkpt>
      <trkpt lat="44.16949" lon="3.61148">
        <ele>1096.821</ele>
        <time>2015-08-24T15:51:09Z</time>
      </trkpt>
      <trkpt lat="44.16881" lon="3.61183">
        <ele>1089.526</ele>
        <time>2015-08-24T15:51:29Z</time>
      </trkpt>
      <trkpt lat="44.16798" lon="3.61263">
        <ele>1079.697</ele>
        <time>2015-08-24T15:51:49Z</time>
      </trkpt>
      <trkpt lat="44.16746" lon="3.61333">
        <ele>1068.742</ele>
        <time>2015-08-24T15:52:09Z</time>
      </trkpt>
      <trkpt lat="44.16733" lon="3.61356">
        <ele>1068.641</ele>
        <time>2015-08-24T15:52:29Z</time>
      </trkpt>
      <trkpt lat="44.16658" lon="3.61426">
        <ele>1059.644</ele>
        <time>2015-08-24T15:52:49Z</time>
      </trkpt>
      <trkpt lat="44.16626" lon="3.61445">
        <ele>1052.751</ele>
        <time>2015-08-24T15:53:09Z</time>
      </trkpt>
      <trkpt lat="44.16603" lon="3.61469">
        <ele>1048.395</ele>
        <time>2015-08-24T15:53:29Z</time>
      </trkpt>
      <trkpt lat="44.16586" lon="3.61501">
        <ele>1044.071</ele>
        <time>2015-08-24T15:53:49Z</time>
      </trkpt>
      <trkpt lat="44.16564" lon="3.61555">
        <ele>1039.141</ele>
        <time>2015-08-24T15:54:09Z</time>
      </trkpt>
      <trkpt lat="44.1652" lon="3.61609">
        <ele>1028.115</ele>
        <time>2015-08-24T15:54:29Z</time>
      </trkpt>
      <trkpt lat="44.16495" lon="3.61624">
        <ele>1022.608</ele>
        <time>2015-08-24T15:54:49Z</time>
      </trkpt>
      <trkpt lat="44.1647" lon="3.61649">
        <ele>1018.123</ele>
        <time>2015-08-24T15:55:09Z</time>
      </trkpt>
      <trkpt lat="44.16423" lon="3.61671">
        <ele>1016.158</ele>
        <time>2015-08-24T15:55:29Z</time>
      </trkpt>
      <trkpt lat="44.16398" lon="3.61691">
        <ele>1014.239</ele>
        <time>2015-08-24T15:55:49Z</time>
      </trkpt>
      <trkpt lat="44.16331" lon="3.61728">
        <ele>1015.184</ele>
        <time>2015-08-24T15:56:09Z</time>
      </trkpt>
      <trkpt lat="44.1626" lon="3.6174">
        <ele>1011.243</ele>
        <time>2015-08-24T15:56:29Z</time>
      </trkpt>
      <trkpt lat="44.16153" lon="3.61826">
        <ele>1022.766</ele>
        <time>2015-08-24T15:56:49Z</time>
      </trkpt>
      <trkpt lat="44.16024" lon="3.6185">
        <ele>1043.453</ele>
        <time>2015-08-24T15:57:09Z</time>
      </trkpt>
      <trkpt lat="44.15878" lon="3.61941">
        <ele>1049.117</ele>
        <time>2015-08-24T15:57:29Z</time>
      </trkpt>
      <trkpt lat="44.15828" lon="3.61999">
        <ele>1054.046</ele>
        <time>2015-08-24T15:57:49Z</time>
      </trkpt>
      <trkpt lat="44.15768" lon="3.62063">
        <ele>1058.288</ele>
        <time>2015-08-24T15:58:09Z</time>
      </trkpt>
      <trkpt lat="44.15703" lon="3.62075">
        <ele>1070.616</ele>
        <time>2015-08-24T15:58:29Z</time>
      </trkpt>
      <trkpt lat="44.15674" lon="3.62143">
        <ele>1073.208</ele>
        <time>2015-08-24T15:58:49Z</time>
      </trkpt>
      <trkpt lat="44.15666" lon="3.62228">
        <ele>1072.38</ele>
        <time>2015-08-24T15:59:09Z</time>
      </trkpt>
      <trkpt lat="44.15579" lon="3.62347">
        <ele>1085.015</ele>
        <time>2015-08-24T15:59:29Z</time>
      </trkpt>
      <trkpt lat="44.15545" lon="3.62382">
        <ele>1093.046</ele>
        <time>2015-08-24T15:59:49Z</time>
      </trkpt>
      <trkpt lat="44.15537" lon="3.62416">
        <ele>1092.211</ele>
        <time>2015-08-24T16:00:09Z</time>
      </trkpt>
      <trkpt lat="44.1551" lon="3.62479">
        <ele>1097.18</ele>
        <time>2015-08-24T16:00:29Z</time>
      </trkpt>
      <trkpt lat="44.15503" lon="3.62562">
        <ele>1092.013</ele>
        <time>2015-08-24T16:00:49Z</time>
      </trkpt>
      <trkpt lat="44.15433" lon="3.627">
        <ele>1102.26</ele>
        <time>2015-08-24T16:01:09Z</time>
      </trkpt>
      <trkpt lat="44.15433" lon="3.62788">
        <ele>1090.574</ele>
        <time>2015-08-24T16:01:29Z</time>
      </trkpt>
      <trkpt lat="44.15395" lon="3.62871">
        <ele>1091.941</ele>
        <time>2015-08-24T16:01:49Z</time>
      </trkpt>
      <trkpt lat="44.15312" lon="3.63007">
        <ele>1094.081</ele>
        <time>2015-08-24T16:02:09Z</time>
      </trkpt>
      <trkpt lat="44.15279" lon="3.63041">
        <ele>1098.309</ele>
        <time>2015-08-24T16:02:29Z</time>
      </trkpt>
      <trkpt lat="44.15225" lon="3.63182">
        <ele>1099.008</ele>
        <time>2015-08-24T16:02:49Z</time>
      </trkpt>
      <trkpt lat="44.15201" lon="3.63206">
        <ele>1095.41</ele>
        <time>2015-08-24T16:03:09Z</time>
      </trkpt>
      <trkpt lat="44.15199" lon="3.6329">
        <ele>1092.435</ele>
        <time>2015-08-24T16:03:29Z</time>
      </trkpt>
      <trkpt lat="44.15207" lon="3.63357">
        <ele>1088.966</ele>
        <time>2015-08-24T16:03:49Z</time>
      </trkpt>
      <trkpt lat="44.15188" lon="3.63415">
        <ele>1089.031</ele>
        <time>2015-08-24T16:04:09Z</time>
      </trkpt>
      <trkpt lat="44.15141" lon="3.63461">
        <ele>1092.49</ele>
        <time>2015-08-24T16:04:29Z</time>
      </trkpt>
      <trkpt lat="44.15091" lon="3.63537">
        <ele>1090.413</ele>
        <time>2015-08-24T16:04:49Z</time>
      </trkpt>
      <trkpt lat="44.15062" lon="3.63613">
        <ele>1092.22</ele>
        <time>2015-08-24T16:05:09Z</time>
      </trkpt>
      <trkpt lat="44.15015" lon="3.63672">
        <ele>1089.044</ele>
        <time>2015-08-24T16:05:29Z</time>
      </trkpt>
      <trkpt lat="44.1498" lon="3.63733">
        <ele>1087.193</ele>
        <time>2015-08-24T16:05:49Z</time>
      </trkpt>
      <trkpt lat="44.14988" lon="3.6376">
        <ele>1088.265</ele>
        <time>2015-08-24T16:06:09Z</time>
      </trkpt>
      <trkpt lat="44.15046" lon="3.63741">
        <ele>1095.421</ele>
        <time>2015-08-24T16:06:29Z</time>
      </trkpt>
      <trkpt lat="44.15071" lon="3.63754">
        <ele>1095.008</ele>
        <time>2015-08-24T16:06:49Z</time>
      </trkpt>
      <trkpt lat="44.15133" lon="3.63863">
        <ele>1078.255</ele>
        <time>2015-08-24T16:07:09Z</time>
      </trkpt>
      <trkpt lat="44.15141" lon="3.63903">
        <ele>1075.07</ele>
        <time>2015-08-24T16:07:29Z</time>
      </trkpt>
      <trkpt lat="44.15129" lon="3.6395">
        <ele>1075.551</ele>
        <time>2015-08-24T16:07:49Z</time>
      </trkpt>
      <trkpt lat="44.15102" lon="3.64004">
        <ele>1076.066</ele>
        <time>2015-08-24T16:08:09Z</time>
      </trkpt>
      <trkpt lat="44.15002" lon="3.6409">
        <ele>1079.925</ele>
        <time>2015-08-24T16:08:29Z</time>
      </trkpt>
      <trkpt lat="44.14935" lon="3.64133">
        <ele>1083.988</ele>
        <time>2015-08-24T16:08:49Z</time>
      </trkpt>
      <trkpt lat="44.14848" lon="3.6413">
        <ele>1080.625</ele>
        <time>2015-08-24T16:09:09Z</time>
      </trkpt>
      <trkpt lat="44.14825" lon="3.64145">
        <ele>1080.639</ele>
        <time>2015-08-24T16:09:29Z</time>
      </trkpt>
      <trkpt lat="44.14793" lon="3.64207">
        <ele>1083.275</ele>
        <time>2015-08-24T16:09:49Z</time>
      </trkpt>
      <trkpt lat="44.14736" lon="3.64348">
        <ele>1081.028</ele>
        <time>2015-08-24T16:10:09Z</time>
      </trkpt>
      <trkpt lat="44.14726" lon="3.64414">
        <ele>1080.82</ele>
        <time>2015-08-24T16:10:29Z</time>
      </trkpt>
      <trkpt lat="44.14722" lon="3.64531">
        <ele>1082.208</ele>
        <time>2015-08-24T16:10:49Z</time>
      </trkpt>
      <trkpt lat="44.14652" lon="3.64701">
        <ele>1083.053</ele>
        <time>2015-08-24T16:11:09Z</time>
      </trkpt>
      <trkpt lat="44.14577" lon="3.64859">
        <ele>1078.028</ele>
        <time>2015-08-24T16:11:29Z</time>
      </trkpt>
      <trkpt lat="44.14559" lon="3.64974">
        <ele>1087.239</ele>
        <time>2015-08-24T16:11:49Z</time>
      </trkpt>
      <trkpt lat="44.14537" lon="3.65018">
        <ele>1085.024</ele>
        <time>2015-08-24T16:12:09Z</time>
      </trkpt>
      <trkpt lat="44.14494" lon="3.65022">
        <ele>1084.243</ele>
        <time>2015-08-24T16:12:29Z</time>
      </trkpt>
      <trkpt lat="44.14463" lon="3.64977">
        <ele>1085.866</ele>
        <time>2015-08-24T16:12:49Z</time>
      </trkpt>
      <trkpt lat="44.1443" lon="3.64884">
        <ele>1085.913</ele>
        <time>2015-08-24T16:13:09Z</time>
      </trkpt>
      <trkpt lat="44.14397" lon="3.64675">
        <ele>1089.047</ele>
        <time>2015-08-24T16:13:29Z</time>
      </trkpt>
      <trkpt lat="44.1438" lon="3.64608">
        <ele>1094.383</ele>
        <time>2015-08-24T16:13:49Z</time>
      </trkpt>
      <trkpt lat="44.14335" lon="3.64525">
        <ele>1084.825</ele>
        <time>2015-08-24T16:14:09Z</time>
      </trkpt>
      <trkpt lat="44.14251" lon="3.64412">
        <ele>1086.417</ele>
        <time>2015-08-24T16:14:29Z</time>
      </trkpt>
      <trkpt lat="44.14207" lon="3.64336">
        <ele>1096.208</ele>
        <time>2015-08-24T16:14:49Z</time>
      </trkpt>
      <trkpt lat="44.14195" lon="3.64256">
        <ele>1094.284</ele>
        <time>2015-08-24T16:15:09Z</time>
      </trkpt>
      <trkpt lat="44.14209" lon="3.64218">
        <ele>1098.169</ele>
        <time>2015-08-24T16:15:29Z</time>
      </trkpt>
      <trkpt lat="44.1425" lon="3.64194">
        <ele>1110.14</ele>
        <time>2015-08-24T16:15:49Z</time>
      </trkpt>
      <trkpt lat="44.14323" lon="3.64195">
        <ele>1107.815</ele>
        <time>2015-08-24T16:16:09Z</time>
      </trkpt>
      <trkpt lat="44.14356" lon="3.64183">
        <ele>1101.724</ele>
        <time>2015-08-24T16:16:29Z</time>
      </trkpt>
      <trkpt lat="44.14374" lon="3.64154">
        <ele>1100.737</ele>
        <time>2015-08-24T16:16:49Z</time>
      </trkpt>
      <trkpt lat="44.14364" lon="3.64092">
        <ele>1103.594</ele>
        <time>2015-08-24T16:17:09Z</time>
      </trkpt>
      <trkpt lat="44.14359" lon="3.64033">
        <ele>1111.668</ele>
        <time>2015-08-24T16:17:29Z</time>
      </trkpt>
      <trkpt lat="44.14377" lon="3.63948">
        <ele>1114.452</ele>
        <time>2015-08-24T16:17:49Z</time>
      </trkpt>
      <trkpt lat="44.1441" lon="3.63896">
        <ele>1113.153</ele>
        <time>2015-08-24T16:18:09Z</time>
      </trkpt>
      <trkpt lat="44.14413" lon="3.6387">
        <ele>1112.408</ele>
        <time>2015-08-24T16:18:29Z</time>
      </trkpt>
      <trkpt lat="44.14399" lon="3.63837">
        <ele>1112.408</ele>
        <time>2015-08-24T16:18:49Z</time>
      </trkpt>
      <trkpt lat="44.1434" lon="3.63773">
        <ele>1119.791</ele>
        <time>2015-08-24T16:19:09Z</time>
      </trkpt>
      <trkpt lat="44.14296" lon="3.63684">
        <ele>1128.496</ele>
        <time>2015-08-24T16:19:29Z</time>
      </trkpt>
      <trkpt lat="44.14291" lon="3.63625">
        <ele>1130.387</ele>
        <time>2015-08-24T16:19:49Z</time>
      </trkpt>
      <trkpt lat="44.14273" lon="3.63561">
        <ele>1142.912</ele>
        <time>2015-08-24T16:20:09Z</time>
      </trkpt>
      <trkpt lat="44.1431" lon="3.63518">
        <ele>1141.121</ele>
        <time>2015-08-24T16:20:29Z</time>
      </trkpt>
      <trkpt lat="44.14346" lon="3.63499">
        <ele>1137.254</ele>
        <time>2015-08-24T16:20:49Z</time>
      </trkpt>
      <trkpt lat="44.14429" lon="3.63414">
        <ele>1131.311</ele>
        <time>2015-08-24T16:21:09Z</time>
      </trkpt>
      <trkpt lat="44.14435" lon="3.63384">
        <ele>1131.515</ele>
        <time>2015-08-24T16:21:29Z</time>
      </trkpt>
      <trkpt lat="44.14426" lon="3.63361">
        <ele>1134.345</ele>
        <time>2015-08-24T16:21:49Z</time>
      </trkpt>
      <trkpt lat="44.14366" lon="3.6334">
        <ele>1145.547</ele>
        <time>2015-08-24T16:22:09Z</time>
      </trkpt>
      <trkpt lat="44.14308" lon="3.63312">
        <ele>1145.811</ele>
        <time>2015-08-24T16:22:29Z</time>
      </trkpt>
      <trkpt lat="44.14117" lon="3.63171">
        <ele>1159.208</ele>
        <time>2015-08-24T16:22:49Z</time>
      </trkpt>
      <trkpt lat="44.1409" lon="3.63098">
        <ele>1153.17</ele>
        <time>2015-08-24T16:23:09Z</time>
      </trkpt>
      <trkpt lat="44.14071" lon="3.63091">
        <ele>1149.635</ele>
        <time>2015-08-24T16:23:29Z</time>
      </trkpt>
      <trkpt lat="44.14055" lon="3.63106">
        <ele>1148.976</ele>
        <time>2015-08-24T16:23:49Z</time>
      </trkpt>
      <trkpt lat="44.14046" lon="3.63191">
        <ele>1155.411</ele>
        <time>2015-08-24T16:24:09Z</time>
      </trkpt>
      <trkpt lat="44.13996" lon="3.63355">
        <ele>1167.93</ele>
        <time>2015-08-24T16:24:29Z</time>
      </trkpt>
      <trkpt lat="44.1386" lon="3.63406">
        <ele>1162.563</ele>
        <time>2015-08-24T16:24:49Z</time>
      </trkpt>
      <trkpt lat="44.13797" lon="3.63378">
        <ele>1162.57</ele>
        <time>2015-08-24T16:25:09Z</time>
      </trkpt>
      <trkpt lat="44.13737" lon="3.63131">
        <ele>1159.944</ele>
        <time>2015-08-24T16:25:29Z</time>
      </trkpt>
      <trkpt lat="44.13695" lon="3.63065">
        <ele>1162.481</ele>
        <time>2015-08-24T16:25:49Z</time>
      </trkpt>
      <trkpt lat="44.13667" lon="3.62967">
        <ele>1159.361</ele>
        <time>2015-08-24T16:26:09Z</time>
      </trkpt>
      <trkpt lat="44.13602" lon="3.6287">
        <ele>1157.217</ele>
        <time>2015-08-24T16:26:29Z</time>
      </trkpt>
      <trkpt lat="44.13559" lon="3.62787">
        <ele>1158.108</ele>
        <time>2015-08-24T16:26:49Z</time>
      </trkpt>
      <trkpt lat="44.13536" lon="3.62726">
        <ele>1156.694</ele>
        <time>2015-08-24T16:27:09Z</time>
      </trkpt>
      <trkpt lat="44.13513" lon="3.6271">
        <ele>1157.039</ele>
        <time>2015-08-24T16:27:29Z</time>
      </trkpt>
      <trkpt lat="44.13422" lon="3.62718">
        <ele>1150.42</ele>
        <time>2015-08-24T16:27:49Z</time>
      </trkpt>
      <trkpt lat="44.13416" lon="3.62735">
        <ele>1150.015</ele>
        <time>2015-08-24T16:28:09Z</time>
      </trkpt>
      <trkpt lat="44.13443" lon="3.62774">
        <ele>1150.994</ele>
        <time>2015-08-24T16:28:29Z</time>
      </trkpt>
      <trkpt lat="44.13482" lon="3.62853">
        <ele>1158.367</ele>
        <time>2015-08-24T16:28:49Z</time>
      </trkpt>
      <trkpt lat="44.13477" lon="3.62878">
        <ele>1158.684</ele>
        <time>2015-08-24T16:29:09Z</time>
      </trkpt>
      <trkpt lat="44.13452" lon="3.62924">
        <ele>1153.328</ele>
        <time>2015-08-24T16:29:29Z</time>
      </trkpt>
      <trkpt lat="44.13439" lon="3.62989">
        <ele>1150.272</ele>
        <time>2015-08-24T16:29:49Z</time>
      </trkpt>
      <trkpt lat="44.13444" lon="3.63075">
        <ele>1150.813</ele>
        <time>2015-08-24T16:30:09Z</time>
      </trkpt>
      <trkpt lat="44.13414" lon="3.63187">
        <ele>1145.714</ele>
        <time>2015-08-24T16:30:29Z</time>
      </trkpt>
      <trkpt lat="44.13433" lon="3.6329">
        <ele>1149.708</ele>
        <time>2015-08-24T16:30:49Z</time>
      </trkpt>
      <trkpt lat="44.13422" lon="3.63341">
        <ele>1142.943</ele>
        <time>2015-08-24T16:31:09Z</time>
      </trkpt>
      <trkpt lat="44.13409" lon="3.63392">
        <ele>1143.648</ele>
        <time>2015-08-24T16:31:29Z</time>
      </trkpt>
      <trkpt lat="44.13362" lon="3.63464">
        <ele>1140.169</ele>
        <time>2015-08-24T16:31:49Z</time>
      </trkpt>
      <trkpt lat="44.13289" lon="3.63446">
        <ele>1143.174</ele>
        <time>2015-08-24T16:32:09Z</time>
      </trkpt>
      <trkpt lat="44.13164" lon="3.63299">
        <ele>1134.523</ele>
        <time>2015-08-24T16:32:29Z</time>
      </trkpt>
      <trkpt lat="44.13112" lon="3.63246">
        <ele>1134.186</ele>
        <time>2015-08-24T16:32:49Z</time>
      </trkpt>
      <trkpt lat="44.13076" lon="3.63191">
        <ele>1126.083</ele>
        <time>2015-08-24T16:33:09Z</time>
      </trkpt>
      <trkpt lat="44.13036" lon="3.63177">
        <ele>1128.957</ele>
        <time>2015-08-24T16:33:29Z</time>
      </trkpt>
      <trkpt lat="44.1298" lon="3.63143">
        <ele>1130.463</ele>
        <time>2015-08-24T16:33:49Z</time>
      </trkpt>
      <trkpt lat="44.12918" lon="3.63062">
        <ele>1126.144</ele>
        <time>2015-08-24T16:34:09Z</time>
      </trkpt>
      <trkpt lat="44.1288" lon="3.63">
        <ele>1119.818</ele>
        <time>2015-08-24T16:34:29Z</time>
      </trkpt>
      <trkpt lat="44.12841" lon="3.62964">
        <ele>1121.208</ele>
        <time>2015-08-24T16:34:49Z</time>
      </trkpt>
      <trkpt lat="44.12765" lon="3.6292">
        <ele>1120.312</ele>
        <time>2015-08-24T16:35:09Z</time>
      </trkpt>
      <trkpt lat="44.12693" lon="3.62823">
        <ele>1115.967</ele>
        <time>2015-08-24T16:35:29Z</time>
      </trkpt>
      <trkpt lat="44.12629" lon="3.62773">
        <ele>1115.348</ele>
        <time>2015-08-24T16:35:49Z</time>
      </trkpt>
      <trkpt lat="44.12587" lon="3.62728">
        <ele>1114.393</ele>
        <time>2015-08-24T16:36:09Z</time>
      </trkpt>
      <trkpt lat="44.12574" lon="3.62737">
        <ele>1114.012</ele>
        <time>2015-08-24T16:36:29Z</time>
      </trkpt>
      <trkpt lat="44.12572" lon="3.62825">
        <ele>1114.195</ele>
        <time>2015-08-24T16:36:49Z</time>
      </trkpt>
      <trkpt lat="44.12542" lon="3.62928">
        <ele>1105.822</ele>
        <time>2015-08-24T16:37:09Z</time>
      </trkpt>
      <trkpt lat="44.12543" lon="3.62958">
        <ele>1105.356</ele>
        <time>2015-08-24T16:37:29Z</time>
      </trkpt>
      <trkpt lat="44.12572" lon="3.63005">
        <ele>1112.323</ele>
        <time>2015-08-24T16:37:49Z</time>
      </trkpt>
      <trkpt lat="44.12576" lon="3.63075">
        <ele>1106.083</ele>
        <time>2015-08-24T16:38:09Z</time>
      </trkpt>
      <trkpt lat="44.12583" lon="3.63131">
        <ele>1108.611</ele>
        <time>2015-08-24T16:38:29Z</time>
      </trkpt>
      <trkpt lat="44.1254" lon="3.63176">
        <ele>1094.108</ele>
        <time>2015-08-24T16:38:49Z</time>
      </trkpt>
      <trkpt lat="44.12542" lon="3.63395">
        <ele>1093.538</ele>
        <time>2015-08-24T16:39:09Z</time>
      </trkpt>
      <trkpt lat="44.12503" lon="3.63416">
        <ele>1091.093</ele>
        <time>2015-08-24T16:39:29Z</time>
      </trkpt>
      <trkpt lat="44.12399" lon="3.63177">
        <ele>1088.574</ele>
        <time>2015-08-24T16:39:49Z</time>
      </trkpt>
      <trkpt lat="44.12373" lon="3.6313">
        <ele>1091.749</ele>
        <time>2015-08-24T16:40:09Z</time>
      </trkpt>
      <trkpt lat="44.12362" lon="3.63071">
        <ele>1091.418</ele>
        <time>2015-08-24T16:40:29Z</time>
      </trkpt>
      <trkpt lat="44.12303" lon="3.62885">
        <ele>1086.441</ele>
        <time>2015-08-24T16:40:49Z</time>
      </trkpt>
      <trkpt lat="44.1222" lon="3.6277">
        <ele>1083.998</ele>
        <time>2015-08-24T16:41:09Z</time>
      </trkpt>
      <trkpt lat="44.12197" lon="3.62729">
        <ele>1081.052</ele>
        <time>2015-08-24T16:41:29Z</time>
      </trkpt>
      <trkpt lat="44.12174" lon="3.62705">
        <ele>1083.578</ele>
        <time>2015-08-24T16:41:49Z</time>
      </trkpt>
      <trkpt lat="44.12156" lon="3.62698">
        <ele>1085.033</ele>
        <time>2015-08-24T16:42:09Z</time>
      </trkpt>
      <trkpt lat="44.12098" lon="3.62709">
        <ele>1086.726</ele>
        <time>2015-08-24T16:42:29Z</time>
      </trkpt>
      <trkpt lat="44.12032" lon="3.62711">
        <ele>1089.408</ele>
        <time>2015-08-24T16:42:49Z</time>
      </trkpt>
      <trkpt lat="44.11979" lon="3.62686">
        <ele>1083.643</ele>
        <time>2015-08-24T16:43:09Z</time>
      </trkpt>
      <trkpt lat="44.11953" lon="3.62648">
        <ele>1086.138</ele>
        <time>2015-08-24T16:43:29Z</time>
      </trkpt>
      <trkpt lat="44.11951" lon="3.62613">
        <ele>1086.889</ele>
        <time>2015-08-24T16:43:49Z</time>
      </trkpt>
      <trkpt lat="44.11967" lon="3.62523">
        <ele>1090.784</ele>
        <time>2015-08-24T16:44:09Z</time>
      </trkpt>
      <trkpt lat="44.11979" lon="3.62492">
        <ele>1092.683</ele>
        <time>2015-08-24T16:44:29Z</time>
      </trkpt>
      <trkpt lat="44.11974" lon="3.62478">
        <ele>1097.946</ele>
        <time>2015-08-24T16:44:49Z</time>
      </trkpt>
      <trkpt lat="44.11989" lon="3.62456">
        <ele>1099.183</ele>
        <time>2015-08-24T16:45:09Z</time>
      </trkpt>
      <trkpt lat="44.12076" lon="3.62397">
        <ele>1086.637</ele>
        <time>2015-08-24T16:45:29Z</time>
      </trkpt>
      <trkpt lat="44.12082" lon="3.62374">
        <ele>1086.675</ele>
        <time>2015-08-24T16:45:49Z</time>
      </trkpt>
      <trkpt lat="44.1207" lon="3.6234">
        <ele>1093.128</ele>
        <time>2015-08-24T16:46:09Z</time>
      </trkpt>
      <trkpt lat="44.12071" lon="3.62315">
        <ele>1093.42</ele>
        <time>2015-08-24T16:46:29Z</time>
      </trkpt>
      <trkpt lat="44.12062" lon="3.62261">
        <ele>1099.108</ele>
        <time>2015-08-24T16:46:49Z</time>
      </trkpt>
      <trkpt lat="44.12061" lon="3.62213">
        <ele>1099.833</ele>
        <time>2015-08-24T16:47:09Z</time>
      </trkpt>
      <trkpt lat="44.12069" lon="3.62174">
        <ele>1098.238</ele>
        <time>2015-08-24T16:47:29Z</time>
      </trkpt>
      <trkpt lat="44.1209" lon="3.62124">
        <ele>1097.969</ele>
        <time>2015-08-24T16:47:49Z</time>
      </trkpt>
      <trkpt lat="44.12136" lon="3.62084">
        <ele>1096.474</ele>
        <time>2015-08-24T16:48:09Z</time>
      </trkpt>
      <trkpt lat="44.12188" lon="3.62075">
        <ele>1090.263</ele>
        <time>2015-08-24T16:48:29Z</time>
      </trkpt>
      <trkpt lat="44.12244" lon="3.62039">
        <ele>1085.096</ele>
        <time>2015-08-24T16:48:49Z</time>
      </trkpt>
      <trkpt lat="44.12258" lon="3.62018">
        <ele>1082.893</ele>
        <time>2015-08-24T16:49:09Z</time>
      </trkpt>
      <trkpt lat="44.12261" lon="3.61992">
        <ele>1079.637</ele>
        <time>2015-08-24T16:49:29Z</time>
      </trkpt>
      <trkpt lat="44.12227" lon="3.61954">
        <ele>1078.131</ele>
        <time>2015-08-24T16:49:49Z</time>
      </trkpt>
      <trkpt lat="44.12197" lon="3.6191">
        <ele>1076.361</ele>
        <time>2015-08-24T16:50:09Z</time>
      </trkpt>
      <trkpt lat="44.12167" lon="3.61884">
        <ele>1076.607</ele>
        <time>2015-08-24T16:50:29Z</time>
      </trkpt>
      <trkpt lat="44.12125" lon="3.61836">
        <ele>1078.608</ele>
        <time>2015-08-24T16:50:49Z</time>
      </trkpt>
      <trkpt lat="44.12092" lon="3.61814">
        <ele>1082.659</ele>
        <time>2015-08-24T16:51:09Z</time>
      </trkpt>
      <trkpt lat="44.12039" lon="3.6177">
        <ele>1079.534</ele>
        <time>2015-08-24T16:51:29Z</time>
      </trkpt>
      <trkpt lat="44.11989" lon="3.61696">
        <ele>1078.235</ele>
        <time>2015-08-24T16:51:49Z</time>
      </trkpt>
      <trkpt lat="44.11947" lon="3.61612">
        <ele>1069.49</ele>
        <time>2015-08-24T16:52:09Z</time>
      </trkpt>
      <trkpt lat="44.11938" lon="3.61579">
        <ele>1070.669</ele>
        <time>2015-08-24T16:52:29Z</time>
      </trkpt>
      <trkpt lat="44.11838" lon="3.61441">
        <ele>1063.862</ele>
        <time>2015-08-24T16:52:49Z</time>
      </trkpt>
      <trkpt lat="44.11803" lon="3.61379">
        <ele>1063.179</ele>
        <time>2015-08-24T16:53:09Z</time>
      </trkpt>
      <trkpt lat="44.1175" lon="3.61251">
        <ele>1096.083</ele>
        <time>2015-08-24T16:53:29Z</time>
      </trkpt>
      <trkpt lat="44.11722" lon="3.61153">
        <ele>1096.976</ele>
        <time>2015-08-24T16:53:49Z</time>
      </trkpt>
      <trkpt lat="44.11673" lon="3.61029">
        <ele>1099.59</ele>
        <time>2015-08-24T16:54:09Z</time>
      </trkpt>
      <trkpt lat="44.11656" lon="3.60961">
        <ele>1098.019</ele>
        <time>2015-08-24T16:54:29Z</time>
      </trkpt>
      <trkpt lat="44.11656" lon="3.60897">
        <ele>1102.608</ele>
        <time>2015-08-24T16:54:49Z</time>
      </trkpt>
      <trkpt lat="44.11663" lon="3.60808">
        <ele>1104.373</ele>
        <time>2015-08-24T16:55:09Z</time>
      </trkpt>
      <trkpt lat="44.11674" lon="3.60746">
        <ele>1112.938</ele>
        <time>2015-08-24T16:55:29Z</time>
      </trkpt>
      <trkpt lat="44.11666" lon="3.60727">
        <ele>1116.069</ele>
        <time>2015-08-24T16:55:49Z</time>
      </trkpt>
      <trkpt lat="44.1165" lon="3.60697">
        <ele>1117.514</ele>
        <time>2015-08-24T16:56:09Z</time>
      </trkpt>
      <trkpt lat="44.11651" lon="3.60538">
        <ele>1137.563</ele>
        <time>2015-08-24T16:56:29Z</time>
      </trkpt>
      <trkpt lat="44.11658" lon="3.60468">
        <ele>1145.976</ele>
        <time>2015-08-24T16:56:49Z</time>
      </trkpt>
      <trkpt lat="44.1168" lon="3.60365">
        <ele>1159.053</ele>
        <time>2015-08-24T16:57:09Z</time>
      </trkpt>
      <trkpt lat="44.11717" lon="3.60307">
        <ele>1167.947</ele>
        <time>2015-08-24T16:57:29Z</time>
      </trkpt>
      <trkpt lat="44.11746" lon="3.60232">
        <ele>1180.955</ele>
        <time>2015-08-24T16:57:49Z</time>
      </trkpt>
      <trkpt lat="44.11762" lon="3.60213">
        <ele>1185.107</ele>
        <time>2015-08-24T16:58:09Z</time>
      </trkpt>
      <trkpt lat="44.11792" lon="3.60204">
        <ele>1188.217</ele>
        <time>2015-08-24T16:58:29Z</time>
      </trkpt>
      <trkpt lat="44.11835" lon="3.60228">
        <ele>1183.908</ele>
        <time>2015-08-24T16:58:49Z</time>
      </trkpt>
      <trkpt lat="44.1187" lon="3.60222">
        <ele>1195.681</ele>
        <time>2015-08-24T16:59:09Z</time>
      </trkpt>
      <trkpt lat="44.11866" lon="3.60256">
        <ele>1187.676</ele>
        <time>2015-08-24T16:59:29Z</time>
      </trkpt>
      <trkpt lat="44.1187" lon="3.60298">
        <ele>1184.477</ele>
        <time>2015-08-24T16:59:49Z</time>
      </trkpt>
      <trkpt lat="44.11896" lon="3.60353">
        <ele>1189.412</ele>
        <time>2015-08-24T17:00:09Z</time>
      </trkpt>
      <trkpt lat="44.11898" lon="3.60495">
        <ele>1189.751</ele>
        <time>2015-08-24T17:00:29Z</time>
      </trkpt>
      <trkpt lat="44.11977" lon="3.60563">
        <ele>1210.784</ele>
        <time>2015-08-24T17:00:49Z</time>
      </trkpt>
      <trkpt lat="44.1203" lon="3.60649">
        <ele>1217.971</ele>
        <time>2015-08-24T17:01:09Z</time>
      </trkpt>
      <trkpt lat="44.12042" lon="3.60536">
        <ele>1229.245</ele>
        <time>2015-08-24T17:01:29Z</time>
      </trkpt>
      <trkpt lat="44.1208" lon="3.60411">
        <ele>1250.842</ele>
        <time>2015-08-24T17:01:49Z</time>
      </trkpt>
      <trkpt lat="44.12108" lon="3.60336">
        <ele>1266.522</ele>
        <time>2015-08-24T17:02:09Z</time>
      </trkpt>
      <trkpt lat="44.12127" lon="3.60311">
        <ele>1268.414</ele>
        <time>2015-08-24T17:02:29Z</time>
      </trkpt>
      <trkpt lat="44.12184" lon="3.60251">
        <ele>1283.508</ele>
        <time>2015-08-24T17:02:49Z</time>
      </trkpt>
      <trkpt lat="44.12184" lon="3.60238">
        <ele>1287.28</ele>
        <time>2015-08-24T17:03:09Z</time>
      </trkpt>
      <trkpt lat="44.12111" lon="3.60251">
        <ele>1287.815</ele>
        <time>2015-08-24T17:03:29Z</time>
      </trkpt>
      <trkpt lat="44.12089" lon="3.60235">
        <ele>1291.756</ele>
        <time>2015-08-24T17:03:49Z</time>
      </trkpt>
      <trkpt lat="44.12042" lon="3.60132">
        <ele>1300.671</ele>
        <time>2015-08-24T17:04:09Z</time>
      </trkpt>
      <trkpt lat="44.12055" lon="3.6006">
        <ele>1315.31</ele>
        <time>2015-08-24T17:04:29Z</time>
      </trkpt>
      <trkpt lat="44.12055" lon="3.5995">
        <ele>1332.513</ele>
        <time>2015-08-24T17:04:49Z</time>
      </trkpt>
      <trkpt lat="44.12049" lon="3.59901">
        <ele>1333.49</ele>
        <time>2015-08-24T17:05:09Z</time>
      </trkpt>
      <trkpt lat="44.12004" lon="3.59849">
        <ele>1342.934</ele>
        <time>2015-08-24T17:05:29Z</time>
      </trkpt>
      <trkpt lat="44.11945" lon="3.59839">
        <ele>1352.895</ele>
        <time>2015-08-24T17:05:49Z</time>
      </trkpt>
      <trkpt lat="44.11909" lon="3.59831">
        <ele>1356.349</ele>
        <time>2015-08-24T17:06:09Z</time>
      </trkpt>
      <trkpt lat="44.11902" lon="3.59814">
        <ele>1359.523</ele>
        <time>2015-08-24T17:06:29Z</time>
      </trkpt>
      <trkpt lat="44.11931" lon="3.59794">
        <ele>1367.208</ele>
        <time>2015-08-24T17:06:49Z</time>
      </trkpt>
      <trkpt lat="44.11948" lon="3.59763">
        <ele>1373.715</ele>
        <time>2015-08-24T17:07:09Z</time>
      </trkpt>
      <trkpt lat="44.11942" lon="3.59652">
        <ele>1391.38</ele>
        <time>2015-08-24T17:07:29Z</time>
      </trkpt>
      <trkpt lat="44.11931" lon="3.59604">
        <ele>1390.071</ele>
        <time>2015-08-24T17:07:49Z</time>
      </trkpt>
      <trkpt lat="44.11931" lon="3.59551">
        <ele>1391.496</ele>
        <time>2015-08-24T17:08:09Z</time>
      </trkpt>
      <trkpt lat="44.11922" lon="3.5951">
        <ele>1391.165</ele>
        <time>2015-08-24T17:08:29Z</time>
      </trkpt>
      <trkpt lat="44.11919" lon="3.59455">
        <ele>1391.238</ele>
        <time>2015-08-24T17:08:49Z</time>
      </trkpt>
      <trkpt lat="44.11976" lon="3.59424">
        <ele>1415.325</ele>
        <time>2015-08-24T17:09:09Z</time>
      </trkpt>
      <trkpt lat="44.12049" lon="3.59399">
        <ele>1424.429</ele>
        <time>2015-08-24T17:09:29Z</time>
      </trkpt>
      <trkpt lat="44.12075" lon="3.59377">
        <ele>1430.412</ele>
        <time>2015-08-24T17:09:49Z</time>
      </trkpt>
      <trkpt lat="44.12099" lon="3.5939">
        <ele>1422.432</ele>
        <time>2015-08-24T17:10:09Z</time>
      </trkpt>
      <trkpt lat="44.12159" lon="3.59393">
        <ele>1423.505</ele>
        <time>2015-08-24T17:10:29Z</time>
      </trkpt>
      <trkpt lat="44.1225" lon="3.593">
        <ele>1439.308</ele>
        <time>2015-08-24T17:10:49Z</time>
      </trkpt>
      <trkpt lat="44.12289" lon="3.5927">
        <ele>1439.277</ele>
        <time>2015-08-24T17:11:09Z</time>
      </trkpt>
      <trkpt lat="44.12346" lon="3.59212">
        <ele>1438.232</ele>
        <time>2015-08-24T17:11:29Z</time>
      </trkpt>
      <trkpt lat="44.12349" lon="3.59195">
        <ele>1439.643</ele>
        <time>2015-08-24T17:11:49Z</time>
      </trkpt>
      <trkpt lat="44.12193" lon="3.59201">
        <ele>1456.278</ele>
        <time>2015-08-24T17:12:09Z</time>
      </trkpt>
      <trkpt lat="44.12149" lon="3.59223">
        <ele>1463.177</ele>
        <time>2015-08-24T17:12:29Z</time>
      </trkpt>
      <trkpt lat="44.11995" lon="3.59218">
        <ele>1464.31</ele>
        <time>2015-08-24T17:12:49Z</time>
      </trkpt>
      <trkpt lat="44.11996" lon="3.59205">
        <ele>1471.717</ele>
        <time>2015-08-24T17:13:09Z</time>
      </trkpt>
      <trkpt lat="44.12019" lon="3.59196">
        <ele>1479.211</ele>
        <time>2015-08-24T17:13:29Z</time>
      </trkpt>
      <trkpt lat="44.12028" lon="3.59172">
        <ele>1482.471</ele>
        <time>2015-08-24T17:13:49Z</time>
      </trkpt>
      <trkpt lat="44.12006" lon="3.59166">
        <ele>1486.241</ele>
        <time>2015-08-24T17:14:09Z</time>
      </trkpt>
      <trkpt lat="44.11979" lon="3.59111">
        <ele>1502.215</ele>
        <time>2015-08-24T17:14:29Z</time>
      </trkpt>
      <trkpt lat="44.11945" lon="3.59091">
        <ele>1504.108</ele>
        <time>2015-08-24T17:14:49Z</time>
      </trkpt>
      <trkpt lat="44.1193" lon="3.59073">
        <ele>1508.143</ele>
        <time>2015-08-24T17:15:09Z</time>
      </trkpt>
      <trkpt lat="44.11918" lon="3.59075">
        <ele>1510.248</ele>
        <time>2015-08-24T17:15:29Z</time>
      </trkpt>
      <trkpt lat="44.11893" lon="3.59099">
        <ele>1507.579</ele>
        <time>2015-08-24T17:15:49Z</time>
      </trkpt>
      <trkpt lat="44.11874" lon="3.59097">
        <ele>1506.234</ele>
        <time>2015-08-24T17:16:09Z</time>
      </trkpt>
      <trkpt lat="44.11853" lon="3.59105">
        <ele>1499.583</ele>
        <time>2015-08-24T17:16:29Z</time>
      </trkpt>
      <trkpt lat="44.11833" lon="3.59095">
        <ele>1499.176</ele>
        <time>2015-08-24T17:16:49Z</time>
      </trkpt>
      <trkpt lat="44.11801" lon="3.59105">
        <ele>1486.813</ele>
        <time>2015-08-24T17:17:09Z</time>
      </trkpt>
      <trkpt lat="44.11794" lon="3.59073">
        <ele>1493.797</ele>
        <time>2015-08-24T17:17:29Z</time>
      </trkpt>
      <trkpt lat="44.11792" lon="3.59043">
        <ele>1501.526</ele>
        <time>2015-08-24T17:17:49Z</time>
      </trkpt>
      <trkpt lat="44.1177" lon="3.58978">
        <ele>1505.047</ele>
        <time>2015-08-24T17:18:09Z</time>
      </trkpt>
      <trkpt lat="44.11761" lon="3.58932">
        <ele>1503.911</ele>
        <time>2015-08-24T17:18:29Z</time>
      </trkpt>
      <trkpt lat="44.11767" lon="3.58897">
        <ele>1500.708</ele>
        <time>2015-08-24T17:18:49Z</time>
      </trkpt>
      <trkpt lat="44.11792" lon="3.5886">
        <ele>1500.968</ele>
        <time>2015-08-24T17:19:09Z</time>
      </trkpt>
      <trkpt lat="44.11871" lon="3.58793">
        <ele>1500.573</ele>
        <time>2015-08-24T17:19:29Z</time>
      </trkpt>
      <trkpt lat="44.11937" lon="3.58749">
        <ele>1498.094</ele>
        <time>2015-08-24T17:19:49Z</time>
      </trkpt>
      <trkpt lat="44.1195" lon="3.58708">
        <ele>1499.889</ele>
        <time>2015-08-24T17:20:09Z</time>
      </trkpt>
      <trkpt lat="44.11977" lon="3.587">
        <ele>1502.258</ele>
        <time>2015-08-24T17:20:29Z</time>
      </trkpt>
      <trkpt lat="44.12009" lon="3.5864">
        <ele>1512.161</ele>
        <time>2015-08-24T17:20:49Z</time>
      </trkpt>
      <trkpt lat="44.1203" lon="3.58634">
        <ele>1513.918</ele>
        <time>2015-08-24T17:21:09Z</time>
      </trkpt>
      <trkpt lat="44.12057" lon="3.5863">
        <ele>1516.692</ele>
        <time>2015-08-24T17:21:29Z</time>
      </trkpt>
      <trkpt lat="44.12107" lon="3.58596">
        <ele>1523.961</ele>
        <time>2015-08-24T17:21:49Z</time>
      </trkpt>
      <trkpt lat="44.12136" lon="3.5855">
        <ele>1527.021</ele>
        <time>2015-08-24T17:22:09Z</time>
      </trkpt>
      <trkpt lat="44.12173" lon="3.58446">
        <ele>1539.013</ele>
        <time>2015-08-24T17:22:29Z</time>
      </trkpt>
      <trkpt lat="44.12136" lon="3.58422">
        <ele>1547.208</ele>
        <time>2015-08-24T17:22:49Z</time>
      </trkpt>
      <trkpt lat="44.12125" lon="3.58386">
        <ele>1551.682</ele>
        <time>2015-08-24T17:23:09Z</time>
      </trkpt>
      <trkpt lat="44.12134" lon="3.58367">
        <ele>1552.077</ele>
        <time>2015-08-24T17:23:29Z</time>
      </trkpt>
      <trkpt lat="44.1215" lon="3.58346">
        <ele>1549.388</ele>
        <time>2015-08-24T17:23:49Z</time>
      </trkpt>
      <trkpt lat="44.12149" lon="3.58294">
        <ele>1550.583</ele>
        <time>2015-08-24T17:24:09Z</time>
      </trkpt>
      <trkpt lat="44.12154" lon="3.58225">
        <ele>1556.422</ele>
        <time>2015-08-24T17:24:29Z</time>
      </trkpt>
      <trkpt lat="44.12173" lon="3.58132">
        <ele>1555.895</ele>
        <time>2015-08-24T17:24:49Z</time>
      </trkpt>
      <trkpt lat="44.1217" lon="3.58102">
        <ele>1555.112</ele>
        <time>2020-11-30T17:36:28Z</time>
      </trkpt>
      <trkpt lat="44.12146" lon="3.58064">
        <ele>1550.526</ele>
        <time>2020-11-30T17:36:48Z</time>
      </trkpt>
      <trkpt lat="44.1213" lon="3.58003">
        <ele>1551.565</ele>
        <time>2020-11-30T17:37:08Z</time>
      </trkpt>
      <trkpt lat="44.1212" lon="3.57997">
        <ele>1551.368</ele>
        <time>2020-11-30T17:37:28Z</time>
      </trkpt>
      <trkpt lat="44.12114" lon="3.57894">
        <ele>1556.014</ele>
        <time>2020-11-30T17:37:48Z</time>
      </trkpt>
      <trkpt lat="44.1213" lon="3.57764">
        <ele>1561.208</ele>
        <time>2020-11-30T17:38:08Z</time>
      </trkpt>
      <trkpt lat="44.12153" lon="3.57708">
        <ele>1560.082</ele>
        <time>2020-11-30T17:38:28Z</time>
      </trkpt>
      <trkpt lat="44.1216" lon="3.57511">
        <ele>1558.967</ele>
        <time>2020-11-30T17:38:48Z</time>
      </trkpt>
      <trkpt lat="44.1216" lon="3.57274">
        <ele>1551.278</ele>
        <time>2020-11-30T17:39:08Z</time>
      </trkpt>
      <trkpt lat="44.12234" lon="3.57003">
        <ele>1542.533</ele>
        <time>2020-11-30T17:39:28Z</time>
      </trkpt>
      <trkpt lat="44.12267" lon="3.56777">
        <ele>1525.952</ele>
        <time>2020-11-30T17:39:48Z</time>
      </trkpt>
      <trkpt lat="44.12334" lon="3.5661">
        <ele>1513.045</ele>
        <time>2020-11-30T17:40:08Z</time>
      </trkpt>
      <trkpt lat="44.12348" lon="3.56491">
        <ele>1505.742</ele>
        <time>2020-11-30T17:40:28Z</time>
      </trkpt>
      <trkpt lat="44.12346" lon="3.56407">
        <ele>1500.336</ele>
        <time>2020-11-30T17:40:48Z</time>
      </trkpt>
      <trkpt lat="44.12287" lon="3.56281">
        <ele>1486.921</ele>
        <time>2020-11-30T17:41:08Z</time>
      </trkpt>
      <trkpt lat="44.12219" lon="3.56207">
        <ele>1472.541</ele>
        <time>2020-11-30T17:41:28Z</time>
      </trkpt>
      <trkpt lat="44.12164" lon="3.56168">
        <ele>1464.005</ele>
        <time>2020-11-30T17:41:48Z</time>
      </trkpt>
      <trkpt lat="44.12108" lon="3.56148">
        <ele>1459.008</ele>
        <time>2020-11-30T17:42:08Z</time>
      </trkpt>
      <trkpt lat="44.12099" lon="3.56133">
        <ele>1457.498</ele>
        <time>2020-11-30T17:42:28Z</time>
      </trkpt>
      <trkpt lat="44.12048" lon="3.56113">
        <ele>1454.693</ele>
        <time>2020-11-30T17:42:48Z</time>
      </trkpt>
      <trkpt lat="44.11977" lon="3.56126">
        <ele>1446.494</ele>
        <time>2020-11-30T17:43:08Z</time>
      </trkpt>
      <trkpt lat="44.11953" lon="3.56114">
        <ele>1443.919</ele>
        <time>2020-11-30T17:43:28Z</time>
      </trkpt>
      <trkpt lat="44.1194" lon="3.56082">
        <ele>1443.898</ele>
        <time>2020-11-30T17:43:48Z</time>
      </trkpt>
      <trkpt lat="44.11952" lon="3.56051">
        <ele>1444.241</ele>
        <time>2020-11-30T17:44:08Z</time>
      </trkpt>
      <trkpt lat="44.11989" lon="3.56029">
        <ele>1444.198</ele>
        <time>2020-11-30T17:44:28Z</time>
      </trkpt>
      <trkpt lat="44.11992" lon="3.56011">
        <ele>1442.382</ele>
        <time>2020-11-30T17:44:48Z</time>
      </trkpt>
      <trkpt lat="44.11912" lon="3.55964">
        <ele>1437.817</ele>
        <time>2020-11-30T17:45:08Z</time>
      </trkpt>
      <trkpt lat="44.11898" lon="3.55923">
        <ele>1434.587</ele>
        <time>2020-11-30T17:45:28Z</time>
      </trkpt>
      <trkpt lat="44.11875" lon="3.55896">
        <ele>1432.115</ele>
        <time>2020-11-30T17:45:48Z</time>
      </trkpt>
      <trkpt lat="44.11859" lon="3.55788">
        <ele>1427.608</ele>
        <time>2020-11-30T17:46:08Z</time>
      </trkpt>
      <trkpt lat="44.118" lon="3.55681">
        <ele>1419.437</ele>
        <time>2020-11-30T17:46:28Z</time>
      </trkpt>
      <trkpt lat="44.11792" lon="3.55642">
        <ele>1417.672</ele>
        <time>2020-11-30T17:46:48Z</time>
      </trkpt>
      <trkpt lat="44.11772" lon="3.55616">
        <ele>1418.243</ele>
        <time>2020-11-30T17:47:08Z</time>
      </trkpt>
      <trkpt lat="44.11755" lon="3.55567">
        <ele>1419.418</ele>
        <time>2020-11-30T17:47:28Z</time>
      </trkpt>
      <trkpt lat="44.11731" lon="3.55545">
        <ele>1420.317</ele>
        <time>2020-11-30T17:47:48Z</time>
      </trkpt>
      <trkpt lat="44.11716" lon="3.55483">
        <ele>1416.21</ele>
        <time>2015-08-24T17:45:49Z</time>
      </trkpt>
      <trkpt lat="44.1168" lon="3.55379">
        <ele>1414.237</ele>
        <time>2015-08-24T17:46:09Z</time>
      </trkpt>
      <trkpt lat="44.11632" lon="3.55302">
        <ele>1413.031</ele>
        <time>2015-08-24T17:46:29Z</time>
      </trkpt>
      <trkpt lat="44.11661" lon="3.55215">
        <ele>1414.135</ele>
        <time>2015-08-24T17:46:49Z</time>
      </trkpt>
      <trkpt lat="44.11649" lon="3.55003">
        <ele>1409.786</ele>
        <time>2015-08-24T17:47:09Z</time>
      </trkpt>
      <trkpt lat="44.11634" lon="3.54966">
        <ele>1409.914</ele>
        <time>2015-08-24T17:47:29Z</time>
      </trkpt>
      <trkpt lat="44.11614" lon="3.54956">
        <ele>1408.208</ele>
        <time>2015-08-24T17:47:49Z</time>
      </trkpt>
      <trkpt lat="44.11558" lon="3.5486">
        <ele>1413.589</ele>
        <time>2015-08-24T17:48:09Z</time>
      </trkpt>
      <trkpt lat="44.11503" lon="3.54791">
        <ele>1411.784</ele>
        <time>2015-08-24T17:48:29Z</time>
      </trkpt>
      <trkpt lat="44.11477" lon="3.54743">
        <ele>1411.035</ele>
        <time>2015-08-24T17:48:49Z</time>
      </trkpt>
      <trkpt lat="44.11445" lon="3.54608">
        <ele>1410.35</ele>
        <time>2015-08-24T17:49:09Z</time>
      </trkpt>
      <trkpt lat="44.11394" lon="3.54576">
        <ele>1410.469</ele>
        <time>2015-08-24T17:49:29Z</time>
      </trkpt>
      <trkpt lat="44.1136" lon="3.54561">
        <ele>1411.542</ele>
        <time>2015-08-24T17:49:49Z</time>
      </trkpt>
      <trkpt lat="44.11326" lon="3.5453">
        <ele>1412.789</ele>
        <time>2015-08-24T17:50:09Z</time>
      </trkpt>
      <trkpt lat="44.11269" lon="3.54555">
        <ele>1409.123</ele>
        <time>2015-08-24T17:50:29Z</time>
      </trkpt>
      <trkpt lat="44.11206" lon="3.5456">
        <ele>1406.225</ele>
        <time>2015-08-24T17:50:49Z</time>
      </trkpt>
      <trkpt lat="44.11131" lon="3.54543">
        <ele>1409.526</ele>
        <time>2019-07-06T04:02:11Z</time>
      </trkpt>
      <trkpt lat="44.11066" lon="3.54516">
        <ele>1405.808</ele>
        <time>2019-07-06T04:02:31Z</time>
      </trkpt>
      <trkpt lat="44.10972" lon="3.54376">
        <ele>1395.408</ele>
        <time>2019-07-06T04:02:51Z</time>
      </trkpt>
      <trkpt lat="44.10929" lon="3.54346">
        <ele>1389.658</ele>
        <time>2019-07-06T04:03:11Z</time>
      </trkpt>
      <trkpt lat="44.1089" lon="3.5435">
        <ele>1385.143</ele>
        <time>2019-07-06T04:03:31Z</time>
      </trkpt>
      <trkpt lat="44.10879" lon="3.54336">
        <ele>1384.314</ele>
        <time>2019-07-06T04:03:51Z</time>
      </trkpt>
      <trkpt lat="44.10861" lon="3.54325">
        <ele>1382.779</ele>
        <time>2019-07-06T04:04:11Z</time>
      </trkpt>
      <trkpt lat="44.10844" lon="3.54323">
        <ele>1381.898</ele>
        <time>2019-07-06T04:04:31Z</time>
      </trkpt>
      <trkpt lat="44.10826" lon="3.54313">
        <ele>1380.441</ele>
        <time>2019-07-06T04:04:51Z</time>
      </trkpt>
      <trkpt lat="44.10808" lon="3.54308">
        <ele>1379.488</ele>
        <time>2019-07-06T04:05:11Z</time>
      </trkpt>
      <trkpt lat="44.10783" lon="3.54286">
        <ele>1376.542</ele>
        <time>2019-07-06T04:05:31Z</time>
      </trkpt>
      <trkpt lat="44.1073" lon="3.54255">
        <ele>1370.245</ele>
        <time>2019-07-06T04:05:51Z</time>
      </trkpt>
      <trkpt lat="44.10658" lon="3.54228">
        <ele>1363.447</ele>
        <time>2019-07-06T04:06:11Z</time>
      </trkpt>
      <trkpt lat="44.10617" lon="3.54217">
        <ele>1359.511</ele>
        <time>2019-07-06T04:06:31Z</time>
      </trkpt>
      <trkpt lat="44.10585" lon="3.54213">
        <ele>1358.408</ele>
        <time>2019-07-06T04:06:51Z</time>
      </trkpt>
      <trkpt lat="44.10521" lon="3.54198">
        <ele>1348.51</ele>
        <time>2019-07-06T04:07:11Z</time>
      </trkpt>
      <trkpt lat="44.10481" lon="3.54176">
        <ele>1338.885</ele>
        <time>2019-07-06T04:07:31Z</time>
      </trkpt>
      <trkpt lat="44.1036" lon="3.54128">
        <ele>1307.846</ele>
        <time>2019-07-06T04:07:51Z</time>
      </trkpt>
      <trkpt lat="44.10353" lon="3.54117">
        <ele>1306.551</ele>
        <time>2019-07-06T04:08:11Z</time>
      </trkpt>
      <trkpt lat="44.10337" lon="3.54115">
        <ele>1303.64</ele>
        <time>2019-07-06T04:08:31Z</time>
      </trkpt>
      <trkpt lat="44.10332" lon="3.54108">
        <ele>1303.043</ele>
        <time>2019-07-06T04:08:51Z</time>
      </trkpt>
      <trkpt lat="44.10305" lon="3.541">
        <ele>1302.55</ele>
        <time>2019-07-06T04:09:11Z</time>
      </trkpt>
      <trkpt lat="44.10291" lon="3.5408">
        <ele>1307.484</ele>
        <time>2019-07-06T04:09:31Z</time>
      </trkpt>
      <trkpt lat="44.10172" lon="3.53848">
        <ele>1326.017</ele>
        <time>2019-07-06T04:09:51Z</time>
      </trkpt>
      <trkpt lat="44.10146" lon="3.53816">
        <ele>1326.787</ele>
        <time>2019-07-06T04:10:11Z</time>
      </trkpt>
      <trkpt lat="44.10047" lon="3.53899">
        <ele>1317.415</ele>
        <time>2019-07-06T04:10:31Z</time>
      </trkpt>
      <trkpt lat="44.10034" lon="3.53979">
        <ele>1317.708</ele>
        <time>2019-07-06T04:10:51Z</time>
      </trkpt>
      <trkpt lat="44.10009" lon="3.54041">
        <ele>1321.177</ele>
        <time>2019-07-06T04:11:11Z</time>
      </trkpt>
      <trkpt lat="44.09982" lon="3.54017">
        <ele>1318.772</ele>
        <time>2019-07-06T04:11:31Z</time>
      </trkpt>
      <trkpt lat="44.09905" lon="3.53996">
        <ele>1323.813</ele>
        <time>2019-07-06T04:11:51Z</time>
      </trkpt>
      <trkpt lat="44.09798" lon="3.53995">
        <ele>1332.858</ele>
        <time>2019-07-06T04:12:11Z</time>
      </trkpt>
      <trkpt lat="44.09758" lon="3.54015">
        <ele>1333.317</ele>
        <time>2019-07-06T04:12:31Z</time>
      </trkpt>
      <trkpt lat="44.09709" lon="3.53987">
        <ele>1332.06</ele>
        <time>2019-07-06T04:12:51Z</time>
      </trkpt>
      <trkpt lat="44.09675" lon="3.53975">
        <ele>1331.927</ele>
        <time>2019-07-06T04:13:11Z</time>
      </trkpt>
      <trkpt lat="44.09607" lon="3.53967">
        <ele>1329.441</ele>
        <time>2019-07-06T04:13:31Z</time>
      </trkpt>
      <trkpt lat="44.09581" lon="3.53981">
        <ele>1326.511</ele>
        <time>2019-07-06T04:13:51Z</time>
      </trkpt>
      <trkpt lat="44.09528" lon="3.54074">
        <ele>1312.721</ele>
        <time>2019-07-06T04:14:11Z</time>
      </trkpt>
      <trkpt lat="44.09491" lon="3.54147">
        <ele>1298.303</ele>
        <time>2019-07-06T04:14:31Z</time>
      </trkpt>
      <trkpt lat="44.09453" lon="3.54199">
        <ele>1283.608</ele>
        <time>2019-07-06T04:14:51Z</time>
      </trkpt>
      <trkpt lat="44.09415" lon="3.54233">
        <ele>1273.157</ele>
        <time>2019-07-06T04:15:11Z</time>
      </trkpt>
      <trkpt lat="44.0938" lon="3.54271">
        <ele>1264.252</ele>
        <time>2019-07-06T04:15:31Z</time>
      </trkpt>
      <trkpt lat="44.09366" lon="3.54409">
        <ele>1253.473</ele>
        <time>2019-07-06T04:15:51Z</time>
      </trkpt>
      <trkpt lat="44.09353" lon="3.54467">
        <ele>1245.798</ele>
        <time>2019-07-06T04:16:11Z</time>
      </trkpt>
      <trkpt lat="44.09331" lon="3.54503">
        <ele>1242.977</ele>
        <time>2019-07-06T04:16:31Z</time>
      </trkpt>
      <trkpt lat="44.09266" lon="3.54529">
        <ele>1238.64</ele>
        <time>2019-07-06T04:16:51Z</time>
      </trkpt>
      <trkpt lat="44.0927" lon="3.54564">
        <ele>1234.917</ele>
        <time>2019-07-06T04:17:11Z</time>
      </trkpt>
      <trkpt lat="44.09258" lon="3.54625">
        <ele>1228.241</ele>
        <time>2019-07-06T04:17:31Z</time>
      </trkpt>
      <trkpt lat="44.09244" lon="3.54654">
        <ele>1226.726</ele>
        <time>2019-07-06T04:17:51Z</time>
      </trkpt>
      <trkpt lat="44.09237" lon="3.54696">
        <ele>1224.547</ele>
        <time>2019-07-06T04:18:11Z</time>
      </trkpt>
      <trkpt lat="44.0923" lon="3.54709">
        <ele>1224.111</ele>
        <time>2019-03-28T18:44:54Z</time>
      </trkpt>
      <trkpt lat="44.0923" lon="3.54709">
        <ele>1224.108</ele>
        <time>2019-03-28T18:44:54Z</time>
      </trkpt>
      <trkpt lat="44.0922" lon="3.54766">
        <ele>1225.728</ele>
        <time>2019-03-28T18:45:14Z</time>
      </trkpt>
      <trkpt lat="44.0923" lon="3.54899">
        <ele>1237.053</ele>
        <time>2019-03-28T18:45:34Z</time>
      </trkpt>
      <trkpt lat="44.09196" lon="3.54995">
        <ele>1242.174</ele>
        <time>2019-03-28T18:45:54Z</time>
      </trkpt>
      <trkpt lat="44.09125" lon="3.55097">
        <ele>1243.229</ele>
        <time>2019-03-28T18:46:14Z</time>
      </trkpt>
      <trkpt lat="44.09068" lon="3.55154">
        <ele>1240.478</ele>
        <time>2019-03-28T18:46:34Z</time>
      </trkpt>
      <trkpt lat="44.09019" lon="3.55293">
        <ele>1231.241</ele>
        <time>2019-03-28T18:46:54Z</time>
      </trkpt>
      <trkpt lat="44.08984" lon="3.55442">
        <ele>1229.518</ele>
        <time>2020-11-30T18:12:28Z</time>
      </trkpt>
      <trkpt lat="44.08957" lon="3.55403">
        <ele>1230.772</ele>
        <time>2020-11-30T18:12:48Z</time>
      </trkpt>
      <trkpt lat="44.08947" lon="3.55345">
        <ele>1232.182</ele>
        <time>2020-11-30T18:13:08Z</time>
      </trkpt>
      <trkpt lat="44.08889" lon="3.5526">
        <ele>1227.143</ele>
        <time>2020-11-30T18:13:28Z</time>
      </trkpt>
      <trkpt lat="44.08714" lon="3.55067">
        <ele>1213.317</ele>
        <time>2020-11-30T18:13:48Z</time>
      </trkpt>
      <trkpt lat="44.08625" lon="3.5493">
        <ele>1204.408</ele>
        <time>2020-11-30T18:14:08Z</time>
      </trkpt>
      <trkpt lat="44.08566" lon="3.54909">
        <ele>1202.814</ele>
        <time>2020-11-30T18:14:28Z</time>
      </trkpt>
      <trkpt lat="44.08475" lon="3.5488">
        <ele>1200.129</ele>
        <time>2020-11-30T18:14:48Z</time>
      </trkpt>
      <trkpt lat="44.08335" lon="3.54882">
        <ele>1194.12</ele>
        <time>2020-11-30T18:15:08Z</time>
      </trkpt>
      <trkpt lat="44.08207" lon="3.5494">
        <ele>1187.915</ele>
        <time>2020-11-30T18:15:28Z</time>
      </trkpt>
      <trkpt lat="44.08122" lon="3.54903">
        <ele>1179.594</ele>
        <time>2020-11-30T18:15:48Z</time>
      </trkpt>
      <trkpt lat="44.08058" lon="3.5494">
        <ele>1181.937</ele>
        <time>2020-11-30T18:16:08Z</time>
      </trkpt>
      <trkpt lat="44.07965" lon="3.54956">
        <ele>1188.514</ele>
        <time>2020-11-30T18:16:28Z</time>
      </trkpt>
      <trkpt lat="44.07832" lon="3.54938">
        <ele>1192.098</ele>
        <time>2020-11-30T18:16:48Z</time>
      </trkpt>
      <trkpt lat="44.07832" lon="3.55041">
        <ele>1193.349</ele>
        <time>2020-11-30T18:17:08Z</time>
      </trkpt>
      <trkpt lat="44.07885" lon="3.55194">
        <ele>1194.702</ele>
        <time>2020-11-30T18:17:28Z</time>
      </trkpt>
      <trkpt lat="44.07915" lon="3.55313">
        <ele>1196.522</ele>
        <time>2020-11-30T18:17:48Z</time>
      </trkpt>
      <trkpt lat="44.07906" lon="3.55368">
        <ele>1198.808</ele>
        <time>2020-11-30T18:18:08Z</time>
      </trkpt>
      <trkpt lat="44.07864" lon="3.55421">
        <ele>1199.69</ele>
        <time>2020-11-30T18:18:28Z</time>
      </trkpt>
      <trkpt lat="44.07826" lon="3.55421">
        <ele>1204.365</ele>
        <time>2020-11-30T18:18:48Z</time>
      </trkpt>
      <trkpt lat="44.07788" lon="3.55458">
        <ele>1208.646</ele>
        <time>2020-11-30T18:19:08Z</time>
      </trkpt>
      <trkpt lat="44.07784" lon="3.55514">
        <ele>1203.041</ele>
        <time>2020-11-30T18:19:28Z</time>
      </trkpt>
      <trkpt lat="44.07775" lon="3.55548">
        <ele>1203.64</ele>
        <time>2020-11-30T18:19:48Z</time>
      </trkpt>
      <trkpt lat="44.07782" lon="3.55754">
        <ele>1206.373</ele>
        <time>2020-11-30T18:20:08Z</time>
      </trkpt>
      <trkpt lat="44.07763" lon="3.55807">
        <ele>1214.89</ele>
        <time>2020-11-30T18:20:28Z</time>
      </trkpt>
      <trkpt lat="44.07794" lon="3.55852">
        <ele>1210.734</ele>
        <time>2020-11-30T18:20:48Z</time>
      </trkpt>
      <trkpt lat="44.07809" lon="3.55947">
        <ele>1212.342</ele>
        <time>2020-11-30T18:21:08Z</time>
      </trkpt>
      <trkpt lat="44.07811" lon="3.55992">
        <ele>1215.022</ele>
        <time>2020-11-30T18:21:28Z</time>
      </trkpt>
      <trkpt lat="44.07832" lon="3.56037">
        <ele>1209.214</ele>
        <time>2020-11-30T18:21:48Z</time>
      </trkpt>
      <trkpt lat="44.0782" lon="3.56089">
        <ele>1207.408</ele>
        <time>2020-11-30T18:22:08Z</time>
      </trkpt>
      <trkpt lat="44.07777" lon="3.56113">
        <ele>1211.23</ele>
        <time>2020-11-30T18:22:28Z</time>
      </trkpt>
      <trkpt lat="44.0775" lon="3.56169">
        <ele>1211.925</ele>
        <time>2020-11-30T18:22:48Z</time>
      </trkpt>
      <trkpt lat="44.07718" lon="3.5623">
        <ele>1213.676</ele>
        <time>2020-11-30T18:23:08Z</time>
      </trkpt>
      <trkpt lat="44.07714" lon="3.56269">
        <ele>1213.021</ele>
        <time>2020-11-30T18:23:28Z</time>
      </trkpt>
      <trkpt lat="44.07686" lon="3.56309">
        <ele>1215.32</ele>
        <time>2020-11-30T18:23:48Z</time>
      </trkpt>
      <trkpt lat="44.07651" lon="3.56311">
        <ele>1220.993</ele>
        <time>2020-11-30T18:24:08Z</time>
      </trkpt>
      <trkpt lat="44.07506" lon="3.56383">
        <ele>1237.37</ele>
        <time>2019-03-28T18:50:54Z</time>
      </trkpt>
      <trkpt lat="44.07286" lon="3.56519">
        <ele>1268.684</ele>
        <time>2019-03-28T18:51:14Z</time>
      </trkpt>
      <trkpt lat="44.07304" lon="3.56538">
        <ele>1267.374</ele>
        <time>2019-03-28T18:51:34Z</time>
      </trkpt>
      <trkpt lat="44.07225" lon="3.56564">
        <ele>1274.556</ele>
        <time>2019-03-28T18:51:54Z</time>
      </trkpt>
      <trkpt lat="44.07123" lon="3.5666">
        <ele>1297.121</ele>
        <time>2019-03-28T18:52:14Z</time>
      </trkpt>
      <trkpt lat="44.06989" lon="3.56655">
        <ele>1308.008</ele>
        <time>2019-03-28T18:52:34Z</time>
      </trkpt>
      <trkpt lat="44.06928" lon="3.56629">
        <ele>1308.853</ele>
        <time>2019-03-28T18:52:54Z</time>
      </trkpt>
      <trkpt lat="44.06796" lon="3.56595">
        <ele>1310.158</ele>
        <time>2019-03-28T18:53:14Z</time>
      </trkpt>
      <trkpt lat="44.06714" lon="3.56626">
        <ele>1310.289</ele>
        <time>2019-03-28T18:53:34Z</time>
      </trkpt>
      <trkpt lat="44.06625" lon="3.56691">
        <ele>1309.134</ele>
        <time>2019-03-28T18:53:54Z</time>
      </trkpt>
      <trkpt lat="44.06562" lon="3.56708">
        <ele>1308.123</ele>
        <time>2019-03-28T18:54:14Z</time>
      </trkpt>
      <trkpt lat="44.06553" lon="3.5671">
        <ele>1307.396</ele>
        <time>2017-04-01T12:55:27Z</time>
      </trkpt>
      <trkpt lat="44.0646" lon="3.56744">
        <ele>1299.593</ele>
        <time>2017-04-01T12:55:47Z</time>
      </trkpt>
      <trkpt lat="44.06398" lon="3.56736">
        <ele>1293.647</ele>
        <time>2017-04-01T12:56:07Z</time>
      </trkpt>
      <trkpt lat="44.06302" lon="3.56711">
        <ele>1289.164</ele>
        <time>2017-04-01T12:56:27Z</time>
      </trkpt>
      <trkpt lat="44.06218" lon="3.56675">
        <ele>1278.206</ele>
        <time>2017-04-01T12:56:47Z</time>
      </trkpt>
      <trkpt lat="44.06159" lon="3.56654">
        <ele>1269.416</ele>
        <time>2017-04-01T12:57:07Z</time>
      </trkpt>
      <trkpt lat="44.06125" lon="3.56633">
        <ele>1267.008</ele>
        <time>2017-04-01T12:57:27Z</time>
      </trkpt>
      <trkpt lat="44.06084" lon="3.56631">
        <ele>1265.382</ele>
        <time>2017-04-01T12:57:47Z</time>
      </trkpt>
      <trkpt lat="44.06015" lon="3.56678">
        <ele>1258.157</ele>
        <time>2017-04-01T12:58:07Z</time>
      </trkpt>
      <trkpt lat="44.05885" lon="3.56648">
        <ele>1254.068</ele>
        <time>2017-04-01T12:58:27Z</time>
      </trkpt>
      <trkpt lat="44.05852" lon="3.56676">
        <ele>1254.263</ele>
        <time>2017-04-01T12:58:47Z</time>
      </trkpt>
      <trkpt lat="44.05733" lon="3.56678">
        <ele>1264.622</ele>
        <time>2017-04-01T12:59:07Z</time>
      </trkpt>
      <trkpt lat="44.05639" lon="3.56615">
        <ele>1268.925</ele>
        <time>2017-04-01T12:59:27Z</time>
      </trkpt>
      <trkpt lat="44.05542" lon="3.56614">
        <ele>1268.982</ele>
        <time>2017-04-01T12:59:47Z</time>
      </trkpt>
      <trkpt lat="44.05487" lon="3.56565">
        <ele>1271.186</ele>
        <time>2017-04-01T13:00:07Z</time>
      </trkpt>
      <trkpt lat="44.05431" lon="3.56575">
        <ele>1271.773</ele>
        <time>2017-04-01T13:00:27Z</time>
      </trkpt>
      <trkpt lat="44.05374" lon="3.56604">
        <ele>1274.585</ele>
        <time>2017-04-01T13:00:47Z</time>
      </trkpt>
      <trkpt lat="44.052" lon="3.56594">
        <ele>1285.413</ele>
        <time>2017-04-01T13:01:07Z</time>
      </trkpt>
      <trkpt lat="44.05152" lon="3.56612">
        <ele>1287.008</ele>
        <time>2017-04-01T13:01:27Z</time>
      </trkpt>
      <trkpt lat="44.05104" lon="3.56602">
        <ele>1285.923</ele>
        <time>2017-04-01T13:01:47Z</time>
      </trkpt>
      <trkpt lat="44.0499" lon="3.56672">
        <ele>1283.198</ele>
        <time>2017-04-01T13:02:07Z</time>
      </trkpt>
      <trkpt lat="44.0495" lon="3.56708">
        <ele>1281.839</ele>
        <time>2017-04-01T13:02:27Z</time>
      </trkpt>
      <trkpt lat="44.0481" lon="3.56769">
        <ele>1292.974</ele>
        <time>2017-04-01T13:02:47Z</time>
      </trkpt>
      <trkpt lat="44.04653" lon="3.56813">
        <ele>1295.773</ele>
        <time>2017-04-01T13:03:07Z</time>
      </trkpt>
      <trkpt lat="44.04619" lon="3.56829">
        <ele>1292.636</ele>
        <time>2017-04-01T13:03:27Z</time>
      </trkpt>
      <trkpt lat="44.04561" lon="3.56828">
        <ele>1290.083</ele>
        <time>2017-04-01T13:03:47Z</time>
      </trkpt>
      <trkpt lat="44.04509" lon="3.56838">
        <ele>1285.347</ele>
        <time>2017-04-01T13:04:07Z</time>
      </trkpt>
      <trkpt lat="44.04476" lon="3.56856">
        <ele>1282.562</ele>
        <time>2017-04-01T13:04:27Z</time>
      </trkpt>
      <trkpt lat="44.04448" lon="3.56886">
        <ele>1277.183</ele>
        <time>2017-04-01T13:04:47Z</time>
      </trkpt>
      <trkpt lat="44.04398" lon="3.56945">
        <ele>1272.911</ele>
        <time>2017-04-01T13:05:07Z</time>
      </trkpt>
      <trkpt lat="44.04358" lon="3.57087">
        <ele>1252.708</ele>
        <time>2017-04-01T13:05:27Z</time>
      </trkpt>
      <trkpt lat="44.04298" lon="3.57">
        <ele>1241.792</ele>
        <time>2017-04-01T13:05:47Z</time>
      </trkpt>
      <trkpt lat="44.04298" lon="3.5705">
        <ele>1238.587</ele>
        <time>2017-04-01T13:06:07Z</time>
      </trkpt>
      <trkpt lat="44.0427" lon="3.57135">
        <ele>1222.148</ele>
        <time>2017-04-01T13:06:27Z</time>
      </trkpt>
      <trkpt lat="44.04258" lon="3.5715">
        <ele>1217.613</ele>
        <time>2017-04-01T13:06:47Z</time>
      </trkpt>
      <trkpt lat="44.04235" lon="3.57028">
        <ele>1217.582</ele>
        <time>2017-04-01T13:07:07Z</time>
      </trkpt>
      <trkpt lat="44.04216" lon="3.5701">
        <ele>1211.835</ele>
        <time>2017-04-01T13:07:27Z</time>
      </trkpt>
      <trkpt lat="44.0419" lon="3.57013">
        <ele>1204.452</ele>
        <time>2017-04-01T13:07:47Z</time>
      </trkpt>
      <trkpt lat="44.04143" lon="3.57062">
        <ele>1193.416</ele>
        <time>2017-04-01T13:08:07Z</time>
      </trkpt>
      <trkpt lat="44.04096" lon="3.57064">
        <ele>1177.194</ele>
        <time>2017-04-01T13:08:27Z</time>
      </trkpt>
      <trkpt lat="44.04074" lon="3.57027">
        <ele>1171.057</ele>
        <time>2017-04-01T13:08:47Z</time>
      </trkpt>
      <trkpt lat="44.0405" lon="3.57014">
        <ele>1163.922</ele>
        <time>2017-04-01T13:09:07Z</time>
      </trkpt>
      <trkpt lat="44.04023" lon="3.57026">
        <ele>1155.308</ele>
        <time>2017-04-01T13:09:27Z</time>
      </trkpt>
      <trkpt lat="44.03978" lon="3.57092">
        <ele>1141.735</ele>
        <time>2017-04-01T13:09:47Z</time>
      </trkpt>
      <trkpt lat="44.0395" lon="3.57089">
        <ele>1135.17</ele>
        <time>2017-04-01T13:10:07Z</time>
      </trkpt>
      <trkpt lat="44.0395" lon="3.57104">
        <ele>1134.041</ele>
        <time>2017-04-01T13:10:27Z</time>
      </trkpt>
      <trkpt lat="44.03955" lon="3.57129">
        <ele>1133.856</ele>
        <time>2017-04-01T13:10:47Z</time>
      </trkpt>
      <trkpt lat="44.0395" lon="3.57141">
        <ele>1132.055</ele>
        <time>2017-04-01T13:11:07Z</time>
      </trkpt>
      <trkpt lat="44.03924" lon="3.57105">
        <ele>1128.788</ele>
        <time>2017-04-01T13:11:27Z</time>
      </trkpt>
      <trkpt lat="44.03891" lon="3.57035">
        <ele>1121.735</ele>
        <time>2017-04-01T13:11:47Z</time>
      </trkpt>
      <trkpt lat="44.03861" lon="3.5694">
        <ele>1114.779</ele>
        <time>2017-04-01T13:12:07Z</time>
      </trkpt>
      <trkpt lat="44.03864" lon="3.56904">
        <ele>1112.353</ele>
        <time>2017-04-01T13:12:27Z</time>
      </trkpt>
      <trkpt lat="44.03883" lon="3.5686">
        <ele>1115.004</ele>
        <time>2017-04-01T13:12:47Z</time>
      </trkpt>
      <trkpt lat="44.03881" lon="3.56836">
        <ele>1111.414</ele>
        <time>2017-04-01T13:13:07Z</time>
      </trkpt>
      <trkpt lat="44.03819" lon="3.56813">
        <ele>1102.208</ele>
        <time>2017-04-01T13:13:27Z</time>
      </trkpt>
      <trkpt lat="44.03822" lon="3.56791">
        <ele>1103.221</ele>
        <time>2017-04-01T13:13:47Z</time>
      </trkpt>
      <trkpt lat="44.03793" lon="3.56801">
        <ele>1104.296</ele>
        <time>2017-04-01T13:14:07Z</time>
      </trkpt>
      <trkpt lat="44.03754" lon="3.56787">
        <ele>1109.097</ele>
        <time>2017-04-01T13:14:27Z</time>
      </trkpt>
      <trkpt lat="44.03734" lon="3.56792">
        <ele>1109.062</ele>
        <time>2017-04-01T13:14:47Z</time>
      </trkpt>
      <trkpt lat="44.03708" lon="3.56807">
        <ele>1106.831</ele>
        <time>2017-04-01T13:15:07Z</time>
      </trkpt>
      <trkpt lat="44.03661" lon="3.56786">
        <ele>1110.174</ele>
        <time>2017-04-01T13:15:27Z</time>
      </trkpt>
      <trkpt lat="44.03607" lon="3.5674">
        <ele>1109.061</ele>
        <time>2017-04-01T13:15:47Z</time>
      </trkpt>
      <trkpt lat="44.03574" lon="3.56688">
        <ele>1106.115</ele>
        <time>2017-04-01T13:16:07Z</time>
      </trkpt>
      <trkpt lat="44.03533" lon="3.56654">
        <ele>1100.542</ele>
        <time>2017-04-01T13:16:27Z</time>
      </trkpt>
      <trkpt lat="44.03484" lon="3.56623">
        <ele>1095.722</ele>
        <time>2017-04-01T13:16:47Z</time>
      </trkpt>
      <trkpt lat="44.03452" lon="3.56626">
        <ele>1098.414</ele>
        <time>2017-04-01T13:17:07Z</time>
      </trkpt>
      <trkpt lat="44.03421" lon="3.56599">
        <ele>1096.408</ele>
        <time>2017-04-01T13:17:27Z</time>
      </trkpt>
      <trkpt lat="44.03397" lon="3.56597">
        <ele>1100.13</ele>
        <time>2017-04-01T13:17:47Z</time>
      </trkpt>
      <trkpt lat="44.03352" lon="3.56568">
        <ele>1100.095</ele>
        <time>2017-04-01T13:18:07Z</time>
      </trkpt>
      <trkpt lat="44.03303" lon="3.56548">
        <ele>1103.946</ele>
        <time>2017-04-01T13:18:27Z</time>
      </trkpt>
      <trkpt lat="44.0328" lon="3.56547">
        <ele>1101.871</ele>
        <time>2017-04-01T13:18:47Z</time>
      </trkpt>
      <trkpt lat="44.03262" lon="3.56568">
        <ele>1104.81</ele>
        <time>2017-04-01T13:19:07Z</time>
      </trkpt>
      <trkpt lat="44.03245" lon="3.56579">
        <ele>1105.573</ele>
        <time>2017-04-01T13:19:27Z</time>
      </trkpt>
      <trkpt lat="44.03232" lon="3.56597">
        <ele>1109.27</ele>
        <time>2017-04-01T13:19:47Z</time>
      </trkpt>
      <trkpt lat="44.03213" lon="3.56598">
        <ele>1109.224</ele>
        <time>2017-04-01T13:20:07Z</time>
      </trkpt>
      <trkpt lat="44.03191" lon="3.56584">
        <ele>1104.316</ele>
        <time>2017-04-01T13:20:27Z</time>
      </trkpt>
      <trkpt lat="44.03124" lon="3.56555">
        <ele>1101.876</ele>
        <time>2017-04-01T13:20:47Z</time>
      </trkpt>
      <trkpt lat="44.03063" lon="3.56511">
        <ele>1098.813</ele>
        <time>2017-04-01T13:21:07Z</time>
      </trkpt>
      <trkpt lat="44.0302" lon="3.56514">
        <ele>1099.708</ele>
        <time>2017-04-01T13:21:27Z</time>
      </trkpt>
      <trkpt lat="44.02998" lon="3.56521">
        <ele>1102.077</ele>
        <time>2017-04-01T13:21:47Z</time>
      </trkpt>
      <trkpt lat="44.02977" lon="3.56519">
        <ele>1102.332</ele>
        <time>2017-04-01T13:22:07Z</time>
      </trkpt>
      <trkpt lat="44.02949" lon="3.56523">
        <ele>1102.783</ele>
        <time>2017-04-01T13:22:27Z</time>
      </trkpt>
      <trkpt lat="44.02885" lon="3.56511">
        <ele>1097.878</ele>
        <time>2017-04-01T13:22:47Z</time>
      </trkpt>
      <trkpt lat="44.02846" lon="3.56556">
        <ele>1106.197</ele>
        <time>2017-04-01T13:23:07Z</time>
      </trkpt>
      <trkpt lat="44.02834" lon="3.56578">
        <ele>1106.34</ele>
        <time>2017-04-01T13:23:27Z</time>
      </trkpt>
      <trkpt lat="44.02818" lon="3.56634">
        <ele>1109.057</ele>
        <time>2017-04-01T13:23:47Z</time>
      </trkpt>
      <trkpt lat="44.02823" lon="3.56675">
        <ele>1110.961</ele>
        <time>2017-04-01T13:24:07Z</time>
      </trkpt>
      <trkpt lat="44.02823" lon="3.56701">
        <ele>1110.572</ele>
        <time>2017-04-01T13:24:27Z</time>
      </trkpt>
      <trkpt lat="44.02829" lon="3.56782">
        <ele>1113.413</ele>
        <time>2017-04-01T13:24:47Z</time>
      </trkpt>
      <trkpt lat="44.02847" lon="3.56825">
        <ele>1114.114</ele>
        <time>2017-04-01T13:25:07Z</time>
      </trkpt>
      <trkpt lat="44.02886" lon="3.56863">
        <ele>1120.108</ele>
        <time>2017-04-01T13:25:27Z</time>
      </trkpt>
      <trkpt lat="44.02903" lon="3.56904">
        <ele>1118.513</ele>
        <time>2017-04-01T13:25:47Z</time>
      </trkpt>
      <trkpt lat="44.02918" lon="3.56927">
        <ele>1118.288</ele>
        <time>2017-04-01T13:26:07Z</time>
      </trkpt>
      <trkpt lat="44.02921" lon="3.56957">
        <ele>1117.289</ele>
        <time>2017-04-01T13:26:27Z</time>
      </trkpt>
      <trkpt lat="44.02886" lon="3.56924">
        <ele>1112.614</ele>
        <time>2017-04-01T13:26:47Z</time>
      </trkpt>
      <trkpt lat="44.02855" lon="3.5691">
        <ele>1107.143</ele>
        <time>2017-04-01T13:27:07Z</time>
      </trkpt>
      <trkpt lat="44.02829" lon="3.56928">
        <ele>1098.636</ele>
        <time>2017-04-01T13:27:27Z</time>
      </trkpt>
      <trkpt lat="44.02812" lon="3.56987">
        <ele>1089.373</ele>
        <time>2017-04-01T13:27:47Z</time>
      </trkpt>
      <trkpt lat="44.02788" lon="3.57023">
        <ele>1079.537</ele>
        <time>2017-04-01T13:28:07Z</time>
      </trkpt>
      <trkpt lat="44.02746" lon="3.57058">
        <ele>1067.792</ele>
        <time>2017-04-01T13:28:27Z</time>
      </trkpt>
      <trkpt lat="44.02723" lon="3.57082">
        <ele>1061.373</ele>
        <time>2017-04-01T13:28:47Z</time>
      </trkpt>
      <trkpt lat="44.02713" lon="3.57138">
        <ele>1060.22</ele>
        <time>2017-04-01T13:29:07Z</time>
      </trkpt>
      <trkpt lat="44.02695" lon="3.57223">
        <ele>1054.208</ele>
        <time>2017-04-01T13:29:27Z</time>
      </trkpt>
      <trkpt lat="44.02683" lon="3.57268">
        <ele>1045.315</ele>
        <time>2017-04-01T13:29:47Z</time>
      </trkpt>
      <trkpt lat="44.0266" lon="3.57294">
        <ele>1036.99</ele>
        <time>2020-11-30T19:02:48Z</time>
      </trkpt>
      <trkpt lat="44.02647" lon="3.57272">
        <ele>1035.091</ele>
        <time>2020-11-30T19:03:08Z</time>
      </trkpt>
      <trkpt lat="44.02644" lon="3.57245">
        <ele>1034.776</ele>
        <time>2020-11-30T19:03:28Z</time>
      </trkpt>
      <trkpt lat="44.02614" lon="3.57172">
        <ele>1029.445</ele>
        <time>2020-11-30T19:03:48Z</time>
      </trkpt>
      <trkpt lat="44.02592" lon="3.5716">
        <ele>1023.398</ele>
        <time>2020-11-30T19:04:08Z</time>
      </trkpt>
      <trkpt lat="44.02583" lon="3.57133">
        <ele>1017.015</ele>
        <time>2020-11-30T19:04:28Z</time>
      </trkpt>
      <trkpt lat="44.02591" lon="3.57103">
        <ele>1014.419</ele>
        <time>2020-11-30T19:04:48Z</time>
      </trkpt>
      <trkpt lat="44.02589" lon="3.57046">
        <ele>1009.963</ele>
        <time>2020-11-30T19:05:08Z</time>
      </trkpt>
      <trkpt lat="44.0256" lon="3.57045">
        <ele>1004.744</ele>
        <time>2020-11-30T19:05:28Z</time>
      </trkpt>
      <trkpt lat="44.02543" lon="3.57079">
        <ele>1006.118</ele>
        <time>2020-11-30T19:05:48Z</time>
      </trkpt>
      <trkpt lat="44.02477" lon="3.57055">
        <ele>993.208</ele>
        <time>2020-11-30T19:06:08Z</time>
      </trkpt>
      <trkpt lat="44.02443" lon="3.57056">
        <ele>987.852</ele>
        <time>2020-11-30T19:06:28Z</time>
      </trkpt>
      <trkpt lat="44.02404" lon="3.57081">
        <ele>984.497</ele>
        <time>2020-11-30T19:06:48Z</time>
      </trkpt>
      <trkpt lat="44.02326" lon="3.5711">
        <ele>971.758</ele>
        <time>2020-11-30T19:07:08Z</time>
      </trkpt>
      <trkpt lat="44.02287" lon="3.57144">
        <ele>963.043</ele>
        <time>2020-11-30T19:07:28Z</time>
      </trkpt>
      <trkpt lat="44.02189" lon="3.573">
        <ele>926.072</ele>
        <time>2020-11-30T19:07:48Z</time>
      </trkpt>
      <trkpt lat="44.02168" lon="3.5729">
        <ele>920.485</ele>
        <time>2020-11-30T19:08:08Z</time>
      </trkpt>
      <trkpt lat="44.02148" lon="3.57301">
        <ele>916.612</ele>
        <time>2017-04-01T13:37:07Z</time>
      </trkpt>
      <trkpt lat="44.02138" lon="3.57296">
        <ele>914.466</ele>
        <time>2017-04-01T13:37:27Z</time>
      </trkpt>
      <trkpt lat="44.0213" lon="3.57318">
        <ele>913.168</ele>
        <time>2017-04-01T13:37:47Z</time>
      </trkpt>
      <trkpt lat="44.02112" lon="3.57359">
        <ele>909.142</ele>
        <time>2017-04-01T13:38:07Z</time>
      </trkpt>
      <trkpt lat="44.0211" lon="3.57392">
        <ele>906.726</ele>
        <time>2017-04-01T13:38:27Z</time>
      </trkpt>
      <trkpt lat="44.02131" lon="3.5744">
        <ele>905.508</ele>
        <time>2017-04-01T13:38:47Z</time>
      </trkpt>
      <trkpt lat="44.02156" lon="3.5747">
        <ele>902.352</ele>
        <time>2017-04-01T13:39:07Z</time>
      </trkpt>
      <trkpt lat="44.02142" lon="3.57472">
        <ele>901.227</ele>
        <time>2017-04-01T13:39:27Z</time>
      </trkpt>
      <trkpt lat="44.021" lon="3.57426">
        <ele>902.698</ele>
        <time>2017-04-01T13:39:47Z</time>
      </trkpt>
      <trkpt lat="44.02089" lon="3.57405">
        <ele>902.733</ele>
        <time>2017-04-01T13:40:07Z</time>
      </trkpt>
      <trkpt lat="44.02066" lon="3.57375">
        <ele>897.122</ele>
        <time>2017-04-01T13:40:27Z</time>
      </trkpt>
      <trkpt lat="44.02073" lon="3.57426">
        <ele>896.315</ele>
        <time>2017-04-01T13:40:47Z</time>
      </trkpt>
      <trkpt lat="44.02074" lon="3.57448">
        <ele>893.262</ele>
        <time>2017-04-01T13:41:07Z</time>
      </trkpt>
      <trkpt lat="44.02057" lon="3.57436">
        <ele>888.486</ele>
        <time>2017-04-01T13:41:27Z</time>
      </trkpt>
      <trkpt lat="44.02029" lon="3.57386">
        <ele>880.069</ele>
        <time>2017-04-01T13:41:47Z</time>
      </trkpt>
      <trkpt lat="44.01982" lon="3.57232">
        <ele>865.104</ele>
        <time>2017-04-01T13:42:07Z</time>
      </trkpt>
      <trkpt lat="44.01967" lon="3.57275">
        <ele>860.424</ele>
        <time>2017-04-01T13:42:27Z</time>
      </trkpt>
      <trkpt lat="44.01949" lon="3.57288">
        <ele>856.408</ele>
        <time>2017-04-01T13:42:47Z</time>
      </trkpt>
      <trkpt lat="44.01932" lon="3.57326">
        <ele>856.792</ele>
        <time>2017-04-01T13:43:07Z</time>
      </trkpt>
      <trkpt lat="44.0193" lon="3.57377">
        <ele>851.967</ele>
        <time>2017-04-01T13:43:27Z</time>
      </trkpt>
      <trkpt lat="44.01901" lon="3.57447">
        <ele>842.898</ele>
        <time>2017-04-01T13:43:47Z</time>
      </trkpt>
      <trkpt lat="44.01878" lon="3.57473">
        <ele>839.233</ele>
        <time>2017-04-01T13:44:07Z</time>
      </trkpt>
      <trkpt lat="44.01851" lon="3.57525">
        <ele>838.022</ele>
        <time>2017-04-01T13:44:27Z</time>
      </trkpt>
      <trkpt lat="44.01839" lon="3.57597">
        <ele>825.225</ele>
        <time>2017-04-01T13:44:47Z</time>
      </trkpt>
      <trkpt lat="44.01808" lon="3.57682">
        <ele>812.812</ele>
        <time>2017-04-01T13:45:07Z</time>
      </trkpt>
      <trkpt lat="44.01778" lon="3.57734">
        <ele>806.926</ele>
        <time>2017-04-01T13:45:27Z</time>
      </trkpt>
      <trkpt lat="44.01729" lon="3.57772">
        <ele>803.917</ele>
        <time>2017-04-01T13:45:47Z</time>
      </trkpt>
      <trkpt lat="44.01695" lon="3.57774">
        <ele>797.687</ele>
        <time>2017-04-01T13:46:07Z</time>
      </trkpt>
      <trkpt lat="44.01673" lon="3.57759">
        <ele>794.515</ele>
        <time>2017-04-01T13:46:27Z</time>
      </trkpt>
      <trkpt lat="44.01636" lon="3.57742">
        <ele>789.308</ele>
        <time>2017-04-01T13:46:47Z</time>
      </trkpt>
      <trkpt lat="44.01604" lon="3.57689">
        <ele>784.847</ele>
        <time>2017-04-01T13:47:07Z</time>
      </trkpt>
      <trkpt lat="44.01587" lon="3.57678">
        <ele>779.722</ele>
        <time>2017-04-01T13:47:27Z</time>
      </trkpt>
      <trkpt lat="44.01588" lon="3.57703">
        <ele>779.833</ele>
        <time>2017-04-01T13:47:47Z</time>
      </trkpt>
      <trkpt lat="44.01561" lon="3.5774">
        <ele>773.498</ele>
        <time>2017-04-01T13:48:07Z</time>
      </trkpt>
      <trkpt lat="44.01554" lon="3.57736">
        <ele>770.987</ele>
        <time>2017-04-01T13:48:27Z</time>
      </trkpt>
      <trkpt lat="44.01545" lon="3.57695">
        <ele>765.75</ele>
        <time>2017-04-01T13:48:47Z</time>
      </trkpt>
      <trkpt lat="44.01522" lon="3.5767">
        <ele>761.997</ele>
        <time>2017-04-01T13:49:07Z</time>
      </trkpt>
      <trkpt lat="44.01493" lon="3.57658">
        <ele>755.411</ele>
        <time>2017-04-01T13:49:27Z</time>
      </trkpt>
      <trkpt lat="44.01468" lon="3.57633">
        <ele>750.423</ele>
        <time>2017-04-01T13:49:47Z</time>
      </trkpt>
      <trkpt lat="44.01461" lon="3.57603">
        <ele>746.883</ele>
        <time>2017-04-01T13:50:07Z</time>
      </trkpt>
      <trkpt lat="44.01463" lon="3.57549">
        <ele>746.711</ele>
        <time>2017-04-01T13:50:27Z</time>
      </trkpt>
      <trkpt lat="44.01459" lon="3.57544">
        <ele>745.508</ele>
        <time>2017-04-01T13:50:47Z</time>
      </trkpt>
      <trkpt lat="44.01454" lon="3.57494">
        <ele>742.758</ele>
        <time>2017-04-01T13:51:07Z</time>
      </trkpt>
      <trkpt lat="44.01425" lon="3.5756">
        <ele>738.953</ele>
        <time>2017-04-01T13:51:27Z</time>
      </trkpt>
      <trkpt lat="44.01395" lon="3.57561">
        <ele>735.684</ele>
        <time>2017-04-01T13:51:47Z</time>
      </trkpt>
      <trkpt lat="44.01367" lon="3.57566">
        <ele>732.049</ele>
        <time>2017-04-01T13:52:07Z</time>
      </trkpt>
      <trkpt lat="44.01352" lon="3.57581">
        <ele>728.468</ele>
        <time>2017-04-01T13:52:27Z</time>
      </trkpt>
      <trkpt lat="44.01319" lon="3.57577">
        <ele>722.841</ele>
        <time>2017-04-01T13:52:47Z</time>
      </trkpt>
      <trkpt lat="44.0128" lon="3.57566">
        <ele>719.488</ele>
        <time>2017-04-01T13:53:07Z</time>
      </trkpt>
      <trkpt lat="44.01275" lon="3.57572">
        <ele>717.952</ele>
        <time>2017-04-01T13:53:27Z</time>
      </trkpt>
      <trkpt lat="44.01323" lon="3.57636">
        <ele>711.193</ele>
        <time>2017-04-01T13:53:47Z</time>
      </trkpt>
      <trkpt lat="44.01308" lon="3.57639">
        <ele>706.665</ele>
        <time>2017-04-01T13:54:07Z</time>
      </trkpt>
      <trkpt lat="44.01256" lon="3.57621">
        <ele>705.621</ele>
        <time>2017-04-01T13:54:27Z</time>
      </trkpt>
      <trkpt lat="44.01238" lon="3.57619">
        <ele>704.308</ele>
        <time>2017-04-01T13:54:47Z</time>
      </trkpt>
      <trkpt lat="44.01237" lon="3.57626">
        <ele>702.015</ele>
        <time>2017-04-01T13:55:07Z</time>
      </trkpt>
      <trkpt lat="44.01256" lon="3.57637">
        <ele>701.11</ele>
        <time>2017-04-01T13:55:27Z</time>
      </trkpt>
      <trkpt lat="44.01275" lon="3.5767">
        <ele>693.341</ele>
        <time>2017-04-01T13:55:47Z</time>
      </trkpt>
      <trkpt lat="44.01221" lon="3.57666">
        <ele>683.536</ele>
        <time>2017-04-01T13:56:07Z</time>
      </trkpt>
      <trkpt lat="44.0111" lon="3.57687">
        <ele>665.375</ele>
        <time>2017-04-01T13:56:27Z</time>
      </trkpt>
      <trkpt lat="44.0108" lon="3.57679">
        <ele>662.258</ele>
        <time>2017-04-01T13:56:47Z</time>
      </trkpt>
      <trkpt lat="44.01049" lon="3.57662">
        <ele>660.385</ele>
        <time>2017-04-01T13:57:07Z</time>
      </trkpt>
      <trkpt lat="44.01015" lon="3.57614">
        <ele>659.999</ele>
        <time>2017-04-01T13:57:27Z</time>
      </trkpt>
      <trkpt lat="44.00988" lon="3.57564">
        <ele>659.472</ele>
        <time>2017-04-01T13:57:47Z</time>
      </trkpt>
      <trkpt lat="44.00964" lon="3.57547">
        <ele>654.013</ele>
        <time>2017-04-01T13:58:07Z</time>
      </trkpt>
      <trkpt lat="44.00915" lon="3.5753">
        <ele>640.714</ele>
        <time>2017-04-01T13:58:27Z</time>
      </trkpt>
      <trkpt lat="44.00871" lon="3.57504">
        <ele>640.008</ele>
        <time>2017-04-01T13:58:47Z</time>
      </trkpt>
      <trkpt lat="44.00849" lon="3.57504">
        <ele>634.223</ele>
        <time>2017-04-01T13:59:07Z</time>
      </trkpt>
      <trkpt lat="44.00824" lon="3.57493">
        <ele>629.028</ele>
        <time>2017-04-01T13:59:27Z</time>
      </trkpt>
      <trkpt lat="44.00754" lon="3.57488">
        <ele>613.249</ele>
        <time>2017-04-01T13:59:47Z</time>
      </trkpt>
      <trkpt lat="44.00678" lon="3.57511">
        <ele>594.824</ele>
        <time>2017-04-01T14:00:07Z</time>
      </trkpt>
      <trkpt lat="44.00653" lon="3.5757">
        <ele>583.773</ele>
        <time>2017-04-01T14:00:27Z</time>
      </trkpt>
      <trkpt lat="44.00642" lon="3.57587">
        <ele>580.186</ele>
        <time>2017-04-01T14:00:47Z</time>
      </trkpt>
      <trkpt lat="44.0064" lon="3.57614">
        <ele>573.433</ele>
        <time>2017-04-01T14:01:07Z</time>
      </trkpt>
      <trkpt lat="44.00618" lon="3.57624">
        <ele>568.697</ele>
        <time>2017-04-01T14:01:27Z</time>
      </trkpt>
      <trkpt lat="44.00606" lon="3.57618">
        <ele>567.362</ele>
        <time>2017-04-01T14:01:47Z</time>
      </trkpt>
      <trkpt lat="44.00583" lon="3.57587">
        <ele>562.983</ele>
        <time>2017-04-01T14:02:07Z</time>
      </trkpt>
      <trkpt lat="44.00564" lon="3.57597">
        <ele>559.011</ele>
        <time>2017-04-01T14:02:27Z</time>
      </trkpt>
      <trkpt lat="44.00541" lon="3.57598">
        <ele>555.608</ele>
        <time>2017-04-01T14:02:47Z</time>
      </trkpt>
      <trkpt lat="44.00537" lon="3.5761">
        <ele>555.082</ele>
        <time>2017-04-01T14:04:07Z</time>
      </trkpt>
      <trkpt lat="44.00564" lon="3.57656">
        <ele>553.647</ele>
        <time>2017-04-01T14:04:27Z</time>
      </trkpt>
      <trkpt lat="44.00565" lon="3.57681">
        <ele>551.828</ele>
        <time>2017-04-01T14:04:47Z</time>
      </trkpt>
      <trkpt lat="44.00552" lon="3.57702">
        <ele>546.323</ele>
        <time>2017-04-01T14:05:07Z</time>
      </trkpt>
      <trkpt lat="44.00534" lon="3.5768">
        <ele>540.992</ele>
        <time>2017-04-01T14:05:27Z</time>
      </trkpt>
      <trkpt lat="44.00496" lon="3.57677">
        <ele>531.565</ele>
        <time>2017-04-01T14:05:47Z</time>
      </trkpt>
      <trkpt lat="44.00458" lon="3.57658">
        <ele>526.262</ele>
        <time>2017-04-01T14:06:07Z</time>
      </trkpt>
      <trkpt lat="44.00409" lon="3.57605">
        <ele>519.336</ele>
        <time>2017-04-01T14:06:27Z</time>
      </trkpt>
      <trkpt lat="44.00338" lon="3.57536">
        <ele>505.616</ele>
        <time>2017-04-01T14:06:47Z</time>
      </trkpt>
      <trkpt lat="44.00306" lon="3.57552">
        <ele>505.976</ele>
        <time>2017-04-01T14:07:07Z</time>
      </trkpt>
      <trkpt lat="44.0032" lon="3.57571">
        <ele>504.713</ele>
        <time>2017-04-01T14:07:27Z</time>
      </trkpt>
      <trkpt lat="44.00325" lon="3.57609">
        <ele>501.508</ele>
        <time>2017-04-01T14:07:47Z</time>
      </trkpt>
      <trkpt lat="44.00369" lon="3.57738">
        <ele>476.667</ele>
        <time>2017-04-01T14:08:07Z</time>
      </trkpt>
      <trkpt lat="44.00393" lon="3.57853">
        <ele>456.882</ele>
        <time>2017-04-01T14:08:27Z</time>
      </trkpt>
      <trkpt lat="44.00415" lon="3.57866">
        <ele>461.093</ele>
        <time>2017-04-01T14:08:47Z</time>
      </trkpt>
      <trkpt lat="44.00418" lon="3.57897">
        <ele>458.748</ele>
        <time>2017-04-01T14:09:07Z</time>
      </trkpt>
      <trkpt lat="44.00407" lon="3.57946">
        <ele>448.747</ele>
        <time>2017-04-01T14:09:27Z</time>
      </trkpt>
      <trkpt lat="44.00404" lon="3.5802">
        <ele>438.35</ele>
        <time>2017-04-01T14:09:47Z</time>
      </trkpt>
      <trkpt lat="44.00417" lon="3.58106">
        <ele>435.447</ele>
        <time>2017-04-01T14:10:07Z</time>
      </trkpt>
      <trkpt lat="44.00419" lon="3.5817">
        <ele>431.851</ele>
        <time>2017-04-01T14:10:27Z</time>
      </trkpt>
      <trkpt lat="44.00401" lon="3.58224">
        <ele>425.492</ele>
        <time>2017-04-01T14:10:47Z</time>
      </trkpt>
      <trkpt lat="44.00357" lon="3.5829">
        <ele>410.573</ele>
        <time>2017-04-01T14:11:07Z</time>
      </trkpt>
      <trkpt lat="44.00338" lon="3.58335">
        <ele>402.62</ele>
        <time>2017-04-01T14:11:27Z</time>
      </trkpt>
      <trkpt lat="44.00311" lon="3.58366">
        <ele>398.708</ele>
        <time>2017-04-01T14:11:47Z</time>
      </trkpt>
      <trkpt lat="44.00278" lon="3.58366">
        <ele>392.015</ele>
        <time>2017-04-01T14:12:07Z</time>
      </trkpt>
      <trkpt lat="44.00229" lon="3.584">
        <ele>376.38</ele>
        <time>2017-04-01T14:12:27Z</time>
      </trkpt>
      <trkpt lat="44.00201" lon="3.58432">
        <ele>369.521</ele>
        <time>2017-04-01T14:12:47Z</time>
      </trkpt>
      <trkpt lat="44.00144" lon="3.58441">
        <ele>357.876</ele>
        <time>2017-04-01T14:13:07Z</time>
      </trkpt>
      <trkpt lat="44.00139" lon="3.58461">
        <ele>355.215</ele>
        <time>2017-04-01T14:13:27Z</time>
      </trkpt>
      <trkpt lat="44.0011" lon="3.58487">
        <ele>348.898</ele>
        <time>2017-04-01T14:13:47Z</time>
      </trkpt>
      <trkpt lat="44.00092" lon="3.58526">
        <ele>343.485</ele>
        <time>2017-04-01T14:14:27Z</time>
      </trkpt>
      <trkpt lat="44.00076" lon="3.58531">
        <ele>341.569</ele>
        <time>2017-04-01T14:14:47Z</time>
      </trkpt>
      <trkpt lat="44.00049" lon="3.58574">
        <ele>340.525</ele>
        <time>2017-04-01T14:15:07Z</time>
      </trkpt>
      <trkpt lat="44.00119" lon="3.58641">
        <ele>341.826</ele>
        <time>2017-04-01T14:15:27Z</time>
      </trkpt>
      <trkpt lat="44.00127" lon="3.58668">
        <ele>342.508</ele>
        <time>2017-04-01T14:15:47Z</time>
      </trkpt>
      <trkpt lat="44.00116" lon="3.58682">
        <ele>343.908</ele>
        <time>2017-04-01T14:16:07Z</time>
      </trkpt>
      <trkpt lat="44.00097" lon="3.58747">
        <ele>339.818</ele>
        <time>2017-04-01T14:16:27Z</time>
      </trkpt>
      <trkpt lat="44.00105" lon="3.58767">
        <ele>338.143</ele>
        <time>2017-04-01T14:16:47Z</time>
      </trkpt>
      <trkpt lat="44.0009" lon="3.58835">
        <ele>343.444</ele>
        <time>2017-04-01T14:17:07Z</time>
      </trkpt>
      <trkpt lat="44.00058" lon="3.58817">
        <ele>342.719</ele>
        <time>2017-04-01T14:17:27Z</time>
      </trkpt>
      <trkpt lat="44.00014" lon="3.58846">
        <ele>352.998</ele>
        <time>2017-04-01T14:17:47Z</time>
      </trkpt>
      <trkpt lat="43.99936" lon="3.58842">
        <ele>347.631</ele>
        <time>2017-04-01T14:18:07Z</time>
      </trkpt>
      <trkpt lat="43.999" lon="3.58851">
        <ele>351.588</ele>
        <time>2017-04-01T14:18:27Z</time>
      </trkpt>
      <trkpt lat="43.99793" lon="3.58931">
        <ele>363.312</ele>
        <time>2017-04-01T14:18:47Z</time>
      </trkpt>
      <trkpt lat="43.99746" lon="3.5901">
        <ele>375.224</ele>
        <time>2017-04-01T14:19:07Z</time>
      </trkpt>
      <trkpt lat="43.99687" lon="3.59015">
        <ele>373.604</ele>
        <time>2017-04-01T14:19:27Z</time>
      </trkpt>
      <trkpt lat="43.99533" lon="3.59081">
        <ele>380.014</ele>
        <time>2017-04-01T14:19:47Z</time>
      </trkpt>
      <trkpt lat="43.99394" lon="3.59122">
        <ele>379.508</ele>
        <time>2017-04-01T14:20:07Z</time>
      </trkpt>
      <trkpt lat="43.99368" lon="3.5914">
        <ele>382.868</ele>
        <time>2017-04-01T14:20:27Z</time>
      </trkpt>
      <trkpt lat="43.99302" lon="3.59164">
        <ele>390.033</ele>
        <time>2017-04-01T14:20:47Z</time>
      </trkpt>
      <trkpt lat="43.99238" lon="3.59181">
        <ele>396.624</ele>
        <time>2017-04-01T14:21:07Z</time>
      </trkpt>
      <trkpt lat="43.99207" lon="3.59167">
        <ele>393.759</ele>
        <time>2017-04-01T14:21:27Z</time>
      </trkpt>
      <trkpt lat="43.99061" lon="3.59213">
        <ele>399.078</ele>
        <time>2017-04-01T14:21:47Z</time>
      </trkpt>
      <trkpt lat="43.99044" lon="3.59232">
        <ele>398.111</ele>
        <time>2017-04-01T14:22:07Z</time>
      </trkpt>
      <trkpt lat="43.98977" lon="3.59187">
        <ele>381.418</ele>
        <time>2017-04-01T14:22:27Z</time>
      </trkpt>
      <trkpt lat="43.98961" lon="3.59195">
        <ele>380.642</ele>
        <time>2017-04-01T14:23:07Z</time>
      </trkpt>
      <trkpt lat="43.98943" lon="3.5922">
        <ele>375.927</ele>
        <time>2017-04-01T14:23:27Z</time>
      </trkpt>
      <trkpt lat="43.98872" lon="3.59215">
        <ele>362.868</ele>
        <time>2019-03-28T20:22:34Z</time>
      </trkpt>
      <trkpt lat="43.98803" lon="3.59226">
        <ele>351.314</ele>
        <time>2019-03-28T20:22:54Z</time>
      </trkpt>
      <trkpt lat="43.98778" lon="3.5924">
        <ele>348.908</ele>
        <time>2019-03-28T20:23:14Z</time>
      </trkpt>
      <trkpt lat="43.98726" lon="3.59278">
        <ele>343.978</ele>
        <time>2019-03-28T20:23:34Z</time>
      </trkpt>
      <trkpt lat="43.98734" lon="3.59308">
        <ele>338.363</ele>
        <time>2019-03-28T20:23:54Z</time>
      </trkpt>
      <trkpt lat="43.98756" lon="3.59276">
        <ele>342.554</ele>
        <time>2019-03-28T20:24:14Z</time>
      </trkpt>
      <trkpt lat="43.98789" lon="3.5925">
        <ele>345.729</ele>
        <time>2017-04-01T14:27:27Z</time>
      </trkpt>
      <trkpt lat="43.9882" lon="3.5926">
        <ele>343.448</ele>
        <time>2017-04-01T14:27:47Z</time>
      </trkpt>
      <trkpt lat="43.98872" lon="3.59322">
        <ele>340.741</ele>
        <time>2017-04-01T14:28:07Z</time>
      </trkpt>
      <trkpt lat="43.98877" lon="3.59415">
        <ele>331.628</ele>
        <time>2017-04-01T14:28:27Z</time>
      </trkpt>
      <trkpt lat="43.9886" lon="3.59433">
        <ele>321.582</ele>
        <time>2017-04-01T14:28:47Z</time>
      </trkpt>
      <trkpt lat="43.98858" lon="3.59486">
        <ele>308.318</ele>
        <time>2017-04-01T14:29:07Z</time>
      </trkpt>
      <trkpt lat="43.98884" lon="3.59556">
        <ele>299.598</ele>
        <time>2017-04-01T14:29:27Z</time>
      </trkpt>
      <trkpt lat="43.98841" lon="3.59733">
        <ele>271.017</ele>
        <time>2017-04-01T14:29:47Z</time>
      </trkpt>
      <trkpt lat="43.98825" lon="3.59771">
        <ele>265.808</ele>
        <time>2017-04-01T14:30:07Z</time>
      </trkpt>
      <trkpt lat="43.98808" lon="3.59905">
        <ele>260.217</ele>
        <time>2017-04-01T14:30:27Z</time>
      </trkpt>
      <trkpt lat="43.98863" lon="3.59942">
        <ele>254.242</ele>
        <time>2017-04-01T14:30:47Z</time>
      </trkpt>
      <trkpt lat="43.98925" lon="3.60006">
        <ele>254.773</ele>
        <time>2017-04-01T14:31:07Z</time>
      </trkpt>
      <trkpt lat="43.98996" lon="3.60043">
        <ele>251.238</ele>
        <time>2017-04-01T14:31:27Z</time>
      </trkpt>
      <trkpt lat="43.99041" lon="3.60118">
        <ele>247.897</ele>
        <time>2017-04-01T14:31:47Z</time>
      </trkpt>
      <trkpt lat="43.98945" lon="3.60303">
        <ele>239.16</ele>
        <time>2017-04-01T14:32:07Z</time>
      </trkpt>
      <trkpt lat="43.98891" lon="3.60399">
        <ele>233.757</ele>
        <time>2017-04-01T14:32:27Z</time>
      </trkpt>
      <trkpt lat="43.98882" lon="3.60398">
        <ele>233.731</ele>
        <time>2017-04-01T14:32:47Z</time>
      </trkpt>
      <trkpt lat="43.98854" lon="3.60602">
        <ele>229.034</ele>
        <time>2017-04-01T14:33:07Z</time>
      </trkpt>
      <trkpt lat="43.98832" lon="3.60652">
        <ele>229.055</ele>
        <time>2017-04-01T14:33:27Z</time>
      </trkpt>
      <trkpt lat="43.98775" lon="3.60638">
        <ele>229.01</ele>
        <time>2017-04-01T14:33:47Z</time>
      </trkpt>
      <trkpt lat="43.98726" lon="3.60647">
        <ele>229.008</ele>
        <time>2017-04-01T14:34:07Z</time>
      </trkpt>
      <trkpt lat="43.98696" lon="3.6067">
        <ele>228.989</ele>
        <time>2017-04-01T14:34:27Z</time>
      </trkpt>
      <trkpt lat="43.9864" lon="3.60688">
        <ele>228.224</ele>
        <time>2017-04-01T14:34:47Z</time>
      </trkpt>
      <trkpt lat="43.98598" lon="3.60687">
        <ele>228.385</ele>
        <time>2017-04-01T14:35:07Z</time>
      </trkpt>
      <trkpt lat="43.9844" lon="3.60647">
        <ele>229.01</ele>
        <time>2017-04-01T14:35:27Z</time>
      </trkpt>
      <trkpt lat="43.98385" lon="3.60613">
        <ele>229.059</ele>
        <time>2017-04-01T14:35:47Z</time>
      </trkpt>
      <trkpt lat="43.98288" lon="3.60522">
        <ele>230.052</ele>
        <time>2017-04-01T14:36:07Z</time>
      </trkpt>
      <trkpt lat="43.98198" lon="3.60429">
        <ele>230.069</ele>
        <time>2017-04-01T14:36:27Z</time>
      </trkpt>
      <trkpt lat="43.98169" lon="3.60411">
        <ele>230.063</ele>
        <time>2017-04-01T14:36:47Z</time>
      </trkpt>
      <trkpt lat="43.98139" lon="3.60364">
        <ele>230.091</ele>
        <time>2017-04-01T14:37:07Z</time>
      </trkpt>
      <trkpt lat="43.98103" lon="3.60351">
        <ele>230.081</ele>
        <time>2017-04-01T14:37:27Z</time>
      </trkpt>
      <trkpt lat="43.98018" lon="3.60193">
        <ele>230.019</ele>
        <time>2017-04-01T14:37:47Z</time>
      </trkpt>
      <trkpt lat="43.98008" lon="3.60151">
        <ele>230.208</ele>
        <time>2017-04-01T14:38:07Z</time>
      </trkpt>
      <trkpt lat="43.97911" lon="3.60062">
        <ele>230.015</ele>
        <time>2017-04-01T14:38:27Z</time>
      </trkpt>
      <trkpt lat="43.9789" lon="3.60057">
        <ele>230.06</ele>
        <time>2017-04-01T14:38:47Z</time>
      </trkpt>
      <trkpt lat="43.97781" lon="3.59964">
        <ele>230.041</ele>
        <time>2017-04-01T14:39:07Z</time>
      </trkpt>
      <trkpt lat="43.97759" lon="3.59919">
        <ele>230.366</ele>
        <time>2017-04-01T14:39:27Z</time>
      </trkpt>
      <trkpt lat="43.97704" lon="3.59898">
        <ele>230.025</ele>
        <time>2017-04-01T14:39:47Z</time>
      </trkpt>
      <trkpt lat="43.97655" lon="3.59866">
        <ele>230.048</ele>
        <time>2017-04-01T14:40:07Z</time>
      </trkpt>
      <trkpt lat="43.97542" lon="3.59889">
        <ele>230.595</ele>
        <time>2017-04-01T14:40:27Z</time>
      </trkpt>
      <trkpt lat="43.97558" lon="3.59949">
        <ele>230.719</ele>
        <time>2017-04-01T14:40:47Z</time>
      </trkpt>
      <trkpt lat="43.97454" lon="3.60026">
        <ele>240.829</ele>
        <time>2017-04-01T14:41:07Z</time>
      </trkpt>
      <trkpt lat="43.97386" lon="3.60029">
        <ele>240.4</ele>
        <time>2017-04-01T14:41:27Z</time>
      </trkpt>
      <trkpt lat="43.97267" lon="3.59999">
        <ele>251.22</ele>
        <time>2017-04-01T14:41:47Z</time>
      </trkpt>
      <trkpt lat="43.97205" lon="3.60021">
        <ele>252.308</ele>
        <time>2017-04-01T14:42:07Z</time>
      </trkpt>
      <trkpt lat="43.97144" lon="3.60021">
        <ele>249.058</ele>
        <time>2017-04-01T14:42:27Z</time>
      </trkpt>
      <trkpt lat="43.97085" lon="3.60077">
        <ele>248.933</ele>
        <time>2017-04-01T14:42:47Z</time>
      </trkpt>
      <trkpt lat="43.96949" lon="3.60123">
        <ele>248.774</ele>
        <time>2017-04-01T14:43:07Z</time>
      </trkpt>
      <trkpt lat="43.96904" lon="3.60166">
        <ele>249.079</ele>
        <time>2017-04-01T14:43:27Z</time>
      </trkpt>
      <trkpt lat="43.96812" lon="3.60212">
        <ele>249.018</ele>
        <time>2017-04-01T14:43:47Z</time>
      </trkpt>
      <trkpt lat="43.96778" lon="3.6022">
        <ele>249.061</ele>
        <time>2017-04-01T14:44:07Z</time>
      </trkpt>
      <trkpt lat="43.96755" lon="3.60165">
        <ele>249.278</ele>
        <time>2017-04-01T14:44:27Z</time>
      </trkpt>
      <trkpt lat="43.96692" lon="3.60197">
        <ele>249.112</ele>
        <time>2017-04-01T14:44:47Z</time>
      </trkpt>
      <trkpt lat="43.96687" lon="3.60187">
        <ele>250.292</ele>
        <time>2017-04-01T14:45:07Z</time>
      </trkpt>
      <trkpt lat="43.9669" lon="3.60166">
        <ele>252.673</ele>
        <time>2017-04-01T14:45:27Z</time>
      </trkpt>
      <trkpt lat="43.96677" lon="3.60157">
        <ele>256.32</ele>
        <time>2017-04-01T14:45:47Z</time>
      </trkpt>
      <trkpt lat="43.96659" lon="3.60156">
        <ele>259.508</ele>
        <time>2017-04-01T14:46:07Z</time>
      </trkpt>
      <trkpt lat="43.96633" lon="3.60165">
        <ele>262.435</ele>
        <time>2017-04-01T14:46:27Z</time>
      </trkpt>
      <trkpt lat="43.96596" lon="3.60163">
        <ele>267.46</ele>
        <time>2017-04-01T14:46:47Z</time>
      </trkpt>
      <trkpt lat="43.96543" lon="3.60131">
        <ele>288.051</ele>
        <time>2017-04-01T14:47:07Z</time>
      </trkpt>
      <trkpt lat="43.96511" lon="3.60121">
        <ele>295.776</ele>
        <time>2017-04-01T14:47:27Z</time>
      </trkpt>
      <trkpt lat="43.96451" lon="3.60113">
        <ele>310.765</ele>
        <time>2017-04-01T14:47:47Z</time>
      </trkpt>
      <trkpt lat="43.9643" lon="3.60099">
        <ele>317.188</ele>
        <time>2017-04-01T14:48:07Z</time>
      </trkpt>
      <trkpt lat="43.96434" lon="3.60088">
        <ele>323.085</ele>
        <time>2017-04-01T14:48:27Z</time>
      </trkpt>
      <trkpt lat="43.96463" lon="3.60072">
        <ele>329.119</ele>
        <time>2017-04-01T14:48:47Z</time>
      </trkpt>
      <trkpt lat="43.96433" lon="3.60049">
        <ele>340.655</ele>
        <time>2017-04-01T14:49:07Z</time>
      </trkpt>
      <trkpt lat="43.96413" lon="3.6002">
        <ele>343.907</ele>
        <time>2017-04-01T14:49:27Z</time>
      </trkpt>
      <trkpt lat="43.96405" lon="3.59988">
        <ele>350.617</ele>
        <time>2017-04-01T14:49:47Z</time>
      </trkpt>
      <trkpt lat="43.96405" lon="3.59952">
        <ele>360.808</ele>
        <time>2017-04-01T14:50:07Z</time>
      </trkpt>
      <trkpt lat="43.96453" lon="3.59966">
        <ele>374.271</ele>
        <time>2017-04-01T14:50:27Z</time>
      </trkpt>
      <trkpt lat="43.96472" lon="3.5996">
        <ele>378.536</ele>
        <time>2017-04-01T14:50:47Z</time>
      </trkpt>
      <trkpt lat="43.96457" lon="3.59931">
        <ele>384.857</ele>
        <time>2017-04-01T14:51:07Z</time>
      </trkpt>
      <trkpt lat="43.96481" lon="3.59924">
        <ele>388.952</ele>
        <time>2017-04-01T14:51:27Z</time>
      </trkpt>
      <trkpt lat="43.96471" lon="3.59889">
        <ele>401.771</ele>
        <time>2017-04-01T14:51:47Z</time>
      </trkpt>
      <trkpt lat="43.96487" lon="3.59886">
        <ele>404.664</ele>
        <time>2017-04-01T14:52:07Z</time>
      </trkpt>
      <trkpt lat="43.96481" lon="3.59873">
        <ele>408.241</ele>
        <time>2017-04-01T14:52:27Z</time>
      </trkpt>
      <trkpt lat="43.96503" lon="3.59863">
        <ele>414.455</ele>
        <time>2017-04-01T14:52:47Z</time>
      </trkpt>
      <trkpt lat="43.96478" lon="3.59844">
        <ele>416.895</ele>
        <time>2017-04-01T14:53:07Z</time>
      </trkpt>
      <trkpt lat="43.96501" lon="3.59828">
        <ele>425.649</ele>
        <time>2017-04-01T14:53:27Z</time>
      </trkpt>
      <trkpt lat="43.9648" lon="3.59817">
        <ele>425.023</ele>
        <time>2017-04-01T14:53:47Z</time>
      </trkpt>
      <trkpt lat="43.96505" lon="3.59803">
        <ele>433.608</ele>
        <time>2017-04-01T14:54:07Z</time>
      </trkpt>
      <trkpt lat="43.96478" lon="3.59786">
        <ele>435.175</ele>
        <time>2017-04-01T14:54:27Z</time>
      </trkpt>
      <trkpt lat="43.96467" lon="3.59755">
        <ele>441.13</ele>
        <time>2017-04-01T14:54:47Z</time>
      </trkpt>
      <trkpt lat="43.96427" lon="3.59699">
        <ele>445.131</ele>
        <time>2017-04-01T14:55:07Z</time>
      </trkpt>
      <trkpt lat="43.96355" lon="3.59623">
        <ele>459.486</ele>
        <time>2017-04-01T14:55:27Z</time>
      </trkpt>
      <trkpt lat="43.9636" lon="3.59579">
        <ele>459.885</ele>
        <time>2017-04-01T14:55:47Z</time>
      </trkpt>
      <trkpt lat="43.96359" lon="3.59552">
        <ele>462.698</ele>
        <time>2017-04-01T14:56:07Z</time>
      </trkpt>
      <trkpt lat="43.96341" lon="3.59539">
        <ele>474.835</ele>
        <time>2017-04-01T14:56:27Z</time>
      </trkpt>
      <trkpt lat="43.96299" lon="3.59541">
        <ele>489.649</ele>
        <time>2017-04-01T14:56:47Z</time>
      </trkpt>
      <trkpt lat="43.96267" lon="3.59536">
        <ele>491.734</ele>
        <time>2017-04-01T14:57:07Z</time>
      </trkpt>
      <trkpt lat="43.96243" lon="3.59515">
        <ele>499.455</ele>
        <time>2017-04-01T14:57:27Z</time>
      </trkpt>
      <trkpt lat="43.96146" lon="3.59494">
        <ele>519.61</ele>
        <time>2017-04-01T14:57:47Z</time>
      </trkpt>
      <trkpt lat="43.96074" lon="3.5944">
        <ele>533.308</ele>
        <time>2017-04-01T14:58:07Z</time>
      </trkpt>
      <trkpt lat="43.96008" lon="3.59383">
        <ele>550.659</ele>
        <time>2017-04-01T14:58:27Z</time>
      </trkpt>
      <trkpt lat="43.9595" lon="3.59343">
        <ele>555.544</ele>
        <time>2017-04-01T14:58:47Z</time>
      </trkpt>
      <trkpt lat="43.9591" lon="3.59296">
        <ele>578.515</ele>
        <time>2017-04-01T14:59:07Z</time>
      </trkpt>
      <trkpt lat="43.95868" lon="3.59266">
        <ele>590.24</ele>
        <time>2017-04-01T14:59:27Z</time>
      </trkpt>
      <trkpt lat="43.95825" lon="3.5924">
        <ele>605.429</ele>
        <time>2017-04-01T14:59:47Z</time>
      </trkpt>
      <trkpt lat="43.95798" lon="3.59241">
        <ele>605.982</ele>
        <time>2017-04-01T15:00:07Z</time>
      </trkpt>
      <trkpt lat="43.95768" lon="3.59223">
        <ele>610.489</ele>
        <time>2017-04-01T15:00:27Z</time>
      </trkpt>
      <trkpt lat="43.95741" lon="3.59178">
        <ele>614.313</ele>
        <time>2017-04-01T15:00:47Z</time>
      </trkpt>
      <trkpt lat="43.9574" lon="3.59118">
        <ele>618.711</ele>
        <time>2017-04-01T15:01:07Z</time>
      </trkpt>
      <trkpt lat="43.95763" lon="3.58947">
        <ele>623.021</ele>
        <time>2017-04-01T15:01:27Z</time>
      </trkpt>
      <trkpt lat="43.95773" lon="3.58927">
        <ele>624.703</ele>
        <time>2017-04-01T15:01:47Z</time>
      </trkpt>
      <trkpt lat="43.9581" lon="3.58914">
        <ele>631.308</ele>
        <time>2017-04-01T15:02:07Z</time>
      </trkpt>
      <trkpt lat="43.95838" lon="3.58914">
        <ele>636.177</ele>
        <time>2017-04-01T15:02:27Z</time>
      </trkpt>
      <trkpt lat="43.9588" lon="3.58952">
        <ele>638.962</ele>
        <time>2017-04-01T15:02:47Z</time>
      </trkpt>
      <trkpt lat="43.959" lon="3.58942">
        <ele>641.313</ele>
        <time>2017-04-01T15:03:07Z</time>
      </trkpt>
      <trkpt lat="43.95904" lon="3.58912">
        <ele>645.188</ele>
        <time>2017-04-01T15:03:27Z</time>
      </trkpt>
      <trkpt lat="43.9589" lon="3.58882">
        <ele>650.297</ele>
        <time>2017-04-01T15:03:47Z</time>
      </trkpt>
      <trkpt lat="43.9585" lon="3.58864">
        <ele>649.69</ele>
        <time>2017-04-01T15:04:07Z</time>
      </trkpt>
      <trkpt lat="43.95807" lon="3.58821">
        <ele>652.977</ele>
        <time>2017-04-01T15:04:27Z</time>
      </trkpt>
      <trkpt lat="43.9579" lon="3.58769">
        <ele>657.921</ele>
        <time>2017-04-01T15:04:47Z</time>
      </trkpt>
      <trkpt lat="43.95796" lon="3.58706">
        <ele>665.455</ele>
        <time>2017-04-01T15:05:07Z</time>
      </trkpt>
      <trkpt lat="43.95798" lon="3.5866">
        <ele>668.907</ele>
        <time>2017-04-01T15:05:27Z</time>
      </trkpt>
      <trkpt lat="43.95653" lon="3.58605">
        <ele>669.317</ele>
        <time>2017-04-01T15:05:47Z</time>
      </trkpt>
      <trkpt lat="43.95558" lon="3.58549">
        <ele>663.308</ele>
        <time>2017-04-01T15:06:07Z</time>
      </trkpt>
      <trkpt lat="43.95558" lon="3.58438">
        <ele>659.971</ele>
        <time>2017-04-01T15:06:27Z</time>
      </trkpt>
      <trkpt lat="43.95515" lon="3.58401">
        <ele>660.236</ele>
        <time>2017-04-01T15:06:47Z</time>
      </trkpt>
      <trkpt lat="43.95462" lon="3.58341">
        <ele>655.977</ele>
        <time>2017-04-01T15:07:07Z</time>
      </trkpt>
      <trkpt lat="43.9541" lon="3.58336">
        <ele>655.492</ele>
        <time>2017-04-01T15:07:27Z</time>
      </trkpt>
      <trkpt lat="43.95361" lon="3.58323">
        <ele>652.931</ele>
        <time>2017-04-01T15:07:47Z</time>
      </trkpt>
      <trkpt lat="43.95288" lon="3.58324">
        <ele>654.764</ele>
        <time>2017-04-01T15:08:07Z</time>
      </trkpt>
      <trkpt lat="43.95212" lon="3.5831">
        <ele>655.071</ele>
        <time>2017-04-01T15:08:27Z</time>
      </trkpt>
      <trkpt lat="43.95176" lon="3.58296">
        <ele>654.145</ele>
        <time>2017-04-01T15:08:47Z</time>
      </trkpt>
      <trkpt lat="43.951" lon="3.58279">
        <ele>653.036</ele>
        <time>2017-04-01T15:09:07Z</time>
      </trkpt>
      <trkpt lat="43.95021" lon="3.58249">
        <ele>652.917</ele>
        <time>2017-04-01T15:09:27Z</time>
      </trkpt>
      <trkpt lat="43.94976" lon="3.58242">
        <ele>657.018</ele>
        <time>2017-04-01T15:09:47Z</time>
      </trkpt>
      <trkpt lat="43.94957" lon="3.58231">
        <ele>657.108</ele>
        <time>2017-04-01T15:10:07Z</time>
      </trkpt>
      <trkpt lat="43.94927" lon="3.58171">
        <ele>656.219</ele>
        <time>2017-04-01T15:10:27Z</time>
      </trkpt>
      <trkpt lat="43.94888" lon="3.58125">
        <ele>651.894</ele>
        <time>2017-04-01T15:10:47Z</time>
      </trkpt>
      <trkpt lat="43.94852" lon="3.58103">
        <ele>649.095</ele>
        <time>2017-04-01T15:11:07Z</time>
      </trkpt>
      <trkpt lat="43.94771" lon="3.58099">
        <ele>642.27</ele>
        <time>2017-04-01T15:11:27Z</time>
      </trkpt>
      <trkpt lat="43.9474" lon="3.58085">
        <ele>640.829</ele>
        <time>2017-04-01T15:11:47Z</time>
      </trkpt>
      <trkpt lat="43.94678" lon="3.58002">
        <ele>636.532</ele>
        <time>2017-04-01T15:12:07Z</time>
      </trkpt>
      <trkpt lat="43.9455" lon="3.57936">
        <ele>623.249</ele>
        <time>2017-04-01T15:12:27Z</time>
      </trkpt>
      <trkpt lat="43.94484" lon="3.5792">
        <ele>619.043</ele>
        <time>2017-04-01T15:12:47Z</time>
      </trkpt>
      <trkpt lat="43.94432" lon="3.57901">
        <ele>616.836</ele>
        <time>2017-04-01T15:13:07Z</time>
      </trkpt>
      <trkpt lat="43.94373" lon="3.5789">
        <ele>614.317</ele>
        <time>2017-04-01T15:13:27Z</time>
      </trkpt>
      <trkpt lat="43.94239" lon="3.57898">
        <ele>607.518</ele>
        <time>2017-04-01T15:13:47Z</time>
      </trkpt>
      <trkpt lat="43.941" lon="3.57978">
        <ele>607.408</ele>
        <time>2017-04-01T15:14:07Z</time>
      </trkpt>
      <trkpt lat="43.94057" lon="3.58032">
        <ele>609.979</ele>
        <time>2017-04-01T15:14:27Z</time>
      </trkpt>
      <trkpt lat="43.93979" lon="3.58107">
        <ele>611.244</ele>
        <time>2017-04-01T15:14:47Z</time>
      </trkpt>
      <trkpt lat="43.93943" lon="3.58117">
        <ele>606.575</ele>
        <time>2017-04-01T15:15:07Z</time>
      </trkpt>
      <trkpt lat="43.93796" lon="3.58247">
        <ele>600.05</ele>
        <time>2017-04-01T15:15:27Z</time>
      </trkpt>
      <trkpt lat="43.93764" lon="3.58291">
        <ele>600.069</ele>
        <time>2017-04-01T15:15:47Z</time>
      </trkpt>
      <trkpt lat="43.93685" lon="3.58335">
        <ele>600.022</ele>
        <time>2017-04-01T15:16:07Z</time>
      </trkpt>
      <trkpt lat="43.93589" lon="3.58365">
        <ele>600.049</ele>
        <time>2017-04-01T15:16:27Z</time>
      </trkpt>
      <trkpt lat="43.93539" lon="3.58423">
        <ele>597.853</ele>
        <time>2017-04-01T15:16:47Z</time>
      </trkpt>
      <trkpt lat="43.93485" lon="3.58459">
        <ele>595.792</ele>
        <time>2017-04-01T15:17:07Z</time>
      </trkpt>
      <trkpt lat="43.93426" lon="3.58505">
        <ele>595.073</ele>
        <time>2017-04-01T15:17:27Z</time>
      </trkpt>
      <trkpt lat="43.93378" lon="3.5858">
        <ele>594.02</ele>
        <time>2017-04-01T15:17:47Z</time>
      </trkpt>
      <trkpt lat="43.93344" lon="3.5861">
        <ele>594.008</ele>
        <time>2017-04-01T15:18:07Z</time>
      </trkpt>
      <trkpt lat="43.93306" lon="3.58631">
        <ele>595.765</ele>
        <time>2017-04-01T15:18:27Z</time>
      </trkpt>
      <trkpt lat="43.93245" lon="3.58674">
        <ele>599.23</ele>
        <time>2017-04-01T15:18:47Z</time>
      </trkpt>
      <trkpt lat="43.93203" lon="3.58709">
        <ele>600.041</ele>
        <time>2017-04-01T15:19:07Z</time>
      </trkpt>
      <trkpt lat="43.93157" lon="3.58736">
        <ele>600.096</ele>
        <time>2017-04-01T15:19:27Z</time>
      </trkpt>
      <trkpt lat="43.93099" lon="3.58727">
        <ele>600.185</ele>
        <time>2017-04-01T15:19:47Z</time>
      </trkpt>
      <trkpt lat="43.93058" lon="3.58769">
        <ele>601.618</ele>
        <time>2017-04-01T15:20:07Z</time>
      </trkpt>
      <trkpt lat="43.93019" lon="3.5884">
        <ele>603.475</ele>
        <time>2017-04-01T15:20:27Z</time>
      </trkpt>
      <trkpt lat="43.9299" lon="3.58877">
        <ele>605.279</ele>
        <time>2017-04-01T15:20:47Z</time>
      </trkpt>
      <trkpt lat="43.92926" lon="3.589">
        <ele>606.969</ele>
        <time>2017-04-01T15:21:07Z</time>
      </trkpt>
      <trkpt lat="43.92884" lon="3.58925">
        <ele>608.204</ele>
        <time>2017-04-01T15:21:27Z</time>
      </trkpt>
      <trkpt lat="43.92844" lon="3.58911">
        <ele>609.124</ele>
        <time>2017-04-01T15:21:47Z</time>
      </trkpt>
      <trkpt lat="43.92835" lon="3.58837">
        <ele>608.108</ele>
        <time>2017-04-01T15:22:07Z</time>
      </trkpt>
      <trkpt lat="43.9288" lon="3.58733">
        <ele>605.092</ele>
        <time>2017-04-01T15:22:27Z</time>
      </trkpt>
      <trkpt lat="43.92877" lon="3.5865">
        <ele>604.887</ele>
        <time>2017-04-01T15:22:47Z</time>
      </trkpt>
      <trkpt lat="43.92926" lon="3.58595">
        <ele>605.028</ele>
        <time>2017-04-01T15:23:07Z</time>
      </trkpt>
      <trkpt lat="43.92956" lon="3.58581">
        <ele>605.063</ele>
        <time>2017-04-01T15:23:27Z</time>
      </trkpt>
      <trkpt lat="43.92974" lon="3.58546">
        <ele>606.252</ele>
        <time>2017-04-01T15:23:47Z</time>
      </trkpt>
      <trkpt lat="43.92986" lon="3.58484">
        <ele>609.825</ele>
        <time>2019-03-28T21:21:14Z</time>
      </trkpt>
      <trkpt lat="43.92984" lon="3.58455">
        <ele>610.052</ele>
        <time>2019-03-28T21:21:34Z</time>
      </trkpt>
      <trkpt lat="43.92965" lon="3.58382">
        <ele>610.156</ele>
        <time>2019-03-28T21:21:54Z</time>
      </trkpt>
      <trkpt lat="43.92961" lon="3.58315">
        <ele>612.927</ele>
        <time>2019-03-28T21:22:34Z</time>
      </trkpt>
      <trkpt lat="43.92971" lon="3.58188">
        <ele>616.468</ele>
        <time>2019-03-28T21:22:54Z</time>
      </trkpt>
      <trkpt lat="43.92971" lon="3.581">
        <ele>618.914</ele>
        <time>2019-03-28T21:23:14Z</time>
      </trkpt>
      <trkpt lat="43.92927" lon="3.57792">
        <ele>619.908</ele>
        <time>2019-03-28T21:23:34Z</time>
      </trkpt>
      <trkpt lat="43.92981" lon="3.57663">
        <ele>621.548</ele>
        <time>2019-03-28T21:23:54Z</time>
      </trkpt>
      <trkpt lat="43.93011" lon="3.57563">
        <ele>628.853</ele>
        <time>2019-03-28T21:24:14Z</time>
      </trkpt>
      <trkpt lat="43.9302" lon="3.57497">
        <ele>632.724</ele>
        <time>2019-03-28T21:24:34Z</time>
      </trkpt>
      <trkpt lat="43.93066" lon="3.57322">
        <ele>640.069</ele>
        <time>2019-03-28T21:24:54Z</time>
      </trkpt>
      <trkpt lat="43.93099" lon="3.57158">
        <ele>634.778</ele>
        <time>2019-03-28T21:25:14Z</time>
      </trkpt>
      <trkpt lat="43.9312" lon="3.57102">
        <ele>631.571</ele>
        <time>2019-03-28T21:25:34Z</time>
      </trkpt>
      <trkpt lat="43.93212" lon="3.56674">
        <ele>634.038</ele>
        <time>2019-03-28T21:25:54Z</time>
      </trkpt>
      <trkpt lat="43.93314" lon="3.56457">
        <ele>635.782</ele>
        <time>2019-03-28T21:26:14Z</time>
      </trkpt>
      <trkpt lat="43.93349" lon="3.56339">
        <ele>635.765</ele>
        <time>2019-03-28T21:27:34Z</time>
      </trkpt>
      <trkpt lat="43.93389" lon="3.56269">
        <ele>635.368</ele>
        <time>2019-03-28T21:27:54Z</time>
      </trkpt>
      <trkpt lat="43.93419" lon="3.56196">
        <ele>634.714</ele>
        <time>2019-03-28T21:28:14Z</time>
      </trkpt>
      <trkpt lat="43.93425" lon="3.56054">
        <ele>632.208</ele>
        <time>2019-03-28T21:28:34Z</time>
      </trkpt>
      <trkpt lat="43.93465" lon="3.55942">
        <ele>635.062</ele>
        <time>2019-03-28T21:28:54Z</time>
      </trkpt>
      <trkpt lat="43.93502" lon="3.5589">
        <ele>635.077</ele>
        <time>2019-03-28T21:29:14Z</time>
      </trkpt>
      <trkpt lat="43.9351" lon="3.55829">
        <ele>635.098</ele>
        <time>2019-03-28T21:29:34Z</time>
      </trkpt>
      <trkpt lat="43.93515" lon="3.55787">
        <ele>635.063</ele>
        <time>2019-03-28T21:29:54Z</time>
      </trkpt>
      <trkpt lat="43.93541" lon="3.55729">
        <ele>635.062</ele>
        <time>2019-03-28T21:30:14Z</time>
      </trkpt>
      <trkpt lat="43.93552" lon="3.5565">
        <ele>635.035</ele>
        <time>2019-03-28T21:30:34Z</time>
      </trkpt>
      <trkpt lat="43.93576" lon="3.55553">
        <ele>636.042</ele>
        <time>2019-03-28T21:30:54Z</time>
      </trkpt>
      <trkpt lat="43.93565" lon="3.55471">
        <ele>637.076</ele>
        <time>2019-03-28T21:31:14Z</time>
      </trkpt>
      <trkpt lat="43.93576" lon="3.55413">
        <ele>637.123</ele>
        <time>2019-03-28T21:31:34Z</time>
      </trkpt>
      <trkpt lat="43.93471" lon="3.55174">
        <ele>639.083</ele>
        <time>2019-03-28T21:31:54Z</time>
      </trkpt>
      <trkpt lat="43.93406" lon="3.5508">
        <ele>640.511</ele>
        <time>2019-03-28T21:32:14Z</time>
      </trkpt>
      <trkpt lat="43.93363" lon="3.55044">
        <ele>641.108</ele>
        <time>2019-03-28T21:32:34Z</time>
      </trkpt>
      <trkpt lat="43.93324" lon="3.54981">
        <ele>640.168</ele>
        <time>2019-03-28T21:32:54Z</time>
      </trkpt>
      <trkpt lat="43.93274" lon="3.54845">
        <ele>639.863</ele>
        <time>2019-03-28T21:33:14Z</time>
      </trkpt>
      <trkpt lat="43.93209" lon="3.54703">
        <ele>636.344</ele>
        <time>2019-03-28T21:33:34Z</time>
      </trkpt>
      <trkpt lat="43.93148" lon="3.5454">
        <ele>629.349</ele>
        <time>2019-03-28T21:33:54Z</time>
      </trkpt>
      <trkpt lat="43.93076" lon="3.54251">
        <ele>630.068</ele>
        <time>2019-03-28T21:34:14Z</time>
      </trkpt>
      <trkpt lat="43.93032" lon="3.54198">
        <ele>630.851</ele>
        <time>2019-03-28T21:34:34Z</time>
      </trkpt>
      <trkpt lat="43.92883" lon="3.53859">
        <ele>632.988</ele>
        <time>2019-03-28T21:34:54Z</time>
      </trkpt>
      <trkpt lat="43.92811" lon="3.53793">
        <ele>633.972</ele>
        <time>2019-03-28T21:35:14Z</time>
      </trkpt>
      <trkpt lat="43.92774" lon="3.53693">
        <ele>633.037</ele>
        <time>2019-03-28T21:35:34Z</time>
      </trkpt>
      <trkpt lat="43.9281" lon="3.53673">
        <ele>633.349</ele>
        <time>2019-03-28T21:35:54Z</time>
      </trkpt>
      <trkpt lat="43.92878" lon="3.53697">
        <ele>635.513</ele>
        <time>2019-03-28T21:36:14Z</time>
      </trkpt>
      <trkpt lat="43.92921" lon="3.53681">
        <ele>636.108</ele>
        <time>2019-03-28T21:36:34Z</time>
      </trkpt>
      <trkpt lat="43.92931" lon="3.53631">
        <ele>636.439</ele>
        <time>2019-03-28T21:36:54Z</time>
      </trkpt>
      <trkpt lat="43.92984" lon="3.53517">
        <ele>636.874</ele>
        <time>2019-03-28T21:37:14Z</time>
      </trkpt>
      <trkpt lat="43.92996" lon="3.53461">
        <ele>636.855</ele>
        <time>2019-03-28T21:37:34Z</time>
      </trkpt>
      <trkpt lat="43.93005" lon="3.53333">
        <ele>636.28</ele>
        <time>2019-03-28T21:37:54Z</time>
      </trkpt>
      <trkpt lat="43.93036" lon="3.53161">
        <ele>638.399</ele>
        <time>2019-03-28T21:38:14Z</time>
      </trkpt>
      <trkpt lat="43.93108" lon="3.52956">
        <ele>645.692</ele>
        <time>2019-03-28T21:38:34Z</time>
      </trkpt>
      <trkpt lat="43.93129" lon="3.52858">
        <ele>649.189</ele>
        <time>2019-03-28T21:38:54Z</time>
      </trkpt>
      <trkpt lat="43.93149" lon="3.52806">
        <ele>652.363</ele>
        <time>2019-03-28T21:39:14Z</time>
      </trkpt>
      <trkpt lat="43.93172" lon="3.52702">
        <ele>659.429</ele>
        <time>2019-03-28T21:39:34Z</time>
      </trkpt>
      <trkpt lat="43.93265" lon="3.52428">
        <ele>690</ele>
        <time>2019-03-28T21:39:54Z</time>
      </trkpt>
      <trkpt lat="43.93277" lon="3.52364">
        <ele>694.72</ele>
        <time>2019-03-28T21:40:14Z</time>
      </trkpt>
      <trkpt lat="43.93304" lon="3.52272">
        <ele>703.508</ele>
        <time>2019-03-28T21:40:34Z</time>
      </trkpt>
      <trkpt lat="43.93376" lon="3.52114">
        <ele>710.488</ele>
        <time>2019-03-28T21:40:54Z</time>
      </trkpt>
      <trkpt lat="43.93433" lon="3.51965">
        <ele>722.583</ele>
        <time>2019-03-28T21:41:14Z</time>
      </trkpt>
      <trkpt lat="43.93482" lon="3.51847">
        <ele>734.724</ele>
        <time>2019-03-28T21:41:34Z</time>
      </trkpt>
      <trkpt lat="43.93636" lon="3.51749">
        <ele>735.059</ele>
        <time>2019-03-28T21:41:54Z</time>
      </trkpt>
      <trkpt lat="43.93697" lon="3.51687">
        <ele>731.938</ele>
        <time>2019-03-28T21:42:14Z</time>
      </trkpt>
      <trkpt lat="43.93688" lon="3.51637">
        <ele>733.551</ele>
        <time>2019-03-28T21:42:34Z</time>
      </trkpt>
      <trkpt lat="43.93646" lon="3.51609">
        <ele>734.328</ele>
        <time>2019-03-28T21:42:54Z</time>
      </trkpt>
      <trkpt lat="43.9362" lon="3.51577">
        <ele>730.362</ele>
        <time>2019-03-28T21:43:14Z</time>
      </trkpt>
      <trkpt lat="43.9357" lon="3.51599">
        <ele>728.139</ele>
        <time>2019-03-28T21:43:34Z</time>
      </trkpt>
      <trkpt lat="43.93485" lon="3.51539">
        <ele>725.101</ele>
        <time>2019-03-28T21:43:54Z</time>
      </trkpt>
      <trkpt lat="43.93431" lon="3.51529">
        <ele>720.121</ele>
        <time>2019-03-28T21:44:14Z</time>
      </trkpt>
      <trkpt lat="43.93381" lon="3.51495">
        <ele>715.108</ele>
        <time>2019-03-28T21:44:34Z</time>
      </trkpt>
      <trkpt lat="43.93257" lon="3.51495">
        <ele>703.939</ele>
        <time>2019-03-28T21:44:54Z</time>
      </trkpt>
      <trkpt lat="43.93146" lon="3.51541">
        <ele>702.874</ele>
        <time>2019-03-28T21:45:14Z</time>
      </trkpt>
      <trkpt lat="43.93116" lon="3.51543">
        <ele>702.955</ele>
        <time>2019-03-28T21:45:34Z</time>
      </trkpt>
      <trkpt lat="43.93025" lon="3.51595">
        <ele>698.41</ele>
        <time>2019-03-28T21:45:54Z</time>
      </trkpt>
      <trkpt lat="43.92741" lon="3.51573">
        <ele>656.139</ele>
        <time>2019-03-28T21:46:14Z</time>
      </trkpt>
      <trkpt lat="43.92705" lon="3.51587">
        <ele>654.282</ele>
        <time>2019-03-28T21:46:34Z</time>
      </trkpt>
      <trkpt lat="43.92549" lon="3.51557">
        <ele>652.719</ele>
        <time>2019-03-28T21:46:54Z</time>
      </trkpt>
      <trkpt lat="43.92438" lon="3.51623">
        <ele>650.413</ele>
        <time>2019-03-28T21:47:14Z</time>
      </trkpt>
      <trkpt lat="43.92383" lon="3.51633">
        <ele>651.844</ele>
        <time>2019-03-28T21:47:34Z</time>
      </trkpt>
      <trkpt lat="43.92314" lon="3.51589">
        <ele>651.405</ele>
        <time>2019-03-28T21:47:54Z</time>
      </trkpt>
      <trkpt lat="43.92233" lon="3.51567">
        <ele>644.115</ele>
        <time>2019-03-28T21:48:14Z</time>
      </trkpt>
      <trkpt lat="43.92155" lon="3.51519">
        <ele>641.508</ele>
        <time>2019-03-28T21:48:34Z</time>
      </trkpt>
      <trkpt lat="43.92057" lon="3.51565">
        <ele>638.04</ele>
        <time>2019-03-28T21:48:54Z</time>
      </trkpt>
      <trkpt lat="43.92005" lon="3.51543">
        <ele>638.485</ele>
        <time>2019-03-28T21:49:14Z</time>
      </trkpt>
      <trkpt lat="43.91945" lon="3.51599">
        <ele>639.786</ele>
        <time>2019-03-28T21:49:34Z</time>
      </trkpt>
      <trkpt lat="43.91898" lon="3.51601">
        <ele>639.831</ele>
        <time>2019-03-28T21:49:54Z</time>
      </trkpt>
      <trkpt lat="43.9186" lon="3.51587">
        <ele>642.57</ele>
        <time>2019-03-28T21:50:14Z</time>
      </trkpt>
      <trkpt lat="43.91806" lon="3.51601">
        <ele>639.163</ele>
        <time>2019-03-28T21:50:34Z</time>
      </trkpt>
      <trkpt lat="43.91766" lon="3.51589">
        <ele>640.06</ele>
        <time>2019-03-28T21:50:54Z</time>
      </trkpt>
      <trkpt lat="43.91676" lon="3.51625">
        <ele>644.834</ele>
        <time>2019-03-28T21:51:14Z</time>
      </trkpt>
      <trkpt lat="43.91578" lon="3.51645">
        <ele>639.511</ele>
        <time>2019-03-28T21:51:34Z</time>
      </trkpt>
      <trkpt lat="43.91564" lon="3.51619">
        <ele>638.621</ele>
        <time>2019-03-28T21:51:54Z</time>
      </trkpt>
      <trkpt lat="43.91591" lon="3.51571">
        <ele>640.903</ele>
        <time>2019-03-28T21:52:14Z</time>
      </trkpt>
      <trkpt lat="43.91544" lon="3.51535">
        <ele>639.908</ele>
        <time>2019-03-28T21:52:34Z</time>
      </trkpt>
      <trkpt lat="43.91525" lon="3.51501">
        <ele>640.847</ele>
        <time>2019-03-28T21:52:54Z</time>
      </trkpt>
      <trkpt lat="43.91183" lon="3.51263">
        <ele>648.442</ele>
        <time>2019-03-28T21:53:14Z</time>
      </trkpt>
      <trkpt lat="43.91163" lon="3.51321">
        <ele>647.833</ele>
        <time>2019-03-28T21:53:34Z</time>
      </trkpt>
      <trkpt lat="43.91098" lon="3.51389">
        <ele>644.538</ele>
        <time>2019-03-28T21:53:54Z</time>
      </trkpt>
      <trkpt lat="43.91004" lon="3.51535">
        <ele>638.097</ele>
        <time>2019-03-28T21:54:14Z</time>
      </trkpt>
      <trkpt lat="43.90918" lon="3.51573">
        <ele>640.09</ele>
        <time>2019-03-28T21:54:34Z</time>
      </trkpt>
      <trkpt lat="43.90859" lon="3.51645">
        <ele>643.917</ele>
        <time>2019-03-28T21:54:54Z</time>
      </trkpt>
      <trkpt lat="43.90771" lon="3.51615">
        <ele>648.181</ele>
        <time>2019-03-28T21:55:14Z</time>
      </trkpt>
      <trkpt lat="43.90749" lon="3.51625">
        <ele>648.095</ele>
        <time>2019-03-28T21:55:34Z</time>
      </trkpt>
      <trkpt lat="43.90647" lon="3.51623">
        <ele>646.549</ele>
        <time>2019-03-28T21:55:54Z</time>
      </trkpt>
      <trkpt lat="43.90585" lon="3.51649">
        <ele>640.123</ele>
        <time>2019-03-28T21:56:14Z</time>
      </trkpt>
      <trkpt lat="43.90528" lon="3.51629">
        <ele>636.108</ele>
        <time>2019-03-28T21:56:34Z</time>
      </trkpt>
      <trkpt lat="43.90501" lon="3.51651">
        <ele>631.815</ele>
        <time>2019-03-28T21:56:54Z</time>
      </trkpt>
      <trkpt lat="43.9045" lon="3.51623">
        <ele>633.76</ele>
        <time>2019-03-28T21:57:14Z</time>
      </trkpt>
      <trkpt lat="43.90384" lon="3.51647">
        <ele>630.071</ele>
        <time>2019-03-28T21:57:34Z</time>
      </trkpt>
      <trkpt lat="43.90357" lon="3.51631">
        <ele>629.836</ele>
        <time>2019-03-28T21:57:54Z</time>
      </trkpt>
      <trkpt lat="43.90302" lon="3.51633">
        <ele>627.735</ele>
        <time>2019-03-28T21:58:14Z</time>
      </trkpt>
      <trkpt lat="43.90269" lon="3.51597">
        <ele>624.588</ele>
        <time>2019-03-28T21:58:34Z</time>
      </trkpt>
      <trkpt lat="43.90233" lon="3.51621">
        <ele>621.435</ele>
        <time>2019-03-28T21:58:54Z</time>
      </trkpt>
      <trkpt lat="43.90215" lon="3.51569">
        <ele>620.759</ele>
        <time>2019-03-28T21:59:14Z</time>
      </trkpt>
      <trkpt lat="43.9014" lon="3.51575">
        <ele>616.827</ele>
        <time>2019-03-28T21:59:34Z</time>
      </trkpt>
      <trkpt lat="43.90088" lon="3.51537">
        <ele>618.468</ele>
        <time>2019-03-28T21:59:54Z</time>
      </trkpt>
      <trkpt lat="43.90034" lon="3.51531">
        <ele>613.714</ele>
        <time>2019-03-28T22:00:14Z</time>
      </trkpt>
      <trkpt lat="43.90038" lon="3.51473">
        <ele>628.608</ele>
        <time>2019-03-28T22:00:34Z</time>
      </trkpt>
      <trkpt lat="43.90025" lon="3.51447">
        <ele>632.488</ele>
        <time>2019-03-28T22:00:54Z</time>
      </trkpt>
      <trkpt lat="43.90032" lon="3.51373">
        <ele>641.313</ele>
        <time>2019-03-28T22:01:14Z</time>
      </trkpt>
      <trkpt lat="43.90048" lon="3.51329">
        <ele>645.694</ele>
        <time>2019-03-28T22:01:34Z</time>
      </trkpt>
      <trkpt lat="43.90049" lon="3.51293">
        <ele>646.999</ele>
        <time>2019-03-28T22:01:54Z</time>
      </trkpt>
      <trkpt lat="43.9007" lon="3.51255">
        <ele>649.768</ele>
        <time>2019-03-28T22:02:14Z</time>
      </trkpt>
      <trkpt lat="43.90124" lon="3.51255">
        <ele>655.081</ele>
        <time>2019-03-28T22:02:34Z</time>
      </trkpt>
      <trkpt lat="43.90155" lon="3.51187">
        <ele>655.028</ele>
        <time>2019-03-28T22:02:54Z</time>
      </trkpt>
      <trkpt lat="43.90153" lon="3.51134">
        <ele>654.862</ele>
        <time>2019-03-28T22:03:14Z</time>
      </trkpt>
      <trkpt lat="43.90146" lon="3.51108">
        <ele>652.637</ele>
        <time>2019-03-28T22:03:34Z</time>
      </trkpt>
      <trkpt lat="43.90158" lon="3.51026">
        <ele>659.549</ele>
        <time>2019-03-28T22:03:54Z</time>
      </trkpt>
      <trkpt lat="43.90149" lon="3.51002">
        <ele>661.813</ele>
        <time>2019-03-28T22:04:14Z</time>
      </trkpt>
      <trkpt lat="43.90156" lon="3.50952">
        <ele>664.808</ele>
        <time>2017-04-01T16:30:07Z</time>
      </trkpt>
      <trkpt lat="43.90129" lon="3.50958">
        <ele>665.059</ele>
        <time>2017-04-01T16:30:27Z</time>
      </trkpt>
      <trkpt lat="43.90104" lon="3.50942">
        <ele>665.024</ele>
        <time>2017-04-01T16:30:47Z</time>
      </trkpt>
      <trkpt lat="43.90068" lon="3.50938">
        <ele>661.575</ele>
        <time>2017-04-01T16:31:07Z</time>
      </trkpt>
      <trkpt lat="43.90035" lon="3.5096">
        <ele>652.98</ele>
        <time>2017-04-01T16:31:27Z</time>
      </trkpt>
      <trkpt lat="43.90029" lon="3.51026">
        <ele>637.669</ele>
        <time>2017-04-01T16:31:47Z</time>
      </trkpt>
      <trkpt lat="43.90007" lon="3.5098">
        <ele>635.722</ele>
        <time>2017-04-01T16:32:07Z</time>
      </trkpt>
      <trkpt lat="43.90002" lon="3.50939">
        <ele>627.119</ele>
        <time>2017-04-01T16:32:27Z</time>
      </trkpt>
      <trkpt lat="43.89979" lon="3.50884">
        <ele>592.543</ele>
        <time>2017-04-01T16:32:47Z</time>
      </trkpt>
      <trkpt lat="43.89957" lon="3.50912">
        <ele>587.629</ele>
        <time>2017-04-01T16:33:07Z</time>
      </trkpt>
      <trkpt lat="43.8994" lon="3.50918">
        <ele>578.3</ele>
        <time>2017-04-01T16:33:27Z</time>
      </trkpt>
      <trkpt lat="43.89919" lon="3.50943">
        <ele>568.72</ele>
        <time>2017-04-01T16:33:47Z</time>
      </trkpt>
      <trkpt lat="43.89907" lon="3.50897">
        <ele>549.008</ele>
        <time>2017-04-01T16:34:07Z</time>
      </trkpt>
      <trkpt lat="43.89864" lon="3.50941">
        <ele>534.888</ele>
        <time>2017-04-01T16:34:27Z</time>
      </trkpt>
      <trkpt lat="43.89858" lon="3.50976">
        <ele>530.733</ele>
        <time>2017-04-01T16:34:47Z</time>
      </trkpt>
      <trkpt lat="43.89873" lon="3.51003">
        <ele>536.764</ele>
        <time>2017-04-01T16:35:07Z</time>
      </trkpt>
      <trkpt lat="43.89827" lon="3.50995">
        <ele>510.029</ele>
        <time>2017-04-01T16:35:27Z</time>
      </trkpt>
      <trkpt lat="43.8982" lon="3.5095">
        <ele>503.118</ele>
        <time>2017-04-01T16:35:47Z</time>
      </trkpt>
      <trkpt lat="43.89823" lon="3.5094">
        <ele>503.181</ele>
        <time>2017-04-01T16:36:07Z</time>
      </trkpt>
      <trkpt lat="43.89832" lon="3.50901">
        <ele>498.378</ele>
        <time>2017-04-01T16:36:27Z</time>
      </trkpt>
      <trkpt lat="43.89845" lon="3.50875">
        <ele>499.332</ele>
        <time>2017-04-01T16:36:47Z</time>
      </trkpt>
      <trkpt lat="43.89839" lon="3.50873">
        <ele>494.359</ele>
        <time>2017-04-01T16:37:07Z</time>
      </trkpt>
      <trkpt lat="43.89824" lon="3.50895">
        <ele>490.603</ele>
        <time>2017-04-01T16:37:27Z</time>
      </trkpt>
      <trkpt lat="43.89788" lon="3.50976">
        <ele>485.723</ele>
        <time>2017-04-01T16:37:47Z</time>
      </trkpt>
      <trkpt lat="43.89785" lon="3.51005">
        <ele>485.908</ele>
        <time>2017-04-01T16:38:07Z</time>
      </trkpt>
      <trkpt lat="43.89778" lon="3.51">
        <ele>483.111</ele>
        <time>2017-04-01T16:38:27Z</time>
      </trkpt>
      <trkpt lat="43.89787" lon="3.50895">
        <ele>469.496</ele>
        <time>2017-04-01T16:38:47Z</time>
      </trkpt>
      <trkpt lat="43.89799" lon="3.50856">
        <ele>466.057</ele>
        <time>2017-04-01T16:39:07Z</time>
      </trkpt>
      <trkpt lat="43.89771" lon="3.509">
        <ele>462.672</ele>
        <time>2017-04-01T16:39:27Z</time>
      </trkpt>
      <trkpt lat="43.89721" lon="3.51022">
        <ele>449.991</ele>
        <time>2017-04-01T16:39:47Z</time>
      </trkpt>
      <trkpt lat="43.89722" lon="3.51039">
        <ele>448.064</ele>
        <time>2017-04-01T16:40:07Z</time>
      </trkpt>
      <trkpt lat="43.89742" lon="3.5106">
        <ele>448.971</ele>
        <time>2017-04-01T16:40:27Z</time>
      </trkpt>
      <trkpt lat="43.8974" lon="3.51067">
        <ele>445.045</ele>
        <time>2017-04-01T16:40:47Z</time>
      </trkpt>
      <trkpt lat="43.89705" lon="3.51042">
        <ele>436.089</ele>
        <time>2017-04-01T16:41:07Z</time>
      </trkpt>
      <trkpt lat="43.89696" lon="3.51016">
        <ele>432.906</ele>
        <time>2017-04-01T16:41:27Z</time>
      </trkpt>
      <trkpt lat="43.89695" lon="3.50987">
        <ele>429.126</ele>
        <time>2017-04-01T16:41:47Z</time>
      </trkpt>
      <trkpt lat="43.89706" lon="3.50898">
        <ele>421.708</ele>
        <time>2017-04-01T16:42:07Z</time>
      </trkpt>
      <trkpt lat="43.89704" lon="3.50892">
        <ele>418.944</ele>
        <time>2017-04-01T16:42:27Z</time>
      </trkpt>
      <trkpt lat="43.89665" lon="3.50985">
        <ele>409.519</ele>
        <time>2017-04-01T16:42:47Z</time>
      </trkpt>
      <trkpt lat="43.89652" lon="3.51029">
        <ele>405.86</ele>
        <time>2017-04-01T16:43:07Z</time>
      </trkpt>
      <trkpt lat="43.89649" lon="3.50961">
        <ele>395.185</ele>
        <time>2017-04-01T16:43:27Z</time>
      </trkpt>
      <trkpt lat="43.89653" lon="3.50902">
        <ele>387.324</ele>
        <time>2017-04-01T16:43:47Z</time>
      </trkpt>
      <trkpt lat="43.89634" lon="3.50948">
        <ele>381.067</ele>
        <time>2017-04-01T16:44:07Z</time>
      </trkpt>
      <trkpt lat="43.8964" lon="3.50834">
        <ele>367.384</ele>
        <time>2017-04-01T16:44:27Z</time>
      </trkpt>
      <trkpt lat="43.89651" lon="3.50808">
        <ele>369.738</ele>
        <time>2017-04-01T16:44:47Z</time>
      </trkpt>
      <trkpt lat="43.89646" lon="3.50805">
        <ele>365.147</ele>
        <time>2017-04-01T16:45:07Z</time>
      </trkpt>
      <trkpt lat="43.8961" lon="3.5088">
        <ele>353.529</ele>
        <time>2017-04-01T16:45:27Z</time>
      </trkpt>
      <trkpt lat="43.89616" lon="3.50832">
        <ele>350.721</ele>
        <time>2017-04-01T16:45:47Z</time>
      </trkpt>
      <trkpt lat="43.89631" lon="3.50788">
        <ele>351.808</ele>
        <time>2017-04-01T16:46:07Z</time>
      </trkpt>
      <trkpt lat="43.89625" lon="3.50786">
        <ele>348.43</ele>
        <time>2017-04-01T16:46:27Z</time>
      </trkpt>
      <trkpt lat="43.89599" lon="3.50838">
        <ele>342.465</ele>
        <time>2017-04-01T16:46:47Z</time>
      </trkpt>
      <trkpt lat="43.89583" lon="3.5089">
        <ele>336.826</ele>
        <time>2017-04-01T16:47:07Z</time>
      </trkpt>
      <trkpt lat="43.8956" lon="3.51015">
        <ele>332.721</ele>
        <time>2017-04-01T16:47:27Z</time>
      </trkpt>
      <trkpt lat="43.89527" lon="3.51011">
        <ele>330.12</ele>
        <time>2017-04-01T16:47:47Z</time>
      </trkpt>
      <trkpt lat="43.89525" lon="3.51046">
        <ele>329.383</ele>
        <time>2017-04-01T16:48:07Z</time>
      </trkpt>
      <trkpt lat="43.89503" lon="3.511">
        <ele>326.31</ele>
        <time>2017-04-01T16:48:27Z</time>
      </trkpt>
      <trkpt lat="43.89468" lon="3.51136">
        <ele>324.794</ele>
        <time>2017-04-01T16:48:47Z</time>
      </trkpt>
      <trkpt lat="43.89458" lon="3.51154">
        <ele>325.258</ele>
        <time>2017-04-01T16:49:07Z</time>
      </trkpt>
      <trkpt lat="43.89442" lon="3.51195">
        <ele>326.352</ele>
        <time>2017-04-01T16:49:27Z</time>
      </trkpt>
      <trkpt lat="43.89394" lon="3.51186">
        <ele>329.317</ele>
        <time>2017-04-01T16:49:47Z</time>
      </trkpt>
      <trkpt lat="43.89389" lon="3.51209">
        <ele>329.508</ele>
        <time>2017-04-01T16:50:07Z</time>
      </trkpt>
      <trkpt lat="43.8937" lon="3.51208">
        <ele>330.111</ele>
        <time>2017-04-01T16:50:27Z</time>
      </trkpt>
      <trkpt lat="43.89338" lon="3.51229">
        <ele>337.736</ele>
        <time>2017-04-01T16:50:47Z</time>
      </trkpt>
      <trkpt lat="43.89213" lon="3.51208">
        <ele>361.837</ele>
        <time>2017-04-01T16:51:07Z</time>
      </trkpt>
      <trkpt lat="43.89245" lon="3.51242">
        <ele>370.212</ele>
        <time>2017-04-01T16:51:27Z</time>
      </trkpt>
      <trkpt lat="43.89209" lon="3.51239">
        <ele>382.561</ele>
        <time>2017-04-01T16:51:47Z</time>
      </trkpt>
      <trkpt lat="43.89292" lon="3.51321">
        <ele>390.084</ele>
        <time>2017-04-01T16:52:07Z</time>
      </trkpt>
      <trkpt lat="43.89276" lon="3.51332">
        <ele>391.491</ele>
        <time>2017-04-01T16:52:27Z</time>
      </trkpt>
      <trkpt lat="43.89224" lon="3.51352">
        <ele>397.225</ele>
        <time>2017-04-01T16:52:47Z</time>
      </trkpt>
      <trkpt lat="43.89198" lon="3.51376">
        <ele>387.311</ele>
        <time>2017-04-01T16:53:07Z</time>
      </trkpt>
      <trkpt lat="43.89173" lon="3.51384">
        <ele>389.321</ele>
        <time>2017-04-01T16:53:27Z</time>
      </trkpt>
      <trkpt lat="43.89164" lon="3.51406">
        <ele>383.503</ele>
        <time>2017-04-01T16:53:47Z</time>
      </trkpt>
      <trkpt lat="43.89148" lon="3.51413">
        <ele>394.208</ele>
        <time>2017-04-01T16:54:07Z</time>
      </trkpt>
      <trkpt lat="43.89139" lon="3.51445">
        <ele>392.637</ele>
        <time>2017-04-01T16:54:27Z</time>
      </trkpt>
      <trkpt lat="43.89137" lon="3.51468">
        <ele>385.452</ele>
        <time>2017-04-01T16:54:47Z</time>
      </trkpt>
      <trkpt lat="43.89113" lon="3.5152">
        <ele>380.673</ele>
        <time>2017-04-01T16:55:07Z</time>
      </trkpt>
      <trkpt lat="43.89083" lon="3.51499">
        <ele>377.168</ele>
        <time>2017-04-01T16:55:27Z</time>
      </trkpt>
      <trkpt lat="43.89075" lon="3.51482">
        <ele>379.537</ele>
        <time>2017-04-01T16:55:47Z</time>
      </trkpt>
      <trkpt lat="43.89046" lon="3.51452">
        <ele>379.18</ele>
        <time>2017-04-01T16:56:07Z</time>
      </trkpt>
      <trkpt lat="43.89025" lon="3.51444">
        <ele>371.827</ele>
        <time>2017-04-01T16:56:27Z</time>
      </trkpt>
      <trkpt lat="43.88971" lon="3.51415">
        <ele>375.471</ele>
        <time>2017-04-01T16:56:47Z</time>
      </trkpt>
      <trkpt lat="43.88949" lon="3.51414">
        <ele>380.361</ele>
        <time>2017-04-01T16:57:07Z</time>
      </trkpt>
      <trkpt lat="43.88936" lon="3.51433">
        <ele>369.921</ele>
        <time>2017-04-01T16:57:27Z</time>
      </trkpt>
      <trkpt lat="43.8891" lon="3.51457">
        <ele>356.013</ele>
        <time>2017-04-01T16:57:47Z</time>
      </trkpt>
      <trkpt lat="43.88896" lon="3.51457">
        <ele>361.808</ele>
        <time>2017-04-01T16:58:07Z</time>
      </trkpt>
      <trkpt lat="43.88867" lon="3.51476">
        <ele>353.032</ele>
        <time>2017-04-01T16:58:27Z</time>
      </trkpt>
      <trkpt lat="43.88834" lon="3.51465">
        <ele>377.327</ele>
        <time>2017-04-01T16:58:47Z</time>
      </trkpt>
      <trkpt lat="43.88819" lon="3.51475">
        <ele>380.148</ele>
        <time>2017-04-01T16:59:07Z</time>
      </trkpt>
      <trkpt lat="43.88817" lon="3.51504">
        <ele>366.423</ele>
        <time>2017-04-01T16:59:27Z</time>
      </trkpt>
      <trkpt lat="43.888" lon="3.51508">
        <ele>374.372</ele>
        <time>2017-04-01T16:59:47Z</time>
      </trkpt>
      <trkpt lat="43.8878" lon="3.51521">
        <ele>379.785</ele>
        <time>2017-04-01T17:00:07Z</time>
      </trkpt>
      <trkpt lat="43.88772" lon="3.51539">
        <ele>375.842</ele>
        <time>2017-04-01T17:00:27Z</time>
      </trkpt>
      <trkpt lat="43.8875" lon="3.51575">
        <ele>379.156</ele>
        <time>2017-04-01T17:00:47Z</time>
      </trkpt>
      <trkpt lat="43.8874" lon="3.51603">
        <ele>372.677</ele>
        <time>2017-04-01T17:01:07Z</time>
      </trkpt>
      <trkpt lat="43.8871" lon="3.51612">
        <ele>373.561</ele>
        <time>2017-04-01T17:01:27Z</time>
      </trkpt>
      <trkpt lat="43.88696" lon="3.51604">
        <ele>380.727</ele>
        <time>2017-04-01T17:01:47Z</time>
      </trkpt>
      <trkpt lat="43.88675" lon="3.51645">
        <ele>384.808</ele>
        <time>2017-04-01T17:02:07Z</time>
      </trkpt>
      <trkpt lat="43.88675" lon="3.51701">
        <ele>379.013</ele>
        <time>2017-04-01T17:02:27Z</time>
      </trkpt>
      <trkpt lat="43.88656" lon="3.51731">
        <ele>383.118</ele>
        <time>2017-04-01T17:02:47Z</time>
      </trkpt>
      <trkpt lat="43.88649" lon="3.51789">
        <ele>376.369</ele>
        <time>2017-04-01T17:03:07Z</time>
      </trkpt>
      <trkpt lat="43.8863" lon="3.51812">
        <ele>385.544</ele>
        <time>2017-04-01T17:03:27Z</time>
      </trkpt>
      <trkpt lat="43.88628" lon="3.51872">
        <ele>380.923</ele>
        <time>2017-04-01T17:03:47Z</time>
      </trkpt>
      <trkpt lat="43.88622" lon="3.51894">
        <ele>377.356</ele>
        <time>2017-04-01T17:04:07Z</time>
      </trkpt>
      <trkpt lat="43.88623" lon="3.51923">
        <ele>365.613</ele>
        <time>2017-04-01T17:04:27Z</time>
      </trkpt>
      <trkpt lat="43.88605" lon="3.51931">
        <ele>363.217</ele>
        <time>2017-04-01T17:04:47Z</time>
      </trkpt>
      <trkpt lat="43.88576" lon="3.51929">
        <ele>367.016</ele>
        <time>2017-04-01T17:05:07Z</time>
      </trkpt>
      <trkpt lat="43.88558" lon="3.51947">
        <ele>358.876</ele>
        <time>2017-04-01T17:05:27Z</time>
      </trkpt>
      <trkpt lat="43.88536" lon="3.5194">
        <ele>372.113</ele>
        <time>2017-04-01T17:05:47Z</time>
      </trkpt>
      <trkpt lat="43.8849" lon="3.51974">
        <ele>360.208</ele>
        <time>2017-04-01T17:06:07Z</time>
      </trkpt>
      <trkpt lat="43.88472" lon="3.51975">
        <ele>357.087</ele>
        <time>2017-04-01T17:06:27Z</time>
      </trkpt>
      <trkpt lat="43.88449" lon="3.51909">
        <ele>356.852</ele>
        <time>2017-04-01T17:06:47Z</time>
      </trkpt>
      <trkpt lat="43.88434" lon="3.519">
        <ele>357.233</ele>
        <time>2017-04-01T17:07:07Z</time>
      </trkpt>
      <trkpt lat="43.88424" lon="3.51886">
        <ele>364.118</ele>
        <time>2017-04-01T17:07:27Z</time>
      </trkpt>
      <trkpt lat="43.88412" lon="3.51885">
        <ele>368.457</ele>
        <time>2017-04-01T17:07:47Z</time>
      </trkpt>
      <trkpt lat="43.88372" lon="3.51935">
        <ele>357.12</ele>
        <time>2017-04-01T17:08:07Z</time>
      </trkpt>
      <trkpt lat="43.88356" lon="3.51934">
        <ele>353.817</ele>
        <time>2017-04-01T17:08:27Z</time>
      </trkpt>
      <trkpt lat="43.8834" lon="3.51925">
        <ele>347.191</ele>
        <time>2017-04-01T17:08:47Z</time>
      </trkpt>
      <trkpt lat="43.88311" lon="3.51872">
        <ele>355.811</ele>
        <time>2017-04-01T17:09:07Z</time>
      </trkpt>
      <trkpt lat="43.88292" lon="3.51873">
        <ele>353.221</ele>
        <time>2017-04-01T17:09:27Z</time>
      </trkpt>
      <trkpt lat="43.88272" lon="3.51848">
        <ele>368.603</ele>
        <time>2017-04-01T17:09:47Z</time>
      </trkpt>
      <trkpt lat="43.88257" lon="3.51869">
        <ele>360.608</ele>
        <time>2017-04-01T17:10:07Z</time>
      </trkpt>
      <trkpt lat="43.88244" lon="3.51875">
        <ele>357.417</ele>
        <time>2017-04-01T17:10:27Z</time>
      </trkpt>
      <trkpt lat="43.88197" lon="3.51848">
        <ele>369.752</ele>
        <time>2017-04-01T17:10:47Z</time>
      </trkpt>
      <trkpt lat="43.8818" lon="3.51869">
        <ele>359.863</ele>
        <time>2017-04-01T17:11:07Z</time>
      </trkpt>
      <trkpt lat="43.88155" lon="3.51874">
        <ele>364.798</ele>
        <time>2017-04-01T17:11:27Z</time>
      </trkpt>
      <trkpt lat="43.88127" lon="3.51895">
        <ele>360.717</ele>
        <time>2017-04-01T17:11:47Z</time>
      </trkpt>
      <trkpt lat="43.88088" lon="3.51914">
        <ele>364.53</ele>
        <time>2017-04-01T17:12:07Z</time>
      </trkpt>
      <trkpt lat="43.88073" lon="3.51944">
        <ele>363.027</ele>
        <time>2017-04-01T17:12:27Z</time>
      </trkpt>
      <trkpt lat="43.88051" lon="3.51972">
        <ele>362.111</ele>
        <time>2017-04-01T17:12:47Z</time>
      </trkpt>
      <trkpt lat="43.88021" lon="3.52032">
        <ele>358.773</ele>
        <time>2017-04-01T17:13:07Z</time>
      </trkpt>
      <trkpt lat="43.88004" lon="3.52075">
        <ele>353.285</ele>
        <time>2017-04-01T17:13:27Z</time>
      </trkpt>
      <trkpt lat="43.87997" lon="3.52101">
        <ele>343.113</ele>
        <time>2017-04-01T17:13:47Z</time>
      </trkpt>
      <trkpt lat="43.87982" lon="3.52116">
        <ele>328.208</ele>
        <time>2017-04-01T17:14:07Z</time>
      </trkpt>
      <trkpt lat="43.87993" lon="3.52145">
        <ele>326.663</ele>
        <time>2017-04-01T17:14:27Z</time>
      </trkpt>
      <trkpt lat="43.87984" lon="3.52144">
        <ele>320.368</ele>
        <time>2017-04-01T17:14:47Z</time>
      </trkpt>
      <trkpt lat="43.87941" lon="3.52078">
        <ele>320.499</ele>
        <time>2017-04-01T17:15:07Z</time>
      </trkpt>
      <trkpt lat="43.87901" lon="3.5207">
        <ele>317.024</ele>
        <time>2017-04-01T17:15:27Z</time>
      </trkpt>
      <trkpt lat="43.87835" lon="3.52026">
        <ele>342.583</ele>
        <time>2017-04-01T17:15:47Z</time>
      </trkpt>
      <trkpt lat="43.87807" lon="3.52069">
        <ele>333.536</ele>
        <time>2017-04-01T17:16:07Z</time>
      </trkpt>
      <trkpt lat="43.87795" lon="3.52095">
        <ele>322.243</ele>
        <time>2017-04-01T17:16:27Z</time>
      </trkpt>
      <trkpt lat="43.87776" lon="3.52108">
        <ele>326.887</ele>
        <time>2017-04-01T17:16:47Z</time>
      </trkpt>
      <trkpt lat="43.87767" lon="3.52125">
        <ele>315.876</ele>
        <time>2017-04-01T17:17:07Z</time>
      </trkpt>
      <trkpt lat="43.87739" lon="3.52131">
        <ele>328.39</ele>
        <time>2017-04-01T17:17:27Z</time>
      </trkpt>
      <trkpt lat="43.87707" lon="3.5215">
        <ele>338.419</ele>
        <time>2017-04-01T17:17:47Z</time>
      </trkpt>
      <trkpt lat="43.87695" lon="3.52172">
        <ele>339.808</ele>
        <time>2017-04-01T17:18:07Z</time>
      </trkpt>
      <trkpt lat="43.87692" lon="3.52212">
        <ele>329.473</ele>
        <time>2017-04-01T17:18:27Z</time>
      </trkpt>
      <trkpt lat="43.87678" lon="3.52215">
        <ele>324.918</ele>
        <time>2017-04-01T17:18:47Z</time>
      </trkpt>
      <trkpt lat="43.87628" lon="3.52153">
        <ele>319.449</ele>
        <time>2017-04-01T17:19:07Z</time>
      </trkpt>
      <trkpt lat="43.87619" lon="3.5213">
        <ele>324.054</ele>
        <time>2017-04-01T17:19:27Z</time>
      </trkpt>
      <trkpt lat="43.87566" lon="3.52091">
        <ele>321.283</ele>
        <time>2017-04-01T17:19:47Z</time>
      </trkpt>
      <trkpt lat="43.87542" lon="3.52082">
        <ele>323.836</ele>
        <time>2017-04-01T17:20:07Z</time>
      </trkpt>
      <trkpt lat="43.8752" lon="3.52098">
        <ele>310.843</ele>
        <time>2017-04-01T17:20:27Z</time>
      </trkpt>
      <trkpt lat="43.8751" lon="3.52093">
        <ele>313.747</ele>
        <time>2017-04-01T17:20:47Z</time>
      </trkpt>
      <trkpt lat="43.87499" lon="3.52058">
        <ele>327.443</ele>
        <time>2017-04-01T17:21:07Z</time>
      </trkpt>
      <trkpt lat="43.87481" lon="3.52059">
        <ele>333.364</ele>
        <time>2017-04-01T17:21:27Z</time>
      </trkpt>
      <trkpt lat="43.87443" lon="3.52098">
        <ele>332.21</ele>
        <time>2017-04-01T17:21:47Z</time>
      </trkpt>
      <trkpt lat="43.87407" lon="3.52149">
        <ele>317.908</ele>
        <time>2017-04-01T17:22:07Z</time>
      </trkpt>
      <trkpt lat="43.87381" lon="3.52146">
        <ele>320.86</ele>
        <time>2017-04-01T17:22:27Z</time>
      </trkpt>
      <trkpt lat="43.87354" lon="3.5212">
        <ele>320.875</ele>
        <time>2017-04-01T17:22:47Z</time>
      </trkpt>
      <trkpt lat="43.87345" lon="3.52092">
        <ele>321.536</ele>
        <time>2017-04-01T17:23:07Z</time>
      </trkpt>
      <trkpt lat="43.87339" lon="3.52005">
        <ele>327.051</ele>
        <time>2017-04-01T17:23:27Z</time>
      </trkpt>
      <trkpt lat="43.87307" lon="3.52006">
        <ele>315.24</ele>
        <time>2017-04-01T17:23:47Z</time>
      </trkpt>
      <trkpt lat="43.87293" lon="3.51994">
        <ele>315.883</ele>
        <time>2017-04-01T17:24:07Z</time>
      </trkpt>
      <trkpt lat="43.87277" lon="3.51959">
        <ele>318.43</ele>
        <time>2017-04-01T17:24:27Z</time>
      </trkpt>
      <trkpt lat="43.87193" lon="3.51855">
        <ele>311.134</ele>
        <time>2017-04-01T17:24:47Z</time>
      </trkpt>
      <trkpt lat="43.87193" lon="3.51832">
        <ele>321.488</ele>
        <time>2017-04-01T17:25:07Z</time>
      </trkpt>
      <trkpt lat="43.87172" lon="3.51792">
        <ele>328.824</ele>
        <time>2017-04-01T17:25:27Z</time>
      </trkpt>
      <trkpt lat="43.87159" lon="3.51794">
        <ele>330.226</ele>
        <time>2017-04-01T17:25:47Z</time>
      </trkpt>
      <trkpt lat="43.87145" lon="3.51817">
        <ele>324.408</ele>
        <time>2017-04-01T17:26:07Z</time>
      </trkpt>
      <trkpt lat="43.87084" lon="3.51879">
        <ele>322.254</ele>
        <time>2017-04-01T17:26:27Z</time>
      </trkpt>
      <trkpt lat="43.87058" lon="3.51889">
        <ele>315.929</ele>
        <time>2017-04-01T17:26:47Z</time>
      </trkpt>
      <trkpt lat="43.8705" lon="3.51878">
        <ele>320.15</ele>
        <time>2017-04-01T17:27:07Z</time>
      </trkpt>
      <trkpt lat="43.87041" lon="3.51855">
        <ele>329.175</ele>
        <time>2017-04-01T17:27:27Z</time>
      </trkpt>
      <trkpt lat="43.87032" lon="3.51852">
        <ele>328.694</ele>
        <time>2017-04-01T17:27:47Z</time>
      </trkpt>
      <trkpt lat="43.86991" lon="3.51909">
        <ele>331.237</ele>
        <time>2017-04-01T17:28:07Z</time>
      </trkpt>
      <trkpt lat="43.86979" lon="3.51969">
        <ele>328.364</ele>
        <time>2017-04-01T17:28:27Z</time>
      </trkpt>
      <trkpt lat="43.86918" lon="3.52118">
        <ele>319.968</ele>
        <time>2017-04-01T17:28:47Z</time>
      </trkpt>
      <trkpt lat="43.86905" lon="3.52199">
        <ele>303.217</ele>
        <time>2017-04-01T17:29:07Z</time>
      </trkpt>
      <trkpt lat="43.86895" lon="3.52213">
        <ele>301.887</ele>
        <time>2017-04-01T17:29:27Z</time>
      </trkpt>
      <trkpt lat="43.86877" lon="3.52225">
        <ele>297.615</ele>
        <time>2017-04-01T17:29:47Z</time>
      </trkpt>
      <trkpt lat="43.86839" lon="3.52219">
        <ele>298.208</ele>
        <time>2017-04-01T17:30:07Z</time>
      </trkpt>
      <trkpt lat="43.86825" lon="3.52225">
        <ele>293.077</ele>
        <time>2017-04-01T17:30:27Z</time>
      </trkpt>
      <trkpt lat="43.86798" lon="3.52218">
        <ele>291.372</ele>
        <time>2017-04-01T17:30:47Z</time>
      </trkpt>
      <trkpt lat="43.86757" lon="3.52219">
        <ele>284.663</ele>
        <time>2017-04-01T17:31:07Z</time>
      </trkpt>
      <trkpt lat="43.86689" lon="3.52185">
        <ele>281.798</ele>
        <time>2017-04-01T17:31:27Z</time>
      </trkpt>
      <trkpt lat="43.86662" lon="3.5216">
        <ele>278.077</ele>
        <time>2017-04-01T17:31:47Z</time>
      </trkpt>
      <trkpt lat="43.86607" lon="3.52063">
        <ele>274.86</ele>
        <time>2017-04-01T17:32:07Z</time>
      </trkpt>
      <trkpt lat="43.86577" lon="3.51961">
        <ele>269.267</ele>
        <time>2017-04-01T17:32:27Z</time>
      </trkpt>
      <trkpt lat="43.86562" lon="3.51896">
        <ele>266.821</ele>
        <time>2017-04-01T17:32:47Z</time>
      </trkpt>
      <trkpt lat="43.86541" lon="3.51847">
        <ele>267.816</ele>
        <time>2017-04-01T17:33:07Z</time>
      </trkpt>
      <trkpt lat="43.86522" lon="3.51816">
        <ele>267.276</ele>
        <time>2017-04-01T17:33:27Z</time>
      </trkpt>
      <trkpt lat="43.8649" lon="3.5178">
        <ele>266.713</ele>
        <time>2017-04-01T17:33:47Z</time>
      </trkpt>
      <trkpt lat="43.86471" lon="3.5179">
        <ele>263.508</ele>
        <time>2017-04-01T17:34:07Z</time>
      </trkpt>
      <trkpt lat="43.86394" lon="3.51799">
        <ele>266.337</ele>
        <time>2017-04-01T17:34:27Z</time>
      </trkpt>
      <trkpt lat="43.86361" lon="3.51808">
        <ele>266.632</ele>
        <time>2017-04-01T17:34:47Z</time>
      </trkpt>
      <trkpt lat="43.86345" lon="3.5183">
        <ele>263.033</ele>
        <time>2017-04-01T17:35:07Z</time>
      </trkpt>
      <trkpt lat="43.86314" lon="3.51853">
        <ele>262.968</ele>
        <time>2017-04-01T17:35:27Z</time>
      </trkpt>
      <trkpt lat="43.86287" lon="3.51858">
        <ele>267.837</ele>
        <time>2017-04-01T17:35:47Z</time>
      </trkpt>
      <trkpt lat="43.86293" lon="3.51924">
        <ele>264.75</ele>
        <time>2017-04-01T17:36:07Z</time>
      </trkpt>
      <trkpt lat="43.86279" lon="3.51985">
        <ele>269.677</ele>
        <time>2017-04-01T17:36:27Z</time>
      </trkpt>
      <trkpt lat="43.86284" lon="3.52018">
        <ele>266.221</ele>
        <time>2017-04-01T17:36:47Z</time>
      </trkpt>
      <trkpt lat="43.86311" lon="3.52113">
        <ele>265.143</ele>
        <time>2017-04-01T17:37:07Z</time>
      </trkpt>
      <trkpt lat="43.86345" lon="3.52204">
        <ele>261.664</ele>
        <time>2017-04-01T17:37:27Z</time>
      </trkpt>
      <trkpt lat="43.86377" lon="3.52273">
        <ele>256.51</ele>
        <time>2017-04-01T17:37:47Z</time>
      </trkpt>
      <trkpt lat="43.86381" lon="3.52328">
        <ele>260.308</ele>
        <time>2017-04-01T17:38:07Z</time>
      </trkpt>
      <trkpt lat="43.86377" lon="3.52364">
        <ele>260.61</ele>
        <time>2017-04-01T17:38:27Z</time>
      </trkpt>
      <trkpt lat="43.86365" lon="3.52395">
        <ele>259.255</ele>
        <time>2017-04-01T17:38:47Z</time>
      </trkpt>
      <trkpt lat="43.8632" lon="3.52424">
        <ele>261.226</ele>
        <time>2017-04-01T17:39:07Z</time>
      </trkpt>
      <trkpt lat="43.86302" lon="3.52428">
        <ele>262.311</ele>
        <time>2017-04-01T17:39:27Z</time>
      </trkpt>
      <trkpt lat="43.86277" lon="3.52403">
        <ele>278.93</ele>
        <time>2017-04-01T17:39:47Z</time>
      </trkpt>
      <trkpt lat="43.86254" lon="3.5243">
        <ele>272.033</ele>
        <time>2017-04-01T17:40:07Z</time>
      </trkpt>
      <trkpt lat="43.86247" lon="3.52473">
        <ele>262.61</ele>
        <time>2017-04-01T17:40:27Z</time>
      </trkpt>
      <trkpt lat="43.86211" lon="3.5251">
        <ele>270.754</ele>
        <time>2017-04-01T17:40:47Z</time>
      </trkpt>
      <trkpt lat="43.8616" lon="3.52583">
        <ele>273.432</ele>
        <time>2017-04-01T17:41:07Z</time>
      </trkpt>
      <trkpt lat="43.86135" lon="3.52616">
        <ele>276.792</ele>
        <time>2017-04-01T17:41:27Z</time>
      </trkpt>
      <trkpt lat="43.86104" lon="3.52658">
        <ele>273.911</ele>
        <time>2017-04-01T17:41:47Z</time>
      </trkpt>
      <trkpt lat="43.86082" lon="3.52667">
        <ele>278.908</ele>
        <time>2017-04-01T17:42:07Z</time>
      </trkpt>
      <trkpt lat="43.86039" lon="3.52667">
        <ele>280.519</ele>
        <time>2017-04-01T17:42:27Z</time>
      </trkpt>
      <trkpt lat="43.86019" lon="3.52654">
        <ele>280.774</ele>
        <time>2017-04-01T17:42:47Z</time>
      </trkpt>
      <trkpt lat="43.85993" lon="3.52602">
        <ele>287.565</ele>
        <time>2017-04-01T17:43:07Z</time>
      </trkpt>
      <trkpt lat="43.85953" lon="3.52571">
        <ele>278.03</ele>
        <time>2017-04-01T17:43:27Z</time>
      </trkpt>
      <trkpt lat="43.85923" lon="3.52526">
        <ele>271.659</ele>
        <time>2017-04-01T17:43:47Z</time>
      </trkpt>
      <trkpt lat="43.85959" lon="3.5255">
        <ele>290.112</ele>
        <time>2017-04-01T17:44:07Z</time>
      </trkpt>
      <trkpt lat="43.85994" lon="3.52583">
        <ele>295.219</ele>
        <time>2017-04-01T17:44:27Z</time>
      </trkpt>
      <trkpt lat="43.86028" lon="3.52627">
        <ele>295.173</ele>
        <time>2017-04-01T17:44:47Z</time>
      </trkpt>
      <trkpt lat="43.86041" lon="3.52625">
        <ele>299.632</ele>
        <time>2017-04-01T17:45:07Z</time>
      </trkpt>
      <trkpt lat="43.8598" lon="3.52532">
        <ele>308.292</ele>
        <time>2017-04-01T17:45:27Z</time>
      </trkpt>
      <trkpt lat="43.8597" lon="3.52495">
        <ele>315.711</ele>
        <time>2017-04-01T17:45:47Z</time>
      </trkpt>
      <trkpt lat="43.86022" lon="3.52533">
        <ele>330.308</ele>
        <time>2017-04-01T17:46:07Z</time>
      </trkpt>
      <trkpt lat="43.86038" lon="3.52561">
        <ele>325.279</ele>
        <time>2017-04-01T17:46:27Z</time>
      </trkpt>
      <trkpt lat="43.86052" lon="3.52573">
        <ele>324.384</ele>
        <time>2017-04-01T17:46:47Z</time>
      </trkpt>
      <trkpt lat="43.86072" lon="3.52563">
        <ele>325.875</ele>
        <time>2017-04-01T17:47:07Z</time>
      </trkpt>
      <trkpt lat="43.86091" lon="3.52536">
        <ele>332.09</ele>
        <time>2017-04-01T17:47:27Z</time>
      </trkpt>
      <trkpt lat="43.86073" lon="3.52543">
        <ele>334.639</ele>
        <time>2017-04-01T17:47:47Z</time>
      </trkpt>
      <trkpt lat="43.86056" lon="3.52542">
        <ele>338.542</ele>
        <time>2017-04-01T17:48:07Z</time>
      </trkpt>
      <trkpt lat="43.8601" lon="3.52466">
        <ele>351.289</ele>
        <time>2017-04-01T17:48:27Z</time>
      </trkpt>
      <trkpt lat="43.86" lon="3.52438">
        <ele>353.183</ele>
        <time>2017-04-01T17:48:47Z</time>
      </trkpt>
      <trkpt lat="43.86026" lon="3.52466">
        <ele>361.421</ele>
        <time>2017-04-01T17:49:07Z</time>
      </trkpt>
      <trkpt lat="43.86054" lon="3.52484">
        <ele>363.341</ele>
        <time>2017-04-01T17:49:27Z</time>
      </trkpt>
      <trkpt lat="43.86013" lon="3.52422">
        <ele>366.905</ele>
        <time>2017-04-01T17:49:47Z</time>
      </trkpt>
      <trkpt lat="43.85968" lon="3.52284">
        <ele>379.008</ele>
        <time>2017-04-01T17:50:07Z</time>
      </trkpt>
      <trkpt lat="43.85951" lon="3.52259">
        <ele>377.218</ele>
        <time>2017-04-01T17:50:27Z</time>
      </trkpt>
      <trkpt lat="43.85897" lon="3.52244">
        <ele>373.033</ele>
        <time>2017-04-01T17:50:47Z</time>
      </trkpt>
      <trkpt lat="43.85849" lon="3.52213">
        <ele>387.614</ele>
        <time>2017-04-01T17:51:07Z</time>
      </trkpt>
      <trkpt lat="43.85853" lon="3.52197">
        <ele>395.749</ele>
        <time>2017-04-01T17:51:27Z</time>
      </trkpt>
      <trkpt lat="43.85918" lon="3.52207">
        <ele>398.038</ele>
        <time>2017-04-01T17:51:47Z</time>
      </trkpt>
      <trkpt lat="43.85964" lon="3.52229">
        <ele>401.871</ele>
        <time>2017-04-01T17:52:07Z</time>
      </trkpt>
      <trkpt lat="43.85997" lon="3.52271">
        <ele>407.348</ele>
        <time>2017-04-01T17:52:27Z</time>
      </trkpt>
      <trkpt lat="43.86036" lon="3.52341">
        <ele>411.452</ele>
        <time>2017-04-01T17:52:47Z</time>
      </trkpt>
      <trkpt lat="43.86056" lon="3.52366">
        <ele>411.664</ele>
        <time>2017-04-01T17:53:07Z</time>
      </trkpt>
      <trkpt lat="43.86066" lon="3.52367">
        <ele>407.106</ele>
        <time>2017-04-01T17:53:27Z</time>
      </trkpt>
      <trkpt lat="43.86058" lon="3.52356">
        <ele>414.516</ele>
        <time>2017-04-01T17:53:47Z</time>
      </trkpt>
      <trkpt lat="43.86041" lon="3.5231">
        <ele>422.108</ele>
        <time>2017-04-01T17:54:07Z</time>
      </trkpt>
      <trkpt lat="43.86027" lon="3.5225">
        <ele>433.632</ele>
        <time>2017-04-01T17:54:27Z</time>
      </trkpt>
      <trkpt lat="43.86008" lon="3.52196">
        <ele>439.937</ele>
        <time>2017-04-01T17:54:47Z</time>
      </trkpt>
      <trkpt lat="43.85982" lon="3.52156">
        <ele>446.488</ele>
        <time>2017-04-01T17:55:07Z</time>
      </trkpt>
      <trkpt lat="43.85916" lon="3.52108">
        <ele>455.473</ele>
        <time>2017-04-01T17:55:27Z</time>
      </trkpt>
      <trkpt lat="43.85973" lon="3.52118">
        <ele>462.072</ele>
        <time>2017-04-01T17:55:47Z</time>
      </trkpt>
      <trkpt lat="43.86016" lon="3.52132">
        <ele>465.715</ele>
        <time>2017-04-01T17:56:07Z</time>
      </trkpt>
      <trkpt lat="43.8603" lon="3.52127">
        <ele>468.692</ele>
        <time>2017-04-01T17:56:27Z</time>
      </trkpt>
      <trkpt lat="43.86014" lon="3.52075">
        <ele>482.376</ele>
        <time>2017-04-01T17:56:47Z</time>
      </trkpt>
      <trkpt lat="43.85994" lon="3.52045">
        <ele>494.442</ele>
        <time>2017-04-01T17:57:07Z</time>
      </trkpt>
      <trkpt lat="43.85995" lon="3.5203">
        <ele>496.222</ele>
        <time>2017-04-01T17:57:27Z</time>
      </trkpt>
      <trkpt lat="43.85978" lon="3.52019">
        <ele>503.414</ele>
        <time>2017-04-01T17:57:47Z</time>
      </trkpt>
      <trkpt lat="43.85955" lon="3.51978">
        <ele>519.308</ele>
        <time>2017-04-01T17:58:07Z</time>
      </trkpt>
      <trkpt lat="43.85938" lon="3.5198">
        <ele>523.17</ele>
        <time>2017-04-01T17:58:27Z</time>
      </trkpt>
      <trkpt lat="43.85886" lon="3.51963">
        <ele>528.235</ele>
        <time>2017-04-01T17:58:47Z</time>
      </trkpt>
      <trkpt lat="43.85855" lon="3.51931">
        <ele>534.476</ele>
        <time>2017-04-01T17:59:07Z</time>
      </trkpt>
      <trkpt lat="43.85838" lon="3.51907">
        <ele>536.441</ele>
        <time>2017-04-01T17:59:27Z</time>
      </trkpt>
      <trkpt lat="43.8585" lon="3.51907">
        <ele>541.49</ele>
        <time>2017-04-01T17:59:47Z</time>
      </trkpt>
      <trkpt lat="43.85872" lon="3.51924">
        <ele>543.083</ele>
        <time>2017-04-01T18:00:07Z</time>
      </trkpt>
      <trkpt lat="43.8584" lon="3.51868">
        <ele>549.97</ele>
        <time>2017-04-01T18:00:27Z</time>
      </trkpt>
      <trkpt lat="43.85812" lon="3.51792">
        <ele>561.054</ele>
        <time>2017-04-01T18:00:47Z</time>
      </trkpt>
      <trkpt lat="43.85704" lon="3.51884">
        <ele>568.493</ele>
        <time>2017-04-01T18:01:07Z</time>
      </trkpt>
      <trkpt lat="43.85606" lon="3.51897">
        <ele>570.065</ele>
        <time>2017-04-01T18:01:27Z</time>
      </trkpt>
      <trkpt lat="43.85496" lon="3.5197">
        <ele>570.021</ele>
        <time>2017-04-01T18:01:47Z</time>
      </trkpt>
      <trkpt lat="43.85458" lon="3.52004">
        <ele>570.508</ele>
        <time>2017-04-01T18:02:07Z</time>
      </trkpt>
      <trkpt lat="43.85436" lon="3.52006">
        <ele>571.035</ele>
        <time>2017-04-01T18:02:27Z</time>
      </trkpt>
      <trkpt lat="43.85392" lon="3.52031">
        <ele>571.82</ele>
        <time>2017-04-01T18:02:47Z</time>
      </trkpt>
      <trkpt lat="43.85349" lon="3.52051">
        <ele>572.581</ele>
        <time>2017-04-01T18:03:07Z</time>
      </trkpt>
      <trkpt lat="43.85193" lon="3.52066">
        <ele>576.136</ele>
        <time>2017-04-01T18:03:27Z</time>
      </trkpt>
      <trkpt lat="43.85104" lon="3.52083">
        <ele>579.035</ele>
        <time>2017-04-01T18:03:47Z</time>
      </trkpt>
      <trkpt lat="43.85091" lon="3.52094">
        <ele>579.428</ele>
        <time>2017-04-01T18:04:07Z</time>
      </trkpt>
      <trkpt lat="43.85073" lon="3.52094">
        <ele>579.415</ele>
        <time>2017-04-01T18:04:27Z</time>
      </trkpt>
      <trkpt lat="43.8502" lon="3.5207">
        <ele>579.359</ele>
        <time>2017-04-01T18:04:47Z</time>
      </trkpt>
      <trkpt lat="43.84985" lon="3.52041">
        <ele>580.648</ele>
        <time>2017-04-01T18:05:07Z</time>
      </trkpt>
      <trkpt lat="43.84969" lon="3.52036">
        <ele>581.161</ele>
        <time>2017-04-01T18:05:27Z</time>
      </trkpt>
      <trkpt lat="43.8494" lon="3.52009">
        <ele>583.017</ele>
        <time>2017-04-01T18:05:47Z</time>
      </trkpt>
      <trkpt lat="43.84891" lon="3.51949">
        <ele>585.008</ele>
        <time>2017-04-01T18:06:07Z</time>
      </trkpt>
      <trkpt lat="43.84888" lon="3.51928">
        <ele>585.06</ele>
        <time>2017-04-01T18:06:27Z</time>
      </trkpt>
      <trkpt lat="43.84833" lon="3.5188">
        <ele>585.085</ele>
        <time>2017-04-01T18:06:47Z</time>
      </trkpt>
      <trkpt lat="43.84811" lon="3.51882">
        <ele>584.816</ele>
        <time>2017-04-01T18:07:07Z</time>
      </trkpt>
      <trkpt lat="43.84793" lon="3.51877">
        <ele>583.771</ele>
        <time>2017-04-01T18:07:27Z</time>
      </trkpt>
      <trkpt lat="43.84771" lon="3.51828">
        <ele>580.78</ele>
        <time>2017-04-01T18:07:47Z</time>
      </trkpt>
      <trkpt lat="43.8473" lon="3.51812">
        <ele>580.053</ele>
        <time>2017-04-01T18:08:07Z</time>
      </trkpt>
      <trkpt lat="43.84686" lon="3.51822">
        <ele>576.11</ele>
        <time>2017-04-01T18:08:27Z</time>
      </trkpt>
      <trkpt lat="43.84677" lon="3.51786">
        <ele>575.124</ele>
        <time>2017-04-01T18:08:47Z</time>
      </trkpt>
      <trkpt lat="43.84667" lon="3.51762">
        <ele>574.687</ele>
        <time>2017-04-01T18:09:07Z</time>
      </trkpt>
      <trkpt lat="43.84631" lon="3.51775">
        <ele>574.642</ele>
        <time>2017-04-01T18:09:27Z</time>
      </trkpt>
      <trkpt lat="43.84614" lon="3.51763">
        <ele>575.426</ele>
        <time>2019-03-28T23:44:14Z</time>
      </trkpt>
      <trkpt lat="43.84569" lon="3.51687">
        <ele>580.708</ele>
        <time>2019-03-28T23:44:34Z</time>
      </trkpt>
      <trkpt lat="43.845" lon="3.51472">
        <ele>578.044</ele>
        <time>2019-03-28T23:44:54Z</time>
      </trkpt>
      <trkpt lat="43.84481" lon="3.51449">
        <ele>576.549</ele>
        <time>2019-03-28T23:45:14Z</time>
      </trkpt>
      <trkpt lat="43.84469" lon="3.51398">
        <ele>575.09</ele>
        <time>2017-04-01T18:11:07Z</time>
      </trkpt>
      <trkpt lat="43.84458" lon="3.51322">
        <ele>575.265</ele>
        <time>2017-04-01T18:11:27Z</time>
      </trkpt>
      <trkpt lat="43.84391" lon="3.51261">
        <ele>578.794</ele>
        <time>2017-04-01T18:11:47Z</time>
      </trkpt>
      <trkpt lat="43.8437" lon="3.51145">
        <ele>580.097</ele>
        <time>2017-04-01T18:12:07Z</time>
      </trkpt>
      <trkpt lat="43.84363" lon="3.51073">
        <ele>578.164</ele>
        <time>2017-04-01T18:12:27Z</time>
      </trkpt>
      <trkpt lat="43.84347" lon="3.50983">
        <ele>574.968</ele>
        <time>2017-04-01T18:12:47Z</time>
      </trkpt>
      <trkpt lat="43.84331" lon="3.50778">
        <ele>570.955</ele>
        <time>2017-04-01T18:13:07Z</time>
      </trkpt>
      <trkpt lat="43.84337" lon="3.50628">
        <ele>569.007</ele>
        <time>2017-04-01T18:13:27Z</time>
      </trkpt>
      <trkpt lat="43.84364" lon="3.50403">
        <ele>566.017</ele>
        <time>2017-04-01T18:13:47Z</time>
      </trkpt>
      <trkpt lat="43.8437" lon="3.50293">
        <ele>565.008</ele>
        <time>2017-04-01T18:14:07Z</time>
      </trkpt>
      <trkpt lat="43.8434" lon="3.50168">
        <ele>565.061</ele>
        <time>2017-04-01T18:14:27Z</time>
      </trkpt>
      <trkpt lat="43.84323" lon="3.49871">
        <ele>572.936</ele>
        <time>2017-04-01T18:14:47Z</time>
      </trkpt>
      <trkpt lat="43.843" lon="3.4972">
        <ele>571.127</ele>
        <time>2017-04-01T18:15:07Z</time>
      </trkpt>
      <trkpt lat="43.84325" lon="3.49527">
        <ele>563.722</ele>
        <time>2017-04-01T18:15:27Z</time>
      </trkpt>
      <trkpt lat="43.84255" lon="3.49205">
        <ele>561.441</ele>
        <time>2017-04-01T18:15:47Z</time>
      </trkpt>
      <trkpt lat="43.84273" lon="3.4885">
        <ele>567.494</ele>
        <time>2017-04-01T18:16:07Z</time>
      </trkpt>
      <trkpt lat="43.84196" lon="3.4885">
        <ele>567.441</ele>
        <time>2017-04-01T18:16:27Z</time>
      </trkpt>
      <trkpt lat="43.84139" lon="3.48813">
        <ele>567.045</ele>
        <time>2017-04-01T18:16:47Z</time>
      </trkpt>
      <trkpt lat="43.84125" lon="3.48706">
        <ele>569.012</ele>
        <time>2017-04-01T18:17:07Z</time>
      </trkpt>
      <trkpt lat="43.84113" lon="3.48563">
        <ele>576.432</ele>
        <time>2017-04-01T18:17:27Z</time>
      </trkpt>
      <trkpt lat="43.84088" lon="3.48522">
        <ele>578.305</ele>
        <time>2017-04-01T18:17:47Z</time>
      </trkpt>
      <trkpt lat="43.84069" lon="3.4839">
        <ele>601.308</ele>
        <time>2017-04-01T18:18:07Z</time>
      </trkpt>
      <trkpt lat="43.84051" lon="3.4833">
        <ele>610.887</ele>
        <time>2017-04-01T18:18:27Z</time>
      </trkpt>
      <trkpt lat="43.84043" lon="3.48312">
        <ele>613.392</ele>
        <time>2017-04-01T18:18:47Z</time>
      </trkpt>
      <trkpt lat="43.84017" lon="3.48227">
        <ele>618.263</ele>
        <time>2017-04-01T18:19:07Z</time>
      </trkpt>
      <trkpt lat="43.84008" lon="3.48102">
        <ele>627.978</ele>
        <time>2017-04-01T18:19:27Z</time>
      </trkpt>
      <trkpt lat="43.84003" lon="3.48056">
        <ele>630.527</ele>
        <time>2017-04-01T18:19:47Z</time>
      </trkpt>
      <trkpt lat="43.83987" lon="3.48056">
        <ele>628.67</ele>
        <time>2017-04-01T18:20:07Z</time>
      </trkpt>
      <trkpt lat="43.83968" lon="3.48068">
        <ele>624.157</ele>
        <time>2017-04-01T18:20:27Z</time>
      </trkpt>
      <trkpt lat="43.83902" lon="3.48085">
        <ele>624.351</ele>
        <time>2017-04-01T18:20:47Z</time>
      </trkpt>
      <trkpt lat="43.83829" lon="3.48062">
        <ele>633.289</ele>
        <time>2017-04-01T18:21:07Z</time>
      </trkpt>
      <trkpt lat="43.83822" lon="3.48038">
        <ele>635.606</ele>
        <time>2017-04-01T18:21:27Z</time>
      </trkpt>
      <trkpt lat="43.83749" lon="3.4798">
        <ele>633.326</ele>
        <time>2017-04-01T18:21:47Z</time>
      </trkpt>
      <trkpt lat="43.83729" lon="3.47955">
        <ele>632.108</ele>
        <time>2017-04-01T18:22:07Z</time>
      </trkpt>
      <trkpt lat="43.83715" lon="3.47945">
        <ele>630.654</ele>
        <time>2017-04-01T18:22:27Z</time>
      </trkpt>
      <trkpt lat="43.83692" lon="3.47919">
        <ele>627.479</ele>
        <time>2017-04-01T18:22:47Z</time>
      </trkpt>
      <trkpt lat="43.8363" lon="3.47882">
        <ele>617.75</ele>
        <time>2017-04-01T18:23:07Z</time>
      </trkpt>
      <trkpt lat="43.83616" lon="3.47835">
        <ele>617.975</ele>
        <time>2017-04-01T18:23:27Z</time>
      </trkpt>
      <trkpt lat="43.83601" lon="3.47842">
        <ele>617.274</ele>
        <time>2017-04-01T18:23:47Z</time>
      </trkpt>
      <trkpt lat="43.83586" lon="3.47905">
        <ele>613.647</ele>
        <time>2017-04-01T18:24:07Z</time>
      </trkpt>
      <trkpt lat="43.83546" lon="3.4799">
        <ele>614.354</ele>
        <time>2017-04-01T18:24:27Z</time>
      </trkpt>
      <trkpt lat="43.83502" lon="3.48036">
        <ele>615.218</ele>
        <time>2017-04-01T18:24:47Z</time>
      </trkpt>
      <trkpt lat="43.83469" lon="3.48089">
        <ele>611.779</ele>
        <time>2017-04-01T18:25:07Z</time>
      </trkpt>
      <trkpt lat="43.83393" lon="3.4811">
        <ele>610.005</ele>
        <time>2017-04-01T18:25:27Z</time>
      </trkpt>
      <trkpt lat="43.83323" lon="3.48117">
        <ele>609.925</ele>
        <time>2017-04-01T18:25:47Z</time>
      </trkpt>
      <trkpt lat="43.8329" lon="3.4813">
        <ele>608.008</ele>
        <time>2017-04-01T18:26:07Z</time>
      </trkpt>
      <trkpt lat="43.83255" lon="3.48119">
        <ele>606.853</ele>
        <time>2017-04-01T18:26:27Z</time>
      </trkpt>
      <trkpt lat="43.83217" lon="3.48129">
        <ele>606.268</ele>
        <time>2017-04-01T18:26:47Z</time>
      </trkpt>
      <trkpt lat="43.83197" lon="3.48117">
        <ele>608.079</ele>
        <time>2017-04-01T18:27:07Z</time>
      </trkpt>
      <trkpt lat="43.83186" lon="3.48116">
        <ele>608.024</ele>
        <time>2020-11-30T23:31:28Z</time>
      </trkpt>
      <trkpt lat="43.83155" lon="3.48062">
        <ele>609.313</ele>
        <time>2020-11-30T23:31:48Z</time>
      </trkpt>
      <trkpt lat="43.83153" lon="3.47967">
        <ele>612.846</ele>
        <time>2020-11-30T23:32:08Z</time>
      </trkpt>
      <trkpt lat="43.83119" lon="3.47924">
        <ele>608.343</ele>
        <time>2020-11-30T23:32:28Z</time>
      </trkpt>
      <trkpt lat="43.82909" lon="3.47859">
        <ele>578.447</ele>
        <time>2017-04-01T18:29:27Z</time>
      </trkpt>
      <trkpt lat="43.82886" lon="3.47851">
        <ele>577.167</ele>
        <time>2017-04-01T18:29:47Z</time>
      </trkpt>
      <trkpt lat="43.82867" lon="3.47862">
        <ele>575.481</ele>
        <time>2017-04-01T18:30:07Z</time>
      </trkpt>
      <trkpt lat="43.82792" lon="3.47846">
        <ele>575.019</ele>
        <time>2017-04-01T18:30:27Z</time>
      </trkpt>
      <trkpt lat="43.82715" lon="3.47833">
        <ele>575.008</ele>
        <time>2017-04-01T18:30:47Z</time>
      </trkpt>
      <trkpt lat="43.82678" lon="3.47813">
        <ele>576.412</ele>
        <time>2017-04-01T18:31:07Z</time>
      </trkpt>
      <trkpt lat="43.82644" lon="3.47807">
        <ele>576.117</ele>
        <time>2017-04-01T18:31:27Z</time>
      </trkpt>
      <trkpt lat="43.82622" lon="3.47798">
        <ele>576.468</ele>
        <time>2017-04-01T18:31:47Z</time>
      </trkpt>
      <trkpt lat="43.82563" lon="3.478">
        <ele>575.493</ele>
        <time>2017-04-01T18:32:07Z</time>
      </trkpt>
      <trkpt lat="43.82529" lon="3.47806">
        <ele>575.082</ele>
        <time>2017-04-01T18:32:27Z</time>
      </trkpt>
      <trkpt lat="43.82434" lon="3.47807">
        <ele>575.045</ele>
        <time>2017-04-01T18:32:47Z</time>
      </trkpt>
      <trkpt lat="43.82364" lon="3.47757">
        <ele>575.112</ele>
        <time>2017-04-01T18:33:07Z</time>
      </trkpt>
      <trkpt lat="43.823" lon="3.47753">
        <ele>575.036</ele>
        <time>2017-04-01T18:33:27Z</time>
      </trkpt>
      <trkpt lat="43.82234" lon="3.47706">
        <ele>578.112</ele>
        <time>2017-04-01T18:33:47Z</time>
      </trkpt>
      <trkpt lat="43.82156" lon="3.47658">
        <ele>576.732</ele>
        <time>2017-04-01T18:34:07Z</time>
      </trkpt>
      <trkpt lat="43.82139" lon="3.476">
        <ele>582.205</ele>
        <time>2017-04-01T18:34:27Z</time>
      </trkpt>
      <trkpt lat="43.82088" lon="3.47586">
        <ele>580.908</ele>
        <time>2017-04-01T18:34:47Z</time>
      </trkpt>
      <trkpt lat="43.81952" lon="3.47582">
        <ele>577.057</ele>
        <time>2017-04-01T18:35:07Z</time>
      </trkpt>
      <trkpt lat="43.81904" lon="3.47549">
        <ele>575.832</ele>
        <time>2017-04-01T18:35:27Z</time>
      </trkpt>
      <trkpt lat="43.81819" lon="3.4751">
        <ele>575.073</ele>
        <time>2017-04-01T18:35:47Z</time>
      </trkpt>
      <trkpt lat="43.81734" lon="3.47445">
        <ele>575.028</ele>
        <time>2017-04-01T18:36:07Z</time>
      </trkpt>
      <trkpt lat="43.81687" lon="3.47399">
        <ele>575.037</ele>
        <time>2017-04-01T18:36:27Z</time>
      </trkpt>
      <trkpt lat="43.81571" lon="3.47394">
        <ele>575.54</ele>
        <time>2017-04-01T18:36:47Z</time>
      </trkpt>
      <trkpt lat="43.81534" lon="3.47349">
        <ele>576.077</ele>
        <time>2017-04-01T18:37:07Z</time>
      </trkpt>
      <trkpt lat="43.81523" lon="3.47363">
        <ele>576.071</ele>
        <time>2017-04-01T18:37:27Z</time>
      </trkpt>
      <trkpt lat="43.81464" lon="3.47402">
        <ele>576.066</ele>
        <time>2017-04-01T18:37:47Z</time>
      </trkpt>
      <trkpt lat="43.81436" lon="3.47414">
        <ele>576.329</ele>
        <time>2017-04-01T18:38:07Z</time>
      </trkpt>
      <trkpt lat="43.81271" lon="3.47354">
        <ele>579.021</ele>
        <time>2017-04-01T18:38:27Z</time>
      </trkpt>
      <trkpt lat="43.81111" lon="3.47268">
        <ele>580.008</ele>
        <time>2017-04-01T18:38:47Z</time>
      </trkpt>
      <trkpt lat="43.81044" lon="3.47227">
        <ele>582.572</ele>
        <time>2017-04-01T18:39:07Z</time>
      </trkpt>
      <trkpt lat="43.80889" lon="3.4716">
        <ele>585.867</ele>
        <time>2017-04-01T18:39:27Z</time>
      </trkpt>
      <trkpt lat="43.80843" lon="3.47148">
        <ele>586.268</ele>
        <time>2017-04-01T18:39:47Z</time>
      </trkpt>
      <trkpt lat="43.80766" lon="3.47137">
        <ele>588.463</ele>
        <time>2017-04-01T18:40:07Z</time>
      </trkpt>
      <trkpt lat="43.80747" lon="3.47116">
        <ele>588.332</ele>
        <time>2017-04-01T18:40:27Z</time>
      </trkpt>
      <trkpt lat="43.80711" lon="3.47054">
        <ele>588.495</ele>
        <time>2017-04-01T18:40:47Z</time>
      </trkpt>
      <trkpt lat="43.80671" lon="3.47005">
        <ele>590.712</ele>
        <time>2017-04-01T18:41:07Z</time>
      </trkpt>
      <trkpt lat="43.80574" lon="3.46937">
        <ele>595.256</ele>
        <time>2017-04-01T18:41:27Z</time>
      </trkpt>
      <trkpt lat="43.80514" lon="3.46919">
        <ele>597.532</ele>
        <time>2017-04-01T18:41:47Z</time>
      </trkpt>
      <trkpt lat="43.80418" lon="3.46832">
        <ele>599.992</ele>
        <time>2019-03-29T00:17:14Z</time>
      </trkpt>
      <trkpt lat="43.80301" lon="3.46741">
        <ele>601.111</ele>
        <time>2019-03-29T00:17:34Z</time>
      </trkpt>
      <trkpt lat="43.80232" lon="3.46702">
        <ele>602.208</ele>
        <time>2019-03-29T00:17:54Z</time>
      </trkpt>
      <trkpt lat="43.80133" lon="3.46605">
        <ele>602.859</ele>
        <time>2017-04-01T18:46:47Z</time>
      </trkpt>
      <trkpt lat="43.80047" lon="3.46506">
        <ele>603.144</ele>
        <time>2017-04-01T18:47:07Z</time>
      </trkpt>
      <trkpt lat="43.79959" lon="3.46414">
        <ele>604.565</ele>
        <time>2017-04-01T18:47:27Z</time>
      </trkpt>
      <trkpt lat="43.79813" lon="3.46224">
        <ele>608.89</ele>
        <time>2017-04-01T18:47:47Z</time>
      </trkpt>
      <trkpt lat="43.79752" lon="3.46171">
        <ele>609.229</ele>
        <time>2017-04-01T18:48:07Z</time>
      </trkpt>
      <trkpt lat="43.79665" lon="3.46127">
        <ele>609.792</ele>
        <time>2017-04-01T18:48:27Z</time>
      </trkpt>
      <trkpt lat="43.79484" lon="3.45961">
        <ele>617.069</ele>
        <time>2017-04-01T18:48:47Z</time>
      </trkpt>
      <trkpt lat="43.79455" lon="3.4593">
        <ele>617.433</ele>
        <time>2017-04-01T18:49:07Z</time>
      </trkpt>
      <trkpt lat="43.79402" lon="3.4592">
        <ele>619.483</ele>
        <time>2017-04-01T18:49:27Z</time>
      </trkpt>
      <trkpt lat="43.7926" lon="3.45861">
        <ele>623.725</ele>
        <time>2017-04-01T18:49:47Z</time>
      </trkpt>
      <trkpt lat="43.79202" lon="3.45858">
        <ele>624.517</ele>
        <time>2017-04-01T18:50:07Z</time>
      </trkpt>
      <trkpt lat="43.79173" lon="3.45874">
        <ele>625.508</ele>
        <time>2017-04-01T18:50:27Z</time>
      </trkpt>
      <trkpt lat="43.79103" lon="3.45935">
        <ele>628.234</ele>
        <time>2017-04-01T18:50:47Z</time>
      </trkpt>
      <trkpt lat="43.79068" lon="3.45948">
        <ele>629.059</ele>
        <time>2017-04-01T18:51:07Z</time>
      </trkpt>
      <trkpt lat="43.79029" lon="3.45991">
        <ele>629.06</ele>
        <time>2017-04-01T18:51:27Z</time>
      </trkpt>
      <trkpt lat="43.79006" lon="3.46005">
        <ele>630.065</ele>
        <time>2017-04-01T18:51:47Z</time>
      </trkpt>
      <trkpt lat="43.789" lon="3.46033">
        <ele>639.034</ele>
        <time>2017-04-01T18:52:27Z</time>
      </trkpt>
      <trkpt lat="43.78786" lon="3.45973">
        <ele>645.237</ele>
        <time>2017-04-01T18:52:47Z</time>
      </trkpt>
      <trkpt lat="43.78777" lon="3.45936">
        <ele>642.744</ele>
        <time>2017-04-01T18:53:07Z</time>
      </trkpt>
      <trkpt lat="43.78689" lon="3.45707">
        <ele>652.088</ele>
        <time>2017-04-01T18:53:27Z</time>
      </trkpt>
      <trkpt lat="43.78656" lon="3.45666">
        <ele>659.378</ele>
        <time>2017-04-01T18:53:47Z</time>
      </trkpt>
      <trkpt lat="43.78638" lon="3.45655">
        <ele>662.033</ele>
        <time>2017-04-01T18:54:07Z</time>
      </trkpt>
      <trkpt lat="43.78621" lon="3.45652">
        <ele>664.526</ele>
        <time>2017-04-01T18:54:27Z</time>
      </trkpt>
      <trkpt lat="43.7859" lon="3.45661">
        <ele>672.508</ele>
        <time>2017-04-01T18:54:47Z</time>
      </trkpt>
      <trkpt lat="43.78538" lon="3.45658">
        <ele>682.443</ele>
        <time>2017-04-01T18:55:07Z</time>
      </trkpt>
      <trkpt lat="43.78492" lon="3.45646">
        <ele>691.278</ele>
        <time>2017-04-01T18:55:27Z</time>
      </trkpt>
      <trkpt lat="43.78468" lon="3.45648">
        <ele>698.639</ele>
        <time>2017-04-01T18:55:47Z</time>
      </trkpt>
      <trkpt lat="43.78429" lon="3.4564">
        <ele>704.084</ele>
        <time>2017-04-01T18:56:07Z</time>
      </trkpt>
      <trkpt lat="43.78398" lon="3.45642">
        <ele>711.373</ele>
        <time>2017-04-01T18:56:27Z</time>
      </trkpt>
      <trkpt lat="43.7835" lon="3.45634">
        <ele>720.586</ele>
        <time>2017-04-01T18:56:47Z</time>
      </trkpt>
      <trkpt lat="43.78339" lon="3.45637">
        <ele>724.143</ele>
        <time>2017-04-01T18:57:07Z</time>
      </trkpt>
      <trkpt lat="43.7832" lon="3.45627">
        <ele>725.567</ele>
        <time>2017-04-01T18:57:27Z</time>
      </trkpt>
      <trkpt lat="43.78261" lon="3.45616">
        <ele>735.192</ele>
        <time>2017-04-01T18:57:47Z</time>
      </trkpt>
      <trkpt lat="43.78219" lon="3.45586">
        <ele>743.973</ele>
        <time>2017-04-01T18:58:07Z</time>
      </trkpt>
      <trkpt lat="43.78193" lon="3.45573">
        <ele>752.22</ele>
        <time>2017-04-01T18:58:27Z</time>
      </trkpt>
      <trkpt lat="43.78161" lon="3.45524">
        <ele>758.408</ele>
        <time>2017-04-01T18:58:47Z</time>
      </trkpt>
      <trkpt lat="43.78113" lon="3.45527">
        <ele>758.125</ele>
        <time>2017-04-01T18:59:07Z</time>
      </trkpt>
      <trkpt lat="43.78033" lon="3.45473">
        <ele>765.74</ele>
        <time>2017-04-01T18:59:27Z</time>
      </trkpt>
      <trkpt lat="43.77974" lon="3.45498">
        <ele>772.041</ele>
        <time>2017-04-01T18:59:47Z</time>
      </trkpt>
      <trkpt lat="43.77948" lon="3.45519">
        <ele>774.216</ele>
        <time>2017-04-01T19:00:07Z</time>
      </trkpt>
      <trkpt lat="43.77916" lon="3.45535">
        <ele>781.425</ele>
        <time>2017-04-01T19:00:27Z</time>
      </trkpt>
      <trkpt lat="43.77903" lon="3.45552">
        <ele>783.328</ele>
        <time>2017-04-01T19:00:47Z</time>
      </trkpt>
      <trkpt lat="43.77889" lon="3.45559">
        <ele>786.735</ele>
        <time>2017-04-01T19:01:07Z</time>
      </trkpt>
      <trkpt lat="43.77885" lon="3.45514">
        <ele>789.719</ele>
        <time>2017-04-01T19:01:27Z</time>
      </trkpt>
      <trkpt lat="43.77895" lon="3.45472">
        <ele>789.861</ele>
        <time>2017-04-01T19:01:47Z</time>
      </trkpt>
      <trkpt lat="43.77912" lon="3.45436">
        <ele>790.021</ele>
        <time>2017-04-01T19:02:07Z</time>
      </trkpt>
      <trkpt lat="43.77927" lon="3.45413">
        <ele>790.013</ele>
        <time>2017-04-01T19:02:27Z</time>
      </trkpt>
      <trkpt lat="43.77952" lon="3.45388">
        <ele>789.708</ele>
        <time>2017-04-01T19:02:47Z</time>
      </trkpt>
      <trkpt lat="43.77967" lon="3.45366">
        <ele>789.992</ele>
        <time>2017-04-01T19:03:07Z</time>
      </trkpt>
      <trkpt lat="43.77991" lon="3.453">
        <ele>791.627</ele>
        <time>2017-04-01T19:03:27Z</time>
      </trkpt>
      <trkpt lat="43.77956" lon="3.45249">
        <ele>789.438</ele>
        <time>2017-04-01T19:03:47Z</time>
      </trkpt>
      <trkpt lat="43.77903" lon="3.45219">
        <ele>784.393</ele>
        <time>2017-04-01T19:04:07Z</time>
      </trkpt>
      <trkpt lat="43.77889" lon="3.4523">
        <ele>783.952</ele>
        <time>2017-04-01T19:04:27Z</time>
      </trkpt>
      <trkpt lat="43.77873" lon="3.45219">
        <ele>780.915</ele>
        <time>2017-04-01T19:04:47Z</time>
      </trkpt>
      <trkpt lat="43.77845" lon="3.4522">
        <ele>778.522</ele>
        <time>2017-04-01T19:05:07Z</time>
      </trkpt>
      <trkpt lat="43.77829" lon="3.45207">
        <ele>775.096</ele>
        <time>2017-04-01T19:05:27Z</time>
      </trkpt>
      <trkpt lat="43.77824" lon="3.4517">
        <ele>770.981</ele>
        <time>2017-04-01T19:05:47Z</time>
      </trkpt>
      <trkpt lat="43.77813" lon="3.45153">
        <ele>770.461</ele>
        <time>2017-04-01T19:06:07Z</time>
      </trkpt>
      <trkpt lat="43.77813" lon="3.45121">
        <ele>772.017</ele>
        <time>2017-04-01T19:06:27Z</time>
      </trkpt>
      <trkpt lat="43.77817" lon="3.45094">
        <ele>775.008</ele>
        <time>2017-04-01T19:06:47Z</time>
      </trkpt>
      <trkpt lat="43.77794" lon="3.4508">
        <ele>775.864</ele>
        <time>2017-04-01T19:07:07Z</time>
      </trkpt>
      <trkpt lat="43.77777" lon="3.45064">
        <ele>778.159</ele>
        <time>2017-04-01T19:07:27Z</time>
      </trkpt>
      <trkpt lat="43.77746" lon="3.45047">
        <ele>781.28</ele>
        <time>2017-04-01T19:07:47Z</time>
      </trkpt>
      <trkpt lat="43.77726" lon="3.45018">
        <ele>781.195</ele>
        <time>2017-04-01T19:08:07Z</time>
      </trkpt>
      <trkpt lat="43.77716" lon="3.44957">
        <ele>783.154</ele>
        <time>2017-04-01T19:08:27Z</time>
      </trkpt>
      <trkpt lat="43.77697" lon="3.44932">
        <ele>782.297</ele>
        <time>2017-04-01T19:08:47Z</time>
      </trkpt>
      <trkpt lat="43.7768" lon="3.44915">
        <ele>781.614</ele>
        <time>2017-04-01T19:09:07Z</time>
      </trkpt>
      <trkpt lat="43.77657" lon="3.44882">
        <ele>780.878</ele>
        <time>2017-04-01T19:09:27Z</time>
      </trkpt>
      <trkpt lat="43.77652" lon="3.44859">
        <ele>781.024</ele>
        <time>2017-04-01T19:09:47Z</time>
      </trkpt>
      <trkpt lat="43.77648" lon="3.4483">
        <ele>780.904</ele>
        <time>2017-04-01T19:10:07Z</time>
      </trkpt>
      <trkpt lat="43.77633" lon="3.44811">
        <ele>779.214</ele>
        <time>2017-04-01T19:10:27Z</time>
      </trkpt>
      <trkpt lat="43.77623" lon="3.44729">
        <ele>776.308</ele>
        <time>2017-04-01T19:10:47Z</time>
      </trkpt>
      <trkpt lat="43.7759" lon="3.44652">
        <ele>774.828</ele>
        <time>2017-04-01T19:11:07Z</time>
      </trkpt>
      <trkpt lat="43.77585" lon="3.44568">
        <ele>774.983</ele>
        <time>2017-04-01T19:11:27Z</time>
      </trkpt>
      <trkpt lat="43.77594" lon="3.44404">
        <ele>775.044</ele>
        <time>2017-04-01T19:11:47Z</time>
      </trkpt>
      <trkpt lat="43.77591" lon="3.44379">
        <ele>775.029</ele>
        <time>2017-04-01T19:12:07Z</time>
      </trkpt>
      <trkpt lat="43.77593" lon="3.44336">
        <ele>775.028</ele>
        <time>2017-04-01T19:12:27Z</time>
      </trkpt>
      <trkpt lat="43.77586" lon="3.44315">
        <ele>775.041</ele>
        <time>2017-04-01T19:12:47Z</time>
      </trkpt>
      <trkpt lat="43.7759" lon="3.44274">
        <ele>774.978</ele>
        <time>2017-04-01T19:13:07Z</time>
      </trkpt>
      <trkpt lat="43.77565" lon="3.44204">
        <ele>770.542</ele>
        <time>2017-04-01T19:13:27Z</time>
      </trkpt>
      <trkpt lat="43.77556" lon="3.44163">
        <ele>769.976</ele>
        <time>2017-04-01T19:13:47Z</time>
      </trkpt>
      <trkpt lat="43.77533" lon="3.44093">
        <ele>770.19</ele>
        <time>2017-04-01T19:14:07Z</time>
      </trkpt>
      <trkpt lat="43.77493" lon="3.44053">
        <ele>766.419</ele>
        <time>2017-04-01T19:14:27Z</time>
      </trkpt>
      <trkpt lat="43.77463" lon="3.44009">
        <ele>765.108</ele>
        <time>2017-04-01T19:14:47Z</time>
      </trkpt>
      <trkpt lat="43.77453" lon="3.43969">
        <ele>766.033</ele>
        <time>2017-04-01T19:15:07Z</time>
      </trkpt>
      <trkpt lat="43.77474" lon="3.43884">
        <ele>767.118</ele>
        <time>2017-04-01T19:15:27Z</time>
      </trkpt>
      <trkpt lat="43.77506" lon="3.43811">
        <ele>766.179</ele>
        <time>2017-04-01T19:15:47Z</time>
      </trkpt>
      <trkpt lat="43.77555" lon="3.43785">
        <ele>767.744</ele>
        <time>2017-04-01T19:16:07Z</time>
      </trkpt>
      <trkpt lat="43.77606" lon="3.4369">
        <ele>764.523</ele>
        <time>2017-04-01T19:16:27Z</time>
      </trkpt>
      <trkpt lat="43.77652" lon="3.43618">
        <ele>763.636</ele>
        <time>2017-04-01T19:16:47Z</time>
      </trkpt>
      <trkpt lat="43.77644" lon="3.43601">
        <ele>762.283</ele>
        <time>2017-04-01T19:17:07Z</time>
      </trkpt>
      <trkpt lat="43.7757" lon="3.43607">
        <ele>760.157</ele>
        <time>2017-04-01T19:17:27Z</time>
      </trkpt>
      <trkpt lat="43.77516" lon="3.43565">
        <ele>760.311</ele>
        <time>2017-04-01T19:17:47Z</time>
      </trkpt>
      <trkpt lat="43.77465" lon="3.43586">
        <ele>760.421</ele>
        <time>2017-04-01T19:18:07Z</time>
      </trkpt>
      <trkpt lat="43.77442" lon="3.43573">
        <ele>759.803</ele>
        <time>2017-04-01T19:18:27Z</time>
      </trkpt>
      <trkpt lat="43.77409" lon="3.43529">
        <ele>760.008</ele>
        <time>2017-04-01T19:18:47Z</time>
      </trkpt>
      <trkpt lat="43.77363" lon="3.43452">
        <ele>759.657</ele>
        <time>2017-04-01T19:19:07Z</time>
      </trkpt>
      <trkpt lat="43.77332" lon="3.43427">
        <ele>756.782</ele>
        <time>2017-04-01T19:19:27Z</time>
      </trkpt>
      <trkpt lat="43.77261" lon="3.43307">
        <ele>753.553</ele>
        <time>2017-04-01T19:19:47Z</time>
      </trkpt>
      <trkpt lat="43.77252" lon="3.4321">
        <ele>751.328</ele>
        <time>2017-04-01T19:20:07Z</time>
      </trkpt>
      <trkpt lat="43.77288" lon="3.43175">
        <ele>751.027</ele>
        <time>2017-04-01T19:20:27Z</time>
      </trkpt>
      <trkpt lat="43.77319" lon="3.4317">
        <ele>752.43</ele>
        <time>2017-04-01T19:20:47Z</time>
      </trkpt>
      <trkpt lat="43.77362" lon="3.43094">
        <ele>748.297</ele>
        <time>2017-04-01T19:21:07Z</time>
      </trkpt>
      <trkpt lat="43.77418" lon="3.43017">
        <ele>743.941</ele>
        <time>2017-04-01T19:21:27Z</time>
      </trkpt>
      <trkpt lat="43.77439" lon="3.42942">
        <ele>738.377</ele>
        <time>2017-04-01T19:21:47Z</time>
      </trkpt>
      <trkpt lat="43.77476" lon="3.42888">
        <ele>735.261</ele>
        <time>2017-04-01T19:22:07Z</time>
      </trkpt>
      <trkpt lat="43.77529" lon="3.42792">
        <ele>731.127</ele>
        <time>2017-04-01T19:22:27Z</time>
      </trkpt>
      <trkpt lat="43.77517" lon="3.42771">
        <ele>730.608</ele>
        <time>2017-04-01T19:22:47Z</time>
      </trkpt>
      <trkpt lat="43.7746" lon="3.42763">
        <ele>727.663</ele>
        <time>2017-04-01T19:23:07Z</time>
      </trkpt>
      <trkpt lat="43.77437" lon="3.42735">
        <ele>725.778</ele>
        <time>2017-04-01T19:23:27Z</time>
      </trkpt>
      <trkpt lat="43.77411" lon="3.42651">
        <ele>724.729</ele>
        <time>2017-04-01T19:23:47Z</time>
      </trkpt>
      <trkpt lat="43.77315" lon="3.4259">
        <ele>719.514</ele>
        <time>2017-04-01T19:24:07Z</time>
      </trkpt>
      <trkpt lat="43.773" lon="3.42552">
        <ele>718.763</ele>
        <time>2017-04-01T19:24:27Z</time>
      </trkpt>
      <trkpt lat="43.77298" lon="3.42458">
        <ele>717.236</ele>
        <time>2017-04-01T19:24:47Z</time>
      </trkpt>
      <trkpt lat="43.77242" lon="3.42383">
        <ele>709.453</ele>
        <time>2017-04-01T19:25:07Z</time>
      </trkpt>
      <trkpt lat="43.77211" lon="3.42255">
        <ele>703.147</ele>
        <time>2017-04-01T19:25:27Z</time>
      </trkpt>
      <trkpt lat="43.7719" lon="3.42239">
        <ele>700.694</ele>
        <time>2017-04-01T19:25:47Z</time>
      </trkpt>
      <trkpt lat="43.77116" lon="3.42279">
        <ele>700.257</ele>
        <time>2017-04-01T19:26:07Z</time>
      </trkpt>
      <trkpt lat="43.77048" lon="3.42293">
        <ele>700.022</ele>
        <time>2017-04-01T19:26:27Z</time>
      </trkpt>
      <trkpt lat="43.77009" lon="3.42268">
        <ele>700.008</ele>
        <time>2017-04-01T19:26:47Z</time>
      </trkpt>
      <trkpt lat="43.76969" lon="3.42254">
        <ele>698.675</ele>
        <time>2017-04-01T19:27:07Z</time>
      </trkpt>
      <trkpt lat="43.76903" lon="3.42218">
        <ele>696.05</ele>
        <time>2017-04-01T19:27:27Z</time>
      </trkpt>
      <trkpt lat="43.76867" lon="3.4219">
        <ele>697.161</ele>
        <time>2017-04-01T19:27:47Z</time>
      </trkpt>
      <trkpt lat="43.7683" lon="3.42175">
        <ele>694.716</ele>
        <time>2017-04-01T19:28:07Z</time>
      </trkpt>
      <trkpt lat="43.76774" lon="3.42108">
        <ele>695.795</ele>
        <time>2017-04-01T19:28:27Z</time>
      </trkpt>
      <trkpt lat="43.76694" lon="3.42095">
        <ele>684.578</ele>
        <time>2017-04-01T19:28:47Z</time>
      </trkpt>
      <trkpt lat="43.76663" lon="3.42082">
        <ele>683.965</ele>
        <time>2017-04-01T19:31:07Z</time>
      </trkpt>
      <trkpt lat="43.76645" lon="3.42056">
        <ele>687.969</ele>
        <time>2017-04-01T19:31:27Z</time>
      </trkpt>
      <trkpt lat="43.76644" lon="3.41943">
        <ele>686.157</ele>
        <time>2017-04-01T19:31:47Z</time>
      </trkpt>
      <trkpt lat="43.76646" lon="3.41825">
        <ele>681.2</ele>
        <time>2017-04-01T19:32:07Z</time>
      </trkpt>
      <trkpt lat="43.76674" lon="3.41763">
        <ele>678.82</ele>
        <time>2017-04-01T19:32:27Z</time>
      </trkpt>
      <trkpt lat="43.76697" lon="3.41717">
        <ele>678.308</ele>
        <time>2017-04-01T19:32:47Z</time>
      </trkpt>
      <trkpt lat="43.76671" lon="3.41593">
        <ele>675.051</ele>
        <time>2017-04-01T19:33:07Z</time>
      </trkpt>
      <trkpt lat="43.76619" lon="3.41369">
        <ele>675.026</ele>
        <time>2017-04-01T19:33:27Z</time>
      </trkpt>
      <trkpt lat="43.76595" lon="3.41336">
        <ele>675.057</ele>
        <time>2017-04-01T19:33:47Z</time>
      </trkpt>
      <trkpt lat="43.76579" lon="3.413">
        <ele>674.592</ele>
        <time>2017-04-01T19:34:07Z</time>
      </trkpt>
      <trkpt lat="43.76561" lon="3.41288">
        <ele>672.651</ele>
        <time>2017-04-01T19:34:27Z</time>
      </trkpt>
      <trkpt lat="43.76526" lon="3.41287">
        <ele>670.084</ele>
        <time>2017-04-01T19:34:47Z</time>
      </trkpt>
      <trkpt lat="43.76455" lon="3.41243">
        <ele>670.431</ele>
        <time>2017-04-01T19:35:07Z</time>
      </trkpt>
      <trkpt lat="43.76388" lon="3.41241">
        <ele>670.025</ele>
        <time>2017-04-01T19:35:27Z</time>
      </trkpt>
      <trkpt lat="43.76362" lon="3.41227">
        <ele>670.034</ele>
        <time>2017-04-01T19:35:47Z</time>
      </trkpt>
      <trkpt lat="43.76284" lon="3.4115">
        <ele>669.455</ele>
        <time>2017-04-01T19:36:07Z</time>
      </trkpt>
      <trkpt lat="43.76269" lon="3.41121">
        <ele>667.31</ele>
        <time>2017-04-01T19:36:27Z</time>
      </trkpt>
      <trkpt lat="43.7626" lon="3.4108">
        <ele>665.208</ele>
        <time>2017-04-01T19:36:47Z</time>
      </trkpt>
      <trkpt lat="43.76258" lon="3.4102">
        <ele>662.599</ele>
        <time>2017-04-01T19:37:07Z</time>
      </trkpt>
      <trkpt lat="43.76243" lon="3.40991">
        <ele>660.364</ele>
        <time>2017-04-01T19:37:27Z</time>
      </trkpt>
      <trkpt lat="43.76221" lon="3.40924">
        <ele>656.415</ele>
        <time>2017-04-01T19:37:47Z</time>
      </trkpt>
      <trkpt lat="43.76215" lon="3.40802">
        <ele>649.99</ele>
        <time>2017-04-01T19:38:07Z</time>
      </trkpt>
      <trkpt lat="43.76187" lon="3.40767">
        <ele>646.779</ele>
        <time>2017-04-01T19:38:27Z</time>
      </trkpt>
      <trkpt lat="43.76181" lon="3.40724">
        <ele>645.422</ele>
        <time>2017-04-01T19:38:47Z</time>
      </trkpt>
      <trkpt lat="43.76195" lon="3.40651">
        <ele>638.069</ele>
        <time>2017-04-01T19:39:07Z</time>
      </trkpt>
      <trkpt lat="43.7618" lon="3.40599">
        <ele>635.443</ele>
        <time>2017-04-01T19:39:27Z</time>
      </trkpt>
      <trkpt lat="43.76148" lon="3.4041">
        <ele>612.945</ele>
        <time>2017-04-01T19:39:47Z</time>
      </trkpt>
      <trkpt lat="43.76119" lon="3.40379">
        <ele>616.947</ele>
        <time>2017-04-01T19:40:07Z</time>
      </trkpt>
      <trkpt lat="43.76117" lon="3.40336">
        <ele>609.011</ele>
        <time>2017-04-01T19:40:27Z</time>
      </trkpt>
      <trkpt lat="43.76095" lon="3.40279">
        <ele>604.808</ele>
        <time>2017-04-01T19:40:47Z</time>
      </trkpt>
      <trkpt lat="43.76086" lon="3.40213">
        <ele>594.74</ele>
        <time>2017-04-01T19:41:07Z</time>
      </trkpt>
      <trkpt lat="43.76059" lon="3.40167">
        <ele>595.455</ele>
        <time>2017-04-01T19:41:27Z</time>
      </trkpt>
      <trkpt lat="43.76021" lon="3.40142">
        <ele>587.266</ele>
        <time>2017-04-01T19:41:47Z</time>
      </trkpt>
      <trkpt lat="43.75954" lon="3.40136">
        <ele>585.641</ele>
        <time>2017-04-01T19:42:07Z</time>
      </trkpt>
      <trkpt lat="43.75937" lon="3.40079">
        <ele>581.89</ele>
        <time>2017-04-01T19:42:27Z</time>
      </trkpt>
      <trkpt lat="43.7595" lon="3.40015">
        <ele>570.913</ele>
        <time>2017-04-01T19:42:47Z</time>
      </trkpt>
      <trkpt lat="43.75941" lon="3.3995">
        <ele>565.82</ele>
        <time>2017-04-01T19:43:07Z</time>
      </trkpt>
      <trkpt lat="43.75923" lon="3.39907">
        <ele>561.424</ele>
        <time>2017-04-01T19:43:27Z</time>
      </trkpt>
      <trkpt lat="43.7584" lon="3.39819">
        <ele>551.487</ele>
        <time>2017-04-01T19:43:47Z</time>
      </trkpt>
      <trkpt lat="43.758" lon="3.39753">
        <ele>548.142</ele>
        <time>2017-04-01T19:44:07Z</time>
      </trkpt>
      <trkpt lat="43.75824" lon="3.39694">
        <ele>536.426</ele>
        <time>2017-04-01T19:44:27Z</time>
      </trkpt>
      <trkpt lat="43.75822" lon="3.39659">
        <ele>532.808</ele>
        <time>2017-04-01T19:44:47Z</time>
      </trkpt>
      <trkpt lat="43.75809" lon="3.39623">
        <ele>532.184</ele>
        <time>2017-04-01T19:45:07Z</time>
      </trkpt>
      <trkpt lat="43.75784" lon="3.39587">
        <ele>533.039</ele>
        <time>2017-04-01T19:45:27Z</time>
      </trkpt>
      <trkpt lat="43.75773" lon="3.3952">
        <ele>530.86</ele>
        <time>2017-04-01T19:45:47Z</time>
      </trkpt>
      <trkpt lat="43.75753" lon="3.39474">
        <ele>527.095</ele>
        <time>2017-04-01T19:46:07Z</time>
      </trkpt>
      <trkpt lat="43.75729" lon="3.39346">
        <ele>505.494</ele>
        <time>2017-04-01T19:46:27Z</time>
      </trkpt>
      <trkpt lat="43.75708" lon="3.39314">
        <ele>503.717</ele>
        <time>2017-04-01T19:46:47Z</time>
      </trkpt>
      <trkpt lat="43.75702" lon="3.39287">
        <ele>504.194</ele>
        <time>2017-04-01T19:47:07Z</time>
      </trkpt>
      <trkpt lat="43.75712" lon="3.39241">
        <ele>497.068</ele>
        <time>2017-04-01T19:47:27Z</time>
      </trkpt>
      <trkpt lat="43.75712" lon="3.39206">
        <ele>492.356</ele>
        <time>2017-04-01T19:47:47Z</time>
      </trkpt>
      <trkpt lat="43.75686" lon="3.39178">
        <ele>495.359</ele>
        <time>2017-04-01T19:48:07Z</time>
      </trkpt>
      <trkpt lat="43.757" lon="3.39122">
        <ele>495.614</ele>
        <time>2017-04-01T19:48:27Z</time>
      </trkpt>
      <trkpt lat="43.75717" lon="3.3909">
        <ele>494.308</ele>
        <time>2017-04-01T19:48:47Z</time>
      </trkpt>
      <trkpt lat="43.75712" lon="3.39026">
        <ele>497.951</ele>
        <time>2017-04-01T19:49:07Z</time>
      </trkpt>
      <trkpt lat="43.75726" lon="3.39001">
        <ele>494.366</ele>
        <time>2017-04-01T19:49:27Z</time>
      </trkpt>
      <trkpt lat="43.75746" lon="3.38992">
        <ele>490.167</ele>
        <time>2017-04-01T19:49:47Z</time>
      </trkpt>
      <trkpt lat="43.7572" lon="3.38939">
        <ele>492.122</ele>
        <time>2017-04-01T19:50:07Z</time>
      </trkpt>
      <trkpt lat="43.7569" lon="3.38901">
        <ele>494.331</ele>
        <time>2017-04-01T19:50:27Z</time>
      </trkpt>
      <trkpt lat="43.75642" lon="3.38915">
        <ele>500.544</ele>
        <time>2017-04-01T19:50:47Z</time>
      </trkpt>
      <trkpt lat="43.75623" lon="3.38906">
        <ele>502.621</ele>
        <time>2017-04-01T19:51:07Z</time>
      </trkpt>
      <trkpt lat="43.75605" lon="3.38889">
        <ele>503.895</ele>
        <time>2017-04-01T19:51:27Z</time>
      </trkpt>
      <trkpt lat="43.75558" lon="3.38763">
        <ele>506.546</ele>
        <time>2017-04-01T19:51:47Z</time>
      </trkpt>
      <trkpt lat="43.75539" lon="3.38684">
        <ele>511.488</ele>
        <time>2017-04-01T19:52:07Z</time>
      </trkpt>
      <trkpt lat="43.75513" lon="3.38631">
        <ele>515.616</ele>
        <time>2017-04-01T19:52:27Z</time>
      </trkpt>
      <trkpt lat="43.75478" lon="3.38591">
        <ele>521.208</ele>
        <time>2017-04-01T19:52:47Z</time>
      </trkpt>
      <trkpt lat="43.75445" lon="3.38531">
        <ele>526.08</ele>
        <time>2017-04-01T19:53:07Z</time>
      </trkpt>
      <trkpt lat="43.754" lon="3.38506">
        <ele>530.825</ele>
        <time>2017-04-01T19:53:27Z</time>
      </trkpt>
      <trkpt lat="43.7539" lon="3.38466">
        <ele>531.816</ele>
        <time>2017-04-01T19:53:47Z</time>
      </trkpt>
      <trkpt lat="43.75379" lon="3.3844">
        <ele>533.541</ele>
        <time>2017-04-01T19:54:07Z</time>
      </trkpt>
      <trkpt lat="43.75358" lon="3.38421">
        <ele>536.48</ele>
        <time>2017-04-01T19:54:27Z</time>
      </trkpt>
      <trkpt lat="43.75325" lon="3.38349">
        <ele>544.283</ele>
        <time>2017-04-01T19:54:47Z</time>
      </trkpt>
      <trkpt lat="43.75325" lon="3.38247">
        <ele>547.79</ele>
        <time>2017-04-01T19:55:07Z</time>
      </trkpt>
      <trkpt lat="43.75336" lon="3.38213">
        <ele>547.154</ele>
        <time>2017-04-01T19:55:27Z</time>
      </trkpt>
      <trkpt lat="43.75361" lon="3.38157">
        <ele>543.735</ele>
        <time>2017-04-01T19:55:47Z</time>
      </trkpt>
      <trkpt lat="43.75386" lon="3.38123">
        <ele>541.486</ele>
        <time>2017-04-01T19:56:07Z</time>
      </trkpt>
      <trkpt lat="43.75403" lon="3.38079">
        <ele>541.414</ele>
        <time>2017-04-01T19:56:27Z</time>
      </trkpt>
      <trkpt lat="43.7544" lon="3.38051">
        <ele>535.608</ele>
        <time>2017-04-01T19:56:47Z</time>
      </trkpt>
      <trkpt lat="43.75441" lon="3.38035">
        <ele>537.129</ele>
        <time>2017-04-01T19:57:07Z</time>
      </trkpt>
      <trkpt lat="43.75437" lon="3.38006">
        <ele>542.194</ele>
        <time>2017-04-01T19:57:27Z</time>
      </trkpt>
      <trkpt lat="43.7546" lon="3.37965">
        <ele>542.235</ele>
        <time>2017-04-01T19:57:47Z</time>
      </trkpt>
      <trkpt lat="43.75487" lon="3.37903">
        <ele>543.88</ele>
        <time>2017-04-01T19:58:07Z</time>
      </trkpt>
      <trkpt lat="43.75492" lon="3.37867">
        <ele>549.539</ele>
        <time>2017-04-01T19:58:27Z</time>
      </trkpt>
      <trkpt lat="43.7551" lon="3.37819">
        <ele>549.612</ele>
        <time>2017-04-01T19:58:47Z</time>
      </trkpt>
      <trkpt lat="43.75513" lon="3.37761">
        <ele>556.959</ele>
        <time>2017-04-01T19:59:07Z</time>
      </trkpt>
      <trkpt lat="43.75551" lon="3.37712">
        <ele>551.693</ele>
        <time>2017-04-01T19:59:27Z</time>
      </trkpt>
      <trkpt lat="43.75551" lon="3.37698">
        <ele>550.061</ele>
        <time>2017-04-01T19:59:47Z</time>
      </trkpt>
      <trkpt lat="43.75525" lon="3.37655">
        <ele>551.721</ele>
        <time>2017-04-01T20:00:07Z</time>
      </trkpt>
      <trkpt lat="43.75494" lon="3.37617">
        <ele>554.313</ele>
        <time>2017-04-01T20:00:27Z</time>
      </trkpt>
      <trkpt lat="43.75485" lon="3.37596">
        <ele>559.008</ele>
        <time>2017-04-01T20:00:47Z</time>
      </trkpt>
      <trkpt lat="43.75492" lon="3.37583">
        <ele>560.362</ele>
        <time>2017-04-01T20:01:07Z</time>
      </trkpt>
      <trkpt lat="43.75507" lon="3.37586">
        <ele>558.877</ele>
        <time>2017-04-01T20:01:27Z</time>
      </trkpt>
      <trkpt lat="43.75558" lon="3.37603">
        <ele>555.528</ele>
        <time>2017-04-01T20:01:47Z</time>
      </trkpt>
      <trkpt lat="43.75662" lon="3.37613">
        <ele>551.653</ele>
        <time>2017-04-01T20:02:07Z</time>
      </trkpt>
      <trkpt lat="43.75673" lon="3.37597">
        <ele>550.512</ele>
        <time>2017-04-01T20:02:27Z</time>
      </trkpt>
      <trkpt lat="43.75683" lon="3.37514">
        <ele>546.145</ele>
        <time>2017-04-01T20:02:47Z</time>
      </trkpt>
      <trkpt lat="43.7567" lon="3.37443">
        <ele>550.782</ele>
        <time>2017-04-01T20:03:07Z</time>
      </trkpt>
      <trkpt lat="43.75682" lon="3.37411">
        <ele>547.156</ele>
        <time>2017-04-01T20:03:27Z</time>
      </trkpt>
      <trkpt lat="43.75686" lon="3.37385">
        <ele>545.798</ele>
        <time>2017-04-01T20:03:47Z</time>
      </trkpt>
      <trkpt lat="43.75693" lon="3.37358">
        <ele>543.115</ele>
        <time>2017-04-01T20:04:07Z</time>
      </trkpt>
      <trkpt lat="43.75687" lon="3.3733">
        <ele>541.226</ele>
        <time>2017-04-01T20:04:27Z</time>
      </trkpt>
      <trkpt lat="43.75667" lon="3.37275">
        <ele>534.308</ele>
        <time>2017-04-01T20:04:47Z</time>
      </trkpt>
      <trkpt lat="43.75636" lon="3.37203">
        <ele>538.895</ele>
        <time>2017-04-01T20:05:07Z</time>
      </trkpt>
      <trkpt lat="43.75637" lon="3.37179">
        <ele>538.49</ele>
        <time>2017-04-01T20:05:27Z</time>
      </trkpt>
      <trkpt lat="43.75648" lon="3.37162">
        <ele>533.611</ele>
        <time>2017-04-01T20:05:47Z</time>
      </trkpt>
      <trkpt lat="43.75656" lon="3.37131">
        <ele>530.626</ele>
        <time>2017-04-01T20:06:07Z</time>
      </trkpt>
      <trkpt lat="43.75666" lon="3.37136">
        <ele>528.245</ele>
        <time>2017-04-01T20:06:27Z</time>
      </trkpt>
      <trkpt lat="43.7565" lon="3.37193">
        <ele>530.948</ele>
        <time>2017-04-01T20:06:47Z</time>
      </trkpt>
      <trkpt lat="43.75664" lon="3.37219">
        <ele>523.775</ele>
        <time>2017-04-01T20:07:07Z</time>
      </trkpt>
      <trkpt lat="43.75736" lon="3.37297">
        <ele>503.949</ele>
        <time>2017-04-01T20:07:27Z</time>
      </trkpt>
      <trkpt lat="43.75763" lon="3.37375">
        <ele>505.877</ele>
        <time>2017-04-01T20:07:47Z</time>
      </trkpt>
      <trkpt lat="43.75791" lon="3.37436">
        <ele>498.261</ele>
        <time>2017-04-01T20:08:07Z</time>
      </trkpt>
      <trkpt lat="43.75797" lon="3.37519">
        <ele>496.127</ele>
        <time>2017-04-01T20:08:27Z</time>
      </trkpt>
      <trkpt lat="43.75807" lon="3.37453">
        <ele>490.908</ele>
        <time>2017-04-01T20:08:47Z</time>
      </trkpt>
      <trkpt lat="43.75821" lon="3.3741">
        <ele>485.543</ele>
        <time>2017-04-01T20:09:07Z</time>
      </trkpt>
      <trkpt lat="43.75847" lon="3.37343">
        <ele>486.368</ele>
        <time>2017-04-01T20:09:27Z</time>
      </trkpt>
      <trkpt lat="43.7586" lon="3.37266">
        <ele>487.329</ele>
        <time>2017-04-01T20:09:47Z</time>
      </trkpt>
      <trkpt lat="43.7586" lon="3.37243">
        <ele>488.044</ele>
        <time>2017-04-01T20:10:07Z</time>
      </trkpt>
      <trkpt lat="43.75799" lon="3.37177">
        <ele>479.663</ele>
        <time>2017-04-01T20:10:27Z</time>
      </trkpt>
      <trkpt lat="43.75795" lon="3.37157">
        <ele>479.246</ele>
        <time>2017-04-01T20:10:47Z</time>
      </trkpt>
      <trkpt lat="43.75805" lon="3.37095">
        <ele>480.013</ele>
        <time>2017-04-01T20:11:07Z</time>
      </trkpt>
      <trkpt lat="43.75805" lon="3.37024">
        <ele>471.687</ele>
        <time>2017-04-01T20:11:27Z</time>
      </trkpt>
      <trkpt lat="43.75799" lon="3.36965">
        <ele>462.765</ele>
        <time>2017-04-01T20:11:47Z</time>
      </trkpt>
      <trkpt lat="43.75808" lon="3.36954">
        <ele>451.768</ele>
        <time>2017-04-01T20:12:07Z</time>
      </trkpt>
      <trkpt lat="43.75811" lon="3.36946">
        <ele>448.014</ele>
        <time>2017-04-01T20:12:27Z</time>
      </trkpt>
      <trkpt lat="43.75824" lon="3.3695">
        <ele>440.208</ele>
        <time>2017-04-01T20:12:47Z</time>
      </trkpt>
      <trkpt lat="43.75824" lon="3.36935">
        <ele>437.132</ele>
        <time>2017-04-01T20:13:07Z</time>
      </trkpt>
      <trkpt lat="43.75838" lon="3.36946">
        <ele>431.247</ele>
        <time>2017-04-01T20:13:27Z</time>
      </trkpt>
      <trkpt lat="43.75845" lon="3.36937">
        <ele>426.028</ele>
        <time>2017-04-01T20:13:47Z</time>
      </trkpt>
      <trkpt lat="43.75863" lon="3.36948">
        <ele>421.143</ele>
        <time>2017-04-01T20:14:07Z</time>
      </trkpt>
      <trkpt lat="43.75864" lon="3.36941">
        <ele>418.262</ele>
        <time>2017-04-01T20:14:27Z</time>
      </trkpt>
      <trkpt lat="43.75886" lon="3.36957">
        <ele>412.675</ele>
        <time>2017-04-01T20:14:47Z</time>
      </trkpt>
      <trkpt lat="43.75902" lon="3.36917">
        <ele>395.142</ele>
        <time>2017-04-01T20:15:07Z</time>
      </trkpt>
      <trkpt lat="43.75925" lon="3.36911">
        <ele>390.356</ele>
        <time>2017-04-01T20:15:27Z</time>
      </trkpt>
      <trkpt lat="43.75947" lon="3.36909">
        <ele>388.655</ele>
        <time>2017-04-01T20:15:47Z</time>
      </trkpt>
      <trkpt lat="43.75975" lon="3.36881">
        <ele>380.907</ele>
        <time>2017-04-01T20:16:07Z</time>
      </trkpt>
      <trkpt lat="43.75972" lon="3.36865">
        <ele>377.917</ele>
        <time>2017-04-01T20:16:27Z</time>
      </trkpt>
      <trkpt lat="43.75995" lon="3.36869">
        <ele>374.108</ele>
        <time>2017-04-01T20:16:47Z</time>
      </trkpt>
      <trkpt lat="43.75982" lon="3.36845">
        <ele>371.291</ele>
        <time>2017-04-01T20:17:07Z</time>
      </trkpt>
      <trkpt lat="43.76008" lon="3.36847">
        <ele>364.196</ele>
        <time>2019-03-29T01:48:54Z</time>
      </trkpt>
      <trkpt lat="43.75985" lon="3.3682">
        <ele>363.167</ele>
        <time>2019-03-29T01:49:14Z</time>
      </trkpt>
      <trkpt lat="43.76002" lon="3.36824">
        <ele>358.672</ele>
        <time>2019-03-29T01:49:34Z</time>
      </trkpt>
      <trkpt lat="43.76022" lon="3.36848">
        <ele>358.861</ele>
        <time>2019-03-29T01:49:54Z</time>
      </trkpt>
      <trkpt lat="43.76055" lon="3.36863">
        <ele>353.944</ele>
        <time>2019-03-29T01:50:14Z</time>
      </trkpt>
      <trkpt lat="43.76023" lon="3.36805">
        <ele>342.931</ele>
        <time>2019-03-29T01:50:34Z</time>
      </trkpt>
      <trkpt lat="43.7604" lon="3.36811">
        <ele>340.475</ele>
        <time>2019-03-29T01:50:54Z</time>
      </trkpt>
      <trkpt lat="43.76035" lon="3.36799">
        <ele>338.982</ele>
        <time>2017-04-01T20:18:47Z</time>
      </trkpt>
      <trkpt lat="43.76014" lon="3.36774">
        <ele>338.443</ele>
        <time>2017-04-01T20:19:07Z</time>
      </trkpt>
      <trkpt lat="43.76007" lon="3.36704">
        <ele>329.517</ele>
        <time>2017-04-01T20:19:27Z</time>
      </trkpt>
      <trkpt lat="43.75955" lon="3.36599">
        <ele>334.608</ele>
        <time>2017-04-01T20:19:47Z</time>
      </trkpt>
      <trkpt lat="43.7591" lon="3.36572">
        <ele>338.854</ele>
        <time>2017-04-01T20:20:07Z</time>
      </trkpt>
      <trkpt lat="43.75898" lon="3.36544">
        <ele>339.139</ele>
        <time>2017-04-01T20:20:27Z</time>
      </trkpt>
      <trkpt lat="43.75919" lon="3.36499">
        <ele>332.74</ele>
        <time>2017-04-01T20:20:47Z</time>
      </trkpt>
      <trkpt lat="43.75886" lon="3.36449">
        <ele>337.455</ele>
        <time>2017-04-01T20:21:07Z</time>
      </trkpt>
      <trkpt lat="43.7585" lon="3.36298">
        <ele>331.384</ele>
        <time>2017-04-01T20:21:27Z</time>
      </trkpt>
      <trkpt lat="43.75821" lon="3.36262">
        <ele>334.997</ele>
        <time>2017-04-01T20:21:47Z</time>
      </trkpt>
      <trkpt lat="43.75807" lon="3.36224">
        <ele>335.544</ele>
        <time>2017-04-01T20:22:07Z</time>
      </trkpt>
      <trkpt lat="43.75789" lon="3.36189">
        <ele>338.948</ele>
        <time>2017-04-01T20:22:27Z</time>
      </trkpt>
      <trkpt lat="43.75771" lon="3.36082">
        <ele>336.993</ele>
        <time>2017-04-01T20:22:47Z</time>
      </trkpt>
      <trkpt lat="43.75741" lon="3.36011">
        <ele>340.665</ele>
        <time>2017-04-01T20:23:07Z</time>
      </trkpt>
      <trkpt lat="43.75705" lon="3.35771">
        <ele>345.421</ele>
        <time>2017-04-01T20:23:27Z</time>
      </trkpt>
      <trkpt lat="43.75713" lon="3.35729">
        <ele>344.308</ele>
        <time>2017-04-01T20:23:47Z</time>
      </trkpt>
      <trkpt lat="43.75745" lon="3.35679">
        <ele>336.165</ele>
        <time>2017-04-01T20:24:07Z</time>
      </trkpt>
      <trkpt lat="43.75746" lon="3.35631">
        <ele>339.68</ele>
        <time>2017-04-01T20:24:27Z</time>
      </trkpt>
      <trkpt lat="43.75729" lon="3.35584">
        <ele>341.631</ele>
        <time>2017-04-01T20:24:47Z</time>
      </trkpt>
      <trkpt lat="43.75707" lon="3.3556">
        <ele>342.496</ele>
        <time>2017-04-01T20:25:07Z</time>
      </trkpt>
      <trkpt lat="43.7567" lon="3.35571">
        <ele>350.965</ele>
        <time>2017-04-01T20:25:27Z</time>
      </trkpt>
      <trkpt lat="43.75672" lon="3.35555">
        <ele>345.318</ele>
        <time>2017-04-01T20:25:47Z</time>
      </trkpt>
      <trkpt lat="43.7554" lon="3.35586">
        <ele>345.275</ele>
        <time>2017-04-01T20:26:07Z</time>
      </trkpt>
      <trkpt lat="43.75509" lon="3.35569">
        <ele>334.799</ele>
        <time>2017-04-01T20:26:27Z</time>
      </trkpt>
      <trkpt lat="43.75461" lon="3.35578">
        <ele>327.054</ele>
        <time>2017-04-01T20:26:47Z</time>
      </trkpt>
      <trkpt lat="43.7543" lon="3.35602">
        <ele>324.856</ele>
        <time>2017-04-01T20:27:07Z</time>
      </trkpt>
      <trkpt lat="43.75416" lon="3.35657">
        <ele>327.211</ele>
        <time>2017-04-01T20:27:27Z</time>
      </trkpt>
      <trkpt lat="43.75383" lon="3.35675">
        <ele>319.608</ele>
        <time>2017-04-01T20:27:47Z</time>
      </trkpt>
      <trkpt lat="43.75358" lon="3.35619">
        <ele>312.471</ele>
        <time>2017-04-01T20:28:07Z</time>
      </trkpt>
      <trkpt lat="43.75341" lon="3.35536">
        <ele>304.866</ele>
        <time>2017-04-01T20:28:27Z</time>
      </trkpt>
      <trkpt lat="43.75298" lon="3.35685">
        <ele>300.787</ele>
        <time>2017-04-01T20:28:47Z</time>
      </trkpt>
      <trkpt lat="43.75241" lon="3.35756">
        <ele>301.132</ele>
        <time>2017-04-01T20:29:07Z</time>
      </trkpt>
      <trkpt lat="43.75182" lon="3.35759">
        <ele>306.691</ele>
        <time>2017-04-01T20:29:27Z</time>
      </trkpt>
      <trkpt lat="43.75169" lon="3.35889">
        <ele>310.574</ele>
        <time>2017-04-01T20:29:47Z</time>
      </trkpt>
      <trkpt lat="43.75141" lon="3.35913">
        <ele>318.421</ele>
        <time>2017-04-01T20:30:07Z</time>
      </trkpt>
      <trkpt lat="43.75127" lon="3.35894">
        <ele>319.585</ele>
        <time>2017-04-01T20:30:27Z</time>
      </trkpt>
      <trkpt lat="43.75107" lon="3.35896">
        <ele>323.443</ele>
        <time>2017-04-01T20:30:47Z</time>
      </trkpt>
      <trkpt lat="43.75074" lon="3.35884">
        <ele>326.564</ele>
        <time>2017-04-01T20:31:07Z</time>
      </trkpt>
      <trkpt lat="43.75042" lon="3.3589">
        <ele>331.11</ele>
        <time>2017-04-01T20:31:27Z</time>
      </trkpt>
      <trkpt lat="43.75008" lon="3.35878">
        <ele>332.908</ele>
        <time>2017-04-01T20:31:47Z</time>
      </trkpt>
      <trkpt lat="43.74965" lon="3.35888">
        <ele>334.38</ele>
        <time>2017-04-01T20:32:07Z</time>
      </trkpt>
      <trkpt lat="43.74944" lon="3.35869">
        <ele>331.625</ele>
        <time>2017-04-01T20:32:27Z</time>
      </trkpt>
      <trkpt lat="43.74935" lon="3.3585">
        <ele>327.626</ele>
        <time>2017-04-01T20:32:47Z</time>
      </trkpt>
      <trkpt lat="43.74908" lon="3.35847">
        <ele>328.671</ele>
        <time>2017-04-01T20:33:07Z</time>
      </trkpt>
      <trkpt lat="43.74897" lon="3.35842">
        <ele>328.51</ele>
        <time>2017-04-01T20:33:27Z</time>
      </trkpt>
      <trkpt lat="43.74894" lon="3.35805">
        <ele>324.753</ele>
        <time>2017-04-01T20:33:47Z</time>
      </trkpt>
      <trkpt lat="43.74881" lon="3.35795">
        <ele>326.77</ele>
        <time>2017-04-01T20:34:07Z</time>
      </trkpt>
      <trkpt lat="43.74853" lon="3.35791">
        <ele>330.154</ele>
        <time>2017-04-01T20:34:27Z</time>
      </trkpt>
      <trkpt lat="43.74841" lon="3.35778">
        <ele>328.786</ele>
        <time>2017-04-01T20:34:47Z</time>
      </trkpt>
      <trkpt lat="43.74831" lon="3.35756">
        <ele>329.76</ele>
        <time>2017-04-01T20:35:07Z</time>
      </trkpt>
      <trkpt lat="43.74845" lon="3.35726">
        <ele>326.626</ele>
        <time>2017-04-01T20:35:27Z</time>
      </trkpt>
      <trkpt lat="43.74851" lon="3.35672">
        <ele>330.308</ele>
        <time>2017-04-01T20:35:47Z</time>
      </trkpt>
      <trkpt lat="43.7484" lon="3.35649">
        <ele>333.294</ele>
        <time>2017-04-01T20:36:07Z</time>
      </trkpt>
      <trkpt lat="43.74809" lon="3.3562">
        <ele>339.299</ele>
        <time>2017-04-01T20:36:27Z</time>
      </trkpt>
      <trkpt lat="43.74804" lon="3.35607">
        <ele>340.27</ele>
        <time>2017-04-01T20:36:47Z</time>
      </trkpt>
      <trkpt lat="43.74796" lon="3.35574">
        <ele>342.685</ele>
        <time>2017-04-01T20:37:07Z</time>
      </trkpt>
      <trkpt lat="43.74781" lon="3.35544">
        <ele>348.024</ele>
        <time>2017-04-01T20:37:27Z</time>
      </trkpt>
      <trkpt lat="43.7478" lon="3.35499">
        <ele>351.477</ele>
        <time>2017-04-01T20:37:47Z</time>
      </trkpt>
      <trkpt lat="43.74753" lon="3.35477">
        <ele>356.514</ele>
        <time>2017-04-01T20:38:07Z</time>
      </trkpt>
      <trkpt lat="43.7474" lon="3.35454">
        <ele>357.428</ele>
        <time>2017-04-01T20:38:27Z</time>
      </trkpt>
      <trkpt lat="43.74727" lon="3.3543">
        <ele>357.658</ele>
        <time>2017-04-01T20:38:47Z</time>
      </trkpt>
      <trkpt lat="43.74706" lon="3.35407">
        <ele>361.552</ele>
        <time>2017-04-01T20:39:07Z</time>
      </trkpt>
      <trkpt lat="43.74702" lon="3.35327">
        <ele>356.717</ele>
        <time>2017-04-01T20:39:27Z</time>
      </trkpt>
      <trkpt lat="43.74687" lon="3.35308">
        <ele>359.008</ele>
        <time>2017-04-01T20:39:47Z</time>
      </trkpt>
      <trkpt lat="43.74676" lon="3.35261">
        <ele>358.591</ele>
        <time>2017-04-01T20:40:07Z</time>
      </trkpt>
      <trkpt lat="43.74672" lon="3.35226">
        <ele>356.816</ele>
        <time>2017-04-01T20:40:27Z</time>
      </trkpt>
      <trkpt lat="43.74658" lon="3.35202">
        <ele>356.137</ele>
        <time>2017-04-01T20:40:47Z</time>
      </trkpt>
      <trkpt lat="43.7463" lon="3.3518">
        <ele>358.372</ele>
        <time>2017-04-01T20:41:07Z</time>
      </trkpt>
      <trkpt lat="43.74612" lon="3.35157">
        <ele>361.731</ele>
        <time>2017-04-01T20:41:27Z</time>
      </trkpt>
      <trkpt lat="43.74558" lon="3.35282">
        <ele>390.784</ele>
        <time>2017-04-01T20:41:47Z</time>
      </trkpt>
      <trkpt lat="43.74565" lon="3.35327">
        <ele>392.161</ele>
        <time>2017-04-01T20:42:07Z</time>
      </trkpt>
      <trkpt lat="43.74545" lon="3.3536">
        <ele>396.195</ele>
        <time>2017-04-01T20:42:27Z</time>
      </trkpt>
      <trkpt lat="43.74526" lon="3.35333">
        <ele>396.174</ele>
        <time>2017-04-01T20:42:47Z</time>
      </trkpt>
      <trkpt lat="43.74458" lon="3.35322">
        <ele>404.056</ele>
        <time>2017-04-01T20:43:07Z</time>
      </trkpt>
      <trkpt lat="43.7445" lon="3.35316">
        <ele>405.421</ele>
        <time>2017-04-01T20:43:27Z</time>
      </trkpt>
      <trkpt lat="43.74433" lon="3.35274">
        <ele>408.908</ele>
        <time>2017-04-01T20:43:47Z</time>
      </trkpt>
      <trkpt lat="43.74384" lon="3.35256">
        <ele>412.773</ele>
        <time>2017-04-01T20:44:07Z</time>
      </trkpt>
      <trkpt lat="43.74349" lon="3.35256">
        <ele>414.678</ele>
        <time>2017-04-01T20:44:27Z</time>
      </trkpt>
      <trkpt lat="43.74301" lon="3.35296">
        <ele>422.339</ele>
        <time>2017-04-01T20:44:47Z</time>
      </trkpt>
      <trkpt lat="43.74278" lon="3.35326">
        <ele>427.174</ele>
        <time>2017-04-01T20:45:07Z</time>
      </trkpt>
      <trkpt lat="43.74256" lon="3.35334">
        <ele>430.573</ele>
        <time>2017-04-01T20:45:27Z</time>
      </trkpt>
      <trkpt lat="43.74207" lon="3.35327">
        <ele>438.436</ele>
        <time>2017-04-01T20:45:47Z</time>
      </trkpt>
      <trkpt lat="43.7419" lon="3.35329">
        <ele>439.133</ele>
        <time>2017-04-01T20:46:07Z</time>
      </trkpt>
      <trkpt lat="43.7414" lon="3.35389">
        <ele>456.027</ele>
        <time>2017-04-01T20:46:27Z</time>
      </trkpt>
      <trkpt lat="43.74124" lon="3.3539">
        <ele>454.188</ele>
        <time>2017-04-01T20:46:47Z</time>
      </trkpt>
      <trkpt lat="43.74091" lon="3.35406">
        <ele>456.924</ele>
        <time>2017-04-01T20:47:07Z</time>
      </trkpt>
      <trkpt lat="43.74073" lon="3.35411">
        <ele>458.726</ele>
        <time>2017-04-01T20:47:27Z</time>
      </trkpt>
      <trkpt lat="43.74026" lon="3.35403">
        <ele>461.108</ele>
        <time>2017-04-01T20:47:47Z</time>
      </trkpt>
      <trkpt lat="43.73999" lon="3.35449">
        <ele>464.154</ele>
        <time>2017-04-01T20:48:07Z</time>
      </trkpt>
      <trkpt lat="43.73982" lon="3.35434">
        <ele>463.249</ele>
        <time>2017-04-01T20:48:27Z</time>
      </trkpt>
      <trkpt lat="43.73963" lon="3.35434">
        <ele>463.22</ele>
        <time>2017-04-01T20:48:47Z</time>
      </trkpt>
      <trkpt lat="43.73894" lon="3.35468">
        <ele>459.065</ele>
        <time>2017-04-01T20:49:07Z</time>
      </trkpt>
      <trkpt lat="43.73858" lon="3.35504">
        <ele>453.584</ele>
        <time>2017-04-01T20:49:27Z</time>
      </trkpt>
      <trkpt lat="43.73806" lon="3.35515">
        <ele>454.327</ele>
        <time>2017-04-01T20:49:47Z</time>
      </trkpt>
      <trkpt lat="43.73781" lon="3.35527">
        <ele>451.194</ele>
        <time>2017-04-01T20:50:07Z</time>
      </trkpt>
      <trkpt lat="43.73716" lon="3.35537">
        <ele>447.278</ele>
        <time>2017-04-01T20:50:27Z</time>
      </trkpt>
      <trkpt lat="43.73698" lon="3.35527">
        <ele>446.894</ele>
        <time>2017-04-01T20:50:47Z</time>
      </trkpt>
      <trkpt lat="43.73672" lon="3.35532">
        <ele>441.257</ele>
        <time>2017-04-01T20:51:07Z</time>
      </trkpt>
      <trkpt lat="43.73659" lon="3.35564">
        <ele>435.722</ele>
        <time>2019-03-29T02:23:54Z</time>
      </trkpt>
      <trkpt lat="43.73647" lon="3.35575">
        <ele>434.108</ele>
        <time>2019-03-29T02:24:14Z</time>
      </trkpt>
      <trkpt lat="43.73625" lon="3.35574">
        <ele>433.685</ele>
        <time>2019-03-29T02:24:34Z</time>
      </trkpt>
      <trkpt lat="43.73589" lon="3.35562">
        <ele>433.73</ele>
        <time>2017-04-01T20:51:27Z</time>
      </trkpt>
      <trkpt lat="43.735" lon="3.35557">
        <ele>427.941</ele>
        <time>2017-04-01T20:51:47Z</time>
      </trkpt>
      <trkpt lat="43.73473" lon="3.35538">
        <ele>427.316</ele>
        <time>2017-04-01T20:52:07Z</time>
      </trkpt>
      <trkpt lat="43.73456" lon="3.35536">
        <ele>425.885</ele>
        <time>2017-04-01T20:52:27Z</time>
      </trkpt>
      <trkpt lat="43.73408" lon="3.35573">
        <ele>420.998</ele>
        <time>2017-04-01T20:52:47Z</time>
      </trkpt>
      <trkpt lat="43.73389" lon="3.35551">
        <ele>421.265</ele>
        <time>2017-04-01T20:53:07Z</time>
      </trkpt>
      <trkpt lat="43.73341" lon="3.35532">
        <ele>419.499</ele>
        <time>2017-04-01T20:53:27Z</time>
      </trkpt>
      <trkpt lat="43.73297" lon="3.355">
        <ele>419.364</ele>
        <time>2017-04-01T20:53:47Z</time>
      </trkpt>
      <trkpt lat="43.7323" lon="3.35533">
        <ele>425.306</ele>
        <time>2017-04-01T20:54:07Z</time>
      </trkpt>
      <trkpt lat="43.73169" lon="3.35514">
        <ele>424.116</ele>
        <time>2017-04-01T20:54:27Z</time>
      </trkpt>
      <trkpt lat="43.73102" lon="3.35468">
        <ele>420.808</ele>
        <time>2017-04-01T20:54:47Z</time>
      </trkpt>
      <trkpt lat="43.73052" lon="3.35436">
        <ele>420.382</ele>
        <time>2017-04-01T20:55:07Z</time>
      </trkpt>
      <trkpt lat="43.73025" lon="3.35423">
        <ele>420.857</ele>
        <time>2017-04-01T20:55:27Z</time>
      </trkpt>
      <trkpt lat="43.73001" lon="3.35423">
        <ele>420.828</ele>
        <time>2017-04-01T20:55:47Z</time>
      </trkpt>
      <trkpt lat="43.72987" lon="3.35394">
        <ele>421.323</ele>
        <time>2017-04-01T20:56:07Z</time>
      </trkpt>
      <trkpt lat="43.72976" lon="3.35392">
        <ele>421.792</ele>
        <time>2017-04-01T20:56:27Z</time>
      </trkpt>
      <trkpt lat="43.7296" lon="3.35362">
        <ele>423.845</ele>
        <time>2017-04-01T20:56:47Z</time>
      </trkpt>
      <trkpt lat="43.7296" lon="3.35319">
        <ele>426.572</ele>
        <time>2017-04-01T20:57:07Z</time>
      </trkpt>
      <trkpt lat="43.72951" lon="3.35255">
        <ele>429.216</ele>
        <time>2017-04-01T20:57:27Z</time>
      </trkpt>
      <trkpt lat="43.7293" lon="3.35243">
        <ele>430.043</ele>
        <time>2017-04-01T20:57:47Z</time>
      </trkpt>
      <trkpt lat="43.72898" lon="3.35238">
        <ele>429.164</ele>
        <time>2017-04-01T20:58:07Z</time>
      </trkpt>
      <trkpt lat="43.72872" lon="3.35255">
        <ele>426.81</ele>
        <time>2017-04-01T20:58:27Z</time>
      </trkpt>
      <trkpt lat="43.72832" lon="3.35262">
        <ele>420.608</ele>
        <time>2017-04-01T20:58:47Z</time>
      </trkpt>
      <trkpt lat="43.72814" lon="3.35218">
        <ele>413.19</ele>
        <time>2017-04-01T20:59:07Z</time>
      </trkpt>
      <trkpt lat="43.72789" lon="3.35243">
        <ele>408.995</ele>
        <time>2017-04-01T20:59:27Z</time>
      </trkpt>
      <trkpt lat="43.72781" lon="3.35205">
        <ele>405.256</ele>
        <time>2017-04-01T20:59:47Z</time>
      </trkpt>
      <trkpt lat="43.72796" lon="3.35173">
        <ele>405.851</ele>
        <time>2017-04-01T21:00:07Z</time>
      </trkpt>
      <trkpt lat="43.72895" lon="3.35098">
        <ele>406.56</ele>
        <time>2017-04-01T21:00:27Z</time>
      </trkpt>
      <trkpt lat="43.72927" lon="3.35043">
        <ele>407.033</ele>
        <time>2017-04-01T21:00:47Z</time>
      </trkpt>
      <trkpt lat="43.72949" lon="3.34968">
        <ele>406.54</ele>
        <time>2017-04-01T21:01:07Z</time>
      </trkpt>
      <trkpt lat="43.72999" lon="3.34864">
        <ele>411.094</ele>
        <time>2017-04-01T21:01:27Z</time>
      </trkpt>
      <trkpt lat="43.73043" lon="3.34816">
        <ele>413.878</ele>
        <time>2017-04-01T21:01:47Z</time>
      </trkpt>
      <trkpt lat="43.73062" lon="3.3476">
        <ele>414.533</ele>
        <time>2017-04-01T21:02:07Z</time>
      </trkpt>
      <trkpt lat="43.73069" lon="3.34661">
        <ele>412.326</ele>
        <time>2017-04-01T21:02:27Z</time>
      </trkpt>
      <trkpt lat="43.73117" lon="3.34523">
        <ele>423.008</ele>
        <time>2017-04-01T21:02:47Z</time>
      </trkpt>
      <trkpt lat="43.73125" lon="3.34414">
        <ele>422.113</ele>
        <time>2017-04-01T21:03:07Z</time>
      </trkpt>
      <trkpt lat="43.73095" lon="3.34375">
        <ele>421.678</ele>
        <time>2017-04-01T21:03:27Z</time>
      </trkpt>
      <trkpt lat="43.73054" lon="3.34279">
        <ele>420.889</ele>
        <time>2017-04-01T21:03:47Z</time>
      </trkpt>
      <trkpt lat="43.73027" lon="3.34178">
        <ele>421.044</ele>
        <time>2017-04-01T21:04:07Z</time>
      </trkpt>
      <trkpt lat="43.73017" lon="3.34065">
        <ele>420.023</ele>
        <time>2017-04-01T21:04:27Z</time>
      </trkpt>
      <trkpt lat="43.73002" lon="3.34001">
        <ele>420.026</ele>
        <time>2017-04-01T21:04:47Z</time>
      </trkpt>
      <trkpt lat="43.72929" lon="3.33898">
        <ele>420.073</ele>
        <time>2017-04-01T21:05:07Z</time>
      </trkpt>
      <trkpt lat="43.72902" lon="3.33866">
        <ele>420.067</ele>
        <time>2017-04-01T21:05:27Z</time>
      </trkpt>
      <trkpt lat="43.72847" lon="3.33794">
        <ele>419.758</ele>
        <time>2017-04-01T21:05:47Z</time>
      </trkpt>
      <trkpt lat="43.72815" lon="3.33781">
        <ele>416.552</ele>
        <time>2017-04-01T21:06:07Z</time>
      </trkpt>
      <trkpt lat="43.72763" lon="3.33719">
        <ele>412.017</ele>
        <time>2017-04-01T21:06:27Z</time>
      </trkpt>
      <trkpt lat="43.72746" lon="3.33709">
        <ele>412.008</ele>
        <time>2017-04-01T21:06:47Z</time>
      </trkpt>
      <trkpt lat="43.72708" lon="3.33705">
        <ele>411.511</ele>
        <time>2017-04-01T21:07:07Z</time>
      </trkpt>
      <trkpt lat="43.72548" lon="3.3363">
        <ele>419.496</ele>
        <time>2017-04-01T21:07:27Z</time>
      </trkpt>
      <trkpt lat="43.72502" lon="3.33613">
        <ele>415.237</ele>
        <time>2017-04-01T21:07:47Z</time>
      </trkpt>
      <trkpt lat="43.7246" lon="3.3359">
        <ele>408.792</ele>
        <time>2017-04-01T21:08:07Z</time>
      </trkpt>
      <trkpt lat="43.72414" lon="3.33552">
        <ele>400.471</ele>
        <time>2017-04-01T21:08:27Z</time>
      </trkpt>
      <trkpt lat="43.72337" lon="3.3346">
        <ele>380.824</ele>
        <time>2017-04-01T21:08:47Z</time>
      </trkpt>
      <trkpt lat="43.72307" lon="3.33448">
        <ele>378.331</ele>
        <time>2017-04-01T21:09:07Z</time>
      </trkpt>
      <trkpt lat="43.72271" lon="3.33427">
        <ele>376.155</ele>
        <time>2017-04-01T21:09:27Z</time>
      </trkpt>
      <trkpt lat="43.72235" lon="3.33413">
        <ele>376.655</ele>
        <time>2017-04-01T21:09:47Z</time>
      </trkpt>
      <trkpt lat="43.72214" lon="3.33403">
        <ele>375.507</ele>
        <time>2017-04-01T21:10:07Z</time>
      </trkpt>
      <trkpt lat="43.72194" lon="3.33399">
        <ele>375.017</ele>
        <time>2017-04-01T21:10:27Z</time>
      </trkpt>
      <trkpt lat="43.72148" lon="3.33378">
        <ele>373.808</ele>
        <time>2017-04-01T21:10:47Z</time>
      </trkpt>
      <trkpt lat="43.7209" lon="3.3331">
        <ele>370.471</ele>
        <time>2017-04-01T21:11:07Z</time>
      </trkpt>
      <trkpt lat="43.72064" lon="3.3326">
        <ele>369.336</ele>
        <time>2017-04-01T21:11:27Z</time>
      </trkpt>
      <trkpt lat="43.72034" lon="3.3323">
        <ele>366.457</ele>
        <time>2017-04-01T21:11:47Z</time>
      </trkpt>
      <trkpt lat="43.72023" lon="3.33214">
        <ele>365.932</ele>
        <time>2017-04-01T21:12:07Z</time>
      </trkpt>
      <trkpt lat="43.72057" lon="3.33172">
        <ele>365.211</ele>
        <time>2017-04-01T21:12:27Z</time>
      </trkpt>
      <trkpt lat="43.72052" lon="3.33128">
        <ele>363.644</ele>
        <time>2017-04-01T21:12:47Z</time>
      </trkpt>
      <trkpt lat="43.72069" lon="3.33077">
        <ele>358.781</ele>
        <time>2017-04-01T21:13:07Z</time>
      </trkpt>
      <trkpt lat="43.72085" lon="3.33061">
        <ele>353.715</ele>
        <time>2017-04-01T21:13:27Z</time>
      </trkpt>
      <trkpt lat="43.72099" lon="3.33027">
        <ele>344.522</ele>
        <time>2017-04-01T21:13:47Z</time>
      </trkpt>
      <trkpt lat="43.72123" lon="3.33022">
        <ele>339.162</ele>
        <time>2017-04-01T21:14:07Z</time>
      </trkpt>
      <trkpt lat="43.72165" lon="3.33041">
        <ele>333.708</ele>
        <time>2017-04-01T21:14:27Z</time>
      </trkpt>
      <trkpt lat="43.72183" lon="3.33033">
        <ele>325.608</ele>
        <time>2017-04-01T21:14:47Z</time>
      </trkpt>
      <trkpt lat="43.72196" lon="3.33052">
        <ele>323.748</ele>
        <time>2017-04-01T21:15:07Z</time>
      </trkpt>
      <trkpt lat="43.72215" lon="3.33069">
        <ele>319.433</ele>
        <time>2017-04-01T21:15:27Z</time>
      </trkpt>
      <trkpt lat="43.72229" lon="3.33072">
        <ele>314.854</ele>
        <time>2017-04-01T21:15:47Z</time>
      </trkpt>
      <trkpt lat="43.72229" lon="3.33043">
        <ele>307.069</ele>
        <time>2017-04-01T21:16:07Z</time>
      </trkpt>
      <trkpt lat="43.72277" lon="3.33078">
        <ele>294.388</ele>
        <time>2017-04-01T21:16:27Z</time>
      </trkpt>
      <trkpt lat="43.72306" lon="3.33105">
        <ele>288.511</ele>
        <time>2017-04-01T21:16:47Z</time>
      </trkpt>
      <trkpt lat="43.72327" lon="3.33105">
        <ele>282.948</ele>
        <time>2017-04-01T21:17:07Z</time>
      </trkpt>
      <trkpt lat="43.7235" lon="3.33061">
        <ele>274.442</ele>
        <time>2017-04-01T21:17:27Z</time>
      </trkpt>
      <trkpt lat="43.72344" lon="3.32993">
        <ele>261.641</ele>
        <time>2017-04-01T21:17:47Z</time>
      </trkpt>
      <trkpt lat="43.72362" lon="3.3279">
        <ele>247.081</ele>
        <time>2017-04-01T21:18:07Z</time>
      </trkpt>
      <trkpt lat="43.72356" lon="3.32684">
        <ele>241.009</ele>
        <time>2017-04-01T21:18:27Z</time>
      </trkpt>
      <trkpt lat="43.72342" lon="3.32664">
        <ele>234.808</ele>
        <time>2017-04-01T21:18:47Z</time>
      </trkpt>
      <trkpt lat="43.72345" lon="3.32648">
        <ele>232.04</ele>
        <time>2017-04-01T21:19:07Z</time>
      </trkpt>
      <trkpt lat="43.72357" lon="3.3263">
        <ele>229.695</ele>
        <time>2019-03-29T02:52:54Z</time>
      </trkpt>
      <trkpt lat="43.72464" lon="3.32588">
        <ele>223.166</ele>
        <time>2019-03-29T02:53:14Z</time>
      </trkpt>
      <trkpt lat="43.72527" lon="3.32593">
        <ele>227.061</ele>
        <time>2019-03-29T02:53:34Z</time>
      </trkpt>
      <trkpt lat="43.72543" lon="3.32553">
        <ele>211.47</ele>
        <time>2019-03-29T02:53:54Z</time>
      </trkpt>
      <trkpt lat="43.72578" lon="3.32556">
        <ele>208.153</ele>
        <time>2019-03-29T02:54:14Z</time>
      </trkpt>
      <trkpt lat="43.72619" lon="3.32519">
        <ele>195.83</ele>
        <time>2019-03-29T02:54:34Z</time>
      </trkpt>
      <trkpt lat="43.7265" lon="3.32505">
        <ele>194.934</ele>
        <time>2019-03-29T02:54:54Z</time>
      </trkpt>
      <trkpt lat="43.72664" lon="3.32475">
        <ele>185.825</ele>
        <time>2019-03-29T02:55:14Z</time>
      </trkpt>
      <trkpt lat="43.727" lon="3.32458">
        <ele>180.126</ele>
        <time>2019-03-29T02:55:34Z</time>
      </trkpt>
      <trkpt lat="43.72691" lon="3.32443">
        <ele>173.808</ele>
        <time>2019-03-29T02:55:54Z</time>
      </trkpt>
      <trkpt lat="43.7273" lon="3.32446">
        <ele>170.008</ele>
        <time>2019-03-29T02:56:14Z</time>
      </trkpt>
      <trkpt lat="43.72799" lon="3.32476">
        <ele>169.938</ele>
        <time>2019-03-29T02:56:34Z</time>
      </trkpt>
      <trkpt lat="43.72907" lon="3.32505">
        <ele>164.483</ele>
        <time>2019-03-29T02:56:54Z</time>
      </trkpt>
      <trkpt lat="43.7294" lon="3.32493">
        <ele>160.874</ele>
        <time>2019-03-29T02:57:14Z</time>
      </trkpt>
      <trkpt lat="43.72945" lon="3.32465">
        <ele>157.329</ele>
        <time>2019-03-29T02:57:34Z</time>
      </trkpt>
      <trkpt lat="43.73012" lon="3.32415">
        <ele>156.798</ele>
        <time>2019-03-29T02:57:54Z</time>
      </trkpt>
      <trkpt lat="43.7311" lon="3.32399">
        <ele>157.471</ele>
        <time>2019-03-29T02:58:14Z</time>
      </trkpt>
      <trkpt lat="43.73102" lon="3.32224">
        <ele>161.028</ele>
        <time>2019-03-29T02:58:34Z</time>
      </trkpt>
      <trkpt lat="43.7309" lon="3.32133">
        <ele>162.272</ele>
        <time>2019-03-29T02:58:54Z</time>
      </trkpt>
      <trkpt lat="43.731" lon="3.32099">
        <ele>162.813</ele>
        <time>2019-03-29T02:59:14Z</time>
      </trkpt>
      <trkpt lat="43.73096" lon="3.32027">
        <ele>163.943</ele>
        <time>2019-03-29T02:59:34Z</time>
      </trkpt>
      <trkpt lat="43.7313" lon="3.31924">
        <ele>168.307</ele>
        <time>2019-03-29T02:59:54Z</time>
      </trkpt>
      <trkpt lat="43.73055" lon="3.31877">
        <ele>161.408</ele>
        <time>2019-03-29T03:00:14Z</time>
      </trkpt>
      <trkpt lat="43.73008" lon="3.31854">
        <ele>160.767</ele>
        <time>2019-03-29T03:00:34Z</time>
      </trkpt>
      <trkpt lat="43.73005" lon="3.31787">
        <ele>161.062</ele>
        <time>2019-03-29T03:00:54Z</time>
      </trkpt>
      <trkpt lat="43.72974" lon="3.3176">
        <ele>167.253</ele>
        <time>2019-03-29T03:01:14Z</time>
      </trkpt>
      <trkpt lat="43.72949" lon="3.31676">
        <ele>169.698</ele>
        <time>2019-03-29T03:01:34Z</time>
      </trkpt>
      <trkpt lat="43.72944" lon="3.3157">
        <ele>169.537</ele>
        <time>2019-03-29T03:01:54Z</time>
      </trkpt>
      <trkpt lat="43.72961" lon="3.31423">
        <ele>173.09</ele>
        <time>2019-03-29T03:02:14Z</time>
      </trkpt>
      <trkpt lat="43.73007" lon="3.3128">
        <ele>172.897</ele>
        <time>2019-03-29T03:02:34Z</time>
      </trkpt>
      <trkpt lat="43.73012" lon="3.312">
        <ele>178.141</ele>
        <time>2019-03-29T03:02:54Z</time>
      </trkpt>
      <trkpt lat="43.73007" lon="3.31101">
        <ele>183.444</ele>
        <time>2019-03-29T03:03:14Z</time>
      </trkpt>
      <trkpt lat="43.72994" lon="3.31007">
        <ele>183.205</ele>
        <time>2019-03-29T03:03:34Z</time>
      </trkpt>
      <trkpt lat="43.72976" lon="3.30947">
        <ele>192.015</ele>
        <time>2019-03-29T03:03:54Z</time>
      </trkpt>
      <trkpt lat="43.72992" lon="3.30818">
        <ele>190.108</ele>
        <time>2019-03-29T03:04:14Z</time>
      </trkpt>
      <trkpt lat="43.72987" lon="3.30745">
        <ele>195.57</ele>
        <time>2019-03-29T03:04:34Z</time>
      </trkpt>
      <trkpt lat="43.73001" lon="3.30549">
        <ele>188.655</ele>
        <time>2019-03-29T03:04:54Z</time>
      </trkpt>
      <trkpt lat="43.72909" lon="3.30455">
        <ele>199.366</ele>
        <time>2019-03-29T03:05:14Z</time>
      </trkpt>
      <trkpt lat="43.72863" lon="3.30446">
        <ele>203.761</ele>
        <time>2017-04-01T21:38:47Z</time>
      </trkpt>
      <trkpt lat="43.72851" lon="3.30379">
        <ele>207.34</ele>
        <time>2017-04-01T21:39:07Z</time>
      </trkpt>
      <trkpt lat="43.72858" lon="3.30209">
        <ele>220.733</ele>
        <time>2017-04-01T21:39:27Z</time>
      </trkpt>
      <trkpt lat="43.72856" lon="3.30126">
        <ele>228.42</ele>
        <time>2017-04-01T21:39:47Z</time>
      </trkpt>
      <trkpt lat="43.72869" lon="3.30085">
        <ele>228.444</ele>
        <time>2017-04-01T21:40:07Z</time>
      </trkpt>
      <trkpt lat="43.72855" lon="3.30055">
        <ele>237.293</ele>
        <time>2017-04-01T21:40:27Z</time>
      </trkpt>
      <trkpt lat="43.72848" lon="3.30011">
        <ele>243.365</ele>
        <time>2017-04-01T21:40:47Z</time>
      </trkpt>
      <trkpt lat="43.72768" lon="3.29988">
        <ele>258.421</ele>
        <time>2017-04-01T21:41:07Z</time>
      </trkpt>
      <trkpt lat="43.72745" lon="3.2996">
        <ele>257.008</ele>
        <time>2017-04-01T21:41:27Z</time>
      </trkpt>
      <trkpt lat="43.7273" lon="3.29912">
        <ele>266.675</ele>
        <time>2017-04-01T21:41:47Z</time>
      </trkpt>
      <trkpt lat="43.72735" lon="3.29871">
        <ele>273.33</ele>
        <time>2017-04-01T21:42:07Z</time>
      </trkpt>
      <trkpt lat="43.72687" lon="3.29827">
        <ele>286.741</ele>
        <time>2017-04-01T21:42:27Z</time>
      </trkpt>
      <trkpt lat="43.72648" lon="3.29806">
        <ele>296.066</ele>
        <time>2017-04-01T21:42:47Z</time>
      </trkpt>
      <trkpt lat="43.72592" lon="3.29767">
        <ele>295.545</ele>
        <time>2017-04-01T21:43:07Z</time>
      </trkpt>
      <trkpt lat="43.72529" lon="3.2977">
        <ele>302.038</ele>
        <time>2017-04-01T21:43:27Z</time>
      </trkpt>
      <trkpt lat="43.72491" lon="3.29802">
        <ele>305.025</ele>
        <time>2017-04-01T21:43:47Z</time>
      </trkpt>
      <trkpt lat="43.72452" lon="3.29781">
        <ele>304.949</ele>
        <time>2017-04-01T21:44:07Z</time>
      </trkpt>
      <trkpt lat="43.72416" lon="3.29776">
        <ele>305.783</ele>
        <time>2017-04-01T21:44:27Z</time>
      </trkpt>
      <trkpt lat="43.72399" lon="3.29733">
        <ele>299.825</ele>
        <time>2017-04-01T21:44:47Z</time>
      </trkpt>
      <trkpt lat="43.72366" lon="3.29707">
        <ele>310.517</ele>
        <time>2017-04-01T21:45:07Z</time>
      </trkpt>
      <trkpt lat="43.72353" lon="3.29648">
        <ele>312.108</ele>
        <time>2017-04-01T21:45:27Z</time>
      </trkpt>
      <trkpt lat="43.72311" lon="3.29645">
        <ele>316.494</ele>
        <time>2017-04-01T21:45:47Z</time>
      </trkpt>
      <trkpt lat="43.7224" lon="3.29661">
        <ele>331.349</ele>
        <time>2017-04-01T21:46:07Z</time>
      </trkpt>
      <trkpt lat="43.72218" lon="3.29622">
        <ele>328.85</ele>
        <time>2017-04-01T21:46:27Z</time>
      </trkpt>
      <trkpt lat="43.72178" lon="3.29625">
        <ele>336.415</ele>
        <time>2017-04-01T21:46:47Z</time>
      </trkpt>
      <trkpt lat="43.72087" lon="3.29684">
        <ele>330.454</ele>
        <time>2017-04-01T21:47:07Z</time>
      </trkpt>
      <trkpt lat="43.72081" lon="3.29691">
        <ele>329.917</ele>
        <time>2017-04-01T21:47:27Z</time>
      </trkpt>
      <trkpt lat="43.72058" lon="3.29687">
        <ele>328.474</ele>
        <time>2017-04-01T21:47:47Z</time>
      </trkpt>
      <trkpt lat="43.72016" lon="3.29714">
        <ele>326.798</ele>
        <time>2017-04-01T21:48:07Z</time>
      </trkpt>
      <trkpt lat="43.71997" lon="3.2974">
        <ele>327.014</ele>
        <time>2017-04-01T21:48:27Z</time>
      </trkpt>
      <trkpt lat="43.71973" lon="3.29706">
        <ele>323.454</ele>
        <time>2017-04-01T21:48:47Z</time>
      </trkpt>
      <trkpt lat="43.71939" lon="3.29721">
        <ele>327.709</ele>
        <time>2017-04-01T21:49:07Z</time>
      </trkpt>
      <trkpt lat="43.71931" lon="3.29704">
        <ele>330.408</ele>
        <time>2017-04-01T21:49:27Z</time>
      </trkpt>
      <trkpt lat="43.71963" lon="3.29663">
        <ele>329.047</ele>
        <time>2017-04-01T21:49:47Z</time>
      </trkpt>
      <trkpt lat="43.71956" lon="3.29616">
        <ele>332.432</ele>
        <time>2017-04-01T21:50:07Z</time>
      </trkpt>
      <trkpt lat="43.71937" lon="3.29581">
        <ele>333.823</ele>
        <time>2017-04-01T21:50:27Z</time>
      </trkpt>
      <trkpt lat="43.7191" lon="3.29571">
        <ele>341.558</ele>
        <time>2017-04-01T21:50:47Z</time>
      </trkpt>
      <trkpt lat="43.71872" lon="3.29448">
        <ele>347.447</ele>
        <time>2017-04-01T21:51:07Z</time>
      </trkpt>
      <trkpt lat="43.71808" lon="3.29343">
        <ele>348.35</ele>
        <time>2017-04-01T21:51:27Z</time>
      </trkpt>
      <trkpt lat="43.71779" lon="3.2933">
        <ele>354.397</ele>
        <time>2017-04-01T21:51:47Z</time>
      </trkpt>
      <trkpt lat="43.71775" lon="3.29263">
        <ele>354.391</ele>
        <time>2017-04-01T21:52:07Z</time>
      </trkpt>
      <trkpt lat="43.71764" lon="3.29297">
        <ele>356.447</ele>
        <time>2017-04-01T21:52:27Z</time>
      </trkpt>
      <trkpt lat="43.71701" lon="3.29309">
        <ele>366.529</ele>
        <time>2017-04-01T21:52:47Z</time>
      </trkpt>
      <trkpt lat="43.71667" lon="3.29286">
        <ele>365.421</ele>
        <time>2017-04-01T21:53:07Z</time>
      </trkpt>
      <trkpt lat="43.71668" lon="3.29252">
        <ele>368.908</ele>
        <time>2017-04-01T21:53:27Z</time>
      </trkpt>
      <trkpt lat="43.71729" lon="3.29238">
        <ele>365.19</ele>
        <time>2017-04-01T21:53:47Z</time>
      </trkpt>
      <trkpt lat="43.71745" lon="3.29215">
        <ele>365.295</ele>
        <time>2017-04-01T21:54:07Z</time>
      </trkpt>
      <trkpt lat="43.71754" lon="3.29176">
        <ele>371.666</ele>
        <time>2017-04-01T21:54:27Z</time>
      </trkpt>
      <trkpt lat="43.71864" lon="3.29183">
        <ele>375.541</ele>
        <time>2017-04-01T21:54:47Z</time>
      </trkpt>
      <trkpt lat="43.71908" lon="3.29155">
        <ele>373.83</ele>
        <time>2017-04-01T21:55:07Z</time>
      </trkpt>
      <trkpt lat="43.71948" lon="3.29093">
        <ele>378.083</ele>
        <time>2017-04-01T21:55:27Z</time>
      </trkpt>
      <trkpt lat="43.71935" lon="3.29082">
        <ele>383.95</ele>
        <time>2017-04-01T21:55:47Z</time>
      </trkpt>
      <trkpt lat="43.7191" lon="3.29131">
        <ele>379.934</ele>
        <time>2017-04-01T21:56:07Z</time>
      </trkpt>
      <trkpt lat="43.71875" lon="3.29145">
        <ele>383.578</ele>
        <time>2017-04-01T21:56:27Z</time>
      </trkpt>
      <trkpt lat="43.71826" lon="3.29126">
        <ele>386.633</ele>
        <time>2017-04-01T21:56:47Z</time>
      </trkpt>
      <trkpt lat="43.71805" lon="3.29094">
        <ele>388.826</ele>
        <time>2017-04-01T21:57:07Z</time>
      </trkpt>
      <trkpt lat="43.71802" lon="3.29049">
        <ele>393.608</ele>
        <time>2017-04-01T21:57:27Z</time>
      </trkpt>
      <trkpt lat="43.7177" lon="3.29043">
        <ele>395.253</ele>
        <time>2017-04-01T21:57:47Z</time>
      </trkpt>
      <trkpt lat="43.71687" lon="3.29086">
        <ele>401.678</ele>
        <time>2017-04-01T21:58:07Z</time>
      </trkpt>
      <trkpt lat="43.71658" lon="3.29043">
        <ele>406.439</ele>
        <time>2017-04-01T21:58:27Z</time>
      </trkpt>
      <trkpt lat="43.71648" lon="3.28983">
        <ele>411.334</ele>
        <time>2017-04-01T21:58:47Z</time>
      </trkpt>
      <trkpt lat="43.71635" lon="3.28934">
        <ele>415.033</ele>
        <time>2017-04-01T21:59:07Z</time>
      </trkpt>
      <trkpt lat="43.71611" lon="3.28899">
        <ele>417.056</ele>
        <time>2017-04-01T21:59:27Z</time>
      </trkpt>
      <trkpt lat="43.71598" lon="3.28853">
        <ele>421.423</ele>
        <time>2017-04-01T21:59:47Z</time>
      </trkpt>
      <trkpt lat="43.71533" lon="3.28719">
        <ele>430.017</ele>
        <time>2017-04-01T22:00:07Z</time>
      </trkpt>
      <trkpt lat="43.7144" lon="3.28725">
        <ele>432.968</ele>
        <time>2017-04-01T22:00:27Z</time>
      </trkpt>
      <trkpt lat="43.71354" lon="3.28666">
        <ele>437.742</ele>
        <time>2017-04-01T22:00:47Z</time>
      </trkpt>
      <trkpt lat="43.71287" lon="3.286">
        <ele>445.826</ele>
        <time>2017-04-01T22:01:07Z</time>
      </trkpt>
      <trkpt lat="43.71261" lon="3.28558">
        <ele>449.308</ele>
        <time>2017-04-01T22:01:27Z</time>
      </trkpt>
      <trkpt lat="43.71152" lon="3.2847">
        <ele>455.212</ele>
        <time>2017-04-01T22:01:47Z</time>
      </trkpt>
      <trkpt lat="43.71147" lon="3.28385">
        <ele>464.387</ele>
        <time>2017-04-01T22:02:07Z</time>
      </trkpt>
      <trkpt lat="43.71116" lon="3.28343">
        <ele>466.498</ele>
        <time>2017-04-01T22:02:27Z</time>
      </trkpt>
      <trkpt lat="43.71117" lon="3.28324">
        <ele>469.843</ele>
        <time>2017-04-01T22:02:47Z</time>
      </trkpt>
      <trkpt lat="43.71132" lon="3.28312">
        <ele>473.072</ele>
        <time>2017-04-01T22:03:07Z</time>
      </trkpt>
      <trkpt lat="43.7117" lon="3.2836">
        <ele>474.335</ele>
        <time>2017-04-01T22:03:27Z</time>
      </trkpt>
      <trkpt lat="43.71186" lon="3.2841">
        <ele>473.492</ele>
        <time>2017-04-01T22:03:47Z</time>
      </trkpt>
      <trkpt lat="43.71354" lon="3.28434">
        <ele>487.466</ele>
        <time>2017-04-01T22:04:07Z</time>
      </trkpt>
      <trkpt lat="43.71437" lon="3.28421">
        <ele>495.391</ele>
        <time>2017-04-01T22:04:27Z</time>
      </trkpt>
      <trkpt lat="43.71511" lon="3.28396">
        <ele>503.081</ele>
        <time>2017-04-01T22:04:47Z</time>
      </trkpt>
      <trkpt lat="43.7157" lon="3.28394">
        <ele>508.419</ele>
        <time>2017-04-01T22:05:07Z</time>
      </trkpt>
      <trkpt lat="43.7163" lon="3.28448">
        <ele>510.908</ele>
        <time>2017-04-01T22:05:27Z</time>
      </trkpt>
      <trkpt lat="43.71674" lon="3.28514">
        <ele>515.545</ele>
        <time>2017-04-01T22:05:47Z</time>
      </trkpt>
      <trkpt lat="43.71704" lon="3.28599">
        <ele>512.76</ele>
        <time>2017-04-01T22:06:07Z</time>
      </trkpt>
      <trkpt lat="43.71713" lon="3.28586">
        <ele>515.771</ele>
        <time>2017-04-01T22:06:27Z</time>
      </trkpt>
      <trkpt lat="43.71671" lon="3.2844">
        <ele>530.756</ele>
        <time>2017-04-01T22:06:47Z</time>
      </trkpt>
      <trkpt lat="43.71638" lon="3.28386">
        <ele>534.355</ele>
        <time>2017-04-01T22:07:07Z</time>
      </trkpt>
      <trkpt lat="43.71608" lon="3.28324">
        <ele>539.198</ele>
        <time>2017-04-01T22:07:27Z</time>
      </trkpt>
      <trkpt lat="43.71533" lon="3.28287">
        <ele>544.835</ele>
        <time>2017-04-01T22:07:47Z</time>
      </trkpt>
      <trkpt lat="43.71445" lon="3.28256">
        <ele>554.759</ele>
        <time>2017-04-01T22:08:07Z</time>
      </trkpt>
      <trkpt lat="43.71399" lon="3.28267">
        <ele>554.074</ele>
        <time>2017-04-01T22:08:27Z</time>
      </trkpt>
      <trkpt lat="43.7131" lon="3.28243">
        <ele>560.256</ele>
        <time>2017-04-01T22:08:47Z</time>
      </trkpt>
      <trkpt lat="43.71246" lon="3.28219">
        <ele>560.021</ele>
        <time>2017-04-01T22:09:07Z</time>
      </trkpt>
      <trkpt lat="43.71249" lon="3.28188">
        <ele>560.208</ele>
        <time>2017-04-01T22:09:27Z</time>
      </trkpt>
      <trkpt lat="43.71294" lon="3.2816">
        <ele>567.713</ele>
        <time>2017-04-01T22:09:47Z</time>
      </trkpt>
      <trkpt lat="43.71264" lon="3.28051">
        <ele>570.038</ele>
        <time>2017-04-01T22:10:07Z</time>
      </trkpt>
      <trkpt lat="43.71204" lon="3.27975">
        <ele>571.119</ele>
        <time>2017-04-01T22:10:27Z</time>
      </trkpt>
      <trkpt lat="43.71191" lon="3.27881">
        <ele>574.394</ele>
        <time>2017-04-01T22:10:47Z</time>
      </trkpt>
      <trkpt lat="43.71191" lon="3.27843">
        <ele>577.583</ele>
        <time>2017-04-01T22:11:07Z</time>
      </trkpt>
      <trkpt lat="43.71175" lon="3.2781">
        <ele>577.636</ele>
        <time>2017-04-01T22:11:27Z</time>
      </trkpt>
      <trkpt lat="43.71143" lon="3.27786">
        <ele>577.273</ele>
        <time>2017-04-01T22:11:47Z</time>
      </trkpt>
      <trkpt lat="43.71081" lon="3.27718">
        <ele>582.667</ele>
        <time>2017-04-01T22:12:07Z</time>
      </trkpt>
      <trkpt lat="43.71039" lon="3.27707">
        <ele>579.761</ele>
        <time>2017-04-01T22:12:27Z</time>
      </trkpt>
      <trkpt lat="43.71001" lon="3.27644">
        <ele>582.421</ele>
        <time>2017-04-01T22:12:47Z</time>
      </trkpt>
      <trkpt lat="43.70887" lon="3.27566">
        <ele>585.613</ele>
        <time>2017-04-01T22:13:07Z</time>
      </trkpt>
      <trkpt lat="43.70869" lon="3.2754">
        <ele>586.408</ele>
        <time>2017-04-01T22:13:27Z</time>
      </trkpt>
      <trkpt lat="43.709" lon="3.27377">
        <ele>590.782</ele>
        <time>2017-04-01T22:13:47Z</time>
      </trkpt>
      <trkpt lat="43.70891" lon="3.27271">
        <ele>590.267</ele>
        <time>2017-04-01T22:14:07Z</time>
      </trkpt>
      <trkpt lat="43.70897" lon="3.27237">
        <ele>590.188</ele>
        <time>2017-04-01T22:14:27Z</time>
      </trkpt>
      <trkpt lat="43.70934" lon="3.27159">
        <ele>591.253</ele>
        <time>2017-04-01T22:14:47Z</time>
      </trkpt>
      <trkpt lat="43.7095" lon="3.27102">
        <ele>594.612</ele>
        <time>2017-04-01T22:15:07Z</time>
      </trkpt>
      <trkpt lat="43.70955" lon="3.26941">
        <ele>597.485</ele>
        <time>2017-04-01T22:15:27Z</time>
      </trkpt>
      <trkpt lat="43.70966" lon="3.26881">
        <ele>599.492</ele>
        <time>2017-04-01T22:15:47Z</time>
      </trkpt>
      <trkpt lat="43.70967" lon="3.26836">
        <ele>599.876</ele>
        <time>2017-04-01T22:16:07Z</time>
      </trkpt>
      <trkpt lat="43.70953" lon="3.26811">
        <ele>599.218</ele>
        <time>2017-04-01T22:16:27Z</time>
      </trkpt>
      <trkpt lat="43.70933" lon="3.26804">
        <ele>599.998</ele>
        <time>2017-04-01T22:16:47Z</time>
      </trkpt>
      <trkpt lat="43.70876" lon="3.26813">
        <ele>601.117</ele>
        <time>2017-04-01T22:17:07Z</time>
      </trkpt>
      <trkpt lat="43.70832" lon="3.26816">
        <ele>604.608</ele>
        <time>2017-04-01T22:17:27Z</time>
      </trkpt>
      <trkpt lat="43.70789" lon="3.26822">
        <ele>606.827</ele>
        <time>2017-04-01T22:17:47Z</time>
      </trkpt>
      <trkpt lat="43.70774" lon="3.26819">
        <ele>608.072</ele>
        <time>2017-04-01T22:18:07Z</time>
      </trkpt>
      <trkpt lat="43.70754" lon="3.26806">
        <ele>609.163</ele>
        <time>2017-04-01T22:18:27Z</time>
      </trkpt>
      <trkpt lat="43.70711" lon="3.26729">
        <ele>612.018</ele>
        <time>2017-04-01T22:18:47Z</time>
      </trkpt>
      <trkpt lat="43.70663" lon="3.26671">
        <ele>611.847</ele>
        <time>2017-04-01T22:19:07Z</time>
      </trkpt>
      <trkpt lat="43.70649" lon="3.26622">
        <ele>614.65</ele>
        <time>2017-04-01T22:19:27Z</time>
      </trkpt>
      <trkpt lat="43.70627" lon="3.26585">
        <ele>619.467</ele>
        <time>2017-04-01T22:19:47Z</time>
      </trkpt>
      <trkpt lat="43.70612" lon="3.26573">
        <ele>621.421</ele>
        <time>2017-04-01T22:20:07Z</time>
      </trkpt>
      <trkpt lat="43.70573" lon="3.2657">
        <ele>622.117</ele>
        <time>2017-04-01T22:20:27Z</time>
      </trkpt>
      <trkpt lat="43.70537" lon="3.2655">
        <ele>623.487</ele>
        <time>2017-04-01T22:20:47Z</time>
      </trkpt>
      <trkpt lat="43.70502" lon="3.26484">
        <ele>626.115</ele>
        <time>2017-04-01T22:21:07Z</time>
      </trkpt>
      <trkpt lat="43.70481" lon="3.26393">
        <ele>624.708</ele>
        <time>2017-04-01T22:21:27Z</time>
      </trkpt>
      <trkpt lat="43.70457" lon="3.26318">
        <ele>626.867</ele>
        <time>2017-04-01T22:21:47Z</time>
      </trkpt>
      <trkpt lat="43.70405" lon="3.26133">
        <ele>634.652</ele>
        <time>2017-04-01T22:22:07Z</time>
      </trkpt>
      <trkpt lat="43.70394" lon="3.26118">
        <ele>635.543</ele>
        <time>2017-04-01T22:22:27Z</time>
      </trkpt>
      <trkpt lat="43.70355" lon="3.26103">
        <ele>637.148</ele>
        <time>2017-04-01T22:22:47Z</time>
      </trkpt>
      <trkpt lat="43.70311" lon="3.26074">
        <ele>637.557</ele>
        <time>2017-04-01T22:23:07Z</time>
      </trkpt>
      <trkpt lat="43.70284" lon="3.26037">
        <ele>634.45</ele>
        <time>2017-04-01T22:23:27Z</time>
      </trkpt>
      <trkpt lat="43.70265" lon="3.2602">
        <ele>630.887</ele>
        <time>2017-04-01T22:23:47Z</time>
      </trkpt>
      <trkpt lat="43.70229" lon="3.26019">
        <ele>625.141</ele>
        <time>2017-04-01T22:24:07Z</time>
      </trkpt>
      <trkpt lat="43.70175" lon="3.26006">
        <ele>617.132</ele>
        <time>2017-04-01T22:24:27Z</time>
      </trkpt>
      <trkpt lat="43.70122" lon="3.25988">
        <ele>612.992</ele>
        <time>2017-04-01T22:24:47Z</time>
      </trkpt>
      <trkpt lat="43.7003" lon="3.25938">
        <ele>606.811</ele>
        <time>2017-04-01T22:25:07Z</time>
      </trkpt>
      <trkpt lat="43.70019" lon="3.25912">
        <ele>605.308</ele>
        <time>2017-04-01T22:25:27Z</time>
      </trkpt>
      <trkpt lat="43.70012" lon="3.25883">
        <ele>604.389</ele>
        <time>2017-04-01T22:25:47Z</time>
      </trkpt>
      <trkpt lat="43.69998" lon="3.25858">
        <ele>603.994</ele>
        <time>2017-04-01T22:26:07Z</time>
      </trkpt>
      <trkpt lat="43.69941" lon="3.25799">
        <ele>605.945</ele>
        <time>2017-04-01T22:26:27Z</time>
      </trkpt>
      <trkpt lat="43.69923" lon="3.25775">
        <ele>606.53</ele>
        <time>2017-04-01T22:26:47Z</time>
      </trkpt>
      <trkpt lat="43.69903" lon="3.25753">
        <ele>607.349</ele>
        <time>2017-04-01T22:27:07Z</time>
      </trkpt>
      <trkpt lat="43.69886" lon="3.25724">
        <ele>607.622</ele>
        <time>2017-04-01T22:27:27Z</time>
      </trkpt>
      <trkpt lat="43.6987" lon="3.25667">
        <ele>605.749</ele>
        <time>2017-04-01T22:27:47Z</time>
      </trkpt>
      <trkpt lat="43.69851" lon="3.2563">
        <ele>606.553</ele>
        <time>2017-04-01T22:28:07Z</time>
      </trkpt>
      <trkpt lat="43.69826" lon="3.2557">
        <ele>604.622</ele>
        <time>2017-04-01T22:28:27Z</time>
      </trkpt>
      <trkpt lat="43.69793" lon="3.25512">
        <ele>603.562</ele>
        <time>2017-04-01T22:28:47Z</time>
      </trkpt>
      <trkpt lat="43.69762" lon="3.25471">
        <ele>603.608</ele>
        <time>2017-04-01T22:29:07Z</time>
      </trkpt>
      <trkpt lat="43.69729" lon="3.25442">
        <ele>605.408</ele>
        <time>2017-04-01T22:29:27Z</time>
      </trkpt>
      <trkpt lat="43.69707" lon="3.25397">
        <ele>604.388</ele>
        <time>2017-04-01T22:29:47Z</time>
      </trkpt>
      <trkpt lat="43.6969" lon="3.25371">
        <ele>604.593</ele>
        <time>2017-04-01T22:30:07Z</time>
      </trkpt>
      <trkpt lat="43.69606" lon="3.25301">
        <ele>609.624</ele>
        <time>2017-04-01T22:30:27Z</time>
      </trkpt>
      <trkpt lat="43.69554" lon="3.25283">
        <ele>609.819</ele>
        <time>2017-04-01T22:30:47Z</time>
      </trkpt>
      <trkpt lat="43.69499" lon="3.25275">
        <ele>612.818</ele>
        <time>2017-04-01T22:31:07Z</time>
      </trkpt>
      <trkpt lat="43.69474" lon="3.25255">
        <ele>612.191</ele>
        <time>2017-04-01T22:31:27Z</time>
      </trkpt>
      <trkpt lat="43.6943" lon="3.25175">
        <ele>614.288</ele>
        <time>2017-04-01T22:31:47Z</time>
      </trkpt>
      <trkpt lat="43.69399" lon="3.25102">
        <ele>616.852</ele>
        <time>2017-04-01T22:32:07Z</time>
      </trkpt>
      <trkpt lat="43.69392" lon="3.25051">
        <ele>618.858</ele>
        <time>2017-04-01T22:32:27Z</time>
      </trkpt>
      <trkpt lat="43.69354" lon="3.24968">
        <ele>621.252</ele>
        <time>2017-04-01T22:32:47Z</time>
      </trkpt>
      <trkpt lat="43.69336" lon="3.24916">
        <ele>628.717</ele>
        <time>2017-04-01T22:33:07Z</time>
      </trkpt>
      <trkpt lat="43.69317" lon="3.24892">
        <ele>632.708</ele>
        <time>2017-04-01T22:33:27Z</time>
      </trkpt>
      <trkpt lat="43.69288" lon="3.24888">
        <ele>633.811</ele>
        <time>2017-04-01T22:33:47Z</time>
      </trkpt>
      <trkpt lat="43.69262" lon="3.24877">
        <ele>636.726</ele>
        <time>2017-04-01T22:34:07Z</time>
      </trkpt>
      <trkpt lat="43.69194" lon="3.24868">
        <ele>640.647</ele>
        <time>2017-04-01T22:34:27Z</time>
      </trkpt>
      <trkpt lat="43.69173" lon="3.24854">
        <ele>641.172</ele>
        <time>2017-04-01T22:34:47Z</time>
      </trkpt>
      <trkpt lat="43.69161" lon="3.24834">
        <ele>642.421</ele>
        <time>2017-04-01T22:35:07Z</time>
      </trkpt>
      <trkpt lat="43.69141" lon="3.24807">
        <ele>642.244</ele>
        <time>2017-04-01T22:35:27Z</time>
      </trkpt>
      <trkpt lat="43.69125" lon="3.24754">
        <ele>651.141</ele>
        <time>2017-04-01T22:35:47Z</time>
      </trkpt>
      <trkpt lat="43.69111" lon="3.24745">
        <ele>651.765</ele>
        <time>2017-04-01T22:36:07Z</time>
      </trkpt>
      <trkpt lat="43.69089" lon="3.2475">
        <ele>650.072</ele>
        <time>2017-04-01T22:36:27Z</time>
      </trkpt>
      <trkpt lat="43.69037" lon="3.24739">
        <ele>655.613</ele>
        <time>2017-04-01T22:36:47Z</time>
      </trkpt>
      <trkpt lat="43.69008" lon="3.24746">
        <ele>658.514</ele>
        <time>2017-04-01T22:37:07Z</time>
      </trkpt>
      <trkpt lat="43.68934" lon="3.24782">
        <ele>660.608</ele>
        <time>2017-04-01T22:37:27Z</time>
      </trkpt>
      <trkpt lat="43.68864" lon="3.24774">
        <ele>661.923</ele>
        <time>2017-04-01T22:37:47Z</time>
      </trkpt>
      <trkpt lat="43.68729" lon="3.24765">
        <ele>663.648</ele>
        <time>2017-04-01T22:38:07Z</time>
      </trkpt>
      <trkpt lat="43.68699" lon="3.2476">
        <ele>663.979</ele>
        <time>2017-04-01T22:38:27Z</time>
      </trkpt>
      <trkpt lat="43.68576" lon="3.24813">
        <ele>664.874</ele>
        <time>2017-04-01T22:38:47Z</time>
      </trkpt>
      <trkpt lat="43.68459" lon="3.24835">
        <ele>668.013</ele>
        <time>2017-04-01T22:39:07Z</time>
      </trkpt>
      <trkpt lat="43.68393" lon="3.24779">
        <ele>669.876</ele>
        <time>2017-04-01T22:39:27Z</time>
      </trkpt>
      <trkpt lat="43.68329" lon="3.24753">
        <ele>667.123</ele>
        <time>2017-04-01T22:39:47Z</time>
      </trkpt>
      <trkpt lat="43.68267" lon="3.2474">
        <ele>664.557</ele>
        <time>2017-04-01T22:40:07Z</time>
      </trkpt>
      <trkpt lat="43.6821" lon="3.24748">
        <ele>660.113</ele>
        <time>2017-04-01T22:40:27Z</time>
      </trkpt>
      <trkpt lat="43.68095" lon="3.24735">
        <ele>650.043</ele>
        <time>2017-04-01T22:40:47Z</time>
      </trkpt>
      <trkpt lat="43.68039" lon="3.24716">
        <ele>645.007</ele>
        <time>2017-04-01T22:41:07Z</time>
      </trkpt>
      <trkpt lat="43.67999" lon="3.24708">
        <ele>640.808</ele>
        <time>2017-04-01T22:41:27Z</time>
      </trkpt>
      <trkpt lat="43.67946" lon="3.24754">
        <ele>633.277</ele>
        <time>2017-04-01T22:41:47Z</time>
      </trkpt>
      <trkpt lat="43.67931" lon="3.24742">
        <ele>629.972</ele>
        <time>2017-04-01T22:42:07Z</time>
      </trkpt>
      <trkpt lat="43.67923" lon="3.24714">
        <ele>627.853</ele>
        <time>2017-04-01T22:42:27Z</time>
      </trkpt>
      <trkpt lat="43.67926" lon="3.24649">
        <ele>623.098</ele>
        <time>2017-04-01T22:42:47Z</time>
      </trkpt>
      <trkpt lat="43.67886" lon="3.24637">
        <ele>616.097</ele>
        <time>2017-04-01T22:43:07Z</time>
      </trkpt>
      <trkpt lat="43.67884" lon="3.2459">
        <ele>610.89</ele>
        <time>2017-04-01T22:43:27Z</time>
      </trkpt>
      <trkpt lat="43.67914" lon="3.24575">
        <ele>612.767</ele>
        <time>2017-04-01T22:43:47Z</time>
      </trkpt>
      <trkpt lat="43.67917" lon="3.24553">
        <ele>613.461</ele>
        <time>2017-04-01T22:44:07Z</time>
      </trkpt>
      <trkpt lat="43.67876" lon="3.24504">
        <ele>611.765</ele>
        <time>2017-04-01T22:44:27Z</time>
      </trkpt>
      <trkpt lat="43.67862" lon="3.24466">
        <ele>611.568</ele>
        <time>2017-04-01T22:44:47Z</time>
      </trkpt>
      <trkpt lat="43.67777" lon="3.24463">
        <ele>606.314</ele>
        <time>2017-04-01T22:45:07Z</time>
      </trkpt>
      <trkpt lat="43.6769" lon="3.24441">
        <ele>609.108</ele>
        <time>2017-04-01T22:45:27Z</time>
      </trkpt>
      <trkpt lat="43.67655" lon="3.24425">
        <ele>610.092</ele>
        <time>2017-04-01T22:45:47Z</time>
      </trkpt>
      <trkpt lat="43.67608" lon="3.24436">
        <ele>611.117</ele>
        <time>2017-04-01T22:46:07Z</time>
      </trkpt>
      <trkpt lat="43.67573" lon="3.24432">
        <ele>612.318</ele>
        <time>2017-04-01T22:46:27Z</time>
      </trkpt>
      <trkpt lat="43.67538" lon="3.24416">
        <ele>612.083</ele>
        <time>2017-04-01T22:46:47Z</time>
      </trkpt>
      <trkpt lat="43.67494" lon="3.24409">
        <ele>610.332</ele>
        <time>2017-04-01T22:47:07Z</time>
      </trkpt>
      <trkpt lat="43.67444" lon="3.24417">
        <ele>603.945</ele>
        <time>2017-04-01T22:47:27Z</time>
      </trkpt>
      <trkpt lat="43.67392" lon="3.24413">
        <ele>601.642</ele>
        <time>2017-04-01T22:47:47Z</time>
      </trkpt>
      <trkpt lat="43.673" lon="3.24419">
        <ele>598.016</ele>
        <time>2017-04-01T22:48:07Z</time>
      </trkpt>
      <trkpt lat="43.67248" lon="3.24406">
        <ele>592.812</ele>
        <time>2017-04-01T22:48:27Z</time>
      </trkpt>
      <trkpt lat="43.67205" lon="3.24403">
        <ele>587.032</ele>
        <time>2017-04-01T22:48:47Z</time>
      </trkpt>
      <trkpt lat="43.67179" lon="3.2441">
        <ele>582.305</ele>
        <time>2017-04-01T22:49:07Z</time>
      </trkpt>
      <trkpt lat="43.67139" lon="3.24401">
        <ele>573.908</ele>
        <time>2017-04-01T22:49:27Z</time>
      </trkpt>
      <trkpt lat="43.6709" lon="3.2436">
        <ele>566.327</ele>
        <time>2017-04-01T22:49:47Z</time>
      </trkpt>
      <trkpt lat="43.6705" lon="3.24344">
        <ele>563.442</ele>
        <time>2017-04-01T22:50:07Z</time>
      </trkpt>
      <trkpt lat="43.67006" lon="3.24311">
        <ele>564.333</ele>
        <time>2017-04-01T22:50:27Z</time>
      </trkpt>
      <trkpt lat="43.66979" lon="3.24266">
        <ele>562.828</ele>
        <time>2017-04-01T22:50:47Z</time>
      </trkpt>
      <trkpt lat="43.66919" lon="3.24226">
        <ele>553.517</ele>
        <time>2017-04-01T22:51:07Z</time>
      </trkpt>
      <trkpt lat="43.66902" lon="3.242">
        <ele>549.02</ele>
        <time>2017-04-01T22:51:27Z</time>
      </trkpt>
      <trkpt lat="43.66873" lon="3.242">
        <ele>546.377</ele>
        <time>2017-04-01T22:51:47Z</time>
      </trkpt>
      <trkpt lat="43.66791" lon="3.24163">
        <ele>539.071</ele>
        <time>2017-04-01T22:52:07Z</time>
      </trkpt>
      <trkpt lat="43.66755" lon="3.24161">
        <ele>536.463</ele>
        <time>2019-03-29T04:19:14Z</time>
      </trkpt>
      <trkpt lat="43.66734" lon="3.24148">
        <ele>534.044</ele>
        <time>2019-03-29T04:19:34Z</time>
      </trkpt>
      <trkpt lat="43.66671" lon="3.24054">
        <ele>522.718</ele>
        <time>2019-03-29T04:20:34Z</time>
      </trkpt>
      <trkpt lat="43.66654" lon="3.2402">
        <ele>517.708</ele>
        <time>2019-03-29T04:20:54Z</time>
      </trkpt>
      <trkpt lat="43.6658" lon="3.23951">
        <ele>506.682</ele>
        <time>2019-03-29T04:21:14Z</time>
      </trkpt>
      <trkpt lat="43.66543" lon="3.23932">
        <ele>500.657</ele>
        <time>2019-03-29T04:22:14Z</time>
      </trkpt>
      <trkpt lat="43.66476" lon="3.23834">
        <ele>488.958</ele>
        <time>2019-03-29T04:22:34Z</time>
      </trkpt>
      <trkpt lat="43.66443" lon="3.23751">
        <ele>480.893</ele>
        <time>2019-03-29T04:22:54Z</time>
      </trkpt>
      <trkpt lat="43.66419" lon="3.23732">
        <ele>475.762</ele>
        <time>2019-03-29T04:23:14Z</time>
      </trkpt>
      <trkpt lat="43.6639" lon="3.23645">
        <ele>467.295</ele>
        <time>2019-03-29T04:23:34Z</time>
      </trkpt>
      <trkpt lat="43.6642" lon="3.23617">
        <ele>466.612</ele>
        <time>2019-03-29T04:23:54Z</time>
      </trkpt>
      <trkpt lat="43.66466" lon="3.23643">
        <ele>463.536</ele>
        <time>2019-03-29T04:24:14Z</time>
      </trkpt>
      <trkpt lat="43.66545" lon="3.2372">
        <ele>456.092</ele>
        <time>2019-03-29T04:24:34Z</time>
      </trkpt>
      <trkpt lat="43.66622" lon="3.23738">
        <ele>445.273</ele>
        <time>2019-03-29T04:24:54Z</time>
      </trkpt>
      <trkpt lat="43.66676" lon="3.23741">
        <ele>440.42</ele>
        <time>2019-03-29T04:25:14Z</time>
      </trkpt>
      <trkpt lat="43.66712" lon="3.23734">
        <ele>437.908</ele>
        <time>2019-03-29T04:25:34Z</time>
      </trkpt>
      <trkpt lat="43.6674" lon="3.23741">
        <ele>439.515</ele>
        <time>2019-03-29T04:25:54Z</time>
      </trkpt>
      <trkpt lat="43.66734" lon="3.23703">
        <ele>436.42</ele>
        <time>2019-03-29T04:26:14Z</time>
      </trkpt>
      <trkpt lat="43.66693" lon="3.23649">
        <ele>430.151</ele>
        <time>2019-03-29T04:26:34Z</time>
      </trkpt>
      <trkpt lat="43.6671" lon="3.23578">
        <ele>435.416</ele>
        <time>2019-03-29T04:26:54Z</time>
      </trkpt>
      <trkpt lat="43.66712" lon="3.23506">
        <ele>437.735</ele>
        <time>2019-03-29T04:27:14Z</time>
      </trkpt>
      <trkpt lat="43.6669" lon="3.2346">
        <ele>434.348</ele>
        <time>2019-03-29T04:27:34Z</time>
      </trkpt>
      <trkpt lat="43.66692" lon="3.23417">
        <ele>435.655</ele>
        <time>2019-03-29T04:27:54Z</time>
      </trkpt>
      <trkpt lat="43.66713" lon="3.23383">
        <ele>439.329</ele>
        <time>2019-03-29T04:28:14Z</time>
      </trkpt>
      <trkpt lat="43.66718" lon="3.23324">
        <ele>437.454</ele>
        <time>2019-03-29T04:28:34Z</time>
      </trkpt>
      <trkpt lat="43.66703" lon="3.23283">
        <ele>432.856</ele>
        <time>2019-03-29T04:28:54Z</time>
      </trkpt>
      <trkpt lat="43.66667" lon="3.23239">
        <ele>425.511</ele>
        <time>2019-03-29T04:29:14Z</time>
      </trkpt>
      <trkpt lat="43.66639" lon="3.23253">
        <ele>412.708</ele>
        <time>2019-03-29T04:29:34Z</time>
      </trkpt>
      <trkpt lat="43.66609" lon="3.23171">
        <ele>405.531</ele>
        <time>2019-03-29T04:29:54Z</time>
      </trkpt>
      <trkpt lat="43.66606" lon="3.23183">
        <ele>402.036</ele>
        <time>2019-03-29T04:30:14Z</time>
      </trkpt>
      <trkpt lat="43.6655" lon="3.23082">
        <ele>382.477</ele>
        <time>2019-03-29T04:30:34Z</time>
      </trkpt>
      <trkpt lat="43.66515" lon="3.23044">
        <ele>369.972</ele>
        <time>2019-03-29T04:30:54Z</time>
      </trkpt>
      <trkpt lat="43.66488" lon="3.22978">
        <ele>367.571</ele>
        <time>2019-03-29T04:31:14Z</time>
      </trkpt>
      <trkpt lat="43.66447" lon="3.22964">
        <ele>357.444</ele>
        <time>2019-03-29T04:31:34Z</time>
      </trkpt>
      <trkpt lat="43.66415" lon="3.2291">
        <ele>354.131</ele>
        <time>2019-03-29T04:31:54Z</time>
      </trkpt>
      <trkpt lat="43.6639" lon="3.22831">
        <ele>353.885</ele>
        <time>2019-03-29T04:32:14Z</time>
      </trkpt>
      <trkpt lat="43.66369" lon="3.22818">
        <ele>344.918</ele>
        <time>2019-03-29T04:32:34Z</time>
      </trkpt>
      <trkpt lat="43.66354" lon="3.22744">
        <ele>338.598</ele>
        <time>2019-03-29T04:32:54Z</time>
      </trkpt>
      <trkpt lat="43.66367" lon="3.22716">
        <ele>342.317</ele>
        <time>2019-03-29T04:33:14Z</time>
      </trkpt>
      <trkpt lat="43.66316" lon="3.22598">
        <ele>327.008</ele>
        <time>2017-04-01T23:10:47Z</time>
      </trkpt>
      <trkpt lat="43.66334" lon="3.22549">
        <ele>322.487</ele>
        <time>2017-04-01T23:11:07Z</time>
      </trkpt>
      <trkpt lat="43.66341" lon="3.2249">
        <ele>319.122</ele>
        <time>2017-04-01T23:11:27Z</time>
      </trkpt>
      <trkpt lat="43.66374" lon="3.22445">
        <ele>318.563</ele>
        <time>2017-04-01T23:11:47Z</time>
      </trkpt>
      <trkpt lat="43.66362" lon="3.22347">
        <ele>312.058</ele>
        <time>2017-04-01T23:12:07Z</time>
      </trkpt>
      <trkpt lat="43.66389" lon="3.22291">
        <ele>313.667</ele>
        <time>2017-04-01T23:12:27Z</time>
      </trkpt>
      <trkpt lat="43.66432" lon="3.22162">
        <ele>311.39</ele>
        <time>2017-04-01T23:12:47Z</time>
      </trkpt>
      <trkpt lat="43.6643" lon="3.22079">
        <ele>313.457</ele>
        <time>2017-04-01T23:13:07Z</time>
      </trkpt>
      <trkpt lat="43.66412" lon="3.2203">
        <ele>315.491</ele>
        <time>2017-04-01T23:13:27Z</time>
      </trkpt>
      <trkpt lat="43.66426" lon="3.21911">
        <ele>320.213</ele>
        <time>2017-04-01T23:13:47Z</time>
      </trkpt>
      <trkpt lat="43.66418" lon="3.21819">
        <ele>319.143</ele>
        <time>2017-04-01T23:14:07Z</time>
      </trkpt>
      <trkpt lat="43.66435" lon="3.21764">
        <ele>317.607</ele>
        <time>2017-04-01T23:14:27Z</time>
      </trkpt>
      <trkpt lat="43.6647" lon="3.21769">
        <ele>320.008</ele>
        <time>2017-04-01T23:14:47Z</time>
      </trkpt>
      <trkpt lat="43.66514" lon="3.21815">
        <ele>327.187</ele>
        <time>2017-04-01T23:15:07Z</time>
      </trkpt>
      <trkpt lat="43.66569" lon="3.2184">
        <ele>335.012</ele>
        <time>2017-04-01T23:15:27Z</time>
      </trkpt>
      <trkpt lat="43.66641" lon="3.21934">
        <ele>334.523</ele>
        <time>2017-04-01T23:15:47Z</time>
      </trkpt>
      <trkpt lat="43.66676" lon="3.21946">
        <ele>333.228</ele>
        <time>2017-04-01T23:16:07Z</time>
      </trkpt>
      <trkpt lat="43.66706" lon="3.21946">
        <ele>331.537</ele>
        <time>2017-04-01T23:16:27Z</time>
      </trkpt>
      <trkpt lat="43.66756" lon="3.21962">
        <ele>330.97</ele>
        <time>2017-04-01T23:16:47Z</time>
      </trkpt>
      <trkpt lat="43.66752" lon="3.21932">
        <ele>335.327</ele>
        <time>2017-04-01T23:17:07Z</time>
      </trkpt>
      <trkpt lat="43.66659" lon="3.21879">
        <ele>341.551</ele>
        <time>2017-04-01T23:17:27Z</time>
      </trkpt>
      <trkpt lat="43.66658" lon="3.21812">
        <ele>353.365</ele>
        <time>2017-04-01T23:17:47Z</time>
      </trkpt>
      <trkpt lat="43.66749" lon="3.21679">
        <ele>404.668</ele>
        <time>2017-04-01T23:18:07Z</time>
      </trkpt>
      <trkpt lat="43.66746" lon="3.21598">
        <ele>411.714</ele>
        <time>2017-04-01T23:18:27Z</time>
      </trkpt>
      <trkpt lat="43.66776" lon="3.21447">
        <ele>410.308</ele>
        <time>2017-04-01T23:18:47Z</time>
      </trkpt>
      <trkpt lat="43.66877" lon="3.215">
        <ele>417.982</ele>
        <time>2017-04-01T23:19:07Z</time>
      </trkpt>
      <trkpt lat="43.66892" lon="3.21548">
        <ele>418.047</ele>
        <time>2017-04-01T23:19:27Z</time>
      </trkpt>
      <trkpt lat="43.66922" lon="3.21555">
        <ele>421.888</ele>
        <time>2017-04-01T23:19:47Z</time>
      </trkpt>
      <trkpt lat="43.66944" lon="3.21573">
        <ele>423.683</ele>
        <time>2017-04-01T23:20:07Z</time>
      </trkpt>
      <trkpt lat="43.66967" lon="3.21569">
        <ele>428.542</ele>
        <time>2017-04-01T23:20:27Z</time>
      </trkpt>
      <trkpt lat="43.66952" lon="3.21497">
        <ele>428.455</ele>
        <time>2017-04-01T23:20:47Z</time>
      </trkpt>
      <trkpt lat="43.66948" lon="3.21489">
        <ele>427.862</ele>
        <time>2017-04-01T23:21:07Z</time>
      </trkpt>
      <trkpt lat="43.66949" lon="3.21392">
        <ele>427.356</ele>
        <time>2017-04-01T23:21:27Z</time>
      </trkpt>
      <trkpt lat="43.66945" lon="3.21277">
        <ele>427.143</ele>
        <time>2017-04-01T23:21:47Z</time>
      </trkpt>
      <trkpt lat="43.6694" lon="3.21247">
        <ele>425.164</ele>
        <time>2017-04-01T23:22:07Z</time>
      </trkpt>
      <trkpt lat="43.66946" lon="3.21199">
        <ele>426.31</ele>
        <time>2017-04-01T23:22:27Z</time>
      </trkpt>
      <trkpt lat="43.66946" lon="3.21092">
        <ele>422.808</ele>
        <time>2017-04-01T23:22:47Z</time>
      </trkpt>
      <trkpt lat="43.66953" lon="3.21055">
        <ele>422.66</ele>
        <time>2017-04-01T23:23:07Z</time>
      </trkpt>
      <trkpt lat="43.6695" lon="3.21016">
        <ele>420.925</ele>
        <time>2017-04-01T23:23:27Z</time>
      </trkpt>
      <trkpt lat="43.66954" lon="3.20981">
        <ele>424.146</ele>
        <time>2017-04-01T23:23:47Z</time>
      </trkpt>
      <trkpt lat="43.6694" lon="3.20948">
        <ele>425.491</ele>
        <time>2017-04-01T23:24:07Z</time>
      </trkpt>
      <trkpt lat="43.66918" lon="3.20921">
        <ele>424.58</ele>
        <time>2017-04-01T23:24:27Z</time>
      </trkpt>
      <trkpt lat="43.66898" lon="3.20903">
        <ele>422.013</ele>
        <time>2017-04-01T23:24:47Z</time>
      </trkpt>
      <trkpt lat="43.66887" lon="3.20884">
        <ele>421.22</ele>
        <time>2017-04-01T23:25:07Z</time>
      </trkpt>
      <trkpt lat="43.66855" lon="3.20854">
        <ele>417.064</ele>
        <time>2017-04-01T23:25:27Z</time>
      </trkpt>
      <trkpt lat="43.6684" lon="3.20812">
        <ele>422.034</ele>
        <time>2017-04-01T23:25:47Z</time>
      </trkpt>
      <trkpt lat="43.66803" lon="3.20764">
        <ele>423.155</ele>
        <time>2017-04-01T23:26:07Z</time>
      </trkpt>
      <trkpt lat="43.66761" lon="3.20633">
        <ele>426.81</ele>
        <time>2017-04-01T23:26:27Z</time>
      </trkpt>
      <trkpt lat="43.66731" lon="3.20386">
        <ele>418.808</ele>
        <time>2017-04-01T23:26:47Z</time>
      </trkpt>
      <trkpt lat="43.66719" lon="3.20353">
        <ele>416.679</ele>
        <time>2017-04-01T23:27:07Z</time>
      </trkpt>
      <trkpt lat="43.66696" lon="3.20315">
        <ele>415.674</ele>
        <time>2017-04-01T23:27:27Z</time>
      </trkpt>
      <trkpt lat="43.66682" lon="3.20321">
        <ele>412.045</ele>
        <time>2017-04-01T23:27:47Z</time>
      </trkpt>
      <trkpt lat="43.66688" lon="3.20265">
        <ele>409.79</ele>
        <time>2017-04-01T23:28:07Z</time>
      </trkpt>
      <trkpt lat="43.66689" lon="3.2017">
        <ele>400.289</ele>
        <time>2017-04-01T23:28:27Z</time>
      </trkpt>
      <trkpt lat="43.66693" lon="3.20128">
        <ele>397.512</ele>
        <time>2017-04-01T23:28:47Z</time>
      </trkpt>
      <trkpt lat="43.6669" lon="3.20088">
        <ele>392.449</ele>
        <time>2017-04-01T23:29:07Z</time>
      </trkpt>
      <trkpt lat="43.66699" lon="3.20039">
        <ele>384.713</ele>
        <time>2017-04-01T23:29:27Z</time>
      </trkpt>
      <trkpt lat="43.66726" lon="3.20001">
        <ele>376.072</ele>
        <time>2017-04-01T23:29:47Z</time>
      </trkpt>
      <trkpt lat="43.66743" lon="3.19997">
        <ele>377.313</ele>
        <time>2017-04-01T23:30:07Z</time>
      </trkpt>
      <trkpt lat="43.66763" lon="3.19976">
        <ele>372.914</ele>
        <time>2017-04-01T23:30:27Z</time>
      </trkpt>
      <trkpt lat="43.6677" lon="3.19936">
        <ele>366.608</ele>
        <time>2017-04-01T23:30:47Z</time>
      </trkpt>
      <trkpt lat="43.66767" lon="3.19908">
        <ele>364.043</ele>
        <time>2017-04-01T23:31:07Z</time>
      </trkpt>
      <trkpt lat="43.6671" lon="3.19852">
        <ele>351.898</ele>
        <time>2017-04-01T23:31:27Z</time>
      </trkpt>
      <trkpt lat="43.6667" lon="3.1984">
        <ele>344.489</ele>
        <time>2017-04-01T23:31:47Z</time>
      </trkpt>
      <trkpt lat="43.66629" lon="3.19849">
        <ele>336.364</ele>
        <time>2017-04-01T23:32:07Z</time>
      </trkpt>
      <trkpt lat="43.66602" lon="3.19831">
        <ele>334.013</ele>
        <time>2017-04-01T23:32:27Z</time>
      </trkpt>
      <trkpt lat="43.66601" lon="3.19801">
        <ele>331.246</ele>
        <time>2017-04-01T23:32:47Z</time>
      </trkpt>
      <trkpt lat="43.66564" lon="3.19736">
        <ele>318.283</ele>
        <time>2017-04-01T23:33:07Z</time>
      </trkpt>
      <trkpt lat="43.66564" lon="3.19696">
        <ele>315.447</ele>
        <time>2017-04-01T23:33:27Z</time>
      </trkpt>
      <trkpt lat="43.6651" lon="3.19654">
        <ele>307.026</ele>
        <time>2017-04-01T23:33:47Z</time>
      </trkpt>
      <trkpt lat="43.66495" lon="3.19625">
        <ele>302.947</ele>
        <time>2017-04-01T23:34:07Z</time>
      </trkpt>
      <trkpt lat="43.66496" lon="3.19581">
        <ele>300.411</ele>
        <time>2017-04-01T23:34:27Z</time>
      </trkpt>
      <trkpt lat="43.66477" lon="3.19545">
        <ele>297.208</ele>
        <time>2017-04-01T23:34:47Z</time>
      </trkpt>
      <trkpt lat="43.66466" lon="3.19512">
        <ele>294.348</ele>
        <time>2017-04-01T23:35:07Z</time>
      </trkpt>
      <trkpt lat="43.66448" lon="3.19483">
        <ele>290.693</ele>
        <time>2017-04-01T23:35:27Z</time>
      </trkpt>
      <trkpt lat="43.66436" lon="3.19397">
        <ele>289.514</ele>
        <time>2017-04-01T23:35:47Z</time>
      </trkpt>
      <trkpt lat="43.66437" lon="3.19351">
        <ele>289.259</ele>
        <time>2017-04-01T23:36:07Z</time>
      </trkpt>
      <trkpt lat="43.66416" lon="3.19318">
        <ele>286.928</ele>
        <time>2017-04-01T23:36:27Z</time>
      </trkpt>
      <trkpt lat="43.66416" lon="3.19289">
        <ele>285.411</ele>
        <time>2017-04-01T23:36:47Z</time>
      </trkpt>
      <trkpt lat="43.66432" lon="3.1926">
        <ele>284.898</ele>
        <time>2017-04-01T23:37:07Z</time>
      </trkpt>
      <trkpt lat="43.66439" lon="3.19208">
        <ele>283.262</ele>
        <time>2017-04-01T23:37:27Z</time>
      </trkpt>
      <trkpt lat="43.66443" lon="3.19091">
        <ele>280.039</ele>
        <time>2017-04-01T23:37:47Z</time>
      </trkpt>
      <trkpt lat="43.66431" lon="3.19048">
        <ele>278.501</ele>
        <time>2017-04-01T23:38:07Z</time>
      </trkpt>
      <trkpt lat="43.66428" lon="3.18995">
        <ele>274.321</ele>
        <time>2017-04-01T23:38:27Z</time>
      </trkpt>
      <trkpt lat="43.66443" lon="3.18918">
        <ele>271.908</ele>
        <time>2017-04-01T23:38:47Z</time>
      </trkpt>
      <trkpt lat="43.66712" lon="3.18409">
        <ele>261.619</ele>
        <time>2017-04-01T23:39:07Z</time>
      </trkpt>
      <trkpt lat="43.66602" lon="3.18333">
        <ele>259.024</ele>
        <time>2017-04-01T23:39:27Z</time>
      </trkpt>
      <trkpt lat="43.66493" lon="3.18305">
        <ele>259.055</ele>
        <time>2017-04-01T23:39:47Z</time>
      </trkpt>
      <trkpt lat="43.66462" lon="3.18288">
        <ele>258.53</ele>
        <time>2017-04-01T23:40:07Z</time>
      </trkpt>
      <trkpt lat="43.66439" lon="3.18193">
        <ele>254.669</ele>
        <time>2017-04-01T23:40:27Z</time>
      </trkpt>
      <trkpt lat="43.66451" lon="3.18136">
        <ele>251.622</ele>
        <time>2017-04-01T23:40:47Z</time>
      </trkpt>
      <trkpt lat="43.66418" lon="3.1808">
        <ele>250.089</ele>
        <time>2017-04-01T23:41:07Z</time>
      </trkpt>
      <trkpt lat="43.66461" lon="3.18051">
        <ele>250.043</ele>
        <time>2017-04-01T23:41:27Z</time>
      </trkpt>
      <trkpt lat="43.66478" lon="3.18018">
        <ele>249.856</ele>
        <time>2017-04-01T23:41:47Z</time>
      </trkpt>
      <trkpt lat="43.66485" lon="3.17891">
        <ele>250.059</ele>
        <time>2017-04-01T23:42:07Z</time>
      </trkpt>
      <trkpt lat="43.66533" lon="3.17703">
        <ele>246.314</ele>
        <time>2017-04-01T23:42:27Z</time>
      </trkpt>
      <trkpt lat="43.6658" lon="3.1758">
        <ele>244.908</ele>
        <time>2017-04-01T23:42:47Z</time>
      </trkpt>
      <trkpt lat="43.66583" lon="3.17487">
        <ele>244.041</ele>
        <time>2017-04-01T23:43:07Z</time>
      </trkpt>
      <trkpt lat="43.66623" lon="3.17349">
        <ele>243.696</ele>
        <time>2017-04-01T23:43:27Z</time>
      </trkpt>
      <trkpt lat="43.66619" lon="3.17304">
        <ele>243.777</ele>
        <time>2017-04-01T23:43:47Z</time>
      </trkpt>
      <trkpt lat="43.66624" lon="3.1724">
        <ele>244.122</ele>
        <time>2017-04-01T23:44:07Z</time>
      </trkpt>
      <trkpt lat="43.6662" lon="3.17132">
        <ele>243.451</ele>
        <time>2017-04-01T23:44:27Z</time>
      </trkpt>
      <trkpt lat="43.66583" lon="3.17112">
        <ele>244.024</ele>
        <time>2017-04-01T23:44:47Z</time>
      </trkpt>
      <trkpt lat="43.66552" lon="3.17106">
        <ele>244.721</ele>
        <time>2017-04-01T23:45:07Z</time>
      </trkpt>
      <trkpt lat="43.66525" lon="3.17087">
        <ele>244.075</ele>
        <time>2017-04-01T23:45:27Z</time>
      </trkpt>
      <trkpt lat="43.66514" lon="3.17066">
        <ele>243.112</ele>
        <time>2017-04-01T23:45:47Z</time>
      </trkpt>
      <trkpt lat="43.66475" lon="3.17016">
        <ele>242.432</ele>
        <time>2017-04-01T23:46:07Z</time>
      </trkpt>
      <trkpt lat="43.66467" lon="3.16987">
        <ele>243.505</ele>
        <time>2017-04-01T23:46:27Z</time>
      </trkpt>
      <trkpt lat="43.66505" lon="3.16854">
        <ele>243.808</ele>
        <time>2017-04-01T23:46:47Z</time>
      </trkpt>
      <trkpt lat="43.66515" lon="3.16863">
        <ele>241.157</ele>
        <time>2017-04-01T23:47:07Z</time>
      </trkpt>
      <trkpt lat="43.6653" lon="3.16842">
        <ele>238.982</ele>
        <time>2017-04-01T23:47:27Z</time>
      </trkpt>
      <trkpt lat="43.66538" lon="3.16818">
        <ele>238.483</ele>
        <time>2017-04-01T23:47:47Z</time>
      </trkpt>
      <trkpt lat="43.66528" lon="3.16801">
        <ele>239.018</ele>
        <time>2017-04-01T23:48:07Z</time>
      </trkpt>
      <trkpt lat="43.66486" lon="3.16753">
        <ele>243.387</ele>
        <time>2017-04-01T23:48:27Z</time>
      </trkpt>
      <trkpt lat="43.66457" lon="3.16703">
        <ele>240.57</ele>
        <time>2017-04-01T23:48:47Z</time>
      </trkpt>
      <trkpt lat="43.66481" lon="3.16639">
        <ele>234.787</ele>
        <time>2017-04-01T23:49:07Z</time>
      </trkpt>
      <trkpt lat="43.66476" lon="3.16595">
        <ele>232.691</ele>
        <time>2017-04-01T23:49:27Z</time>
      </trkpt>
      <trkpt lat="43.66314" lon="3.16379">
        <ele>227.789</ele>
        <time>2017-04-01T23:49:47Z</time>
      </trkpt>
      <trkpt lat="43.66266" lon="3.16325">
        <ele>227.306</ele>
        <time>2017-04-01T23:50:07Z</time>
      </trkpt>
      <trkpt lat="43.66223" lon="3.1627">
        <ele>226.726</ele>
        <time>2017-04-01T23:50:27Z</time>
      </trkpt>
      <trkpt lat="43.66237" lon="3.16235">
        <ele>225.708</ele>
        <time>2017-04-01T23:50:47Z</time>
      </trkpt>
      <trkpt lat="43.66186" lon="3.16121">
        <ele>223.764</ele>
        <time>2017-04-01T23:51:07Z</time>
      </trkpt>
      <trkpt lat="43.66162" lon="3.16082">
        <ele>223.259</ele>
        <time>2017-04-01T23:51:27Z</time>
      </trkpt>
      <trkpt lat="43.66149" lon="3.1604">
        <ele>223.19</ele>
        <time>2017-04-01T23:51:47Z</time>
      </trkpt>
      <trkpt lat="43.66126" lon="3.15995">
        <ele>222.955</ele>
        <time>2017-04-01T23:52:07Z</time>
      </trkpt>
      <trkpt lat="43.66073" lon="3.15922">
        <ele>223.644</ele>
        <time>2017-04-01T23:52:27Z</time>
      </trkpt>
      <trkpt lat="43.66032" lon="3.15909">
        <ele>224.987</ele>
        <time>2017-04-01T23:52:47Z</time>
      </trkpt>
      <trkpt lat="43.65996" lon="3.1587">
        <ele>226.194</ele>
        <time>2017-04-01T23:53:07Z</time>
      </trkpt>
      <trkpt lat="43.65958" lon="3.15743">
        <ele>224.988</ele>
        <time>2017-04-01T23:53:27Z</time>
      </trkpt>
      <trkpt lat="43.65902" lon="3.15606">
        <ele>221.847</ele>
        <time>2017-04-01T23:53:47Z</time>
      </trkpt>
      <trkpt lat="43.65865" lon="3.15559">
        <ele>224.429</ele>
        <time>2017-04-01T23:54:07Z</time>
      </trkpt>
      <trkpt lat="43.65807" lon="3.15436">
        <ele>224.921</ele>
        <time>2017-04-01T23:54:27Z</time>
      </trkpt>
      <trkpt lat="43.65774" lon="3.1538">
        <ele>221.808</ele>
        <time>2017-04-01T23:54:47Z</time>
      </trkpt>
      <trkpt lat="43.65684" lon="3.15307">
        <ele>219.95</ele>
        <time>2017-04-01T23:55:07Z</time>
      </trkpt>
      <trkpt lat="43.65648" lon="3.15301">
        <ele>223.455</ele>
        <time>2019-07-06T18:49:40Z</time>
      </trkpt>
      <trkpt lat="43.65624" lon="3.15279">
        <ele>221.096</ele>
        <time>2019-07-06T18:50:00Z</time>
      </trkpt>
      <trkpt lat="43.65583" lon="3.15271">
        <ele>225.561</ele>
        <time>2019-07-06T18:50:20Z</time>
      </trkpt>
      <trkpt lat="43.65549" lon="3.15194">
        <ele>220.66</ele>
        <time>2019-07-06T18:50:40Z</time>
      </trkpt>
      <trkpt lat="43.65479" lon="3.15147">
        <ele>221.553</ele>
        <time>2019-07-06T18:51:00Z</time>
      </trkpt>
      <trkpt lat="43.65503" lon="3.15119">
        <ele>217.26</ele>
        <time>2019-07-06T18:51:20Z</time>
      </trkpt>
      <trkpt lat="43.65536" lon="3.15106">
        <ele>217.524</ele>
        <time>2019-07-06T18:51:40Z</time>
      </trkpt>
      <trkpt lat="43.65587" lon="3.14943">
        <ele>225.322</ele>
        <time>2019-07-06T18:52:00Z</time>
      </trkpt>
      <trkpt lat="43.65586" lon="3.14924">
        <ele>227.362</ele>
        <time>2019-07-06T18:52:20Z</time>
      </trkpt>
      <trkpt lat="43.65438" lon="3.14876">
        <ele>225.808</ele>
        <time>2019-07-06T18:52:40Z</time>
      </trkpt>
      <trkpt lat="43.65182" lon="3.14942">
        <ele>226.108</ele>
        <time>2019-07-06T18:53:00Z</time>
      </trkpt>
      <trkpt lat="43.65136" lon="3.14902">
        <ele>228.168</ele>
        <time>2019-07-06T18:53:20Z</time>
      </trkpt>
      <trkpt lat="43.65116" lon="3.14838">
        <ele>227.723</ele>
        <time>2019-07-06T18:53:40Z</time>
      </trkpt>
      <trkpt lat="43.65123" lon="3.14704">
        <ele>234.124</ele>
        <time>2019-07-06T18:54:00Z</time>
      </trkpt>
      <trkpt lat="43.65101" lon="3.14581">
        <ele>232.739</ele>
        <time>2019-07-06T18:54:20Z</time>
      </trkpt>
      <trkpt lat="43.6507" lon="3.14452">
        <ele>233.178</ele>
        <time>2019-07-06T18:54:40Z</time>
      </trkpt>
      <trkpt lat="43.65061" lon="3.14342">
        <ele>246.291</ele>
        <time>2019-07-06T18:55:00Z</time>
      </trkpt>
      <trkpt lat="43.65112" lon="3.14256">
        <ele>254.578</ele>
        <time>2019-07-06T18:55:20Z</time>
      </trkpt>
      <trkpt lat="43.65115" lon="3.1417">
        <ele>254.992</ele>
        <time>2019-07-06T18:55:40Z</time>
      </trkpt>
      <trkpt lat="43.65038" lon="3.13963">
        <ele>269.753</ele>
        <time>2019-07-06T18:56:00Z</time>
      </trkpt>
      <trkpt lat="43.65025" lon="3.13901">
        <ele>268.704</ele>
        <time>2019-07-06T18:56:20Z</time>
      </trkpt>
      <trkpt lat="43.65002" lon="3.13826">
        <ele>270.814</ele>
        <time>2019-07-06T18:56:40Z</time>
      </trkpt>
      <trkpt lat="43.64987" lon="3.13676">
        <ele>266.708</ele>
        <time>2019-07-06T18:57:00Z</time>
      </trkpt>
      <trkpt lat="43.65043" lon="3.13635">
        <ele>268.291</ele>
        <time>2019-07-06T18:57:20Z</time>
      </trkpt>
      <trkpt lat="43.65071" lon="3.1357">
        <ele>279.026</ele>
        <time>2019-07-06T18:57:40Z</time>
      </trkpt>
      <trkpt lat="43.65107" lon="3.13433">
        <ele>285.137</ele>
        <time>2019-07-06T18:58:00Z</time>
      </trkpt>
      <trkpt lat="43.6512" lon="3.13322">
        <ele>298.272</ele>
        <time>2019-07-06T18:58:20Z</time>
      </trkpt>
      <trkpt lat="43.65191" lon="3.13122">
        <ele>312.271</ele>
        <time>2019-07-06T18:58:40Z</time>
      </trkpt>
      <trkpt lat="43.65268" lon="3.13092">
        <ele>308.914</ele>
        <time>2019-07-06T18:59:00Z</time>
      </trkpt>
      <trkpt lat="43.65268" lon="3.13056">
        <ele>316.341</ele>
        <time>2019-07-06T18:59:20Z</time>
      </trkpt>
      <trkpt lat="43.65292" lon="3.12987">
        <ele>324.795</ele>
        <time>2019-07-06T18:59:40Z</time>
      </trkpt>
      <trkpt lat="43.65237" lon="3.12991">
        <ele>328.198</ele>
        <time>2020-12-01T04:53:08Z</time>
      </trkpt>
      <trkpt lat="43.65188" lon="3.12977">
        <ele>326.915</ele>
        <time>2020-12-01T04:53:28Z</time>
      </trkpt>
      <trkpt lat="43.65152" lon="3.12931">
        <ele>331.426</ele>
        <time>2020-12-01T04:53:48Z</time>
      </trkpt>
      <trkpt lat="43.65163" lon="3.12884">
        <ele>337.908</ele>
        <time>2020-12-01T04:54:08Z</time>
      </trkpt>
      <trkpt lat="43.65199" lon="3.1286">
        <ele>348.465</ele>
        <time>2015-08-25T08:11:50Z</time>
      </trkpt>
      <trkpt lat="43.65153" lon="3.12819">
        <ele>350.24</ele>
        <time>2015-08-25T08:12:10Z</time>
      </trkpt>
      <trkpt lat="43.65115" lon="3.12815">
        <ele>349.571</ele>
        <time>2015-08-25T08:12:30Z</time>
      </trkpt>
      <trkpt lat="43.65107" lon="3.12831">
        <ele>348.126</ele>
        <time>2015-08-25T08:12:50Z</time>
      </trkpt>
      <trkpt lat="43.651" lon="3.12878">
        <ele>343.325</ele>
        <time>2015-08-25T08:13:10Z</time>
      </trkpt>
      <trkpt lat="43.65052" lon="3.12864">
        <ele>349.598</ele>
        <time>2015-08-25T08:13:30Z</time>
      </trkpt>
      <trkpt lat="43.64943" lon="3.1279">
        <ele>358.225</ele>
        <time>2015-08-25T08:13:50Z</time>
      </trkpt>
      <trkpt lat="43.64899" lon="3.12736">
        <ele>363.189</ele>
        <time>2015-08-25T08:14:10Z</time>
      </trkpt>
      <trkpt lat="43.64864" lon="3.12724">
        <ele>366.883</ele>
        <time>2015-08-25T08:14:30Z</time>
      </trkpt>
      <trkpt lat="43.64825" lon="3.12699">
        <ele>368.425</ele>
        <time>2015-08-25T08:14:50Z</time>
      </trkpt>
      <trkpt lat="43.64697" lon="3.12566">
        <ele>375.017</ele>
        <time>2015-08-25T08:15:10Z</time>
      </trkpt>
      <trkpt lat="43.64655" lon="3.12544">
        <ele>375.808</ele>
        <time>2015-08-25T08:15:30Z</time>
      </trkpt>
      <trkpt lat="43.64599" lon="3.12499">
        <ele>380.234</ele>
        <time>2015-08-25T08:15:50Z</time>
      </trkpt>
      <trkpt lat="43.64536" lon="3.12463">
        <ele>380.699</ele>
        <time>2015-08-25T08:16:10Z</time>
      </trkpt>
      <trkpt lat="43.64511" lon="3.12482">
        <ele>380.64</ele>
        <time>2015-08-25T08:16:30Z</time>
      </trkpt>
      <trkpt lat="43.64488" lon="3.1244">
        <ele>378.425</ele>
        <time>2015-08-25T08:16:50Z</time>
      </trkpt>
      <trkpt lat="43.64442" lon="3.12425">
        <ele>372.964</ele>
        <time>2015-08-25T08:17:10Z</time>
      </trkpt>
      <trkpt lat="43.64422" lon="3.12373">
        <ele>365.577</ele>
        <time>2015-08-25T08:17:30Z</time>
      </trkpt>
      <trkpt lat="43.64419" lon="3.12341">
        <ele>363.744</ele>
        <time>2015-08-25T08:17:50Z</time>
      </trkpt>
      <trkpt lat="43.6444" lon="3.12181">
        <ele>346.918</ele>
        <time>2015-08-25T08:18:10Z</time>
      </trkpt>
      <trkpt lat="43.64447" lon="3.12162">
        <ele>343.877</ele>
        <time>2015-08-25T08:18:30Z</time>
      </trkpt>
      <trkpt lat="43.64445" lon="3.12116">
        <ele>343.161</ele>
        <time>2015-08-25T08:18:50Z</time>
      </trkpt>
      <trkpt lat="43.64489" lon="3.12013">
        <ele>324.727</ele>
        <time>2015-08-25T08:19:10Z</time>
      </trkpt>
      <trkpt lat="43.64491" lon="3.11836">
        <ele>308.408</ele>
        <time>2015-08-25T08:19:30Z</time>
      </trkpt>
      <trkpt lat="43.64462" lon="3.11717">
        <ele>298.083</ele>
        <time>2015-08-25T08:19:50Z</time>
      </trkpt>
      <trkpt lat="43.64424" lon="3.11633">
        <ele>292.418</ele>
        <time>2015-08-25T08:20:10Z</time>
      </trkpt>
      <trkpt lat="43.64403" lon="3.11609">
        <ele>292.579</ele>
        <time>2015-08-25T08:20:30Z</time>
      </trkpt>
      <trkpt lat="43.64389" lon="3.11534">
        <ele>283.044</ele>
        <time>2015-08-25T08:20:50Z</time>
      </trkpt>
      <trkpt lat="43.64357" lon="3.11478">
        <ele>283.093</ele>
        <time>2015-08-25T08:21:10Z</time>
      </trkpt>
      <trkpt lat="43.64295" lon="3.11456">
        <ele>282.886</ele>
        <time>2015-08-25T08:21:30Z</time>
      </trkpt>
      <trkpt lat="43.64252" lon="3.11423">
        <ele>276.123</ele>
        <time>2015-08-25T08:21:50Z</time>
      </trkpt>
      <trkpt lat="43.64215" lon="3.11407">
        <ele>272.797</ele>
        <time>2015-08-25T08:22:10Z</time>
      </trkpt>
      <trkpt lat="43.64192" lon="3.11389">
        <ele>267.168</ele>
        <time>2015-08-25T08:22:30Z</time>
      </trkpt>
      <trkpt lat="43.64108" lon="3.11365">
        <ele>253.442</ele>
        <time>2015-08-25T08:22:50Z</time>
      </trkpt>
      <trkpt lat="43.64035" lon="3.11444">
        <ele>263.026</ele>
        <time>2015-08-25T08:23:10Z</time>
      </trkpt>
      <trkpt lat="43.64003" lon="3.11449">
        <ele>264.508</ele>
        <time>2015-08-25T08:23:30Z</time>
      </trkpt>
      <trkpt lat="43.63938" lon="3.11484">
        <ele>270.992</ele>
        <time>2015-08-25T08:23:50Z</time>
      </trkpt>
      <trkpt lat="43.63868" lon="3.11471">
        <ele>274.797</ele>
        <time>2015-08-25T08:24:10Z</time>
      </trkpt>
      <trkpt lat="43.63811" lon="3.11487">
        <ele>278.978</ele>
        <time>2015-08-25T08:24:30Z</time>
      </trkpt>
      <trkpt lat="43.63696" lon="3.11499">
        <ele>275.873</ele>
        <time>2015-08-25T08:24:50Z</time>
      </trkpt>
      <trkpt lat="43.63636" lon="3.11458">
        <ele>275.392</ele>
        <time>2015-08-25T08:25:10Z</time>
      </trkpt>
      <trkpt lat="43.63601" lon="3.11423">
        <ele>275.895</ele>
        <time>2015-08-25T08:25:30Z</time>
      </trkpt>
      <trkpt lat="43.63586" lon="3.11351">
        <ele>270.642</ele>
        <time>2015-08-25T08:25:50Z</time>
      </trkpt>
      <trkpt lat="43.63565" lon="3.11317">
        <ele>268.076</ele>
        <time>2015-08-25T08:26:10Z</time>
      </trkpt>
      <trkpt lat="43.63542" lon="3.11254">
        <ele>262.857</ele>
        <time>2015-08-25T08:26:30Z</time>
      </trkpt>
      <trkpt lat="43.63476" lon="3.1118">
        <ele>259.7</ele>
        <time>2015-08-25T08:26:50Z</time>
      </trkpt>
      <trkpt lat="43.6343" lon="3.11156">
        <ele>259.62</ele>
        <time>2015-08-25T08:27:10Z</time>
      </trkpt>
      <trkpt lat="43.63381" lon="3.1112">
        <ele>258.108</ele>
        <time>2015-08-25T08:27:30Z</time>
      </trkpt>
      <trkpt lat="43.63353" lon="3.11114">
        <ele>257.661</ele>
        <time>2015-08-25T08:27:50Z</time>
      </trkpt>
      <trkpt lat="43.63332" lon="3.11134">
        <ele>261.336</ele>
        <time>2015-08-25T08:28:10Z</time>
      </trkpt>
      <trkpt lat="43.63321" lon="3.11155">
        <ele>264.397</ele>
        <time>2015-08-25T08:28:30Z</time>
      </trkpt>
      <trkpt lat="43.63302" lon="3.11167">
        <ele>265.932</ele>
        <time>2015-08-25T08:28:50Z</time>
      </trkpt>
      <trkpt lat="43.63274" lon="3.11175">
        <ele>265.781</ele>
        <time>2015-08-25T08:29:10Z</time>
      </trkpt>
      <trkpt lat="43.63229" lon="3.11215">
        <ele>265.444</ele>
        <time>2015-08-25T08:29:30Z</time>
      </trkpt>
      <trkpt lat="43.63054" lon="3.11288">
        <ele>258.291</ele>
        <time>2015-08-25T08:29:50Z</time>
      </trkpt>
      <trkpt lat="43.63027" lon="3.11317">
        <ele>258.555</ele>
        <time>2015-08-25T08:30:10Z</time>
      </trkpt>
      <trkpt lat="43.62971" lon="3.1135">
        <ele>252.565</ele>
        <time>2015-08-25T08:30:30Z</time>
      </trkpt>
      <trkpt lat="43.62922" lon="3.114">
        <ele>251.568</ele>
        <time>2015-08-25T08:30:50Z</time>
      </trkpt>
      <trkpt lat="43.62839" lon="3.11396">
        <ele>248.514</ele>
        <time>2015-08-25T08:31:10Z</time>
      </trkpt>
      <trkpt lat="43.62812" lon="3.11414">
        <ele>249.808</ele>
        <time>2015-08-25T08:31:30Z</time>
      </trkpt>
      <trkpt lat="43.6277" lon="3.1141">
        <ele>245.272</ele>
        <time>2015-08-25T08:31:50Z</time>
      </trkpt>
      <trkpt lat="43.62726" lon="3.11372">
        <ele>237.157</ele>
        <time>2015-08-25T08:32:10Z</time>
      </trkpt>
      <trkpt lat="43.62694" lon="3.11384">
        <ele>231.818</ele>
        <time>2019-03-28T19:50:46Z</time>
      </trkpt>
      <trkpt lat="43.62637" lon="3.11317">
        <ele>215.263</ele>
        <time>2019-03-28T19:51:06Z</time>
      </trkpt>
      <trkpt lat="43.62626" lon="3.11228">
        <ele>207.432</ele>
        <time>2019-03-28T19:51:26Z</time>
      </trkpt>
      <trkpt lat="43.62659" lon="3.11169">
        <ele>204.335</ele>
        <time>2019-03-28T19:51:46Z</time>
      </trkpt>
      <trkpt lat="43.62596" lon="3.11217">
        <ele>201.232</ele>
        <time>2019-03-28T19:52:06Z</time>
      </trkpt>
      <trkpt lat="43.62579" lon="3.11269">
        <ele>202.516</ele>
        <time>2019-03-28T19:52:26Z</time>
      </trkpt>
      <trkpt lat="43.62506" lon="3.11367">
        <ele>200.768</ele>
        <time>2019-03-28T19:52:46Z</time>
      </trkpt>
      <trkpt lat="43.62483" lon="3.11435">
        <ele>201.042</ele>
        <time>2019-03-28T19:53:06Z</time>
      </trkpt>
      <trkpt lat="43.62484" lon="3.11491">
        <ele>200.726</ele>
        <time>2015-08-25T08:33:50Z</time>
      </trkpt>
      <trkpt lat="43.62515" lon="3.1158">
        <ele>201.708</ele>
        <time>2015-08-25T08:34:10Z</time>
      </trkpt>
      <trkpt lat="43.62536" lon="3.11661">
        <ele>201.982</ele>
        <time>2015-08-25T08:34:30Z</time>
      </trkpt>
      <trkpt lat="43.62465" lon="3.11658">
        <ele>220.167</ele>
        <time>2015-08-25T08:34:50Z</time>
      </trkpt>
      <trkpt lat="43.62467" lon="3.11712">
        <ele>214.788</ele>
        <time>2015-08-25T08:35:10Z</time>
      </trkpt>
      <trkpt lat="43.62416" lon="3.1171">
        <ele>222.213</ele>
        <time>2015-08-25T08:35:30Z</time>
      </trkpt>
      <trkpt lat="43.62347" lon="3.11665">
        <ele>228.712</ele>
        <time>2015-08-25T08:35:50Z</time>
      </trkpt>
      <trkpt lat="43.62333" lon="3.11531">
        <ele>233.955</ele>
        <time>2015-08-25T08:36:10Z</time>
      </trkpt>
      <trkpt lat="43.62349" lon="3.11368">
        <ele>235.822</ele>
        <time>2015-08-25T08:36:30Z</time>
      </trkpt>
      <trkpt lat="43.62331" lon="3.11249">
        <ele>241.566</ele>
        <time>2015-08-25T08:36:50Z</time>
      </trkpt>
      <trkpt lat="43.62339" lon="3.11149">
        <ele>246.024</ele>
        <time>2015-08-25T08:37:10Z</time>
      </trkpt>
      <trkpt lat="43.62333" lon="3.11097">
        <ele>249.204</ele>
        <time>2015-08-25T08:37:30Z</time>
      </trkpt>
      <trkpt lat="43.62338" lon="3.11052">
        <ele>252.014</ele>
        <time>2015-08-25T08:37:50Z</time>
      </trkpt>
      <trkpt lat="43.62324" lon="3.10963">
        <ele>254.008</ele>
        <time>2015-08-25T08:38:10Z</time>
      </trkpt>
      <trkpt lat="43.62329" lon="3.10906">
        <ele>259.928</ele>
        <time>2015-08-25T08:38:30Z</time>
      </trkpt>
      <trkpt lat="43.62344" lon="3.10907">
        <ele>262.813</ele>
        <time>2015-08-25T08:38:50Z</time>
      </trkpt>
      <trkpt lat="43.62339" lon="3.1096">
        <ele>258.664</ele>
        <time>2015-08-25T08:39:10Z</time>
      </trkpt>
      <trkpt lat="43.6235" lon="3.10993">
        <ele>259.029</ele>
        <time>2015-08-25T08:39:30Z</time>
      </trkpt>
      <trkpt lat="43.6236" lon="3.10987">
        <ele>262.178</ele>
        <time>2015-08-25T08:39:50Z</time>
      </trkpt>
      <trkpt lat="43.62354" lon="3.10948">
        <ele>263.881</ele>
        <time>2015-08-25T08:40:10Z</time>
      </trkpt>
      <trkpt lat="43.62479" lon="3.1085">
        <ele>278.588</ele>
        <time>2019-03-28T20:00:06Z</time>
      </trkpt>
      <trkpt lat="43.6248" lon="3.10805">
        <ele>282.842</ele>
        <time>2015-08-25T08:42:50Z</time>
      </trkpt>
      <trkpt lat="43.62559" lon="3.10633">
        <ele>291.265</ele>
        <time>2015-08-25T08:43:10Z</time>
      </trkpt>
      <trkpt lat="43.62581" lon="3.10569">
        <ele>294.468</ele>
        <time>2015-08-25T08:43:30Z</time>
      </trkpt>
      <trkpt lat="43.62617" lon="3.10534">
        <ele>300.314</ele>
        <time>2015-08-25T08:43:50Z</time>
      </trkpt>
      <trkpt lat="43.62642" lon="3.10468">
        <ele>304.508</ele>
        <time>2015-08-25T08:44:10Z</time>
      </trkpt>
      <trkpt lat="43.62649" lon="3.10409">
        <ele>308.442</ele>
        <time>2015-08-25T08:44:30Z</time>
      </trkpt>
      <trkpt lat="43.62629" lon="3.10321">
        <ele>312.577</ele>
        <time>2015-08-25T08:44:50Z</time>
      </trkpt>
      <trkpt lat="43.62468" lon="3.10129">
        <ele>309.748</ele>
        <time>2015-08-25T08:45:10Z</time>
      </trkpt>
      <trkpt lat="43.62431" lon="3.10074">
        <ele>306.753</ele>
        <time>2015-08-25T08:45:30Z</time>
      </trkpt>
      <trkpt lat="43.62408" lon="3.10078">
        <ele>305.922</ele>
        <time>2015-08-25T08:45:50Z</time>
      </trkpt>
      <trkpt lat="43.62345" lon="3.10012">
        <ele>299.935</ele>
        <time>2015-08-25T08:46:10Z</time>
      </trkpt>
      <trkpt lat="43.62291" lon="3.1">
        <ele>302.052</ele>
        <time>2015-08-25T08:46:30Z</time>
      </trkpt>
      <trkpt lat="43.62221" lon="3.09941">
        <ele>300.076</ele>
        <time>2015-08-25T08:46:50Z</time>
      </trkpt>
      <trkpt lat="43.62168" lon="3.0997">
        <ele>301.689</ele>
        <time>2019-03-28T20:04:46Z</time>
      </trkpt>
      <trkpt lat="43.6214" lon="3.09972">
        <ele>298.906</ele>
        <time>2019-03-28T20:05:06Z</time>
      </trkpt>
      <trkpt lat="43.62086" lon="3.09992">
        <ele>293.326</ele>
        <time>2019-03-28T20:05:26Z</time>
      </trkpt>
      <trkpt lat="43.62079" lon="3.09975">
        <ele>290.108</ele>
        <time>2019-03-28T20:05:46Z</time>
      </trkpt>
      <trkpt lat="43.62131" lon="3.09953">
        <ele>292.644</ele>
        <time>2015-08-25T08:48:30Z</time>
      </trkpt>
      <trkpt lat="43.62157" lon="3.09932">
        <ele>291.669</ele>
        <time>2019-03-28T20:06:26Z</time>
      </trkpt>
      <trkpt lat="43.62184" lon="3.09899">
        <ele>287.98</ele>
        <time>2019-03-28T20:06:46Z</time>
      </trkpt>
      <trkpt lat="43.62201" lon="3.09867">
        <ele>282.585</ele>
        <time>2019-03-28T20:07:06Z</time>
      </trkpt>
      <trkpt lat="43.62183" lon="3.09848">
        <ele>279.444</ele>
        <time>2019-03-28T20:07:26Z</time>
      </trkpt>
      <trkpt lat="43.62133" lon="3.09848">
        <ele>276.227</ele>
        <time>2019-03-28T20:07:46Z</time>
      </trkpt>
      <trkpt lat="43.62071" lon="3.09813">
        <ele>270.824</ele>
        <time>2019-03-28T20:08:06Z</time>
      </trkpt>
      <trkpt lat="43.62038" lon="3.09825">
        <ele>270.828</ele>
        <time>2015-08-25T08:51:10Z</time>
      </trkpt>
      <trkpt lat="43.62004" lon="3.09844">
        <ele>271.123</ele>
        <time>2015-08-25T08:51:30Z</time>
      </trkpt>
      <trkpt lat="43.61979" lon="3.0988">
        <ele>271.283</ele>
        <time>2015-08-25T08:51:50Z</time>
      </trkpt>
      <trkpt lat="43.61954" lon="3.09891">
        <ele>270.711</ele>
        <time>2015-08-25T08:52:10Z</time>
      </trkpt>
      <trkpt lat="43.61932" lon="3.09894">
        <ele>270.508</ele>
        <time>2015-08-25T08:52:30Z</time>
      </trkpt>
      <trkpt lat="43.61884" lon="3.0996">
        <ele>262.968</ele>
        <time>2015-08-25T08:52:50Z</time>
      </trkpt>
      <trkpt lat="43.61859" lon="3.09945">
        <ele>262.763</ele>
        <time>2015-08-25T08:53:10Z</time>
      </trkpt>
      <trkpt lat="43.61799" lon="3.0993">
        <ele>262.584</ele>
        <time>2015-08-25T08:53:30Z</time>
      </trkpt>
      <trkpt lat="43.61753" lon="3.09942">
        <ele>260.539</ele>
        <time>2015-08-25T08:53:50Z</time>
      </trkpt>
      <trkpt lat="43.61708" lon="3.09873">
        <ele>266.568</ele>
        <time>2015-08-25T08:54:10Z</time>
      </trkpt>
      <trkpt lat="43.6165" lon="3.09839">
        <ele>263.141</ele>
        <time>2015-08-25T08:54:30Z</time>
      </trkpt>
      <trkpt lat="43.61631" lon="3.09812">
        <ele>265.518</ele>
        <time>2015-08-25T08:54:50Z</time>
      </trkpt>
      <trkpt lat="43.61574" lon="3.09802">
        <ele>260.352</ele>
        <time>2015-08-25T08:55:10Z</time>
      </trkpt>
      <trkpt lat="43.61557" lon="3.09759">
        <ele>264.244</ele>
        <time>2015-08-25T08:55:30Z</time>
      </trkpt>
      <trkpt lat="43.61504" lon="3.09723">
        <ele>264.005</ele>
        <time>2015-08-25T08:55:50Z</time>
      </trkpt>
      <trkpt lat="43.61462" lon="3.09679">
        <ele>268.615</ele>
        <time>2015-08-25T08:56:10Z</time>
      </trkpt>
      <trkpt lat="43.61396" lon="3.09677">
        <ele>266.908</ele>
        <time>2015-08-25T08:56:30Z</time>
      </trkpt>
      <trkpt lat="43.61391" lon="3.09656">
        <ele>267.01</ele>
        <time>2015-08-25T08:56:50Z</time>
      </trkpt>
      <trkpt lat="43.61409" lon="3.09618">
        <ele>273.735</ele>
        <time>2015-08-25T08:57:10Z</time>
      </trkpt>
      <trkpt lat="43.61409" lon="3.09587">
        <ele>278.486</ele>
        <time>2015-08-25T08:57:30Z</time>
      </trkpt>
      <trkpt lat="43.61335" lon="3.09539">
        <ele>282.261</ele>
        <time>2015-08-25T08:57:50Z</time>
      </trkpt>
      <trkpt lat="43.61286" lon="3.09478">
        <ele>284.59</ele>
        <time>2015-08-25T08:58:10Z</time>
      </trkpt>
      <trkpt lat="43.61281" lon="3.09435">
        <ele>290.023</ele>
        <time>2015-08-25T08:58:30Z</time>
      </trkpt>
      <trkpt lat="43.61262" lon="3.09402">
        <ele>292.85</ele>
        <time>2015-08-25T08:58:50Z</time>
      </trkpt>
      <trkpt lat="43.612" lon="3.09383">
        <ele>291.264</ele>
        <time>2015-08-25T08:59:10Z</time>
      </trkpt>
      <trkpt lat="43.61178" lon="3.09398">
        <ele>291.169</ele>
        <time>2015-08-25T08:59:30Z</time>
      </trkpt>
      <trkpt lat="43.61112" lon="3.09521">
        <ele>296.404</ele>
        <time>2019-03-28T20:17:06Z</time>
      </trkpt>
      <trkpt lat="43.61116" lon="3.09467">
        <ele>300.924</ele>
        <time>2019-03-28T20:17:26Z</time>
      </trkpt>
      <trkpt lat="43.61036" lon="3.09604">
        <ele>306.708</ele>
        <time>2019-03-28T20:17:46Z</time>
      </trkpt>
      <trkpt lat="43.6102" lon="3.09652">
        <ele>305.932</ele>
        <time>2019-03-28T20:18:06Z</time>
      </trkpt>
      <trkpt lat="43.6097" lon="3.09718">
        <ele>301.827</ele>
        <time>2019-03-28T20:18:26Z</time>
      </trkpt>
      <trkpt lat="43.60885" lon="3.09746">
        <ele>303.628</ele>
        <time>2019-03-28T20:18:46Z</time>
      </trkpt>
      <trkpt lat="43.60775" lon="3.0977">
        <ele>305.593</ele>
        <time>2019-03-28T20:19:06Z</time>
      </trkpt>
      <trkpt lat="43.6067" lon="3.09747">
        <ele>309.322</ele>
        <time>2019-03-28T20:19:26Z</time>
      </trkpt>
      <trkpt lat="43.60618" lon="3.09774">
        <ele>314.035</ele>
        <time>2019-03-28T20:19:46Z</time>
      </trkpt>
      <trkpt lat="43.6056" lon="3.09776">
        <ele>315.292</ele>
        <time>2019-03-28T20:20:06Z</time>
      </trkpt>
      <trkpt lat="43.60465" lon="3.09807">
        <ele>318.916</ele>
        <time>2019-03-28T20:20:26Z</time>
      </trkpt>
      <trkpt lat="43.6041" lon="3.09805">
        <ele>325.343</ele>
        <time>2019-03-28T20:20:46Z</time>
      </trkpt>
      <trkpt lat="43.60325" lon="3.0974">
        <ele>333.564</ele>
        <time>2019-03-28T20:21:06Z</time>
      </trkpt>
      <trkpt lat="43.60149" lon="3.0968">
        <ele>348.41</ele>
        <time>2019-03-28T20:21:26Z</time>
      </trkpt>
      <trkpt lat="43.60083" lon="3.09673">
        <ele>355.908</ele>
        <time>2019-03-28T20:21:46Z</time>
      </trkpt>
      <trkpt lat="43.60007" lon="3.09639">
        <ele>350.76</ele>
        <time>2019-03-28T20:22:06Z</time>
      </trkpt>
      <trkpt lat="43.60002" lon="3.09544">
        <ele>358.335</ele>
        <time>2019-03-28T20:22:26Z</time>
      </trkpt>
      <trkpt lat="43.5996" lon="3.09525">
        <ele>355.996</ele>
        <time>2019-03-28T20:22:46Z</time>
      </trkpt>
      <trkpt lat="43.59907" lon="3.09544">
        <ele>359.711</ele>
        <time>2019-03-28T20:23:06Z</time>
      </trkpt>
      <trkpt lat="43.5985" lon="3.096">
        <ele>340.78</ele>
        <time>2019-03-28T20:23:26Z</time>
      </trkpt>
      <trkpt lat="43.59854" lon="3.0963">
        <ele>339.533</ele>
        <time>2019-03-28T20:23:46Z</time>
      </trkpt>
      <trkpt lat="43.59842" lon="3.09639">
        <ele>338.32</ele>
        <time>2019-03-28T20:24:06Z</time>
      </trkpt>
      <trkpt lat="43.59826" lon="3.09619">
        <ele>334.794</ele>
        <time>2019-03-28T20:24:26Z</time>
      </trkpt>
      <trkpt lat="43.59754" lon="3.09615">
        <ele>327.474</ele>
        <time>2019-03-28T20:24:46Z</time>
      </trkpt>
      <trkpt lat="43.59697" lon="3.09697">
        <ele>313.656</ele>
        <time>2019-03-28T20:25:06Z</time>
      </trkpt>
      <trkpt lat="43.5964" lon="3.09663">
        <ele>300.221</ele>
        <time>2019-03-28T20:25:26Z</time>
      </trkpt>
      <trkpt lat="43.59611" lon="3.09589">
        <ele>288.108</ele>
        <time>2019-03-28T20:25:46Z</time>
      </trkpt>
      <trkpt lat="43.59569" lon="3.0957">
        <ele>278.953</ele>
        <time>2019-03-28T20:26:06Z</time>
      </trkpt>
      <trkpt lat="43.59555" lon="3.09549">
        <ele>275.128</ele>
        <time>2019-03-28T20:26:26Z</time>
      </trkpt>
      <trkpt lat="43.59509" lon="3.09553">
        <ele>266.499</ele>
        <time>2019-03-28T20:26:46Z</time>
      </trkpt>
      <trkpt lat="43.59456" lon="3.0954">
        <ele>258.834</ele>
        <time>2019-03-28T20:27:06Z</time>
      </trkpt>
      <trkpt lat="43.59381" lon="3.09488">
        <ele>245.583</ele>
        <time>2019-03-28T20:27:26Z</time>
      </trkpt>
      <trkpt lat="43.59326" lon="3.09415">
        <ele>240.866</ele>
        <time>2019-03-28T20:27:46Z</time>
      </trkpt>
      <trkpt lat="43.59314" lon="3.09363">
        <ele>240.133</ele>
        <time>2019-03-28T20:28:06Z</time>
      </trkpt>
      <trkpt lat="43.59268" lon="3.09361">
        <ele>230.397</ele>
        <time>2019-03-28T20:28:26Z</time>
      </trkpt>
      <trkpt lat="43.59225" lon="3.09368">
        <ele>224.493</ele>
        <time>2019-03-28T20:28:46Z</time>
      </trkpt>
      <trkpt lat="43.59184" lon="3.0932">
        <ele>220.065</ele>
        <time>2019-03-28T20:29:06Z</time>
      </trkpt>
      <trkpt lat="43.59113" lon="3.09292">
        <ele>210.621</ele>
        <time>2019-03-28T20:29:26Z</time>
      </trkpt>
      <trkpt lat="43.59079" lon="3.09292">
        <ele>210.308</ele>
        <time>2019-03-28T20:29:46Z</time>
      </trkpt>
      <trkpt lat="43.59069" lon="3.09258">
        <ele>210.925</ele>
        <time>2019-03-28T20:30:06Z</time>
      </trkpt>
      <trkpt lat="43.59065" lon="3.09144">
        <ele>212.44</ele>
        <time>2019-03-28T20:30:26Z</time>
      </trkpt>
      <trkpt lat="43.59098" lon="3.08877">
        <ele>209.041</ele>
        <time>2019-03-28T20:30:46Z</time>
      </trkpt>
      <trkpt lat="43.59119" lon="3.08834">
        <ele>204.726</ele>
        <time>2019-03-28T20:31:06Z</time>
      </trkpt>
      <trkpt lat="43.59153" lon="3.08713">
        <ele>197.055</ele>
        <time>2019-03-28T20:31:26Z</time>
      </trkpt>
      <trkpt lat="43.59175" lon="3.0867">
        <ele>191.258</ele>
        <time>2019-03-28T20:31:46Z</time>
      </trkpt>
      <trkpt lat="43.5927" lon="3.08569">
        <ele>187.135</ele>
        <time>2019-03-28T20:32:06Z</time>
      </trkpt>
      <trkpt lat="43.59368" lon="3.08545">
        <ele>184.079</ele>
        <time>2019-03-28T20:32:26Z</time>
      </trkpt>
      <trkpt lat="43.59405" lon="3.08511">
        <ele>180.834</ele>
        <time>2019-03-28T20:32:46Z</time>
      </trkpt>
      <trkpt lat="43.59467" lon="3.08453">
        <ele>180.755</ele>
        <time>2019-03-28T20:33:06Z</time>
      </trkpt>
      <trkpt lat="43.59501" lon="3.08397">
        <ele>180.01</ele>
        <time>2019-03-28T20:33:26Z</time>
      </trkpt>
      <trkpt lat="43.59539" lon="3.0827">
        <ele>183.308</ele>
        <time>2019-03-28T20:33:46Z</time>
      </trkpt>
      <trkpt lat="43.59543" lon="3.08219">
        <ele>185.199</ele>
        <time>2019-03-28T20:34:06Z</time>
      </trkpt>
      <trkpt lat="43.5947" lon="3.08227">
        <ele>182.824</ele>
        <time>2019-03-28T20:34:26Z</time>
      </trkpt>
      <trkpt lat="43.59467" lon="3.08221">
        <ele>183.015</ele>
        <time>2015-08-25T09:14:10Z</time>
      </trkpt>
      <trkpt lat="43.59449" lon="3.0805">
        <ele>193.72</ele>
        <time>2015-08-25T09:14:30Z</time>
      </trkpt>
      <trkpt lat="43.59482" lon="3.08013">
        <ele>197.289</ele>
        <time>2015-08-25T09:14:50Z</time>
      </trkpt>
      <trkpt lat="43.59475" lon="3.0791">
        <ele>214.792</ele>
        <time>2015-08-25T09:15:10Z</time>
      </trkpt>
      <trkpt lat="43.59424" lon="3.07878">
        <ele>222.589</ele>
        <time>2015-08-25T09:15:30Z</time>
      </trkpt>
      <trkpt lat="43.59461" lon="3.0784">
        <ele>229.633</ele>
        <time>2015-08-25T09:15:50Z</time>
      </trkpt>
      <trkpt lat="43.5942" lon="3.07826">
        <ele>235.271</ele>
        <time>2015-08-25T09:16:10Z</time>
      </trkpt>
      <trkpt lat="43.59389" lon="3.07807">
        <ele>239.741</ele>
        <time>2015-08-25T09:16:30Z</time>
      </trkpt>
      <trkpt lat="43.59342" lon="3.07787">
        <ele>246.615</ele>
        <time>2015-08-25T09:16:50Z</time>
      </trkpt>
      <trkpt lat="43.59304" lon="3.07755">
        <ele>257.208</ele>
        <time>2015-08-25T09:17:10Z</time>
      </trkpt>
      <trkpt lat="43.59253" lon="3.07749">
        <ele>264.863</ele>
        <time>2015-08-25T09:17:30Z</time>
      </trkpt>
      <trkpt lat="43.593" lon="3.07698">
        <ele>269.188</ele>
        <time>2015-08-25T09:17:50Z</time>
      </trkpt>
      <trkpt lat="43.59345" lon="3.07663">
        <ele>273.119</ele>
        <time>2015-08-25T09:18:10Z</time>
      </trkpt>
      <trkpt lat="43.59381" lon="3.07632">
        <ele>277.254</ele>
        <time>2015-08-25T09:18:30Z</time>
      </trkpt>
      <trkpt lat="43.59382" lon="3.07612">
        <ele>279.933</ele>
        <time>2015-08-25T09:18:50Z</time>
      </trkpt>
      <trkpt lat="43.59397" lon="3.0757">
        <ele>278.176</ele>
        <time>2015-08-25T09:19:10Z</time>
      </trkpt>
      <trkpt lat="43.5938" lon="3.07561">
        <ele>279.523</ele>
        <time>2015-08-25T09:19:30Z</time>
      </trkpt>
      <trkpt lat="43.59333" lon="3.0755">
        <ele>281.627</ele>
        <time>2015-08-25T09:19:50Z</time>
      </trkpt>
      <trkpt lat="43.593" lon="3.07507">
        <ele>283.895</ele>
        <time>2015-08-25T09:20:10Z</time>
      </trkpt>
      <trkpt lat="43.5929" lon="3.0748">
        <ele>281.149</ele>
        <time>2015-08-25T09:20:30Z</time>
      </trkpt>
      <trkpt lat="43.59293" lon="3.07448">
        <ele>283.723</ele>
        <time>2015-08-25T09:20:50Z</time>
      </trkpt>
      <trkpt lat="43.59315" lon="3.07409">
        <ele>287.508</ele>
        <time>2015-08-25T09:21:10Z</time>
      </trkpt>
      <trkpt lat="43.59347" lon="3.07368">
        <ele>289.865</ele>
        <time>2015-08-25T09:21:30Z</time>
      </trkpt>
      <trkpt lat="43.59381" lon="3.07292">
        <ele>298.92</ele>
        <time>2015-08-25T09:21:50Z</time>
      </trkpt>
      <trkpt lat="43.59412" lon="3.07247">
        <ele>305.851</ele>
        <time>2015-08-25T09:22:10Z</time>
      </trkpt>
      <trkpt lat="43.59457" lon="3.07209">
        <ele>309.746</ele>
        <time>2015-08-25T09:22:30Z</time>
      </trkpt>
      <trkpt lat="43.59474" lon="3.07171">
        <ele>314.755</ele>
        <time>2015-08-25T09:22:50Z</time>
      </trkpt>
      <trkpt lat="43.59498" lon="3.07057">
        <ele>326.548</ele>
        <time>2015-08-25T09:23:10Z</time>
      </trkpt>
      <trkpt lat="43.59515" lon="3.07004">
        <ele>328.745</ele>
        <time>2015-08-25T09:23:30Z</time>
      </trkpt>
      <trkpt lat="43.5951" lon="3.06981">
        <ele>327.039</ele>
        <time>2015-08-25T09:23:50Z</time>
      </trkpt>
      <trkpt lat="43.59537" lon="3.06921">
        <ele>335.235</ele>
        <time>2015-08-25T09:24:10Z</time>
      </trkpt>
      <trkpt lat="43.59539" lon="3.06855">
        <ele>342.686</ele>
        <time>2015-08-25T09:24:30Z</time>
      </trkpt>
      <trkpt lat="43.59525" lon="3.0681">
        <ele>348.914</ele>
        <time>2015-08-25T09:24:50Z</time>
      </trkpt>
      <trkpt lat="43.59501" lon="3.06787">
        <ele>349.708</ele>
        <time>2015-08-25T09:25:10Z</time>
      </trkpt>
      <trkpt lat="43.59529" lon="3.06775">
        <ele>351.119</ele>
        <time>2015-08-25T09:25:30Z</time>
      </trkpt>
      <trkpt lat="43.59608" lon="3.0677">
        <ele>361.314</ele>
        <time>2015-08-25T09:25:50Z</time>
      </trkpt>
      <trkpt lat="43.5965" lon="3.06736">
        <ele>364.595</ele>
        <time>2015-08-25T09:26:10Z</time>
      </trkpt>
      <trkpt lat="43.5974" lon="3.06678">
        <ele>370.77</ele>
        <time>2015-08-25T09:26:30Z</time>
      </trkpt>
      <trkpt lat="43.59856" lon="3.06586">
        <ele>381.069</ele>
        <time>2015-08-25T09:26:50Z</time>
      </trkpt>
      <trkpt lat="43.59875" lon="3.06544">
        <ele>383.982</ele>
        <time>2015-08-25T09:27:10Z</time>
      </trkpt>
      <trkpt lat="43.59901" lon="3.06485">
        <ele>391.719</ele>
        <time>2015-08-25T09:27:30Z</time>
      </trkpt>
      <trkpt lat="43.59903" lon="3.06404">
        <ele>398.533</ele>
        <time>2015-08-25T09:27:50Z</time>
      </trkpt>
      <trkpt lat="43.59925" lon="3.06356">
        <ele>408.985</ele>
        <time>2015-08-25T09:28:10Z</time>
      </trkpt>
      <trkpt lat="43.59922" lon="3.06281">
        <ele>422.489</ele>
        <time>2015-08-25T09:28:30Z</time>
      </trkpt>
      <trkpt lat="43.59904" lon="3.06258">
        <ele>429.817</ele>
        <time>2015-08-25T09:28:50Z</time>
      </trkpt>
      <trkpt lat="43.59842" lon="3.06238">
        <ele>445.208</ele>
        <time>2015-08-25T09:29:10Z</time>
      </trkpt>
      <trkpt lat="43.59828" lon="3.06216">
        <ele>450.844</ele>
        <time>2015-08-25T09:29:30Z</time>
      </trkpt>
      <trkpt lat="43.59823" lon="3.06194">
        <ele>453.529</ele>
        <time>2015-08-25T09:29:50Z</time>
      </trkpt>
      <trkpt lat="43.59811" lon="3.06184">
        <ele>454.74</ele>
        <time>2015-08-25T09:30:10Z</time>
      </trkpt>
      <trkpt lat="43.59816" lon="3.06126">
        <ele>460.115</ele>
        <time>2015-08-25T09:30:30Z</time>
      </trkpt>
      <trkpt lat="43.59817" lon="3.0601">
        <ele>458.264</ele>
        <time>2015-08-25T09:30:50Z</time>
      </trkpt>
      <trkpt lat="43.59807" lon="3.05971">
        <ele>453.637</ele>
        <time>2015-08-25T09:31:10Z</time>
      </trkpt>
      <trkpt lat="43.59819" lon="3.05863">
        <ele>455.694</ele>
        <time>2015-08-25T09:31:30Z</time>
      </trkpt>
      <trkpt lat="43.59819" lon="3.05762">
        <ele>451.518</ele>
        <time>2015-08-25T09:31:50Z</time>
      </trkpt>
      <trkpt lat="43.59836" lon="3.05596">
        <ele>446.676</ele>
        <time>2015-08-25T09:32:10Z</time>
      </trkpt>
      <trkpt lat="43.59877" lon="3.05556">
        <ele>445.09</ele>
        <time>2015-08-25T09:32:30Z</time>
      </trkpt>
      <trkpt lat="43.59901" lon="3.05506">
        <ele>444.219</ele>
        <time>2015-08-25T09:32:50Z</time>
      </trkpt>
      <trkpt lat="43.59901" lon="3.05451">
        <ele>439.108</ele>
        <time>2015-08-25T09:33:10Z</time>
      </trkpt>
      <trkpt lat="43.5993" lon="3.0536">
        <ele>441.713</ele>
        <time>2015-08-25T09:33:30Z</time>
      </trkpt>
      <trkpt lat="43.59936" lon="3.05313">
        <ele>443.048</ele>
        <time>2015-08-25T09:33:50Z</time>
      </trkpt>
      <trkpt lat="43.59902" lon="3.05299">
        <ele>437.099</ele>
        <time>2015-08-25T09:34:10Z</time>
      </trkpt>
      <trkpt lat="43.59906" lon="3.05229">
        <ele>443.664</ele>
        <time>2015-08-25T09:34:30Z</time>
      </trkpt>
      <trkpt lat="43.59965" lon="3.05157">
        <ele>440.623</ele>
        <time>2015-08-25T09:34:50Z</time>
      </trkpt>
      <trkpt lat="43.59997" lon="3.05145">
        <ele>442.336</ele>
        <time>2015-08-25T09:35:10Z</time>
      </trkpt>
      <trkpt lat="43.60048" lon="3.05113">
        <ele>437.953</ele>
        <time>2015-08-25T09:35:30Z</time>
      </trkpt>
      <trkpt lat="43.60132" lon="3.05086">
        <ele>431.557</ele>
        <time>2015-08-25T09:35:50Z</time>
      </trkpt>
      <trkpt lat="43.60178" lon="3.0509">
        <ele>427.861</ele>
        <time>2015-08-25T09:36:10Z</time>
      </trkpt>
      <trkpt lat="43.60346" lon="3.05064">
        <ele>425.621</ele>
        <time>2015-08-25T09:36:30Z</time>
      </trkpt>
      <trkpt lat="43.60381" lon="3.05072">
        <ele>436.613</ele>
        <time>2015-08-25T09:36:50Z</time>
      </trkpt>
      <trkpt lat="43.60404" lon="3.05041">
        <ele>434.508</ele>
        <time>2015-08-25T09:37:10Z</time>
      </trkpt>
      <trkpt lat="43.60462" lon="3.05004">
        <ele>430.632</ele>
        <time>2015-08-25T09:37:30Z</time>
      </trkpt>
      <trkpt lat="43.60513" lon="3.05">
        <ele>437.957</ele>
        <time>2015-08-25T09:37:50Z</time>
      </trkpt>
      <trkpt lat="43.6046" lon="3.04946">
        <ele>439.588</ele>
        <time>2015-08-25T09:38:10Z</time>
      </trkpt>
      <trkpt lat="43.60455" lon="3.04914">
        <ele>447.573</ele>
        <time>2015-08-25T09:38:30Z</time>
      </trkpt>
      <trkpt lat="43.60428" lon="3.04876">
        <ele>453.232</ele>
        <time>2015-08-25T09:38:50Z</time>
      </trkpt>
      <trkpt lat="43.60376" lon="3.04831">
        <ele>459.755</ele>
        <time>2015-08-25T09:39:10Z</time>
      </trkpt>
      <trkpt lat="43.60357" lon="3.04805">
        <ele>465.672</ele>
        <time>2015-08-25T09:39:30Z</time>
      </trkpt>
      <trkpt lat="43.60336" lon="3.04794">
        <ele>470.266</ele>
        <time>2015-08-25T09:39:50Z</time>
      </trkpt>
      <trkpt lat="43.60281" lon="3.04741">
        <ele>482.899</ele>
        <time>2015-08-25T09:40:10Z</time>
      </trkpt>
      <trkpt lat="43.60304" lon="3.04711">
        <ele>490.507</ele>
        <time>2015-08-25T09:40:30Z</time>
      </trkpt>
      <trkpt lat="43.60274" lon="3.047">
        <ele>492.227</ele>
        <time>2015-08-25T09:40:50Z</time>
      </trkpt>
      <trkpt lat="43.60247" lon="3.04661">
        <ele>492.208</ele>
        <time>2015-08-25T09:41:10Z</time>
      </trkpt>
      <trkpt lat="43.60283" lon="3.0462">
        <ele>507.175</ele>
        <time>2015-08-25T09:41:30Z</time>
      </trkpt>
      <trkpt lat="43.60306" lon="3.04636">
        <ele>506.76</ele>
        <time>2015-08-25T09:41:50Z</time>
      </trkpt>
      <trkpt lat="43.60338" lon="3.0463">
        <ele>506.461</ele>
        <time>2015-08-25T09:42:10Z</time>
      </trkpt>
      <trkpt lat="43.6037" lon="3.04629">
        <ele>509.246</ele>
        <time>2015-08-25T09:42:30Z</time>
      </trkpt>
      <trkpt lat="43.60452" lon="3.04709">
        <ele>513.585</ele>
        <time>2015-08-25T09:42:50Z</time>
      </trkpt>
      <trkpt lat="43.6044" lon="3.0465">
        <ele>524.828</ele>
        <time>2015-08-25T09:43:10Z</time>
      </trkpt>
      <trkpt lat="43.60379" lon="3.04591">
        <ele>523.485</ele>
        <time>2015-08-25T09:43:30Z</time>
      </trkpt>
      <trkpt lat="43.60322" lon="3.04564">
        <ele>523.249</ele>
        <time>2015-08-25T09:43:50Z</time>
      </trkpt>
      <trkpt lat="43.60345" lon="3.04547">
        <ele>530.624</ele>
        <time>2015-08-25T09:44:10Z</time>
      </trkpt>
      <trkpt lat="43.60366" lon="3.04546">
        <ele>534.504</ele>
        <time>2015-08-25T09:44:30Z</time>
      </trkpt>
      <trkpt lat="43.60408" lon="3.04532">
        <ele>552.414</ele>
        <time>2015-08-25T09:44:50Z</time>
      </trkpt>
      <trkpt lat="43.60529" lon="3.04615">
        <ele>570.508</ele>
        <time>2015-08-25T09:45:10Z</time>
      </trkpt>
      <trkpt lat="43.60519" lon="3.04587">
        <ele>577.258</ele>
        <time>2015-08-25T09:45:30Z</time>
      </trkpt>
      <trkpt lat="43.60526" lon="3.04555">
        <ele>587.693</ele>
        <time>2015-08-25T09:45:50Z</time>
      </trkpt>
      <trkpt lat="43.60532" lon="3.04579">
        <ele>583.374</ele>
        <time>2015-08-25T09:46:10Z</time>
      </trkpt>
      <trkpt lat="43.60564" lon="3.0458">
        <ele>590.569</ele>
        <time>2015-08-25T09:46:30Z</time>
      </trkpt>
      <trkpt lat="43.60568" lon="3.04558">
        <ele>596.228</ele>
        <time>2015-08-25T09:46:50Z</time>
      </trkpt>
      <trkpt lat="43.60612" lon="3.04539">
        <ele>608.491</ele>
        <time>2015-08-25T09:47:10Z</time>
      </trkpt>
      <trkpt lat="43.60637" lon="3.04534">
        <ele>613.998</ele>
        <time>2015-08-25T09:47:30Z</time>
      </trkpt>
      <trkpt lat="43.60681" lon="3.04493">
        <ele>622.222</ele>
        <time>2015-08-25T09:47:50Z</time>
      </trkpt>
      <trkpt lat="43.60666" lon="3.0448">
        <ele>622.447</ele>
        <time>2015-08-25T09:48:10Z</time>
      </trkpt>
      <trkpt lat="43.60619" lon="3.04359">
        <ele>627.129</ele>
        <time>2015-08-25T09:48:30Z</time>
      </trkpt>
      <trkpt lat="43.60623" lon="3.04305">
        <ele>630.021</ele>
        <time>2015-08-25T09:48:50Z</time>
      </trkpt>
      <trkpt lat="43.60658" lon="3.04323">
        <ele>630.308</ele>
        <time>2015-08-25T09:49:10Z</time>
      </trkpt>
      <trkpt lat="43.60682" lon="3.04348">
        <ele>632.49</ele>
        <time>2015-08-25T09:49:30Z</time>
      </trkpt>
      <trkpt lat="43.60724" lon="3.04352">
        <ele>636.955</ele>
        <time>2015-08-25T09:49:50Z</time>
      </trkpt>
      <trkpt lat="43.60779" lon="3.04283">
        <ele>642.736</ele>
        <time>2015-08-25T09:50:10Z</time>
      </trkpt>
      <trkpt lat="43.60826" lon="3.04202">
        <ele>646.311</ele>
        <time>2015-08-25T09:50:30Z</time>
      </trkpt>
      <trkpt lat="43.60884" lon="3.04154">
        <ele>647.19</ele>
        <time>2015-08-25T09:50:50Z</time>
      </trkpt>
      <trkpt lat="43.60947" lon="3.04173">
        <ele>653.493</ele>
        <time>2015-08-25T09:51:10Z</time>
      </trkpt>
      <trkpt lat="43.60988" lon="3.0421">
        <ele>658.68</ele>
        <time>2015-08-25T09:51:30Z</time>
      </trkpt>
      <trkpt lat="43.61023" lon="3.04232">
        <ele>663.114</ele>
        <time>2015-08-25T09:51:50Z</time>
      </trkpt>
      <trkpt lat="43.61074" lon="3.04213">
        <ele>665.986</ele>
        <time>2015-08-25T09:52:10Z</time>
      </trkpt>
      <trkpt lat="43.61084" lon="3.04216">
        <ele>667.56</ele>
        <time>2015-08-25T09:52:30Z</time>
      </trkpt>
      <trkpt lat="43.61041" lon="3.04247">
        <ele>666.926</ele>
        <time>2015-08-25T09:52:50Z</time>
      </trkpt>
      <trkpt lat="43.61015" lon="3.04258">
        <ele>666.408</ele>
        <time>2015-08-25T09:53:10Z</time>
      </trkpt>
      <trkpt lat="43.61015" lon="3.04269">
        <ele>668.224</ele>
        <time>2015-08-25T09:53:30Z</time>
      </trkpt>
      <trkpt lat="43.61063" lon="3.04267">
        <ele>672.519</ele>
        <time>2015-08-25T09:53:50Z</time>
      </trkpt>
      <trkpt lat="43.61177" lon="3.04228">
        <ele>680.51</ele>
        <time>2015-08-25T09:54:10Z</time>
      </trkpt>
      <trkpt lat="43.61239" lon="3.04163">
        <ele>680.525</ele>
        <time>2015-08-25T09:54:30Z</time>
      </trkpt>
      <trkpt lat="43.61274" lon="3.04098">
        <ele>683.064</ele>
        <time>2015-08-25T09:54:50Z</time>
      </trkpt>
      <trkpt lat="43.61394" lon="3.04086">
        <ele>684.827</ele>
        <time>2015-08-25T09:55:10Z</time>
      </trkpt>
      <trkpt lat="43.61405" lon="3.03848">
        <ele>693.524</ele>
        <time>2015-08-25T09:55:30Z</time>
      </trkpt>
      <trkpt lat="43.61439" lon="3.03689">
        <ele>708.518</ele>
        <time>2015-08-25T09:55:50Z</time>
      </trkpt>
      <trkpt lat="43.61406" lon="3.03613">
        <ele>725.353</ele>
        <time>2015-08-25T09:56:10Z</time>
      </trkpt>
      <trkpt lat="43.61373" lon="3.03502">
        <ele>739.104</ele>
        <time>2015-08-25T09:56:30Z</time>
      </trkpt>
      <trkpt lat="43.61375" lon="3.03346">
        <ele>749.814</ele>
        <time>2015-08-25T09:56:50Z</time>
      </trkpt>
      <trkpt lat="43.61207" lon="3.03119">
        <ele>746.008</ele>
        <time>2015-08-25T09:57:10Z</time>
      </trkpt>
      <trkpt lat="43.61278" lon="3.02898">
        <ele>729.681</ele>
        <time>2015-08-25T09:57:30Z</time>
      </trkpt>
      <trkpt lat="43.61303" lon="3.02789">
        <ele>726.246</ele>
        <time>2015-08-25T09:57:50Z</time>
      </trkpt>
      <trkpt lat="43.61304" lon="3.02738">
        <ele>727.887</ele>
        <time>2015-08-25T09:58:10Z</time>
      </trkpt>
      <trkpt lat="43.61294" lon="3.02687">
        <ele>725.382</ele>
        <time>2015-08-25T09:58:30Z</time>
      </trkpt>
      <trkpt lat="43.61304" lon="3.02628">
        <ele>720.071</ele>
        <time>2015-08-25T09:58:50Z</time>
      </trkpt>
      <trkpt lat="43.61322" lon="3.02606">
        <ele>715.854</ele>
        <time>2015-08-25T09:59:10Z</time>
      </trkpt>
      <trkpt lat="43.61341" lon="3.02506">
        <ele>696.331</ele>
        <time>2015-08-25T09:59:30Z</time>
      </trkpt>
      <trkpt lat="43.61353" lon="3.02479">
        <ele>689.525</ele>
        <time>2015-08-25T09:59:50Z</time>
      </trkpt>
      <trkpt lat="43.61379" lon="3.0247">
        <ele>679.657</ele>
        <time>2015-08-25T10:00:10Z</time>
      </trkpt>
      <trkpt lat="43.61402" lon="3.02455">
        <ele>668.1</ele>
        <time>2015-08-25T10:00:30Z</time>
      </trkpt>
      <trkpt lat="43.61413" lon="3.02474">
        <ele>665.02</ele>
        <time>2015-08-25T10:00:50Z</time>
      </trkpt>
      <trkpt lat="43.61426" lon="3.02477">
        <ele>662.708</ele>
        <time>2015-08-25T10:01:10Z</time>
      </trkpt>
      <trkpt lat="43.61436" lon="3.02436">
        <ele>661.951</ele>
        <time>2015-08-25T10:01:30Z</time>
      </trkpt>
      <trkpt lat="43.61452" lon="3.02436">
        <ele>664.856</ele>
        <time>2015-08-25T10:01:50Z</time>
      </trkpt>
      <trkpt lat="43.61453" lon="3.02413">
        <ele>667.497</ele>
        <time>2015-08-25T10:02:10Z</time>
      </trkpt>
      <trkpt lat="43.61464" lon="3.02367">
        <ele>676.622</ele>
        <time>2015-08-25T10:02:30Z</time>
      </trkpt>
      <trkpt lat="43.61494" lon="3.02398">
        <ele>683.411</ele>
        <time>2015-08-25T10:02:50Z</time>
      </trkpt>
      <trkpt lat="43.61521" lon="3.02378">
        <ele>688.634</ele>
        <time>2015-08-25T10:03:10Z</time>
      </trkpt>
      <trkpt lat="43.61527" lon="3.02345">
        <ele>692.311</ele>
        <time>2015-08-25T10:03:30Z</time>
      </trkpt>
      <trkpt lat="43.61524" lon="3.02253">
        <ele>698.975</ele>
        <time>2015-08-25T10:03:50Z</time>
      </trkpt>
      <trkpt lat="43.6153" lon="3.02199">
        <ele>707.289</ele>
        <time>2015-08-25T10:04:10Z</time>
      </trkpt>
      <trkpt lat="43.6155" lon="3.02135">
        <ele>709.006</ele>
        <time>2015-08-25T10:04:30Z</time>
      </trkpt>
      <trkpt lat="43.61552" lon="3.02103">
        <ele>712.426</ele>
        <time>2015-08-25T10:04:50Z</time>
      </trkpt>
      <trkpt lat="43.61576" lon="3.02031">
        <ele>712.508</ele>
        <time>2015-08-25T10:05:10Z</time>
      </trkpt>
      <trkpt lat="43.61578" lon="3.02005">
        <ele>717.314</ele>
        <time>2015-08-25T10:05:30Z</time>
      </trkpt>
      <trkpt lat="43.6159" lon="3.02004">
        <ele>717.769</ele>
        <time>2015-08-25T10:05:50Z</time>
      </trkpt>
      <trkpt lat="43.61632" lon="3.02019">
        <ele>714.81</ele>
        <time>2015-08-25T10:06:10Z</time>
      </trkpt>
      <trkpt lat="43.61654" lon="3.01977">
        <ele>721.435</ele>
        <time>2015-08-25T10:06:30Z</time>
      </trkpt>
      <trkpt lat="43.61657" lon="3.01921">
        <ele>728.614</ele>
        <time>2015-08-25T10:06:50Z</time>
      </trkpt>
      <trkpt lat="43.61647" lon="3.01888">
        <ele>734.257</ele>
        <time>2015-08-25T10:07:10Z</time>
      </trkpt>
      <trkpt lat="43.61626" lon="3.01853">
        <ele>740.884</ele>
        <time>2015-08-25T10:07:30Z</time>
      </trkpt>
      <trkpt lat="43.61606" lon="3.01805">
        <ele>747.088</ele>
        <time>2015-08-25T10:07:50Z</time>
      </trkpt>
      <trkpt lat="43.61573" lon="3.01758">
        <ele>762.817</ele>
        <time>2015-08-25T10:08:10Z</time>
      </trkpt>
      <trkpt lat="43.61568" lon="3.01559">
        <ele>787.187</ele>
        <time>2015-08-25T10:08:30Z</time>
      </trkpt>
      <trkpt lat="43.61555" lon="3.01482">
        <ele>799.615</ele>
        <time>2015-08-25T10:08:50Z</time>
      </trkpt>
      <trkpt lat="43.61557" lon="3.01394">
        <ele>807.108</ele>
        <time>2015-08-25T10:09:10Z</time>
      </trkpt>
      <trkpt lat="43.61572" lon="3.01336">
        <ele>808.267</ele>
        <time>2015-08-25T10:09:30Z</time>
      </trkpt>
      <trkpt lat="43.61581" lon="3.01267">
        <ele>809.152</ele>
        <time>2015-08-25T10:09:50Z</time>
      </trkpt>
      <trkpt lat="43.61566" lon="3.01194">
        <ele>811.523</ele>
        <time>2015-08-25T10:10:10Z</time>
      </trkpt>
      <trkpt lat="43.61537" lon="3.01151">
        <ele>809.758</ele>
        <time>2015-08-25T10:10:30Z</time>
      </trkpt>
      <trkpt lat="43.6149" lon="3.01123">
        <ele>810.787</ele>
        <time>2015-08-25T10:10:50Z</time>
      </trkpt>
      <trkpt lat="43.61459" lon="3.01075">
        <ele>810.69</ele>
        <time>2015-08-25T10:11:10Z</time>
      </trkpt>
      <trkpt lat="43.6145" lon="3.01021">
        <ele>808.927</ele>
        <time>2015-08-25T10:11:30Z</time>
      </trkpt>
      <trkpt lat="43.61431" lon="3.00973">
        <ele>810.051</ele>
        <time>2015-08-25T10:11:50Z</time>
      </trkpt>
      <trkpt lat="43.61423" lon="3.00924">
        <ele>808.831</ele>
        <time>2015-08-25T10:12:10Z</time>
      </trkpt>
      <trkpt lat="43.61468" lon="3.00632">
        <ele>800.061</ele>
        <time>2015-08-25T10:12:30Z</time>
      </trkpt>
      <trkpt lat="43.61448" lon="3.0063">
        <ele>799.707</ele>
        <time>2015-08-25T10:12:50Z</time>
      </trkpt>
      <trkpt lat="43.61367" lon="3.00724">
        <ele>794.808</ele>
        <time>2015-08-25T10:13:10Z</time>
      </trkpt>
      <trkpt lat="43.61325" lon="3.00716">
        <ele>782.289</ele>
        <time>2015-08-25T10:13:30Z</time>
      </trkpt>
      <trkpt lat="43.61301" lon="3.00735">
        <ele>780.454</ele>
        <time>2015-08-25T10:13:50Z</time>
      </trkpt>
      <trkpt lat="43.61279" lon="3.0073">
        <ele>774.735</ele>
        <time>2015-08-25T10:14:10Z</time>
      </trkpt>
      <trkpt lat="43.61261" lon="3.00743">
        <ele>773.96</ele>
        <time>2015-08-25T10:14:30Z</time>
      </trkpt>
      <trkpt lat="43.61227" lon="3.00796">
        <ele>774.699</ele>
        <time>2015-08-25T10:14:50Z</time>
      </trkpt>
      <trkpt lat="43.61186" lon="3.00838">
        <ele>769.832</ele>
        <time>2015-08-25T10:15:10Z</time>
      </trkpt>
      <trkpt lat="43.61176" lon="3.00835">
        <ele>766.619</ele>
        <time>2015-08-25T10:15:30Z</time>
      </trkpt>
      <trkpt lat="43.6116" lon="3.00796">
        <ele>768.513</ele>
        <time>2015-08-25T10:15:50Z</time>
      </trkpt>
      <trkpt lat="43.61119" lon="3.00824">
        <ele>767.487</ele>
        <time>2015-08-25T10:16:10Z</time>
      </trkpt>
      <trkpt lat="43.61074" lon="3.00836">
        <ele>768.842</ele>
        <time>2015-08-25T10:16:30Z</time>
      </trkpt>
      <trkpt lat="43.61093" lon="3.00818">
        <ele>773.726</ele>
        <time>2015-08-25T10:16:50Z</time>
      </trkpt>
      <trkpt lat="43.61072" lon="3.00816">
        <ele>774.908</ele>
        <time>2015-08-25T10:17:10Z</time>
      </trkpt>
      <trkpt lat="43.61114" lon="3.00764">
        <ele>789.634</ele>
        <time>2015-08-25T10:17:30Z</time>
      </trkpt>
      <trkpt lat="43.61098" lon="3.00744">
        <ele>800.319</ele>
        <time>2015-08-25T10:17:50Z</time>
      </trkpt>
      <trkpt lat="43.61096" lon="3.0073">
        <ele>804.77</ele>
        <time>2015-08-25T10:18:10Z</time>
      </trkpt>
      <trkpt lat="43.61067" lon="3.00732">
        <ele>805.845</ele>
        <time>2015-08-25T10:18:30Z</time>
      </trkpt>
      <trkpt lat="43.61055" lon="3.00708">
        <ele>811.934</ele>
        <time>2015-08-25T10:18:50Z</time>
      </trkpt>
      <trkpt lat="43.6106" lon="3.00691">
        <ele>818.487</ele>
        <time>2015-08-25T10:19:10Z</time>
      </trkpt>
      <trkpt lat="43.61082" lon="3.00667">
        <ele>825.014</ele>
        <time>2015-08-25T10:19:30Z</time>
      </trkpt>
      <trkpt lat="43.61075" lon="3.00623">
        <ele>836.658</ele>
        <time>2015-08-25T10:19:50Z</time>
      </trkpt>
      <trkpt lat="43.61059" lon="3.00614">
        <ele>842.328</ele>
        <time>2015-08-25T10:20:10Z</time>
      </trkpt>
      <trkpt lat="43.61043" lon="3.00535">
        <ele>868.489</ele>
        <time>2015-08-25T10:20:30Z</time>
      </trkpt>
      <trkpt lat="43.60998" lon="3.00489">
        <ele>884.317</ele>
        <time>2015-08-25T10:20:50Z</time>
      </trkpt>
      <trkpt lat="43.60996" lon="3.00469">
        <ele>890.508</ele>
        <time>2015-08-25T10:21:10Z</time>
      </trkpt>
      <trkpt lat="43.60977" lon="3.00456">
        <ele>897.028</ele>
        <time>2015-08-25T10:21:30Z</time>
      </trkpt>
      <trkpt lat="43.6095" lon="3.004">
        <ele>911.343</ele>
        <time>2015-08-25T10:21:50Z</time>
      </trkpt>
      <trkpt lat="43.60925" lon="3.00369">
        <ele>919.514</ele>
        <time>2015-08-25T10:22:10Z</time>
      </trkpt>
      <trkpt lat="43.60911" lon="3.00351">
        <ele>925.269</ele>
        <time>2015-08-25T10:22:30Z</time>
      </trkpt>
      <trkpt lat="43.60879" lon="3.00282">
        <ele>943.788</ele>
        <time>2015-08-25T10:22:50Z</time>
      </trkpt>
      <trkpt lat="43.60836" lon="3.00278">
        <ele>951.651</ele>
        <time>2015-08-25T10:23:10Z</time>
      </trkpt>
      <trkpt lat="43.6083" lon="3.00244">
        <ele>958.538</ele>
        <time>2015-08-25T10:23:30Z</time>
      </trkpt>
      <trkpt lat="43.60797" lon="3.00233">
        <ele>963.742</ele>
        <time>2015-08-25T10:23:50Z</time>
      </trkpt>
      <trkpt lat="43.60786" lon="3.00213">
        <ele>967.129</ele>
        <time>2015-08-25T10:24:10Z</time>
      </trkpt>
      <trkpt lat="43.60766" lon="3.00198">
        <ele>969.5</ele>
        <time>2015-08-25T10:24:30Z</time>
      </trkpt>
      <trkpt lat="43.60701" lon="3.00096">
        <ele>980.62</ele>
        <time>2015-08-25T10:24:50Z</time>
      </trkpt>
      <trkpt lat="43.60657" lon="3.00064">
        <ele>984.408</ele>
        <time>2015-08-25T10:25:10Z</time>
      </trkpt>
      <trkpt lat="43.60649" lon="3.00034">
        <ele>989.018</ele>
        <time>2015-08-25T10:25:30Z</time>
      </trkpt>
      <trkpt lat="43.60632" lon="3.00001">
        <ele>993.913</ele>
        <time>2015-08-25T10:25:50Z</time>
      </trkpt>
      <trkpt lat="43.60592" lon="2.99962">
        <ele>999.474</ele>
        <time>2015-08-25T10:26:10Z</time>
      </trkpt>
      <trkpt lat="43.60583" lon="2.99937">
        <ele>1002.889</ele>
        <time>2015-08-25T10:26:30Z</time>
      </trkpt>
      <trkpt lat="43.60547" lon="2.99884">
        <ele>1009.778</ele>
        <time>2015-08-25T10:26:50Z</time>
      </trkpt>
      <trkpt lat="43.60538" lon="2.99862">
        <ele>1012.971</ele>
        <time>2015-08-25T10:27:10Z</time>
      </trkpt>
      <trkpt lat="43.60523" lon="2.9984">
        <ele>1015.238</ele>
        <time>2015-08-25T10:27:30Z</time>
      </trkpt>
      <trkpt lat="43.60517" lon="2.99817">
        <ele>1017.852</ele>
        <time>2015-08-25T10:27:50Z</time>
      </trkpt>
      <trkpt lat="43.60492" lon="2.99757">
        <ele>1024.674</ele>
        <time>2015-08-25T10:28:10Z</time>
      </trkpt>
      <trkpt lat="43.60476" lon="2.99735">
        <ele>1027.556</ele>
        <time>2015-08-25T10:28:30Z</time>
      </trkpt>
      <trkpt lat="43.60439" lon="2.99653">
        <ele>1039.021</ele>
        <time>2015-08-25T10:28:50Z</time>
      </trkpt>
      <trkpt lat="43.60419" lon="2.99582">
        <ele>1048.108</ele>
        <time>2015-08-25T10:29:10Z</time>
      </trkpt>
      <trkpt lat="43.60415" lon="2.99426">
        <ele>1051.923</ele>
        <time>2015-08-25T10:29:30Z</time>
      </trkpt>
      <trkpt lat="43.60405" lon="2.99355">
        <ele>1052.098</ele>
        <time>2015-08-25T10:29:50Z</time>
      </trkpt>
      <trkpt lat="43.60393" lon="2.99218">
        <ele>1053.799</ele>
        <time>2015-08-25T10:30:10Z</time>
      </trkpt>
      <trkpt lat="43.60392" lon="2.9917">
        <ele>1053.834</ele>
        <time>2015-08-25T10:30:30Z</time>
      </trkpt>
      <trkpt lat="43.60333" lon="2.98922">
        <ele>1060.663</ele>
        <time>2015-08-25T10:30:50Z</time>
      </trkpt>
      <trkpt lat="43.60301" lon="2.98874">
        <ele>1060.846</ele>
        <time>2015-08-25T10:31:10Z</time>
      </trkpt>
      <trkpt lat="43.60229" lon="2.98698">
        <ele>1053.083</ele>
        <time>2015-08-25T10:31:30Z</time>
      </trkpt>
      <trkpt lat="43.6022" lon="2.98596">
        <ele>1047.877</ele>
        <time>2015-08-25T10:31:50Z</time>
      </trkpt>
      <trkpt lat="43.602" lon="2.98578">
        <ele>1045.439</ele>
        <time>2015-08-25T10:32:10Z</time>
      </trkpt>
      <trkpt lat="43.60204" lon="2.98437">
        <ele>1042.901</ele>
        <time>2015-08-25T10:32:30Z</time>
      </trkpt>
      <trkpt lat="43.60182" lon="2.98384">
        <ele>1040.621</ele>
        <time>2015-08-25T10:32:50Z</time>
      </trkpt>
      <trkpt lat="43.60152" lon="2.98326">
        <ele>1040.908</ele>
        <time>2015-08-25T10:33:10Z</time>
      </trkpt>
      <trkpt lat="43.60092" lon="2.98249">
        <ele>1047.899</ele>
        <time>2015-08-25T10:33:30Z</time>
      </trkpt>
      <trkpt lat="43.59977" lon="2.98088">
        <ele>1055.044</ele>
        <time>2015-08-25T10:33:50Z</time>
      </trkpt>
      <trkpt lat="43.59932" lon="2.98039">
        <ele>1055.285</ele>
        <time>2015-08-25T10:34:10Z</time>
      </trkpt>
      <trkpt lat="43.59855" lon="2.97922">
        <ele>1061.03</ele>
        <time>2015-08-25T10:34:30Z</time>
      </trkpt>
      <trkpt lat="43.59853" lon="2.97905">
        <ele>1062.069</ele>
        <time>2015-08-25T10:34:50Z</time>
      </trkpt>
      <trkpt lat="43.59811" lon="2.97835">
        <ele>1065.032</ele>
        <time>2015-08-25T10:35:10Z</time>
      </trkpt>
      <trkpt lat="43.59742" lon="2.97833">
        <ele>1064.779</ele>
        <time>2015-08-25T10:35:30Z</time>
      </trkpt>
      <trkpt lat="43.59716" lon="2.97838">
        <ele>1064.053</ele>
        <time>2015-08-25T10:35:50Z</time>
      </trkpt>
      <trkpt lat="43.59589" lon="2.97719">
        <ele>1065.074</ele>
        <time>2015-08-25T10:36:10Z</time>
      </trkpt>
      <trkpt lat="43.59543" lon="2.97742">
        <ele>1063.656</ele>
        <time>2015-08-25T10:36:30Z</time>
      </trkpt>
      <trkpt lat="43.59478" lon="2.97789">
        <ele>1062.221</ele>
        <time>2015-08-25T10:36:50Z</time>
      </trkpt>
      <trkpt lat="43.59459" lon="2.97789">
        <ele>1061.708</ele>
        <time>2015-08-25T10:37:10Z</time>
      </trkpt>
      <trkpt lat="43.59424" lon="2.9782">
        <ele>1061.313</ele>
        <time>2015-08-25T10:37:30Z</time>
      </trkpt>
      <trkpt lat="43.5912" lon="2.9789">
        <ele>1042.668</ele>
        <time>2015-08-25T10:37:50Z</time>
      </trkpt>
      <trkpt lat="43.5907" lon="2.97952">
        <ele>1031.059</ele>
        <time>2019-03-28T21:58:46Z</time>
      </trkpt>
      <trkpt lat="43.59041" lon="2.97925">
        <ele>1026.794</ele>
        <time>2019-03-28T21:59:06Z</time>
      </trkpt>
      <trkpt lat="43.59084" lon="2.97881">
        <ele>1038.483</ele>
        <time>2019-03-28T21:59:26Z</time>
      </trkpt>
      <trkpt lat="43.59105" lon="2.97828">
        <ele>1041.136</ele>
        <time>2015-08-25T10:38:50Z</time>
      </trkpt>
      <trkpt lat="43.5911" lon="2.978">
        <ele>1040.873</ele>
        <time>2015-08-25T10:39:10Z</time>
      </trkpt>
      <trkpt lat="43.59114" lon="2.97718">
        <ele>1042.097</ele>
        <time>2015-08-25T10:39:30Z</time>
      </trkpt>
      <trkpt lat="43.5918" lon="2.97619">
        <ele>1041.056</ele>
        <time>2015-08-25T10:39:50Z</time>
      </trkpt>
      <trkpt lat="43.59181" lon="2.97583">
        <ele>1038.159</ele>
        <time>2015-08-25T10:40:10Z</time>
      </trkpt>
      <trkpt lat="43.59189" lon="2.97569">
        <ele>1039.314</ele>
        <time>2015-08-25T10:40:30Z</time>
      </trkpt>
      <trkpt lat="43.59193" lon="2.9754">
        <ele>1039.408</ele>
        <time>2015-08-25T10:40:50Z</time>
      </trkpt>
      <trkpt lat="43.59276" lon="2.97488">
        <ele>1042.461</ele>
        <time>2015-08-25T10:41:10Z</time>
      </trkpt>
      <trkpt lat="43.59322" lon="2.97448">
        <ele>1046.596</ele>
        <time>2015-08-25T10:41:30Z</time>
      </trkpt>
      <trkpt lat="43.59344" lon="2.97443">
        <ele>1048.797</ele>
        <time>2015-08-25T10:41:50Z</time>
      </trkpt>
      <trkpt lat="43.59378" lon="2.97408">
        <ele>1048.322</ele>
        <time>2015-08-25T10:42:10Z</time>
      </trkpt>
      <trkpt lat="43.59406" lon="2.97395">
        <ele>1048.741</ele>
        <time>2015-08-25T10:42:30Z</time>
      </trkpt>
      <trkpt lat="43.59412" lon="2.97381">
        <ele>1048.674</ele>
        <time>2015-08-25T10:42:50Z</time>
      </trkpt>
      <trkpt lat="43.59435" lon="2.97356">
        <ele>1048.521</ele>
        <time>2015-08-25T10:43:10Z</time>
      </trkpt>
      <trkpt lat="43.59433" lon="2.97285">
        <ele>1047.645</ele>
        <time>2015-08-25T10:43:30Z</time>
      </trkpt>
      <trkpt lat="43.59497" lon="2.97267">
        <ele>1049.094</ele>
        <time>2015-08-25T10:43:50Z</time>
      </trkpt>
      <trkpt lat="43.59543" lon="2.9726">
        <ele>1047.957</ele>
        <time>2015-08-25T10:44:10Z</time>
      </trkpt>
      <trkpt lat="43.5956" lon="2.97251">
        <ele>1046.022</ele>
        <time>2015-08-25T10:44:30Z</time>
      </trkpt>
      <trkpt lat="43.59638" lon="2.97239">
        <ele>1036.408</ele>
        <time>2015-08-25T10:44:50Z</time>
      </trkpt>
      <trkpt lat="43.59658" lon="2.97257">
        <ele>1032.635</ele>
        <time>2015-08-25T10:45:10Z</time>
      </trkpt>
      <trkpt lat="43.59653" lon="2.97276">
        <ele>1034.44</ele>
        <time>2015-08-25T10:45:30Z</time>
      </trkpt>
      <trkpt lat="43.5968" lon="2.97278">
        <ele>1033.031</ele>
        <time>2015-08-25T10:45:50Z</time>
      </trkpt>
      <trkpt lat="43.59698" lon="2.97288">
        <ele>1033.866</ele>
        <time>2015-08-25T10:46:10Z</time>
      </trkpt>
      <trkpt lat="43.59766" lon="2.97308">
        <ele>1036.215</ele>
        <time>2015-08-25T10:46:30Z</time>
      </trkpt>
      <trkpt lat="43.59774" lon="2.97321">
        <ele>1037.218</ele>
        <time>2015-08-25T10:46:50Z</time>
      </trkpt>
      <trkpt lat="43.59822" lon="2.97337">
        <ele>1038.355</ele>
        <time>2015-08-25T10:47:10Z</time>
      </trkpt>
      <trkpt lat="43.59829" lon="2.97352">
        <ele>1039.439</ele>
        <time>2015-08-25T10:47:30Z</time>
      </trkpt>
      <trkpt lat="43.59815" lon="2.97378">
        <ele>1042.798</ele>
        <time>2015-08-25T10:47:50Z</time>
      </trkpt>
      <trkpt lat="43.59817" lon="2.97396">
        <ele>1045.015</ele>
        <time>2015-08-25T10:48:10Z</time>
      </trkpt>
      <trkpt lat="43.59839" lon="2.97398">
        <ele>1044.826</ele>
        <time>2015-08-25T10:48:30Z</time>
      </trkpt>
      <trkpt lat="43.59868" lon="2.97419">
        <ele>1046.008</ele>
        <time>2015-08-25T10:48:50Z</time>
      </trkpt>
      <trkpt lat="43.59903" lon="2.97422">
        <ele>1046.285</ele>
        <time>2015-08-25T10:49:10Z</time>
      </trkpt>
      <trkpt lat="43.59961" lon="2.97456">
        <ele>1050.72</ele>
        <time>2015-08-25T10:49:30Z</time>
      </trkpt>
      <trkpt lat="43.59995" lon="2.97435">
        <ele>1048.881</ele>
        <time>2015-08-25T10:49:50Z</time>
      </trkpt>
      <trkpt lat="43.60011" lon="2.97442">
        <ele>1050.236</ele>
        <time>2015-08-25T10:50:10Z</time>
      </trkpt>
      <trkpt lat="43.60022" lon="2.97424">
        <ele>1049.255</ele>
        <time>2015-08-25T10:50:30Z</time>
      </trkpt>
      <trkpt lat="43.60089" lon="2.97409">
        <ele>1050.368</ele>
        <time>2015-08-25T10:50:50Z</time>
      </trkpt>
      <trkpt lat="43.60106" lon="2.9741">
        <ele>1052.175</ele>
        <time>2015-08-25T10:51:10Z</time>
      </trkpt>
      <trkpt lat="43.60219" lon="2.97388">
        <ele>1049.179</ele>
        <time>2015-08-25T10:51:30Z</time>
      </trkpt>
      <trkpt lat="43.60373" lon="2.97391">
        <ele>1055.198</ele>
        <time>2015-08-25T10:51:50Z</time>
      </trkpt>
      <trkpt lat="43.60445" lon="2.9741">
        <ele>1053.215</ele>
        <time>2015-08-25T10:52:10Z</time>
      </trkpt>
      <trkpt lat="43.60487" lon="2.97403">
        <ele>1049.126</ele>
        <time>2015-08-25T10:52:30Z</time>
      </trkpt>
      <trkpt lat="43.60513" lon="2.97414">
        <ele>1044.708</ele>
        <time>2015-08-25T10:52:50Z</time>
      </trkpt>
      <trkpt lat="43.60529" lon="2.97414">
        <ele>1041.915</ele>
        <time>2015-08-25T10:53:10Z</time>
      </trkpt>
      <trkpt lat="43.60579" lon="2.97432">
        <ele>1031.59</ele>
        <time>2015-08-25T10:53:30Z</time>
      </trkpt>
      <trkpt lat="43.60627" lon="2.97404">
        <ele>1016.011</ele>
        <time>2015-08-25T10:53:50Z</time>
      </trkpt>
      <trkpt lat="43.60651" lon="2.97401">
        <ele>1007.226</ele>
        <time>2015-08-25T10:54:10Z</time>
      </trkpt>
      <trkpt lat="43.60701" lon="2.97357">
        <ele>989.145</ele>
        <time>2015-08-25T10:54:30Z</time>
      </trkpt>
      <trkpt lat="43.60756" lon="2.97329">
        <ele>972.278</ele>
        <time>2015-08-25T10:54:50Z</time>
      </trkpt>
      <trkpt lat="43.60777" lon="2.97331">
        <ele>966.155</ele>
        <time>2015-08-25T10:55:10Z</time>
      </trkpt>
      <trkpt lat="43.60802" lon="2.97323">
        <ele>959.349</ele>
        <time>2015-08-25T10:55:30Z</time>
      </trkpt>
      <trkpt lat="43.60829" lon="2.97328">
        <ele>950.756</ele>
        <time>2015-08-25T10:55:50Z</time>
      </trkpt>
      <trkpt lat="43.60835" lon="2.9732">
        <ele>948.959</ele>
        <time>2015-08-25T10:56:10Z</time>
      </trkpt>
      <trkpt lat="43.60888" lon="2.973">
        <ele>935.114</ele>
        <time>2015-08-25T10:56:30Z</time>
      </trkpt>
      <trkpt lat="43.60901" lon="2.97308">
        <ele>931.308</ele>
        <time>2015-08-25T10:56:50Z</time>
      </trkpt>
      <trkpt lat="43.60994" lon="2.97267">
        <ele>910.441</ele>
        <time>2015-08-25T10:57:10Z</time>
      </trkpt>
      <trkpt lat="43.61007" lon="2.97252">
        <ele>908.536</ele>
        <time>2020-03-08T18:21:28Z</time>
      </trkpt>
      <trkpt lat="43.61031" lon="2.97259">
        <ele>906.817</ele>
        <time>2020-03-08T18:21:48Z</time>
      </trkpt>
      <trkpt lat="43.61028" lon="2.97242">
        <ele>907.612</ele>
        <time>2020-03-08T18:22:08Z</time>
      </trkpt>
      <trkpt lat="43.61003" lon="2.97204">
        <ele>911.141</ele>
        <time>2015-08-25T10:57:50Z</time>
      </trkpt>
      <trkpt lat="43.60981" lon="2.97184">
        <ele>916.284</ele>
        <time>2015-08-25T10:58:10Z</time>
      </trkpt>
      <trkpt lat="43.60932" lon="2.97161">
        <ele>924.011</ele>
        <time>2015-08-25T10:58:30Z</time>
      </trkpt>
      <trkpt lat="43.6091" lon="2.97158">
        <ele>926.765</ele>
        <time>2015-08-25T10:58:50Z</time>
      </trkpt>
      <trkpt lat="43.60888" lon="2.97098">
        <ele>931.028</ele>
        <time>2015-08-25T10:59:10Z</time>
      </trkpt>
      <trkpt lat="43.60874" lon="2.9709">
        <ele>933.689</ele>
        <time>2015-08-25T10:59:30Z</time>
      </trkpt>
      <trkpt lat="43.6086" lon="2.97043">
        <ele>938.617</ele>
        <time>2015-08-25T10:59:50Z</time>
      </trkpt>
      <trkpt lat="43.6086" lon="2.97016">
        <ele>941.408</ele>
        <time>2015-08-25T11:00:10Z</time>
      </trkpt>
      <trkpt lat="43.60849" lon="2.96977">
        <ele>946.168</ele>
        <time>2015-08-25T11:00:30Z</time>
      </trkpt>
      <trkpt lat="43.60791" lon="2.96906">
        <ele>946.453</ele>
        <time>2015-08-25T11:00:50Z</time>
      </trkpt>
      <trkpt lat="43.60767" lon="2.96898">
        <ele>940.864</ele>
        <time>2015-08-25T11:01:10Z</time>
      </trkpt>
      <trkpt lat="43.60751" lon="2.96877">
        <ele>932.169</ele>
        <time>2015-08-25T11:01:30Z</time>
      </trkpt>
      <trkpt lat="43.60693" lon="2.96843">
        <ele>919.968</ele>
        <time>2015-08-25T11:01:50Z</time>
      </trkpt>
      <trkpt lat="43.60716" lon="2.96828">
        <ele>915.741</ele>
        <time>2015-08-25T11:02:10Z</time>
      </trkpt>
      <trkpt lat="43.60696" lon="2.96797">
        <ele>906.218</ele>
        <time>2015-08-25T11:02:30Z</time>
      </trkpt>
      <trkpt lat="43.60706" lon="2.96788">
        <ele>904.642</ele>
        <time>2015-08-25T11:02:50Z</time>
      </trkpt>
      <trkpt lat="43.60674" lon="2.9676">
        <ele>895.294</ele>
        <time>2015-08-25T11:03:10Z</time>
      </trkpt>
      <trkpt lat="43.60676" lon="2.9675">
        <ele>892.157</ele>
        <time>2015-08-25T11:03:30Z</time>
      </trkpt>
      <trkpt lat="43.60658" lon="2.96733">
        <ele>887.022</ele>
        <time>2015-08-25T11:03:50Z</time>
      </trkpt>
      <trkpt lat="43.60669" lon="2.96711">
        <ele>880.508</ele>
        <time>2015-08-25T11:04:10Z</time>
      </trkpt>
      <trkpt lat="43.60654" lon="2.96697">
        <ele>876.815</ele>
        <time>2015-08-25T11:04:30Z</time>
      </trkpt>
      <trkpt lat="43.60667" lon="2.96686">
        <ele>874.31</ele>
        <time>2015-08-25T11:04:50Z</time>
      </trkpt>
      <trkpt lat="43.60657" lon="2.96671">
        <ele>869.871</ele>
        <time>2015-08-25T11:05:10Z</time>
      </trkpt>
      <trkpt lat="43.60662" lon="2.96664">
        <ele>869.076</ele>
        <time>2015-08-25T11:05:30Z</time>
      </trkpt>
      <trkpt lat="43.60624" lon="2.9664">
        <ele>856.725</ele>
        <time>2015-08-25T11:05:50Z</time>
      </trkpt>
      <trkpt lat="43.60606" lon="2.96622">
        <ele>849.938</ele>
        <time>2015-08-25T11:06:10Z</time>
      </trkpt>
      <trkpt lat="43.60584" lon="2.96621">
        <ele>847.745</ele>
        <time>2015-08-25T11:06:30Z</time>
      </trkpt>
      <trkpt lat="43.6058" lon="2.96597">
        <ele>839.859</ele>
        <time>2015-08-25T11:06:50Z</time>
      </trkpt>
      <trkpt lat="43.60556" lon="2.96581">
        <ele>833.083</ele>
        <time>2015-08-25T11:07:10Z</time>
      </trkpt>
      <trkpt lat="43.6046" lon="2.96542">
        <ele>809.225</ele>
        <time>2015-08-25T11:07:30Z</time>
      </trkpt>
      <trkpt lat="43.60447" lon="2.96529">
        <ele>801.917</ele>
        <time>2015-08-25T11:07:50Z</time>
      </trkpt>
      <trkpt lat="43.60439" lon="2.96525">
        <ele>797.908</ele>
        <time>2015-08-25T11:08:10Z</time>
      </trkpt>
      <trkpt lat="43.60444" lon="2.96506">
        <ele>791.034</ele>
        <time>2015-08-25T11:08:30Z</time>
      </trkpt>
      <trkpt lat="43.60427" lon="2.96484">
        <ele>778.559</ele>
        <time>2015-08-25T11:08:50Z</time>
      </trkpt>
      <trkpt lat="43.60451" lon="2.96479">
        <ele>780.49</ele>
        <time>2015-08-25T11:09:10Z</time>
      </trkpt>
      <trkpt lat="43.60462" lon="2.96467">
        <ele>775.835</ele>
        <time>2015-08-25T11:09:30Z</time>
      </trkpt>
      <trkpt lat="43.60407" lon="2.96425">
        <ele>758.794</ele>
        <time>2015-08-25T11:09:50Z</time>
      </trkpt>
      <trkpt lat="43.60415" lon="2.96411">
        <ele>751.377</ele>
        <time>2015-08-25T11:10:10Z</time>
      </trkpt>
      <trkpt lat="43.60409" lon="2.96398">
        <ele>747.884</ele>
        <time>2015-08-25T11:10:30Z</time>
      </trkpt>
      <trkpt lat="43.60418" lon="2.96386">
        <ele>742.178</ele>
        <time>2015-08-25T11:10:50Z</time>
      </trkpt>
      <trkpt lat="43.60413" lon="2.96372">
        <ele>737.787</ele>
        <time>2015-08-25T11:11:10Z</time>
      </trkpt>
      <trkpt lat="43.60418" lon="2.96357">
        <ele>732.342</ele>
        <time>2015-08-25T11:11:30Z</time>
      </trkpt>
      <trkpt lat="43.60412" lon="2.96346">
        <ele>728.726</ele>
        <time>2015-08-25T11:11:50Z</time>
      </trkpt>
      <trkpt lat="43.604" lon="2.96344">
        <ele>728.208</ele>
        <time>2015-08-25T11:12:10Z</time>
      </trkpt>
      <trkpt lat="43.60393" lon="2.96329">
        <ele>722.474</ele>
        <time>2015-08-25T11:12:30Z</time>
      </trkpt>
      <trkpt lat="43.60379" lon="2.96319">
        <ele>720.159</ele>
        <time>2015-08-25T11:12:50Z</time>
      </trkpt>
      <trkpt lat="43.60365" lon="2.96322">
        <ele>721.51</ele>
        <time>2015-08-25T11:13:10Z</time>
      </trkpt>
      <trkpt lat="43.60327" lon="2.96261">
        <ele>704.095</ele>
        <time>2015-08-25T11:13:30Z</time>
      </trkpt>
      <trkpt lat="43.60341" lon="2.96249">
        <ele>698.994</ele>
        <time>2015-08-25T11:13:50Z</time>
      </trkpt>
      <trkpt lat="43.60337" lon="2.9623">
        <ele>694.017</ele>
        <time>2015-08-25T11:14:10Z</time>
      </trkpt>
      <trkpt lat="43.60341" lon="2.96198">
        <ele>684.844</ele>
        <time>2015-08-25T11:14:30Z</time>
      </trkpt>
      <trkpt lat="43.60317" lon="2.96217">
        <ele>693.128</ele>
        <time>2015-08-25T11:14:50Z</time>
      </trkpt>
      <trkpt lat="43.60311" lon="2.962">
        <ele>688.135</ele>
        <time>2015-08-25T11:15:10Z</time>
      </trkpt>
      <trkpt lat="43.60307" lon="2.96155">
        <ele>676.086</ele>
        <time>2015-08-25T11:15:30Z</time>
      </trkpt>
      <trkpt lat="43.60309" lon="2.96098">
        <ele>665.014</ele>
        <time>2015-08-25T11:15:50Z</time>
      </trkpt>
      <trkpt lat="43.603" lon="2.96063">
        <ele>661.208</ele>
        <time>2015-08-25T11:16:10Z</time>
      </trkpt>
      <trkpt lat="43.60294" lon="2.96024">
        <ele>654.389</ele>
        <time>2015-08-25T11:16:30Z</time>
      </trkpt>
      <trkpt lat="43.60261" lon="2.9596">
        <ele>641.714</ele>
        <time>2015-08-25T11:16:50Z</time>
      </trkpt>
      <trkpt lat="43.6023" lon="2.9592">
        <ele>628.615</ele>
        <time>2015-08-25T11:17:10Z</time>
      </trkpt>
      <trkpt lat="43.602" lon="2.95902">
        <ele>624.54</ele>
        <time>2015-08-25T11:17:30Z</time>
      </trkpt>
      <trkpt lat="43.60168" lon="2.95865">
        <ele>610.269</ele>
        <time>2015-08-25T11:17:50Z</time>
      </trkpt>
      <trkpt lat="43.60148" lon="2.95848">
        <ele>605.482</ele>
        <time>2015-08-25T11:18:10Z</time>
      </trkpt>
      <trkpt lat="43.60105" lon="2.95782">
        <ele>584.629</ele>
        <time>2015-08-25T11:18:30Z</time>
      </trkpt>
      <trkpt lat="43.60097" lon="2.95752">
        <ele>576.093</ele>
        <time>2015-08-25T11:18:50Z</time>
      </trkpt>
      <trkpt lat="43.60081" lon="2.95729">
        <ele>562.665</ele>
        <time>2015-08-25T11:19:10Z</time>
      </trkpt>
      <trkpt lat="43.60059" lon="2.95726">
        <ele>555.768</ele>
        <time>2015-08-25T11:19:30Z</time>
      </trkpt>
      <trkpt lat="43.60059" lon="2.95714">
        <ele>550.414</ele>
        <time>2015-08-25T11:19:50Z</time>
      </trkpt>
      <trkpt lat="43.60046" lon="2.95716">
        <ele>550.808</ele>
        <time>2015-08-25T11:20:10Z</time>
      </trkpt>
      <trkpt lat="43.60046" lon="2.95679">
        <ele>539.752</ele>
        <time>2015-08-25T11:20:30Z</time>
      </trkpt>
      <trkpt lat="43.60031" lon="2.95662">
        <ele>535.317</ele>
        <time>2015-08-25T11:20:50Z</time>
      </trkpt>
      <trkpt lat="43.60028" lon="2.95641">
        <ele>534.268</ele>
        <time>2015-08-25T11:21:10Z</time>
      </trkpt>
      <trkpt lat="43.59992" lon="2.956">
        <ele>526.533</ele>
        <time>2015-08-25T11:21:30Z</time>
      </trkpt>
      <trkpt lat="43.59955" lon="2.95557">
        <ele>516.252</ele>
        <time>2015-08-25T11:21:50Z</time>
      </trkpt>
      <trkpt lat="43.59957" lon="2.95498">
        <ele>516.795</ele>
        <time>2015-08-25T11:22:10Z</time>
      </trkpt>
      <trkpt lat="43.59945" lon="2.95475">
        <ele>510.482</ele>
        <time>2015-08-25T11:22:30Z</time>
      </trkpt>
      <trkpt lat="43.59944" lon="2.95408">
        <ele>500.376</ele>
        <time>2015-08-25T11:22:50Z</time>
      </trkpt>
      <trkpt lat="43.59948" lon="2.95347">
        <ele>500.322</ele>
        <time>2015-08-25T11:23:10Z</time>
      </trkpt>
      <trkpt lat="43.5992" lon="2.95259">
        <ele>490.162</ele>
        <time>2015-08-25T11:23:30Z</time>
      </trkpt>
      <trkpt lat="43.59914" lon="2.95276">
        <ele>484.708</ele>
        <time>2015-08-25T11:23:50Z</time>
      </trkpt>
      <trkpt lat="43.59911" lon="2.95225">
        <ele>487.708</ele>
        <time>2015-08-25T11:24:10Z</time>
      </trkpt>
      <trkpt lat="43.59904" lon="2.95249">
        <ele>479.888</ele>
        <time>2015-08-25T11:24:30Z</time>
      </trkpt>
      <trkpt lat="43.59893" lon="2.95215">
        <ele>474.613</ele>
        <time>2015-08-25T11:24:50Z</time>
      </trkpt>
      <trkpt lat="43.59865" lon="2.95173">
        <ele>462.824</ele>
        <time>2015-08-25T11:25:10Z</time>
      </trkpt>
      <trkpt lat="43.59857" lon="2.95121">
        <ele>460.589</ele>
        <time>2015-08-25T11:25:30Z</time>
      </trkpt>
      <trkpt lat="43.59892" lon="2.95095">
        <ele>462.378</ele>
        <time>2015-08-25T11:25:50Z</time>
      </trkpt>
      <trkpt lat="43.59876" lon="2.95092">
        <ele>454.541</ele>
        <time>2015-08-25T11:26:10Z</time>
      </trkpt>
      <trkpt lat="43.59889" lon="2.95082">
        <ele>454.518</ele>
        <time>2015-08-25T11:26:30Z</time>
      </trkpt>
      <trkpt lat="43.59877" lon="2.95041">
        <ele>447.772</ele>
        <time>2015-08-25T11:26:50Z</time>
      </trkpt>
      <trkpt lat="43.59845" lon="2.9504">
        <ele>452.737</ele>
        <time>2015-08-25T11:27:10Z</time>
      </trkpt>
      <trkpt lat="43.59819" lon="2.95023">
        <ele>458.549</ele>
        <time>2015-08-25T11:27:30Z</time>
      </trkpt>
      <trkpt lat="43.59795" lon="2.94982">
        <ele>466.513</ele>
        <time>2015-08-25T11:27:50Z</time>
      </trkpt>
      <trkpt lat="43.59784" lon="2.94953">
        <ele>470.708</ele>
        <time>2015-08-25T11:28:10Z</time>
      </trkpt>
      <trkpt lat="43.59743" lon="2.94896">
        <ele>477.029</ele>
        <time>2015-08-25T11:28:30Z</time>
      </trkpt>
      <trkpt lat="43.59733" lon="2.94863">
        <ele>485.074</ele>
        <time>2015-08-25T11:28:50Z</time>
      </trkpt>
      <trkpt lat="43.59705" lon="2.94742">
        <ele>505.475</ele>
        <time>2015-08-25T11:29:10Z</time>
      </trkpt>
      <trkpt lat="43.59701" lon="2.94662">
        <ele>531.39</ele>
        <time>2015-08-25T11:29:30Z</time>
      </trkpt>
      <trkpt lat="43.59675" lon="2.94668">
        <ele>529.419</ele>
        <time>2015-08-25T11:29:50Z</time>
      </trkpt>
      <trkpt lat="43.59684" lon="2.94656">
        <ele>533.252</ele>
        <time>2015-08-25T11:30:10Z</time>
      </trkpt>
      <trkpt lat="43.59667" lon="2.94659">
        <ele>533.349</ele>
        <time>2015-08-25T11:30:30Z</time>
      </trkpt>
      <trkpt lat="43.59685" lon="2.94637">
        <ele>541.433</ele>
        <time>2015-08-25T11:30:50Z</time>
      </trkpt>
      <trkpt lat="43.59673" lon="2.94637">
        <ele>541.135</ele>
        <time>2015-08-25T11:31:10Z</time>
      </trkpt>
      <trkpt lat="43.59682" lon="2.94624">
        <ele>546.886</ele>
        <time>2015-08-25T11:31:30Z</time>
      </trkpt>
      <trkpt lat="43.59667" lon="2.94625">
        <ele>545.414</ele>
        <time>2015-08-25T11:31:50Z</time>
      </trkpt>
      <trkpt lat="43.59675" lon="2.94613">
        <ele>550.708</ele>
        <time>2015-08-25T11:32:10Z</time>
      </trkpt>
      <trkpt lat="43.59658" lon="2.94624">
        <ele>549.519</ele>
        <time>2015-08-25T11:32:30Z</time>
      </trkpt>
      <trkpt lat="43.59625" lon="2.94651">
        <ele>554.194</ele>
        <time>2015-08-25T11:32:50Z</time>
      </trkpt>
      <trkpt lat="43.59628" lon="2.94639">
        <ele>556.395</ele>
        <time>2015-08-25T11:33:10Z</time>
      </trkpt>
      <trkpt lat="43.59607" lon="2.94654">
        <ele>560.98</ele>
        <time>2015-08-25T11:33:30Z</time>
      </trkpt>
      <trkpt lat="43.59613" lon="2.94642">
        <ele>561.359</ele>
        <time>2015-08-25T11:33:50Z</time>
      </trkpt>
      <trkpt lat="43.59598" lon="2.9465">
        <ele>567.782</ele>
        <time>2015-08-25T11:34:10Z</time>
      </trkpt>
      <trkpt lat="43.59613" lon="2.9463">
        <ele>565.779</ele>
        <time>2015-08-25T11:34:30Z</time>
      </trkpt>
      <trkpt lat="43.59598" lon="2.94639">
        <ele>572.193</ele>
        <time>2015-08-25T11:34:50Z</time>
      </trkpt>
      <trkpt lat="43.5961" lon="2.94613">
        <ele>573.619</ele>
        <time>2015-08-25T11:35:10Z</time>
      </trkpt>
      <trkpt lat="43.59571" lon="2.94639">
        <ele>591.209</ele>
        <time>2015-08-25T11:35:30Z</time>
      </trkpt>
      <trkpt lat="43.59569" lon="2.94628">
        <ele>595.619</ele>
        <time>2015-08-25T11:35:50Z</time>
      </trkpt>
      <trkpt lat="43.59586" lon="2.9459">
        <ele>595.108</ele>
        <time>2015-08-25T11:36:10Z</time>
      </trkpt>
      <trkpt lat="43.59572" lon="2.94598">
        <ele>601.757</ele>
        <time>2015-08-25T11:36:30Z</time>
      </trkpt>
      <trkpt lat="43.59579" lon="2.94546">
        <ele>611.812</ele>
        <time>2015-08-25T11:36:50Z</time>
      </trkpt>
      <trkpt lat="43.59611" lon="2.94496">
        <ele>611.473</ele>
        <time>2015-08-25T11:37:10Z</time>
      </trkpt>
      <trkpt lat="43.59569" lon="2.9452">
        <ele>626.128</ele>
        <time>2015-08-25T11:37:30Z</time>
      </trkpt>
      <trkpt lat="43.59593" lon="2.94486">
        <ele>625.767</ele>
        <time>2015-08-25T11:37:50Z</time>
      </trkpt>
      <trkpt lat="43.59571" lon="2.94494">
        <ele>634.77</ele>
        <time>2015-08-25T11:38:10Z</time>
      </trkpt>
      <trkpt lat="43.5959" lon="2.94458">
        <ele>639.257</ele>
        <time>2015-08-25T11:38:30Z</time>
      </trkpt>
      <trkpt lat="43.59606" lon="2.94394">
        <ele>643.121</ele>
        <time>2015-08-25T11:38:50Z</time>
      </trkpt>
      <trkpt lat="43.59592" lon="2.94341">
        <ele>636.184</ele>
        <time>2015-08-25T11:39:10Z</time>
      </trkpt>
      <trkpt lat="43.59564" lon="2.94322">
        <ele>628.607</ele>
        <time>2015-08-25T11:39:30Z</time>
      </trkpt>
      <trkpt lat="43.59554" lon="2.94305">
        <ele>622.817</ele>
        <time>2015-08-25T11:39:50Z</time>
      </trkpt>
      <trkpt lat="43.59532" lon="2.94288">
        <ele>613.608</ele>
        <time>2015-08-25T11:40:10Z</time>
      </trkpt>
      <trkpt lat="43.59527" lon="2.94267">
        <ele>605.484</ele>
        <time>2015-08-25T11:40:30Z</time>
      </trkpt>
      <trkpt lat="43.59512" lon="2.94254">
        <ele>603.729</ele>
        <time>2015-08-25T11:40:50Z</time>
      </trkpt>
      <trkpt lat="43.59479" lon="2.94199">
        <ele>590.29</ele>
        <time>2015-08-25T11:41:10Z</time>
      </trkpt>
      <trkpt lat="43.59472" lon="2.94167">
        <ele>578.175</ele>
        <time>2015-08-25T11:41:30Z</time>
      </trkpt>
      <trkpt lat="43.59457" lon="2.94162">
        <ele>577.694</ele>
        <time>2015-08-25T11:41:50Z</time>
      </trkpt>
      <trkpt lat="43.59396" lon="2.94118">
        <ele>573.727</ele>
        <time>2015-08-25T11:42:10Z</time>
      </trkpt>
      <trkpt lat="43.59391" lon="2.94095">
        <ele>568.674</ele>
        <time>2015-08-25T11:42:30Z</time>
      </trkpt>
      <trkpt lat="43.59374" lon="2.94074">
        <ele>566.578</ele>
        <time>2015-08-25T11:42:50Z</time>
      </trkpt>
      <trkpt lat="43.59354" lon="2.94033">
        <ele>554.635</ele>
        <time>2015-08-25T11:43:10Z</time>
      </trkpt>
      <trkpt lat="43.5931" lon="2.94007">
        <ele>548.986</ele>
        <time>2015-08-25T11:43:30Z</time>
      </trkpt>
      <trkpt lat="43.59297" lon="2.94003">
        <ele>547.714</ele>
        <time>2015-08-25T11:43:50Z</time>
      </trkpt>
      <trkpt lat="43.59265" lon="2.93983">
        <ele>539.408</ele>
        <time>2015-08-25T11:44:10Z</time>
      </trkpt>
      <trkpt lat="43.59235" lon="2.93984">
        <ele>542.639</ele>
        <time>2015-08-25T11:44:30Z</time>
      </trkpt>
      <trkpt lat="43.59185" lon="2.93952">
        <ele>530.144</ele>
        <time>2015-08-25T11:44:50Z</time>
      </trkpt>
      <trkpt lat="43.59158" lon="2.93918">
        <ele>516.875</ele>
        <time>2015-08-25T11:45:10Z</time>
      </trkpt>
      <trkpt lat="43.59125" lon="2.93893">
        <ele>508.84</ele>
        <time>2015-08-25T11:45:30Z</time>
      </trkpt>
      <trkpt lat="43.59079" lon="2.93881">
        <ele>508.489</ele>
        <time>2015-08-25T11:45:50Z</time>
      </trkpt>
      <trkpt lat="43.59063" lon="2.93881">
        <ele>509.782</ele>
        <time>2015-08-25T11:46:10Z</time>
      </trkpt>
      <trkpt lat="43.59019" lon="2.93865">
        <ele>503.879</ele>
        <time>2015-08-25T11:46:30Z</time>
      </trkpt>
      <trkpt lat="43.58929" lon="2.93849">
        <ele>490.543</ele>
        <time>2019-03-28T23:07:46Z</time>
      </trkpt>
      <trkpt lat="43.58883" lon="2.93907">
        <ele>481.043</ele>
        <time>2019-03-28T23:08:06Z</time>
      </trkpt>
      <trkpt lat="43.58861" lon="2.93894">
        <ele>473.864</ele>
        <time>2019-03-28T23:08:26Z</time>
      </trkpt>
      <trkpt lat="43.58755" lon="2.93928">
        <ele>464.31</ele>
        <time>2019-03-28T23:08:46Z</time>
      </trkpt>
      <trkpt lat="43.58741" lon="2.93955">
        <ele>467.908</ele>
        <time>2019-03-28T23:09:06Z</time>
      </trkpt>
      <trkpt lat="43.5871" lon="2.93955">
        <ele>457.02</ele>
        <time>2020-03-08T19:13:08Z</time>
      </trkpt>
      <trkpt lat="43.58671" lon="2.93971">
        <ele>448.555</ele>
        <time>2019-03-28T23:09:26Z</time>
      </trkpt>
      <trkpt lat="43.58713" lon="2.93889">
        <ele>440.746</ele>
        <time>2019-03-28T23:09:46Z</time>
      </trkpt>
      <trkpt lat="43.58817" lon="2.93824">
        <ele>442.431</ele>
        <time>2019-03-28T23:10:06Z</time>
      </trkpt>
      <trkpt lat="43.58842" lon="2.93784">
        <ele>441.19</ele>
        <time>2019-03-28T23:10:26Z</time>
      </trkpt>
      <trkpt lat="43.58818" lon="2.93779">
        <ele>440.533</ele>
        <time>2015-08-25T11:49:10Z</time>
      </trkpt>
      <trkpt lat="43.5882" lon="2.93736">
        <ele>451.53</ele>
        <time>2019-03-28T23:11:06Z</time>
      </trkpt>
      <trkpt lat="43.58767" lon="2.93707">
        <ele>459.884</ele>
        <time>2015-08-25T11:49:50Z</time>
      </trkpt>
      <trkpt lat="43.58742" lon="2.93709">
        <ele>463.179</ele>
        <time>2015-08-25T11:50:10Z</time>
      </trkpt>
      <trkpt lat="43.58717" lon="2.93719">
        <ele>467.005</ele>
        <time>2015-08-25T11:50:30Z</time>
      </trkpt>
      <trkpt lat="43.58687" lon="2.93745">
        <ele>466.225</ele>
        <time>2015-08-25T11:50:50Z</time>
      </trkpt>
      <trkpt lat="43.58664" lon="2.93747">
        <ele>468.308</ele>
        <time>2015-08-25T11:51:10Z</time>
      </trkpt>
      <trkpt lat="43.58684" lon="2.93712">
        <ele>475.213</ele>
        <time>2015-08-25T11:51:30Z</time>
      </trkpt>
      <trkpt lat="43.5869" lon="2.93684">
        <ele>482.648</ele>
        <time>2015-08-25T11:51:50Z</time>
      </trkpt>
      <trkpt lat="43.58711" lon="2.93659">
        <ele>487.529</ele>
        <time>2015-08-25T11:52:10Z</time>
      </trkpt>
      <trkpt lat="43.58757" lon="2.93619">
        <ele>495.964</ele>
        <time>2015-08-25T11:52:30Z</time>
      </trkpt>
      <trkpt lat="43.58721" lon="2.93608">
        <ele>503.463</ele>
        <time>2015-08-25T11:52:50Z</time>
      </trkpt>
      <trkpt lat="43.58658" lon="2.93592">
        <ele>522.256</ele>
        <time>2015-08-25T11:53:10Z</time>
      </trkpt>
      <trkpt lat="43.58641" lon="2.93595">
        <ele>526.723</ele>
        <time>2015-08-25T11:53:30Z</time>
      </trkpt>
      <trkpt lat="43.58662" lon="2.93554">
        <ele>535.197</ele>
        <time>2015-08-25T11:53:50Z</time>
      </trkpt>
      <trkpt lat="43.58641" lon="2.9351">
        <ele>540.551</ele>
        <time>2015-08-25T11:54:10Z</time>
      </trkpt>
      <trkpt lat="43.58688" lon="2.93447">
        <ele>556.501</ele>
        <time>2015-08-25T11:54:30Z</time>
      </trkpt>
      <trkpt lat="43.58701" lon="2.93441">
        <ele>560.611</ele>
        <time>2015-08-25T11:54:50Z</time>
      </trkpt>
      <trkpt lat="43.58713" lon="2.93406">
        <ele>568.108</ele>
        <time>2015-08-25T11:55:10Z</time>
      </trkpt>
      <trkpt lat="43.58736" lon="2.93405">
        <ele>573.791</ele>
        <time>2015-08-25T11:55:30Z</time>
      </trkpt>
      <trkpt lat="43.58773" lon="2.93327">
        <ele>590.396</ele>
        <time>2015-08-25T11:55:50Z</time>
      </trkpt>
      <trkpt lat="43.58793" lon="2.93305">
        <ele>595.997</ele>
        <time>2015-08-25T11:56:10Z</time>
      </trkpt>
      <trkpt lat="43.5881" lon="2.93251">
        <ele>607.582</ele>
        <time>2015-08-25T11:56:30Z</time>
      </trkpt>
      <trkpt lat="43.58822" lon="2.93232">
        <ele>615.611</ele>
        <time>2015-08-25T11:56:50Z</time>
      </trkpt>
      <trkpt lat="43.58837" lon="2.93226">
        <ele>622.544</ele>
        <time>2015-08-25T11:57:10Z</time>
      </trkpt>
      <trkpt lat="43.58858" lon="2.93195">
        <ele>636.621</ele>
        <time>2015-08-25T11:57:30Z</time>
      </trkpt>
      <trkpt lat="43.58871" lon="2.93186">
        <ele>641.065</ele>
        <time>2015-08-25T11:57:50Z</time>
      </trkpt>
      <trkpt lat="43.58883" lon="2.93168">
        <ele>648.216</ele>
        <time>2015-08-25T11:58:10Z</time>
      </trkpt>
      <trkpt lat="43.58899" lon="2.93153">
        <ele>653.276</ele>
        <time>2015-08-25T11:58:30Z</time>
      </trkpt>
      <trkpt lat="43.58925" lon="2.93104">
        <ele>670.213</ele>
        <time>2015-08-25T11:58:50Z</time>
      </trkpt>
      <trkpt lat="43.5892" lon="2.93074">
        <ele>678.908</ele>
        <time>2015-08-25T11:59:10Z</time>
      </trkpt>
      <trkpt lat="43.58895" lon="2.93045">
        <ele>676.857</ele>
        <time>2015-08-25T11:59:30Z</time>
      </trkpt>
      <trkpt lat="43.58939" lon="2.93047">
        <ele>688.952</ele>
        <time>2015-08-25T11:59:50Z</time>
      </trkpt>
      <trkpt lat="43.58911" lon="2.93017">
        <ele>690.693</ele>
        <time>2015-08-25T12:00:10Z</time>
      </trkpt>
      <trkpt lat="43.58904" lon="2.92982">
        <ele>695.378</ele>
        <time>2015-08-25T12:00:30Z</time>
      </trkpt>
      <trkpt lat="43.58928" lon="2.92994">
        <ele>702.257</ele>
        <time>2015-08-25T12:00:50Z</time>
      </trkpt>
      <trkpt lat="43.58931" lon="2.92988">
        <ele>704.57</ele>
        <time>2015-08-25T12:01:10Z</time>
      </trkpt>
      <trkpt lat="43.58922" lon="2.92865">
        <ele>725.227</ele>
        <time>2015-08-25T12:01:30Z</time>
      </trkpt>
      <trkpt lat="43.58935" lon="2.92821">
        <ele>741.071</ele>
        <time>2015-08-25T12:01:50Z</time>
      </trkpt>
      <trkpt lat="43.58963" lon="2.92782">
        <ele>744.673</ele>
        <time>2015-08-25T12:02:10Z</time>
      </trkpt>
      <trkpt lat="43.58994" lon="2.92755">
        <ele>746.685</ele>
        <time>2015-08-25T12:02:30Z</time>
      </trkpt>
      <trkpt lat="43.59009" lon="2.9275">
        <ele>750.513</ele>
        <time>2015-08-25T12:02:50Z</time>
      </trkpt>
      <trkpt lat="43.59077" lon="2.92672">
        <ele>763.408</ele>
        <time>2015-08-25T12:03:10Z</time>
      </trkpt>
      <trkpt lat="43.59096" lon="2.92639">
        <ele>764.023</ele>
        <time>2015-08-25T12:03:30Z</time>
      </trkpt>
      <trkpt lat="43.59117" lon="2.92628">
        <ele>770.368</ele>
        <time>2015-08-25T12:03:50Z</time>
      </trkpt>
      <trkpt lat="43.59142" lon="2.92592">
        <ele>772.479</ele>
        <time>2015-08-25T12:04:10Z</time>
      </trkpt>
      <trkpt lat="43.59161" lon="2.92582">
        <ele>777.514</ele>
        <time>2015-08-25T12:04:30Z</time>
      </trkpt>
      <trkpt lat="43.59172" lon="2.92567">
        <ele>775.783</ele>
        <time>2015-08-25T12:04:50Z</time>
      </trkpt>
      <trkpt lat="43.59274" lon="2.92541">
        <ele>785.266</ele>
        <time>2015-08-25T12:05:10Z</time>
      </trkpt>
      <trkpt lat="43.59301" lon="2.92529">
        <ele>785.473</ele>
        <time>2015-08-25T12:05:30Z</time>
      </trkpt>
      <trkpt lat="43.59326" lon="2.9248">
        <ele>784.887</ele>
        <time>2015-08-25T12:05:50Z</time>
      </trkpt>
      <trkpt lat="43.59363" lon="2.92367">
        <ele>786.595</ele>
        <time>2015-08-25T12:06:10Z</time>
      </trkpt>
      <trkpt lat="43.59356" lon="2.92342">
        <ele>779.849</ele>
        <time>2015-08-25T12:06:30Z</time>
      </trkpt>
      <trkpt lat="43.59364" lon="2.92317">
        <ele>782.923</ele>
        <time>2015-08-25T12:06:50Z</time>
      </trkpt>
      <trkpt lat="43.59374" lon="2.92237">
        <ele>783.708</ele>
        <time>2015-08-25T12:07:10Z</time>
      </trkpt>
      <trkpt lat="43.59373" lon="2.92154">
        <ele>782.225</ele>
        <time>2015-08-25T12:07:30Z</time>
      </trkpt>
      <trkpt lat="43.59388" lon="2.92135">
        <ele>791.16</ele>
        <time>2015-08-25T12:07:50Z</time>
      </trkpt>
      <trkpt lat="43.59402" lon="2.92007">
        <ele>795.781</ele>
        <time>2015-08-25T12:08:10Z</time>
      </trkpt>
      <trkpt lat="43.59417" lon="2.91966">
        <ele>802.216</ele>
        <time>2015-08-25T12:08:30Z</time>
      </trkpt>
      <trkpt lat="43.59409" lon="2.91937">
        <ele>797.555</ele>
        <time>2015-08-25T12:08:50Z</time>
      </trkpt>
      <trkpt lat="43.59408" lon="2.91859">
        <ele>801.998</ele>
        <time>2015-08-25T12:09:10Z</time>
      </trkpt>
      <trkpt lat="43.59423" lon="2.9175">
        <ele>811.645</ele>
        <time>2015-08-25T12:09:30Z</time>
      </trkpt>
      <trkpt lat="43.59464" lon="2.91601">
        <ele>820.889</ele>
        <time>2015-08-25T12:09:50Z</time>
      </trkpt>
      <trkpt lat="43.5946" lon="2.91567">
        <ele>819.729</ele>
        <time>2015-08-25T12:10:10Z</time>
      </trkpt>
      <trkpt lat="43.59467" lon="2.91526">
        <ele>821.9</ele>
        <time>2015-08-25T12:10:30Z</time>
      </trkpt>
      <trkpt lat="43.59492" lon="2.91468">
        <ele>820.62</ele>
        <time>2015-08-25T12:10:50Z</time>
      </trkpt>
      <trkpt lat="43.59505" lon="2.91455">
        <ele>821.408</ele>
        <time>2015-08-25T12:11:10Z</time>
      </trkpt>
      <trkpt lat="43.59535" lon="2.91449">
        <ele>830.148</ele>
        <time>2015-08-25T12:11:30Z</time>
      </trkpt>
      <trkpt lat="43.59488" lon="2.91367">
        <ele>819.733</ele>
        <time>2015-08-25T12:11:50Z</time>
      </trkpt>
      <trkpt lat="43.59467" lon="2.91391">
        <ele>811.634</ele>
        <time>2015-08-25T12:12:10Z</time>
      </trkpt>
      <trkpt lat="43.59473" lon="2.91358">
        <ele>818.119</ele>
        <time>2015-08-25T12:12:30Z</time>
      </trkpt>
      <trkpt lat="43.59451" lon="2.91381">
        <ele>819.948</ele>
        <time>2015-08-25T12:12:50Z</time>
      </trkpt>
      <trkpt lat="43.59428" lon="2.91375">
        <ele>828.171</ele>
        <time>2015-08-25T12:13:10Z</time>
      </trkpt>
      <trkpt lat="43.5944" lon="2.91329">
        <ele>845.678</ele>
        <time>2015-08-25T12:13:30Z</time>
      </trkpt>
      <trkpt lat="43.59451" lon="2.91247">
        <ele>867.282</ele>
        <time>2015-08-25T12:13:50Z</time>
      </trkpt>
      <trkpt lat="43.59442" lon="2.912">
        <ele>883.615</ele>
        <time>2015-08-25T12:14:10Z</time>
      </trkpt>
      <trkpt lat="43.59409" lon="2.91185">
        <ele>876.065</ele>
        <time>2015-08-25T12:14:30Z</time>
      </trkpt>
      <trkpt lat="43.59393" lon="2.91167">
        <ele>875.311</ele>
        <time>2015-08-25T12:14:50Z</time>
      </trkpt>
      <trkpt lat="43.5937" lon="2.91164">
        <ele>876.808</ele>
        <time>2015-08-25T12:15:10Z</time>
      </trkpt>
      <trkpt lat="43.59352" lon="2.91214">
        <ele>873.377</ele>
        <time>2015-08-25T12:15:30Z</time>
      </trkpt>
      <trkpt lat="43.59342" lon="2.91189">
        <ele>880.292</ele>
        <time>2015-08-25T12:15:50Z</time>
      </trkpt>
      <trkpt lat="43.59309" lon="2.9121">
        <ele>888.953</ele>
        <time>2015-08-25T12:16:10Z</time>
      </trkpt>
      <trkpt lat="43.59266" lon="2.91247">
        <ele>898.098</ele>
        <time>2015-08-25T12:16:30Z</time>
      </trkpt>
      <trkpt lat="43.5922" lon="2.91294">
        <ele>902.587</ele>
        <time>2015-08-25T12:16:50Z</time>
      </trkpt>
      <trkpt lat="43.5915" lon="2.91336">
        <ele>907.18</ele>
        <time>2015-08-25T12:17:10Z</time>
      </trkpt>
      <trkpt lat="43.59125" lon="2.91379">
        <ele>902.557</ele>
        <time>2015-08-25T12:17:30Z</time>
      </trkpt>
      <trkpt lat="43.59106" lon="2.91383">
        <ele>901.791</ele>
        <time>2015-08-25T12:17:50Z</time>
      </trkpt>
      <trkpt lat="43.5907" lon="2.91376">
        <ele>898.918</ele>
        <time>2015-08-25T12:18:10Z</time>
      </trkpt>
      <trkpt lat="43.59063" lon="2.91348">
        <ele>902.898</ele>
        <time>2015-08-25T12:18:30Z</time>
      </trkpt>
      <trkpt lat="43.59089" lon="2.9123">
        <ele>933.217</ele>
        <time>2015-08-25T12:18:50Z</time>
      </trkpt>
      <trkpt lat="43.5911" lon="2.91126">
        <ele>962.008</ele>
        <time>2015-08-25T12:19:10Z</time>
      </trkpt>
      <trkpt lat="43.59077" lon="2.91114">
        <ele>969.727</ele>
        <time>2015-08-25T12:19:30Z</time>
      </trkpt>
      <trkpt lat="43.59035" lon="2.91125">
        <ele>968.422</ele>
        <time>2015-08-25T12:19:50Z</time>
      </trkpt>
      <trkpt lat="43.58977" lon="2.9112">
        <ele>967.373</ele>
        <time>2015-08-25T12:20:10Z</time>
      </trkpt>
      <trkpt lat="43.58932" lon="2.91097">
        <ele>971.728</ele>
        <time>2015-08-25T12:20:30Z</time>
      </trkpt>
      <trkpt lat="43.58948" lon="2.91088">
        <ele>978.987</ele>
        <time>2015-08-25T12:20:50Z</time>
      </trkpt>
      <trkpt lat="43.58863" lon="2.91027">
        <ele>988.75</ele>
        <time>2015-08-25T12:21:10Z</time>
      </trkpt>
      <trkpt lat="43.58839" lon="2.90971">
        <ele>990.687</ele>
        <time>2015-08-25T12:21:30Z</time>
      </trkpt>
      <trkpt lat="43.58843" lon="2.90931">
        <ele>998.291</ele>
        <time>2015-08-25T12:21:50Z</time>
      </trkpt>
      <trkpt lat="43.58841" lon="2.909">
        <ele>996.559</ele>
        <time>2015-08-25T12:22:10Z</time>
      </trkpt>
      <trkpt lat="43.58877" lon="2.90858">
        <ele>1003.403</ele>
        <time>2015-08-25T12:22:30Z</time>
      </trkpt>
      <trkpt lat="43.58914" lon="2.90801">
        <ele>1004.723</ele>
        <time>2015-08-25T12:22:50Z</time>
      </trkpt>
      <trkpt lat="43.58936" lon="2.90756">
        <ele>1003.008</ele>
        <time>2015-08-25T12:23:10Z</time>
      </trkpt>
      <trkpt lat="43.58967" lon="2.90744">
        <ele>1002.361</ele>
        <time>2015-08-25T12:23:30Z</time>
      </trkpt>
      <trkpt lat="43.58996" lon="2.90747">
        <ele>1000.356</ele>
        <time>2015-08-25T12:23:50Z</time>
      </trkpt>
      <trkpt lat="43.59022" lon="2.90762">
        <ele>1001.457</ele>
        <time>2015-08-25T12:24:10Z</time>
      </trkpt>
      <trkpt lat="43.59083" lon="2.9081">
        <ele>1004.842</ele>
        <time>2015-08-25T12:24:30Z</time>
      </trkpt>
      <trkpt lat="43.5912" lon="2.90805">
        <ele>1002.021</ele>
        <time>2015-08-25T12:24:50Z</time>
      </trkpt>
      <trkpt lat="43.59127" lon="2.90763">
        <ele>1007.314</ele>
        <time>2015-08-25T12:25:10Z</time>
      </trkpt>
      <trkpt lat="43.59136" lon="2.90744">
        <ele>1011.881</ele>
        <time>2015-08-25T12:25:30Z</time>
      </trkpt>
      <trkpt lat="43.59143" lon="2.90699">
        <ele>1013.335</ele>
        <time>2015-08-25T12:25:50Z</time>
      </trkpt>
      <trkpt lat="43.59189" lon="2.90634">
        <ele>1024.827</ele>
        <time>2015-08-25T12:26:10Z</time>
      </trkpt>
      <trkpt lat="43.59257" lon="2.90587">
        <ele>1040.268</ele>
        <time>2015-08-25T12:26:30Z</time>
      </trkpt>
      <trkpt lat="43.59301" lon="2.90464">
        <ele>1040.614</ele>
        <time>2015-08-25T12:26:50Z</time>
      </trkpt>
      <trkpt lat="43.59305" lon="2.90433">
        <ele>1037.608</ele>
        <time>2015-08-25T12:27:10Z</time>
      </trkpt>
      <trkpt lat="43.593" lon="2.90411">
        <ele>1031.698</ele>
        <time>2015-08-25T12:27:30Z</time>
      </trkpt>
      <trkpt lat="43.59308" lon="2.90259">
        <ele>1016.393</ele>
        <time>2015-08-25T12:27:50Z</time>
      </trkpt>
      <trkpt lat="43.59287" lon="2.9023">
        <ele>1008.124</ele>
        <time>2015-08-25T12:28:10Z</time>
      </trkpt>
      <trkpt lat="43.59287" lon="2.90133">
        <ele>1010.469</ele>
        <time>2015-08-25T12:28:30Z</time>
      </trkpt>
      <trkpt lat="43.59323" lon="2.90013">
        <ele>1024.438</ele>
        <time>2015-08-25T12:28:50Z</time>
      </trkpt>
      <trkpt lat="43.59352" lon="2.89826">
        <ele>1037.561</ele>
        <time>2015-08-25T12:29:10Z</time>
      </trkpt>
      <trkpt lat="43.59367" lon="2.89867">
        <ele>1043.788</ele>
        <time>2015-08-25T12:29:30Z</time>
      </trkpt>
      <trkpt lat="43.59381" lon="2.89829">
        <ele>1049.362</ele>
        <time>2015-08-25T12:29:50Z</time>
      </trkpt>
      <trkpt lat="43.59386" lon="2.89799">
        <ele>1051.146</ele>
        <time>2015-08-25T12:30:10Z</time>
      </trkpt>
      <trkpt lat="43.59403" lon="2.89798">
        <ele>1053.788</ele>
        <time>2015-08-25T12:30:30Z</time>
      </trkpt>
      <trkpt lat="43.59405" lon="2.89752">
        <ele>1052.716</ele>
        <time>2015-08-25T12:30:50Z</time>
      </trkpt>
      <trkpt lat="43.59421" lon="2.89744">
        <ele>1053.908</ele>
        <time>2015-08-25T12:31:10Z</time>
      </trkpt>
      <trkpt lat="43.59461" lon="2.89738">
        <ele>1054.05</ele>
        <time>2015-08-25T12:31:30Z</time>
      </trkpt>
      <trkpt lat="43.59476" lon="2.89769">
        <ele>1054.525</ele>
        <time>2015-08-25T12:31:50Z</time>
      </trkpt>
      <trkpt lat="43.59544" lon="2.89841">
        <ele>1050.246</ele>
        <time>2015-08-25T12:32:10Z</time>
      </trkpt>
      <trkpt lat="43.59582" lon="2.8986">
        <ele>1049.911</ele>
        <time>2015-08-25T12:32:30Z</time>
      </trkpt>
      <trkpt lat="43.59639" lon="2.89854">
        <ele>1048.36</ele>
        <time>2015-08-25T12:32:50Z</time>
      </trkpt>
      <trkpt lat="43.59706" lon="2.89827">
        <ele>1050.413</ele>
        <time>2015-08-25T12:33:10Z</time>
      </trkpt>
      <trkpt lat="43.59748" lon="2.89826">
        <ele>1054.48</ele>
        <time>2015-08-25T12:33:30Z</time>
      </trkpt>
      <trkpt lat="43.59767" lon="2.89846">
        <ele>1054.414</ele>
        <time>2015-08-25T12:33:50Z</time>
      </trkpt>
      <trkpt lat="43.59788" lon="2.89907">
        <ele>1053.998</ele>
        <time>2015-08-25T12:34:10Z</time>
      </trkpt>
      <trkpt lat="43.59811" lon="2.89989">
        <ele>1050.615</ele>
        <time>2015-08-25T12:34:30Z</time>
      </trkpt>
      <trkpt lat="43.59839" lon="2.9005">
        <ele>1045.026</ele>
        <time>2015-08-25T12:34:50Z</time>
      </trkpt>
      <trkpt lat="43.59892" lon="2.9012">
        <ele>1041.308</ele>
        <time>2015-08-25T12:35:10Z</time>
      </trkpt>
      <trkpt lat="43.59913" lon="2.90132">
        <ele>1040.155</ele>
        <time>2015-08-25T12:35:30Z</time>
      </trkpt>
      <trkpt lat="43.59931" lon="2.9013">
        <ele>1041.08</ele>
        <time>2015-08-25T12:35:50Z</time>
      </trkpt>
      <trkpt lat="43.59951" lon="2.9011">
        <ele>1042.011</ele>
        <time>2015-08-25T12:36:10Z</time>
      </trkpt>
      <trkpt lat="43.59966" lon="2.90088">
        <ele>1039.766</ele>
        <time>2015-08-25T12:36:30Z</time>
      </trkpt>
      <trkpt lat="43.59979" lon="2.90083">
        <ele>1040.175</ele>
        <time>2015-08-25T12:36:50Z</time>
      </trkpt>
      <trkpt lat="43.60001" lon="2.90061">
        <ele>1037.648</ele>
        <time>2015-08-25T12:37:10Z</time>
      </trkpt>
      <trkpt lat="43.60131" lon="2.90016">
        <ele>1032.615</ele>
        <time>2015-08-25T12:37:30Z</time>
      </trkpt>
      <trkpt lat="43.60154" lon="2.89992">
        <ele>1030.969</ele>
        <time>2015-08-25T12:37:50Z</time>
      </trkpt>
      <trkpt lat="43.60156" lon="2.89931">
        <ele>1028.631</ele>
        <time>2015-08-25T12:38:10Z</time>
      </trkpt>
      <trkpt lat="43.60144" lon="2.89806">
        <ele>1032.361</ele>
        <time>2015-08-25T12:38:30Z</time>
      </trkpt>
      <trkpt lat="43.60155" lon="2.89712">
        <ele>1037.907</ele>
        <time>2015-08-25T12:38:50Z</time>
      </trkpt>
      <trkpt lat="43.60146" lon="2.89676">
        <ele>1034.908</ele>
        <time>2015-08-25T12:39:10Z</time>
      </trkpt>
      <trkpt lat="43.60152" lon="2.89593">
        <ele>1038.019</ele>
        <time>2015-08-25T12:39:30Z</time>
      </trkpt>
      <trkpt lat="43.6015" lon="2.89536">
        <ele>1036.094</ele>
        <time>2015-08-25T12:39:50Z</time>
      </trkpt>
      <trkpt lat="43.60164" lon="2.89493">
        <ele>1038.855</ele>
        <time>2015-08-25T12:40:10Z</time>
      </trkpt>
      <trkpt lat="43.60151" lon="2.89429">
        <ele>1032.57</ele>
        <time>2015-08-25T12:40:30Z</time>
      </trkpt>
      <trkpt lat="43.6019" lon="2.89376">
        <ele>1033.159</ele>
        <time>2015-08-25T12:40:50Z</time>
      </trkpt>
      <trkpt lat="43.60231" lon="2.89328">
        <ele>1027.872</ele>
        <time>2015-08-25T12:41:10Z</time>
      </trkpt>
      <trkpt lat="43.60265" lon="2.89265">
        <ele>1013.579</ele>
        <time>2015-08-25T12:41:30Z</time>
      </trkpt>
      <trkpt lat="43.60257" lon="2.89168">
        <ele>998.463</ele>
        <time>2015-08-25T12:41:50Z</time>
      </trkpt>
      <trkpt lat="43.60255" lon="2.8908">
        <ele>984.326</ele>
        <time>2015-08-25T12:42:10Z</time>
      </trkpt>
      <trkpt lat="43.60236" lon="2.88993">
        <ele>973.647</ele>
        <time>2015-08-25T12:42:30Z</time>
      </trkpt>
      <trkpt lat="43.60214" lon="2.8882">
        <ele>995.211</ele>
        <time>2015-08-25T12:42:50Z</time>
      </trkpt>
      <trkpt lat="43.60187" lon="2.88646">
        <ele>1018.208</ele>
        <time>2015-08-25T12:43:10Z</time>
      </trkpt>
      <trkpt lat="43.60145" lon="2.88633">
        <ele>1019.298</ele>
        <time>2015-08-25T12:43:30Z</time>
      </trkpt>
      <trkpt lat="43.60129" lon="2.88573">
        <ele>1023.213</ele>
        <time>2015-08-25T12:43:50Z</time>
      </trkpt>
      <trkpt lat="43.60144" lon="2.88521">
        <ele>1029.214</ele>
        <time>2015-08-25T12:44:10Z</time>
      </trkpt>
      <trkpt lat="43.60145" lon="2.88428">
        <ele>1031.579</ele>
        <time>2015-08-25T12:44:30Z</time>
      </trkpt>
      <trkpt lat="43.6017" lon="2.88342">
        <ele>1037.068</ele>
        <time>2015-08-25T12:44:50Z</time>
      </trkpt>
      <trkpt lat="43.60157" lon="2.88201">
        <ele>1041.811</ele>
        <time>2015-08-25T12:45:10Z</time>
      </trkpt>
      <trkpt lat="43.60109" lon="2.88058">
        <ele>1045.948</ele>
        <time>2015-08-25T12:45:30Z</time>
      </trkpt>
      <trkpt lat="43.60101" lon="2.87913">
        <ele>1051.182</ele>
        <time>2015-08-25T12:45:50Z</time>
      </trkpt>
      <trkpt lat="43.60136" lon="2.87669">
        <ele>1053.185</ele>
        <time>2015-08-25T12:46:10Z</time>
      </trkpt>
      <trkpt lat="43.6016" lon="2.87424">
        <ele>1043.289</ele>
        <time>2015-08-25T12:46:30Z</time>
      </trkpt>
      <trkpt lat="43.60156" lon="2.8733">
        <ele>1036.917</ele>
        <time>2015-08-25T12:46:50Z</time>
      </trkpt>
      <trkpt lat="43.60116" lon="2.87191">
        <ele>1029.108</ele>
        <time>2015-08-25T12:47:10Z</time>
      </trkpt>
      <trkpt lat="43.60061" lon="2.87096">
        <ele>1036.014</ele>
        <time>2015-08-25T12:47:30Z</time>
      </trkpt>
      <trkpt lat="43.60025" lon="2.87035">
        <ele>1041.919</ele>
        <time>2015-08-25T12:47:50Z</time>
      </trkpt>
      <trkpt lat="43.60009" lon="2.86942">
        <ele>1045.09</ele>
        <time>2015-08-25T12:48:10Z</time>
      </trkpt>
      <trkpt lat="43.60159" lon="2.86805">
        <ele>1045.075</ele>
        <time>2015-08-25T12:48:30Z</time>
      </trkpt>
      <trkpt lat="43.60247" lon="2.86611">
        <ele>1045.094</ele>
        <time>2015-08-25T12:48:50Z</time>
      </trkpt>
      <trkpt lat="43.60269" lon="2.86519">
        <ele>1045.047</ele>
        <time>2015-08-25T12:49:10Z</time>
      </trkpt>
      <trkpt lat="43.60278" lon="2.86192">
        <ele>1028.824</ele>
        <time>2015-08-25T12:49:30Z</time>
      </trkpt>
      <trkpt lat="43.60318" lon="2.8611">
        <ele>1027.668</ele>
        <time>2015-08-25T12:49:50Z</time>
      </trkpt>
      <trkpt lat="43.60332" lon="2.85957">
        <ele>1024.184</ele>
        <time>2015-08-25T12:50:10Z</time>
      </trkpt>
      <trkpt lat="43.60323" lon="2.85808">
        <ele>1022.407</ele>
        <time>2015-08-25T12:50:30Z</time>
      </trkpt>
      <trkpt lat="43.60273" lon="2.85644">
        <ele>1024.417</ele>
        <time>2015-08-25T12:50:50Z</time>
      </trkpt>
      <trkpt lat="43.60194" lon="2.8544">
        <ele>1026.608</ele>
        <time>2015-08-25T12:51:10Z</time>
      </trkpt>
      <trkpt lat="43.60168" lon="2.85421">
        <ele>1024.454</ele>
        <time>2015-08-25T12:51:30Z</time>
      </trkpt>
      <trkpt lat="43.60137" lon="2.8541">
        <ele>1019.169</ele>
        <time>2015-08-25T12:51:50Z</time>
      </trkpt>
      <trkpt lat="43.60105" lon="2.8529">
        <ele>1014.99</ele>
        <time>2015-08-25T12:52:10Z</time>
      </trkpt>
      <trkpt lat="43.60107" lon="2.85238">
        <ele>1014.655</ele>
        <time>2015-08-25T12:52:30Z</time>
      </trkpt>
      <trkpt lat="43.60166" lon="2.85101">
        <ele>1006.784</ele>
        <time>2015-08-25T12:52:50Z</time>
      </trkpt>
      <trkpt lat="43.60091" lon="2.85106">
        <ele>1009.177</ele>
        <time>2015-08-25T12:53:10Z</time>
      </trkpt>
      <trkpt lat="43.60033" lon="2.85075">
        <ele>1007.024</ele>
        <time>2015-08-25T12:53:30Z</time>
      </trkpt>
      <trkpt lat="43.59864" lon="2.84958">
        <ele>967.188</ele>
        <time>2015-08-25T12:53:50Z</time>
      </trkpt>
      <trkpt lat="43.59867" lon="2.84923">
        <ele>967.116</ele>
        <time>2015-08-25T12:54:10Z</time>
      </trkpt>
      <trkpt lat="43.59902" lon="2.8483">
        <ele>969.176</ele>
        <time>2015-08-25T12:54:30Z</time>
      </trkpt>
      <trkpt lat="43.59928" lon="2.84788">
        <ele>969.113</ele>
        <time>2015-08-25T12:54:50Z</time>
      </trkpt>
      <trkpt lat="43.59965" lon="2.84755">
        <ele>970.408</ele>
        <time>2015-08-25T12:55:10Z</time>
      </trkpt>
      <trkpt lat="43.60023" lon="2.8467">
        <ele>973.387</ele>
        <time>2015-08-25T12:55:30Z</time>
      </trkpt>
      <trkpt lat="43.60046" lon="2.84597">
        <ele>973.852</ele>
        <time>2015-08-25T12:55:50Z</time>
      </trkpt>
      <trkpt lat="43.60048" lon="2.84548">
        <ele>974.113</ele>
        <time>2015-08-25T12:56:10Z</time>
      </trkpt>
      <trkpt lat="43.60022" lon="2.84501">
        <ele>976.338</ele>
        <time>2015-08-25T12:56:30Z</time>
      </trkpt>
      <trkpt lat="43.59997" lon="2.84382">
        <ele>978.847</ele>
        <time>2015-08-25T12:56:50Z</time>
      </trkpt>
      <trkpt lat="43.5999" lon="2.84302">
        <ele>978.95</ele>
        <time>2015-08-25T12:57:10Z</time>
      </trkpt>
      <trkpt lat="43.59976" lon="2.84328">
        <ele>978.367</ele>
        <time>2015-08-25T12:57:30Z</time>
      </trkpt>
      <trkpt lat="43.59888" lon="2.83982">
        <ele>974.381</ele>
        <time>2015-08-25T12:57:50Z</time>
      </trkpt>
      <trkpt lat="43.59821" lon="2.83963">
        <ele>976.754</ele>
        <time>2019-03-29T00:19:46Z</time>
      </trkpt>
      <trkpt lat="43.59726" lon="2.84032">
        <ele>981.456</ele>
        <time>2019-03-29T00:20:06Z</time>
      </trkpt>
      <trkpt lat="43.59588" lon="2.84096">
        <ele>991.011</ele>
        <time>2019-03-29T00:20:26Z</time>
      </trkpt>
      <trkpt lat="43.59521" lon="2.84112">
        <ele>995.108</ele>
        <time>2019-03-29T00:20:46Z</time>
      </trkpt>
      <trkpt lat="43.59402" lon="2.84094">
        <ele>1003.221</ele>
        <time>2019-03-29T00:21:06Z</time>
      </trkpt>
      <trkpt lat="43.59348" lon="2.84107">
        <ele>1001.966</ele>
        <time>2019-03-29T00:21:26Z</time>
      </trkpt>
      <trkpt lat="43.59332" lon="2.84149">
        <ele>1004.127</ele>
        <time>2019-03-29T00:21:46Z</time>
      </trkpt>
      <trkpt lat="43.59332" lon="2.84252">
        <ele>1004.182</ele>
        <time>2019-03-29T00:22:06Z</time>
      </trkpt>
      <trkpt lat="43.59298" lon="2.84296">
        <ele>1005.091</ele>
        <time>2019-03-29T00:22:26Z</time>
      </trkpt>
      <trkpt lat="43.59243" lon="2.84298">
        <ele>1006.824</ele>
        <time>2019-03-29T00:22:46Z</time>
      </trkpt>
      <trkpt lat="43.59198" lon="2.84234">
        <ele>1012.051</ele>
        <time>2019-03-29T00:23:06Z</time>
      </trkpt>
      <trkpt lat="43.59175" lon="2.84128">
        <ele>1016.565</ele>
        <time>2019-03-29T00:23:26Z</time>
      </trkpt>
      <trkpt lat="43.59187" lon="2.84055">
        <ele>1019.378</ele>
        <time>2019-03-29T00:23:46Z</time>
      </trkpt>
      <trkpt lat="43.59177" lon="2.8399">
        <ele>1019.733</ele>
        <time>2019-03-29T00:24:06Z</time>
      </trkpt>
      <trkpt lat="43.59227" lon="2.83855">
        <ele>1027.926</ele>
        <time>2019-03-29T00:24:26Z</time>
      </trkpt>
      <trkpt lat="43.59232" lon="2.83769">
        <ele>1030.008</ele>
        <time>2019-03-29T00:24:46Z</time>
      </trkpt>
      <trkpt lat="43.59212" lon="2.83684">
        <ele>1034.763</ele>
        <time>2019-03-29T00:25:06Z</time>
      </trkpt>
      <trkpt lat="43.5927" lon="2.83608">
        <ele>1039.328</ele>
        <time>2019-03-29T00:25:26Z</time>
      </trkpt>
      <trkpt lat="43.59228" lon="2.83567">
        <ele>1043.649</ele>
        <time>2019-03-29T00:25:46Z</time>
      </trkpt>
      <trkpt lat="43.59168" lon="2.83574">
        <ele>1047.974</ele>
        <time>2019-03-29T00:26:06Z</time>
      </trkpt>
      <trkpt lat="43.5902" lon="2.83661">
        <ele>1056.933</ele>
        <time>2019-03-29T00:26:26Z</time>
      </trkpt>
      <trkpt lat="43.58965" lon="2.83661">
        <ele>1061.116</ele>
        <time>2019-03-29T00:26:46Z</time>
      </trkpt>
      <trkpt lat="43.58855" lon="2.83546">
        <ele>1065.593</ele>
        <time>2019-03-29T00:27:06Z</time>
      </trkpt>
      <trkpt lat="43.58734" lon="2.83641">
        <ele>1063.127</ele>
        <time>2019-03-29T00:27:26Z</time>
      </trkpt>
      <trkpt lat="43.58677" lon="2.83666">
        <ele>1065.345</ele>
        <time>2019-03-29T00:27:46Z</time>
      </trkpt>
      <trkpt lat="43.58619" lon="2.83673">
        <ele>1063.547</ele>
        <time>2019-03-29T00:28:06Z</time>
      </trkpt>
      <trkpt lat="43.58439" lon="2.83859">
        <ele>1053.011</ele>
        <time>2019-03-29T00:28:26Z</time>
      </trkpt>
      <trkpt lat="43.58289" lon="2.83749">
        <ele>1032.908</ele>
        <time>2019-03-29T00:28:46Z</time>
      </trkpt>
      <trkpt lat="43.58161" lon="2.83811">
        <ele>1032.79</ele>
        <time>2019-03-29T00:29:06Z</time>
      </trkpt>
      <trkpt lat="43.58041" lon="2.83965">
        <ele>1028.755</ele>
        <time>2019-03-29T00:29:26Z</time>
      </trkpt>
      <trkpt lat="43.57962" lon="2.8408">
        <ele>1037.276</ele>
        <time>2019-03-29T00:29:46Z</time>
      </trkpt>
      <trkpt lat="43.57936" lon="2.84075">
        <ele>1038.391</ele>
        <time>2019-03-29T00:30:06Z</time>
      </trkpt>
      <trkpt lat="43.57924" lon="2.83894">
        <ele>1033.38</ele>
        <time>2019-03-29T00:30:26Z</time>
      </trkpt>
      <trkpt lat="43.57749" lon="2.83811">
        <ele>1033.593</ele>
        <time>2019-03-29T00:30:46Z</time>
      </trkpt>
      <trkpt lat="43.57706" lon="2.83671">
        <ele>1031.11</ele>
        <time>2019-03-29T00:31:06Z</time>
      </trkpt>
      <trkpt lat="43.57731" lon="2.83654">
        <ele>1029.634</ele>
        <time>2019-03-29T00:31:26Z</time>
      </trkpt>
      <trkpt lat="43.57754" lon="2.83707">
        <ele>1024.386</ele>
        <time>2019-03-29T00:31:46Z</time>
      </trkpt>
      <trkpt lat="43.57794" lon="2.83677">
        <ele>1017.96</ele>
        <time>2019-03-29T00:32:06Z</time>
      </trkpt>
      <trkpt lat="43.57847" lon="2.83526">
        <ele>1004.326</ele>
        <time>2019-03-29T00:32:26Z</time>
      </trkpt>
      <trkpt lat="43.57901" lon="2.83519">
        <ele>1005.908</ele>
        <time>2019-03-29T00:32:46Z</time>
      </trkpt>
      <trkpt lat="43.57884" lon="2.83397">
        <ele>1005.824</ele>
        <time>2019-03-29T00:33:06Z</time>
      </trkpt>
      <trkpt lat="43.57921" lon="2.83266">
        <ele>1008.869</ele>
        <time>2019-03-29T00:33:26Z</time>
      </trkpt>
      <trkpt lat="43.57957" lon="2.83238">
        <ele>1012.28</ele>
        <time>2019-03-29T00:33:46Z</time>
      </trkpt>
      <trkpt lat="43.57954" lon="2.83298">
        <ele>1013.365</ele>
        <time>2019-03-29T00:34:06Z</time>
      </trkpt>
      <trkpt lat="43.57979" lon="2.83365">
        <ele>1019.684</ele>
        <time>2019-03-29T00:34:26Z</time>
      </trkpt>
      <trkpt lat="43.58009" lon="2.83346">
        <ele>1021.857</ele>
        <time>2019-03-29T00:34:46Z</time>
      </trkpt>
      <trkpt lat="43.58036" lon="2.83227">
        <ele>1028.014</ele>
        <time>2019-03-29T00:35:06Z</time>
      </trkpt>
      <trkpt lat="43.58021" lon="2.83146">
        <ele>1025.948</ele>
        <time>2019-03-29T00:35:26Z</time>
      </trkpt>
      <trkpt lat="43.57986" lon="2.83091">
        <ele>1031.677</ele>
        <time>2019-03-29T00:35:46Z</time>
      </trkpt>
      <trkpt lat="43.57929" lon="2.83086">
        <ele>1032.461</ele>
        <time>2019-03-29T00:36:06Z</time>
      </trkpt>
      <trkpt lat="43.57919" lon="2.83061">
        <ele>1033.827</ele>
        <time>2019-03-29T00:36:26Z</time>
      </trkpt>
      <trkpt lat="43.57931" lon="2.82921">
        <ele>1041.008</ele>
        <time>2019-03-29T00:36:46Z</time>
      </trkpt>
      <trkpt lat="43.57954" lon="2.82877">
        <ele>1041.553</ele>
        <time>2019-03-29T00:37:06Z</time>
      </trkpt>
      <trkpt lat="43.58069" lon="2.82774">
        <ele>1048.618</ele>
        <time>2019-03-29T00:37:26Z</time>
      </trkpt>
      <trkpt lat="43.57931" lon="2.82636">
        <ele>1047.689</ele>
        <time>2019-03-29T00:37:46Z</time>
      </trkpt>
      <trkpt lat="43.57897" lon="2.82479">
        <ele>1046.474</ele>
        <time>2019-03-29T00:38:06Z</time>
      </trkpt>
      <trkpt lat="43.57694" lon="2.82426">
        <ele>1044.933</ele>
        <time>2019-03-29T00:38:26Z</time>
      </trkpt>
      <trkpt lat="43.57656" lon="2.82387">
        <ele>1045.076</ele>
        <time>2019-03-29T00:38:46Z</time>
      </trkpt>
      <trkpt lat="43.57537" lon="2.82346">
        <ele>1034.883</ele>
        <time>2019-03-29T00:39:06Z</time>
      </trkpt>
      <trkpt lat="43.57413" lon="2.8236">
        <ele>1036.237</ele>
        <time>2019-03-29T00:39:26Z</time>
      </trkpt>
      <trkpt lat="43.57238" lon="2.82245">
        <ele>1027.067</ele>
        <time>2019-03-29T00:39:46Z</time>
      </trkpt>
      <trkpt lat="43.57289" lon="2.81999">
        <ele>1013.781</ele>
        <time>2019-03-29T00:40:06Z</time>
      </trkpt>
      <trkpt lat="43.57239" lon="2.81989">
        <ele>1012.419</ele>
        <time>2019-03-29T00:40:26Z</time>
      </trkpt>
      <trkpt lat="43.57184" lon="2.81923">
        <ele>1012.508</ele>
        <time>2019-03-29T00:40:46Z</time>
      </trkpt>
      <trkpt lat="43.57174" lon="2.81833">
        <ele>1008.282</ele>
        <time>2019-03-29T00:41:06Z</time>
      </trkpt>
      <trkpt lat="43.57176" lon="2.81741">
        <ele>999.717</ele>
        <time>2019-03-29T00:41:26Z</time>
      </trkpt>
      <trkpt lat="43.57156" lon="2.81638">
        <ele>999.448</ele>
        <time>2019-03-29T00:41:46Z</time>
      </trkpt>
      <trkpt lat="43.57223" lon="2.81414">
        <ele>997.013</ele>
        <time>2019-03-29T00:42:06Z</time>
      </trkpt>
      <trkpt lat="43.57239" lon="2.81157">
        <ele>995.462</ele>
        <time>2019-03-29T00:42:26Z</time>
      </trkpt>
      <trkpt lat="43.57234" lon="2.81021">
        <ele>994.275</ele>
        <time>2019-03-29T00:42:46Z</time>
      </trkpt>
      <trkpt lat="43.57228" lon="2.80957">
        <ele>994.612</ele>
        <time>2019-03-29T00:43:06Z</time>
      </trkpt>
      <trkpt lat="43.57219" lon="2.8083">
        <ele>993.236</ele>
        <time>2019-03-29T00:43:26Z</time>
      </trkpt>
      <trkpt lat="43.57166" lon="2.8069">
        <ele>991.897</ele>
        <time>2019-03-29T00:43:46Z</time>
      </trkpt>
      <trkpt lat="43.57048" lon="2.80566">
        <ele>997.323</ele>
        <time>2019-03-29T00:44:06Z</time>
      </trkpt>
      <trkpt lat="43.56939" lon="2.80488">
        <ele>987.525</ele>
        <time>2019-03-29T00:44:26Z</time>
      </trkpt>
      <trkpt lat="43.56814" lon="2.80453">
        <ele>978.208</ele>
        <time>2019-03-29T00:44:46Z</time>
      </trkpt>
      <trkpt lat="43.56759" lon="2.80308">
        <ele>978.445</ele>
        <time>2019-03-29T00:45:06Z</time>
      </trkpt>
      <trkpt lat="43.56809" lon="2.80244">
        <ele>972.49</ele>
        <time>2019-03-29T00:45:26Z</time>
      </trkpt>
      <trkpt lat="43.56829" lon="2.8017">
        <ele>969.391</ele>
        <time>2019-03-29T00:45:46Z</time>
      </trkpt>
      <trkpt lat="43.56778" lon="2.80113">
        <ele>967.266</ele>
        <time>2019-03-29T00:46:06Z</time>
      </trkpt>
      <trkpt lat="43.56749" lon="2.80028">
        <ele>966.175</ele>
        <time>2019-03-29T00:46:26Z</time>
      </trkpt>
      <trkpt lat="43.56626" lon="2.79986">
        <ele>966.318</ele>
        <time>2019-03-29T00:46:46Z</time>
      </trkpt>
      <trkpt lat="43.56556" lon="2.79982">
        <ele>965.045</ele>
        <time>2019-03-29T00:47:06Z</time>
      </trkpt>
      <trkpt lat="43.56468" lon="2.7994">
        <ele>965.099</ele>
        <time>2019-03-29T00:47:26Z</time>
      </trkpt>
      <trkpt lat="43.56441" lon="2.79876">
        <ele>966.664</ele>
        <time>2019-03-29T00:47:46Z</time>
      </trkpt>
      <trkpt lat="43.56434" lon="2.79818">
        <ele>965.106</ele>
        <time>2019-03-29T00:48:06Z</time>
      </trkpt>
      <trkpt lat="43.56378" lon="2.79786">
        <ele>965.316</ele>
        <time>2019-03-29T00:48:26Z</time>
      </trkpt>
      <trkpt lat="43.56331" lon="2.79703">
        <ele>964.808</ele>
        <time>2019-03-29T00:48:46Z</time>
      </trkpt>
      <trkpt lat="43.56356" lon="2.79584">
        <ele>966.442</ele>
        <time>2019-03-29T00:49:06Z</time>
      </trkpt>
      <trkpt lat="43.56338" lon="2.79531">
        <ele>967.117</ele>
        <time>2019-03-29T00:49:26Z</time>
      </trkpt>
      <trkpt lat="43.56326" lon="2.79467">
        <ele>969.578</ele>
        <time>2019-03-29T00:49:46Z</time>
      </trkpt>
      <trkpt lat="43.56253" lon="2.7948">
        <ele>964.883</ele>
        <time>2019-03-29T00:50:06Z</time>
      </trkpt>
      <trkpt lat="43.56221" lon="2.79542">
        <ele>963.572</ele>
        <time>2019-03-29T00:50:26Z</time>
      </trkpt>
      <trkpt lat="43.56169" lon="2.79577">
        <ele>963.055</ele>
        <time>2019-03-29T00:50:46Z</time>
      </trkpt>
      <trkpt lat="43.56143" lon="2.79545">
        <ele>963.062</ele>
        <time>2019-03-29T00:51:06Z</time>
      </trkpt>
      <trkpt lat="43.56158" lon="2.79446">
        <ele>963.016</ele>
        <time>2019-03-29T00:51:26Z</time>
      </trkpt>
      <trkpt lat="43.56151" lon="2.79342">
        <ele>964.115</ele>
        <time>2019-03-29T00:51:46Z</time>
      </trkpt>
      <trkpt lat="43.56101" lon="2.79333">
        <ele>967.165</ele>
        <time>2019-03-29T00:52:06Z</time>
      </trkpt>
      <trkpt lat="43.56079" lon="2.79395">
        <ele>964.911</ele>
        <time>2019-03-29T00:52:26Z</time>
      </trkpt>
      <trkpt lat="43.55951" lon="2.79534">
        <ele>964.408</ele>
        <time>2020-03-08T20:56:48Z</time>
      </trkpt>
      <trkpt lat="43.55796" lon="2.79517">
        <ele>963.337</ele>
        <time>2019-03-29T00:53:06Z</time>
      </trkpt>
      <trkpt lat="43.55778" lon="2.79473">
        <ele>963.072</ele>
        <time>2019-03-29T00:53:26Z</time>
      </trkpt>
      <trkpt lat="43.55792" lon="2.79364">
        <ele>963.663</ele>
        <time>2020-03-08T20:57:48Z</time>
      </trkpt>
      <trkpt lat="43.55794" lon="2.7926">
        <ele>965.368</ele>
        <time>2019-03-29T00:53:46Z</time>
      </trkpt>
      <trkpt lat="43.55717" lon="2.79268">
        <ele>964.267</ele>
        <time>2020-03-08T20:58:28Z</time>
      </trkpt>
      <trkpt lat="43.55696" lon="2.79243">
        <ele>964.33</ele>
        <time>2020-03-08T20:58:48Z</time>
      </trkpt>
      <trkpt lat="43.55667" lon="2.79183">
        <ele>964.417</ele>
        <time>2020-03-08T20:59:08Z</time>
      </trkpt>
      <trkpt lat="43.55636" lon="2.79147">
        <ele>963.611</ele>
        <time>2019-03-29T00:54:26Z</time>
      </trkpt>
      <trkpt lat="43.55633" lon="2.79025">
        <ele>965.468</ele>
        <time>2020-03-08T20:59:48Z</time>
      </trkpt>
      <trkpt lat="43.55611" lon="2.78942">
        <ele>967.242</ele>
        <time>2019-03-29T00:55:06Z</time>
      </trkpt>
      <trkpt lat="43.55573" lon="2.78961">
        <ele>965.426</ele>
        <time>2019-03-29T00:55:26Z</time>
      </trkpt>
      <trkpt lat="43.55526" lon="2.79011">
        <ele>963.608</ele>
        <time>2019-03-29T00:55:46Z</time>
      </trkpt>
      <trkpt lat="43.55494" lon="2.78977">
        <ele>964.692</ele>
        <time>2019-03-29T00:56:06Z</time>
      </trkpt>
      <trkpt lat="43.55459" lon="2.78984">
        <ele>964.197</ele>
        <time>2019-03-29T00:56:26Z</time>
      </trkpt>
      <trkpt lat="43.55439" lon="2.79025">
        <ele>964.218</ele>
        <time>2019-03-29T00:56:46Z</time>
      </trkpt>
      <trkpt lat="43.55341" lon="2.78951">
        <ele>972.723</ele>
        <time>2019-03-29T00:57:06Z</time>
      </trkpt>
      <trkpt lat="43.55174" lon="2.78956">
        <ele>990.442</ele>
        <time>2019-03-29T00:57:26Z</time>
      </trkpt>
      <trkpt lat="43.55181" lon="2.78892">
        <ele>991.095</ele>
        <time>2019-03-29T00:57:46Z</time>
      </trkpt>
      <trkpt lat="43.55034" lon="2.78574">
        <ele>1001.632</ele>
        <time>2019-03-29T00:58:06Z</time>
      </trkpt>
      <trkpt lat="43.55026" lon="2.78557">
        <ele>1003.286</ele>
        <time>2015-08-25T13:39:10Z</time>
      </trkpt>
      <trkpt lat="43.55005" lon="2.78507">
        <ele>1009.022</ele>
        <time>2015-08-25T13:39:30Z</time>
      </trkpt>
      <trkpt lat="43.54961" lon="2.78471">
        <ele>1007.062</ele>
        <time>2015-08-25T13:39:50Z</time>
      </trkpt>
      <trkpt lat="43.54947" lon="2.78486">
        <ele>1004.908</ele>
        <time>2015-08-25T13:40:10Z</time>
      </trkpt>
      <trkpt lat="43.5492" lon="2.78576">
        <ele>1001.408</ele>
        <time>2015-08-25T13:40:30Z</time>
      </trkpt>
      <trkpt lat="43.54876" lon="2.78639">
        <ele>987.748</ele>
        <time>2015-08-25T13:40:50Z</time>
      </trkpt>
      <trkpt lat="43.54863" lon="2.78591">
        <ele>987.823</ele>
        <time>2015-08-25T13:41:10Z</time>
      </trkpt>
      <trkpt lat="43.54832" lon="2.78639">
        <ele>977.734</ele>
        <time>2015-08-25T13:41:30Z</time>
      </trkpt>
      <trkpt lat="43.54778" lon="2.78614">
        <ele>965.659</ele>
        <time>2015-08-25T13:41:50Z</time>
      </trkpt>
      <trkpt lat="43.54766" lon="2.7859">
        <ele>965.458</ele>
        <time>2015-08-25T13:42:10Z</time>
      </trkpt>
      <trkpt lat="43.54752" lon="2.78593">
        <ele>961.661</ele>
        <time>2015-08-25T13:42:30Z</time>
      </trkpt>
      <trkpt lat="43.54737" lon="2.78563">
        <ele>958.248</ele>
        <time>2015-08-25T13:42:50Z</time>
      </trkpt>
      <trkpt lat="43.54731" lon="2.78589">
        <ele>953.522</ele>
        <time>2015-08-25T13:43:10Z</time>
      </trkpt>
      <trkpt lat="43.54714" lon="2.78546">
        <ele>951.485</ele>
        <time>2015-08-25T13:43:30Z</time>
      </trkpt>
      <trkpt lat="43.54684" lon="2.78563">
        <ele>943.589</ele>
        <time>2015-08-25T13:43:50Z</time>
      </trkpt>
      <trkpt lat="43.54664" lon="2.78587">
        <ele>939.417</ele>
        <time>2015-08-25T13:44:10Z</time>
      </trkpt>
      <trkpt lat="43.54646" lon="2.78586">
        <ele>939.908</ele>
        <time>2015-08-25T13:44:30Z</time>
      </trkpt>
      <trkpt lat="43.54631" lon="2.78617">
        <ele>940.314</ele>
        <time>2015-08-25T13:44:50Z</time>
      </trkpt>
      <trkpt lat="43.54604" lon="2.78641">
        <ele>944.179</ele>
        <time>2015-08-25T13:45:10Z</time>
      </trkpt>
      <trkpt lat="43.54578" lon="2.78696">
        <ele>943.74</ele>
        <time>2015-08-25T13:45:30Z</time>
      </trkpt>
      <trkpt lat="43.54512" lon="2.78716">
        <ele>941.355</ele>
        <time>2015-08-25T13:45:50Z</time>
      </trkpt>
      <trkpt lat="43.54482" lon="2.78734">
        <ele>938.264</ele>
        <time>2015-08-25T13:46:10Z</time>
      </trkpt>
      <trkpt lat="43.54467" lon="2.78734">
        <ele>937.657</ele>
        <time>2015-08-25T13:46:30Z</time>
      </trkpt>
      <trkpt lat="43.54446" lon="2.78705">
        <ele>936.224</ele>
        <time>2015-08-25T13:46:50Z</time>
      </trkpt>
      <trkpt lat="43.54448" lon="2.78686">
        <ele>936.238</ele>
        <time>2015-08-25T13:47:10Z</time>
      </trkpt>
      <trkpt lat="43.54439" lon="2.78646">
        <ele>932.643</ele>
        <time>2015-08-25T13:47:30Z</time>
      </trkpt>
      <trkpt lat="43.5444" lon="2.78632">
        <ele>932.164</ele>
        <time>2015-08-25T13:47:50Z</time>
      </trkpt>
      <trkpt lat="43.54415" lon="2.7858">
        <ele>928.81</ele>
        <time>2015-08-25T13:48:10Z</time>
      </trkpt>
      <trkpt lat="43.54409" lon="2.78542">
        <ele>928.908</ele>
        <time>2015-08-25T13:48:30Z</time>
      </trkpt>
      <trkpt lat="43.54356" lon="2.78522">
        <ele>924.54</ele>
        <time>2015-08-25T13:48:50Z</time>
      </trkpt>
      <trkpt lat="43.54324" lon="2.78435">
        <ele>927.495</ele>
        <time>2015-08-25T13:49:10Z</time>
      </trkpt>
      <trkpt lat="43.54288" lon="2.78411">
        <ele>928.576</ele>
        <time>2015-08-25T13:49:30Z</time>
      </trkpt>
      <trkpt lat="43.54216" lon="2.78412">
        <ele>924.591</ele>
        <time>2015-08-25T13:49:50Z</time>
      </trkpt>
      <trkpt lat="43.5412" lon="2.78362">
        <ele>928.99</ele>
        <time>2015-08-25T13:50:10Z</time>
      </trkpt>
      <trkpt lat="43.54032" lon="2.78287">
        <ele>937.813</ele>
        <time>2015-08-25T13:50:30Z</time>
      </trkpt>
      <trkpt lat="43.53998" lon="2.78268">
        <ele>942.28</ele>
        <time>2015-08-25T13:50:50Z</time>
      </trkpt>
      <trkpt lat="43.53958" lon="2.78275">
        <ele>933.814</ele>
        <time>2015-08-25T13:51:10Z</time>
      </trkpt>
      <trkpt lat="43.53947" lon="2.78262">
        <ele>931.627</ele>
        <time>2015-08-25T13:51:30Z</time>
      </trkpt>
      <trkpt lat="43.5395" lon="2.78159">
        <ele>946.568</ele>
        <time>2015-08-25T13:51:50Z</time>
      </trkpt>
      <trkpt lat="43.53889" lon="2.78029">
        <ele>965.514</ele>
        <time>2015-08-25T13:52:10Z</time>
      </trkpt>
      <trkpt lat="43.5387" lon="2.78019">
        <ele>965.208</ele>
        <time>2015-08-25T13:52:30Z</time>
      </trkpt>
      <trkpt lat="43.53806" lon="2.78019">
        <ele>957.338</ele>
        <time>2015-08-25T13:52:50Z</time>
      </trkpt>
      <trkpt lat="43.53766" lon="2.77969">
        <ele>966.493</ele>
        <time>2015-08-25T13:53:10Z</time>
      </trkpt>
      <trkpt lat="43.5372" lon="2.77928">
        <ele>961.864</ele>
        <time>2015-08-25T13:53:30Z</time>
      </trkpt>
      <trkpt lat="43.53708" lon="2.7789">
        <ele>959.249</ele>
        <time>2015-08-25T13:53:50Z</time>
      </trkpt>
      <trkpt lat="43.53716" lon="2.77742">
        <ele>960.248</ele>
        <time>2015-08-25T13:54:10Z</time>
      </trkpt>
      <trkpt lat="43.5373" lon="2.77599">
        <ele>959.931</ele>
        <time>2015-08-25T13:54:30Z</time>
      </trkpt>
      <trkpt lat="43.53755" lon="2.77422">
        <ele>962.698</ele>
        <time>2015-08-25T13:54:50Z</time>
      </trkpt>
      <trkpt lat="43.53743" lon="2.77374">
        <ele>961.732</ele>
        <time>2015-08-25T13:55:10Z</time>
      </trkpt>
      <trkpt lat="43.53759" lon="2.77307">
        <ele>966.359</ele>
        <time>2019-03-29T01:14:46Z</time>
      </trkpt>
      <trkpt lat="43.53953" lon="2.77204">
        <ele>953.303</ele>
        <time>2019-03-29T01:15:06Z</time>
      </trkpt>
      <trkpt lat="43.54003" lon="2.76882">
        <ele>957.223</ele>
        <time>2019-03-29T01:15:26Z</time>
      </trkpt>
      <trkpt lat="43.54023" lon="2.76475">
        <ele>963.208</ele>
        <time>2019-03-29T01:15:46Z</time>
      </trkpt>
      <trkpt lat="43.54041" lon="2.76371">
        <ele>966.621</ele>
        <time>2019-03-29T01:16:06Z</time>
      </trkpt>
      <trkpt lat="43.54074" lon="2.76314">
        <ele>964.216</ele>
        <time>2019-03-29T01:16:26Z</time>
      </trkpt>
      <trkpt lat="43.54096" lon="2.76228">
        <ele>968.977</ele>
        <time>2019-03-29T01:16:46Z</time>
      </trkpt>
      <trkpt lat="43.54149" lon="2.76169">
        <ele>964.842</ele>
        <time>2019-03-29T01:17:06Z</time>
      </trkpt>
      <trkpt lat="43.54199" lon="2.76146">
        <ele>960.531</ele>
        <time>2019-03-29T01:17:26Z</time>
      </trkpt>
      <trkpt lat="43.54318" lon="2.76021">
        <ele>951.854</ele>
        <time>2019-03-29T01:17:46Z</time>
      </trkpt>
      <trkpt lat="43.54339" lon="2.75932">
        <ele>939.451</ele>
        <time>2019-03-29T01:18:06Z</time>
      </trkpt>
      <trkpt lat="43.54343" lon="2.75837">
        <ele>931.395</ele>
        <time>2019-03-29T01:18:26Z</time>
      </trkpt>
      <trkpt lat="43.54371" lon="2.75837">
        <ele>928.281</ele>
        <time>2019-03-29T01:18:46Z</time>
      </trkpt>
      <trkpt lat="43.54411" lon="2.75874">
        <ele>925.161</ele>
        <time>2019-03-29T01:19:06Z</time>
      </trkpt>
      <trkpt lat="43.54456" lon="2.75927">
        <ele>922.517</ele>
        <time>2019-03-29T01:19:26Z</time>
      </trkpt>
      <trkpt lat="43.54478" lon="2.75745">
        <ele>912.008</ele>
        <time>2019-03-29T01:19:46Z</time>
      </trkpt>
      <trkpt lat="43.54499" lon="2.7567">
        <ele>905.314</ele>
        <time>2019-03-29T01:20:06Z</time>
      </trkpt>
      <trkpt lat="43.54494" lon="2.75582">
        <ele>901.879</ele>
        <time>2019-03-29T01:20:26Z</time>
      </trkpt>
      <trkpt lat="43.54518" lon="2.75497">
        <ele>897.36</ele>
        <time>2019-03-29T01:20:46Z</time>
      </trkpt>
      <trkpt lat="43.54564" lon="2.75451">
        <ele>897.045</ele>
        <time>2019-03-29T01:21:06Z</time>
      </trkpt>
      <trkpt lat="43.54596" lon="2.75444">
        <ele>901.394</ele>
        <time>2019-03-29T01:21:26Z</time>
      </trkpt>
      <trkpt lat="43.54644" lon="2.75465">
        <ele>905.467</ele>
        <time>2019-03-29T01:21:46Z</time>
      </trkpt>
      <trkpt lat="43.54673" lon="2.75419">
        <ele>908.264</ele>
        <time>2019-03-29T01:22:06Z</time>
      </trkpt>
      <trkpt lat="43.54684" lon="2.75361">
        <ele>910.078</ele>
        <time>2019-03-29T01:22:26Z</time>
      </trkpt>
      <trkpt lat="43.54759" lon="2.75315">
        <ele>910.685</ele>
        <time>2019-03-29T01:22:46Z</time>
      </trkpt>
      <trkpt lat="43.54856" lon="2.75221">
        <ele>919.789</ele>
        <time>2019-03-29T01:23:06Z</time>
      </trkpt>
      <trkpt lat="43.54783" lon="2.75244">
        <ele>913.617</ele>
        <time>2019-03-29T01:23:26Z</time>
      </trkpt>
      <trkpt lat="43.54761" lon="2.75223">
        <ele>912.808</ele>
        <time>2019-03-29T01:23:46Z</time>
      </trkpt>
      <trkpt lat="43.54743" lon="2.75141">
        <ele>911.324</ele>
        <time>2019-03-29T01:24:06Z</time>
      </trkpt>
      <trkpt lat="43.54744" lon="2.75072">
        <ele>911.019</ele>
        <time>2019-03-29T01:24:26Z</time>
      </trkpt>
      <trkpt lat="43.54711" lon="2.74931">
        <ele>904.65</ele>
        <time>2019-03-29T01:24:46Z</time>
      </trkpt>
      <trkpt lat="43.54711" lon="2.74846">
        <ele>904.275</ele>
        <time>2019-03-29T01:25:06Z</time>
      </trkpt>
      <trkpt lat="43.54663" lon="2.74706">
        <ele>899.024</ele>
        <time>2019-03-29T01:25:26Z</time>
      </trkpt>
      <trkpt lat="43.54674" lon="2.74598">
        <ele>896.767</ele>
        <time>2019-03-29T01:25:46Z</time>
      </trkpt>
      <trkpt lat="43.54634" lon="2.7454">
        <ele>897.224</ele>
        <time>2019-03-29T01:26:06Z</time>
      </trkpt>
      <trkpt lat="43.54559" lon="2.74543">
        <ele>891.568</ele>
        <time>2019-03-29T01:26:26Z</time>
      </trkpt>
      <trkpt lat="43.54531" lon="2.7443">
        <ele>893.838</ele>
        <time>2019-03-29T01:26:46Z</time>
      </trkpt>
      <trkpt lat="43.54504" lon="2.74368">
        <ele>890.87</ele>
        <time>2019-03-29T01:27:06Z</time>
      </trkpt>
      <trkpt lat="43.54521" lon="2.74328">
        <ele>893.617</ele>
        <time>2020-03-08T21:32:28Z</time>
      </trkpt>
      <trkpt lat="43.54562" lon="2.74262">
        <ele>898.508</ele>
        <time>2020-03-08T21:32:48Z</time>
      </trkpt>
      <trkpt lat="43.54659" lon="2.74166">
        <ele>907.299</ele>
        <time>2019-03-29T01:27:46Z</time>
      </trkpt>
      <trkpt lat="43.54644" lon="2.74085">
        <ele>905.274</ele>
        <time>2019-03-29T01:28:06Z</time>
      </trkpt>
      <trkpt lat="43.54674" lon="2.73986">
        <ele>904.995</ele>
        <time>2019-03-29T01:28:26Z</time>
      </trkpt>
      <trkpt lat="43.54668" lon="2.73924">
        <ele>903.32</ele>
        <time>2019-03-29T01:28:46Z</time>
      </trkpt>
      <trkpt lat="43.54636" lon="2.73899">
        <ele>901.939</ele>
        <time>2019-03-29T01:29:06Z</time>
      </trkpt>
      <trkpt lat="43.54591" lon="2.73913">
        <ele>900.082</ele>
        <time>2019-03-29T01:29:26Z</time>
      </trkpt>
      <trkpt lat="43.54561" lon="2.73942">
        <ele>900.019</ele>
        <time>2019-03-29T01:29:46Z</time>
      </trkpt>
      <trkpt lat="43.54499" lon="2.73871">
        <ele>900.063</ele>
        <time>2019-03-29T01:30:06Z</time>
      </trkpt>
      <trkpt lat="43.54499" lon="2.73926">
        <ele>897.974</ele>
        <time>2019-03-29T01:30:26Z</time>
      </trkpt>
      <trkpt lat="43.54478" lon="2.73954">
        <ele>892.056</ele>
        <time>2020-03-08T21:36:08Z</time>
      </trkpt>
      <trkpt lat="43.54459" lon="2.73961">
        <ele>890.421</ele>
        <time>2019-03-29T01:30:46Z</time>
      </trkpt>
      <trkpt lat="43.54428" lon="2.73929">
        <ele>890.008</ele>
        <time>2019-03-29T01:31:06Z</time>
      </trkpt>
      <trkpt lat="43.54369" lon="2.73889">
        <ele>888.733</ele>
        <time>2020-03-08T21:37:08Z</time>
      </trkpt>
      <trkpt lat="43.54358" lon="2.73871">
        <ele>888.548</ele>
        <time>2020-03-08T21:37:28Z</time>
      </trkpt>
      <trkpt lat="43.54304" lon="2.7383">
        <ele>892.089</ele>
        <time>2019-03-29T01:32:06Z</time>
      </trkpt>
      <trkpt lat="43.54204" lon="2.73671">
        <ele>904.074</ele>
        <time>2019-03-29T01:32:26Z</time>
      </trkpt>
      <trkpt lat="43.54213" lon="2.73595">
        <ele>899.843</ele>
        <time>2019-03-29T01:32:46Z</time>
      </trkpt>
      <trkpt lat="43.54164" lon="2.73453">
        <ele>895.646</ele>
        <time>2019-03-29T01:33:06Z</time>
      </trkpt>
      <trkpt lat="43.54133" lon="2.73446">
        <ele>895.773</ele>
        <time>2019-03-29T01:33:26Z</time>
      </trkpt>
      <trkpt lat="43.54068" lon="2.7346">
        <ele>896.567</ele>
        <time>2019-03-29T01:33:46Z</time>
      </trkpt>
      <trkpt lat="43.53961" lon="2.73492">
        <ele>905.335</ele>
        <time>2019-03-29T01:34:06Z</time>
      </trkpt>
      <trkpt lat="43.53958" lon="2.73464">
        <ele>905.686</ele>
        <time>2019-03-29T01:34:26Z</time>
      </trkpt>
      <trkpt lat="43.54066" lon="2.73349">
        <ele>901.714</ele>
        <time>2019-03-29T01:34:46Z</time>
      </trkpt>
      <trkpt lat="43.54076" lon="2.73282">
        <ele>904.908</ele>
        <time>2019-03-29T01:35:06Z</time>
      </trkpt>
      <trkpt lat="43.53983" lon="2.73368">
        <ele>915.129</ele>
        <time>2019-03-29T01:35:26Z</time>
      </trkpt>
      <trkpt lat="43.53804" lon="2.73425">
        <ele>938.284</ele>
        <time>2019-03-29T01:35:46Z</time>
      </trkpt>
      <trkpt lat="43.53759" lon="2.7345">
        <ele>938.785</ele>
        <time>2019-03-29T01:36:06Z</time>
      </trkpt>
      <trkpt lat="43.53713" lon="2.73404">
        <ele>949.68</ele>
        <time>2019-03-29T01:36:26Z</time>
      </trkpt>
      <trkpt lat="43.53646" lon="2.73391">
        <ele>955.019</ele>
        <time>2019-03-29T01:36:46Z</time>
      </trkpt>
      <trkpt lat="43.53581" lon="2.73354">
        <ele>955.892</ele>
        <time>2019-03-29T01:37:06Z</time>
      </trkpt>
      <trkpt lat="43.53486" lon="2.73434">
        <ele>964.229</ele>
        <time>2019-03-29T01:37:26Z</time>
      </trkpt>
      <trkpt lat="43.53436" lon="2.73524">
        <ele>966.273</ele>
        <time>2019-03-29T01:37:46Z</time>
      </trkpt>
      <trkpt lat="43.53396" lon="2.73529">
        <ele>973.718</ele>
        <time>2019-03-29T01:38:06Z</time>
      </trkpt>
      <trkpt lat="43.53356" lon="2.73441">
        <ele>987.098</ele>
        <time>2019-03-29T01:38:26Z</time>
      </trkpt>
      <trkpt lat="43.53284" lon="2.73391">
        <ele>1001.817</ele>
        <time>2019-03-29T01:38:46Z</time>
      </trkpt>
      <trkpt lat="43.53222" lon="2.73384">
        <ele>1011.208</ele>
        <time>2019-03-29T01:39:06Z</time>
      </trkpt>
      <trkpt lat="43.53179" lon="2.73386">
        <ele>1014.767</ele>
        <time>2019-03-29T01:39:26Z</time>
      </trkpt>
      <trkpt lat="43.53136" lon="2.73358">
        <ele>1017.292</ele>
        <time>2019-03-29T01:39:46Z</time>
      </trkpt>
      <trkpt lat="43.53154" lon="2.73317">
        <ele>1018.133</ele>
        <time>2019-03-29T01:40:06Z</time>
      </trkpt>
      <trkpt lat="43.52999" lon="2.73374">
        <ele>1020.088</ele>
        <time>2019-03-29T01:40:26Z</time>
      </trkpt>
      <trkpt lat="43.52712" lon="2.73591">
        <ele>1020.327</ele>
        <time>2019-03-29T01:40:46Z</time>
      </trkpt>
      <trkpt lat="43.52575" lon="2.73446">
        <ele>1019.89</ele>
        <time>2019-03-29T01:41:06Z</time>
      </trkpt>
      <trkpt lat="43.52571" lon="2.73441">
        <ele>1019.147</ele>
        <time>2015-08-25T14:14:50Z</time>
      </trkpt>
      <trkpt lat="43.52574" lon="2.73412">
        <ele>1018.871</ele>
        <time>2015-08-25T14:15:10Z</time>
      </trkpt>
      <trkpt lat="43.52659" lon="2.73274">
        <ele>1024.618</ele>
        <time>2015-08-25T14:15:30Z</time>
      </trkpt>
      <trkpt lat="43.52645" lon="2.73137">
        <ele>1029.198</ele>
        <time>2015-08-25T14:15:50Z</time>
      </trkpt>
      <trkpt lat="43.52632" lon="2.72906">
        <ele>1019.817</ele>
        <time>2015-08-25T14:16:10Z</time>
      </trkpt>
      <trkpt lat="43.52619" lon="2.72786">
        <ele>1015.308</ele>
        <time>2015-08-25T14:16:30Z</time>
      </trkpt>
      <trkpt lat="43.52615" lon="2.72599">
        <ele>1010.067</ele>
        <time>2015-08-25T14:16:50Z</time>
      </trkpt>
      <trkpt lat="43.52594" lon="2.72485">
        <ele>1008.672</ele>
        <time>2015-08-25T14:17:10Z</time>
      </trkpt>
      <trkpt lat="43.52593" lon="2.72468">
        <ele>1009.163</ele>
        <time>2015-08-25T14:17:30Z</time>
      </trkpt>
      <trkpt lat="43.52582" lon="2.72402">
        <ele>1018.068</ele>
        <time>2015-08-25T14:17:50Z</time>
      </trkpt>
      <trkpt lat="43.52573" lon="2.72371">
        <ele>1020.177</ele>
        <time>2015-08-25T14:18:10Z</time>
      </trkpt>
      <trkpt lat="43.5252" lon="2.72388">
        <ele>1013.34</ele>
        <time>2015-08-25T14:18:30Z</time>
      </trkpt>
      <trkpt lat="43.5249" lon="2.72381">
        <ele>1010.487</ele>
        <time>2015-08-25T14:18:50Z</time>
      </trkpt>
      <trkpt lat="43.5247" lon="2.72362">
        <ele>1009.851</ele>
        <time>2015-08-25T14:19:10Z</time>
      </trkpt>
      <trkpt lat="43.52456" lon="2.72329">
        <ele>1010.137</ele>
        <time>2015-08-25T14:19:30Z</time>
      </trkpt>
      <trkpt lat="43.52437" lon="2.72312">
        <ele>1009.649</ele>
        <time>2015-08-25T14:19:50Z</time>
      </trkpt>
      <trkpt lat="43.5242" lon="2.72286">
        <ele>1008.113</ele>
        <time>2015-08-25T14:20:10Z</time>
      </trkpt>
      <trkpt lat="43.52339" lon="2.72293">
        <ele>1003.708</ele>
        <time>2015-08-25T14:20:30Z</time>
      </trkpt>
      <trkpt lat="43.52274" lon="2.72293">
        <ele>1001.919</ele>
        <time>2015-08-25T14:20:50Z</time>
      </trkpt>
      <trkpt lat="43.52139" lon="2.71338">
        <ele>979.284</ele>
        <time>2015-08-25T14:21:10Z</time>
      </trkpt>
      <trkpt lat="43.52103" lon="2.71303">
        <ele>977.745</ele>
        <time>2015-08-25T14:21:30Z</time>
      </trkpt>
      <trkpt lat="43.52089" lon="2.71246">
        <ele>977.53</ele>
        <time>2015-08-25T14:21:50Z</time>
      </trkpt>
      <trkpt lat="43.52084" lon="2.71157">
        <ele>971.479</ele>
        <time>2015-08-25T14:22:10Z</time>
      </trkpt>
      <trkpt lat="43.52106" lon="2.71071">
        <ele>964.262</ele>
        <time>2015-08-25T14:22:30Z</time>
      </trkpt>
      <trkpt lat="43.52135" lon="2.70998">
        <ele>964.479</ele>
        <time>2015-08-25T14:22:50Z</time>
      </trkpt>
      <trkpt lat="43.52091" lon="2.70966">
        <ele>963.813</ele>
        <time>2015-08-25T14:23:10Z</time>
      </trkpt>
      <trkpt lat="43.51961" lon="2.70946">
        <ele>946.318</ele>
        <time>2015-08-25T14:23:30Z</time>
      </trkpt>
      <trkpt lat="43.51937" lon="2.70913">
        <ele>942.598</ele>
        <time>2015-08-25T14:23:50Z</time>
      </trkpt>
      <trkpt lat="43.51927" lon="2.70842">
        <ele>944.217</ele>
        <time>2015-08-25T14:24:10Z</time>
      </trkpt>
      <trkpt lat="43.51918" lon="2.70637">
        <ele>943.208</ele>
        <time>2015-08-25T14:24:30Z</time>
      </trkpt>
      <trkpt lat="43.51909" lon="2.70596">
        <ele>939.597</ele>
        <time>2015-08-25T14:24:50Z</time>
      </trkpt>
      <trkpt lat="43.51861" lon="2.70544">
        <ele>931.012</ele>
        <time>2015-08-25T14:25:10Z</time>
      </trkpt>
      <trkpt lat="43.51841" lon="2.70572">
        <ele>931.663</ele>
        <time>2015-08-25T14:25:30Z</time>
      </trkpt>
      <trkpt lat="43.51846" lon="2.70463">
        <ele>935.428</ele>
        <time>2015-08-25T14:25:50Z</time>
      </trkpt>
      <trkpt lat="43.51817" lon="2.70313">
        <ele>937.137</ele>
        <time>2015-08-25T14:26:10Z</time>
      </trkpt>
      <trkpt lat="43.51826" lon="2.70214">
        <ele>932.46</ele>
        <time>2015-08-25T14:26:30Z</time>
      </trkpt>
      <trkpt lat="43.51819" lon="2.70088">
        <ele>930.087</ele>
        <time>2015-08-25T14:26:50Z</time>
      </trkpt>
      <trkpt lat="43.51792" lon="2.70031">
        <ele>929.481</ele>
        <time>2015-08-25T14:27:10Z</time>
      </trkpt>
      <trkpt lat="43.51707" lon="2.69997">
        <ele>933.544</ele>
        <time>2015-08-25T14:27:30Z</time>
      </trkpt>
      <trkpt lat="43.51593" lon="2.69921">
        <ele>942.505</ele>
        <time>2015-08-25T14:27:50Z</time>
      </trkpt>
      <trkpt lat="43.51519" lon="2.69886">
        <ele>947.215</ele>
        <time>2015-08-25T14:28:10Z</time>
      </trkpt>
      <trkpt lat="43.51481" lon="2.69882">
        <ele>947.508</ele>
        <time>2015-08-25T14:28:30Z</time>
      </trkpt>
      <trkpt lat="43.51423" lon="2.69903">
        <ele>943.72</ele>
        <time>2015-08-25T14:28:50Z</time>
      </trkpt>
      <trkpt lat="43.51405" lon="2.69913">
        <ele>942.715</ele>
        <time>2015-08-25T14:29:10Z</time>
      </trkpt>
      <trkpt lat="43.51345" lon="2.69922">
        <ele>940.856</ele>
        <time>2015-08-25T14:29:30Z</time>
      </trkpt>
      <trkpt lat="43.51304" lon="2.69939">
        <ele>940.241</ele>
        <time>2015-08-25T14:29:50Z</time>
      </trkpt>
      <trkpt lat="43.51262" lon="2.69931">
        <ele>940.02</ele>
        <time>2015-08-25T14:30:10Z</time>
      </trkpt>
      <trkpt lat="43.51208" lon="2.69793">
        <ele>936.283</ele>
        <time>2015-08-25T14:30:30Z</time>
      </trkpt>
      <trkpt lat="43.51186" lon="2.6971">
        <ele>933.91</ele>
        <time>2015-08-25T14:30:50Z</time>
      </trkpt>
      <trkpt lat="43.51201" lon="2.69612">
        <ele>932.534</ele>
        <time>2020-03-08T22:03:28Z</time>
      </trkpt>
      <trkpt lat="43.51199" lon="2.69522">
        <ele>930.694</ele>
        <time>2020-03-08T22:03:48Z</time>
      </trkpt>
      <trkpt lat="43.51168" lon="2.69452">
        <ele>929.157</ele>
        <time>2020-03-08T22:04:08Z</time>
      </trkpt>
      <trkpt lat="43.51132" lon="2.69197">
        <ele>922.422</ele>
        <time>2020-03-08T22:04:28Z</time>
      </trkpt>
      <trkpt lat="43.51078" lon="2.69029">
        <ele>922.508</ele>
        <time>2015-08-25T14:32:30Z</time>
      </trkpt>
      <trkpt lat="43.51076" lon="2.68898">
        <ele>921.575</ele>
        <time>2015-08-25T14:32:50Z</time>
      </trkpt>
      <trkpt lat="43.5107" lon="2.68806">
        <ele>918.72</ele>
        <time>2015-08-25T14:33:10Z</time>
      </trkpt>
      <trkpt lat="43.51088" lon="2.68758">
        <ele>919.651</ele>
        <time>2015-08-25T14:33:30Z</time>
      </trkpt>
      <trkpt lat="43.51208" lon="2.68561">
        <ele>923.976</ele>
        <time>2015-08-25T14:33:50Z</time>
      </trkpt>
      <trkpt lat="43.5127" lon="2.68427">
        <ele>924.345</ele>
        <time>2015-08-25T14:34:10Z</time>
      </trkpt>
      <trkpt lat="43.51268" lon="2.68356">
        <ele>926.418</ele>
        <time>2015-08-25T14:34:30Z</time>
      </trkpt>
      <trkpt lat="43.51284" lon="2.68276">
        <ele>923.245</ele>
        <time>2015-08-25T14:34:50Z</time>
      </trkpt>
      <trkpt lat="43.51357" lon="2.68118">
        <ele>925.459</ele>
        <time>2015-08-25T14:35:10Z</time>
      </trkpt>
      <trkpt lat="43.51358" lon="2.67989">
        <ele>927.697</ele>
        <time>2015-08-25T14:35:30Z</time>
      </trkpt>
      <trkpt lat="43.51325" lon="2.67836">
        <ele>924.923</ele>
        <time>2015-08-25T14:35:50Z</time>
      </trkpt>
      <trkpt lat="43.51328" lon="2.67766">
        <ele>922.025</ele>
        <time>2015-08-25T14:36:10Z</time>
      </trkpt>
      <trkpt lat="43.51357" lon="2.6765">
        <ele>920.708</ele>
        <time>2015-08-25T14:36:30Z</time>
      </trkpt>
      <trkpt lat="43.51341" lon="2.6761">
        <ele>919.625</ele>
        <time>2015-08-25T14:36:50Z</time>
      </trkpt>
      <trkpt lat="43.51232" lon="2.67541">
        <ele>919.22</ele>
        <time>2015-08-25T14:37:10Z</time>
      </trkpt>
      <trkpt lat="43.51174" lon="2.67528">
        <ele>918.221</ele>
        <time>2015-08-25T14:37:30Z</time>
      </trkpt>
      <trkpt lat="43.51136" lon="2.67529">
        <ele>916.776</ele>
        <time>2015-08-25T14:37:50Z</time>
      </trkpt>
      <trkpt lat="43.51067" lon="2.67487">
        <ele>913.015</ele>
        <time>2015-08-25T14:38:10Z</time>
      </trkpt>
      <trkpt lat="43.51014" lon="2.67432">
        <ele>909.758</ele>
        <time>2015-08-25T14:38:30Z</time>
      </trkpt>
      <trkpt lat="43.50973" lon="2.67372">
        <ele>904.525</ele>
        <time>2015-08-25T14:38:50Z</time>
      </trkpt>
      <trkpt lat="43.50967" lon="2.67307">
        <ele>902.329</ele>
        <time>2015-08-25T14:39:10Z</time>
      </trkpt>
      <trkpt lat="43.50938" lon="2.67262">
        <ele>899.344</ele>
        <time>2015-08-25T14:39:30Z</time>
      </trkpt>
      <trkpt lat="43.50905" lon="2.67182">
        <ele>899.205</ele>
        <time>2015-08-25T14:39:50Z</time>
      </trkpt>
      <trkpt lat="43.50837" lon="2.67106">
        <ele>897.715</ele>
        <time>2015-08-25T14:40:10Z</time>
      </trkpt>
      <trkpt lat="43.50807" lon="2.67088">
        <ele>895.808</ele>
        <time>2015-08-25T14:40:30Z</time>
      </trkpt>
      <trkpt lat="43.5075" lon="2.67083">
        <ele>892.08</ele>
        <time>2015-08-25T14:40:50Z</time>
      </trkpt>
      <trkpt lat="43.50701" lon="2.66998">
        <ele>888.435</ele>
        <time>2015-08-25T14:41:10Z</time>
      </trkpt>
      <trkpt lat="43.50642" lon="2.66917">
        <ele>880.116</ele>
        <time>2015-08-25T14:41:30Z</time>
      </trkpt>
      <trkpt lat="43.50456" lon="2.66491">
        <ele>864.161</ele>
        <time>2015-08-25T14:41:50Z</time>
      </trkpt>
      <trkpt lat="43.50387" lon="2.66443">
        <ele>857.88</ele>
        <time>2015-08-25T14:42:10Z</time>
      </trkpt>
      <trkpt lat="43.50356" lon="2.66413">
        <ele>854.573</ele>
        <time>2015-08-25T14:42:30Z</time>
      </trkpt>
      <trkpt lat="43.50316" lon="2.66421">
        <ele>851.82</ele>
        <time>2015-08-25T14:42:50Z</time>
      </trkpt>
      <trkpt lat="43.50252" lon="2.66515">
        <ele>846.244</ele>
        <time>2015-08-25T14:43:10Z</time>
      </trkpt>
      <trkpt lat="43.50206" lon="2.6655">
        <ele>842.881</ele>
        <time>2015-08-25T14:43:30Z</time>
      </trkpt>
      <trkpt lat="43.50107" lon="2.66608">
        <ele>830.561</ele>
        <time>2015-08-25T14:43:50Z</time>
      </trkpt>
      <trkpt lat="43.5007" lon="2.66645">
        <ele>827.217</ele>
        <time>2015-08-25T14:44:10Z</time>
      </trkpt>
      <trkpt lat="43.50057" lon="2.66677">
        <ele>826.508</ele>
        <time>2015-08-25T14:44:30Z</time>
      </trkpt>
      <trkpt lat="43.50003" lon="2.66718">
        <ele>820.514</ele>
        <time>2015-08-25T14:44:50Z</time>
      </trkpt>
      <trkpt lat="43.49971" lon="2.66767">
        <ele>813.219</ele>
        <time>2015-08-25T14:45:10Z</time>
      </trkpt>
      <trkpt lat="43.4997" lon="2.66698">
        <ele>813.61</ele>
        <time>2015-08-25T14:45:30Z</time>
      </trkpt>
      <trkpt lat="43.4999" lon="2.66636">
        <ele>817.035</ele>
        <time>2015-08-25T14:45:50Z</time>
      </trkpt>
      <trkpt lat="43.49998" lon="2.6659">
        <ele>813.674</ele>
        <time>2015-08-25T14:46:10Z</time>
      </trkpt>
      <trkpt lat="43.50029" lon="2.66539">
        <ele>815.797</ele>
        <time>2015-08-25T14:46:30Z</time>
      </trkpt>
      <trkpt lat="43.50028" lon="2.66518">
        <ele>817.764</ele>
        <time>2015-08-25T14:46:50Z</time>
      </trkpt>
      <trkpt lat="43.49986" lon="2.66484">
        <ele>814.588</ele>
        <time>2015-08-25T14:47:10Z</time>
      </trkpt>
      <trkpt lat="43.49958" lon="2.66448">
        <ele>813.621</ele>
        <time>2015-08-25T14:47:30Z</time>
      </trkpt>
      <trkpt lat="43.49958" lon="2.66426">
        <ele>814.241</ele>
        <time>2015-08-25T14:47:50Z</time>
      </trkpt>
      <trkpt lat="43.4998" lon="2.66371">
        <ele>814.005</ele>
        <time>2015-08-25T14:48:10Z</time>
      </trkpt>
      <trkpt lat="43.49999" lon="2.66338">
        <ele>813.508</ele>
        <time>2015-08-25T14:48:30Z</time>
      </trkpt>
      <trkpt lat="43.50019" lon="2.66276">
        <ele>816.158</ele>
        <time>2015-08-25T14:48:50Z</time>
      </trkpt>
      <trkpt lat="43.50046" lon="2.6622">
        <ele>819.753</ele>
        <time>2015-08-25T14:49:10Z</time>
      </trkpt>
      <trkpt lat="43.50042" lon="2.66206">
        <ele>819.834</ele>
        <time>2015-08-25T14:49:30Z</time>
      </trkpt>
      <trkpt lat="43.50032" lon="2.66202">
        <ele>819.839</ele>
        <time>2015-08-25T14:49:50Z</time>
      </trkpt>
      <trkpt lat="43.49999" lon="2.66227">
        <ele>818.538</ele>
        <time>2015-08-25T14:50:10Z</time>
      </trkpt>
      <trkpt lat="43.49957" lon="2.66228">
        <ele>818.081</ele>
        <time>2015-08-25T14:50:30Z</time>
      </trkpt>
      <trkpt lat="43.49934" lon="2.66213">
        <ele>817.968</ele>
        <time>2015-08-25T14:50:50Z</time>
      </trkpt>
      <trkpt lat="43.49929" lon="2.66156">
        <ele>824.132</ele>
        <time>2015-08-25T14:51:10Z</time>
      </trkpt>
      <trkpt lat="43.49919" lon="2.66108">
        <ele>828.677</ele>
        <time>2015-08-25T14:51:30Z</time>
      </trkpt>
      <trkpt lat="43.49888" lon="2.66032">
        <ele>832.661</ele>
        <time>2015-08-25T14:51:50Z</time>
      </trkpt>
      <trkpt lat="43.4987" lon="2.65934">
        <ele>834.327</ele>
        <time>2015-08-25T14:52:10Z</time>
      </trkpt>
      <trkpt lat="43.49873" lon="2.65828">
        <ele>837.108</ele>
        <time>2015-08-25T14:52:30Z</time>
      </trkpt>
      <trkpt lat="43.49886" lon="2.65763">
        <ele>837.933</ele>
        <time>2015-08-25T14:52:50Z</time>
      </trkpt>
      <trkpt lat="43.49918" lon="2.65718">
        <ele>839.938</ele>
        <time>2015-08-25T14:53:10Z</time>
      </trkpt>
      <trkpt lat="43.49935" lon="2.65672">
        <ele>838.629</ele>
        <time>2015-08-25T14:53:30Z</time>
      </trkpt>
      <trkpt lat="43.50034" lon="2.65577">
        <ele>832.874</ele>
        <time>2015-08-25T14:53:50Z</time>
      </trkpt>
      <trkpt lat="43.5008" lon="2.65511">
        <ele>832.213</ele>
        <time>2019-03-29T02:20:46Z</time>
      </trkpt>
      <trkpt lat="43.50089" lon="2.65461">
        <ele>829.696</ele>
        <time>2019-03-29T02:21:06Z</time>
      </trkpt>
      <trkpt lat="43.5016" lon="2.65334">
        <ele>829.653</ele>
        <time>2019-03-29T02:21:26Z</time>
      </trkpt>
      <trkpt lat="43.50227" lon="2.65293">
        <ele>827.767</ele>
        <time>2019-03-29T02:21:46Z</time>
      </trkpt>
      <trkpt lat="43.50192" lon="2.65286">
        <ele>826.079</ele>
        <time>2019-03-29T02:22:06Z</time>
      </trkpt>
      <trkpt lat="43.50092" lon="2.65302">
        <ele>821.205</ele>
        <time>2019-03-29T02:22:26Z</time>
      </trkpt>
      <trkpt lat="43.50059" lon="2.65353">
        <ele>822.825</ele>
        <time>2019-03-29T02:22:46Z</time>
      </trkpt>
      <trkpt lat="43.5002" lon="2.65325">
        <ele>820.108</ele>
        <time>2019-03-29T02:23:06Z</time>
      </trkpt>
      <trkpt lat="43.49964" lon="2.65316">
        <ele>819.213</ele>
        <time>2019-03-29T02:23:26Z</time>
      </trkpt>
      <trkpt lat="43.49892" lon="2.65226">
        <ele>811.358</ele>
        <time>2019-03-29T02:23:46Z</time>
      </trkpt>
      <trkpt lat="43.49815" lon="2.65226">
        <ele>811.379</ele>
        <time>2019-03-29T02:24:06Z</time>
      </trkpt>
      <trkpt lat="43.49752" lon="2.6515">
        <ele>809.074</ele>
        <time>2019-03-29T02:24:26Z</time>
      </trkpt>
      <trkpt lat="43.49838" lon="2.65125">
        <ele>806.293</ele>
        <time>2019-03-29T02:24:46Z</time>
      </trkpt>
      <trkpt lat="43.49893" lon="2.65081">
        <ele>802.076</ele>
        <time>2019-03-29T02:25:06Z</time>
      </trkpt>
      <trkpt lat="43.49929" lon="2.64971">
        <ele>802.853</ele>
        <time>2019-03-29T02:25:26Z</time>
      </trkpt>
      <trkpt lat="43.49937" lon="2.64796">
        <ele>797.847</ele>
        <time>2019-03-29T02:25:46Z</time>
      </trkpt>
      <trkpt lat="43.4993" lon="2.64686">
        <ele>790.963</ele>
        <time>2019-03-29T02:26:06Z</time>
      </trkpt>
      <trkpt lat="43.49955" lon="2.64555">
        <ele>788.444</ele>
        <time>2019-03-29T02:26:26Z</time>
      </trkpt>
      <trkpt lat="43.50007" lon="2.64474">
        <ele>790.118</ele>
        <time>2019-03-29T02:26:46Z</time>
      </trkpt>
      <trkpt lat="43.50102" lon="2.64389">
        <ele>792.408</ele>
        <time>2019-03-29T02:27:06Z</time>
      </trkpt>
      <trkpt lat="43.50095" lon="2.64359">
        <ele>793.682</ele>
        <time>2019-03-29T02:27:26Z</time>
      </trkpt>
      <trkpt lat="43.50037" lon="2.64323">
        <ele>791.257</ele>
        <time>2019-03-29T02:27:46Z</time>
      </trkpt>
      <trkpt lat="43.49942" lon="2.64316">
        <ele>780.988</ele>
        <time>2019-03-29T02:28:06Z</time>
      </trkpt>
      <trkpt lat="43.49813" lon="2.64325">
        <ele>767.653</ele>
        <time>2019-03-29T02:28:26Z</time>
      </trkpt>
      <trkpt lat="43.49647" lon="2.6429">
        <ele>752.282</ele>
        <time>2019-03-29T02:28:46Z</time>
      </trkpt>
      <trkpt lat="43.49583" lon="2.64254">
        <ele>757.055</ele>
        <time>2019-03-29T02:29:06Z</time>
      </trkpt>
      <trkpt lat="43.49493" lon="2.6426">
        <ele>743.842</ele>
        <time>2019-03-29T02:29:26Z</time>
      </trkpt>
      <trkpt lat="43.49441" lon="2.64242">
        <ele>741.656</ele>
        <time>2019-03-29T02:29:46Z</time>
      </trkpt>
      <trkpt lat="43.49173" lon="2.64247">
        <ele>718.733</ele>
        <time>2019-03-29T02:30:06Z</time>
      </trkpt>
      <trkpt lat="43.49001" lon="2.64168">
        <ele>694.923</ele>
        <time>2019-03-29T02:30:26Z</time>
      </trkpt>
      <trkpt lat="43.49053" lon="2.64217">
        <ele>694.615</ele>
        <time>2019-03-29T02:30:46Z</time>
      </trkpt>
      <trkpt lat="43.49129" lon="2.64339">
        <ele>677.108</ele>
        <time>2019-03-29T02:31:06Z</time>
      </trkpt>
      <trkpt lat="43.49189" lon="2.64346">
        <ele>681.539</ele>
        <time>2019-03-29T02:31:26Z</time>
      </trkpt>
      <trkpt lat="43.49235" lon="2.64375">
        <ele>680.664</ele>
        <time>2019-03-29T02:31:46Z</time>
      </trkpt>
      <trkpt lat="43.49143" lon="2.6444">
        <ele>670.165</ele>
        <time>2019-03-29T02:32:06Z</time>
      </trkpt>
      <trkpt lat="43.49098" lon="2.64426">
        <ele>666.55</ele>
        <time>2019-03-29T02:32:26Z</time>
      </trkpt>
      <trkpt lat="43.49038" lon="2.64433">
        <ele>666.519</ele>
        <time>2019-03-29T02:32:46Z</time>
      </trkpt>
      <trkpt lat="43.48978" lon="2.64465">
        <ele>665.672</ele>
        <time>2019-03-29T02:33:06Z</time>
      </trkpt>
      <trkpt lat="43.48939" lon="2.64513">
        <ele>665.439</ele>
        <time>2019-03-29T02:33:26Z</time>
      </trkpt>
      <trkpt lat="43.48854" lon="2.64564">
        <ele>661.323</ele>
        <time>2019-03-29T02:33:46Z</time>
      </trkpt>
      <trkpt lat="43.48809" lon="2.64562">
        <ele>663.327</ele>
        <time>2019-03-29T02:34:06Z</time>
      </trkpt>
      <trkpt lat="43.48744" lon="2.64511">
        <ele>666.168</ele>
        <time>2019-03-29T02:34:26Z</time>
      </trkpt>
      <trkpt lat="43.48707" lon="2.64523">
        <ele>665.314</ele>
        <time>2019-03-29T02:34:46Z</time>
      </trkpt>
      <trkpt lat="43.48642" lon="2.64647">
        <ele>652.308</ele>
        <time>2019-03-29T02:35:06Z</time>
      </trkpt>
      <trkpt lat="43.48624" lon="2.64739">
        <ele>648.898</ele>
        <time>2019-03-29T02:35:26Z</time>
      </trkpt>
      <trkpt lat="43.4861" lon="2.64762">
        <ele>643.753</ele>
        <time>2019-03-29T02:35:46Z</time>
      </trkpt>
      <trkpt lat="43.48604" lon="2.64768">
        <ele>642.284</ele>
        <time>2015-08-25T15:04:10Z</time>
      </trkpt>
      <trkpt lat="43.48587" lon="2.64783">
        <ele>638.269</ele>
        <time>2015-08-25T15:04:30Z</time>
      </trkpt>
      <trkpt lat="43.48562" lon="2.64772">
        <ele>637.668</ele>
        <time>2015-08-25T15:04:50Z</time>
      </trkpt>
      <trkpt lat="43.48541" lon="2.64771">
        <ele>637.261</ele>
        <time>2015-08-25T15:05:10Z</time>
      </trkpt>
      <trkpt lat="43.48505" lon="2.64807">
        <ele>626.498</ele>
        <time>2015-08-25T15:05:30Z</time>
      </trkpt>
      <trkpt lat="43.48467" lon="2.64831">
        <ele>619.472</ele>
        <time>2015-08-25T15:05:50Z</time>
      </trkpt>
      <trkpt lat="43.48431" lon="2.64838">
        <ele>611.888</ele>
        <time>2015-08-25T15:06:10Z</time>
      </trkpt>
      <trkpt lat="43.48382" lon="2.64818">
        <ele>602.624</ele>
        <time>2015-08-25T15:06:30Z</time>
      </trkpt>
      <trkpt lat="43.48336" lon="2.64787">
        <ele>592.326</ele>
        <time>2015-08-25T15:06:50Z</time>
      </trkpt>
      <trkpt lat="43.4831" lon="2.64781">
        <ele>581.508</ele>
        <time>2015-08-25T15:07:10Z</time>
      </trkpt>
      <trkpt lat="43.48319" lon="2.64815">
        <ele>578.964</ele>
        <time>2015-08-25T15:07:30Z</time>
      </trkpt>
      <trkpt lat="43.48266" lon="2.64774">
        <ele>567.739</ele>
        <time>2015-08-25T15:07:50Z</time>
      </trkpt>
      <trkpt lat="43.48242" lon="2.64748">
        <ele>565.83</ele>
        <time>2015-08-25T15:08:10Z</time>
      </trkpt>
      <trkpt lat="43.48212" lon="2.64737">
        <ele>558.325</ele>
        <time>2015-08-25T15:08:30Z</time>
      </trkpt>
      <trkpt lat="43.48175" lon="2.64699">
        <ele>551.934</ele>
        <time>2015-08-25T15:08:50Z</time>
      </trkpt>
      <trkpt lat="43.48143" lon="2.64676">
        <ele>544.897</ele>
        <time>2015-08-25T15:09:10Z</time>
      </trkpt>
      <trkpt lat="43.48091" lon="2.6466">
        <ele>533.664</ele>
        <time>2015-08-25T15:09:30Z</time>
      </trkpt>
      <trkpt lat="43.48066" lon="2.6463">
        <ele>526.768</ele>
        <time>2015-08-25T15:09:50Z</time>
      </trkpt>
      <trkpt lat="43.48042" lon="2.64647">
        <ele>523.816</ele>
        <time>2015-08-25T15:10:10Z</time>
      </trkpt>
      <trkpt lat="43.48016" lon="2.64614">
        <ele>521.076</ele>
        <time>2015-08-25T15:10:30Z</time>
      </trkpt>
      <trkpt lat="43.48014" lon="2.64596">
        <ele>519.313</ele>
        <time>2015-08-25T15:10:50Z</time>
      </trkpt>
      <trkpt lat="43.47957" lon="2.64502">
        <ele>508.108</ele>
        <time>2015-08-25T15:11:10Z</time>
      </trkpt>
      <trkpt lat="43.47873" lon="2.64379">
        <ele>484.547</ele>
        <time>2015-08-25T15:11:30Z</time>
      </trkpt>
      <trkpt lat="43.47867" lon="2.64357">
        <ele>477.472</ele>
        <time>2015-08-25T15:11:50Z</time>
      </trkpt>
      <trkpt lat="43.47793" lon="2.64257">
        <ele>467.313</ele>
        <time>2015-08-25T15:12:10Z</time>
      </trkpt>
      <trkpt lat="43.47768" lon="2.6424">
        <ele>460.258</ele>
        <time>2015-08-25T15:12:30Z</time>
      </trkpt>
      <trkpt lat="43.47752" lon="2.64246">
        <ele>457.547</ele>
        <time>2015-08-25T15:12:50Z</time>
      </trkpt>
      <trkpt lat="43.47705" lon="2.64305">
        <ele>446.56</ele>
        <time>2015-08-25T15:13:10Z</time>
      </trkpt>
      <trkpt lat="43.47707" lon="2.64245">
        <ele>437.247</ele>
        <time>2015-08-25T15:13:30Z</time>
      </trkpt>
      <trkpt lat="43.47733" lon="2.64136">
        <ele>421.891</ele>
        <time>2015-08-25T15:13:50Z</time>
      </trkpt>
      <trkpt lat="43.4775" lon="2.641">
        <ele>414.698</ele>
        <time>2015-08-25T15:14:10Z</time>
      </trkpt>
      <trkpt lat="43.47741" lon="2.64098">
        <ele>413.515</ele>
        <time>2015-08-25T15:14:30Z</time>
      </trkpt>
      <trkpt lat="43.47695" lon="2.6412">
        <ele>410.026</ele>
        <time>2015-08-25T15:14:50Z</time>
      </trkpt>
      <trkpt lat="43.47706" lon="2.64099">
        <ele>408.808</ele>
        <time>2015-08-25T15:15:10Z</time>
      </trkpt>
      <trkpt lat="43.47751" lon="2.64042">
        <ele>405.645</ele>
        <time>2015-08-25T15:15:30Z</time>
      </trkpt>
      <trkpt lat="43.4763" lon="2.64116">
        <ele>397.79</ele>
        <time>2015-08-25T15:15:50Z</time>
      </trkpt>
      <trkpt lat="43.47642" lon="2.6406">
        <ele>396.361</ele>
        <time>2015-08-25T15:16:10Z</time>
      </trkpt>
      <trkpt lat="43.47633" lon="2.63918">
        <ele>389.086</ele>
        <time>2019-03-29T02:48:26Z</time>
      </trkpt>
      <trkpt lat="43.47559" lon="2.63961">
        <ele>389.665</ele>
        <time>2019-03-29T02:48:46Z</time>
      </trkpt>
      <trkpt lat="43.47479" lon="2.63909">
        <ele>396.548</ele>
        <time>2019-03-29T02:49:06Z</time>
      </trkpt>
      <trkpt lat="43.47411" lon="2.63906">
        <ele>403.155</ele>
        <time>2019-03-29T02:49:26Z</time>
      </trkpt>
      <trkpt lat="43.47389" lon="2.63872">
        <ele>409.749</ele>
        <time>2019-03-29T02:49:46Z</time>
      </trkpt>
      <trkpt lat="43.47359" lon="2.63814">
        <ele>418.313</ele>
        <time>2019-03-29T02:50:06Z</time>
      </trkpt>
      <trkpt lat="43.47299" lon="2.63764">
        <ele>423.943</ele>
        <time>2019-03-29T02:50:26Z</time>
      </trkpt>
      <trkpt lat="43.47275" lon="2.6372">
        <ele>434.807</ele>
        <time>2019-03-29T02:50:46Z</time>
      </trkpt>
      <trkpt lat="43.47234" lon="2.63695">
        <ele>444.408</ele>
        <time>2019-03-29T02:51:06Z</time>
      </trkpt>
      <trkpt lat="43.47199" lon="2.63731">
        <ele>450.667</ele>
        <time>2019-03-29T02:51:26Z</time>
      </trkpt>
      <trkpt lat="43.47147" lon="2.63737">
        <ele>457.992</ele>
        <time>2020-03-08T22:57:28Z</time>
      </trkpt>
      <trkpt lat="43.47113" lon="2.63713">
        <ele>462.873</ele>
        <time>2020-03-08T22:57:48Z</time>
      </trkpt>
      <trkpt lat="43.46986" lon="2.63653">
        <ele>497.058</ele>
        <time>2020-03-08T22:58:08Z</time>
      </trkpt>
      <trkpt lat="43.46972" lon="2.6361">
        <ele>503.367</ele>
        <time>2019-03-29T02:52:26Z</time>
      </trkpt>
      <trkpt lat="43.46895" lon="2.63444">
        <ele>529.63</ele>
        <time>2019-03-29T02:52:46Z</time>
      </trkpt>
      <trkpt lat="43.46883" lon="2.6338">
        <ele>536.077</ele>
        <time>2019-03-29T02:53:06Z</time>
      </trkpt>
      <trkpt lat="43.46885" lon="2.63336">
        <ele>540.231</ele>
        <time>2020-03-08T22:59:28Z</time>
      </trkpt>
      <trkpt lat="43.4688" lon="2.6327">
        <ele>545.689</ele>
        <time>2020-03-08T22:59:48Z</time>
      </trkpt>
      <trkpt lat="43.46857" lon="2.63235">
        <ele>552.506</ele>
        <time>2019-03-29T02:53:46Z</time>
      </trkpt>
      <trkpt lat="43.46842" lon="2.63186">
        <ele>557.326</ele>
        <time>2019-03-29T02:54:06Z</time>
      </trkpt>
      <trkpt lat="43.468" lon="2.63147">
        <ele>560.008</ele>
        <time>2019-03-29T02:54:26Z</time>
      </trkpt>
      <trkpt lat="43.4675" lon="2.63124">
        <ele>560.594</ele>
        <time>2019-03-29T02:54:46Z</time>
      </trkpt>
      <trkpt lat="43.46731" lon="2.63067">
        <ele>564.989</ele>
        <time>2019-03-29T02:55:06Z</time>
      </trkpt>
      <trkpt lat="43.46713" lon="2.63042">
        <ele>568.85</ele>
        <time>2019-03-29T02:55:26Z</time>
      </trkpt>
      <trkpt lat="43.46701" lon="2.62982">
        <ele>570.635</ele>
        <time>2019-03-29T02:55:46Z</time>
      </trkpt>
      <trkpt lat="43.4667" lon="2.62956">
        <ele>577.844</ele>
        <time>2019-03-29T02:56:06Z</time>
      </trkpt>
      <trkpt lat="43.46656" lon="2.62915">
        <ele>575.557</ele>
        <time>2019-03-29T02:56:26Z</time>
      </trkpt>
      <trkpt lat="43.46688" lon="2.62887">
        <ele>570.784</ele>
        <time>2020-03-08T23:03:08Z</time>
      </trkpt>
      <trkpt lat="43.46713" lon="2.62856">
        <ele>574.088</ele>
        <time>2020-03-08T23:03:28Z</time>
      </trkpt>
      <trkpt lat="43.46763" lon="2.62823">
        <ele>572.596</ele>
        <time>2019-03-29T02:56:46Z</time>
      </trkpt>
      <trkpt lat="43.46773" lon="2.62789">
        <ele>577.131</ele>
        <time>2019-03-29T02:57:06Z</time>
      </trkpt>
      <trkpt lat="43.46775" lon="2.62752">
        <ele>583.124</ele>
        <time>2019-03-29T02:57:26Z</time>
      </trkpt>
      <trkpt lat="43.46798" lon="2.62708">
        <ele>581.608</ele>
        <time>2019-03-29T02:57:46Z</time>
      </trkpt>
      <trkpt lat="43.46805" lon="2.62561">
        <ele>592.365</ele>
        <time>2019-03-29T02:58:06Z</time>
      </trkpt>
      <trkpt lat="43.46746" lon="2.62715">
        <ele>601.55</ele>
        <time>2019-03-29T02:58:26Z</time>
      </trkpt>
      <trkpt lat="43.46739" lon="2.62702">
        <ele>606.121</ele>
        <time>2020-03-08T23:05:48Z</time>
      </trkpt>
      <trkpt lat="43.46751" lon="2.62646">
        <ele>607.916</ele>
        <time>2020-03-08T23:06:08Z</time>
      </trkpt>
      <trkpt lat="43.46753" lon="2.62568">
        <ele>611.445</ele>
        <time>2020-03-08T23:06:28Z</time>
      </trkpt>
      <trkpt lat="43.46736" lon="2.62515">
        <ele>617.648</ele>
        <time>2020-03-08T23:06:48Z</time>
      </trkpt>
      <trkpt lat="43.46702" lon="2.62463">
        <ele>625.065</ele>
        <time>2020-03-08T23:07:08Z</time>
      </trkpt>
      <trkpt lat="43.46598" lon="2.62407">
        <ele>640.589</ele>
        <time>2019-03-29T03:00:06Z</time>
      </trkpt>
      <trkpt lat="43.46581" lon="2.6228">
        <ele>637.985</ele>
        <time>2019-03-29T03:00:26Z</time>
      </trkpt>
      <trkpt lat="43.46549" lon="2.62462">
        <ele>663.489</ele>
        <time>2019-03-29T03:00:46Z</time>
      </trkpt>
      <trkpt lat="43.466" lon="2.62515">
        <ele>660.217</ele>
        <time>2019-03-29T03:01:06Z</time>
      </trkpt>
      <trkpt lat="43.46613" lon="2.62579">
        <ele>658.708</ele>
        <time>2019-03-29T03:01:26Z</time>
      </trkpt>
      <trkpt lat="43.46581" lon="2.62609">
        <ele>663.734</ele>
        <time>2019-03-29T03:01:46Z</time>
      </trkpt>
      <trkpt lat="43.46566" lon="2.62603">
        <ele>668.029</ele>
        <time>2020-03-08T23:09:28Z</time>
      </trkpt>
      <trkpt lat="43.46519" lon="2.6254">
        <ele>680.18</ele>
        <time>2019-03-29T03:02:06Z</time>
      </trkpt>
      <trkpt lat="43.46483" lon="2.62457">
        <ele>688.215</ele>
        <time>2019-03-29T03:02:26Z</time>
      </trkpt>
      <trkpt lat="43.46472" lon="2.62401">
        <ele>692.054</ele>
        <time>2020-03-08T23:10:28Z</time>
      </trkpt>
      <trkpt lat="43.46458" lon="2.62365">
        <ele>697.187</ele>
        <time>2019-03-29T03:02:46Z</time>
      </trkpt>
      <trkpt lat="43.46431" lon="2.62335">
        <ele>705.124</ele>
        <time>2019-03-29T03:03:06Z</time>
      </trkpt>
      <trkpt lat="43.46424" lon="2.62379">
        <ele>711.448</ele>
        <time>2019-03-29T03:03:26Z</time>
      </trkpt>
      <trkpt lat="43.46362" lon="2.62352">
        <ele>726.359</ele>
        <time>2019-03-29T03:03:46Z</time>
      </trkpt>
      <trkpt lat="43.4628" lon="2.62374">
        <ele>743.503</ele>
        <time>2020-03-08T23:12:08Z</time>
      </trkpt>
      <trkpt lat="43.46264" lon="2.624">
        <ele>746.923</ele>
        <time>2019-03-29T03:04:26Z</time>
      </trkpt>
      <trkpt lat="43.46219" lon="2.62407">
        <ele>751.608</ele>
        <time>2019-03-29T03:04:46Z</time>
      </trkpt>
      <trkpt lat="43.46079" lon="2.62349">
        <ele>764.171</ele>
        <time>2019-03-29T03:05:06Z</time>
      </trkpt>
      <trkpt lat="43.46069" lon="2.62216">
        <ele>756.716</ele>
        <time>2019-03-29T03:05:26Z</time>
      </trkpt>
      <trkpt lat="43.46042" lon="2.62099">
        <ele>774.777</ele>
        <time>2019-03-29T03:05:46Z</time>
      </trkpt>
      <trkpt lat="43.4605" lon="2.6206">
        <ele>777.642</ele>
        <time>2019-03-29T03:06:06Z</time>
      </trkpt>
      <trkpt lat="43.46025" lon="2.61772">
        <ele>793.341</ele>
        <time>2019-03-29T03:06:26Z</time>
      </trkpt>
      <trkpt lat="43.45952" lon="2.61521">
        <ele>818.644</ele>
        <time>2019-03-29T03:06:46Z</time>
      </trkpt>
      <trkpt lat="43.45908" lon="2.61443">
        <ele>825.311</ele>
        <time>2019-03-29T03:07:06Z</time>
      </trkpt>
      <trkpt lat="43.45875" lon="2.61425">
        <ele>825.265</ele>
        <time>2019-03-29T03:07:26Z</time>
      </trkpt>
      <trkpt lat="43.45846" lon="2.61425">
        <ele>826.562</ele>
        <time>2020-03-08T23:15:48Z</time>
      </trkpt>
      <trkpt lat="43.45831" lon="2.61324">
        <ele>816.783</ele>
        <time>2020-03-08T23:16:08Z</time>
      </trkpt>
      <trkpt lat="43.45792" lon="2.61153">
        <ele>813.611</ele>
        <time>2019-03-29T03:08:06Z</time>
      </trkpt>
      <trkpt lat="43.45725" lon="2.61142">
        <ele>817.808</ele>
        <time>2019-03-29T03:08:26Z</time>
      </trkpt>
      <trkpt lat="43.4568" lon="2.61172">
        <ele>822.262</ele>
        <time>2019-03-29T03:08:46Z</time>
      </trkpt>
      <trkpt lat="43.45666" lon="2.6114">
        <ele>819.137</ele>
        <time>2019-03-29T03:09:06Z</time>
      </trkpt>
      <trkpt lat="43.45686" lon="2.61036">
        <ele>825.948</ele>
        <time>2019-03-29T03:09:26Z</time>
      </trkpt>
      <trkpt lat="43.45747" lon="2.60917">
        <ele>822.483</ele>
        <time>2019-03-29T03:09:46Z</time>
      </trkpt>
      <trkpt lat="43.45698" lon="2.60542">
        <ele>802.992</ele>
        <time>2019-03-29T03:10:06Z</time>
      </trkpt>
      <trkpt lat="43.45673" lon="2.60486">
        <ele>797.455</ele>
        <time>2019-03-29T03:10:26Z</time>
      </trkpt>
      <trkpt lat="43.45665" lon="2.6042">
        <ele>787.412</ele>
        <time>2019-03-29T03:10:46Z</time>
      </trkpt>
      <trkpt lat="43.45646" lon="2.60365">
        <ele>776.886</ele>
        <time>2019-03-29T03:11:06Z</time>
      </trkpt>
      <trkpt lat="43.45695" lon="2.60247">
        <ele>764.817</ele>
        <time>2019-03-29T03:11:26Z</time>
      </trkpt>
      <trkpt lat="43.45611" lon="2.60289">
        <ele>761.087</ele>
        <time>2019-03-29T03:11:46Z</time>
      </trkpt>
      <trkpt lat="43.45561" lon="2.6033">
        <ele>763.015</ele>
        <time>2019-03-29T03:12:06Z</time>
      </trkpt>
      <trkpt lat="43.45531" lon="2.60296">
        <ele>765.108</ele>
        <time>2019-03-29T03:12:26Z</time>
      </trkpt>
      <trkpt lat="43.45486" lon="2.60296">
        <ele>766.467</ele>
        <time>2019-03-29T03:12:46Z</time>
      </trkpt>
      <trkpt lat="43.45444" lon="2.60353">
        <ele>769.852</ele>
        <time>2019-03-29T03:13:06Z</time>
      </trkpt>
      <trkpt lat="43.45398" lon="2.60371">
        <ele>769.413</ele>
        <time>2019-03-29T03:13:26Z</time>
      </trkpt>
      <trkpt lat="43.45346" lon="2.60427">
        <ele>770.218</ele>
        <time>2019-03-29T03:13:46Z</time>
      </trkpt>
      <trkpt lat="43.45346" lon="2.605">
        <ele>775.217</ele>
        <time>2019-03-29T03:14:06Z</time>
      </trkpt>
      <trkpt lat="43.45274" lon="2.60537">
        <ele>777.09</ele>
        <time>2019-03-29T03:14:26Z</time>
      </trkpt>
      <trkpt lat="43.45271" lon="2.60445">
        <ele>777.747</ele>
        <time>2019-03-29T03:14:46Z</time>
      </trkpt>
      <trkpt lat="43.45242" lon="2.60415">
        <ele>780.371</ele>
        <time>2019-03-29T03:15:06Z</time>
      </trkpt>
      <trkpt lat="43.45192" lon="2.60406">
        <ele>782.215</ele>
        <time>2019-03-29T03:15:26Z</time>
      </trkpt>
      <trkpt lat="43.4513" lon="2.60417">
        <ele>782.865</ele>
        <time>2019-03-29T03:15:46Z</time>
      </trkpt>
      <trkpt lat="43.45054" lon="2.60401">
        <ele>784.211</ele>
        <time>2019-03-29T03:16:06Z</time>
      </trkpt>
      <trkpt lat="43.44985" lon="2.6042">
        <ele>778.808</ele>
        <time>2019-03-29T03:16:26Z</time>
      </trkpt>
      <trkpt lat="43.44932" lon="2.60498">
        <ele>779.187</ele>
        <time>2019-03-29T03:16:46Z</time>
      </trkpt>
      <trkpt lat="43.44917" lon="2.60544">
        <ele>778.812</ele>
        <time>2019-03-29T03:17:06Z</time>
      </trkpt>
      <trkpt lat="43.44913" lon="2.60597">
        <ele>779.383</ele>
        <time>2019-03-29T03:17:26Z</time>
      </trkpt>
      <trkpt lat="43.44873" lon="2.60606">
        <ele>773.648</ele>
        <time>2019-03-29T03:17:46Z</time>
      </trkpt>
      <trkpt lat="43.4483" lon="2.60641">
        <ele>772.067</ele>
        <time>2019-03-29T03:18:06Z</time>
      </trkpt>
      <trkpt lat="43.44803" lon="2.60689">
        <ele>775.18</ele>
        <time>2019-03-29T03:18:26Z</time>
      </trkpt>
      <trkpt lat="43.44688" lon="2.60795">
        <ele>759.987</ele>
        <time>2019-03-29T03:18:46Z</time>
      </trkpt>
      <trkpt lat="43.4464" lon="2.60871">
        <ele>758.361</ele>
        <time>2019-03-29T03:19:06Z</time>
      </trkpt>
      <trkpt lat="43.4459" lon="2.60917">
        <ele>747.611</ele>
        <time>2019-03-29T03:19:26Z</time>
      </trkpt>
      <trkpt lat="43.4459" lon="2.60974">
        <ele>746.321</ele>
        <time>2019-03-29T03:19:46Z</time>
      </trkpt>
      <trkpt lat="43.44616" lon="2.61082">
        <ele>748.303</ele>
        <time>2019-03-29T03:20:06Z</time>
      </trkpt>
      <trkpt lat="43.44615" lon="2.61183">
        <ele>749.708</ele>
        <time>2019-03-29T03:20:26Z</time>
      </trkpt>
      <trkpt lat="43.44593" lon="2.61262">
        <ele>754.357</ele>
        <time>2019-03-29T03:20:46Z</time>
      </trkpt>
      <trkpt lat="43.44519" lon="2.61167">
        <ele>758.952</ele>
        <time>2019-03-29T03:21:06Z</time>
      </trkpt>
      <trkpt lat="43.44421" lon="2.6114">
        <ele>767.183</ele>
        <time>2019-03-29T03:21:26Z</time>
      </trkpt>
      <trkpt lat="43.44346" lon="2.61165">
        <ele>772.068</ele>
        <time>2019-03-29T03:21:46Z</time>
      </trkpt>
      <trkpt lat="43.44287" lon="2.61248">
        <ele>779.217</ele>
        <time>2019-03-29T03:22:06Z</time>
      </trkpt>
      <trkpt lat="43.44296" lon="2.61291">
        <ele>783.42</ele>
        <time>2019-03-29T03:22:26Z</time>
      </trkpt>
      <trkpt lat="43.44212" lon="2.61326">
        <ele>788.767</ele>
        <time>2019-03-29T03:22:46Z</time>
      </trkpt>
      <trkpt lat="43.44162" lon="2.61321">
        <ele>789.931</ele>
        <time>2019-03-29T03:23:06Z</time>
      </trkpt>
      <trkpt lat="43.44132" lon="2.61285">
        <ele>788.566</ele>
        <time>2019-03-29T03:23:26Z</time>
      </trkpt>
      <trkpt lat="43.44074" lon="2.6128">
        <ele>790.229</ele>
        <time>2019-03-29T03:23:46Z</time>
      </trkpt>
      <trkpt lat="43.44062" lon="2.61259">
        <ele>789.321</ele>
        <time>2019-03-29T03:24:06Z</time>
      </trkpt>
      <trkpt lat="43.43952" lon="2.61294">
        <ele>782.608</ele>
        <time>2019-03-29T03:24:26Z</time>
      </trkpt>
      <trkpt lat="43.43863" lon="2.61413">
        <ele>778.172</ele>
        <time>2019-03-29T03:24:46Z</time>
      </trkpt>
      <trkpt lat="43.43766" lon="2.61531">
        <ele>773.687</ele>
        <time>2019-03-29T03:25:06Z</time>
      </trkpt>
      <trkpt lat="43.43761" lon="2.61586">
        <ele>771.188</ele>
        <time>2019-03-29T03:25:26Z</time>
      </trkpt>
      <trkpt lat="43.43726" lon="2.6154">
        <ele>763.363</ele>
        <time>2019-03-29T03:25:46Z</time>
      </trkpt>
      <trkpt lat="43.4372" lon="2.61538">
        <ele>762.182</ele>
        <time>2015-08-25T15:57:10Z</time>
      </trkpt>
      <trkpt lat="43.43721" lon="2.61495">
        <ele>760.885</ele>
        <time>2015-08-25T15:57:30Z</time>
      </trkpt>
      <trkpt lat="43.43734" lon="2.61465">
        <ele>761.462</ele>
        <time>2015-08-25T15:57:50Z</time>
      </trkpt>
      <trkpt lat="43.43751" lon="2.61447">
        <ele>761.516</ele>
        <time>2015-08-25T15:58:10Z</time>
      </trkpt>
      <trkpt lat="43.43773" lon="2.6139">
        <ele>760.085</ele>
        <time>2015-08-25T15:58:30Z</time>
      </trkpt>
      <trkpt lat="43.43779" lon="2.61355">
        <ele>759.089</ele>
        <time>2015-08-25T15:58:50Z</time>
      </trkpt>
      <trkpt lat="43.43797" lon="2.6131">
        <ele>756.217</ele>
        <time>2015-08-25T15:59:10Z</time>
      </trkpt>
      <trkpt lat="43.438" lon="2.61251">
        <ele>757.708</ele>
        <time>2015-08-25T15:59:30Z</time>
      </trkpt>
      <trkpt lat="43.43798" lon="2.61223">
        <ele>759.444</ele>
        <time>2015-08-25T15:59:50Z</time>
      </trkpt>
      <trkpt lat="43.438" lon="2.61177">
        <ele>761.259</ele>
        <time>2015-08-25T16:00:10Z</time>
      </trkpt>
      <trkpt lat="43.43794" lon="2.61126">
        <ele>765.55</ele>
        <time>2015-08-25T16:00:30Z</time>
      </trkpt>
      <trkpt lat="43.43788" lon="2.60956">
        <ele>776.855</ele>
        <time>2015-08-25T16:00:50Z</time>
      </trkpt>
      <trkpt lat="43.43782" lon="2.60921">
        <ele>779.944</ele>
        <time>2015-08-25T16:01:10Z</time>
      </trkpt>
      <trkpt lat="43.4377" lon="2.60894">
        <ele>783.637</ele>
        <time>2015-08-25T16:01:30Z</time>
      </trkpt>
      <trkpt lat="43.4374" lon="2.60866">
        <ele>787.644</ele>
        <time>2015-08-25T16:01:50Z</time>
      </trkpt>
      <trkpt lat="43.43726" lon="2.60845">
        <ele>786.788</ele>
        <time>2015-08-25T16:02:10Z</time>
      </trkpt>
      <trkpt lat="43.43707" lon="2.60832">
        <ele>784.777</ele>
        <time>2015-08-25T16:02:30Z</time>
      </trkpt>
      <trkpt lat="43.43659" lon="2.6083">
        <ele>780.261</ele>
        <time>2015-08-25T16:02:50Z</time>
      </trkpt>
      <trkpt lat="43.43616" lon="2.60811">
        <ele>777.227</ele>
        <time>2015-08-25T16:03:10Z</time>
      </trkpt>
      <trkpt lat="43.43668" lon="2.60759">
        <ele>773.908</ele>
        <time>2015-08-25T16:03:30Z</time>
      </trkpt>
      <trkpt lat="43.43666" lon="2.60731">
        <ele>777.163</ele>
        <time>2015-08-25T16:03:50Z</time>
      </trkpt>
      <trkpt lat="43.43566" lon="2.60676">
        <ele>782.458</ele>
        <time>2015-08-25T16:04:10Z</time>
      </trkpt>
      <trkpt lat="43.43505" lon="2.60676">
        <ele>783.939</ele>
        <time>2015-08-25T16:04:30Z</time>
      </trkpt>
      <trkpt lat="43.43471" lon="2.60686">
        <ele>784.254</ele>
        <time>2015-08-25T16:04:50Z</time>
      </trkpt>
      <trkpt lat="43.43472" lon="2.60666">
        <ele>786.063</ele>
        <time>2015-08-25T16:05:10Z</time>
      </trkpt>
      <trkpt lat="43.43516" lon="2.60645">
        <ele>787.736</ele>
        <time>2015-08-25T16:05:30Z</time>
      </trkpt>
      <trkpt lat="43.4357" lon="2.60512">
        <ele>805.523</ele>
        <time>2015-08-25T16:05:50Z</time>
      </trkpt>
      <trkpt lat="43.43591" lon="2.60379">
        <ele>822.127</ele>
        <time>2015-08-25T16:06:10Z</time>
      </trkpt>
      <trkpt lat="43.43633" lon="2.60332">
        <ele>829.463</ele>
        <time>2015-08-25T16:06:30Z</time>
      </trkpt>
      <trkpt lat="43.43663" lon="2.60278">
        <ele>831.944</ele>
        <time>2015-08-25T16:06:50Z</time>
      </trkpt>
      <trkpt lat="43.43691" lon="2.60231">
        <ele>833.618</ele>
        <time>2015-08-25T16:07:10Z</time>
      </trkpt>
      <trkpt lat="43.43689" lon="2.60199">
        <ele>834.308</ele>
        <time>2015-08-25T16:07:30Z</time>
      </trkpt>
      <trkpt lat="43.43699" lon="2.60149">
        <ele>836.552</ele>
        <time>2015-08-25T16:07:50Z</time>
      </trkpt>
      <trkpt lat="43.43739" lon="2.601">
        <ele>837.467</ele>
        <time>2015-08-25T16:08:10Z</time>
      </trkpt>
      <trkpt lat="43.43759" lon="2.60095">
        <ele>837.388</ele>
        <time>2015-08-25T16:08:30Z</time>
      </trkpt>
      <trkpt lat="43.43779" lon="2.60018">
        <ele>844.263</ele>
        <time>2015-08-25T16:08:50Z</time>
      </trkpt>
      <trkpt lat="43.43797" lon="2.60005">
        <ele>847.082</ele>
        <time>2015-08-25T16:09:10Z</time>
      </trkpt>
      <trkpt lat="43.43796" lon="2.59989">
        <ele>849.815</ele>
        <time>2015-08-25T16:09:30Z</time>
      </trkpt>
      <trkpt lat="43.43773" lon="2.59993">
        <ele>848.542</ele>
        <time>2015-08-25T16:09:50Z</time>
      </trkpt>
      <trkpt lat="43.43762" lon="2.59953">
        <ele>851.886</ele>
        <time>2015-08-25T16:10:10Z</time>
      </trkpt>
      <trkpt lat="43.4376" lon="2.59853">
        <ele>855.698</ele>
        <time>2015-08-25T16:10:30Z</time>
      </trkpt>
      <trkpt lat="43.43773" lon="2.59787">
        <ele>852.915</ele>
        <time>2015-08-25T16:10:50Z</time>
      </trkpt>
      <trkpt lat="43.43794" lon="2.59735">
        <ele>852.026</ele>
        <time>2015-08-25T16:11:10Z</time>
      </trkpt>
      <trkpt lat="43.43864" lon="2.59627">
        <ele>847.808</ele>
        <time>2015-08-25T16:11:30Z</time>
      </trkpt>
      <trkpt lat="43.43852" lon="2.59578">
        <ele>848.785</ele>
        <time>2015-08-25T16:11:50Z</time>
      </trkpt>
      <trkpt lat="43.43856" lon="2.59528">
        <ele>852.09</ele>
        <time>2015-08-25T16:12:10Z</time>
      </trkpt>
      <trkpt lat="43.43841" lon="2.59484">
        <ele>853.341</ele>
        <time>2019-03-29T03:41:26Z</time>
      </trkpt>
      <trkpt lat="43.43793" lon="2.59495">
        <ele>849.726</ele>
        <time>2019-03-29T03:41:46Z</time>
      </trkpt>
      <trkpt lat="43.43726" lon="2.5944">
        <ele>855.855</ele>
        <time>2019-03-29T03:42:06Z</time>
      </trkpt>
      <trkpt lat="43.43656" lon="2.5941">
        <ele>857.168</ele>
        <time>2019-03-29T03:42:26Z</time>
      </trkpt>
      <trkpt lat="43.43591" lon="2.5938">
        <ele>863.995</ele>
        <time>2019-03-29T03:42:46Z</time>
      </trkpt>
      <trkpt lat="43.43526" lon="2.59369">
        <ele>865.939</ele>
        <time>2019-03-29T03:43:06Z</time>
      </trkpt>
      <trkpt lat="43.43444" lon="2.59307">
        <ele>867.819</ele>
        <time>2019-03-29T03:43:26Z</time>
      </trkpt>
      <trkpt lat="43.43416" lon="2.59162">
        <ele>867.209</ele>
        <time>2019-03-29T03:43:46Z</time>
      </trkpt>
      <trkpt lat="43.43342" lon="2.59047">
        <ele>860.319</ele>
        <time>2019-03-29T03:44:06Z</time>
      </trkpt>
      <trkpt lat="43.43265" lon="2.59017">
        <ele>856.108</ele>
        <time>2019-03-29T03:44:26Z</time>
      </trkpt>
      <trkpt lat="43.43199" lon="2.59015">
        <ele>853.247</ele>
        <time>2019-03-29T03:44:46Z</time>
      </trkpt>
      <trkpt lat="43.43167" lon="2.5898">
        <ele>850.332</ele>
        <time>2019-03-29T03:45:06Z</time>
      </trkpt>
      <trkpt lat="43.43143" lon="2.58897">
        <ele>847.773</ele>
        <time>2019-03-29T03:45:26Z</time>
      </trkpt>
      <trkpt lat="43.43078" lon="2.58833">
        <ele>845.588</ele>
        <time>2019-03-29T03:45:46Z</time>
      </trkpt>
      <trkpt lat="43.43062" lon="2.58743">
        <ele>840.897</ele>
        <time>2019-03-29T03:46:06Z</time>
      </trkpt>
      <trkpt lat="43.43073" lon="2.58683">
        <ele>843.02</ele>
        <time>2019-03-29T03:46:26Z</time>
      </trkpt>
      <trkpt lat="43.4303" lon="2.5866">
        <ele>842.977</ele>
        <time>2019-03-29T03:46:46Z</time>
      </trkpt>
      <trkpt lat="43.4303" lon="2.58589">
        <ele>852.521</ele>
        <time>2019-03-29T03:47:06Z</time>
      </trkpt>
      <trkpt lat="43.43082" lon="2.58557">
        <ele>862.552</ele>
        <time>2019-03-29T03:47:26Z</time>
      </trkpt>
      <trkpt lat="43.43053" lon="2.58493">
        <ele>867.153</ele>
        <time>2019-03-29T03:47:46Z</time>
      </trkpt>
      <trkpt lat="43.42998" lon="2.58433">
        <ele>866.408</ele>
        <time>2019-03-29T03:48:06Z</time>
      </trkpt>
      <trkpt lat="43.43" lon="2.58396">
        <ele>870.408</ele>
        <time>2019-03-29T03:48:26Z</time>
      </trkpt>
      <trkpt lat="43.42963" lon="2.58256">
        <ele>871.741</ele>
        <time>2019-03-29T03:48:46Z</time>
      </trkpt>
      <trkpt lat="43.42883" lon="2.58256">
        <ele>872.276</ele>
        <time>2019-03-29T03:49:06Z</time>
      </trkpt>
      <trkpt lat="43.42836" lon="2.58223">
        <ele>873.147</ele>
        <time>2019-03-29T03:49:26Z</time>
      </trkpt>
      <trkpt lat="43.42729" lon="2.58058">
        <ele>871.812</ele>
        <time>2019-03-29T03:49:46Z</time>
      </trkpt>
      <trkpt lat="43.42704" lon="2.57991">
        <ele>869.441</ele>
        <time>2019-03-29T03:50:06Z</time>
      </trkpt>
      <trkpt lat="43.42667" lon="2.57876">
        <ele>866.484</ele>
        <time>2019-03-29T03:50:26Z</time>
      </trkpt>
      <trkpt lat="43.42624" lon="2.57833">
        <ele>866.421</ele>
        <time>2019-03-29T03:50:46Z</time>
      </trkpt>
      <trkpt lat="43.42591" lon="2.57777">
        <ele>861.525</ele>
        <time>2019-03-29T03:51:06Z</time>
      </trkpt>
      <trkpt lat="43.42621" lon="2.57773">
        <ele>867.231</ele>
        <time>2019-03-29T03:51:26Z</time>
      </trkpt>
      <trkpt lat="43.42666" lon="2.57724">
        <ele>870.961</ele>
        <time>2019-03-29T03:51:46Z</time>
      </trkpt>
      <trkpt lat="43.42632" lon="2.57662">
        <ele>878.207</ele>
        <time>2019-03-29T03:52:06Z</time>
      </trkpt>
      <trkpt lat="43.42639" lon="2.57598">
        <ele>887.008</ele>
        <time>2019-03-29T03:52:26Z</time>
      </trkpt>
      <trkpt lat="43.42746" lon="2.57391">
        <ele>907.329</ele>
        <time>2019-03-29T03:52:46Z</time>
      </trkpt>
      <trkpt lat="43.42818" lon="2.57331">
        <ele>918.524</ele>
        <time>2019-03-29T03:53:06Z</time>
      </trkpt>
      <trkpt lat="43.42871" lon="2.57255">
        <ele>928.615</ele>
        <time>2019-03-29T03:53:26Z</time>
      </trkpt>
      <trkpt lat="43.42928" lon="2.57147">
        <ele>938.75</ele>
        <time>2019-03-29T03:53:46Z</time>
      </trkpt>
      <trkpt lat="43.42995" lon="2.57106">
        <ele>947.189</ele>
        <time>2019-03-29T03:54:06Z</time>
      </trkpt>
      <trkpt lat="43.43112" lon="2.57108">
        <ele>949.722</ele>
        <time>2019-03-29T03:54:26Z</time>
      </trkpt>
      <trkpt lat="43.43058" lon="2.57062">
        <ele>950.479</ele>
        <time>2019-03-29T03:54:46Z</time>
      </trkpt>
      <trkpt lat="43.43053" lon="2.57053">
        <ele>949.553</ele>
        <time>2015-08-25T16:26:50Z</time>
      </trkpt>
      <trkpt lat="43.4294" lon="2.56998">
        <ele>941.219</ele>
        <time>2015-08-25T16:27:10Z</time>
      </trkpt>
      <trkpt lat="43.42817" lon="2.56976">
        <ele>945.509</ele>
        <time>2015-08-25T16:27:30Z</time>
      </trkpt>
      <trkpt lat="43.42763" lon="2.56986">
        <ele>945.819</ele>
        <time>2015-08-25T16:27:50Z</time>
      </trkpt>
      <trkpt lat="43.42652" lon="2.5698">
        <ele>947.408</ele>
        <time>2015-08-25T16:28:10Z</time>
      </trkpt>
      <trkpt lat="43.42619" lon="2.56971">
        <ele>945.227</ele>
        <time>2015-08-25T16:28:30Z</time>
      </trkpt>
      <trkpt lat="43.42512" lon="2.56817">
        <ele>942.632</ele>
        <time>2015-08-25T16:28:50Z</time>
      </trkpt>
      <trkpt lat="43.42452" lon="2.56784">
        <ele>934.223</ele>
        <time>2015-08-25T16:29:10Z</time>
      </trkpt>
      <trkpt lat="43.42396" lon="2.56729">
        <ele>932.188</ele>
        <time>2015-08-25T16:29:30Z</time>
      </trkpt>
      <trkpt lat="43.42253" lon="2.56745">
        <ele>920.377</ele>
        <time>2019-03-29T03:58:06Z</time>
      </trkpt>
      <trkpt lat="43.42248" lon="2.56715">
        <ele>921.02</ele>
        <time>2019-03-29T03:58:26Z</time>
      </trkpt>
      <trkpt lat="43.42274" lon="2.56589">
        <ele>917.767</ele>
        <time>2015-08-25T16:30:50Z</time>
      </trkpt>
      <trkpt lat="43.42265" lon="2.56492">
        <ele>913.811</ele>
        <time>2015-08-25T16:31:10Z</time>
      </trkpt>
      <trkpt lat="43.42236" lon="2.56426">
        <ele>910.618</ele>
        <time>2015-08-25T16:31:30Z</time>
      </trkpt>
      <trkpt lat="43.42136" lon="2.56266">
        <ele>910.098</ele>
        <time>2015-08-25T16:31:50Z</time>
      </trkpt>
      <trkpt lat="43.42036" lon="2.56089">
        <ele>907.017</ele>
        <time>2015-08-25T16:32:10Z</time>
      </trkpt>
      <trkpt lat="43.42033" lon="2.56058">
        <ele>905.508</ele>
        <time>2015-08-25T16:32:30Z</time>
      </trkpt>
      <trkpt lat="43.42092" lon="2.55974">
        <ele>905.927</ele>
        <time>2015-08-25T16:32:50Z</time>
      </trkpt>
      <trkpt lat="43.4215" lon="2.55872">
        <ele>911.292</ele>
        <time>2015-08-25T16:33:10Z</time>
      </trkpt>
      <trkpt lat="43.4228" lon="2.55672">
        <ele>927.963</ele>
        <time>2015-08-25T16:33:30Z</time>
      </trkpt>
      <trkpt lat="43.42337" lon="2.55582">
        <ele>930.068</ele>
        <time>2015-08-25T16:33:50Z</time>
      </trkpt>
      <trkpt lat="43.42412" lon="2.55431">
        <ele>929.997</ele>
        <time>2015-08-25T16:34:10Z</time>
      </trkpt>
      <trkpt lat="43.42453" lon="2.55271">
        <ele>928.28</ele>
        <time>2015-08-25T16:34:30Z</time>
      </trkpt>
      <trkpt lat="43.42492" lon="2.55191">
        <ele>931.447</ele>
        <time>2015-08-25T16:34:50Z</time>
      </trkpt>
      <trkpt lat="43.4253" lon="2.55148">
        <ele>929.271</ele>
        <time>2015-08-25T16:35:10Z</time>
      </trkpt>
      <trkpt lat="43.42569" lon="2.55005">
        <ele>927.986</ele>
        <time>2015-08-25T16:35:30Z</time>
      </trkpt>
      <trkpt lat="43.42564" lon="2.54892">
        <ele>924.96</ele>
        <time>2015-08-25T16:35:50Z</time>
      </trkpt>
      <trkpt lat="43.4254" lon="2.54809">
        <ele>922.726</ele>
        <time>2015-08-25T16:36:10Z</time>
      </trkpt>
      <trkpt lat="43.42468" lon="2.54751">
        <ele>924.208</ele>
        <time>2015-08-25T16:36:30Z</time>
      </trkpt>
      <trkpt lat="43.42435" lon="2.546">
        <ele>925.274</ele>
        <time>2015-08-25T16:36:50Z</time>
      </trkpt>
      <trkpt lat="43.42408" lon="2.54514">
        <ele>926.249</ele>
        <time>2015-08-25T16:37:10Z</time>
      </trkpt>
      <trkpt lat="43.42419" lon="2.54381">
        <ele>929.04</ele>
        <time>2015-08-25T16:37:30Z</time>
      </trkpt>
      <trkpt lat="43.42447" lon="2.54258">
        <ele>932.415</ele>
        <time>2015-08-25T16:37:50Z</time>
      </trkpt>
      <trkpt lat="43.42488" lon="2.54169">
        <ele>937.414</ele>
        <time>2015-08-25T16:38:10Z</time>
      </trkpt>
      <trkpt lat="43.42487" lon="2.54116">
        <ele>938.857</ele>
        <time>2015-08-25T16:38:30Z</time>
      </trkpt>
      <trkpt lat="43.42414" lon="2.53987">
        <ele>943.524</ele>
        <time>2015-08-25T16:38:50Z</time>
      </trkpt>
      <trkpt lat="43.42407" lon="2.53942">
        <ele>947.758</ele>
        <time>2015-08-25T16:39:10Z</time>
      </trkpt>
      <trkpt lat="43.42415" lon="2.53861">
        <ele>956.473</ele>
        <time>2015-08-25T16:39:30Z</time>
      </trkpt>
      <trkpt lat="43.42435" lon="2.53793">
        <ele>960.185</ele>
        <time>2015-08-25T16:39:50Z</time>
      </trkpt>
      <trkpt lat="43.42447" lon="2.53704">
        <ele>960.913</ele>
        <time>2015-08-25T16:40:10Z</time>
      </trkpt>
      <trkpt lat="43.42435" lon="2.53587">
        <ele>962.308</ele>
        <time>2015-08-25T16:40:30Z</time>
      </trkpt>
      <trkpt lat="43.42433" lon="2.53466">
        <ele>963.323</ele>
        <time>2015-08-25T16:40:50Z</time>
      </trkpt>
      <trkpt lat="43.4242" lon="2.53347">
        <ele>963.988</ele>
        <time>2015-08-25T16:41:10Z</time>
      </trkpt>
      <trkpt lat="43.42387" lon="2.53243">
        <ele>964.469</ele>
        <time>2015-08-25T16:41:30Z</time>
      </trkpt>
      <trkpt lat="43.42338" lon="2.53105">
        <ele>981.994</ele>
        <time>2019-03-29T04:09:46Z</time>
      </trkpt>
      <trkpt lat="43.42345" lon="2.53053">
        <ele>989.133</ele>
        <time>2019-03-29T04:10:06Z</time>
      </trkpt>
      <trkpt lat="43.42285" lon="2.52906">
        <ele>989.056</ele>
        <time>2019-03-29T04:10:26Z</time>
      </trkpt>
      <trkpt lat="43.42318" lon="2.52832">
        <ele>988.323</ele>
        <time>2015-08-25T16:42:50Z</time>
      </trkpt>
      <trkpt lat="43.4235" lon="2.52633">
        <ele>984.547</ele>
        <time>2015-08-25T16:43:10Z</time>
      </trkpt>
      <trkpt lat="43.42351" lon="2.52545">
        <ele>988.112</ele>
        <time>2015-08-25T16:43:30Z</time>
      </trkpt>
      <trkpt lat="43.42356" lon="2.52452">
        <ele>991.532</ele>
        <time>2015-08-25T16:43:50Z</time>
      </trkpt>
      <trkpt lat="43.42345" lon="2.52379">
        <ele>996.105</ele>
        <time>2015-08-25T16:44:10Z</time>
      </trkpt>
      <trkpt lat="43.42353" lon="2.52325">
        <ele>997.108</ele>
        <time>2015-08-25T16:44:30Z</time>
      </trkpt>
      <trkpt lat="43.42377" lon="2.5226">
        <ele>999.487</ele>
        <time>2015-08-25T16:44:50Z</time>
      </trkpt>
      <trkpt lat="43.42431" lon="2.52193">
        <ele>1002.452</ele>
        <time>2015-08-25T16:45:10Z</time>
      </trkpt>
      <trkpt lat="43.42577" lon="2.52045">
        <ele>1003.583</ele>
        <time>2015-08-25T16:45:30Z</time>
      </trkpt>
      <trkpt lat="43.42642" lon="2.51931">
        <ele>1004.388</ele>
        <time>2015-08-25T16:45:50Z</time>
      </trkpt>
      <trkpt lat="43.42675" lon="2.51815">
        <ele>996.267</ele>
        <time>2015-08-25T16:46:10Z</time>
      </trkpt>
      <trkpt lat="43.42672" lon="2.5175">
        <ele>993.56</ele>
        <time>2015-08-25T16:46:30Z</time>
      </trkpt>
      <trkpt lat="43.4269" lon="2.51624">
        <ele>988.157</ele>
        <time>2015-08-25T16:46:50Z</time>
      </trkpt>
      <trkpt lat="43.427" lon="2.51574">
        <ele>983.991</ele>
        <time>2015-08-25T16:47:10Z</time>
      </trkpt>
      <trkpt lat="43.4276" lon="2.51424">
        <ele>976.222</ele>
        <time>2015-08-25T16:47:30Z</time>
      </trkpt>
      <trkpt lat="43.42779" lon="2.51338">
        <ele>975.462</ele>
        <time>2015-08-25T16:47:50Z</time>
      </trkpt>
      <trkpt lat="43.42794" lon="2.51291">
        <ele>975.208</ele>
        <time>2015-08-25T16:48:10Z</time>
      </trkpt>
      <trkpt lat="43.42827" lon="2.51114">
        <ele>975.008</ele>
        <time>2015-08-25T16:48:30Z</time>
      </trkpt>
      <trkpt lat="43.42828" lon="2.51083">
        <ele>973.278</ele>
        <time>2015-08-25T16:48:50Z</time>
      </trkpt>
      <trkpt lat="43.42809" lon="2.51025">
        <ele>971.773</ele>
        <time>2015-08-25T16:49:10Z</time>
      </trkpt>
      <trkpt lat="43.42792" lon="2.50938">
        <ele>969.454</ele>
        <time>2015-08-25T16:49:30Z</time>
      </trkpt>
      <trkpt lat="43.42791" lon="2.50854">
        <ele>961.679</ele>
        <time>2015-08-25T16:49:50Z</time>
      </trkpt>
      <trkpt lat="43.42812" lon="2.50773">
        <ele>957.118</ele>
        <time>2015-08-25T16:50:10Z</time>
      </trkpt>
      <trkpt lat="43.42813" lon="2.50622">
        <ele>956.521</ele>
        <time>2015-08-25T16:50:30Z</time>
      </trkpt>
      <trkpt lat="43.42837" lon="2.50412">
        <ele>953.448</ele>
        <time>2015-08-25T16:50:50Z</time>
      </trkpt>
      <trkpt lat="43.42854" lon="2.50337">
        <ele>951.962</ele>
        <time>2015-08-25T16:51:10Z</time>
      </trkpt>
      <trkpt lat="43.42885" lon="2.50272">
        <ele>948.864</ele>
        <time>2015-08-25T16:51:30Z</time>
      </trkpt>
      <trkpt lat="43.42963" lon="2.50141">
        <ele>950.006</ele>
        <time>2015-08-25T16:51:50Z</time>
      </trkpt>
      <trkpt lat="43.43004" lon="2.50088">
        <ele>950.016</ele>
        <time>2015-08-25T16:52:10Z</time>
      </trkpt>
      <trkpt lat="43.43134" lon="2.49853">
        <ele>951.008</ele>
        <time>2015-08-25T16:52:30Z</time>
      </trkpt>
      <trkpt lat="43.43174" lon="2.49798">
        <ele>953.272</ele>
        <time>2015-08-25T16:52:50Z</time>
      </trkpt>
      <trkpt lat="43.43215" lon="2.49726">
        <ele>958.957</ele>
        <time>2015-08-25T16:53:10Z</time>
      </trkpt>
      <trkpt lat="43.43301" lon="2.49624">
        <ele>966.268</ele>
        <time>2015-08-25T16:53:30Z</time>
      </trkpt>
      <trkpt lat="43.43371" lon="2.49511">
        <ele>968.493</ele>
        <time>2015-08-25T16:53:50Z</time>
      </trkpt>
      <trkpt lat="43.43386" lon="2.49439">
        <ele>965.992</ele>
        <time>2015-08-25T16:54:10Z</time>
      </trkpt>
      <trkpt lat="43.43411" lon="2.49396">
        <ele>969.525</ele>
        <time>2015-08-25T16:54:30Z</time>
      </trkpt>
      <trkpt lat="43.43432" lon="2.49375">
        <ele>973.092</ele>
        <time>2015-08-25T16:54:50Z</time>
      </trkpt>
      <trkpt lat="43.43454" lon="2.4933">
        <ele>977.686</ele>
        <time>2015-08-25T16:55:10Z</time>
      </trkpt>
      <trkpt lat="43.43493" lon="2.49314">
        <ele>984.133</ele>
        <time>2015-08-25T16:55:30Z</time>
      </trkpt>
      <trkpt lat="43.43541" lon="2.49272">
        <ele>988.923</ele>
        <time>2015-08-25T16:55:50Z</time>
      </trkpt>
      <trkpt lat="43.43563" lon="2.49238">
        <ele>991.615</ele>
        <time>2015-08-25T16:56:10Z</time>
      </trkpt>
      <trkpt lat="43.43571" lon="2.49176">
        <ele>994.308</ele>
        <time>2015-08-25T16:56:30Z</time>
      </trkpt>
      <trkpt lat="43.43589" lon="2.49133">
        <ele>1003.579</ele>
        <time>2015-08-25T16:56:50Z</time>
      </trkpt>
      <trkpt lat="43.43583" lon="2.49107">
        <ele>1005.664</ele>
        <time>2015-08-25T16:57:10Z</time>
      </trkpt>
      <trkpt lat="43.43562" lon="2.49092">
        <ele>1002.895</ele>
        <time>2015-08-25T16:57:30Z</time>
      </trkpt>
      <trkpt lat="43.43547" lon="2.49072">
        <ele>1002.77</ele>
        <time>2015-08-25T16:57:50Z</time>
      </trkpt>
      <trkpt lat="43.43538" lon="2.48932">
        <ele>1006.769</ele>
        <time>2015-08-25T16:58:10Z</time>
      </trkpt>
      <trkpt lat="43.43549" lon="2.48779">
        <ele>1009.322</ele>
        <time>2015-08-25T16:58:30Z</time>
      </trkpt>
      <trkpt lat="43.43564" lon="2.48747">
        <ele>1011.189</ele>
        <time>2015-08-25T16:58:50Z</time>
      </trkpt>
      <trkpt lat="43.43592" lon="2.48725">
        <ele>1015.233</ele>
        <time>2015-08-25T16:59:10Z</time>
      </trkpt>
      <trkpt lat="43.43605" lon="2.48707">
        <ele>1016.678</ele>
        <time>2015-08-25T16:59:30Z</time>
      </trkpt>
      <trkpt lat="43.43621" lon="2.48649">
        <ele>1022.633</ele>
        <time>2015-08-25T16:59:50Z</time>
      </trkpt>
      <trkpt lat="43.4364" lon="2.48505">
        <ele>1033.526</ele>
        <time>2015-08-25T17:00:10Z</time>
      </trkpt>
      <trkpt lat="43.43666" lon="2.4844">
        <ele>1038.508</ele>
        <time>2015-08-25T17:00:30Z</time>
      </trkpt>
      <trkpt lat="43.43681" lon="2.48386">
        <ele>1044.443</ele>
        <time>2015-08-25T17:00:50Z</time>
      </trkpt>
      <trkpt lat="43.43687" lon="2.48168">
        <ele>1055.268</ele>
        <time>2015-08-25T17:01:10Z</time>
      </trkpt>
      <trkpt lat="43.43693" lon="2.48117">
        <ele>1056.959</ele>
        <time>2015-08-25T17:01:30Z</time>
      </trkpt>
      <trkpt lat="43.43685" lon="2.48049">
        <ele>1059.354</ele>
        <time>2015-08-25T17:01:50Z</time>
      </trkpt>
      <trkpt lat="43.43682" lon="2.47956">
        <ele>1062.823</ele>
        <time>2015-08-25T17:02:10Z</time>
      </trkpt>
      <trkpt lat="43.43668" lon="2.47901">
        <ele>1068.416</ele>
        <time>2015-08-25T17:02:30Z</time>
      </trkpt>
      <trkpt lat="43.43667" lon="2.4786">
        <ele>1070.013</ele>
        <time>2015-08-25T17:02:50Z</time>
      </trkpt>
      <trkpt lat="43.43657" lon="2.47817">
        <ele>1073.257</ele>
        <time>2015-08-25T17:03:10Z</time>
      </trkpt>
      <trkpt lat="43.43655" lon="2.47775">
        <ele>1076.233</ele>
        <time>2015-08-25T17:03:30Z</time>
      </trkpt>
      <trkpt lat="43.43673" lon="2.47606">
        <ele>1090.023</ele>
        <time>2015-08-25T17:03:50Z</time>
      </trkpt>
      <trkpt lat="43.43672" lon="2.47544">
        <ele>1096.215</ele>
        <time>2015-08-25T17:04:10Z</time>
      </trkpt>
      <trkpt lat="43.4368" lon="2.47523">
        <ele>1098.708</ele>
        <time>2015-08-25T17:04:30Z</time>
      </trkpt>
      <trkpt lat="43.43721" lon="2.47479">
        <ele>1103.379</ele>
        <time>2015-08-25T17:04:50Z</time>
      </trkpt>
      <trkpt lat="43.43729" lon="2.47457">
        <ele>1105.394</ele>
        <time>2015-08-25T17:05:10Z</time>
      </trkpt>
      <trkpt lat="43.43726" lon="2.4744">
        <ele>1107.535</ele>
        <time>2015-08-25T17:05:30Z</time>
      </trkpt>
      <trkpt lat="43.43653" lon="2.47401">
        <ele>1113.95</ele>
        <time>2015-08-25T17:05:50Z</time>
      </trkpt>
      <trkpt lat="43.4363" lon="2.47377">
        <ele>1116.039</ele>
        <time>2015-08-25T17:06:10Z</time>
      </trkpt>
      <trkpt lat="43.43609" lon="2.47337">
        <ele>1119.082</ele>
        <time>2015-08-25T17:06:30Z</time>
      </trkpt>
      <trkpt lat="43.43594" lon="2.47259">
        <ele>1124.969</ele>
        <time>2015-08-25T17:06:50Z</time>
      </trkpt>
      <trkpt lat="43.43566" lon="2.47221">
        <ele>1126.533</ele>
        <time>2015-08-25T17:07:10Z</time>
      </trkpt>
      <trkpt lat="43.43547" lon="2.47179">
        <ele>1130.856</ele>
        <time>2015-08-25T17:07:30Z</time>
      </trkpt>
      <trkpt lat="43.43544" lon="2.4715">
        <ele>1133.659</ele>
        <time>2015-08-25T17:07:50Z</time>
      </trkpt>
      <trkpt lat="43.4357" lon="2.47112">
        <ele>1140.514</ele>
        <time>2015-08-25T17:08:10Z</time>
      </trkpt>
      <trkpt lat="43.4357" lon="2.47084">
        <ele>1143.508</ele>
        <time>2015-08-25T17:08:30Z</time>
      </trkpt>
      <trkpt lat="43.4356" lon="2.47071">
        <ele>1143.861</ele>
        <time>2015-08-25T17:08:50Z</time>
      </trkpt>
      <trkpt lat="43.43556" lon="2.47052">
        <ele>1145.526</ele>
        <time>2015-08-25T17:09:10Z</time>
      </trkpt>
      <trkpt lat="43.43548" lon="2.47039">
        <ele>1147.187</ele>
        <time>2015-08-25T17:09:30Z</time>
      </trkpt>
      <trkpt lat="43.43541" lon="2.4699">
        <ele>1150.292</ele>
        <time>2015-08-25T17:09:50Z</time>
      </trkpt>
      <trkpt lat="43.43531" lon="2.46945">
        <ele>1151.161</ele>
        <time>2015-08-25T17:10:10Z</time>
      </trkpt>
      <trkpt lat="43.43518" lon="2.46939">
        <ele>1151.014</ele>
        <time>2015-08-25T17:10:30Z</time>
      </trkpt>
      <trkpt lat="43.43523" lon="2.46871">
        <ele>1147.771</ele>
        <time>2015-08-25T17:10:50Z</time>
      </trkpt>
      <trkpt lat="43.43543" lon="2.46787">
        <ele>1140.735</ele>
        <time>2015-08-25T17:11:10Z</time>
      </trkpt>
      <trkpt lat="43.4357" lon="2.46766">
        <ele>1140.772</ele>
        <time>2015-08-25T17:11:30Z</time>
      </trkpt>
      <trkpt lat="43.43587" lon="2.46744">
        <ele>1139.513</ele>
        <time>2015-08-25T17:11:50Z</time>
      </trkpt>
      <trkpt lat="43.43607" lon="2.46729">
        <ele>1138.614</ele>
        <time>2015-08-25T17:12:10Z</time>
      </trkpt>
      <trkpt lat="43.43629" lon="2.46672">
        <ele>1134.508</ele>
        <time>2015-08-25T17:12:30Z</time>
      </trkpt>
      <trkpt lat="43.4366" lon="2.46637">
        <ele>1133.193</ele>
        <time>2015-08-25T17:12:50Z</time>
      </trkpt>
      <trkpt lat="43.4372" lon="2.46552">
        <ele>1128.248</ele>
        <time>2015-08-25T17:13:10Z</time>
      </trkpt>
      <trkpt lat="43.43755" lon="2.46512">
        <ele>1127.049</ele>
        <time>2015-08-25T17:13:30Z</time>
      </trkpt>
      <trkpt lat="43.43772" lon="2.46455">
        <ele>1123.234</ele>
        <time>2015-08-25T17:13:50Z</time>
      </trkpt>
      <trkpt lat="43.43787" lon="2.46417">
        <ele>1121.773</ele>
        <time>2015-08-25T17:14:10Z</time>
      </trkpt>
      <trkpt lat="43.43742" lon="2.46352">
        <ele>1118.476</ele>
        <time>2015-08-25T17:14:30Z</time>
      </trkpt>
      <trkpt lat="43.43711" lon="2.46202">
        <ele>1114.423</ele>
        <time>2015-08-25T17:14:50Z</time>
      </trkpt>
      <trkpt lat="43.43705" lon="2.46061">
        <ele>1118.597</ele>
        <time>2015-08-25T17:15:10Z</time>
      </trkpt>
      <trkpt lat="43.43715" lon="2.46026">
        <ele>1120.326</ele>
        <time>2015-08-25T17:15:30Z</time>
      </trkpt>
      <trkpt lat="43.4378" lon="2.45881">
        <ele>1120.047</ele>
        <time>2015-08-25T17:15:50Z</time>
      </trkpt>
      <trkpt lat="43.43831" lon="2.45824">
        <ele>1127.511</ele>
        <time>2015-08-25T17:16:10Z</time>
      </trkpt>
      <trkpt lat="43.43831" lon="2.45797">
        <ele>1128.708</ele>
        <time>2015-08-25T17:16:30Z</time>
      </trkpt>
      <trkpt lat="43.43816" lon="2.45763">
        <ele>1129.318</ele>
        <time>2015-08-25T17:16:50Z</time>
      </trkpt>
      <trkpt lat="43.43813" lon="2.45722">
        <ele>1130.733</ele>
        <time>2015-08-25T17:17:10Z</time>
      </trkpt>
      <trkpt lat="43.43831" lon="2.45706">
        <ele>1132.244</ele>
        <time>2015-08-25T17:17:30Z</time>
      </trkpt>
      <trkpt lat="43.43844" lon="2.45681">
        <ele>1133.959</ele>
        <time>2015-08-25T17:17:50Z</time>
      </trkpt>
      <trkpt lat="43.43868" lon="2.45677">
        <ele>1137.598</ele>
        <time>2015-08-25T17:18:10Z</time>
      </trkpt>
      <trkpt lat="43.43896" lon="2.45648">
        <ele>1137.531</ele>
        <time>2015-08-25T17:18:30Z</time>
      </trkpt>
      <trkpt lat="43.43932" lon="2.45644">
        <ele>1138.528</ele>
        <time>2015-08-25T17:18:50Z</time>
      </trkpt>
      <trkpt lat="43.43966" lon="2.45621">
        <ele>1136.862</ele>
        <time>2015-08-25T17:19:10Z</time>
      </trkpt>
      <trkpt lat="43.43984" lon="2.45602">
        <ele>1134.668</ele>
        <time>2015-08-25T17:19:30Z</time>
      </trkpt>
      <trkpt lat="43.44011" lon="2.45584">
        <ele>1131.542</ele>
        <time>2015-08-25T17:19:50Z</time>
      </trkpt>
      <trkpt lat="43.44036" lon="2.45548">
        <ele>1127.726</ele>
        <time>2015-08-25T17:20:10Z</time>
      </trkpt>
      <trkpt lat="43.4408" lon="2.45518">
        <ele>1127.008</ele>
        <time>2015-08-25T17:20:30Z</time>
      </trkpt>
      <trkpt lat="43.44124" lon="2.45507">
        <ele>1126.952</ele>
        <time>2015-08-25T17:20:50Z</time>
      </trkpt>
      <trkpt lat="43.44152" lon="2.45485">
        <ele>1124.197</ele>
        <time>2015-08-25T17:21:10Z</time>
      </trkpt>
      <trkpt lat="43.44192" lon="2.45489">
        <ele>1122.828</ele>
        <time>2015-08-25T17:21:30Z</time>
      </trkpt>
      <trkpt lat="43.44234" lon="2.45505">
        <ele>1120.433</ele>
        <time>2015-08-25T17:21:50Z</time>
      </trkpt>
      <trkpt lat="43.4427" lon="2.45514">
        <ele>1117.252</ele>
        <time>2015-08-25T17:22:10Z</time>
      </trkpt>
      <trkpt lat="43.44308" lon="2.45528">
        <ele>1115.825</ele>
        <time>2015-08-25T17:22:30Z</time>
      </trkpt>
      <trkpt lat="43.44422" lon="2.45504">
        <ele>1105.282</ele>
        <time>2015-08-25T17:22:50Z</time>
      </trkpt>
      <trkpt lat="43.44472" lon="2.45491">
        <ele>1101.756</ele>
        <time>2015-08-25T17:23:10Z</time>
      </trkpt>
      <trkpt lat="43.44491" lon="2.45484">
        <ele>1100.161</ele>
        <time>2015-08-25T17:23:30Z</time>
      </trkpt>
      <trkpt lat="43.44536" lon="2.45479">
        <ele>1095.721</ele>
        <time>2015-08-25T17:23:50Z</time>
      </trkpt>
      <trkpt lat="43.44575" lon="2.45491">
        <ele>1094.213</ele>
        <time>2015-08-25T17:24:10Z</time>
      </trkpt>
      <trkpt lat="43.44589" lon="2.45483">
        <ele>1093.008</ele>
        <time>2015-08-25T17:24:30Z</time>
      </trkpt>
      <trkpt lat="43.44657" lon="2.4548">
        <ele>1089.692</ele>
        <time>2015-08-25T17:24:50Z</time>
      </trkpt>
      <trkpt lat="43.44702" lon="2.45427">
        <ele>1084.177</ele>
        <time>2015-08-25T17:25:10Z</time>
      </trkpt>
      <trkpt lat="43.44747" lon="2.45367">
        <ele>1078.788</ele>
        <time>2015-08-25T17:25:30Z</time>
      </trkpt>
      <trkpt lat="43.44773" lon="2.45287">
        <ele>1073.333</ele>
        <time>2015-08-25T17:25:50Z</time>
      </trkpt>
      <trkpt lat="43.44786" lon="2.45274">
        <ele>1076.492</ele>
        <time>2015-08-25T17:26:10Z</time>
      </trkpt>
      <trkpt lat="43.44794" lon="2.45248">
        <ele>1077.925</ele>
        <time>2015-08-25T17:26:30Z</time>
      </trkpt>
      <trkpt lat="43.44795" lon="2.45217">
        <ele>1079.732</ele>
        <time>2015-08-25T17:26:50Z</time>
      </trkpt>
      <trkpt lat="43.44776" lon="2.4517">
        <ele>1077.566</ele>
        <time>2015-08-25T17:27:10Z</time>
      </trkpt>
      <trkpt lat="43.44772" lon="2.45127">
        <ele>1076.235</ele>
        <time>2015-08-25T17:27:30Z</time>
      </trkpt>
      <trkpt lat="43.44781" lon="2.45033">
        <ele>1071.786</ele>
        <time>2015-08-25T17:27:50Z</time>
      </trkpt>
      <trkpt lat="43.44795" lon="2.44972">
        <ele>1068.214</ele>
        <time>2015-08-25T17:28:10Z</time>
      </trkpt>
      <trkpt lat="43.44807" lon="2.44882">
        <ele>1058.808</ele>
        <time>2015-08-25T17:28:30Z</time>
      </trkpt>
      <trkpt lat="43.44809" lon="2.44835">
        <ele>1050.059</ele>
        <time>2015-08-25T17:28:50Z</time>
      </trkpt>
      <trkpt lat="43.44846" lon="2.44721">
        <ele>1040.554</ele>
        <time>2015-08-25T17:29:10Z</time>
      </trkpt>
      <trkpt lat="43.44883" lon="2.44679">
        <ele>1036.165</ele>
        <time>2015-08-25T17:29:30Z</time>
      </trkpt>
      <trkpt lat="43.44927" lon="2.44607">
        <ele>1034.78</ele>
        <time>2015-08-25T17:29:50Z</time>
      </trkpt>
      <trkpt lat="43.44961" lon="2.44413">
        <ele>1025.339</ele>
        <time>2015-08-25T17:30:10Z</time>
      </trkpt>
      <trkpt lat="43.4497" lon="2.44388">
        <ele>1026.362</ele>
        <time>2015-08-25T17:30:30Z</time>
      </trkpt>
      <trkpt lat="43.44985" lon="2.44282">
        <ele>1020.449</ele>
        <time>2015-08-25T17:30:50Z</time>
      </trkpt>
      <trkpt lat="43.44975" lon="2.44244">
        <ele>1013.983</ele>
        <time>2015-08-25T17:31:10Z</time>
      </trkpt>
      <trkpt lat="43.44989" lon="2.44199">
        <ele>1009.022</ele>
        <time>2015-08-25T17:31:30Z</time>
      </trkpt>
      <trkpt lat="43.44991" lon="2.44139">
        <ele>1001.362</ele>
        <time>2015-08-25T17:31:50Z</time>
      </trkpt>
      <trkpt lat="43.45004" lon="2.44083">
        <ele>994.308</ele>
        <time>2015-08-25T17:32:10Z</time>
      </trkpt>
      <trkpt lat="43.45036" lon="2.44011">
        <ele>985.808</ele>
        <time>2015-08-25T17:32:30Z</time>
      </trkpt>
      <trkpt lat="43.45057" lon="2.43991">
        <ele>983.798</ele>
        <time>2015-08-25T17:32:50Z</time>
      </trkpt>
      <trkpt lat="43.45112" lon="2.43985">
        <ele>979.243</ele>
        <time>2015-08-25T17:33:10Z</time>
      </trkpt>
      <trkpt lat="43.45152" lon="2.44021">
        <ele>975.814</ele>
        <time>2015-08-25T17:33:30Z</time>
      </trkpt>
      <trkpt lat="43.4518" lon="2.4407">
        <ele>974.719</ele>
        <time>2015-08-25T17:33:50Z</time>
      </trkpt>
      <trkpt lat="43.45213" lon="2.442">
        <ele>972.648</ele>
        <time>2015-08-25T17:34:10Z</time>
      </trkpt>
      <trkpt lat="43.45238" lon="2.44268">
        <ele>969.451</ele>
        <time>2015-08-25T17:34:30Z</time>
      </trkpt>
      <trkpt lat="43.45277" lon="2.44331">
        <ele>966.828</ele>
        <time>2015-08-25T17:34:50Z</time>
      </trkpt>
      <trkpt lat="43.45371" lon="2.44406">
        <ele>968.092</ele>
        <time>2015-08-25T17:35:10Z</time>
      </trkpt>
      <trkpt lat="43.45409" lon="2.44458">
        <ele>964.298</ele>
        <time>2015-08-25T17:35:30Z</time>
      </trkpt>
      <trkpt lat="43.45489" lon="2.44502">
        <ele>955.815</ele>
        <time>2015-08-25T17:35:50Z</time>
      </trkpt>
      <trkpt lat="43.45536" lon="2.44514">
        <ele>951.226</ele>
        <time>2015-08-25T17:36:10Z</time>
      </trkpt>
      <trkpt lat="43.45565" lon="2.4451">
        <ele>950.808</ele>
        <time>2015-08-25T17:36:30Z</time>
      </trkpt>
      <trkpt lat="43.45649" lon="2.44388">
        <ele>958.115</ele>
        <time>2015-08-25T17:36:50Z</time>
      </trkpt>
      <trkpt lat="43.45693" lon="2.44286">
        <ele>959.74</ele>
        <time>2015-08-25T17:37:10Z</time>
      </trkpt>
      <trkpt lat="43.45716" lon="2.44249">
        <ele>958.991</ele>
        <time>2015-08-25T17:37:30Z</time>
      </trkpt>
      <trkpt lat="43.45741" lon="2.44161">
        <ele>951.536</ele>
        <time>2015-08-25T17:37:50Z</time>
      </trkpt>
      <trkpt lat="43.45784" lon="2.44062">
        <ele>950.075</ele>
        <time>2015-08-25T17:38:10Z</time>
      </trkpt>
      <trkpt lat="43.45861" lon="2.43945">
        <ele>950.018</ele>
        <time>2015-08-25T17:38:30Z</time>
      </trkpt>
      <trkpt lat="43.45906" lon="2.43886">
        <ele>949.945</ele>
        <time>2015-08-25T17:38:50Z</time>
      </trkpt>
      <trkpt lat="43.45975" lon="2.4378">
        <ele>950.019</ele>
        <time>2015-08-25T17:39:10Z</time>
      </trkpt>
      <trkpt lat="43.46013" lon="2.43696">
        <ele>950.046</ele>
        <time>2015-08-25T17:39:30Z</time>
      </trkpt>
      <trkpt lat="43.46034" lon="2.43669">
        <ele>950.088</ele>
        <time>2015-08-25T17:39:50Z</time>
      </trkpt>
      <trkpt lat="43.46047" lon="2.43635">
        <ele>950.016</ele>
        <time>2015-08-25T17:40:10Z</time>
      </trkpt>
      <trkpt lat="43.46071" lon="2.43607">
        <ele>950.008</ele>
        <time>2015-08-25T17:40:30Z</time>
      </trkpt>
      <trkpt lat="43.46114" lon="2.43582">
        <ele>949.96</ele>
        <time>2015-08-25T17:40:50Z</time>
      </trkpt>
      <trkpt lat="43.46165" lon="2.43565">
        <ele>949.725</ele>
        <time>2015-08-25T17:41:10Z</time>
      </trkpt>
      <trkpt lat="43.46221" lon="2.43555">
        <ele>950.066</ele>
        <time>2015-08-25T17:41:30Z</time>
      </trkpt>
      <trkpt lat="43.46252" lon="2.43533">
        <ele>949.641</ele>
        <time>2015-08-25T17:41:50Z</time>
      </trkpt>
      <trkpt lat="43.46283" lon="2.43501">
        <ele>948.29</ele>
        <time>2015-08-25T17:42:10Z</time>
      </trkpt>
      <trkpt lat="43.46311" lon="2.43484">
        <ele>945.853</ele>
        <time>2015-08-25T17:42:30Z</time>
      </trkpt>
      <trkpt lat="43.4635" lon="2.43448">
        <ele>941.23</ele>
        <time>2015-08-25T17:42:50Z</time>
      </trkpt>
      <trkpt lat="43.46445" lon="2.43324">
        <ele>926.624</ele>
        <time>2015-08-25T17:43:10Z</time>
      </trkpt>
      <trkpt lat="43.46524" lon="2.43227">
        <ele>916.467</ele>
        <time>2015-08-25T17:43:30Z</time>
      </trkpt>
      <trkpt lat="43.4655" lon="2.43204">
        <ele>911.881</ele>
        <time>2015-08-25T17:43:50Z</time>
      </trkpt>
      <trkpt lat="43.46563" lon="2.43179">
        <ele>909.719</ele>
        <time>2015-08-25T17:44:10Z</time>
      </trkpt>
      <trkpt lat="43.46574" lon="2.43167">
        <ele>908.308</ele>
        <time>2015-08-25T17:44:30Z</time>
      </trkpt>
      <trkpt lat="43.46586" lon="2.43132">
        <ele>907.052</ele>
        <time>2015-08-25T17:44:50Z</time>
      </trkpt>
      <trkpt lat="43.46608" lon="2.43117">
        <ele>902.717</ele>
        <time>2015-08-25T17:45:10Z</time>
      </trkpt>
      <trkpt lat="43.46622" lon="2.43094">
        <ele>899.428</ele>
        <time>2015-08-25T17:45:30Z</time>
      </trkpt>
      <trkpt lat="43.4664" lon="2.43077">
        <ele>895.693</ele>
        <time>2015-08-25T17:45:50Z</time>
      </trkpt>
      <trkpt lat="43.46686" lon="2.42995">
        <ele>882.972</ele>
        <time>2015-08-25T17:46:10Z</time>
      </trkpt>
      <trkpt lat="43.46688" lon="2.4297">
        <ele>881.975</ele>
        <time>2015-08-25T17:46:30Z</time>
      </trkpt>
      <trkpt lat="43.46702" lon="2.42936">
        <ele>876.242</ele>
        <time>2015-08-25T17:46:50Z</time>
      </trkpt>
      <trkpt lat="43.46714" lon="2.42893">
        <ele>870.036</ele>
        <time>2015-08-25T17:47:10Z</time>
      </trkpt>
      <trkpt lat="43.46712" lon="2.4285">
        <ele>866.593</ele>
        <time>2015-08-25T17:47:30Z</time>
      </trkpt>
      <trkpt lat="43.467" lon="2.42817">
        <ele>864.765</ele>
        <time>2015-08-25T17:47:50Z</time>
      </trkpt>
      <trkpt lat="43.46689" lon="2.42754">
        <ele>859.321</ele>
        <time>2015-08-25T17:48:10Z</time>
      </trkpt>
      <trkpt lat="43.46679" lon="2.42727">
        <ele>859.708</ele>
        <time>2015-08-25T17:48:30Z</time>
      </trkpt>
      <trkpt lat="43.4668" lon="2.42675">
        <ele>860.255</ele>
        <time>2015-08-25T17:48:50Z</time>
      </trkpt>
      <trkpt lat="43.467" lon="2.42626">
        <ele>857.23</ele>
        <time>2015-08-25T17:49:10Z</time>
      </trkpt>
      <trkpt lat="43.46703" lon="2.42502">
        <ele>854.521</ele>
        <time>2015-08-25T17:49:30Z</time>
      </trkpt>
      <trkpt lat="43.46719" lon="2.42401">
        <ele>851.766</ele>
        <time>2015-08-25T17:49:50Z</time>
      </trkpt>
      <trkpt lat="43.46722" lon="2.42322">
        <ele>847.825</ele>
        <time>2015-08-25T17:50:10Z</time>
      </trkpt>
      <trkpt lat="43.4671" lon="2.42259">
        <ele>842.768</ele>
        <time>2015-08-25T17:50:30Z</time>
      </trkpt>
      <trkpt lat="43.4671" lon="2.42217">
        <ele>839.635</ele>
        <time>2015-08-25T17:50:50Z</time>
      </trkpt>
      <trkpt lat="43.46733" lon="2.42207">
        <ele>835.119</ele>
        <time>2015-08-25T17:51:10Z</time>
      </trkpt>
      <trkpt lat="43.46752" lon="2.4219">
        <ele>832.197</ele>
        <time>2015-08-25T17:51:30Z</time>
      </trkpt>
      <trkpt lat="43.46776" lon="2.42199">
        <ele>825.423</ele>
        <time>2015-08-25T17:51:50Z</time>
      </trkpt>
      <trkpt lat="43.46804" lon="2.42202">
        <ele>818.225</ele>
        <time>2015-08-25T17:52:10Z</time>
      </trkpt>
      <trkpt lat="43.46817" lon="2.42181">
        <ele>817.708</ele>
        <time>2015-08-25T17:52:30Z</time>
      </trkpt>
      <trkpt lat="43.46829" lon="2.42182">
        <ele>815.385</ele>
        <time>2015-08-25T17:52:50Z</time>
      </trkpt>
      <trkpt lat="43.4686" lon="2.42155">
        <ele>809.38</ele>
        <time>2015-08-25T17:53:10Z</time>
      </trkpt>
      <trkpt lat="43.46881" lon="2.42103">
        <ele>805.941</ele>
        <time>2015-08-25T17:53:30Z</time>
      </trkpt>
      <trkpt lat="43.46887" lon="2.42099">
        <ele>804.936</ele>
        <time>2015-08-25T17:53:50Z</time>
      </trkpt>
      <trkpt lat="43.46941" lon="2.4217">
        <ele>786.385</ele>
        <time>2015-08-25T17:54:10Z</time>
      </trkpt>
      <trkpt lat="43.46948" lon="2.42209">
        <ele>780.218</ele>
        <time>2015-08-25T17:54:30Z</time>
      </trkpt>
      <trkpt lat="43.46962" lon="2.42189">
        <ele>776.645</ele>
        <time>2015-08-25T17:54:50Z</time>
      </trkpt>
      <trkpt lat="43.46971" lon="2.42169">
        <ele>775.259</ele>
        <time>2015-08-25T17:55:10Z</time>
      </trkpt>
      <trkpt lat="43.46981" lon="2.42124">
        <ele>773.769</ele>
        <time>2015-08-25T17:55:30Z</time>
      </trkpt>
      <trkpt lat="43.46989" lon="2.42178">
        <ele>771.604</ele>
        <time>2015-08-25T17:55:50Z</time>
      </trkpt>
      <trkpt lat="43.4698" lon="2.4226">
        <ele>766.324</ele>
        <time>2015-08-25T17:56:10Z</time>
      </trkpt>
      <trkpt lat="43.46983" lon="2.42287">
        <ele>765.608</ele>
        <time>2015-08-25T17:56:30Z</time>
      </trkpt>
      <trkpt lat="43.46994" lon="2.42307">
        <ele>764.372</ele>
        <time>2015-08-25T17:56:50Z</time>
      </trkpt>
      <trkpt lat="43.46988" lon="2.42266">
        <ele>764.677</ele>
        <time>2015-08-25T17:57:10Z</time>
      </trkpt>
      <trkpt lat="43.47018" lon="2.42195">
        <ele>762.348</ele>
        <time>2015-08-25T17:57:30Z</time>
      </trkpt>
      <trkpt lat="43.47026" lon="2.42131">
        <ele>762.273</ele>
        <time>2015-08-25T17:57:50Z</time>
      </trkpt>
      <trkpt lat="43.47026" lon="2.42076">
        <ele>758.772</ele>
        <time>2015-08-25T17:58:10Z</time>
      </trkpt>
      <trkpt lat="43.47018" lon="2.42035">
        <ele>760.625</ele>
        <time>2015-08-25T17:58:30Z</time>
      </trkpt>
      <trkpt lat="43.47037" lon="2.4199">
        <ele>757.852</ele>
        <time>2015-08-25T17:58:50Z</time>
      </trkpt>
      <trkpt lat="43.47041" lon="2.41956">
        <ele>757.466</ele>
        <time>2015-08-25T17:59:10Z</time>
      </trkpt>
      <trkpt lat="43.47059" lon="2.41923">
        <ele>754.766</ele>
        <time>2015-08-25T17:59:30Z</time>
      </trkpt>
      <trkpt lat="43.47094" lon="2.41904">
        <ele>751.929</ele>
        <time>2015-08-25T17:59:50Z</time>
      </trkpt>
      <trkpt lat="43.47174" lon="2.41787">
        <ele>743.921</ele>
        <time>2015-08-25T18:00:10Z</time>
      </trkpt>
      <trkpt lat="43.47181" lon="2.41716">
        <ele>744.608</ele>
        <time>2015-08-25T18:00:30Z</time>
      </trkpt>
      <trkpt lat="43.47232" lon="2.41642">
        <ele>743.062</ele>
        <time>2015-08-25T18:00:50Z</time>
      </trkpt>
      <trkpt lat="43.47347" lon="2.41514">
        <ele>726.347</ele>
        <time>2015-08-25T18:01:10Z</time>
      </trkpt>
      <trkpt lat="43.47383" lon="2.41456">
        <ele>718.578</ele>
        <time>2015-08-25T18:01:30Z</time>
      </trkpt>
      <trkpt lat="43.47385" lon="2.4141">
        <ele>715.423</ele>
        <time>2015-08-25T18:01:50Z</time>
      </trkpt>
      <trkpt lat="43.47283" lon="2.41273">
        <ele>708.582</ele>
        <time>2015-08-25T18:02:10Z</time>
      </trkpt>
      <trkpt lat="43.47275" lon="2.41243">
        <ele>708.575</ele>
        <time>2015-08-25T18:02:30Z</time>
      </trkpt>
      <trkpt lat="43.47277" lon="2.41146">
        <ele>700.192</ele>
        <time>2015-08-25T18:02:50Z</time>
      </trkpt>
      <trkpt lat="43.47245" lon="2.41085">
        <ele>697.526</ele>
        <time>2015-08-25T18:03:10Z</time>
      </trkpt>
      <trkpt lat="43.47236" lon="2.41044">
        <ele>693.698</ele>
        <time>2015-08-25T18:03:30Z</time>
      </trkpt>
      <trkpt lat="43.47237" lon="2.40995">
        <ele>685.315</ele>
        <time>2015-08-25T18:03:50Z</time>
      </trkpt>
      <trkpt lat="43.47199" lon="2.40973">
        <ele>686.326</ele>
        <time>2015-08-25T18:04:10Z</time>
      </trkpt>
      <trkpt lat="43.47202" lon="2.40943">
        <ele>687.408</ele>
        <time>2015-08-25T18:04:30Z</time>
      </trkpt>
      <trkpt lat="43.47239" lon="2.4086">
        <ele>680.685</ele>
        <time>2015-08-25T18:04:50Z</time>
      </trkpt>
      <trkpt lat="43.47325" lon="2.40838">
        <ele>676.68</ele>
        <time>2015-08-25T18:05:10Z</time>
      </trkpt>
      <trkpt lat="43.47356" lon="2.40836">
        <ele>672.851</ele>
        <time>2015-08-25T18:05:30Z</time>
      </trkpt>
      <trkpt lat="43.474" lon="2.40824">
        <ele>670.046</ele>
        <time>2015-08-25T18:05:50Z</time>
      </trkpt>
      <trkpt lat="43.47454" lon="2.40789">
        <ele>668.665</ele>
        <time>2015-08-25T18:06:10Z</time>
      </trkpt>
      <trkpt lat="43.47488" lon="2.40778">
        <ele>667.698</ele>
        <time>2015-08-25T18:06:30Z</time>
      </trkpt>
      <trkpt lat="43.47534" lon="2.40732">
        <ele>660.235</ele>
        <time>2015-08-25T18:06:50Z</time>
      </trkpt>
      <trkpt lat="43.47588" lon="2.40644">
        <ele>650.269</ele>
        <time>2015-08-25T18:07:10Z</time>
      </trkpt>
      <trkpt lat="43.47649" lon="2.4057">
        <ele>640.286</ele>
        <time>2015-08-25T18:07:30Z</time>
      </trkpt>
      <trkpt lat="43.47688" lon="2.40552">
        <ele>634.66</ele>
        <time>2015-08-25T18:07:50Z</time>
      </trkpt>
      <trkpt lat="43.47722" lon="2.40549">
        <ele>629.026</ele>
        <time>2015-08-25T18:08:10Z</time>
      </trkpt>
      <trkpt lat="43.47746" lon="2.40571">
        <ele>626.508</ele>
        <time>2015-08-25T18:08:30Z</time>
      </trkpt>
      <trkpt lat="43.47751" lon="2.40612">
        <ele>624.224</ele>
        <time>2015-08-25T18:08:50Z</time>
      </trkpt>
      <trkpt lat="43.4776" lon="2.40616">
        <ele>618.959</ele>
        <time>2015-08-25T18:09:10Z</time>
      </trkpt>
      <trkpt lat="43.47763" lon="2.40561">
        <ele>618.86</ele>
        <time>2015-08-25T18:09:30Z</time>
      </trkpt>
      <trkpt lat="43.47759" lon="2.40505">
        <ele>610.095</ele>
        <time>2015-08-25T18:09:50Z</time>
      </trkpt>
      <trkpt lat="43.47738" lon="2.40483">
        <ele>606.654</ele>
        <time>2015-08-25T18:10:10Z</time>
      </trkpt>
      <trkpt lat="43.47696" lon="2.40476">
        <ele>607.177</ele>
        <time>2015-08-25T18:10:30Z</time>
      </trkpt>
      <trkpt lat="43.47671" lon="2.40465">
        <ele>606.954</ele>
        <time>2015-08-25T18:10:50Z</time>
      </trkpt>
      <trkpt lat="43.47649" lon="2.40431">
        <ele>602.938</ele>
        <time>2015-08-25T18:11:10Z</time>
      </trkpt>
      <trkpt lat="43.47633" lon="2.40386">
        <ele>598.575</ele>
        <time>2015-08-25T18:11:30Z</time>
      </trkpt>
      <trkpt lat="43.47622" lon="2.40329">
        <ele>592.428</ele>
        <time>2015-08-25T18:11:50Z</time>
      </trkpt>
      <trkpt lat="43.47612" lon="2.40298">
        <ele>590.12</ele>
        <time>2015-08-25T18:12:10Z</time>
      </trkpt>
      <trkpt lat="43.47641" lon="2.40203">
        <ele>580.108</ele>
        <time>2015-08-25T18:12:30Z</time>
      </trkpt>
      <trkpt lat="43.47633" lon="2.4017">
        <ele>578.533</ele>
        <time>2015-08-25T18:12:50Z</time>
      </trkpt>
      <trkpt lat="43.47595" lon="2.40141">
        <ele>576.658</ele>
        <time>2015-08-25T18:13:10Z</time>
      </trkpt>
      <trkpt lat="43.47591" lon="2.40126">
        <ele>575.079</ele>
        <time>2015-08-25T18:13:30Z</time>
      </trkpt>
      <trkpt lat="43.47554" lon="2.40132">
        <ele>572.154</ele>
        <time>2015-08-25T18:13:50Z</time>
      </trkpt>
      <trkpt lat="43.47549" lon="2.40119">
        <ele>570.253</ele>
        <time>2015-08-25T18:14:10Z</time>
      </trkpt>
      <trkpt lat="43.47584" lon="2.39946">
        <ele>566.076</ele>
        <time>2015-08-25T18:14:30Z</time>
      </trkpt>
      <trkpt lat="43.47566" lon="2.39876">
        <ele>563.043</ele>
        <time>2015-08-25T18:14:50Z</time>
      </trkpt>
      <trkpt lat="43.47542" lon="2.39795">
        <ele>556.887</ele>
        <time>2015-08-25T18:15:10Z</time>
      </trkpt>
      <trkpt lat="43.47531" lon="2.39832">
        <ele>554.973</ele>
        <time>2015-08-25T18:15:30Z</time>
      </trkpt>
      <trkpt lat="43.47516" lon="2.39858">
        <ele>549.985</ele>
        <time>2015-08-25T18:15:50Z</time>
      </trkpt>
      <trkpt lat="43.47506" lon="2.39848">
        <ele>546.813</ele>
        <time>2015-08-25T18:16:10Z</time>
      </trkpt>
      <trkpt lat="43.47514" lon="2.39788">
        <ele>547.908</ele>
        <time>2015-08-25T18:16:30Z</time>
      </trkpt>
      <trkpt lat="43.47517" lon="2.39737">
        <ele>543.533</ele>
        <time>2015-08-25T18:16:50Z</time>
      </trkpt>
      <trkpt lat="43.47538" lon="2.3966">
        <ele>537.598</ele>
        <time>2015-08-25T18:17:10Z</time>
      </trkpt>
      <trkpt lat="43.47606" lon="2.3953">
        <ele>528.159</ele>
        <time>2015-08-25T18:17:30Z</time>
      </trkpt>
      <trkpt lat="43.47643" lon="2.39374">
        <ele>519.464</ele>
        <time>2015-08-25T18:17:50Z</time>
      </trkpt>
      <trkpt lat="43.47642" lon="2.39356">
        <ele>517.333</ele>
        <time>2015-08-25T18:18:10Z</time>
      </trkpt>
      <trkpt lat="43.47629" lon="2.39375">
        <ele>511.086</ele>
        <time>2015-08-25T18:18:30Z</time>
      </trkpt>
      <trkpt lat="43.47601" lon="2.39459">
        <ele>508.993</ele>
        <time>2015-08-25T18:18:50Z</time>
      </trkpt>
      <trkpt lat="43.47588" lon="2.39483">
        <ele>507.257</ele>
        <time>2015-08-25T18:19:10Z</time>
      </trkpt>
      <trkpt lat="43.47582" lon="2.39469">
        <ele>500.373</ele>
        <time>2015-08-25T18:19:30Z</time>
      </trkpt>
      <trkpt lat="43.47604" lon="2.39383">
        <ele>494.285</ele>
        <time>2015-08-25T18:19:50Z</time>
      </trkpt>
      <trkpt lat="43.47608" lon="2.39348">
        <ele>495.313</ele>
        <time>2015-08-25T18:20:10Z</time>
      </trkpt>
      <trkpt lat="43.47607" lon="2.39315">
        <ele>496.608</ele>
        <time>2015-08-25T18:20:30Z</time>
      </trkpt>
      <trkpt lat="43.4759" lon="2.39268">
        <ele>489.073</ele>
        <time>2015-08-25T18:20:50Z</time>
      </trkpt>
      <trkpt lat="43.47577" lon="2.39232">
        <ele>486.288</ele>
        <time>2015-08-25T18:21:10Z</time>
      </trkpt>
      <trkpt lat="43.47559" lon="2.39194">
        <ele>482.749</ele>
        <time>2015-08-25T18:21:30Z</time>
      </trkpt>
      <trkpt lat="43.47552" lon="2.39165">
        <ele>479.614</ele>
        <time>2015-08-25T18:21:50Z</time>
      </trkpt>
      <trkpt lat="43.47543" lon="2.39177">
        <ele>475.113</ele>
        <time>2015-08-25T18:22:10Z</time>
      </trkpt>
      <trkpt lat="43.47558" lon="2.39216">
        <ele>477.666</ele>
        <time>2015-08-25T18:22:30Z</time>
      </trkpt>
      <trkpt lat="43.47579" lon="2.39306">
        <ele>476.273</ele>
        <time>2015-08-25T18:22:50Z</time>
      </trkpt>
      <trkpt lat="43.47572" lon="2.39299">
        <ele>471.817</ele>
        <time>2015-08-25T18:23:10Z</time>
      </trkpt>
      <trkpt lat="43.47548" lon="2.3923">
        <ele>468.061</ele>
        <time>2015-08-25T18:23:30Z</time>
      </trkpt>
      <trkpt lat="43.47543" lon="2.39239">
        <ele>462.221</ele>
        <time>2015-08-25T18:23:50Z</time>
      </trkpt>
      <trkpt lat="43.4756" lon="2.39303">
        <ele>462.113</ele>
        <time>2015-08-25T18:24:10Z</time>
      </trkpt>
      <trkpt lat="43.47559" lon="2.39319">
        <ele>458.608</ele>
        <time>2015-08-25T18:24:30Z</time>
      </trkpt>
      <trkpt lat="43.47545" lon="2.39269">
        <ele>457.112</ele>
        <time>2015-08-25T18:24:50Z</time>
      </trkpt>
      <trkpt lat="43.47522" lon="2.39221">
        <ele>453.397</ele>
        <time>2015-08-25T18:25:10Z</time>
      </trkpt>
      <trkpt lat="43.47517" lon="2.39225">
        <ele>449.088</ele>
        <time>2015-08-25T18:25:30Z</time>
      </trkpt>
      <trkpt lat="43.4753" lon="2.39257">
        <ele>448.973</ele>
        <time>2015-08-25T18:25:50Z</time>
      </trkpt>
      <trkpt lat="43.47537" lon="2.39298">
        <ele>445.922</ele>
        <time>2015-08-25T18:26:10Z</time>
      </trkpt>
      <trkpt lat="43.47536" lon="2.39314">
        <ele>442.515</ele>
        <time>2015-08-25T18:26:30Z</time>
      </trkpt>
      <trkpt lat="43.47514" lon="2.39246">
        <ele>441.962</ele>
        <time>2015-08-25T18:26:50Z</time>
      </trkpt>
      <trkpt lat="43.47455" lon="2.39163">
        <ele>425.026</ele>
        <time>2015-08-25T18:27:10Z</time>
      </trkpt>
      <trkpt lat="43.4745" lon="2.39139">
        <ele>421.029</ele>
        <time>2015-08-25T18:27:30Z</time>
      </trkpt>
      <trkpt lat="43.47443" lon="2.39143">
        <ele>417.2</ele>
        <time>2015-08-25T18:27:50Z</time>
      </trkpt>
      <trkpt lat="43.47443" lon="2.3916">
        <ele>417.32</ele>
        <time>2015-08-25T18:28:10Z</time>
      </trkpt>
      <trkpt lat="43.47489" lon="2.39249">
        <ele>426.408</ele>
        <time>2015-08-25T18:28:30Z</time>
      </trkpt>
      <trkpt lat="43.47499" lon="2.39294">
        <ele>422.688</ele>
        <time>2015-08-25T18:28:50Z</time>
      </trkpt>
      <trkpt lat="43.47455" lon="2.39216">
        <ele>415.553</ele>
        <time>2015-08-25T18:29:10Z</time>
      </trkpt>
      <trkpt lat="43.4742" lon="2.39175">
        <ele>406.424</ele>
        <time>2015-08-25T18:29:30Z</time>
      </trkpt>
      <trkpt lat="43.47414" lon="2.39185">
        <ele>402.229</ele>
        <time>2015-08-25T18:29:50Z</time>
      </trkpt>
      <trkpt lat="43.47441" lon="2.39215">
        <ele>407.328</ele>
        <time>2015-08-25T18:30:10Z</time>
      </trkpt>
      <trkpt lat="43.47457" lon="2.39253">
        <ele>403.521</ele>
        <time>2015-08-25T18:30:30Z</time>
      </trkpt>
      <trkpt lat="43.47464" lon="2.39299">
        <ele>396.978</ele>
        <time>2015-08-25T18:30:50Z</time>
      </trkpt>
      <trkpt lat="43.4746" lon="2.39334">
        <ele>392.862</ele>
        <time>2015-08-25T18:31:10Z</time>
      </trkpt>
      <trkpt lat="43.47447" lon="2.39254">
        <ele>396.338</ele>
        <time>2015-08-25T18:31:30Z</time>
      </trkpt>
      <trkpt lat="43.47381" lon="2.39193">
        <ele>386.47</ele>
        <time>2015-08-25T18:31:50Z</time>
      </trkpt>
      <trkpt lat="43.47374" lon="2.39117">
        <ele>383.817</ele>
        <time>2015-08-25T18:32:10Z</time>
      </trkpt>
      <trkpt lat="43.4739" lon="2.39046">
        <ele>379.208</ele>
        <time>2015-08-25T18:32:30Z</time>
      </trkpt>
      <trkpt lat="43.4741" lon="2.39012">
        <ele>375.089</ele>
        <time>2015-08-25T18:32:50Z</time>
      </trkpt>
      <trkpt lat="43.47474" lon="2.3896">
        <ele>371.044</ele>
        <time>2015-08-25T18:33:10Z</time>
      </trkpt>
      <trkpt lat="43.47554" lon="2.38947">
        <ele>370.675</ele>
        <time>2015-08-25T18:33:30Z</time>
      </trkpt>
      <trkpt lat="43.47602" lon="2.38892">
        <ele>374.27</ele>
        <time>2015-08-25T18:33:50Z</time>
      </trkpt>
      <trkpt lat="43.47628" lon="2.38766">
        <ele>367.959</ele>
        <time>2015-08-25T18:34:10Z</time>
      </trkpt>
      <trkpt lat="43.47648" lon="2.3871">
        <ele>364.012</ele>
        <time>2015-08-25T18:34:30Z</time>
      </trkpt>
      <trkpt lat="43.4771" lon="2.38637">
        <ele>362.169</ele>
        <time>2015-08-25T18:34:50Z</time>
      </trkpt>
      <trkpt lat="43.47684" lon="2.38605">
        <ele>366.483</ele>
        <time>2015-08-25T18:35:10Z</time>
      </trkpt>
      <trkpt lat="43.477" lon="2.38551">
        <ele>366.137</ele>
        <time>2015-08-25T18:35:30Z</time>
      </trkpt>
      <trkpt lat="43.47671" lon="2.3852">
        <ele>373.549</ele>
        <time>2015-08-25T18:35:50Z</time>
      </trkpt>
      <trkpt lat="43.4762" lon="2.38403">
        <ele>381.613</ele>
        <time>2015-08-25T18:36:10Z</time>
      </trkpt>
      <trkpt lat="43.47609" lon="2.38362">
        <ele>381.408</ele>
        <time>2015-08-25T18:36:30Z</time>
      </trkpt>
      <trkpt lat="43.47641" lon="2.38343">
        <ele>369.879</ele>
        <time>2015-08-25T18:36:50Z</time>
      </trkpt>
      <trkpt lat="43.47652" lon="2.3832">
        <ele>366.884</ele>
        <time>2015-08-25T18:37:10Z</time>
      </trkpt>
      <trkpt lat="43.47611" lon="2.38302">
        <ele>361.485</ele>
        <time>2015-08-25T18:37:30Z</time>
      </trkpt>
      <trkpt lat="43.47598" lon="2.38254">
        <ele>355.77</ele>
        <time>2015-08-25T18:37:50Z</time>
      </trkpt>
      <trkpt lat="43.47597" lon="2.38177">
        <ele>348.319</ele>
        <time>2015-08-25T18:38:10Z</time>
      </trkpt>
      <trkpt lat="43.47621" lon="2.38111">
        <ele>348.492</ele>
        <time>2015-08-25T18:38:30Z</time>
      </trkpt>
      <trkpt lat="43.47636" lon="2.38087">
        <ele>356.179</ele>
        <time>2015-08-25T18:38:50Z</time>
      </trkpt>
      <trkpt lat="43.47672" lon="2.38071">
        <ele>355.013</ele>
        <time>2015-08-25T18:39:10Z</time>
      </trkpt>
      <trkpt lat="43.477" lon="2.38081">
        <ele>349.576</ele>
        <time>2015-08-25T18:39:30Z</time>
      </trkpt>
      <trkpt lat="43.47751" lon="2.38092">
        <ele>343.39</ele>
        <time>2015-08-25T18:39:50Z</time>
      </trkpt>
      <trkpt lat="43.47751" lon="2.38092">
        <ele>343.319</ele>
        <time>2015-08-25T18:40:10Z</time>
      </trkpt>
      <trkpt lat="43.47771" lon="2.38054">
        <ele>344.208</ele>
        <time>2015-08-25T18:40:30Z</time>
      </trkpt>
      <trkpt lat="43.47772" lon="2.38004">
        <ele>347.453</ele>
        <time>2020-03-09T02:17:08Z</time>
      </trkpt>
      <trkpt lat="43.47763" lon="2.37988">
        <ele>354.248</ele>
        <time>2020-03-09T02:17:28Z</time>
      </trkpt>
      <trkpt lat="43.47755" lon="2.37999">
        <ele>357.959</ele>
        <time>2020-03-13T06:28:19Z</time>
      </trkpt>
      <trkpt lat="43.47751" lon="2.38016">
        <ele>358.764</ele>
        <time>2015-08-26T07:14:20Z</time>
      </trkpt>
      <trkpt lat="43.47725" lon="2.38037">
        <ele>363.673</ele>
        <time>2015-08-26T07:14:40Z</time>
      </trkpt>
      <trkpt lat="43.47685" lon="2.3802">
        <ele>373.966</ele>
        <time>2015-08-26T07:15:00Z</time>
      </trkpt>
      <trkpt lat="43.47589" lon="2.38011">
        <ele>396.753</ele>
        <time>2015-08-26T07:15:20Z</time>
      </trkpt>
      <trkpt lat="43.47558" lon="2.38018">
        <ele>403.067</ele>
        <time>2015-08-26T07:15:40Z</time>
      </trkpt>
      <trkpt lat="43.47566" lon="2.37993">
        <ele>410.096</ele>
        <time>2015-08-26T07:16:00Z</time>
      </trkpt>
      <trkpt lat="43.47607" lon="2.37953">
        <ele>426.831</ele>
        <time>2015-08-26T07:16:20Z</time>
      </trkpt>
      <trkpt lat="43.47552" lon="2.37939">
        <ele>437.124</ele>
        <time>2015-08-26T07:16:40Z</time>
      </trkpt>
      <trkpt lat="43.47584" lon="2.37908">
        <ele>449.908</ele>
        <time>2015-08-26T07:17:00Z</time>
      </trkpt>
      <trkpt lat="43.47653" lon="2.37887">
        <ele>453.985</ele>
        <time>2015-08-26T07:17:20Z</time>
      </trkpt>
      <trkpt lat="43.47651" lon="2.37879">
        <ele>456.53</ele>
        <time>2015-08-26T07:17:40Z</time>
      </trkpt>
      <trkpt lat="43.47622" lon="2.37881">
        <ele>460.891</ele>
        <time>2015-08-26T07:18:00Z</time>
      </trkpt>
      <trkpt lat="43.47599" lon="2.37873">
        <ele>464.966</ele>
        <time>2015-08-26T07:18:20Z</time>
      </trkpt>
      <trkpt lat="43.47614" lon="2.37862">
        <ele>468.415</ele>
        <time>2015-08-26T07:18:40Z</time>
      </trkpt>
      <trkpt lat="43.47575" lon="2.37867">
        <ele>469.448</ele>
        <time>2015-08-26T07:19:00Z</time>
      </trkpt>
      <trkpt lat="43.47592" lon="2.3785">
        <ele>474.245</ele>
        <time>2015-08-26T07:19:20Z</time>
      </trkpt>
      <trkpt lat="43.47593" lon="2.3783">
        <ele>478.159</ele>
        <time>2015-08-26T07:19:40Z</time>
      </trkpt>
      <trkpt lat="43.47575" lon="2.37839">
        <ele>481.166</ele>
        <time>2015-08-26T07:20:00Z</time>
      </trkpt>
      <trkpt lat="43.4757" lon="2.37828">
        <ele>483.829</ele>
        <time>2015-08-26T07:20:20Z</time>
      </trkpt>
      <trkpt lat="43.47555" lon="2.37829">
        <ele>487.521</ele>
        <time>2015-08-26T07:20:40Z</time>
      </trkpt>
      <trkpt lat="43.47545" lon="2.3782">
        <ele>488.008</ele>
        <time>2015-08-26T07:21:00Z</time>
      </trkpt>
      <trkpt lat="43.47499" lon="2.3782">
        <ele>497.822</ele>
        <time>2015-08-26T07:21:20Z</time>
      </trkpt>
      <trkpt lat="43.47508" lon="2.37808">
        <ele>497.927</ele>
        <time>2015-08-26T07:21:40Z</time>
      </trkpt>
      <trkpt lat="43.47503" lon="2.37782">
        <ele>497.358</ele>
        <time>2015-08-26T07:22:00Z</time>
      </trkpt>
      <trkpt lat="43.47511" lon="2.37764">
        <ele>490.013</ele>
        <time>2015-08-26T07:22:20Z</time>
      </trkpt>
      <trkpt lat="43.47491" lon="2.3777">
        <ele>499.672</ele>
        <time>2015-08-26T07:22:40Z</time>
      </trkpt>
      <trkpt lat="43.47473" lon="2.37751">
        <ele>502.925</ele>
        <time>2015-08-26T07:23:00Z</time>
      </trkpt>
      <trkpt lat="43.47439" lon="2.37766">
        <ele>514.842</ele>
        <time>2015-08-26T07:23:20Z</time>
      </trkpt>
      <trkpt lat="43.47406" lon="2.37735">
        <ele>518.526</ele>
        <time>2015-08-26T07:23:40Z</time>
      </trkpt>
      <trkpt lat="43.47386" lon="2.37719">
        <ele>521.272</ele>
        <time>2015-08-26T07:24:00Z</time>
      </trkpt>
      <trkpt lat="43.4736" lon="2.3772">
        <ele>530.613</ele>
        <time>2015-08-26T07:24:20Z</time>
      </trkpt>
      <trkpt lat="43.47341" lon="2.37712">
        <ele>531.514</ele>
        <time>2015-08-26T07:24:40Z</time>
      </trkpt>
      <trkpt lat="43.47257" lon="2.37729">
        <ele>540.608</ele>
        <time>2015-08-26T07:25:00Z</time>
      </trkpt>
      <trkpt lat="43.47251" lon="2.37741">
        <ele>544.313</ele>
        <time>2015-08-26T07:25:20Z</time>
      </trkpt>
      <trkpt lat="43.47166" lon="2.37761">
        <ele>547.618</ele>
        <time>2015-08-26T07:25:40Z</time>
      </trkpt>
      <trkpt lat="43.47115" lon="2.37787">
        <ele>552.019</ele>
        <time>2015-08-26T07:26:00Z</time>
      </trkpt>
      <trkpt lat="43.47079" lon="2.37817">
        <ele>556.874</ele>
        <time>2015-08-26T07:26:20Z</time>
      </trkpt>
      <trkpt lat="43.46971" lon="2.37866">
        <ele>565.353</ele>
        <time>2015-08-26T07:26:40Z</time>
      </trkpt>
      <trkpt lat="43.46923" lon="2.37875">
        <ele>574.836</ele>
        <time>2015-08-26T07:27:00Z</time>
      </trkpt>
      <trkpt lat="43.46898" lon="2.37914">
        <ele>587.723</ele>
        <time>2015-08-26T07:27:20Z</time>
      </trkpt>
      <trkpt lat="43.46871" lon="2.37904">
        <ele>589.877</ele>
        <time>2015-08-26T07:27:40Z</time>
      </trkpt>
      <trkpt lat="43.4684" lon="2.37915">
        <ele>597.447</ele>
        <time>2015-08-26T07:28:00Z</time>
      </trkpt>
      <trkpt lat="43.46822" lon="2.37931">
        <ele>602.329</ele>
        <time>2015-08-26T07:28:20Z</time>
      </trkpt>
      <trkpt lat="43.46785" lon="2.37955">
        <ele>610.621</ele>
        <time>2015-08-26T07:28:40Z</time>
      </trkpt>
      <trkpt lat="43.46751" lon="2.37963">
        <ele>615.308</ele>
        <time>2015-08-26T07:29:00Z</time>
      </trkpt>
      <trkpt lat="43.46706" lon="2.3796">
        <ele>620.28</ele>
        <time>2015-08-26T07:29:20Z</time>
      </trkpt>
      <trkpt lat="43.46625" lon="2.37922">
        <ele>636.235</ele>
        <time>2015-08-26T07:29:40Z</time>
      </trkpt>
      <trkpt lat="43.46559" lon="2.37914">
        <ele>648.426</ele>
        <time>2015-08-26T07:30:00Z</time>
      </trkpt>
      <trkpt lat="43.46469" lon="2.37933">
        <ele>644.061</ele>
        <time>2015-08-26T07:30:20Z</time>
      </trkpt>
      <trkpt lat="43.46442" lon="2.37928">
        <ele>639.09</ele>
        <time>2015-08-26T07:30:40Z</time>
      </trkpt>
      <trkpt lat="43.46417" lon="2.37903">
        <ele>633.113</ele>
        <time>2015-08-26T07:31:00Z</time>
      </trkpt>
      <trkpt lat="43.46328" lon="2.37898">
        <ele>620.02</ele>
        <time>2015-08-26T07:31:20Z</time>
      </trkpt>
      <trkpt lat="43.46291" lon="2.37921">
        <ele>616.334</ele>
        <time>2015-08-26T07:31:40Z</time>
      </trkpt>
      <trkpt lat="43.46319" lon="2.37855">
        <ele>613.121</ele>
        <time>2015-08-26T07:32:00Z</time>
      </trkpt>
      <trkpt lat="43.46356" lon="2.37797">
        <ele>614.341</ele>
        <time>2015-08-26T07:32:20Z</time>
      </trkpt>
      <trkpt lat="43.46342" lon="2.37751">
        <ele>613.605</ele>
        <time>2015-08-26T07:32:40Z</time>
      </trkpt>
      <trkpt lat="43.46339" lon="2.37715">
        <ele>616.308</ele>
        <time>2015-08-26T07:33:00Z</time>
      </trkpt>
      <trkpt lat="43.46319" lon="2.37651">
        <ele>612.258</ele>
        <time>2015-08-26T07:33:20Z</time>
      </trkpt>
      <trkpt lat="43.46322" lon="2.37608">
        <ele>610.333</ele>
        <time>2015-08-26T07:33:40Z</time>
      </trkpt>
      <trkpt lat="43.46347" lon="2.37473">
        <ele>603.694</ele>
        <time>2015-08-26T07:34:00Z</time>
      </trkpt>
      <trkpt lat="43.46339" lon="2.37402">
        <ele>599.329</ele>
        <time>2015-08-26T07:34:20Z</time>
      </trkpt>
      <trkpt lat="43.46324" lon="2.37359">
        <ele>594.598</ele>
        <time>2015-08-26T07:34:40Z</time>
      </trkpt>
      <trkpt lat="43.46302" lon="2.37245">
        <ele>589.161</ele>
        <time>2015-08-26T07:35:00Z</time>
      </trkpt>
      <trkpt lat="43.46265" lon="2.37182">
        <ele>589.318</ele>
        <time>2015-08-26T07:35:20Z</time>
      </trkpt>
      <trkpt lat="43.46192" lon="2.37115">
        <ele>588.212</ele>
        <time>2015-08-26T07:35:40Z</time>
      </trkpt>
      <trkpt lat="43.4615" lon="2.37055">
        <ele>587.548</ele>
        <time>2015-08-26T07:36:00Z</time>
      </trkpt>
      <trkpt lat="43.46034" lon="2.36983">
        <ele>588.661</ele>
        <time>2015-08-26T07:36:20Z</time>
      </trkpt>
      <trkpt lat="43.46" lon="2.36945">
        <ele>585.017</ele>
        <time>2015-08-26T07:36:40Z</time>
      </trkpt>
      <trkpt lat="43.45955" lon="2.3685">
        <ele>580.408</ele>
        <time>2015-08-26T07:37:00Z</time>
      </trkpt>
      <trkpt lat="43.45988" lon="2.36751">
        <ele>576.22</ele>
        <time>2015-08-26T07:37:20Z</time>
      </trkpt>
      <trkpt lat="43.46026" lon="2.36592">
        <ele>561.695</ele>
        <time>2015-08-26T07:37:40Z</time>
      </trkpt>
      <trkpt lat="43.46018" lon="2.36544">
        <ele>559.466</ele>
        <time>2015-08-26T07:38:00Z</time>
      </trkpt>
      <trkpt lat="43.45959" lon="2.36475">
        <ele>558.121</ele>
        <time>2015-08-26T07:38:20Z</time>
      </trkpt>
      <trkpt lat="43.45952" lon="2.36435">
        <ele>559.01</ele>
        <time>2015-08-26T07:38:40Z</time>
      </trkpt>
      <trkpt lat="43.45965" lon="2.36349">
        <ele>564.823</ele>
        <time>2015-08-26T07:39:00Z</time>
      </trkpt>
      <trkpt lat="43.4597" lon="2.36287">
        <ele>570.52</ele>
        <time>2015-08-26T07:39:20Z</time>
      </trkpt>
      <trkpt lat="43.45964" lon="2.36249">
        <ele>578.064</ele>
        <time>2015-08-26T07:39:40Z</time>
      </trkpt>
      <trkpt lat="43.45969" lon="2.36105">
        <ele>576.421</ele>
        <time>2015-08-26T07:40:00Z</time>
      </trkpt>
      <trkpt lat="43.45959" lon="2.36025">
        <ele>575.441</ele>
        <time>2015-08-26T07:40:20Z</time>
      </trkpt>
      <trkpt lat="43.45944" lon="2.35991">
        <ele>576.205</ele>
        <time>2015-08-26T07:40:40Z</time>
      </trkpt>
      <trkpt lat="43.45914" lon="2.3589">
        <ele>575.208</ele>
        <time>2015-08-26T07:41:00Z</time>
      </trkpt>
      <trkpt lat="43.45876" lon="2.35845">
        <ele>588.898</ele>
        <time>2015-08-26T07:41:20Z</time>
      </trkpt>
      <trkpt lat="43.45891" lon="2.35832">
        <ele>591.453</ele>
        <time>2015-08-26T07:41:40Z</time>
      </trkpt>
      <trkpt lat="43.45945" lon="2.35821">
        <ele>590.624</ele>
        <time>2015-08-26T07:42:00Z</time>
      </trkpt>
      <trkpt lat="43.45959" lon="2.35804">
        <ele>592.789</ele>
        <time>2015-08-26T07:42:20Z</time>
      </trkpt>
      <trkpt lat="43.45975" lon="2.35765">
        <ele>596.248</ele>
        <time>2015-08-26T07:42:40Z</time>
      </trkpt>
      <trkpt lat="43.45978" lon="2.35739">
        <ele>599.131</ele>
        <time>2015-08-26T07:43:00Z</time>
      </trkpt>
      <trkpt lat="43.46007" lon="2.35657">
        <ele>606.258</ele>
        <time>2015-08-26T07:43:20Z</time>
      </trkpt>
      <trkpt lat="43.4604" lon="2.35607">
        <ele>610.242</ele>
        <time>2015-08-26T07:43:40Z</time>
      </trkpt>
      <trkpt lat="43.46101" lon="2.35537">
        <ele>616.666</ele>
        <time>2015-08-26T07:44:00Z</time>
      </trkpt>
      <trkpt lat="43.4611" lon="2.3551">
        <ele>623.129</ele>
        <time>2015-08-26T07:44:20Z</time>
      </trkpt>
      <trkpt lat="43.46085" lon="2.35528">
        <ele>625.421</ele>
        <time>2015-08-26T07:44:40Z</time>
      </trkpt>
      <trkpt lat="43.46058" lon="2.35537">
        <ele>627.308</ele>
        <time>2015-08-26T07:45:00Z</time>
      </trkpt>
      <trkpt lat="43.46045" lon="2.35537">
        <ele>628.542</ele>
        <time>2015-08-26T07:45:20Z</time>
      </trkpt>
      <trkpt lat="43.46078" lon="2.35516">
        <ele>629.777</ele>
        <time>2015-08-26T07:45:40Z</time>
      </trkpt>
      <trkpt lat="43.46103" lon="2.35478">
        <ele>632.588</ele>
        <time>2015-08-26T07:46:00Z</time>
      </trkpt>
      <trkpt lat="43.46122" lon="2.35388">
        <ele>638.933</ele>
        <time>2015-08-26T07:46:20Z</time>
      </trkpt>
      <trkpt lat="43.46134" lon="2.35317">
        <ele>637.482</ele>
        <time>2015-08-26T07:46:40Z</time>
      </trkpt>
      <trkpt lat="43.46125" lon="2.35265">
        <ele>638.635</ele>
        <time>2015-08-26T07:47:00Z</time>
      </trkpt>
      <trkpt lat="43.46084" lon="2.35171">
        <ele>639.562</ele>
        <time>2015-08-26T07:47:20Z</time>
      </trkpt>
      <trkpt lat="43.46051" lon="2.35143">
        <ele>643.296</ele>
        <time>2015-08-26T07:47:40Z</time>
      </trkpt>
      <trkpt lat="43.46049" lon="2.35127">
        <ele>643.939</ele>
        <time>2015-08-26T07:48:00Z</time>
      </trkpt>
      <trkpt lat="43.46068" lon="2.35083">
        <ele>641.501</ele>
        <time>2015-08-26T07:48:20Z</time>
      </trkpt>
      <trkpt lat="43.46069" lon="2.35046">
        <ele>642.521</ele>
        <time>2015-08-26T07:48:40Z</time>
      </trkpt>
      <trkpt lat="43.46054" lon="2.35019">
        <ele>645.008</ele>
        <time>2015-08-26T07:49:00Z</time>
      </trkpt>
      <trkpt lat="43.46003" lon="2.34989">
        <ele>657.439</ele>
        <time>2015-08-26T07:49:20Z</time>
      </trkpt>
      <trkpt lat="43.46003" lon="2.34962">
        <ele>661.214</ele>
        <time>2015-08-26T07:49:40Z</time>
      </trkpt>
      <trkpt lat="43.46043" lon="2.34927">
        <ele>652.665</ele>
        <time>2015-08-26T07:50:00Z</time>
      </trkpt>
      <trkpt lat="43.46038" lon="2.34872">
        <ele>657.69</ele>
        <time>2015-08-26T07:50:20Z</time>
      </trkpt>
      <trkpt lat="43.4602" lon="2.34812">
        <ele>663.129</ele>
        <time>2015-08-26T07:50:40Z</time>
      </trkpt>
      <trkpt lat="43.46011" lon="2.34739">
        <ele>659.942</ele>
        <time>2015-08-26T07:51:00Z</time>
      </trkpt>
      <trkpt lat="43.46033" lon="2.34741">
        <ele>658.999</ele>
        <time>2015-08-26T07:51:20Z</time>
      </trkpt>
      <trkpt lat="43.46056" lon="2.34719">
        <ele>664.113</ele>
        <time>2015-08-26T07:51:40Z</time>
      </trkpt>
      <trkpt lat="43.46122" lon="2.34771">
        <ele>676.476</ele>
        <time>2015-08-26T07:52:00Z</time>
      </trkpt>
      <trkpt lat="43.46145" lon="2.34846">
        <ele>671.29</ele>
        <time>2015-08-26T07:52:20Z</time>
      </trkpt>
      <trkpt lat="43.46161" lon="2.34857">
        <ele>671.019</ele>
        <time>2015-08-26T07:52:40Z</time>
      </trkpt>
      <trkpt lat="43.46182" lon="2.34851">
        <ele>670.808</ele>
        <time>2015-08-26T07:53:00Z</time>
      </trkpt>
      <trkpt lat="43.46203" lon="2.3482">
        <ele>671.753</ele>
        <time>2015-08-26T07:53:20Z</time>
      </trkpt>
      <trkpt lat="43.4626" lon="2.34618">
        <ele>680.568</ele>
        <time>2015-08-26T07:53:40Z</time>
      </trkpt>
      <trkpt lat="43.46422" lon="2.34541">
        <ele>683.729</ele>
        <time>2015-08-26T07:54:00Z</time>
      </trkpt>
      <trkpt lat="43.46497" lon="2.34515">
        <ele>684.074</ele>
        <time>2015-08-26T07:54:20Z</time>
      </trkpt>
      <trkpt lat="43.46523" lon="2.34388">
        <ele>683.753</ele>
        <time>2015-08-26T07:54:40Z</time>
      </trkpt>
      <trkpt lat="43.46511" lon="2.34332">
        <ele>684.636</ele>
        <time>2015-08-26T07:55:00Z</time>
      </trkpt>
      <trkpt lat="43.46515" lon="2.34259">
        <ele>687.843</ele>
        <time>2015-08-26T07:55:20Z</time>
      </trkpt>
      <trkpt lat="43.46529" lon="2.34216">
        <ele>688.937</ele>
        <time>2015-08-26T07:55:40Z</time>
      </trkpt>
      <trkpt lat="43.46557" lon="2.34158">
        <ele>690.863</ele>
        <time>2015-08-26T07:56:00Z</time>
      </trkpt>
      <trkpt lat="43.466" lon="2.34037">
        <ele>704.044</ele>
        <time>2015-08-26T07:56:20Z</time>
      </trkpt>
      <trkpt lat="43.46579" lon="2.33963">
        <ele>706.118</ele>
        <time>2015-08-26T07:56:40Z</time>
      </trkpt>
      <trkpt lat="43.46616" lon="2.339">
        <ele>713.808</ele>
        <time>2015-08-26T07:57:00Z</time>
      </trkpt>
      <trkpt lat="43.46621" lon="2.33801">
        <ele>717.612</ele>
        <time>2015-08-26T07:57:20Z</time>
      </trkpt>
      <trkpt lat="43.46563" lon="2.33729">
        <ele>721.397</ele>
        <time>2015-08-26T07:57:40Z</time>
      </trkpt>
      <trkpt lat="43.46449" lon="2.33603">
        <ele>730.038</ele>
        <time>2015-08-26T07:58:00Z</time>
      </trkpt>
      <trkpt lat="43.46423" lon="2.33556">
        <ele>730.093</ele>
        <time>2015-08-26T07:58:20Z</time>
      </trkpt>
      <trkpt lat="43.46404" lon="2.33482">
        <ele>730.042</ele>
        <time>2015-08-26T07:58:40Z</time>
      </trkpt>
      <trkpt lat="43.46411" lon="2.3345">
        <ele>730.015</ele>
        <time>2015-08-26T07:59:00Z</time>
      </trkpt>
      <trkpt lat="43.46477" lon="2.33432">
        <ele>730.312</ele>
        <time>2015-08-26T07:59:20Z</time>
      </trkpt>
      <trkpt lat="43.46508" lon="2.33357">
        <ele>736.086</ele>
        <time>2015-08-26T07:59:40Z</time>
      </trkpt>
      <trkpt lat="43.4652" lon="2.33289">
        <ele>742.759</ele>
        <time>2015-08-26T08:00:00Z</time>
      </trkpt>
      <trkpt lat="43.46514" lon="2.33232">
        <ele>746.103</ele>
        <time>2015-08-26T08:00:20Z</time>
      </trkpt>
      <trkpt lat="43.46471" lon="2.33176">
        <ele>740.923</ele>
        <time>2015-08-26T08:00:40Z</time>
      </trkpt>
      <trkpt lat="43.46482" lon="2.33063">
        <ele>750.208</ele>
        <time>2015-08-26T08:01:00Z</time>
      </trkpt>
      <trkpt lat="43.46524" lon="2.3294">
        <ele>759.641</ele>
        <time>2015-08-26T08:01:20Z</time>
      </trkpt>
      <trkpt lat="43.46569" lon="2.32835">
        <ele>771.536</ele>
        <time>2015-08-26T08:01:40Z</time>
      </trkpt>
      <trkpt lat="43.46588" lon="2.32725">
        <ele>777.097</ele>
        <time>2015-08-26T08:02:00Z</time>
      </trkpt>
      <trkpt lat="43.46561" lon="2.325">
        <ele>783.662</ele>
        <time>2015-08-26T08:02:20Z</time>
      </trkpt>
      <trkpt lat="43.4648" lon="2.32439">
        <ele>795.151</ele>
        <time>2015-08-26T08:02:40Z</time>
      </trkpt>
      <trkpt lat="43.46469" lon="2.32406">
        <ele>797.964</ele>
        <time>2015-08-26T08:03:00Z</time>
      </trkpt>
      <trkpt lat="43.46478" lon="2.32373">
        <ele>799.351</ele>
        <time>2015-08-26T08:03:20Z</time>
      </trkpt>
      <trkpt lat="43.4654" lon="2.32234">
        <ele>806.095</ele>
        <time>2015-08-26T08:03:40Z</time>
      </trkpt>
      <trkpt lat="43.46537" lon="2.32161">
        <ele>811.312</ele>
        <time>2015-08-26T08:04:00Z</time>
      </trkpt>
      <trkpt lat="43.46485" lon="2.31943">
        <ele>826.232</ele>
        <time>2015-08-26T08:04:20Z</time>
      </trkpt>
      <trkpt lat="43.46343" lon="2.31708">
        <ele>837.405</ele>
        <time>2015-08-26T08:04:40Z</time>
      </trkpt>
      <trkpt lat="43.46286" lon="2.31552">
        <ele>844.108</ele>
        <time>2015-08-26T08:05:00Z</time>
      </trkpt>
      <trkpt lat="43.46165" lon="2.31389">
        <ele>859.387</ele>
        <time>2015-08-26T08:05:20Z</time>
      </trkpt>
      <trkpt lat="43.46116" lon="2.31279">
        <ele>866.232</ele>
        <time>2015-08-26T08:05:40Z</time>
      </trkpt>
      <trkpt lat="43.46053" lon="2.31182">
        <ele>876.073</ele>
        <time>2015-08-26T08:06:00Z</time>
      </trkpt>
      <trkpt lat="43.46042" lon="2.31119">
        <ele>874.938</ele>
        <time>2015-08-26T08:06:20Z</time>
      </trkpt>
      <trkpt lat="43.46053" lon="2.3099">
        <ele>876.897</ele>
        <time>2015-08-26T08:06:40Z</time>
      </trkpt>
      <trkpt lat="43.46072" lon="2.30869">
        <ele>875.04</ele>
        <time>2015-08-26T08:07:00Z</time>
      </trkpt>
      <trkpt lat="43.46073" lon="2.30758">
        <ele>868.257</ele>
        <time>2015-08-26T08:07:20Z</time>
      </trkpt>
      <trkpt lat="43.4604" lon="2.30653">
        <ele>865.731</ele>
        <time>2015-08-26T08:07:40Z</time>
      </trkpt>
      <trkpt lat="43.45971" lon="2.30508">
        <ele>868.846</ele>
        <time>2015-08-26T08:08:00Z</time>
      </trkpt>
      <trkpt lat="43.45933" lon="2.30528">
        <ele>870.488</ele>
        <time>2015-08-26T08:08:20Z</time>
      </trkpt>
      <trkpt lat="43.45875" lon="2.30517">
        <ele>872.216</ele>
        <time>2015-08-26T08:08:40Z</time>
      </trkpt>
      <trkpt lat="43.4583" lon="2.30459">
        <ele>878.708</ele>
        <time>2015-08-26T08:09:00Z</time>
      </trkpt>
      <trkpt lat="43.45767" lon="2.30402">
        <ele>879.91</ele>
        <time>2015-08-26T08:09:20Z</time>
      </trkpt>
      <trkpt lat="43.45741" lon="2.30333">
        <ele>883.455</ele>
        <time>2015-08-26T08:09:40Z</time>
      </trkpt>
      <trkpt lat="43.45711" lon="2.302">
        <ele>888.496</ele>
        <time>2015-08-26T08:10:00Z</time>
      </trkpt>
      <trkpt lat="43.45688" lon="2.30157">
        <ele>889.061</ele>
        <time>2015-08-26T08:10:20Z</time>
      </trkpt>
      <trkpt lat="43.45688" lon="2.30083">
        <ele>886.53</ele>
        <time>2015-08-26T08:10:40Z</time>
      </trkpt>
      <trkpt lat="43.457" lon="2.30052">
        <ele>886.783</ele>
        <time>2015-08-26T08:11:00Z</time>
      </trkpt>
      <trkpt lat="43.4567" lon="2.29923">
        <ele>891.71</ele>
        <time>2015-08-26T08:11:20Z</time>
      </trkpt>
      <trkpt lat="43.45634" lon="2.29873">
        <ele>891.624</ele>
        <time>2015-08-26T08:11:40Z</time>
      </trkpt>
      <trkpt lat="43.45598" lon="2.2976">
        <ele>896.323</ele>
        <time>2015-08-26T08:12:00Z</time>
      </trkpt>
      <trkpt lat="43.45559" lon="2.29688">
        <ele>901.583</ele>
        <time>2015-08-26T08:12:20Z</time>
      </trkpt>
      <trkpt lat="43.45534" lon="2.29623">
        <ele>903.111</ele>
        <time>2015-08-26T08:12:40Z</time>
      </trkpt>
      <trkpt lat="43.45515" lon="2.29541">
        <ele>907.808</ele>
        <time>2015-08-26T08:13:00Z</time>
      </trkpt>
      <trkpt lat="43.45461" lon="2.29458">
        <ele>903.358</ele>
        <time>2015-08-26T08:13:20Z</time>
      </trkpt>
      <trkpt lat="43.45455" lon="2.29422">
        <ele>906.353</ele>
        <time>2015-08-26T08:13:40Z</time>
      </trkpt>
      <trkpt lat="43.45468" lon="2.2932">
        <ele>916.884</ele>
        <time>2015-08-26T08:14:00Z</time>
      </trkpt>
      <trkpt lat="43.45402" lon="2.29169">
        <ele>918.159</ele>
        <time>2015-08-26T08:14:20Z</time>
      </trkpt>
      <trkpt lat="43.45297" lon="2.2911">
        <ele>914.978</ele>
        <time>2015-08-26T08:14:40Z</time>
      </trkpt>
      <trkpt lat="43.45253" lon="2.29027">
        <ele>920.471</ele>
        <time>2015-08-26T08:15:00Z</time>
      </trkpt>
      <trkpt lat="43.45225" lon="2.29012">
        <ele>921.958</ele>
        <time>2015-08-26T08:15:20Z</time>
      </trkpt>
      <trkpt lat="43.45172" lon="2.28997">
        <ele>925.122</ele>
        <time>2015-08-26T08:15:40Z</time>
      </trkpt>
      <trkpt lat="43.45153" lon="2.2895">
        <ele>925.471</ele>
        <time>2015-08-26T08:16:00Z</time>
      </trkpt>
      <trkpt lat="43.4511" lon="2.28892">
        <ele>922.141</ele>
        <time>2015-08-26T08:16:20Z</time>
      </trkpt>
      <trkpt lat="43.45071" lon="2.28825">
        <ele>918.715</ele>
        <time>2015-08-26T08:16:40Z</time>
      </trkpt>
      <trkpt lat="43.45073" lon="2.28734">
        <ele>918.708</ele>
        <time>2015-08-26T08:17:00Z</time>
      </trkpt>
      <trkpt lat="43.45018" lon="2.2864">
        <ele>918.553</ele>
        <time>2015-08-26T08:17:20Z</time>
      </trkpt>
      <trkpt lat="43.44977" lon="2.28552">
        <ele>913.858</ele>
        <time>2015-08-26T08:17:40Z</time>
      </trkpt>
      <trkpt lat="43.44969" lon="2.28546">
        <ele>912.369</ele>
        <time>2015-08-26T08:18:00Z</time>
      </trkpt>
      <trkpt lat="43.44966" lon="2.28473">
        <ele>909.864</ele>
        <time>2015-08-26T08:18:20Z</time>
      </trkpt>
      <trkpt lat="43.44976" lon="2.28409">
        <ele>908.263</ele>
        <time>2015-08-26T08:18:40Z</time>
      </trkpt>
      <trkpt lat="43.44966" lon="2.28345">
        <ele>903.726</ele>
        <time>2015-08-26T08:19:00Z</time>
      </trkpt>
      <trkpt lat="43.44997" lon="2.28285">
        <ele>901.443</ele>
        <time>2015-08-26T08:19:20Z</time>
      </trkpt>
      <trkpt lat="43.4505" lon="2.28227">
        <ele>902.637</ele>
        <time>2015-08-26T08:19:40Z</time>
      </trkpt>
      <trkpt lat="43.45082" lon="2.28175">
        <ele>901.643</ele>
        <time>2015-08-26T08:20:00Z</time>
      </trkpt>
      <trkpt lat="43.45107" lon="2.28104">
        <ele>897.564</ele>
        <time>2015-08-26T08:20:20Z</time>
      </trkpt>
      <trkpt lat="43.45149" lon="2.2802">
        <ele>892.81</ele>
        <time>2015-08-26T08:20:40Z</time>
      </trkpt>
      <trkpt lat="43.45196" lon="2.27983">
        <ele>888.308</ele>
        <time>2015-08-26T08:21:00Z</time>
      </trkpt>
      <trkpt lat="43.45224" lon="2.27987">
        <ele>882.88</ele>
        <time>2015-08-26T08:21:20Z</time>
      </trkpt>
      <trkpt lat="43.45279" lon="2.28038">
        <ele>881.215</ele>
        <time>2015-08-26T08:21:40Z</time>
      </trkpt>
      <trkpt lat="43.45297" lon="2.28024">
        <ele>878.866</ele>
        <time>2015-08-26T08:22:00Z</time>
      </trkpt>
      <trkpt lat="43.4526" lon="2.27911">
        <ele>872.171</ele>
        <time>2015-08-26T08:22:20Z</time>
      </trkpt>
      <trkpt lat="43.45249" lon="2.27661">
        <ele>870.07</ele>
        <time>2015-08-26T08:22:40Z</time>
      </trkpt>
      <trkpt lat="43.45286" lon="2.27554">
        <ele>870.953</ele>
        <time>2015-08-26T08:23:00Z</time>
      </trkpt>
      <trkpt lat="43.45307" lon="2.27422">
        <ele>875.49</ele>
        <time>2015-08-26T08:23:20Z</time>
      </trkpt>
      <trkpt lat="43.45288" lon="2.27323">
        <ele>872.584</ele>
        <time>2015-08-26T08:23:40Z</time>
      </trkpt>
      <trkpt lat="43.45238" lon="2.27256">
        <ele>871.831</ele>
        <time>2015-08-26T08:24:00Z</time>
      </trkpt>
      <trkpt lat="43.45228" lon="2.27199">
        <ele>874.061</ele>
        <time>2015-08-26T08:24:20Z</time>
      </trkpt>
      <trkpt lat="43.45231" lon="2.27078">
        <ele>883.507</ele>
        <time>2015-08-26T08:24:40Z</time>
      </trkpt>
      <trkpt lat="43.45213" lon="2.27058">
        <ele>883.308</ele>
        <time>2015-08-26T08:25:00Z</time>
      </trkpt>
      <trkpt lat="43.45187" lon="2.27049">
        <ele>880.369</ele>
        <time>2015-08-26T08:25:20Z</time>
      </trkpt>
      <trkpt lat="43.45179" lon="2.27022">
        <ele>881.814</ele>
        <time>2015-08-26T08:25:40Z</time>
      </trkpt>
      <trkpt lat="43.45193" lon="2.26976">
        <ele>888.515</ele>
        <time>2015-08-26T08:26:00Z</time>
      </trkpt>
      <trkpt lat="43.4521" lon="2.26855">
        <ele>891.94</ele>
        <time>2015-08-26T08:26:20Z</time>
      </trkpt>
      <trkpt lat="43.45237" lon="2.26743">
        <ele>890.739</ele>
        <time>2015-08-26T08:26:40Z</time>
      </trkpt>
      <trkpt lat="43.45257" lon="2.26704">
        <ele>890.022</ele>
        <time>2015-08-26T08:27:00Z</time>
      </trkpt>
      <trkpt lat="43.45301" lon="2.26551">
        <ele>879.579</ele>
        <time>2015-08-26T08:27:20Z</time>
      </trkpt>
      <trkpt lat="43.45338" lon="2.26503">
        <ele>877.483</ele>
        <time>2015-08-26T08:27:40Z</time>
      </trkpt>
      <trkpt lat="43.45375" lon="2.26482">
        <ele>876.837</ele>
        <time>2015-08-26T08:28:00Z</time>
      </trkpt>
      <trkpt lat="43.45383" lon="2.2642">
        <ele>872.549</ele>
        <time>2015-08-26T08:28:20Z</time>
      </trkpt>
      <trkpt lat="43.45368" lon="2.26379">
        <ele>869.913</ele>
        <time>2015-08-26T08:28:40Z</time>
      </trkpt>
      <trkpt lat="43.45337" lon="2.26345">
        <ele>869.008</ele>
        <time>2015-08-26T08:29:00Z</time>
      </trkpt>
      <trkpt lat="43.45332" lon="2.26298">
        <ele>867.799</ele>
        <time>2015-08-26T08:29:20Z</time>
      </trkpt>
      <trkpt lat="43.45332" lon="2.26215">
        <ele>865.794</ele>
        <time>2015-08-26T08:29:40Z</time>
      </trkpt>
      <trkpt lat="43.45196" lon="2.25954">
        <ele>850.455</ele>
        <time>2015-08-26T08:30:00Z</time>
      </trkpt>
      <trkpt lat="43.4533" lon="2.25835">
        <ele>849.08</ele>
        <time>2015-08-26T08:30:20Z</time>
      </trkpt>
      <trkpt lat="43.45404" lon="2.25792">
        <ele>846.279</ele>
        <time>2015-08-26T08:30:40Z</time>
      </trkpt>
      <trkpt lat="43.45498" lon="2.25722">
        <ele>840.872</ele>
        <time>2015-08-26T08:31:00Z</time>
      </trkpt>
      <trkpt lat="43.45547" lon="2.25738">
        <ele>838.499</ele>
        <time>2015-08-26T08:31:20Z</time>
      </trkpt>
      <trkpt lat="43.45583" lon="2.25793">
        <ele>841.263</ele>
        <time>2015-08-26T08:31:40Z</time>
      </trkpt>
      <trkpt lat="43.45643" lon="2.25797">
        <ele>836.442</ele>
        <time>2015-08-26T08:32:00Z</time>
      </trkpt>
      <trkpt lat="43.45691" lon="2.25695">
        <ele>838.922</ele>
        <time>2015-08-26T08:32:20Z</time>
      </trkpt>
      <trkpt lat="43.45703" lon="2.25591">
        <ele>841.214</ele>
        <time>2015-08-26T08:32:40Z</time>
      </trkpt>
      <trkpt lat="43.45688" lon="2.2556">
        <ele>843.908</ele>
        <time>2015-08-26T08:33:00Z</time>
      </trkpt>
      <trkpt lat="43.45582" lon="2.25469">
        <ele>848.48</ele>
        <time>2015-08-26T08:33:20Z</time>
      </trkpt>
      <trkpt lat="43.45546" lon="2.25384">
        <ele>853.195</ele>
        <time>2015-08-26T08:33:40Z</time>
      </trkpt>
      <trkpt lat="43.45558" lon="2.2535">
        <ele>855.056</ele>
        <time>2015-08-26T08:34:00Z</time>
      </trkpt>
      <trkpt lat="43.45941" lon="2.25076">
        <ele>879.921</ele>
        <time>2015-08-26T08:34:20Z</time>
      </trkpt>
      <trkpt lat="43.45969" lon="2.25015">
        <ele>879.91</ele>
        <time>2015-08-26T08:34:40Z</time>
      </trkpt>
      <trkpt lat="43.45987" lon="2.24816">
        <ele>877.673</ele>
        <time>2015-08-26T08:35:00Z</time>
      </trkpt>
      <trkpt lat="43.46033" lon="2.24705">
        <ele>878.11</ele>
        <time>2015-08-26T08:35:20Z</time>
      </trkpt>
      <trkpt lat="43.46029" lon="2.24608">
        <ele>875.114</ele>
        <time>2015-08-26T08:35:40Z</time>
      </trkpt>
      <trkpt lat="43.46085" lon="2.24404">
        <ele>875.481</ele>
        <time>2015-08-26T08:36:00Z</time>
      </trkpt>
      <trkpt lat="43.46085" lon="2.2433">
        <ele>871.161</ele>
        <time>2015-08-26T08:36:20Z</time>
      </trkpt>
      <trkpt lat="43.4605" lon="2.24241">
        <ele>862.717</ele>
        <time>2015-08-26T08:36:40Z</time>
      </trkpt>
      <trkpt lat="43.46049" lon="2.24179">
        <ele>861.508</ele>
        <time>2015-08-26T08:37:00Z</time>
      </trkpt>
      <trkpt lat="43.46063" lon="2.24121">
        <ele>858.074</ele>
        <time>2015-08-26T08:37:20Z</time>
      </trkpt>
      <trkpt lat="43.46042" lon="2.2411">
        <ele>856.489</ele>
        <time>2015-08-26T08:37:40Z</time>
      </trkpt>
      <trkpt lat="43.46051" lon="2.24087">
        <ele>854.41</ele>
        <time>2015-08-26T08:38:00Z</time>
      </trkpt>
      <trkpt lat="43.46032" lon="2.24015">
        <ele>849.545</ele>
        <time>2015-08-26T08:38:20Z</time>
      </trkpt>
      <trkpt lat="43.46035" lon="2.23983">
        <ele>845.464</ele>
        <time>2015-08-26T08:38:40Z</time>
      </trkpt>
      <trkpt lat="43.46031" lon="2.2394">
        <ele>842.887</ele>
        <time>2015-08-26T08:39:00Z</time>
      </trkpt>
      <trkpt lat="43.46031" lon="2.23922">
        <ele>841.364</ele>
        <time>2015-08-26T08:39:20Z</time>
      </trkpt>
      <trkpt lat="43.46015" lon="2.23868">
        <ele>840.228</ele>
        <time>2015-08-26T08:39:40Z</time>
      </trkpt>
      <trkpt lat="43.45996" lon="2.23852">
        <ele>841.457</ele>
        <time>2015-08-26T08:40:00Z</time>
      </trkpt>
      <trkpt lat="43.45926" lon="2.2382">
        <ele>842</ele>
        <time>2015-08-26T08:40:20Z</time>
      </trkpt>
      <trkpt lat="43.4588" lon="2.2381">
        <ele>842.12</ele>
        <time>2015-08-26T08:40:40Z</time>
      </trkpt>
      <trkpt lat="43.45824" lon="2.2382">
        <ele>844.208</ele>
        <time>2015-08-26T08:41:00Z</time>
      </trkpt>
      <trkpt lat="43.45767" lon="2.2382">
        <ele>844.931</ele>
        <time>2015-08-26T08:41:20Z</time>
      </trkpt>
      <trkpt lat="43.45621" lon="2.23752">
        <ele>849.056</ele>
        <time>2015-08-26T08:41:40Z</time>
      </trkpt>
      <trkpt lat="43.45483" lon="2.23669">
        <ele>854.427</ele>
        <time>2015-08-26T08:42:00Z</time>
      </trkpt>
      <trkpt lat="43.45469" lon="2.23646">
        <ele>856.562</ele>
        <time>2015-08-26T08:42:20Z</time>
      </trkpt>
      <trkpt lat="43.45467" lon="2.23579">
        <ele>863.221</ele>
        <time>2015-08-26T08:42:40Z</time>
      </trkpt>
      <trkpt lat="43.45487" lon="2.23508">
        <ele>872.374</ele>
        <time>2015-08-26T08:43:00Z</time>
      </trkpt>
      <trkpt lat="43.45487" lon="2.23467">
        <ele>876.071</ele>
        <time>2015-08-26T08:43:20Z</time>
      </trkpt>
      <trkpt lat="43.45444" lon="2.23376">
        <ele>883.255</ele>
        <time>2015-08-26T08:43:40Z</time>
      </trkpt>
      <trkpt lat="43.45402" lon="2.23314">
        <ele>887.927</ele>
        <time>2015-08-26T08:44:00Z</time>
      </trkpt>
      <trkpt lat="43.45326" lon="2.23251">
        <ele>890.668</ele>
        <time>2015-08-26T08:44:20Z</time>
      </trkpt>
      <trkpt lat="43.45322" lon="2.23206">
        <ele>893.514</ele>
        <time>2015-08-26T08:44:40Z</time>
      </trkpt>
      <trkpt lat="43.45335" lon="2.23172">
        <ele>896.808</ele>
        <time>2015-08-26T08:45:00Z</time>
      </trkpt>
      <trkpt lat="43.45365" lon="2.23153">
        <ele>899.248</ele>
        <time>2015-08-26T08:45:20Z</time>
      </trkpt>
      <trkpt lat="43.45415" lon="2.23131">
        <ele>901.613</ele>
        <time>2015-08-26T08:45:40Z</time>
      </trkpt>
      <trkpt lat="43.45435" lon="2.23097">
        <ele>901.974</ele>
        <time>2015-08-26T08:46:00Z</time>
      </trkpt>
      <trkpt lat="43.45451" lon="2.23047">
        <ele>900.229</ele>
        <time>2015-08-26T08:46:20Z</time>
      </trkpt>
      <trkpt lat="43.45451" lon="2.2298">
        <ele>895.348</ele>
        <time>2015-08-26T08:46:40Z</time>
      </trkpt>
      <trkpt lat="43.45444" lon="2.22945">
        <ele>892.021</ele>
        <time>2015-08-26T08:47:00Z</time>
      </trkpt>
      <trkpt lat="43.45429" lon="2.22838">
        <ele>884.858</ele>
        <time>2015-08-26T08:47:20Z</time>
      </trkpt>
      <trkpt lat="43.45408" lon="2.22781">
        <ele>880.942</ele>
        <time>2015-08-26T08:47:40Z</time>
      </trkpt>
      <trkpt lat="43.45398" lon="2.22746">
        <ele>879.324</ele>
        <time>2015-08-26T08:48:00Z</time>
      </trkpt>
      <trkpt lat="43.45377" lon="2.227">
        <ele>878.904</ele>
        <time>2015-08-26T08:48:20Z</time>
      </trkpt>
      <trkpt lat="43.45343" lon="2.22648">
        <ele>879.514</ele>
        <time>2015-08-26T08:48:40Z</time>
      </trkpt>
      <trkpt lat="43.45301" lon="2.22607">
        <ele>880.308</ele>
        <time>2015-08-26T08:49:00Z</time>
      </trkpt>
      <trkpt lat="43.45251" lon="2.22511">
        <ele>888.168</ele>
        <time>2015-08-26T08:49:20Z</time>
      </trkpt>
      <trkpt lat="43.45217" lon="2.2252">
        <ele>891.343</ele>
        <time>2015-08-26T08:49:40Z</time>
      </trkpt>
      <trkpt lat="43.45186" lon="2.22536">
        <ele>892.254</ele>
        <time>2015-08-26T08:50:00Z</time>
      </trkpt>
      <trkpt lat="43.45117" lon="2.22553">
        <ele>894.739</ele>
        <time>2015-08-26T08:50:20Z</time>
      </trkpt>
      <trkpt lat="43.45073" lon="2.22548">
        <ele>898.888</ele>
        <time>2015-08-26T08:50:40Z</time>
      </trkpt>
      <trkpt lat="43.45033" lon="2.2253">
        <ele>900.741</ele>
        <time>2015-08-26T08:51:00Z</time>
      </trkpt>
      <trkpt lat="43.45011" lon="2.22515">
        <ele>899.958</ele>
        <time>2015-08-26T08:51:20Z</time>
      </trkpt>
      <trkpt lat="43.44999" lon="2.22489">
        <ele>900.942</ele>
        <time>2015-08-26T08:51:40Z</time>
      </trkpt>
      <trkpt lat="43.44993" lon="2.2246">
        <ele>901.151</ele>
        <time>2015-08-26T08:52:00Z</time>
      </trkpt>
      <trkpt lat="43.4499" lon="2.22352">
        <ele>903.601</ele>
        <time>2015-08-26T08:52:20Z</time>
      </trkpt>
      <trkpt lat="43.44955" lon="2.22247">
        <ele>902.211</ele>
        <time>2015-08-26T08:52:40Z</time>
      </trkpt>
      <trkpt lat="43.44926" lon="2.22183">
        <ele>899.908</ele>
        <time>2015-08-26T08:53:00Z</time>
      </trkpt>
      <trkpt lat="43.44903" lon="2.22148">
        <ele>899.751</ele>
        <time>2015-08-26T08:53:20Z</time>
      </trkpt>
      <trkpt lat="43.4488" lon="2.22128">
        <ele>900.786</ele>
        <time>2015-08-26T08:53:40Z</time>
      </trkpt>
      <trkpt lat="43.44829" lon="2.22119">
        <ele>903.427</ele>
        <time>2015-08-26T08:54:00Z</time>
      </trkpt>
      <trkpt lat="43.44801" lon="2.22122">
        <ele>903.882</ele>
        <time>2015-08-26T08:54:20Z</time>
      </trkpt>
      <trkpt lat="43.44736" lon="2.22101">
        <ele>903.231</ele>
        <time>2015-08-26T08:54:40Z</time>
      </trkpt>
      <trkpt lat="43.44675" lon="2.2206">
        <ele>907.144</ele>
        <time>2015-08-26T08:55:00Z</time>
      </trkpt>
      <trkpt lat="43.44654" lon="2.2206">
        <ele>908.021</ele>
        <time>2015-08-26T08:55:20Z</time>
      </trkpt>
      <trkpt lat="43.44577" lon="2.2213">
        <ele>901.575</ele>
        <time>2015-08-26T08:55:40Z</time>
      </trkpt>
      <trkpt lat="43.44526" lon="2.22169">
        <ele>901.062</ele>
        <time>2015-08-26T08:56:00Z</time>
      </trkpt>
      <trkpt lat="43.44496" lon="2.22214">
        <ele>899.883</ele>
        <time>2015-08-26T08:56:20Z</time>
      </trkpt>
      <trkpt lat="43.44481" lon="2.22249">
        <ele>897.211</ele>
        <time>2015-08-26T08:56:40Z</time>
      </trkpt>
      <trkpt lat="43.44448" lon="2.22301">
        <ele>892.508</ele>
        <time>2015-08-26T08:57:00Z</time>
      </trkpt>
      <trkpt lat="43.44425" lon="2.22348">
        <ele>887.222</ele>
        <time>2015-08-26T08:57:20Z</time>
      </trkpt>
      <trkpt lat="43.44406" lon="2.22373">
        <ele>885.117</ele>
        <time>2015-08-26T08:57:40Z</time>
      </trkpt>
      <trkpt lat="43.44361" lon="2.22378">
        <ele>883.018</ele>
        <time>2015-08-26T08:58:00Z</time>
      </trkpt>
      <trkpt lat="43.44325" lon="2.22335">
        <ele>879.953</ele>
        <time>2015-08-26T08:58:20Z</time>
      </trkpt>
      <trkpt lat="43.44283" lon="2.22319">
        <ele>876.552</ele>
        <time>2015-08-26T08:58:40Z</time>
      </trkpt>
      <trkpt lat="43.44245" lon="2.22312">
        <ele>869.735</ele>
        <time>2015-08-26T08:59:00Z</time>
      </trkpt>
      <trkpt lat="43.44225" lon="2.22263">
        <ele>869.132</ele>
        <time>2015-08-26T08:59:20Z</time>
      </trkpt>
      <trkpt lat="43.44224" lon="2.22216">
        <ele>870.666</ele>
        <time>2015-08-26T08:59:40Z</time>
      </trkpt>
      <trkpt lat="43.44287" lon="2.22046">
        <ele>873.665</ele>
        <time>2015-08-26T09:00:00Z</time>
      </trkpt>
      <trkpt lat="43.4435" lon="2.21885">
        <ele>868.268</ele>
        <time>2015-08-26T09:00:20Z</time>
      </trkpt>
      <trkpt lat="43.4449" lon="2.21697">
        <ele>867.114</ele>
        <time>2015-08-26T09:00:40Z</time>
      </trkpt>
      <trkpt lat="43.4457" lon="2.21622">
        <ele>868.508</ele>
        <time>2015-08-26T09:01:00Z</time>
      </trkpt>
      <trkpt lat="43.44619" lon="2.21596">
        <ele>871.542</ele>
        <time>2015-08-26T09:01:20Z</time>
      </trkpt>
      <trkpt lat="43.44651" lon="2.21556">
        <ele>874.117</ele>
        <time>2015-08-26T09:01:40Z</time>
      </trkpt>
      <trkpt lat="43.4465" lon="2.21501">
        <ele>875.188</ele>
        <time>2015-08-26T09:02:00Z</time>
      </trkpt>
      <trkpt lat="43.44612" lon="2.21472">
        <ele>874.243</ele>
        <time>2015-08-26T09:02:20Z</time>
      </trkpt>
      <trkpt lat="43.44585" lon="2.21442">
        <ele>876.512</ele>
        <time>2015-08-26T09:02:40Z</time>
      </trkpt>
      <trkpt lat="43.44537" lon="2.21399">
        <ele>878.335</ele>
        <time>2015-08-26T09:03:00Z</time>
      </trkpt>
      <trkpt lat="43.44498" lon="2.21377">
        <ele>878.782</ele>
        <time>2015-08-26T09:03:20Z</time>
      </trkpt>
      <trkpt lat="43.44446" lon="2.21363">
        <ele>878.686</ele>
        <time>2015-08-26T09:03:40Z</time>
      </trkpt>
      <trkpt lat="43.44416" lon="2.21335">
        <ele>879.857</ele>
        <time>2015-08-26T09:04:00Z</time>
      </trkpt>
      <trkpt lat="43.44377" lon="2.2131">
        <ele>881.5</ele>
        <time>2015-08-26T09:04:20Z</time>
      </trkpt>
      <trkpt lat="43.44335" lon="2.21255">
        <ele>888.92</ele>
        <time>2015-08-26T09:04:40Z</time>
      </trkpt>
      <trkpt lat="43.44272" lon="2.2123">
        <ele>886.408</ele>
        <time>2015-08-26T09:05:00Z</time>
      </trkpt>
      <trkpt lat="43.44224" lon="2.21146">
        <ele>886.561</ele>
        <time>2015-08-26T09:05:20Z</time>
      </trkpt>
      <trkpt lat="43.44166" lon="2.2108">
        <ele>875.126</ele>
        <time>2015-08-26T09:05:40Z</time>
      </trkpt>
      <trkpt lat="43.44133" lon="2.21016">
        <ele>872.087</ele>
        <time>2015-08-26T09:06:00Z</time>
      </trkpt>
      <trkpt lat="43.44015" lon="2.20858">
        <ele>863.712</ele>
        <time>2015-08-26T09:06:20Z</time>
      </trkpt>
      <trkpt lat="43.43972" lon="2.20784">
        <ele>862.451</ele>
        <time>2015-08-26T09:06:40Z</time>
      </trkpt>
      <trkpt lat="43.43915" lon="2.2074">
        <ele>857.064</ele>
        <time>2015-08-26T09:07:00Z</time>
      </trkpt>
      <trkpt lat="43.43882" lon="2.20684">
        <ele>854.491</ele>
        <time>2015-08-26T09:07:20Z</time>
      </trkpt>
      <trkpt lat="43.43779" lon="2.20602">
        <ele>855.935</ele>
        <time>2015-08-26T09:07:40Z</time>
      </trkpt>
      <trkpt lat="43.43713" lon="2.20633">
        <ele>858.049</ele>
        <time>2015-08-26T09:08:00Z</time>
      </trkpt>
      <trkpt lat="43.43662" lon="2.20664">
        <ele>860.002</ele>
        <time>2015-08-26T09:08:20Z</time>
      </trkpt>
      <trkpt lat="43.43583" lon="2.20765">
        <ele>858.222</ele>
        <time>2015-08-26T09:08:40Z</time>
      </trkpt>
      <trkpt lat="43.43538" lon="2.20794">
        <ele>849.908</ele>
        <time>2015-08-26T09:09:00Z</time>
      </trkpt>
      <trkpt lat="43.43446" lon="2.2075">
        <ele>855.13</ele>
        <time>2015-08-26T09:09:20Z</time>
      </trkpt>
      <trkpt lat="43.43418" lon="2.20751">
        <ele>854.765</ele>
        <time>2015-08-26T09:09:40Z</time>
      </trkpt>
      <trkpt lat="43.43323" lon="2.20776">
        <ele>853.646</ele>
        <time>2015-08-26T09:10:00Z</time>
      </trkpt>
      <trkpt lat="43.43246" lon="2.20734">
        <ele>859.741</ele>
        <time>2015-08-26T09:10:20Z</time>
      </trkpt>
      <trkpt lat="43.43208" lon="2.20674">
        <ele>861.22</ele>
        <time>2015-08-26T09:10:40Z</time>
      </trkpt>
      <trkpt lat="43.43159" lon="2.20668">
        <ele>860.093</ele>
        <time>2015-08-26T09:11:00Z</time>
      </trkpt>
      <trkpt lat="43.43098" lon="2.20715">
        <ele>860.48</ele>
        <time>2015-08-26T09:11:20Z</time>
      </trkpt>
      <trkpt lat="43.43061" lon="2.20757">
        <ele>863.474</ele>
        <time>2015-08-26T09:11:40Z</time>
      </trkpt>
      <trkpt lat="43.42999" lon="2.20772">
        <ele>866.357</ele>
        <time>2015-08-26T09:12:00Z</time>
      </trkpt>
      <trkpt lat="43.42812" lon="2.20222">
        <ele>819</ele>
        <time>2015-08-26T09:12:20Z</time>
      </trkpt>
      <trkpt lat="43.42849" lon="2.20192">
        <ele>819.02</ele>
        <time>2015-08-26T09:12:40Z</time>
      </trkpt>
      <trkpt lat="43.4289" lon="2.20155">
        <ele>817.908</ele>
        <time>2015-08-26T09:13:00Z</time>
      </trkpt>
      <trkpt lat="43.42972" lon="2.20172">
        <ele>812.221</ele>
        <time>2015-08-26T09:13:20Z</time>
      </trkpt>
      <trkpt lat="43.43049" lon="2.20151">
        <ele>811.186</ele>
        <time>2015-08-26T09:13:40Z</time>
      </trkpt>
      <trkpt lat="43.43097" lon="2.20053">
        <ele>805.967</ele>
        <time>2015-08-26T09:14:00Z</time>
      </trkpt>
      <trkpt lat="43.43188" lon="2.19972">
        <ele>799.242</ele>
        <time>2015-08-26T09:14:20Z</time>
      </trkpt>
      <trkpt lat="43.43285" lon="2.1992">
        <ele>789.871</ele>
        <time>2015-08-26T09:14:40Z</time>
      </trkpt>
      <trkpt lat="43.43311" lon="2.19868">
        <ele>785.354</ele>
        <time>2015-08-26T09:15:00Z</time>
      </trkpt>
      <trkpt lat="43.43339" lon="2.19701">
        <ele>777.151</ele>
        <time>2015-08-26T09:15:20Z</time>
      </trkpt>
      <trkpt lat="43.43342" lon="2.19606">
        <ele>769.045</ele>
        <time>2015-08-26T09:15:40Z</time>
      </trkpt>
      <trkpt lat="43.4335" lon="2.1958">
        <ele>767.467</ele>
        <time>2015-08-26T09:16:00Z</time>
      </trkpt>
      <trkpt lat="43.43403" lon="2.19545">
        <ele>764.381</ele>
        <time>2015-08-26T09:16:20Z</time>
      </trkpt>
      <trkpt lat="43.43463" lon="2.19551">
        <ele>759.119</ele>
        <time>2015-08-26T09:16:40Z</time>
      </trkpt>
      <trkpt lat="43.43559" lon="2.19448">
        <ele>749.108</ele>
        <time>2015-08-26T09:17:00Z</time>
      </trkpt>
      <trkpt lat="43.4363" lon="2.194">
        <ele>741.062</ele>
        <time>2015-08-26T09:17:20Z</time>
      </trkpt>
      <trkpt lat="43.4369" lon="2.19402">
        <ele>736.527</ele>
        <time>2015-08-26T09:17:40Z</time>
      </trkpt>
      <trkpt lat="43.43777" lon="2.19439">
        <ele>732.038</ele>
        <time>2015-08-26T09:18:00Z</time>
      </trkpt>
      <trkpt lat="43.43877" lon="2.19445">
        <ele>726.093</ele>
        <time>2015-08-26T09:18:20Z</time>
      </trkpt>
      <trkpt lat="43.44016" lon="2.19403">
        <ele>716.192</ele>
        <time>2015-08-26T09:18:40Z</time>
      </trkpt>
      <trkpt lat="43.44014" lon="2.19322">
        <ele>713.125</ele>
        <time>2015-08-26T09:19:00Z</time>
      </trkpt>
      <trkpt lat="43.43982" lon="2.19057">
        <ele>694.882</ele>
        <time>2015-08-26T09:19:20Z</time>
      </trkpt>
      <trkpt lat="43.43965" lon="2.1899">
        <ele>689.036</ele>
        <time>2015-08-26T09:19:40Z</time>
      </trkpt>
      <trkpt lat="43.43924" lon="2.18935">
        <ele>684.757</ele>
        <time>2015-08-26T09:20:00Z</time>
      </trkpt>
      <trkpt lat="43.43897" lon="2.18878">
        <ele>679.9</ele>
        <time>2015-08-26T09:20:20Z</time>
      </trkpt>
      <trkpt lat="43.43912" lon="2.18796">
        <ele>678.72</ele>
        <time>2015-08-26T09:20:40Z</time>
      </trkpt>
      <trkpt lat="43.43893" lon="2.18733">
        <ele>677.508</ele>
        <time>2015-08-26T09:21:00Z</time>
      </trkpt>
      <trkpt lat="43.43866" lon="2.18683">
        <ele>674.441</ele>
        <time>2015-08-26T09:21:20Z</time>
      </trkpt>
      <trkpt lat="43.43849" lon="2.18616">
        <ele>671.466</ele>
        <time>2015-08-26T09:21:40Z</time>
      </trkpt>
      <trkpt lat="43.43766" lon="2.18564">
        <ele>674.547</ele>
        <time>2015-08-26T09:22:00Z</time>
      </trkpt>
      <trkpt lat="43.43705" lon="2.185">
        <ele>675.322</ele>
        <time>2015-08-26T09:22:20Z</time>
      </trkpt>
      <trkpt lat="43.43681" lon="2.18418">
        <ele>675.551</ele>
        <time>2015-08-26T09:22:40Z</time>
      </trkpt>
      <trkpt lat="43.43626" lon="2.18321">
        <ele>678.424</ele>
        <time>2015-08-26T09:23:00Z</time>
      </trkpt>
      <trkpt lat="43.43611" lon="2.18228">
        <ele>673.731</ele>
        <time>2015-08-26T09:23:20Z</time>
      </trkpt>
      <trkpt lat="43.4356" lon="2.18094">
        <ele>661.985</ele>
        <time>2015-08-26T09:23:40Z</time>
      </trkpt>
      <trkpt lat="43.43556" lon="2.18001">
        <ele>660.038</ele>
        <time>2015-08-26T09:24:00Z</time>
      </trkpt>
      <trkpt lat="43.43541" lon="2.17981">
        <ele>662.37</ele>
        <time>2015-08-26T09:24:20Z</time>
      </trkpt>
      <trkpt lat="43.43492" lon="2.17968">
        <ele>667.317</ele>
        <time>2015-08-26T09:24:40Z</time>
      </trkpt>
      <trkpt lat="43.43444" lon="2.17915">
        <ele>672.108</ele>
        <time>2015-08-26T09:25:00Z</time>
      </trkpt>
      <trkpt lat="43.43405" lon="2.17849">
        <ele>674.869</ele>
        <time>2015-08-26T09:25:20Z</time>
      </trkpt>
      <trkpt lat="43.43376" lon="2.17772">
        <ele>676.114</ele>
        <time>2015-08-26T09:25:40Z</time>
      </trkpt>
      <trkpt lat="43.43293" lon="2.1763">
        <ele>680.545</ele>
        <time>2015-08-26T09:26:00Z</time>
      </trkpt>
      <trkpt lat="43.43173" lon="2.17346">
        <ele>668.78</ele>
        <time>2015-08-26T09:26:20Z</time>
      </trkpt>
      <trkpt lat="43.43071" lon="2.17166">
        <ele>660.019</ele>
        <time>2015-08-26T09:26:40Z</time>
      </trkpt>
      <trkpt lat="43.43071" lon="2.1713">
        <ele>660.062</ele>
        <time>2015-08-26T09:27:00Z</time>
      </trkpt>
      <trkpt lat="43.43044" lon="2.17019">
        <ele>660.049</ele>
        <time>2015-08-26T09:27:20Z</time>
      </trkpt>
      <trkpt lat="43.43057" lon="2.16981">
        <ele>660.093</ele>
        <time>2015-08-26T09:27:40Z</time>
      </trkpt>
      <trkpt lat="43.43078" lon="2.16961">
        <ele>659.172</ele>
        <time>2015-08-26T09:28:00Z</time>
      </trkpt>
      <trkpt lat="43.43003" lon="2.16837">
        <ele>658.213</ele>
        <time>2015-08-26T09:28:20Z</time>
      </trkpt>
      <trkpt lat="43.43007" lon="2.16706">
        <ele>657.214</ele>
        <time>2015-08-26T09:28:40Z</time>
      </trkpt>
      <trkpt lat="43.42942" lon="2.16651">
        <ele>655.608</ele>
        <time>2015-08-26T09:29:00Z</time>
      </trkpt>
      <trkpt lat="43.42858" lon="2.16876">
        <ele>655.693</ele>
        <time>2015-08-26T09:29:20Z</time>
      </trkpt>
      <trkpt lat="43.4269" lon="2.17077">
        <ele>646.798</ele>
        <time>2015-08-26T09:29:40Z</time>
      </trkpt>
      <trkpt lat="43.42646" lon="2.17077">
        <ele>642.049</ele>
        <time>2015-08-26T09:30:00Z</time>
      </trkpt>
      <trkpt lat="43.42547" lon="2.17106">
        <ele>637.344</ele>
        <time>2015-08-26T09:30:20Z</time>
      </trkpt>
      <trkpt lat="43.42556" lon="2.17158">
        <ele>642.063</ele>
        <time>2015-08-26T09:30:40Z</time>
      </trkpt>
      <trkpt lat="43.4253" lon="2.17187">
        <ele>653.256</ele>
        <time>2015-08-26T09:31:00Z</time>
      </trkpt>
      <trkpt lat="43.42541" lon="2.17236">
        <ele>659.233</ele>
        <time>2015-08-26T09:31:20Z</time>
      </trkpt>
      <trkpt lat="43.42498" lon="2.17221">
        <ele>669.047</ele>
        <time>2015-08-26T09:31:40Z</time>
      </trkpt>
      <trkpt lat="43.42458" lon="2.17221">
        <ele>676.328</ele>
        <time>2015-08-26T09:32:00Z</time>
      </trkpt>
      <trkpt lat="43.42402" lon="2.17244">
        <ele>690.589</ele>
        <time>2015-08-26T09:32:20Z</time>
      </trkpt>
      <trkpt lat="43.42336" lon="2.1725">
        <ele>699.917</ele>
        <time>2015-08-26T09:32:40Z</time>
      </trkpt>
      <trkpt lat="43.42397" lon="2.17338">
        <ele>705.408</ele>
        <time>2015-08-26T09:33:00Z</time>
      </trkpt>
      <trkpt lat="43.42426" lon="2.17401">
        <ele>710.458</ele>
        <time>2015-08-26T09:33:20Z</time>
      </trkpt>
      <trkpt lat="43.4237" lon="2.17346">
        <ele>713.133</ele>
        <time>2015-08-26T09:33:40Z</time>
      </trkpt>
      <trkpt lat="43.42337" lon="2.17323">
        <ele>714.034</ele>
        <time>2015-08-26T09:34:00Z</time>
      </trkpt>
      <trkpt lat="43.42302" lon="2.17314">
        <ele>716.069</ele>
        <time>2015-08-26T09:34:20Z</time>
      </trkpt>
      <trkpt lat="43.42258" lon="2.17318">
        <ele>717.988</ele>
        <time>2015-08-26T09:34:40Z</time>
      </trkpt>
      <trkpt lat="43.42225" lon="2.17343">
        <ele>720.751</ele>
        <time>2015-08-26T09:35:00Z</time>
      </trkpt>
      <trkpt lat="43.42155" lon="2.17388">
        <ele>727.778</ele>
        <time>2015-08-26T09:35:20Z</time>
      </trkpt>
      <trkpt lat="43.42093" lon="2.17391">
        <ele>734.022</ele>
        <time>2015-08-26T09:35:40Z</time>
      </trkpt>
      <trkpt lat="43.42039" lon="2.17242">
        <ele>737.561</ele>
        <time>2015-08-26T09:36:00Z</time>
      </trkpt>
      <trkpt lat="43.42014" lon="2.17219">
        <ele>740.821</ele>
        <time>2015-08-26T09:36:20Z</time>
      </trkpt>
      <trkpt lat="43.41976" lon="2.17199">
        <ele>745.713</ele>
        <time>2015-08-26T09:36:40Z</time>
      </trkpt>
      <trkpt lat="43.4191" lon="2.17198">
        <ele>742.508</ele>
        <time>2015-08-26T09:37:00Z</time>
      </trkpt>
      <trkpt lat="43.41836" lon="2.17328">
        <ele>724.352</ele>
        <time>2015-08-26T09:37:20Z</time>
      </trkpt>
      <trkpt lat="43.41807" lon="2.17415">
        <ele>724.467</ele>
        <time>2015-08-26T09:37:40Z</time>
      </trkpt>
      <trkpt lat="43.41767" lon="2.17507">
        <ele>724.528</ele>
        <time>2015-08-26T09:38:00Z</time>
      </trkpt>
      <trkpt lat="43.41745" lon="2.1752">
        <ele>720.853</ele>
        <time>2015-08-26T09:38:20Z</time>
      </trkpt>
      <trkpt lat="43.4164" lon="2.17623">
        <ele>704.152</ele>
        <time>2015-08-26T09:38:40Z</time>
      </trkpt>
      <trkpt lat="43.41611" lon="2.1764">
        <ele>702.955</ele>
        <time>2015-08-26T09:39:00Z</time>
      </trkpt>
      <trkpt lat="43.4154" lon="2.17747">
        <ele>690.852</ele>
        <time>2015-08-26T09:39:20Z</time>
      </trkpt>
      <trkpt lat="43.4146" lon="2.17875">
        <ele>679.826</ele>
        <time>2015-08-26T09:39:40Z</time>
      </trkpt>
      <trkpt lat="43.41433" lon="2.1791">
        <ele>678.683</ele>
        <time>2015-08-26T09:40:00Z</time>
      </trkpt>
      <trkpt lat="43.41434" lon="2.1793">
        <ele>678.225</ele>
        <time>2015-08-26T09:40:20Z</time>
      </trkpt>
      <trkpt lat="43.41273" lon="2.18004">
        <ele>673.917</ele>
        <time>2015-08-26T09:40:40Z</time>
      </trkpt>
      <trkpt lat="43.4124" lon="2.18043">
        <ele>674.508</ele>
        <time>2015-08-26T09:41:00Z</time>
      </trkpt>
      <trkpt lat="43.41188" lon="2.18095">
        <ele>681.024</ele>
        <time>2015-08-26T09:41:20Z</time>
      </trkpt>
      <trkpt lat="43.41081" lon="2.18159">
        <ele>689.049</ele>
        <time>2015-08-26T09:41:40Z</time>
      </trkpt>
      <trkpt lat="43.40977" lon="2.18201">
        <ele>686.16</ele>
        <time>2015-08-26T09:42:00Z</time>
      </trkpt>
      <trkpt lat="43.40946" lon="2.1821">
        <ele>684.365</ele>
        <time>2015-08-26T09:42:20Z</time>
      </trkpt>
      <trkpt lat="43.40923" lon="2.18225">
        <ele>684.014</ele>
        <time>2015-08-26T09:42:40Z</time>
      </trkpt>
      <trkpt lat="43.40872" lon="2.18284">
        <ele>685.967</ele>
        <time>2015-08-26T09:43:00Z</time>
      </trkpt>
      <trkpt lat="43.40806" lon="2.18353">
        <ele>683.554</ele>
        <time>2015-08-26T09:43:20Z</time>
      </trkpt>
      <trkpt lat="43.40827" lon="2.18376">
        <ele>686.148</ele>
        <time>2015-08-26T09:43:40Z</time>
      </trkpt>
      <trkpt lat="43.40827" lon="2.18432">
        <ele>688.547</ele>
        <time>2015-08-26T09:44:00Z</time>
      </trkpt>
      <trkpt lat="43.40836" lon="2.18458">
        <ele>690.929</ele>
        <time>2015-08-26T09:44:20Z</time>
      </trkpt>
      <trkpt lat="43.40855" lon="2.18484">
        <ele>696.521</ele>
        <time>2015-08-26T09:44:40Z</time>
      </trkpt>
      <trkpt lat="43.40862" lon="2.18559">
        <ele>704.608</ele>
        <time>2015-08-26T09:45:00Z</time>
      </trkpt>
      <trkpt lat="43.40856" lon="2.18589">
        <ele>707.89</ele>
        <time>2015-08-26T09:45:20Z</time>
      </trkpt>
      <trkpt lat="43.40865" lon="2.18675">
        <ele>718.835</ele>
        <time>2015-08-26T09:45:40Z</time>
      </trkpt>
      <trkpt lat="43.40864" lon="2.1873">
        <ele>723.586</ele>
        <time>2015-08-26T09:46:00Z</time>
      </trkpt>
      <trkpt lat="43.40837" lon="2.18784">
        <ele>726.561</ele>
        <time>2015-08-26T09:46:20Z</time>
      </trkpt>
      <trkpt lat="43.40782" lon="2.18824">
        <ele>727.43</ele>
        <time>2015-08-26T09:46:40Z</time>
      </trkpt>
      <trkpt lat="43.40745" lon="2.18861">
        <ele>727.713</ele>
        <time>2015-08-26T09:47:00Z</time>
      </trkpt>
      <trkpt lat="43.4073" lon="2.18884">
        <ele>728.24</ele>
        <time>2015-08-26T09:47:20Z</time>
      </trkpt>
      <trkpt lat="43.40672" lon="2.18955">
        <ele>725.584</ele>
        <time>2015-08-26T09:47:40Z</time>
      </trkpt>
      <trkpt lat="43.40646" lon="2.18961">
        <ele>725.092</ele>
        <time>2015-08-26T09:48:00Z</time>
      </trkpt>
      <trkpt lat="43.40605" lon="2.18937">
        <ele>725.173</ele>
        <time>2015-08-26T09:48:20Z</time>
      </trkpt>
      <trkpt lat="43.40594" lon="2.18919">
        <ele>725.12</ele>
        <time>2015-08-26T09:48:40Z</time>
      </trkpt>
      <trkpt lat="43.4058" lon="2.18846">
        <ele>720.908</ele>
        <time>2015-08-26T09:49:00Z</time>
      </trkpt>
      <trkpt lat="43.4049" lon="2.18794">
        <ele>714.415</ele>
        <time>2015-08-26T09:49:20Z</time>
      </trkpt>
      <trkpt lat="43.40437" lon="2.18781">
        <ele>711.75</ele>
        <time>2015-08-26T09:49:40Z</time>
      </trkpt>
      <trkpt lat="43.40412" lon="2.18706">
        <ele>705.511</ele>
        <time>2015-08-26T09:50:00Z</time>
      </trkpt>
      <trkpt lat="43.4039" lon="2.18678">
        <ele>704.186</ele>
        <time>2015-08-26T09:50:20Z</time>
      </trkpt>
      <trkpt lat="43.40352" lon="2.18657">
        <ele>707.675</ele>
        <time>2015-08-26T09:50:40Z</time>
      </trkpt>
      <trkpt lat="43.40342" lon="2.18622">
        <ele>707.018</ele>
        <time>2015-08-26T09:51:00Z</time>
      </trkpt>
      <trkpt lat="43.40299" lon="2.18322">
        <ele>695.265</ele>
        <time>2015-08-26T09:51:20Z</time>
      </trkpt>
      <trkpt lat="43.4036" lon="2.1824">
        <ele>691.039</ele>
        <time>2015-08-26T09:51:40Z</time>
      </trkpt>
      <trkpt lat="43.40419" lon="2.18116">
        <ele>677.528</ele>
        <time>2015-08-26T09:52:00Z</time>
      </trkpt>
      <trkpt lat="43.40387" lon="2.18127">
        <ele>677.189</ele>
        <time>2015-08-26T09:52:20Z</time>
      </trkpt>
      <trkpt lat="43.40339" lon="2.18126">
        <ele>674.017</ele>
        <time>2015-08-26T09:52:40Z</time>
      </trkpt>
      <trkpt lat="43.40285" lon="2.18109">
        <ele>669.508</ele>
        <time>2015-08-26T09:53:00Z</time>
      </trkpt>
      <trkpt lat="43.40249" lon="2.18044">
        <ele>666.548</ele>
        <time>2015-08-26T09:53:20Z</time>
      </trkpt>
      <trkpt lat="43.40134" lon="2.17972">
        <ele>659.033</ele>
        <time>2015-08-26T09:53:40Z</time>
      </trkpt>
      <trkpt lat="43.40202" lon="2.17939">
        <ele>659.714</ele>
        <time>2015-08-26T09:54:00Z</time>
      </trkpt>
      <trkpt lat="43.40275" lon="2.17884">
        <ele>665.869</ele>
        <time>2015-08-26T09:54:20Z</time>
      </trkpt>
      <trkpt lat="43.403" lon="2.1785">
        <ele>665.968</ele>
        <time>2015-08-26T09:54:40Z</time>
      </trkpt>
      <trkpt lat="43.40307" lon="2.17821">
        <ele>665.571</ele>
        <time>2015-08-26T09:55:00Z</time>
      </trkpt>
      <trkpt lat="43.40343" lon="2.17751">
        <ele>662.038</ele>
        <time>2015-08-26T09:55:20Z</time>
      </trkpt>
      <trkpt lat="43.40407" lon="2.17674">
        <ele>656.562</ele>
        <time>2015-08-26T09:55:40Z</time>
      </trkpt>
      <trkpt lat="43.40407" lon="2.17631">
        <ele>656.491</ele>
        <time>2015-08-26T09:56:00Z</time>
      </trkpt>
      <trkpt lat="43.40301" lon="2.1756">
        <ele>660.281</ele>
        <time>2015-08-26T09:56:20Z</time>
      </trkpt>
      <trkpt lat="43.40126" lon="2.17549">
        <ele>649.119</ele>
        <time>2015-08-26T09:56:40Z</time>
      </trkpt>
      <trkpt lat="43.40097" lon="2.17535">
        <ele>646.708</ele>
        <time>2015-08-26T09:57:00Z</time>
      </trkpt>
      <trkpt lat="43.40082" lon="2.17502">
        <ele>645.355</ele>
        <time>2015-08-26T09:57:20Z</time>
      </trkpt>
      <trkpt lat="43.4007" lon="2.17441">
        <ele>648.34</ele>
        <time>2015-08-26T09:57:40Z</time>
      </trkpt>
      <trkpt lat="43.40053" lon="2.17424">
        <ele>649.181</ele>
        <time>2015-08-26T09:58:00Z</time>
      </trkpt>
      <trkpt lat="43.4001" lon="2.17432">
        <ele>647.736</ele>
        <time>2015-08-26T09:58:20Z</time>
      </trkpt>
      <trkpt lat="43.39953" lon="2.17467">
        <ele>647.975</ele>
        <time>2015-08-26T09:58:40Z</time>
      </trkpt>
      <trkpt lat="43.39912" lon="2.17482">
        <ele>647.168</ele>
        <time>2015-08-26T09:59:00Z</time>
      </trkpt>
      <trkpt lat="43.39901" lon="2.17504">
        <ele>648.025</ele>
        <time>2015-08-26T09:59:20Z</time>
      </trkpt>
      <trkpt lat="43.39897" lon="2.17552">
        <ele>650.449</ele>
        <time>2015-08-26T09:59:40Z</time>
      </trkpt>
      <trkpt lat="43.39874" lon="2.17669">
        <ele>650.412</ele>
        <time>2015-08-26T10:00:00Z</time>
      </trkpt>
      <trkpt lat="43.39838" lon="2.17744">
        <ele>649.932</ele>
        <time>2015-08-26T10:00:20Z</time>
      </trkpt>
      <trkpt lat="43.39825" lon="2.17742">
        <ele>648.805</ele>
        <time>2015-08-26T10:00:40Z</time>
      </trkpt>
      <trkpt lat="43.39815" lon="2.17727">
        <ele>647.008</ele>
        <time>2015-08-26T10:01:00Z</time>
      </trkpt>
      <trkpt lat="43.39808" lon="2.17659">
        <ele>649.427</ele>
        <time>2015-08-26T10:01:20Z</time>
      </trkpt>
      <trkpt lat="43.398" lon="2.17625">
        <ele>654.182</ele>
        <time>2015-08-26T10:01:40Z</time>
      </trkpt>
      <trkpt lat="43.39804" lon="2.17562">
        <ele>653.593</ele>
        <time>2015-08-26T10:02:00Z</time>
      </trkpt>
      <trkpt lat="43.39802" lon="2.17514">
        <ele>651.778</ele>
        <time>2015-08-26T10:02:20Z</time>
      </trkpt>
      <trkpt lat="43.39781" lon="2.17457">
        <ele>650.817</ele>
        <time>2015-08-26T10:02:40Z</time>
      </trkpt>
      <trkpt lat="43.39732" lon="2.17402">
        <ele>648.14</ele>
        <time>2015-08-26T10:03:00Z</time>
      </trkpt>
      <trkpt lat="43.39739" lon="2.17215">
        <ele>643.037</ele>
        <time>2015-08-26T10:03:20Z</time>
      </trkpt>
      <trkpt lat="43.39725" lon="2.17254">
        <ele>639.621</ele>
        <time>2015-08-26T10:03:40Z</time>
      </trkpt>
      <trkpt lat="43.39702" lon="2.17264">
        <ele>635.311</ele>
        <time>2015-08-26T10:04:00Z</time>
      </trkpt>
      <trkpt lat="43.39685" lon="2.17248">
        <ele>632.821</ele>
        <time>2015-08-26T10:04:20Z</time>
      </trkpt>
      <trkpt lat="43.39693" lon="2.1711">
        <ele>639.703</ele>
        <time>2015-08-26T10:04:40Z</time>
      </trkpt>
      <trkpt lat="43.39621" lon="2.16978">
        <ele>630.008</ele>
        <time>2015-08-26T10:05:00Z</time>
      </trkpt>
      <trkpt lat="43.39568" lon="2.16973">
        <ele>630.137</ele>
        <time>2015-08-26T10:05:20Z</time>
      </trkpt>
      <trkpt lat="43.39542" lon="2.16982">
        <ele>631.892</ele>
        <time>2015-08-26T10:05:40Z</time>
      </trkpt>
      <trkpt lat="43.39457" lon="2.16982">
        <ele>630.483</ele>
        <time>2015-08-26T10:06:00Z</time>
      </trkpt>
      <trkpt lat="43.39409" lon="2.16952">
        <ele>631.038</ele>
        <time>2015-08-26T10:06:20Z</time>
      </trkpt>
      <trkpt lat="43.39396" lon="2.16901">
        <ele>632.257</ele>
        <time>2015-08-26T10:06:40Z</time>
      </trkpt>
      <trkpt lat="43.39396" lon="2.16808">
        <ele>628.83</ele>
        <time>2015-08-26T10:07:00Z</time>
      </trkpt>
      <trkpt lat="43.39381" lon="2.16695">
        <ele>629.617</ele>
        <time>2015-08-26T10:07:20Z</time>
      </trkpt>
      <trkpt lat="43.39373" lon="2.16531">
        <ele>627.981</ele>
        <time>2015-08-26T10:07:40Z</time>
      </trkpt>
      <trkpt lat="43.39365" lon="2.16509">
        <ele>628.183</ele>
        <time>2015-08-26T10:08:00Z</time>
      </trkpt>
      <trkpt lat="43.39405" lon="2.16488">
        <ele>625.625</ele>
        <time>2015-08-26T10:08:20Z</time>
      </trkpt>
      <trkpt lat="43.39442" lon="2.16458">
        <ele>627.817</ele>
        <time>2015-08-26T10:08:40Z</time>
      </trkpt>
      <trkpt lat="43.39456" lon="2.16403">
        <ele>627.508</ele>
        <time>2015-08-26T10:09:00Z</time>
      </trkpt>
      <trkpt lat="43.39477" lon="2.16365">
        <ele>628.484</ele>
        <time>2015-08-26T10:09:20Z</time>
      </trkpt>
      <trkpt lat="43.39524" lon="2.16322">
        <ele>628.989</ele>
        <time>2015-08-26T10:09:40Z</time>
      </trkpt>
      <trkpt lat="43.39534" lon="2.16274">
        <ele>628.15</ele>
        <time>2015-08-26T10:10:00Z</time>
      </trkpt>
      <trkpt lat="43.39562" lon="2.16233">
        <ele>628.315</ele>
        <time>2015-08-26T10:10:20Z</time>
      </trkpt>
      <trkpt lat="43.39551" lon="2.16201">
        <ele>628.674</ele>
        <time>2015-08-26T10:10:40Z</time>
      </trkpt>
      <trkpt lat="43.39502" lon="2.16168">
        <ele>627.297</ele>
        <time>2015-08-26T10:11:00Z</time>
      </trkpt>
      <trkpt lat="43.39498" lon="2.16136">
        <ele>628.024</ele>
        <time>2015-08-26T10:11:20Z</time>
      </trkpt>
      <trkpt lat="43.39518" lon="2.16067">
        <ele>629.678</ele>
        <time>2015-08-26T10:11:40Z</time>
      </trkpt>
      <trkpt lat="43.39516" lon="2.15998">
        <ele>626.986</ele>
        <time>2015-08-26T10:12:00Z</time>
      </trkpt>
      <trkpt lat="43.39457" lon="2.15978">
        <ele>623.36</ele>
        <time>2015-08-26T10:12:20Z</time>
      </trkpt>
      <trkpt lat="43.39441" lon="2.1596">
        <ele>623.326</ele>
        <time>2015-08-26T10:12:40Z</time>
      </trkpt>
      <trkpt lat="43.39436" lon="2.15838">
        <ele>627.608</ele>
        <time>2015-08-26T10:13:00Z</time>
      </trkpt>
      <trkpt lat="43.39424" lon="2.15821">
        <ele>626.464</ele>
        <time>2015-08-26T10:13:20Z</time>
      </trkpt>
      <trkpt lat="43.39342" lon="2.15846">
        <ele>622.669</ele>
        <time>2015-08-26T10:13:40Z</time>
      </trkpt>
      <trkpt lat="43.39323" lon="2.15778">
        <ele>627.85</ele>
        <time>2015-08-26T10:14:00Z</time>
      </trkpt>
      <trkpt lat="43.39276" lon="2.15755">
        <ele>624.255</ele>
        <time>2015-08-26T10:14:20Z</time>
      </trkpt>
      <trkpt lat="43.39242" lon="2.15726">
        <ele>623.844</ele>
        <time>2015-08-26T10:14:40Z</time>
      </trkpt>
      <trkpt lat="43.3924" lon="2.1569">
        <ele>625.527</ele>
        <time>2015-08-26T10:15:00Z</time>
      </trkpt>
      <trkpt lat="43.39261" lon="2.15639">
        <ele>629.474</ele>
        <time>2015-08-26T10:15:20Z</time>
      </trkpt>
      <trkpt lat="43.39246" lon="2.15598">
        <ele>627.488</ele>
        <time>2015-08-26T10:15:40Z</time>
      </trkpt>
      <trkpt lat="43.39254" lon="2.15518">
        <ele>626.554</ele>
        <time>2015-08-26T10:16:00Z</time>
      </trkpt>
      <trkpt lat="43.39305" lon="2.15457">
        <ele>628.856</ele>
        <time>2015-08-26T10:16:20Z</time>
      </trkpt>
      <trkpt lat="43.39312" lon="2.15433">
        <ele>629.511</ele>
        <time>2015-08-26T10:16:40Z</time>
      </trkpt>
      <trkpt lat="43.39266" lon="2.15414">
        <ele>626.608</ele>
        <time>2015-08-26T10:17:00Z</time>
      </trkpt>
      <trkpt lat="43.39234" lon="2.1541">
        <ele>623.981</ele>
        <time>2015-08-26T10:17:20Z</time>
      </trkpt>
      <trkpt lat="43.39215" lon="2.15391">
        <ele>624.526</ele>
        <time>2015-08-26T10:17:40Z</time>
      </trkpt>
      <trkpt lat="43.39204" lon="2.15299">
        <ele>626.947</ele>
        <time>2015-08-26T10:18:00Z</time>
      </trkpt>
      <trkpt lat="43.39223" lon="2.15205">
        <ele>625.592</ele>
        <time>2015-08-26T10:18:20Z</time>
      </trkpt>
      <trkpt lat="43.39242" lon="2.15171">
        <ele>626.021</ele>
        <time>2015-08-26T10:18:40Z</time>
      </trkpt>
      <trkpt lat="43.393" lon="2.15111">
        <ele>627.664</ele>
        <time>2015-08-26T10:19:00Z</time>
      </trkpt>
      <trkpt lat="43.3931" lon="2.15065">
        <ele>628.241</ele>
        <time>2015-08-26T10:19:20Z</time>
      </trkpt>
      <trkpt lat="43.39273" lon="2.15042">
        <ele>625.695</ele>
        <time>2015-08-26T10:19:40Z</time>
      </trkpt>
      <trkpt lat="43.39241" lon="2.14983">
        <ele>626.482</ele>
        <time>2015-08-26T10:20:00Z</time>
      </trkpt>
      <trkpt lat="43.3924" lon="2.14943">
        <ele>626.943</ele>
        <time>2015-08-26T10:20:20Z</time>
      </trkpt>
      <trkpt lat="43.39257" lon="2.14915">
        <ele>625.817</ele>
        <time>2015-08-26T10:20:40Z</time>
      </trkpt>
      <trkpt lat="43.39286" lon="2.14902">
        <ele>624.308</ele>
        <time>2015-08-26T10:21:00Z</time>
      </trkpt>
      <trkpt lat="43.39331" lon="2.14927">
        <ele>626.544</ele>
        <time>2015-08-26T10:21:20Z</time>
      </trkpt>
      <trkpt lat="43.39371" lon="2.14927">
        <ele>627.279</ele>
        <time>2015-08-26T10:21:40Z</time>
      </trkpt>
      <trkpt lat="43.39399" lon="2.1491">
        <ele>628.06</ele>
        <time>2015-08-26T10:22:00Z</time>
      </trkpt>
      <trkpt lat="43.39395" lon="2.14876">
        <ele>627.785</ele>
        <time>2015-08-26T10:22:20Z</time>
      </trkpt>
      <trkpt lat="43.39364" lon="2.14836">
        <ele>625.224</ele>
        <time>2015-08-26T10:22:40Z</time>
      </trkpt>
      <trkpt lat="43.39355" lon="2.14791">
        <ele>627.937</ele>
        <time>2015-08-26T10:23:00Z</time>
      </trkpt>
      <trkpt lat="43.3932" lon="2.14763">
        <ele>625.864</ele>
        <time>2015-08-26T10:23:20Z</time>
      </trkpt>
      <trkpt lat="43.39299" lon="2.14727">
        <ele>628.658</ele>
        <time>2015-08-26T10:23:40Z</time>
      </trkpt>
      <trkpt lat="43.39264" lon="2.14708">
        <ele>628.433</ele>
        <time>2015-08-26T10:24:00Z</time>
      </trkpt>
      <trkpt lat="43.39229" lon="2.14698">
        <ele>627.723</ele>
        <time>2015-08-26T10:24:20Z</time>
      </trkpt>
      <trkpt lat="43.39135" lon="2.1465">
        <ele>626.115</ele>
        <time>2015-08-26T10:24:40Z</time>
      </trkpt>
      <trkpt lat="43.39128" lon="2.14625">
        <ele>625.808</ele>
        <time>2015-08-26T10:25:00Z</time>
      </trkpt>
      <trkpt lat="43.39168" lon="2.1455">
        <ele>626.539</ele>
        <time>2015-08-26T10:25:20Z</time>
      </trkpt>
      <trkpt lat="43.39212" lon="2.14501">
        <ele>625.914</ele>
        <time>2015-08-26T10:25:40Z</time>
      </trkpt>
      <trkpt lat="43.3927" lon="2.14484">
        <ele>630.265</ele>
        <time>2015-08-26T10:26:00Z</time>
      </trkpt>
      <trkpt lat="43.39264" lon="2.14386">
        <ele>627.05</ele>
        <time>2015-08-26T10:26:20Z</time>
      </trkpt>
      <trkpt lat="43.39279" lon="2.14369">
        <ele>630.149</ele>
        <time>2015-08-26T10:26:40Z</time>
      </trkpt>
      <trkpt lat="43.39436" lon="2.14339">
        <ele>625.662</ele>
        <time>2015-08-26T10:27:00Z</time>
      </trkpt>
      <trkpt lat="43.39436" lon="2.14227">
        <ele>625.079</ele>
        <time>2015-08-26T10:27:20Z</time>
      </trkpt>
      <trkpt lat="43.39446" lon="2.13946">
        <ele>624.093</ele>
        <time>2015-08-26T10:27:40Z</time>
      </trkpt>
      <trkpt lat="43.39528" lon="2.13853">
        <ele>623.791</ele>
        <time>2015-08-26T10:28:00Z</time>
      </trkpt>
      <trkpt lat="43.39604" lon="2.13747">
        <ele>620.981</ele>
        <time>2015-08-26T10:28:20Z</time>
      </trkpt>
      <trkpt lat="43.39637" lon="2.13746">
        <ele>620.919</ele>
        <time>2015-08-26T10:28:40Z</time>
      </trkpt>
      <trkpt lat="43.39694" lon="2.13724">
        <ele>623.008</ele>
        <time>2015-08-26T10:29:00Z</time>
      </trkpt>
      <trkpt lat="43.39699" lon="2.13696">
        <ele>622.435</ele>
        <time>2015-08-26T10:29:20Z</time>
      </trkpt>
      <trkpt lat="43.39685" lon="2.13674">
        <ele>622.17</ele>
        <time>2015-08-26T10:29:40Z</time>
      </trkpt>
      <trkpt lat="43.39663" lon="2.13663">
        <ele>621.221</ele>
        <time>2015-08-26T10:30:00Z</time>
      </trkpt>
      <trkpt lat="43.39648" lon="2.13636">
        <ele>622.036</ele>
        <time>2015-08-26T10:30:20Z</time>
      </trkpt>
      <trkpt lat="43.39659" lon="2.13576">
        <ele>623.655</ele>
        <time>2015-08-26T10:30:40Z</time>
      </trkpt>
      <trkpt lat="43.39625" lon="2.13575">
        <ele>621.318</ele>
        <time>2015-08-26T10:31:00Z</time>
      </trkpt>
      <trkpt lat="43.39594" lon="2.13539">
        <ele>621.675</ele>
        <time>2015-08-26T10:31:20Z</time>
      </trkpt>
      <trkpt lat="43.39603" lon="2.13416">
        <ele>625.029</ele>
        <time>2015-08-26T10:31:40Z</time>
      </trkpt>
      <trkpt lat="43.39645" lon="2.13302">
        <ele>623.659</ele>
        <time>2015-08-26T10:32:00Z</time>
      </trkpt>
      <trkpt lat="43.39648" lon="2.13241">
        <ele>621.003</ele>
        <time>2015-08-26T10:32:20Z</time>
      </trkpt>
      <trkpt lat="43.39666" lon="2.13237">
        <ele>619.623</ele>
        <time>2015-08-26T10:32:40Z</time>
      </trkpt>
      <trkpt lat="43.39662" lon="2.132">
        <ele>619.308</ele>
        <time>2015-08-26T10:33:00Z</time>
      </trkpt>
      <trkpt lat="43.3962" lon="2.13142">
        <ele>620.591</ele>
        <time>2015-08-26T10:33:20Z</time>
      </trkpt>
      <trkpt lat="43.39613" lon="2.13102">
        <ele>620.526</ele>
        <time>2015-08-26T10:33:40Z</time>
      </trkpt>
      <trkpt lat="43.39628" lon="2.13072">
        <ele>621.397</ele>
        <time>2015-08-26T10:34:00Z</time>
      </trkpt>
      <trkpt lat="43.39685" lon="2.13052">
        <ele>618.242</ele>
        <time>2015-08-26T10:34:20Z</time>
      </trkpt>
      <trkpt lat="43.39742" lon="2.12971">
        <ele>616.711</ele>
        <time>2015-08-26T10:34:40Z</time>
      </trkpt>
      <trkpt lat="43.39718" lon="2.12889">
        <ele>617.144</ele>
        <time>2015-08-26T10:35:00Z</time>
      </trkpt>
      <trkpt lat="43.39725" lon="2.12835">
        <ele>615.241</ele>
        <time>2015-08-26T10:35:20Z</time>
      </trkpt>
      <trkpt lat="43.39716" lon="2.12789">
        <ele>620.095</ele>
        <time>2015-08-26T10:35:40Z</time>
      </trkpt>
      <trkpt lat="43.39732" lon="2.12736">
        <ele>617.834</ele>
        <time>2015-08-26T10:36:00Z</time>
      </trkpt>
      <trkpt lat="43.39744" lon="2.12654">
        <ele>615.555</ele>
        <time>2015-08-26T10:36:20Z</time>
      </trkpt>
      <trkpt lat="43.39735" lon="2.12603">
        <ele>614.01</ele>
        <time>2015-08-26T10:36:40Z</time>
      </trkpt>
      <trkpt lat="43.3968" lon="2.12546">
        <ele>615.508</ele>
        <time>2015-08-26T10:37:00Z</time>
      </trkpt>
      <trkpt lat="43.39627" lon="2.12447">
        <ele>611.989</ele>
        <time>2015-08-26T10:37:20Z</time>
      </trkpt>
      <trkpt lat="43.39599" lon="2.12419">
        <ele>616.014</ele>
        <time>2015-08-26T10:37:40Z</time>
      </trkpt>
      <trkpt lat="43.39598" lon="2.12389">
        <ele>616.485</ele>
        <time>2015-08-26T10:38:00Z</time>
      </trkpt>
      <trkpt lat="43.39618" lon="2.1237">
        <ele>617.71</ele>
        <time>2015-08-26T10:38:20Z</time>
      </trkpt>
      <trkpt lat="43.39711" lon="2.12225">
        <ele>622.619</ele>
        <time>2015-08-26T10:38:40Z</time>
      </trkpt>
      <trkpt lat="43.39773" lon="2.12195">
        <ele>616.742</ele>
        <time>2015-08-26T10:39:00Z</time>
      </trkpt>
      <trkpt lat="43.39799" lon="2.1215">
        <ele>616.289</ele>
        <time>2015-08-26T10:39:20Z</time>
      </trkpt>
      <trkpt lat="43.39806" lon="2.12007">
        <ele>617.763</ele>
        <time>2015-08-26T10:39:40Z</time>
      </trkpt>
      <trkpt lat="43.39812" lon="2.11909">
        <ele>613.129</ele>
        <time>2015-08-26T10:40:00Z</time>
      </trkpt>
      <trkpt lat="43.39802" lon="2.11853">
        <ele>611.2</ele>
        <time>2015-08-26T10:40:20Z</time>
      </trkpt>
      <trkpt lat="43.39764" lon="2.11774">
        <ele>621.12</ele>
        <time>2015-08-26T10:40:40Z</time>
      </trkpt>
      <trkpt lat="43.3976" lon="2.11655">
        <ele>614.208</ele>
        <time>2015-08-26T10:41:00Z</time>
      </trkpt>
      <trkpt lat="43.39734" lon="2.11492">
        <ele>611.418</ele>
        <time>2015-08-26T10:41:20Z</time>
      </trkpt>
      <trkpt lat="43.39715" lon="2.1146">
        <ele>607.993</ele>
        <time>2015-08-26T10:41:40Z</time>
      </trkpt>
      <trkpt lat="43.39659" lon="2.11447">
        <ele>613.764</ele>
        <time>2015-08-26T10:42:00Z</time>
      </trkpt>
      <trkpt lat="43.39625" lon="2.11431">
        <ele>613.639</ele>
        <time>2015-08-26T10:42:20Z</time>
      </trkpt>
      <trkpt lat="43.39565" lon="2.11419">
        <ele>619.778</ele>
        <time>2015-08-26T10:42:40Z</time>
      </trkpt>
      <trkpt lat="43.39521" lon="2.1136">
        <ele>617.221</ele>
        <time>2015-08-26T10:43:00Z</time>
      </trkpt>
      <trkpt lat="43.39479" lon="2.11307">
        <ele>620.638</ele>
        <time>2020-03-08T19:47:57Z</time>
      </trkpt>
      <trkpt lat="43.3947" lon="2.11177">
        <ele>608.862</ele>
        <time>2020-03-08T19:48:17Z</time>
      </trkpt>
      <trkpt lat="43.39443" lon="2.10892">
        <ele>612.212</ele>
        <time>2015-08-26T10:44:00Z</time>
      </trkpt>
      <trkpt lat="43.39464" lon="2.10839">
        <ele>613.832</ele>
        <time>2015-08-26T10:44:20Z</time>
      </trkpt>
      <trkpt lat="43.39517" lon="2.10802">
        <ele>614.205</ele>
        <time>2015-08-26T10:44:40Z</time>
      </trkpt>
      <trkpt lat="43.39522" lon="2.10762">
        <ele>611.108</ele>
        <time>2015-08-26T10:45:00Z</time>
      </trkpt>
      <trkpt lat="43.39492" lon="2.10709">
        <ele>612.887</ele>
        <time>2015-08-26T10:45:20Z</time>
      </trkpt>
      <trkpt lat="43.39495" lon="2.10652">
        <ele>611.772</ele>
        <time>2015-08-26T10:45:40Z</time>
      </trkpt>
      <trkpt lat="43.39517" lon="2.1057">
        <ele>610.283</ele>
        <time>2015-08-26T10:46:00Z</time>
      </trkpt>
      <trkpt lat="43.39525" lon="2.10503">
        <ele>612.328</ele>
        <time>2015-08-26T10:46:20Z</time>
      </trkpt>
      <trkpt lat="43.39575" lon="2.10419">
        <ele>608.087</ele>
        <time>2015-08-26T10:46:40Z</time>
      </trkpt>
      <trkpt lat="43.39592" lon="2.10351">
        <ele>609.17</ele>
        <time>2015-08-26T10:47:00Z</time>
      </trkpt>
      <trkpt lat="43.39589" lon="2.10223">
        <ele>609.987</ele>
        <time>2015-08-26T10:47:20Z</time>
      </trkpt>
      <trkpt lat="43.39623" lon="2.10084">
        <ele>607.491</ele>
        <time>2015-08-26T10:47:40Z</time>
      </trkpt>
      <trkpt lat="43.39619" lon="2.1">
        <ele>608.054</ele>
        <time>2015-08-26T10:48:00Z</time>
      </trkpt>
      <trkpt lat="43.39606" lon="2.09953">
        <ele>609.856</ele>
        <time>2015-08-26T10:48:20Z</time>
      </trkpt>
      <trkpt lat="43.3962" lon="2.09834">
        <ele>608.111</ele>
        <time>2015-08-26T10:48:40Z</time>
      </trkpt>
      <trkpt lat="43.39621" lon="2.09734">
        <ele>607.608</ele>
        <time>2015-08-26T10:49:00Z</time>
      </trkpt>
      <trkpt lat="43.39645" lon="2.0961">
        <ele>601.191</ele>
        <time>2015-08-26T10:49:20Z</time>
      </trkpt>
      <trkpt lat="43.39671" lon="2.09562">
        <ele>599.676</ele>
        <time>2015-08-26T10:49:40Z</time>
      </trkpt>
      <trkpt lat="43.39719" lon="2.0953">
        <ele>600.917</ele>
        <time>2015-08-26T10:50:00Z</time>
      </trkpt>
      <trkpt lat="43.39753" lon="2.0953">
        <ele>601.192</ele>
        <time>2015-08-26T10:50:20Z</time>
      </trkpt>
      <trkpt lat="43.39782" lon="2.09552">
        <ele>602.711</ele>
        <time>2015-08-26T10:50:40Z</time>
      </trkpt>
      <trkpt lat="43.39787" lon="2.09622">
        <ele>601.874</ele>
        <time>2015-08-26T10:51:00Z</time>
      </trkpt>
      <trkpt lat="43.39805" lon="2.09689">
        <ele>601.461</ele>
        <time>2015-08-26T10:51:20Z</time>
      </trkpt>
      <trkpt lat="43.39854" lon="2.09797">
        <ele>598.835</ele>
        <time>2015-08-26T10:51:40Z</time>
      </trkpt>
      <trkpt lat="43.39866" lon="2.09797">
        <ele>599.677</ele>
        <time>2015-08-26T10:52:00Z</time>
      </trkpt>
      <trkpt lat="43.3998" lon="2.09672">
        <ele>593.161</ele>
        <time>2015-08-26T10:52:20Z</time>
      </trkpt>
      <trkpt lat="43.40002" lon="2.09599">
        <ele>593.627</ele>
        <time>2015-08-26T10:52:40Z</time>
      </trkpt>
      <trkpt lat="43.40003" lon="2.09539">
        <ele>599.208</ele>
        <time>2015-08-26T10:53:00Z</time>
      </trkpt>
      <trkpt lat="43.40066" lon="2.09414">
        <ele>600.223</ele>
        <time>2015-08-26T10:53:20Z</time>
      </trkpt>
      <trkpt lat="43.40102" lon="2.09387">
        <ele>599.888</ele>
        <time>2015-08-26T10:53:40Z</time>
      </trkpt>
      <trkpt lat="43.40132" lon="2.0938">
        <ele>602.239</ele>
        <time>2015-08-26T10:54:00Z</time>
      </trkpt>
      <trkpt lat="43.40162" lon="2.09426">
        <ele>592.854</ele>
        <time>2015-08-26T10:54:20Z</time>
      </trkpt>
      <trkpt lat="43.40191" lon="2.09439">
        <ele>591.153</ele>
        <time>2015-08-26T10:54:40Z</time>
      </trkpt>
      <trkpt lat="43.40314" lon="2.09367">
        <ele>593.496</ele>
        <time>2015-08-26T10:55:00Z</time>
      </trkpt>
      <trkpt lat="43.4038" lon="2.09271">
        <ele>594.273</ele>
        <time>2015-08-26T10:55:20Z</time>
      </trkpt>
      <trkpt lat="43.40401" lon="2.09219">
        <ele>598.287</ele>
        <time>2015-08-26T10:55:40Z</time>
      </trkpt>
      <trkpt lat="43.40419" lon="2.09219">
        <ele>598.478</ele>
        <time>2015-08-26T10:56:00Z</time>
      </trkpt>
      <trkpt lat="43.4045" lon="2.0926">
        <ele>601.133</ele>
        <time>2015-08-26T10:56:20Z</time>
      </trkpt>
      <trkpt lat="43.4047" lon="2.09338">
        <ele>595.326</ele>
        <time>2015-08-26T10:56:40Z</time>
      </trkpt>
      <trkpt lat="43.40482" lon="2.09347">
        <ele>593.508</ele>
        <time>2015-08-26T10:57:00Z</time>
      </trkpt>
      <trkpt lat="43.4052" lon="2.09329">
        <ele>596.673</ele>
        <time>2015-08-26T10:57:20Z</time>
      </trkpt>
      <trkpt lat="43.4056" lon="2.09277">
        <ele>595.418</ele>
        <time>2015-08-26T10:57:40Z</time>
      </trkpt>
      <trkpt lat="43.40618" lon="2.09143">
        <ele>595.459</ele>
        <time>2015-08-26T10:58:00Z</time>
      </trkpt>
      <trkpt lat="43.40648" lon="2.09051">
        <ele>597.364</ele>
        <time>2015-08-26T10:58:20Z</time>
      </trkpt>
      <trkpt lat="43.40728" lon="2.0889">
        <ele>595.543</ele>
        <time>2015-08-26T10:58:40Z</time>
      </trkpt>
      <trkpt lat="43.40743" lon="2.08842">
        <ele>598.536</ele>
        <time>2015-08-26T10:59:00Z</time>
      </trkpt>
      <trkpt lat="43.40758" lon="2.08845">
        <ele>599.753</ele>
        <time>2015-08-26T10:59:20Z</time>
      </trkpt>
      <trkpt lat="43.40775" lon="2.08904">
        <ele>599.667</ele>
        <time>2015-08-26T10:59:40Z</time>
      </trkpt>
      <trkpt lat="43.40774" lon="2.08993">
        <ele>598.167</ele>
        <time>2015-08-26T11:00:00Z</time>
      </trkpt>
      <trkpt lat="43.40746" lon="2.09129">
        <ele>597.181</ele>
        <time>2015-08-26T11:00:20Z</time>
      </trkpt>
      <trkpt lat="43.40744" lon="2.09195">
        <ele>595.319</ele>
        <time>2015-08-26T11:00:40Z</time>
      </trkpt>
      <trkpt lat="43.40767" lon="2.09198">
        <ele>592.908</ele>
        <time>2015-08-26T11:01:00Z</time>
      </trkpt>
      <trkpt lat="43.40874" lon="2.08881">
        <ele>597.272</ele>
        <time>2015-08-26T11:01:20Z</time>
      </trkpt>
      <trkpt lat="43.40925" lon="2.08789">
        <ele>596.827</ele>
        <time>2015-08-26T11:01:40Z</time>
      </trkpt>
      <trkpt lat="43.40911" lon="2.08698">
        <ele>596.168</ele>
        <time>2015-08-26T11:02:00Z</time>
      </trkpt>
      <trkpt lat="43.40974" lon="2.08578">
        <ele>591.643</ele>
        <time>2015-08-26T11:02:20Z</time>
      </trkpt>
      <trkpt lat="43.40973" lon="2.08522">
        <ele>591.042</ele>
        <time>2015-08-26T11:02:40Z</time>
      </trkpt>
      <trkpt lat="43.40959" lon="2.08498">
        <ele>591.075</ele>
        <time>2015-08-26T11:03:00Z</time>
      </trkpt>
      <trkpt lat="43.40899" lon="2.08484">
        <ele>595.842</ele>
        <time>2015-08-26T11:03:20Z</time>
      </trkpt>
      <trkpt lat="43.40876" lon="2.08454">
        <ele>595.886</ele>
        <time>2015-08-26T11:03:40Z</time>
      </trkpt>
      <trkpt lat="43.40873" lon="2.0843">
        <ele>597.596</ele>
        <time>2015-08-26T11:04:00Z</time>
      </trkpt>
      <trkpt lat="43.40972" lon="2.08408">
        <ele>592.731</ele>
        <time>2015-08-26T11:04:20Z</time>
      </trkpt>
      <trkpt lat="43.40978" lon="2.0838">
        <ele>593.624</ele>
        <time>2015-08-26T11:04:40Z</time>
      </trkpt>
      <trkpt lat="43.40971" lon="2.08345">
        <ele>595.408</ele>
        <time>2015-08-26T11:05:00Z</time>
      </trkpt>
      <trkpt lat="43.40984" lon="2.08288">
        <ele>594.395</ele>
        <time>2015-08-26T11:05:20Z</time>
      </trkpt>
      <trkpt lat="43.40994" lon="2.08156">
        <ele>603.76</ele>
        <time>2015-08-26T11:05:40Z</time>
      </trkpt>
      <trkpt lat="43.40987" lon="2.08043">
        <ele>610.061</ele>
        <time>2015-08-26T11:06:00Z</time>
      </trkpt>
      <trkpt lat="43.40899" lon="2.08132">
        <ele>612.496</ele>
        <time>2015-08-26T11:06:20Z</time>
      </trkpt>
      <trkpt lat="43.40868" lon="2.08136">
        <ele>614.775</ele>
        <time>2015-08-26T11:06:40Z</time>
      </trkpt>
      <trkpt lat="43.40773" lon="2.0812">
        <ele>620.528</ele>
        <time>2015-08-26T11:07:00Z</time>
      </trkpt>
      <trkpt lat="43.40739" lon="2.08157">
        <ele>623.645</ele>
        <time>2015-08-26T11:07:20Z</time>
      </trkpt>
      <trkpt lat="43.40647" lon="2.08349">
        <ele>630.669</ele>
        <time>2015-08-26T11:07:40Z</time>
      </trkpt>
      <trkpt lat="43.40644" lon="2.08297">
        <ele>628.956</ele>
        <time>2015-08-26T11:08:00Z</time>
      </trkpt>
      <trkpt lat="43.40606" lon="2.08128">
        <ele>623.459</ele>
        <time>2015-08-26T11:08:20Z</time>
      </trkpt>
      <trkpt lat="43.40602" lon="2.07962">
        <ele>620.814</ele>
        <time>2015-08-26T11:08:40Z</time>
      </trkpt>
      <trkpt lat="43.40584" lon="2.0777">
        <ele>616.008</ele>
        <time>2015-08-26T11:09:00Z</time>
      </trkpt>
      <trkpt lat="43.40509" lon="2.07591">
        <ele>616.941</ele>
        <time>2015-08-26T11:09:20Z</time>
      </trkpt>
      <trkpt lat="43.40437" lon="2.07389">
        <ele>616.596</ele>
        <time>2015-08-26T11:09:40Z</time>
      </trkpt>
      <trkpt lat="43.4041" lon="2.07267">
        <ele>616.197</ele>
        <time>2015-08-26T11:10:00Z</time>
      </trkpt>
      <trkpt lat="43.40413" lon="2.07199">
        <ele>616.062</ele>
        <time>2015-08-26T11:10:20Z</time>
      </trkpt>
      <trkpt lat="43.40419" lon="2.07139">
        <ele>615.831</ele>
        <time>2015-08-26T11:10:40Z</time>
      </trkpt>
      <trkpt lat="43.40431" lon="2.07095">
        <ele>615.014</ele>
        <time>2015-08-26T11:11:00Z</time>
      </trkpt>
      <trkpt lat="43.40481" lon="2.07002">
        <ele>615.041</ele>
        <time>2015-08-26T11:11:20Z</time>
      </trkpt>
      <trkpt lat="43.40538" lon="2.06879">
        <ele>616.875</ele>
        <time>2015-08-26T11:11:40Z</time>
      </trkpt>
      <trkpt lat="43.4054" lon="2.0683">
        <ele>617.172</ele>
        <time>2015-08-26T11:12:00Z</time>
      </trkpt>
      <trkpt lat="43.40537" lon="2.0674">
        <ele>618.413</ele>
        <time>2015-08-26T11:12:20Z</time>
      </trkpt>
      <trkpt lat="43.40525" lon="2.06678">
        <ele>618.614</ele>
        <time>2015-08-26T11:12:40Z</time>
      </trkpt>
      <trkpt lat="43.40534" lon="2.06665">
        <ele>619.108</ele>
        <time>2015-08-26T11:13:00Z</time>
      </trkpt>
      <trkpt lat="43.40506" lon="2.06565">
        <ele>621.653</ele>
        <time>2015-08-26T11:13:20Z</time>
      </trkpt>
      <trkpt lat="43.40483" lon="2.06524">
        <ele>624.688</ele>
        <time>2015-08-26T11:13:40Z</time>
      </trkpt>
      <trkpt lat="43.404" lon="2.06465">
        <ele>623.939</ele>
        <time>2015-08-26T11:14:00Z</time>
      </trkpt>
      <trkpt lat="43.40391" lon="2.06467">
        <ele>623.384</ele>
        <time>2015-08-26T11:14:20Z</time>
      </trkpt>
      <trkpt lat="43.40275" lon="2.06375">
        <ele>613.083</ele>
        <time>2015-08-26T11:14:40Z</time>
      </trkpt>
      <trkpt lat="43.40198" lon="2.06282">
        <ele>605.746</ele>
        <time>2015-08-26T11:15:00Z</time>
      </trkpt>
      <trkpt lat="43.40098" lon="2.06048">
        <ele>588.513</ele>
        <time>2015-08-26T11:15:20Z</time>
      </trkpt>
      <trkpt lat="43.40045" lon="2.05922">
        <ele>581.417</ele>
        <time>2015-08-26T11:15:40Z</time>
      </trkpt>
      <trkpt lat="43.4" lon="2.05863">
        <ele>577.147</ele>
        <time>2015-08-26T11:16:00Z</time>
      </trkpt>
      <trkpt lat="43.39897" lon="2.058">
        <ele>570.029</ele>
        <time>2015-08-26T11:16:20Z</time>
      </trkpt>
      <trkpt lat="43.39808" lon="2.0576">
        <ele>570.021</ele>
        <time>2015-08-26T11:16:40Z</time>
      </trkpt>
      <trkpt lat="43.39747" lon="2.05706">
        <ele>569.908</ele>
        <time>2015-08-26T11:17:00Z</time>
      </trkpt>
      <trkpt lat="43.39659" lon="2.05602">
        <ele>562.16</ele>
        <time>2015-08-26T11:17:20Z</time>
      </trkpt>
      <trkpt lat="43.3948" lon="2.05205">
        <ele>537.275</ele>
        <time>2015-08-26T11:17:40Z</time>
      </trkpt>
      <trkpt lat="43.3942" lon="2.05129">
        <ele>532.296</ele>
        <time>2015-08-26T11:18:00Z</time>
      </trkpt>
      <trkpt lat="43.39364" lon="2.0504">
        <ele>534.881</ele>
        <time>2015-08-26T11:18:20Z</time>
      </trkpt>
      <trkpt lat="43.393" lon="2.04962">
        <ele>531.47</ele>
        <time>2015-08-26T11:18:40Z</time>
      </trkpt>
      <trkpt lat="43.392" lon="2.0478">
        <ele>522.973</ele>
        <time>2015-08-26T11:19:00Z</time>
      </trkpt>
      <trkpt lat="43.39113" lon="2.04589">
        <ele>511.37</ele>
        <time>2015-08-26T11:19:20Z</time>
      </trkpt>
      <trkpt lat="43.39087" lon="2.04607">
        <ele>507.184</ele>
        <time>2015-08-26T11:19:40Z</time>
      </trkpt>
      <trkpt lat="43.39084" lon="2.04735">
        <ele>504.619</ele>
        <time>2015-08-26T11:20:00Z</time>
      </trkpt>
      <trkpt lat="43.3906" lon="2.04843">
        <ele>502.909</ele>
        <time>2015-08-26T11:20:20Z</time>
      </trkpt>
      <trkpt lat="43.3904" lon="2.04843">
        <ele>502.519</ele>
        <time>2015-08-26T11:20:40Z</time>
      </trkpt>
      <trkpt lat="43.38995" lon="2.04775">
        <ele>501.408</ele>
        <time>2015-08-26T11:21:00Z</time>
      </trkpt>
      <trkpt lat="43.38981" lon="2.04774">
        <ele>499.877</ele>
        <time>2015-08-26T11:21:20Z</time>
      </trkpt>
      <trkpt lat="43.38972" lon="2.04861">
        <ele>500.822</ele>
        <time>2015-08-26T11:21:40Z</time>
      </trkpt>
      <trkpt lat="43.38968" lon="2.04977">
        <ele>502.543</ele>
        <time>2015-08-26T11:22:00Z</time>
      </trkpt>
      <trkpt lat="43.38972" lon="2.05039">
        <ele>501.058</ele>
        <time>2015-08-26T11:22:20Z</time>
      </trkpt>
      <trkpt lat="43.38992" lon="2.05097">
        <ele>503.247</ele>
        <time>2015-08-26T11:22:40Z</time>
      </trkpt>
      <trkpt lat="43.39018" lon="2.05197">
        <ele>509.25</ele>
        <time>2015-08-26T11:23:00Z</time>
      </trkpt>
      <trkpt lat="43.39011" lon="2.05251">
        <ele>508.087</ele>
        <time>2015-08-26T11:23:20Z</time>
      </trkpt>
      <trkpt lat="43.39009" lon="2.05434">
        <ele>508.241</ele>
        <time>2015-08-26T11:23:40Z</time>
      </trkpt>
      <trkpt lat="43.39004" lon="2.05462">
        <ele>506.113</ele>
        <time>2015-08-26T11:24:00Z</time>
      </trkpt>
      <trkpt lat="43.38967" lon="2.05504">
        <ele>497.043</ele>
        <time>2015-08-26T11:24:20Z</time>
      </trkpt>
      <trkpt lat="43.38899" lon="2.05474">
        <ele>499.407</ele>
        <time>2015-08-26T11:24:40Z</time>
      </trkpt>
      <trkpt lat="43.38802" lon="2.05396">
        <ele>499.608</ele>
        <time>2015-08-26T11:25:00Z</time>
      </trkpt>
      <trkpt lat="43.38575" lon="2.05378">
        <ele>489.587</ele>
        <time>2015-08-26T11:25:20Z</time>
      </trkpt>
      <trkpt lat="43.38522" lon="2.05351">
        <ele>485.522</ele>
        <time>2015-08-26T11:25:40Z</time>
      </trkpt>
      <trkpt lat="43.38471" lon="2.05284">
        <ele>478.983</ele>
        <time>2015-08-26T11:26:00Z</time>
      </trkpt>
      <trkpt lat="43.3844" lon="2.0527">
        <ele>475.788</ele>
        <time>2015-08-26T11:26:20Z</time>
      </trkpt>
      <trkpt lat="43.38344" lon="2.05284">
        <ele>469.647</ele>
        <time>2015-08-26T11:26:40Z</time>
      </trkpt>
      <trkpt lat="43.38091" lon="2.05438">
        <ele>455.03</ele>
        <time>2015-08-26T11:27:00Z</time>
      </trkpt>
      <trkpt lat="43.38034" lon="2.05464">
        <ele>455.047</ele>
        <time>2015-08-26T11:27:20Z</time>
      </trkpt>
      <trkpt lat="43.37788" lon="2.05519">
        <ele>438.891</ele>
        <time>2015-08-26T11:27:40Z</time>
      </trkpt>
      <trkpt lat="43.377" lon="2.05588">
        <ele>430.695</ele>
        <time>2015-08-26T11:28:00Z</time>
      </trkpt>
      <trkpt lat="43.37475" lon="2.05652">
        <ele>412.249</ele>
        <time>2015-08-26T11:28:20Z</time>
      </trkpt>
      <trkpt lat="43.37385" lon="2.05658">
        <ele>405.723</ele>
        <time>2015-08-26T11:28:40Z</time>
      </trkpt>
      <trkpt lat="43.37265" lon="2.05715">
        <ele>398.408</ele>
        <time>2015-08-26T11:29:00Z</time>
      </trkpt>
      <trkpt lat="43.37184" lon="2.05782">
        <ele>389.755</ele>
        <time>2015-08-26T11:29:20Z</time>
      </trkpt>
      <trkpt lat="43.37085" lon="2.05784">
        <ele>385.28</ele>
        <time>2015-08-26T11:29:40Z</time>
      </trkpt>
      <trkpt lat="43.36982" lon="2.05723">
        <ele>379.851</ele>
        <time>2015-08-26T11:30:00Z</time>
      </trkpt>
      <trkpt lat="43.36954" lon="2.05721">
        <ele>376.356</ele>
        <time>2015-08-26T11:30:20Z</time>
      </trkpt>
      <trkpt lat="43.36899" lon="2.05778">
        <ele>369.965</ele>
        <time>2015-08-26T11:30:40Z</time>
      </trkpt>
      <trkpt lat="43.36801" lon="2.05818">
        <ele>359.228</ele>
        <time>2015-08-26T11:31:00Z</time>
      </trkpt>
      <trkpt lat="43.36671" lon="2.05842">
        <ele>343.345</ele>
        <time>2015-08-26T11:31:20Z</time>
      </trkpt>
      <trkpt lat="43.36655" lon="2.05876">
        <ele>339.789</ele>
        <time>2015-08-26T11:31:40Z</time>
      </trkpt>
      <trkpt lat="43.36582" lon="2.05877">
        <ele>327.739</ele>
        <time>2015-08-26T11:32:00Z</time>
      </trkpt>
      <trkpt lat="43.36513" lon="2.05921">
        <ele>315.001</ele>
        <time>2015-08-26T11:32:20Z</time>
      </trkpt>
      <trkpt lat="43.36517" lon="2.05967">
        <ele>313.121</ele>
        <time>2020-12-01T19:57:48Z</time>
      </trkpt>
      <trkpt lat="43.36505" lon="2.0602">
        <ele>308.208</ele>
        <time>2020-12-01T19:58:08Z</time>
      </trkpt>
      <trkpt lat="43.36483" lon="2.06067">
        <ele>305.769</ele>
        <time>2015-08-26T11:33:20Z</time>
      </trkpt>
      <trkpt lat="43.36447" lon="2.06103">
        <ele>305.874</ele>
        <time>2015-08-26T11:33:40Z</time>
      </trkpt>
      <trkpt lat="43.3639" lon="2.06136">
        <ele>301.025</ele>
        <time>2015-08-26T11:34:00Z</time>
      </trkpt>
      <trkpt lat="43.36347" lon="2.06121">
        <ele>301.64</ele>
        <time>2015-08-26T11:34:20Z</time>
      </trkpt>
      <trkpt lat="43.36311" lon="2.061">
        <ele>297.459</ele>
        <time>2015-08-26T11:34:40Z</time>
      </trkpt>
      <trkpt lat="43.36264" lon="2.06084">
        <ele>283.692</ele>
        <time>2015-08-26T11:35:00Z</time>
      </trkpt>
      <trkpt lat="43.36255" lon="2.06053">
        <ele>283.829</ele>
        <time>2015-08-26T11:35:20Z</time>
      </trkpt>
      <trkpt lat="43.36243" lon="2.06045">
        <ele>284.883</ele>
        <time>2015-08-26T11:35:40Z</time>
      </trkpt>
      <trkpt lat="43.36222" lon="2.06053">
        <ele>283.071</ele>
        <time>2015-08-26T11:36:00Z</time>
      </trkpt>
      <trkpt lat="43.36187" lon="2.06048">
        <ele>287.041</ele>
        <time>2015-08-26T11:36:20Z</time>
      </trkpt>
      <trkpt lat="43.3612" lon="2.06015">
        <ele>287.215</ele>
        <time>2015-08-26T11:36:40Z</time>
      </trkpt>
      <trkpt lat="43.36116" lon="2.05995">
        <ele>287.708</ele>
        <time>2015-08-26T11:37:00Z</time>
      </trkpt>
      <trkpt lat="43.36131" lon="2.05953">
        <ele>296.663</ele>
        <time>2015-08-26T11:37:20Z</time>
      </trkpt>
      <trkpt lat="43.36124" lon="2.05908">
        <ele>293.668</ele>
        <time>2015-08-26T11:37:40Z</time>
      </trkpt>
      <trkpt lat="43.36112" lon="2.05896">
        <ele>291.289</ele>
        <time>2015-08-26T11:38:00Z</time>
      </trkpt>
      <trkpt lat="43.36078" lon="2.05937">
        <ele>293.614</ele>
        <time>2015-08-26T11:38:20Z</time>
      </trkpt>
      <trkpt lat="43.36051" lon="2.05949">
        <ele>299.173</ele>
        <time>2015-08-26T11:38:40Z</time>
      </trkpt>
      <trkpt lat="43.35968" lon="2.05924">
        <ele>305.386</ele>
        <time>2015-08-26T11:39:00Z</time>
      </trkpt>
      <trkpt lat="43.35943" lon="2.05912">
        <ele>305.333</ele>
        <time>2015-08-26T11:39:20Z</time>
      </trkpt>
      <trkpt lat="43.3584" lon="2.05966">
        <ele>297.457</ele>
        <time>2015-08-26T11:39:40Z</time>
      </trkpt>
      <trkpt lat="43.35781" lon="2.06022">
        <ele>293.758</ele>
        <time>2015-08-26T11:40:00Z</time>
      </trkpt>
      <trkpt lat="43.35765" lon="2.0602">
        <ele>293.252</ele>
        <time>2015-08-26T11:40:20Z</time>
      </trkpt>
      <trkpt lat="43.35708" lon="2.05956">
        <ele>286.117</ele>
        <time>2015-08-26T11:40:40Z</time>
      </trkpt>
      <trkpt lat="43.35651" lon="2.05914">
        <ele>290.408</ele>
        <time>2015-08-26T11:41:00Z</time>
      </trkpt>
      <trkpt lat="43.35578" lon="2.05828">
        <ele>287.231</ele>
        <time>2015-08-26T11:41:20Z</time>
      </trkpt>
      <trkpt lat="43.35494" lon="2.05741">
        <ele>278.846</ele>
        <time>2015-08-26T11:41:40Z</time>
      </trkpt>
      <trkpt lat="43.35471" lon="2.05705">
        <ele>278.627</ele>
        <time>2015-08-26T11:42:00Z</time>
      </trkpt>
      <trkpt lat="43.35432" lon="2.05677">
        <ele>278.212</ele>
        <time>2015-08-26T11:42:20Z</time>
      </trkpt>
      <trkpt lat="43.3542" lon="2.05645">
        <ele>278.971</ele>
        <time>2015-08-26T11:42:40Z</time>
      </trkpt>
      <trkpt lat="43.35465" lon="2.05611">
        <ele>279.754</ele>
        <time>2015-08-26T11:43:00Z</time>
      </trkpt>
      <trkpt lat="43.35447" lon="2.05537">
        <ele>275.591</ele>
        <time>2015-08-26T11:43:20Z</time>
      </trkpt>
      <trkpt lat="43.35435" lon="2.0541">
        <ele>270.185</ele>
        <time>2015-08-26T11:43:40Z</time>
      </trkpt>
      <trkpt lat="43.35457" lon="2.05354">
        <ele>266.941</ele>
        <time>2015-08-26T11:44:00Z</time>
      </trkpt>
      <trkpt lat="43.3549" lon="2.05161">
        <ele>256.081</ele>
        <time>2015-08-26T11:44:20Z</time>
      </trkpt>
      <trkpt lat="43.35494" lon="2.05146">
        <ele>254.309</ele>
        <time>2015-08-26T11:44:40Z</time>
      </trkpt>
      <trkpt lat="43.35495" lon="2.05096">
        <ele>251.908</ele>
        <time>2015-08-26T11:45:00Z</time>
      </trkpt>
      <trkpt lat="43.3551" lon="2.04974">
        <ele>241.79</ele>
        <time>2015-08-26T11:45:20Z</time>
      </trkpt>
      <trkpt lat="43.35506" lon="2.04929">
        <ele>239.365</ele>
        <time>2015-08-26T11:45:40Z</time>
      </trkpt>
      <trkpt lat="43.35494" lon="2.04893">
        <ele>236.776</ele>
        <time>2015-08-26T11:46:00Z</time>
      </trkpt>
      <trkpt lat="43.35453" lon="2.04861">
        <ele>233.071</ele>
        <time>2015-08-26T11:46:20Z</time>
      </trkpt>
      <trkpt lat="43.35383" lon="2.04816">
        <ele>230.26</ele>
        <time>2015-08-26T11:46:40Z</time>
      </trkpt>
      <trkpt lat="43.35383" lon="2.04799">
        <ele>231.253</ele>
        <time>2015-08-26T11:47:00Z</time>
      </trkpt>
      <trkpt lat="43.35434" lon="2.04727">
        <ele>227.93</ele>
        <time>2015-08-26T11:47:20Z</time>
      </trkpt>
      <trkpt lat="43.3547" lon="2.0465">
        <ele>225.054</ele>
        <time>2015-08-26T11:47:40Z</time>
      </trkpt>
      <trkpt lat="43.35467" lon="2.04637">
        <ele>224.994</ele>
        <time>2015-08-26T11:48:00Z</time>
      </trkpt>
      <trkpt lat="43.3546" lon="2.04629">
        <ele>224.157</ele>
        <time>2015-08-26T11:48:20Z</time>
      </trkpt>
      <trkpt lat="43.35408" lon="2.04631">
        <ele>224.522</ele>
        <time>2015-08-26T11:48:40Z</time>
      </trkpt>
      <trkpt lat="43.35402" lon="2.04604">
        <ele>225.608</ele>
        <time>2015-08-26T11:49:00Z</time>
      </trkpt>
      <trkpt lat="43.35416" lon="2.04553">
        <ele>222.495</ele>
        <time>2015-08-26T11:49:20Z</time>
      </trkpt>
      <trkpt lat="43.35429" lon="2.0452">
        <ele>221.73</ele>
        <time>2015-08-26T11:49:40Z</time>
      </trkpt>
      <trkpt lat="43.35438" lon="2.04481">
        <ele>220.011</ele>
        <time>2015-08-26T11:50:00Z</time>
      </trkpt>
      <trkpt lat="43.35439" lon="2.04425">
        <ele>216.246</ele>
        <time>2015-08-26T11:50:20Z</time>
      </trkpt>
      <trkpt lat="43.35413" lon="2.0434">
        <ele>211.665</ele>
        <time>2020-03-08T20:56:37Z</time>
      </trkpt>
      <trkpt lat="43.35399" lon="2.04254">
        <ele>203.848</ele>
        <time>2020-03-08T20:56:57Z</time>
      </trkpt>
      <trkpt lat="43.35364" lon="2.04232">
        <ele>203.625</ele>
        <time>2020-03-08T20:57:17Z</time>
      </trkpt>
      <trkpt lat="43.35351" lon="2.0421">
        <ele>201.749</ele>
        <time>2015-08-26T11:51:00Z</time>
      </trkpt>
      <trkpt lat="43.35433" lon="2.04201">
        <ele>198.328</ele>
        <time>2020-03-08T20:57:57Z</time>
      </trkpt>
      <trkpt lat="43.35435" lon="2.04158">
        <ele>197.989</ele>
        <time>2015-08-26T11:51:40Z</time>
      </trkpt>
      <trkpt lat="43.35464" lon="2.04122">
        <ele>201.817</ele>
        <time>2020-03-08T20:58:37Z</time>
      </trkpt>
      <trkpt lat="43.35471" lon="2.04022">
        <ele>214.808</ele>
        <time>2015-08-26T11:52:20Z</time>
      </trkpt>
      <trkpt lat="43.35423" lon="2.03934">
        <ele>221.758</ele>
        <time>2015-08-26T11:52:40Z</time>
      </trkpt>
      <trkpt lat="43.35402" lon="2.03862">
        <ele>227.093</ele>
        <time>2015-08-26T11:53:00Z</time>
      </trkpt>
      <trkpt lat="43.35407" lon="2.03793">
        <ele>225.024</ele>
        <time>2015-08-26T11:53:20Z</time>
      </trkpt>
      <trkpt lat="43.35423" lon="2.03699">
        <ele>223.699</ele>
        <time>2015-08-26T11:53:40Z</time>
      </trkpt>
      <trkpt lat="43.3543" lon="2.0356">
        <ele>222.968</ele>
        <time>2015-08-26T11:54:00Z</time>
      </trkpt>
      <trkpt lat="43.35429" lon="2.03523">
        <ele>223.361</ele>
        <time>2015-08-26T11:54:20Z</time>
      </trkpt>
      <trkpt lat="43.35435" lon="2.03493">
        <ele>223.548</ele>
        <time>2015-08-26T11:54:40Z</time>
      </trkpt>
      <trkpt lat="43.35444" lon="2.03328">
        <ele>224.032</ele>
        <time>2015-08-26T11:55:00Z</time>
      </trkpt>
      <trkpt lat="43.35073" lon="2.03238">
        <ele>234.082</ele>
        <time>2015-08-26T11:55:20Z</time>
      </trkpt>
      <trkpt lat="43.34911" lon="2.03312">
        <ele>234.143</ele>
        <time>2015-08-26T11:55:40Z</time>
      </trkpt>
      <trkpt lat="43.34851" lon="2.03309">
        <ele>230.217</ele>
        <time>2015-08-26T11:56:00Z</time>
      </trkpt>
      <trkpt lat="43.34804" lon="2.03284">
        <ele>225.908</ele>
        <time>2015-08-26T11:56:20Z</time>
      </trkpt>
      <trkpt lat="43.34623" lon="2.03155">
        <ele>224.614</ele>
        <time>2015-08-26T11:56:40Z</time>
      </trkpt>
      <trkpt lat="43.34593" lon="2.03168">
        <ele>225.069</ele>
        <time>2015-08-26T11:57:00Z</time>
      </trkpt>
      <trkpt lat="43.34567" lon="2.03107">
        <ele>221.57</ele>
        <time>2015-08-26T11:57:20Z</time>
      </trkpt>
      <trkpt lat="43.34497" lon="2.03015">
        <ele>211.675</ele>
        <time>2015-08-26T11:57:40Z</time>
      </trkpt>
      <trkpt lat="43.3435" lon="2.02872">
        <ele>195.234</ele>
        <time>2015-08-26T11:58:00Z</time>
      </trkpt>
      <trkpt lat="43.34224" lon="2.02734">
        <ele>180.997</ele>
        <time>2015-08-26T11:58:20Z</time>
      </trkpt>
      <trkpt lat="43.34098" lon="2.02838">
        <ele>180.154</ele>
        <time>2015-08-26T11:58:40Z</time>
      </trkpt>
      <trkpt lat="43.3403" lon="2.02964">
        <ele>178.628</ele>
        <time>2015-08-26T11:59:00Z</time>
      </trkpt>
      <trkpt lat="43.33983" lon="2.03026">
        <ele>177.778</ele>
        <time>2015-08-26T11:59:20Z</time>
      </trkpt>
      <trkpt lat="43.33936" lon="2.03055">
        <ele>177.633</ele>
        <time>2015-08-26T11:59:40Z</time>
      </trkpt>
      <trkpt lat="43.33836" lon="2.03084">
        <ele>178.126</ele>
        <time>2015-08-26T12:00:00Z</time>
      </trkpt>
      <trkpt lat="43.33785" lon="2.03134">
        <ele>180.208</ele>
        <time>2015-08-26T12:00:20Z</time>
      </trkpt>
      <trkpt lat="43.33774" lon="2.03217">
        <ele>186.913</ele>
        <time>2015-08-26T12:00:40Z</time>
      </trkpt>
      <trkpt lat="43.33673" lon="2.03415">
        <ele>191.158</ele>
        <time>2015-08-26T12:01:00Z</time>
      </trkpt>
      <trkpt lat="43.3361" lon="2.03438">
        <ele>186.769</ele>
        <time>2015-08-26T12:01:20Z</time>
      </trkpt>
      <trkpt lat="43.33544" lon="2.03443">
        <ele>184.184</ele>
        <time>2015-08-26T12:01:40Z</time>
      </trkpt>
      <trkpt lat="43.33425" lon="2.03401">
        <ele>184.983</ele>
        <time>2015-08-26T12:02:00Z</time>
      </trkpt>
      <trkpt lat="43.33145" lon="2.03612">
        <ele>172.016</ele>
        <time>2015-08-26T12:02:20Z</time>
      </trkpt>
      <trkpt lat="43.33137" lon="2.03586">
        <ele>172.033</ele>
        <time>2015-08-26T12:02:40Z</time>
      </trkpt>
      <trkpt lat="43.33127" lon="2.03581">
        <ele>171.957</ele>
        <time>2015-08-26T12:03:00Z</time>
      </trkpt>
      <trkpt lat="43.33115" lon="2.03529">
        <ele>170.923</ele>
        <time>2015-08-26T12:03:20Z</time>
      </trkpt>
      <trkpt lat="43.33085" lon="2.03492">
        <ele>170.783</ele>
        <time>2015-08-26T12:03:40Z</time>
      </trkpt>
      <trkpt lat="43.3306" lon="2.03489">
        <ele>170.911</ele>
        <time>2015-08-26T12:04:00Z</time>
      </trkpt>
      <trkpt lat="43.32907" lon="2.03427">
        <ele>170.008</ele>
        <time>2015-08-26T12:04:20Z</time>
      </trkpt>
      <trkpt lat="43.32892" lon="2.03361">
        <ele>170.098</ele>
        <time>2015-08-26T12:04:40Z</time>
      </trkpt>
      <trkpt lat="43.32871" lon="2.03039">
        <ele>177.523</ele>
        <time>2015-08-26T12:05:00Z</time>
      </trkpt>
      <trkpt lat="43.32783" lon="2.03049">
        <ele>174.834</ele>
        <time>2015-08-26T12:05:20Z</time>
      </trkpt>
      <trkpt lat="43.32694" lon="2.03068">
        <ele>175.069</ele>
        <time>2015-08-26T12:05:40Z</time>
      </trkpt>
      <trkpt lat="43.32593" lon="2.03068">
        <ele>170.388</ele>
        <time>2015-08-26T12:06:00Z</time>
      </trkpt>
      <trkpt lat="43.32535" lon="2.03038">
        <ele>170.361</ele>
        <time>2015-08-26T12:06:20Z</time>
      </trkpt>
      <trkpt lat="43.3244" lon="2.03015">
        <ele>175.228</ele>
        <time>2015-08-26T12:06:40Z</time>
      </trkpt>
      <trkpt lat="43.32369" lon="2.02985">
        <ele>178.162</ele>
        <time>2015-08-26T12:07:00Z</time>
      </trkpt>
      <trkpt lat="43.3232" lon="2.03014">
        <ele>178.746</ele>
        <time>2015-08-26T12:07:20Z</time>
      </trkpt>
      <trkpt lat="43.32287" lon="2.0302">
        <ele>181.188</ele>
        <time>2015-08-26T12:07:40Z</time>
      </trkpt>
      <trkpt lat="43.32258" lon="2.02952">
        <ele>190.216</ele>
        <time>2015-08-26T12:08:00Z</time>
      </trkpt>
      <trkpt lat="43.32217" lon="2.02893">
        <ele>188.808</ele>
        <time>2015-08-26T12:08:20Z</time>
      </trkpt>
      <trkpt lat="43.32117" lon="2.02824">
        <ele>180.16</ele>
        <time>2015-08-26T12:08:40Z</time>
      </trkpt>
      <trkpt lat="43.32084" lon="2.0278">
        <ele>177.175</ele>
        <time>2015-08-26T12:09:00Z</time>
      </trkpt>
      <trkpt lat="43.3199" lon="2.02697">
        <ele>172.136</ele>
        <time>2015-08-26T12:09:20Z</time>
      </trkpt>
      <trkpt lat="43.31895" lon="2.02667">
        <ele>170.211</ele>
        <time>2015-08-26T12:09:40Z</time>
      </trkpt>
      <trkpt lat="43.31859" lon="2.02645">
        <ele>169.14</ele>
        <time>2015-08-26T12:10:00Z</time>
      </trkpt>
      <trkpt lat="43.31836" lon="2.02647">
        <ele>168.643</ele>
        <time>2015-08-26T12:10:20Z</time>
      </trkpt>
      <trkpt lat="43.31815" lon="2.02645">
        <ele>167.91</ele>
        <time>2015-08-26T12:10:40Z</time>
      </trkpt>
      <trkpt lat="43.3177" lon="2.02658">
        <ele>169.164</ele>
        <time>2015-08-26T12:11:00Z</time>
      </trkpt>
      <trkpt lat="43.31694" lon="2.027">
        <ele>170.031</ele>
        <time>2015-08-26T12:11:20Z</time>
      </trkpt>
      <trkpt lat="43.31643" lon="2.02716">
        <ele>170.061</ele>
        <time>2015-08-26T12:11:40Z</time>
      </trkpt>
      <trkpt lat="43.31598" lon="2.02771">
        <ele>170.007</ele>
        <time>2015-08-26T12:12:00Z</time>
      </trkpt>
      <trkpt lat="43.31582" lon="2.02776">
        <ele>169.908</ele>
        <time>2015-08-26T12:12:20Z</time>
      </trkpt>
      <trkpt lat="43.31559" lon="2.02807">
        <ele>170.069</ele>
        <time>2015-08-26T12:12:40Z</time>
      </trkpt>
      <trkpt lat="43.3155" lon="2.02781">
        <ele>168.374</ele>
        <time>2015-08-26T12:13:00Z</time>
      </trkpt>
      <trkpt lat="43.31551" lon="2.02617">
        <ele>154.655</ele>
        <time>2015-08-26T12:13:20Z</time>
      </trkpt>
      <trkpt lat="43.31491" lon="2.02617">
        <ele>151.62</ele>
        <time>2015-08-26T12:13:40Z</time>
      </trkpt>
      <trkpt lat="43.31339" lon="2.02474">
        <ele>165.989</ele>
        <time>2019-03-29T01:37:31Z</time>
      </trkpt>
      <trkpt lat="43.31301" lon="2.02616">
        <ele>153.732</ele>
        <time>2019-03-29T01:37:51Z</time>
      </trkpt>
      <trkpt lat="43.31154" lon="2.02764">
        <ele>150.099</ele>
        <time>2015-08-26T12:14:40Z</time>
      </trkpt>
      <trkpt lat="43.30996" lon="2.02841">
        <ele>150.053</ele>
        <time>2015-08-26T12:15:00Z</time>
      </trkpt>
      <trkpt lat="43.30649" lon="2.02786">
        <ele>150.012</ele>
        <time>2015-08-26T12:15:20Z</time>
      </trkpt>
      <trkpt lat="43.30578" lon="2.02748">
        <ele>152.532</ele>
        <time>2015-08-26T12:15:40Z</time>
      </trkpt>
      <trkpt lat="43.30537" lon="2.02792">
        <ele>150.105</ele>
        <time>2015-08-26T12:16:00Z</time>
      </trkpt>
      <trkpt lat="43.30328" lon="2.02704">
        <ele>143.308</ele>
        <time>2015-08-26T12:16:20Z</time>
      </trkpt>
      <trkpt lat="43.30185" lon="2.02533">
        <ele>140.027</ele>
        <time>2015-08-26T12:16:40Z</time>
      </trkpt>
      <trkpt lat="43.3015" lon="2.02499">
        <ele>140.022</ele>
        <time>2015-08-26T12:17:00Z</time>
      </trkpt>
      <trkpt lat="43.30107" lon="2.025">
        <ele>141.043</ele>
        <time>2015-08-26T12:17:20Z</time>
      </trkpt>
      <trkpt lat="43.29922" lon="2.02347">
        <ele>151.998</ele>
        <time>2015-08-26T12:17:40Z</time>
      </trkpt>
      <trkpt lat="43.29889" lon="2.02342">
        <ele>157.717</ele>
        <time>2015-08-26T12:18:00Z</time>
      </trkpt>
      <trkpt lat="43.299" lon="2.02292">
        <ele>161.01</ele>
        <time>2015-08-26T12:18:20Z</time>
      </trkpt>
      <trkpt lat="43.29878" lon="2.02228">
        <ele>166.997</ele>
        <time>2015-08-26T12:18:40Z</time>
      </trkpt>
      <trkpt lat="43.29811" lon="2.02181">
        <ele>165.251</ele>
        <time>2015-08-26T12:19:00Z</time>
      </trkpt>
      <trkpt lat="43.29845" lon="2.02066">
        <ele>165.668</ele>
        <time>2015-08-26T12:19:20Z</time>
      </trkpt>
      <trkpt lat="43.29633" lon="2.01908">
        <ele>154.742</ele>
        <time>2015-08-26T12:19:40Z</time>
      </trkpt>
      <trkpt lat="43.2955" lon="2.0207">
        <ele>154.826</ele>
        <time>2015-08-26T12:20:00Z</time>
      </trkpt>
      <trkpt lat="43.29548" lon="2.02111">
        <ele>155.008</ele>
        <time>2015-08-26T12:20:20Z</time>
      </trkpt>
      <trkpt lat="43.29529" lon="2.02133">
        <ele>154.242</ele>
        <time>2015-08-26T12:20:40Z</time>
      </trkpt>
      <trkpt lat="43.29492" lon="2.02141">
        <ele>153.077</ele>
        <time>2015-08-26T12:21:00Z</time>
      </trkpt>
      <trkpt lat="43.29407" lon="2.02254">
        <ele>150.618</ele>
        <time>2015-08-26T12:21:20Z</time>
      </trkpt>
      <trkpt lat="43.29284" lon="2.02347">
        <ele>150.013</ele>
        <time>2015-08-26T12:21:40Z</time>
      </trkpt>
      <trkpt lat="43.29179" lon="2.02514">
        <ele>148.232</ele>
        <time>2015-08-26T12:22:00Z</time>
      </trkpt>
      <trkpt lat="43.29037" lon="2.02694">
        <ele>145.725</ele>
        <time>2015-08-26T12:22:20Z</time>
      </trkpt>
      <trkpt lat="43.28961" lon="2.02627">
        <ele>149.752</ele>
        <time>2015-08-26T12:22:40Z</time>
      </trkpt>
      <trkpt lat="43.28932" lon="2.02632">
        <ele>150.056</ele>
        <time>2015-08-26T12:23:00Z</time>
      </trkpt>
      <trkpt lat="43.2891" lon="2.02692">
        <ele>150.085</ele>
        <time>2015-08-26T12:23:20Z</time>
      </trkpt>
      <trkpt lat="43.28876" lon="2.02754">
        <ele>150.089</ele>
        <time>2015-08-26T12:23:40Z</time>
      </trkpt>
      <trkpt lat="43.28809" lon="2.02906">
        <ele>146.117</ele>
        <time>2015-08-26T12:24:00Z</time>
      </trkpt>
      <trkpt lat="43.2874" lon="2.0303">
        <ele>141.308</ele>
        <time>2015-08-26T12:24:20Z</time>
      </trkpt>
      <trkpt lat="43.28655" lon="2.02984">
        <ele>139.014</ele>
        <time>2015-08-26T12:24:40Z</time>
      </trkpt>
      <trkpt lat="43.28591" lon="2.03275">
        <ele>139.019</ele>
        <time>2015-08-26T12:25:00Z</time>
      </trkpt>
      <trkpt lat="43.28566" lon="2.03364">
        <ele>139.01</ele>
        <time>2015-08-26T12:25:20Z</time>
      </trkpt>
      <trkpt lat="43.28547" lon="2.03409">
        <ele>139.065</ele>
        <time>2015-08-26T12:25:40Z</time>
      </trkpt>
      <trkpt lat="43.28524" lon="2.03496">
        <ele>138.864</ele>
        <time>2015-08-26T12:26:00Z</time>
      </trkpt>
      <trkpt lat="43.28422" lon="2.03834">
        <ele>135.267</ele>
        <time>2015-08-26T12:26:20Z</time>
      </trkpt>
      <trkpt lat="43.28279" lon="2.0426">
        <ele>134.084</ele>
        <time>2015-08-26T12:26:40Z</time>
      </trkpt>
      <trkpt lat="43.28271" lon="2.04302">
        <ele>134.078</ele>
        <time>2015-08-26T12:27:00Z</time>
      </trkpt>
      <trkpt lat="43.28053" lon="2.04934">
        <ele>133.078</ele>
        <time>2015-08-26T12:27:20Z</time>
      </trkpt>
      <trkpt lat="43.28051" lon="2.05012">
        <ele>133.033</ele>
        <time>2015-08-26T12:27:40Z</time>
      </trkpt>
      <trkpt lat="43.28025" lon="2.05016">
        <ele>133.026</ele>
        <time>2015-08-26T12:28:00Z</time>
      </trkpt>
      <trkpt lat="43.27934" lon="2.05275">
        <ele>132.008</ele>
        <time>2015-08-26T12:28:20Z</time>
      </trkpt>
      <trkpt lat="43.27835" lon="2.05589">
        <ele>132.053</ele>
        <time>2015-08-26T12:28:40Z</time>
      </trkpt>
      <trkpt lat="43.2781" lon="2.05676">
        <ele>132.028</ele>
        <time>2015-08-26T12:29:00Z</time>
      </trkpt>
      <trkpt lat="43.27775" lon="2.05845">
        <ele>132.079</ele>
        <time>2015-08-26T12:29:20Z</time>
      </trkpt>
      <trkpt lat="43.2764" lon="2.06858">
        <ele>131.114</ele>
        <time>2015-08-26T12:29:40Z</time>
      </trkpt>
      <trkpt lat="43.27613" lon="2.06963">
        <ele>131.043</ele>
        <time>2015-08-26T12:30:00Z</time>
      </trkpt>
      <trkpt lat="43.2751" lon="2.07223">
        <ele>131.016</ele>
        <time>2015-08-26T12:30:20Z</time>
      </trkpt>
      <trkpt lat="43.27522" lon="2.07309">
        <ele>131.083</ele>
        <time>2015-08-26T12:30:40Z</time>
      </trkpt>
      <trkpt lat="43.27554" lon="2.07397">
        <ele>130.367</ele>
        <time>2015-08-26T12:31:00Z</time>
      </trkpt>
      <trkpt lat="43.2761" lon="2.07511">
        <ele>130.077</ele>
        <time>2015-08-26T12:31:20Z</time>
      </trkpt>
      <trkpt lat="43.2762" lon="2.07568">
        <ele>130.061</ele>
        <time>2015-08-26T12:31:40Z</time>
      </trkpt>
      <trkpt lat="43.27598" lon="2.07824">
        <ele>130.227</ele>
        <time>2015-08-26T12:32:00Z</time>
      </trkpt>
      <trkpt lat="43.27602" lon="2.07891">
        <ele>130.008</ele>
        <time>2015-08-26T12:32:20Z</time>
      </trkpt>
      <trkpt lat="43.27536" lon="2.0788">
        <ele>131.053</ele>
        <time>2015-08-26T12:32:40Z</time>
      </trkpt>
      <trkpt lat="43.27454" lon="2.07779">
        <ele>132.728</ele>
        <time>2015-08-26T12:33:00Z</time>
      </trkpt>
      <trkpt lat="43.27297" lon="2.0765">
        <ele>140.019</ele>
        <time>2015-08-26T12:33:20Z</time>
      </trkpt>
      <trkpt lat="43.27194" lon="2.07468">
        <ele>142.074</ele>
        <time>2015-08-26T12:33:40Z</time>
      </trkpt>
      <trkpt lat="43.27064" lon="2.07303">
        <ele>156.853</ele>
        <time>2015-08-26T12:34:00Z</time>
      </trkpt>
      <trkpt lat="43.26857" lon="2.07123">
        <ele>160.026</ele>
        <time>2015-08-26T12:34:20Z</time>
      </trkpt>
      <trkpt lat="43.26733" lon="2.07136">
        <ele>156.383</ele>
        <time>2015-08-26T12:34:40Z</time>
      </trkpt>
      <trkpt lat="43.26537" lon="2.07087">
        <ele>147.767</ele>
        <time>2015-08-26T12:35:00Z</time>
      </trkpt>
      <trkpt lat="43.26463" lon="2.0708">
        <ele>147.045</ele>
        <time>2015-08-26T12:35:20Z</time>
      </trkpt>
      <trkpt lat="43.26257" lon="2.07106">
        <ele>149.847</ele>
        <time>2015-08-26T12:35:40Z</time>
      </trkpt>
      <trkpt lat="43.26201" lon="2.07104">
        <ele>150.011</ele>
        <time>2015-08-26T12:36:00Z</time>
      </trkpt>
      <trkpt lat="43.26057" lon="2.07004">
        <ele>150.008</ele>
        <time>2015-08-26T12:36:20Z</time>
      </trkpt>
      <trkpt lat="43.25965" lon="2.06971">
        <ele>147.58</ele>
        <time>2015-08-26T12:36:40Z</time>
      </trkpt>
      <trkpt lat="43.25867" lon="2.06905">
        <ele>145.045</ele>
        <time>2015-08-26T12:37:00Z</time>
      </trkpt>
      <trkpt lat="43.25643" lon="2.06821">
        <ele>143.066</ele>
        <time>2015-08-26T12:37:20Z</time>
      </trkpt>
      <trkpt lat="43.25555" lon="2.06796">
        <ele>142.721</ele>
        <time>2015-08-26T12:37:40Z</time>
      </trkpt>
      <trkpt lat="43.25472" lon="2.06761">
        <ele>142.03</ele>
        <time>2015-08-26T12:38:00Z</time>
      </trkpt>
      <trkpt lat="43.25332" lon="2.06715">
        <ele>142.053</ele>
        <time>2015-08-26T12:38:20Z</time>
      </trkpt>
      <trkpt lat="43.252" lon="2.06689">
        <ele>143.09</ele>
        <time>2015-08-26T12:38:40Z</time>
      </trkpt>
      <trkpt lat="43.25115" lon="2.0665">
        <ele>144.064</ele>
        <time>2015-08-26T12:39:00Z</time>
      </trkpt>
      <trkpt lat="43.24916" lon="2.06627">
        <ele>145.063</ele>
        <time>2015-08-26T12:39:20Z</time>
      </trkpt>
      <trkpt lat="43.24873" lon="2.06611">
        <ele>145.044</ele>
        <time>2015-08-26T12:39:40Z</time>
      </trkpt>
      <trkpt lat="43.24702" lon="2.06516">
        <ele>145.418</ele>
        <time>2015-08-26T12:40:00Z</time>
      </trkpt>
      <trkpt lat="43.24653" lon="2.06511">
        <ele>146.008</ele>
        <time>2015-08-26T12:40:20Z</time>
      </trkpt>
      <trkpt lat="43.24659" lon="2.06475">
        <ele>145.452</ele>
        <time>2015-08-26T12:40:40Z</time>
      </trkpt>
      <trkpt lat="43.24761" lon="2.06523">
        <ele>145.017</ele>
        <time>2015-08-26T12:41:00Z</time>
      </trkpt>
      <trkpt lat="43.24783" lon="2.06525">
        <ele>145.028</ele>
        <time>2015-08-26T12:41:20Z</time>
      </trkpt>
      <trkpt lat="43.24834" lon="2.06357">
        <ele>143.073</ele>
        <time>2015-08-26T12:41:40Z</time>
      </trkpt>
      <trkpt lat="43.24902" lon="2.06086">
        <ele>142.072</ele>
        <time>2015-08-26T12:42:00Z</time>
      </trkpt>
      <trkpt lat="43.24864" lon="2.06045">
        <ele>142.055</ele>
        <time>2015-08-26T12:42:20Z</time>
      </trkpt>
      <trkpt lat="43.24834" lon="2.05964">
        <ele>142.372</ele>
        <time>2015-08-26T12:42:40Z</time>
      </trkpt>
      <trkpt lat="43.2477" lon="2.05907">
        <ele>144.046</ele>
        <time>2015-08-26T12:43:00Z</time>
      </trkpt>
      <trkpt lat="43.24554" lon="2.05805">
        <ele>145.039</ele>
        <time>2015-08-26T12:43:20Z</time>
      </trkpt>
      <trkpt lat="43.24465" lon="2.05729">
        <ele>145.201</ele>
        <time>2015-08-26T12:43:40Z</time>
      </trkpt>
      <trkpt lat="43.24312" lon="2.05572">
        <ele>147.821</ele>
        <time>2015-08-26T12:44:00Z</time>
      </trkpt>
      <trkpt lat="43.24237" lon="2.0551">
        <ele>149.008</ele>
        <time>2015-08-26T12:44:20Z</time>
      </trkpt>
      <trkpt lat="43.24193" lon="2.05376">
        <ele>150.099</ele>
        <time>2015-08-26T12:44:40Z</time>
      </trkpt>
      <trkpt lat="43.24127" lon="2.05298">
        <ele>150.044</ele>
        <time>2015-08-26T12:45:00Z</time>
      </trkpt>
      <trkpt lat="43.23986" lon="2.05206">
        <ele>152.085</ele>
        <time>2015-08-26T12:45:20Z</time>
      </trkpt>
      <trkpt lat="43.23951" lon="2.05168">
        <ele>152.81</ele>
        <time>2015-08-26T12:45:40Z</time>
      </trkpt>
      <trkpt lat="43.2392" lon="2.05029">
        <ele>153.019</ele>
        <time>2015-08-26T12:46:00Z</time>
      </trkpt>
      <trkpt lat="43.23751" lon="2.0481">
        <ele>155.022</ele>
        <time>2015-08-26T12:46:20Z</time>
      </trkpt>
      <trkpt lat="43.23373" lon="2.04383">
        <ele>159.279</ele>
        <time>2015-08-26T12:46:40Z</time>
      </trkpt>
      <trkpt lat="43.23379" lon="2.04334">
        <ele>160.053</ele>
        <time>2015-08-26T12:47:00Z</time>
      </trkpt>
      <trkpt lat="43.23401" lon="2.04277">
        <ele>160.024</ele>
        <time>2015-08-26T12:47:20Z</time>
      </trkpt>
      <trkpt lat="43.23306" lon="2.04167">
        <ele>160.004</ele>
        <time>2015-08-26T12:47:40Z</time>
      </trkpt>
      <trkpt lat="43.23238" lon="2.04055">
        <ele>161.414</ele>
        <time>2015-08-26T12:48:00Z</time>
      </trkpt>
      <trkpt lat="43.23189" lon="2.0395">
        <ele>162.208</ele>
        <time>2015-08-26T12:48:20Z</time>
      </trkpt>
      <trkpt lat="43.23084" lon="2.03795">
        <ele>164.048</ele>
        <time>2015-08-26T12:48:40Z</time>
      </trkpt>
      <trkpt lat="43.22994" lon="2.03704">
        <ele>165.023</ele>
        <time>2015-08-26T12:49:00Z</time>
      </trkpt>
      <trkpt lat="43.22947" lon="2.03583">
        <ele>166.044</ele>
        <time>2015-08-26T12:49:20Z</time>
      </trkpt>
      <trkpt lat="43.2289" lon="2.03546">
        <ele>167.019</ele>
        <time>2015-08-26T12:49:40Z</time>
      </trkpt>
      <trkpt lat="43.22822" lon="2.03546">
        <ele>168.728</ele>
        <time>2015-08-26T12:50:00Z</time>
      </trkpt>
      <trkpt lat="43.22758" lon="2.03534">
        <ele>169.911</ele>
        <time>2015-08-26T12:50:20Z</time>
      </trkpt>
      <trkpt lat="43.22698" lon="2.03556">
        <ele>170.058</ele>
        <time>2015-08-26T12:50:40Z</time>
      </trkpt>
      <trkpt lat="43.2267" lon="2.03618">
        <ele>170.052</ele>
        <time>2015-08-26T12:51:00Z</time>
      </trkpt>
      <trkpt lat="43.22538" lon="2.03665">
        <ele>171.028</ele>
        <time>2015-08-26T12:51:20Z</time>
      </trkpt>
      <trkpt lat="43.22458" lon="2.03674">
        <ele>173.489</ele>
        <time>2015-08-26T12:51:40Z</time>
      </trkpt>
      <trkpt lat="43.22228" lon="2.03792">
        <ele>194.217</ele>
        <time>2015-08-26T12:52:00Z</time>
      </trkpt>
      <trkpt lat="43.2223" lon="2.03888">
        <ele>194.908</ele>
        <time>2015-08-26T12:52:20Z</time>
      </trkpt>
      <trkpt lat="43.2224" lon="2.03959">
        <ele>194.568</ele>
        <time>2020-03-08T21:59:17Z</time>
      </trkpt>
      <trkpt lat="43.22183" lon="2.0412">
        <ele>196.753</ele>
        <time>2020-03-08T21:59:37Z</time>
      </trkpt>
      <trkpt lat="43.22079" lon="2.04037">
        <ele>214.024</ele>
        <time>2020-03-08T21:59:57Z</time>
      </trkpt>
      <trkpt lat="43.2209" lon="2.03996">
        <ele>214.919</ele>
        <time>2020-03-08T22:00:17Z</time>
      </trkpt>
      <trkpt lat="43.22054" lon="2.0397">
        <ele>217.858</ele>
        <time>2020-03-08T22:00:37Z</time>
      </trkpt>
      <trkpt lat="43.22061" lon="2.03954">
        <ele>216.471</ele>
        <time>2020-03-08T22:00:57Z</time>
      </trkpt>
      <trkpt lat="43.22037" lon="2.03932">
        <ele>213.988</ele>
        <time>2020-03-08T22:01:17Z</time>
      </trkpt>
      <trkpt lat="43.22003" lon="2.03991">
        <ele>216.572</ele>
        <time>2020-03-08T22:01:37Z</time>
      </trkpt>
      <trkpt lat="43.21991" lon="2.03976">
        <ele>213.953</ele>
        <time>2015-08-26T12:54:40Z</time>
      </trkpt>
      <trkpt lat="43.21925" lon="2.04122">
        <ele>213.404</ele>
        <time>2015-08-26T12:55:00Z</time>
      </trkpt>
      <trkpt lat="43.21891" lon="2.04064">
        <ele>205.514</ele>
        <time>2015-08-26T12:55:20Z</time>
      </trkpt>
      <trkpt lat="43.21812" lon="2.03979">
        <ele>195.708</ele>
        <time>2015-08-26T12:55:40Z</time>
      </trkpt>
      <trkpt lat="43.21763" lon="2.03897">
        <ele>190.841</ele>
        <time>2015-08-26T12:56:00Z</time>
      </trkpt>
      <trkpt lat="43.21739" lon="2.03836">
        <ele>188.696</ele>
        <time>2015-08-26T12:56:20Z</time>
      </trkpt>
      <trkpt lat="43.21758" lon="2.03786">
        <ele>187.677</ele>
        <time>2015-08-26T12:56:40Z</time>
      </trkpt>
      <trkpt lat="43.21778" lon="2.03791">
        <ele>188.562</ele>
        <time>2015-08-26T12:57:00Z</time>
      </trkpt>
      <trkpt lat="43.21811" lon="2.03722">
        <ele>188.411</ele>
        <time>2015-08-26T12:57:20Z</time>
      </trkpt>
      <trkpt lat="43.21864" lon="2.03645">
        <ele>186.684</ele>
        <time>2015-08-26T12:57:40Z</time>
      </trkpt>
      <trkpt lat="43.21841" lon="2.03574">
        <ele>183.451</ele>
        <time>2015-08-26T12:58:00Z</time>
      </trkpt>
      <trkpt lat="43.21835" lon="2.0351">
        <ele>181.395</ele>
        <time>2015-08-26T12:58:20Z</time>
      </trkpt>
      <trkpt lat="43.21863" lon="2.03387">
        <ele>180.924</ele>
        <time>2015-08-26T12:58:40Z</time>
      </trkpt>
      <trkpt lat="43.21856" lon="2.03276">
        <ele>184.504</ele>
        <time>2015-08-26T12:59:00Z</time>
      </trkpt>
      <trkpt lat="43.21822" lon="2.03221">
        <ele>186.614</ele>
        <time>2015-08-26T12:59:20Z</time>
      </trkpt>
      <trkpt lat="43.21759" lon="2.0317">
        <ele>189.808</ele>
        <time>2015-08-26T12:59:40Z</time>
      </trkpt>
      <trkpt lat="43.21733" lon="2.03163">
        <ele>190.588</ele>
        <time>2015-08-26T13:00:00Z</time>
      </trkpt>
      <trkpt lat="43.2167" lon="2.03195">
        <ele>192.953</ele>
        <time>2015-08-26T13:00:20Z</time>
      </trkpt>
      <trkpt lat="43.215" lon="2.03217">
        <ele>198.234</ele>
        <time>2015-08-26T13:00:40Z</time>
      </trkpt>
      <trkpt lat="43.21331" lon="2.03139">
        <ele>215.179</ele>
        <time>2015-08-26T13:01:00Z</time>
      </trkpt>
      <trkpt lat="43.21303" lon="2.03144">
        <ele>216.448</ele>
        <time>2015-08-26T13:01:20Z</time>
      </trkpt>
      <trkpt lat="43.21271" lon="2.03189">
        <ele>220.011</ele>
        <time>2015-08-26T13:01:40Z</time>
      </trkpt>
      <trkpt lat="43.21239" lon="2.03212">
        <ele>219.848</ele>
        <time>2015-08-26T13:02:00Z</time>
      </trkpt>
      <trkpt lat="43.21229" lon="2.03196">
        <ele>220.022</ele>
        <time>2015-08-26T13:02:20Z</time>
      </trkpt>
      <trkpt lat="43.21206" lon="2.03194">
        <ele>219.469</ele>
        <time>2015-08-26T13:02:40Z</time>
      </trkpt>
      <trkpt lat="43.21105" lon="2.03227">
        <ele>217.104</ele>
        <time>2015-08-26T13:03:00Z</time>
      </trkpt>
      <trkpt lat="43.21033" lon="2.03243">
        <ele>219.224</ele>
        <time>2015-08-26T13:03:20Z</time>
      </trkpt>
      <trkpt lat="43.20995" lon="2.03244">
        <ele>222.008</ele>
        <time>2015-08-26T13:03:40Z</time>
      </trkpt>
      <trkpt lat="43.20917" lon="2.03287">
        <ele>228.642</ele>
        <time>2015-08-26T13:04:00Z</time>
      </trkpt>
      <trkpt lat="43.20901" lon="2.03288">
        <ele>231.227</ele>
        <time>2015-08-26T13:04:20Z</time>
      </trkpt>
      <trkpt lat="43.20816" lon="2.03261">
        <ele>239.258</ele>
        <time>2015-08-26T13:04:40Z</time>
      </trkpt>
      <trkpt lat="43.20801" lon="2.03264">
        <ele>239.633</ele>
        <time>2015-08-26T13:05:00Z</time>
      </trkpt>
      <trkpt lat="43.20747" lon="2.03314">
        <ele>237.972</ele>
        <time>2015-08-26T13:05:20Z</time>
      </trkpt>
      <trkpt lat="43.20711" lon="2.03316">
        <ele>238.235</ele>
        <time>2015-08-26T13:05:40Z</time>
      </trkpt>
      <trkpt lat="43.20685" lon="2.03298">
        <ele>236.792</ele>
        <time>2015-08-26T13:06:00Z</time>
      </trkpt>
      <trkpt lat="43.20612" lon="2.03283">
        <ele>228.876</ele>
        <time>2015-08-26T13:06:20Z</time>
      </trkpt>
      <trkpt lat="43.2049" lon="2.03377">
        <ele>224.327</ele>
        <time>2015-08-26T13:06:40Z</time>
      </trkpt>
      <trkpt lat="43.20415" lon="2.03414">
        <ele>215.768</ele>
        <time>2015-08-26T13:07:00Z</time>
      </trkpt>
      <trkpt lat="43.2035" lon="2.03357">
        <ele>207.114</ele>
        <time>2015-08-26T13:07:20Z</time>
      </trkpt>
      <trkpt lat="43.20277" lon="2.03335">
        <ele>201.108</ele>
        <time>2015-08-26T13:07:40Z</time>
      </trkpt>
      <trkpt lat="43.20245" lon="2.03345">
        <ele>199.828</ele>
        <time>2015-08-26T13:08:00Z</time>
      </trkpt>
      <trkpt lat="43.20212" lon="2.0337">
        <ele>198.353</ele>
        <time>2015-08-26T13:08:20Z</time>
      </trkpt>
      <trkpt lat="43.20084" lon="2.03392">
        <ele>194.034</ele>
        <time>2015-08-26T13:08:40Z</time>
      </trkpt>
      <trkpt lat="43.20037" lon="2.03368">
        <ele>197.159</ele>
        <time>2015-08-26T13:09:00Z</time>
      </trkpt>
      <trkpt lat="43.20007" lon="2.03366">
        <ele>199.878</ele>
        <time>2015-08-26T13:09:20Z</time>
      </trkpt>
      <trkpt lat="43.19964" lon="2.03378">
        <ele>204.231</ele>
        <time>2015-08-26T13:09:40Z</time>
      </trkpt>
      <trkpt lat="43.1993" lon="2.03384">
        <ele>208.028</ele>
        <time>2015-08-26T13:10:00Z</time>
      </trkpt>
      <trkpt lat="43.19866" lon="2.03415">
        <ele>213.632</ele>
        <time>2015-08-26T13:10:20Z</time>
      </trkpt>
      <trkpt lat="43.19777" lon="2.03447">
        <ele>223.276</ele>
        <time>2015-08-26T13:10:40Z</time>
      </trkpt>
      <trkpt lat="43.19756" lon="2.03465">
        <ele>226.19</ele>
        <time>2015-08-26T13:11:00Z</time>
      </trkpt>
      <trkpt lat="43.19731" lon="2.03508">
        <ele>231.019</ele>
        <time>2015-08-26T13:11:20Z</time>
      </trkpt>
      <trkpt lat="43.19641" lon="2.03553">
        <ele>244.908</ele>
        <time>2015-08-26T13:11:40Z</time>
      </trkpt>
      <trkpt lat="43.19626" lon="2.0358">
        <ele>245.473</ele>
        <time>2015-08-26T13:12:00Z</time>
      </trkpt>
      <trkpt lat="43.19599" lon="2.03587">
        <ele>246.188</ele>
        <time>2015-08-26T13:12:20Z</time>
      </trkpt>
      <trkpt lat="43.19558" lon="2.03622">
        <ele>247.659</ele>
        <time>2015-08-26T13:12:40Z</time>
      </trkpt>
      <trkpt lat="43.19487" lon="2.03614">
        <ele>250.024</ele>
        <time>2015-08-26T13:13:00Z</time>
      </trkpt>
      <trkpt lat="43.19434" lon="2.03601">
        <ele>246.323</ele>
        <time>2015-08-26T13:13:20Z</time>
      </trkpt>
      <trkpt lat="43.19366" lon="2.03631">
        <ele>247.866</ele>
        <time>2015-08-26T13:13:40Z</time>
      </trkpt>
      <trkpt lat="43.19294" lon="2.0369">
        <ele>258.943</ele>
        <time>2015-08-26T13:14:00Z</time>
      </trkpt>
      <trkpt lat="43.19243" lon="2.03685">
        <ele>266.897</ele>
        <time>2015-08-26T13:14:20Z</time>
      </trkpt>
      <trkpt lat="43.19234" lon="2.03669">
        <ele>267.987</ele>
        <time>2015-08-26T13:14:40Z</time>
      </trkpt>
      <trkpt lat="43.19239" lon="2.03615">
        <ele>265.542</ele>
        <time>2015-08-26T13:15:00Z</time>
      </trkpt>
      <trkpt lat="43.19224" lon="2.03568">
        <ele>266.526</ele>
        <time>2015-08-26T13:15:20Z</time>
      </trkpt>
      <trkpt lat="43.19192" lon="2.03525">
        <ele>267.208</ele>
        <time>2015-08-26T13:15:40Z</time>
      </trkpt>
      <trkpt lat="43.1912" lon="2.035">
        <ele>273.584</ele>
        <time>2015-08-26T13:16:00Z</time>
      </trkpt>
      <trkpt lat="43.191" lon="2.03481">
        <ele>274.219</ele>
        <time>2015-08-26T13:16:20Z</time>
      </trkpt>
      <trkpt lat="43.19084" lon="2.03445">
        <ele>278.09</ele>
        <time>2015-08-26T13:16:40Z</time>
      </trkpt>
      <trkpt lat="43.19081" lon="2.03407">
        <ele>285.215</ele>
        <time>2015-08-26T13:17:00Z</time>
      </trkpt>
      <trkpt lat="43.19092" lon="2.03364">
        <ele>290.444</ele>
        <time>2015-08-26T13:17:20Z</time>
      </trkpt>
      <trkpt lat="43.19138" lon="2.03296">
        <ele>288.357</ele>
        <time>2015-08-26T13:17:40Z</time>
      </trkpt>
      <trkpt lat="43.19218" lon="2.03086">
        <ele>289.424</ele>
        <time>2015-08-26T13:18:00Z</time>
      </trkpt>
      <trkpt lat="43.19225" lon="2.03042">
        <ele>289.998</ele>
        <time>2015-08-26T13:18:20Z</time>
      </trkpt>
      <trkpt lat="43.19214" lon="2.02998">
        <ele>294.478</ele>
        <time>2015-08-26T13:18:40Z</time>
      </trkpt>
      <trkpt lat="43.19187" lon="2.02967">
        <ele>296.233</ele>
        <time>2015-08-26T13:19:00Z</time>
      </trkpt>
      <trkpt lat="43.19164" lon="2.02957">
        <ele>296.226</ele>
        <time>2015-08-26T13:19:20Z</time>
      </trkpt>
      <trkpt lat="43.19142" lon="2.03009">
        <ele>300.608</ele>
        <time>2015-08-26T13:19:40Z</time>
      </trkpt>
      <trkpt lat="43.19104" lon="2.03077">
        <ele>304.463</ele>
        <time>2015-08-26T13:20:00Z</time>
      </trkpt>
      <trkpt lat="43.19053" lon="2.03216">
        <ele>316.118</ele>
        <time>2015-08-26T13:20:20Z</time>
      </trkpt>
      <trkpt lat="43.18995" lon="2.03283">
        <ele>324.129</ele>
        <time>2015-08-26T13:20:40Z</time>
      </trkpt>
      <trkpt lat="43.18954" lon="2.03361">
        <ele>328.644</ele>
        <time>2015-08-26T13:21:00Z</time>
      </trkpt>
      <trkpt lat="43.18942" lon="2.03367">
        <ele>330.793</ele>
        <time>2015-08-26T13:21:20Z</time>
      </trkpt>
      <trkpt lat="43.18871" lon="2.03456">
        <ele>339.876</ele>
        <time>2015-08-26T13:21:40Z</time>
      </trkpt>
      <trkpt lat="43.18766" lon="2.03363">
        <ele>345.713</ele>
        <time>2015-08-26T13:22:00Z</time>
      </trkpt>
      <trkpt lat="43.18627" lon="2.03274">
        <ele>339.787</ele>
        <time>2015-08-26T13:22:20Z</time>
      </trkpt>
      <trkpt lat="43.18594" lon="2.03275">
        <ele>336.036</ele>
        <time>2015-08-26T13:22:40Z</time>
      </trkpt>
      <trkpt lat="43.18572" lon="2.03291">
        <ele>330.917</ele>
        <time>2015-08-26T13:23:00Z</time>
      </trkpt>
      <trkpt lat="43.18536" lon="2.03442">
        <ele>332.318</ele>
        <time>2015-08-26T13:23:20Z</time>
      </trkpt>
      <trkpt lat="43.1851" lon="2.03438">
        <ele>330.508</ele>
        <time>2015-08-26T13:23:40Z</time>
      </trkpt>
      <trkpt lat="43.18487" lon="2.0344">
        <ele>332.049</ele>
        <time>2015-08-26T13:24:00Z</time>
      </trkpt>
      <trkpt lat="43.18447" lon="2.0343">
        <ele>332.854</ele>
        <time>2015-08-26T13:24:20Z</time>
      </trkpt>
      <trkpt lat="43.18333" lon="2.03421">
        <ele>336.085</ele>
        <time>2015-08-26T13:24:40Z</time>
      </trkpt>
      <trkpt lat="43.18314" lon="2.03411">
        <ele>339.31</ele>
        <time>2015-08-26T13:25:00Z</time>
      </trkpt>
      <trkpt lat="43.18257" lon="2.03412">
        <ele>350.059</ele>
        <time>2015-08-26T13:25:20Z</time>
      </trkpt>
      <trkpt lat="43.18102" lon="2.0333">
        <ele>350.732</ele>
        <time>2015-08-26T13:25:40Z</time>
      </trkpt>
      <trkpt lat="43.18072" lon="2.03269">
        <ele>347.239</ele>
        <time>2015-08-26T13:26:00Z</time>
      </trkpt>
      <trkpt lat="43.17967" lon="2.03235">
        <ele>349.643</ele>
        <time>2015-08-26T13:26:20Z</time>
      </trkpt>
      <trkpt lat="43.17892" lon="2.03158">
        <ele>352.861</ele>
        <time>2015-08-26T13:26:40Z</time>
      </trkpt>
      <trkpt lat="43.17537" lon="2.02969">
        <ele>354.921</ele>
        <time>2015-08-26T13:27:00Z</time>
      </trkpt>
      <trkpt lat="43.1728" lon="2.02901">
        <ele>339.713</ele>
        <time>2015-08-26T13:27:20Z</time>
      </trkpt>
      <trkpt lat="43.17154" lon="2.02773">
        <ele>327.508</ele>
        <time>2015-08-26T13:27:40Z</time>
      </trkpt>
      <trkpt lat="43.17012" lon="2.02649">
        <ele>333.442</ele>
        <time>2015-08-26T13:28:00Z</time>
      </trkpt>
      <trkpt lat="43.1684" lon="2.02514">
        <ele>354.497</ele>
        <time>2015-08-26T13:28:20Z</time>
      </trkpt>
      <trkpt lat="43.16703" lon="2.02417">
        <ele>362.198</ele>
        <time>2015-08-26T13:28:40Z</time>
      </trkpt>
      <trkpt lat="43.16584" lon="2.02373">
        <ele>368.483</ele>
        <time>2015-08-26T13:29:00Z</time>
      </trkpt>
      <trkpt lat="43.16516" lon="2.02376">
        <ele>370.442</ele>
        <time>2015-08-26T13:29:20Z</time>
      </trkpt>
      <trkpt lat="43.16403" lon="2.02325">
        <ele>375.835</ele>
        <time>2015-08-26T13:29:40Z</time>
      </trkpt>
      <trkpt lat="43.16379" lon="2.02326">
        <ele>375.312</ele>
        <time>2015-08-26T13:30:00Z</time>
      </trkpt>
      <trkpt lat="43.16353" lon="2.02338">
        <ele>374.946</ele>
        <time>2015-08-26T13:30:20Z</time>
      </trkpt>
      <trkpt lat="43.16297" lon="2.02389">
        <ele>377.426</ele>
        <time>2015-08-26T13:30:40Z</time>
      </trkpt>
      <trkpt lat="43.16289" lon="2.02388">
        <ele>376.647</ele>
        <time>2015-08-26T13:31:00Z</time>
      </trkpt>
      <trkpt lat="43.16249" lon="2.02361">
        <ele>374.011</ele>
        <time>2015-08-26T13:31:20Z</time>
      </trkpt>
      <trkpt lat="43.16205" lon="2.02336">
        <ele>375.308</ele>
        <time>2015-08-26T13:31:40Z</time>
      </trkpt>
      <trkpt lat="43.16177" lon="2.02294">
        <ele>378.158</ele>
        <time>2015-08-26T13:32:00Z</time>
      </trkpt>
      <trkpt lat="43.16153" lon="2.02267">
        <ele>377.523</ele>
        <time>2015-08-26T13:32:20Z</time>
      </trkpt>
      <trkpt lat="43.16138" lon="2.02173">
        <ele>382.224</ele>
        <time>2015-08-26T13:32:40Z</time>
      </trkpt>
      <trkpt lat="43.16126" lon="2.02128">
        <ele>385.099</ele>
        <time>2015-08-26T13:33:00Z</time>
      </trkpt>
      <trkpt lat="43.16103" lon="2.02094">
        <ele>388.128</ele>
        <time>2015-08-26T13:33:20Z</time>
      </trkpt>
      <trkpt lat="43.16096" lon="2.02063">
        <ele>389.981</ele>
        <time>2015-08-26T13:33:40Z</time>
      </trkpt>
      <trkpt lat="43.16071" lon="2.02017">
        <ele>390.068</ele>
        <time>2015-08-26T13:34:00Z</time>
      </trkpt>
      <trkpt lat="43.16059" lon="2.02008">
        <ele>390.062</ele>
        <time>2015-08-26T13:34:20Z</time>
      </trkpt>
      <trkpt lat="43.1604" lon="2.01966">
        <ele>390.798</ele>
        <time>2015-08-26T13:34:40Z</time>
      </trkpt>
      <trkpt lat="43.16013" lon="2.01934">
        <ele>391.215</ele>
        <time>2015-08-26T13:35:00Z</time>
      </trkpt>
      <trkpt lat="43.15994" lon="2.01859">
        <ele>391.326</ele>
        <time>2015-08-26T13:35:20Z</time>
      </trkpt>
      <trkpt lat="43.15984" lon="2.01836">
        <ele>392.008</ele>
        <time>2015-08-26T13:35:40Z</time>
      </trkpt>
      <trkpt lat="43.15965" lon="2.01819">
        <ele>393.145</ele>
        <time>2015-08-26T13:36:00Z</time>
      </trkpt>
      <trkpt lat="43.15938" lon="2.01818">
        <ele>393.41</ele>
        <time>2015-08-26T13:36:20Z</time>
      </trkpt>
      <trkpt lat="43.15871" lon="2.01802">
        <ele>401.621</ele>
        <time>2015-08-26T13:36:40Z</time>
      </trkpt>
      <trkpt lat="43.15827" lon="2.01863">
        <ele>395.316</ele>
        <time>2015-08-26T13:37:00Z</time>
      </trkpt>
      <trkpt lat="43.15761" lon="2.01923">
        <ele>391.725</ele>
        <time>2015-08-26T13:37:20Z</time>
      </trkpt>
      <trkpt lat="43.15717" lon="2.01988">
        <ele>386.968</ele>
        <time>2015-08-26T13:37:40Z</time>
      </trkpt>
      <trkpt lat="43.15706" lon="2.01989">
        <ele>386.825</ele>
        <time>2015-08-26T13:38:00Z</time>
      </trkpt>
      <trkpt lat="43.1568" lon="2.01932">
        <ele>387.989</ele>
        <time>2015-08-26T13:38:20Z</time>
      </trkpt>
      <trkpt lat="43.15652" lon="2.01793">
        <ele>390.057</ele>
        <time>2015-08-26T13:38:40Z</time>
      </trkpt>
      <trkpt lat="43.15639" lon="2.01749">
        <ele>391</ele>
        <time>2015-08-26T13:39:00Z</time>
      </trkpt>
      <trkpt lat="43.15633" lon="2.01673">
        <ele>389.82</ele>
        <time>2015-08-26T13:39:20Z</time>
      </trkpt>
      <trkpt lat="43.1561" lon="2.01548">
        <ele>383.608</ele>
        <time>2015-08-26T13:39:40Z</time>
      </trkpt>
      <trkpt lat="43.15472" lon="2.01367">
        <ele>374.221</ele>
        <time>2015-08-26T13:40:00Z</time>
      </trkpt>
      <trkpt lat="43.15385" lon="2.01257">
        <ele>359.636</ele>
        <time>2019-03-29T03:03:51Z</time>
      </trkpt>
      <trkpt lat="43.15334" lon="2.0127">
        <ele>355.067</ele>
        <time>2015-08-26T13:41:00Z</time>
      </trkpt>
      <trkpt lat="43.1528" lon="2.01256">
        <ele>355.082</ele>
        <time>2015-08-26T13:41:20Z</time>
      </trkpt>
      <trkpt lat="43.15247" lon="2.01258">
        <ele>355.391</ele>
        <time>2015-08-26T13:41:40Z</time>
      </trkpt>
      <trkpt lat="43.15044" lon="2.01249">
        <ele>350.294</ele>
        <time>2015-08-26T13:42:00Z</time>
      </trkpt>
      <trkpt lat="43.1481" lon="2.01084">
        <ele>353.011</ele>
        <time>2015-08-26T13:42:20Z</time>
      </trkpt>
      <trkpt lat="43.1477" lon="2.01015">
        <ele>353.345</ele>
        <time>2015-08-26T13:42:40Z</time>
      </trkpt>
      <trkpt lat="43.14654" lon="2.0088">
        <ele>367.223</ele>
        <time>2015-08-26T13:43:00Z</time>
      </trkpt>
      <trkpt lat="43.14621" lon="2.00802">
        <ele>372.583</ele>
        <time>2015-08-26T13:43:20Z</time>
      </trkpt>
      <trkpt lat="43.14603" lon="2.00752">
        <ele>374.811</ele>
        <time>2015-08-26T13:43:40Z</time>
      </trkpt>
      <trkpt lat="43.14578" lon="2.00703">
        <ele>379.608</ele>
        <time>2015-08-26T13:44:00Z</time>
      </trkpt>
      <trkpt lat="43.14573" lon="2.00666">
        <ele>382.028</ele>
        <time>2015-08-26T13:44:20Z</time>
      </trkpt>
      <trkpt lat="43.14549" lon="2.00625">
        <ele>382.273</ele>
        <time>2015-08-26T13:44:40Z</time>
      </trkpt>
      <trkpt lat="43.14529" lon="2.00555">
        <ele>385.434</ele>
        <time>2015-08-26T13:45:00Z</time>
      </trkpt>
      <trkpt lat="43.14495" lon="2.00484">
        <ele>390.879</ele>
        <time>2015-08-26T13:45:20Z</time>
      </trkpt>
      <trkpt lat="43.14481" lon="2.0047">
        <ele>395.088</ele>
        <time>2015-08-26T13:45:40Z</time>
      </trkpt>
      <trkpt lat="43.14462" lon="2.00471">
        <ele>397.241</ele>
        <time>2015-08-26T13:46:00Z</time>
      </trkpt>
      <trkpt lat="43.1444" lon="2.00496">
        <ele>396.838</ele>
        <time>2015-08-26T13:46:20Z</time>
      </trkpt>
      <trkpt lat="43.14429" lon="2.00489">
        <ele>395.452</ele>
        <time>2015-08-26T13:46:40Z</time>
      </trkpt>
      <trkpt lat="43.14429" lon="2.00341">
        <ele>387.814</ele>
        <time>2015-08-26T13:47:00Z</time>
      </trkpt>
      <trkpt lat="43.14413" lon="2.00292">
        <ele>382.154</ele>
        <time>2015-08-26T13:47:20Z</time>
      </trkpt>
      <trkpt lat="43.14389" lon="2.00283">
        <ele>379.809</ele>
        <time>2015-08-26T13:47:40Z</time>
      </trkpt>
      <trkpt lat="43.14346" lon="2.00275">
        <ele>383.208</ele>
        <time>2015-08-26T13:48:00Z</time>
      </trkpt>
      <trkpt lat="43.14285" lon="2.00229">
        <ele>381.157</ele>
        <time>2015-08-26T13:48:20Z</time>
      </trkpt>
      <trkpt lat="43.14234" lon="2.0017">
        <ele>378.482</ele>
        <time>2015-08-26T13:48:40Z</time>
      </trkpt>
      <trkpt lat="43.14205" lon="2.00119">
        <ele>377.253</ele>
        <time>2015-08-26T13:49:00Z</time>
      </trkpt>
      <trkpt lat="43.14188" lon="2.00109">
        <ele>377.558</ele>
        <time>2015-08-26T13:49:20Z</time>
      </trkpt>
      <trkpt lat="43.14108" lon="2.00156">
        <ele>382.977</ele>
        <time>2015-08-26T13:49:40Z</time>
      </trkpt>
      <trkpt lat="43.14044" lon="2.00156">
        <ele>394.09</ele>
        <time>2015-08-26T13:50:00Z</time>
      </trkpt>
      <trkpt lat="43.14033" lon="2.00144">
        <ele>394.827</ele>
        <time>2015-08-26T13:50:20Z</time>
      </trkpt>
      <trkpt lat="43.13954" lon="2.00154">
        <ele>393.511</ele>
        <time>2015-08-26T13:50:40Z</time>
      </trkpt>
      <trkpt lat="43.13841" lon="2.00202">
        <ele>396.931</ele>
        <time>2015-08-26T13:51:00Z</time>
      </trkpt>
      <trkpt lat="43.1376" lon="2.00204">
        <ele>399.661</ele>
        <time>2015-08-26T13:51:20Z</time>
      </trkpt>
      <trkpt lat="43.13719" lon="2.00152">
        <ele>398.307</ele>
        <time>2015-08-26T13:51:40Z</time>
      </trkpt>
      <trkpt lat="43.13648" lon="2.00121">
        <ele>396.208</ele>
        <time>2015-08-26T13:52:00Z</time>
      </trkpt>
      <trkpt lat="43.13602" lon="2.00118">
        <ele>398.969</ele>
        <time>2015-08-26T13:52:20Z</time>
      </trkpt>
      <trkpt lat="43.13455" lon="2.00081">
        <ele>405.274</ele>
        <time>2015-08-26T13:52:40Z</time>
      </trkpt>
      <trkpt lat="43.13367" lon="2.00031">
        <ele>406.165</ele>
        <time>2015-08-26T13:53:00Z</time>
      </trkpt>
      <trkpt lat="43.13344" lon="2.00033">
        <ele>406.94</ele>
        <time>2015-08-26T13:53:20Z</time>
      </trkpt>
      <trkpt lat="43.13237" lon="2.00135">
        <ele>405.559</ele>
        <time>2015-08-26T13:53:40Z</time>
      </trkpt>
      <trkpt lat="43.13117" lon="2.00161">
        <ele>407.172</ele>
        <time>2015-08-26T13:54:00Z</time>
      </trkpt>
      <trkpt lat="43.13034" lon="2.0015">
        <ele>406.689</ele>
        <time>2015-08-26T13:54:20Z</time>
      </trkpt>
      <trkpt lat="43.1298" lon="2.00165">
        <ele>407.143</ele>
        <time>2015-08-26T13:54:40Z</time>
      </trkpt>
      <trkpt lat="43.1293" lon="2.00106">
        <ele>412.077</ele>
        <time>2015-08-26T13:55:00Z</time>
      </trkpt>
      <trkpt lat="43.12899" lon="2.00104">
        <ele>413.761</ele>
        <time>2015-08-26T13:55:20Z</time>
      </trkpt>
      <trkpt lat="43.12867" lon="2.00123">
        <ele>409.427</ele>
        <time>2015-08-26T13:55:40Z</time>
      </trkpt>
      <trkpt lat="43.12839" lon="2.00063">
        <ele>404.408</ele>
        <time>2015-08-26T13:56:00Z</time>
      </trkpt>
      <trkpt lat="43.12824" lon="2.00084">
        <ele>402.413</ele>
        <time>2015-08-26T13:56:20Z</time>
      </trkpt>
      <trkpt lat="43.12811" lon="2.00139">
        <ele>399.428</ele>
        <time>2015-08-26T13:56:40Z</time>
      </trkpt>
      <trkpt lat="43.1279" lon="2.00166">
        <ele>395.089</ele>
        <time>2015-08-26T13:57:00Z</time>
      </trkpt>
      <trkpt lat="43.12725" lon="2.0017">
        <ele>393.014</ele>
        <time>2015-08-26T13:57:20Z</time>
      </trkpt>
      <trkpt lat="43.12696" lon="2.00162">
        <ele>394.593</ele>
        <time>2015-08-26T13:57:40Z</time>
      </trkpt>
      <trkpt lat="43.12635" lon="2.0012">
        <ele>399.916</ele>
        <time>2015-08-26T13:58:00Z</time>
      </trkpt>
      <trkpt lat="43.12541" lon="2.00089">
        <ele>401.313</ele>
        <time>2015-08-26T13:58:20Z</time>
      </trkpt>
      <trkpt lat="43.12516" lon="2.00095">
        <ele>399.357</ele>
        <time>2015-08-26T13:58:40Z</time>
      </trkpt>
      <trkpt lat="43.12489" lon="2.00113">
        <ele>396.053</ele>
        <time>2015-08-26T13:59:00Z</time>
      </trkpt>
      <trkpt lat="43.12417" lon="2.00133">
        <ele>397.604</ele>
        <time>2015-08-26T13:59:20Z</time>
      </trkpt>
      <trkpt lat="43.12399" lon="2.00151">
        <ele>394.414</ele>
        <time>2015-08-26T13:59:40Z</time>
      </trkpt>
      <trkpt lat="43.1238" lon="2.00154">
        <ele>393.908</ele>
        <time>2015-08-26T14:00:00Z</time>
      </trkpt>
      <trkpt lat="43.12364" lon="2.00145">
        <ele>394.541</ele>
        <time>2015-08-26T14:00:20Z</time>
      </trkpt>
      <trkpt lat="43.12322" lon="2.00068">
        <ele>390.866</ele>
        <time>2015-08-26T14:00:40Z</time>
      </trkpt>
      <trkpt lat="43.12291" lon="2.00039">
        <ele>388.367</ele>
        <time>2015-08-26T14:01:00Z</time>
      </trkpt>
      <trkpt lat="43.12248" lon="2.00063">
        <ele>387.952</ele>
        <time>2015-08-26T14:01:20Z</time>
      </trkpt>
      <trkpt lat="43.12233" lon="2.00062">
        <ele>386.571</ele>
        <time>2015-08-26T14:01:40Z</time>
      </trkpt>
      <trkpt lat="43.1222" lon="2.00053">
        <ele>385.154</ele>
        <time>2015-08-26T14:02:00Z</time>
      </trkpt>
      <trkpt lat="43.12169" lon="1.99977">
        <ele>385.651</ele>
        <time>2015-08-26T14:02:20Z</time>
      </trkpt>
      <trkpt lat="43.12144" lon="1.99968">
        <ele>384.535</ele>
        <time>2015-08-26T14:02:40Z</time>
      </trkpt>
      <trkpt lat="43.12118" lon="1.99993">
        <ele>386.176</ele>
        <time>2015-08-26T14:03:00Z</time>
      </trkpt>
      <trkpt lat="43.12084" lon="2.00005">
        <ele>383.89</ele>
        <time>2015-08-26T14:03:20Z</time>
      </trkpt>
      <trkpt lat="43.12049" lon="2.00022">
        <ele>382.519</ele>
        <time>2015-08-26T14:03:40Z</time>
      </trkpt>
      <trkpt lat="43.12016" lon="2.00032">
        <ele>381.208</ele>
        <time>2015-08-26T14:04:00Z</time>
      </trkpt>
      <trkpt lat="43.11763" lon="1.99942">
        <ele>386.243</ele>
        <time>2015-08-26T14:04:20Z</time>
      </trkpt>
      <trkpt lat="43.11705" lon="1.99936">
        <ele>393.728</ele>
        <time>2019-03-29T03:27:51Z</time>
      </trkpt>
      <trkpt lat="43.11644" lon="1.99869">
        <ele>407.249</ele>
        <time>2015-08-26T14:06:20Z</time>
      </trkpt>
      <trkpt lat="43.11606" lon="1.99856">
        <ele>411.854</ele>
        <time>2015-08-26T14:06:40Z</time>
      </trkpt>
      <trkpt lat="43.11566" lon="1.99851">
        <ele>416.043</ele>
        <time>2015-08-26T14:07:00Z</time>
      </trkpt>
      <trkpt lat="43.11537" lon="1.99854">
        <ele>419.496</ele>
        <time>2015-08-26T14:07:20Z</time>
      </trkpt>
      <trkpt lat="43.11502" lon="1.99876">
        <ele>425.893</ele>
        <time>2015-08-26T14:07:40Z</time>
      </trkpt>
      <trkpt lat="43.11463" lon="1.99909">
        <ele>433.427</ele>
        <time>2015-08-26T14:08:00Z</time>
      </trkpt>
      <trkpt lat="43.11434" lon="1.99909">
        <ele>434.992</ele>
        <time>2015-08-26T14:08:20Z</time>
      </trkpt>
      <trkpt lat="43.11376" lon="1.99891">
        <ele>430.473</ele>
        <time>2015-08-26T14:08:40Z</time>
      </trkpt>
      <trkpt lat="43.11297" lon="1.99836">
        <ele>433.82</ele>
        <time>2015-08-26T14:09:00Z</time>
      </trkpt>
      <trkpt lat="43.11224" lon="1.99816">
        <ele>435.008</ele>
        <time>2015-08-26T14:09:20Z</time>
      </trkpt>
      <trkpt lat="43.11149" lon="1.99811">
        <ele>437.965</ele>
        <time>2015-08-26T14:09:40Z</time>
      </trkpt>
      <trkpt lat="43.11104" lon="1.99839">
        <ele>440.75</ele>
        <time>2015-08-26T14:10:00Z</time>
      </trkpt>
      <trkpt lat="43.11034" lon="1.99856">
        <ele>446.231</ele>
        <time>2015-08-26T14:10:20Z</time>
      </trkpt>
      <trkpt lat="43.10978" lon="1.99854">
        <ele>449.996</ele>
        <time>2015-08-26T14:10:40Z</time>
      </trkpt>
      <trkpt lat="43.10934" lon="1.99837">
        <ele>449.185</ele>
        <time>2015-08-26T14:11:00Z</time>
      </trkpt>
      <trkpt lat="43.10915" lon="1.99797">
        <ele>447.278</ele>
        <time>2015-08-26T14:11:20Z</time>
      </trkpt>
      <trkpt lat="43.10918" lon="1.99748">
        <ele>444.885</ele>
        <time>2015-08-26T14:11:40Z</time>
      </trkpt>
      <trkpt lat="43.10912" lon="1.99722">
        <ele>444.179</ele>
        <time>2015-08-26T14:12:00Z</time>
      </trkpt>
      <trkpt lat="43.1088" lon="1.99674">
        <ele>445.813</ele>
        <time>2015-08-26T14:12:20Z</time>
      </trkpt>
      <trkpt lat="43.10873" lon="1.99585">
        <ele>446.643</ele>
        <time>2015-08-26T14:12:40Z</time>
      </trkpt>
      <trkpt lat="43.10865" lon="1.99558">
        <ele>443.607</ele>
        <time>2015-08-26T14:13:00Z</time>
      </trkpt>
      <trkpt lat="43.1087" lon="1.99468">
        <ele>442.808</ele>
        <time>2015-08-26T14:13:20Z</time>
      </trkpt>
      <trkpt lat="43.10864" lon="1.99405">
        <ele>444.177</ele>
        <time>2015-08-26T14:13:40Z</time>
      </trkpt>
      <trkpt lat="43.10864" lon="1.99373">
        <ele>444.672</ele>
        <time>2015-08-26T14:14:00Z</time>
      </trkpt>
      <trkpt lat="43.10871" lon="1.99352">
        <ele>444.943</ele>
        <time>2015-08-26T14:14:20Z</time>
      </trkpt>
      <trkpt lat="43.10891" lon="1.99269">
        <ele>442.448</ele>
        <time>2015-08-26T14:14:40Z</time>
      </trkpt>
      <trkpt lat="43.10883" lon="1.99218">
        <ele>440.717</ele>
        <time>2015-08-26T14:15:00Z</time>
      </trkpt>
      <trkpt lat="43.1089" lon="1.9916">
        <ele>440.76</ele>
        <time>2015-08-26T14:15:20Z</time>
      </trkpt>
      <trkpt lat="43.10898" lon="1.99073">
        <ele>438.367</ele>
        <time>2015-08-26T14:15:40Z</time>
      </trkpt>
      <trkpt lat="43.10923" lon="1.99034">
        <ele>436.521</ele>
        <time>2015-08-26T14:16:00Z</time>
      </trkpt>
      <trkpt lat="43.1095" lon="1.99029">
        <ele>435.516</ele>
        <time>2015-08-26T14:16:20Z</time>
      </trkpt>
      <trkpt lat="43.1096" lon="1.99011">
        <ele>434.176</ele>
        <time>2015-08-26T14:16:40Z</time>
      </trkpt>
      <trkpt lat="43.10978" lon="1.98916">
        <ele>433.913</ele>
        <time>2015-08-26T14:17:00Z</time>
      </trkpt>
      <trkpt lat="43.10989" lon="1.98681">
        <ele>434.208</ele>
        <time>2015-08-26T14:17:20Z</time>
      </trkpt>
      <trkpt lat="43.11025" lon="1.98527">
        <ele>432.357</ele>
        <time>2015-08-26T14:17:40Z</time>
      </trkpt>
      <trkpt lat="43.11028" lon="1.98461">
        <ele>433.032</ele>
        <time>2015-08-26T14:18:00Z</time>
      </trkpt>
      <trkpt lat="43.1102" lon="1.98389">
        <ele>431.473</ele>
        <time>2015-08-26T14:18:20Z</time>
      </trkpt>
      <trkpt lat="43.11028" lon="1.98322">
        <ele>432.928</ele>
        <time>2015-08-26T14:18:40Z</time>
      </trkpt>
      <trkpt lat="43.11025" lon="1.98294">
        <ele>434.497</ele>
        <time>2015-08-26T14:19:00Z</time>
      </trkpt>
      <trkpt lat="43.11008" lon="1.98261">
        <ele>436.06</ele>
        <time>2015-08-26T14:19:20Z</time>
      </trkpt>
      <trkpt lat="43.11003" lon="1.98214">
        <ele>439.197</ele>
        <time>2015-08-26T14:19:40Z</time>
      </trkpt>
      <trkpt lat="43.10861" lon="1.98054">
        <ele>433.091</ele>
        <time>2015-08-26T14:20:00Z</time>
      </trkpt>
      <trkpt lat="43.10846" lon="1.98021">
        <ele>432.571</ele>
        <time>2015-08-26T14:20:20Z</time>
      </trkpt>
      <trkpt lat="43.10829" lon="1.9793">
        <ele>427.941</ele>
        <time>2015-08-26T14:20:40Z</time>
      </trkpt>
      <trkpt lat="43.10771" lon="1.97871">
        <ele>427.615</ele>
        <time>2015-08-26T14:21:00Z</time>
      </trkpt>
      <trkpt lat="43.10759" lon="1.97773">
        <ele>419.308</ele>
        <time>2015-08-26T14:21:20Z</time>
      </trkpt>
      <trkpt lat="43.10741" lon="1.97694">
        <ele>416.833</ele>
        <time>2015-08-26T14:21:40Z</time>
      </trkpt>
      <trkpt lat="43.10725" lon="1.97435">
        <ele>415.278</ele>
        <time>2015-08-26T14:22:00Z</time>
      </trkpt>
      <trkpt lat="43.1073" lon="1.97384">
        <ele>412.759</ele>
        <time>2015-08-26T14:22:20Z</time>
      </trkpt>
      <trkpt lat="43.10708" lon="1.97385">
        <ele>411.554</ele>
        <time>2015-08-26T14:22:40Z</time>
      </trkpt>
      <trkpt lat="43.10703" lon="1.97349">
        <ele>412.543</ele>
        <time>2015-08-26T14:23:00Z</time>
      </trkpt>
      <trkpt lat="43.1069" lon="1.97285">
        <ele>414.346</ele>
        <time>2015-08-26T14:23:20Z</time>
      </trkpt>
      <trkpt lat="43.10645" lon="1.97201">
        <ele>416.693</ele>
        <time>2015-08-26T14:23:40Z</time>
      </trkpt>
      <trkpt lat="43.10635" lon="1.97158">
        <ele>415.897</ele>
        <time>2015-08-26T14:24:00Z</time>
      </trkpt>
      <trkpt lat="43.10634" lon="1.97118">
        <ele>416.198</ele>
        <time>2015-08-26T14:24:20Z</time>
      </trkpt>
      <trkpt lat="43.10646" lon="1.9705">
        <ele>420.415</ele>
        <time>2015-08-26T14:24:40Z</time>
      </trkpt>
      <trkpt lat="43.1064" lon="1.96999">
        <ele>422.026</ele>
        <time>2015-08-26T14:25:00Z</time>
      </trkpt>
      <trkpt lat="43.1064" lon="1.96954">
        <ele>419.508</ele>
        <time>2015-08-26T14:25:20Z</time>
      </trkpt>
      <trkpt lat="43.10656" lon="1.96862">
        <ele>416.895</ele>
        <time>2015-08-26T14:25:40Z</time>
      </trkpt>
      <trkpt lat="43.10675" lon="1.96815">
        <ele>417.13</ele>
        <time>2015-08-26T14:26:00Z</time>
      </trkpt>
      <trkpt lat="43.1065" lon="1.96554">
        <ele>421.661</ele>
        <time>2015-08-26T14:26:20Z</time>
      </trkpt>
      <trkpt lat="43.10637" lon="1.96501">
        <ele>418.516</ele>
        <time>2015-08-26T14:26:40Z</time>
      </trkpt>
      <trkpt lat="43.10642" lon="1.96441">
        <ele>416.885</ele>
        <time>2015-08-26T14:27:00Z</time>
      </trkpt>
      <trkpt lat="43.10635" lon="1.9635">
        <ele>412.218</ele>
        <time>2015-08-26T14:27:20Z</time>
      </trkpt>
      <trkpt lat="43.10614" lon="1.96277">
        <ele>406.155</ele>
        <time>2015-08-26T14:27:40Z</time>
      </trkpt>
      <trkpt lat="43.10549" lon="1.96189">
        <ele>408.049</ele>
        <time>2015-08-26T14:28:00Z</time>
      </trkpt>
      <trkpt lat="43.1051" lon="1.96178">
        <ele>412.579</ele>
        <time>2015-08-26T14:28:20Z</time>
      </trkpt>
      <trkpt lat="43.10454" lon="1.96146">
        <ele>410.805</ele>
        <time>2015-08-26T14:28:40Z</time>
      </trkpt>
      <trkpt lat="43.10413" lon="1.96144">
        <ele>409.025</ele>
        <time>2015-08-26T14:29:00Z</time>
      </trkpt>
      <trkpt lat="43.10657" lon="1.95905">
        <ele>404.808</ele>
        <time>2015-08-26T14:29:20Z</time>
      </trkpt>
      <trkpt lat="43.10668" lon="1.95683">
        <ele>387.643</ele>
        <time>2015-08-26T14:29:40Z</time>
      </trkpt>
      <trkpt lat="43.1069" lon="1.95595">
        <ele>381.238</ele>
        <time>2015-08-26T14:30:00Z</time>
      </trkpt>
      <trkpt lat="43.10734" lon="1.95533">
        <ele>374.829</ele>
        <time>2015-08-26T14:30:20Z</time>
      </trkpt>
      <trkpt lat="43.10788" lon="1.95433">
        <ele>373.154</ele>
        <time>2015-08-26T14:30:40Z</time>
      </trkpt>
      <trkpt lat="43.10864" lon="1.95404">
        <ele>370.883</ele>
        <time>2015-08-26T14:31:00Z</time>
      </trkpt>
      <trkpt lat="43.10977" lon="1.95322">
        <ele>367.056</ele>
        <time>2015-08-26T14:31:20Z</time>
      </trkpt>
      <trkpt lat="43.11049" lon="1.95172">
        <ele>364.773</ele>
        <time>2015-08-26T14:31:40Z</time>
      </trkpt>
      <trkpt lat="43.11072" lon="1.95046">
        <ele>354.497</ele>
        <time>2015-08-26T14:32:00Z</time>
      </trkpt>
      <trkpt lat="43.11086" lon="1.94982">
        <ele>358.657</ele>
        <time>2015-08-26T14:32:20Z</time>
      </trkpt>
      <trkpt lat="43.11171" lon="1.94819">
        <ele>355.5</ele>
        <time>2015-08-26T14:32:40Z</time>
      </trkpt>
      <trkpt lat="43.11203" lon="1.94638">
        <ele>347.52</ele>
        <time>2015-08-26T14:33:00Z</time>
      </trkpt>
      <trkpt lat="43.11202" lon="1.94584">
        <ele>345.908</ele>
        <time>2015-08-26T14:33:20Z</time>
      </trkpt>
      <trkpt lat="43.11194" lon="1.94542">
        <ele>345.651</ele>
        <time>2015-08-26T14:33:40Z</time>
      </trkpt>
      <trkpt lat="43.11171" lon="1.94479">
        <ele>346.636</ele>
        <time>2015-08-26T14:34:00Z</time>
      </trkpt>
      <trkpt lat="43.11146" lon="1.94277">
        <ele>344.347</ele>
        <time>2015-08-26T14:34:20Z</time>
      </trkpt>
      <trkpt lat="43.11121" lon="1.94146">
        <ele>339.592</ele>
        <time>2015-08-26T14:34:40Z</time>
      </trkpt>
      <trkpt lat="43.11109" lon="1.94009">
        <ele>338.181</ele>
        <time>2015-08-26T14:35:00Z</time>
      </trkpt>
      <trkpt lat="43.11089" lon="1.93973">
        <ele>337.834</ele>
        <time>2015-08-26T14:35:20Z</time>
      </trkpt>
      <trkpt lat="43.1109" lon="1.93931">
        <ele>336.371</ele>
        <time>2015-08-26T14:35:40Z</time>
      </trkpt>
      <trkpt lat="43.11082" lon="1.93883">
        <ele>334.975</ele>
        <time>2015-08-26T14:36:00Z</time>
      </trkpt>
      <trkpt lat="43.11051" lon="1.93773">
        <ele>336.646</ele>
        <time>2015-08-26T14:36:20Z</time>
      </trkpt>
      <trkpt lat="43.11033" lon="1.93664">
        <ele>337.988</ele>
        <time>2015-08-26T14:36:40Z</time>
      </trkpt>
      <trkpt lat="43.11012" lon="1.9362">
        <ele>337.616</ele>
        <time>2015-08-26T14:37:00Z</time>
      </trkpt>
      <trkpt lat="43.10981" lon="1.93532">
        <ele>337.508</ele>
        <time>2015-08-26T14:37:20Z</time>
      </trkpt>
      <trkpt lat="43.10955" lon="1.93484">
        <ele>338.91</ele>
        <time>2015-08-26T14:37:40Z</time>
      </trkpt>
      <trkpt lat="43.10941" lon="1.93402">
        <ele>337.715</ele>
        <time>2015-08-26T14:38:00Z</time>
      </trkpt>
      <trkpt lat="43.10918" lon="1.93348">
        <ele>336.856</ele>
        <time>2015-08-26T14:38:20Z</time>
      </trkpt>
      <trkpt lat="43.10974" lon="1.9325">
        <ele>329.171</ele>
        <time>2015-08-26T14:38:40Z</time>
      </trkpt>
      <trkpt lat="43.10989" lon="1.93237">
        <ele>329.69</ele>
        <time>2015-08-26T14:39:00Z</time>
      </trkpt>
      <trkpt lat="43.10992" lon="1.93166">
        <ele>329.783</ele>
        <time>2015-08-26T14:39:20Z</time>
      </trkpt>
      <trkpt lat="43.11001" lon="1.93151">
        <ele>329.55</ele>
        <time>2015-08-26T14:39:40Z</time>
      </trkpt>
      <trkpt lat="43.11033" lon="1.93127">
        <ele>330.164</ele>
        <time>2015-08-26T14:40:00Z</time>
      </trkpt>
      <trkpt lat="43.1108" lon="1.93104">
        <ele>334.234</ele>
        <time>2015-08-26T14:40:20Z</time>
      </trkpt>
      <trkpt lat="43.1109" lon="1.93086">
        <ele>336.355</ele>
        <time>2015-08-26T14:40:40Z</time>
      </trkpt>
      <trkpt lat="43.11067" lon="1.93018">
        <ele>340.01</ele>
        <time>2015-08-26T14:41:00Z</time>
      </trkpt>
      <trkpt lat="43.11023" lon="1.92909">
        <ele>336.008</ele>
        <time>2015-08-26T14:41:20Z</time>
      </trkpt>
      <trkpt lat="43.11045" lon="1.9265">
        <ele>330.099</ele>
        <time>2015-08-26T14:41:40Z</time>
      </trkpt>
      <trkpt lat="43.10916" lon="1.92526">
        <ele>327.184</ele>
        <time>2015-08-26T14:42:00Z</time>
      </trkpt>
      <trkpt lat="43.10922" lon="1.92498">
        <ele>329.375</ele>
        <time>2015-08-26T14:42:20Z</time>
      </trkpt>
      <trkpt lat="43.10887" lon="1.92465">
        <ele>331.54</ele>
        <time>2015-08-26T14:42:40Z</time>
      </trkpt>
      <trkpt lat="43.10871" lon="1.92432">
        <ele>331.229</ele>
        <time>2015-08-26T14:43:00Z</time>
      </trkpt>
      <trkpt lat="43.10872" lon="1.92386">
        <ele>335.152</ele>
        <time>2015-08-26T14:43:20Z</time>
      </trkpt>
      <trkpt lat="43.11028" lon="1.92251">
        <ele>348.919</ele>
        <time>2015-08-26T14:43:40Z</time>
      </trkpt>
      <trkpt lat="43.11066" lon="1.9226">
        <ele>352.943</ele>
        <time>2015-08-26T14:44:00Z</time>
      </trkpt>
      <trkpt lat="43.11091" lon="1.92273">
        <ele>352.326</ele>
        <time>2015-08-26T14:44:20Z</time>
      </trkpt>
      <trkpt lat="43.11152" lon="1.92186">
        <ele>354.447</ele>
        <time>2015-08-26T14:44:40Z</time>
      </trkpt>
      <trkpt lat="43.11193" lon="1.92084">
        <ele>355.011</ele>
        <time>2015-08-26T14:45:00Z</time>
      </trkpt>
      <trkpt lat="43.11274" lon="1.91949">
        <ele>349.708</ele>
        <time>2015-08-26T14:45:20Z</time>
      </trkpt>
      <trkpt lat="43.11304" lon="1.91821">
        <ele>354.888</ele>
        <time>2015-08-26T14:45:40Z</time>
      </trkpt>
      <trkpt lat="43.11297" lon="1.91802">
        <ele>354.443</ele>
        <time>2015-08-26T14:46:00Z</time>
      </trkpt>
      <trkpt lat="43.11347" lon="1.91446">
        <ele>333.634</ele>
        <time>2015-08-26T14:46:20Z</time>
      </trkpt>
      <trkpt lat="43.11363" lon="1.91445">
        <ele>334.179</ele>
        <time>2015-08-26T14:46:40Z</time>
      </trkpt>
      <trkpt lat="43.11406" lon="1.91331">
        <ele>328.488</ele>
        <time>2015-08-26T14:47:00Z</time>
      </trkpt>
      <trkpt lat="43.11428" lon="1.91334">
        <ele>329.481</ele>
        <time>2015-08-26T14:47:20Z</time>
      </trkpt>
      <trkpt lat="43.11492" lon="1.91164">
        <ele>338.538</ele>
        <time>2015-08-26T14:47:40Z</time>
      </trkpt>
      <trkpt lat="43.1154" lon="1.9104">
        <ele>351.512</ele>
        <time>2015-08-26T14:48:00Z</time>
      </trkpt>
      <trkpt lat="43.11557" lon="1.9096">
        <ele>354.271</ele>
        <time>2015-08-26T14:48:20Z</time>
      </trkpt>
      <trkpt lat="43.11585" lon="1.9089">
        <ele>357.541</ele>
        <time>2015-08-26T14:48:40Z</time>
      </trkpt>
      <trkpt lat="43.11604" lon="1.90851">
        <ele>363.315</ele>
        <time>2015-08-26T14:49:00Z</time>
      </trkpt>
      <trkpt lat="43.11624" lon="1.90838">
        <ele>366.808</ele>
        <time>2015-08-26T14:49:20Z</time>
      </trkpt>
      <trkpt lat="43.11663" lon="1.90706">
        <ele>375.123</ele>
        <time>2015-08-26T14:49:40Z</time>
      </trkpt>
      <trkpt lat="43.1168" lon="1.90633">
        <ele>377.228</ele>
        <time>2015-08-26T14:50:00Z</time>
      </trkpt>
      <trkpt lat="43.11692" lon="1.9051">
        <ele>387.229</ele>
        <time>2015-08-26T14:50:20Z</time>
      </trkpt>
      <trkpt lat="43.11689" lon="1.90473">
        <ele>390.414</ele>
        <time>2015-08-26T14:50:40Z</time>
      </trkpt>
      <trkpt lat="43.11678" lon="1.90451">
        <ele>391.643</ele>
        <time>2015-08-26T14:51:00Z</time>
      </trkpt>
      <trkpt lat="43.11629" lon="1.90419">
        <ele>400.266</ele>
        <time>2015-08-26T14:51:20Z</time>
      </trkpt>
      <trkpt lat="43.11579" lon="1.90418">
        <ele>401.563</ele>
        <time>2015-08-26T14:51:40Z</time>
      </trkpt>
      <trkpt lat="43.11553" lon="1.90423">
        <ele>400.467</ele>
        <time>2015-08-26T14:52:00Z</time>
      </trkpt>
      <trkpt lat="43.11545" lon="1.90389">
        <ele>399.681</ele>
        <time>2015-08-26T14:52:20Z</time>
      </trkpt>
      <trkpt lat="43.11523" lon="1.9034">
        <ele>394.361</ele>
        <time>2015-08-26T14:52:40Z</time>
      </trkpt>
      <trkpt lat="43.11461" lon="1.90227">
        <ele>378.617</ele>
        <time>2015-08-26T14:53:00Z</time>
      </trkpt>
      <trkpt lat="43.1144" lon="1.90203">
        <ele>373.808</ele>
        <time>2015-08-26T14:53:20Z</time>
      </trkpt>
      <trkpt lat="43.11423" lon="1.90192">
        <ele>370.994</ele>
        <time>2015-08-26T14:53:40Z</time>
      </trkpt>
      <trkpt lat="43.11425" lon="1.90179">
        <ele>371.159</ele>
        <time>2015-08-26T14:54:00Z</time>
      </trkpt>
      <trkpt lat="43.11316" lon="1.89926">
        <ele>383.93</ele>
        <time>2019-03-29T04:16:11Z</time>
      </trkpt>
      <trkpt lat="43.11249" lon="1.899">
        <ele>381.195</ele>
        <time>2019-03-29T04:16:31Z</time>
      </trkpt>
      <trkpt lat="43.11201" lon="1.89878">
        <ele>378.634</ele>
        <time>2019-03-29T04:16:51Z</time>
      </trkpt>
      <trkpt lat="43.1116" lon="1.89922">
        <ele>372.887</ele>
        <time>2019-03-29T04:17:11Z</time>
      </trkpt>
      <trkpt lat="43.11179" lon="1.89808">
        <ele>362.924</ele>
        <time>2019-03-29T04:17:31Z</time>
      </trkpt>
      <trkpt lat="43.11224" lon="1.89725">
        <ele>355.798</ele>
        <time>2019-03-29T04:17:51Z</time>
      </trkpt>
      <trkpt lat="43.11244" lon="1.89639">
        <ele>344.818</ele>
        <time>2019-03-29T04:18:11Z</time>
      </trkpt>
      <trkpt lat="43.11214" lon="1.89673">
        <ele>347.998</ele>
        <time>2019-03-29T04:18:31Z</time>
      </trkpt>
      <trkpt lat="43.11129" lon="1.89641">
        <ele>346.617</ele>
        <time>2019-03-29T04:18:51Z</time>
      </trkpt>
      <trkpt lat="43.11103" lon="1.89667">
        <ele>349.408</ele>
        <time>2019-03-29T04:19:11Z</time>
      </trkpt>
      <trkpt lat="43.11087" lon="1.89717">
        <ele>348.217</ele>
        <time>2019-03-29T04:19:31Z</time>
      </trkpt>
      <trkpt lat="43.10993" lon="1.89737">
        <ele>338.192</ele>
        <time>2019-03-29T04:19:51Z</time>
      </trkpt>
      <trkpt lat="43.10929" lon="1.89727">
        <ele>328.223</ele>
        <time>2019-03-29T04:20:11Z</time>
      </trkpt>
      <trkpt lat="43.1091" lon="1.89669">
        <ele>324.738</ele>
        <time>2019-03-29T04:20:31Z</time>
      </trkpt>
      <trkpt lat="43.1087" lon="1.89677">
        <ele>323.327</ele>
        <time>2019-03-29T04:20:51Z</time>
      </trkpt>
      <trkpt lat="43.1086" lon="1.89625">
        <ele>323.58</ele>
        <time>2019-03-29T04:21:11Z</time>
      </trkpt>
      <trkpt lat="43.10835" lon="1.89583">
        <ele>326.947</ele>
        <time>2019-03-29T04:21:31Z</time>
      </trkpt>
      <trkpt lat="43.10826" lon="1.89582">
        <ele>327.411</ele>
        <time>2015-08-26T15:01:00Z</time>
      </trkpt>
      <trkpt lat="43.10768" lon="1.89581">
        <ele>327.855</ele>
        <time>2015-08-26T15:01:20Z</time>
      </trkpt>
      <trkpt lat="43.10735" lon="1.89573">
        <ele>327.607</ele>
        <time>2015-08-26T15:01:40Z</time>
      </trkpt>
      <trkpt lat="43.10707" lon="1.89569">
        <ele>328.617</ele>
        <time>2015-08-26T15:02:00Z</time>
      </trkpt>
      <trkpt lat="43.10679" lon="1.89557">
        <ele>329.708</ele>
        <time>2015-08-26T15:02:20Z</time>
      </trkpt>
      <trkpt lat="43.10645" lon="1.89518">
        <ele>329.731</ele>
        <time>2015-08-26T15:02:40Z</time>
      </trkpt>
      <trkpt lat="43.10622" lon="1.8951">
        <ele>328.746</ele>
        <time>2015-08-26T15:03:00Z</time>
      </trkpt>
      <trkpt lat="43.10571" lon="1.89524">
        <ele>330.187</ele>
        <time>2015-08-26T15:03:20Z</time>
      </trkpt>
      <trkpt lat="43.10521" lon="1.89476">
        <ele>338.482</ele>
        <time>2015-08-26T15:03:40Z</time>
      </trkpt>
      <trkpt lat="43.10501" lon="1.89474">
        <ele>340.771</ele>
        <time>2015-08-26T15:04:00Z</time>
      </trkpt>
      <trkpt lat="43.10414" lon="1.89524">
        <ele>347.754</ele>
        <time>2015-08-26T15:04:20Z</time>
      </trkpt>
      <trkpt lat="43.10427" lon="1.89484">
        <ele>350.011</ele>
        <time>2015-08-26T15:04:40Z</time>
      </trkpt>
      <trkpt lat="43.10436" lon="1.89402">
        <ele>355.135</ele>
        <time>2015-08-26T15:05:00Z</time>
      </trkpt>
      <trkpt lat="43.10449" lon="1.89338">
        <ele>359.637</ele>
        <time>2015-08-26T15:05:20Z</time>
      </trkpt>
      <trkpt lat="43.10505" lon="1.89267">
        <ele>364.349</ele>
        <time>2015-08-26T15:05:40Z</time>
      </trkpt>
      <trkpt lat="43.10519" lon="1.8924">
        <ele>364.113</ele>
        <time>2015-08-26T15:06:00Z</time>
      </trkpt>
      <trkpt lat="43.10543" lon="1.89178">
        <ele>362.008</ele>
        <time>2015-08-26T15:06:20Z</time>
      </trkpt>
      <trkpt lat="43.10589" lon="1.89125">
        <ele>359.339</ele>
        <time>2015-08-26T15:06:40Z</time>
      </trkpt>
      <trkpt lat="43.10639" lon="1.89079">
        <ele>352.564</ele>
        <time>2015-08-26T15:07:00Z</time>
      </trkpt>
      <trkpt lat="43.10658" lon="1.89023">
        <ele>344.455</ele>
        <time>2015-08-26T15:07:20Z</time>
      </trkpt>
      <trkpt lat="43.10648" lon="1.88988">
        <ele>340.68</ele>
        <time>2015-08-26T15:07:40Z</time>
      </trkpt>
      <trkpt lat="43.10639" lon="1.88982">
        <ele>339.629</ele>
        <time>2015-08-26T15:08:00Z</time>
      </trkpt>
      <trkpt lat="43.10539" lon="1.88975">
        <ele>336.432</ele>
        <time>2015-08-26T15:08:20Z</time>
      </trkpt>
      <trkpt lat="43.10535" lon="1.88965">
        <ele>335.989</ele>
        <time>2015-08-26T15:08:40Z</time>
      </trkpt>
      <trkpt lat="43.10619" lon="1.88825">
        <ele>339.483</ele>
        <time>2015-08-26T15:09:00Z</time>
      </trkpt>
      <trkpt lat="43.10648" lon="1.88747">
        <ele>344.355</ele>
        <time>2015-08-26T15:09:20Z</time>
      </trkpt>
      <trkpt lat="43.10701" lon="1.8866">
        <ele>353.507</ele>
        <time>2015-08-26T15:09:40Z</time>
      </trkpt>
      <trkpt lat="43.10701" lon="1.88598">
        <ele>357.117</ele>
        <time>2015-08-26T15:10:00Z</time>
      </trkpt>
      <trkpt lat="43.10716" lon="1.88549">
        <ele>358.708</ele>
        <time>2015-08-26T15:10:20Z</time>
      </trkpt>
      <trkpt lat="43.10732" lon="1.88523">
        <ele>359.161</ele>
        <time>2015-08-26T15:10:40Z</time>
      </trkpt>
      <trkpt lat="43.10763" lon="1.88527">
        <ele>360.016</ele>
        <time>2015-08-26T15:11:00Z</time>
      </trkpt>
      <trkpt lat="43.10912" lon="1.88363">
        <ele>365.817</ele>
        <time>2015-08-26T15:11:20Z</time>
      </trkpt>
      <trkpt lat="43.10889" lon="1.88338">
        <ele>365.962</ele>
        <time>2015-08-26T15:11:40Z</time>
      </trkpt>
      <trkpt lat="43.10802" lon="1.8828">
        <ele>353.741</ele>
        <time>2015-08-26T15:12:00Z</time>
      </trkpt>
      <trkpt lat="43.10632" lon="1.88191">
        <ele>347.464</ele>
        <time>2015-08-26T15:12:20Z</time>
      </trkpt>
      <trkpt lat="43.1061" lon="1.88207">
        <ele>350.141</ele>
        <time>2020-03-09T00:17:17Z</time>
      </trkpt>
      <trkpt lat="43.10577" lon="1.88196">
        <ele>344.175</ele>
        <time>2020-03-09T00:17:37Z</time>
      </trkpt>
      <trkpt lat="43.10533" lon="1.88203">
        <ele>338.394</ele>
        <time>2020-03-09T00:17:57Z</time>
      </trkpt>
      <trkpt lat="43.1049" lon="1.88179">
        <ele>334.357</ele>
        <time>2020-03-09T00:18:17Z</time>
      </trkpt>
      <trkpt lat="43.10464" lon="1.88147">
        <ele>335.022</ele>
        <time>2015-08-26T15:13:40Z</time>
      </trkpt>
      <trkpt lat="43.10394" lon="1.8809">
        <ele>344.808</ele>
        <time>2020-03-09T00:18:57Z</time>
      </trkpt>
      <trkpt lat="43.10327" lon="1.88072">
        <ele>353.695</ele>
        <time>2015-08-26T15:14:20Z</time>
      </trkpt>
      <trkpt lat="43.10272" lon="1.88051">
        <ele>358.96</ele>
        <time>2020-03-09T00:19:37Z</time>
      </trkpt>
      <trkpt lat="43.10252" lon="1.88021">
        <ele>356.691</ele>
        <time>2020-03-09T00:19:57Z</time>
      </trkpt>
      <trkpt lat="43.10242" lon="1.88029">
        <ele>357.336</ele>
        <time>2015-08-26T15:14:40Z</time>
      </trkpt>
      <trkpt lat="43.10197" lon="1.88037">
        <ele>354.955</ele>
        <time>2015-08-26T15:15:00Z</time>
      </trkpt>
      <trkpt lat="43.10135" lon="1.88005">
        <ele>346.628</ele>
        <time>2015-08-26T15:15:20Z</time>
      </trkpt>
      <trkpt lat="43.10087" lon="1.88019">
        <ele>347.395</ele>
        <time>2015-08-26T15:15:40Z</time>
      </trkpt>
      <trkpt lat="43.10157" lon="1.87898">
        <ele>326.189</ele>
        <time>2015-08-26T15:16:00Z</time>
      </trkpt>
      <trkpt lat="43.10116" lon="1.87837">
        <ele>320.531</ele>
        <time>2015-08-26T15:16:20Z</time>
      </trkpt>
      <trkpt lat="43.10078" lon="1.87793">
        <ele>316.161</ele>
        <time>2015-08-26T15:16:40Z</time>
      </trkpt>
      <trkpt lat="43.09976" lon="1.87732">
        <ele>306.007</ele>
        <time>2015-08-26T15:17:00Z</time>
      </trkpt>
      <trkpt lat="43.09956" lon="1.8773">
        <ele>305.008</ele>
        <time>2015-08-26T15:17:20Z</time>
      </trkpt>
      <trkpt lat="43.09932" lon="1.87719">
        <ele>303.449</ele>
        <time>2015-08-26T15:17:40Z</time>
      </trkpt>
      <trkpt lat="43.09912" lon="1.87695">
        <ele>299.984</ele>
        <time>2015-08-26T15:18:00Z</time>
      </trkpt>
      <trkpt lat="43.09907" lon="1.87651">
        <ele>299.765</ele>
        <time>2015-08-26T15:18:20Z</time>
      </trkpt>
      <trkpt lat="43.09874" lon="1.876">
        <ele>298.54</ele>
        <time>2015-08-26T15:18:40Z</time>
      </trkpt>
      <trkpt lat="43.09778" lon="1.87511">
        <ele>295.449</ele>
        <time>2015-08-26T15:19:00Z</time>
      </trkpt>
      <trkpt lat="43.09649" lon="1.87457">
        <ele>293.042</ele>
        <time>2015-08-26T15:19:20Z</time>
      </trkpt>
      <trkpt lat="43.09641" lon="1.87595">
        <ele>295.039</ele>
        <time>2015-08-26T15:19:40Z</time>
      </trkpt>
      <trkpt lat="43.09614" lon="1.87625">
        <ele>295.043</ele>
        <time>2015-08-26T15:20:00Z</time>
      </trkpt>
      <trkpt lat="43.08911" lon="1.87614">
        <ele>300.293</ele>
        <time>2015-08-26T15:20:20Z</time>
      </trkpt>
      <trkpt lat="43.0864" lon="1.87608">
        <ele>306.065</ele>
        <time>2015-08-26T16:40:40Z</time>
      </trkpt>
      <trkpt lat="43.0864" lon="1.87608">
        <ele>306.021</ele>
        <time>2015-08-26T16:40:40Z</time>
      </trkpt>
      <trkpt lat="43.08515" lon="1.87606">
        <ele>307.208</ele>
        <time>2015-08-26T16:41:00Z</time>
      </trkpt>
      <trkpt lat="43.08458" lon="1.87616">
        <ele>307.845</ele>
        <time>2015-08-26T16:41:20Z</time>
      </trkpt>
      <trkpt lat="43.08448" lon="1.87645">
        <ele>306.83</ele>
        <time>2015-08-26T16:41:40Z</time>
      </trkpt>
      <trkpt lat="43.0843" lon="1.87655">
        <ele>306.731</ele>
        <time>2015-08-26T16:42:00Z</time>
      </trkpt>
      <trkpt lat="43.084" lon="1.87911">
        <ele>303.566</ele>
        <time>2015-08-26T16:42:20Z</time>
      </trkpt>
      <trkpt lat="43.08268" lon="1.89995">
        <ele>311.985</ele>
        <time>2015-08-26T16:42:40Z</time>
      </trkpt>
      <trkpt lat="43.08112" lon="1.90095">
        <ele>319.588</ele>
        <time>2015-08-26T16:43:00Z</time>
      </trkpt>
      <trkpt lat="43.07994" lon="1.90128">
        <ele>323.445</ele>
        <time>2015-08-26T16:43:20Z</time>
      </trkpt>
      <trkpt lat="43.07961" lon="1.90232">
        <ele>319.139</ele>
        <time>2015-08-26T16:43:40Z</time>
      </trkpt>
      <trkpt lat="43.07894" lon="1.9029">
        <ele>320.183</ele>
        <time>2015-08-26T16:44:00Z</time>
      </trkpt>
      <trkpt lat="43.07767" lon="1.90543">
        <ele>322.825</ele>
        <time>2015-08-26T16:44:20Z</time>
      </trkpt>
      <trkpt lat="43.0751" lon="1.90762">
        <ele>330.217</ele>
        <time>2015-08-26T16:44:40Z</time>
      </trkpt>
      <trkpt lat="43.07433" lon="1.90804">
        <ele>331.508</ele>
        <time>2015-08-26T16:45:00Z</time>
      </trkpt>
      <trkpt lat="43.07397" lon="1.90819">
        <ele>331.694</ele>
        <time>2015-08-26T16:45:20Z</time>
      </trkpt>
      <trkpt lat="43.07311" lon="1.90835">
        <ele>335.729</ele>
        <time>2015-08-26T16:45:40Z</time>
      </trkpt>
      <trkpt lat="43.0722" lon="1.90768">
        <ele>340.51</ele>
        <time>2015-08-26T16:46:00Z</time>
      </trkpt>
      <trkpt lat="43.07142" lon="1.90823">
        <ele>346.865</ele>
        <time>2015-08-26T16:46:20Z</time>
      </trkpt>
      <trkpt lat="43.0707" lon="1.9086">
        <ele>349.474</ele>
        <time>2015-08-26T16:46:40Z</time>
      </trkpt>
      <trkpt lat="43.06989" lon="1.90964">
        <ele>359.547</ele>
        <time>2015-08-26T16:47:00Z</time>
      </trkpt>
      <trkpt lat="43.0685" lon="1.91058">
        <ele>362.184</ele>
        <time>2015-08-26T16:47:20Z</time>
      </trkpt>
      <trkpt lat="43.06797" lon="1.91045">
        <ele>367.038</ele>
        <time>2015-08-26T16:47:40Z</time>
      </trkpt>
      <trkpt lat="43.0676" lon="1.91016">
        <ele>364.478</ele>
        <time>2015-08-26T16:48:00Z</time>
      </trkpt>
      <trkpt lat="43.06703" lon="1.91087">
        <ele>368.633</ele>
        <time>2015-08-26T16:48:20Z</time>
      </trkpt>
      <trkpt lat="43.06635" lon="1.91161">
        <ele>376.526</ele>
        <time>2015-08-26T16:48:40Z</time>
      </trkpt>
      <trkpt lat="43.06607" lon="1.91163">
        <ele>379.808</ele>
        <time>2015-08-26T16:49:00Z</time>
      </trkpt>
      <trkpt lat="43.06577" lon="1.91154">
        <ele>384.553</ele>
        <time>2015-08-26T16:49:20Z</time>
      </trkpt>
      <trkpt lat="43.06559" lon="1.91165">
        <ele>385.948</ele>
        <time>2015-08-26T16:49:40Z</time>
      </trkpt>
      <trkpt lat="43.0646" lon="1.91196">
        <ele>393.189</ele>
        <time>2015-08-26T16:50:00Z</time>
      </trkpt>
      <trkpt lat="43.06444" lon="1.91324">
        <ele>388.274</ele>
        <time>2015-08-26T16:50:20Z</time>
      </trkpt>
      <trkpt lat="43.06443" lon="1.91439">
        <ele>390.993</ele>
        <time>2015-08-26T16:50:40Z</time>
      </trkpt>
      <trkpt lat="43.06463" lon="1.91548">
        <ele>398.336</ele>
        <time>2015-08-26T16:51:00Z</time>
      </trkpt>
      <trkpt lat="43.06473" lon="1.91623">
        <ele>401.163</ele>
        <time>2015-08-26T16:51:20Z</time>
      </trkpt>
      <trkpt lat="43.06516" lon="1.91693">
        <ele>407.017</ele>
        <time>2015-08-26T16:51:40Z</time>
      </trkpt>
      <trkpt lat="43.06547" lon="1.91762">
        <ele>408.193</ele>
        <time>2015-08-26T16:52:00Z</time>
      </trkpt>
      <trkpt lat="43.0654" lon="1.91776">
        <ele>406.365</ele>
        <time>2015-08-26T16:52:20Z</time>
      </trkpt>
      <trkpt lat="43.0653" lon="1.91836">
        <ele>408.521</ele>
        <time>2015-08-26T16:52:40Z</time>
      </trkpt>
      <trkpt lat="43.06505" lon="1.91906">
        <ele>404.008</ele>
        <time>2015-08-26T16:53:00Z</time>
      </trkpt>
      <trkpt lat="43.06482" lon="1.92022">
        <ele>399.145</ele>
        <time>2015-08-26T16:53:20Z</time>
      </trkpt>
      <trkpt lat="43.06449" lon="1.92101">
        <ele>392.51</ele>
        <time>2015-08-26T16:53:40Z</time>
      </trkpt>
      <trkpt lat="43.06427" lon="1.9221">
        <ele>389.961</ele>
        <time>2015-08-26T16:54:00Z</time>
      </trkpt>
      <trkpt lat="43.06409" lon="1.92259">
        <ele>387.036</ele>
        <time>2015-08-26T16:54:20Z</time>
      </trkpt>
      <trkpt lat="43.06405" lon="1.92284">
        <ele>386.765</ele>
        <time>2015-08-26T16:54:40Z</time>
      </trkpt>
      <trkpt lat="43.06438" lon="1.92455">
        <ele>374.818</ele>
        <time>2015-08-26T16:55:00Z</time>
      </trkpt>
      <trkpt lat="43.06401" lon="1.92523">
        <ele>365.935</ele>
        <time>2015-08-26T16:55:20Z</time>
      </trkpt>
      <trkpt lat="43.06378" lon="1.92538">
        <ele>364.729</ele>
        <time>2015-08-26T16:55:40Z</time>
      </trkpt>
      <trkpt lat="43.06334" lon="1.92695">
        <ele>358.987</ele>
        <time>2015-08-26T16:56:00Z</time>
      </trkpt>
      <trkpt lat="43.06248" lon="1.92981">
        <ele>344.742</ele>
        <time>2015-08-26T16:56:20Z</time>
      </trkpt>
      <trkpt lat="43.06232" lon="1.93093">
        <ele>340.126</ele>
        <time>2015-08-26T16:56:40Z</time>
      </trkpt>
      <trkpt lat="43.0617" lon="1.93261">
        <ele>322.408</ele>
        <time>2019-03-29T10:09:02Z</time>
      </trkpt>
      <trkpt lat="43.06098" lon="1.93257">
        <ele>320.534</ele>
        <time>2020-12-02T00:02:28Z</time>
      </trkpt>
      <trkpt lat="43.06047" lon="1.93354">
        <ele>326.119</ele>
        <time>2020-12-02T00:02:48Z</time>
      </trkpt>
      <trkpt lat="43.06027" lon="1.93354">
        <ele>328.15</ele>
        <time>2015-08-26T16:58:00Z</time>
      </trkpt>
      <trkpt lat="43.05968" lon="1.93334">
        <ele>332.525</ele>
        <time>2015-08-26T16:58:20Z</time>
      </trkpt>
      <trkpt lat="43.05898" lon="1.93323">
        <ele>339.144</ele>
        <time>2015-08-26T16:58:40Z</time>
      </trkpt>
      <trkpt lat="43.05792" lon="1.93326">
        <ele>348.587</ele>
        <time>2015-08-26T16:59:00Z</time>
      </trkpt>
      <trkpt lat="43.05653" lon="1.93444">
        <ele>356.994</ele>
        <time>2015-08-26T16:59:20Z</time>
      </trkpt>
      <trkpt lat="43.05595" lon="1.93465">
        <ele>358.298</ele>
        <time>2015-08-26T16:59:40Z</time>
      </trkpt>
      <trkpt lat="43.05458" lon="1.93453">
        <ele>360.255</ele>
        <time>2015-08-26T17:00:00Z</time>
      </trkpt>
      <trkpt lat="43.05309" lon="1.93447">
        <ele>368.707</ele>
        <time>2015-08-26T17:00:20Z</time>
      </trkpt>
      <trkpt lat="43.05228" lon="1.9361">
        <ele>376.617</ele>
        <time>2015-08-26T17:00:40Z</time>
      </trkpt>
      <trkpt lat="43.05047" lon="1.93441">
        <ele>377.808</ele>
        <time>2015-08-26T17:01:00Z</time>
      </trkpt>
      <trkpt lat="43.05023" lon="1.93475">
        <ele>377.681</ele>
        <time>2015-08-26T17:01:20Z</time>
      </trkpt>
      <trkpt lat="43.04998" lon="1.93529">
        <ele>376.736</ele>
        <time>2015-08-26T17:01:40Z</time>
      </trkpt>
      <trkpt lat="43.04985" lon="1.93522">
        <ele>374.727</ele>
        <time>2015-08-26T17:02:00Z</time>
      </trkpt>
      <trkpt lat="43.04959" lon="1.93602">
        <ele>373.112</ele>
        <time>2015-08-26T17:02:20Z</time>
      </trkpt>
      <trkpt lat="43.04868" lon="1.93568">
        <ele>361.861</ele>
        <time>2015-08-26T17:02:40Z</time>
      </trkpt>
      <trkpt lat="43.04805" lon="1.93578">
        <ele>353.394</ele>
        <time>2015-08-26T17:03:00Z</time>
      </trkpt>
      <trkpt lat="43.04715" lon="1.93548">
        <ele>341.151</ele>
        <time>2015-08-26T17:03:20Z</time>
      </trkpt>
      <trkpt lat="43.04686" lon="1.93578">
        <ele>332.985</ele>
        <time>2015-08-26T17:03:40Z</time>
      </trkpt>
      <trkpt lat="43.04703" lon="1.93619">
        <ele>330.993</ele>
        <time>2015-08-26T17:04:00Z</time>
      </trkpt>
      <trkpt lat="43.04685" lon="1.9366">
        <ele>327.065</ele>
        <time>2015-08-26T17:04:20Z</time>
      </trkpt>
      <trkpt lat="43.04671" lon="1.93717">
        <ele>327.021</ele>
        <time>2015-08-26T17:04:40Z</time>
      </trkpt>
      <trkpt lat="43.04555" lon="1.93659">
        <ele>326.008</ele>
        <time>2015-08-26T17:05:00Z</time>
      </trkpt>
      <trkpt lat="43.04512" lon="1.93827">
        <ele>325.045</ele>
        <time>2015-08-26T17:05:20Z</time>
      </trkpt>
      <trkpt lat="43.04455" lon="1.93904">
        <ele>325.01</ele>
        <time>2015-08-26T17:05:40Z</time>
      </trkpt>
      <trkpt lat="43.04444" lon="1.93941">
        <ele>325.071</ele>
        <time>2015-08-26T17:06:00Z</time>
      </trkpt>
      <trkpt lat="43.04448" lon="1.94018">
        <ele>325.026</ele>
        <time>2015-08-26T17:06:20Z</time>
      </trkpt>
      <trkpt lat="43.04383" lon="1.94142">
        <ele>327.095</ele>
        <time>2015-08-26T17:06:40Z</time>
      </trkpt>
      <trkpt lat="43.04314" lon="1.94277">
        <ele>328.068</ele>
        <time>2015-08-26T17:07:00Z</time>
      </trkpt>
      <trkpt lat="43.04194" lon="1.94265">
        <ele>329.085</ele>
        <time>2015-08-26T17:07:20Z</time>
      </trkpt>
      <trkpt lat="43.0366" lon="1.94196">
        <ele>330.849</ele>
        <time>2015-08-26T17:07:40Z</time>
      </trkpt>
      <trkpt lat="43.03593" lon="1.94202">
        <ele>336.434</ele>
        <time>2015-08-26T17:08:00Z</time>
      </trkpt>
      <trkpt lat="43.03524" lon="1.94227">
        <ele>338.155</ele>
        <time>2015-08-26T17:08:20Z</time>
      </trkpt>
      <trkpt lat="43.03458" lon="1.94266">
        <ele>335.81</ele>
        <time>2015-08-26T17:08:40Z</time>
      </trkpt>
      <trkpt lat="43.03389" lon="1.94341">
        <ele>336.208</ele>
        <time>2015-08-26T17:09:00Z</time>
      </trkpt>
      <trkpt lat="43.03337" lon="1.94432">
        <ele>336.889</ele>
        <time>2015-08-26T17:09:20Z</time>
      </trkpt>
      <trkpt lat="43.03149" lon="1.94926">
        <ele>336.534</ele>
        <time>2015-08-26T17:09:40Z</time>
      </trkpt>
      <trkpt lat="43.0308" lon="1.95034">
        <ele>340.785</ele>
        <time>2015-08-26T17:10:00Z</time>
      </trkpt>
      <trkpt lat="43.02791" lon="1.95331">
        <ele>343.02</ele>
        <time>2015-08-26T17:10:20Z</time>
      </trkpt>
      <trkpt lat="43.02744" lon="1.95395">
        <ele>343.049</ele>
        <time>2015-08-26T17:10:40Z</time>
      </trkpt>
      <trkpt lat="43.02704" lon="1.95471">
        <ele>342.392</ele>
        <time>2015-08-26T17:11:00Z</time>
      </trkpt>
      <trkpt lat="43.02663" lon="1.95585">
        <ele>342.939</ele>
        <time>2015-08-26T17:11:20Z</time>
      </trkpt>
      <trkpt lat="43.02644" lon="1.95684">
        <ele>343.223</ele>
        <time>2015-08-26T17:11:40Z</time>
      </trkpt>
      <trkpt lat="43.02617" lon="1.96017">
        <ele>345.888</ele>
        <time>2015-08-26T17:12:00Z</time>
      </trkpt>
      <trkpt lat="43.0259" lon="1.96123">
        <ele>343.724</ele>
        <time>2015-08-26T17:12:20Z</time>
      </trkpt>
      <trkpt lat="43.02556" lon="1.96199">
        <ele>341.026</ele>
        <time>2015-08-26T17:12:40Z</time>
      </trkpt>
      <trkpt lat="43.02499" lon="1.96282">
        <ele>339.008</ele>
        <time>2015-08-26T17:13:00Z</time>
      </trkpt>
      <trkpt lat="43.02438" lon="1.96341">
        <ele>337.084</ele>
        <time>2015-08-26T17:13:20Z</time>
      </trkpt>
      <trkpt lat="43.02332" lon="1.9639">
        <ele>335.059</ele>
        <time>2015-08-26T17:13:40Z</time>
      </trkpt>
      <trkpt lat="43.02161" lon="1.964">
        <ele>345.94</ele>
        <time>2020-12-02T00:19:08Z</time>
      </trkpt>
      <trkpt lat="43.02172" lon="1.96417">
        <ele>343.355</ele>
        <time>2020-12-02T00:19:28Z</time>
      </trkpt>
      <trkpt lat="43.02157" lon="1.96463">
        <ele>342.434</ele>
        <time>2020-12-02T00:19:48Z</time>
      </trkpt>
      <trkpt lat="43.02167" lon="1.96498">
        <ele>341.947</ele>
        <time>2020-12-02T00:20:08Z</time>
      </trkpt>
      <trkpt lat="43.02164" lon="1.9652">
        <ele>343.644</ele>
        <time>2020-12-02T00:20:28Z</time>
      </trkpt>
      <trkpt lat="43.02182" lon="1.96553">
        <ele>342.898</ele>
        <time>2020-12-02T00:20:48Z</time>
      </trkpt>
      <trkpt lat="43.02197" lon="1.96625">
        <ele>343.242</ele>
        <time>2020-12-02T00:21:08Z</time>
      </trkpt>
      <trkpt lat="43.02258" lon="1.96827">
        <ele>339.722</ele>
        <time>2020-12-02T00:21:28Z</time>
      </trkpt>
      <trkpt lat="43.02251" lon="1.96839">
        <ele>340.014</ele>
        <time>2020-12-02T00:21:48Z</time>
      </trkpt>
      <trkpt lat="43.0224" lon="1.96832">
        <ele>340.708</ele>
        <time>2020-12-02T00:22:08Z</time>
      </trkpt>
      <trkpt lat="43.02226" lon="1.96816">
        <ele>341.78</ele>
        <time>2020-12-02T00:22:28Z</time>
      </trkpt>
      <trkpt lat="43.0221" lon="1.96814">
        <ele>342.585</ele>
        <time>2020-12-02T00:22:48Z</time>
      </trkpt>
      <trkpt lat="43.02196" lon="1.96837">
        <ele>342.826</ele>
        <time>2020-12-02T00:23:08Z</time>
      </trkpt>
      <trkpt lat="43.0216" lon="1.96805">
        <ele>343.091</ele>
        <time>2020-12-02T00:23:28Z</time>
      </trkpt>
      <trkpt lat="43.0214" lon="1.96758">
        <ele>344.07</ele>
        <time>2020-12-02T00:23:48Z</time>
      </trkpt>
      <trkpt lat="43.02138" lon="1.96713">
        <ele>345.053</ele>
        <time>2020-12-02T00:24:08Z</time>
      </trkpt>
      <trkpt lat="43.02087" lon="1.96723">
        <ele>344.14</ele>
        <time>2020-12-02T00:24:28Z</time>
      </trkpt>
      <trkpt lat="43.01988" lon="1.96727">
        <ele>344.334</ele>
        <time>2020-12-02T00:24:48Z</time>
      </trkpt>
      <trkpt lat="43.01956" lon="1.96681">
        <ele>345.822</ele>
        <time>2020-12-02T00:25:08Z</time>
      </trkpt>
      <trkpt lat="43.01879" lon="1.96607">
        <ele>348.062</ele>
        <time>2020-12-02T00:25:28Z</time>
      </trkpt>
      <trkpt lat="43.01807" lon="1.96551">
        <ele>347.008</ele>
        <time>2020-12-02T00:25:48Z</time>
      </trkpt>
      <trkpt lat="43.01778" lon="1.96453">
        <ele>347.008</ele>
        <time>2020-12-02T00:26:08Z</time>
      </trkpt>
      <trkpt lat="43.01754" lon="1.96413">
        <ele>347.248</ele>
        <time>2020-12-02T00:26:28Z</time>
      </trkpt>
      <trkpt lat="43.01649" lon="1.96315">
        <ele>347.243</ele>
        <time>2020-12-02T00:26:48Z</time>
      </trkpt>
      <trkpt lat="43.01544" lon="1.96244">
        <ele>347.144</ele>
        <time>2020-12-02T00:27:08Z</time>
      </trkpt>
      <trkpt lat="43.01514" lon="1.96231">
        <ele>347.319</ele>
        <time>2020-12-02T00:27:28Z</time>
      </trkpt>
      <trkpt lat="43.01521" lon="1.96184">
        <ele>348.588</ele>
        <time>2020-12-02T00:27:48Z</time>
      </trkpt>
      <trkpt lat="43.01517" lon="1.96152">
        <ele>349.831</ele>
        <time>2020-12-02T00:28:08Z</time>
      </trkpt>
      <trkpt lat="43.01247" lon="1.96199">
        <ele>359.748</ele>
        <time>2019-03-29T10:26:42Z</time>
      </trkpt>
      <trkpt lat="43.00929" lon="1.96436">
        <ele>381.222</ele>
        <time>2019-03-29T10:27:02Z</time>
      </trkpt>
      <trkpt lat="43.00807" lon="1.96654">
        <ele>350.556</ele>
        <time>2019-03-29T10:27:22Z</time>
      </trkpt>
      <trkpt lat="43.00736" lon="1.97295">
        <ele>353.759</ele>
        <time>2019-03-29T10:27:42Z</time>
      </trkpt>
      <trkpt lat="43.00893" lon="1.98202">
        <ele>356.814</ele>
        <time>2019-03-29T10:28:02Z</time>
      </trkpt>
      <trkpt lat="43.00876" lon="1.98391">
        <ele>361.008</ele>
        <time>2019-03-29T10:28:22Z</time>
      </trkpt>
      <trkpt lat="43.00803" lon="1.98576">
        <ele>359.161</ele>
        <time>2019-03-29T10:28:42Z</time>
      </trkpt>
      <trkpt lat="43.00679" lon="1.9868">
        <ele>359.036</ele>
        <time>2019-03-29T10:29:02Z</time>
      </trkpt>
      <trkpt lat="43.00448" lon="1.98765">
        <ele>359.027</ele>
        <time>2019-03-29T10:29:22Z</time>
      </trkpt>
      <trkpt lat="43.00325" lon="1.98849">
        <ele>364.282</ele>
        <time>2019-03-29T10:29:42Z</time>
      </trkpt>
      <trkpt lat="43.0032" lon="1.98947">
        <ele>359.051</ele>
        <time>2019-03-29T10:30:02Z</time>
      </trkpt>
      <trkpt lat="43.00589" lon="1.98888">
        <ele>359.014</ele>
        <time>2019-03-29T10:30:22Z</time>
      </trkpt>
      <trkpt lat="43.00586" lon="1.9896">
        <ele>359.051</ele>
        <time>2019-03-29T10:30:42Z</time>
      </trkpt>
      <trkpt lat="43.00567" lon="1.98986">
        <ele>359.075</ele>
        <time>2019-03-29T10:31:02Z</time>
      </trkpt>
      <trkpt lat="43.00553" lon="1.99181">
        <ele>364.019</ele>
        <time>2019-03-29T10:31:22Z</time>
      </trkpt>
      <trkpt lat="43.00444" lon="1.99217">
        <ele>365.809</ele>
        <time>2019-03-29T10:31:42Z</time>
      </trkpt>
      <trkpt lat="43.0046" lon="1.99249">
        <ele>367.419</ele>
        <time>2019-03-29T10:32:02Z</time>
      </trkpt>
      <trkpt lat="43.00464" lon="1.99264">
        <ele>367.808</ele>
        <time>2015-08-26T17:30:20Z</time>
      </trkpt>
      <trkpt lat="43.00495" lon="1.99286">
        <ele>368.357</ele>
        <time>2015-08-26T17:30:40Z</time>
      </trkpt>
      <trkpt lat="43.00483" lon="1.99326">
        <ele>370.582</ele>
        <time>2015-08-26T17:31:00Z</time>
      </trkpt>
      <trkpt lat="43.00482" lon="1.99369">
        <ele>374.073</ele>
        <time>2015-08-26T17:31:20Z</time>
      </trkpt>
      <trkpt lat="43.00463" lon="1.99409">
        <ele>376.538</ele>
        <time>2015-08-26T17:31:40Z</time>
      </trkpt>
      <trkpt lat="43.00455" lon="1.996">
        <ele>391.257</ele>
        <time>2015-08-26T17:32:00Z</time>
      </trkpt>
      <trkpt lat="43.00436" lon="1.99651">
        <ele>392.16</ele>
        <time>2015-08-26T17:32:20Z</time>
      </trkpt>
      <trkpt lat="43.00434" lon="1.99695">
        <ele>398.047</ele>
        <time>2015-08-26T17:32:40Z</time>
      </trkpt>
      <trkpt lat="43.00419" lon="1.99766">
        <ele>407.591</ele>
        <time>2015-08-26T17:33:00Z</time>
      </trkpt>
      <trkpt lat="43.00432" lon="1.99834">
        <ele>417.898</ele>
        <time>2015-08-26T17:33:20Z</time>
      </trkpt>
      <trkpt lat="43.00412" lon="1.99919">
        <ele>425.715</ele>
        <time>2015-08-26T17:33:40Z</time>
      </trkpt>
      <trkpt lat="43.00456" lon="1.99909">
        <ele>432.726</ele>
        <time>2015-08-26T17:34:00Z</time>
      </trkpt>
      <trkpt lat="43.00474" lon="1.99918">
        <ele>438.508</ele>
        <time>2015-08-26T17:34:20Z</time>
      </trkpt>
      <trkpt lat="43.00455" lon="1.99988">
        <ele>448.185</ele>
        <time>2015-08-26T17:34:40Z</time>
      </trkpt>
      <trkpt lat="43.00487" lon="2.00096">
        <ele>465.46</ele>
        <time>2015-08-26T17:35:00Z</time>
      </trkpt>
      <trkpt lat="43.00481" lon="2.00166">
        <ele>471.361</ele>
        <time>2015-08-26T17:35:20Z</time>
      </trkpt>
      <trkpt lat="43.00544" lon="2.00363">
        <ele>482.766</ele>
        <time>2015-08-26T17:35:40Z</time>
      </trkpt>
      <trkpt lat="43.00583" lon="2.00551">
        <ele>488.015</ele>
        <time>2015-08-26T17:36:00Z</time>
      </trkpt>
      <trkpt lat="43.0055" lon="2.00558">
        <ele>489.048</ele>
        <time>2015-08-26T17:36:20Z</time>
      </trkpt>
      <trkpt lat="43.00552" lon="2.00615">
        <ele>497.515</ele>
        <time>2015-08-26T17:36:40Z</time>
      </trkpt>
      <trkpt lat="43.00503" lon="2.00809">
        <ele>509.349</ele>
        <time>2015-08-26T17:37:00Z</time>
      </trkpt>
      <trkpt lat="43.00469" lon="2.00885">
        <ele>516.943</ele>
        <time>2015-08-26T17:37:20Z</time>
      </trkpt>
      <trkpt lat="43.0039" lon="2.0099">
        <ele>529.964</ele>
        <time>2015-08-26T17:37:40Z</time>
      </trkpt>
      <trkpt lat="43.00335" lon="2.01235">
        <ele>529.81</ele>
        <time>2015-08-26T17:38:00Z</time>
      </trkpt>
      <trkpt lat="43.00247" lon="2.01429">
        <ele>540.008</ele>
        <time>2015-08-26T17:38:20Z</time>
      </trkpt>
      <trkpt lat="43.00223" lon="2.01499">
        <ele>540.07</ele>
        <time>2015-08-26T17:38:40Z</time>
      </trkpt>
      <trkpt lat="43.00213" lon="2.01739">
        <ele>536.775</ele>
        <time>2015-08-26T17:39:00Z</time>
      </trkpt>
      <trkpt lat="43.00215" lon="2.01801">
        <ele>538.436</ele>
        <time>2015-08-26T17:39:20Z</time>
      </trkpt>
      <trkpt lat="43.00206" lon="2.01905">
        <ele>538.941</ele>
        <time>2015-08-26T17:39:40Z</time>
      </trkpt>
      <trkpt lat="43.00171" lon="2.01975">
        <ele>541.07</ele>
        <time>2015-08-26T17:40:00Z</time>
      </trkpt>
      <trkpt lat="43.00068" lon="2.02011">
        <ele>535.453</ele>
        <time>2015-08-26T17:40:20Z</time>
      </trkpt>
      <trkpt lat="43.0007" lon="2.01912">
        <ele>527.06</ele>
        <time>2015-08-26T17:40:40Z</time>
      </trkpt>
      <trkpt lat="43.00014" lon="2.01837">
        <ele>521.264</ele>
        <time>2015-08-26T17:41:00Z</time>
      </trkpt>
      <trkpt lat="42.99853" lon="2.0183">
        <ele>509.695</ele>
        <time>2015-08-26T17:41:20Z</time>
      </trkpt>
      <trkpt lat="42.99903" lon="2.0161">
        <ele>490.449</ele>
        <time>2015-08-26T17:41:40Z</time>
      </trkpt>
      <trkpt lat="42.99949" lon="2.01573">
        <ele>490.223</ele>
        <time>2015-08-26T17:42:00Z</time>
      </trkpt>
      <trkpt lat="42.99944" lon="2.01547">
        <ele>488.908</ele>
        <time>2015-08-26T17:42:20Z</time>
      </trkpt>
      <trkpt lat="42.99893" lon="2.01406">
        <ele>492.625</ele>
        <time>2015-08-26T17:42:40Z</time>
      </trkpt>
      <trkpt lat="42.99835" lon="2.01313">
        <ele>494.51</ele>
        <time>2015-08-26T17:43:00Z</time>
      </trkpt>
      <trkpt lat="42.99767" lon="2.01233">
        <ele>496.151</ele>
        <time>2015-08-26T17:43:20Z</time>
      </trkpt>
      <trkpt lat="42.99656" lon="2.01168">
        <ele>506.316</ele>
        <time>2015-08-26T17:43:40Z</time>
      </trkpt>
      <trkpt lat="42.99512" lon="2.01186">
        <ele>488.925</ele>
        <time>2015-08-26T17:44:00Z</time>
      </trkpt>
      <trkpt lat="42.99476" lon="2.01119">
        <ele>494.088</ele>
        <time>2015-08-26T17:44:20Z</time>
      </trkpt>
      <trkpt lat="42.99407" lon="2.01083">
        <ele>487.655</ele>
        <time>2015-08-26T17:44:40Z</time>
      </trkpt>
      <trkpt lat="42.99342" lon="2.01029">
        <ele>487.749</ele>
        <time>2015-08-26T17:45:00Z</time>
      </trkpt>
      <trkpt lat="42.99293" lon="2.00981">
        <ele>488.037</ele>
        <time>2015-08-26T17:45:20Z</time>
      </trkpt>
      <trkpt lat="42.99225" lon="2.00944">
        <ele>497.649</ele>
        <time>2015-08-26T17:45:40Z</time>
      </trkpt>
      <trkpt lat="42.99201" lon="2.00918">
        <ele>499.813</ele>
        <time>2015-08-26T17:46:00Z</time>
      </trkpt>
      <trkpt lat="42.99173" lon="2.00901">
        <ele>498.808</ele>
        <time>2015-08-26T17:46:20Z</time>
      </trkpt>
      <trkpt lat="42.99151" lon="2.00882">
        <ele>498.639</ele>
        <time>2015-08-26T17:46:40Z</time>
      </trkpt>
      <trkpt lat="42.99096" lon="2.00846">
        <ele>503.144</ele>
        <time>2015-08-26T17:47:00Z</time>
      </trkpt>
      <trkpt lat="42.9901" lon="2.00759">
        <ele>507.275</ele>
        <time>2015-08-26T17:47:20Z</time>
      </trkpt>
      <trkpt lat="42.99007" lon="2.00727">
        <ele>503.53</ele>
        <time>2015-08-26T17:47:40Z</time>
      </trkpt>
      <trkpt lat="42.99026" lon="2.0068">
        <ele>501.269</ele>
        <time>2015-08-26T17:48:00Z</time>
      </trkpt>
      <trkpt lat="42.99003" lon="2.0064">
        <ele>492.512</ele>
        <time>2015-08-26T17:48:20Z</time>
      </trkpt>
      <trkpt lat="42.98961" lon="2.00597">
        <ele>479.829</ele>
        <time>2015-08-26T17:48:40Z</time>
      </trkpt>
      <trkpt lat="42.98861" lon="2.00482">
        <ele>443.653</ele>
        <time>2015-08-26T17:49:00Z</time>
      </trkpt>
      <trkpt lat="42.98845" lon="2.0048">
        <ele>439.296</ele>
        <time>2015-08-26T17:49:20Z</time>
      </trkpt>
      <trkpt lat="42.98783" lon="2.0052">
        <ele>426.731</ele>
        <time>2015-08-26T17:49:40Z</time>
      </trkpt>
      <trkpt lat="42.98609" lon="2.00482">
        <ele>387.124</ele>
        <time>2015-08-26T17:50:00Z</time>
      </trkpt>
      <trkpt lat="42.98593" lon="2.00466">
        <ele>384.108</ele>
        <time>2015-08-26T17:50:20Z</time>
      </trkpt>
      <trkpt lat="42.98563" lon="2.00463">
        <ele>379.825</ele>
        <time>2015-08-26T17:50:40Z</time>
      </trkpt>
      <trkpt lat="42.98531" lon="2.00561">
        <ele>377.97</ele>
        <time>2015-08-26T17:51:00Z</time>
      </trkpt>
      <trkpt lat="42.98507" lon="2.00658">
        <ele>378.081</ele>
        <time>2015-08-26T17:51:20Z</time>
      </trkpt>
      <trkpt lat="42.984" lon="2.0073">
        <ele>370.336</ele>
        <time>2015-08-26T17:51:40Z</time>
      </trkpt>
      <trkpt lat="42.98415" lon="2.0077">
        <ele>370.415</ele>
        <time>2015-08-26T17:52:00Z</time>
      </trkpt>
      <trkpt lat="42.98437" lon="2.00803">
        <ele>370.858</ele>
        <time>2015-08-26T17:52:20Z</time>
      </trkpt>
      <trkpt lat="42.98457" lon="2.00797">
        <ele>370.035</ele>
        <time>2015-08-26T17:52:40Z</time>
      </trkpt>
      <trkpt lat="42.9852" lon="2.00908">
        <ele>370.049</ele>
        <time>2015-08-26T17:53:00Z</time>
      </trkpt>
      <trkpt lat="42.98548" lon="2.01028">
        <ele>370.856</ele>
        <time>2015-08-26T17:53:20Z</time>
      </trkpt>
      <trkpt lat="42.98541" lon="2.01057">
        <ele>372.659</ele>
        <time>2015-08-26T17:53:40Z</time>
      </trkpt>
      <trkpt lat="42.98549" lon="2.0114">
        <ele>374.714</ele>
        <time>2015-08-26T17:54:00Z</time>
      </trkpt>
      <trkpt lat="42.98546" lon="2.01197">
        <ele>376.508</ele>
        <time>2015-08-26T17:54:20Z</time>
      </trkpt>
      <trkpt lat="42.98564" lon="2.0129">
        <ele>378.341</ele>
        <time>2015-08-26T17:54:40Z</time>
      </trkpt>
      <trkpt lat="42.98559" lon="2.01343">
        <ele>381.916</ele>
        <time>2015-08-26T17:55:00Z</time>
      </trkpt>
      <trkpt lat="42.98562" lon="2.01385">
        <ele>385.257</ele>
        <time>2015-08-26T17:55:20Z</time>
      </trkpt>
      <trkpt lat="42.9863" lon="2.01364">
        <ele>381.462</ele>
        <time>2015-08-26T17:55:40Z</time>
      </trkpt>
      <trkpt lat="42.98647" lon="2.01416">
        <ele>382.951</ele>
        <time>2015-08-26T17:56:00Z</time>
      </trkpt>
      <trkpt lat="42.98667" lon="2.01444">
        <ele>385.034</ele>
        <time>2015-08-26T17:56:20Z</time>
      </trkpt>
      <trkpt lat="42.98676" lon="2.01489">
        <ele>385.791</ele>
        <time>2015-08-26T17:56:40Z</time>
      </trkpt>
      <trkpt lat="42.98673" lon="2.01588">
        <ele>386.425</ele>
        <time>2015-08-26T17:57:00Z</time>
      </trkpt>
      <trkpt lat="42.98722" lon="2.01588">
        <ele>389.044</ele>
        <time>2015-08-26T17:57:20Z</time>
      </trkpt>
      <trkpt lat="42.9873" lon="2.01621">
        <ele>389.805</ele>
        <time>2015-08-26T17:57:40Z</time>
      </trkpt>
      <trkpt lat="42.98743" lon="2.01632">
        <ele>391.215</ele>
        <time>2015-08-26T17:58:00Z</time>
      </trkpt>
      <trkpt lat="42.98748" lon="2.01788">
        <ele>390.908</ele>
        <time>2015-08-26T17:58:20Z</time>
      </trkpt>
      <trkpt lat="42.98755" lon="2.01876">
        <ele>390.73</ele>
        <time>2015-08-26T17:58:40Z</time>
      </trkpt>
      <trkpt lat="42.98737" lon="2.01962">
        <ele>392.115</ele>
        <time>2015-08-26T17:59:00Z</time>
      </trkpt>
      <trkpt lat="42.98717" lon="2.01959">
        <ele>389.056</ele>
        <time>2015-08-26T17:59:20Z</time>
      </trkpt>
      <trkpt lat="42.98683" lon="2.02005">
        <ele>389.751</ele>
        <time>2015-08-26T17:59:40Z</time>
      </trkpt>
      <trkpt lat="42.98662" lon="2.02069">
        <ele>394.91</ele>
        <time>2015-08-26T18:00:00Z</time>
      </trkpt>
      <trkpt lat="42.98616" lon="2.02073">
        <ele>393.833</ele>
        <time>2015-08-26T18:00:20Z</time>
      </trkpt>
      <trkpt lat="42.98588" lon="2.02088">
        <ele>395.92</ele>
        <time>2015-08-26T18:00:40Z</time>
      </trkpt>
      <trkpt lat="42.98537" lon="2.02206">
        <ele>398.454</ele>
        <time>2015-08-26T18:01:00Z</time>
      </trkpt>
      <trkpt lat="42.98467" lon="2.02318">
        <ele>400.418</ele>
        <time>2015-08-26T18:01:20Z</time>
      </trkpt>
      <trkpt lat="42.98436" lon="2.02448">
        <ele>402.898</ele>
        <time>2015-08-26T18:01:40Z</time>
      </trkpt>
      <trkpt lat="42.98449" lon="2.02491">
        <ele>403.517</ele>
        <time>2015-08-26T18:02:00Z</time>
      </trkpt>
      <trkpt lat="42.98431" lon="2.02555">
        <ele>407.008</ele>
        <time>2015-08-26T18:02:20Z</time>
      </trkpt>
      <trkpt lat="42.98381" lon="2.02606">
        <ele>409.057</ele>
        <time>2015-08-26T18:02:40Z</time>
      </trkpt>
      <trkpt lat="42.9829" lon="2.02628">
        <ele>409.082</ele>
        <time>2015-08-26T18:03:00Z</time>
      </trkpt>
      <trkpt lat="42.98222" lon="2.02735">
        <ele>410.073</ele>
        <time>2015-08-26T18:03:20Z</time>
      </trkpt>
      <trkpt lat="42.98225" lon="2.02762">
        <ele>410.028</ele>
        <time>2015-08-26T18:03:40Z</time>
      </trkpt>
      <trkpt lat="42.98217" lon="2.02832">
        <ele>410.057</ele>
        <time>2015-08-26T18:04:00Z</time>
      </trkpt>
      <trkpt lat="42.98278" lon="2.02857">
        <ele>411.23</ele>
        <time>2015-08-26T18:04:20Z</time>
      </trkpt>
      <trkpt lat="42.98291" lon="2.02857">
        <ele>416.217</ele>
        <time>2015-08-26T18:04:40Z</time>
      </trkpt>
      <trkpt lat="42.98319" lon="2.02942">
        <ele>421.751</ele>
        <time>2015-08-26T18:05:00Z</time>
      </trkpt>
      <trkpt lat="42.98309" lon="2.03026">
        <ele>418.381</ele>
        <time>2015-08-26T18:05:20Z</time>
      </trkpt>
      <trkpt lat="42.98333" lon="2.03111">
        <ele>423.161</ele>
        <time>2015-08-26T18:05:40Z</time>
      </trkpt>
      <trkpt lat="42.98372" lon="2.03201">
        <ele>436.617</ele>
        <time>2015-08-26T18:06:00Z</time>
      </trkpt>
      <trkpt lat="42.98406" lon="2.03325">
        <ele>447.608</ele>
        <time>2015-08-26T18:06:20Z</time>
      </trkpt>
      <trkpt lat="42.98344" lon="2.03496">
        <ele>471.754</ele>
        <time>2015-08-26T18:06:40Z</time>
      </trkpt>
      <trkpt lat="42.98297" lon="2.03544">
        <ele>481.029</ele>
        <time>2015-08-26T18:07:00Z</time>
      </trkpt>
      <trkpt lat="42.9824" lon="2.03613">
        <ele>489.78</ele>
        <time>2015-08-26T18:07:20Z</time>
      </trkpt>
      <trkpt lat="42.98213" lon="2.03659">
        <ele>499.775</ele>
        <time>2015-08-26T18:07:40Z</time>
      </trkpt>
      <trkpt lat="42.98139" lon="2.03767">
        <ele>524.734</ele>
        <time>2015-08-26T18:08:00Z</time>
      </trkpt>
      <trkpt lat="42.98129" lon="2.03789">
        <ele>530.097</ele>
        <time>2015-08-26T18:08:20Z</time>
      </trkpt>
      <trkpt lat="42.98127" lon="2.03814">
        <ele>532.864</ele>
        <time>2015-08-26T18:08:40Z</time>
      </trkpt>
      <trkpt lat="42.98131" lon="2.0384">
        <ele>536.278</ele>
        <time>2015-08-26T18:09:00Z</time>
      </trkpt>
      <trkpt lat="42.9815" lon="2.03851">
        <ele>536.354</ele>
        <time>2015-08-26T18:09:20Z</time>
      </trkpt>
      <trkpt lat="42.98124" lon="2.03931">
        <ele>549.056</ele>
        <time>2015-08-26T18:09:40Z</time>
      </trkpt>
      <trkpt lat="42.981" lon="2.03963">
        <ele>556.611</ele>
        <time>2015-08-26T18:10:00Z</time>
      </trkpt>
      <trkpt lat="42.98097" lon="2.03986">
        <ele>559.508</ele>
        <time>2015-08-26T18:10:20Z</time>
      </trkpt>
      <trkpt lat="42.98105" lon="2.04104">
        <ele>560.551</ele>
        <time>2015-08-26T18:10:40Z</time>
      </trkpt>
      <trkpt lat="42.9812" lon="2.04214">
        <ele>568.636</ele>
        <time>2015-08-26T18:11:00Z</time>
      </trkpt>
      <trkpt lat="42.98163" lon="2.0427">
        <ele>568.467</ele>
        <time>2015-08-26T18:11:20Z</time>
      </trkpt>
      <trkpt lat="42.98226" lon="2.04378">
        <ele>566.552</ele>
        <time>2019-03-29T11:13:42Z</time>
      </trkpt>
      <trkpt lat="42.98369" lon="2.04544">
        <ele>578.551</ele>
        <time>2019-03-29T11:14:02Z</time>
      </trkpt>
      <trkpt lat="42.9846" lon="2.04808">
        <ele>582.674</ele>
        <time>2019-03-29T11:14:22Z</time>
      </trkpt>
      <trkpt lat="42.98544" lon="2.04861">
        <ele>591.591</ele>
        <time>2015-08-26T18:12:20Z</time>
      </trkpt>
      <trkpt lat="42.98586" lon="2.04944">
        <ele>600.085</ele>
        <time>2015-08-26T18:12:40Z</time>
      </trkpt>
      <trkpt lat="42.9868" lon="2.05277">
        <ele>613.956</ele>
        <time>2015-08-26T18:13:00Z</time>
      </trkpt>
      <trkpt lat="42.98718" lon="2.05312">
        <ele>619.659</ele>
        <time>2015-08-26T18:13:20Z</time>
      </trkpt>
      <trkpt lat="42.98768" lon="2.05572">
        <ele>626.914</ele>
        <time>2015-08-26T18:13:40Z</time>
      </trkpt>
      <trkpt lat="42.98768" lon="2.05651">
        <ele>628.808</ele>
        <time>2015-08-26T18:14:00Z</time>
      </trkpt>
      <trkpt lat="42.98749" lon="2.0582">
        <ele>630.411</ele>
        <time>2015-08-26T18:14:20Z</time>
      </trkpt>
      <trkpt lat="42.98657" lon="2.0593">
        <ele>628.246</ele>
        <time>2015-08-26T18:14:40Z</time>
      </trkpt>
      <trkpt lat="42.98592" lon="2.05907">
        <ele>628.727</ele>
        <time>2015-08-26T18:15:00Z</time>
      </trkpt>
      <trkpt lat="42.98552" lon="2.05857">
        <ele>629.132</ele>
        <time>2015-08-26T18:15:20Z</time>
      </trkpt>
      <trkpt lat="42.98475" lon="2.05851">
        <ele>639.071</ele>
        <time>2015-08-26T18:15:40Z</time>
      </trkpt>
      <trkpt lat="42.98454" lon="2.05867">
        <ele>640.114</ele>
        <time>2015-08-26T18:16:00Z</time>
      </trkpt>
      <trkpt lat="42.98523" lon="2.05944">
        <ele>647.841</ele>
        <time>2015-08-26T18:16:20Z</time>
      </trkpt>
      <trkpt lat="42.98539" lon="2.0606">
        <ele>655.855</ele>
        <time>2015-08-26T18:16:40Z</time>
      </trkpt>
      <trkpt lat="42.98595" lon="2.0613">
        <ele>675.043</ele>
        <time>2015-08-26T18:17:00Z</time>
      </trkpt>
      <trkpt lat="42.98674" lon="2.06169">
        <ele>681.564</ele>
        <time>2015-08-26T18:17:20Z</time>
      </trkpt>
      <trkpt lat="42.98591" lon="2.06169">
        <ele>682.01</ele>
        <time>2015-08-26T18:17:40Z</time>
      </trkpt>
      <trkpt lat="42.98544" lon="2.06332">
        <ele>673.308</ele>
        <time>2015-08-26T18:18:00Z</time>
      </trkpt>
      <trkpt lat="42.98497" lon="2.06356">
        <ele>668.56</ele>
        <time>2015-08-26T18:18:20Z</time>
      </trkpt>
      <trkpt lat="42.98377" lon="2.06379">
        <ele>671.045</ele>
        <time>2015-08-26T18:18:40Z</time>
      </trkpt>
      <trkpt lat="42.98287" lon="2.06439">
        <ele>670.736</ele>
        <time>2015-08-26T18:19:00Z</time>
      </trkpt>
      <trkpt lat="42.98191" lon="2.06577">
        <ele>679.151</ele>
        <time>2015-08-26T18:19:20Z</time>
      </trkpt>
      <trkpt lat="42.98129" lon="2.06701">
        <ele>686.29</ele>
        <time>2015-08-26T18:19:40Z</time>
      </trkpt>
      <trkpt lat="42.98041" lon="2.06772">
        <ele>684.523</ele>
        <time>2015-08-26T18:20:00Z</time>
      </trkpt>
      <trkpt lat="42.97955" lon="2.06986">
        <ele>703.34</ele>
        <time>2015-08-26T18:20:20Z</time>
      </trkpt>
      <trkpt lat="42.97943" lon="2.07123">
        <ele>713.294</ele>
        <time>2015-08-26T18:20:40Z</time>
      </trkpt>
      <trkpt lat="42.97884" lon="2.07366">
        <ele>718.531</ele>
        <time>2015-08-26T18:21:00Z</time>
      </trkpt>
      <trkpt lat="42.97769" lon="2.07664">
        <ele>749.461</ele>
        <time>2015-08-26T18:21:20Z</time>
      </trkpt>
      <trkpt lat="42.9772" lon="2.07726">
        <ele>749.907</ele>
        <time>2015-08-26T18:21:40Z</time>
      </trkpt>
      <trkpt lat="42.97654" lon="2.07786">
        <ele>750.008</ele>
        <time>2015-08-26T18:22:00Z</time>
      </trkpt>
      <trkpt lat="42.97624" lon="2.07881">
        <ele>758.249</ele>
        <time>2015-08-26T18:22:20Z</time>
      </trkpt>
      <trkpt lat="42.97636" lon="2.0808">
        <ele>739.224</ele>
        <time>2015-08-26T18:22:40Z</time>
      </trkpt>
      <trkpt lat="42.97617" lon="2.08094">
        <ele>734.075</ele>
        <time>2015-08-26T18:23:00Z</time>
      </trkpt>
      <trkpt lat="42.97494" lon="2.08045">
        <ele>725.49</ele>
        <time>2015-08-26T18:23:20Z</time>
      </trkpt>
      <trkpt lat="42.97405" lon="2.08076">
        <ele>716.549</ele>
        <time>2015-08-26T18:23:40Z</time>
      </trkpt>
      <trkpt lat="42.97331" lon="2.08039">
        <ele>705.752</ele>
        <time>2015-08-26T18:24:00Z</time>
      </trkpt>
      <trkpt lat="42.97256" lon="2.08033">
        <ele>702.559</ele>
        <time>2015-08-26T18:24:20Z</time>
      </trkpt>
      <trkpt lat="42.97154" lon="2.08064">
        <ele>694.343</ele>
        <time>2015-08-26T18:24:40Z</time>
      </trkpt>
      <trkpt lat="42.97005" lon="2.08085">
        <ele>682.089</ele>
        <time>2015-08-26T18:25:00Z</time>
      </trkpt>
      <trkpt lat="42.96716" lon="2.08166">
        <ele>671.906</ele>
        <time>2015-08-26T18:25:20Z</time>
      </trkpt>
      <trkpt lat="42.96615" lon="2.08163">
        <ele>689.226</ele>
        <time>2015-08-26T18:25:40Z</time>
      </trkpt>
      <trkpt lat="42.96468" lon="2.08185">
        <ele>679.308</ele>
        <time>2015-08-26T18:26:00Z</time>
      </trkpt>
      <trkpt lat="42.96389" lon="2.08182">
        <ele>681.274</ele>
        <time>2015-08-26T18:26:20Z</time>
      </trkpt>
      <trkpt lat="42.96307" lon="2.08204">
        <ele>680.689</ele>
        <time>2015-08-26T18:26:40Z</time>
      </trkpt>
      <trkpt lat="42.96249" lon="2.08205">
        <ele>678.69</ele>
        <time>2015-08-26T18:27:00Z</time>
      </trkpt>
      <trkpt lat="42.96124" lon="2.08286">
        <ele>679.655</ele>
        <time>2015-08-26T18:27:20Z</time>
      </trkpt>
      <trkpt lat="42.96058" lon="2.08294">
        <ele>682.864</ele>
        <time>2015-08-26T18:27:40Z</time>
      </trkpt>
      <trkpt lat="42.9575" lon="2.08117">
        <ele>686.897</ele>
        <time>2015-08-26T18:28:00Z</time>
      </trkpt>
      <trkpt lat="42.95631" lon="2.0799">
        <ele>693.624</ele>
        <time>2015-08-26T18:28:20Z</time>
      </trkpt>
      <trkpt lat="42.95528" lon="2.0802">
        <ele>686.018</ele>
        <time>2015-08-26T18:28:40Z</time>
      </trkpt>
      <trkpt lat="42.9542" lon="2.08108">
        <ele>671.228</ele>
        <time>2015-08-26T18:29:00Z</time>
      </trkpt>
      <trkpt lat="42.95404" lon="2.08094">
        <ele>671.289</ele>
        <time>2015-08-26T18:29:20Z</time>
      </trkpt>
      <trkpt lat="42.95295" lon="2.08058">
        <ele>693.617</ele>
        <time>2015-08-26T18:29:40Z</time>
      </trkpt>
      <trkpt lat="42.95233" lon="2.07881">
        <ele>719.608</ele>
        <time>2015-08-26T18:30:00Z</time>
      </trkpt>
      <trkpt lat="42.9516" lon="2.07812">
        <ele>721.918</ele>
        <time>2015-08-26T18:30:20Z</time>
      </trkpt>
      <trkpt lat="42.9513" lon="2.07634">
        <ele>734.733</ele>
        <time>2015-08-26T18:30:40Z</time>
      </trkpt>
      <trkpt lat="42.94835" lon="2.07535">
        <ele>718.314</ele>
        <time>2015-08-26T18:31:00Z</time>
      </trkpt>
      <trkpt lat="42.94838" lon="2.07361">
        <ele>702.579</ele>
        <time>2015-08-26T18:31:20Z</time>
      </trkpt>
      <trkpt lat="42.94735" lon="2.07694">
        <ele>685.698</ele>
        <time>2015-08-26T18:31:40Z</time>
      </trkpt>
      <trkpt lat="42.94635" lon="2.07778">
        <ele>684.421</ele>
        <time>2015-08-26T18:32:00Z</time>
      </trkpt>
      <trkpt lat="42.94607" lon="2.07842">
        <ele>684.858</ele>
        <time>2015-08-26T18:32:20Z</time>
      </trkpt>
      <trkpt lat="42.9462" lon="2.08062">
        <ele>671.422</ele>
        <time>2015-08-26T18:32:40Z</time>
      </trkpt>
      <trkpt lat="42.94597" lon="2.08127">
        <ele>670.394</ele>
        <time>2015-08-26T18:33:00Z</time>
      </trkpt>
      <trkpt lat="42.94558" lon="2.08128">
        <ele>673.057</ele>
        <time>2015-08-26T18:33:20Z</time>
      </trkpt>
      <trkpt lat="42.94533" lon="2.08091">
        <ele>672.222</ele>
        <time>2015-08-26T18:33:40Z</time>
      </trkpt>
      <trkpt lat="42.94487" lon="2.08046">
        <ele>675.008</ele>
        <time>2015-08-26T18:34:00Z</time>
      </trkpt>
      <trkpt lat="42.94417" lon="2.08002">
        <ele>675.585</ele>
        <time>2015-08-26T18:34:20Z</time>
      </trkpt>
      <trkpt lat="42.94306" lon="2.08095">
        <ele>673.61</ele>
        <time>2015-08-26T18:34:40Z</time>
      </trkpt>
      <trkpt lat="42.94284" lon="2.08078">
        <ele>673.331</ele>
        <time>2015-08-26T18:35:00Z</time>
      </trkpt>
      <trkpt lat="42.94234" lon="2.07924">
        <ele>671.946</ele>
        <time>2015-08-26T18:35:20Z</time>
      </trkpt>
      <trkpt lat="42.94189" lon="2.07872">
        <ele>669.455</ele>
        <time>2015-08-26T18:35:40Z</time>
      </trkpt>
      <trkpt lat="42.94127" lon="2.07867">
        <ele>670.168</ele>
        <time>2019-03-29T11:38:22Z</time>
      </trkpt>
      <trkpt lat="42.94106" lon="2.07838">
        <ele>671.635</ele>
        <time>2019-03-29T11:38:42Z</time>
      </trkpt>
      <trkpt lat="42.9411" lon="2.07744">
        <ele>665.899</ele>
        <time>2015-08-26T18:36:40Z</time>
      </trkpt>
      <trkpt lat="42.94088" lon="2.07722">
        <ele>664.311</ele>
        <time>2015-08-26T18:37:00Z</time>
      </trkpt>
      <trkpt lat="42.94046" lon="2.07682">
        <ele>655.121</ele>
        <time>2015-08-26T18:37:20Z</time>
      </trkpt>
      <trkpt lat="42.9403" lon="2.07602">
        <ele>647.903</ele>
        <time>2015-08-26T18:37:40Z</time>
      </trkpt>
      <trkpt lat="42.93985" lon="2.07531">
        <ele>648.108</ele>
        <time>2015-08-26T18:38:00Z</time>
      </trkpt>
      <trkpt lat="42.93931" lon="2.0748">
        <ele>646.117</ele>
        <time>2015-08-26T18:38:20Z</time>
      </trkpt>
      <trkpt lat="42.93916" lon="2.07303">
        <ele>642.682</ele>
        <time>2015-08-26T18:38:40Z</time>
      </trkpt>
      <trkpt lat="42.93799" lon="2.07276">
        <ele>637.313</ele>
        <time>2015-08-26T18:39:00Z</time>
      </trkpt>
      <trkpt lat="42.937" lon="2.07281">
        <ele>640.438</ele>
        <time>2015-08-26T18:39:20Z</time>
      </trkpt>
      <trkpt lat="42.93649" lon="2.07237">
        <ele>641.847</ele>
        <time>2015-08-26T18:39:40Z</time>
      </trkpt>
      <trkpt lat="42.93595" lon="2.07355">
        <ele>633.37</ele>
        <time>2015-08-26T18:40:00Z</time>
      </trkpt>
      <trkpt lat="42.93587" lon="2.07411">
        <ele>636.017</ele>
        <time>2015-08-26T18:40:20Z</time>
      </trkpt>
      <trkpt lat="42.93564" lon="2.07403">
        <ele>624.321</ele>
        <time>2015-08-26T18:40:40Z</time>
      </trkpt>
      <trkpt lat="42.93589" lon="2.07284">
        <ele>621.799</ele>
        <time>2015-08-26T18:41:00Z</time>
      </trkpt>
      <trkpt lat="42.93502" lon="2.07392">
        <ele>592.107</ele>
        <time>2015-08-26T18:41:20Z</time>
      </trkpt>
      <trkpt lat="42.93478" lon="2.07513">
        <ele>591.527</ele>
        <time>2015-08-26T18:41:40Z</time>
      </trkpt>
      <trkpt lat="42.93387" lon="2.07662">
        <ele>577.208</ele>
        <time>2015-08-26T18:42:00Z</time>
      </trkpt>
      <trkpt lat="42.93391" lon="2.07721">
        <ele>577.825</ele>
        <time>2015-08-26T18:42:20Z</time>
      </trkpt>
      <trkpt lat="42.93427" lon="2.07789">
        <ele>578.06</ele>
        <time>2015-08-26T18:42:40Z</time>
      </trkpt>
      <trkpt lat="42.93409" lon="2.07804">
        <ele>571.061</ele>
        <time>2015-08-26T18:43:00Z</time>
      </trkpt>
      <trkpt lat="42.9336" lon="2.07718">
        <ele>568.816</ele>
        <time>2015-08-26T18:43:20Z</time>
      </trkpt>
      <trkpt lat="42.93333" lon="2.07591">
        <ele>565.445</ele>
        <time>2015-08-26T18:43:40Z</time>
      </trkpt>
      <trkpt lat="42.9325" lon="2.0751">
        <ele>560.398</ele>
        <time>2015-08-26T18:44:00Z</time>
      </trkpt>
      <trkpt lat="42.93229" lon="2.07506">
        <ele>558.615</ele>
        <time>2015-08-26T18:44:20Z</time>
      </trkpt>
      <trkpt lat="42.9323" lon="2.0752">
        <ele>558.539</ele>
        <time>2015-08-26T18:44:40Z</time>
      </trkpt>
      <trkpt lat="42.93159" lon="2.07529">
        <ele>563.152</ele>
        <time>2015-08-26T18:45:00Z</time>
      </trkpt>
      <trkpt lat="42.93098" lon="2.0751">
        <ele>571.953</ele>
        <time>2015-08-26T18:45:20Z</time>
      </trkpt>
      <trkpt lat="42.93048" lon="2.07409">
        <ele>581.908</ele>
        <time>2015-08-26T18:45:40Z</time>
      </trkpt>
      <trkpt lat="42.92988" lon="2.07371">
        <ele>599.808</ele>
        <time>2015-08-26T18:46:00Z</time>
      </trkpt>
      <trkpt lat="42.92922" lon="2.0742">
        <ele>628.171</ele>
        <time>2015-08-26T18:46:20Z</time>
      </trkpt>
      <trkpt lat="42.9288" lon="2.07388">
        <ele>634.066</ele>
        <time>2015-08-26T18:46:40Z</time>
      </trkpt>
      <trkpt lat="42.92869" lon="2.07281">
        <ele>639.557</ele>
        <time>2015-08-26T18:47:00Z</time>
      </trkpt>
      <trkpt lat="42.9286" lon="2.07252">
        <ele>645.382</ele>
        <time>2015-08-26T18:47:20Z</time>
      </trkpt>
      <trkpt lat="42.92868" lon="2.072">
        <ele>652.761</ele>
        <time>2015-08-26T18:47:40Z</time>
      </trkpt>
      <trkpt lat="42.92848" lon="2.07115">
        <ele>657.994</ele>
        <time>2015-08-26T18:48:00Z</time>
      </trkpt>
      <trkpt lat="42.92835" lon="2.06941">
        <ele>659.141</ele>
        <time>2015-08-26T18:48:20Z</time>
      </trkpt>
      <trkpt lat="42.92848" lon="2.06784">
        <ele>658.565</ele>
        <time>2015-08-26T18:48:40Z</time>
      </trkpt>
      <trkpt lat="42.92809" lon="2.06696">
        <ele>650.155</ele>
        <time>2015-08-26T18:49:00Z</time>
      </trkpt>
      <trkpt lat="42.92852" lon="2.0657">
        <ele>658.807</ele>
        <time>2015-08-26T18:49:20Z</time>
      </trkpt>
      <trkpt lat="42.92875" lon="2.06467">
        <ele>657.917</ele>
        <time>2015-08-26T18:49:40Z</time>
      </trkpt>
      <trkpt lat="42.92849" lon="2.06427">
        <ele>651.508</ele>
        <time>2015-08-26T18:50:00Z</time>
      </trkpt>
      <trkpt lat="42.92847" lon="2.06231">
        <ele>646.611</ele>
        <time>2015-08-26T18:50:20Z</time>
      </trkpt>
      <trkpt lat="42.92808" lon="2.0616">
        <ele>629.246</ele>
        <time>2015-08-26T18:50:40Z</time>
      </trkpt>
      <trkpt lat="42.92798" lon="2.06006">
        <ele>619.697</ele>
        <time>2015-08-26T18:51:00Z</time>
      </trkpt>
      <trkpt lat="42.92829" lon="2.05787">
        <ele>612.172</ele>
        <time>2015-08-26T18:51:20Z</time>
      </trkpt>
      <trkpt lat="42.92964" lon="2.05535">
        <ele>577.871</ele>
        <time>2015-08-26T18:51:40Z</time>
      </trkpt>
      <trkpt lat="42.92909" lon="2.0554">
        <ele>570.584</ele>
        <time>2015-08-26T18:52:00Z</time>
      </trkpt>
      <trkpt lat="42.92832" lon="2.05591">
        <ele>566.191</ele>
        <time>2015-08-26T18:52:20Z</time>
      </trkpt>
      <trkpt lat="42.92743" lon="2.05592">
        <ele>554.465</ele>
        <time>2019-03-29T11:55:02Z</time>
      </trkpt>
      <trkpt lat="42.92702" lon="2.05595">
        <ele>554.595</ele>
        <time>2019-03-29T11:55:22Z</time>
      </trkpt>
      <trkpt lat="42.92631" lon="2.05524">
        <ele>550.649</ele>
        <time>2015-08-26T18:54:00Z</time>
      </trkpt>
      <trkpt lat="42.92629" lon="2.05499">
        <ele>547.923</ele>
        <time>2015-08-26T18:54:20Z</time>
      </trkpt>
      <trkpt lat="42.92531" lon="2.05377">
        <ele>537.908</ele>
        <time>2015-08-26T18:54:40Z</time>
      </trkpt>
      <trkpt lat="42.92475" lon="2.05271">
        <ele>528.955</ele>
        <time>2015-08-26T18:55:00Z</time>
      </trkpt>
      <trkpt lat="42.92421" lon="2.05212">
        <ele>519.08</ele>
        <time>2015-08-26T18:55:20Z</time>
      </trkpt>
      <trkpt lat="42.92438" lon="2.0535">
        <ele>522.081</ele>
        <time>2015-08-26T18:55:40Z</time>
      </trkpt>
      <trkpt lat="42.92427" lon="2.05472">
        <ele>522.346</ele>
        <time>2015-08-26T18:56:00Z</time>
      </trkpt>
      <trkpt lat="42.92407" lon="2.0557">
        <ele>522.615</ele>
        <time>2015-08-26T18:56:20Z</time>
      </trkpt>
      <trkpt lat="42.92416" lon="2.05653">
        <ele>527.568</ele>
        <time>2015-08-26T18:56:40Z</time>
      </trkpt>
      <trkpt lat="42.92397" lon="2.05665">
        <ele>525.895</ele>
        <time>2015-08-26T18:57:00Z</time>
      </trkpt>
      <trkpt lat="42.92352" lon="2.05641">
        <ele>522.419</ele>
        <time>2015-08-26T18:57:20Z</time>
      </trkpt>
      <trkpt lat="42.92275" lon="2.05527">
        <ele>536.957</ele>
        <time>2015-08-26T18:57:40Z</time>
      </trkpt>
      <trkpt lat="42.92258" lon="2.05481">
        <ele>539.1</ele>
        <time>2015-08-26T18:58:00Z</time>
      </trkpt>
      <trkpt lat="42.92162" lon="2.05361">
        <ele>565.12</ele>
        <time>2015-08-26T18:58:20Z</time>
      </trkpt>
      <trkpt lat="42.92066" lon="2.0535">
        <ele>581.108</ele>
        <time>2015-08-26T18:58:40Z</time>
      </trkpt>
      <trkpt lat="42.92046" lon="2.05392">
        <ele>581.551</ele>
        <time>2015-08-26T18:59:00Z</time>
      </trkpt>
      <trkpt lat="42.92048" lon="2.0554">
        <ele>581.056</ele>
        <time>2015-08-26T18:59:20Z</time>
      </trkpt>
      <trkpt lat="42.92134" lon="2.05975">
        <ele>599.397</ele>
        <time>2015-08-26T18:59:40Z</time>
      </trkpt>
      <trkpt lat="42.92135" lon="2.06111">
        <ele>600.972</ele>
        <time>2015-08-26T19:00:00Z</time>
      </trkpt>
      <trkpt lat="42.92166" lon="2.06215">
        <ele>609.881</ele>
        <time>2015-08-26T19:00:20Z</time>
      </trkpt>
      <trkpt lat="42.92199" lon="2.064">
        <ele>614.854</ele>
        <time>2015-08-26T19:00:40Z</time>
      </trkpt>
      <trkpt lat="42.922" lon="2.06516">
        <ele>618.761</ele>
        <time>2015-08-26T19:01:00Z</time>
      </trkpt>
      <trkpt lat="42.92227" lon="2.06643">
        <ele>624.315</ele>
        <time>2015-08-26T19:01:20Z</time>
      </trkpt>
      <trkpt lat="42.92209" lon="2.0694">
        <ele>635.852</ele>
        <time>2015-08-26T19:01:40Z</time>
      </trkpt>
      <trkpt lat="42.92222" lon="2.07061">
        <ele>640.053</ele>
        <time>2015-08-26T19:02:00Z</time>
      </trkpt>
      <trkpt lat="42.92209" lon="2.07129">
        <ele>642.108</ele>
        <time>2015-08-26T19:02:20Z</time>
      </trkpt>
      <trkpt lat="42.92145" lon="2.07111">
        <ele>631.708</ele>
        <time>2015-08-26T19:02:40Z</time>
      </trkpt>
      <trkpt lat="42.92051" lon="2.06788">
        <ele>578.761</ele>
        <time>2015-08-26T19:03:00Z</time>
      </trkpt>
      <trkpt lat="42.92002" lon="2.0691">
        <ele>565.536</ele>
        <time>2015-08-26T19:03:20Z</time>
      </trkpt>
      <trkpt lat="42.91975" lon="2.07059">
        <ele>561.287</ele>
        <time>2015-08-26T19:03:40Z</time>
      </trkpt>
      <trkpt lat="42.91904" lon="2.07209">
        <ele>545.982</ele>
        <time>2015-08-26T19:04:00Z</time>
      </trkpt>
      <trkpt lat="42.91853" lon="2.07452">
        <ele>544.341</ele>
        <time>2015-08-26T19:04:20Z</time>
      </trkpt>
      <trkpt lat="42.91733" lon="2.07718">
        <ele>524.894</ele>
        <time>2015-08-26T19:04:40Z</time>
      </trkpt>
      <trkpt lat="42.91656" lon="2.07984">
        <ele>524.481</ele>
        <time>2015-08-26T19:05:00Z</time>
      </trkpt>
      <trkpt lat="42.91619" lon="2.08202">
        <ele>529.815</ele>
        <time>2015-08-26T19:05:20Z</time>
      </trkpt>
      <trkpt lat="42.91568" lon="2.08368">
        <ele>530.374</ele>
        <time>2015-08-26T19:05:40Z</time>
      </trkpt>
      <trkpt lat="42.91527" lon="2.08482">
        <ele>531.356</ele>
        <time>2015-08-26T19:06:00Z</time>
      </trkpt>
      <trkpt lat="42.91533" lon="2.08609">
        <ele>538.521</ele>
        <time>2015-08-26T19:06:20Z</time>
      </trkpt>
      <trkpt lat="42.91476" lon="2.08867">
        <ele>541.508</ele>
        <time>2015-08-26T19:06:40Z</time>
      </trkpt>
      <trkpt lat="42.91368" lon="2.09125">
        <ele>537.883</ele>
        <time>2015-08-26T19:07:00Z</time>
      </trkpt>
      <trkpt lat="42.91298" lon="2.09234">
        <ele>540.098</ele>
        <time>2015-08-26T19:07:20Z</time>
      </trkpt>
      <trkpt lat="42.91296" lon="2.09235">
        <ele>539.969</ele>
        <time>2015-08-26T19:07:40Z</time>
      </trkpt>
      <trkpt lat="42.91282" lon="2.09295">
        <ele>541.854</ele>
        <time>2015-08-26T19:08:00Z</time>
      </trkpt>
      <trkpt lat="42.91258" lon="2.09346">
        <ele>540.773</ele>
        <time>2015-08-26T19:08:20Z</time>
      </trkpt>
      <trkpt lat="42.91243" lon="2.09449">
        <ele>544.966</ele>
        <time>2015-08-26T19:08:40Z</time>
      </trkpt>
      <trkpt lat="42.91207" lon="2.0955">
        <ele>547.763</ele>
        <time>2015-08-26T19:09:00Z</time>
      </trkpt>
      <trkpt lat="42.912" lon="2.09604">
        <ele>549.267</ele>
        <time>2015-08-26T19:09:20Z</time>
      </trkpt>
      <trkpt lat="42.91156" lon="2.09702">
        <ele>549.118</ele>
        <time>2015-08-26T19:09:40Z</time>
      </trkpt>
      <trkpt lat="42.91051" lon="2.09983">
        <ele>560.498</ele>
        <time>2015-08-26T19:10:00Z</time>
      </trkpt>
      <trkpt lat="42.90889" lon="2.10152">
        <ele>570.017</ele>
        <time>2015-08-26T19:10:20Z</time>
      </trkpt>
      <trkpt lat="42.90753" lon="2.10224">
        <ele>572.108</ele>
        <time>2015-08-26T19:10:40Z</time>
      </trkpt>
      <trkpt lat="42.90648" lon="2.10263">
        <ele>573.967</ele>
        <time>2015-08-26T19:11:00Z</time>
      </trkpt>
      <trkpt lat="42.90602" lon="2.10296">
        <ele>575.022</ele>
        <time>2015-08-26T19:11:20Z</time>
      </trkpt>
      <trkpt lat="42.90539" lon="2.10305">
        <ele>576.043</ele>
        <time>2015-08-26T19:11:40Z</time>
      </trkpt>
      <trkpt lat="42.90424" lon="2.10353">
        <ele>575.988</ele>
        <time>2015-08-26T19:12:00Z</time>
      </trkpt>
      <trkpt lat="42.90346" lon="2.10426">
        <ele>575.857</ele>
        <time>2015-08-26T19:12:20Z</time>
      </trkpt>
      <trkpt lat="42.90269" lon="2.10515">
        <ele>577.88</ele>
        <time>2015-08-26T19:12:40Z</time>
      </trkpt>
      <trkpt lat="42.90185" lon="2.10662">
        <ele>578.267</ele>
        <time>2015-08-26T19:13:00Z</time>
      </trkpt>
      <trkpt lat="42.90128" lon="2.10788">
        <ele>576.281</ele>
        <time>2015-08-26T19:13:20Z</time>
      </trkpt>
      <trkpt lat="42.90107" lon="2.10895">
        <ele>576.626</ele>
        <time>2015-08-26T19:13:40Z</time>
      </trkpt>
      <trkpt lat="42.90044" lon="2.1092">
        <ele>570.447</ele>
        <time>2015-08-26T19:14:00Z</time>
      </trkpt>
      <trkpt lat="42.8997" lon="2.11024">
        <ele>567.511</ele>
        <time>2015-08-26T19:14:20Z</time>
      </trkpt>
      <trkpt lat="42.89935" lon="2.11085">
        <ele>567.108</ele>
        <time>2015-08-26T19:14:40Z</time>
      </trkpt>
      <trkpt lat="42.89868" lon="2.11097">
        <ele>568.048</ele>
        <time>2015-08-26T19:15:00Z</time>
      </trkpt>
      <trkpt lat="42.89767" lon="2.11153">
        <ele>572.163</ele>
        <time>2015-08-26T19:15:20Z</time>
      </trkpt>
      <trkpt lat="42.89727" lon="2.11253">
        <ele>573.684</ele>
        <time>2015-08-26T19:15:40Z</time>
      </trkpt>
      <trkpt lat="42.8973" lon="2.11382">
        <ele>578.629</ele>
        <time>2015-08-26T19:16:00Z</time>
      </trkpt>
      <trkpt lat="42.89716" lon="2.11454">
        <ele>579.718</ele>
        <time>2015-08-26T19:16:20Z</time>
      </trkpt>
      <trkpt lat="42.89654" lon="2.1144">
        <ele>575.041</ele>
        <time>2015-08-26T19:16:40Z</time>
      </trkpt>
      <trkpt lat="42.89504" lon="2.11361">
        <ele>565.318</ele>
        <time>2015-08-26T19:17:00Z</time>
      </trkpt>
      <trkpt lat="42.89475" lon="2.11338">
        <ele>564.112</ele>
        <time>2015-08-26T19:17:20Z</time>
      </trkpt>
      <trkpt lat="42.89394" lon="2.11358">
        <ele>565.764</ele>
        <time>2015-08-26T19:17:40Z</time>
      </trkpt>
      <trkpt lat="42.89345" lon="2.114">
        <ele>566.606</ele>
        <time>2015-08-26T19:18:00Z</time>
      </trkpt>
      <trkpt lat="42.89137" lon="2.1134">
        <ele>577.216</ele>
        <time>2015-08-26T19:18:20Z</time>
      </trkpt>
      <trkpt lat="42.89097" lon="2.11319">
        <ele>579.008</ele>
        <time>2015-08-26T19:18:40Z</time>
      </trkpt>
      <trkpt lat="42.89053" lon="2.11346">
        <ele>579.162</ele>
        <time>2015-08-26T19:19:00Z</time>
      </trkpt>
      <trkpt lat="42.89028" lon="2.11446">
        <ele>585.847</ele>
        <time>2015-08-26T19:19:20Z</time>
      </trkpt>
      <trkpt lat="42.88841" lon="2.11397">
        <ele>590.098</ele>
        <time>2015-08-26T19:19:40Z</time>
      </trkpt>
      <trkpt lat="42.88747" lon="2.11292">
        <ele>595.233</ele>
        <time>2015-08-26T19:20:00Z</time>
      </trkpt>
      <trkpt lat="42.88675" lon="2.11266">
        <ele>601.932</ele>
        <time>2015-08-26T19:20:20Z</time>
      </trkpt>
      <trkpt lat="42.88589" lon="2.11134">
        <ele>608.935</ele>
        <time>2015-08-26T19:20:40Z</time>
      </trkpt>
      <trkpt lat="42.88533" lon="2.11042">
        <ele>619.332</ele>
        <time>2015-08-26T19:21:00Z</time>
      </trkpt>
      <trkpt lat="42.88428" lon="2.11015">
        <ele>640.446</ele>
        <time>2015-08-26T19:21:20Z</time>
      </trkpt>
      <trkpt lat="42.8838" lon="2.10908">
        <ele>656.963</ele>
        <time>2015-08-26T19:21:40Z</time>
      </trkpt>
      <trkpt lat="42.88353" lon="2.10771">
        <ele>680.744</ele>
        <time>2015-08-26T19:22:00Z</time>
      </trkpt>
      <trkpt lat="42.88334" lon="2.10753">
        <ele>689.618</ele>
        <time>2015-08-26T19:22:20Z</time>
      </trkpt>
      <trkpt lat="42.88311" lon="2.10768">
        <ele>695.808</ele>
        <time>2015-08-26T19:22:40Z</time>
      </trkpt>
      <trkpt lat="42.88286" lon="2.10744">
        <ele>704.652</ele>
        <time>2015-08-26T19:23:00Z</time>
      </trkpt>
      <trkpt lat="42.88232" lon="2.10659">
        <ele>717.837</ele>
        <time>2015-08-26T19:23:20Z</time>
      </trkpt>
      <trkpt lat="42.88203" lon="2.10573">
        <ele>726.488</ele>
        <time>2015-08-26T19:23:40Z</time>
      </trkpt>
      <trkpt lat="42.88196" lon="2.1053">
        <ele>727.523</ele>
        <time>2015-08-26T19:24:00Z</time>
      </trkpt>
      <trkpt lat="42.88182" lon="2.10522">
        <ele>734.312</ele>
        <time>2015-08-26T19:24:20Z</time>
      </trkpt>
      <trkpt lat="42.88172" lon="2.10541">
        <ele>737.925</ele>
        <time>2015-08-26T19:24:40Z</time>
      </trkpt>
      <trkpt lat="42.88166" lon="2.10648">
        <ele>741.632</ele>
        <time>2015-08-26T19:25:00Z</time>
      </trkpt>
      <trkpt lat="42.88144" lon="2.10526">
        <ele>757.036</ele>
        <time>2015-08-26T19:25:20Z</time>
      </trkpt>
      <trkpt lat="42.88147" lon="2.10479">
        <ele>755.146</ele>
        <time>2015-08-26T19:25:40Z</time>
      </trkpt>
      <trkpt lat="42.88125" lon="2.10438">
        <ele>767.388</ele>
        <time>2015-08-26T19:26:00Z</time>
      </trkpt>
      <trkpt lat="42.88118" lon="2.10403">
        <ele>764.716</ele>
        <time>2015-08-26T19:26:20Z</time>
      </trkpt>
      <trkpt lat="42.88083" lon="2.10362">
        <ele>775.008</ele>
        <time>2015-08-26T19:26:40Z</time>
      </trkpt>
      <trkpt lat="42.8806" lon="2.10247">
        <ele>790.89</ele>
        <time>2015-08-26T19:27:00Z</time>
      </trkpt>
      <trkpt lat="42.88041" lon="2.1019">
        <ele>800.795</ele>
        <time>2015-08-26T19:27:20Z</time>
      </trkpt>
      <trkpt lat="42.88044" lon="2.10126">
        <ele>811.046</ele>
        <time>2015-08-26T19:27:40Z</time>
      </trkpt>
      <trkpt lat="42.88063" lon="2.10123">
        <ele>815.661</ele>
        <time>2015-08-26T19:28:00Z</time>
      </trkpt>
      <trkpt lat="42.88096" lon="2.10155">
        <ele>815.36</ele>
        <time>2015-08-26T19:28:20Z</time>
      </trkpt>
      <trkpt lat="42.88144" lon="2.10151">
        <ele>816.643</ele>
        <time>2015-08-26T19:28:40Z</time>
      </trkpt>
      <trkpt lat="42.88217" lon="2.10087">
        <ele>823.93</ele>
        <time>2015-08-26T19:29:00Z</time>
      </trkpt>
      <trkpt lat="42.88258" lon="2.09977">
        <ele>835.224</ele>
        <time>2015-08-26T19:29:20Z</time>
      </trkpt>
      <trkpt lat="42.88196" lon="2.09968">
        <ele>849.356</ele>
        <time>2015-08-26T19:29:40Z</time>
      </trkpt>
      <trkpt lat="42.88137" lon="2.09979">
        <ele>879.259</ele>
        <time>2015-08-26T19:30:00Z</time>
      </trkpt>
      <trkpt lat="42.88097" lon="2.10003">
        <ele>887.014</ele>
        <time>2015-08-26T19:30:20Z</time>
      </trkpt>
      <trkpt lat="42.88049" lon="2.10005">
        <ele>884.508</ele>
        <time>2015-08-26T19:30:40Z</time>
      </trkpt>
      <trkpt lat="42.88002" lon="2.09919">
        <ele>881.271</ele>
        <time>2015-08-26T19:31:00Z</time>
      </trkpt>
      <trkpt lat="42.87993" lon="2.09835">
        <ele>888.266</ele>
        <time>2015-08-26T19:31:20Z</time>
      </trkpt>
      <trkpt lat="42.88012" lon="2.09786">
        <ele>896.687</ele>
        <time>2015-08-26T19:31:40Z</time>
      </trkpt>
      <trkpt lat="42.88026" lon="2.09623">
        <ele>921.552</ele>
        <time>2015-08-26T19:32:00Z</time>
      </trkpt>
      <trkpt lat="42.87875" lon="2.0936">
        <ele>974.931</ele>
        <time>2015-08-26T19:32:20Z</time>
      </trkpt>
      <trkpt lat="42.87835" lon="2.09305">
        <ele>982.654</ele>
        <time>2015-08-26T19:32:40Z</time>
      </trkpt>
      <trkpt lat="42.87805" lon="2.09172">
        <ele>984.931</ele>
        <time>2015-08-26T19:33:00Z</time>
      </trkpt>
      <trkpt lat="42.87809" lon="2.09125">
        <ele>992.655</ele>
        <time>2015-08-26T19:33:20Z</time>
      </trkpt>
      <trkpt lat="42.87766" lon="2.09021">
        <ele>994.912</ele>
        <time>2015-08-26T19:33:40Z</time>
      </trkpt>
      <trkpt lat="42.87706" lon="2.09045">
        <ele>989.232</ele>
        <time>2015-08-26T19:34:00Z</time>
      </trkpt>
      <trkpt lat="42.87671" lon="2.08995">
        <ele>988.505</ele>
        <time>2015-08-26T19:34:20Z</time>
      </trkpt>
      <trkpt lat="42.87634" lon="2.09004">
        <ele>990.208</ele>
        <time>2015-08-26T19:34:40Z</time>
      </trkpt>
      <trkpt lat="42.87597" lon="2.08992">
        <ele>987.267</ele>
        <time>2015-08-26T19:35:00Z</time>
      </trkpt>
      <trkpt lat="42.87574" lon="2.08973">
        <ele>987.872</ele>
        <time>2015-08-26T19:35:20Z</time>
      </trkpt>
      <trkpt lat="42.87532" lon="2.08985">
        <ele>984.943</ele>
        <time>2015-08-26T19:35:40Z</time>
      </trkpt>
      <trkpt lat="42.8746" lon="2.08974">
        <ele>977.178</ele>
        <time>2015-08-26T19:36:00Z</time>
      </trkpt>
      <trkpt lat="42.87441" lon="2.08931">
        <ele>973.197</ele>
        <time>2015-08-26T19:36:20Z</time>
      </trkpt>
      <trkpt lat="42.87388" lon="2.08944">
        <ele>980.15</ele>
        <time>2015-08-26T19:36:40Z</time>
      </trkpt>
      <trkpt lat="42.87365" lon="2.08924">
        <ele>981.727</ele>
        <time>2015-08-26T19:37:00Z</time>
      </trkpt>
      <trkpt lat="42.87373" lon="2.08808">
        <ele>984.291</ele>
        <time>2015-08-26T19:37:20Z</time>
      </trkpt>
      <trkpt lat="42.87351" lon="2.08783">
        <ele>988.211</ele>
        <time>2015-08-26T19:37:40Z</time>
      </trkpt>
      <trkpt lat="42.87314" lon="2.08815">
        <ele>990.721</ele>
        <time>2015-08-26T19:38:00Z</time>
      </trkpt>
      <trkpt lat="42.87166" lon="2.09016">
        <ele>990.003</ele>
        <time>2015-08-26T19:38:20Z</time>
      </trkpt>
      <trkpt lat="42.87119" lon="2.09181">
        <ele>990.008</ele>
        <time>2015-08-26T19:38:40Z</time>
      </trkpt>
      <trkpt lat="42.86943" lon="2.09197">
        <ele>990.077</ele>
        <time>2015-08-26T19:39:00Z</time>
      </trkpt>
      <trkpt lat="42.86909" lon="2.09168">
        <ele>992.332</ele>
        <time>2015-08-26T19:39:20Z</time>
      </trkpt>
      <trkpt lat="42.86905" lon="2.09122">
        <ele>994.813</ele>
        <time>2015-08-26T19:39:40Z</time>
      </trkpt>
      <trkpt lat="42.86915" lon="2.09032">
        <ele>992.548</ele>
        <time>2015-08-26T19:40:00Z</time>
      </trkpt>
      <trkpt lat="42.86905" lon="2.08884">
        <ele>997.437</ele>
        <time>2015-08-26T19:40:20Z</time>
      </trkpt>
      <trkpt lat="42.8693" lon="2.0879">
        <ele>992.73</ele>
        <time>2015-08-26T19:40:40Z</time>
      </trkpt>
      <trkpt lat="42.86932" lon="2.08688">
        <ele>993.257</ele>
        <time>2015-08-26T19:41:00Z</time>
      </trkpt>
      <trkpt lat="42.86927" lon="2.08594">
        <ele>995.941</ele>
        <time>2015-08-26T19:41:20Z</time>
      </trkpt>
      <trkpt lat="42.8696" lon="2.08502">
        <ele>990.057</ele>
        <time>2015-08-26T19:41:40Z</time>
      </trkpt>
      <trkpt lat="42.86974" lon="2.08442">
        <ele>990</ele>
        <time>2015-08-26T19:42:00Z</time>
      </trkpt>
      <trkpt lat="42.86834" lon="2.08373">
        <ele>986.92</ele>
        <time>2015-08-26T19:42:20Z</time>
      </trkpt>
      <trkpt lat="42.86762" lon="2.08396">
        <ele>965.708</ele>
        <time>2015-08-26T19:42:40Z</time>
      </trkpt>
      <trkpt lat="42.86754" lon="2.08356">
        <ele>960.381</ele>
        <time>2015-08-26T19:43:00Z</time>
      </trkpt>
      <trkpt lat="42.86702" lon="2.08332">
        <ele>949.316</ele>
        <time>2015-08-26T19:43:20Z</time>
      </trkpt>
      <trkpt lat="42.86694" lon="2.08289">
        <ele>946.227</ele>
        <time>2015-08-26T19:43:40Z</time>
      </trkpt>
      <trkpt lat="42.86612" lon="2.08266">
        <ele>934.192</ele>
        <time>2015-08-26T19:44:00Z</time>
      </trkpt>
      <trkpt lat="42.866" lon="2.08252">
        <ele>935.671</ele>
        <time>2015-08-26T19:44:20Z</time>
      </trkpt>
      <trkpt lat="42.86422" lon="2.08209">
        <ele>939.334</ele>
        <time>2015-08-26T19:44:40Z</time>
      </trkpt>
      <trkpt lat="42.86286" lon="2.08112">
        <ele>949.751</ele>
        <time>2015-08-26T19:45:00Z</time>
      </trkpt>
      <trkpt lat="42.86263" lon="2.0805">
        <ele>960.955</ele>
        <time>2015-08-26T19:45:20Z</time>
      </trkpt>
      <trkpt lat="42.86276" lon="2.07986">
        <ele>964.594</ele>
        <time>2015-08-26T19:45:40Z</time>
      </trkpt>
      <trkpt lat="42.86302" lon="2.07943">
        <ele>957.857</ele>
        <time>2015-08-26T19:46:00Z</time>
      </trkpt>
      <trkpt lat="42.86307" lon="2.07885">
        <ele>955.922</ele>
        <time>2015-08-26T19:46:20Z</time>
      </trkpt>
      <trkpt lat="42.862" lon="2.07808">
        <ele>955.908</ele>
        <time>2015-08-26T19:46:40Z</time>
      </trkpt>
      <trkpt lat="42.86182" lon="2.07774">
        <ele>952.595</ele>
        <time>2015-08-26T19:47:00Z</time>
      </trkpt>
      <trkpt lat="42.86125" lon="2.07762">
        <ele>946.28</ele>
        <time>2015-08-26T19:47:20Z</time>
      </trkpt>
      <trkpt lat="42.86017" lon="2.07632">
        <ele>933.551</ele>
        <time>2015-08-26T19:47:40Z</time>
      </trkpt>
      <trkpt lat="42.85964" lon="2.07627">
        <ele>932.736</ele>
        <time>2015-08-26T19:48:00Z</time>
      </trkpt>
      <trkpt lat="42.85871" lon="2.07524">
        <ele>924.165</ele>
        <time>2015-08-26T19:48:20Z</time>
      </trkpt>
      <trkpt lat="42.85807" lon="2.07518">
        <ele>919.158</ele>
        <time>2015-08-26T19:48:40Z</time>
      </trkpt>
      <trkpt lat="42.85745" lon="2.07555">
        <ele>915.635</ele>
        <time>2015-08-26T19:49:00Z</time>
      </trkpt>
      <trkpt lat="42.857" lon="2.07601">
        <ele>910.319</ele>
        <time>2015-08-26T19:49:20Z</time>
      </trkpt>
      <trkpt lat="42.85569" lon="2.0767">
        <ele>907.789</ele>
        <time>2015-08-26T19:49:40Z</time>
      </trkpt>
      <trkpt lat="42.8551" lon="2.07675">
        <ele>905.706</ele>
        <time>2015-08-26T19:50:00Z</time>
      </trkpt>
      <trkpt lat="42.85438" lon="2.07607">
        <ele>898.426</ele>
        <time>2015-08-26T19:50:20Z</time>
      </trkpt>
      <trkpt lat="42.8536" lon="2.07638">
        <ele>898.008</ele>
        <time>2015-08-26T19:50:40Z</time>
      </trkpt>
      <trkpt lat="42.85334" lon="2.07682">
        <ele>904.814</ele>
        <time>2015-08-26T19:51:00Z</time>
      </trkpt>
      <trkpt lat="42.85305" lon="2.07697">
        <ele>910.259</ele>
        <time>2015-08-26T19:51:20Z</time>
      </trkpt>
      <trkpt lat="42.85219" lon="2.0746">
        <ele>925.97</ele>
        <time>2015-08-26T19:51:40Z</time>
      </trkpt>
      <trkpt lat="42.8519" lon="2.0745">
        <ele>928.255</ele>
        <time>2015-08-26T19:52:00Z</time>
      </trkpt>
      <trkpt lat="42.85121" lon="2.07378">
        <ele>930.064</ele>
        <time>2015-08-26T19:52:20Z</time>
      </trkpt>
      <trkpt lat="42.85049" lon="2.0739">
        <ele>923.787</ele>
        <time>2015-08-26T19:52:40Z</time>
      </trkpt>
      <trkpt lat="42.85057" lon="2.07112">
        <ele>919.364</ele>
        <time>2015-08-26T19:53:00Z</time>
      </trkpt>
      <trkpt lat="42.84993" lon="2.07046">
        <ele>913.648</ele>
        <time>2015-08-26T19:53:20Z</time>
      </trkpt>
      <trkpt lat="42.84949" lon="2.06976">
        <ele>907.699</ele>
        <time>2015-08-26T19:53:40Z</time>
      </trkpt>
      <trkpt lat="42.84874" lon="2.07032">
        <ele>899.507</ele>
        <time>2015-08-26T19:54:00Z</time>
      </trkpt>
      <trkpt lat="42.8474" lon="2.06967">
        <ele>886.627</ele>
        <time>2015-08-26T19:54:20Z</time>
      </trkpt>
      <trkpt lat="42.84739" lon="2.06849">
        <ele>887.108</ele>
        <time>2015-08-26T19:54:40Z</time>
      </trkpt>
      <trkpt lat="42.8458" lon="2.06826">
        <ele>880.945</ele>
        <time>2015-08-26T19:55:00Z</time>
      </trkpt>
      <trkpt lat="42.84562" lon="2.06841">
        <ele>880.29</ele>
        <time>2015-08-26T19:55:20Z</time>
      </trkpt>
      <trkpt lat="42.84384" lon="2.0688">
        <ele>876.651</ele>
        <time>2015-08-26T19:55:40Z</time>
      </trkpt>
      <trkpt lat="42.84348" lon="2.06857">
        <ele>875.496</ele>
        <time>2015-08-26T19:56:00Z</time>
      </trkpt>
      <trkpt lat="42.84222" lon="2.06869">
        <ele>873.395</ele>
        <time>2015-08-26T19:56:20Z</time>
      </trkpt>
      <trkpt lat="42.84147" lon="2.0686">
        <ele>872.188</ele>
        <time>2015-08-26T19:56:40Z</time>
      </trkpt>
      <trkpt lat="42.84163" lon="2.0681">
        <ele>869.575</ele>
        <time>2015-08-26T19:57:00Z</time>
      </trkpt>
      <trkpt lat="42.84198" lon="2.06738">
        <ele>870.189</ele>
        <time>2015-08-26T19:57:20Z</time>
      </trkpt>
      <trkpt lat="42.84208" lon="2.06601">
        <ele>870.087</ele>
        <time>2015-08-26T19:57:40Z</time>
      </trkpt>
      <trkpt lat="42.84242" lon="2.06363">
        <ele>868.342</ele>
        <time>2015-08-26T19:58:00Z</time>
      </trkpt>
      <trkpt lat="42.84342" lon="2.05992">
        <ele>870.026</ele>
        <time>2015-08-26T19:58:20Z</time>
      </trkpt>
      <trkpt lat="42.84406" lon="2.05784">
        <ele>870.008</ele>
        <time>2015-08-26T19:58:40Z</time>
      </trkpt>
      <trkpt lat="42.84433" lon="2.05562">
        <ele>869.644</ele>
        <time>2015-08-26T19:59:00Z</time>
      </trkpt>
      <trkpt lat="42.84444" lon="2.05367">
        <ele>871.029</ele>
        <time>2015-08-26T19:59:20Z</time>
      </trkpt>
      <trkpt lat="42.84494" lon="2.05048">
        <ele>872.93</ele>
        <time>2015-08-26T19:59:40Z</time>
      </trkpt>
      <trkpt lat="42.8451" lon="2.04965">
        <ele>873.685</ele>
        <time>2015-08-26T20:00:00Z</time>
      </trkpt>
      <trkpt lat="42.84485" lon="2.04835">
        <ele>875.044</ele>
        <time>2015-08-26T20:00:20Z</time>
      </trkpt>
      <trkpt lat="42.8439" lon="2.04804">
        <ele>877.177</ele>
        <time>2015-08-26T20:00:40Z</time>
      </trkpt>
      <trkpt lat="42.84301" lon="2.04866">
        <ele>877.924</ele>
        <time>2015-08-26T20:01:00Z</time>
      </trkpt>
      <trkpt lat="42.84234" lon="2.04944">
        <ele>875.878</ele>
        <time>2015-08-26T20:01:20Z</time>
      </trkpt>
      <trkpt lat="42.84133" lon="2.05007">
        <ele>874.927</ele>
        <time>2015-08-26T20:01:40Z</time>
      </trkpt>
      <trkpt lat="42.83928" lon="2.04952">
        <ele>860.468</ele>
        <time>2015-08-26T20:02:00Z</time>
      </trkpt>
      <trkpt lat="42.83899" lon="2.05102">
        <ele>858.714</ele>
        <time>2015-08-26T20:02:20Z</time>
      </trkpt>
      <trkpt lat="42.83824" lon="2.05177">
        <ele>850.208</ele>
        <time>2015-08-26T20:02:40Z</time>
      </trkpt>
      <trkpt lat="42.83623" lon="2.05251">
        <ele>865.718</ele>
        <time>2015-08-26T20:03:00Z</time>
      </trkpt>
      <trkpt lat="42.83551" lon="2.05183">
        <ele>869.243</ele>
        <time>2015-08-26T20:03:20Z</time>
      </trkpt>
      <trkpt lat="42.83412" lon="2.05148">
        <ele>876.114</ele>
        <time>2015-08-26T20:03:40Z</time>
      </trkpt>
      <trkpt lat="42.83363" lon="2.05145">
        <ele>877.889</ele>
        <time>2015-08-26T20:04:00Z</time>
      </trkpt>
      <trkpt lat="42.83296" lon="2.05114">
        <ele>874.648</ele>
        <time>2015-08-26T20:04:20Z</time>
      </trkpt>
      <trkpt lat="42.83242" lon="2.05134">
        <ele>863.671</ele>
        <time>2015-08-26T20:04:40Z</time>
      </trkpt>
      <trkpt lat="42.83215" lon="2.05043">
        <ele>861.788</ele>
        <time>2015-08-26T20:05:00Z</time>
      </trkpt>
      <trkpt lat="42.8321" lon="2.04859">
        <ele>856.792</ele>
        <time>2015-08-26T20:05:20Z</time>
      </trkpt>
      <trkpt lat="42.83189" lon="2.04707">
        <ele>849.968</ele>
        <time>2015-08-26T20:05:40Z</time>
      </trkpt>
      <trkpt lat="42.83152" lon="2.04625">
        <ele>857.242</ele>
        <time>2015-08-26T20:06:00Z</time>
      </trkpt>
      <trkpt lat="42.83064" lon="2.04602">
        <ele>837.926</ele>
        <time>2015-08-26T20:06:20Z</time>
      </trkpt>
      <trkpt lat="42.83014" lon="2.04644">
        <ele>836.208</ele>
        <time>2015-08-26T20:06:40Z</time>
      </trkpt>
      <trkpt lat="42.82991" lon="2.04755">
        <ele>814.632</ele>
        <time>2015-08-26T20:07:00Z</time>
      </trkpt>
      <trkpt lat="42.82956" lon="2.04875">
        <ele>793.787</ele>
        <time>2015-08-26T20:07:20Z</time>
      </trkpt>
      <trkpt lat="42.82908" lon="2.04954">
        <ele>785.198</ele>
        <time>2015-08-26T20:07:40Z</time>
      </trkpt>
      <trkpt lat="42.82837" lon="2.05041">
        <ele>776.753</ele>
        <time>2015-08-26T20:08:00Z</time>
      </trkpt>
      <trkpt lat="42.82803" lon="2.05044">
        <ele>773.892</ele>
        <time>2015-08-26T20:08:20Z</time>
      </trkpt>
      <trkpt lat="42.82764" lon="2.04985">
        <ele>769.935</ele>
        <time>2015-08-26T20:08:40Z</time>
      </trkpt>
      <trkpt lat="42.82713" lon="2.04835">
        <ele>759.882</ele>
        <time>2015-08-26T20:09:00Z</time>
      </trkpt>
      <trkpt lat="42.8268" lon="2.04674">
        <ele>744.916</ele>
        <time>2015-08-26T20:09:20Z</time>
      </trkpt>
      <trkpt lat="42.82687" lon="2.04567">
        <ele>746.811</ele>
        <time>2015-08-26T20:09:40Z</time>
      </trkpt>
      <trkpt lat="42.82623" lon="2.04552">
        <ele>733.921</ele>
        <time>2015-08-26T20:10:00Z</time>
      </trkpt>
      <trkpt lat="42.82585" lon="2.04584">
        <ele>722.303</ele>
        <time>2015-08-26T20:10:20Z</time>
      </trkpt>
      <trkpt lat="42.82554" lon="2.04744">
        <ele>710.208</ele>
        <time>2015-08-26T20:10:40Z</time>
      </trkpt>
      <trkpt lat="42.82501" lon="2.0479">
        <ele>709.587</ele>
        <time>2015-08-26T20:11:00Z</time>
      </trkpt>
      <trkpt lat="42.82517" lon="2.04834">
        <ele>708.472</ele>
        <time>2015-08-26T20:11:20Z</time>
      </trkpt>
      <trkpt lat="42.82515" lon="2.0488">
        <ele>707.993</ele>
        <time>2015-08-26T20:11:40Z</time>
      </trkpt>
      <trkpt lat="42.82499" lon="2.04904">
        <ele>709.138</ele>
        <time>2015-08-26T20:12:00Z</time>
      </trkpt>
      <trkpt lat="42.82541" lon="2.0506">
        <ele>703.187</ele>
        <time>2015-08-26T20:12:20Z</time>
      </trkpt>
      <trkpt lat="42.82546" lon="2.05164">
        <ele>705.66</ele>
        <time>2015-08-26T20:12:40Z</time>
      </trkpt>
      <trkpt lat="42.82485" lon="2.05201">
        <ele>713.127</ele>
        <time>2015-08-26T20:13:00Z</time>
      </trkpt>
      <trkpt lat="42.82362" lon="2.0523">
        <ele>734.031</ele>
        <time>2015-08-26T20:13:20Z</time>
      </trkpt>
      <trkpt lat="42.82286" lon="2.05294">
        <ele>751.786</ele>
        <time>2015-08-26T20:13:40Z</time>
      </trkpt>
      <trkpt lat="42.82229" lon="2.05326">
        <ele>773.16</ele>
        <time>2015-08-26T20:14:00Z</time>
      </trkpt>
      <trkpt lat="42.82212" lon="2.05356">
        <ele>785.326</ele>
        <time>2015-08-26T20:14:20Z</time>
      </trkpt>
      <trkpt lat="42.82213" lon="2.05427">
        <ele>793.408</ele>
        <time>2015-08-26T20:14:40Z</time>
      </trkpt>
      <trkpt lat="42.82127" lon="2.05483">
        <ele>795.154</ele>
        <time>2015-08-26T20:15:00Z</time>
      </trkpt>
      <trkpt lat="42.82055" lon="2.05469">
        <ele>804.539</ele>
        <time>2015-08-26T20:15:20Z</time>
      </trkpt>
      <trkpt lat="42.81994" lon="2.05489">
        <ele>826.01</ele>
        <time>2015-08-26T20:15:40Z</time>
      </trkpt>
      <trkpt lat="42.82015" lon="2.05577">
        <ele>841.425</ele>
        <time>2015-08-26T20:16:00Z</time>
      </trkpt>
      <trkpt lat="42.82011" lon="2.05671">
        <ele>853.564</ele>
        <time>2015-08-26T20:16:20Z</time>
      </trkpt>
      <trkpt lat="42.81988" lon="2.05789">
        <ele>864.267</ele>
        <time>2015-08-26T20:16:40Z</time>
      </trkpt>
      <trkpt lat="42.81957" lon="2.0584">
        <ele>868.114</ele>
        <time>2015-08-26T20:17:00Z</time>
      </trkpt>
      <trkpt lat="42.81934" lon="2.05867">
        <ele>873.678</ele>
        <time>2015-08-26T20:17:20Z</time>
      </trkpt>
      <trkpt lat="42.81916" lon="2.06132">
        <ele>900.183</ele>
        <time>2015-08-26T20:17:40Z</time>
      </trkpt>
      <trkpt lat="42.81857" lon="2.06178">
        <ele>900.025</ele>
        <time>2015-08-26T20:18:00Z</time>
      </trkpt>
      <trkpt lat="42.81818" lon="2.06188">
        <ele>899.217</ele>
        <time>2015-08-26T20:18:20Z</time>
      </trkpt>
      <trkpt lat="42.81753" lon="2.06125">
        <ele>909.608</ele>
        <time>2015-08-26T20:18:40Z</time>
      </trkpt>
      <trkpt lat="42.81727" lon="2.06139">
        <ele>910.554</ele>
        <time>2015-08-26T20:19:00Z</time>
      </trkpt>
      <trkpt lat="42.81629" lon="2.06242">
        <ele>926.179</ele>
        <time>2015-08-26T20:19:20Z</time>
      </trkpt>
      <trkpt lat="42.8161" lon="2.06264">
        <ele>929.45</ele>
        <time>2015-08-26T20:19:40Z</time>
      </trkpt>
      <trkpt lat="42.81544" lon="2.06272">
        <ele>917.595</ele>
        <time>2015-08-26T20:20:00Z</time>
      </trkpt>
      <trkpt lat="42.81315" lon="2.06368">
        <ele>930.154</ele>
        <time>2015-08-26T20:20:20Z</time>
      </trkpt>
      <trkpt lat="42.81278" lon="2.06412">
        <ele>926.217</ele>
        <time>2015-08-26T20:20:40Z</time>
      </trkpt>
      <trkpt lat="42.81201" lon="2.06409">
        <ele>930.784</ele>
        <time>2015-08-26T20:21:00Z</time>
      </trkpt>
      <trkpt lat="42.81184" lon="2.06325">
        <ele>943.018</ele>
        <time>2015-08-26T20:21:20Z</time>
      </trkpt>
      <trkpt lat="42.81156" lon="2.06307">
        <ele>943.147</ele>
        <time>2015-08-26T20:21:40Z</time>
      </trkpt>
      <trkpt lat="42.80972" lon="2.06428">
        <ele>955.029</ele>
        <time>2015-08-26T20:22:00Z</time>
      </trkpt>
      <trkpt lat="42.80907" lon="2.06396">
        <ele>948.721</ele>
        <time>2015-08-26T20:22:20Z</time>
      </trkpt>
      <trkpt lat="42.8087" lon="2.06436">
        <ele>943.508</ele>
        <time>2015-08-26T20:22:40Z</time>
      </trkpt>
      <trkpt lat="42.80709" lon="2.06664">
        <ele>920.14</ele>
        <time>2015-08-26T20:23:00Z</time>
      </trkpt>
      <trkpt lat="42.80562" lon="2.06682">
        <ele>925.715</ele>
        <time>2015-08-26T20:23:20Z</time>
      </trkpt>
      <trkpt lat="42.80518" lon="2.06675">
        <ele>926.416</ele>
        <time>2015-08-26T20:23:40Z</time>
      </trkpt>
      <trkpt lat="42.80497" lon="2.06692">
        <ele>925.091</ele>
        <time>2015-08-26T20:24:00Z</time>
      </trkpt>
      <trkpt lat="42.80005" lon="2.06707">
        <ele>913.46</ele>
        <time>2019-03-29T13:26:02Z</time>
      </trkpt>
      <trkpt lat="42.79871" lon="2.06788">
        <ele>909.683</ele>
        <time>2019-03-29T13:26:22Z</time>
      </trkpt>
      <trkpt lat="42.79863" lon="2.06864">
        <ele>910.26</ele>
        <time>2015-08-26T20:26:00Z</time>
      </trkpt>
      <trkpt lat="42.79709" lon="2.06816">
        <ele>916.544</ele>
        <time>2015-08-26T20:26:20Z</time>
      </trkpt>
      <trkpt lat="42.79543" lon="2.06669">
        <ele>929.044</ele>
        <time>2015-08-26T20:26:40Z</time>
      </trkpt>
      <trkpt lat="42.79507" lon="2.06604">
        <ele>934.105</ele>
        <time>2015-08-26T20:27:00Z</time>
      </trkpt>
      <trkpt lat="42.79459" lon="2.06582">
        <ele>940.015</ele>
        <time>2015-08-26T20:27:20Z</time>
      </trkpt>
      <trkpt lat="42.79389" lon="2.06572">
        <ele>944.208</ele>
        <time>2015-08-26T20:27:40Z</time>
      </trkpt>
      <trkpt lat="42.79301" lon="2.06514">
        <ele>950.98</ele>
        <time>2015-08-26T20:28:00Z</time>
      </trkpt>
      <trkpt lat="42.79236" lon="2.06479">
        <ele>951.055</ele>
        <time>2015-08-26T20:28:20Z</time>
      </trkpt>
      <trkpt lat="42.79208" lon="2.06398">
        <ele>953.576</ele>
        <time>2015-08-26T20:28:40Z</time>
      </trkpt>
      <trkpt lat="42.79217" lon="2.06283">
        <ele>958.861</ele>
        <time>2015-08-26T20:29:00Z</time>
      </trkpt>
      <trkpt lat="42.79138" lon="2.06151">
        <ele>970.05</ele>
        <time>2015-08-26T20:29:20Z</time>
      </trkpt>
      <trkpt lat="42.79073" lon="2.06128">
        <ele>970.663</ele>
        <time>2015-08-26T20:29:40Z</time>
      </trkpt>
      <trkpt lat="42.79004" lon="2.06142">
        <ele>971.35</ele>
        <time>2015-08-26T20:30:00Z</time>
      </trkpt>
      <trkpt lat="42.78919" lon="2.06141">
        <ele>979.114</ele>
        <time>2015-08-26T20:30:20Z</time>
      </trkpt>
      <trkpt lat="42.78881" lon="2.06117">
        <ele>980.094</ele>
        <time>2015-08-26T20:30:40Z</time>
      </trkpt>
      <trkpt lat="42.78825" lon="2.0611">
        <ele>987.957</ele>
        <time>2015-08-26T20:31:00Z</time>
      </trkpt>
      <trkpt lat="42.78743" lon="2.06126">
        <ele>990.022</ele>
        <time>2015-08-26T20:31:20Z</time>
      </trkpt>
      <trkpt lat="42.78661" lon="2.06104">
        <ele>993.008</ele>
        <time>2015-08-26T20:31:40Z</time>
      </trkpt>
      <trkpt lat="42.78647" lon="2.06061">
        <ele>1000.815</ele>
        <time>2015-08-26T20:32:00Z</time>
      </trkpt>
      <trkpt lat="42.78652" lon="2.06006">
        <ele>1006.04</ele>
        <time>2015-08-26T20:32:20Z</time>
      </trkpt>
      <trkpt lat="42.7861" lon="2.06007">
        <ele>1003.591</ele>
        <time>2015-08-26T20:32:40Z</time>
      </trkpt>
      <trkpt lat="42.78542" lon="2.05977">
        <ele>1012.256</ele>
        <time>2015-08-26T20:33:00Z</time>
      </trkpt>
      <trkpt lat="42.78442" lon="2.06009">
        <ele>1022.755</ele>
        <time>2015-08-26T20:33:20Z</time>
      </trkpt>
      <trkpt lat="42.78417" lon="2.06065">
        <ele>1026.288</ele>
        <time>2015-08-26T20:33:40Z</time>
      </trkpt>
      <trkpt lat="42.78404" lon="2.06135">
        <ele>1027.045</ele>
        <time>2015-08-26T20:34:00Z</time>
      </trkpt>
      <trkpt lat="42.7828" lon="2.06333">
        <ele>1053.299</ele>
        <time>2015-08-26T20:34:20Z</time>
      </trkpt>
      <trkpt lat="42.78239" lon="2.06519">
        <ele>1064.495</ele>
        <time>2015-08-26T20:34:40Z</time>
      </trkpt>
      <trkpt lat="42.78178" lon="2.06723">
        <ele>1080.549</ele>
        <time>2015-08-26T20:35:00Z</time>
      </trkpt>
      <trkpt lat="42.78106" lon="2.06867">
        <ele>1102.523</ele>
        <time>2015-08-26T20:35:20Z</time>
      </trkpt>
      <trkpt lat="42.78009" lon="2.0712">
        <ele>1128.108</ele>
        <time>2015-08-26T20:35:40Z</time>
      </trkpt>
      <trkpt lat="42.77873" lon="2.07365">
        <ele>1151.995</ele>
        <time>2015-08-26T20:36:00Z</time>
      </trkpt>
      <trkpt lat="42.77813" lon="2.0751">
        <ele>1163.87</ele>
        <time>2015-08-26T20:36:20Z</time>
      </trkpt>
      <trkpt lat="42.77785" lon="2.07503">
        <ele>1161.681</ele>
        <time>2015-08-26T20:36:40Z</time>
      </trkpt>
      <trkpt lat="42.77758" lon="2.0759">
        <ele>1159.256</ele>
        <time>2015-08-26T20:37:00Z</time>
      </trkpt>
      <trkpt lat="42.77726" lon="2.07611">
        <ele>1157.695</ele>
        <time>2015-08-26T20:37:20Z</time>
      </trkpt>
      <trkpt lat="42.77708" lon="2.07601">
        <ele>1153.918</ele>
        <time>2015-08-26T20:37:40Z</time>
      </trkpt>
      <trkpt lat="42.77485" lon="2.07706">
        <ele>1148.165</ele>
        <time>2015-08-26T20:38:00Z</time>
      </trkpt>
      <trkpt lat="42.7743" lon="2.07723">
        <ele>1141.029</ele>
        <time>2015-08-26T20:38:20Z</time>
      </trkpt>
      <trkpt lat="42.77395" lon="2.07744">
        <ele>1134.766</ele>
        <time>2015-08-26T20:38:40Z</time>
      </trkpt>
      <trkpt lat="42.77332" lon="2.07747">
        <ele>1119.429</ele>
        <time>2015-08-26T20:39:00Z</time>
      </trkpt>
      <trkpt lat="42.77249" lon="2.07684">
        <ele>1113.621</ele>
        <time>2015-08-26T20:39:20Z</time>
      </trkpt>
      <trkpt lat="42.77223" lon="2.07677">
        <ele>1113.708</ele>
        <time>2015-08-26T20:39:40Z</time>
      </trkpt>
      <trkpt lat="42.77203" lon="2.07688">
        <ele>1113.892</ele>
        <time>2015-08-26T20:40:00Z</time>
      </trkpt>
      <trkpt lat="42.77186" lon="2.07707">
        <ele>1110.247</ele>
        <time>2015-08-26T20:40:20Z</time>
      </trkpt>
      <trkpt lat="42.77145" lon="2.07716">
        <ele>1108.258</ele>
        <time>2015-08-26T20:40:40Z</time>
      </trkpt>
      <trkpt lat="42.77109" lon="2.07715">
        <ele>1097.163</ele>
        <time>2015-08-26T20:41:00Z</time>
      </trkpt>
      <trkpt lat="42.77108" lon="2.07728">
        <ele>1093.252</ele>
        <time>2015-08-26T20:41:20Z</time>
      </trkpt>
      <trkpt lat="42.77138" lon="2.07758">
        <ele>1094.565</ele>
        <time>2015-08-26T20:41:40Z</time>
      </trkpt>
      <trkpt lat="42.77097" lon="2.07761">
        <ele>1077.542</ele>
        <time>2015-08-26T20:42:00Z</time>
      </trkpt>
      <trkpt lat="42.77051" lon="2.07657">
        <ele>1075.496</ele>
        <time>2015-08-26T20:42:20Z</time>
      </trkpt>
      <trkpt lat="42.77034" lon="2.0759">
        <ele>1074.615</ele>
        <time>2015-08-26T20:42:40Z</time>
      </trkpt>
      <trkpt lat="42.76987" lon="2.07591">
        <ele>1066.065</ele>
        <time>2015-08-26T20:43:00Z</time>
      </trkpt>
      <trkpt lat="42.76941" lon="2.07576">
        <ele>1064.411</ele>
        <time>2015-08-26T20:43:20Z</time>
      </trkpt>
      <trkpt lat="42.76886" lon="2.07531">
        <ele>1066.608</ele>
        <time>2015-08-26T20:43:40Z</time>
      </trkpt>
      <trkpt lat="42.76807" lon="2.07578">
        <ele>1068.447</ele>
        <time>2015-08-26T20:44:00Z</time>
      </trkpt>
      <trkpt lat="42.76756" lon="2.07618">
        <ele>1071.812</ele>
        <time>2015-08-26T20:44:20Z</time>
      </trkpt>
      <trkpt lat="42.76619" lon="2.07711">
        <ele>1080.673</ele>
        <time>2015-08-26T20:44:40Z</time>
      </trkpt>
      <trkpt lat="42.76565" lon="2.07717">
        <ele>1089.218</ele>
        <time>2015-08-26T20:45:00Z</time>
      </trkpt>
      <trkpt lat="42.7654" lon="2.0774">
        <ele>1092.057</ele>
        <time>2015-08-26T20:45:20Z</time>
      </trkpt>
      <trkpt lat="42.76433" lon="2.07918">
        <ele>1110.44</ele>
        <time>2015-08-26T20:45:40Z</time>
      </trkpt>
      <trkpt lat="42.76385" lon="2.07966">
        <ele>1106.787</ele>
        <time>2015-08-26T20:46:00Z</time>
      </trkpt>
      <trkpt lat="42.76336" lon="2.07996">
        <ele>1111.711</ele>
        <time>2015-08-26T20:46:20Z</time>
      </trkpt>
      <trkpt lat="42.76308" lon="2.08002">
        <ele>1109.929</ele>
        <time>2015-08-26T20:46:40Z</time>
      </trkpt>
      <trkpt lat="42.76286" lon="2.07941">
        <ele>1106.8</ele>
        <time>2015-08-26T20:47:00Z</time>
      </trkpt>
      <trkpt lat="42.76262" lon="2.07915">
        <ele>1106.12</ele>
        <time>2015-08-26T20:47:20Z</time>
      </trkpt>
      <trkpt lat="42.76224" lon="2.07905">
        <ele>1105.608</ele>
        <time>2015-08-26T20:47:40Z</time>
      </trkpt>
      <trkpt lat="42.76171" lon="2.0792">
        <ele>1104.798</ele>
        <time>2015-08-26T20:48:00Z</time>
      </trkpt>
      <trkpt lat="42.76121" lon="2.0793">
        <ele>1105.223</ele>
        <time>2015-08-26T20:48:20Z</time>
      </trkpt>
      <trkpt lat="42.76073" lon="2.0797">
        <ele>1102.284</ele>
        <time>2015-08-26T20:48:40Z</time>
      </trkpt>
      <trkpt lat="42.76035" lon="2.07987">
        <ele>1106.749</ele>
        <time>2015-08-26T20:49:00Z</time>
      </trkpt>
      <trkpt lat="42.75997" lon="2.08024">
        <ele>1097.088</ele>
        <time>2015-08-26T20:49:20Z</time>
      </trkpt>
      <trkpt lat="42.75963" lon="2.0802">
        <ele>1104.831</ele>
        <time>2015-08-26T20:49:40Z</time>
      </trkpt>
      <trkpt lat="42.75933" lon="2.08028">
        <ele>1106.928</ele>
        <time>2015-08-26T20:50:00Z</time>
      </trkpt>
      <trkpt lat="42.75893" lon="2.08075">
        <ele>1093.512</ele>
        <time>2015-08-26T20:50:20Z</time>
      </trkpt>
      <trkpt lat="42.75861" lon="2.08088">
        <ele>1088.438</ele>
        <time>2015-08-26T20:50:40Z</time>
      </trkpt>
      <trkpt lat="42.75804" lon="2.08087">
        <ele>1084.17</ele>
        <time>2015-08-26T20:51:00Z</time>
      </trkpt>
      <trkpt lat="42.7578" lon="2.08074">
        <ele>1078.917</ele>
        <time>2015-08-26T20:51:20Z</time>
      </trkpt>
      <trkpt lat="42.75718" lon="2.07954">
        <ele>1058.508</ele>
        <time>2015-08-26T20:51:40Z</time>
      </trkpt>
      <trkpt lat="42.75695" lon="2.07857">
        <ele>1051.619</ele>
        <time>2015-08-26T20:52:00Z</time>
      </trkpt>
      <trkpt lat="42.75684" lon="2.07742">
        <ele>1041.844</ele>
        <time>2015-08-26T20:52:20Z</time>
      </trkpt>
      <trkpt lat="42.75655" lon="2.07674">
        <ele>1025.085</ele>
        <time>2015-08-26T20:52:40Z</time>
      </trkpt>
      <trkpt lat="42.7565" lon="2.0763">
        <ele>1026.23</ele>
        <time>2015-08-26T20:53:00Z</time>
      </trkpt>
      <trkpt lat="42.75658" lon="2.0758">
        <ele>1032.229</ele>
        <time>2015-08-26T20:53:20Z</time>
      </trkpt>
      <trkpt lat="42.7567" lon="2.07534">
        <ele>1036.822</ele>
        <time>2015-08-26T20:53:40Z</time>
      </trkpt>
      <trkpt lat="42.75722" lon="2.0745">
        <ele>1038.269</ele>
        <time>2015-08-26T20:54:00Z</time>
      </trkpt>
      <trkpt lat="42.75749" lon="2.07381">
        <ele>1034.293</ele>
        <time>2015-08-26T20:54:20Z</time>
      </trkpt>
      <trkpt lat="42.75743" lon="2.07348">
        <ele>1030.853</ele>
        <time>2015-08-26T20:54:40Z</time>
      </trkpt>
      <trkpt lat="42.75703" lon="2.0729">
        <ele>1026.604</ele>
        <time>2015-08-26T20:55:00Z</time>
      </trkpt>
      <trkpt lat="42.75688" lon="2.07259">
        <ele>1030.514</ele>
        <time>2015-08-26T20:55:20Z</time>
      </trkpt>
      <trkpt lat="42.75644" lon="2.07206">
        <ele>1027.708</ele>
        <time>2015-08-26T20:55:40Z</time>
      </trkpt>
      <trkpt lat="42.75643" lon="2.07191">
        <ele>1031.681</ele>
        <time>2015-08-26T20:56:00Z</time>
      </trkpt>
      <trkpt lat="42.75651" lon="2.07152">
        <ele>1041.176</ele>
        <time>2015-08-26T20:56:20Z</time>
      </trkpt>
      <trkpt lat="42.75653" lon="2.07091">
        <ele>1039.047</ele>
        <time>2015-08-26T20:56:40Z</time>
      </trkpt>
      <trkpt lat="42.75702" lon="2.07049">
        <ele>1050.132</ele>
        <time>2015-08-26T20:57:00Z</time>
      </trkpt>
      <trkpt lat="42.75715" lon="2.07032">
        <ele>1048.981</ele>
        <time>2015-08-26T20:57:20Z</time>
      </trkpt>
      <trkpt lat="42.75714" lon="2.06982">
        <ele>1042.834</ele>
        <time>2015-08-26T20:57:40Z</time>
      </trkpt>
      <trkpt lat="42.75718" lon="2.06952">
        <ele>1045.471</ele>
        <time>2015-08-26T20:58:00Z</time>
      </trkpt>
      <trkpt lat="42.75713" lon="2.06914">
        <ele>1046.055</ele>
        <time>2015-08-26T20:58:20Z</time>
      </trkpt>
      <trkpt lat="42.75704" lon="2.0688">
        <ele>1044.629</ele>
        <time>2015-08-26T20:58:40Z</time>
      </trkpt>
      <trkpt lat="42.75704" lon="2.06856">
        <ele>1046.1</ele>
        <time>2015-08-26T20:59:00Z</time>
      </trkpt>
      <trkpt lat="42.75711" lon="2.06828">
        <ele>1048.92</ele>
        <time>2015-08-26T20:59:20Z</time>
      </trkpt>
      <trkpt lat="42.7575" lon="2.06766">
        <ele>1055.808</ele>
        <time>2015-08-26T20:59:40Z</time>
      </trkpt>
      <trkpt lat="42.75748" lon="2.06743">
        <ele>1052.168</ele>
        <time>2015-08-26T21:00:00Z</time>
      </trkpt>
      <trkpt lat="42.75713" lon="2.06687">
        <ele>1050.073</ele>
        <time>2015-08-26T21:00:20Z</time>
      </trkpt>
      <trkpt lat="42.75642" lon="2.06621">
        <ele>1051.024</ele>
        <time>2015-08-26T21:00:40Z</time>
      </trkpt>
      <trkpt lat="42.75635" lon="2.066">
        <ele>1053.959</ele>
        <time>2015-08-26T21:01:00Z</time>
      </trkpt>
      <trkpt lat="42.75637" lon="2.06566">
        <ele>1056.968</ele>
        <time>2015-08-26T21:01:20Z</time>
      </trkpt>
      <trkpt lat="42.7566" lon="2.06505">
        <ele>1062.541</ele>
        <time>2015-08-26T21:01:40Z</time>
      </trkpt>
      <trkpt lat="42.75687" lon="2.06448">
        <ele>1063.428</ele>
        <time>2015-08-26T21:02:00Z</time>
      </trkpt>
      <trkpt lat="42.75709" lon="2.0642">
        <ele>1065.542</ele>
        <time>2015-08-26T21:02:20Z</time>
      </trkpt>
      <trkpt lat="42.75736" lon="2.06399">
        <ele>1070.776</ele>
        <time>2015-08-26T21:02:40Z</time>
      </trkpt>
      <trkpt lat="42.75737" lon="2.06376">
        <ele>1063.79</ele>
        <time>2015-08-26T21:03:00Z</time>
      </trkpt>
      <trkpt lat="42.75703" lon="2.06321">
        <ele>1051.919</ele>
        <time>2015-08-26T21:03:20Z</time>
      </trkpt>
      <trkpt lat="42.75719" lon="2.06171">
        <ele>1063.008</ele>
        <time>2015-08-26T21:03:40Z</time>
      </trkpt>
      <trkpt lat="42.75723" lon="2.06077">
        <ele>1060.823</ele>
        <time>2015-08-26T21:04:00Z</time>
      </trkpt>
      <trkpt lat="42.75718" lon="2.06028">
        <ele>1058.538</ele>
        <time>2015-08-26T21:04:20Z</time>
      </trkpt>
      <trkpt lat="42.7572" lon="2.05997">
        <ele>1059.939</ele>
        <time>2015-08-26T21:04:40Z</time>
      </trkpt>
      <trkpt lat="42.75747" lon="2.05907">
        <ele>1063.864</ele>
        <time>2015-08-26T21:05:00Z</time>
      </trkpt>
      <trkpt lat="42.75746" lon="2.05834">
        <ele>1056.733</ele>
        <time>2015-08-26T21:05:20Z</time>
      </trkpt>
      <trkpt lat="42.75749" lon="2.05762">
        <ele>1057.356</ele>
        <time>2015-08-26T21:05:40Z</time>
      </trkpt>
      <trkpt lat="42.75742" lon="2.05687">
        <ele>1050.923</ele>
        <time>2015-08-26T21:06:00Z</time>
      </trkpt>
      <trkpt lat="42.75752" lon="2.05602">
        <ele>1053.327</ele>
        <time>2015-08-26T21:06:20Z</time>
      </trkpt>
      <trkpt lat="42.75762" lon="2.05563">
        <ele>1055.262</ele>
        <time>2015-08-26T21:06:40Z</time>
      </trkpt>
      <trkpt lat="42.75772" lon="2.05545">
        <ele>1056.483</ele>
        <time>2015-08-26T21:07:00Z</time>
      </trkpt>
      <trkpt lat="42.75877" lon="2.05466">
        <ele>1055.611</ele>
        <time>2015-08-26T21:07:20Z</time>
      </trkpt>
      <trkpt lat="42.75908" lon="2.05422">
        <ele>1048.808</ele>
        <time>2015-08-26T21:07:40Z</time>
      </trkpt>
      <trkpt lat="42.75934" lon="2.05397">
        <ele>1046.662</ele>
        <time>2015-08-26T21:08:00Z</time>
      </trkpt>
      <trkpt lat="42.75975" lon="2.05383">
        <ele>1044.637</ele>
        <time>2015-08-26T21:08:20Z</time>
      </trkpt>
      <trkpt lat="42.75988" lon="2.05372">
        <ele>1039.838</ele>
        <time>2015-08-26T21:08:40Z</time>
      </trkpt>
      <trkpt lat="42.76019" lon="2.05357">
        <ele>1036.483</ele>
        <time>2015-08-26T21:09:00Z</time>
      </trkpt>
      <trkpt lat="42.75992" lon="2.05349">
        <ele>1032.722</ele>
        <time>2015-08-26T21:09:20Z</time>
      </trkpt>
      <trkpt lat="42.75911" lon="2.05359">
        <ele>1028.385</ele>
        <time>2015-08-26T21:09:40Z</time>
      </trkpt>
      <trkpt lat="42.75859" lon="2.05403">
        <ele>1021.482</ele>
        <time>2015-08-26T21:10:00Z</time>
      </trkpt>
      <trkpt lat="42.75801" lon="2.05441">
        <ele>1022.176</ele>
        <time>2015-08-26T21:10:20Z</time>
      </trkpt>
      <trkpt lat="42.75743" lon="2.05445">
        <ele>1010.578</ele>
        <time>2015-08-26T21:10:40Z</time>
      </trkpt>
      <trkpt lat="42.75702" lon="2.05463">
        <ele>1001.533</ele>
        <time>2015-08-26T21:11:00Z</time>
      </trkpt>
      <trkpt lat="42.75684" lon="2.05481">
        <ele>997.326</ele>
        <time>2015-08-26T21:11:20Z</time>
      </trkpt>
      <trkpt lat="42.75654" lon="2.0553">
        <ele>987.208</ele>
        <time>2015-08-26T21:11:40Z</time>
      </trkpt>
      <trkpt lat="42.75635" lon="2.05552">
        <ele>982.073</ele>
        <time>2015-08-26T21:12:00Z</time>
      </trkpt>
      <trkpt lat="42.75618" lon="2.05588">
        <ele>977.598</ele>
        <time>2015-08-26T21:12:20Z</time>
      </trkpt>
      <trkpt lat="42.75594" lon="2.05624">
        <ele>977.399</ele>
        <time>2015-08-26T21:12:40Z</time>
      </trkpt>
      <trkpt lat="42.7558" lon="2.05674">
        <ele>977.074</ele>
        <time>2015-08-26T21:13:00Z</time>
      </trkpt>
      <trkpt lat="42.75573" lon="2.05737">
        <ele>975.453</ele>
        <time>2015-08-26T21:13:20Z</time>
      </trkpt>
      <trkpt lat="42.75547" lon="2.05839">
        <ele>975.146</ele>
        <time>2015-08-26T21:13:40Z</time>
      </trkpt>
      <trkpt lat="42.75533" lon="2.05885">
        <ele>973.933</ele>
        <time>2015-08-26T21:14:00Z</time>
      </trkpt>
      <trkpt lat="42.75475" lon="2.05977">
        <ele>978.567</ele>
        <time>2015-08-26T21:14:20Z</time>
      </trkpt>
      <trkpt lat="42.75469" lon="2.06">
        <ele>984.164</ele>
        <time>2015-08-26T21:14:40Z</time>
      </trkpt>
      <trkpt lat="42.75475" lon="2.06109">
        <ele>989.506</ele>
        <time>2015-08-26T21:15:00Z</time>
      </trkpt>
      <trkpt lat="42.75473" lon="2.0615">
        <ele>985.116</ele>
        <time>2015-08-26T21:15:20Z</time>
      </trkpt>
      <trkpt lat="42.75462" lon="2.06194">
        <ele>979.008</ele>
        <time>2015-08-26T21:15:40Z</time>
      </trkpt>
      <trkpt lat="42.75452" lon="2.06224">
        <ele>971.822</ele>
        <time>2015-08-26T21:16:00Z</time>
      </trkpt>
      <trkpt lat="42.75431" lon="2.06251">
        <ele>966.777</ele>
        <time>2015-08-26T21:16:20Z</time>
      </trkpt>
      <trkpt lat="42.7538" lon="2.06291">
        <ele>973.988</ele>
        <time>2015-08-26T21:16:40Z</time>
      </trkpt>
      <trkpt lat="42.75357" lon="2.06313">
        <ele>980.423</ele>
        <time>2015-08-26T21:17:00Z</time>
      </trkpt>
      <trkpt lat="42.75287" lon="2.06465">
        <ele>986.462</ele>
        <time>2015-08-26T21:17:20Z</time>
      </trkpt>
      <trkpt lat="42.75276" lon="2.06508">
        <ele>991.935</ele>
        <time>2015-08-26T21:17:40Z</time>
      </trkpt>
      <trkpt lat="42.75272" lon="2.06562">
        <ele>996.452</ele>
        <time>2015-08-26T21:18:00Z</time>
      </trkpt>
      <trkpt lat="42.7528" lon="2.06789">
        <ele>1004.786</ele>
        <time>2015-08-26T21:18:20Z</time>
      </trkpt>
      <trkpt lat="42.75273" lon="2.06864">
        <ele>1003.145</ele>
        <time>2015-08-26T21:18:40Z</time>
      </trkpt>
      <trkpt lat="42.7526" lon="2.06891">
        <ele>999.447</ele>
        <time>2015-08-26T21:19:00Z</time>
      </trkpt>
      <trkpt lat="42.75242" lon="2.06906">
        <ele>998.711</ele>
        <time>2015-08-26T21:19:20Z</time>
      </trkpt>
      <trkpt lat="42.75152" lon="2.06949">
        <ele>1012.508</ele>
        <time>2015-08-26T21:19:40Z</time>
      </trkpt>
      <trkpt lat="42.75133" lon="2.06965">
        <ele>1028.28</ele>
        <time>2015-08-26T21:20:00Z</time>
      </trkpt>
      <trkpt lat="42.75133" lon="2.06982">
        <ele>1032.175</ele>
        <time>2015-08-26T21:20:20Z</time>
      </trkpt>
      <trkpt lat="42.75154" lon="2.07024">
        <ele>1025.146</ele>
        <time>2015-08-26T21:20:40Z</time>
      </trkpt>
      <trkpt lat="42.75166" lon="2.07066">
        <ele>1021.881</ele>
        <time>2015-08-26T21:21:00Z</time>
      </trkpt>
      <trkpt lat="42.75165" lon="2.07103">
        <ele>1018.49</ele>
        <time>2015-08-26T21:21:20Z</time>
      </trkpt>
      <trkpt lat="42.75161" lon="2.07147">
        <ele>1016.313</ele>
        <time>2015-08-26T21:21:40Z</time>
      </trkpt>
      <trkpt lat="42.7514" lon="2.07201">
        <ele>1023.33</ele>
        <time>2015-08-26T21:22:00Z</time>
      </trkpt>
      <trkpt lat="42.75132" lon="2.07251">
        <ele>1008.284</ele>
        <time>2015-08-26T21:22:20Z</time>
      </trkpt>
      <trkpt lat="42.75114" lon="2.07258">
        <ele>1004.196</ele>
        <time>2015-08-26T21:22:40Z</time>
      </trkpt>
      <trkpt lat="42.75045" lon="2.07234">
        <ele>1013.131</ele>
        <time>2015-08-26T21:23:00Z</time>
      </trkpt>
      <trkpt lat="42.75012" lon="2.07231">
        <ele>1024.224</ele>
        <time>2015-08-26T21:23:20Z</time>
      </trkpt>
      <trkpt lat="42.7499" lon="2.07248">
        <ele>1033.608</ele>
        <time>2015-08-26T21:23:40Z</time>
      </trkpt>
      <trkpt lat="42.7498" lon="2.07278">
        <ele>1036.155</ele>
        <time>2015-08-26T21:24:00Z</time>
      </trkpt>
      <trkpt lat="42.74966" lon="2.07384">
        <ele>1041.39</ele>
        <time>2015-08-26T21:24:20Z</time>
      </trkpt>
      <trkpt lat="42.74942" lon="2.07508">
        <ele>1058.911</ele>
        <time>2015-08-26T21:24:40Z</time>
      </trkpt>
      <trkpt lat="42.74953" lon="2.0755">
        <ele>1058.696</ele>
        <time>2015-08-26T21:25:00Z</time>
      </trkpt>
      <trkpt lat="42.74954" lon="2.07583">
        <ele>1058.935</ele>
        <time>2015-08-26T21:25:20Z</time>
      </trkpt>
      <trkpt lat="42.74945" lon="2.07616">
        <ele>1055.928</ele>
        <time>2015-08-26T21:25:40Z</time>
      </trkpt>
      <trkpt lat="42.74823" lon="2.07774">
        <ele>1052.195</ele>
        <time>2015-08-26T21:26:00Z</time>
      </trkpt>
      <trkpt lat="42.74786" lon="2.07784">
        <ele>1052.179</ele>
        <time>2015-08-26T21:26:20Z</time>
      </trkpt>
      <trkpt lat="42.74652" lon="2.0777">
        <ele>1073.884</ele>
        <time>2015-08-26T21:26:40Z</time>
      </trkpt>
      <trkpt lat="42.74634" lon="2.07775">
        <ele>1078.007</ele>
        <time>2015-08-26T21:27:00Z</time>
      </trkpt>
      <trkpt lat="42.74604" lon="2.07799">
        <ele>1079.117</ele>
        <time>2015-08-26T21:27:20Z</time>
      </trkpt>
      <trkpt lat="42.74582" lon="2.07825">
        <ele>1080.008</ele>
        <time>2015-08-26T21:27:40Z</time>
      </trkpt>
      <trkpt lat="42.74567" lon="2.07839">
        <ele>1085.284</ele>
        <time>2015-08-26T21:28:00Z</time>
      </trkpt>
      <trkpt lat="42.7454" lon="2.07895">
        <ele>1086.019</ele>
        <time>2015-08-26T21:28:20Z</time>
      </trkpt>
      <trkpt lat="42.74535" lon="2.07937">
        <ele>1075.64</ele>
        <time>2015-08-26T21:28:40Z</time>
      </trkpt>
      <trkpt lat="42.74518" lon="2.07962">
        <ele>1076.575</ele>
        <time>2015-08-26T21:29:00Z</time>
      </trkpt>
      <trkpt lat="42.74489" lon="2.08023">
        <ele>1075.414</ele>
        <time>2015-08-26T21:29:20Z</time>
      </trkpt>
      <trkpt lat="42.74472" lon="2.0805">
        <ele>1079.527</ele>
        <time>2015-08-26T21:29:40Z</time>
      </trkpt>
      <trkpt lat="42.74468" lon="2.08102">
        <ele>1063.444</ele>
        <time>2015-08-26T21:30:00Z</time>
      </trkpt>
      <trkpt lat="42.74433" lon="2.08146">
        <ele>1053.788</ele>
        <time>2015-08-26T21:30:20Z</time>
      </trkpt>
      <trkpt lat="42.74419" lon="2.08143">
        <ele>1049.786</ele>
        <time>2015-08-26T21:30:40Z</time>
      </trkpt>
      <trkpt lat="42.74359" lon="2.08063">
        <ele>1047.36</ele>
        <time>2015-08-26T21:31:00Z</time>
      </trkpt>
      <trkpt lat="42.74335" lon="2.08063">
        <ele>1042.726</ele>
        <time>2015-08-26T21:31:20Z</time>
      </trkpt>
      <trkpt lat="42.74298" lon="2.08026">
        <ele>1036.608</ele>
        <time>2015-08-26T21:31:40Z</time>
      </trkpt>
      <trkpt lat="42.74267" lon="2.07977">
        <ele>1036.594</ele>
        <time>2015-08-26T21:32:00Z</time>
      </trkpt>
      <trkpt lat="42.74223" lon="2.07914">
        <ele>1036.099</ele>
        <time>2015-08-26T21:32:20Z</time>
      </trkpt>
      <trkpt lat="42.74183" lon="2.07866">
        <ele>1044.58</ele>
        <time>2015-08-26T21:32:40Z</time>
      </trkpt>
      <trkpt lat="42.74172" lon="2.07871">
        <ele>1044.715</ele>
        <time>2015-08-26T21:33:00Z</time>
      </trkpt>
      <trkpt lat="42.7414" lon="2.07916">
        <ele>1049.054</ele>
        <time>2015-08-26T21:33:20Z</time>
      </trkpt>
      <trkpt lat="42.74119" lon="2.07961">
        <ele>1052.827</ele>
        <time>2015-08-26T21:33:40Z</time>
      </trkpt>
      <trkpt lat="42.74093" lon="2.08049">
        <ele>1043.984</ele>
        <time>2015-08-26T21:34:00Z</time>
      </trkpt>
      <trkpt lat="42.74082" lon="2.08058">
        <ele>1046.638</ele>
        <time>2015-08-26T21:34:20Z</time>
      </trkpt>
      <trkpt lat="42.74063" lon="2.08064">
        <ele>1051.872</ele>
        <time>2015-08-26T21:34:40Z</time>
      </trkpt>
      <trkpt lat="42.74055" lon="2.08084">
        <ele>1051.413</ele>
        <time>2015-08-26T21:35:00Z</time>
      </trkpt>
      <trkpt lat="42.74027" lon="2.08218">
        <ele>1055.014</ele>
        <time>2015-08-26T21:35:20Z</time>
      </trkpt>
      <trkpt lat="42.74014" lon="2.0823">
        <ele>1052.208</ele>
        <time>2015-08-26T21:35:40Z</time>
      </trkpt>
      <trkpt lat="42.73973" lon="2.08234">
        <ele>1051.643</ele>
        <time>2015-08-26T21:36:00Z</time>
      </trkpt>
      <trkpt lat="42.73923" lon="2.08252">
        <ele>1050.758</ele>
        <time>2015-08-26T21:36:20Z</time>
      </trkpt>
      <trkpt lat="42.73879" lon="2.08281">
        <ele>1040.299</ele>
        <time>2015-08-26T21:36:40Z</time>
      </trkpt>
      <trkpt lat="42.73849" lon="2.08271">
        <ele>1033.224</ele>
        <time>2015-08-26T21:37:00Z</time>
      </trkpt>
      <trkpt lat="42.7381" lon="2.08234">
        <ele>1030.573</ele>
        <time>2015-08-26T21:37:20Z</time>
      </trkpt>
      <trkpt lat="42.73776" lon="2.0819">
        <ele>1034.926</ele>
        <time>2015-08-26T21:37:40Z</time>
      </trkpt>
      <trkpt lat="42.73754" lon="2.08177">
        <ele>1032.113</ele>
        <time>2015-08-26T21:38:00Z</time>
      </trkpt>
      <trkpt lat="42.73734" lon="2.08149">
        <ele>1031.457</ele>
        <time>2015-08-26T21:38:20Z</time>
      </trkpt>
      <trkpt lat="42.73691" lon="2.0805">
        <ele>1032.994</ele>
        <time>2015-08-26T21:38:40Z</time>
      </trkpt>
      <trkpt lat="42.73654" lon="2.07999">
        <ele>1030.557</ele>
        <time>2015-08-26T21:39:00Z</time>
      </trkpt>
      <trkpt lat="42.73633" lon="2.07956">
        <ele>1028.822</ele>
        <time>2015-08-26T21:39:20Z</time>
      </trkpt>
      <trkpt lat="42.73629" lon="2.07872">
        <ele>1037.508</ele>
        <time>2015-08-26T21:39:40Z</time>
      </trkpt>
      <trkpt lat="42.73608" lon="2.07774">
        <ele>1038.235</ele>
        <time>2015-08-26T21:40:00Z</time>
      </trkpt>
      <trkpt lat="42.73602" lon="2.07688">
        <ele>1048.18</ele>
        <time>2015-08-26T21:40:20Z</time>
      </trkpt>
      <trkpt lat="42.73594" lon="2.07657">
        <ele>1051.811</ele>
        <time>2015-08-26T21:40:40Z</time>
      </trkpt>
      <trkpt lat="42.73575" lon="2.07649">
        <ele>1050.096</ele>
        <time>2015-08-26T21:41:00Z</time>
      </trkpt>
      <trkpt lat="42.73501" lon="2.07654">
        <ele>1046.425</ele>
        <time>2015-08-26T21:41:20Z</time>
      </trkpt>
      <trkpt lat="42.73467" lon="2.07665">
        <ele>1037.118</ele>
        <time>2015-08-26T21:41:40Z</time>
      </trkpt>
      <trkpt lat="42.73441" lon="2.07649">
        <ele>1033.365</ele>
        <time>2015-08-26T21:42:00Z</time>
      </trkpt>
      <trkpt lat="42.73416" lon="2.07608">
        <ele>1032.489</ele>
        <time>2015-08-26T21:42:20Z</time>
      </trkpt>
      <trkpt lat="42.73385" lon="2.07517">
        <ele>1036.232</ele>
        <time>2015-08-26T21:42:40Z</time>
      </trkpt>
      <trkpt lat="42.73345" lon="2.07471">
        <ele>1023.692</ele>
        <time>2015-08-26T21:43:00Z</time>
      </trkpt>
      <trkpt lat="42.73333" lon="2.07426">
        <ele>1020.411</ele>
        <time>2015-08-26T21:43:20Z</time>
      </trkpt>
      <trkpt lat="42.73331" lon="2.07371">
        <ele>1021.808</ele>
        <time>2015-08-26T21:43:40Z</time>
      </trkpt>
      <trkpt lat="42.73321" lon="2.07318">
        <ele>1019.929</ele>
        <time>2015-08-26T21:44:00Z</time>
      </trkpt>
      <trkpt lat="42.73313" lon="2.07262">
        <ele>1021.464</ele>
        <time>2015-08-26T21:44:20Z</time>
      </trkpt>
      <trkpt lat="42.73295" lon="2.07246">
        <ele>1015.485</ele>
        <time>2015-08-26T21:44:40Z</time>
      </trkpt>
      <trkpt lat="42.73224" lon="2.0708">
        <ele>1006.33</ele>
        <time>2015-08-26T21:45:00Z</time>
      </trkpt>
      <trkpt lat="42.73129" lon="2.06886">
        <ele>1002.559</ele>
        <time>2015-08-26T21:45:20Z</time>
      </trkpt>
      <trkpt lat="42.73081" lon="2.06818">
        <ele>995.212</ele>
        <time>2015-08-26T21:45:40Z</time>
      </trkpt>
      <trkpt lat="42.73088" lon="2.06664">
        <ele>1018.699</ele>
        <time>2015-08-26T21:46:00Z</time>
      </trkpt>
      <trkpt lat="42.73072" lon="2.06464">
        <ele>1037.993</ele>
        <time>2015-08-26T21:46:20Z</time>
      </trkpt>
      <trkpt lat="42.73058" lon="2.06413">
        <ele>1037.412</ele>
        <time>2015-08-26T21:46:40Z</time>
      </trkpt>
      <trkpt lat="42.73059" lon="2.0634">
        <ele>1047.532</ele>
        <time>2015-08-26T21:47:00Z</time>
      </trkpt>
      <trkpt lat="42.73049" lon="2.06287">
        <ele>1049.805</ele>
        <time>2015-08-26T21:47:20Z</time>
      </trkpt>
      <trkpt lat="42.73059" lon="2.06173">
        <ele>1069.708</ele>
        <time>2015-08-26T21:47:40Z</time>
      </trkpt>
      <trkpt lat="42.73014" lon="2.06022">
        <ele>1086.197</ele>
        <time>2015-08-26T21:48:00Z</time>
      </trkpt>
      <trkpt lat="42.73049" lon="2.05972">
        <ele>1093.762</ele>
        <time>2015-08-26T21:48:20Z</time>
      </trkpt>
      <trkpt lat="42.73067" lon="2.0589">
        <ele>1105.123</ele>
        <time>2015-08-26T21:48:40Z</time>
      </trkpt>
      <trkpt lat="42.73056" lon="2.05825">
        <ele>1108.428</ele>
        <time>2015-08-26T21:49:00Z</time>
      </trkpt>
      <trkpt lat="42.73047" lon="2.0572">
        <ele>1119.937</ele>
        <time>2015-08-26T21:49:20Z</time>
      </trkpt>
      <trkpt lat="42.73013" lon="2.05652">
        <ele>1119.41</ele>
        <time>2015-08-26T21:49:40Z</time>
      </trkpt>
      <trkpt lat="42.7301" lon="2.05627">
        <ele>1121.777</ele>
        <time>2015-08-26T21:50:00Z</time>
      </trkpt>
      <trkpt lat="42.72976" lon="2.05553">
        <ele>1130.421</ele>
        <time>2015-08-26T21:50:20Z</time>
      </trkpt>
      <trkpt lat="42.7295" lon="2.05576">
        <ele>1134.027</ele>
        <time>2015-08-26T21:50:40Z</time>
      </trkpt>
      <trkpt lat="42.72925" lon="2.05611">
        <ele>1136.668</ele>
        <time>2015-08-26T21:51:00Z</time>
      </trkpt>
      <trkpt lat="42.72832" lon="2.0588">
        <ele>1146.214</ele>
        <time>2015-08-26T21:51:20Z</time>
      </trkpt>
      <trkpt lat="42.72794" lon="2.05946">
        <ele>1155.508</ele>
        <time>2015-08-26T21:51:40Z</time>
      </trkpt>
      <trkpt lat="42.72756" lon="2.05994">
        <ele>1165.438</ele>
        <time>2015-08-26T21:52:00Z</time>
      </trkpt>
      <trkpt lat="42.72709" lon="2.06044">
        <ele>1172.273</ele>
        <time>2015-08-26T21:52:20Z</time>
      </trkpt>
      <trkpt lat="42.72639" lon="2.06102">
        <ele>1182.284</ele>
        <time>2015-08-26T21:52:40Z</time>
      </trkpt>
      <trkpt lat="42.72626" lon="2.06051">
        <ele>1186.329</ele>
        <time>2015-08-26T21:53:00Z</time>
      </trkpt>
      <trkpt lat="42.7263" lon="2.06026">
        <ele>1190.788</ele>
        <time>2015-08-26T21:53:20Z</time>
      </trkpt>
      <trkpt lat="42.72629" lon="2.05985">
        <ele>1196.971</ele>
        <time>2015-08-26T21:53:40Z</time>
      </trkpt>
      <trkpt lat="42.72624" lon="2.05961">
        <ele>1200.788</ele>
        <time>2015-08-26T21:54:00Z</time>
      </trkpt>
      <trkpt lat="42.72629" lon="2.0593">
        <ele>1207.642</ele>
        <time>2015-08-26T21:54:20Z</time>
      </trkpt>
      <trkpt lat="42.7259" lon="2.05805">
        <ele>1224.358</ele>
        <time>2015-08-26T21:54:40Z</time>
      </trkpt>
      <trkpt lat="42.72587" lon="2.05779">
        <ele>1228.352</ele>
        <time>2015-08-26T21:55:00Z</time>
      </trkpt>
      <trkpt lat="42.72558" lon="2.05687">
        <ele>1238.317</ele>
        <time>2015-08-26T21:55:20Z</time>
      </trkpt>
      <trkpt lat="42.72541" lon="2.05649">
        <ele>1244.008</ele>
        <time>2015-08-26T21:55:40Z</time>
      </trkpt>
      <trkpt lat="42.7254" lon="2.05633">
        <ele>1247.631</ele>
        <time>2015-08-26T21:56:00Z</time>
      </trkpt>
      <trkpt lat="42.72565" lon="2.05611">
        <ele>1253.046</ele>
        <time>2015-08-26T21:56:20Z</time>
      </trkpt>
      <trkpt lat="42.72545" lon="2.05574">
        <ele>1257.087</ele>
        <time>2015-08-26T21:56:40Z</time>
      </trkpt>
      <trkpt lat="42.72547" lon="2.05524">
        <ele>1265.322</ele>
        <time>2015-08-26T21:57:00Z</time>
      </trkpt>
      <trkpt lat="42.7254" lon="2.05471">
        <ele>1273.381</ele>
        <time>2015-08-26T21:57:20Z</time>
      </trkpt>
      <trkpt lat="42.72498" lon="2.05386">
        <ele>1284.264</ele>
        <time>2015-08-26T21:57:40Z</time>
      </trkpt>
      <trkpt lat="42.72484" lon="2.05332">
        <ele>1289.811</ele>
        <time>2015-08-26T21:58:00Z</time>
      </trkpt>
      <trkpt lat="42.72443" lon="2.05268">
        <ele>1300.935</ele>
        <time>2015-08-26T21:58:20Z</time>
      </trkpt>
      <trkpt lat="42.72407" lon="2.05169">
        <ele>1312.381</ele>
        <time>2015-08-26T21:58:40Z</time>
      </trkpt>
      <trkpt lat="42.72355" lon="2.05088">
        <ele>1323.161</ele>
        <time>2015-08-26T21:59:00Z</time>
      </trkpt>
      <trkpt lat="42.72275" lon="2.05012">
        <ele>1339.217</ele>
        <time>2015-08-26T21:59:20Z</time>
      </trkpt>
      <trkpt lat="42.72204" lon="2.04905">
        <ele>1354.508</ele>
        <time>2015-08-26T21:59:40Z</time>
      </trkpt>
      <trkpt lat="42.72078" lon="2.04778">
        <ele>1378.684</ele>
        <time>2015-08-26T22:00:00Z</time>
      </trkpt>
      <trkpt lat="42.72033" lon="2.04724">
        <ele>1379.999</ele>
        <time>2015-08-26T22:00:20Z</time>
      </trkpt>
      <trkpt lat="42.71996" lon="2.04726">
        <ele>1379.02</ele>
        <time>2015-08-26T22:00:40Z</time>
      </trkpt>
      <trkpt lat="42.71906" lon="2.04632">
        <ele>1392.155</ele>
        <time>2015-08-26T22:01:00Z</time>
      </trkpt>
      <trkpt lat="42.71872" lon="2.04573">
        <ele>1405.814</ele>
        <time>2015-08-26T22:01:20Z</time>
      </trkpt>
      <trkpt lat="42.71754" lon="2.04501">
        <ele>1418.687</ele>
        <time>2015-08-26T22:01:40Z</time>
      </trkpt>
      <trkpt lat="42.71714" lon="2.04452">
        <ele>1420.014</ele>
        <time>2015-08-26T22:02:00Z</time>
      </trkpt>
      <trkpt lat="42.71637" lon="2.04413">
        <ele>1428.958</ele>
        <time>2015-08-26T22:02:20Z</time>
      </trkpt>
      <trkpt lat="42.71618" lon="2.04388">
        <ele>1429.783</ele>
        <time>2015-08-26T22:02:40Z</time>
      </trkpt>
      <trkpt lat="42.71382" lon="2.04235">
        <ele>1463.325</ele>
        <time>2015-08-26T22:03:00Z</time>
      </trkpt>
      <trkpt lat="42.71291" lon="2.04184">
        <ele>1476.317</ele>
        <time>2015-08-26T22:03:20Z</time>
      </trkpt>
      <trkpt lat="42.71241" lon="2.04159">
        <ele>1482.808</ele>
        <time>2015-08-26T22:03:40Z</time>
      </trkpt>
      <trkpt lat="42.71129" lon="2.04065">
        <ele>1507.264</ele>
        <time>2015-08-26T22:04:00Z</time>
      </trkpt>
      <trkpt lat="42.71108" lon="2.04084">
        <ele>1518.039</ele>
        <time>2015-08-26T22:04:20Z</time>
      </trkpt>
      <trkpt lat="42.71088" lon="2.04081">
        <ele>1523.39</ele>
        <time>2015-08-26T22:04:40Z</time>
      </trkpt>
      <trkpt lat="42.71033" lon="2.04027">
        <ele>1528.115</ele>
        <time>2015-08-26T22:05:00Z</time>
      </trkpt>
      <trkpt lat="42.70957" lon="2.0398">
        <ele>1543.564</ele>
        <time>2015-08-26T22:05:20Z</time>
      </trkpt>
      <trkpt lat="42.70863" lon="2.03883">
        <ele>1557.537</ele>
        <time>2015-08-26T22:05:40Z</time>
      </trkpt>
      <trkpt lat="42.70787" lon="2.03799">
        <ele>1569.674</ele>
        <time>2015-08-26T22:06:00Z</time>
      </trkpt>
      <trkpt lat="42.70719" lon="2.03774">
        <ele>1587.128</ele>
        <time>2015-08-26T22:06:20Z</time>
      </trkpt>
      <trkpt lat="42.70662" lon="2.03762">
        <ele>1597.732</ele>
        <time>2015-08-26T22:06:40Z</time>
      </trkpt>
      <trkpt lat="42.70599" lon="2.03757">
        <ele>1601.792</ele>
        <time>2015-08-26T22:07:00Z</time>
      </trkpt>
      <trkpt lat="42.70576" lon="2.0377">
        <ele>1603.211</ele>
        <time>2015-08-26T22:07:20Z</time>
      </trkpt>
      <trkpt lat="42.70546" lon="2.03794">
        <ele>1605.908</ele>
        <time>2015-08-26T22:07:40Z</time>
      </trkpt>
      <trkpt lat="42.70491" lon="2.03815">
        <ele>1610.619</ele>
        <time>2015-08-26T22:08:00Z</time>
      </trkpt>
      <trkpt lat="42.70378" lon="2.03828">
        <ele>1618.544</ele>
        <time>2020-12-02T05:10:48Z</time>
      </trkpt>
      <trkpt lat="42.7034" lon="2.0381">
        <ele>1621.455</ele>
        <time>2020-12-02T05:11:08Z</time>
      </trkpt>
      <trkpt lat="42.70278" lon="2.03829">
        <ele>1627.05</ele>
        <time>2015-08-26T22:09:20Z</time>
      </trkpt>
      <trkpt lat="42.70262" lon="2.03822">
        <ele>1629.079</ele>
        <time>2015-08-26T22:09:40Z</time>
      </trkpt>
      <trkpt lat="42.70228" lon="2.03822">
        <ele>1633.732</ele>
        <time>2015-08-26T22:10:00Z</time>
      </trkpt>
      <trkpt lat="42.70209" lon="2.03831">
        <ele>1636.469</ele>
        <time>2015-08-26T22:10:20Z</time>
      </trkpt>
      <trkpt lat="42.70195" lon="2.03845">
        <ele>1638.833</ele>
        <time>2015-08-26T22:10:40Z</time>
      </trkpt>
      <trkpt lat="42.70169" lon="2.03832">
        <ele>1642.515</ele>
        <time>2015-08-26T22:11:00Z</time>
      </trkpt>
      <trkpt lat="42.70145" lon="2.03826">
        <ele>1646.065</ele>
        <time>2015-08-26T22:11:20Z</time>
      </trkpt>
      <trkpt lat="42.70097" lon="2.038">
        <ele>1651.711</ele>
        <time>2015-08-26T22:11:40Z</time>
      </trkpt>
      <trkpt lat="42.70034" lon="2.03733">
        <ele>1659.808</ele>
        <time>2015-08-26T22:12:00Z</time>
      </trkpt>
      <trkpt lat="42.69978" lon="2.03705">
        <ele>1669.437</ele>
        <time>2015-08-26T22:12:20Z</time>
      </trkpt>
      <trkpt lat="42.69934" lon="2.0366">
        <ele>1679.172</ele>
        <time>2015-08-26T22:12:40Z</time>
      </trkpt>
      <trkpt lat="42.69919" lon="2.03603">
        <ele>1683.453</ele>
        <time>2015-08-26T22:13:00Z</time>
      </trkpt>
      <trkpt lat="42.69742" lon="2.03422">
        <ele>1708.018</ele>
        <time>2019-03-29T15:14:02Z</time>
      </trkpt>
      <trkpt lat="42.69532" lon="2.03399">
        <ele>1727.067</ele>
        <time>2019-03-29T15:14:22Z</time>
      </trkpt>
      <trkpt lat="42.69455" lon="2.03308">
        <ele>1730.84</ele>
        <time>2019-03-29T15:14:42Z</time>
      </trkpt>
      <trkpt lat="42.69356" lon="2.03243">
        <ele>1731.057</ele>
        <time>2015-08-26T22:16:40Z</time>
      </trkpt>
      <trkpt lat="42.69303" lon="2.03161">
        <ele>1729.371</ele>
        <time>2015-08-26T22:17:00Z</time>
      </trkpt>
      <trkpt lat="42.6929" lon="2.03014">
        <ele>1734.328</ele>
        <time>2015-08-26T22:17:20Z</time>
      </trkpt>
      <trkpt lat="42.69291" lon="2.02932">
        <ele>1737.289</ele>
        <time>2015-08-26T22:17:40Z</time>
      </trkpt>
      <trkpt lat="42.69305" lon="2.02897">
        <ele>1738.617</ele>
        <time>2015-08-26T22:18:00Z</time>
      </trkpt>
      <trkpt lat="42.69306" lon="2.02854">
        <ele>1743.208</ele>
        <time>2015-08-26T22:18:20Z</time>
      </trkpt>
      <trkpt lat="42.69329" lon="2.02781">
        <ele>1751.828</ele>
        <time>2015-08-26T22:18:40Z</time>
      </trkpt>
      <trkpt lat="42.69346" lon="2.02746">
        <ele>1754.433</ele>
        <time>2015-08-26T22:19:00Z</time>
      </trkpt>
      <trkpt lat="42.69368" lon="2.02714">
        <ele>1756.584</ele>
        <time>2015-08-26T22:19:20Z</time>
      </trkpt>
      <trkpt lat="42.69412" lon="2.02665">
        <ele>1757.719</ele>
        <time>2015-08-26T22:19:40Z</time>
      </trkpt>
      <trkpt lat="42.69432" lon="2.0263">
        <ele>1759.958</ele>
        <time>2015-08-26T22:20:00Z</time>
      </trkpt>
      <trkpt lat="42.69399" lon="2.02582">
        <ele>1771.541</ele>
        <time>2015-08-26T22:20:20Z</time>
      </trkpt>
      <trkpt lat="42.69395" lon="2.02543">
        <ele>1770.818</ele>
        <time>2015-08-26T22:20:40Z</time>
      </trkpt>
      <trkpt lat="42.69376" lon="2.02506">
        <ele>1771.572</ele>
        <time>2015-08-26T22:21:00Z</time>
      </trkpt>
      <trkpt lat="42.6935" lon="2.02479">
        <ele>1776.931</ele>
        <time>2015-08-26T22:21:20Z</time>
      </trkpt>
      <trkpt lat="42.69312" lon="2.02378">
        <ele>1771.061</ele>
        <time>2015-08-26T22:21:40Z</time>
      </trkpt>
      <trkpt lat="42.69271" lon="2.02295">
        <ele>1766.307</ele>
        <time>2015-08-26T22:22:00Z</time>
      </trkpt>
      <trkpt lat="42.69236" lon="2.0225">
        <ele>1758.508</ele>
        <time>2015-08-26T22:22:20Z</time>
      </trkpt>
      <trkpt lat="42.69201" lon="2.02227">
        <ele>1757.629</ele>
        <time>2015-08-26T22:22:40Z</time>
      </trkpt>
      <trkpt lat="42.69095" lon="2.02195">
        <ele>1765.214</ele>
        <time>2015-08-26T22:23:00Z</time>
      </trkpt>
      <trkpt lat="42.69085" lon="2.02138">
        <ele>1769.265</ele>
        <time>2015-08-26T22:23:20Z</time>
      </trkpt>
      <trkpt lat="42.6907" lon="2.02098">
        <ele>1778.58</ele>
        <time>2015-08-26T22:23:40Z</time>
      </trkpt>
      <trkpt lat="42.69041" lon="2.02049">
        <ele>1784.169</ele>
        <time>2015-08-26T22:24:00Z</time>
      </trkpt>
      <trkpt lat="42.69007" lon="2.0201">
        <ele>1784.252</ele>
        <time>2015-08-26T22:24:20Z</time>
      </trkpt>
      <trkpt lat="42.68936" lon="2.02003">
        <ele>1785.739</ele>
        <time>2015-08-26T22:24:40Z</time>
      </trkpt>
      <trkpt lat="42.68905" lon="2.01979">
        <ele>1788.583</ele>
        <time>2015-08-26T22:25:00Z</time>
      </trkpt>
      <trkpt lat="42.68818" lon="2.01963">
        <ele>1809.198</ele>
        <time>2015-08-26T22:25:20Z</time>
      </trkpt>
      <trkpt lat="42.68788" lon="2.01938">
        <ele>1810.315</ele>
        <time>2015-08-26T22:25:40Z</time>
      </trkpt>
      <trkpt lat="42.68629" lon="2.01696">
        <ele>1876.526</ele>
        <time>2015-08-26T22:26:00Z</time>
      </trkpt>
      <trkpt lat="42.68615" lon="2.01617">
        <ele>1888.208</ele>
        <time>2015-08-26T22:26:20Z</time>
      </trkpt>
      <trkpt lat="42.68556" lon="2.0157">
        <ele>1891.515</ele>
        <time>2015-08-26T22:26:40Z</time>
      </trkpt>
      <trkpt lat="42.68533" lon="2.01525">
        <ele>1898.68</ele>
        <time>2015-08-26T22:27:00Z</time>
      </trkpt>
      <trkpt lat="42.68506" lon="2.01493">
        <ele>1902.881</ele>
        <time>2015-08-26T22:27:20Z</time>
      </trkpt>
      <trkpt lat="42.68465" lon="2.01486">
        <ele>1908.886</ele>
        <time>2015-08-26T22:27:40Z</time>
      </trkpt>
      <trkpt lat="42.68399" lon="2.01491">
        <ele>1928.585</ele>
        <time>2015-08-26T22:28:00Z</time>
      </trkpt>
      <trkpt lat="42.68376" lon="2.01485">
        <ele>1933.858</ele>
        <time>2015-08-26T22:28:20Z</time>
      </trkpt>
      <trkpt lat="42.68356" lon="2.01456">
        <ele>1938.065</ele>
        <time>2015-08-26T22:28:40Z</time>
      </trkpt>
      <trkpt lat="42.68317" lon="2.01425">
        <ele>1941.439</ele>
        <time>2015-08-26T22:29:00Z</time>
      </trkpt>
      <trkpt lat="42.68295" lon="2.01402">
        <ele>1945.012</ele>
        <time>2015-08-26T22:29:20Z</time>
      </trkpt>
      <trkpt lat="42.68228" lon="2.0136">
        <ele>1955.132</ele>
        <time>2015-08-26T22:29:40Z</time>
      </trkpt>
      <trkpt lat="42.68217" lon="2.01347">
        <ele>1957.505</ele>
        <time>2015-08-26T22:30:00Z</time>
      </trkpt>
      <trkpt lat="42.6819" lon="2.01329">
        <ele>1963.308</ele>
        <time>2015-08-26T22:30:20Z</time>
      </trkpt>
      <trkpt lat="42.68176" lon="2.01307">
        <ele>1971.187</ele>
        <time>2015-08-26T22:30:40Z</time>
      </trkpt>
      <trkpt lat="42.68153" lon="2.01298">
        <ele>1977.272</ele>
        <time>2015-08-26T22:31:00Z</time>
      </trkpt>
      <trkpt lat="42.68109" lon="2.01272">
        <ele>1984.163</ele>
        <time>2015-08-26T22:31:20Z</time>
      </trkpt>
      <trkpt lat="42.68078" lon="2.01204">
        <ele>1989.788</ele>
        <time>2015-08-26T22:31:40Z</time>
      </trkpt>
      <trkpt lat="42.68072" lon="2.01172">
        <ele>1992.847</ele>
        <time>2015-08-26T22:32:00Z</time>
      </trkpt>
      <trkpt lat="42.68043" lon="2.01116">
        <ele>1998.92</ele>
        <time>2015-08-26T22:32:20Z</time>
      </trkpt>
      <trkpt lat="42.68026" lon="2.01115">
        <ele>1998.197</ele>
        <time>2015-08-26T22:32:40Z</time>
      </trkpt>
      <trkpt lat="42.6801" lon="2.01079">
        <ele>2010.061</ele>
        <time>2015-08-26T22:33:00Z</time>
      </trkpt>
      <trkpt lat="42.67997" lon="2.01065">
        <ele>2012.763</ele>
        <time>2015-08-26T22:33:20Z</time>
      </trkpt>
      <trkpt lat="42.67984" lon="2.01068">
        <ele>2016.444</ele>
        <time>2015-08-26T22:33:40Z</time>
      </trkpt>
      <trkpt lat="42.67971" lon="2.01036">
        <ele>2020.918</ele>
        <time>2015-08-26T22:34:00Z</time>
      </trkpt>
      <trkpt lat="42.67939" lon="2.01001">
        <ele>2031.108</ele>
        <time>2015-08-26T22:34:20Z</time>
      </trkpt>
      <trkpt lat="42.6791" lon="2.00942">
        <ele>2041.672</ele>
        <time>2015-08-26T22:34:40Z</time>
      </trkpt>
      <trkpt lat="42.67894" lon="2.00932">
        <ele>2038.227</ele>
        <time>2015-08-26T22:35:00Z</time>
      </trkpt>
      <trkpt lat="42.6788" lon="2.00903">
        <ele>2037.858</ele>
        <time>2015-08-26T22:35:20Z</time>
      </trkpt>
      <trkpt lat="42.67784" lon="2.00808">
        <ele>2045.033</ele>
        <time>2015-08-26T22:35:40Z</time>
      </trkpt>
      <trkpt lat="42.67771" lon="2.0077">
        <ele>2051.162</ele>
        <time>2015-08-26T22:36:00Z</time>
      </trkpt>
      <trkpt lat="42.67756" lon="2.00754">
        <ele>2053.915</ele>
        <time>2015-08-26T22:36:20Z</time>
      </trkpt>
      <trkpt lat="42.67731" lon="2.0076">
        <ele>2056.992</ele>
        <time>2015-08-26T22:36:40Z</time>
      </trkpt>
      <trkpt lat="42.67718" lon="2.00739">
        <ele>2063.986</ele>
        <time>2015-08-26T22:37:00Z</time>
      </trkpt>
      <trkpt lat="42.67701" lon="2.00695">
        <ele>2080.439</ele>
        <time>2015-08-26T22:37:20Z</time>
      </trkpt>
      <trkpt lat="42.67649" lon="2.00632">
        <ele>2114.701</ele>
        <time>2015-08-26T22:37:40Z</time>
      </trkpt>
      <trkpt lat="42.67583" lon="2.00578">
        <ele>2143.021</ele>
        <time>2015-08-26T22:38:00Z</time>
      </trkpt>
      <trkpt lat="42.67545" lon="2.00532">
        <ele>2158.208</ele>
        <time>2015-08-26T22:38:20Z</time>
      </trkpt>
      <trkpt lat="42.67508" lon="2.00473">
        <ele>2173.589</ele>
        <time>2015-08-26T22:38:40Z</time>
      </trkpt>
      <trkpt lat="42.67498" lon="2.00434">
        <ele>2176.264</ele>
        <time>2015-08-26T22:39:00Z</time>
      </trkpt>
      <trkpt lat="42.67483" lon="2.0039">
        <ele>2181.915</ele>
        <time>2015-08-26T22:39:20Z</time>
      </trkpt>
      <trkpt lat="42.6747" lon="2.00328">
        <ele>2191.25</ele>
        <time>2015-08-26T22:39:40Z</time>
      </trkpt>
      <trkpt lat="42.67475" lon="2.00304">
        <ele>2191.469</ele>
        <time>2015-08-26T22:40:00Z</time>
      </trkpt>
      <trkpt lat="42.67472" lon="2.0028">
        <ele>2198.982</ele>
        <time>2015-08-26T22:40:20Z</time>
      </trkpt>
      <trkpt lat="42.67476" lon="2.00233">
        <ele>2204.389</ele>
        <time>2019-03-29T15:39:02Z</time>
      </trkpt>
      <trkpt lat="42.67459" lon="2.00197">
        <ele>2228.383</ele>
        <time>2019-03-29T15:39:22Z</time>
      </trkpt>
      <trkpt lat="42.67462" lon="2.00171">
        <ele>2236.374</ele>
        <time>2020-12-02T05:41:08Z</time>
      </trkpt>
      <trkpt lat="42.67452" lon="2.00157">
        <ele>2247.356</ele>
        <time>2020-12-02T05:41:28Z</time>
      </trkpt>
      <trkpt lat="42.67442" lon="2.00156">
        <ele>2252.921</ele>
        <time>2020-12-02T05:41:48Z</time>
      </trkpt>
      <trkpt lat="42.67435" lon="2.00125">
        <ele>2259.008</ele>
        <time>2020-12-02T05:42:08Z</time>
      </trkpt>
      <trkpt lat="42.67413" lon="2.00131">
        <ele>2273.853</ele>
        <time>2020-12-02T05:42:28Z</time>
      </trkpt>
      <trkpt lat="42.67381" lon="2.00083">
        <ele>2260.098</ele>
        <time>2020-12-02T05:42:48Z</time>
      </trkpt>
      <trkpt lat="42.67278" lon="2.00041">
        <ele>2253.849</ele>
        <time>2020-12-02T05:43:08Z</time>
      </trkpt>
      <trkpt lat="42.67209" lon="2.00041">
        <ele>2227.124</ele>
        <time>2020-12-02T05:43:28Z</time>
      </trkpt>
      <trkpt lat="42.67184" lon="2.00013">
        <ele>2202.813</ele>
        <time>2020-12-02T05:43:48Z</time>
      </trkpt>
      <trkpt lat="42.67173" lon="1.99993">
        <ele>2189.136</ele>
        <time>2020-12-02T05:44:08Z</time>
      </trkpt>
      <trkpt lat="42.6719" lon="1.99969">
        <ele>2187.933</ele>
        <time>2020-12-02T05:44:28Z</time>
      </trkpt>
      <trkpt lat="42.67179" lon="1.99959">
        <ele>2179.267</ele>
        <time>2020-12-02T05:44:48Z</time>
      </trkpt>
      <trkpt lat="42.67185" lon="1.99935">
        <ele>2174.363</ele>
        <time>2020-12-02T05:45:08Z</time>
      </trkpt>
      <trkpt lat="42.67142" lon="1.99872">
        <ele>2135.744</ele>
        <time>2020-12-02T05:45:28Z</time>
      </trkpt>
      <trkpt lat="42.67145" lon="1.9982">
        <ele>2123.518</ele>
        <time>2020-12-02T05:45:48Z</time>
      </trkpt>
      <trkpt lat="42.67161" lon="1.99742">
        <ele>2111.008</ele>
        <time>2020-12-02T05:46:08Z</time>
      </trkpt>
      <trkpt lat="42.67186" lon="1.99674">
        <ele>2102.852</ele>
        <time>2020-12-02T05:46:28Z</time>
      </trkpt>
      <trkpt lat="42.67215" lon="1.9955">
        <ele>2097.977</ele>
        <time>2020-12-02T05:46:48Z</time>
      </trkpt>
      <trkpt lat="42.67217" lon="1.99494">
        <ele>2093.538</ele>
        <time>2020-12-02T05:47:08Z</time>
      </trkpt>
      <trkpt lat="42.67228" lon="1.9946">
        <ele>2085.623</ele>
        <time>2020-12-02T05:47:28Z</time>
      </trkpt>
      <trkpt lat="42.67228" lon="1.99428">
        <ele>2079.972</ele>
        <time>2019-03-29T15:44:42Z</time>
      </trkpt>
      <trkpt lat="42.67197" lon="1.99407">
        <ele>2064.125</ele>
        <time>2019-03-29T15:45:02Z</time>
      </trkpt>
      <trkpt lat="42.67185" lon="1.99423">
        <ele>2064.722</ele>
        <time>2019-03-29T15:45:22Z</time>
      </trkpt>
      <trkpt lat="42.67138" lon="1.99415">
        <ele>2050.316</ele>
        <time>2019-03-29T15:45:42Z</time>
      </trkpt>
      <trkpt lat="42.67095" lon="1.99365">
        <ele>2035.354</ele>
        <time>2019-03-29T15:46:02Z</time>
      </trkpt>
      <trkpt lat="42.67058" lon="1.99358">
        <ele>2030.056</ele>
        <time>2019-03-29T15:46:22Z</time>
      </trkpt>
      <trkpt lat="42.67001" lon="1.99306">
        <ele>2025.911</ele>
        <time>2019-03-29T15:46:42Z</time>
      </trkpt>
      <trkpt lat="42.66964" lon="1.99312">
        <ele>2019.708</ele>
        <time>2020-12-02T05:50:08Z</time>
      </trkpt>
      <trkpt lat="42.66969" lon="1.99288">
        <ele>2017.451</ele>
        <time>2019-03-29T15:47:22Z</time>
      </trkpt>
      <trkpt lat="42.66966" lon="1.9922">
        <ele>2010.986</ele>
        <time>2015-08-26T22:51:00Z</time>
      </trkpt>
      <trkpt lat="42.66952" lon="1.99187">
        <ele>2008.397</ele>
        <time>2015-08-26T22:51:20Z</time>
      </trkpt>
      <trkpt lat="42.66915" lon="1.99156">
        <ele>2002.822</ele>
        <time>2015-08-26T22:51:40Z</time>
      </trkpt>
      <trkpt lat="42.66887" lon="1.99154">
        <ele>1999.931</ele>
        <time>2015-08-26T22:52:00Z</time>
      </trkpt>
      <trkpt lat="42.66804" lon="1.99059">
        <ele>1960.554</ele>
        <time>2015-08-26T22:52:20Z</time>
      </trkpt>
      <trkpt lat="42.66795" lon="1.99042">
        <ele>1956.181</ele>
        <time>2015-08-26T22:52:40Z</time>
      </trkpt>
      <trkpt lat="42.66782" lon="1.99036">
        <ele>1956.535</ele>
        <time>2015-08-26T22:53:00Z</time>
      </trkpt>
      <trkpt lat="42.66781" lon="1.99009">
        <ele>1945.885</ele>
        <time>2015-08-26T22:53:20Z</time>
      </trkpt>
      <trkpt lat="42.66737" lon="1.98959">
        <ele>1931.689</ele>
        <time>2015-08-26T22:53:40Z</time>
      </trkpt>
      <trkpt lat="42.6674" lon="1.98914">
        <ele>1916.517</ele>
        <time>2015-08-26T22:54:00Z</time>
      </trkpt>
      <trkpt lat="42.66738" lon="1.98895">
        <ele>1913.908</ele>
        <time>2015-08-26T22:54:20Z</time>
      </trkpt>
      <trkpt lat="42.66716" lon="1.98891">
        <ele>1917.594</ele>
        <time>2015-08-26T22:54:40Z</time>
      </trkpt>
      <trkpt lat="42.66694" lon="1.98872">
        <ele>1921.649</ele>
        <time>2015-08-26T22:55:00Z</time>
      </trkpt>
      <trkpt lat="42.66679" lon="1.98812">
        <ele>1920.93</ele>
        <time>2015-08-26T22:55:20Z</time>
      </trkpt>
      <trkpt lat="42.6668" lon="1.98771">
        <ele>1913.755</ele>
        <time>2015-08-26T22:55:40Z</time>
      </trkpt>
      <trkpt lat="42.66663" lon="1.98745">
        <ele>1911.954</ele>
        <time>2015-08-26T22:56:00Z</time>
      </trkpt>
      <trkpt lat="42.6667" lon="1.98719">
        <ele>1903.367</ele>
        <time>2015-08-26T22:56:20Z</time>
      </trkpt>
      <trkpt lat="42.66649" lon="1.98663">
        <ele>1900.514</ele>
        <time>2015-08-26T22:56:40Z</time>
      </trkpt>
      <trkpt lat="42.66632" lon="1.98641">
        <ele>1902.248</ele>
        <time>2015-08-26T22:57:00Z</time>
      </trkpt>
      <trkpt lat="42.66616" lon="1.98552">
        <ele>1898.517</ele>
        <time>2015-08-26T22:57:20Z</time>
      </trkpt>
      <trkpt lat="42.66604" lon="1.98528">
        <ele>1895.887</ele>
        <time>2015-08-26T22:57:40Z</time>
      </trkpt>
      <trkpt lat="42.66565" lon="1.985">
        <ele>1891.115</ele>
        <time>2015-08-26T22:58:00Z</time>
      </trkpt>
      <trkpt lat="42.66554" lon="1.98513">
        <ele>1891.708</ele>
        <time>2015-08-26T22:58:20Z</time>
      </trkpt>
      <trkpt lat="42.66543" lon="1.98516">
        <ele>1891.257</ele>
        <time>2015-08-26T22:58:40Z</time>
      </trkpt>
      <trkpt lat="42.66538" lon="1.985">
        <ele>1886.362</ele>
        <time>2015-08-26T22:59:00Z</time>
      </trkpt>
      <trkpt lat="42.66516" lon="1.98487">
        <ele>1881.173</ele>
        <time>2015-08-26T22:59:20Z</time>
      </trkpt>
      <trkpt lat="42.66505" lon="1.98489">
        <ele>1878.648</ele>
        <time>2015-08-26T22:59:40Z</time>
      </trkpt>
      <trkpt lat="42.66498" lon="1.98474">
        <ele>1874.227</ele>
        <time>2015-08-26T23:00:00Z</time>
      </trkpt>
      <trkpt lat="42.66453" lon="1.98421">
        <ele>1864.02</ele>
        <time>2015-08-26T23:00:20Z</time>
      </trkpt>
      <trkpt lat="42.66351" lon="1.9835">
        <ele>1816.487</ele>
        <time>2015-08-26T23:00:40Z</time>
      </trkpt>
      <trkpt lat="42.66305" lon="1.98326">
        <ele>1794.691</ele>
        <time>2015-08-26T23:01:00Z</time>
      </trkpt>
      <trkpt lat="42.66296" lon="1.983">
        <ele>1792.334</ele>
        <time>2015-08-26T23:01:20Z</time>
      </trkpt>
      <trkpt lat="42.66283" lon="1.98162">
        <ele>1788.155</ele>
        <time>2015-08-26T23:01:40Z</time>
      </trkpt>
      <trkpt lat="42.66275" lon="1.98129">
        <ele>1782.71</ele>
        <time>2015-08-26T23:02:00Z</time>
      </trkpt>
      <trkpt lat="42.66291" lon="1.98004">
        <ele>1772.608</ele>
        <time>2015-08-26T23:02:20Z</time>
      </trkpt>
      <trkpt lat="42.66301" lon="1.97993">
        <ele>1771.369</ele>
        <time>2015-08-26T23:02:40Z</time>
      </trkpt>
      <trkpt lat="42.66297" lon="1.97943">
        <ele>1759.834</ele>
        <time>2015-08-26T23:03:00Z</time>
      </trkpt>
      <trkpt lat="42.663" lon="1.97914">
        <ele>1747.525</ele>
        <time>2015-08-26T23:03:20Z</time>
      </trkpt>
      <trkpt lat="42.66308" lon="1.97905">
        <ele>1742.17</ele>
        <time>2015-08-26T23:03:40Z</time>
      </trkpt>
      <trkpt lat="42.66303" lon="1.9785">
        <ele>1724.839</ele>
        <time>2015-08-26T23:04:00Z</time>
      </trkpt>
      <trkpt lat="42.66315" lon="1.9785">
        <ele>1722.252</ele>
        <time>2015-08-26T23:04:20Z</time>
      </trkpt>
      <trkpt lat="42.6633" lon="1.97847">
        <ele>1719.049</ele>
        <time>2015-08-26T23:04:40Z</time>
      </trkpt>
      <trkpt lat="42.66367" lon="1.97849">
        <ele>1715.053</ele>
        <time>2015-08-26T23:05:00Z</time>
      </trkpt>
      <trkpt lat="42.66417" lon="1.97854">
        <ele>1715.079</ele>
        <time>2015-08-26T23:05:20Z</time>
      </trkpt>
      <trkpt lat="42.66433" lon="1.97838">
        <ele>1715.105</ele>
        <time>2015-08-26T23:05:40Z</time>
      </trkpt>
      <trkpt lat="42.6646" lon="1.97794">
        <ele>1715.525</ele>
        <time>2015-08-26T23:06:00Z</time>
      </trkpt>
      <trkpt lat="42.66466" lon="1.97763">
        <ele>1716.908</ele>
        <time>2015-08-26T23:06:20Z</time>
      </trkpt>
      <trkpt lat="42.66495" lon="1.97722">
        <ele>1702.663</ele>
        <time>2015-08-26T23:06:40Z</time>
      </trkpt>
      <trkpt lat="42.66508" lon="1.97673">
        <ele>1690.318</ele>
        <time>2015-08-26T23:07:00Z</time>
      </trkpt>
      <trkpt lat="42.66517" lon="1.97659">
        <ele>1684.319</ele>
        <time>2015-08-26T23:07:20Z</time>
      </trkpt>
      <trkpt lat="42.66532" lon="1.97609">
        <ele>1668.614</ele>
        <time>2015-08-26T23:07:40Z</time>
      </trkpt>
      <trkpt lat="42.66565" lon="1.97571">
        <ele>1652.633</ele>
        <time>2015-08-26T23:08:00Z</time>
      </trkpt>
      <trkpt lat="42.66599" lon="1.97565">
        <ele>1653.926</ele>
        <time>2015-08-26T23:08:20Z</time>
      </trkpt>
      <trkpt lat="42.66662" lon="1.97434">
        <ele>1626.223</ele>
        <time>2015-08-26T23:08:40Z</time>
      </trkpt>
      <trkpt lat="42.66658" lon="1.97401">
        <ele>1612.737</ele>
        <time>2015-08-26T23:09:00Z</time>
      </trkpt>
      <trkpt lat="42.66643" lon="1.97382">
        <ele>1599.017</ele>
        <time>2015-08-26T23:09:20Z</time>
      </trkpt>
      <trkpt lat="42.66651" lon="1.97348">
        <ele>1591.887</ele>
        <time>2015-08-26T23:09:40Z</time>
      </trkpt>
      <trkpt lat="42.66613" lon="1.97332">
        <ele>1573.215</ele>
        <time>2015-08-26T23:10:00Z</time>
      </trkpt>
      <trkpt lat="42.66578" lon="1.97325">
        <ele>1557.708</ele>
        <time>2015-08-26T23:10:20Z</time>
      </trkpt>
      <trkpt lat="42.66539" lon="1.97332">
        <ele>1546.377</ele>
        <time>2015-08-26T23:10:40Z</time>
      </trkpt>
      <trkpt lat="42.6648" lon="1.97368">
        <ele>1549.692</ele>
        <time>2015-08-26T23:11:00Z</time>
      </trkpt>
      <trkpt lat="42.66429" lon="1.97359">
        <ele>1550.763</ele>
        <time>2015-08-26T23:11:20Z</time>
      </trkpt>
      <trkpt lat="42.66371" lon="1.97362">
        <ele>1563.758</ele>
        <time>2015-08-26T23:11:40Z</time>
      </trkpt>
      <trkpt lat="42.66347" lon="1.97349">
        <ele>1573.337</ele>
        <time>2015-08-26T23:12:00Z</time>
      </trkpt>
      <trkpt lat="42.66323" lon="1.97266">
        <ele>1564.72</ele>
        <time>2015-08-26T23:12:20Z</time>
      </trkpt>
      <trkpt lat="42.66248" lon="1.97214">
        <ele>1539.267</ele>
        <time>2015-08-26T23:12:40Z</time>
      </trkpt>
      <trkpt lat="42.66202" lon="1.97171">
        <ele>1511.251</ele>
        <time>2015-08-26T23:13:00Z</time>
      </trkpt>
      <trkpt lat="42.66178" lon="1.97132">
        <ele>1490.388</ele>
        <time>2015-08-26T23:13:20Z</time>
      </trkpt>
      <trkpt lat="42.66197" lon="1.97118">
        <ele>1478.824</ele>
        <time>2015-08-26T23:13:40Z</time>
      </trkpt>
      <trkpt lat="42.66191" lon="1.97097">
        <ele>1466.626</ele>
        <time>2015-08-26T23:14:00Z</time>
      </trkpt>
      <trkpt lat="42.66203" lon="1.97088">
        <ele>1460.408</ele>
        <time>2015-08-26T23:14:20Z</time>
      </trkpt>
      <trkpt lat="42.66202" lon="1.9706">
        <ele>1447.254</ele>
        <time>2015-08-26T23:14:40Z</time>
      </trkpt>
      <trkpt lat="42.66249" lon="1.9705">
        <ele>1441.569</ele>
        <time>2015-08-26T23:15:00Z</time>
      </trkpt>
      <trkpt lat="42.66277" lon="1.97037">
        <ele>1432.96</ele>
        <time>2015-08-26T23:15:20Z</time>
      </trkpt>
      <trkpt lat="42.66299" lon="1.97011">
        <ele>1413.485</ele>
        <time>2015-08-26T23:15:40Z</time>
      </trkpt>
      <trkpt lat="42.66307" lon="1.9698">
        <ele>1391.394</ele>
        <time>2015-08-26T23:16:00Z</time>
      </trkpt>
      <trkpt lat="42.66301" lon="1.96963">
        <ele>1382.747</ele>
        <time>2015-08-26T23:16:20Z</time>
      </trkpt>
      <trkpt lat="42.66313" lon="1.96947">
        <ele>1369.494</ele>
        <time>2015-08-26T23:16:40Z</time>
      </trkpt>
      <trkpt lat="42.66262" lon="1.96871">
        <ele>1347.418</ele>
        <time>2015-08-26T23:17:00Z</time>
      </trkpt>
      <trkpt lat="42.66261" lon="1.96837">
        <ele>1337.427</ele>
        <time>2015-08-26T23:17:20Z</time>
      </trkpt>
      <trkpt lat="42.66269" lon="1.96803">
        <ele>1325.668</ele>
        <time>2015-08-26T23:17:40Z</time>
      </trkpt>
      <trkpt lat="42.66312" lon="1.96713">
        <ele>1306.514</ele>
        <time>2015-08-26T23:18:00Z</time>
      </trkpt>
      <trkpt lat="42.66312" lon="1.96699">
        <ele>1307.308</ele>
        <time>2015-08-26T23:18:20Z</time>
      </trkpt>
      <trkpt lat="42.66328" lon="1.96681">
        <ele>1307.328</ele>
        <time>2015-08-26T23:18:40Z</time>
      </trkpt>
      <trkpt lat="42.66324" lon="1.96668">
        <ele>1308.693</ele>
        <time>2015-08-26T23:19:00Z</time>
      </trkpt>
      <trkpt lat="42.66361" lon="1.96648">
        <ele>1309.544</ele>
        <time>2015-08-26T23:19:20Z</time>
      </trkpt>
      <trkpt lat="42.66359" lon="1.96627">
        <ele>1314.749</ele>
        <time>2015-08-26T23:19:40Z</time>
      </trkpt>
      <trkpt lat="42.66302" lon="1.96637">
        <ele>1318.148</ele>
        <time>2015-08-26T23:20:00Z</time>
      </trkpt>
      <trkpt lat="42.66245" lon="1.96601">
        <ele>1336.871</ele>
        <time>2015-08-26T23:20:20Z</time>
      </trkpt>
      <trkpt lat="42.66164" lon="1.96617">
        <ele>1333.918</ele>
        <time>2015-08-26T23:20:40Z</time>
      </trkpt>
      <trkpt lat="42.66134" lon="1.96615">
        <ele>1337.472</ele>
        <time>2015-08-26T23:21:00Z</time>
      </trkpt>
      <trkpt lat="42.66108" lon="1.96601">
        <ele>1340.859</ele>
        <time>2015-08-26T23:21:20Z</time>
      </trkpt>
      <trkpt lat="42.66081" lon="1.96593">
        <ele>1341.903</ele>
        <time>2015-08-26T23:21:40Z</time>
      </trkpt>
      <trkpt lat="42.66045" lon="1.96568">
        <ele>1350.923</ele>
        <time>2015-08-26T23:22:00Z</time>
      </trkpt>
      <trkpt lat="42.6595" lon="1.96542">
        <ele>1363.808</ele>
        <time>2015-08-26T23:22:20Z</time>
      </trkpt>
      <trkpt lat="42.65954" lon="1.96523">
        <ele>1369.661</ele>
        <time>2015-08-26T23:22:40Z</time>
      </trkpt>
      <trkpt lat="42.66" lon="1.96524">
        <ele>1372.936</ele>
        <time>2015-08-26T23:23:00Z</time>
      </trkpt>
      <trkpt lat="42.65999" lon="1.96505">
        <ele>1377.777</ele>
        <time>2015-08-26T23:23:20Z</time>
      </trkpt>
      <trkpt lat="42.65976" lon="1.96498">
        <ele>1378.712</ele>
        <time>2015-08-26T23:23:40Z</time>
      </trkpt>
      <trkpt lat="42.65946" lon="1.96472">
        <ele>1384.221</ele>
        <time>2015-08-26T23:24:00Z</time>
      </trkpt>
      <trkpt lat="42.65929" lon="1.96445">
        <ele>1389.464</ele>
        <time>2015-08-26T23:24:20Z</time>
      </trkpt>
      <trkpt lat="42.65907" lon="1.9644">
        <ele>1386.851</ele>
        <time>2015-08-26T23:24:40Z</time>
      </trkpt>
      <trkpt lat="42.65855" lon="1.96469">
        <ele>1383.265</ele>
        <time>2015-08-26T23:25:00Z</time>
      </trkpt>
      <trkpt lat="42.65788" lon="1.96492">
        <ele>1389.494</ele>
        <time>2015-08-26T23:25:20Z</time>
      </trkpt>
      <trkpt lat="42.65757" lon="1.96489">
        <ele>1393.457</ele>
        <time>2015-08-26T23:25:40Z</time>
      </trkpt>
      <trkpt lat="42.65713" lon="1.96503">
        <ele>1393.822</ele>
        <time>2015-08-26T23:26:00Z</time>
      </trkpt>
      <trkpt lat="42.65671" lon="1.96485">
        <ele>1397.208</ele>
        <time>2015-08-26T23:26:20Z</time>
      </trkpt>
      <trkpt lat="42.65599" lon="1.96436">
        <ele>1398.035</ele>
        <time>2015-08-26T23:26:40Z</time>
      </trkpt>
      <trkpt lat="42.65491" lon="1.96396">
        <ele>1397.68</ele>
        <time>2015-08-26T23:27:00Z</time>
      </trkpt>
      <trkpt lat="42.65431" lon="1.96354">
        <ele>1404.121</ele>
        <time>2015-08-26T23:27:20Z</time>
      </trkpt>
      <trkpt lat="42.65342" lon="1.963">
        <ele>1407.736</ele>
        <time>2015-08-26T23:27:40Z</time>
      </trkpt>
      <trkpt lat="42.65273" lon="1.96274">
        <ele>1415.155</ele>
        <time>2015-08-26T23:28:00Z</time>
      </trkpt>
      <trkpt lat="42.65227" lon="1.96232">
        <ele>1428.118</ele>
        <time>2015-08-26T23:28:20Z</time>
      </trkpt>
      <trkpt lat="42.65197" lon="1.96232">
        <ele>1428.435</ele>
        <time>2015-08-26T23:28:40Z</time>
      </trkpt>
      <trkpt lat="42.65155" lon="1.96208">
        <ele>1434.859</ele>
        <time>2015-08-26T23:29:00Z</time>
      </trkpt>
      <trkpt lat="42.65037" lon="1.96226">
        <ele>1437.584</ele>
        <time>2015-08-26T23:29:20Z</time>
      </trkpt>
      <trkpt lat="42.64969" lon="1.96203">
        <ele>1436.407</ele>
        <time>2015-08-26T23:29:40Z</time>
      </trkpt>
      <trkpt lat="42.64892" lon="1.9617">
        <ele>1432.117</ele>
        <time>2015-08-26T23:30:00Z</time>
      </trkpt>
      <trkpt lat="42.64869" lon="1.96146">
        <ele>1433.508</ele>
        <time>2015-08-26T23:30:20Z</time>
      </trkpt>
      <trkpt lat="42.64815" lon="1.96125">
        <ele>1435.624</ele>
        <time>2015-08-26T23:30:40Z</time>
      </trkpt>
      <trkpt lat="42.64802" lon="1.96113">
        <ele>1438.159</ele>
        <time>2015-08-26T23:31:00Z</time>
      </trkpt>
      <trkpt lat="42.64786" lon="1.96109">
        <ele>1439.45</ele>
        <time>2015-08-26T23:31:20Z</time>
      </trkpt>
      <trkpt lat="42.6476" lon="1.96123">
        <ele>1436.325</ele>
        <time>2015-08-26T23:31:40Z</time>
      </trkpt>
      <trkpt lat="42.64698" lon="1.96127">
        <ele>1432.934</ele>
        <time>2015-08-26T23:32:00Z</time>
      </trkpt>
      <trkpt lat="42.64682" lon="1.96111">
        <ele>1434.327</ele>
        <time>2015-08-26T23:32:20Z</time>
      </trkpt>
      <trkpt lat="42.64425" lon="1.95924">
        <ele>1451.324</ele>
        <time>2019-03-29T16:29:42Z</time>
      </trkpt>
      <trkpt lat="42.64387" lon="1.95964">
        <ele>1448.478</ele>
        <time>2019-03-29T16:30:02Z</time>
      </trkpt>
      <trkpt lat="42.64346" lon="1.95943">
        <ele>1450.014</ele>
        <time>2019-03-29T16:30:22Z</time>
      </trkpt>
      <trkpt lat="42.64328" lon="1.9594">
        <ele>1451.054</ele>
        <time>2019-03-29T16:30:42Z</time>
      </trkpt>
      <trkpt lat="42.64309" lon="1.95917">
        <ele>1450.109</ele>
        <time>2019-03-29T16:31:02Z</time>
      </trkpt>
      <trkpt lat="42.64271" lon="1.95904">
        <ele>1456.208</ele>
        <time>2019-03-29T16:31:22Z</time>
      </trkpt>
      <trkpt lat="42.6426" lon="1.95868">
        <ele>1456.757</ele>
        <time>2019-03-29T16:31:42Z</time>
      </trkpt>
      <trkpt lat="42.6423" lon="1.9586">
        <ele>1460.932</ele>
        <time>2019-03-29T16:32:02Z</time>
      </trkpt>
      <trkpt lat="42.64225" lon="1.95833">
        <ele>1461.723</ele>
        <time>2019-03-29T16:32:22Z</time>
      </trkpt>
      <trkpt lat="42.64213" lon="1.95815">
        <ele>1465.018</ele>
        <time>2019-03-29T16:32:42Z</time>
      </trkpt>
      <trkpt lat="42.64213" lon="1.9579">
        <ele>1464.437</ele>
        <time>2019-03-29T16:33:02Z</time>
      </trkpt>
      <trkpt lat="42.64201" lon="1.95771">
        <ele>1467.25</ele>
        <time>2019-03-29T16:33:22Z</time>
      </trkpt>
      <trkpt lat="42.64207" lon="1.95742">
        <ele>1464.147</ele>
        <time>2019-03-29T16:33:42Z</time>
      </trkpt>
      <trkpt lat="42.64188" lon="1.95701">
        <ele>1471.761</ele>
        <time>2019-03-29T16:34:02Z</time>
      </trkpt>
      <trkpt lat="42.6419" lon="1.95655">
        <ele>1472.029</ele>
        <time>2019-03-29T16:34:22Z</time>
      </trkpt>
      <trkpt lat="42.64169" lon="1.95629">
        <ele>1477.6</ele>
        <time>2019-03-29T16:34:42Z</time>
      </trkpt>
      <trkpt lat="42.64155" lon="1.95631">
        <ele>1482.42</ele>
        <time>2019-03-29T16:35:02Z</time>
      </trkpt>
      <trkpt lat="42.64149" lon="1.95595">
        <ele>1483.008</ele>
        <time>2019-03-29T16:35:22Z</time>
      </trkpt>
      <trkpt lat="42.64119" lon="1.95605">
        <ele>1494.358</ele>
        <time>2019-03-29T16:35:42Z</time>
      </trkpt>
      <trkpt lat="42.64113" lon="1.95625">
        <ele>1498.853</ele>
        <time>2019-03-29T16:36:02Z</time>
      </trkpt>
      <trkpt lat="42.64078" lon="1.95629">
        <ele>1516.644</ele>
        <time>2019-03-29T16:36:22Z</time>
      </trkpt>
      <trkpt lat="42.64074" lon="1.95572">
        <ele>1518.079</ele>
        <time>2019-03-29T16:36:42Z</time>
      </trkpt>
      <trkpt lat="42.64067" lon="1.95548">
        <ele>1525.378</ele>
        <time>2019-03-29T16:37:02Z</time>
      </trkpt>
      <trkpt lat="42.64061" lon="1.95477">
        <ele>1529.161</ele>
        <time>2019-03-29T16:37:22Z</time>
      </trkpt>
      <trkpt lat="42.64046" lon="1.95447">
        <ele>1539.918</ele>
        <time>2019-03-29T16:37:42Z</time>
      </trkpt>
      <trkpt lat="42.64042" lon="1.9539">
        <ele>1548.052</ele>
        <time>2019-03-29T16:38:02Z</time>
      </trkpt>
      <trkpt lat="42.64054" lon="1.95355">
        <ele>1544.154</ele>
        <time>2019-03-29T16:38:22Z</time>
      </trkpt>
      <trkpt lat="42.64016" lon="1.95293">
        <ele>1563.556</ele>
        <time>2019-03-29T16:38:42Z</time>
      </trkpt>
      <trkpt lat="42.64018" lon="1.95265">
        <ele>1562.811</ele>
        <time>2019-03-29T16:39:02Z</time>
      </trkpt>
      <trkpt lat="42.63998" lon="1.95224">
        <ele>1572.308</ele>
        <time>2019-03-29T16:39:22Z</time>
      </trkpt>
      <trkpt lat="42.63978" lon="1.9525">
        <ele>1588.551</ele>
        <time>2019-03-29T16:39:42Z</time>
      </trkpt>
      <trkpt lat="42.63976" lon="1.95299">
        <ele>1590.246</ele>
        <time>2019-03-29T16:40:02Z</time>
      </trkpt>
      <trkpt lat="42.63958" lon="1.95275">
        <ele>1602.477</ele>
        <time>2019-03-29T16:40:22Z</time>
      </trkpt>
      <trkpt lat="42.63945" lon="1.95226">
        <ele>1606.962</ele>
        <time>2019-03-29T16:40:42Z</time>
      </trkpt>
      <trkpt lat="42.63927" lon="1.952">
        <ele>1610.271</ele>
        <time>2019-03-29T16:41:02Z</time>
      </trkpt>
      <trkpt lat="42.63896" lon="1.95174">
        <ele>1619.954</ele>
        <time>2019-03-29T16:41:22Z</time>
      </trkpt>
      <trkpt lat="42.63875" lon="1.95158">
        <ele>1623.431</ele>
        <time>2019-03-29T16:41:42Z</time>
      </trkpt>
      <trkpt lat="42.63867" lon="1.95135">
        <ele>1622.155</ele>
        <time>2019-03-29T16:42:02Z</time>
      </trkpt>
      <trkpt lat="42.6383" lon="1.95114">
        <ele>1624.811</ele>
        <time>2019-03-29T16:42:22Z</time>
      </trkpt>
      <trkpt lat="42.63806" lon="1.95142">
        <ele>1633.421</ele>
        <time>2019-03-29T16:42:42Z</time>
      </trkpt>
      <trkpt lat="42.63731" lon="1.95112">
        <ele>1658.903</ele>
        <time>2019-03-29T16:43:02Z</time>
      </trkpt>
      <trkpt lat="42.63743" lon="1.95151">
        <ele>1666.908</ele>
        <time>2019-03-29T16:43:22Z</time>
      </trkpt>
      <trkpt lat="42.63658" lon="1.95114">
        <ele>1692.327</ele>
        <time>2019-03-29T16:43:42Z</time>
      </trkpt>
      <trkpt lat="42.63655" lon="1.95137">
        <ele>1702.382</ele>
        <time>2019-03-29T16:44:02Z</time>
      </trkpt>
      <trkpt lat="42.63639" lon="1.95129">
        <ele>1707.383</ele>
        <time>2019-03-29T16:44:22Z</time>
      </trkpt>
      <trkpt lat="42.63619" lon="1.95107">
        <ele>1707.748</ele>
        <time>2019-03-29T16:44:42Z</time>
      </trkpt>
      <trkpt lat="42.63555" lon="1.95068">
        <ele>1715.487</ele>
        <time>2019-03-29T16:45:02Z</time>
      </trkpt>
      <trkpt lat="42.63536" lon="1.95086">
        <ele>1724.29</ele>
        <time>2019-03-29T16:45:22Z</time>
      </trkpt>
      <trkpt lat="42.6351" lon="1.95088">
        <ele>1733.087</ele>
        <time>2019-03-29T16:45:42Z</time>
      </trkpt>
      <trkpt lat="42.63473" lon="1.9506">
        <ele>1732.971</ele>
        <time>2019-03-29T16:46:02Z</time>
      </trkpt>
      <trkpt lat="42.6339" lon="1.95068">
        <ele>1763.874</ele>
        <time>2019-03-29T16:46:22Z</time>
      </trkpt>
      <trkpt lat="42.6332" lon="1.95065">
        <ele>1798.656</ele>
        <time>2019-03-29T16:46:42Z</time>
      </trkpt>
      <trkpt lat="42.63302" lon="1.95099">
        <ele>1805.421</ele>
        <time>2019-03-29T16:47:02Z</time>
      </trkpt>
      <trkpt lat="42.6332" lon="1.95197">
        <ele>1835.508</ele>
        <time>2019-03-29T16:47:22Z</time>
      </trkpt>
      <trkpt lat="42.63278" lon="1.95181">
        <ele>1839.553</ele>
        <time>2019-03-29T16:47:42Z</time>
      </trkpt>
      <trkpt lat="42.6325" lon="1.95184">
        <ele>1848.898</ele>
        <time>2019-03-29T16:48:02Z</time>
      </trkpt>
      <trkpt lat="42.63245" lon="1.95189">
        <ele>1853.459</ele>
        <time>2015-08-26T23:50:40Z</time>
      </trkpt>
      <trkpt lat="42.63113" lon="1.95147">
        <ele>1895.734</ele>
        <time>2015-08-26T23:51:00Z</time>
      </trkpt>
      <trkpt lat="42.63029" lon="1.95105">
        <ele>1922.413</ele>
        <time>2015-08-26T23:51:20Z</time>
      </trkpt>
      <trkpt lat="42.63001" lon="1.95073">
        <ele>1925.896</ele>
        <time>2015-08-26T23:51:40Z</time>
      </trkpt>
      <trkpt lat="42.62968" lon="1.9508">
        <ele>1938.813</ele>
        <time>2015-08-26T23:52:00Z</time>
      </trkpt>
      <trkpt lat="42.62955" lon="1.95069">
        <ele>1938.617</ele>
        <time>2015-08-26T23:52:20Z</time>
      </trkpt>
      <trkpt lat="42.62871" lon="1.95061">
        <ele>1958.063</ele>
        <time>2015-08-26T23:52:40Z</time>
      </trkpt>
      <trkpt lat="42.62854" lon="1.95038">
        <ele>1958.644</ele>
        <time>2015-08-26T23:53:00Z</time>
      </trkpt>
      <trkpt lat="42.6283" lon="1.95012">
        <ele>1969.018</ele>
        <time>2015-08-26T23:53:20Z</time>
      </trkpt>
      <trkpt lat="42.62804" lon="1.94997">
        <ele>1983.908</ele>
        <time>2015-08-26T23:53:40Z</time>
      </trkpt>
      <trkpt lat="42.628" lon="1.94959">
        <ele>1975.982</ele>
        <time>2015-08-26T23:54:00Z</time>
      </trkpt>
      <trkpt lat="42.62787" lon="1.94922">
        <ele>1976.947</ele>
        <time>2015-08-26T23:54:20Z</time>
      </trkpt>
      <trkpt lat="42.62774" lon="1.94857">
        <ele>1974.368</ele>
        <time>2015-08-26T23:54:40Z</time>
      </trkpt>
      <trkpt lat="42.62755" lon="1.94822">
        <ele>1976.363</ele>
        <time>2015-08-26T23:55:00Z</time>
      </trkpt>
      <trkpt lat="42.62759" lon="1.94795">
        <ele>1970.242</ele>
        <time>2015-08-26T23:55:20Z</time>
      </trkpt>
      <trkpt lat="42.62752" lon="1.94777">
        <ele>1967.065</ele>
        <time>2015-08-26T23:55:40Z</time>
      </trkpt>
      <trkpt lat="42.62739" lon="1.94774">
        <ele>1965.222</ele>
        <time>2015-08-26T23:56:00Z</time>
      </trkpt>
      <trkpt lat="42.62709" lon="1.94704">
        <ele>1961.356</ele>
        <time>2015-08-26T23:56:20Z</time>
      </trkpt>
      <trkpt lat="42.62697" lon="1.94699">
        <ele>1959.586</ele>
        <time>2015-08-26T23:56:40Z</time>
      </trkpt>
      <trkpt lat="42.62698" lon="1.94648">
        <ele>1962.66</ele>
        <time>2015-08-26T23:57:00Z</time>
      </trkpt>
      <trkpt lat="42.62678" lon="1.94615">
        <ele>1959.626</ele>
        <time>2015-08-26T23:57:20Z</time>
      </trkpt>
      <trkpt lat="42.62682" lon="1.94561">
        <ele>1959.608</ele>
        <time>2015-08-26T23:57:40Z</time>
      </trkpt>
      <trkpt lat="42.62695" lon="1.94546">
        <ele>1960.714</ele>
        <time>2015-08-26T23:58:00Z</time>
      </trkpt>
      <trkpt lat="42.62698" lon="1.94527">
        <ele>1960.199</ele>
        <time>2015-08-26T23:58:20Z</time>
      </trkpt>
      <trkpt lat="42.62676" lon="1.94518">
        <ele>1959.81</ele>
        <time>2015-08-26T23:58:40Z</time>
      </trkpt>
      <trkpt lat="42.62664" lon="1.94481">
        <ele>1961.635</ele>
        <time>2015-08-26T23:59:00Z</time>
      </trkpt>
      <trkpt lat="42.62671" lon="1.94456">
        <ele>1965.164</ele>
        <time>2015-08-26T23:59:20Z</time>
      </trkpt>
      <trkpt lat="42.62663" lon="1.94417">
        <ele>1968.697</ele>
        <time>2015-08-26T23:59:40Z</time>
      </trkpt>
      <trkpt lat="42.62648" lon="1.94395">
        <ele>1970.274</ele>
        <time>2015-08-27T00:00:00Z</time>
      </trkpt>
      <trkpt lat="42.62626" lon="1.94392">
        <ele>1965.048</ele>
        <time>2015-08-27T00:00:20Z</time>
      </trkpt>
      <trkpt lat="42.62572" lon="1.94261">
        <ele>1960.856</ele>
        <time>2015-08-27T00:00:40Z</time>
      </trkpt>
      <trkpt lat="42.62562" lon="1.94209">
        <ele>1959.559</ele>
        <time>2015-08-27T00:01:00Z</time>
      </trkpt>
      <trkpt lat="42.62558" lon="1.94075">
        <ele>1961.814</ele>
        <time>2015-08-27T00:01:20Z</time>
      </trkpt>
      <trkpt lat="42.62544" lon="1.94044">
        <ele>1962.408</ele>
        <time>2015-08-27T00:01:40Z</time>
      </trkpt>
      <trkpt lat="42.62543" lon="1.94015">
        <ele>1966.071</ele>
        <time>2015-08-27T00:02:00Z</time>
      </trkpt>
      <trkpt lat="42.62524" lon="1.93954">
        <ele>1964.056</ele>
        <time>2015-08-27T00:02:20Z</time>
      </trkpt>
      <trkpt lat="42.62501" lon="1.93899">
        <ele>1959.527</ele>
        <time>2019-03-29T17:00:22Z</time>
      </trkpt>
      <trkpt lat="42.62477" lon="1.93836">
        <ele>1958.562</ele>
        <time>2019-03-29T17:00:42Z</time>
      </trkpt>
      <trkpt lat="42.62458" lon="1.93828">
        <ele>1956.951</ele>
        <time>2019-03-29T17:01:02Z</time>
      </trkpt>
      <trkpt lat="42.6242" lon="1.93828">
        <ele>1956.954</ele>
        <time>2019-03-29T17:01:22Z</time>
      </trkpt>
      <trkpt lat="42.62365" lon="1.93793">
        <ele>1958.821</ele>
        <time>2019-03-29T17:01:42Z</time>
      </trkpt>
      <trkpt lat="42.62291" lon="1.93753">
        <ele>1961.295</ele>
        <time>2019-03-29T17:02:02Z</time>
      </trkpt>
      <trkpt lat="42.62262" lon="1.93725">
        <ele>1963.369</ele>
        <time>2019-03-29T17:02:22Z</time>
      </trkpt>
      <trkpt lat="42.62251" lon="1.93751">
        <ele>1960.004</ele>
        <time>2019-03-29T17:02:42Z</time>
      </trkpt>
      <trkpt lat="42.62226" lon="1.93745">
        <ele>1960.124</ele>
        <time>2019-03-29T17:03:02Z</time>
      </trkpt>
      <trkpt lat="42.62213" lon="1.93784">
        <ele>1963.108</ele>
        <time>2019-03-29T17:03:22Z</time>
      </trkpt>
      <trkpt lat="42.62182" lon="1.93779">
        <ele>1966.092</ele>
        <time>2019-03-29T17:03:42Z</time>
      </trkpt>
      <trkpt lat="42.62149" lon="1.93798">
        <ele>1982.367</ele>
        <time>2019-03-29T17:04:02Z</time>
      </trkpt>
      <trkpt lat="42.62082" lon="1.93764">
        <ele>2004.088</ele>
        <time>2019-03-29T17:04:22Z</time>
      </trkpt>
      <trkpt lat="42.62027" lon="1.93619">
        <ele>2009.423</ele>
        <time>2019-03-29T17:04:42Z</time>
      </trkpt>
      <trkpt lat="42.62023" lon="1.93558">
        <ele>2010.742</ele>
        <time>2019-03-29T17:05:02Z</time>
      </trkpt>
      <trkpt lat="42.61984" lon="1.93439">
        <ele>2013.495</ele>
        <time>2019-03-29T17:05:22Z</time>
      </trkpt>
      <trkpt lat="42.61964" lon="1.93405">
        <ele>2010.942</ele>
        <time>2019-03-29T17:05:42Z</time>
      </trkpt>
      <trkpt lat="42.61939" lon="1.93306">
        <ele>2010.066</ele>
        <time>2019-03-29T17:06:02Z</time>
      </trkpt>
      <trkpt lat="42.6195" lon="1.93198">
        <ele>2022.823</ele>
        <time>2019-03-29T17:06:22Z</time>
      </trkpt>
      <trkpt lat="42.61908" lon="1.93169">
        <ele>2025.783</ele>
        <time>2019-03-29T17:06:42Z</time>
      </trkpt>
      <trkpt lat="42.61897" lon="1.93018">
        <ele>2052.511</ele>
        <time>2019-03-29T17:07:02Z</time>
      </trkpt>
      <trkpt lat="42.61845" lon="1.92906">
        <ele>2073.008</ele>
        <time>2019-03-29T17:07:22Z</time>
      </trkpt>
      <trkpt lat="42.61827" lon="1.9281">
        <ele>2087.078</ele>
        <time>2019-03-29T17:07:42Z</time>
      </trkpt>
      <trkpt lat="42.6183" lon="1.92736">
        <ele>2080.913</ele>
        <time>2019-03-29T17:08:02Z</time>
      </trkpt>
      <trkpt lat="42.61801" lon="1.92645">
        <ele>2084.044</ele>
        <time>2019-03-29T17:08:22Z</time>
      </trkpt>
      <trkpt lat="42.61807" lon="1.9259">
        <ele>2079.979</ele>
        <time>2019-03-29T17:08:42Z</time>
      </trkpt>
      <trkpt lat="42.61756" lon="1.92505">
        <ele>2095.788</ele>
        <time>2019-03-29T17:09:02Z</time>
      </trkpt>
      <trkpt lat="42.61749" lon="1.92471">
        <ele>2097.851</ele>
        <time>2019-03-29T17:09:22Z</time>
      </trkpt>
      <trkpt lat="42.61723" lon="1.92423">
        <ele>2109.858</ele>
        <time>2019-03-29T17:09:42Z</time>
      </trkpt>
      <trkpt lat="42.61686" lon="1.92413">
        <ele>2115.592</ele>
        <time>2019-03-29T17:10:02Z</time>
      </trkpt>
      <trkpt lat="42.61676" lon="1.92371">
        <ele>2120.255</ele>
        <time>2019-03-29T17:10:22Z</time>
      </trkpt>
      <trkpt lat="42.61606" lon="1.9227">
        <ele>2136.307</ele>
        <time>2019-03-29T17:10:42Z</time>
      </trkpt>
      <trkpt lat="42.61595" lon="1.92216">
        <ele>2140.117</ele>
        <time>2019-03-29T17:11:02Z</time>
      </trkpt>
      <trkpt lat="42.61555" lon="1.92104">
        <ele>2150.308</ele>
        <time>2019-03-29T17:11:22Z</time>
      </trkpt>
      <trkpt lat="42.61576" lon="1.92023">
        <ele>2159.691</ele>
        <time>2019-03-29T17:11:42Z</time>
      </trkpt>
      <trkpt lat="42.61565" lon="1.91966">
        <ele>2166.056</ele>
        <time>2019-03-29T17:12:02Z</time>
      </trkpt>
      <trkpt lat="42.61544" lon="1.91915">
        <ele>2167.187</ele>
        <time>2019-03-29T17:12:22Z</time>
      </trkpt>
      <trkpt lat="42.6155" lon="1.91798">
        <ele>2191.622</ele>
        <time>2019-03-29T17:12:42Z</time>
      </trkpt>
      <trkpt lat="42.61543" lon="1.91735">
        <ele>2195.181</ele>
        <time>2019-03-29T17:13:02Z</time>
      </trkpt>
      <trkpt lat="42.61524" lon="1.91707">
        <ele>2192.574</ele>
        <time>2019-03-29T17:13:22Z</time>
      </trkpt>
      <trkpt lat="42.61525" lon="1.91673">
        <ele>2196.161</ele>
        <time>2019-03-29T17:13:42Z</time>
      </trkpt>
      <trkpt lat="42.61449" lon="1.91501">
        <ele>2209.565</ele>
        <time>2019-03-29T17:14:02Z</time>
      </trkpt>
      <trkpt lat="42.61409" lon="1.91447">
        <ele>2211.756</ele>
        <time>2019-03-29T17:14:22Z</time>
      </trkpt>
      <trkpt lat="42.61423" lon="1.91427">
        <ele>2218.559</ele>
        <time>2019-03-29T17:14:42Z</time>
      </trkpt>
      <trkpt lat="42.61382" lon="1.9133">
        <ele>2229.014</ele>
        <time>2019-03-29T17:15:02Z</time>
      </trkpt>
      <trkpt lat="42.6136" lon="1.91213">
        <ele>2269.508</ele>
        <time>2019-03-29T17:15:22Z</time>
      </trkpt>
      <trkpt lat="42.61372" lon="1.91099">
        <ele>2310.861</ele>
        <time>2019-03-29T17:15:42Z</time>
      </trkpt>
      <trkpt lat="42.61315" lon="1.91022">
        <ele>2316.186</ele>
        <time>2019-03-29T17:16:02Z</time>
      </trkpt>
      <trkpt lat="42.61288" lon="1.91048">
        <ele>2331.027</ele>
        <time>2019-03-29T17:16:22Z</time>
      </trkpt>
      <trkpt lat="42.61287" lon="1.91005">
        <ele>2326.482</ele>
        <time>2019-03-29T17:16:42Z</time>
      </trkpt>
      <trkpt lat="42.61253" lon="1.90939">
        <ele>2335.131</ele>
        <time>2019-03-29T17:17:02Z</time>
      </trkpt>
      <trkpt lat="42.61234" lon="1.90949">
        <ele>2339.824</ele>
        <time>2019-03-29T17:17:22Z</time>
      </trkpt>
      <trkpt lat="42.61212" lon="1.9091">
        <ele>2347.931</ele>
        <time>2019-03-29T17:17:42Z</time>
      </trkpt>
      <trkpt lat="42.61191" lon="1.90915">
        <ele>2354.225</ele>
        <time>2019-03-29T17:18:02Z</time>
      </trkpt>
      <trkpt lat="42.61197" lon="1.9084">
        <ele>2377.495</ele>
        <time>2019-03-29T17:18:22Z</time>
      </trkpt>
      <trkpt lat="42.61181" lon="1.90815">
        <ele>2388.149</ele>
        <time>2019-03-29T17:18:42Z</time>
      </trkpt>
      <trkpt lat="42.61177" lon="1.9075">
        <ele>2395.723</ele>
        <time>2019-03-29T17:19:02Z</time>
      </trkpt>
      <trkpt lat="42.61121" lon="1.9078">
        <ele>2392.308</ele>
        <time>2019-03-29T17:19:22Z</time>
      </trkpt>
      <trkpt lat="42.61103" lon="1.90852">
        <ele>2378.015</ele>
        <time>2019-03-29T17:19:42Z</time>
      </trkpt>
      <trkpt lat="42.61063" lon="1.90888">
        <ele>2372.61</ele>
        <time>2019-03-29T17:20:02Z</time>
      </trkpt>
      <trkpt lat="42.61041" lon="1.90967">
        <ele>2371.021</ele>
        <time>2019-03-29T17:20:22Z</time>
      </trkpt>
      <trkpt lat="42.60989" lon="1.91009">
        <ele>2389.586</ele>
        <time>2019-03-29T17:20:42Z</time>
      </trkpt>
      <trkpt lat="42.6094" lon="1.91039">
        <ele>2399.965</ele>
        <time>2019-03-29T17:21:02Z</time>
      </trkpt>
      <trkpt lat="42.60891" lon="1.91118">
        <ele>2402.788</ele>
        <time>2019-03-29T17:21:22Z</time>
      </trkpt>
      <trkpt lat="42.60825" lon="1.91123">
        <ele>2409.275</ele>
        <time>2019-03-29T17:21:42Z</time>
      </trkpt>
      <trkpt lat="42.60769" lon="1.91184">
        <ele>2410.089</ele>
        <time>2019-03-29T17:22:02Z</time>
      </trkpt>
      <trkpt lat="42.60717" lon="1.91248">
        <ele>2407.891</ele>
        <time>2019-03-29T17:22:22Z</time>
      </trkpt>
      <trkpt lat="42.60711" lon="1.91325">
        <ele>2405.681</ele>
        <time>2019-03-29T17:22:42Z</time>
      </trkpt>
      <trkpt lat="42.60695" lon="1.91367">
        <ele>2400.919</ele>
        <time>2019-03-29T17:23:02Z</time>
      </trkpt>
      <trkpt lat="42.60697" lon="1.91409">
        <ele>2399.108</ele>
        <time>2019-03-29T17:23:22Z</time>
      </trkpt>
      <trkpt lat="42.60639" lon="1.9148">
        <ele>2387.595</ele>
        <time>2019-03-29T17:23:42Z</time>
      </trkpt>
      <trkpt lat="42.60619" lon="1.91554">
        <ele>2380.72</ele>
        <time>2019-03-29T17:24:02Z</time>
      </trkpt>
      <trkpt lat="42.60633" lon="1.91603">
        <ele>2381.161</ele>
        <time>2019-03-29T17:24:22Z</time>
      </trkpt>
      <trkpt lat="42.60597" lon="1.91623">
        <ele>2376.756</ele>
        <time>2019-03-29T17:24:42Z</time>
      </trkpt>
      <trkpt lat="42.60555" lon="1.9167">
        <ele>2371.375</ele>
        <time>2019-03-29T17:25:02Z</time>
      </trkpt>
      <trkpt lat="42.60486" lon="1.91692">
        <ele>2362.318</ele>
        <time>2019-03-29T17:25:22Z</time>
      </trkpt>
      <trkpt lat="42.60428" lon="1.9168">
        <ele>2332.245</ele>
        <time>2019-03-29T17:25:42Z</time>
      </trkpt>
      <trkpt lat="42.60388" lon="1.91707">
        <ele>2317.339</ele>
        <time>2019-03-29T17:26:02Z</time>
      </trkpt>
      <trkpt lat="42.60379" lon="1.91682">
        <ele>2311.265</ele>
        <time>2019-03-29T17:26:22Z</time>
      </trkpt>
      <trkpt lat="42.60326" lon="1.9165">
        <ele>2298.568</ele>
        <time>2019-03-29T17:26:42Z</time>
      </trkpt>
      <trkpt lat="42.60272" lon="1.91606">
        <ele>2279.714</ele>
        <time>2019-03-29T17:27:02Z</time>
      </trkpt>
      <trkpt lat="42.60154" lon="1.91644">
        <ele>2256.308</ele>
        <time>2019-03-29T17:27:22Z</time>
      </trkpt>
      <trkpt lat="42.60147" lon="1.91681">
        <ele>2240.932</ele>
        <time>2019-03-29T17:27:42Z</time>
      </trkpt>
      <trkpt lat="42.6012" lon="1.91689">
        <ele>2234.447</ele>
        <time>2019-03-29T17:28:02Z</time>
      </trkpt>
      <trkpt lat="42.60108" lon="1.91679">
        <ele>2233.688</ele>
        <time>2019-03-29T17:28:22Z</time>
      </trkpt>
      <trkpt lat="42.60075" lon="1.91683">
        <ele>2229.723</ele>
        <time>2019-03-29T17:28:42Z</time>
      </trkpt>
      <trkpt lat="42.60053" lon="1.9164">
        <ele>2228.112</ele>
        <time>2019-03-29T17:29:02Z</time>
      </trkpt>
      <trkpt lat="42.60017" lon="1.91631">
        <ele>2228.095</ele>
        <time>2019-03-29T17:29:22Z</time>
      </trkpt>
      <trkpt lat="42.5998" lon="1.91575">
        <ele>2224.462</ele>
        <time>2019-03-29T17:29:42Z</time>
      </trkpt>
      <trkpt lat="42.5986" lon="1.91514">
        <ele>2239.596</ele>
        <time>2019-03-29T17:30:02Z</time>
      </trkpt>
      <trkpt lat="42.59838" lon="1.91572">
        <ele>2255.414</ele>
        <time>2019-03-29T17:30:22Z</time>
      </trkpt>
      <trkpt lat="42.59824" lon="1.91718">
        <ele>2274.154</ele>
        <time>2019-03-29T17:30:42Z</time>
      </trkpt>
      <trkpt lat="42.59801" lon="1.91772">
        <ele>2278.709</ele>
        <time>2019-03-29T17:31:02Z</time>
      </trkpt>
      <trkpt lat="42.59801" lon="1.91888">
        <ele>2275.308</ele>
        <time>2019-03-29T17:31:22Z</time>
      </trkpt>
      <trkpt lat="42.59807" lon="1.91925">
        <ele>2271.797</ele>
        <time>2019-03-29T17:31:42Z</time>
      </trkpt>
      <trkpt lat="42.59776" lon="1.91943">
        <ele>2267.832</ele>
        <time>2019-03-29T17:32:02Z</time>
      </trkpt>
      <trkpt lat="42.59749" lon="1.92023">
        <ele>2260.093</ele>
        <time>2019-03-29T17:32:22Z</time>
      </trkpt>
      <trkpt lat="42.59716" lon="1.91985">
        <ele>2259.598</ele>
        <time>2019-03-29T17:32:42Z</time>
      </trkpt>
      <trkpt lat="42.59646" lon="1.91946">
        <ele>2253.447</ele>
        <time>2019-03-29T17:33:02Z</time>
      </trkpt>
      <trkpt lat="42.59567" lon="1.92005">
        <ele>2251.33</ele>
        <time>2019-03-29T17:33:22Z</time>
      </trkpt>
      <trkpt lat="42.59521" lon="1.91985">
        <ele>2254.987</ele>
        <time>2019-03-29T17:33:42Z</time>
      </trkpt>
      <trkpt lat="42.59492" lon="1.91985">
        <ele>2257.831</ele>
        <time>2019-03-29T17:34:02Z</time>
      </trkpt>
      <trkpt lat="42.59474" lon="1.91969">
        <ele>2258.222</ele>
        <time>2019-03-29T17:34:22Z</time>
      </trkpt>
      <trkpt lat="42.59371" lon="1.91944">
        <ele>2265.162</ele>
        <time>2019-03-29T17:34:42Z</time>
      </trkpt>
      <trkpt lat="42.59315" lon="1.91915">
        <ele>2264.808</ele>
        <time>2019-03-29T17:35:02Z</time>
      </trkpt>
      <trkpt lat="42.59273" lon="1.91941">
        <ele>2261.408</ele>
        <time>2019-03-29T17:35:22Z</time>
      </trkpt>
      <trkpt lat="42.59249" lon="1.91938">
        <ele>2264.098</ele>
        <time>2019-03-29T17:35:42Z</time>
      </trkpt>
      <trkpt lat="42.59215" lon="1.91891">
        <ele>2267.243</ele>
        <time>2019-03-29T17:36:02Z</time>
      </trkpt>
      <trkpt lat="42.59119" lon="1.91829">
        <ele>2276.714</ele>
        <time>2019-03-29T17:36:22Z</time>
      </trkpt>
      <trkpt lat="42.5907" lon="1.91733">
        <ele>2279.599</ele>
        <time>2019-03-29T17:36:42Z</time>
      </trkpt>
      <trkpt lat="42.58988" lon="1.91631">
        <ele>2288.858</ele>
        <time>2019-03-29T17:37:02Z</time>
      </trkpt>
      <trkpt lat="42.58984" lon="1.91598">
        <ele>2288.471</ele>
        <time>2019-03-29T17:37:22Z</time>
      </trkpt>
      <trkpt lat="42.58919" lon="1.91476">
        <ele>2295.748</ele>
        <time>2019-03-29T17:37:42Z</time>
      </trkpt>
      <trkpt lat="42.58882" lon="1.91429">
        <ele>2302.162</ele>
        <time>2019-03-29T17:38:02Z</time>
      </trkpt>
      <trkpt lat="42.58782" lon="1.91193">
        <ele>2301.854</ele>
        <time>2019-03-29T17:38:22Z</time>
      </trkpt>
      <trkpt lat="42.58738" lon="1.91118">
        <ele>2303.656</ele>
        <time>2019-03-29T17:38:42Z</time>
      </trkpt>
      <trkpt lat="42.58713" lon="1.91105">
        <ele>2309.811</ele>
        <time>2019-03-29T17:39:02Z</time>
      </trkpt>
      <trkpt lat="42.58659" lon="1.90974">
        <ele>2301.408</ele>
        <time>2019-03-29T17:39:22Z</time>
      </trkpt>
      <trkpt lat="42.58593" lon="1.90855">
        <ele>2292.131</ele>
        <time>2019-03-29T17:39:42Z</time>
      </trkpt>
      <trkpt lat="42.58536" lon="1.90767">
        <ele>2290.846</ele>
        <time>2019-03-29T17:40:02Z</time>
      </trkpt>
      <trkpt lat="42.58475" lon="1.9073">
        <ele>2289.127</ele>
        <time>2019-03-29T17:40:22Z</time>
      </trkpt>
      <trkpt lat="42.58453" lon="1.90668">
        <ele>2285.092</ele>
        <time>2019-03-29T17:40:42Z</time>
      </trkpt>
      <trkpt lat="42.58446" lon="1.9058">
        <ele>2281.661</ele>
        <time>2019-03-29T17:41:02Z</time>
      </trkpt>
      <trkpt lat="42.58416" lon="1.90525">
        <ele>2279.434</ele>
        <time>2019-03-29T17:41:22Z</time>
      </trkpt>
      <trkpt lat="42.58342" lon="1.90455">
        <ele>2252.491</ele>
        <time>2019-03-29T17:41:42Z</time>
      </trkpt>
      <trkpt lat="42.58347" lon="1.90539">
        <ele>2258.535</ele>
        <time>2019-03-29T17:42:02Z</time>
      </trkpt>
      <trkpt lat="42.58327" lon="1.90564">
        <ele>2259.573</ele>
        <time>2019-03-29T17:42:22Z</time>
      </trkpt>
      <trkpt lat="42.58295" lon="1.9051">
        <ele>2257.685</ele>
        <time>2019-03-29T17:42:42Z</time>
      </trkpt>
      <trkpt lat="42.58263" lon="1.90496">
        <ele>2253.513</ele>
        <time>2019-03-29T17:43:02Z</time>
      </trkpt>
      <trkpt lat="42.58233" lon="1.90447">
        <ele>2248.108</ele>
        <time>2019-03-29T17:43:22Z</time>
      </trkpt>
      <trkpt lat="42.58197" lon="1.90453">
        <ele>2248.253</ele>
        <time>2019-03-29T17:43:42Z</time>
      </trkpt>
      <trkpt lat="42.58184" lon="1.90478">
        <ele>2247.088</ele>
        <time>2019-03-29T17:44:02Z</time>
      </trkpt>
      <trkpt lat="42.5815" lon="1.90411">
        <ele>2246.999</ele>
        <time>2019-03-29T17:44:22Z</time>
      </trkpt>
      <trkpt lat="42.58127" lon="1.9046">
        <ele>2250.444</ele>
        <time>2019-03-29T17:44:42Z</time>
      </trkpt>
      <trkpt lat="42.58108" lon="1.90463">
        <ele>2252.853</ele>
        <time>2019-03-29T17:45:02Z</time>
      </trkpt>
      <trkpt lat="42.58089" lon="1.9045">
        <ele>2260.216</ele>
        <time>2019-03-29T17:45:22Z</time>
      </trkpt>
      <trkpt lat="42.58064" lon="1.90486">
        <ele>2260.713</ele>
        <time>2019-03-29T17:45:42Z</time>
      </trkpt>
      <trkpt lat="42.57999" lon="1.90401">
        <ele>2260.457</ele>
        <time>2019-03-29T17:46:02Z</time>
      </trkpt>
      <trkpt lat="42.57968" lon="1.90408">
        <ele>2257.395</ele>
        <time>2019-03-29T17:46:22Z</time>
      </trkpt>
      <trkpt lat="42.57954" lon="1.90435">
        <ele>2255.349</ele>
        <time>2019-03-29T17:46:42Z</time>
      </trkpt>
      <trkpt lat="42.57926" lon="1.9032">
        <ele>2230.323</ele>
        <time>2019-03-29T17:47:02Z</time>
      </trkpt>
      <trkpt lat="42.57924" lon="1.90214">
        <ele>2219.108</ele>
        <time>2019-03-29T17:47:22Z</time>
      </trkpt>
      <trkpt lat="42.57875" lon="1.90185">
        <ele>2218.775</ele>
        <time>2019-03-29T17:47:42Z</time>
      </trkpt>
      <trkpt lat="42.57795" lon="1.90242">
        <ele>2209.12</ele>
        <time>2019-03-29T17:48:02Z</time>
      </trkpt>
      <trkpt lat="42.57767" lon="1.90177">
        <ele>2204.121</ele>
        <time>2019-03-29T17:48:22Z</time>
      </trkpt>
      <trkpt lat="42.57743" lon="1.90047">
        <ele>2201.526</ele>
        <time>2019-03-29T17:48:42Z</time>
      </trkpt>
      <trkpt lat="42.57707" lon="1.89956">
        <ele>2192.525</ele>
        <time>2019-03-29T17:49:02Z</time>
      </trkpt>
      <trkpt lat="42.57719" lon="1.89915">
        <ele>2190.688</ele>
        <time>2019-03-29T17:49:22Z</time>
      </trkpt>
      <trkpt lat="42.57714" lon="1.89874">
        <ele>2189.595</ele>
        <time>2019-03-29T17:49:42Z</time>
      </trkpt>
      <trkpt lat="42.57683" lon="1.89834">
        <ele>2183.249</ele>
        <time>2019-03-29T17:50:02Z</time>
      </trkpt>
      <trkpt lat="42.57677" lon="1.89773">
        <ele>2175.958</ele>
        <time>2019-03-29T17:50:22Z</time>
      </trkpt>
      <trkpt lat="42.57656" lon="1.89736">
        <ele>2178.152</ele>
        <time>2019-03-29T17:50:42Z</time>
      </trkpt>
      <trkpt lat="42.57621" lon="1.89507">
        <ele>2168.817</ele>
        <time>2019-03-29T17:51:02Z</time>
      </trkpt>
      <trkpt lat="42.57599" lon="1.89469">
        <ele>2162.408</ele>
        <time>2019-03-29T17:51:22Z</time>
      </trkpt>
      <trkpt lat="42.57565" lon="1.89476">
        <ele>2162.071</ele>
        <time>2019-03-29T17:51:42Z</time>
      </trkpt>
      <trkpt lat="42.57526" lon="1.89458">
        <ele>2153.246</ele>
        <time>2019-03-29T17:52:02Z</time>
      </trkpt>
      <trkpt lat="42.57528" lon="1.89403">
        <ele>2163.047</ele>
        <time>2019-03-29T17:52:22Z</time>
      </trkpt>
      <trkpt lat="42.5748" lon="1.89388">
        <ele>2152.332</ele>
        <time>2019-03-29T17:52:42Z</time>
      </trkpt>
      <trkpt lat="42.57444" lon="1.89343">
        <ele>2144.231</ele>
        <time>2019-03-29T17:53:02Z</time>
      </trkpt>
      <trkpt lat="42.57431" lon="1.89273">
        <ele>2161.064</ele>
        <time>2019-03-29T17:53:22Z</time>
      </trkpt>
      <trkpt lat="42.57392" lon="1.89248">
        <ele>2144.231</ele>
        <time>2019-03-29T17:53:42Z</time>
      </trkpt>
      <trkpt lat="42.57375" lon="1.8918">
        <ele>2160.635</ele>
        <time>2019-03-29T17:54:02Z</time>
      </trkpt>
      <trkpt lat="42.573" lon="1.8916">
        <ele>2163.255</ele>
        <time>2019-03-29T17:54:22Z</time>
      </trkpt>
      <trkpt lat="42.57258" lon="1.89165">
        <ele>2149.107</ele>
        <time>2019-03-29T17:54:42Z</time>
      </trkpt>
      <trkpt lat="42.57225" lon="1.89113">
        <ele>2163.717</ele>
        <time>2019-03-29T17:55:02Z</time>
      </trkpt>
      <trkpt lat="42.57163" lon="1.89097">
        <ele>2147.808</ele>
        <time>2019-03-29T17:55:22Z</time>
      </trkpt>
      <trkpt lat="42.57156" lon="1.89091">
        <ele>2147.641</ele>
        <time>2015-08-27T01:01:00Z</time>
      </trkpt>
      <trkpt lat="42.57139" lon="1.89075">
        <ele>2148.646</ele>
        <time>2015-08-27T01:01:20Z</time>
      </trkpt>
      <trkpt lat="42.57132" lon="1.89057">
        <ele>2155.377</ele>
        <time>2015-08-27T01:01:40Z</time>
      </trkpt>
      <trkpt lat="42.57112" lon="1.89053">
        <ele>2149.942</ele>
        <time>2015-08-27T01:02:00Z</time>
      </trkpt>
      <trkpt lat="42.57098" lon="1.89034">
        <ele>2158.751</ele>
        <time>2015-08-27T01:02:20Z</time>
      </trkpt>
      <trkpt lat="42.57082" lon="1.89042">
        <ele>2152.634</ele>
        <time>2015-08-27T01:02:40Z</time>
      </trkpt>
      <trkpt lat="42.57046" lon="1.89042">
        <ele>2145.181</ele>
        <time>2015-08-27T01:03:00Z</time>
      </trkpt>
      <trkpt lat="42.57025" lon="1.89024">
        <ele>2148.545</ele>
        <time>2015-08-27T01:03:20Z</time>
      </trkpt>
      <trkpt lat="42.57013" lon="1.89024">
        <ele>2144.383</ele>
        <time>2015-08-27T01:03:40Z</time>
      </trkpt>
      <trkpt lat="42.56975" lon="1.89007">
        <ele>2146.025</ele>
        <time>2015-08-27T01:04:00Z</time>
      </trkpt>
      <trkpt lat="42.5689" lon="1.8901">
        <ele>2140.217</ele>
        <time>2015-08-27T01:04:20Z</time>
      </trkpt>
      <trkpt lat="42.56868" lon="1.88981">
        <ele>2150.208</ele>
        <time>2015-08-27T01:04:40Z</time>
      </trkpt>
      <trkpt lat="42.56841" lon="1.8898">
        <ele>2152.194</ele>
        <time>2015-08-27T01:05:00Z</time>
      </trkpt>
      <trkpt lat="42.56814" lon="1.88991">
        <ele>2158.199</ele>
        <time>2015-08-27T01:05:20Z</time>
      </trkpt>
      <trkpt lat="42.56799" lon="1.89013">
        <ele>2156.01</ele>
        <time>2015-08-27T01:05:40Z</time>
      </trkpt>
      <trkpt lat="42.56774" lon="1.89029">
        <ele>2153.235</ele>
        <time>2015-08-27T01:06:00Z</time>
      </trkpt>
      <trkpt lat="42.56747" lon="1.89035">
        <ele>2143.264</ele>
        <time>2015-08-27T01:06:20Z</time>
      </trkpt>
      <trkpt lat="42.56722" lon="1.89014">
        <ele>2141.747</ele>
        <time>2015-08-27T01:06:40Z</time>
      </trkpt>
      <trkpt lat="42.56712" lon="1.88999">
        <ele>2148.134</ele>
        <time>2015-08-27T01:07:00Z</time>
      </trkpt>
      <trkpt lat="42.56682" lon="1.88984">
        <ele>2156.098</ele>
        <time>2015-08-27T01:07:20Z</time>
      </trkpt>
      <trkpt lat="42.56666" lon="1.88993">
        <ele>2157.161</ele>
        <time>2015-08-27T01:07:40Z</time>
      </trkpt>
      <trkpt lat="42.5665" lon="1.89026">
        <ele>2148.621</ele>
        <time>2015-08-27T01:08:00Z</time>
      </trkpt>
      <trkpt lat="42.56624" lon="1.89032">
        <ele>2142.213</ele>
        <time>2015-08-27T01:08:20Z</time>
      </trkpt>
      <trkpt lat="42.56598" lon="1.89009">
        <ele>2150.808</ele>
        <time>2015-08-27T01:08:40Z</time>
      </trkpt>
      <trkpt lat="42.56582" lon="1.89009">
        <ele>2146.752</ele>
        <time>2015-08-27T01:09:00Z</time>
      </trkpt>
      <trkpt lat="42.56573" lon="1.89001">
        <ele>2154.067</ele>
        <time>2015-08-27T01:09:20Z</time>
      </trkpt>
      <trkpt lat="42.56541" lon="1.89011">
        <ele>2154.388</ele>
        <time>2015-08-27T01:09:40Z</time>
      </trkpt>
      <trkpt lat="42.56513" lon="1.89029">
        <ele>2152.953</ele>
        <time>2015-08-27T01:10:00Z</time>
      </trkpt>
      <trkpt lat="42.56501" lon="1.8902">
        <ele>2160.692</ele>
        <time>2015-08-27T01:10:20Z</time>
      </trkpt>
      <trkpt lat="42.56489" lon="1.8904">
        <ele>2155.585</ele>
        <time>2015-08-27T01:10:40Z</time>
      </trkpt>
      <trkpt lat="42.56476" lon="1.89045">
        <ele>2158.262</ele>
        <time>2015-08-27T01:11:00Z</time>
      </trkpt>
      <trkpt lat="42.56448" lon="1.89085">
        <ele>2148.676</ele>
        <time>2015-08-27T01:11:20Z</time>
      </trkpt>
      <trkpt lat="42.56424" lon="1.89084">
        <ele>2158.043</ele>
        <time>2015-08-27T01:11:40Z</time>
      </trkpt>
      <trkpt lat="42.56414" lon="1.89101">
        <ele>2149.464</ele>
        <time>2015-08-27T01:12:00Z</time>
      </trkpt>
      <trkpt lat="42.56384" lon="1.891">
        <ele>2142.71</ele>
        <time>2015-08-27T01:12:20Z</time>
      </trkpt>
      <trkpt lat="42.56344" lon="1.89063">
        <ele>2128.208</ele>
        <time>2015-08-27T01:12:40Z</time>
      </trkpt>
      <trkpt lat="42.56344" lon="1.89024">
        <ele>2146.89</ele>
        <time>2015-08-27T01:13:00Z</time>
      </trkpt>
      <trkpt lat="42.56321" lon="1.89022">
        <ele>2134.535</ele>
        <time>2015-08-27T01:13:20Z</time>
      </trkpt>
      <trkpt lat="42.56293" lon="1.88975">
        <ele>2140.086</ele>
        <time>2015-08-27T01:13:40Z</time>
      </trkpt>
      <trkpt lat="42.56251" lon="1.88939">
        <ele>2136.641</ele>
        <time>2015-08-27T01:14:00Z</time>
      </trkpt>
      <trkpt lat="42.56243" lon="1.88924">
        <ele>2140.79</ele>
        <time>2015-08-27T01:14:20Z</time>
      </trkpt>
      <trkpt lat="42.56216" lon="1.88899">
        <ele>2140.353</ele>
        <time>2015-08-27T01:14:40Z</time>
      </trkpt>
      <trkpt lat="42.56194" lon="1.88888">
        <ele>2130.65</ele>
        <time>2015-08-27T01:15:00Z</time>
      </trkpt>
      <trkpt lat="42.5618" lon="1.88838">
        <ele>2128.754</ele>
        <time>2015-08-27T01:15:20Z</time>
      </trkpt>
      <trkpt lat="42.5618" lon="1.88813">
        <ele>2134.268</ele>
        <time>2015-08-27T01:15:40Z</time>
      </trkpt>
      <trkpt lat="42.56167" lon="1.88791">
        <ele>2128.242</ele>
        <time>2015-08-27T01:16:00Z</time>
      </trkpt>
      <trkpt lat="42.56161" lon="1.88761">
        <ele>2128.726</ele>
        <time>2015-08-27T01:16:20Z</time>
      </trkpt>
      <trkpt lat="42.56155" lon="1.88709">
        <ele>2129.008</ele>
        <time>2015-08-27T01:16:40Z</time>
      </trkpt>
      <trkpt lat="42.56155" lon="1.8867">
        <ele>2130.832</ele>
        <time>2015-08-27T01:17:00Z</time>
      </trkpt>
      <trkpt lat="42.56135" lon="1.88635">
        <ele>2116.887</ele>
        <time>2015-08-27T01:17:20Z</time>
      </trkpt>
      <trkpt lat="42.56127" lon="1.88605">
        <ele>2109.788</ele>
        <time>2015-08-27T01:17:40Z</time>
      </trkpt>
      <trkpt lat="42.56097" lon="1.88502">
        <ele>2086.023</ele>
        <time>2015-08-27T01:18:00Z</time>
      </trkpt>
      <trkpt lat="42.56097" lon="1.88474">
        <ele>2082.822</ele>
        <time>2015-08-27T01:18:20Z</time>
      </trkpt>
      <trkpt lat="42.56102" lon="1.88448">
        <ele>2083.145</ele>
        <time>2015-08-27T01:18:40Z</time>
      </trkpt>
      <trkpt lat="42.56098" lon="1.884">
        <ele>2075.882</ele>
        <time>2015-08-27T01:19:00Z</time>
      </trkpt>
      <trkpt lat="42.5608" lon="1.88346">
        <ele>2063.496</ele>
        <time>2015-08-27T01:19:20Z</time>
      </trkpt>
      <trkpt lat="42.56079" lon="1.88305">
        <ele>2059.245</ele>
        <time>2015-08-27T01:19:40Z</time>
      </trkpt>
      <trkpt lat="42.5603" lon="1.881">
        <ele>2031.047</ele>
        <time>2015-08-27T01:20:00Z</time>
      </trkpt>
      <trkpt lat="42.56032" lon="1.88062">
        <ele>2027.911</ele>
        <time>2015-08-27T01:20:20Z</time>
      </trkpt>
      <trkpt lat="42.56027" lon="1.8802">
        <ele>2023.708</ele>
        <time>2015-08-27T01:20:40Z</time>
      </trkpt>
      <trkpt lat="42.56014" lon="1.87989">
        <ele>2017.47</ele>
        <time>2015-08-27T01:21:00Z</time>
      </trkpt>
      <trkpt lat="42.55997" lon="1.87931">
        <ele>2013.545</ele>
        <time>2015-08-27T01:21:20Z</time>
      </trkpt>
      <trkpt lat="42.55939" lon="1.8782">
        <ele>1999.776</ele>
        <time>2015-08-27T01:21:40Z</time>
      </trkpt>
      <trkpt lat="42.55932" lon="1.87797">
        <ele>2000.281</ele>
        <time>2015-08-27T01:22:00Z</time>
      </trkpt>
      <trkpt lat="42.55887" lon="1.87744">
        <ele>1990.25</ele>
        <time>2015-08-27T01:22:20Z</time>
      </trkpt>
      <trkpt lat="42.55871" lon="1.87712">
        <ele>1989.253</ele>
        <time>2015-08-27T01:22:40Z</time>
      </trkpt>
      <trkpt lat="42.55839" lon="1.87695">
        <ele>1979.88</ele>
        <time>2015-08-27T01:23:00Z</time>
      </trkpt>
      <trkpt lat="42.55789" lon="1.87677">
        <ele>1967.234</ele>
        <time>2015-08-27T01:23:20Z</time>
      </trkpt>
      <trkpt lat="42.55763" lon="1.87659">
        <ele>1959.615</ele>
        <time>2015-08-27T01:23:40Z</time>
      </trkpt>
      <trkpt lat="42.5574" lon="1.87575">
        <ele>1947.365</ele>
        <time>2015-08-27T01:24:00Z</time>
      </trkpt>
      <trkpt lat="42.5574" lon="1.87547">
        <ele>1947.311</ele>
        <time>2015-08-27T01:24:20Z</time>
      </trkpt>
      <trkpt lat="42.55728" lon="1.87497">
        <ele>1942.608</ele>
        <time>2015-08-27T01:24:40Z</time>
      </trkpt>
      <trkpt lat="42.5572" lon="1.87478">
        <ele>1938.637</ele>
        <time>2015-08-27T01:25:00Z</time>
      </trkpt>
      <trkpt lat="42.55712" lon="1.87416">
        <ele>1931.672</ele>
        <time>2015-08-27T01:25:20Z</time>
      </trkpt>
      <trkpt lat="42.5572" lon="1.87368">
        <ele>1932.183</ele>
        <time>2015-08-27T01:25:40Z</time>
      </trkpt>
      <trkpt lat="42.55706" lon="1.87206">
        <ele>1920.998</ele>
        <time>2015-08-27T01:26:00Z</time>
      </trkpt>
      <trkpt lat="42.55688" lon="1.87138">
        <ele>1904.717</ele>
        <time>2015-08-27T01:26:20Z</time>
      </trkpt>
      <trkpt lat="42.55684" lon="1.87055">
        <ele>1890.83</ele>
        <time>2015-08-27T01:26:40Z</time>
      </trkpt>
      <trkpt lat="42.55661" lon="1.86947">
        <ele>1867.557</ele>
        <time>2015-08-27T01:27:00Z</time>
      </trkpt>
      <trkpt lat="42.55669" lon="1.86913">
        <ele>1866.951</ele>
        <time>2015-08-27T01:27:20Z</time>
      </trkpt>
      <trkpt lat="42.55664" lon="1.86835">
        <ele>1857.161</ele>
        <time>2015-08-27T01:27:40Z</time>
      </trkpt>
      <trkpt lat="42.55666" lon="1.86762">
        <ele>1850.621</ele>
        <time>2015-08-27T01:28:00Z</time>
      </trkpt>
      <trkpt lat="42.55675" lon="1.86745">
        <ele>1854.913</ele>
        <time>2015-08-27T01:28:20Z</time>
      </trkpt>
      <trkpt lat="42.55646" lon="1.8669">
        <ele>1843.208</ele>
        <time>2015-08-27T01:28:40Z</time>
      </trkpt>
      <trkpt lat="42.55647" lon="1.8666">
        <ele>1844.112</ele>
        <time>2015-08-27T01:29:00Z</time>
      </trkpt>
      <trkpt lat="42.55633" lon="1.86635">
        <ele>1837.687</ele>
        <time>2015-08-27T01:29:20Z</time>
      </trkpt>
      <trkpt lat="42.55635" lon="1.86609">
        <ele>1839.378</ele>
        <time>2015-08-27T01:29:40Z</time>
      </trkpt>
      <trkpt lat="42.55621" lon="1.86582">
        <ele>1833.333</ele>
        <time>2015-08-27T01:30:00Z</time>
      </trkpt>
      <trkpt lat="42.55605" lon="1.86489">
        <ele>1826.662</ele>
        <time>2015-08-27T01:30:20Z</time>
      </trkpt>
      <trkpt lat="42.55592" lon="1.86454">
        <ele>1819.845</ele>
        <time>2015-08-27T01:30:40Z</time>
      </trkpt>
      <trkpt lat="42.55599" lon="1.86427">
        <ele>1824.662</ele>
        <time>2015-08-27T01:31:00Z</time>
      </trkpt>
      <trkpt lat="42.55587" lon="1.86407">
        <ele>1820.856</ele>
        <time>2015-08-27T01:31:20Z</time>
      </trkpt>
      <trkpt lat="42.55578" lon="1.86406">
        <ele>1816.697</ele>
        <time>2015-08-27T01:31:40Z</time>
      </trkpt>
      <trkpt lat="42.55549" lon="1.8635">
        <ele>1810.823</ele>
        <time>2015-08-27T01:32:00Z</time>
      </trkpt>
      <trkpt lat="42.55528" lon="1.86327">
        <ele>1805.125</ele>
        <time>2015-08-27T01:32:20Z</time>
      </trkpt>
      <trkpt lat="42.55501" lon="1.86268">
        <ele>1802.808</ele>
        <time>2015-08-27T01:32:40Z</time>
      </trkpt>
      <trkpt lat="42.55485" lon="1.86244">
        <ele>1798.235</ele>
        <time>2015-08-27T01:33:00Z</time>
      </trkpt>
      <trkpt lat="42.55476" lon="1.86211">
        <ele>1798.69</ele>
        <time>2015-08-27T01:33:20Z</time>
      </trkpt>
      <trkpt lat="42.55462" lon="1.86178">
        <ele>1795.581</ele>
        <time>2015-08-27T01:33:40Z</time>
      </trkpt>
      <trkpt lat="42.5544" lon="1.86111">
        <ele>1790.946</ele>
        <time>2015-08-27T01:34:00Z</time>
      </trkpt>
      <trkpt lat="42.55433" lon="1.8607">
        <ele>1793.275</ele>
        <time>2015-08-27T01:34:20Z</time>
      </trkpt>
      <trkpt lat="42.55418" lon="1.86036">
        <ele>1787.878</ele>
        <time>2015-08-27T01:34:40Z</time>
      </trkpt>
      <trkpt lat="42.55412" lon="1.86007">
        <ele>1788.355</ele>
        <time>2015-08-27T01:35:00Z</time>
      </trkpt>
      <trkpt lat="42.55364" lon="1.85882">
        <ele>1774.619</ele>
        <time>2015-08-27T01:35:20Z</time>
      </trkpt>
      <trkpt lat="42.55364" lon="1.85855">
        <ele>1777.333</ele>
        <time>2015-08-27T01:35:40Z</time>
      </trkpt>
      <trkpt lat="42.5535" lon="1.85812">
        <ele>1769.523</ele>
        <time>2015-08-27T01:36:00Z</time>
      </trkpt>
      <trkpt lat="42.55352" lon="1.85778">
        <ele>1774.015</ele>
        <time>2015-08-27T01:36:20Z</time>
      </trkpt>
      <trkpt lat="42.55335" lon="1.85722">
        <ele>1762.908</ele>
        <time>2015-08-27T01:36:40Z</time>
      </trkpt>
      <trkpt lat="42.55339" lon="1.85682">
        <ele>1765.629</ele>
        <time>2015-08-27T01:37:00Z</time>
      </trkpt>
      <trkpt lat="42.55337" lon="1.85645">
        <ele>1764.474</ele>
        <time>2015-08-27T01:37:20Z</time>
      </trkpt>
      <trkpt lat="42.55316" lon="1.85557">
        <ele>1757.175</ele>
        <time>2015-08-27T01:37:40Z</time>
      </trkpt>
      <trkpt lat="42.55317" lon="1.85534">
        <ele>1760.49</ele>
        <time>2015-08-27T01:38:00Z</time>
      </trkpt>
      <trkpt lat="42.5528" lon="1.85458">
        <ele>1748.689</ele>
        <time>2015-08-27T01:38:20Z</time>
      </trkpt>
      <trkpt lat="42.55278" lon="1.85436">
        <ele>1751.322</ele>
        <time>2015-08-27T01:38:40Z</time>
      </trkpt>
      <trkpt lat="42.55261" lon="1.85404">
        <ele>1747.489</ele>
        <time>2015-08-27T01:39:00Z</time>
      </trkpt>
      <trkpt lat="42.55256" lon="1.85381">
        <ele>1748.333</ele>
        <time>2015-08-27T01:39:20Z</time>
      </trkpt>
      <trkpt lat="42.55262" lon="1.85357">
        <ele>1752.755</ele>
        <time>2015-08-27T01:39:40Z</time>
      </trkpt>
      <trkpt lat="42.55249" lon="1.8533">
        <ele>1746.207</ele>
        <time>2015-08-27T01:40:00Z</time>
      </trkpt>
      <trkpt lat="42.55256" lon="1.85293">
        <ele>1751.717</ele>
        <time>2015-08-27T01:40:20Z</time>
      </trkpt>
      <trkpt lat="42.55237" lon="1.85274">
        <ele>1743.508</ele>
        <time>2015-08-27T01:40:40Z</time>
      </trkpt>
      <trkpt lat="42.55215" lon="1.85159">
        <ele>1740.961</ele>
        <time>2015-08-27T01:41:00Z</time>
      </trkpt>
      <trkpt lat="42.55222" lon="1.8513">
        <ele>1745.316</ele>
        <time>2015-08-27T01:41:20Z</time>
      </trkpt>
      <trkpt lat="42.55203" lon="1.85087">
        <ele>1736.567</ele>
        <time>2015-08-27T01:41:40Z</time>
      </trkpt>
      <trkpt lat="42.55194" lon="1.8503">
        <ele>1734.662</ele>
        <time>2015-08-27T01:42:00Z</time>
      </trkpt>
      <trkpt lat="42.55182" lon="1.84998">
        <ele>1729.031</ele>
        <time>2015-08-27T01:42:20Z</time>
      </trkpt>
      <trkpt lat="42.55167" lon="1.8491">
        <ele>1724.564</ele>
        <time>2015-08-27T01:42:40Z</time>
      </trkpt>
      <trkpt lat="42.5515" lon="1.84833">
        <ele>1719.091</ele>
        <time>2015-08-27T01:43:00Z</time>
      </trkpt>
      <trkpt lat="42.55092" lon="1.84659">
        <ele>1712.295</ele>
        <time>2015-08-27T01:43:20Z</time>
      </trkpt>
      <trkpt lat="42.5507" lon="1.84615">
        <ele>1704.031</ele>
        <time>2015-08-27T01:43:40Z</time>
      </trkpt>
      <trkpt lat="42.55063" lon="1.84563">
        <ele>1704.361</ele>
        <time>2015-08-27T01:44:00Z</time>
      </trkpt>
      <trkpt lat="42.55063" lon="1.84485">
        <ele>1700.107</ele>
        <time>2015-08-27T01:44:20Z</time>
      </trkpt>
      <trkpt lat="42.55048" lon="1.84417">
        <ele>1692.308</ele>
        <time>2015-08-27T01:44:40Z</time>
      </trkpt>
      <trkpt lat="42.55047" lon="1.8439">
        <ele>1693.529</ele>
        <time>2015-08-27T01:45:00Z</time>
      </trkpt>
      <trkpt lat="42.5504" lon="1.84357">
        <ele>1690.154</ele>
        <time>2015-08-27T01:45:20Z</time>
      </trkpt>
      <trkpt lat="42.55038" lon="1.84287">
        <ele>1691.545</ele>
        <time>2015-08-27T01:45:40Z</time>
      </trkpt>
      <trkpt lat="42.55012" lon="1.84212">
        <ele>1679.16</ele>
        <time>2019-03-29T18:40:42Z</time>
      </trkpt>
      <trkpt lat="42.54996" lon="1.84232">
        <ele>1669.419</ele>
        <time>2019-03-29T18:41:02Z</time>
      </trkpt>
      <trkpt lat="42.55006" lon="1.8427">
        <ele>1671.752</ele>
        <time>2019-03-29T18:41:22Z</time>
      </trkpt>
      <trkpt lat="42.54978" lon="1.84251">
        <ele>1659.349</ele>
        <time>2019-03-29T18:41:42Z</time>
      </trkpt>
      <trkpt lat="42.54951" lon="1.84207">
        <ele>1654.623</ele>
        <time>2015-08-27T01:46:20Z</time>
      </trkpt>
      <trkpt lat="42.54941" lon="1.84111">
        <ele>1654.133</ele>
        <time>2015-08-27T01:46:40Z</time>
      </trkpt>
      <trkpt lat="42.54916" lon="1.84016">
        <ele>1643.523</ele>
        <time>2015-08-27T01:47:00Z</time>
      </trkpt>
      <trkpt lat="42.54922" lon="1.83908">
        <ele>1641.315</ele>
        <time>2015-08-27T01:47:20Z</time>
      </trkpt>
      <trkpt lat="42.54901" lon="1.83627">
        <ele>1628.908</ele>
        <time>2015-08-27T01:47:40Z</time>
      </trkpt>
      <trkpt lat="42.54903" lon="1.83505">
        <ele>1626.589</ele>
        <time>2015-08-27T01:48:00Z</time>
      </trkpt>
      <trkpt lat="42.54886" lon="1.83398">
        <ele>1627.264</ele>
        <time>2015-08-27T01:48:20Z</time>
      </trkpt>
      <trkpt lat="42.54877" lon="1.83335">
        <ele>1627.755</ele>
        <time>2019-03-29T18:44:22Z</time>
      </trkpt>
      <trkpt lat="42.54862" lon="1.83318">
        <ele>1624.07</ele>
        <time>2019-03-29T18:44:42Z</time>
      </trkpt>
      <trkpt lat="42.54828" lon="1.83298">
        <ele>1619.539</ele>
        <time>2019-03-29T18:45:02Z</time>
      </trkpt>
      <trkpt lat="42.54847" lon="1.83293">
        <ele>1620.332</ele>
        <time>2015-08-27T01:50:00Z</time>
      </trkpt>
      <trkpt lat="42.54853" lon="1.83257">
        <ele>1619.529</ele>
        <time>2015-08-27T01:50:20Z</time>
      </trkpt>
      <trkpt lat="42.54847" lon="1.8322">
        <ele>1619.643</ele>
        <time>2015-08-27T01:50:40Z</time>
      </trkpt>
      <trkpt lat="42.54846" lon="1.83184">
        <ele>1621.599</ele>
        <time>2015-08-27T01:51:00Z</time>
      </trkpt>
      <trkpt lat="42.54815" lon="1.83138">
        <ele>1620.307</ele>
        <time>2015-08-27T01:51:20Z</time>
      </trkpt>
      <trkpt lat="42.54802" lon="1.83097">
        <ele>1618.027</ele>
        <time>2015-08-27T01:51:40Z</time>
      </trkpt>
      <trkpt lat="42.54802" lon="1.83055">
        <ele>1616.508</ele>
        <time>2015-08-27T01:52:00Z</time>
      </trkpt>
      <trkpt lat="42.54795" lon="1.82969">
        <ele>1612.425</ele>
        <time>2015-08-27T01:52:20Z</time>
      </trkpt>
      <trkpt lat="42.54739" lon="1.82898">
        <ele>1604.14</ele>
        <time>2015-08-27T01:52:40Z</time>
      </trkpt>
      <trkpt lat="42.54685" lon="1.82584">
        <ele>1604.251</ele>
        <time>2015-08-27T01:53:00Z</time>
      </trkpt>
      <trkpt lat="42.54672" lon="1.82572">
        <ele>1603.026</ele>
        <time>2015-08-27T01:53:20Z</time>
      </trkpt>
      <trkpt lat="42.54611" lon="1.82568">
        <ele>1601.955</ele>
        <time>2015-08-27T01:53:40Z</time>
      </trkpt>
      <trkpt lat="42.54593" lon="1.82551">
        <ele>1604.868</ele>
        <time>2015-08-27T01:54:00Z</time>
      </trkpt>
      <trkpt lat="42.54572" lon="1.82558">
        <ele>1603.225</ele>
        <time>2015-08-27T01:54:20Z</time>
      </trkpt>
      <trkpt lat="42.54534" lon="1.82558">
        <ele>1603.599</ele>
        <time>2015-08-27T01:54:40Z</time>
      </trkpt>
      <trkpt lat="42.545" lon="1.82547">
        <ele>1608.855</ele>
        <time>2015-08-27T01:55:00Z</time>
      </trkpt>
      <trkpt lat="42.54416" lon="1.82563">
        <ele>1615.407</ele>
        <time>2015-08-27T01:55:20Z</time>
      </trkpt>
      <trkpt lat="42.54391" lon="1.82582">
        <ele>1612.517</ele>
        <time>2015-08-27T01:55:40Z</time>
      </trkpt>
      <trkpt lat="42.54358" lon="1.82599">
        <ele>1613.508</ele>
        <time>2015-08-27T01:56:00Z</time>
      </trkpt>
      <trkpt lat="42.54323" lon="1.82622">
        <ele>1607.871</ele>
        <time>2015-08-27T01:56:20Z</time>
      </trkpt>
      <trkpt lat="42.54291" lon="1.82633">
        <ele>1608.826</ele>
        <time>2015-08-27T01:56:40Z</time>
      </trkpt>
      <trkpt lat="42.54199" lon="1.82679">
        <ele>1604.987</ele>
        <time>2015-08-27T01:57:00Z</time>
      </trkpt>
      <trkpt lat="42.54158" lon="1.82694">
        <ele>1597.252</ele>
        <time>2015-08-27T01:57:20Z</time>
      </trkpt>
      <trkpt lat="42.54144" lon="1.82649">
        <ele>1596.211</ele>
        <time>2015-08-27T01:57:40Z</time>
      </trkpt>
      <trkpt lat="42.54144" lon="1.82598">
        <ele>1592.914</ele>
        <time>2015-08-27T01:58:00Z</time>
      </trkpt>
      <trkpt lat="42.54168" lon="1.82549">
        <ele>1587.071</ele>
        <time>2015-08-27T01:58:20Z</time>
      </trkpt>
      <trkpt lat="42.54171" lon="1.82507">
        <ele>1580.535</ele>
        <time>2015-08-27T01:58:40Z</time>
      </trkpt>
      <trkpt lat="42.54153" lon="1.8244">
        <ele>1574.171</ele>
        <time>2015-08-27T01:59:00Z</time>
      </trkpt>
      <trkpt lat="42.54139" lon="1.82417">
        <ele>1572.041</ele>
        <time>2015-08-27T01:59:20Z</time>
      </trkpt>
      <trkpt lat="42.5412" lon="1.82404">
        <ele>1570.915</ele>
        <time>2015-08-27T01:59:40Z</time>
      </trkpt>
      <trkpt lat="42.54113" lon="1.82389">
        <ele>1570.308</ele>
        <time>2015-08-27T02:00:00Z</time>
      </trkpt>
      <trkpt lat="42.5411" lon="1.82347">
        <ele>1573.993</ele>
        <time>2015-08-27T02:00:20Z</time>
      </trkpt>
      <trkpt lat="42.54098" lon="1.82331">
        <ele>1574.928</ele>
        <time>2015-08-27T02:00:40Z</time>
      </trkpt>
      <trkpt lat="42.54049" lon="1.82309">
        <ele>1571.029</ele>
        <time>2015-08-27T02:01:00Z</time>
      </trkpt>
      <trkpt lat="42.53968" lon="1.8226">
        <ele>1561.134</ele>
        <time>2015-08-27T02:01:20Z</time>
      </trkpt>
      <trkpt lat="42.53929" lon="1.82225">
        <ele>1563.443</ele>
        <time>2015-08-27T02:01:40Z</time>
      </trkpt>
      <trkpt lat="42.53895" lon="1.82235">
        <ele>1559.016</ele>
        <time>2015-08-27T02:02:00Z</time>
      </trkpt>
      <trkpt lat="42.53854" lon="1.82222">
        <ele>1556.023</ele>
        <time>2015-08-27T02:02:20Z</time>
      </trkpt>
      <trkpt lat="42.53822" lon="1.82271">
        <ele>1550.137</ele>
        <time>2015-08-27T02:02:40Z</time>
      </trkpt>
      <trkpt lat="42.53794" lon="1.82271">
        <ele>1549.614</ele>
        <time>2015-08-27T02:03:00Z</time>
      </trkpt>
      <trkpt lat="42.5373" lon="1.82229">
        <ele>1548.354</ele>
        <time>2015-08-27T02:03:20Z</time>
      </trkpt>
      <trkpt lat="42.53701" lon="1.82193">
        <ele>1547.309</ele>
        <time>2015-08-27T02:03:40Z</time>
      </trkpt>
      <trkpt lat="42.53665" lon="1.82134">
        <ele>1548.108</ele>
        <time>2015-08-27T02:04:00Z</time>
      </trkpt>
      <trkpt lat="42.53598" lon="1.82133">
        <ele>1546.897</ele>
        <time>2015-08-27T02:04:20Z</time>
      </trkpt>
      <trkpt lat="42.53519" lon="1.82111">
        <ele>1546.712</ele>
        <time>2015-08-27T02:04:40Z</time>
      </trkpt>
      <trkpt lat="42.53446" lon="1.82122">
        <ele>1544.883</ele>
        <time>2015-08-27T02:05:00Z</time>
      </trkpt>
      <trkpt lat="42.53333" lon="1.82135">
        <ele>1540.078</ele>
        <time>2015-08-27T02:05:20Z</time>
      </trkpt>
      <trkpt lat="42.53322" lon="1.82159">
        <ele>1540.047</ele>
        <time>2015-08-27T02:05:40Z</time>
      </trkpt>
      <trkpt lat="42.53291" lon="1.8215">
        <ele>1540.01</ele>
        <time>2015-08-27T02:06:00Z</time>
      </trkpt>
      <trkpt lat="42.53262" lon="1.82116">
        <ele>1540.057</ele>
        <time>2015-08-27T02:06:20Z</time>
      </trkpt>
      <trkpt lat="42.53219" lon="1.82104">
        <ele>1540.041</ele>
        <time>2015-08-27T02:06:40Z</time>
      </trkpt>
      <trkpt lat="42.53175" lon="1.82063">
        <ele>1540.058</ele>
        <time>2015-08-27T02:07:00Z</time>
      </trkpt>
      <trkpt lat="42.53149" lon="1.82063">
        <ele>1540.052</ele>
        <time>2015-08-27T02:07:20Z</time>
      </trkpt>
      <trkpt lat="42.5311" lon="1.82104">
        <ele>1538.117</ele>
        <time>2015-08-27T02:07:40Z</time>
      </trkpt>
      <trkpt lat="42.53008" lon="1.82203">
        <ele>1532.708</ele>
        <time>2015-08-27T02:08:00Z</time>
      </trkpt>
      <trkpt lat="42.52996" lon="1.8224">
        <ele>1535.431</ele>
        <time>2015-08-27T02:08:20Z</time>
      </trkpt>
      <trkpt lat="42.52971" lon="1.82261">
        <ele>1530.996</ele>
        <time>2015-08-27T02:08:40Z</time>
      </trkpt>
      <trkpt lat="42.52956" lon="1.823">
        <ele>1531.687</ele>
        <time>2015-08-27T02:09:00Z</time>
      </trkpt>
      <trkpt lat="42.52926" lon="1.82315">
        <ele>1526.452</ele>
        <time>2015-08-27T02:09:20Z</time>
      </trkpt>
      <trkpt lat="42.52904" lon="1.82353">
        <ele>1525.621</ele>
        <time>2015-08-27T02:09:40Z</time>
      </trkpt>
      <trkpt lat="42.52859" lon="1.82371">
        <ele>1521.654</ele>
        <time>2015-08-27T02:10:00Z</time>
      </trkpt>
      <trkpt lat="42.52799" lon="1.82365">
        <ele>1518.161</ele>
        <time>2015-08-27T02:10:20Z</time>
      </trkpt>
      <trkpt lat="42.52782" lon="1.82372">
        <ele>1516.385</ele>
        <time>2015-08-27T02:10:40Z</time>
      </trkpt>
      <trkpt lat="42.5273" lon="1.82342">
        <ele>1511.452</ele>
        <time>2015-08-27T02:11:00Z</time>
      </trkpt>
      <trkpt lat="42.52656" lon="1.82293">
        <ele>1510.053</ele>
        <time>2015-08-27T02:11:20Z</time>
      </trkpt>
      <trkpt lat="42.5254" lon="1.8227">
        <ele>1509.008</ele>
        <time>2015-08-27T02:11:40Z</time>
      </trkpt>
      <trkpt lat="42.52452" lon="1.82185">
        <ele>1505.008</ele>
        <time>2015-08-27T02:12:00Z</time>
      </trkpt>
      <trkpt lat="42.5238" lon="1.82098">
        <ele>1500.761</ele>
        <time>2015-08-27T02:12:20Z</time>
      </trkpt>
      <trkpt lat="42.52383" lon="1.82073">
        <ele>1501.176</ele>
        <time>2015-08-27T02:12:40Z</time>
      </trkpt>
      <trkpt lat="42.52369" lon="1.82047">
        <ele>1501.277</ele>
        <time>2015-08-27T02:13:00Z</time>
      </trkpt>
      <trkpt lat="42.52389" lon="1.8195">
        <ele>1507.842</ele>
        <time>2015-08-27T02:13:20Z</time>
      </trkpt>
      <trkpt lat="42.52367" lon="1.81918">
        <ele>1509.941</ele>
        <time>2015-08-27T02:13:40Z</time>
      </trkpt>
      <trkpt lat="42.52354" lon="1.81885">
        <ele>1514.324</ele>
        <time>2015-08-27T02:14:00Z</time>
      </trkpt>
      <trkpt lat="42.52353" lon="1.81822">
        <ele>1523.371</ele>
        <time>2015-08-27T02:14:20Z</time>
      </trkpt>
      <trkpt lat="42.52296" lon="1.81772">
        <ele>1529.615</ele>
        <time>2015-08-27T02:14:40Z</time>
      </trkpt>
      <trkpt lat="42.52282" lon="1.81736">
        <ele>1535.856</ele>
        <time>2015-08-27T02:15:00Z</time>
      </trkpt>
      <trkpt lat="42.52264" lon="1.81714">
        <ele>1536.859</ele>
        <time>2015-08-27T02:15:20Z</time>
      </trkpt>
      <trkpt lat="42.52245" lon="1.81638">
        <ele>1551.614</ele>
        <time>2019-03-29T19:11:02Z</time>
      </trkpt>
      <trkpt lat="42.52194" lon="1.81602">
        <ele>1567.008</ele>
        <time>2019-03-29T19:11:22Z</time>
      </trkpt>
      <trkpt lat="42.52142" lon="1.81603">
        <ele>1568.821</ele>
        <time>2015-08-27T02:17:20Z</time>
      </trkpt>
      <trkpt lat="42.52117" lon="1.81594">
        <ele>1574.166</ele>
        <time>2015-08-27T02:17:40Z</time>
      </trkpt>
      <trkpt lat="42.52076" lon="1.81541">
        <ele>1583.257</ele>
        <time>2015-08-27T02:18:00Z</time>
      </trkpt>
      <trkpt lat="42.52055" lon="1.81529">
        <ele>1585.942</ele>
        <time>2015-08-27T02:18:20Z</time>
      </trkpt>
      <trkpt lat="42.52003" lon="1.81523">
        <ele>1592.681</ele>
        <time>2015-08-27T02:18:40Z</time>
      </trkpt>
      <trkpt lat="42.51914" lon="1.81487">
        <ele>1611.774</ele>
        <time>2015-08-27T02:19:00Z</time>
      </trkpt>
      <trkpt lat="42.51871" lon="1.81458">
        <ele>1627.581</ele>
        <time>2015-08-27T02:19:20Z</time>
      </trkpt>
      <trkpt lat="42.51784" lon="1.81425">
        <ele>1639.895</ele>
        <time>2015-08-27T02:19:40Z</time>
      </trkpt>
      <trkpt lat="42.51767" lon="1.81405">
        <ele>1641.526</ele>
        <time>2015-08-27T02:20:00Z</time>
      </trkpt>
      <trkpt lat="42.51759" lon="1.81363">
        <ele>1647.447</ele>
        <time>2015-08-27T02:20:20Z</time>
      </trkpt>
      <trkpt lat="42.51747" lon="1.81328">
        <ele>1651.111</ele>
        <time>2015-08-27T02:20:40Z</time>
      </trkpt>
      <trkpt lat="42.51722" lon="1.81221">
        <ele>1666.408</ele>
        <time>2015-08-27T02:21:00Z</time>
      </trkpt>
      <trkpt lat="42.51706" lon="1.81176">
        <ele>1673.748</ele>
        <time>2015-08-27T02:21:20Z</time>
      </trkpt>
      <trkpt lat="42.51682" lon="1.81126">
        <ele>1677.073</ele>
        <time>2015-08-27T02:21:40Z</time>
      </trkpt>
      <trkpt lat="42.51684" lon="1.81028">
        <ele>1695.554</ele>
        <time>2015-08-27T02:22:00Z</time>
      </trkpt>
      <trkpt lat="42.51672" lon="1.80979">
        <ele>1699.929</ele>
        <time>2015-08-27T02:22:20Z</time>
      </trkpt>
      <trkpt lat="42.51667" lon="1.80951">
        <ele>1703.248</ele>
        <time>2015-08-27T02:22:40Z</time>
      </trkpt>
      <trkpt lat="42.51648" lon="1.8088">
        <ele>1708.571</ele>
        <time>2015-08-27T02:23:00Z</time>
      </trkpt>
      <trkpt lat="42.51632" lon="1.80861">
        <ele>1707.498</ele>
        <time>2015-08-27T02:23:20Z</time>
      </trkpt>
      <trkpt lat="42.51628" lon="1.80834">
        <ele>1709.752</ele>
        <time>2015-08-27T02:23:40Z</time>
      </trkpt>
      <trkpt lat="42.51604" lon="1.80799">
        <ele>1709.891</ele>
        <time>2015-08-27T02:24:00Z</time>
      </trkpt>
      <trkpt lat="42.51576" lon="1.80781">
        <ele>1709.481</ele>
        <time>2015-08-27T02:24:20Z</time>
      </trkpt>
      <trkpt lat="42.51547" lon="1.8071">
        <ele>1716.819</ele>
        <time>2015-08-27T02:24:40Z</time>
      </trkpt>
      <trkpt lat="42.51546" lon="1.80673">
        <ele>1722.108</ele>
        <time>2015-08-27T02:25:00Z</time>
      </trkpt>
      <trkpt lat="42.51559" lon="1.80643">
        <ele>1729.245</ele>
        <time>2015-08-27T02:25:20Z</time>
      </trkpt>
      <trkpt lat="42.51546" lon="1.80584">
        <ele>1732.83</ele>
        <time>2015-08-27T02:25:40Z</time>
      </trkpt>
      <trkpt lat="42.51524" lon="1.80537">
        <ele>1734.791</ele>
        <time>2015-08-27T02:26:00Z</time>
      </trkpt>
      <trkpt lat="42.51479" lon="1.80491">
        <ele>1738.756</ele>
        <time>2015-08-27T02:26:20Z</time>
      </trkpt>
      <trkpt lat="42.51467" lon="1.8046">
        <ele>1740.625</ele>
        <time>2015-08-27T02:26:40Z</time>
      </trkpt>
      <trkpt lat="42.51469" lon="1.80429">
        <ele>1744.138</ele>
        <time>2015-08-27T02:27:00Z</time>
      </trkpt>
      <trkpt lat="42.51443" lon="1.80328">
        <ele>1748.665</ele>
        <time>2015-08-27T02:27:20Z</time>
      </trkpt>
      <trkpt lat="42.51441" lon="1.80284">
        <ele>1753.639</ele>
        <time>2015-08-27T02:27:40Z</time>
      </trkpt>
      <trkpt lat="42.51397" lon="1.80225">
        <ele>1759.185</ele>
        <time>2015-08-27T02:28:00Z</time>
      </trkpt>
      <trkpt lat="42.51386" lon="1.80196">
        <ele>1760.889</ele>
        <time>2015-08-27T02:28:20Z</time>
      </trkpt>
      <trkpt lat="42.5136" lon="1.80059">
        <ele>1771.317</ele>
        <time>2015-08-27T02:28:40Z</time>
      </trkpt>
      <trkpt lat="42.51322" lon="1.79992">
        <ele>1776.108</ele>
        <time>2015-08-27T02:29:00Z</time>
      </trkpt>
      <trkpt lat="42.51298" lon="1.79959">
        <ele>1779.614</ele>
        <time>2015-08-27T02:29:20Z</time>
      </trkpt>
      <trkpt lat="42.51288" lon="1.79931">
        <ele>1783.589</ele>
        <time>2015-08-27T02:29:40Z</time>
      </trkpt>
      <trkpt lat="42.51254" lon="1.79889">
        <ele>1785.62</ele>
        <time>2015-08-27T02:30:00Z</time>
      </trkpt>
      <trkpt lat="42.5124" lon="1.79848">
        <ele>1788.045</ele>
        <time>2015-08-27T02:30:20Z</time>
      </trkpt>
      <trkpt lat="42.51239" lon="1.79819">
        <ele>1790.834</ele>
        <time>2015-08-27T02:30:40Z</time>
      </trkpt>
      <trkpt lat="42.51225" lon="1.79736">
        <ele>1793.617</ele>
        <time>2015-08-27T02:31:00Z</time>
      </trkpt>
      <trkpt lat="42.51224" lon="1.79688">
        <ele>1796.824</ele>
        <time>2015-08-27T02:31:20Z</time>
      </trkpt>
      <trkpt lat="42.51206" lon="1.79633">
        <ele>1798.328</ele>
        <time>2015-08-27T02:31:40Z</time>
      </trkpt>
      <trkpt lat="42.51199" lon="1.79589">
        <ele>1802.181</ele>
        <time>2015-08-27T02:32:00Z</time>
      </trkpt>
      <trkpt lat="42.51185" lon="1.79529">
        <ele>1809.161</ele>
        <time>2015-08-27T02:32:20Z</time>
      </trkpt>
      <trkpt lat="42.5117" lon="1.79479">
        <ele>1815.417</ele>
        <time>2015-08-27T02:32:40Z</time>
      </trkpt>
      <trkpt lat="42.5116" lon="1.79434">
        <ele>1824.608</ele>
        <time>2015-08-27T02:33:00Z</time>
      </trkpt>
      <trkpt lat="42.51112" lon="1.79351">
        <ele>1838.954</ele>
        <time>2015-08-27T02:33:20Z</time>
      </trkpt>
      <trkpt lat="42.51102" lon="1.79319">
        <ele>1842.899</ele>
        <time>2015-08-27T02:33:40Z</time>
      </trkpt>
      <trkpt lat="42.51096" lon="1.79279">
        <ele>1845.67</ele>
        <time>2015-08-27T02:34:00Z</time>
      </trkpt>
      <trkpt lat="42.51107" lon="1.79214">
        <ele>1855.865</ele>
        <time>2015-08-27T02:34:20Z</time>
      </trkpt>
      <trkpt lat="42.51082" lon="1.79152">
        <ele>1859.614</ele>
        <time>2015-08-27T02:34:40Z</time>
      </trkpt>
      <trkpt lat="42.51093" lon="1.79031">
        <ele>1882.527</ele>
        <time>2015-08-27T02:35:00Z</time>
      </trkpt>
      <trkpt lat="42.51076" lon="1.78995">
        <ele>1882.844</ele>
        <time>2015-08-27T02:35:20Z</time>
      </trkpt>
      <trkpt lat="42.51078" lon="1.78945">
        <ele>1890.568</ele>
        <time>2015-08-27T02:35:40Z</time>
      </trkpt>
      <trkpt lat="42.51071" lon="1.78918">
        <ele>1889.799</ele>
        <time>2015-08-27T02:36:00Z</time>
      </trkpt>
      <trkpt lat="42.51073" lon="1.78885">
        <ele>1895.507</ele>
        <time>2015-08-27T02:36:20Z</time>
      </trkpt>
      <trkpt lat="42.51066" lon="1.78836">
        <ele>1900.127</ele>
        <time>2015-08-27T02:36:40Z</time>
      </trkpt>
      <trkpt lat="42.51045" lon="1.78788">
        <ele>1904.908</ele>
        <time>2015-08-27T02:37:00Z</time>
      </trkpt>
      <trkpt lat="42.51035" lon="1.78739">
        <ele>1913.275</ele>
        <time>2015-08-27T02:37:20Z</time>
      </trkpt>
      <trkpt lat="42.51015" lon="1.7871">
        <ele>1915.45</ele>
        <time>2015-08-27T02:37:40Z</time>
      </trkpt>
      <trkpt lat="42.51" lon="1.78671">
        <ele>1920.341</ele>
        <time>2015-08-27T02:38:00Z</time>
      </trkpt>
      <trkpt lat="42.50994" lon="1.78623">
        <ele>1924.126</ele>
        <time>2015-08-27T02:38:20Z</time>
      </trkpt>
      <trkpt lat="42.50991" lon="1.7855">
        <ele>1927.825</ele>
        <time>2015-08-27T02:38:40Z</time>
      </trkpt>
      <trkpt lat="42.50993" lon="1.78523">
        <ele>1930.118</ele>
        <time>2015-08-27T02:39:00Z</time>
      </trkpt>
      <trkpt lat="42.50969" lon="1.78425">
        <ele>1938.495</ele>
        <time>2015-08-27T02:39:20Z</time>
      </trkpt>
      <trkpt lat="42.50943" lon="1.78364">
        <ele>1946.619</ele>
        <time>2015-08-27T02:39:40Z</time>
      </trkpt>
      <trkpt lat="42.50931" lon="1.78319">
        <ele>1951.752</ele>
        <time>2015-08-27T02:40:00Z</time>
      </trkpt>
      <trkpt lat="42.50907" lon="1.7829">
        <ele>1953.853</ele>
        <time>2015-08-27T02:40:20Z</time>
      </trkpt>
      <trkpt lat="42.50896" lon="1.78258">
        <ele>1958.408</ele>
        <time>2015-08-27T02:40:40Z</time>
      </trkpt>
      <trkpt lat="42.50859" lon="1.78207">
        <ele>1962.908</ele>
        <time>2015-08-27T02:41:00Z</time>
      </trkpt>
      <trkpt lat="42.50863" lon="1.78177">
        <ele>1965.421</ele>
        <time>2015-08-27T02:41:20Z</time>
      </trkpt>
      <trkpt lat="42.50858" lon="1.78127">
        <ele>1970.276</ele>
        <time>2015-08-27T02:41:40Z</time>
      </trkpt>
      <trkpt lat="42.50843" lon="1.78087">
        <ele>1974.827</ele>
        <time>2015-08-27T02:42:00Z</time>
      </trkpt>
      <trkpt lat="42.50846" lon="1.78055">
        <ele>1981.262</ele>
        <time>2015-08-27T02:42:20Z</time>
      </trkpt>
      <trkpt lat="42.50834" lon="1.78048">
        <ele>1983.281</ele>
        <time>2015-08-27T02:42:40Z</time>
      </trkpt>
      <trkpt lat="42.50831" lon="1.78034">
        <ele>1987.024</ele>
        <time>2015-08-27T02:43:00Z</time>
      </trkpt>
      <trkpt lat="42.50858" lon="1.77986">
        <ele>1996.761</ele>
        <time>2015-08-27T02:43:20Z</time>
      </trkpt>
      <trkpt lat="42.50848" lon="1.77959">
        <ele>1999.385</ele>
        <time>2015-08-27T02:43:40Z</time>
      </trkpt>
      <trkpt lat="42.50856" lon="1.77903">
        <ele>2008.338</ele>
        <time>2015-08-27T02:44:00Z</time>
      </trkpt>
      <trkpt lat="42.50867" lon="1.7787">
        <ele>2015.47</ele>
        <time>2015-08-27T02:44:20Z</time>
      </trkpt>
      <trkpt lat="42.50869" lon="1.77839">
        <ele>2022.217</ele>
        <time>2015-08-27T02:44:40Z</time>
      </trkpt>
      <trkpt lat="42.50847" lon="1.7782">
        <ele>2020.808</ele>
        <time>2015-08-27T02:45:00Z</time>
      </trkpt>
      <trkpt lat="42.50835" lon="1.77777">
        <ele>2022.649</ele>
        <time>2015-08-27T02:45:20Z</time>
      </trkpt>
      <trkpt lat="42.50834" lon="1.77755">
        <ele>2025.474</ele>
        <time>2015-08-27T02:45:40Z</time>
      </trkpt>
      <trkpt lat="42.50826" lon="1.77717">
        <ele>2026.535</ele>
        <time>2015-08-27T02:46:00Z</time>
      </trkpt>
      <trkpt lat="42.50822" lon="1.77629">
        <ele>2031.27</ele>
        <time>2015-08-27T02:46:20Z</time>
      </trkpt>
      <trkpt lat="42.50831" lon="1.77596">
        <ele>2036.789</ele>
        <time>2015-08-27T02:46:40Z</time>
      </trkpt>
      <trkpt lat="42.50821" lon="1.7757">
        <ele>2033.362</ele>
        <time>2015-08-27T02:47:00Z</time>
      </trkpt>
      <trkpt lat="42.5082" lon="1.77522">
        <ele>2035.329</ele>
        <time>2015-08-27T02:47:20Z</time>
      </trkpt>
      <trkpt lat="42.50831" lon="1.77476">
        <ele>2039.273</ele>
        <time>2015-08-27T02:47:40Z</time>
      </trkpt>
      <trkpt lat="42.50831" lon="1.77454">
        <ele>2039.597</ele>
        <time>2015-08-27T02:48:00Z</time>
      </trkpt>
      <trkpt lat="42.50852" lon="1.77367">
        <ele>2047.023</ele>
        <time>2015-08-27T02:48:20Z</time>
      </trkpt>
      <trkpt lat="42.5089" lon="1.77309">
        <ele>2058.625</ele>
        <time>2015-08-27T02:48:40Z</time>
      </trkpt>
      <trkpt lat="42.50897" lon="1.77252">
        <ele>2061.608</ele>
        <time>2015-08-27T02:49:00Z</time>
      </trkpt>
      <trkpt lat="42.50863" lon="1.77213">
        <ele>2058.685</ele>
        <time>2015-08-27T02:49:20Z</time>
      </trkpt>
      <trkpt lat="42.50857" lon="1.77143">
        <ele>2066.52</ele>
        <time>2015-08-27T02:49:40Z</time>
      </trkpt>
      <trkpt lat="42.50836" lon="1.77143">
        <ele>2066.661</ele>
        <time>2015-08-27T02:50:00Z</time>
      </trkpt>
      <trkpt lat="42.50832" lon="1.77106">
        <ele>2070.666</ele>
        <time>2015-08-27T02:50:20Z</time>
      </trkpt>
      <trkpt lat="42.50838" lon="1.77068">
        <ele>2074.285</ele>
        <time>2015-08-27T02:50:40Z</time>
      </trkpt>
      <trkpt lat="42.50824" lon="1.77018">
        <ele>2080.478</ele>
        <time>2015-08-27T02:51:00Z</time>
      </trkpt>
      <trkpt lat="42.50823" lon="1.76991">
        <ele>2082.185</ele>
        <time>2015-08-27T02:51:20Z</time>
      </trkpt>
      <trkpt lat="42.50818" lon="1.76972">
        <ele>2083.169</ele>
        <time>2015-08-27T02:51:40Z</time>
      </trkpt>
      <trkpt lat="42.50813" lon="1.76919">
        <ele>2086.019</ele>
        <time>2015-08-27T02:52:00Z</time>
      </trkpt>
      <trkpt lat="42.50824" lon="1.76889">
        <ele>2085.009</ele>
        <time>2015-08-27T02:52:20Z</time>
      </trkpt>
      <trkpt lat="42.50826" lon="1.76802">
        <ele>2086.219</ele>
        <time>2015-08-27T02:52:40Z</time>
      </trkpt>
      <trkpt lat="42.50834" lon="1.76736">
        <ele>2084.308</ele>
        <time>2015-08-27T02:53:00Z</time>
      </trkpt>
      <trkpt lat="42.50831" lon="1.76678">
        <ele>2088.667</ele>
        <time>2015-08-27T02:53:20Z</time>
      </trkpt>
      <trkpt lat="42.50837" lon="1.76632">
        <ele>2091.192</ele>
        <time>2015-08-27T02:53:40Z</time>
      </trkpt>
      <trkpt lat="42.50821" lon="1.7654">
        <ele>2098.413</ele>
        <time>2015-08-27T02:54:00Z</time>
      </trkpt>
      <trkpt lat="42.5083" lon="1.76468">
        <ele>2102.568</ele>
        <time>2015-08-27T02:54:20Z</time>
      </trkpt>
      <trkpt lat="42.50829" lon="1.76443">
        <ele>2103.627</ele>
        <time>2015-08-27T02:54:40Z</time>
      </trkpt>
      <trkpt lat="42.50838" lon="1.76425">
        <ele>2102.81</ele>
        <time>2015-08-27T02:55:00Z</time>
      </trkpt>
      <trkpt lat="42.50833" lon="1.76401">
        <ele>2105.747</ele>
        <time>2015-08-27T02:55:20Z</time>
      </trkpt>
      <trkpt lat="42.50848" lon="1.76369">
        <ele>2105.571</ele>
        <time>2015-08-27T02:55:40Z</time>
      </trkpt>
      <trkpt lat="42.50853" lon="1.76316">
        <ele>2109.363</ele>
        <time>2015-08-27T02:56:00Z</time>
      </trkpt>
      <trkpt lat="42.50873" lon="1.76186">
        <ele>2114.744</ele>
        <time>2015-08-27T02:56:20Z</time>
      </trkpt>
      <trkpt lat="42.50872" lon="1.76128">
        <ele>2119.218</ele>
        <time>2015-08-27T02:56:40Z</time>
      </trkpt>
      <trkpt lat="42.50849" lon="1.76082">
        <ele>2130.608</ele>
        <time>2015-08-27T02:57:00Z</time>
      </trkpt>
      <trkpt lat="42.50844" lon="1.76013">
        <ele>2132.992</ele>
        <time>2015-08-27T02:57:20Z</time>
      </trkpt>
      <trkpt lat="42.50835" lon="1.75986">
        <ele>2136.517</ele>
        <time>2015-08-27T02:57:40Z</time>
      </trkpt>
      <trkpt lat="42.50838" lon="1.75963">
        <ele>2134.488</ele>
        <time>2015-08-27T02:58:00Z</time>
      </trkpt>
      <trkpt lat="42.50821" lon="1.75939">
        <ele>2141.163</ele>
        <time>2015-08-27T02:58:20Z</time>
      </trkpt>
      <trkpt lat="42.50801" lon="1.75894">
        <ele>2145.832</ele>
        <time>2015-08-27T02:58:40Z</time>
      </trkpt>
      <trkpt lat="42.50795" lon="1.75863">
        <ele>2145.925</ele>
        <time>2015-08-27T02:59:00Z</time>
      </trkpt>
      <trkpt lat="42.50782" lon="1.75845">
        <ele>2147.572</ele>
        <time>2015-08-27T02:59:20Z</time>
      </trkpt>
      <trkpt lat="42.50779" lon="1.75799">
        <ele>2145.686</ele>
        <time>2015-08-27T02:59:40Z</time>
      </trkpt>
      <trkpt lat="42.50743" lon="1.75726">
        <ele>2145.092</ele>
        <time>2015-08-27T03:00:00Z</time>
      </trkpt>
      <trkpt lat="42.50738" lon="1.75698">
        <ele>2144.173</ele>
        <time>2015-08-27T03:00:20Z</time>
      </trkpt>
      <trkpt lat="42.50737" lon="1.75644">
        <ele>2145.42</ele>
        <time>2015-08-27T03:00:40Z</time>
      </trkpt>
      <trkpt lat="42.50766" lon="1.75566">
        <ele>2151.008</ele>
        <time>2015-08-27T03:01:00Z</time>
      </trkpt>
      <trkpt lat="42.50761" lon="1.75477">
        <ele>2158.385</ele>
        <time>2015-08-27T03:01:20Z</time>
      </trkpt>
      <trkpt lat="42.50742" lon="1.75393">
        <ele>2168.37</ele>
        <time>2015-08-27T03:01:40Z</time>
      </trkpt>
      <trkpt lat="42.50716" lon="1.75327">
        <ele>2179.551</ele>
        <time>2015-08-27T03:02:00Z</time>
      </trkpt>
      <trkpt lat="42.50693" lon="1.7525">
        <ele>2197.046</ele>
        <time>2015-08-27T03:02:20Z</time>
      </trkpt>
      <trkpt lat="42.50655" lon="1.75211">
        <ele>2203.775</ele>
        <time>2015-08-27T03:02:40Z</time>
      </trkpt>
      <trkpt lat="42.50636" lon="1.75172">
        <ele>2208.928</ele>
        <time>2015-08-27T03:03:00Z</time>
      </trkpt>
      <trkpt lat="42.50618" lon="1.75162">
        <ele>2209.135</ele>
        <time>2015-08-27T03:03:20Z</time>
      </trkpt>
      <trkpt lat="42.50608" lon="1.75038">
        <ele>2220.299</ele>
        <time>2015-08-27T03:03:40Z</time>
      </trkpt>
      <trkpt lat="42.50626" lon="1.7499">
        <ele>2229.787</ele>
        <time>2015-08-27T03:04:00Z</time>
      </trkpt>
      <trkpt lat="42.50643" lon="1.74894">
        <ele>2244.342</ele>
        <time>2015-08-27T03:04:20Z</time>
      </trkpt>
      <trkpt lat="42.50645" lon="1.74872">
        <ele>2247.026</ele>
        <time>2015-08-27T03:04:40Z</time>
      </trkpt>
      <trkpt lat="42.50652" lon="1.74851">
        <ele>2250.308</ele>
        <time>2015-08-27T03:05:00Z</time>
      </trkpt>
      <trkpt lat="42.50653" lon="1.74813">
        <ele>2253.284</ele>
        <time>2015-08-27T03:05:20Z</time>
      </trkpt>
      <trkpt lat="42.50665" lon="1.74779">
        <ele>2255.969</ele>
        <time>2015-08-27T03:05:40Z</time>
      </trkpt>
      <trkpt lat="42.50649" lon="1.74719">
        <ele>2261.62</ele>
        <time>2015-08-27T03:06:00Z</time>
      </trkpt>
      <trkpt lat="42.50647" lon="1.74683">
        <ele>2268.285</ele>
        <time>2015-08-27T03:06:20Z</time>
      </trkpt>
      <trkpt lat="42.50652" lon="1.74665">
        <ele>2271.854</ele>
        <time>2015-08-27T03:06:40Z</time>
      </trkpt>
      <trkpt lat="42.50651" lon="1.74625">
        <ele>2278.877</ele>
        <time>2015-08-27T03:07:00Z</time>
      </trkpt>
      <trkpt lat="42.50644" lon="1.74586">
        <ele>2284.744</ele>
        <time>2015-08-27T03:07:20Z</time>
      </trkpt>
      <trkpt lat="42.50658" lon="1.74547">
        <ele>2290.098</ele>
        <time>2015-08-27T03:07:40Z</time>
      </trkpt>
      <trkpt lat="42.50654" lon="1.74501">
        <ele>2294.634</ele>
        <time>2015-08-27T03:08:00Z</time>
      </trkpt>
      <trkpt lat="42.50696" lon="1.7432">
        <ele>2314.755</ele>
        <time>2015-08-27T03:08:20Z</time>
      </trkpt>
      <trkpt lat="42.5069" lon="1.74268">
        <ele>2315.01</ele>
        <time>2015-08-27T03:08:40Z</time>
      </trkpt>
      <trkpt lat="42.50693" lon="1.74252">
        <ele>2314.908</ele>
        <time>2015-08-27T03:09:00Z</time>
      </trkpt>
      <trkpt lat="42.50687" lon="1.74233">
        <ele>2314.969</ele>
        <time>2015-08-27T03:09:20Z</time>
      </trkpt>
      <trkpt lat="42.50693" lon="1.74206">
        <ele>2317.614</ele>
        <time>2015-08-27T03:09:40Z</time>
      </trkpt>
      <trkpt lat="42.50692" lon="1.74183">
        <ele>2319.275</ele>
        <time>2015-08-27T03:10:00Z</time>
      </trkpt>
      <trkpt lat="42.50675" lon="1.74153">
        <ele>2318.93</ele>
        <time>2015-08-27T03:10:20Z</time>
      </trkpt>
      <trkpt lat="42.50664" lon="1.74099">
        <ele>2318.969</ele>
        <time>2015-08-27T03:10:40Z</time>
      </trkpt>
      <trkpt lat="42.50655" lon="1.74024">
        <ele>2320.052</ele>
        <time>2015-08-27T03:11:00Z</time>
      </trkpt>
      <trkpt lat="42.50657" lon="1.73984">
        <ele>2320.289</ele>
        <time>2015-08-27T03:11:20Z</time>
      </trkpt>
      <trkpt lat="42.50655" lon="1.73959">
        <ele>2320.973</ele>
        <time>2015-08-27T03:11:40Z</time>
      </trkpt>
      <trkpt lat="42.50658" lon="1.73916">
        <ele>2324.114</ele>
        <time>2015-08-27T03:12:00Z</time>
      </trkpt>
      <trkpt lat="42.50672" lon="1.73895">
        <ele>2326.554</ele>
        <time>2015-08-27T03:12:20Z</time>
      </trkpt>
      <trkpt lat="42.50668" lon="1.73861">
        <ele>2330.009</ele>
        <time>2015-08-27T03:12:40Z</time>
      </trkpt>
      <trkpt lat="42.50688" lon="1.73795">
        <ele>2336.708</ele>
        <time>2015-08-27T03:13:00Z</time>
      </trkpt>
      <trkpt lat="42.50676" lon="1.738">
        <ele>2335.327</ele>
        <time>2015-08-27T03:13:20Z</time>
      </trkpt>
      <trkpt lat="42.50684" lon="1.73722">
        <ele>2342.822</ele>
        <time>2015-08-27T03:13:40Z</time>
      </trkpt>
      <trkpt lat="42.50679" lon="1.73658">
        <ele>2347.113</ele>
        <time>2015-08-27T03:14:00Z</time>
      </trkpt>
      <trkpt lat="42.50694" lon="1.73591">
        <ele>2354.458</ele>
        <time>2015-08-27T03:14:20Z</time>
      </trkpt>
      <trkpt lat="42.50682" lon="1.73555">
        <ele>2356.787</ele>
        <time>2015-08-27T03:14:40Z</time>
      </trkpt>
      <trkpt lat="42.5067" lon="1.73537">
        <ele>2357.36</ele>
        <time>2015-08-27T03:15:00Z</time>
      </trkpt>
      <trkpt lat="42.50635" lon="1.73442">
        <ele>2364.357</ele>
        <time>2015-08-27T03:15:20Z</time>
      </trkpt>
      <trkpt lat="42.50636" lon="1.73405">
        <ele>2367.971</ele>
        <time>2015-08-27T03:15:40Z</time>
      </trkpt>
      <trkpt lat="42.50628" lon="1.7338">
        <ele>2370.366</ele>
        <time>2015-08-27T03:16:00Z</time>
      </trkpt>
      <trkpt lat="42.50631" lon="1.73361">
        <ele>2372.029</ele>
        <time>2015-08-27T03:16:20Z</time>
      </trkpt>
      <trkpt lat="42.5062" lon="1.73307">
        <ele>2375.921</ele>
        <time>2015-08-27T03:16:40Z</time>
      </trkpt>
      <trkpt lat="42.50619" lon="1.73254">
        <ele>2378.708</ele>
        <time>2015-08-27T03:17:00Z</time>
      </trkpt>
      <trkpt lat="42.50588" lon="1.73179">
        <ele>2382.612</ele>
        <time>2015-08-27T03:17:20Z</time>
      </trkpt>
      <trkpt lat="42.50566" lon="1.73143">
        <ele>2386.097</ele>
        <time>2015-08-27T03:17:40Z</time>
      </trkpt>
      <trkpt lat="42.50532" lon="1.7305">
        <ele>2396.298</ele>
        <time>2015-08-27T03:18:00Z</time>
      </trkpt>
      <trkpt lat="42.5053" lon="1.73077">
        <ele>2394.163</ele>
        <time>2015-08-27T03:18:20Z</time>
      </trkpt>
      <trkpt lat="42.50521" lon="1.73082">
        <ele>2395.932</ele>
        <time>2015-08-27T03:18:40Z</time>
      </trkpt>
      <trkpt lat="42.50476" lon="1.73055">
        <ele>2409.215</ele>
        <time>2015-08-27T03:19:00Z</time>
      </trkpt>
      <trkpt lat="42.50429" lon="1.72987">
        <ele>2424.942</ele>
        <time>2015-08-27T03:19:20Z</time>
      </trkpt>
      <trkpt lat="42.50394" lon="1.72947">
        <ele>2438.456</ele>
        <time>2015-08-27T03:19:40Z</time>
      </trkpt>
      <trkpt lat="42.50377" lon="1.72891">
        <ele>2449.245</ele>
        <time>2015-08-27T03:20:00Z</time>
      </trkpt>
      <trkpt lat="42.50359" lon="1.72873">
        <ele>2457.147</ele>
        <time>2015-08-27T03:20:20Z</time>
      </trkpt>
      <trkpt lat="42.50347" lon="1.72828">
        <ele>2464.311</ele>
        <time>2015-08-27T03:20:40Z</time>
      </trkpt>
      <trkpt lat="42.50338" lon="1.72824">
        <ele>2466.908</ele>
        <time>2015-08-27T03:21:00Z</time>
      </trkpt>
      <trkpt lat="42.50319" lon="1.72784">
        <ele>2472.74</ele>
        <time>2015-08-27T03:21:20Z</time>
      </trkpt>
      <trkpt lat="42.5032" lon="1.72729">
        <ele>2482.395</ele>
        <time>2015-08-27T03:21:40Z</time>
      </trkpt>
      <trkpt lat="42.50333" lon="1.72703">
        <ele>2484.236</ele>
        <time>2015-08-27T03:22:00Z</time>
      </trkpt>
      <trkpt lat="42.50381" lon="1.72645">
        <ele>2494.731</ele>
        <time>2015-08-27T03:22:20Z</time>
      </trkpt>
      <trkpt lat="42.50429" lon="1.72607">
        <ele>2506.54</ele>
        <time>2015-08-27T03:22:40Z</time>
      </trkpt>
      <trkpt lat="42.50455" lon="1.72576">
        <ele>2516.153</ele>
        <time>2015-08-27T03:23:00Z</time>
      </trkpt>
    </trkseg>
  </trk>
  <trk>
    <name><![CDATA[9039957-La Via Fluvia de lavoûte sur Loire à Annonay]]></name>
    <extensions>
      <line xmlns="http://www.topografix.com/GPX/gpx_style/0/2">
        <color>00FF00</color>
        <width>4</width>
      </line>
    </extensions>
    <trkseg>
      <trkpt lat="45.12124" lon="3.9052">
        <ele>569</ele>
        <time>2019-02-25T20:08:17Z</time>
      </trkpt>
      <trkpt lat="45.12124" lon="3.9052">
        <ele>569</ele>
        <time>2019-02-25T20:08:17Z</time>
      </trkpt>
      <trkpt lat="45.12125" lon="3.90614">
        <ele>568</ele>
        <time>2019-02-25T20:09:17Z</time>
      </trkpt>
      <trkpt lat="45.12132" lon="3.90668">
        <ele>568</ele>
        <time>2019-02-25T20:10:17Z</time>
      </trkpt>
      <trkpt lat="45.12116" lon="3.90688">
        <ele>566</ele>
        <time>2019-02-25T20:11:17Z</time>
      </trkpt>
      <trkpt lat="45.12101" lon="3.907">
        <ele>564</ele>
        <time>2019-02-25T20:12:17Z</time>
      </trkpt>
      <trkpt lat="45.12131" lon="3.90809">
        <ele>565</ele>
        <time>2019-02-25T20:13:17Z</time>
      </trkpt>
      <trkpt lat="45.12203" lon="3.91046">
        <ele>563</ele>
        <time>2019-02-25T20:14:17Z</time>
      </trkpt>
      <trkpt lat="45.12245" lon="3.91027">
        <ele>568</ele>
        <time>2019-02-25T20:15:17Z</time>
      </trkpt>
      <trkpt lat="45.12256" lon="3.91049">
        <ele>567</ele>
        <time>2019-02-25T20:16:17Z</time>
      </trkpt>
      <trkpt lat="45.12323" lon="3.91285">
        <ele>563</ele>
        <time>2019-02-25T20:17:17Z</time>
      </trkpt>
      <trkpt lat="45.12316" lon="3.91291">
        <ele>563</ele>
        <time>2019-02-25T20:18:17Z</time>
      </trkpt>
      <trkpt lat="45.12293" lon="3.91305">
        <ele>561</ele>
        <time>2019-02-25T20:19:17Z</time>
      </trkpt>
      <trkpt lat="45.12392" lon="3.91633">
        <ele>564</ele>
        <time>2019-02-25T20:20:17Z</time>
      </trkpt>
      <trkpt lat="45.12385" lon="3.91641">
        <ele>562</ele>
        <time>2019-02-25T20:21:17Z</time>
      </trkpt>
      <trkpt lat="45.12402" lon="3.91705">
        <ele>562</ele>
        <time>2019-02-25T20:22:17Z</time>
      </trkpt>
      <trkpt lat="45.12326" lon="3.9199">
        <ele>554</ele>
        <time>2019-02-25T20:23:17Z</time>
      </trkpt>
      <trkpt lat="45.12303" lon="3.92066">
        <ele>556</ele>
        <time>2019-02-25T20:24:17Z</time>
      </trkpt>
      <trkpt lat="45.12292" lon="3.92113">
        <ele>556</ele>
        <time>2019-02-25T20:25:17Z</time>
      </trkpt>
      <trkpt lat="45.12286" lon="3.92128">
        <ele>557</ele>
        <time>2019-02-25T20:26:17Z</time>
      </trkpt>
      <trkpt lat="45.12283" lon="3.92184">
        <ele>557</ele>
        <time>2019-02-25T20:27:17Z</time>
      </trkpt>
      <trkpt lat="45.12289" lon="3.92244">
        <ele>557</ele>
        <time>2019-02-25T20:28:17Z</time>
      </trkpt>
      <trkpt lat="45.12338" lon="3.92424">
        <ele>558</ele>
        <time>2019-02-25T20:29:17Z</time>
      </trkpt>
      <trkpt lat="45.12386" lon="3.92586">
        <ele>560</ele>
        <time>2019-02-25T20:30:17Z</time>
      </trkpt>
      <trkpt lat="45.12401" lon="3.92647">
        <ele>560</ele>
        <time>2019-02-25T20:31:17Z</time>
      </trkpt>
      <trkpt lat="45.1241" lon="3.92711">
        <ele>560</ele>
        <time>2019-02-25T20:32:17Z</time>
      </trkpt>
      <trkpt lat="45.12431" lon="3.92929">
        <ele>561</ele>
        <time>2019-02-25T20:33:17Z</time>
      </trkpt>
      <trkpt lat="45.12442" lon="3.93055">
        <ele>562</ele>
        <time>2019-02-25T20:34:17Z</time>
      </trkpt>
      <trkpt lat="45.12458" lon="3.93207">
        <ele>561</ele>
        <time>2019-02-25T20:35:17Z</time>
      </trkpt>
      <trkpt lat="45.12473" lon="3.93245">
        <ele>560</ele>
        <time>2019-02-25T20:36:17Z</time>
      </trkpt>
      <trkpt lat="45.12497" lon="3.93286">
        <ele>560</ele>
        <time>2019-02-25T20:37:17Z</time>
      </trkpt>
      <trkpt lat="45.12538" lon="3.93331">
        <ele>560</ele>
        <time>2019-02-25T20:38:17Z</time>
      </trkpt>
      <trkpt lat="45.12573" lon="3.93376">
        <ele>561</ele>
        <time>2019-02-25T20:39:17Z</time>
      </trkpt>
      <trkpt lat="45.12593" lon="3.9342">
        <ele>562</ele>
        <time>2019-02-25T20:40:17Z</time>
      </trkpt>
      <trkpt lat="45.12602" lon="3.93427">
        <ele>563</ele>
        <time>2019-02-25T20:41:17Z</time>
      </trkpt>
      <trkpt lat="45.12615" lon="3.93456">
        <ele>564</ele>
        <time>2019-02-25T20:42:17Z</time>
      </trkpt>
      <trkpt lat="45.12625" lon="3.9355">
        <ele>566</ele>
        <time>2019-02-25T20:43:17Z</time>
      </trkpt>
      <trkpt lat="45.12641" lon="3.93721">
        <ele>570</ele>
        <time>2019-02-25T20:44:17Z</time>
      </trkpt>
      <trkpt lat="45.12657" lon="3.93878">
        <ele>573</ele>
        <time>2019-02-25T20:45:17Z</time>
      </trkpt>
      <trkpt lat="45.12675" lon="3.94101">
        <ele>577</ele>
        <time>2019-02-25T20:46:17Z</time>
      </trkpt>
      <trkpt lat="45.12682" lon="3.94182">
        <ele>578</ele>
        <time>2019-02-25T20:47:17Z</time>
      </trkpt>
      <trkpt lat="45.12691" lon="3.94218">
        <ele>579</ele>
        <time>2019-02-25T20:48:17Z</time>
      </trkpt>
      <trkpt lat="45.12716" lon="3.94276">
        <ele>580</ele>
        <time>2019-02-25T20:49:17Z</time>
      </trkpt>
      <trkpt lat="45.12723" lon="3.94298">
        <ele>580</ele>
        <time>2019-02-25T20:50:17Z</time>
      </trkpt>
      <trkpt lat="45.12731" lon="3.94338">
        <ele>582</ele>
        <time>2019-02-25T20:51:17Z</time>
      </trkpt>
      <trkpt lat="45.12732" lon="3.94376">
        <ele>583</ele>
        <time>2019-02-25T20:52:17Z</time>
      </trkpt>
      <trkpt lat="45.12729" lon="3.94425">
        <ele>584</ele>
        <time>2019-02-25T20:53:17Z</time>
      </trkpt>
      <trkpt lat="45.12743" lon="3.94439">
        <ele>585</ele>
        <time>2019-02-25T20:54:17Z</time>
      </trkpt>
      <trkpt lat="45.12731" lon="3.94471">
        <ele>584</ele>
        <time>2019-02-25T20:55:17Z</time>
      </trkpt>
      <trkpt lat="45.12714" lon="3.94526">
        <ele>584</ele>
        <time>2019-02-25T20:56:17Z</time>
      </trkpt>
      <trkpt lat="45.12697" lon="3.94596">
        <ele>585</ele>
        <time>2019-02-25T20:57:17Z</time>
      </trkpt>
      <trkpt lat="45.12678" lon="3.94656">
        <ele>585</ele>
        <time>2019-02-25T20:58:17Z</time>
      </trkpt>
      <trkpt lat="45.12667" lon="3.9468">
        <ele>585</ele>
        <time>2019-02-25T20:59:17Z</time>
      </trkpt>
      <trkpt lat="45.12664" lon="3.94703">
        <ele>585</ele>
        <time>2019-02-25T21:00:17Z</time>
      </trkpt>
      <trkpt lat="45.12663" lon="3.94749">
        <ele>585</ele>
        <time>2019-02-25T21:01:17Z</time>
      </trkpt>
      <trkpt lat="45.12665" lon="3.94796">
        <ele>586</ele>
        <time>2019-02-25T21:02:17Z</time>
      </trkpt>
      <trkpt lat="45.12673" lon="3.94835">
        <ele>587</ele>
        <time>2019-02-25T21:03:17Z</time>
      </trkpt>
      <trkpt lat="45.12802" lon="3.95289">
        <ele>596</ele>
        <time>2019-02-25T21:04:17Z</time>
      </trkpt>
      <trkpt lat="45.12812" lon="3.95332">
        <ele>597</ele>
        <time>2019-02-25T21:05:17Z</time>
      </trkpt>
      <trkpt lat="45.12815" lon="3.95362">
        <ele>597</ele>
        <time>2019-02-25T21:06:17Z</time>
      </trkpt>
      <trkpt lat="45.12815" lon="3.95403">
        <ele>598</ele>
        <time>2019-02-25T21:07:17Z</time>
      </trkpt>
      <trkpt lat="45.12805" lon="3.95527">
        <ele>601</ele>
        <time>2019-02-25T21:08:17Z</time>
      </trkpt>
      <trkpt lat="45.128" lon="3.95594">
        <ele>602</ele>
        <time>2019-02-25T21:09:17Z</time>
      </trkpt>
      <trkpt lat="45.12801" lon="3.95617">
        <ele>602</ele>
        <time>2019-02-25T21:10:17Z</time>
      </trkpt>
      <trkpt lat="45.12803" lon="3.95645">
        <ele>602</ele>
        <time>2019-02-25T21:11:17Z</time>
      </trkpt>
      <trkpt lat="45.12809" lon="3.95678">
        <ele>603</ele>
        <time>2019-02-25T21:12:17Z</time>
      </trkpt>
      <trkpt lat="45.12819" lon="3.95711">
        <ele>604</ele>
        <time>2019-02-25T21:13:17Z</time>
      </trkpt>
      <trkpt lat="45.12834" lon="3.95742">
        <ele>605</ele>
        <time>2019-02-25T21:14:17Z</time>
      </trkpt>
      <trkpt lat="45.12869" lon="3.95801">
        <ele>608</ele>
        <time>2019-02-25T21:15:17Z</time>
      </trkpt>
      <trkpt lat="45.12885" lon="3.95843">
        <ele>608</ele>
        <time>2019-02-25T21:16:17Z</time>
      </trkpt>
      <trkpt lat="45.12893" lon="3.95889">
        <ele>608</ele>
        <time>2019-02-25T21:17:17Z</time>
      </trkpt>
      <trkpt lat="45.12892" lon="3.95929">
        <ele>608</ele>
        <time>2019-02-25T21:18:17Z</time>
      </trkpt>
      <trkpt lat="45.12884" lon="3.9598">
        <ele>609</ele>
        <time>2019-02-25T21:19:17Z</time>
      </trkpt>
      <trkpt lat="45.12863" lon="3.96038">
        <ele>611</ele>
        <time>2019-02-25T21:20:17Z</time>
      </trkpt>
      <trkpt lat="45.12847" lon="3.96098">
        <ele>614</ele>
        <time>2019-02-25T21:21:17Z</time>
      </trkpt>
      <trkpt lat="45.12846" lon="3.96146">
        <ele>616</ele>
        <time>2019-02-25T21:22:17Z</time>
      </trkpt>
      <trkpt lat="45.12847" lon="3.96172">
        <ele>617</ele>
        <time>2019-02-25T21:23:17Z</time>
      </trkpt>
      <trkpt lat="45.12853" lon="3.96198">
        <ele>617</ele>
        <time>2019-02-25T21:24:17Z</time>
      </trkpt>
      <trkpt lat="45.12865" lon="3.96236">
        <ele>618</ele>
        <time>2019-02-25T21:25:17Z</time>
      </trkpt>
      <trkpt lat="45.1289" lon="3.96279">
        <ele>619</ele>
        <time>2019-02-25T21:26:17Z</time>
      </trkpt>
      <trkpt lat="45.12918" lon="3.96321">
        <ele>619</ele>
        <time>2019-02-25T21:27:17Z</time>
      </trkpt>
      <trkpt lat="45.12935" lon="3.96361">
        <ele>620</ele>
        <time>2019-02-25T21:28:17Z</time>
      </trkpt>
      <trkpt lat="45.12944" lon="3.96388">
        <ele>621</ele>
        <time>2019-02-25T21:29:17Z</time>
      </trkpt>
      <trkpt lat="45.12951" lon="3.96432">
        <ele>622</ele>
        <time>2019-02-25T21:30:17Z</time>
      </trkpt>
      <trkpt lat="45.1295" lon="3.96471">
        <ele>623</ele>
        <time>2019-02-25T21:31:17Z</time>
      </trkpt>
      <trkpt lat="45.12942" lon="3.96515">
        <ele>624</ele>
        <time>2019-02-25T21:32:17Z</time>
      </trkpt>
      <trkpt lat="45.12931" lon="3.96546">
        <ele>624</ele>
        <time>2019-02-25T21:33:17Z</time>
      </trkpt>
      <trkpt lat="45.12917" lon="3.96585">
        <ele>625</ele>
        <time>2019-02-25T21:34:17Z</time>
      </trkpt>
      <trkpt lat="45.1291" lon="3.96618">
        <ele>625</ele>
        <time>2019-02-25T21:35:17Z</time>
      </trkpt>
      <trkpt lat="45.12908" lon="3.96647">
        <ele>626</ele>
        <time>2019-02-25T21:36:17Z</time>
      </trkpt>
      <trkpt lat="45.1291" lon="3.96705">
        <ele>627</ele>
        <time>2019-02-25T21:37:17Z</time>
      </trkpt>
      <trkpt lat="45.12924" lon="3.96758">
        <ele>629</ele>
        <time>2019-02-25T21:38:17Z</time>
      </trkpt>
      <trkpt lat="45.12942" lon="3.96803">
        <ele>630</ele>
        <time>2019-02-25T21:39:17Z</time>
      </trkpt>
      <trkpt lat="45.12954" lon="3.96842">
        <ele>631</ele>
        <time>2019-02-25T21:40:17Z</time>
      </trkpt>
      <trkpt lat="45.1296" lon="3.96906">
        <ele>632</ele>
        <time>2019-02-25T21:41:17Z</time>
      </trkpt>
      <trkpt lat="45.12971" lon="3.96991">
        <ele>633</ele>
        <time>2019-02-25T21:42:17Z</time>
      </trkpt>
      <trkpt lat="45.12983" lon="3.97112">
        <ele>634</ele>
        <time>2019-02-25T21:43:17Z</time>
      </trkpt>
      <trkpt lat="45.12992" lon="3.97211">
        <ele>635</ele>
        <time>2019-02-25T21:44:17Z</time>
      </trkpt>
      <trkpt lat="45.12997" lon="3.97266">
        <ele>637</ele>
        <time>2019-02-25T21:45:17Z</time>
      </trkpt>
      <trkpt lat="45.12999" lon="3.97333">
        <ele>640</ele>
        <time>2019-02-25T21:46:17Z</time>
      </trkpt>
      <trkpt lat="45.12995" lon="3.97382">
        <ele>640</ele>
        <time>2019-02-25T21:47:17Z</time>
      </trkpt>
      <trkpt lat="45.12976" lon="3.97523">
        <ele>641</ele>
        <time>2019-02-25T21:48:17Z</time>
      </trkpt>
      <trkpt lat="45.12968" lon="3.97564">
        <ele>640</ele>
        <time>2019-02-25T21:49:17Z</time>
      </trkpt>
      <trkpt lat="45.12965" lon="3.97594">
        <ele>640</ele>
        <time>2019-02-25T21:50:17Z</time>
      </trkpt>
      <trkpt lat="45.12964" lon="3.97644">
        <ele>640</ele>
        <time>2019-02-25T21:51:17Z</time>
      </trkpt>
      <trkpt lat="45.12972" lon="3.97709">
        <ele>642</ele>
        <time>2019-02-25T21:52:17Z</time>
      </trkpt>
      <trkpt lat="45.12991" lon="3.97814">
        <ele>643</ele>
        <time>2019-02-25T21:53:17Z</time>
      </trkpt>
      <trkpt lat="45.12998" lon="3.97843">
        <ele>643</ele>
        <time>2019-02-25T21:54:17Z</time>
      </trkpt>
      <trkpt lat="45.13006" lon="3.9787">
        <ele>644</ele>
        <time>2019-02-25T21:55:17Z</time>
      </trkpt>
      <trkpt lat="45.13023" lon="3.97901">
        <ele>646</ele>
        <time>2019-02-25T21:56:17Z</time>
      </trkpt>
      <trkpt lat="45.13041" lon="3.97924">
        <ele>648</ele>
        <time>2019-02-25T21:57:17Z</time>
      </trkpt>
      <trkpt lat="45.13073" lon="3.97948">
        <ele>651</ele>
        <time>2019-02-25T21:58:17Z</time>
      </trkpt>
      <trkpt lat="45.13145" lon="3.97985">
        <ele>655</ele>
        <time>2019-02-25T21:59:17Z</time>
      </trkpt>
      <trkpt lat="45.1322" lon="3.9802">
        <ele>659</ele>
        <time>2019-02-25T22:00:17Z</time>
      </trkpt>
      <trkpt lat="45.13245" lon="3.98041">
        <ele>660</ele>
        <time>2019-02-25T22:01:17Z</time>
      </trkpt>
      <trkpt lat="45.13264" lon="3.98066">
        <ele>660</ele>
        <time>2019-02-25T22:02:17Z</time>
      </trkpt>
      <trkpt lat="45.13287" lon="3.98114">
        <ele>661</ele>
        <time>2019-02-25T22:03:17Z</time>
      </trkpt>
      <trkpt lat="45.13294" lon="3.98144">
        <ele>661</ele>
        <time>2019-02-25T22:04:17Z</time>
      </trkpt>
      <trkpt lat="45.133" lon="3.98186">
        <ele>661</ele>
        <time>2019-02-25T22:05:17Z</time>
      </trkpt>
      <trkpt lat="45.133" lon="3.98209">
        <ele>660</ele>
        <time>2019-02-25T22:06:17Z</time>
      </trkpt>
      <trkpt lat="45.13304" lon="3.98261">
        <ele>661</ele>
        <time>2019-02-25T22:07:17Z</time>
      </trkpt>
      <trkpt lat="45.13314" lon="3.98305">
        <ele>662</ele>
        <time>2019-02-25T22:08:17Z</time>
      </trkpt>
      <trkpt lat="45.13324" lon="3.9833">
        <ele>663</ele>
        <time>2019-02-25T22:09:17Z</time>
      </trkpt>
      <trkpt lat="45.13349" lon="3.98381">
        <ele>664</ele>
        <time>2019-02-25T22:10:17Z</time>
      </trkpt>
      <trkpt lat="45.13365" lon="3.98423">
        <ele>666</ele>
        <time>2019-02-25T22:11:17Z</time>
      </trkpt>
      <trkpt lat="45.13373" lon="3.9847">
        <ele>668</ele>
        <time>2019-02-25T22:12:17Z</time>
      </trkpt>
      <trkpt lat="45.13376" lon="3.98507">
        <ele>669</ele>
        <time>2019-02-25T22:13:17Z</time>
      </trkpt>
      <trkpt lat="45.13376" lon="3.98547">
        <ele>669</ele>
        <time>2019-02-25T22:14:17Z</time>
      </trkpt>
      <trkpt lat="45.13387" lon="3.98709">
        <ele>672</ele>
        <time>2019-02-25T22:15:17Z</time>
      </trkpt>
      <trkpt lat="45.1339" lon="3.98737">
        <ele>672</ele>
        <time>2019-02-25T22:16:17Z</time>
      </trkpt>
      <trkpt lat="45.13413" lon="3.9883">
        <ele>670</ele>
        <time>2019-02-25T22:17:17Z</time>
      </trkpt>
      <trkpt lat="45.13452" lon="3.9897">
        <ele>672</ele>
        <time>2019-02-25T22:18:17Z</time>
      </trkpt>
      <trkpt lat="45.13469" lon="3.99028">
        <ele>672</ele>
        <time>2019-02-25T22:19:17Z</time>
      </trkpt>
      <trkpt lat="45.13469" lon="3.99033">
        <ele>671</ele>
        <time>2019-02-25T22:20:17Z</time>
      </trkpt>
      <trkpt lat="45.13458" lon="3.99038">
        <ele>670</ele>
        <time>2019-02-25T22:21:17Z</time>
      </trkpt>
      <trkpt lat="45.13452" lon="3.99066">
        <ele>669</ele>
        <time>2019-02-25T22:22:17Z</time>
      </trkpt>
      <trkpt lat="45.13447" lon="3.99084">
        <ele>668</ele>
        <time>2019-02-25T22:23:17Z</time>
      </trkpt>
      <trkpt lat="45.13432" lon="3.99119">
        <ele>669</ele>
        <time>2019-02-25T22:24:17Z</time>
      </trkpt>
      <trkpt lat="45.13407" lon="3.99153">
        <ele>671</ele>
        <time>2019-02-25T22:25:17Z</time>
      </trkpt>
      <trkpt lat="45.13369" lon="3.99161">
        <ele>671</ele>
        <time>2019-02-25T22:26:17Z</time>
      </trkpt>
      <trkpt lat="45.13333" lon="3.99163">
        <ele>671</ele>
        <time>2019-02-25T22:27:17Z</time>
      </trkpt>
      <trkpt lat="45.13305" lon="3.99174">
        <ele>670</ele>
        <time>2019-02-25T22:28:17Z</time>
      </trkpt>
      <trkpt lat="45.13262" lon="3.99197">
        <ele>670</ele>
        <time>2019-02-25T22:29:17Z</time>
      </trkpt>
      <trkpt lat="45.1319" lon="3.99242">
        <ele>674</ele>
        <time>2019-02-25T22:30:17Z</time>
      </trkpt>
      <trkpt lat="45.13176" lon="3.9924">
        <ele>674</ele>
        <time>2019-02-25T22:31:17Z</time>
      </trkpt>
      <trkpt lat="45.13144" lon="3.9923">
        <ele>673</ele>
        <time>2019-02-25T22:32:17Z</time>
      </trkpt>
      <trkpt lat="45.13106" lon="3.99215">
        <ele>671</ele>
        <time>2019-02-25T22:33:17Z</time>
      </trkpt>
      <trkpt lat="45.13074" lon="3.9921">
        <ele>670</ele>
        <time>2019-02-25T22:34:17Z</time>
      </trkpt>
      <trkpt lat="45.13058" lon="3.99209">
        <ele>669</ele>
        <time>2019-02-25T22:35:17Z</time>
      </trkpt>
      <trkpt lat="45.13039" lon="3.99219">
        <ele>670</ele>
        <time>2019-02-25T22:36:17Z</time>
      </trkpt>
      <trkpt lat="45.1302" lon="3.9923">
        <ele>671</ele>
        <time>2019-02-25T22:37:17Z</time>
      </trkpt>
      <trkpt lat="45.13001" lon="3.99252">
        <ele>672</ele>
        <time>2019-02-25T22:38:17Z</time>
      </trkpt>
      <trkpt lat="45.12976" lon="3.99287">
        <ele>675</ele>
        <time>2019-02-25T22:39:17Z</time>
      </trkpt>
      <trkpt lat="45.12949" lon="3.99323">
        <ele>677</ele>
        <time>2019-02-25T22:40:17Z</time>
      </trkpt>
      <trkpt lat="45.12919" lon="3.99351">
        <ele>677</ele>
        <time>2019-02-25T22:41:17Z</time>
      </trkpt>
      <trkpt lat="45.12906" lon="3.99365">
        <ele>677</ele>
        <time>2019-02-25T22:42:17Z</time>
      </trkpt>
      <trkpt lat="45.12895" lon="3.99382">
        <ele>678</ele>
        <time>2019-02-25T22:43:17Z</time>
      </trkpt>
      <trkpt lat="45.12885" lon="3.99401">
        <ele>679</ele>
        <time>2019-02-25T22:44:17Z</time>
      </trkpt>
      <trkpt lat="45.12868" lon="3.99449">
        <ele>682</ele>
        <time>2019-02-25T22:45:17Z</time>
      </trkpt>
      <trkpt lat="45.12856" lon="3.99488">
        <ele>685</ele>
        <time>2019-02-25T22:46:17Z</time>
      </trkpt>
      <trkpt lat="45.12842" lon="3.99515">
        <ele>685</ele>
        <time>2019-02-25T22:47:17Z</time>
      </trkpt>
      <trkpt lat="45.12821" lon="3.99549">
        <ele>685</ele>
        <time>2019-02-25T22:48:17Z</time>
      </trkpt>
      <trkpt lat="45.12809" lon="3.99574">
        <ele>685</ele>
        <time>2019-02-25T22:49:17Z</time>
      </trkpt>
      <trkpt lat="45.12802" lon="3.99601">
        <ele>685</ele>
        <time>2019-02-25T22:50:17Z</time>
      </trkpt>
      <trkpt lat="45.12798" lon="3.99624">
        <ele>684</ele>
        <time>2019-02-25T22:51:17Z</time>
      </trkpt>
      <trkpt lat="45.12797" lon="3.99671">
        <ele>685</ele>
        <time>2019-02-25T22:52:17Z</time>
      </trkpt>
      <trkpt lat="45.128" lon="3.99729">
        <ele>684</ele>
        <time>2019-02-25T22:53:17Z</time>
      </trkpt>
      <trkpt lat="45.12802" lon="3.99769">
        <ele>684</ele>
        <time>2019-02-25T22:54:17Z</time>
      </trkpt>
      <trkpt lat="45.12798" lon="3.99801">
        <ele>686</ele>
        <time>2019-02-25T22:55:17Z</time>
      </trkpt>
      <trkpt lat="45.12792" lon="3.99819">
        <ele>686</ele>
        <time>2019-02-25T22:56:17Z</time>
      </trkpt>
      <trkpt lat="45.12779" lon="3.99848">
        <ele>689</ele>
        <time>2019-02-25T22:57:17Z</time>
      </trkpt>
      <trkpt lat="45.12765" lon="3.99868">
        <ele>692</ele>
        <time>2019-02-25T22:58:17Z</time>
      </trkpt>
      <trkpt lat="45.12738" lon="3.99893">
        <ele>693</ele>
        <time>2019-02-25T22:59:17Z</time>
      </trkpt>
      <trkpt lat="45.12707" lon="3.99918">
        <ele>693</ele>
        <time>2019-02-25T23:00:17Z</time>
      </trkpt>
      <trkpt lat="45.12684" lon="3.99944">
        <ele>694</ele>
        <time>2019-02-25T23:01:17Z</time>
      </trkpt>
      <trkpt lat="45.12624" lon="4.00028">
        <ele>697</ele>
        <time>2019-02-25T23:02:17Z</time>
      </trkpt>
      <trkpt lat="45.12606" lon="4.00054">
        <ele>698</ele>
        <time>2019-02-25T23:03:17Z</time>
      </trkpt>
      <trkpt lat="45.12597" lon="4.00072">
        <ele>699</ele>
        <time>2019-02-25T23:04:17Z</time>
      </trkpt>
      <trkpt lat="45.12591" lon="4.00095">
        <ele>700</ele>
        <time>2019-02-25T23:05:17Z</time>
      </trkpt>
      <trkpt lat="45.12578" lon="4.00163">
        <ele>702</ele>
        <time>2019-02-25T23:06:17Z</time>
      </trkpt>
      <trkpt lat="45.1257" lon="4.00195">
        <ele>704</ele>
        <time>2019-02-25T23:07:17Z</time>
      </trkpt>
      <trkpt lat="45.12559" lon="4.00222">
        <ele>706</ele>
        <time>2019-02-25T23:08:17Z</time>
      </trkpt>
      <trkpt lat="45.12546" lon="4.00254">
        <ele>707</ele>
        <time>2019-02-25T23:09:17Z</time>
      </trkpt>
      <trkpt lat="45.1253" lon="4.00282">
        <ele>706</ele>
        <time>2019-02-25T23:10:17Z</time>
      </trkpt>
      <trkpt lat="45.12521" lon="4.00303">
        <ele>706</ele>
        <time>2019-02-25T23:11:17Z</time>
      </trkpt>
      <trkpt lat="45.12514" lon="4.00332">
        <ele>706</ele>
        <time>2019-02-25T23:12:17Z</time>
      </trkpt>
      <trkpt lat="45.12511" lon="4.00359">
        <ele>705</ele>
        <time>2019-02-25T23:13:17Z</time>
      </trkpt>
      <trkpt lat="45.12512" lon="4.00386">
        <ele>706</ele>
        <time>2019-02-25T23:14:17Z</time>
      </trkpt>
      <trkpt lat="45.12533" lon="4.00476">
        <ele>711</ele>
        <time>2019-02-25T23:15:17Z</time>
      </trkpt>
      <trkpt lat="45.12539" lon="4.00504">
        <ele>712</ele>
        <time>2019-02-25T23:16:17Z</time>
      </trkpt>
      <trkpt lat="45.12543" lon="4.00529">
        <ele>713</ele>
        <time>2019-02-25T23:17:17Z</time>
      </trkpt>
      <trkpt lat="45.12544" lon="4.00562">
        <ele>714</ele>
        <time>2019-02-25T23:18:17Z</time>
      </trkpt>
      <trkpt lat="45.12541" lon="4.00601">
        <ele>713</ele>
        <time>2019-02-25T23:19:17Z</time>
      </trkpt>
      <trkpt lat="45.12521" lon="4.00704">
        <ele>714</ele>
        <time>2019-02-25T23:20:17Z</time>
      </trkpt>
      <trkpt lat="45.12521" lon="4.00739">
        <ele>717</ele>
        <time>2019-02-25T23:21:17Z</time>
      </trkpt>
      <trkpt lat="45.12527" lon="4.00778">
        <ele>717</ele>
        <time>2019-02-25T23:22:17Z</time>
      </trkpt>
      <trkpt lat="45.12538" lon="4.00815">
        <ele>717</ele>
        <time>2019-02-25T23:23:17Z</time>
      </trkpt>
      <trkpt lat="45.12549" lon="4.00848">
        <ele>719</ele>
        <time>2019-02-25T23:24:17Z</time>
      </trkpt>
      <trkpt lat="45.12557" lon="4.00882">
        <ele>721</ele>
        <time>2019-02-25T23:25:17Z</time>
      </trkpt>
      <trkpt lat="45.12558" lon="4.00902">
        <ele>721</ele>
        <time>2019-02-25T23:26:17Z</time>
      </trkpt>
      <trkpt lat="45.12557" lon="4.01005">
        <ele>721</ele>
        <time>2019-02-25T23:27:17Z</time>
      </trkpt>
      <trkpt lat="45.12553" lon="4.01037">
        <ele>723</ele>
        <time>2019-02-25T23:28:17Z</time>
      </trkpt>
      <trkpt lat="45.12542" lon="4.01075">
        <ele>725</ele>
        <time>2019-02-25T23:29:17Z</time>
      </trkpt>
      <trkpt lat="45.12529" lon="4.01103">
        <ele>727</ele>
        <time>2019-02-25T23:30:17Z</time>
      </trkpt>
      <trkpt lat="45.1251" lon="4.01127">
        <ele>727</ele>
        <time>2019-02-25T23:31:17Z</time>
      </trkpt>
      <trkpt lat="45.12425" lon="4.01192">
        <ele>724</ele>
        <time>2019-02-25T23:32:17Z</time>
      </trkpt>
      <trkpt lat="45.12414" lon="4.01206">
        <ele>724</ele>
        <time>2019-02-25T23:33:17Z</time>
      </trkpt>
      <trkpt lat="45.12399" lon="4.01233">
        <ele>723</ele>
        <time>2019-02-25T23:34:17Z</time>
      </trkpt>
      <trkpt lat="45.12392" lon="4.01254">
        <ele>723</ele>
        <time>2019-02-25T23:35:17Z</time>
      </trkpt>
      <trkpt lat="45.12385" lon="4.01283">
        <ele>723</ele>
        <time>2019-02-25T23:36:17Z</time>
      </trkpt>
      <trkpt lat="45.12385" lon="4.01317">
        <ele>724</ele>
        <time>2019-02-25T23:37:17Z</time>
      </trkpt>
      <trkpt lat="45.12388" lon="4.01346">
        <ele>725</ele>
        <time>2019-02-25T23:38:17Z</time>
      </trkpt>
      <trkpt lat="45.12397" lon="4.01378">
        <ele>726</ele>
        <time>2019-02-25T23:39:17Z</time>
      </trkpt>
      <trkpt lat="45.12429" lon="4.01454">
        <ele>729</ele>
        <time>2019-02-25T23:40:17Z</time>
      </trkpt>
      <trkpt lat="45.12437" lon="4.01492">
        <ele>727</ele>
        <time>2019-02-25T23:41:17Z</time>
      </trkpt>
      <trkpt lat="45.12444" lon="4.01518">
        <ele>726</ele>
        <time>2019-02-25T23:42:17Z</time>
      </trkpt>
      <trkpt lat="45.12453" lon="4.0154">
        <ele>726</ele>
        <time>2019-02-25T23:43:17Z</time>
      </trkpt>
      <trkpt lat="45.12474" lon="4.01571">
        <ele>729</ele>
        <time>2019-02-25T23:44:17Z</time>
      </trkpt>
      <trkpt lat="45.12497" lon="4.0159">
        <ele>734</ele>
        <time>2019-02-25T23:45:17Z</time>
      </trkpt>
      <trkpt lat="45.12519" lon="4.01598">
        <ele>735</ele>
        <time>2019-02-25T23:46:17Z</time>
      </trkpt>
      <trkpt lat="45.12559" lon="4.01599">
        <ele>740</ele>
        <time>2019-02-25T23:47:17Z</time>
      </trkpt>
      <trkpt lat="45.12624" lon="4.01592">
        <ele>746</ele>
        <time>2019-02-25T23:48:17Z</time>
      </trkpt>
      <trkpt lat="45.12674" lon="4.01592">
        <ele>750</ele>
        <time>2019-02-25T23:49:17Z</time>
      </trkpt>
      <trkpt lat="45.1269" lon="4.01595">
        <ele>752</ele>
        <time>2019-02-25T23:50:17Z</time>
      </trkpt>
      <trkpt lat="45.12719" lon="4.01612">
        <ele>754</ele>
        <time>2019-02-25T23:51:17Z</time>
      </trkpt>
      <trkpt lat="45.12741" lon="4.01635">
        <ele>755</ele>
        <time>2019-02-25T23:52:17Z</time>
      </trkpt>
      <trkpt lat="45.12755" lon="4.01666">
        <ele>754</ele>
        <time>2019-02-25T23:53:17Z</time>
      </trkpt>
      <trkpt lat="45.12771" lon="4.01722">
        <ele>754</ele>
        <time>2019-02-25T23:54:17Z</time>
      </trkpt>
      <trkpt lat="45.12783" lon="4.01762">
        <ele>753</ele>
        <time>2019-02-25T23:55:17Z</time>
      </trkpt>
      <trkpt lat="45.128" lon="4.01798">
        <ele>755</ele>
        <time>2019-02-25T23:56:17Z</time>
      </trkpt>
      <trkpt lat="45.12823" lon="4.01835">
        <ele>757</ele>
        <time>2019-02-25T23:57:17Z</time>
      </trkpt>
      <trkpt lat="45.1284" lon="4.01868">
        <ele>758</ele>
        <time>2019-02-25T23:58:17Z</time>
      </trkpt>
      <trkpt lat="45.12848" lon="4.01896">
        <ele>757</ele>
        <time>2019-02-25T23:59:17Z</time>
      </trkpt>
      <trkpt lat="45.12851" lon="4.01937">
        <ele>756</ele>
        <time>2019-02-26T00:00:17Z</time>
      </trkpt>
      <trkpt lat="45.12853" lon="4.0198">
        <ele>755</ele>
        <time>2019-02-26T00:01:17Z</time>
      </trkpt>
      <trkpt lat="45.1286" lon="4.02022">
        <ele>753</ele>
        <time>2019-02-26T00:02:17Z</time>
      </trkpt>
      <trkpt lat="45.12876" lon="4.02067">
        <ele>752</ele>
        <time>2019-02-26T00:03:17Z</time>
      </trkpt>
      <trkpt lat="45.12889" lon="4.02088">
        <ele>753</ele>
        <time>2019-02-26T00:04:17Z</time>
      </trkpt>
      <trkpt lat="45.12908" lon="4.02107">
        <ele>754</ele>
        <time>2019-02-26T00:05:17Z</time>
      </trkpt>
      <trkpt lat="45.12925" lon="4.02119">
        <ele>754</ele>
        <time>2019-02-26T00:06:17Z</time>
      </trkpt>
      <trkpt lat="45.12951" lon="4.02125">
        <ele>756</ele>
        <time>2019-02-26T00:07:17Z</time>
      </trkpt>
      <trkpt lat="45.13026" lon="4.02134">
        <ele>761</ele>
        <time>2019-02-26T00:08:17Z</time>
      </trkpt>
      <trkpt lat="45.13065" lon="4.02133">
        <ele>763</ele>
        <time>2019-02-26T00:09:17Z</time>
      </trkpt>
      <trkpt lat="45.13121" lon="4.0212">
        <ele>769</ele>
        <time>2019-02-26T00:10:17Z</time>
      </trkpt>
      <trkpt lat="45.13141" lon="4.0212">
        <ele>769</ele>
        <time>2019-02-26T00:11:17Z</time>
      </trkpt>
      <trkpt lat="45.1316" lon="4.02125">
        <ele>767</ele>
        <time>2019-02-26T00:12:17Z</time>
      </trkpt>
      <trkpt lat="45.13184" lon="4.02134">
        <ele>765</ele>
        <time>2019-02-26T00:13:17Z</time>
      </trkpt>
      <trkpt lat="45.13206" lon="4.02139">
        <ele>763</ele>
        <time>2019-02-26T00:14:17Z</time>
      </trkpt>
      <trkpt lat="45.13234" lon="4.02136">
        <ele>765</ele>
        <time>2019-02-26T00:15:17Z</time>
      </trkpt>
      <trkpt lat="45.13265" lon="4.02127">
        <ele>767</ele>
        <time>2019-02-26T00:16:17Z</time>
      </trkpt>
      <trkpt lat="45.1329" lon="4.02113">
        <ele>769</ele>
        <time>2019-02-26T00:17:17Z</time>
      </trkpt>
      <trkpt lat="45.13344" lon="4.02108">
        <ele>769</ele>
        <time>2019-02-26T00:18:17Z</time>
      </trkpt>
      <trkpt lat="45.13366" lon="4.02111">
        <ele>771</ele>
        <time>2019-02-26T00:19:17Z</time>
      </trkpt>
      <trkpt lat="45.13423" lon="4.02124">
        <ele>774</ele>
        <time>2019-02-26T00:20:17Z</time>
      </trkpt>
      <trkpt lat="45.13454" lon="4.02138">
        <ele>778</ele>
        <time>2019-02-26T00:21:17Z</time>
      </trkpt>
      <trkpt lat="45.13473" lon="4.0216">
        <ele>779</ele>
        <time>2019-02-26T00:22:17Z</time>
      </trkpt>
      <trkpt lat="45.1349" lon="4.02196">
        <ele>780</ele>
        <time>2019-02-26T00:23:17Z</time>
      </trkpt>
      <trkpt lat="45.13497" lon="4.02226">
        <ele>779</ele>
        <time>2019-02-26T00:24:17Z</time>
      </trkpt>
      <trkpt lat="45.135" lon="4.02251">
        <ele>778</ele>
        <time>2019-02-26T00:25:17Z</time>
      </trkpt>
      <trkpt lat="45.13495" lon="4.0229">
        <ele>776</ele>
        <time>2019-02-26T00:26:17Z</time>
      </trkpt>
      <trkpt lat="45.13486" lon="4.02319">
        <ele>775</ele>
        <time>2019-02-26T00:27:17Z</time>
      </trkpt>
      <trkpt lat="45.13473" lon="4.02343">
        <ele>776</ele>
        <time>2019-02-26T00:28:17Z</time>
      </trkpt>
      <trkpt lat="45.13458" lon="4.02359">
        <ele>779</ele>
        <time>2019-02-26T00:29:17Z</time>
      </trkpt>
      <trkpt lat="45.13437" lon="4.02371">
        <ele>781</ele>
        <time>2019-02-26T00:30:17Z</time>
      </trkpt>
      <trkpt lat="45.13412" lon="4.02377">
        <ele>783</ele>
        <time>2019-02-26T00:31:17Z</time>
      </trkpt>
      <trkpt lat="45.13389" lon="4.02373">
        <ele>786</ele>
        <time>2019-02-26T00:32:17Z</time>
      </trkpt>
      <trkpt lat="45.1337" lon="4.02363">
        <ele>787</ele>
        <time>2019-02-26T00:33:17Z</time>
      </trkpt>
      <trkpt lat="45.13332" lon="4.02332">
        <ele>788</ele>
        <time>2019-02-26T00:34:17Z</time>
      </trkpt>
      <trkpt lat="45.13314" lon="4.02321">
        <ele>785</ele>
        <time>2019-02-26T00:35:17Z</time>
      </trkpt>
      <trkpt lat="45.13291" lon="4.02318">
        <ele>783</ele>
        <time>2019-02-26T00:36:17Z</time>
      </trkpt>
      <trkpt lat="45.13271" lon="4.02315">
        <ele>782</ele>
        <time>2019-02-26T00:37:17Z</time>
      </trkpt>
      <trkpt lat="45.1325" lon="4.02321">
        <ele>784</ele>
        <time>2019-02-26T00:38:17Z</time>
      </trkpt>
      <trkpt lat="45.13221" lon="4.02338">
        <ele>786</ele>
        <time>2019-02-26T00:39:17Z</time>
      </trkpt>
      <trkpt lat="45.13199" lon="4.02367">
        <ele>789</ele>
        <time>2019-02-26T00:40:17Z</time>
      </trkpt>
      <trkpt lat="45.13181" lon="4.02408">
        <ele>793</ele>
        <time>2019-02-26T00:41:17Z</time>
      </trkpt>
      <trkpt lat="45.1317" lon="4.02443">
        <ele>792</ele>
        <time>2019-02-26T00:42:17Z</time>
      </trkpt>
      <trkpt lat="45.13168" lon="4.02515">
        <ele>788</ele>
        <time>2019-02-26T00:43:17Z</time>
      </trkpt>
      <trkpt lat="45.13174" lon="4.02623">
        <ele>786</ele>
        <time>2019-02-26T00:44:17Z</time>
      </trkpt>
      <trkpt lat="45.13182" lon="4.02698">
        <ele>788</ele>
        <time>2019-02-26T00:45:17Z</time>
      </trkpt>
      <trkpt lat="45.13189" lon="4.02866">
        <ele>791</ele>
        <time>2019-02-26T00:46:17Z</time>
      </trkpt>
      <trkpt lat="45.13186" lon="4.02896">
        <ele>790</ele>
        <time>2019-02-26T00:47:17Z</time>
      </trkpt>
      <trkpt lat="45.1318" lon="4.02946">
        <ele>789</ele>
        <time>2019-02-26T00:48:17Z</time>
      </trkpt>
      <trkpt lat="45.1318" lon="4.02973">
        <ele>789</ele>
        <time>2019-02-26T00:49:17Z</time>
      </trkpt>
      <trkpt lat="45.1318" lon="4.02987">
        <ele>789</ele>
        <time>2019-02-26T00:50:17Z</time>
      </trkpt>
      <trkpt lat="45.13199" lon="4.03038">
        <ele>795</ele>
        <time>2019-02-26T00:51:17Z</time>
      </trkpt>
      <trkpt lat="45.13213" lon="4.03084">
        <ele>798</ele>
        <time>2019-02-26T00:52:17Z</time>
      </trkpt>
      <trkpt lat="45.13219" lon="4.03118">
        <ele>802</ele>
        <time>2019-02-26T00:53:17Z</time>
      </trkpt>
      <trkpt lat="45.13224" lon="4.03152">
        <ele>805</ele>
        <time>2019-02-26T00:54:17Z</time>
      </trkpt>
      <trkpt lat="45.13211" lon="4.03199">
        <ele>808</ele>
        <time>2019-02-26T00:55:17Z</time>
      </trkpt>
      <trkpt lat="45.1318" lon="4.03247">
        <ele>807</ele>
        <time>2019-02-26T00:56:17Z</time>
      </trkpt>
      <trkpt lat="45.13091" lon="4.03372">
        <ele>809</ele>
        <time>2019-02-26T00:57:17Z</time>
      </trkpt>
      <trkpt lat="45.13055" lon="4.03426">
        <ele>810</ele>
        <time>2019-02-26T00:58:17Z</time>
      </trkpt>
      <trkpt lat="45.13045" lon="4.03465">
        <ele>810</ele>
        <time>2019-02-26T00:59:17Z</time>
      </trkpt>
      <trkpt lat="45.13042" lon="4.03516">
        <ele>812</ele>
        <time>2019-02-26T01:00:17Z</time>
      </trkpt>
      <trkpt lat="45.13051" lon="4.03565">
        <ele>814</ele>
        <time>2019-02-26T01:01:17Z</time>
      </trkpt>
      <trkpt lat="45.13077" lon="4.03644">
        <ele>816</ele>
        <time>2019-02-26T01:02:17Z</time>
      </trkpt>
      <trkpt lat="45.13083" lon="4.03677">
        <ele>816</ele>
        <time>2019-02-26T01:03:17Z</time>
      </trkpt>
      <trkpt lat="45.13082" lon="4.03717">
        <ele>817</ele>
        <time>2019-02-26T01:04:17Z</time>
      </trkpt>
      <trkpt lat="45.13072" lon="4.03763">
        <ele>819</ele>
        <time>2019-02-26T01:05:17Z</time>
      </trkpt>
      <trkpt lat="45.13057" lon="4.03792">
        <ele>821</ele>
        <time>2019-02-26T01:06:17Z</time>
      </trkpt>
      <trkpt lat="45.13036" lon="4.03819">
        <ele>822</ele>
        <time>2019-02-26T01:07:17Z</time>
      </trkpt>
      <trkpt lat="45.13003" lon="4.03846">
        <ele>824</ele>
        <time>2019-02-26T01:08:17Z</time>
      </trkpt>
      <trkpt lat="45.12962" lon="4.03876">
        <ele>824</ele>
        <time>2019-02-26T01:09:17Z</time>
      </trkpt>
      <trkpt lat="45.12941" lon="4.03904">
        <ele>824</ele>
        <time>2019-02-26T01:10:17Z</time>
      </trkpt>
      <trkpt lat="45.12927" lon="4.03932">
        <ele>824</ele>
        <time>2019-02-26T01:11:17Z</time>
      </trkpt>
      <trkpt lat="45.12919" lon="4.03967">
        <ele>825</ele>
        <time>2019-02-26T01:12:17Z</time>
      </trkpt>
      <trkpt lat="45.12916" lon="4.03996">
        <ele>826</ele>
        <time>2019-02-26T01:13:17Z</time>
      </trkpt>
      <trkpt lat="45.1292" lon="4.04076">
        <ele>826</ele>
        <time>2019-02-26T01:14:17Z</time>
      </trkpt>
      <trkpt lat="45.12924" lon="4.04151">
        <ele>828</ele>
        <time>2019-02-26T01:15:17Z</time>
      </trkpt>
      <trkpt lat="45.12927" lon="4.04222">
        <ele>829</ele>
        <time>2019-02-26T01:16:17Z</time>
      </trkpt>
      <trkpt lat="45.12932" lon="4.04272">
        <ele>830</ele>
        <time>2019-02-26T01:17:17Z</time>
      </trkpt>
      <trkpt lat="45.1295" lon="4.04337">
        <ele>836</ele>
        <time>2019-02-26T01:18:17Z</time>
      </trkpt>
      <trkpt lat="45.13012" lon="4.04514">
        <ele>843</ele>
        <time>2019-02-26T01:19:17Z</time>
      </trkpt>
      <trkpt lat="45.13022" lon="4.04553">
        <ele>845</ele>
        <time>2019-02-26T01:20:17Z</time>
      </trkpt>
      <trkpt lat="45.13026" lon="4.04598">
        <ele>846</ele>
        <time>2019-02-26T01:21:17Z</time>
      </trkpt>
      <trkpt lat="45.13031" lon="4.0463">
        <ele>846</ele>
        <time>2019-02-26T01:22:17Z</time>
      </trkpt>
      <trkpt lat="45.13051" lon="4.0469">
        <ele>850</ele>
        <time>2019-02-26T01:23:17Z</time>
      </trkpt>
      <trkpt lat="45.13061" lon="4.04724">
        <ele>851</ele>
        <time>2019-02-26T01:24:17Z</time>
      </trkpt>
      <trkpt lat="45.13068" lon="4.04756">
        <ele>852</ele>
        <time>2019-02-26T01:25:17Z</time>
      </trkpt>
      <trkpt lat="45.1307" lon="4.04788">
        <ele>853</ele>
        <time>2019-02-26T01:26:17Z</time>
      </trkpt>
      <trkpt lat="45.13066" lon="4.04836">
        <ele>854</ele>
        <time>2019-02-26T01:27:17Z</time>
      </trkpt>
      <trkpt lat="45.13059" lon="4.04895">
        <ele>855</ele>
        <time>2019-02-26T01:28:17Z</time>
      </trkpt>
      <trkpt lat="45.13035" lon="4.05012">
        <ele>856</ele>
        <time>2019-02-26T01:29:17Z</time>
      </trkpt>
      <trkpt lat="45.13029" lon="4.05054">
        <ele>857</ele>
        <time>2019-02-26T01:30:17Z</time>
      </trkpt>
      <trkpt lat="45.13033" lon="4.05093">
        <ele>859</ele>
        <time>2019-02-26T01:31:17Z</time>
      </trkpt>
      <trkpt lat="45.1304" lon="4.05162">
        <ele>864</ele>
        <time>2019-02-26T01:32:17Z</time>
      </trkpt>
      <trkpt lat="45.13041" lon="4.05186">
        <ele>865</ele>
        <time>2019-02-26T01:33:17Z</time>
      </trkpt>
      <trkpt lat="45.13008" lon="4.053">
        <ele>861</ele>
        <time>2019-02-26T01:34:17Z</time>
      </trkpt>
      <trkpt lat="45.13005" lon="4.05339">
        <ele>861</ele>
        <time>2019-02-26T01:35:17Z</time>
      </trkpt>
      <trkpt lat="45.1301" lon="4.05379">
        <ele>862</ele>
        <time>2019-02-26T01:36:17Z</time>
      </trkpt>
      <trkpt lat="45.13021" lon="4.05411">
        <ele>864</ele>
        <time>2019-02-26T01:37:17Z</time>
      </trkpt>
      <trkpt lat="45.13054" lon="4.05481">
        <ele>868</ele>
        <time>2019-02-26T01:38:17Z</time>
      </trkpt>
      <trkpt lat="45.13064" lon="4.05522">
        <ele>869</ele>
        <time>2019-02-26T01:39:17Z</time>
      </trkpt>
      <trkpt lat="45.13065" lon="4.05565">
        <ele>870</ele>
        <time>2019-02-26T01:40:17Z</time>
      </trkpt>
      <trkpt lat="45.1306" lon="4.05608">
        <ele>871</ele>
        <time>2019-02-26T01:41:17Z</time>
      </trkpt>
      <trkpt lat="45.13051" lon="4.05637">
        <ele>871</ele>
        <time>2019-02-26T01:42:17Z</time>
      </trkpt>
      <trkpt lat="45.13035" lon="4.05664">
        <ele>870</ele>
        <time>2019-02-26T01:43:17Z</time>
      </trkpt>
      <trkpt lat="45.12978" lon="4.05748">
        <ele>869</ele>
        <time>2019-02-26T01:44:17Z</time>
      </trkpt>
      <trkpt lat="45.12963" lon="4.05791">
        <ele>872</ele>
        <time>2019-02-26T01:45:17Z</time>
      </trkpt>
      <trkpt lat="45.12956" lon="4.0583">
        <ele>874</ele>
        <time>2019-02-26T01:46:17Z</time>
      </trkpt>
      <trkpt lat="45.12956" lon="4.05883">
        <ele>875</ele>
        <time>2019-02-26T01:47:17Z</time>
      </trkpt>
      <trkpt lat="45.12968" lon="4.05953">
        <ele>877</ele>
        <time>2019-02-26T01:48:17Z</time>
      </trkpt>
      <trkpt lat="45.12974" lon="4.06029">
        <ele>880</ele>
        <time>2019-02-26T01:49:17Z</time>
      </trkpt>
      <trkpt lat="45.12969" lon="4.06074">
        <ele>882</ele>
        <time>2019-02-26T01:50:17Z</time>
      </trkpt>
      <trkpt lat="45.12959" lon="4.06113">
        <ele>884</ele>
        <time>2019-02-26T01:51:17Z</time>
      </trkpt>
      <trkpt lat="45.1293" lon="4.0621">
        <ele>888</ele>
        <time>2019-02-26T01:52:17Z</time>
      </trkpt>
      <trkpt lat="45.12912" lon="4.06258">
        <ele>890</ele>
        <time>2019-02-26T01:53:17Z</time>
      </trkpt>
      <trkpt lat="45.12889" lon="4.06301">
        <ele>895</ele>
        <time>2019-02-26T01:54:17Z</time>
      </trkpt>
      <trkpt lat="45.12867" lon="4.06345">
        <ele>896</ele>
        <time>2019-02-26T01:55:17Z</time>
      </trkpt>
      <trkpt lat="45.12852" lon="4.06383">
        <ele>895</ele>
        <time>2019-02-26T01:56:17Z</time>
      </trkpt>
      <trkpt lat="45.12813" lon="4.06489">
        <ele>897</ele>
        <time>2019-02-26T01:57:17Z</time>
      </trkpt>
      <trkpt lat="45.12801" lon="4.06518">
        <ele>897</ele>
        <time>2019-02-26T01:58:17Z</time>
      </trkpt>
      <trkpt lat="45.12766" lon="4.06621">
        <ele>897</ele>
        <time>2019-02-26T01:59:17Z</time>
      </trkpt>
      <trkpt lat="45.1274" lon="4.06688">
        <ele>897</ele>
        <time>2019-02-26T02:00:17Z</time>
      </trkpt>
      <trkpt lat="45.12687" lon="4.06767">
        <ele>895</ele>
        <time>2019-02-26T02:01:17Z</time>
      </trkpt>
      <trkpt lat="45.12617" lon="4.06842">
        <ele>895</ele>
        <time>2019-02-26T02:02:17Z</time>
      </trkpt>
      <trkpt lat="45.12586" lon="4.0687">
        <ele>895</ele>
        <time>2019-02-26T02:03:17Z</time>
      </trkpt>
      <trkpt lat="45.12517" lon="4.06915">
        <ele>897</ele>
        <time>2019-02-26T02:04:17Z</time>
      </trkpt>
      <trkpt lat="45.12469" lon="4.0695">
        <ele>898</ele>
        <time>2019-02-26T02:05:17Z</time>
      </trkpt>
      <trkpt lat="45.12434" lon="4.06988">
        <ele>898</ele>
        <time>2019-02-26T02:06:17Z</time>
      </trkpt>
      <trkpt lat="45.12409" lon="4.07033">
        <ele>897</ele>
        <time>2019-02-26T02:07:17Z</time>
      </trkpt>
      <trkpt lat="45.12385" lon="4.07109">
        <ele>895</ele>
        <time>2019-02-26T02:08:17Z</time>
      </trkpt>
      <trkpt lat="45.12347" lon="4.07228">
        <ele>895</ele>
        <time>2019-02-26T02:09:17Z</time>
      </trkpt>
      <trkpt lat="45.12306" lon="4.07337">
        <ele>896</ele>
        <time>2019-02-26T02:10:17Z</time>
      </trkpt>
      <trkpt lat="45.12291" lon="4.07385">
        <ele>891</ele>
        <time>2019-02-26T02:11:17Z</time>
      </trkpt>
      <trkpt lat="45.12266" lon="4.07422">
        <ele>889</ele>
        <time>2019-02-26T02:12:17Z</time>
      </trkpt>
      <trkpt lat="45.12238" lon="4.07448">
        <ele>887</ele>
        <time>2019-02-26T02:13:17Z</time>
      </trkpt>
      <trkpt lat="45.12193" lon="4.0748">
        <ele>881</ele>
        <time>2019-02-26T02:14:17Z</time>
      </trkpt>
      <trkpt lat="45.12167" lon="4.075">
        <ele>876</ele>
        <time>2019-02-26T02:15:17Z</time>
      </trkpt>
      <trkpt lat="45.12147" lon="4.07529">
        <ele>874</ele>
        <time>2019-02-26T02:16:17Z</time>
      </trkpt>
      <trkpt lat="45.12134" lon="4.07573">
        <ele>873</ele>
        <time>2019-02-26T02:17:17Z</time>
      </trkpt>
      <trkpt lat="45.12132" lon="4.0762">
        <ele>877</ele>
        <time>2019-02-26T02:18:17Z</time>
      </trkpt>
      <trkpt lat="45.12137" lon="4.07655">
        <ele>880</ele>
        <time>2019-02-26T02:19:17Z</time>
      </trkpt>
      <trkpt lat="45.12144" lon="4.07671">
        <ele>880</ele>
        <time>2019-02-26T02:20:17Z</time>
      </trkpt>
      <trkpt lat="45.12161" lon="4.07697">
        <ele>879</ele>
        <time>2019-02-26T02:21:17Z</time>
      </trkpt>
      <trkpt lat="45.122" lon="4.07723">
        <ele>879</ele>
        <time>2019-02-26T02:22:17Z</time>
      </trkpt>
      <trkpt lat="45.1223" lon="4.07735">
        <ele>878</ele>
        <time>2019-02-26T02:23:17Z</time>
      </trkpt>
      <trkpt lat="45.12385" lon="4.07722">
        <ele>869</ele>
        <time>2019-02-26T02:24:17Z</time>
      </trkpt>
      <trkpt lat="45.12457" lon="4.07722">
        <ele>865</ele>
        <time>2019-02-26T02:25:17Z</time>
      </trkpt>
      <trkpt lat="45.125" lon="4.07754">
        <ele>865</ele>
        <time>2019-02-26T02:26:17Z</time>
      </trkpt>
      <trkpt lat="45.12536" lon="4.07785">
        <ele>863</ele>
        <time>2019-02-26T02:27:17Z</time>
      </trkpt>
      <trkpt lat="45.1257" lon="4.07813">
        <ele>861</ele>
        <time>2019-02-26T02:28:17Z</time>
      </trkpt>
      <trkpt lat="45.12588" lon="4.0782">
        <ele>859</ele>
        <time>2019-02-26T02:29:17Z</time>
      </trkpt>
      <trkpt lat="45.12608" lon="4.07824">
        <ele>859</ele>
        <time>2019-02-26T02:30:17Z</time>
      </trkpt>
      <trkpt lat="45.12686" lon="4.07818">
        <ele>856</ele>
        <time>2019-02-26T02:31:17Z</time>
      </trkpt>
      <trkpt lat="45.12772" lon="4.07809">
        <ele>854</ele>
        <time>2019-02-26T02:32:17Z</time>
      </trkpt>
      <trkpt lat="45.12787" lon="4.07809">
        <ele>854</ele>
        <time>2019-02-26T02:33:17Z</time>
      </trkpt>
      <trkpt lat="45.1283" lon="4.07825">
        <ele>855</ele>
        <time>2019-02-26T02:34:17Z</time>
      </trkpt>
      <trkpt lat="45.1286" lon="4.07848">
        <ele>854</ele>
        <time>2019-02-26T02:35:17Z</time>
      </trkpt>
      <trkpt lat="45.12928" lon="4.07894">
        <ele>849</ele>
        <time>2019-02-26T02:36:17Z</time>
      </trkpt>
      <trkpt lat="45.1298" lon="4.07916">
        <ele>845</ele>
        <time>2019-02-26T02:37:17Z</time>
      </trkpt>
      <trkpt lat="45.13025" lon="4.07936">
        <ele>843</ele>
        <time>2019-02-26T02:38:17Z</time>
      </trkpt>
      <trkpt lat="45.1307" lon="4.07976">
        <ele>843</ele>
        <time>2019-02-26T02:39:17Z</time>
      </trkpt>
      <trkpt lat="45.13082" lon="4.07993">
        <ele>843</ele>
        <time>2019-02-26T02:40:17Z</time>
      </trkpt>
      <trkpt lat="45.13142" lon="4.08055">
        <ele>842</ele>
        <time>2019-02-26T02:41:17Z</time>
      </trkpt>
      <trkpt lat="45.13158" lon="4.08069">
        <ele>842</ele>
        <time>2019-02-26T02:42:17Z</time>
      </trkpt>
      <trkpt lat="45.13211" lon="4.08096">
        <ele>839</ele>
        <time>2019-02-26T02:43:17Z</time>
      </trkpt>
      <trkpt lat="45.13236" lon="4.08115">
        <ele>839</ele>
        <time>2019-02-26T02:44:17Z</time>
      </trkpt>
      <trkpt lat="45.13258" lon="4.08147">
        <ele>839</ele>
        <time>2019-02-26T02:45:17Z</time>
      </trkpt>
      <trkpt lat="45.13268" lon="4.08191">
        <ele>838</ele>
        <time>2019-02-26T02:46:17Z</time>
      </trkpt>
      <trkpt lat="45.13275" lon="4.08232">
        <ele>836</ele>
        <time>2019-02-26T02:47:17Z</time>
      </trkpt>
      <trkpt lat="45.13275" lon="4.08266">
        <ele>836</ele>
        <time>2019-02-26T02:48:17Z</time>
      </trkpt>
      <trkpt lat="45.13262" lon="4.0833">
        <ele>839</ele>
        <time>2019-02-26T02:49:17Z</time>
      </trkpt>
      <trkpt lat="45.13239" lon="4.0842">
        <ele>837</ele>
        <time>2019-02-26T02:50:17Z</time>
      </trkpt>
      <trkpt lat="45.13224" lon="4.0846">
        <ele>835</ele>
        <time>2019-02-26T02:51:17Z</time>
      </trkpt>
      <trkpt lat="45.13184" lon="4.0852">
        <ele>836</ele>
        <time>2019-02-26T02:52:17Z</time>
      </trkpt>
      <trkpt lat="45.13132" lon="4.08572">
        <ele>832</ele>
        <time>2019-02-26T02:53:17Z</time>
      </trkpt>
      <trkpt lat="45.13094" lon="4.08589">
        <ele>835</ele>
        <time>2019-02-26T02:54:17Z</time>
      </trkpt>
      <trkpt lat="45.13021" lon="4.08622">
        <ele>832</ele>
        <time>2019-02-26T02:55:17Z</time>
      </trkpt>
      <trkpt lat="45.12999" lon="4.08651">
        <ele>827</ele>
        <time>2019-02-26T02:56:17Z</time>
      </trkpt>
      <trkpt lat="45.12987" lon="4.08687">
        <ele>823</ele>
        <time>2019-02-26T02:57:17Z</time>
      </trkpt>
      <trkpt lat="45.12982" lon="4.08719">
        <ele>822</ele>
        <time>2019-02-26T02:58:17Z</time>
      </trkpt>
      <trkpt lat="45.12983" lon="4.08755">
        <ele>822</ele>
        <time>2019-02-26T02:59:17Z</time>
      </trkpt>
      <trkpt lat="45.12995" lon="4.08789">
        <ele>827</ele>
        <time>2019-02-26T03:00:17Z</time>
      </trkpt>
      <trkpt lat="45.13014" lon="4.08827">
        <ele>831</ele>
        <time>2019-02-26T03:01:17Z</time>
      </trkpt>
      <trkpt lat="45.13054" lon="4.08874">
        <ele>825</ele>
        <time>2019-02-26T03:02:17Z</time>
      </trkpt>
      <trkpt lat="45.13076" lon="4.08919">
        <ele>824</ele>
        <time>2019-02-26T03:03:17Z</time>
      </trkpt>
      <trkpt lat="45.13087" lon="4.08971">
        <ele>823</ele>
        <time>2019-02-26T03:04:17Z</time>
      </trkpt>
      <trkpt lat="45.13089" lon="4.0902">
        <ele>824</ele>
        <time>2019-02-26T03:05:17Z</time>
      </trkpt>
      <trkpt lat="45.1308" lon="4.09077">
        <ele>827</ele>
        <time>2019-02-26T03:06:17Z</time>
      </trkpt>
      <trkpt lat="45.13062" lon="4.09131">
        <ele>829</ele>
        <time>2019-02-26T03:07:17Z</time>
      </trkpt>
      <trkpt lat="45.13036" lon="4.092">
        <ele>832</ele>
        <time>2019-02-26T03:08:17Z</time>
      </trkpt>
      <trkpt lat="45.13006" lon="4.09279">
        <ele>835</ele>
        <time>2019-02-26T03:09:17Z</time>
      </trkpt>
      <trkpt lat="45.13002" lon="4.09315">
        <ele>836</ele>
        <time>2019-02-26T03:10:17Z</time>
      </trkpt>
      <trkpt lat="45.13002" lon="4.09352">
        <ele>837</ele>
        <time>2019-02-26T03:11:17Z</time>
      </trkpt>
      <trkpt lat="45.13005" lon="4.09394">
        <ele>838</ele>
        <time>2019-02-26T03:12:17Z</time>
      </trkpt>
      <trkpt lat="45.13025" lon="4.09463">
        <ele>838</ele>
        <time>2019-02-26T03:13:17Z</time>
      </trkpt>
      <trkpt lat="45.12968" lon="4.09512">
        <ele>842</ele>
        <time>2019-02-26T03:14:17Z</time>
      </trkpt>
      <trkpt lat="45.13075" lon="4.09707">
        <ele>840</ele>
        <time>2019-02-26T03:15:17Z</time>
      </trkpt>
      <trkpt lat="45.13159" lon="4.09838">
        <ele>844</ele>
        <time>2019-02-26T03:16:17Z</time>
      </trkpt>
      <trkpt lat="45.13236" lon="4.09917">
        <ele>843</ele>
        <time>2019-02-26T03:17:17Z</time>
      </trkpt>
      <trkpt lat="45.13282" lon="4.09957">
        <ele>843</ele>
        <time>2019-02-26T03:18:17Z</time>
      </trkpt>
      <trkpt lat="45.13352" lon="4.1">
        <ele>841</ele>
        <time>2019-02-26T03:19:17Z</time>
      </trkpt>
      <trkpt lat="45.13442" lon="4.1005">
        <ele>844</ele>
        <time>2019-02-26T03:20:17Z</time>
      </trkpt>
      <trkpt lat="45.13704" lon="4.1013">
        <ele>848</ele>
        <time>2019-02-26T03:21:17Z</time>
      </trkpt>
      <trkpt lat="45.13794" lon="4.10164">
        <ele>848</ele>
        <time>2019-02-26T03:22:17Z</time>
      </trkpt>
      <trkpt lat="45.13849" lon="4.10194">
        <ele>848</ele>
        <time>2019-02-26T03:23:17Z</time>
      </trkpt>
      <trkpt lat="45.139" lon="4.10235">
        <ele>849</ele>
        <time>2019-02-26T03:24:17Z</time>
      </trkpt>
      <trkpt lat="45.13938" lon="4.10275">
        <ele>850</ele>
        <time>2019-02-26T03:25:17Z</time>
      </trkpt>
      <trkpt lat="45.13947" lon="4.10299">
        <ele>851</ele>
        <time>2019-02-26T03:26:17Z</time>
      </trkpt>
      <trkpt lat="45.1396" lon="4.10312">
        <ele>851</ele>
        <time>2019-02-26T03:27:17Z</time>
      </trkpt>
      <trkpt lat="45.13998" lon="4.10349">
        <ele>853</ele>
        <time>2019-02-26T03:28:17Z</time>
      </trkpt>
      <trkpt lat="45.14021" lon="4.1039">
        <ele>854</ele>
        <time>2019-02-26T03:29:17Z</time>
      </trkpt>
      <trkpt lat="45.14085" lon="4.10538">
        <ele>857</ele>
        <time>2019-02-26T03:30:17Z</time>
      </trkpt>
      <trkpt lat="45.14088" lon="4.10553">
        <ele>857</ele>
        <time>2019-02-26T03:31:17Z</time>
      </trkpt>
      <trkpt lat="45.14154" lon="4.10651">
        <ele>854</ele>
        <time>2019-02-26T03:32:17Z</time>
      </trkpt>
      <trkpt lat="45.14204" lon="4.10726">
        <ele>854</ele>
        <time>2019-02-26T03:33:17Z</time>
      </trkpt>
      <trkpt lat="45.14223" lon="4.10756">
        <ele>853</ele>
        <time>2019-02-26T03:34:17Z</time>
      </trkpt>
      <trkpt lat="45.14234" lon="4.10775">
        <ele>852</ele>
        <time>2019-02-26T03:35:17Z</time>
      </trkpt>
      <trkpt lat="45.14239" lon="4.10796">
        <ele>852</ele>
        <time>2019-02-26T03:36:17Z</time>
      </trkpt>
      <trkpt lat="45.14236" lon="4.10864">
        <ele>854</ele>
        <time>2019-02-26T03:37:17Z</time>
      </trkpt>
      <trkpt lat="45.14234" lon="4.11034">
        <ele>855</ele>
        <time>2019-02-26T03:38:17Z</time>
      </trkpt>
      <trkpt lat="45.1425" lon="4.11127">
        <ele>852</ele>
        <time>2019-02-26T03:39:17Z</time>
      </trkpt>
      <trkpt lat="45.14217" lon="4.11397">
        <ele>843</ele>
        <time>2019-02-26T03:40:17Z</time>
      </trkpt>
      <trkpt lat="45.14212" lon="4.11466">
        <ele>843</ele>
        <time>2019-02-26T03:41:17Z</time>
      </trkpt>
      <trkpt lat="45.14217" lon="4.11488">
        <ele>844</ele>
        <time>2019-02-26T03:42:17Z</time>
      </trkpt>
      <trkpt lat="45.14229" lon="4.11515">
        <ele>844</ele>
        <time>2019-02-26T03:43:17Z</time>
      </trkpt>
      <trkpt lat="45.1426" lon="4.11523">
        <ele>843</ele>
        <time>2019-02-26T03:44:17Z</time>
      </trkpt>
      <trkpt lat="45.14312" lon="4.1165">
        <ele>842</ele>
        <time>2019-02-26T03:45:17Z</time>
      </trkpt>
      <trkpt lat="45.1429" lon="4.11668">
        <ele>845</ele>
        <time>2019-02-26T03:46:17Z</time>
      </trkpt>
      <trkpt lat="45.14365" lon="4.11835">
        <ele>839</ele>
        <time>2019-02-26T03:47:17Z</time>
      </trkpt>
      <trkpt lat="45.14384" lon="4.11868">
        <ele>840</ele>
        <time>2019-02-26T03:48:17Z</time>
      </trkpt>
      <trkpt lat="45.14403" lon="4.11881">
        <ele>839</ele>
        <time>2019-02-26T03:49:17Z</time>
      </trkpt>
      <trkpt lat="45.14503" lon="4.12118">
        <ele>840</ele>
        <time>2019-02-26T03:50:17Z</time>
      </trkpt>
      <trkpt lat="45.14517" lon="4.12137">
        <ele>838</ele>
        <time>2019-02-26T03:51:17Z</time>
      </trkpt>
      <trkpt lat="45.14547" lon="4.12167">
        <ele>837</ele>
        <time>2019-02-26T03:52:17Z</time>
      </trkpt>
      <trkpt lat="45.14573" lon="4.12182">
        <ele>836</ele>
        <time>2019-02-26T03:53:17Z</time>
      </trkpt>
      <trkpt lat="45.14704" lon="4.12225">
        <ele>834</ele>
        <time>2019-02-26T03:54:17Z</time>
      </trkpt>
      <trkpt lat="45.14761" lon="4.12246">
        <ele>834</ele>
        <time>2019-02-26T03:55:17Z</time>
      </trkpt>
      <trkpt lat="45.14796" lon="4.12269">
        <ele>834</ele>
        <time>2019-02-26T03:56:17Z</time>
      </trkpt>
      <trkpt lat="45.14822" lon="4.12297">
        <ele>836</ele>
        <time>2019-02-26T03:57:17Z</time>
      </trkpt>
      <trkpt lat="45.14853" lon="4.12347">
        <ele>836</ele>
        <time>2019-02-26T03:58:17Z</time>
      </trkpt>
      <trkpt lat="45.1489" lon="4.12437">
        <ele>837</ele>
        <time>2019-02-26T03:59:17Z</time>
      </trkpt>
      <trkpt lat="45.14914" lon="4.12481">
        <ele>837</ele>
        <time>2019-02-26T04:00:17Z</time>
      </trkpt>
      <trkpt lat="45.14942" lon="4.12503">
        <ele>836</ele>
        <time>2019-02-26T04:01:17Z</time>
      </trkpt>
      <trkpt lat="45.15037" lon="4.12532">
        <ele>832</ele>
        <time>2019-02-26T04:02:17Z</time>
      </trkpt>
      <trkpt lat="45.15091" lon="4.12573">
        <ele>832</ele>
        <time>2019-02-26T04:03:17Z</time>
      </trkpt>
      <trkpt lat="45.15134" lon="4.12623">
        <ele>832</ele>
        <time>2019-02-26T04:04:17Z</time>
      </trkpt>
      <trkpt lat="45.15172" lon="4.12668">
        <ele>831</ele>
        <time>2019-02-26T04:05:17Z</time>
      </trkpt>
      <trkpt lat="45.15191" lon="4.12729">
        <ele>830</ele>
        <time>2019-02-26T04:06:17Z</time>
      </trkpt>
      <trkpt lat="45.15198" lon="4.12779">
        <ele>831</ele>
        <time>2019-02-26T04:07:17Z</time>
      </trkpt>
      <trkpt lat="45.15197" lon="4.12829">
        <ele>831</ele>
        <time>2019-02-26T04:08:17Z</time>
      </trkpt>
      <trkpt lat="45.15204" lon="4.12872">
        <ele>830</ele>
        <time>2019-02-26T04:09:17Z</time>
      </trkpt>
      <trkpt lat="45.15211" lon="4.12892">
        <ele>830</ele>
        <time>2019-02-26T04:10:17Z</time>
      </trkpt>
      <trkpt lat="45.15229" lon="4.12922">
        <ele>828</ele>
        <time>2019-02-26T04:11:17Z</time>
      </trkpt>
      <trkpt lat="45.15248" lon="4.1296">
        <ele>828</ele>
        <time>2019-02-26T04:12:17Z</time>
      </trkpt>
      <trkpt lat="45.15307" lon="4.13096">
        <ele>828</ele>
        <time>2019-02-26T04:13:17Z</time>
      </trkpt>
      <trkpt lat="45.15328" lon="4.13132">
        <ele>827</ele>
        <time>2019-02-26T04:14:17Z</time>
      </trkpt>
      <trkpt lat="45.15349" lon="4.1315">
        <ele>826</ele>
        <time>2019-02-26T04:15:17Z</time>
      </trkpt>
      <trkpt lat="45.15369" lon="4.13153">
        <ele>825</ele>
        <time>2019-02-26T04:16:17Z</time>
      </trkpt>
      <trkpt lat="45.15378" lon="4.13165">
        <ele>825</ele>
        <time>2019-02-26T04:17:17Z</time>
      </trkpt>
      <trkpt lat="45.15387" lon="4.13171">
        <ele>825</ele>
        <time>2019-02-26T04:18:17Z</time>
      </trkpt>
      <trkpt lat="45.15403" lon="4.13165">
        <ele>824</ele>
        <time>2019-02-26T04:19:17Z</time>
      </trkpt>
      <trkpt lat="45.15414" lon="4.1316">
        <ele>824</ele>
        <time>2019-02-26T04:20:17Z</time>
      </trkpt>
      <trkpt lat="45.15428" lon="4.13243">
        <ele>827</ele>
        <time>2019-02-26T04:21:17Z</time>
      </trkpt>
      <trkpt lat="45.15451" lon="4.13249">
        <ele>826</ele>
        <time>2019-02-26T04:22:17Z</time>
      </trkpt>
      <trkpt lat="45.15638" lon="4.13354">
        <ele>822</ele>
        <time>2019-02-26T04:23:17Z</time>
      </trkpt>
      <trkpt lat="45.15765" lon="4.13432">
        <ele>819</ele>
        <time>2019-02-26T04:24:17Z</time>
      </trkpt>
      <trkpt lat="45.1589" lon="4.13515">
        <ele>812</ele>
        <time>2019-02-26T04:25:17Z</time>
      </trkpt>
      <trkpt lat="45.15907" lon="4.13556">
        <ele>810</ele>
        <time>2019-02-26T04:26:17Z</time>
      </trkpt>
      <trkpt lat="45.15972" lon="4.13677">
        <ele>804</ele>
        <time>2019-02-26T04:27:17Z</time>
      </trkpt>
      <trkpt lat="45.1596" lon="4.13687">
        <ele>804</ele>
        <time>2019-02-26T04:28:17Z</time>
      </trkpt>
      <trkpt lat="45.15915" lon="4.13691">
        <ele>803</ele>
        <time>2019-02-26T04:29:17Z</time>
      </trkpt>
      <trkpt lat="45.15898" lon="4.13707">
        <ele>801</ele>
        <time>2019-02-26T04:30:17Z</time>
      </trkpt>
      <trkpt lat="45.15913" lon="4.13807">
        <ele>801</ele>
        <time>2019-02-26T04:31:17Z</time>
      </trkpt>
      <trkpt lat="45.1593" lon="4.13897">
        <ele>801</ele>
        <time>2019-02-26T04:32:17Z</time>
      </trkpt>
      <trkpt lat="45.16015" lon="4.13871">
        <ele>799</ele>
        <time>2019-02-26T04:33:17Z</time>
      </trkpt>
      <trkpt lat="45.16031" lon="4.13916">
        <ele>799</ele>
        <time>2019-02-26T04:34:17Z</time>
      </trkpt>
      <trkpt lat="45.16034" lon="4.13944">
        <ele>798</ele>
        <time>2019-02-26T04:35:17Z</time>
      </trkpt>
      <trkpt lat="45.16062" lon="4.14049">
        <ele>796</ele>
        <time>2019-02-26T04:36:17Z</time>
      </trkpt>
      <trkpt lat="45.16031" lon="4.14135">
        <ele>796</ele>
        <time>2019-02-26T04:37:17Z</time>
      </trkpt>
      <trkpt lat="45.16022" lon="4.1416">
        <ele>797</ele>
        <time>2019-02-26T04:38:17Z</time>
      </trkpt>
      <trkpt lat="45.16016" lon="4.14254">
        <ele>796</ele>
        <time>2019-02-26T04:39:17Z</time>
      </trkpt>
      <trkpt lat="45.16016" lon="4.14317">
        <ele>791</ele>
        <time>2019-02-26T04:40:17Z</time>
      </trkpt>
      <trkpt lat="45.15999" lon="4.14427">
        <ele>786</ele>
        <time>2019-02-26T04:41:17Z</time>
      </trkpt>
      <trkpt lat="45.16" lon="4.14464">
        <ele>785</ele>
        <time>2019-02-26T04:42:17Z</time>
      </trkpt>
      <trkpt lat="45.16026" lon="4.14547">
        <ele>784</ele>
        <time>2019-02-26T04:43:17Z</time>
      </trkpt>
      <trkpt lat="45.16071" lon="4.14635">
        <ele>785</ele>
        <time>2019-02-26T04:44:17Z</time>
      </trkpt>
      <trkpt lat="45.16093" lon="4.14723">
        <ele>781</ele>
        <time>2019-02-26T04:45:17Z</time>
      </trkpt>
      <trkpt lat="45.16111" lon="4.14802">
        <ele>778</ele>
        <time>2019-02-26T04:46:17Z</time>
      </trkpt>
      <trkpt lat="45.16116" lon="4.14868">
        <ele>775</ele>
        <time>2019-02-26T04:47:17Z</time>
      </trkpt>
      <trkpt lat="45.16111" lon="4.14907">
        <ele>773</ele>
        <time>2019-02-26T04:48:17Z</time>
      </trkpt>
      <trkpt lat="45.16096" lon="4.14955">
        <ele>773</ele>
        <time>2019-02-26T04:49:17Z</time>
      </trkpt>
      <trkpt lat="45.16018" lon="4.15115">
        <ele>766</ele>
        <time>2019-02-26T04:50:17Z</time>
      </trkpt>
      <trkpt lat="45.15995" lon="4.15168">
        <ele>765</ele>
        <time>2019-02-26T04:51:17Z</time>
      </trkpt>
      <trkpt lat="45.15963" lon="4.15285">
        <ele>763</ele>
        <time>2019-02-26T04:52:17Z</time>
      </trkpt>
      <trkpt lat="45.15956" lon="4.15391">
        <ele>763</ele>
        <time>2019-02-26T04:53:17Z</time>
      </trkpt>
      <trkpt lat="45.15956" lon="4.15551">
        <ele>762</ele>
        <time>2019-02-26T04:54:17Z</time>
      </trkpt>
      <trkpt lat="45.15968" lon="4.15648">
        <ele>761</ele>
        <time>2019-02-26T04:55:17Z</time>
      </trkpt>
      <trkpt lat="45.15995" lon="4.15705">
        <ele>761</ele>
        <time>2019-02-26T04:56:17Z</time>
      </trkpt>
      <trkpt lat="45.16055" lon="4.15736">
        <ele>758</ele>
        <time>2019-02-26T04:57:17Z</time>
      </trkpt>
      <trkpt lat="45.16078" lon="4.15739">
        <ele>757</ele>
        <time>2019-02-26T04:58:17Z</time>
      </trkpt>
      <trkpt lat="45.16159" lon="4.15754">
        <ele>755</ele>
        <time>2019-02-26T04:59:17Z</time>
      </trkpt>
      <trkpt lat="45.16187" lon="4.15771">
        <ele>752</ele>
        <time>2019-02-26T05:00:17Z</time>
      </trkpt>
      <trkpt lat="45.16248" lon="4.15787">
        <ele>751</ele>
        <time>2019-02-26T05:01:17Z</time>
      </trkpt>
      <trkpt lat="45.163" lon="4.15834">
        <ele>745</ele>
        <time>2019-02-26T05:02:17Z</time>
      </trkpt>
      <trkpt lat="45.16333" lon="4.15941">
        <ele>744</ele>
        <time>2019-02-26T05:03:17Z</time>
      </trkpt>
      <trkpt lat="45.1634" lon="4.16003">
        <ele>744</ele>
        <time>2019-02-26T05:04:17Z</time>
      </trkpt>
      <trkpt lat="45.16338" lon="4.1609">
        <ele>745</ele>
        <time>2019-02-26T05:05:17Z</time>
      </trkpt>
      <trkpt lat="45.16331" lon="4.16138">
        <ele>745</ele>
        <time>2019-02-26T05:06:17Z</time>
      </trkpt>
      <trkpt lat="45.16291" lon="4.16283">
        <ele>745</ele>
        <time>2019-02-26T05:07:17Z</time>
      </trkpt>
      <trkpt lat="45.16248" lon="4.164">
        <ele>741</ele>
        <time>2019-02-26T05:08:17Z</time>
      </trkpt>
      <trkpt lat="45.16227" lon="4.16449">
        <ele>748</ele>
        <time>2019-02-26T05:09:17Z</time>
      </trkpt>
      <trkpt lat="45.16223" lon="4.16529">
        <ele>752</ele>
        <time>2019-02-26T05:10:17Z</time>
      </trkpt>
      <trkpt lat="45.16193" lon="4.16579">
        <ele>748</ele>
        <time>2019-02-26T05:11:17Z</time>
      </trkpt>
      <trkpt lat="45.16148" lon="4.16625">
        <ele>745</ele>
        <time>2019-02-26T05:12:17Z</time>
      </trkpt>
      <trkpt lat="45.1613" lon="4.16689">
        <ele>746</ele>
        <time>2019-02-26T05:13:17Z</time>
      </trkpt>
      <trkpt lat="45.16128" lon="4.16748">
        <ele>744</ele>
        <time>2019-02-26T05:14:17Z</time>
      </trkpt>
      <trkpt lat="45.16116" lon="4.16811">
        <ele>739</ele>
        <time>2019-02-26T05:15:17Z</time>
      </trkpt>
      <trkpt lat="45.16106" lon="4.16837">
        <ele>735</ele>
        <time>2019-02-26T05:16:17Z</time>
      </trkpt>
      <trkpt lat="45.16083" lon="4.16883">
        <ele>730</ele>
        <time>2019-02-26T05:17:17Z</time>
      </trkpt>
      <trkpt lat="45.16076" lon="4.1691">
        <ele>730</ele>
        <time>2019-02-26T05:18:17Z</time>
      </trkpt>
      <trkpt lat="45.16077" lon="4.16927">
        <ele>731</ele>
        <time>2019-02-26T05:19:17Z</time>
      </trkpt>
      <trkpt lat="45.16179" lon="4.17037">
        <ele>728</ele>
        <time>2019-02-26T05:20:17Z</time>
      </trkpt>
      <trkpt lat="45.16247" lon="4.17094">
        <ele>712</ele>
        <time>2019-02-26T05:21:17Z</time>
      </trkpt>
      <trkpt lat="45.16241" lon="4.17118">
        <ele>713</ele>
        <time>2019-02-26T05:22:17Z</time>
      </trkpt>
      <trkpt lat="45.16245" lon="4.17174">
        <ele>712</ele>
        <time>2019-02-26T05:23:17Z</time>
      </trkpt>
      <trkpt lat="45.16246" lon="4.17213">
        <ele>714</ele>
        <time>2019-02-26T05:24:17Z</time>
      </trkpt>
      <trkpt lat="45.16236" lon="4.1725">
        <ele>716</ele>
        <time>2019-02-26T05:25:17Z</time>
      </trkpt>
      <trkpt lat="45.16178" lon="4.17331">
        <ele>717</ele>
        <time>2019-02-26T05:26:17Z</time>
      </trkpt>
      <trkpt lat="45.1612" lon="4.17387">
        <ele>718</ele>
        <time>2019-02-26T05:27:17Z</time>
      </trkpt>
      <trkpt lat="45.16095" lon="4.17453">
        <ele>719</ele>
        <time>2019-02-26T05:28:17Z</time>
      </trkpt>
      <trkpt lat="45.16088" lon="4.17535">
        <ele>717</ele>
        <time>2019-02-26T05:29:17Z</time>
      </trkpt>
      <trkpt lat="45.16117" lon="4.17636">
        <ele>720</ele>
        <time>2019-02-26T05:30:17Z</time>
      </trkpt>
      <trkpt lat="45.1613" lon="4.17715">
        <ele>721</ele>
        <time>2019-02-26T05:31:17Z</time>
      </trkpt>
      <trkpt lat="45.16135" lon="4.1775">
        <ele>721</ele>
        <time>2019-02-26T05:32:17Z</time>
      </trkpt>
      <trkpt lat="45.16156" lon="4.17803">
        <ele>719</ele>
        <time>2019-02-26T05:33:17Z</time>
      </trkpt>
      <trkpt lat="45.16194" lon="4.17821">
        <ele>716</ele>
        <time>2019-02-26T05:34:17Z</time>
      </trkpt>
      <trkpt lat="45.16246" lon="4.17826">
        <ele>716</ele>
        <time>2019-02-26T05:35:17Z</time>
      </trkpt>
      <trkpt lat="45.16316" lon="4.17797">
        <ele>721</ele>
        <time>2019-02-26T05:36:17Z</time>
      </trkpt>
      <trkpt lat="45.16346" lon="4.17786">
        <ele>722</ele>
        <time>2019-02-26T05:37:17Z</time>
      </trkpt>
      <trkpt lat="45.16442" lon="4.1773">
        <ele>719</ele>
        <time>2019-02-26T05:38:17Z</time>
      </trkpt>
      <trkpt lat="45.16501" lon="4.17703">
        <ele>719</ele>
        <time>2019-02-26T05:39:17Z</time>
      </trkpt>
      <trkpt lat="45.16636" lon="4.17787">
        <ele>721</ele>
        <time>2019-02-26T05:40:17Z</time>
      </trkpt>
      <trkpt lat="45.16657" lon="4.17758">
        <ele>724</ele>
        <time>2019-02-26T05:41:17Z</time>
      </trkpt>
      <trkpt lat="45.16658" lon="4.1773">
        <ele>722</ele>
        <time>2019-02-26T05:42:17Z</time>
      </trkpt>
      <trkpt lat="45.16697" lon="4.17716">
        <ele>727</ele>
        <time>2019-02-26T05:43:17Z</time>
      </trkpt>
      <trkpt lat="45.16774" lon="4.17668">
        <ele>737</ele>
        <time>2019-02-26T05:44:17Z</time>
      </trkpt>
      <trkpt lat="45.16813" lon="4.17656">
        <ele>741</ele>
        <time>2019-02-26T05:45:17Z</time>
      </trkpt>
      <trkpt lat="45.16854" lon="4.17641">
        <ele>746</ele>
        <time>2019-02-26T05:46:17Z</time>
      </trkpt>
      <trkpt lat="45.16891" lon="4.17598">
        <ele>743</ele>
        <time>2019-02-26T05:47:17Z</time>
      </trkpt>
      <trkpt lat="45.16918" lon="4.17566">
        <ele>742</ele>
        <time>2019-02-26T05:48:17Z</time>
      </trkpt>
      <trkpt lat="45.1693" lon="4.17541">
        <ele>737</ele>
        <time>2019-02-26T05:49:17Z</time>
      </trkpt>
      <trkpt lat="45.16934" lon="4.17521">
        <ele>732</ele>
        <time>2019-02-26T05:50:17Z</time>
      </trkpt>
      <trkpt lat="45.16958" lon="4.175">
        <ele>732</ele>
        <time>2019-02-26T05:51:17Z</time>
      </trkpt>
      <trkpt lat="45.17005" lon="4.17492">
        <ele>743</ele>
        <time>2019-02-26T05:52:17Z</time>
      </trkpt>
      <trkpt lat="45.17031" lon="4.175">
        <ele>751</ele>
        <time>2019-02-26T05:53:17Z</time>
      </trkpt>
      <trkpt lat="45.17055" lon="4.17482">
        <ele>749</ele>
        <time>2019-02-26T05:54:17Z</time>
      </trkpt>
      <trkpt lat="45.17085" lon="4.17442">
        <ele>742</ele>
        <time>2019-02-26T05:55:17Z</time>
      </trkpt>
      <trkpt lat="45.17103" lon="4.17428">
        <ele>741</ele>
        <time>2019-02-26T05:56:17Z</time>
      </trkpt>
      <trkpt lat="45.17155" lon="4.17417">
        <ele>750</ele>
        <time>2019-02-26T05:57:17Z</time>
      </trkpt>
      <trkpt lat="45.17217" lon="4.17381">
        <ele>752</ele>
        <time>2019-02-26T05:58:17Z</time>
      </trkpt>
      <trkpt lat="45.17267" lon="4.17331">
        <ele>746</ele>
        <time>2019-02-26T05:59:17Z</time>
      </trkpt>
      <trkpt lat="45.17302" lon="4.17276">
        <ele>744</ele>
        <time>2019-02-26T06:00:17Z</time>
      </trkpt>
      <trkpt lat="45.17328" lon="4.17227">
        <ele>746</ele>
        <time>2019-02-26T06:01:17Z</time>
      </trkpt>
      <trkpt lat="45.17337" lon="4.17217">
        <ele>746</ele>
        <time>2019-02-26T06:02:17Z</time>
      </trkpt>
      <trkpt lat="45.17357" lon="4.17215">
        <ele>745</ele>
        <time>2019-02-26T06:03:17Z</time>
      </trkpt>
      <trkpt lat="45.17367" lon="4.17228">
        <ele>747</ele>
        <time>2019-02-26T06:04:17Z</time>
      </trkpt>
      <trkpt lat="45.17382" lon="4.17266">
        <ele>753</ele>
        <time>2019-02-26T06:05:17Z</time>
      </trkpt>
      <trkpt lat="45.17412" lon="4.17285">
        <ele>756</ele>
        <time>2019-02-26T06:06:17Z</time>
      </trkpt>
      <trkpt lat="45.17426" lon="4.17289">
        <ele>758</ele>
        <time>2019-02-26T06:07:17Z</time>
      </trkpt>
      <trkpt lat="45.17505" lon="4.17268">
        <ele>760</ele>
        <time>2019-02-26T06:08:17Z</time>
      </trkpt>
      <trkpt lat="45.17546" lon="4.17256">
        <ele>762</ele>
        <time>2019-02-26T06:09:17Z</time>
      </trkpt>
      <trkpt lat="45.17592" lon="4.17234">
        <ele>760</ele>
        <time>2019-02-26T06:10:17Z</time>
      </trkpt>
      <trkpt lat="45.17618" lon="4.17234">
        <ele>759</ele>
        <time>2019-02-26T06:11:17Z</time>
      </trkpt>
      <trkpt lat="45.17682" lon="4.17309">
        <ele>778</ele>
        <time>2019-02-26T06:12:17Z</time>
      </trkpt>
      <trkpt lat="45.17731" lon="4.17364">
        <ele>781</ele>
        <time>2019-02-26T06:13:17Z</time>
      </trkpt>
      <trkpt lat="45.17741" lon="4.17367">
        <ele>780</ele>
        <time>2019-02-26T06:14:17Z</time>
      </trkpt>
      <trkpt lat="45.17778" lon="4.17331">
        <ele>775</ele>
        <time>2019-02-26T06:15:17Z</time>
      </trkpt>
      <trkpt lat="45.17829" lon="4.17277">
        <ele>773</ele>
        <time>2019-02-26T06:16:17Z</time>
      </trkpt>
      <trkpt lat="45.17859" lon="4.17259">
        <ele>774</ele>
        <time>2019-02-26T06:17:17Z</time>
      </trkpt>
      <trkpt lat="45.17919" lon="4.17275">
        <ele>780</ele>
        <time>2019-02-26T06:18:17Z</time>
      </trkpt>
      <trkpt lat="45.17936" lon="4.17285">
        <ele>781</ele>
        <time>2019-02-26T06:19:17Z</time>
      </trkpt>
      <trkpt lat="45.17982" lon="4.17313">
        <ele>785</ele>
        <time>2019-02-26T06:20:17Z</time>
      </trkpt>
      <trkpt lat="45.18038" lon="4.17367">
        <ele>788</ele>
        <time>2019-02-26T06:21:17Z</time>
      </trkpt>
      <trkpt lat="45.18063" lon="4.17394">
        <ele>790</ele>
        <time>2019-02-26T06:22:17Z</time>
      </trkpt>
      <trkpt lat="45.18096" lon="4.17447">
        <ele>791</ele>
        <time>2019-02-26T06:23:17Z</time>
      </trkpt>
      <trkpt lat="45.18111" lon="4.17475">
        <ele>792</ele>
        <time>2019-02-26T06:24:17Z</time>
      </trkpt>
      <trkpt lat="45.18115" lon="4.17484">
        <ele>792</ele>
        <time>2019-02-26T06:25:17Z</time>
      </trkpt>
      <trkpt lat="45.1811" lon="4.17499">
        <ele>793</ele>
        <time>2019-02-26T06:26:17Z</time>
      </trkpt>
      <trkpt lat="45.1811" lon="4.17525">
        <ele>792</ele>
        <time>2019-02-26T06:27:17Z</time>
      </trkpt>
      <trkpt lat="45.1813" lon="4.17578">
        <ele>791</ele>
        <time>2019-02-26T06:28:17Z</time>
      </trkpt>
      <trkpt lat="45.18133" lon="4.1761">
        <ele>790</ele>
        <time>2019-02-26T06:29:17Z</time>
      </trkpt>
      <trkpt lat="45.18139" lon="4.17631">
        <ele>790</ele>
        <time>2019-02-26T06:30:17Z</time>
      </trkpt>
      <trkpt lat="45.18149" lon="4.17647">
        <ele>789</ele>
        <time>2019-02-26T06:31:17Z</time>
      </trkpt>
      <trkpt lat="45.18157" lon="4.17659">
        <ele>788</ele>
        <time>2019-02-26T06:32:17Z</time>
      </trkpt>
      <trkpt lat="45.18159" lon="4.17721">
        <ele>787</ele>
        <time>2019-02-26T06:33:17Z</time>
      </trkpt>
      <trkpt lat="45.18149" lon="4.17742">
        <ele>788</ele>
        <time>2019-02-26T06:34:17Z</time>
      </trkpt>
      <trkpt lat="45.18134" lon="4.17795">
        <ele>788</ele>
        <time>2019-02-26T06:35:17Z</time>
      </trkpt>
      <trkpt lat="45.18112" lon="4.17852">
        <ele>788</ele>
        <time>2019-02-26T06:36:17Z</time>
      </trkpt>
      <trkpt lat="45.18086" lon="4.17904">
        <ele>790</ele>
        <time>2019-02-26T06:37:17Z</time>
      </trkpt>
      <trkpt lat="45.1806" lon="4.17956">
        <ele>790</ele>
        <time>2019-02-26T06:38:17Z</time>
      </trkpt>
      <trkpt lat="45.18046" lon="4.18002">
        <ele>788</ele>
        <time>2019-02-26T06:39:17Z</time>
      </trkpt>
      <trkpt lat="45.18038" lon="4.18036">
        <ele>788</ele>
        <time>2019-02-26T06:40:17Z</time>
      </trkpt>
      <trkpt lat="45.18037" lon="4.18068">
        <ele>788</ele>
        <time>2019-02-26T06:41:17Z</time>
      </trkpt>
      <trkpt lat="45.18041" lon="4.18099">
        <ele>789</ele>
        <time>2019-02-26T06:42:17Z</time>
      </trkpt>
      <trkpt lat="45.18057" lon="4.18142">
        <ele>791</ele>
        <time>2019-02-26T06:43:17Z</time>
      </trkpt>
      <trkpt lat="45.18076" lon="4.18176">
        <ele>793</ele>
        <time>2019-02-26T06:44:17Z</time>
      </trkpt>
      <trkpt lat="45.18101" lon="4.18196">
        <ele>794</ele>
        <time>2019-02-26T06:45:17Z</time>
      </trkpt>
      <trkpt lat="45.18122" lon="4.18209">
        <ele>794</ele>
        <time>2019-02-26T06:46:17Z</time>
      </trkpt>
      <trkpt lat="45.18168" lon="4.18211">
        <ele>793</ele>
        <time>2019-02-26T06:47:17Z</time>
      </trkpt>
      <trkpt lat="45.18233" lon="4.18196">
        <ele>793</ele>
        <time>2019-02-26T06:48:17Z</time>
      </trkpt>
      <trkpt lat="45.18263" lon="4.18194">
        <ele>793</ele>
        <time>2019-02-26T06:49:17Z</time>
      </trkpt>
      <trkpt lat="45.183" lon="4.18196">
        <ele>793</ele>
        <time>2019-02-26T06:50:17Z</time>
      </trkpt>
      <trkpt lat="45.18323" lon="4.18208">
        <ele>794</ele>
        <time>2019-02-26T06:51:17Z</time>
      </trkpt>
      <trkpt lat="45.18349" lon="4.18248">
        <ele>795</ele>
        <time>2019-02-26T06:52:17Z</time>
      </trkpt>
      <trkpt lat="45.1836" lon="4.18263">
        <ele>795</ele>
        <time>2019-02-26T06:53:17Z</time>
      </trkpt>
      <trkpt lat="45.18477" lon="4.18222">
        <ele>791</ele>
        <time>2019-02-26T06:54:17Z</time>
      </trkpt>
      <trkpt lat="45.18485" lon="4.18254">
        <ele>792</ele>
        <time>2019-02-26T06:55:17Z</time>
      </trkpt>
      <trkpt lat="45.18484" lon="4.18295">
        <ele>792</ele>
        <time>2019-02-26T06:56:17Z</time>
      </trkpt>
      <trkpt lat="45.18467" lon="4.18368">
        <ele>792</ele>
        <time>2019-02-26T06:57:17Z</time>
      </trkpt>
      <trkpt lat="45.18447" lon="4.18436">
        <ele>792</ele>
        <time>2019-02-26T06:58:17Z</time>
      </trkpt>
      <trkpt lat="45.18418" lon="4.18489">
        <ele>792</ele>
        <time>2019-02-26T06:59:17Z</time>
      </trkpt>
      <trkpt lat="45.18324" lon="4.18582">
        <ele>795</ele>
        <time>2019-02-26T07:00:17Z</time>
      </trkpt>
      <trkpt lat="45.18256" lon="4.18644">
        <ele>792</ele>
        <time>2019-02-26T07:01:17Z</time>
      </trkpt>
      <trkpt lat="45.18179" lon="4.18693">
        <ele>793</ele>
        <time>2019-02-26T07:02:17Z</time>
      </trkpt>
      <trkpt lat="45.18138" lon="4.18717">
        <ele>795</ele>
        <time>2019-02-26T07:03:17Z</time>
      </trkpt>
      <trkpt lat="45.18111" lon="4.18748">
        <ele>795</ele>
        <time>2019-02-26T07:04:17Z</time>
      </trkpt>
      <trkpt lat="45.18101" lon="4.1877">
        <ele>795</ele>
        <time>2019-02-26T07:05:17Z</time>
      </trkpt>
      <trkpt lat="45.18092" lon="4.1881">
        <ele>793</ele>
        <time>2019-02-26T07:06:17Z</time>
      </trkpt>
      <trkpt lat="45.18093" lon="4.18839">
        <ele>791</ele>
        <time>2019-02-26T07:07:17Z</time>
      </trkpt>
      <trkpt lat="45.18099" lon="4.1888">
        <ele>791</ele>
        <time>2019-02-26T07:08:17Z</time>
      </trkpt>
      <trkpt lat="45.18129" lon="4.18936">
        <ele>791</ele>
        <time>2019-02-26T07:09:17Z</time>
      </trkpt>
      <trkpt lat="45.18149" lon="4.18977">
        <ele>792</ele>
        <time>2019-02-26T07:10:17Z</time>
      </trkpt>
      <trkpt lat="45.1816" lon="4.19029">
        <ele>793</ele>
        <time>2019-02-26T07:11:17Z</time>
      </trkpt>
      <trkpt lat="45.1816" lon="4.19064">
        <ele>794</ele>
        <time>2019-02-26T07:12:17Z</time>
      </trkpt>
      <trkpt lat="45.18152" lon="4.19113">
        <ele>795</ele>
        <time>2019-02-26T07:13:17Z</time>
      </trkpt>
      <trkpt lat="45.18137" lon="4.19168">
        <ele>797</ele>
        <time>2019-02-26T07:14:17Z</time>
      </trkpt>
      <trkpt lat="45.18134" lon="4.19204">
        <ele>798</ele>
        <time>2019-02-26T07:15:17Z</time>
      </trkpt>
      <trkpt lat="45.18139" lon="4.19237">
        <ele>798</ele>
        <time>2019-02-26T07:16:17Z</time>
      </trkpt>
      <trkpt lat="45.1817" lon="4.193">
        <ele>800</ele>
        <time>2019-02-26T07:17:17Z</time>
      </trkpt>
      <trkpt lat="45.18265" lon="4.1936">
        <ele>804</ele>
        <time>2019-02-26T07:18:17Z</time>
      </trkpt>
      <trkpt lat="45.18316" lon="4.19392">
        <ele>805</ele>
        <time>2019-02-26T07:19:17Z</time>
      </trkpt>
      <trkpt lat="45.18455" lon="4.19469">
        <ele>812</ele>
        <time>2019-02-26T07:20:17Z</time>
      </trkpt>
      <trkpt lat="45.18488" lon="4.19492">
        <ele>814</ele>
        <time>2019-02-26T07:21:17Z</time>
      </trkpt>
      <trkpt lat="45.18514" lon="4.19526">
        <ele>815</ele>
        <time>2019-02-26T07:22:17Z</time>
      </trkpt>
      <trkpt lat="45.18574" lon="4.1964">
        <ele>816</ele>
        <time>2019-02-26T07:23:17Z</time>
      </trkpt>
      <trkpt lat="45.18594" lon="4.19698">
        <ele>817</ele>
        <time>2019-02-26T07:24:17Z</time>
      </trkpt>
      <trkpt lat="45.18619" lon="4.19801">
        <ele>821</ele>
        <time>2019-02-26T07:25:17Z</time>
      </trkpt>
      <trkpt lat="45.18629" lon="4.19897">
        <ele>828</ele>
        <time>2019-02-26T07:26:17Z</time>
      </trkpt>
      <trkpt lat="45.1863" lon="4.20018">
        <ele>831</ele>
        <time>2019-02-26T07:27:17Z</time>
      </trkpt>
      <trkpt lat="45.18625" lon="4.20053">
        <ele>832</ele>
        <time>2019-02-26T07:28:17Z</time>
      </trkpt>
      <trkpt lat="45.1858" lon="4.20558">
        <ele>829</ele>
        <time>2019-02-26T07:29:17Z</time>
      </trkpt>
      <trkpt lat="45.18579" lon="4.20596">
        <ele>830</ele>
        <time>2019-02-26T07:30:17Z</time>
      </trkpt>
      <trkpt lat="45.18587" lon="4.2064">
        <ele>831</ele>
        <time>2019-02-26T07:31:17Z</time>
      </trkpt>
      <trkpt lat="45.18605" lon="4.2068">
        <ele>832</ele>
        <time>2019-02-26T07:32:17Z</time>
      </trkpt>
      <trkpt lat="45.18687" lon="4.2077">
        <ele>832</ele>
        <time>2019-02-26T07:33:17Z</time>
      </trkpt>
      <trkpt lat="45.18705" lon="4.20803">
        <ele>834</ele>
        <time>2019-02-26T07:34:17Z</time>
      </trkpt>
      <trkpt lat="45.18718" lon="4.20852">
        <ele>836</ele>
        <time>2019-02-26T07:35:17Z</time>
      </trkpt>
      <trkpt lat="45.1873" lon="4.20926">
        <ele>836</ele>
        <time>2019-02-26T07:36:17Z</time>
      </trkpt>
      <trkpt lat="45.1873" lon="4.20976">
        <ele>835</ele>
        <time>2019-02-26T07:37:17Z</time>
      </trkpt>
      <trkpt lat="45.18721" lon="4.21016">
        <ele>835</ele>
        <time>2019-02-26T07:38:17Z</time>
      </trkpt>
      <trkpt lat="45.18704" lon="4.21046">
        <ele>836</ele>
        <time>2019-02-26T07:39:17Z</time>
      </trkpt>
      <trkpt lat="45.18642" lon="4.21098">
        <ele>839</ele>
        <time>2019-02-26T07:40:17Z</time>
      </trkpt>
      <trkpt lat="45.18507" lon="4.2121">
        <ele>847</ele>
        <time>2019-02-26T07:41:17Z</time>
      </trkpt>
      <trkpt lat="45.18466" lon="4.21262">
        <ele>848</ele>
        <time>2019-02-26T07:42:17Z</time>
      </trkpt>
      <trkpt lat="45.18426" lon="4.21338">
        <ele>851</ele>
        <time>2019-02-26T07:43:17Z</time>
      </trkpt>
      <trkpt lat="45.18393" lon="4.21388">
        <ele>853</ele>
        <time>2019-02-26T07:44:17Z</time>
      </trkpt>
      <trkpt lat="45.18357" lon="4.21481">
        <ele>853</ele>
        <time>2019-02-26T07:45:17Z</time>
      </trkpt>
      <trkpt lat="45.18337" lon="4.21552">
        <ele>851</ele>
        <time>2019-02-26T07:46:17Z</time>
      </trkpt>
      <trkpt lat="45.18308" lon="4.21648">
        <ele>849</ele>
        <time>2019-02-26T07:47:17Z</time>
      </trkpt>
      <trkpt lat="45.18263" lon="4.21729">
        <ele>847</ele>
        <time>2019-02-26T07:48:17Z</time>
      </trkpt>
      <trkpt lat="45.18247" lon="4.21752">
        <ele>847</ele>
        <time>2019-02-26T07:49:17Z</time>
      </trkpt>
      <trkpt lat="45.18216" lon="4.21769">
        <ele>846</ele>
        <time>2019-02-26T07:50:17Z</time>
      </trkpt>
      <trkpt lat="45.18182" lon="4.21805">
        <ele>845</ele>
        <time>2019-02-26T07:51:17Z</time>
      </trkpt>
      <trkpt lat="45.18142" lon="4.21894">
        <ele>845</ele>
        <time>2019-02-26T07:52:17Z</time>
      </trkpt>
      <trkpt lat="45.18114" lon="4.21981">
        <ele>844</ele>
        <time>2019-02-26T07:53:17Z</time>
      </trkpt>
      <trkpt lat="45.18117" lon="4.21991">
        <ele>843</ele>
        <time>2019-02-26T07:54:17Z</time>
      </trkpt>
      <trkpt lat="45.18088" lon="4.22043">
        <ele>844</ele>
        <time>2019-02-26T07:55:17Z</time>
      </trkpt>
      <trkpt lat="45.18001" lon="4.22169">
        <ele>843</ele>
        <time>2019-02-26T07:56:17Z</time>
      </trkpt>
      <trkpt lat="45.17807" lon="4.22442">
        <ele>838</ele>
        <time>2019-02-26T07:57:17Z</time>
      </trkpt>
      <trkpt lat="45.17717" lon="4.22578">
        <ele>835</ele>
        <time>2019-02-26T07:58:17Z</time>
      </trkpt>
      <trkpt lat="45.17688" lon="4.22642">
        <ele>835</ele>
        <time>2019-02-26T07:59:17Z</time>
      </trkpt>
      <trkpt lat="45.17659" lon="4.22726">
        <ele>837</ele>
        <time>2019-02-26T08:00:17Z</time>
      </trkpt>
      <trkpt lat="45.17641" lon="4.2281">
        <ele>838</ele>
        <time>2019-02-26T08:01:17Z</time>
      </trkpt>
      <trkpt lat="45.17631" lon="4.2291">
        <ele>838</ele>
        <time>2019-02-26T08:02:17Z</time>
      </trkpt>
      <trkpt lat="45.17621" lon="4.23098">
        <ele>843</ele>
        <time>2019-02-26T08:03:17Z</time>
      </trkpt>
      <trkpt lat="45.17616" lon="4.23192">
        <ele>843</ele>
        <time>2019-02-26T08:04:17Z</time>
      </trkpt>
      <trkpt lat="45.17607" lon="4.23263">
        <ele>843</ele>
        <time>2019-02-26T08:05:17Z</time>
      </trkpt>
      <trkpt lat="45.17582" lon="4.2335">
        <ele>848</ele>
        <time>2019-02-26T08:06:17Z</time>
      </trkpt>
      <trkpt lat="45.17499" lon="4.23521">
        <ele>856</ele>
        <time>2019-02-26T08:07:17Z</time>
      </trkpt>
      <trkpt lat="45.17469" lon="4.23593">
        <ele>856</ele>
        <time>2019-02-26T08:08:17Z</time>
      </trkpt>
      <trkpt lat="45.17453" lon="4.23649">
        <ele>857</ele>
        <time>2019-02-26T08:09:17Z</time>
      </trkpt>
      <trkpt lat="45.17442" lon="4.23712">
        <ele>858</ele>
        <time>2019-02-26T08:10:17Z</time>
      </trkpt>
      <trkpt lat="45.17432" lon="4.23756">
        <ele>859</ele>
        <time>2019-02-26T08:11:17Z</time>
      </trkpt>
      <trkpt lat="45.17414" lon="4.23799">
        <ele>860</ele>
        <time>2019-02-26T08:12:17Z</time>
      </trkpt>
      <trkpt lat="45.17388" lon="4.23829">
        <ele>861</ele>
        <time>2019-02-26T08:13:17Z</time>
      </trkpt>
      <trkpt lat="45.17342" lon="4.23865">
        <ele>863</ele>
        <time>2019-02-26T08:14:17Z</time>
      </trkpt>
      <trkpt lat="45.17286" lon="4.23892">
        <ele>866</ele>
        <time>2019-02-26T08:15:17Z</time>
      </trkpt>
      <trkpt lat="45.17246" lon="4.23915">
        <ele>868</ele>
        <time>2019-02-26T08:16:17Z</time>
      </trkpt>
      <trkpt lat="45.17218" lon="4.23947">
        <ele>867</ele>
        <time>2019-02-26T08:17:17Z</time>
      </trkpt>
      <trkpt lat="45.17181" lon="4.24014">
        <ele>866</ele>
        <time>2019-02-26T08:18:17Z</time>
      </trkpt>
      <trkpt lat="45.17155" lon="4.24121">
        <ele>868</ele>
        <time>2019-02-26T08:19:17Z</time>
      </trkpt>
      <trkpt lat="45.17125" lon="4.24268">
        <ele>871</ele>
        <time>2019-02-26T08:20:17Z</time>
      </trkpt>
      <trkpt lat="45.17092" lon="4.24438">
        <ele>876</ele>
        <time>2019-02-26T08:21:17Z</time>
      </trkpt>
      <trkpt lat="45.17071" lon="4.24564">
        <ele>880</ele>
        <time>2019-02-26T08:22:17Z</time>
      </trkpt>
      <trkpt lat="45.17062" lon="4.24696">
        <ele>880</ele>
        <time>2019-02-26T08:23:17Z</time>
      </trkpt>
      <trkpt lat="45.17051" lon="4.24835">
        <ele>879</ele>
        <time>2019-02-26T08:24:17Z</time>
      </trkpt>
      <trkpt lat="45.17037" lon="4.24976">
        <ele>879</ele>
        <time>2019-02-26T08:25:17Z</time>
      </trkpt>
      <trkpt lat="45.17035" lon="4.25003">
        <ele>879</ele>
        <time>2019-02-26T08:26:17Z</time>
      </trkpt>
      <trkpt lat="45.17001" lon="4.25122">
        <ele>880</ele>
        <time>2019-02-26T08:27:17Z</time>
      </trkpt>
      <trkpt lat="45.16983" lon="4.25205">
        <ele>880</ele>
        <time>2019-02-26T08:28:17Z</time>
      </trkpt>
      <trkpt lat="45.16974" lon="4.25282">
        <ele>881</ele>
        <time>2019-02-26T08:29:17Z</time>
      </trkpt>
      <trkpt lat="45.16971" lon="4.2535">
        <ele>882</ele>
        <time>2019-02-26T08:30:17Z</time>
      </trkpt>
      <trkpt lat="45.16973" lon="4.25399">
        <ele>881</ele>
        <time>2019-02-26T08:31:17Z</time>
      </trkpt>
      <trkpt lat="45.16984" lon="4.25458">
        <ele>880</ele>
        <time>2019-02-26T08:32:17Z</time>
      </trkpt>
      <trkpt lat="45.17005" lon="4.255">
        <ele>880</ele>
        <time>2019-02-26T08:33:17Z</time>
      </trkpt>
      <trkpt lat="45.17058" lon="4.25564">
        <ele>879</ele>
        <time>2019-02-26T08:34:17Z</time>
      </trkpt>
      <trkpt lat="45.17082" lon="4.25611">
        <ele>878</ele>
        <time>2019-02-26T08:35:17Z</time>
      </trkpt>
      <trkpt lat="45.17096" lon="4.25673">
        <ele>878</ele>
        <time>2019-02-26T08:36:17Z</time>
      </trkpt>
      <trkpt lat="45.17095" lon="4.25727">
        <ele>877</ele>
        <time>2019-02-26T08:37:17Z</time>
      </trkpt>
      <trkpt lat="45.17086" lon="4.25771">
        <ele>876</ele>
        <time>2019-02-26T08:38:17Z</time>
      </trkpt>
      <trkpt lat="45.1707" lon="4.25814">
        <ele>877</ele>
        <time>2019-02-26T08:39:17Z</time>
      </trkpt>
      <trkpt lat="45.17045" lon="4.25849">
        <ele>878</ele>
        <time>2019-02-26T08:40:17Z</time>
      </trkpt>
      <trkpt lat="45.16997" lon="4.25888">
        <ele>880</ele>
        <time>2019-02-26T08:41:17Z</time>
      </trkpt>
      <trkpt lat="45.16912" lon="4.2595">
        <ele>884</ele>
        <time>2019-02-26T08:42:17Z</time>
      </trkpt>
      <trkpt lat="45.16879" lon="4.25985">
        <ele>885</ele>
        <time>2019-02-26T08:43:17Z</time>
      </trkpt>
      <trkpt lat="45.16867" lon="4.25988">
        <ele>885</ele>
        <time>2019-02-26T08:44:17Z</time>
      </trkpt>
      <trkpt lat="45.16862" lon="4.26014">
        <ele>886</ele>
        <time>2019-02-26T08:45:17Z</time>
      </trkpt>
      <trkpt lat="45.16845" lon="4.26047">
        <ele>886</ele>
        <time>2019-02-26T08:46:17Z</time>
      </trkpt>
      <trkpt lat="45.16828" lon="4.2612">
        <ele>888</ele>
        <time>2019-02-26T08:47:17Z</time>
      </trkpt>
      <trkpt lat="45.16817" lon="4.26239">
        <ele>890</ele>
        <time>2019-02-26T08:48:17Z</time>
      </trkpt>
      <trkpt lat="45.16812" lon="4.26292">
        <ele>891</ele>
        <time>2019-02-26T08:49:17Z</time>
      </trkpt>
      <trkpt lat="45.1681" lon="4.26339">
        <ele>891</ele>
        <time>2019-02-26T08:50:17Z</time>
      </trkpt>
      <trkpt lat="45.16807" lon="4.26419">
        <ele>891</ele>
        <time>2019-02-26T08:51:17Z</time>
      </trkpt>
      <trkpt lat="45.16825" lon="4.26541">
        <ele>890</ele>
        <time>2019-02-26T08:52:17Z</time>
      </trkpt>
      <trkpt lat="45.16841" lon="4.26621">
        <ele>892</ele>
        <time>2019-02-26T08:53:17Z</time>
      </trkpt>
      <trkpt lat="45.16852" lon="4.26687">
        <ele>895</ele>
        <time>2019-02-26T08:54:17Z</time>
      </trkpt>
      <trkpt lat="45.16852" lon="4.26748">
        <ele>899</ele>
        <time>2019-02-26T08:55:17Z</time>
      </trkpt>
      <trkpt lat="45.16847" lon="4.26821">
        <ele>904</ele>
        <time>2019-02-26T08:56:17Z</time>
      </trkpt>
      <trkpt lat="45.16829" lon="4.26898">
        <ele>905</ele>
        <time>2019-02-26T08:57:17Z</time>
      </trkpt>
      <trkpt lat="45.16821" lon="4.26963">
        <ele>905</ele>
        <time>2019-02-26T08:58:17Z</time>
      </trkpt>
      <trkpt lat="45.16821" lon="4.27008">
        <ele>905</ele>
        <time>2019-02-26T08:59:17Z</time>
      </trkpt>
      <trkpt lat="45.1683" lon="4.27078">
        <ele>903</ele>
        <time>2019-02-26T09:00:17Z</time>
      </trkpt>
      <trkpt lat="45.16867" lon="4.27164">
        <ele>898</ele>
        <time>2019-02-26T09:01:17Z</time>
      </trkpt>
      <trkpt lat="45.16921" lon="4.27299">
        <ele>896</ele>
        <time>2019-02-26T09:02:17Z</time>
      </trkpt>
      <trkpt lat="45.16938" lon="4.27412">
        <ele>894</ele>
        <time>2019-02-26T09:03:17Z</time>
      </trkpt>
      <trkpt lat="45.16928" lon="4.27535">
        <ele>895</ele>
        <time>2019-02-26T09:04:17Z</time>
      </trkpt>
      <trkpt lat="45.16891" lon="4.27666">
        <ele>901</ele>
        <time>2019-02-26T09:05:17Z</time>
      </trkpt>
      <trkpt lat="45.16883" lon="4.27724">
        <ele>901</ele>
        <time>2019-02-26T09:06:17Z</time>
      </trkpt>
      <trkpt lat="45.16905" lon="4.27807">
        <ele>897</ele>
        <time>2019-02-26T09:07:17Z</time>
      </trkpt>
      <trkpt lat="45.16972" lon="4.27871">
        <ele>896</ele>
        <time>2019-02-26T09:08:17Z</time>
      </trkpt>
      <trkpt lat="45.1704" lon="4.27937">
        <ele>893</ele>
        <time>2019-02-26T09:09:17Z</time>
      </trkpt>
      <trkpt lat="45.17075" lon="4.28051">
        <ele>891</ele>
        <time>2019-02-26T09:10:17Z</time>
      </trkpt>
      <trkpt lat="45.17077" lon="4.28112">
        <ele>889</ele>
        <time>2019-02-26T09:11:17Z</time>
      </trkpt>
      <trkpt lat="45.17058" lon="4.28219">
        <ele>885</ele>
        <time>2019-02-26T09:12:17Z</time>
      </trkpt>
      <trkpt lat="45.17004" lon="4.28307">
        <ele>883</ele>
        <time>2019-02-26T09:13:17Z</time>
      </trkpt>
      <trkpt lat="45.16947" lon="4.28376">
        <ele>879</ele>
        <time>2019-02-26T09:14:17Z</time>
      </trkpt>
      <trkpt lat="45.16905" lon="4.28494">
        <ele>877</ele>
        <time>2019-02-26T09:15:17Z</time>
      </trkpt>
      <trkpt lat="45.16888" lon="4.28604">
        <ele>877</ele>
        <time>2019-02-26T09:16:17Z</time>
      </trkpt>
      <trkpt lat="45.16868" lon="4.28682">
        <ele>874</ele>
        <time>2019-02-26T09:17:17Z</time>
      </trkpt>
      <trkpt lat="45.16842" lon="4.28718">
        <ele>874</ele>
        <time>2019-02-26T09:18:17Z</time>
      </trkpt>
      <trkpt lat="45.16784" lon="4.28753">
        <ele>872</ele>
        <time>2019-02-26T09:19:17Z</time>
      </trkpt>
      <trkpt lat="45.16729" lon="4.28781">
        <ele>871</ele>
        <time>2019-02-26T09:20:17Z</time>
      </trkpt>
      <trkpt lat="45.16673" lon="4.28868">
        <ele>868</ele>
        <time>2019-02-26T09:21:17Z</time>
      </trkpt>
      <trkpt lat="45.16643" lon="4.2892">
        <ele>867</ele>
        <time>2019-02-26T09:22:17Z</time>
      </trkpt>
      <trkpt lat="45.16611" lon="4.28993">
        <ele>865</ele>
        <time>2019-02-26T09:23:17Z</time>
      </trkpt>
      <trkpt lat="45.16609" lon="4.29059">
        <ele>865</ele>
        <time>2019-02-26T09:24:17Z</time>
      </trkpt>
      <trkpt lat="45.16608" lon="4.29122">
        <ele>864</ele>
        <time>2019-02-26T09:25:17Z</time>
      </trkpt>
      <trkpt lat="45.16649" lon="4.29187">
        <ele>864</ele>
        <time>2019-02-26T09:26:17Z</time>
      </trkpt>
      <trkpt lat="45.16793" lon="4.2938">
        <ele>864</ele>
        <time>2019-02-26T09:27:17Z</time>
      </trkpt>
      <trkpt lat="45.16997" lon="4.29753">
        <ele>866</ele>
        <time>2019-02-26T09:28:17Z</time>
      </trkpt>
      <trkpt lat="45.17031" lon="4.29794">
        <ele>866</ele>
        <time>2019-02-26T09:29:17Z</time>
      </trkpt>
      <trkpt lat="45.17062" lon="4.29802">
        <ele>867</ele>
        <time>2019-02-26T09:30:17Z</time>
      </trkpt>
      <trkpt lat="45.17093" lon="4.298">
        <ele>868</ele>
        <time>2019-02-26T09:31:17Z</time>
      </trkpt>
      <trkpt lat="45.17246" lon="4.29742">
        <ele>871</ele>
        <time>2019-02-26T09:32:17Z</time>
      </trkpt>
      <trkpt lat="45.17358" lon="4.29702">
        <ele>870</ele>
        <time>2019-02-26T09:33:17Z</time>
      </trkpt>
      <trkpt lat="45.17403" lon="4.29698">
        <ele>869</ele>
        <time>2019-02-26T09:34:17Z</time>
      </trkpt>
      <trkpt lat="45.1745" lon="4.29715">
        <ele>869</ele>
        <time>2019-02-26T09:35:17Z</time>
      </trkpt>
      <trkpt lat="45.17504" lon="4.2976">
        <ele>870</ele>
        <time>2019-02-26T09:36:17Z</time>
      </trkpt>
      <trkpt lat="45.1769" lon="4.29921">
        <ele>878</ele>
        <time>2019-02-26T09:37:17Z</time>
      </trkpt>
      <trkpt lat="45.17788" lon="4.30004">
        <ele>884</ele>
        <time>2019-02-26T09:38:17Z</time>
      </trkpt>
      <trkpt lat="45.17839" lon="4.30039">
        <ele>887</ele>
        <time>2019-02-26T09:39:17Z</time>
      </trkpt>
      <trkpt lat="45.17861" lon="4.3004">
        <ele>887</ele>
        <time>2019-02-26T09:40:17Z</time>
      </trkpt>
      <trkpt lat="45.17897" lon="4.3004">
        <ele>887</ele>
        <time>2019-02-26T09:41:17Z</time>
      </trkpt>
      <trkpt lat="45.17929" lon="4.30039">
        <ele>888</ele>
        <time>2019-02-26T09:42:17Z</time>
      </trkpt>
      <trkpt lat="45.1797" lon="4.30061">
        <ele>889</ele>
        <time>2019-02-26T09:43:17Z</time>
      </trkpt>
      <trkpt lat="45.17993" lon="4.30091">
        <ele>889</ele>
        <time>2019-02-26T09:44:17Z</time>
      </trkpt>
      <trkpt lat="45.18021" lon="4.30157">
        <ele>891</ele>
        <time>2019-02-26T09:45:17Z</time>
      </trkpt>
      <trkpt lat="45.1804" lon="4.3018">
        <ele>892</ele>
        <time>2019-02-26T09:46:17Z</time>
      </trkpt>
      <trkpt lat="45.18115" lon="4.30207">
        <ele>895</ele>
        <time>2019-02-26T09:47:17Z</time>
      </trkpt>
      <trkpt lat="45.18159" lon="4.30249">
        <ele>896</ele>
        <time>2019-02-26T09:48:17Z</time>
      </trkpt>
      <trkpt lat="45.18173" lon="4.30314">
        <ele>897</ele>
        <time>2019-02-26T09:49:17Z</time>
      </trkpt>
      <trkpt lat="45.18162" lon="4.30376">
        <ele>899</ele>
        <time>2019-02-26T09:50:17Z</time>
      </trkpt>
      <trkpt lat="45.18144" lon="4.3044">
        <ele>900</ele>
        <time>2019-02-26T09:51:17Z</time>
      </trkpt>
      <trkpt lat="45.18132" lon="4.30513">
        <ele>899</ele>
        <time>2019-02-26T09:52:17Z</time>
      </trkpt>
      <trkpt lat="45.18145" lon="4.30583">
        <ele>901</ele>
        <time>2019-02-26T09:53:17Z</time>
      </trkpt>
      <trkpt lat="45.18171" lon="4.30623">
        <ele>905</ele>
        <time>2019-02-26T09:54:17Z</time>
      </trkpt>
      <trkpt lat="45.18202" lon="4.30647">
        <ele>906</ele>
        <time>2019-02-26T09:55:17Z</time>
      </trkpt>
      <trkpt lat="45.18343" lon="4.30698">
        <ele>911</ele>
        <time>2019-02-26T09:56:17Z</time>
      </trkpt>
      <trkpt lat="45.18402" lon="4.30735">
        <ele>912</ele>
        <time>2019-02-26T09:57:17Z</time>
      </trkpt>
      <trkpt lat="45.18449" lon="4.308">
        <ele>912</ele>
        <time>2019-02-26T09:58:17Z</time>
      </trkpt>
      <trkpt lat="45.18494" lon="4.30884">
        <ele>913</ele>
        <time>2019-02-26T09:59:17Z</time>
      </trkpt>
      <trkpt lat="45.18521" lon="4.30907">
        <ele>913</ele>
        <time>2019-02-26T10:00:17Z</time>
      </trkpt>
      <trkpt lat="45.18601" lon="4.3095">
        <ele>911</ele>
        <time>2019-02-26T10:01:17Z</time>
      </trkpt>
      <trkpt lat="45.18655" lon="4.3099">
        <ele>912</ele>
        <time>2019-02-26T10:02:17Z</time>
      </trkpt>
      <trkpt lat="45.18696" lon="4.31074">
        <ele>912</ele>
        <time>2019-02-26T10:03:17Z</time>
      </trkpt>
      <trkpt lat="45.18728" lon="4.31153">
        <ele>911</ele>
        <time>2019-02-26T10:04:17Z</time>
      </trkpt>
      <trkpt lat="45.18736" lon="4.31252">
        <ele>909</ele>
        <time>2019-02-26T10:05:17Z</time>
      </trkpt>
      <trkpt lat="45.18738" lon="4.31353">
        <ele>910</ele>
        <time>2019-02-26T10:06:17Z</time>
      </trkpt>
      <trkpt lat="45.18732" lon="4.31422">
        <ele>912</ele>
        <time>2019-02-26T10:07:17Z</time>
      </trkpt>
      <trkpt lat="45.18716" lon="4.31616">
        <ele>915</ele>
        <time>2019-02-26T10:08:17Z</time>
      </trkpt>
      <trkpt lat="45.18712" lon="4.31718">
        <ele>920</ele>
        <time>2019-02-26T10:09:17Z</time>
      </trkpt>
      <trkpt lat="45.18723" lon="4.31819">
        <ele>921</ele>
        <time>2019-02-26T10:10:17Z</time>
      </trkpt>
      <trkpt lat="45.18746" lon="4.31889">
        <ele>921</ele>
        <time>2019-02-26T10:11:17Z</time>
      </trkpt>
      <trkpt lat="45.18809" lon="4.3202">
        <ele>922</ele>
        <time>2019-02-26T10:12:17Z</time>
      </trkpt>
      <trkpt lat="45.18934" lon="4.3227">
        <ele>917</ele>
        <time>2019-02-26T10:13:17Z</time>
      </trkpt>
      <trkpt lat="45.18963" lon="4.32327">
        <ele>914</ele>
        <time>2019-02-26T10:14:17Z</time>
      </trkpt>
      <trkpt lat="45.18997" lon="4.32364">
        <ele>913</ele>
        <time>2019-02-26T10:15:17Z</time>
      </trkpt>
      <trkpt lat="45.19034" lon="4.32389">
        <ele>913</ele>
        <time>2019-02-26T10:16:17Z</time>
      </trkpt>
      <trkpt lat="45.19073" lon="4.3239">
        <ele>911</ele>
        <time>2019-02-26T10:17:17Z</time>
      </trkpt>
      <trkpt lat="45.19144" lon="4.3237">
        <ele>910</ele>
        <time>2019-02-26T10:18:17Z</time>
      </trkpt>
      <trkpt lat="45.19205" lon="4.3236">
        <ele>909</ele>
        <time>2019-02-26T10:19:17Z</time>
      </trkpt>
      <trkpt lat="45.1924" lon="4.32326">
        <ele>906</ele>
        <time>2019-02-26T10:20:17Z</time>
      </trkpt>
      <trkpt lat="45.19262" lon="4.32283">
        <ele>907</ele>
        <time>2019-02-26T10:21:17Z</time>
      </trkpt>
      <trkpt lat="45.19301" lon="4.32106">
        <ele>903</ele>
        <time>2019-02-26T10:22:17Z</time>
      </trkpt>
      <trkpt lat="45.19314" lon="4.32072">
        <ele>902</ele>
        <time>2019-02-26T10:23:17Z</time>
      </trkpt>
      <trkpt lat="45.19358" lon="4.32014">
        <ele>900</ele>
        <time>2019-02-26T10:24:17Z</time>
      </trkpt>
      <trkpt lat="45.19403" lon="4.31965">
        <ele>898</ele>
        <time>2019-02-26T10:25:17Z</time>
      </trkpt>
      <trkpt lat="45.19463" lon="4.31932">
        <ele>896</ele>
        <time>2019-02-26T10:26:17Z</time>
      </trkpt>
      <trkpt lat="45.19504" lon="4.3187">
        <ele>890</ele>
        <time>2019-02-26T10:27:17Z</time>
      </trkpt>
      <trkpt lat="45.19546" lon="4.31811">
        <ele>887</ele>
        <time>2019-02-26T10:28:17Z</time>
      </trkpt>
      <trkpt lat="45.19599" lon="4.31767">
        <ele>886</ele>
        <time>2019-02-26T10:29:17Z</time>
      </trkpt>
      <trkpt lat="45.19677" lon="4.31722">
        <ele>882</ele>
        <time>2019-02-26T10:30:17Z</time>
      </trkpt>
      <trkpt lat="45.19709" lon="4.31717">
        <ele>881</ele>
        <time>2019-02-26T10:31:17Z</time>
      </trkpt>
      <trkpt lat="45.19753" lon="4.31735">
        <ele>884</ele>
        <time>2019-02-26T10:32:17Z</time>
      </trkpt>
      <trkpt lat="45.19797" lon="4.31778">
        <ele>887</ele>
        <time>2019-02-26T10:33:17Z</time>
      </trkpt>
      <trkpt lat="45.19829" lon="4.31786">
        <ele>887</ele>
        <time>2019-02-26T10:34:17Z</time>
      </trkpt>
      <trkpt lat="45.19991" lon="4.3178">
        <ele>887</ele>
        <time>2019-02-26T10:35:17Z</time>
      </trkpt>
      <trkpt lat="45.20052" lon="4.31747">
        <ele>882</ele>
        <time>2019-02-26T10:36:17Z</time>
      </trkpt>
      <trkpt lat="45.20098" lon="4.31724">
        <ele>880</ele>
        <time>2019-02-26T10:37:17Z</time>
      </trkpt>
      <trkpt lat="45.20156" lon="4.31724">
        <ele>881</ele>
        <time>2019-02-26T10:38:17Z</time>
      </trkpt>
      <trkpt lat="45.20234" lon="4.31746">
        <ele>878</ele>
        <time>2019-02-26T10:39:17Z</time>
      </trkpt>
      <trkpt lat="45.20267" lon="4.31734">
        <ele>876</ele>
        <time>2019-02-26T10:40:17Z</time>
      </trkpt>
      <trkpt lat="45.20346" lon="4.31692">
        <ele>869</ele>
        <time>2019-02-26T10:41:17Z</time>
      </trkpt>
      <trkpt lat="45.20416" lon="4.31677">
        <ele>866</ele>
        <time>2019-02-26T10:42:17Z</time>
      </trkpt>
      <trkpt lat="45.205" lon="4.31667">
        <ele>858</ele>
        <time>2019-02-26T10:43:17Z</time>
      </trkpt>
      <trkpt lat="45.20516" lon="4.31668">
        <ele>857</ele>
        <time>2019-02-26T10:44:17Z</time>
      </trkpt>
      <trkpt lat="45.20561" lon="4.31684">
        <ele>854</ele>
        <time>2019-02-26T10:45:17Z</time>
      </trkpt>
      <trkpt lat="45.20586" lon="4.31723">
        <ele>856</ele>
        <time>2019-02-26T10:46:17Z</time>
      </trkpt>
      <trkpt lat="45.20615" lon="4.31772">
        <ele>856</ele>
        <time>2019-02-26T10:47:17Z</time>
      </trkpt>
      <trkpt lat="45.20646" lon="4.31795">
        <ele>854</ele>
        <time>2019-02-26T10:48:17Z</time>
      </trkpt>
      <trkpt lat="45.20703" lon="4.31828">
        <ele>853</ele>
        <time>2019-02-26T10:49:17Z</time>
      </trkpt>
      <trkpt lat="45.20729" lon="4.31866">
        <ele>852</ele>
        <time>2019-02-26T10:50:17Z</time>
      </trkpt>
      <trkpt lat="45.20741" lon="4.31925">
        <ele>851</ele>
        <time>2019-02-26T10:51:17Z</time>
      </trkpt>
      <trkpt lat="45.20756" lon="4.31982">
        <ele>849</ele>
        <time>2019-02-26T10:52:17Z</time>
      </trkpt>
      <trkpt lat="45.2077" lon="4.32014">
        <ele>849</ele>
        <time>2019-02-26T10:53:17Z</time>
      </trkpt>
      <trkpt lat="45.20796" lon="4.32039">
        <ele>851</ele>
        <time>2019-02-26T10:54:17Z</time>
      </trkpt>
      <trkpt lat="45.20856" lon="4.32049">
        <ele>850</ele>
        <time>2019-02-26T10:55:17Z</time>
      </trkpt>
      <trkpt lat="45.20885" lon="4.3206">
        <ele>849</ele>
        <time>2019-02-26T10:56:17Z</time>
      </trkpt>
      <trkpt lat="45.20924" lon="4.32088">
        <ele>852</ele>
        <time>2019-02-26T10:57:17Z</time>
      </trkpt>
      <trkpt lat="45.20942" lon="4.32098">
        <ele>853</ele>
        <time>2019-02-26T10:58:17Z</time>
      </trkpt>
      <trkpt lat="45.20975" lon="4.32102">
        <ele>851</ele>
        <time>2019-02-26T10:59:17Z</time>
      </trkpt>
      <trkpt lat="45.21009" lon="4.32088">
        <ele>846</ele>
        <time>2019-02-26T11:00:17Z</time>
      </trkpt>
      <trkpt lat="45.21059" lon="4.32038">
        <ele>845</ele>
        <time>2019-02-26T11:01:17Z</time>
      </trkpt>
      <trkpt lat="45.21099" lon="4.32022">
        <ele>848</ele>
        <time>2019-02-26T11:02:17Z</time>
      </trkpt>
      <trkpt lat="45.21131" lon="4.32019">
        <ele>850</ele>
        <time>2019-02-26T11:03:17Z</time>
      </trkpt>
      <trkpt lat="45.21169" lon="4.32031">
        <ele>854</ele>
        <time>2019-02-26T11:04:17Z</time>
      </trkpt>
      <trkpt lat="45.212" lon="4.32056">
        <ele>852</ele>
        <time>2019-02-26T11:05:17Z</time>
      </trkpt>
      <trkpt lat="45.2123" lon="4.32099">
        <ele>852</ele>
        <time>2019-02-26T11:06:17Z</time>
      </trkpt>
      <trkpt lat="45.21274" lon="4.32223">
        <ele>849</ele>
        <time>2019-02-26T11:07:17Z</time>
      </trkpt>
      <trkpt lat="45.21307" lon="4.32292">
        <ele>847</ele>
        <time>2019-02-26T11:08:17Z</time>
      </trkpt>
      <trkpt lat="45.21362" lon="4.32379">
        <ele>842</ele>
        <time>2019-02-26T11:09:17Z</time>
      </trkpt>
      <trkpt lat="45.21373" lon="4.32422">
        <ele>842</ele>
        <time>2019-02-26T11:10:17Z</time>
      </trkpt>
      <trkpt lat="45.21377" lon="4.32462">
        <ele>842</ele>
        <time>2019-02-26T11:11:17Z</time>
      </trkpt>
      <trkpt lat="45.21348" lon="4.32548">
        <ele>839</ele>
        <time>2019-02-26T11:12:17Z</time>
      </trkpt>
      <trkpt lat="45.21338" lon="4.32589">
        <ele>835</ele>
        <time>2019-02-26T11:13:17Z</time>
      </trkpt>
      <trkpt lat="45.21336" lon="4.32639">
        <ele>833</ele>
        <time>2019-02-26T11:14:17Z</time>
      </trkpt>
      <trkpt lat="45.2137" lon="4.3279">
        <ele>834</ele>
        <time>2019-02-26T11:15:17Z</time>
      </trkpt>
      <trkpt lat="45.21385" lon="4.32834">
        <ele>833</ele>
        <time>2019-02-26T11:16:17Z</time>
      </trkpt>
      <trkpt lat="45.21412" lon="4.32878">
        <ele>836</ele>
        <time>2019-02-26T11:17:17Z</time>
      </trkpt>
      <trkpt lat="45.21451" lon="4.32893">
        <ele>836</ele>
        <time>2019-02-26T11:18:17Z</time>
      </trkpt>
      <trkpt lat="45.21505" lon="4.32898">
        <ele>832</ele>
        <time>2019-02-26T11:19:17Z</time>
      </trkpt>
      <trkpt lat="45.21537" lon="4.3291">
        <ele>826</ele>
        <time>2019-02-26T11:20:17Z</time>
      </trkpt>
      <trkpt lat="45.21568" lon="4.32956">
        <ele>824</ele>
        <time>2019-02-26T11:21:17Z</time>
      </trkpt>
      <trkpt lat="45.21619" lon="4.33143">
        <ele>831</ele>
        <time>2019-02-26T11:22:17Z</time>
      </trkpt>
      <trkpt lat="45.21646" lon="4.33267">
        <ele>828</ele>
        <time>2019-02-26T11:23:17Z</time>
      </trkpt>
      <trkpt lat="45.21654" lon="4.33344">
        <ele>826</ele>
        <time>2019-02-26T11:24:17Z</time>
      </trkpt>
      <trkpt lat="45.21659" lon="4.33393">
        <ele>823</ele>
        <time>2019-02-26T11:25:17Z</time>
      </trkpt>
      <trkpt lat="45.21642" lon="4.33454">
        <ele>819</ele>
        <time>2019-02-26T11:26:17Z</time>
      </trkpt>
      <trkpt lat="45.21632" lon="4.33498">
        <ele>813</ele>
        <time>2019-02-26T11:27:17Z</time>
      </trkpt>
      <trkpt lat="45.21627" lon="4.33561">
        <ele>809</ele>
        <time>2019-02-26T11:28:17Z</time>
      </trkpt>
      <trkpt lat="45.21651" lon="4.33653">
        <ele>806</ele>
        <time>2019-02-26T11:29:17Z</time>
      </trkpt>
      <trkpt lat="45.2168" lon="4.33722">
        <ele>805</ele>
        <time>2019-02-26T11:30:17Z</time>
      </trkpt>
      <trkpt lat="45.21685" lon="4.33793">
        <ele>803</ele>
        <time>2019-02-26T11:31:17Z</time>
      </trkpt>
      <trkpt lat="45.21669" lon="4.33842">
        <ele>803</ele>
        <time>2019-02-26T11:32:17Z</time>
      </trkpt>
      <trkpt lat="45.21642" lon="4.33881">
        <ele>801</ele>
        <time>2019-02-26T11:33:17Z</time>
      </trkpt>
      <trkpt lat="45.21592" lon="4.33915">
        <ele>801</ele>
        <time>2019-02-26T11:34:17Z</time>
      </trkpt>
      <trkpt lat="45.21561" lon="4.3395">
        <ele>801</ele>
        <time>2019-02-26T11:35:17Z</time>
      </trkpt>
      <trkpt lat="45.2154" lon="4.33992">
        <ele>801</ele>
        <time>2019-02-26T11:36:17Z</time>
      </trkpt>
      <trkpt lat="45.21531" lon="4.34034">
        <ele>799</ele>
        <time>2019-02-26T11:37:17Z</time>
      </trkpt>
      <trkpt lat="45.21526" lon="4.34111">
        <ele>796</ele>
        <time>2019-02-26T11:38:17Z</time>
      </trkpt>
      <trkpt lat="45.21499" lon="4.34291">
        <ele>795</ele>
        <time>2019-02-26T11:39:17Z</time>
      </trkpt>
      <trkpt lat="45.2148" lon="4.34389">
        <ele>793</ele>
        <time>2019-02-26T11:40:17Z</time>
      </trkpt>
      <trkpt lat="45.21464" lon="4.34444">
        <ele>793</ele>
        <time>2019-02-26T11:41:17Z</time>
      </trkpt>
      <trkpt lat="45.21422" lon="4.34502">
        <ele>794</ele>
        <time>2019-02-26T11:42:17Z</time>
      </trkpt>
      <trkpt lat="45.21343" lon="4.34559">
        <ele>802</ele>
        <time>2019-02-26T11:43:17Z</time>
      </trkpt>
      <trkpt lat="45.21278" lon="4.34609">
        <ele>808</ele>
        <time>2019-02-26T11:44:17Z</time>
      </trkpt>
      <trkpt lat="45.21261" lon="4.34633">
        <ele>809</ele>
        <time>2019-02-26T11:45:17Z</time>
      </trkpt>
      <trkpt lat="45.21202" lon="4.34813">
        <ele>800</ele>
        <time>2019-02-26T11:46:17Z</time>
      </trkpt>
      <trkpt lat="45.21172" lon="4.34897">
        <ele>795</ele>
        <time>2019-02-26T11:47:17Z</time>
      </trkpt>
      <trkpt lat="45.21153" lon="4.34935">
        <ele>793</ele>
        <time>2019-02-26T11:48:17Z</time>
      </trkpt>
      <trkpt lat="45.21132" lon="4.34962">
        <ele>792</ele>
        <time>2019-02-26T11:49:17Z</time>
      </trkpt>
      <trkpt lat="45.21128" lon="4.34991">
        <ele>790</ele>
        <time>2019-02-26T11:50:17Z</time>
      </trkpt>
      <trkpt lat="45.21119" lon="4.35013">
        <ele>790</ele>
        <time>2019-02-26T11:51:17Z</time>
      </trkpt>
      <trkpt lat="45.21097" lon="4.35047">
        <ele>789</ele>
        <time>2019-02-26T11:52:17Z</time>
      </trkpt>
      <trkpt lat="45.21059" lon="4.35133">
        <ele>788</ele>
        <time>2019-02-26T11:53:17Z</time>
      </trkpt>
      <trkpt lat="45.21035" lon="4.35203">
        <ele>789</ele>
        <time>2019-02-26T11:54:17Z</time>
      </trkpt>
      <trkpt lat="45.21018" lon="4.35285">
        <ele>792</ele>
        <time>2019-02-26T11:55:17Z</time>
      </trkpt>
      <trkpt lat="45.20979" lon="4.35407">
        <ele>792</ele>
        <time>2019-02-26T11:56:17Z</time>
      </trkpt>
      <trkpt lat="45.20942" lon="4.35467">
        <ele>793</ele>
        <time>2019-02-26T11:57:17Z</time>
      </trkpt>
      <trkpt lat="45.20891" lon="4.35533">
        <ele>794</ele>
        <time>2019-02-26T11:58:17Z</time>
      </trkpt>
      <trkpt lat="45.20857" lon="4.35581">
        <ele>793</ele>
        <time>2019-02-26T11:59:17Z</time>
      </trkpt>
      <trkpt lat="45.20823" lon="4.35659">
        <ele>792</ele>
        <time>2019-02-26T12:00:17Z</time>
      </trkpt>
      <trkpt lat="45.20807" lon="4.35718">
        <ele>795</ele>
        <time>2019-02-26T12:01:17Z</time>
      </trkpt>
      <trkpt lat="45.208" lon="4.35787">
        <ele>796</ele>
        <time>2019-02-26T12:02:17Z</time>
      </trkpt>
      <trkpt lat="45.20799" lon="4.3585">
        <ele>797</ele>
        <time>2019-02-26T12:03:17Z</time>
      </trkpt>
      <trkpt lat="45.20807" lon="4.35921">
        <ele>798</ele>
        <time>2019-02-26T12:04:17Z</time>
      </trkpt>
      <trkpt lat="45.20831" lon="4.36">
        <ele>801</ele>
        <time>2019-02-26T12:05:17Z</time>
      </trkpt>
      <trkpt lat="45.20853" lon="4.36088">
        <ele>802</ele>
        <time>2019-02-26T12:06:17Z</time>
      </trkpt>
      <trkpt lat="45.2086" lon="4.36154">
        <ele>801</ele>
        <time>2019-02-26T12:07:17Z</time>
      </trkpt>
      <trkpt lat="45.20857" lon="4.36239">
        <ele>798</ele>
        <time>2019-02-26T12:08:17Z</time>
      </trkpt>
      <trkpt lat="45.20854" lon="4.36263">
        <ele>797</ele>
        <time>2019-02-26T12:09:17Z</time>
      </trkpt>
      <trkpt lat="45.20865" lon="4.36409">
        <ele>788</ele>
        <time>2019-02-26T12:10:17Z</time>
      </trkpt>
      <trkpt lat="45.20894" lon="4.3658">
        <ele>789</ele>
        <time>2019-02-26T12:11:17Z</time>
      </trkpt>
      <trkpt lat="45.20888" lon="4.36662">
        <ele>794</ele>
        <time>2019-02-26T12:12:17Z</time>
      </trkpt>
      <trkpt lat="45.20877" lon="4.36743">
        <ele>797</ele>
        <time>2019-02-26T12:13:17Z</time>
      </trkpt>
      <trkpt lat="45.20845" lon="4.36818">
        <ele>797</ele>
        <time>2019-02-26T12:14:17Z</time>
      </trkpt>
      <trkpt lat="45.20805" lon="4.36898">
        <ele>799</ele>
        <time>2019-02-26T12:15:17Z</time>
      </trkpt>
      <trkpt lat="45.20777" lon="4.36965">
        <ele>800</ele>
        <time>2019-02-26T12:16:17Z</time>
      </trkpt>
      <trkpt lat="45.20766" lon="4.3702">
        <ele>804</ele>
        <time>2019-02-26T12:17:17Z</time>
      </trkpt>
      <trkpt lat="45.20756" lon="4.371">
        <ele>807</ele>
        <time>2019-02-26T12:18:17Z</time>
      </trkpt>
      <trkpt lat="45.20755" lon="4.3717">
        <ele>806</ele>
        <time>2019-02-26T12:19:17Z</time>
      </trkpt>
      <trkpt lat="45.20765" lon="4.37236">
        <ele>803</ele>
        <time>2019-02-26T12:20:17Z</time>
      </trkpt>
      <trkpt lat="45.20784" lon="4.37288">
        <ele>805</ele>
        <time>2019-02-26T12:21:17Z</time>
      </trkpt>
      <trkpt lat="45.20813" lon="4.37361">
        <ele>810</ele>
        <time>2019-02-26T12:22:17Z</time>
      </trkpt>
      <trkpt lat="45.20842" lon="4.37404">
        <ele>815</ele>
        <time>2019-02-26T12:23:17Z</time>
      </trkpt>
      <trkpt lat="45.20892" lon="4.37455">
        <ele>819</ele>
        <time>2019-02-26T12:24:17Z</time>
      </trkpt>
      <trkpt lat="45.20943" lon="4.37484">
        <ele>819</ele>
        <time>2019-02-26T12:25:17Z</time>
      </trkpt>
      <trkpt lat="45.21022" lon="4.37516">
        <ele>816</ele>
        <time>2019-02-26T12:26:17Z</time>
      </trkpt>
      <trkpt lat="45.21085" lon="4.3757">
        <ele>816</ele>
        <time>2019-02-26T12:27:17Z</time>
      </trkpt>
      <trkpt lat="45.21202" lon="4.3768">
        <ele>817</ele>
        <time>2019-02-26T12:28:17Z</time>
      </trkpt>
      <trkpt lat="45.21259" lon="4.37785">
        <ele>812</ele>
        <time>2019-02-26T12:29:17Z</time>
      </trkpt>
      <trkpt lat="45.213" lon="4.37911">
        <ele>817</ele>
        <time>2019-02-26T12:30:17Z</time>
      </trkpt>
      <trkpt lat="45.21344" lon="4.38047">
        <ele>817</ele>
        <time>2019-02-26T12:31:17Z</time>
      </trkpt>
      <trkpt lat="45.2139" lon="4.38146">
        <ele>811</ele>
        <time>2019-02-26T12:32:17Z</time>
      </trkpt>
      <trkpt lat="45.21458" lon="4.38284">
        <ele>821</ele>
        <time>2019-02-26T12:33:17Z</time>
      </trkpt>
      <trkpt lat="45.21473" lon="4.38277">
        <ele>819</ele>
        <time>2019-02-26T12:34:17Z</time>
      </trkpt>
      <trkpt lat="45.21491" lon="4.38294">
        <ele>823</ele>
        <time>2019-02-26T12:35:17Z</time>
      </trkpt>
      <trkpt lat="45.21537" lon="4.38313">
        <ele>820</ele>
        <time>2019-02-26T12:36:17Z</time>
      </trkpt>
      <trkpt lat="45.21562" lon="4.38326">
        <ele>816</ele>
        <time>2019-02-26T12:37:17Z</time>
      </trkpt>
      <trkpt lat="45.21557" lon="4.38366">
        <ele>821</ele>
        <time>2019-02-26T12:38:17Z</time>
      </trkpt>
      <trkpt lat="45.21547" lon="4.38403">
        <ele>827</ele>
        <time>2019-02-26T12:39:17Z</time>
      </trkpt>
      <trkpt lat="45.21545" lon="4.38451">
        <ele>830</ele>
        <time>2019-02-26T12:40:17Z</time>
      </trkpt>
      <trkpt lat="45.21529" lon="4.38493">
        <ele>838</ele>
        <time>2019-02-26T12:41:17Z</time>
      </trkpt>
      <trkpt lat="45.21535" lon="4.38601">
        <ele>835</ele>
        <time>2019-02-26T12:42:17Z</time>
      </trkpt>
      <trkpt lat="45.21546" lon="4.38736">
        <ele>841</ele>
        <time>2019-02-26T12:43:17Z</time>
      </trkpt>
      <trkpt lat="45.21573" lon="4.38835">
        <ele>837</ele>
        <time>2019-02-26T12:44:17Z</time>
      </trkpt>
      <trkpt lat="45.2163" lon="4.38972">
        <ele>848</ele>
        <time>2019-02-26T12:45:17Z</time>
      </trkpt>
      <trkpt lat="45.21658" lon="4.39067">
        <ele>851</ele>
        <time>2019-02-26T12:46:17Z</time>
      </trkpt>
      <trkpt lat="45.21678" lon="4.39248">
        <ele>852</ele>
        <time>2019-02-26T12:47:17Z</time>
      </trkpt>
      <trkpt lat="45.21705" lon="4.39373">
        <ele>850</ele>
        <time>2019-02-26T12:48:17Z</time>
      </trkpt>
      <trkpt lat="45.21745" lon="4.3946">
        <ele>850</ele>
        <time>2019-02-26T12:49:17Z</time>
      </trkpt>
      <trkpt lat="45.21819" lon="4.39604">
        <ele>854</ele>
        <time>2019-02-26T12:50:17Z</time>
      </trkpt>
      <trkpt lat="45.21883" lon="4.39712">
        <ele>849</ele>
        <time>2019-02-26T12:51:17Z</time>
      </trkpt>
      <trkpt lat="45.21945" lon="4.39767">
        <ele>852</ele>
        <time>2019-02-26T12:52:17Z</time>
      </trkpt>
      <trkpt lat="45.22201" lon="4.39876">
        <ele>851</ele>
        <time>2019-02-26T12:53:17Z</time>
      </trkpt>
      <trkpt lat="45.22269" lon="4.39915">
        <ele>853</ele>
        <time>2019-02-26T12:54:17Z</time>
      </trkpt>
      <trkpt lat="45.22357" lon="4.39998">
        <ele>856</ele>
        <time>2019-02-26T12:55:17Z</time>
      </trkpt>
      <trkpt lat="45.22433" lon="4.40069">
        <ele>859</ele>
        <time>2019-02-26T12:56:17Z</time>
      </trkpt>
      <trkpt lat="45.22492" lon="4.40099">
        <ele>858</ele>
        <time>2019-02-26T12:57:17Z</time>
      </trkpt>
      <trkpt lat="45.2254" lon="4.40114">
        <ele>859</ele>
        <time>2019-02-26T12:58:17Z</time>
      </trkpt>
      <trkpt lat="45.22632" lon="4.40116">
        <ele>857</ele>
        <time>2019-02-26T12:59:17Z</time>
      </trkpt>
      <trkpt lat="45.22761" lon="4.40155">
        <ele>862</ele>
        <time>2019-02-26T13:00:17Z</time>
      </trkpt>
      <trkpt lat="45.2287" lon="4.40234">
        <ele>865</ele>
        <time>2019-02-26T13:01:17Z</time>
      </trkpt>
      <trkpt lat="45.22945" lon="4.40297">
        <ele>858</ele>
        <time>2019-02-26T13:02:17Z</time>
      </trkpt>
      <trkpt lat="45.23088" lon="4.40422">
        <ele>859</ele>
        <time>2019-02-26T13:03:17Z</time>
      </trkpt>
      <trkpt lat="45.23134" lon="4.40458">
        <ele>862</ele>
        <time>2019-02-26T13:04:17Z</time>
      </trkpt>
      <trkpt lat="45.23217" lon="4.40564">
        <ele>865</ele>
        <time>2019-02-26T13:05:17Z</time>
      </trkpt>
      <trkpt lat="45.23314" lon="4.40692">
        <ele>865</ele>
        <time>2019-02-26T13:06:17Z</time>
      </trkpt>
      <trkpt lat="45.23385" lon="4.40795">
        <ele>869</ele>
        <time>2019-02-26T13:07:17Z</time>
      </trkpt>
      <trkpt lat="45.23455" lon="4.40904">
        <ele>874</ele>
        <time>2019-02-26T13:08:17Z</time>
      </trkpt>
      <trkpt lat="45.23523" lon="4.41095">
        <ele>876</ele>
        <time>2019-02-26T13:09:17Z</time>
      </trkpt>
      <trkpt lat="45.2364" lon="4.41496">
        <ele>879</ele>
        <time>2019-02-26T13:10:17Z</time>
      </trkpt>
      <trkpt lat="45.23752" lon="4.4188">
        <ele>881</ele>
        <time>2019-02-26T13:11:17Z</time>
      </trkpt>
      <trkpt lat="45.23837" lon="4.42115">
        <ele>885</ele>
        <time>2019-02-26T13:12:17Z</time>
      </trkpt>
      <trkpt lat="45.23968" lon="4.42402">
        <ele>889</ele>
        <time>2019-02-26T13:13:17Z</time>
      </trkpt>
      <trkpt lat="45.24055" lon="4.42595">
        <ele>895</ele>
        <time>2019-02-26T13:14:17Z</time>
      </trkpt>
      <trkpt lat="45.24082" lon="4.42729">
        <ele>896</ele>
        <time>2019-02-26T13:15:17Z</time>
      </trkpt>
      <trkpt lat="45.24089" lon="4.42884">
        <ele>899</ele>
        <time>2019-02-26T13:16:17Z</time>
      </trkpt>
      <trkpt lat="45.24112" lon="4.43087">
        <ele>909</ele>
        <time>2019-02-26T13:17:17Z</time>
      </trkpt>
      <trkpt lat="45.24127" lon="4.43145">
        <ele>911</ele>
        <time>2019-02-26T13:18:17Z</time>
      </trkpt>
      <trkpt lat="45.24165" lon="4.43225">
        <ele>906</ele>
        <time>2019-02-26T13:19:17Z</time>
      </trkpt>
      <trkpt lat="45.24214" lon="4.4329">
        <ele>906</ele>
        <time>2019-02-26T13:20:17Z</time>
      </trkpt>
      <trkpt lat="45.24282" lon="4.43341">
        <ele>906</ele>
        <time>2019-02-26T13:21:17Z</time>
      </trkpt>
      <trkpt lat="45.24363" lon="4.43379">
        <ele>908</ele>
        <time>2019-02-26T13:22:17Z</time>
      </trkpt>
      <trkpt lat="45.24424" lon="4.43415">
        <ele>908</ele>
        <time>2019-02-26T13:23:17Z</time>
      </trkpt>
      <trkpt lat="45.24509" lon="4.43509">
        <ele>906</ele>
        <time>2019-02-26T13:24:17Z</time>
      </trkpt>
      <trkpt lat="45.2465" lon="4.43679">
        <ele>915</ele>
        <time>2019-02-26T13:25:17Z</time>
      </trkpt>
      <trkpt lat="45.24654" lon="4.43685">
        <ele>915</ele>
        <time>2019-02-26T13:26:17Z</time>
      </trkpt>
      <trkpt lat="45.2466" lon="4.43708">
        <ele>917</ele>
        <time>2019-02-26T13:27:17Z</time>
      </trkpt>
      <trkpt lat="45.24677" lon="4.43747">
        <ele>919</ele>
        <time>2019-02-26T13:28:17Z</time>
      </trkpt>
      <trkpt lat="45.24692" lon="4.43833">
        <ele>926</ele>
        <time>2019-02-26T13:29:17Z</time>
      </trkpt>
      <trkpt lat="45.247" lon="4.43902">
        <ele>930</ele>
        <time>2019-02-26T13:30:17Z</time>
      </trkpt>
      <trkpt lat="45.24703" lon="4.43938">
        <ele>933</ele>
        <time>2019-02-26T13:31:17Z</time>
      </trkpt>
      <trkpt lat="45.24708" lon="4.43959">
        <ele>933</ele>
        <time>2019-02-26T13:32:17Z</time>
      </trkpt>
      <trkpt lat="45.24715" lon="4.43977">
        <ele>933</ele>
        <time>2019-02-26T13:33:17Z</time>
      </trkpt>
      <trkpt lat="45.24739" lon="4.44043">
        <ele>932</ele>
        <time>2019-02-26T13:34:17Z</time>
      </trkpt>
      <trkpt lat="45.24743" lon="4.44064">
        <ele>933</ele>
        <time>2019-02-26T13:35:17Z</time>
      </trkpt>
      <trkpt lat="45.24744" lon="4.44084">
        <ele>934</ele>
        <time>2019-02-26T13:36:17Z</time>
      </trkpt>
      <trkpt lat="45.24743" lon="4.44105">
        <ele>936</ele>
        <time>2019-02-26T13:37:17Z</time>
      </trkpt>
      <trkpt lat="45.24744" lon="4.44114">
        <ele>936</ele>
        <time>2019-02-26T13:38:17Z</time>
      </trkpt>
      <trkpt lat="45.24748" lon="4.44123">
        <ele>936</ele>
        <time>2019-02-26T13:39:17Z</time>
      </trkpt>
      <trkpt lat="45.24762" lon="4.44141">
        <ele>935</ele>
        <time>2019-02-26T13:40:17Z</time>
      </trkpt>
      <trkpt lat="45.24815" lon="4.44243">
        <ele>939</ele>
        <time>2019-02-26T13:41:17Z</time>
      </trkpt>
      <trkpt lat="45.24854" lon="4.44304">
        <ele>939</ele>
        <time>2019-02-26T13:42:17Z</time>
      </trkpt>
      <trkpt lat="45.24891" lon="4.44342">
        <ele>938</ele>
        <time>2019-02-26T13:43:17Z</time>
      </trkpt>
      <trkpt lat="45.24909" lon="4.4437">
        <ele>939</ele>
        <time>2019-02-26T13:44:17Z</time>
      </trkpt>
      <trkpt lat="45.24918" lon="4.44393">
        <ele>941</ele>
        <time>2019-02-26T13:45:17Z</time>
      </trkpt>
      <trkpt lat="45.24926" lon="4.44426">
        <ele>945</ele>
        <time>2019-02-26T13:46:17Z</time>
      </trkpt>
      <trkpt lat="45.24943" lon="4.44477">
        <ele>948</ele>
        <time>2019-02-26T13:47:17Z</time>
      </trkpt>
      <trkpt lat="45.24985" lon="4.44645">
        <ele>952</ele>
        <time>2019-02-26T13:48:17Z</time>
      </trkpt>
      <trkpt lat="45.25022" lon="4.44699">
        <ele>953</ele>
        <time>2019-02-26T13:49:17Z</time>
      </trkpt>
      <trkpt lat="45.25026" lon="4.44705">
        <ele>953</ele>
        <time>2019-02-26T13:50:17Z</time>
      </trkpt>
      <trkpt lat="45.25043" lon="4.44781">
        <ele>955</ele>
        <time>2019-02-26T13:51:17Z</time>
      </trkpt>
      <trkpt lat="45.25056" lon="4.4482">
        <ele>955</ele>
        <time>2019-02-26T13:52:17Z</time>
      </trkpt>
      <trkpt lat="45.25059" lon="4.44826">
        <ele>955</ele>
        <time>2019-02-26T13:53:17Z</time>
      </trkpt>
      <trkpt lat="45.25072" lon="4.44833">
        <ele>955</ele>
        <time>2019-02-26T13:54:17Z</time>
      </trkpt>
      <trkpt lat="45.25078" lon="4.44837">
        <ele>955</ele>
        <time>2019-02-26T13:55:17Z</time>
      </trkpt>
      <trkpt lat="45.25092" lon="4.44913">
        <ele>961</ele>
        <time>2019-02-26T13:56:17Z</time>
      </trkpt>
      <trkpt lat="45.25097" lon="4.44938">
        <ele>964</ele>
        <time>2019-02-26T13:57:17Z</time>
      </trkpt>
      <trkpt lat="45.25111" lon="4.44985">
        <ele>969</ele>
        <time>2019-02-26T13:58:17Z</time>
      </trkpt>
      <trkpt lat="45.25121" lon="4.4501">
        <ele>971</ele>
        <time>2019-02-26T13:59:17Z</time>
      </trkpt>
      <trkpt lat="45.25132" lon="4.45028">
        <ele>973</ele>
        <time>2019-02-26T14:00:17Z</time>
      </trkpt>
      <trkpt lat="45.25141" lon="4.45039">
        <ele>974</ele>
        <time>2019-02-26T14:01:17Z</time>
      </trkpt>
      <trkpt lat="45.25166" lon="4.45078">
        <ele>974</ele>
        <time>2019-02-26T14:02:17Z</time>
      </trkpt>
      <trkpt lat="45.25176" lon="4.45109">
        <ele>978</ele>
        <time>2019-02-26T14:03:17Z</time>
      </trkpt>
      <trkpt lat="45.252" lon="4.45207">
        <ele>987</ele>
        <time>2019-02-26T14:04:17Z</time>
      </trkpt>
      <trkpt lat="45.25217" lon="4.45253">
        <ele>990</ele>
        <time>2019-02-26T14:05:17Z</time>
      </trkpt>
      <trkpt lat="45.25227" lon="4.45296">
        <ele>992</ele>
        <time>2019-02-26T14:06:17Z</time>
      </trkpt>
      <trkpt lat="45.2523" lon="4.45308">
        <ele>993</ele>
        <time>2019-02-26T14:07:17Z</time>
      </trkpt>
      <trkpt lat="45.2523" lon="4.45325">
        <ele>994</ele>
        <time>2019-02-26T14:08:17Z</time>
      </trkpt>
      <trkpt lat="45.25241" lon="4.45361">
        <ele>995</ele>
        <time>2019-02-26T14:09:17Z</time>
      </trkpt>
      <trkpt lat="45.25285" lon="4.45437">
        <ele>1004</ele>
        <time>2019-02-26T14:10:17Z</time>
      </trkpt>
      <trkpt lat="45.25305" lon="4.45476">
        <ele>1006</ele>
        <time>2019-02-26T14:11:17Z</time>
      </trkpt>
      <trkpt lat="45.25312" lon="4.4549">
        <ele>1006</ele>
        <time>2019-02-26T14:12:17Z</time>
      </trkpt>
      <trkpt lat="45.25311" lon="4.45502">
        <ele>1005</ele>
        <time>2019-02-26T14:13:17Z</time>
      </trkpt>
      <trkpt lat="45.25309" lon="4.45515">
        <ele>1006</ele>
        <time>2019-02-26T14:14:17Z</time>
      </trkpt>
      <trkpt lat="45.25309" lon="4.45531">
        <ele>1008</ele>
        <time>2019-02-26T14:15:17Z</time>
      </trkpt>
      <trkpt lat="45.25302" lon="4.4554">
        <ele>1009</ele>
        <time>2019-02-26T14:16:17Z</time>
      </trkpt>
      <trkpt lat="45.25295" lon="4.45562">
        <ele>1012</ele>
        <time>2019-02-26T14:17:17Z</time>
      </trkpt>
      <trkpt lat="45.25287" lon="4.45567">
        <ele>1013</ele>
        <time>2019-02-26T14:18:17Z</time>
      </trkpt>
      <trkpt lat="45.25273" lon="4.4558">
        <ele>1015</ele>
        <time>2019-02-26T14:19:17Z</time>
      </trkpt>
      <trkpt lat="45.25269" lon="4.45582">
        <ele>1015</ele>
        <time>2019-02-26T14:20:17Z</time>
      </trkpt>
      <trkpt lat="45.25264" lon="4.4559">
        <ele>1017</ele>
        <time>2019-02-26T14:21:17Z</time>
      </trkpt>
      <trkpt lat="45.2527" lon="4.45598">
        <ele>1019</ele>
        <time>2019-02-26T14:22:17Z</time>
      </trkpt>
      <trkpt lat="45.2529" lon="4.45633">
        <ele>1024</ele>
        <time>2019-02-26T14:23:17Z</time>
      </trkpt>
      <trkpt lat="45.25314" lon="4.45694">
        <ele>1028</ele>
        <time>2019-02-26T14:24:17Z</time>
      </trkpt>
      <trkpt lat="45.2532" lon="4.45705">
        <ele>1027</ele>
        <time>2019-02-26T14:25:17Z</time>
      </trkpt>
      <trkpt lat="45.25325" lon="4.45709">
        <ele>1026</ele>
        <time>2019-02-26T14:26:17Z</time>
      </trkpt>
      <trkpt lat="45.25329" lon="4.4571">
        <ele>1026</ele>
        <time>2019-02-26T14:27:17Z</time>
      </trkpt>
      <trkpt lat="45.25328" lon="4.45721">
        <ele>1027</ele>
        <time>2019-02-26T14:28:17Z</time>
      </trkpt>
      <trkpt lat="45.25329" lon="4.45737">
        <ele>1027</ele>
        <time>2019-02-26T14:29:17Z</time>
      </trkpt>
      <trkpt lat="45.25331" lon="4.45749">
        <ele>1028</ele>
        <time>2019-02-26T14:30:17Z</time>
      </trkpt>
      <trkpt lat="45.25333" lon="4.4576">
        <ele>1027</ele>
        <time>2019-02-26T14:31:17Z</time>
      </trkpt>
      <trkpt lat="45.25337" lon="4.45773">
        <ele>1027</ele>
        <time>2019-02-26T14:32:17Z</time>
      </trkpt>
      <trkpt lat="45.25343" lon="4.45786">
        <ele>1028</ele>
        <time>2019-02-26T14:33:17Z</time>
      </trkpt>
      <trkpt lat="45.25357" lon="4.45809">
        <ele>1028</ele>
        <time>2019-02-26T14:34:17Z</time>
      </trkpt>
      <trkpt lat="45.25363" lon="4.45819">
        <ele>1028</ele>
        <time>2019-02-26T14:35:17Z</time>
      </trkpt>
      <trkpt lat="45.25429" lon="4.45888">
        <ele>1018</ele>
        <time>2019-02-26T14:36:17Z</time>
      </trkpt>
      <trkpt lat="45.25443" lon="4.45901">
        <ele>1017</ele>
        <time>2019-02-26T14:37:17Z</time>
      </trkpt>
      <trkpt lat="45.25456" lon="4.45915">
        <ele>1016</ele>
        <time>2019-02-26T14:38:17Z</time>
      </trkpt>
      <trkpt lat="45.25469" lon="4.4593">
        <ele>1015</ele>
        <time>2019-02-26T14:39:17Z</time>
      </trkpt>
      <trkpt lat="45.25481" lon="4.45944">
        <ele>1015</ele>
        <time>2019-02-26T14:40:17Z</time>
      </trkpt>
      <trkpt lat="45.25492" lon="4.45961">
        <ele>1014</ele>
        <time>2019-02-26T14:41:17Z</time>
      </trkpt>
      <trkpt lat="45.25502" lon="4.4598">
        <ele>1013</ele>
        <time>2019-02-26T14:42:17Z</time>
      </trkpt>
      <trkpt lat="45.25528" lon="4.46041">
        <ele>1008</ele>
        <time>2019-02-26T14:43:17Z</time>
      </trkpt>
      <trkpt lat="45.25537" lon="4.4606">
        <ele>1006</ele>
        <time>2019-02-26T14:44:17Z</time>
      </trkpt>
      <trkpt lat="45.25543" lon="4.46073">
        <ele>1004</ele>
        <time>2019-02-26T14:45:17Z</time>
      </trkpt>
      <trkpt lat="45.25577" lon="4.46134">
        <ele>1001</ele>
        <time>2019-02-26T14:46:17Z</time>
      </trkpt>
      <trkpt lat="45.25586" lon="4.46154">
        <ele>1000</ele>
        <time>2019-02-26T14:47:17Z</time>
      </trkpt>
      <trkpt lat="45.25594" lon="4.46174">
        <ele>999</ele>
        <time>2019-02-26T14:48:17Z</time>
      </trkpt>
      <trkpt lat="45.25613" lon="4.46233">
        <ele>995</ele>
        <time>2019-02-26T14:49:17Z</time>
      </trkpt>
      <trkpt lat="45.25619" lon="4.46252">
        <ele>994</ele>
        <time>2019-02-26T14:50:17Z</time>
      </trkpt>
      <trkpt lat="45.25626" lon="4.4627">
        <ele>991</ele>
        <time>2019-02-26T14:51:17Z</time>
      </trkpt>
      <trkpt lat="45.25635" lon="4.46287">
        <ele>990</ele>
        <time>2019-02-26T14:52:17Z</time>
      </trkpt>
      <trkpt lat="45.25644" lon="4.46302">
        <ele>988</ele>
        <time>2019-02-26T14:53:17Z</time>
      </trkpt>
      <trkpt lat="45.25655" lon="4.46316">
        <ele>988</ele>
        <time>2019-02-26T14:54:17Z</time>
      </trkpt>
      <trkpt lat="45.25666" lon="4.46328">
        <ele>988</ele>
        <time>2019-02-26T14:55:17Z</time>
      </trkpt>
      <trkpt lat="45.25678" lon="4.46339">
        <ele>988</ele>
        <time>2019-02-26T14:56:17Z</time>
      </trkpt>
      <trkpt lat="45.25717" lon="4.46367">
        <ele>989</ele>
        <time>2019-02-26T14:57:17Z</time>
      </trkpt>
      <trkpt lat="45.25729" lon="4.46378">
        <ele>989</ele>
        <time>2019-02-26T14:58:17Z</time>
      </trkpt>
      <trkpt lat="45.25741" lon="4.4639">
        <ele>989</ele>
        <time>2019-02-26T14:59:17Z</time>
      </trkpt>
      <trkpt lat="45.25751" lon="4.46405">
        <ele>989</ele>
        <time>2019-02-26T15:00:17Z</time>
      </trkpt>
      <trkpt lat="45.2576" lon="4.46421">
        <ele>989</ele>
        <time>2019-02-26T15:01:17Z</time>
      </trkpt>
      <trkpt lat="45.25795" lon="4.46487">
        <ele>983</ele>
        <time>2019-02-26T15:02:17Z</time>
      </trkpt>
      <trkpt lat="45.25803" lon="4.46504">
        <ele>981</ele>
        <time>2019-02-26T15:03:17Z</time>
      </trkpt>
      <trkpt lat="45.25811" lon="4.46521">
        <ele>979</ele>
        <time>2019-02-26T15:04:17Z</time>
      </trkpt>
      <trkpt lat="45.25818" lon="4.46539">
        <ele>977</ele>
        <time>2019-02-26T15:05:17Z</time>
      </trkpt>
      <trkpt lat="45.25823" lon="4.46559">
        <ele>974</ele>
        <time>2019-02-26T15:06:17Z</time>
      </trkpt>
      <trkpt lat="45.25825" lon="4.46579">
        <ele>971</ele>
        <time>2019-02-26T15:07:17Z</time>
      </trkpt>
      <trkpt lat="45.25826" lon="4.46599">
        <ele>969</ele>
        <time>2019-02-26T15:08:17Z</time>
      </trkpt>
      <trkpt lat="45.25826" lon="4.46618">
        <ele>967</ele>
        <time>2019-02-26T15:09:17Z</time>
      </trkpt>
      <trkpt lat="45.25826" lon="4.46648">
        <ele>965</ele>
        <time>2019-02-26T15:10:17Z</time>
      </trkpt>
      <trkpt lat="45.25824" lon="4.46691">
        <ele>960</ele>
        <time>2019-02-26T15:11:17Z</time>
      </trkpt>
      <trkpt lat="45.25824" lon="4.46698">
        <ele>960</ele>
        <time>2019-02-26T15:12:17Z</time>
      </trkpt>
      <trkpt lat="45.25826" lon="4.46716">
        <ele>959</ele>
        <time>2019-02-26T15:13:17Z</time>
      </trkpt>
      <trkpt lat="45.25827" lon="4.46727">
        <ele>958</ele>
        <time>2019-02-26T15:14:17Z</time>
      </trkpt>
      <trkpt lat="45.25829" lon="4.46734">
        <ele>958</ele>
        <time>2019-02-26T15:15:17Z</time>
      </trkpt>
      <trkpt lat="45.25834" lon="4.46748">
        <ele>958</ele>
        <time>2019-02-26T15:16:17Z</time>
      </trkpt>
      <trkpt lat="45.2584" lon="4.46763">
        <ele>957</ele>
        <time>2019-02-26T15:17:17Z</time>
      </trkpt>
      <trkpt lat="45.25852" lon="4.46789">
        <ele>955</ele>
        <time>2019-02-26T15:18:17Z</time>
      </trkpt>
      <trkpt lat="45.2587" lon="4.46819">
        <ele>953</ele>
        <time>2019-02-26T15:19:17Z</time>
      </trkpt>
      <trkpt lat="45.25882" lon="4.46837">
        <ele>952</ele>
        <time>2019-02-26T15:20:17Z</time>
      </trkpt>
      <trkpt lat="45.25886" lon="4.46843">
        <ele>951</ele>
        <time>2019-02-26T15:21:17Z</time>
      </trkpt>
      <trkpt lat="45.25895" lon="4.46848">
        <ele>953</ele>
        <time>2019-02-26T15:22:17Z</time>
      </trkpt>
      <trkpt lat="45.259" lon="4.4685">
        <ele>953</ele>
        <time>2019-02-26T15:23:17Z</time>
      </trkpt>
      <trkpt lat="45.25909" lon="4.46851">
        <ele>955</ele>
        <time>2019-02-26T15:24:17Z</time>
      </trkpt>
      <trkpt lat="45.2593" lon="4.4685">
        <ele>960</ele>
        <time>2019-02-26T15:25:17Z</time>
      </trkpt>
      <trkpt lat="45.25939" lon="4.46852">
        <ele>961</ele>
        <time>2019-02-26T15:26:17Z</time>
      </trkpt>
      <trkpt lat="45.25943" lon="4.46856">
        <ele>961</ele>
        <time>2019-02-26T15:27:17Z</time>
      </trkpt>
      <trkpt lat="45.25945" lon="4.46861">
        <ele>960</ele>
        <time>2019-02-26T15:28:17Z</time>
      </trkpt>
      <trkpt lat="45.25945" lon="4.46867">
        <ele>959</ele>
        <time>2019-02-26T15:29:17Z</time>
      </trkpt>
      <trkpt lat="45.25943" lon="4.46873">
        <ele>958</ele>
        <time>2019-02-26T15:30:17Z</time>
      </trkpt>
      <trkpt lat="45.2594" lon="4.46878">
        <ele>956</ele>
        <time>2019-02-26T15:31:17Z</time>
      </trkpt>
      <trkpt lat="45.25935" lon="4.46881">
        <ele>955</ele>
        <time>2019-02-26T15:32:17Z</time>
      </trkpt>
      <trkpt lat="45.25931" lon="4.46882">
        <ele>954</ele>
        <time>2019-02-26T15:33:17Z</time>
      </trkpt>
      <trkpt lat="45.25912" lon="4.46884">
        <ele>949</ele>
        <time>2019-02-26T15:34:17Z</time>
      </trkpt>
      <trkpt lat="45.25905" lon="4.46883">
        <ele>947</ele>
        <time>2019-02-26T15:35:17Z</time>
      </trkpt>
      <trkpt lat="45.25897" lon="4.46881">
        <ele>946</ele>
        <time>2019-02-26T15:36:17Z</time>
      </trkpt>
      <trkpt lat="45.25887" lon="4.46876">
        <ele>944</ele>
        <time>2019-02-26T15:37:17Z</time>
      </trkpt>
      <trkpt lat="45.25882" lon="4.46872">
        <ele>944</ele>
        <time>2019-02-26T15:38:17Z</time>
      </trkpt>
      <trkpt lat="45.25863" lon="4.4685">
        <ele>944</ele>
        <time>2019-02-26T15:39:17Z</time>
      </trkpt>
      <trkpt lat="45.25781" lon="4.46734">
        <ele>940</ele>
        <time>2019-02-26T15:40:17Z</time>
      </trkpt>
      <trkpt lat="45.25726" lon="4.46641">
        <ele>937</ele>
        <time>2019-02-26T15:41:17Z</time>
      </trkpt>
      <trkpt lat="45.2572" lon="4.46631">
        <ele>938</ele>
        <time>2019-02-26T15:42:17Z</time>
      </trkpt>
      <trkpt lat="45.25716" lon="4.46625">
        <ele>938</ele>
        <time>2019-02-26T15:43:17Z</time>
      </trkpt>
      <trkpt lat="45.25709" lon="4.46617">
        <ele>938</ele>
        <time>2019-02-26T15:44:17Z</time>
      </trkpt>
      <trkpt lat="45.25698" lon="4.46605">
        <ele>937</ele>
        <time>2019-02-26T15:45:17Z</time>
      </trkpt>
      <trkpt lat="45.25685" lon="4.46592">
        <ele>936</ele>
        <time>2019-02-26T15:46:17Z</time>
      </trkpt>
      <trkpt lat="45.25676" lon="4.4658">
        <ele>936</ele>
        <time>2019-02-26T15:47:17Z</time>
      </trkpt>
      <trkpt lat="45.25642" lon="4.46522">
        <ele>942</ele>
        <time>2019-02-26T15:48:17Z</time>
      </trkpt>
      <trkpt lat="45.25635" lon="4.46511">
        <ele>942</ele>
        <time>2019-02-26T15:49:17Z</time>
      </trkpt>
      <trkpt lat="45.25632" lon="4.46507">
        <ele>943</ele>
        <time>2019-02-26T15:50:17Z</time>
      </trkpt>
      <trkpt lat="45.25629" lon="4.46505">
        <ele>942</ele>
        <time>2019-02-26T15:51:17Z</time>
      </trkpt>
      <trkpt lat="45.25626" lon="4.46503">
        <ele>942</ele>
        <time>2019-02-26T15:52:17Z</time>
      </trkpt>
      <trkpt lat="45.25621" lon="4.46502">
        <ele>942</ele>
        <time>2019-02-26T15:53:17Z</time>
      </trkpt>
      <trkpt lat="45.25617" lon="4.46503">
        <ele>941</ele>
        <time>2019-02-26T15:54:17Z</time>
      </trkpt>
      <trkpt lat="45.25612" lon="4.46506">
        <ele>940</ele>
        <time>2019-02-26T15:55:17Z</time>
      </trkpt>
      <trkpt lat="45.25599" lon="4.4648">
        <ele>942</ele>
        <time>2019-02-26T15:56:17Z</time>
      </trkpt>
      <trkpt lat="45.25583" lon="4.46457">
        <ele>942</ele>
        <time>2019-02-26T15:57:17Z</time>
      </trkpt>
      <trkpt lat="45.2557" lon="4.46435">
        <ele>946</ele>
        <time>2019-02-26T15:58:17Z</time>
      </trkpt>
      <trkpt lat="45.25562" lon="4.46427">
        <ele>947</ele>
        <time>2019-02-26T15:59:17Z</time>
      </trkpt>
      <trkpt lat="45.25558" lon="4.46425">
        <ele>948</ele>
        <time>2019-02-26T16:00:17Z</time>
      </trkpt>
      <trkpt lat="45.25554" lon="4.46426">
        <ele>948</ele>
        <time>2019-02-26T16:01:17Z</time>
      </trkpt>
      <trkpt lat="45.25551" lon="4.46428">
        <ele>948</ele>
        <time>2019-02-26T16:02:17Z</time>
      </trkpt>
      <trkpt lat="45.25548" lon="4.46431">
        <ele>948</ele>
        <time>2019-02-26T16:03:17Z</time>
      </trkpt>
      <trkpt lat="45.25547" lon="4.46435">
        <ele>948</ele>
        <time>2019-02-26T16:04:17Z</time>
      </trkpt>
      <trkpt lat="45.25544" lon="4.4644">
        <ele>948</ele>
        <time>2019-02-26T16:05:17Z</time>
      </trkpt>
      <trkpt lat="45.25543" lon="4.46447">
        <ele>948</ele>
        <time>2019-02-26T16:06:17Z</time>
      </trkpt>
      <trkpt lat="45.25543" lon="4.46453">
        <ele>947</ele>
        <time>2019-02-26T16:07:17Z</time>
      </trkpt>
      <trkpt lat="45.25544" lon="4.4646">
        <ele>947</ele>
        <time>2019-02-26T16:08:17Z</time>
      </trkpt>
      <trkpt lat="45.25546" lon="4.46475">
        <ele>945</ele>
        <time>2019-02-26T16:09:17Z</time>
      </trkpt>
      <trkpt lat="45.25547" lon="4.46483">
        <ele>945</ele>
        <time>2019-02-26T16:10:17Z</time>
      </trkpt>
      <trkpt lat="45.25548" lon="4.46491">
        <ele>944</ele>
        <time>2019-02-26T16:11:17Z</time>
      </trkpt>
      <trkpt lat="45.25548" lon="4.46499">
        <ele>943</ele>
        <time>2019-02-26T16:12:17Z</time>
      </trkpt>
      <trkpt lat="45.25546" lon="4.46515">
        <ele>944</ele>
        <time>2019-02-26T16:13:17Z</time>
      </trkpt>
      <trkpt lat="45.25545" lon="4.46521">
        <ele>944</ele>
        <time>2019-02-26T16:14:17Z</time>
      </trkpt>
      <trkpt lat="45.25543" lon="4.46528">
        <ele>944</ele>
        <time>2019-02-26T16:15:17Z</time>
      </trkpt>
      <trkpt lat="45.25542" lon="4.46535">
        <ele>944</ele>
        <time>2019-02-26T16:16:17Z</time>
      </trkpt>
      <trkpt lat="45.25538" lon="4.46568">
        <ele>945</ele>
        <time>2019-02-26T16:17:17Z</time>
      </trkpt>
      <trkpt lat="45.25536" lon="4.4659">
        <ele>946</ele>
        <time>2019-02-26T16:18:17Z</time>
      </trkpt>
      <trkpt lat="45.25537" lon="4.46616">
        <ele>948</ele>
        <time>2019-02-26T16:19:17Z</time>
      </trkpt>
      <trkpt lat="45.25539" lon="4.46624">
        <ele>948</ele>
        <time>2019-02-26T16:20:17Z</time>
      </trkpt>
      <trkpt lat="45.25543" lon="4.46633">
        <ele>947</ele>
        <time>2019-02-26T16:21:17Z</time>
      </trkpt>
      <trkpt lat="45.25552" lon="4.46647">
        <ele>945</ele>
        <time>2019-02-26T16:22:17Z</time>
      </trkpt>
      <trkpt lat="45.25558" lon="4.46656">
        <ele>944</ele>
        <time>2019-02-26T16:23:17Z</time>
      </trkpt>
      <trkpt lat="45.25564" lon="4.46669">
        <ele>943</ele>
        <time>2019-02-26T16:24:17Z</time>
      </trkpt>
      <trkpt lat="45.25572" lon="4.4669">
        <ele>940</ele>
        <time>2019-02-26T16:25:17Z</time>
      </trkpt>
      <trkpt lat="45.25575" lon="4.46699">
        <ele>940</ele>
        <time>2019-02-26T16:26:17Z</time>
      </trkpt>
      <trkpt lat="45.25575" lon="4.46708">
        <ele>940</ele>
        <time>2019-02-26T16:27:17Z</time>
      </trkpt>
      <trkpt lat="45.25576" lon="4.46717">
        <ele>940</ele>
        <time>2019-02-26T16:28:17Z</time>
      </trkpt>
      <trkpt lat="45.25575" lon="4.46724">
        <ele>940</ele>
        <time>2019-02-26T16:29:17Z</time>
      </trkpt>
      <trkpt lat="45.25574" lon="4.46732">
        <ele>941</ele>
        <time>2019-02-26T16:30:17Z</time>
      </trkpt>
      <trkpt lat="45.25569" lon="4.46753">
        <ele>944</ele>
        <time>2019-02-26T16:31:17Z</time>
      </trkpt>
      <trkpt lat="45.25567" lon="4.4676">
        <ele>946</ele>
        <time>2019-02-26T16:32:17Z</time>
      </trkpt>
      <trkpt lat="45.25561" lon="4.46778">
        <ele>951</ele>
        <time>2019-02-26T16:33:17Z</time>
      </trkpt>
      <trkpt lat="45.2556" lon="4.46784">
        <ele>953</ele>
        <time>2019-02-26T16:34:17Z</time>
      </trkpt>
      <trkpt lat="45.25565" lon="4.468">
        <ele>953</ele>
        <time>2019-02-26T16:35:17Z</time>
      </trkpt>
      <trkpt lat="45.25569" lon="4.46806">
        <ele>953</ele>
        <time>2019-02-26T16:36:17Z</time>
      </trkpt>
      <trkpt lat="45.25597" lon="4.46843">
        <ele>948</ele>
        <time>2019-02-26T16:37:17Z</time>
      </trkpt>
      <trkpt lat="45.25603" lon="4.46849">
        <ele>946</ele>
        <time>2019-02-26T16:38:17Z</time>
      </trkpt>
      <trkpt lat="45.25608" lon="4.46857">
        <ele>945</ele>
        <time>2019-02-26T16:39:17Z</time>
      </trkpt>
      <trkpt lat="45.25612" lon="4.46865">
        <ele>945</ele>
        <time>2019-02-26T16:40:17Z</time>
      </trkpt>
      <trkpt lat="45.25615" lon="4.46873">
        <ele>944</ele>
        <time>2019-02-26T16:41:17Z</time>
      </trkpt>
      <trkpt lat="45.25622" lon="4.46896">
        <ele>944</ele>
        <time>2019-02-26T16:42:17Z</time>
      </trkpt>
      <trkpt lat="45.2563" lon="4.46935">
        <ele>944</ele>
        <time>2019-02-26T16:43:17Z</time>
      </trkpt>
      <trkpt lat="45.25645" lon="4.47031">
        <ele>941</ele>
        <time>2019-02-26T16:44:17Z</time>
      </trkpt>
      <trkpt lat="45.25649" lon="4.47064">
        <ele>938</ele>
        <time>2019-02-26T16:45:17Z</time>
      </trkpt>
      <trkpt lat="45.25649" lon="4.47087">
        <ele>937</ele>
        <time>2019-02-26T16:46:17Z</time>
      </trkpt>
      <trkpt lat="45.25646" lon="4.47108">
        <ele>938</ele>
        <time>2019-02-26T16:47:17Z</time>
      </trkpt>
      <trkpt lat="45.25644" lon="4.47119">
        <ele>939</ele>
        <time>2019-02-26T16:48:17Z</time>
      </trkpt>
      <trkpt lat="45.25642" lon="4.47126">
        <ele>940</ele>
        <time>2019-02-26T16:49:17Z</time>
      </trkpt>
      <trkpt lat="45.25639" lon="4.47133">
        <ele>941</ele>
        <time>2019-02-26T16:50:17Z</time>
      </trkpt>
      <trkpt lat="45.25634" lon="4.47137">
        <ele>943</ele>
        <time>2019-02-26T16:51:17Z</time>
      </trkpt>
      <trkpt lat="45.25631" lon="4.47159">
        <ele>944</ele>
        <time>2019-02-26T16:52:17Z</time>
      </trkpt>
      <trkpt lat="45.2563" lon="4.47164">
        <ele>944</ele>
        <time>2019-02-26T16:53:17Z</time>
      </trkpt>
      <trkpt lat="45.25628" lon="4.47187">
        <ele>943</ele>
        <time>2019-02-26T16:54:17Z</time>
      </trkpt>
      <trkpt lat="45.25626" lon="4.47192">
        <ele>943</ele>
        <time>2019-02-26T16:55:17Z</time>
      </trkpt>
      <trkpt lat="45.25638" lon="4.47193">
        <ele>939</ele>
        <time>2019-02-26T16:56:17Z</time>
      </trkpt>
      <trkpt lat="45.25643" lon="4.47194">
        <ele>937</ele>
        <time>2019-02-26T16:57:17Z</time>
      </trkpt>
      <trkpt lat="45.25649" lon="4.47197">
        <ele>934</ele>
        <time>2019-02-26T16:58:17Z</time>
      </trkpt>
      <trkpt lat="45.25654" lon="4.47203">
        <ele>931</ele>
        <time>2019-02-26T16:59:17Z</time>
      </trkpt>
      <trkpt lat="45.25675" lon="4.47238">
        <ele>920</ele>
        <time>2019-02-26T17:00:17Z</time>
      </trkpt>
      <trkpt lat="45.25684" lon="4.47248">
        <ele>917</ele>
        <time>2019-02-26T17:01:17Z</time>
      </trkpt>
      <trkpt lat="45.25691" lon="4.47255">
        <ele>914</ele>
        <time>2019-02-26T17:02:17Z</time>
      </trkpt>
      <trkpt lat="45.25698" lon="4.47265">
        <ele>912</ele>
        <time>2019-02-26T17:03:17Z</time>
      </trkpt>
      <trkpt lat="45.25702" lon="4.47271">
        <ele>911</ele>
        <time>2019-02-26T17:04:17Z</time>
      </trkpt>
      <trkpt lat="45.25707" lon="4.47276">
        <ele>909</ele>
        <time>2019-02-26T17:05:17Z</time>
      </trkpt>
      <trkpt lat="45.25712" lon="4.47283">
        <ele>908</ele>
        <time>2019-02-26T17:06:17Z</time>
      </trkpt>
      <trkpt lat="45.25717" lon="4.47288">
        <ele>907</ele>
        <time>2019-02-26T17:07:17Z</time>
      </trkpt>
      <trkpt lat="45.25723" lon="4.47294">
        <ele>905</ele>
        <time>2019-02-26T17:08:17Z</time>
      </trkpt>
      <trkpt lat="45.25728" lon="4.47298">
        <ele>904</ele>
        <time>2019-02-26T17:09:17Z</time>
      </trkpt>
      <trkpt lat="45.25733" lon="4.47302">
        <ele>903</ele>
        <time>2019-02-26T17:10:17Z</time>
      </trkpt>
      <trkpt lat="45.2575" lon="4.47318">
        <ele>901</ele>
        <time>2019-02-26T17:11:17Z</time>
      </trkpt>
      <trkpt lat="45.25753" lon="4.47321">
        <ele>900</ele>
        <time>2019-02-26T17:12:17Z</time>
      </trkpt>
      <trkpt lat="45.25772" lon="4.47356">
        <ele>896</ele>
        <time>2019-02-26T17:13:17Z</time>
      </trkpt>
      <trkpt lat="45.25776" lon="4.4736">
        <ele>894</ele>
        <time>2019-02-26T17:14:17Z</time>
      </trkpt>
      <trkpt lat="45.25787" lon="4.47363">
        <ele>892</ele>
        <time>2019-02-26T17:15:17Z</time>
      </trkpt>
      <trkpt lat="45.25792" lon="4.47365">
        <ele>890</ele>
        <time>2019-02-26T17:16:17Z</time>
      </trkpt>
      <trkpt lat="45.25797" lon="4.47366">
        <ele>889</ele>
        <time>2019-02-26T17:17:17Z</time>
      </trkpt>
      <trkpt lat="45.25802" lon="4.47366">
        <ele>888</ele>
        <time>2019-02-26T17:18:17Z</time>
      </trkpt>
      <trkpt lat="45.25806" lon="4.47363">
        <ele>887</ele>
        <time>2019-02-26T17:19:17Z</time>
      </trkpt>
      <trkpt lat="45.2581" lon="4.47359">
        <ele>885</ele>
        <time>2019-02-26T17:20:17Z</time>
      </trkpt>
      <trkpt lat="45.2581" lon="4.47353">
        <ele>885</ele>
        <time>2019-02-26T17:21:17Z</time>
      </trkpt>
      <trkpt lat="45.25808" lon="4.47337">
        <ele>885</ele>
        <time>2019-02-26T17:22:17Z</time>
      </trkpt>
      <trkpt lat="45.25807" lon="4.47332">
        <ele>886</ele>
        <time>2019-02-26T17:23:17Z</time>
      </trkpt>
      <trkpt lat="45.25809" lon="4.47326">
        <ele>885</ele>
        <time>2019-02-26T17:24:17Z</time>
      </trkpt>
      <trkpt lat="45.25812" lon="4.47323">
        <ele>884</ele>
        <time>2019-02-26T17:25:17Z</time>
      </trkpt>
      <trkpt lat="45.25816" lon="4.47322">
        <ele>883</ele>
        <time>2019-02-26T17:26:17Z</time>
      </trkpt>
      <trkpt lat="45.2582" lon="4.47322">
        <ele>882</ele>
        <time>2019-02-26T17:27:17Z</time>
      </trkpt>
      <trkpt lat="45.25826" lon="4.47324">
        <ele>880</ele>
        <time>2019-02-26T17:28:17Z</time>
      </trkpt>
      <trkpt lat="45.25833" lon="4.47329">
        <ele>878</ele>
        <time>2019-02-26T17:29:17Z</time>
      </trkpt>
      <trkpt lat="45.25841" lon="4.4734">
        <ele>877</ele>
        <time>2019-02-26T17:30:17Z</time>
      </trkpt>
      <trkpt lat="45.25846" lon="4.47345">
        <ele>877</ele>
        <time>2019-02-26T17:31:17Z</time>
      </trkpt>
      <trkpt lat="45.25854" lon="4.47353">
        <ele>876</ele>
        <time>2019-02-26T17:32:17Z</time>
      </trkpt>
      <trkpt lat="45.25857" lon="4.47354">
        <ele>876</ele>
        <time>2019-02-26T17:33:17Z</time>
      </trkpt>
      <trkpt lat="45.25861" lon="4.47355">
        <ele>875</ele>
        <time>2019-02-26T17:34:17Z</time>
      </trkpt>
      <trkpt lat="45.25871" lon="4.47351">
        <ele>874</ele>
        <time>2019-02-26T17:35:17Z</time>
      </trkpt>
      <trkpt lat="45.25877" lon="4.47351">
        <ele>873</ele>
        <time>2019-02-26T17:36:17Z</time>
      </trkpt>
      <trkpt lat="45.25889" lon="4.47353">
        <ele>871</ele>
        <time>2019-02-26T17:37:17Z</time>
      </trkpt>
      <trkpt lat="45.25905" lon="4.47353">
        <ele>869</ele>
        <time>2019-02-26T17:38:17Z</time>
      </trkpt>
      <trkpt lat="45.259" lon="4.47345">
        <ele>870</ele>
        <time>2019-02-26T17:39:17Z</time>
      </trkpt>
      <trkpt lat="45.25907" lon="4.47355">
        <ele>869</ele>
        <time>2019-02-26T17:40:17Z</time>
      </trkpt>
      <trkpt lat="45.25927" lon="4.47383">
        <ele>865</ele>
        <time>2019-02-26T17:41:17Z</time>
      </trkpt>
      <trkpt lat="45.25985" lon="4.47478">
        <ele>859</ele>
        <time>2019-02-26T17:42:17Z</time>
      </trkpt>
      <trkpt lat="45.25998" lon="4.47499">
        <ele>858</ele>
        <time>2019-02-26T17:43:17Z</time>
      </trkpt>
      <trkpt lat="45.26011" lon="4.47524">
        <ele>859</ele>
        <time>2019-02-26T17:44:17Z</time>
      </trkpt>
      <trkpt lat="45.26022" lon="4.47544">
        <ele>859</ele>
        <time>2019-02-26T17:45:17Z</time>
      </trkpt>
      <trkpt lat="45.26032" lon="4.47572">
        <ele>858</ele>
        <time>2019-02-26T17:46:17Z</time>
      </trkpt>
      <trkpt lat="45.26036" lon="4.47582">
        <ele>858</ele>
        <time>2019-02-26T17:47:17Z</time>
      </trkpt>
      <trkpt lat="45.26039" lon="4.47592">
        <ele>858</ele>
        <time>2019-02-26T17:48:17Z</time>
      </trkpt>
      <trkpt lat="45.26042" lon="4.47603">
        <ele>857</ele>
        <time>2019-02-26T17:49:17Z</time>
      </trkpt>
      <trkpt lat="45.26051" lon="4.4764">
        <ele>855</ele>
        <time>2019-02-26T17:50:17Z</time>
      </trkpt>
      <trkpt lat="45.26055" lon="4.47666">
        <ele>854</ele>
        <time>2019-02-26T17:51:17Z</time>
      </trkpt>
      <trkpt lat="45.26057" lon="4.47684">
        <ele>853</ele>
        <time>2019-02-26T17:52:17Z</time>
      </trkpt>
      <trkpt lat="45.2606" lon="4.47719">
        <ele>850</ele>
        <time>2019-02-26T17:53:17Z</time>
      </trkpt>
      <trkpt lat="45.26061" lon="4.47743">
        <ele>849</ele>
        <time>2019-02-26T17:54:17Z</time>
      </trkpt>
      <trkpt lat="45.2606" lon="4.47781">
        <ele>847</ele>
        <time>2019-02-26T17:55:17Z</time>
      </trkpt>
      <trkpt lat="45.26058" lon="4.47806">
        <ele>846</ele>
        <time>2019-02-26T17:56:17Z</time>
      </trkpt>
      <trkpt lat="45.26048" lon="4.47887">
        <ele>847</ele>
        <time>2019-02-26T17:57:17Z</time>
      </trkpt>
      <trkpt lat="45.26046" lon="4.479">
        <ele>847</ele>
        <time>2019-02-26T17:58:17Z</time>
      </trkpt>
      <trkpt lat="45.26038" lon="4.47975">
        <ele>849</ele>
        <time>2019-02-26T17:59:17Z</time>
      </trkpt>
      <trkpt lat="45.26035" lon="4.48018">
        <ele>849</ele>
        <time>2019-02-26T18:00:17Z</time>
      </trkpt>
      <trkpt lat="45.26039" lon="4.481">
        <ele>842</ele>
        <time>2019-02-26T18:01:17Z</time>
      </trkpt>
      <trkpt lat="45.2604" lon="4.48111">
        <ele>842</ele>
        <time>2019-02-26T18:02:17Z</time>
      </trkpt>
      <trkpt lat="45.26046" lon="4.48148">
        <ele>839</ele>
        <time>2019-02-26T18:03:17Z</time>
      </trkpt>
      <trkpt lat="45.26049" lon="4.4817">
        <ele>838</ele>
        <time>2019-02-26T18:04:17Z</time>
      </trkpt>
      <trkpt lat="45.26053" lon="4.48184">
        <ele>839</ele>
        <time>2019-02-26T18:05:17Z</time>
      </trkpt>
      <trkpt lat="45.2607" lon="4.4824">
        <ele>839</ele>
        <time>2019-02-26T18:06:17Z</time>
      </trkpt>
      <trkpt lat="45.26125" lon="4.48376">
        <ele>833</ele>
        <time>2019-02-26T18:07:17Z</time>
      </trkpt>
      <trkpt lat="45.26133" lon="4.48396">
        <ele>831</ele>
        <time>2019-02-26T18:08:17Z</time>
      </trkpt>
      <trkpt lat="45.26151" lon="4.48441">
        <ele>828</ele>
        <time>2019-02-26T18:09:17Z</time>
      </trkpt>
      <trkpt lat="45.26165" lon="4.48482">
        <ele>828</ele>
        <time>2019-02-26T18:10:17Z</time>
      </trkpt>
      <trkpt lat="45.26175" lon="4.48512">
        <ele>827</ele>
        <time>2019-02-26T18:11:17Z</time>
      </trkpt>
      <trkpt lat="45.26198" lon="4.48598">
        <ele>823</ele>
        <time>2019-02-26T18:12:17Z</time>
      </trkpt>
      <trkpt lat="45.26207" lon="4.48639">
        <ele>820</ele>
        <time>2019-02-26T18:13:17Z</time>
      </trkpt>
      <trkpt lat="45.26215" lon="4.48691">
        <ele>818</ele>
        <time>2019-02-26T18:14:17Z</time>
      </trkpt>
      <trkpt lat="45.26217" lon="4.48707">
        <ele>817</ele>
        <time>2019-02-26T18:15:17Z</time>
      </trkpt>
      <trkpt lat="45.26218" lon="4.48725">
        <ele>817</ele>
        <time>2019-02-26T18:16:17Z</time>
      </trkpt>
      <trkpt lat="45.26228" lon="4.48811">
        <ele>820</ele>
        <time>2019-02-26T18:17:17Z</time>
      </trkpt>
      <trkpt lat="45.26245" lon="4.4899">
        <ele>829</ele>
        <time>2019-02-26T18:18:17Z</time>
      </trkpt>
      <trkpt lat="45.26246" lon="4.48993">
        <ele>829</ele>
        <time>2019-02-26T18:19:17Z</time>
      </trkpt>
      <trkpt lat="45.26249" lon="4.49036">
        <ele>826</ele>
        <time>2019-02-26T18:20:17Z</time>
      </trkpt>
      <trkpt lat="45.26256" lon="4.49116">
        <ele>819</ele>
        <time>2019-02-26T18:21:17Z</time>
      </trkpt>
      <trkpt lat="45.26258" lon="4.49125">
        <ele>818</ele>
        <time>2019-02-26T18:22:17Z</time>
      </trkpt>
      <trkpt lat="45.26262" lon="4.49165">
        <ele>814</ele>
        <time>2019-02-26T18:23:17Z</time>
      </trkpt>
      <trkpt lat="45.26271" lon="4.49218">
        <ele>812</ele>
        <time>2019-02-26T18:24:17Z</time>
      </trkpt>
      <trkpt lat="45.26276" lon="4.49241">
        <ele>811</ele>
        <time>2019-02-26T18:25:17Z</time>
      </trkpt>
      <trkpt lat="45.26288" lon="4.49281">
        <ele>812</ele>
        <time>2019-02-26T18:26:17Z</time>
      </trkpt>
      <trkpt lat="45.26292" lon="4.49291">
        <ele>812</ele>
        <time>2019-02-26T18:27:17Z</time>
      </trkpt>
      <trkpt lat="45.26302" lon="4.49314">
        <ele>813</ele>
        <time>2019-02-26T18:28:17Z</time>
      </trkpt>
      <trkpt lat="45.26333" lon="4.49376">
        <ele>819</ele>
        <time>2019-02-26T18:29:17Z</time>
      </trkpt>
      <trkpt lat="45.26345" lon="4.49397">
        <ele>819</ele>
        <time>2019-02-26T18:30:17Z</time>
      </trkpt>
      <trkpt lat="45.26361" lon="4.4942">
        <ele>818</ele>
        <time>2019-02-26T18:31:17Z</time>
      </trkpt>
      <trkpt lat="45.26374" lon="4.49434">
        <ele>816</ele>
        <time>2019-02-26T18:32:17Z</time>
      </trkpt>
      <trkpt lat="45.26385" lon="4.49445">
        <ele>815</ele>
        <time>2019-02-26T18:33:17Z</time>
      </trkpt>
      <trkpt lat="45.26412" lon="4.49475">
        <ele>814</ele>
        <time>2019-02-26T18:34:17Z</time>
      </trkpt>
      <trkpt lat="45.26432" lon="4.49496">
        <ele>812</ele>
        <time>2019-02-26T18:35:17Z</time>
      </trkpt>
      <trkpt lat="45.26476" lon="4.49549">
        <ele>807</ele>
        <time>2019-02-26T18:36:17Z</time>
      </trkpt>
      <trkpt lat="45.26516" lon="4.49596">
        <ele>803</ele>
        <time>2019-02-26T18:37:17Z</time>
      </trkpt>
      <trkpt lat="45.26567" lon="4.49652">
        <ele>800</ele>
        <time>2019-02-26T18:38:17Z</time>
      </trkpt>
      <trkpt lat="45.26572" lon="4.49657">
        <ele>799</ele>
        <time>2019-02-26T18:39:17Z</time>
      </trkpt>
      <trkpt lat="45.26597" lon="4.49693">
        <ele>799</ele>
        <time>2019-02-26T18:40:17Z</time>
      </trkpt>
      <trkpt lat="45.26606" lon="4.49707">
        <ele>799</ele>
        <time>2019-02-26T18:41:17Z</time>
      </trkpt>
      <trkpt lat="45.26626" lon="4.49741">
        <ele>799</ele>
        <time>2019-02-26T18:42:17Z</time>
      </trkpt>
      <trkpt lat="45.2664" lon="4.49769">
        <ele>799</ele>
        <time>2019-02-26T18:43:17Z</time>
      </trkpt>
      <trkpt lat="45.26693" lon="4.49875">
        <ele>795</ele>
        <time>2019-02-26T18:44:17Z</time>
      </trkpt>
      <trkpt lat="45.26702" lon="4.49896">
        <ele>795</ele>
        <time>2019-02-26T18:45:17Z</time>
      </trkpt>
      <trkpt lat="45.26713" lon="4.49921">
        <ele>794</ele>
        <time>2019-02-26T18:46:17Z</time>
      </trkpt>
      <trkpt lat="45.26723" lon="4.49952">
        <ele>793</ele>
        <time>2019-02-26T18:47:17Z</time>
      </trkpt>
      <trkpt lat="45.26728" lon="4.49968">
        <ele>793</ele>
        <time>2019-02-26T18:48:17Z</time>
      </trkpt>
      <trkpt lat="45.26746" lon="4.50054">
        <ele>793</ele>
        <time>2019-02-26T18:49:17Z</time>
      </trkpt>
      <trkpt lat="45.26746" lon="4.50061">
        <ele>794</ele>
        <time>2019-02-26T18:50:17Z</time>
      </trkpt>
      <trkpt lat="45.26748" lon="4.50076">
        <ele>794</ele>
        <time>2019-02-26T18:51:17Z</time>
      </trkpt>
      <trkpt lat="45.26751" lon="4.50091">
        <ele>793</ele>
        <time>2019-02-26T18:52:17Z</time>
      </trkpt>
      <trkpt lat="45.26763" lon="4.50167">
        <ele>787</ele>
        <time>2019-02-26T18:53:17Z</time>
      </trkpt>
      <trkpt lat="45.26777" lon="4.50229">
        <ele>785</ele>
        <time>2019-02-26T18:54:17Z</time>
      </trkpt>
      <trkpt lat="45.26798" lon="4.50286">
        <ele>785</ele>
        <time>2019-02-26T18:55:17Z</time>
      </trkpt>
      <trkpt lat="45.2681" lon="4.50316">
        <ele>786</ele>
        <time>2019-02-26T18:56:17Z</time>
      </trkpt>
      <trkpt lat="45.26823" lon="4.50339">
        <ele>786</ele>
        <time>2019-02-26T18:57:17Z</time>
      </trkpt>
      <trkpt lat="45.26831" lon="4.50355">
        <ele>786</ele>
        <time>2019-02-26T18:58:17Z</time>
      </trkpt>
      <trkpt lat="45.26855" lon="4.50392">
        <ele>786</ele>
        <time>2019-02-26T18:59:17Z</time>
      </trkpt>
      <trkpt lat="45.26861" lon="4.50402">
        <ele>786</ele>
        <time>2019-02-26T19:00:17Z</time>
      </trkpt>
      <trkpt lat="45.26868" lon="4.50413">
        <ele>786</ele>
        <time>2019-02-26T19:01:17Z</time>
      </trkpt>
      <trkpt lat="45.26876" lon="4.50424">
        <ele>786</ele>
        <time>2019-02-26T19:02:17Z</time>
      </trkpt>
      <trkpt lat="45.26905" lon="4.50456">
        <ele>786</ele>
        <time>2019-02-26T19:03:17Z</time>
      </trkpt>
      <trkpt lat="45.26914" lon="4.50466">
        <ele>786</ele>
        <time>2019-02-26T19:04:17Z</time>
      </trkpt>
      <trkpt lat="45.26934" lon="4.50485">
        <ele>784</ele>
        <time>2019-02-26T19:05:17Z</time>
      </trkpt>
      <trkpt lat="45.26946" lon="4.50496">
        <ele>784</ele>
        <time>2019-02-26T19:06:17Z</time>
      </trkpt>
      <trkpt lat="45.26968" lon="4.50518">
        <ele>784</ele>
        <time>2019-02-26T19:07:17Z</time>
      </trkpt>
      <trkpt lat="45.26998" lon="4.50548">
        <ele>785</ele>
        <time>2019-02-26T19:08:17Z</time>
      </trkpt>
      <trkpt lat="45.27016" lon="4.50568">
        <ele>786</ele>
        <time>2019-02-26T19:09:17Z</time>
      </trkpt>
      <trkpt lat="45.27024" lon="4.50577">
        <ele>786</ele>
        <time>2019-02-26T19:10:17Z</time>
      </trkpt>
      <trkpt lat="45.27043" lon="4.50606">
        <ele>788</ele>
        <time>2019-02-26T19:11:17Z</time>
      </trkpt>
      <trkpt lat="45.27049" lon="4.50615">
        <ele>788</ele>
        <time>2019-02-26T19:12:17Z</time>
      </trkpt>
      <trkpt lat="45.27065" lon="4.50644">
        <ele>790</ele>
        <time>2019-02-26T19:13:17Z</time>
      </trkpt>
      <trkpt lat="45.27066" lon="4.50646">
        <ele>790</ele>
        <time>2019-02-26T19:14:17Z</time>
      </trkpt>
      <trkpt lat="45.2707" lon="4.50656">
        <ele>790</ele>
        <time>2019-02-26T19:15:17Z</time>
      </trkpt>
      <trkpt lat="45.27073" lon="4.50665">
        <ele>791</ele>
        <time>2019-02-26T19:16:17Z</time>
      </trkpt>
      <trkpt lat="45.27079" lon="4.50675">
        <ele>791</ele>
        <time>2019-02-26T19:17:17Z</time>
      </trkpt>
      <trkpt lat="45.2709" lon="4.50701">
        <ele>789</ele>
        <time>2019-02-26T19:18:17Z</time>
      </trkpt>
      <trkpt lat="45.27107" lon="4.5075">
        <ele>786</ele>
        <time>2019-02-26T19:19:17Z</time>
      </trkpt>
      <trkpt lat="45.27118" lon="4.50784">
        <ele>785</ele>
        <time>2019-02-26T19:20:17Z</time>
      </trkpt>
      <trkpt lat="45.27202" lon="4.51076">
        <ele>770</ele>
        <time>2019-02-26T19:21:17Z</time>
      </trkpt>
      <trkpt lat="45.27205" lon="4.51086">
        <ele>770</ele>
        <time>2019-02-26T19:22:17Z</time>
      </trkpt>
      <trkpt lat="45.27218" lon="4.51136">
        <ele>770</ele>
        <time>2019-02-26T19:23:17Z</time>
      </trkpt>
      <trkpt lat="45.2722" lon="4.51144">
        <ele>770</ele>
        <time>2019-02-26T19:24:17Z</time>
      </trkpt>
      <trkpt lat="45.27227" lon="4.51183">
        <ele>771</ele>
        <time>2019-02-26T19:25:17Z</time>
      </trkpt>
      <trkpt lat="45.27228" lon="4.51193">
        <ele>771</ele>
        <time>2019-02-26T19:26:17Z</time>
      </trkpt>
      <trkpt lat="45.27231" lon="4.51224">
        <ele>771</ele>
        <time>2019-02-26T19:27:17Z</time>
      </trkpt>
      <trkpt lat="45.27232" lon="4.51234">
        <ele>771</ele>
        <time>2019-02-26T19:28:17Z</time>
      </trkpt>
      <trkpt lat="45.27232" lon="4.51257">
        <ele>772</ele>
        <time>2019-02-26T19:29:17Z</time>
      </trkpt>
      <trkpt lat="45.27232" lon="4.5128">
        <ele>772</ele>
        <time>2019-02-26T19:30:17Z</time>
      </trkpt>
      <trkpt lat="45.27227" lon="4.51386">
        <ele>769</ele>
        <time>2019-02-26T19:31:17Z</time>
      </trkpt>
      <trkpt lat="45.27225" lon="4.51402">
        <ele>768</ele>
        <time>2019-02-26T19:32:17Z</time>
      </trkpt>
      <trkpt lat="45.27225" lon="4.51414">
        <ele>768</ele>
        <time>2019-02-26T19:33:17Z</time>
      </trkpt>
      <trkpt lat="45.27226" lon="4.51443">
        <ele>765</ele>
        <time>2019-02-26T19:34:17Z</time>
      </trkpt>
      <trkpt lat="45.27227" lon="4.51453">
        <ele>764</ele>
        <time>2019-02-26T19:35:17Z</time>
      </trkpt>
      <trkpt lat="45.27234" lon="4.51508">
        <ele>759</ele>
        <time>2019-02-26T19:36:17Z</time>
      </trkpt>
      <trkpt lat="45.27235" lon="4.51517">
        <ele>759</ele>
        <time>2019-02-26T19:37:17Z</time>
      </trkpt>
      <trkpt lat="45.27243" lon="4.51548">
        <ele>759</ele>
        <time>2019-02-26T19:38:17Z</time>
      </trkpt>
      <trkpt lat="45.27244" lon="4.51553">
        <ele>759</ele>
        <time>2019-02-26T19:39:17Z</time>
      </trkpt>
      <trkpt lat="45.27258" lon="4.51594">
        <ele>760</ele>
        <time>2019-02-26T19:40:17Z</time>
      </trkpt>
      <trkpt lat="45.27261" lon="4.51603">
        <ele>762</ele>
        <time>2019-02-26T19:41:17Z</time>
      </trkpt>
      <trkpt lat="45.2727" lon="4.51619">
        <ele>765</ele>
        <time>2019-02-26T19:42:17Z</time>
      </trkpt>
      <trkpt lat="45.27272" lon="4.51623">
        <ele>766</ele>
        <time>2019-02-26T19:43:17Z</time>
      </trkpt>
      <trkpt lat="45.2728" lon="4.5163">
        <ele>767</ele>
        <time>2019-02-26T19:44:17Z</time>
      </trkpt>
      <trkpt lat="45.27285" lon="4.51634">
        <ele>767</ele>
        <time>2019-02-26T19:45:17Z</time>
      </trkpt>
      <trkpt lat="45.27322" lon="4.5166">
        <ele>767</ele>
        <time>2019-02-26T19:46:17Z</time>
      </trkpt>
      <trkpt lat="45.27329" lon="4.51664">
        <ele>767</ele>
        <time>2019-02-26T19:47:17Z</time>
      </trkpt>
      <trkpt lat="45.27335" lon="4.51667">
        <ele>767</ele>
        <time>2019-02-26T19:48:17Z</time>
      </trkpt>
      <trkpt lat="45.2734" lon="4.5167">
        <ele>767</ele>
        <time>2019-02-26T19:49:17Z</time>
      </trkpt>
      <trkpt lat="45.27356" lon="4.51675">
        <ele>767</ele>
        <time>2019-02-26T19:50:17Z</time>
      </trkpt>
      <trkpt lat="45.27372" lon="4.5168">
        <ele>766</ele>
        <time>2019-02-26T19:51:17Z</time>
      </trkpt>
      <trkpt lat="45.2739" lon="4.51685">
        <ele>766</ele>
        <time>2019-02-26T19:52:17Z</time>
      </trkpt>
      <trkpt lat="45.27399" lon="4.51687">
        <ele>765</ele>
        <time>2019-02-26T19:53:17Z</time>
      </trkpt>
      <trkpt lat="45.2744" lon="4.51697">
        <ele>762</ele>
        <time>2019-02-26T19:54:17Z</time>
      </trkpt>
      <trkpt lat="45.27447" lon="4.51699">
        <ele>761</ele>
        <time>2019-02-26T19:55:17Z</time>
      </trkpt>
      <trkpt lat="45.27453" lon="4.51702">
        <ele>760</ele>
        <time>2019-02-26T19:56:17Z</time>
      </trkpt>
      <trkpt lat="45.2746" lon="4.51706">
        <ele>760</ele>
        <time>2019-02-26T19:57:17Z</time>
      </trkpt>
      <trkpt lat="45.27478" lon="4.51721">
        <ele>760</ele>
        <time>2019-02-26T19:58:17Z</time>
      </trkpt>
      <trkpt lat="45.27483" lon="4.51727">
        <ele>760</ele>
        <time>2019-02-26T19:59:17Z</time>
      </trkpt>
      <trkpt lat="45.27488" lon="4.51738">
        <ele>761</ele>
        <time>2019-02-26T20:00:17Z</time>
      </trkpt>
      <trkpt lat="45.27491" lon="4.51745">
        <ele>762</ele>
        <time>2019-02-26T20:01:17Z</time>
      </trkpt>
      <trkpt lat="45.27495" lon="4.51766">
        <ele>763</ele>
        <time>2019-02-26T20:02:17Z</time>
      </trkpt>
      <trkpt lat="45.27496" lon="4.51774">
        <ele>763</ele>
        <time>2019-02-26T20:03:17Z</time>
      </trkpt>
      <trkpt lat="45.27496" lon="4.51784">
        <ele>763</ele>
        <time>2019-02-26T20:04:17Z</time>
      </trkpt>
      <trkpt lat="45.27494" lon="4.51819">
        <ele>765</ele>
        <time>2019-02-26T20:05:17Z</time>
      </trkpt>
      <trkpt lat="45.27494" lon="4.51827">
        <ele>766</ele>
        <time>2019-02-26T20:06:17Z</time>
      </trkpt>
      <trkpt lat="45.27495" lon="4.51842">
        <ele>766</ele>
        <time>2019-02-26T20:07:17Z</time>
      </trkpt>
      <trkpt lat="45.27496" lon="4.51851">
        <ele>766</ele>
        <time>2019-02-26T20:08:17Z</time>
      </trkpt>
      <trkpt lat="45.27502" lon="4.51878">
        <ele>764</ele>
        <time>2019-02-26T20:09:17Z</time>
      </trkpt>
      <trkpt lat="45.27504" lon="4.51885">
        <ele>763</ele>
        <time>2019-02-26T20:10:17Z</time>
      </trkpt>
      <trkpt lat="45.27509" lon="4.51897">
        <ele>761</ele>
        <time>2019-02-26T20:11:17Z</time>
      </trkpt>
      <trkpt lat="45.27511" lon="4.51903">
        <ele>761</ele>
        <time>2019-02-26T20:12:17Z</time>
      </trkpt>
      <trkpt lat="45.27514" lon="4.51925">
        <ele>759</ele>
        <time>2019-02-26T20:13:17Z</time>
      </trkpt>
      <trkpt lat="45.27515" lon="4.51932">
        <ele>758</ele>
        <time>2019-02-26T20:14:17Z</time>
      </trkpt>
      <trkpt lat="45.2751" lon="4.51968">
        <ele>757</ele>
        <time>2019-02-26T20:15:17Z</time>
      </trkpt>
      <trkpt lat="45.27508" lon="4.51978">
        <ele>757</ele>
        <time>2019-02-26T20:16:17Z</time>
      </trkpt>
      <trkpt lat="45.27503" lon="4.51996">
        <ele>757</ele>
        <time>2019-02-26T20:17:17Z</time>
      </trkpt>
      <trkpt lat="45.275" lon="4.52005">
        <ele>758</ele>
        <time>2019-02-26T20:18:17Z</time>
      </trkpt>
      <trkpt lat="45.2749" lon="4.52032">
        <ele>759</ele>
        <time>2019-02-26T20:19:17Z</time>
      </trkpt>
      <trkpt lat="45.2749" lon="4.52037">
        <ele>758</ele>
        <time>2019-02-26T20:20:17Z</time>
      </trkpt>
      <trkpt lat="45.2749" lon="4.52059">
        <ele>756</ele>
        <time>2019-02-26T20:21:17Z</time>
      </trkpt>
      <trkpt lat="45.27491" lon="4.52068">
        <ele>755</ele>
        <time>2019-02-26T20:22:17Z</time>
      </trkpt>
      <trkpt lat="45.27493" lon="4.52099">
        <ele>753</ele>
        <time>2019-02-26T20:23:17Z</time>
      </trkpt>
      <trkpt lat="45.27494" lon="4.52113">
        <ele>754</ele>
        <time>2019-02-26T20:24:17Z</time>
      </trkpt>
      <trkpt lat="45.27498" lon="4.52145">
        <ele>756</ele>
        <time>2019-02-26T20:25:17Z</time>
      </trkpt>
      <trkpt lat="45.275" lon="4.52149">
        <ele>756</ele>
        <time>2019-02-26T20:26:17Z</time>
      </trkpt>
      <trkpt lat="45.27504" lon="4.52158">
        <ele>755</ele>
        <time>2019-02-26T20:27:17Z</time>
      </trkpt>
      <trkpt lat="45.27509" lon="4.52163">
        <ele>755</ele>
        <time>2019-02-26T20:28:17Z</time>
      </trkpt>
      <trkpt lat="45.27514" lon="4.52167">
        <ele>754</ele>
        <time>2019-02-26T20:29:17Z</time>
      </trkpt>
      <trkpt lat="45.27543" lon="4.52178">
        <ele>751</ele>
        <time>2019-02-26T20:30:17Z</time>
      </trkpt>
      <trkpt lat="45.27548" lon="4.5218">
        <ele>750</ele>
        <time>2019-02-26T20:31:17Z</time>
      </trkpt>
      <trkpt lat="45.27553" lon="4.52184">
        <ele>750</ele>
        <time>2019-02-26T20:32:17Z</time>
      </trkpt>
      <trkpt lat="45.27558" lon="4.52187">
        <ele>750</ele>
        <time>2019-02-26T20:33:17Z</time>
      </trkpt>
      <trkpt lat="45.2757" lon="4.52196">
        <ele>750</ele>
        <time>2019-02-26T20:34:17Z</time>
      </trkpt>
      <trkpt lat="45.27575" lon="4.52201">
        <ele>751</ele>
        <time>2019-02-26T20:35:17Z</time>
      </trkpt>
      <trkpt lat="45.2763" lon="4.52252">
        <ele>753</ele>
        <time>2019-02-26T20:36:17Z</time>
      </trkpt>
      <trkpt lat="45.27638" lon="4.52259">
        <ele>753</ele>
        <time>2019-02-26T20:37:17Z</time>
      </trkpt>
      <trkpt lat="45.27645" lon="4.52266">
        <ele>753</ele>
        <time>2019-02-26T20:38:17Z</time>
      </trkpt>
      <trkpt lat="45.27657" lon="4.5228">
        <ele>754</ele>
        <time>2019-02-26T20:39:17Z</time>
      </trkpt>
      <trkpt lat="45.27663" lon="4.52288">
        <ele>754</ele>
        <time>2019-02-26T20:40:17Z</time>
      </trkpt>
      <trkpt lat="45.27677" lon="4.5231">
        <ele>754</ele>
        <time>2019-02-26T20:41:17Z</time>
      </trkpt>
      <trkpt lat="45.27683" lon="4.52319">
        <ele>754</ele>
        <time>2019-02-26T20:42:17Z</time>
      </trkpt>
      <trkpt lat="45.27689" lon="4.52327">
        <ele>753</ele>
        <time>2019-02-26T20:43:17Z</time>
      </trkpt>
      <trkpt lat="45.27694" lon="4.52334">
        <ele>753</ele>
        <time>2019-02-26T20:44:17Z</time>
      </trkpt>
      <trkpt lat="45.277" lon="4.52346">
        <ele>751</ele>
        <time>2019-02-26T20:45:17Z</time>
      </trkpt>
      <trkpt lat="45.27706" lon="4.52361">
        <ele>749</ele>
        <time>2019-02-26T20:46:17Z</time>
      </trkpt>
      <trkpt lat="45.27708" lon="4.52369">
        <ele>749</ele>
        <time>2019-02-26T20:47:17Z</time>
      </trkpt>
      <trkpt lat="45.27709" lon="4.52382">
        <ele>749</ele>
        <time>2019-02-26T20:48:17Z</time>
      </trkpt>
      <trkpt lat="45.27708" lon="4.52396">
        <ele>750</ele>
        <time>2019-02-26T20:49:17Z</time>
      </trkpt>
      <trkpt lat="45.27705" lon="4.52413">
        <ele>751</ele>
        <time>2019-02-26T20:50:17Z</time>
      </trkpt>
      <trkpt lat="45.27698" lon="4.52431">
        <ele>751</ele>
        <time>2019-02-26T20:51:17Z</time>
      </trkpt>
      <trkpt lat="45.27689" lon="4.52446">
        <ele>751</ele>
        <time>2019-02-26T20:52:17Z</time>
      </trkpt>
      <trkpt lat="45.27676" lon="4.52464">
        <ele>751</ele>
        <time>2019-02-26T20:53:17Z</time>
      </trkpt>
      <trkpt lat="45.27657" lon="4.52488">
        <ele>752</ele>
        <time>2019-02-26T20:54:17Z</time>
      </trkpt>
      <trkpt lat="45.27636" lon="4.52518">
        <ele>750</ele>
        <time>2019-02-26T20:55:17Z</time>
      </trkpt>
      <trkpt lat="45.27602" lon="4.52568">
        <ele>748</ele>
        <time>2019-02-26T20:56:17Z</time>
      </trkpt>
      <trkpt lat="45.2758" lon="4.52599">
        <ele>746</ele>
        <time>2019-02-26T20:57:17Z</time>
      </trkpt>
      <trkpt lat="45.27571" lon="4.52614">
        <ele>744</ele>
        <time>2019-02-26T20:58:17Z</time>
      </trkpt>
      <trkpt lat="45.2756" lon="4.5263">
        <ele>742</ele>
        <time>2019-02-26T20:59:17Z</time>
      </trkpt>
      <trkpt lat="45.27554" lon="4.52641">
        <ele>740</ele>
        <time>2019-02-26T21:00:17Z</time>
      </trkpt>
      <trkpt lat="45.27545" lon="4.52651">
        <ele>739</ele>
        <time>2019-02-26T21:01:17Z</time>
      </trkpt>
      <trkpt lat="45.27528" lon="4.52668">
        <ele>739</ele>
        <time>2019-02-26T21:02:17Z</time>
      </trkpt>
      <trkpt lat="45.27517" lon="4.52677">
        <ele>739</ele>
        <time>2019-02-26T21:03:17Z</time>
      </trkpt>
      <trkpt lat="45.27487" lon="4.52696">
        <ele>739</ele>
        <time>2019-02-26T21:04:17Z</time>
      </trkpt>
      <trkpt lat="45.27478" lon="4.52702">
        <ele>739</ele>
        <time>2019-02-26T21:05:17Z</time>
      </trkpt>
      <trkpt lat="45.27465" lon="4.52715">
        <ele>738</ele>
        <time>2019-02-26T21:06:17Z</time>
      </trkpt>
      <trkpt lat="45.27459" lon="4.52722">
        <ele>737</ele>
        <time>2019-02-26T21:07:17Z</time>
      </trkpt>
      <trkpt lat="45.27451" lon="4.52733">
        <ele>736</ele>
        <time>2019-02-26T21:08:17Z</time>
      </trkpt>
      <trkpt lat="45.27433" lon="4.52759">
        <ele>733</ele>
        <time>2019-02-26T21:09:17Z</time>
      </trkpt>
      <trkpt lat="45.2739" lon="4.52818">
        <ele>733</ele>
        <time>2019-02-26T21:10:17Z</time>
      </trkpt>
      <trkpt lat="45.27377" lon="4.52834">
        <ele>732</ele>
        <time>2019-02-26T21:11:17Z</time>
      </trkpt>
      <trkpt lat="45.27354" lon="4.52872">
        <ele>731</ele>
        <time>2019-02-26T21:12:17Z</time>
      </trkpt>
      <trkpt lat="45.27344" lon="4.52893">
        <ele>731</ele>
        <time>2019-02-26T21:13:17Z</time>
      </trkpt>
      <trkpt lat="45.27324" lon="4.52939">
        <ele>733</ele>
        <time>2019-02-26T21:14:17Z</time>
      </trkpt>
      <trkpt lat="45.27316" lon="4.52968">
        <ele>734</ele>
        <time>2019-02-26T21:15:17Z</time>
      </trkpt>
      <trkpt lat="45.27307" lon="4.53012">
        <ele>735</ele>
        <time>2019-02-26T21:16:17Z</time>
      </trkpt>
      <trkpt lat="45.27303" lon="4.53044">
        <ele>733</ele>
        <time>2019-02-26T21:17:17Z</time>
      </trkpt>
      <trkpt lat="45.273" lon="4.53081">
        <ele>731</ele>
        <time>2019-02-26T21:18:17Z</time>
      </trkpt>
      <trkpt lat="45.273" lon="4.53092">
        <ele>730</ele>
        <time>2019-02-26T21:19:17Z</time>
      </trkpt>
      <trkpt lat="45.27299" lon="4.53097">
        <ele>730</ele>
        <time>2019-02-26T21:20:17Z</time>
      </trkpt>
      <trkpt lat="45.273" lon="4.53136">
        <ele>725</ele>
        <time>2019-02-26T21:21:17Z</time>
      </trkpt>
      <trkpt lat="45.27301" lon="4.53162">
        <ele>722</ele>
        <time>2019-02-26T21:22:17Z</time>
      </trkpt>
      <trkpt lat="45.27305" lon="4.53187">
        <ele>722</ele>
        <time>2019-02-26T21:23:17Z</time>
      </trkpt>
      <trkpt lat="45.2731" lon="4.53215">
        <ele>722</ele>
        <time>2019-02-26T21:24:17Z</time>
      </trkpt>
      <trkpt lat="45.27317" lon="4.53242">
        <ele>722</ele>
        <time>2019-02-26T21:25:17Z</time>
      </trkpt>
      <trkpt lat="45.27321" lon="4.53256">
        <ele>724</ele>
        <time>2019-02-26T21:26:17Z</time>
      </trkpt>
      <trkpt lat="45.27326" lon="4.53268">
        <ele>726</ele>
        <time>2019-02-26T21:27:17Z</time>
      </trkpt>
      <trkpt lat="45.27328" lon="4.53272">
        <ele>726</ele>
        <time>2019-02-26T21:28:17Z</time>
      </trkpt>
      <trkpt lat="45.2733" lon="4.53273">
        <ele>727</ele>
        <time>2019-02-26T21:29:17Z</time>
      </trkpt>
      <trkpt lat="45.27335" lon="4.53278">
        <ele>727</ele>
        <time>2019-02-26T21:30:17Z</time>
      </trkpt>
      <trkpt lat="45.27344" lon="4.53282">
        <ele>729</ele>
        <time>2019-02-26T21:31:17Z</time>
      </trkpt>
      <trkpt lat="45.27354" lon="4.53282">
        <ele>730</ele>
        <time>2019-02-26T21:32:17Z</time>
      </trkpt>
      <trkpt lat="45.27373" lon="4.53278">
        <ele>730</ele>
        <time>2019-02-26T21:33:17Z</time>
      </trkpt>
      <trkpt lat="45.27395" lon="4.53264">
        <ele>729</ele>
        <time>2019-02-26T21:34:17Z</time>
      </trkpt>
      <trkpt lat="45.27417" lon="4.53248">
        <ele>728</ele>
        <time>2019-02-26T21:35:17Z</time>
      </trkpt>
      <trkpt lat="45.27426" lon="4.5324">
        <ele>728</ele>
        <time>2019-02-26T21:36:17Z</time>
      </trkpt>
      <trkpt lat="45.27432" lon="4.53232">
        <ele>727</ele>
        <time>2019-02-26T21:37:17Z</time>
      </trkpt>
      <trkpt lat="45.27437" lon="4.53224">
        <ele>727</ele>
        <time>2019-02-26T21:38:17Z</time>
      </trkpt>
      <trkpt lat="45.27446" lon="4.53206">
        <ele>726</ele>
        <time>2019-02-26T21:39:17Z</time>
      </trkpt>
      <trkpt lat="45.27455" lon="4.53191">
        <ele>725</ele>
        <time>2019-02-26T21:40:17Z</time>
      </trkpt>
      <trkpt lat="45.27466" lon="4.53177">
        <ele>725</ele>
        <time>2019-02-26T21:41:17Z</time>
      </trkpt>
      <trkpt lat="45.27482" lon="4.53164">
        <ele>726</ele>
        <time>2019-02-26T21:42:17Z</time>
      </trkpt>
      <trkpt lat="45.27498" lon="4.53156">
        <ele>727</ele>
        <time>2019-02-26T21:43:17Z</time>
      </trkpt>
      <trkpt lat="45.27508" lon="4.53152">
        <ele>727</ele>
        <time>2019-02-26T21:44:17Z</time>
      </trkpt>
      <trkpt lat="45.27524" lon="4.53149">
        <ele>725</ele>
        <time>2019-02-26T21:45:17Z</time>
      </trkpt>
      <trkpt lat="45.27537" lon="4.53149">
        <ele>724</ele>
        <time>2019-02-26T21:46:17Z</time>
      </trkpt>
      <trkpt lat="45.27546" lon="4.53151">
        <ele>724</ele>
        <time>2019-02-26T21:47:17Z</time>
      </trkpt>
      <trkpt lat="45.27553" lon="4.53155">
        <ele>724</ele>
        <time>2019-02-26T21:48:17Z</time>
      </trkpt>
      <trkpt lat="45.27561" lon="4.53163">
        <ele>725</ele>
        <time>2019-02-26T21:49:17Z</time>
      </trkpt>
      <trkpt lat="45.27578" lon="4.53192">
        <ele>726</ele>
        <time>2019-02-26T21:50:17Z</time>
      </trkpt>
      <trkpt lat="45.27584" lon="4.53201">
        <ele>727</ele>
        <time>2019-02-26T21:51:17Z</time>
      </trkpt>
      <trkpt lat="45.27593" lon="4.5321">
        <ele>726</ele>
        <time>2019-02-26T21:52:17Z</time>
      </trkpt>
      <trkpt lat="45.27598" lon="4.53214">
        <ele>726</ele>
        <time>2019-02-26T21:53:17Z</time>
      </trkpt>
      <trkpt lat="45.27608" lon="4.53222">
        <ele>725</ele>
        <time>2019-02-26T21:54:17Z</time>
      </trkpt>
      <trkpt lat="45.2763" lon="4.53233">
        <ele>722</ele>
        <time>2019-02-26T21:55:17Z</time>
      </trkpt>
      <trkpt lat="45.27643" lon="4.53243">
        <ele>722</ele>
        <time>2019-02-26T21:56:17Z</time>
      </trkpt>
      <trkpt lat="45.27652" lon="4.53251">
        <ele>721</ele>
        <time>2019-02-26T21:57:17Z</time>
      </trkpt>
      <trkpt lat="45.27659" lon="4.53264">
        <ele>720</ele>
        <time>2019-02-26T21:58:17Z</time>
      </trkpt>
      <trkpt lat="45.27662" lon="4.53269">
        <ele>720</ele>
        <time>2019-02-26T21:59:17Z</time>
      </trkpt>
      <trkpt lat="45.27665" lon="4.53281">
        <ele>719</ele>
        <time>2019-02-26T22:00:17Z</time>
      </trkpt>
      <trkpt lat="45.27666" lon="4.53289">
        <ele>719</ele>
        <time>2019-02-26T22:01:17Z</time>
      </trkpt>
      <trkpt lat="45.27666" lon="4.53298">
        <ele>719</ele>
        <time>2019-02-26T22:02:17Z</time>
      </trkpt>
      <trkpt lat="45.27663" lon="4.53337">
        <ele>719</ele>
        <time>2019-02-26T22:03:17Z</time>
      </trkpt>
      <trkpt lat="45.2766" lon="4.53363">
        <ele>717</ele>
        <time>2019-02-26T22:04:17Z</time>
      </trkpt>
      <trkpt lat="45.27651" lon="4.53398">
        <ele>717</ele>
        <time>2019-02-26T22:05:17Z</time>
      </trkpt>
      <trkpt lat="45.27643" lon="4.53424">
        <ele>717</ele>
        <time>2019-02-26T22:06:17Z</time>
      </trkpt>
      <trkpt lat="45.27638" lon="4.53434">
        <ele>718</ele>
        <time>2019-02-26T22:07:17Z</time>
      </trkpt>
      <trkpt lat="45.27633" lon="4.53442">
        <ele>718</ele>
        <time>2019-02-26T22:08:17Z</time>
      </trkpt>
      <trkpt lat="45.27615" lon="4.53464">
        <ele>721</ele>
        <time>2019-02-26T22:09:17Z</time>
      </trkpt>
      <trkpt lat="45.27608" lon="4.5348">
        <ele>721</ele>
        <time>2019-02-26T22:10:17Z</time>
      </trkpt>
      <trkpt lat="45.27607" lon="4.53495">
        <ele>720</ele>
        <time>2019-02-26T22:11:17Z</time>
      </trkpt>
      <trkpt lat="45.27608" lon="4.53506">
        <ele>719</ele>
        <time>2019-02-26T22:12:17Z</time>
      </trkpt>
      <trkpt lat="45.2761" lon="4.53509">
        <ele>719</ele>
        <time>2019-02-26T22:13:17Z</time>
      </trkpt>
      <trkpt lat="45.27612" lon="4.53515">
        <ele>718</ele>
        <time>2019-02-26T22:14:17Z</time>
      </trkpt>
      <trkpt lat="45.2762" lon="4.53529">
        <ele>716</ele>
        <time>2019-02-26T22:15:17Z</time>
      </trkpt>
      <trkpt lat="45.27631" lon="4.53552">
        <ele>713</ele>
        <time>2019-02-26T22:16:17Z</time>
      </trkpt>
      <trkpt lat="45.27635" lon="4.53565">
        <ele>711</ele>
        <time>2019-02-26T22:17:17Z</time>
      </trkpt>
      <trkpt lat="45.27637" lon="4.5358">
        <ele>710</ele>
        <time>2019-02-26T22:18:17Z</time>
      </trkpt>
      <trkpt lat="45.27635" lon="4.53591">
        <ele>710</ele>
        <time>2019-02-26T22:19:17Z</time>
      </trkpt>
      <trkpt lat="45.27631" lon="4.53605">
        <ele>710</ele>
        <time>2019-02-26T22:20:17Z</time>
      </trkpt>
      <trkpt lat="45.27608" lon="4.53663">
        <ele>711</ele>
        <time>2019-02-26T22:21:17Z</time>
      </trkpt>
      <trkpt lat="45.276" lon="4.53682">
        <ele>712</ele>
        <time>2019-02-26T22:22:17Z</time>
      </trkpt>
      <trkpt lat="45.27598" lon="4.53691">
        <ele>712</ele>
        <time>2019-02-26T22:23:17Z</time>
      </trkpt>
      <trkpt lat="45.27597" lon="4.53699">
        <ele>713</ele>
        <time>2019-02-26T22:24:17Z</time>
      </trkpt>
      <trkpt lat="45.27601" lon="4.53734">
        <ele>711</ele>
        <time>2019-02-26T22:25:17Z</time>
      </trkpt>
      <trkpt lat="45.27606" lon="4.53782">
        <ele>710</ele>
        <time>2019-02-26T22:26:17Z</time>
      </trkpt>
      <trkpt lat="45.27611" lon="4.53831">
        <ele>709</ele>
        <time>2019-02-26T22:27:17Z</time>
      </trkpt>
      <trkpt lat="45.27615" lon="4.53873">
        <ele>708</ele>
        <time>2019-02-26T22:28:17Z</time>
      </trkpt>
      <trkpt lat="45.27619" lon="4.539">
        <ele>707</ele>
        <time>2019-02-26T22:29:17Z</time>
      </trkpt>
      <trkpt lat="45.27623" lon="4.5392">
        <ele>706</ele>
        <time>2019-02-26T22:30:17Z</time>
      </trkpt>
      <trkpt lat="45.27637" lon="4.5396">
        <ele>702</ele>
        <time>2019-02-26T22:31:17Z</time>
      </trkpt>
      <trkpt lat="45.27643" lon="4.53978">
        <ele>701</ele>
        <time>2019-02-26T22:32:17Z</time>
      </trkpt>
      <trkpt lat="45.27659" lon="4.54019">
        <ele>700</ele>
        <time>2019-02-26T22:33:17Z</time>
      </trkpt>
      <trkpt lat="45.27661" lon="4.54027">
        <ele>700</ele>
        <time>2019-02-26T22:34:17Z</time>
      </trkpt>
      <trkpt lat="45.27668" lon="4.54035">
        <ele>700</ele>
        <time>2019-02-26T22:35:17Z</time>
      </trkpt>
      <trkpt lat="45.2771" lon="4.54091">
        <ele>701</ele>
        <time>2019-02-26T22:36:17Z</time>
      </trkpt>
      <trkpt lat="45.27719" lon="4.54103">
        <ele>702</ele>
        <time>2019-02-26T22:37:17Z</time>
      </trkpt>
      <trkpt lat="45.27739" lon="4.5412">
        <ele>701</ele>
        <time>2019-02-26T22:38:17Z</time>
      </trkpt>
      <trkpt lat="45.2776" lon="4.54136">
        <ele>702</ele>
        <time>2019-02-26T22:39:17Z</time>
      </trkpt>
      <trkpt lat="45.27773" lon="4.54146">
        <ele>704</ele>
        <time>2019-02-26T22:40:17Z</time>
      </trkpt>
      <trkpt lat="45.27783" lon="4.54152">
        <ele>705</ele>
        <time>2019-02-26T22:41:17Z</time>
      </trkpt>
      <trkpt lat="45.27785" lon="4.54152">
        <ele>705</ele>
        <time>2019-02-26T22:42:17Z</time>
      </trkpt>
      <trkpt lat="45.2779" lon="4.54146">
        <ele>705</ele>
        <time>2019-02-26T22:43:17Z</time>
      </trkpt>
      <trkpt lat="45.27797" lon="4.54136">
        <ele>705</ele>
        <time>2019-02-26T22:44:17Z</time>
      </trkpt>
      <trkpt lat="45.27805" lon="4.54124">
        <ele>705</ele>
        <time>2019-02-26T22:45:17Z</time>
      </trkpt>
      <trkpt lat="45.27811" lon="4.54107">
        <ele>704</ele>
        <time>2019-02-26T22:46:17Z</time>
      </trkpt>
      <trkpt lat="45.27805" lon="4.5406">
        <ele>698</ele>
        <time>2019-02-26T22:47:17Z</time>
      </trkpt>
      <trkpt lat="45.27805" lon="4.54047">
        <ele>695</ele>
        <time>2019-02-26T22:48:17Z</time>
      </trkpt>
      <trkpt lat="45.27816" lon="4.54025">
        <ele>692</ele>
        <time>2019-02-26T22:49:17Z</time>
      </trkpt>
      <trkpt lat="45.27825" lon="4.5401">
        <ele>690</ele>
        <time>2019-02-26T22:50:17Z</time>
      </trkpt>
      <trkpt lat="45.27838" lon="4.53991">
        <ele>687</ele>
        <time>2019-02-26T22:51:17Z</time>
      </trkpt>
      <trkpt lat="45.27858" lon="4.53967">
        <ele>684</ele>
        <time>2019-02-26T22:52:17Z</time>
      </trkpt>
      <trkpt lat="45.27878" lon="4.53947">
        <ele>682</ele>
        <time>2019-02-26T22:53:17Z</time>
      </trkpt>
      <trkpt lat="45.27881" lon="4.53942">
        <ele>681</ele>
        <time>2019-02-26T22:54:17Z</time>
      </trkpt>
      <trkpt lat="45.27883" lon="4.5393">
        <ele>678</ele>
        <time>2019-02-26T22:55:17Z</time>
      </trkpt>
      <trkpt lat="45.27888" lon="4.53923">
        <ele>677</ele>
        <time>2019-02-26T22:56:17Z</time>
      </trkpt>
      <trkpt lat="45.279" lon="4.53913">
        <ele>676</ele>
        <time>2019-02-26T22:57:17Z</time>
      </trkpt>
      <trkpt lat="45.279" lon="4.53912">
        <ele>676</ele>
        <time>2019-02-26T22:58:17Z</time>
      </trkpt>
      <trkpt lat="45.27913" lon="4.53907">
        <ele>677</ele>
        <time>2019-02-26T22:59:17Z</time>
      </trkpt>
      <trkpt lat="45.2793" lon="4.53897">
        <ele>678</ele>
        <time>2019-02-26T23:00:17Z</time>
      </trkpt>
      <trkpt lat="45.2796" lon="4.53894">
        <ele>682</ele>
        <time>2019-02-26T23:01:17Z</time>
      </trkpt>
      <trkpt lat="45.27975" lon="4.53902">
        <ele>686</ele>
        <time>2019-02-26T23:02:17Z</time>
      </trkpt>
      <trkpt lat="45.27989" lon="4.53911">
        <ele>689</ele>
        <time>2019-02-26T23:03:17Z</time>
      </trkpt>
      <trkpt lat="45.28009" lon="4.53929">
        <ele>693</ele>
        <time>2019-02-26T23:04:17Z</time>
      </trkpt>
      <trkpt lat="45.28025" lon="4.53941">
        <ele>693</ele>
        <time>2019-02-26T23:05:17Z</time>
      </trkpt>
      <trkpt lat="45.28037" lon="4.53956">
        <ele>695</ele>
        <time>2019-02-26T23:06:17Z</time>
      </trkpt>
      <trkpt lat="45.28052" lon="4.53983">
        <ele>698</ele>
        <time>2019-02-26T23:07:17Z</time>
      </trkpt>
      <trkpt lat="45.28052" lon="4.53984">
        <ele>698</ele>
        <time>2019-02-26T23:08:17Z</time>
      </trkpt>
      <trkpt lat="45.28062" lon="4.53989">
        <ele>698</ele>
        <time>2019-02-26T23:09:17Z</time>
      </trkpt>
      <trkpt lat="45.28066" lon="4.53993">
        <ele>699</ele>
        <time>2019-02-26T23:10:17Z</time>
      </trkpt>
      <trkpt lat="45.2807" lon="4.53997">
        <ele>699</ele>
        <time>2019-02-26T23:11:17Z</time>
      </trkpt>
      <trkpt lat="45.28098" lon="4.5404">
        <ele>699</ele>
        <time>2019-02-26T23:12:17Z</time>
      </trkpt>
      <trkpt lat="45.28157" lon="4.54107">
        <ele>696</ele>
        <time>2019-02-26T23:13:17Z</time>
      </trkpt>
      <trkpt lat="45.28166" lon="4.54113">
        <ele>695</ele>
        <time>2019-02-26T23:14:17Z</time>
      </trkpt>
      <trkpt lat="45.28176" lon="4.54121">
        <ele>693</ele>
        <time>2019-02-26T23:15:17Z</time>
      </trkpt>
      <trkpt lat="45.28203" lon="4.54136">
        <ele>689</ele>
        <time>2019-02-26T23:16:17Z</time>
      </trkpt>
      <trkpt lat="45.28208" lon="4.5414">
        <ele>688</ele>
        <time>2019-02-26T23:17:17Z</time>
      </trkpt>
      <trkpt lat="45.28214" lon="4.54144">
        <ele>688</ele>
        <time>2019-02-26T23:18:17Z</time>
      </trkpt>
      <trkpt lat="45.2822" lon="4.54149">
        <ele>687</ele>
        <time>2019-02-26T23:19:17Z</time>
      </trkpt>
      <trkpt lat="45.28237" lon="4.54161">
        <ele>686</ele>
        <time>2019-02-26T23:20:17Z</time>
      </trkpt>
      <trkpt lat="45.28246" lon="4.54167">
        <ele>685</ele>
        <time>2019-02-26T23:21:17Z</time>
      </trkpt>
      <trkpt lat="45.28273" lon="4.54183">
        <ele>680</ele>
        <time>2019-02-26T23:22:17Z</time>
      </trkpt>
      <trkpt lat="45.28287" lon="4.54192">
        <ele>678</ele>
        <time>2019-02-26T23:23:17Z</time>
      </trkpt>
      <trkpt lat="45.28298" lon="4.54201">
        <ele>676</ele>
        <time>2019-02-26T23:24:17Z</time>
      </trkpt>
      <trkpt lat="45.28307" lon="4.54209">
        <ele>675</ele>
        <time>2019-02-26T23:25:17Z</time>
      </trkpt>
      <trkpt lat="45.28313" lon="4.54218">
        <ele>675</ele>
        <time>2019-02-26T23:26:17Z</time>
      </trkpt>
      <trkpt lat="45.28321" lon="4.54226">
        <ele>674</ele>
        <time>2019-02-26T23:27:17Z</time>
      </trkpt>
      <trkpt lat="45.28367" lon="4.54308">
        <ele>664</ele>
        <time>2019-02-26T23:28:17Z</time>
      </trkpt>
      <trkpt lat="45.28373" lon="4.54319">
        <ele>663</ele>
        <time>2019-02-26T23:29:17Z</time>
      </trkpt>
      <trkpt lat="45.28386" lon="4.54346">
        <ele>659</ele>
        <time>2019-02-26T23:30:17Z</time>
      </trkpt>
      <trkpt lat="45.2839" lon="4.54354">
        <ele>657</ele>
        <time>2019-02-26T23:31:17Z</time>
      </trkpt>
      <trkpt lat="45.28392" lon="4.54363">
        <ele>657</ele>
        <time>2019-02-26T23:32:17Z</time>
      </trkpt>
      <trkpt lat="45.28395" lon="4.54372">
        <ele>656</ele>
        <time>2019-02-26T23:33:17Z</time>
      </trkpt>
      <trkpt lat="45.28402" lon="4.54411">
        <ele>655</ele>
        <time>2019-02-26T23:34:17Z</time>
      </trkpt>
      <trkpt lat="45.28409" lon="4.54448">
        <ele>655</ele>
        <time>2019-02-26T23:35:17Z</time>
      </trkpt>
      <trkpt lat="45.28411" lon="4.54457">
        <ele>655</ele>
        <time>2019-02-26T23:36:17Z</time>
      </trkpt>
      <trkpt lat="45.2841" lon="4.54474">
        <ele>656</ele>
        <time>2019-02-26T23:37:17Z</time>
      </trkpt>
      <trkpt lat="45.28409" lon="4.54484">
        <ele>657</ele>
        <time>2019-02-26T23:38:17Z</time>
      </trkpt>
      <trkpt lat="45.28409" lon="4.54494">
        <ele>658</ele>
        <time>2019-02-26T23:39:17Z</time>
      </trkpt>
      <trkpt lat="45.28411" lon="4.54501">
        <ele>658</ele>
        <time>2019-02-26T23:40:17Z</time>
      </trkpt>
      <trkpt lat="45.28418" lon="4.54519">
        <ele>656</ele>
        <time>2019-02-26T23:41:17Z</time>
      </trkpt>
      <trkpt lat="45.28424" lon="4.54534">
        <ele>654</ele>
        <time>2019-02-26T23:42:17Z</time>
      </trkpt>
      <trkpt lat="45.28436" lon="4.54567">
        <ele>650</ele>
        <time>2019-02-26T23:43:17Z</time>
      </trkpt>
      <trkpt lat="45.28439" lon="4.54573">
        <ele>649</ele>
        <time>2019-02-26T23:44:17Z</time>
      </trkpt>
      <trkpt lat="45.28463" lon="4.54644">
        <ele>643</ele>
        <time>2019-02-26T23:45:17Z</time>
      </trkpt>
      <trkpt lat="45.28487" lon="4.54709">
        <ele>633</ele>
        <time>2019-02-26T23:46:17Z</time>
      </trkpt>
      <trkpt lat="45.28491" lon="4.54724">
        <ele>632</ele>
        <time>2019-02-26T23:47:17Z</time>
      </trkpt>
      <trkpt lat="45.28495" lon="4.54741">
        <ele>630</ele>
        <time>2019-02-26T23:48:17Z</time>
      </trkpt>
      <trkpt lat="45.28503" lon="4.54782">
        <ele>626</ele>
        <time>2019-02-26T23:49:17Z</time>
      </trkpt>
      <trkpt lat="45.28506" lon="4.54792">
        <ele>625</ele>
        <time>2019-02-26T23:50:17Z</time>
      </trkpt>
      <trkpt lat="45.28509" lon="4.54796">
        <ele>624</ele>
        <time>2019-02-26T23:51:17Z</time>
      </trkpt>
      <trkpt lat="45.28515" lon="4.54799">
        <ele>622</ele>
        <time>2019-02-26T23:52:17Z</time>
      </trkpt>
      <trkpt lat="45.28518" lon="4.54802">
        <ele>621</ele>
        <time>2019-02-26T23:53:17Z</time>
      </trkpt>
      <trkpt lat="45.2852" lon="4.54809">
        <ele>620</ele>
        <time>2019-02-26T23:54:17Z</time>
      </trkpt>
      <trkpt lat="45.28521" lon="4.54816">
        <ele>619</ele>
        <time>2019-02-26T23:55:17Z</time>
      </trkpt>
      <trkpt lat="45.28521" lon="4.54823">
        <ele>619</ele>
        <time>2019-02-26T23:56:17Z</time>
      </trkpt>
      <trkpt lat="45.28521" lon="4.54833">
        <ele>619</ele>
        <time>2019-02-26T23:57:17Z</time>
      </trkpt>
      <trkpt lat="45.28518" lon="4.54841">
        <ele>619</ele>
        <time>2019-02-26T23:58:17Z</time>
      </trkpt>
      <trkpt lat="45.28508" lon="4.54864">
        <ele>619</ele>
        <time>2019-02-26T23:59:17Z</time>
      </trkpt>
      <trkpt lat="45.28501" lon="4.54878">
        <ele>620</ele>
        <time>2019-02-27T00:00:17Z</time>
      </trkpt>
      <trkpt lat="45.28498" lon="4.54886">
        <ele>620</ele>
        <time>2019-02-27T00:01:17Z</time>
      </trkpt>
      <trkpt lat="45.28496" lon="4.54899">
        <ele>619</ele>
        <time>2019-02-27T00:02:17Z</time>
      </trkpt>
      <trkpt lat="45.28493" lon="4.54905">
        <ele>620</ele>
        <time>2019-02-27T00:03:17Z</time>
      </trkpt>
      <trkpt lat="45.28489" lon="4.54912">
        <ele>620</ele>
        <time>2019-02-27T00:04:17Z</time>
      </trkpt>
      <trkpt lat="45.28484" lon="4.54919">
        <ele>622</ele>
        <time>2019-02-27T00:05:17Z</time>
      </trkpt>
      <trkpt lat="45.28482" lon="4.54922">
        <ele>623</ele>
        <time>2019-02-27T00:06:17Z</time>
      </trkpt>
      <trkpt lat="45.28481" lon="4.5494">
        <ele>623</ele>
        <time>2019-02-27T00:07:17Z</time>
      </trkpt>
      <trkpt lat="45.28505" lon="4.54977">
        <ele>614</ele>
        <time>2019-02-27T00:08:17Z</time>
      </trkpt>
      <trkpt lat="45.28504" lon="4.54988">
        <ele>614</ele>
        <time>2019-02-27T00:09:17Z</time>
      </trkpt>
      <trkpt lat="45.28504" lon="4.54995">
        <ele>614</ele>
        <time>2019-02-27T00:10:17Z</time>
      </trkpt>
      <trkpt lat="45.28502" lon="4.55">
        <ele>614</ele>
        <time>2019-02-27T00:11:17Z</time>
      </trkpt>
      <trkpt lat="45.28485" lon="4.55017">
        <ele>624</ele>
        <time>2019-02-27T00:12:17Z</time>
      </trkpt>
      <trkpt lat="45.28482" lon="4.55021">
        <ele>626</ele>
        <time>2019-02-27T00:13:17Z</time>
      </trkpt>
      <trkpt lat="45.28468" lon="4.55028">
        <ele>632</ele>
        <time>2019-02-27T00:14:17Z</time>
      </trkpt>
      <trkpt lat="45.28457" lon="4.55037">
        <ele>638</ele>
        <time>2019-02-27T00:15:17Z</time>
      </trkpt>
      <trkpt lat="45.28452" lon="4.55045">
        <ele>640</ele>
        <time>2019-02-27T00:16:17Z</time>
      </trkpt>
      <trkpt lat="45.2845" lon="4.55052">
        <ele>642</ele>
        <time>2019-02-27T00:17:17Z</time>
      </trkpt>
      <trkpt lat="45.28449" lon="4.55064">
        <ele>643</ele>
        <time>2019-02-27T00:18:17Z</time>
      </trkpt>
      <trkpt lat="45.2845" lon="4.55077">
        <ele>643</ele>
        <time>2019-02-27T00:19:17Z</time>
      </trkpt>
      <trkpt lat="45.28453" lon="4.55086">
        <ele>644</ele>
        <time>2019-02-27T00:20:17Z</time>
      </trkpt>
      <trkpt lat="45.28458" lon="4.55095">
        <ele>645</ele>
        <time>2019-02-27T00:21:17Z</time>
      </trkpt>
      <trkpt lat="45.28467" lon="4.55105">
        <ele>646</ele>
        <time>2019-02-27T00:22:17Z</time>
      </trkpt>
      <trkpt lat="45.28479" lon="4.55117">
        <ele>646</ele>
        <time>2019-02-27T00:23:17Z</time>
      </trkpt>
      <trkpt lat="45.28511" lon="4.55145">
        <ele>648</ele>
        <time>2019-02-27T00:24:17Z</time>
      </trkpt>
      <trkpt lat="45.28523" lon="4.55155">
        <ele>649</ele>
        <time>2019-02-27T00:25:17Z</time>
      </trkpt>
      <trkpt lat="45.28554" lon="4.55187">
        <ele>653</ele>
        <time>2019-02-27T00:26:17Z</time>
      </trkpt>
      <trkpt lat="45.28564" lon="4.55206">
        <ele>655</ele>
        <time>2019-02-27T00:27:17Z</time>
      </trkpt>
      <trkpt lat="45.28569" lon="4.55215">
        <ele>656</ele>
        <time>2019-02-27T00:28:17Z</time>
      </trkpt>
      <trkpt lat="45.28572" lon="4.5523">
        <ele>659</ele>
        <time>2019-02-27T00:29:17Z</time>
      </trkpt>
      <trkpt lat="45.28576" lon="4.55262">
        <ele>664</ele>
        <time>2019-02-27T00:30:17Z</time>
      </trkpt>
      <trkpt lat="45.28578" lon="4.55299">
        <ele>665</ele>
        <time>2019-02-27T00:31:17Z</time>
      </trkpt>
      <trkpt lat="45.28578" lon="4.55321">
        <ele>667</ele>
        <time>2019-02-27T00:32:17Z</time>
      </trkpt>
      <trkpt lat="45.28577" lon="4.55337">
        <ele>668</ele>
        <time>2019-02-27T00:33:17Z</time>
      </trkpt>
      <trkpt lat="45.28574" lon="4.55393">
        <ele>668</ele>
        <time>2019-02-27T00:34:17Z</time>
      </trkpt>
      <trkpt lat="45.28576" lon="4.55404">
        <ele>667</ele>
        <time>2019-02-27T00:35:17Z</time>
      </trkpt>
      <trkpt lat="45.28624" lon="4.55473">
        <ele>659</ele>
        <time>2019-02-27T00:36:17Z</time>
      </trkpt>
      <trkpt lat="45.28627" lon="4.55476">
        <ele>658</ele>
        <time>2019-02-27T00:37:17Z</time>
      </trkpt>
      <trkpt lat="45.2864" lon="4.55491">
        <ele>657</ele>
        <time>2019-02-27T00:38:17Z</time>
      </trkpt>
      <trkpt lat="45.2867" lon="4.55521">
        <ele>657</ele>
        <time>2019-02-27T00:39:17Z</time>
      </trkpt>
      <trkpt lat="45.28715" lon="4.55567">
        <ele>657</ele>
        <time>2019-02-27T00:40:17Z</time>
      </trkpt>
      <trkpt lat="45.28751" lon="4.55608">
        <ele>655</ele>
        <time>2019-02-27T00:41:17Z</time>
      </trkpt>
      <trkpt lat="45.28772" lon="4.55626">
        <ele>654</ele>
        <time>2019-02-27T00:42:17Z</time>
      </trkpt>
      <trkpt lat="45.28796" lon="4.55643">
        <ele>651</ele>
        <time>2019-02-27T00:43:17Z</time>
      </trkpt>
      <trkpt lat="45.28825" lon="4.55659">
        <ele>647</ele>
        <time>2019-02-27T00:44:17Z</time>
      </trkpt>
      <trkpt lat="45.28858" lon="4.5567">
        <ele>645</ele>
        <time>2019-02-27T00:45:17Z</time>
      </trkpt>
      <trkpt lat="45.28939" lon="4.5569">
        <ele>640</ele>
        <time>2019-02-27T00:46:17Z</time>
      </trkpt>
      <trkpt lat="45.28954" lon="4.55693">
        <ele>639</ele>
        <time>2019-02-27T00:47:17Z</time>
      </trkpt>
      <trkpt lat="45.28987" lon="4.55705">
        <ele>638</ele>
        <time>2019-02-27T00:48:17Z</time>
      </trkpt>
      <trkpt lat="45.29005" lon="4.55712">
        <ele>637</ele>
        <time>2019-02-27T00:49:17Z</time>
      </trkpt>
      <trkpt lat="45.29026" lon="4.5573">
        <ele>636</ele>
        <time>2019-02-27T00:50:17Z</time>
      </trkpt>
      <trkpt lat="45.29053" lon="4.5575">
        <ele>635</ele>
        <time>2019-02-27T00:51:17Z</time>
      </trkpt>
      <trkpt lat="45.2913" lon="4.55823">
        <ele>632</ele>
        <time>2019-02-27T00:52:17Z</time>
      </trkpt>
      <trkpt lat="45.29154" lon="4.55848">
        <ele>632</ele>
        <time>2019-02-27T00:53:17Z</time>
      </trkpt>
      <trkpt lat="45.29182" lon="4.55878">
        <ele>628</ele>
        <time>2019-02-27T00:54:17Z</time>
      </trkpt>
      <trkpt lat="45.29205" lon="4.55908">
        <ele>624</ele>
        <time>2019-02-27T00:55:17Z</time>
      </trkpt>
      <trkpt lat="45.29222" lon="4.55938">
        <ele>622</ele>
        <time>2019-02-27T00:56:17Z</time>
      </trkpt>
      <trkpt lat="45.2924" lon="4.55977">
        <ele>623</ele>
        <time>2019-02-27T00:57:17Z</time>
      </trkpt>
      <trkpt lat="45.2926" lon="4.56044">
        <ele>625</ele>
        <time>2019-02-27T00:58:17Z</time>
      </trkpt>
      <trkpt lat="45.29277" lon="4.56105">
        <ele>625</ele>
        <time>2019-02-27T00:59:17Z</time>
      </trkpt>
      <trkpt lat="45.29289" lon="4.56166">
        <ele>624</ele>
        <time>2019-02-27T01:00:17Z</time>
      </trkpt>
      <trkpt lat="45.29296" lon="4.56246">
        <ele>623</ele>
        <time>2019-02-27T01:01:17Z</time>
      </trkpt>
      <trkpt lat="45.29295" lon="4.56322">
        <ele>620</ele>
        <time>2019-02-27T01:02:17Z</time>
      </trkpt>
      <trkpt lat="45.29286" lon="4.56392">
        <ele>616</ele>
        <time>2019-02-27T01:03:17Z</time>
      </trkpt>
      <trkpt lat="45.29272" lon="4.56461">
        <ele>614</ele>
        <time>2019-02-27T01:04:17Z</time>
      </trkpt>
      <trkpt lat="45.29263" lon="4.56517">
        <ele>612</ele>
        <time>2019-02-27T01:05:17Z</time>
      </trkpt>
      <trkpt lat="45.29248" lon="4.56581">
        <ele>611</ele>
        <time>2019-02-27T01:06:17Z</time>
      </trkpt>
      <trkpt lat="45.29232" lon="4.56626">
        <ele>609</ele>
        <time>2019-02-27T01:07:17Z</time>
      </trkpt>
      <trkpt lat="45.29207" lon="4.56671">
        <ele>608</ele>
        <time>2019-02-27T01:08:17Z</time>
      </trkpt>
      <trkpt lat="45.29186" lon="4.5671">
        <ele>607</ele>
        <time>2019-02-27T01:09:17Z</time>
      </trkpt>
      <trkpt lat="45.29153" lon="4.56751">
        <ele>605</ele>
        <time>2019-02-27T01:10:17Z</time>
      </trkpt>
      <trkpt lat="45.29135" lon="4.56773">
        <ele>603</ele>
        <time>2019-02-27T01:11:17Z</time>
      </trkpt>
      <trkpt lat="45.29098" lon="4.56844">
        <ele>600</ele>
        <time>2019-02-27T01:12:17Z</time>
      </trkpt>
      <trkpt lat="45.29087" lon="4.56856">
        <ele>601</ele>
        <time>2019-02-27T01:13:17Z</time>
      </trkpt>
      <trkpt lat="45.29088" lon="4.56856">
        <ele>601</ele>
        <time>2019-02-27T01:14:17Z</time>
      </trkpt>
      <trkpt lat="45.29087" lon="4.56877">
        <ele>600</ele>
        <time>2019-02-27T01:15:17Z</time>
      </trkpt>
      <trkpt lat="45.29074" lon="4.56936">
        <ele>600</ele>
        <time>2019-02-27T01:16:17Z</time>
      </trkpt>
      <trkpt lat="45.2907" lon="4.56971">
        <ele>599</ele>
        <time>2019-02-27T01:17:17Z</time>
      </trkpt>
      <trkpt lat="45.29069" lon="4.56987">
        <ele>598</ele>
        <time>2019-02-27T01:18:17Z</time>
      </trkpt>
      <trkpt lat="45.29068" lon="4.57012">
        <ele>597</ele>
        <time>2019-02-27T01:19:17Z</time>
      </trkpt>
      <trkpt lat="45.29064" lon="4.57058">
        <ele>595</ele>
        <time>2019-02-27T01:20:17Z</time>
      </trkpt>
      <trkpt lat="45.29069" lon="4.57115">
        <ele>596</ele>
        <time>2019-02-27T01:21:17Z</time>
      </trkpt>
      <trkpt lat="45.29076" lon="4.57145">
        <ele>597</ele>
        <time>2019-02-27T01:22:17Z</time>
      </trkpt>
      <trkpt lat="45.29083" lon="4.57185">
        <ele>599</ele>
        <time>2019-02-27T01:23:17Z</time>
      </trkpt>
      <trkpt lat="45.29098" lon="4.57346">
        <ele>604</ele>
        <time>2019-02-27T01:24:17Z</time>
      </trkpt>
      <trkpt lat="45.29073" lon="4.57496">
        <ele>604</ele>
        <time>2019-02-27T01:25:17Z</time>
      </trkpt>
      <trkpt lat="45.29005" lon="4.57757">
        <ele>599</ele>
        <time>2019-02-27T01:26:17Z</time>
      </trkpt>
      <trkpt lat="45.28971" lon="4.57853">
        <ele>591</ele>
        <time>2019-02-27T01:27:17Z</time>
      </trkpt>
      <trkpt lat="45.28972" lon="4.57965">
        <ele>571</ele>
        <time>2019-02-27T01:28:17Z</time>
      </trkpt>
      <trkpt lat="45.28955" lon="4.58043">
        <ele>564</ele>
        <time>2019-02-27T01:29:17Z</time>
      </trkpt>
      <trkpt lat="45.28961" lon="4.58143">
        <ele>548</ele>
        <time>2019-02-27T01:30:17Z</time>
      </trkpt>
      <trkpt lat="45.28976" lon="4.58204">
        <ele>537</ele>
        <time>2019-02-27T01:31:17Z</time>
      </trkpt>
      <trkpt lat="45.29006" lon="4.58184">
        <ele>531</ele>
        <time>2019-02-27T01:32:17Z</time>
      </trkpt>
      <trkpt lat="45.29028" lon="4.58187">
        <ele>528</ele>
        <time>2019-02-27T01:33:17Z</time>
      </trkpt>
      <trkpt lat="45.29043" lon="4.5822">
        <ele>525</ele>
        <time>2019-02-27T01:34:17Z</time>
      </trkpt>
      <trkpt lat="45.29068" lon="4.58225">
        <ele>521</ele>
        <time>2019-02-27T01:35:17Z</time>
      </trkpt>
      <trkpt lat="45.29077" lon="4.58286">
        <ele>518</ele>
        <time>2019-02-27T01:36:17Z</time>
      </trkpt>
      <trkpt lat="45.29084" lon="4.58328">
        <ele>516</ele>
        <time>2019-02-27T01:37:17Z</time>
      </trkpt>
      <trkpt lat="45.2909" lon="4.58386">
        <ele>514</ele>
        <time>2019-02-27T01:38:17Z</time>
      </trkpt>
      <trkpt lat="45.29093" lon="4.58404">
        <ele>514</ele>
        <time>2019-02-27T01:39:17Z</time>
      </trkpt>
      <trkpt lat="45.29096" lon="4.58403">
        <ele>514</ele>
        <time>2019-02-27T01:40:17Z</time>
      </trkpt>
      <trkpt lat="45.29094" lon="4.58404">
        <ele>514</ele>
        <time>2019-02-27T01:41:17Z</time>
      </trkpt>
      <trkpt lat="45.29092" lon="4.58408">
        <ele>514</ele>
        <time>2019-02-27T01:42:17Z</time>
      </trkpt>
      <trkpt lat="45.29091" lon="4.58423">
        <ele>513</ele>
        <time>2019-02-27T01:43:17Z</time>
      </trkpt>
      <trkpt lat="45.29093" lon="4.5848">
        <ele>510</ele>
        <time>2019-02-27T01:44:17Z</time>
      </trkpt>
      <trkpt lat="45.29089" lon="4.58531">
        <ele>508</ele>
        <time>2019-02-27T01:45:17Z</time>
      </trkpt>
      <trkpt lat="45.29084" lon="4.58584">
        <ele>507</ele>
        <time>2019-02-27T01:46:17Z</time>
      </trkpt>
      <trkpt lat="45.29075" lon="4.58649">
        <ele>505</ele>
        <time>2019-02-27T01:47:17Z</time>
      </trkpt>
      <trkpt lat="45.29068" lon="4.58703">
        <ele>503</ele>
        <time>2019-02-27T01:48:17Z</time>
      </trkpt>
      <trkpt lat="45.29055" lon="4.58787">
        <ele>501</ele>
        <time>2019-02-27T01:49:17Z</time>
      </trkpt>
      <trkpt lat="45.29048" lon="4.58847">
        <ele>501</ele>
        <time>2019-02-27T01:50:17Z</time>
      </trkpt>
      <trkpt lat="45.29042" lon="4.58879">
        <ele>500</ele>
        <time>2019-02-27T01:51:17Z</time>
      </trkpt>
      <trkpt lat="45.29033" lon="4.58916">
        <ele>500</ele>
        <time>2019-02-27T01:52:17Z</time>
      </trkpt>
      <trkpt lat="45.29028" lon="4.58928">
        <ele>500</ele>
        <time>2019-02-27T01:53:17Z</time>
      </trkpt>
      <trkpt lat="45.29023" lon="4.58946">
        <ele>500</ele>
        <time>2019-02-27T01:54:17Z</time>
      </trkpt>
      <trkpt lat="45.29004" lon="4.59004">
        <ele>498</ele>
        <time>2019-02-27T01:55:17Z</time>
      </trkpt>
      <trkpt lat="45.29" lon="4.59015">
        <ele>498</ele>
        <time>2019-02-27T01:56:17Z</time>
      </trkpt>
      <trkpt lat="45.2898" lon="4.5906">
        <ele>497</ele>
        <time>2019-02-27T01:57:17Z</time>
      </trkpt>
      <trkpt lat="45.28967" lon="4.59089">
        <ele>497</ele>
        <time>2019-02-27T01:58:17Z</time>
      </trkpt>
      <trkpt lat="45.28949" lon="4.5912">
        <ele>497</ele>
        <time>2019-02-27T01:59:17Z</time>
      </trkpt>
      <trkpt lat="45.28927" lon="4.59163">
        <ele>496</ele>
        <time>2019-02-27T02:00:17Z</time>
      </trkpt>
      <trkpt lat="45.28918" lon="4.59182">
        <ele>495</ele>
        <time>2019-02-27T02:01:17Z</time>
      </trkpt>
      <trkpt lat="45.28909" lon="4.59202">
        <ele>495</ele>
        <time>2019-02-27T02:02:17Z</time>
      </trkpt>
      <trkpt lat="45.28891" lon="4.59247">
        <ele>494</ele>
        <time>2019-02-27T02:03:17Z</time>
      </trkpt>
      <trkpt lat="45.28885" lon="4.59266">
        <ele>494</ele>
        <time>2019-02-27T02:04:17Z</time>
      </trkpt>
      <trkpt lat="45.28875" lon="4.59303">
        <ele>493</ele>
        <time>2019-02-27T02:05:17Z</time>
      </trkpt>
      <trkpt lat="45.2887" lon="4.59323">
        <ele>493</ele>
        <time>2019-02-27T02:06:17Z</time>
      </trkpt>
      <trkpt lat="45.2883" lon="4.59513">
        <ele>491</ele>
        <time>2019-02-27T02:07:17Z</time>
      </trkpt>
      <trkpt lat="45.28822" lon="4.59549">
        <ele>488</ele>
        <time>2019-02-27T02:08:17Z</time>
      </trkpt>
      <trkpt lat="45.28818" lon="4.59572">
        <ele>487</ele>
        <time>2019-02-27T02:09:17Z</time>
      </trkpt>
      <trkpt lat="45.28804" lon="4.5964">
        <ele>489</ele>
        <time>2019-02-27T02:10:17Z</time>
      </trkpt>
      <trkpt lat="45.28803" lon="4.59647">
        <ele>489</ele>
        <time>2019-02-27T02:11:17Z</time>
      </trkpt>
      <trkpt lat="45.28797" lon="4.5969">
        <ele>490</ele>
        <time>2019-02-27T02:12:17Z</time>
      </trkpt>
      <trkpt lat="45.28796" lon="4.59697">
        <ele>490</ele>
        <time>2019-02-27T02:13:17Z</time>
      </trkpt>
      <trkpt lat="45.28795" lon="4.5972">
        <ele>490</ele>
        <time>2019-02-27T02:14:17Z</time>
      </trkpt>
      <trkpt lat="45.28794" lon="4.59725">
        <ele>490</ele>
        <time>2019-02-27T02:15:17Z</time>
      </trkpt>
      <trkpt lat="45.28794" lon="4.59777">
        <ele>490</ele>
        <time>2019-02-27T02:16:17Z</time>
      </trkpt>
      <trkpt lat="45.28796" lon="4.59789">
        <ele>489</ele>
        <time>2019-02-27T02:17:17Z</time>
      </trkpt>
      <trkpt lat="45.28803" lon="4.59842">
        <ele>489</ele>
        <time>2019-02-27T02:18:17Z</time>
      </trkpt>
      <trkpt lat="45.28807" lon="4.59861">
        <ele>489</ele>
        <time>2019-02-27T02:19:17Z</time>
      </trkpt>
      <trkpt lat="45.28809" lon="4.59871">
        <ele>490</ele>
        <time>2019-02-27T02:20:17Z</time>
      </trkpt>
      <trkpt lat="45.28811" lon="4.5988">
        <ele>490</ele>
        <time>2019-02-27T02:21:17Z</time>
      </trkpt>
      <trkpt lat="45.28815" lon="4.59888">
        <ele>490</ele>
        <time>2019-02-27T02:22:17Z</time>
      </trkpt>
      <trkpt lat="45.2882" lon="4.59903">
        <ele>489</ele>
        <time>2019-02-27T02:23:17Z</time>
      </trkpt>
      <trkpt lat="45.28825" lon="4.59916">
        <ele>489</ele>
        <time>2019-02-27T02:24:17Z</time>
      </trkpt>
      <trkpt lat="45.2883" lon="4.5993">
        <ele>490</ele>
        <time>2019-02-27T02:25:17Z</time>
      </trkpt>
      <trkpt lat="45.28846" lon="4.59963">
        <ele>493</ele>
        <time>2019-02-27T02:26:17Z</time>
      </trkpt>
      <trkpt lat="45.28855" lon="4.5998">
        <ele>494</ele>
        <time>2019-02-27T02:27:17Z</time>
      </trkpt>
      <trkpt lat="45.28865" lon="4.59996">
        <ele>494</ele>
        <time>2019-02-27T02:28:17Z</time>
      </trkpt>
      <trkpt lat="45.28885" lon="4.60024">
        <ele>492</ele>
        <time>2019-02-27T02:29:17Z</time>
      </trkpt>
      <trkpt lat="45.28896" lon="4.60039">
        <ele>490</ele>
        <time>2019-02-27T02:30:17Z</time>
      </trkpt>
      <trkpt lat="45.28909" lon="4.60055">
        <ele>488</ele>
        <time>2019-02-27T02:31:17Z</time>
      </trkpt>
      <trkpt lat="45.2892" lon="4.60067">
        <ele>486</ele>
        <time>2019-02-27T02:32:17Z</time>
      </trkpt>
      <trkpt lat="45.28928" lon="4.60074">
        <ele>486</ele>
        <time>2019-02-27T02:33:17Z</time>
      </trkpt>
      <trkpt lat="45.2894" lon="4.60085">
        <ele>485</ele>
        <time>2019-02-27T02:34:17Z</time>
      </trkpt>
      <trkpt lat="45.28953" lon="4.60095">
        <ele>483</ele>
        <time>2019-02-27T02:35:17Z</time>
      </trkpt>
      <trkpt lat="45.28967" lon="4.60106">
        <ele>480</ele>
        <time>2019-02-27T02:36:17Z</time>
      </trkpt>
      <trkpt lat="45.29012" lon="4.60131">
        <ele>473</ele>
        <time>2019-02-27T02:37:17Z</time>
      </trkpt>
      <trkpt lat="45.29032" lon="4.60143">
        <ele>472</ele>
        <time>2019-02-27T02:38:17Z</time>
      </trkpt>
      <trkpt lat="45.29041" lon="4.60149">
        <ele>472</ele>
        <time>2019-02-27T02:39:17Z</time>
      </trkpt>
      <trkpt lat="45.29048" lon="4.60154">
        <ele>472</ele>
        <time>2019-02-27T02:40:17Z</time>
      </trkpt>
      <trkpt lat="45.29056" lon="4.6016">
        <ele>472</ele>
        <time>2019-02-27T02:41:17Z</time>
      </trkpt>
      <trkpt lat="45.29066" lon="4.60166">
        <ele>471</ele>
        <time>2019-02-27T02:42:17Z</time>
      </trkpt>
      <trkpt lat="45.29096" lon="4.60193">
        <ele>470</ele>
        <time>2019-02-27T02:43:17Z</time>
      </trkpt>
      <trkpt lat="45.29108" lon="4.60207">
        <ele>470</ele>
        <time>2019-02-27T02:44:17Z</time>
      </trkpt>
      <trkpt lat="45.29116" lon="4.60218">
        <ele>470</ele>
        <time>2019-02-27T02:45:17Z</time>
      </trkpt>
      <trkpt lat="45.29137" lon="4.60248">
        <ele>470</ele>
        <time>2019-02-27T02:46:17Z</time>
      </trkpt>
      <trkpt lat="45.2916" lon="4.60294">
        <ele>470</ele>
        <time>2019-02-27T02:47:17Z</time>
      </trkpt>
      <trkpt lat="45.29169" lon="4.60312">
        <ele>470</ele>
        <time>2019-02-27T02:48:17Z</time>
      </trkpt>
      <trkpt lat="45.29174" lon="4.60328">
        <ele>472</ele>
        <time>2019-02-27T02:49:17Z</time>
      </trkpt>
      <trkpt lat="45.29179" lon="4.60344">
        <ele>472</ele>
        <time>2019-02-27T02:50:17Z</time>
      </trkpt>
      <trkpt lat="45.29185" lon="4.60366">
        <ele>473</ele>
        <time>2019-02-27T02:51:17Z</time>
      </trkpt>
      <trkpt lat="45.29194" lon="4.60405">
        <ele>475</ele>
        <time>2019-02-27T02:52:17Z</time>
      </trkpt>
      <trkpt lat="45.29198" lon="4.60434">
        <ele>475</ele>
        <time>2019-02-27T02:53:17Z</time>
      </trkpt>
      <trkpt lat="45.29201" lon="4.60463">
        <ele>475</ele>
        <time>2019-02-27T02:54:17Z</time>
      </trkpt>
      <trkpt lat="45.29204" lon="4.60504">
        <ele>474</ele>
        <time>2019-02-27T02:55:17Z</time>
      </trkpt>
      <trkpt lat="45.29213" lon="4.60619">
        <ele>470</ele>
        <time>2019-02-27T02:56:17Z</time>
      </trkpt>
      <trkpt lat="45.29227" lon="4.60772">
        <ele>466</ele>
        <time>2019-02-27T02:57:17Z</time>
      </trkpt>
      <trkpt lat="45.29231" lon="4.60803">
        <ele>465</ele>
        <time>2019-02-27T02:58:17Z</time>
      </trkpt>
      <trkpt lat="45.29235" lon="4.60867">
        <ele>463</ele>
        <time>2019-02-27T02:59:17Z</time>
      </trkpt>
      <trkpt lat="45.29237" lon="4.60906">
        <ele>462</ele>
        <time>2019-02-27T03:00:17Z</time>
      </trkpt>
      <trkpt lat="45.29241" lon="4.60934">
        <ele>462</ele>
        <time>2019-02-27T03:01:17Z</time>
      </trkpt>
      <trkpt lat="45.29243" lon="4.60954">
        <ele>462</ele>
        <time>2019-02-27T03:02:17Z</time>
      </trkpt>
      <trkpt lat="45.29243" lon="4.60986">
        <ele>462</ele>
        <time>2019-02-27T03:03:17Z</time>
      </trkpt>
      <trkpt lat="45.29238" lon="4.61096">
        <ele>462</ele>
        <time>2019-02-27T03:04:17Z</time>
      </trkpt>
      <trkpt lat="45.29236" lon="4.61118">
        <ele>462</ele>
        <time>2019-02-27T03:05:17Z</time>
      </trkpt>
      <trkpt lat="45.29228" lon="4.6117">
        <ele>462</ele>
        <time>2019-02-27T03:06:17Z</time>
      </trkpt>
      <trkpt lat="45.29218" lon="4.61216">
        <ele>463</ele>
        <time>2019-02-27T03:07:17Z</time>
      </trkpt>
      <trkpt lat="45.2921" lon="4.61259">
        <ele>463</ele>
        <time>2019-02-27T03:08:17Z</time>
      </trkpt>
      <trkpt lat="45.29203" lon="4.61321">
        <ele>465</ele>
        <time>2019-02-27T03:09:17Z</time>
      </trkpt>
      <trkpt lat="45.29205" lon="4.6138">
        <ele>464</ele>
        <time>2019-02-27T03:10:17Z</time>
      </trkpt>
      <trkpt lat="45.29211" lon="4.61404">
        <ele>465</ele>
        <time>2019-02-27T03:11:17Z</time>
      </trkpt>
      <trkpt lat="45.29228" lon="4.61468">
        <ele>462</ele>
        <time>2019-02-27T03:12:17Z</time>
      </trkpt>
      <trkpt lat="45.29237" lon="4.615">
        <ele>460</ele>
        <time>2019-02-27T03:13:17Z</time>
      </trkpt>
      <trkpt lat="45.29258" lon="4.61579">
        <ele>457</ele>
        <time>2019-02-27T03:14:17Z</time>
      </trkpt>
      <trkpt lat="45.2927" lon="4.61628">
        <ele>458</ele>
        <time>2019-02-27T03:15:17Z</time>
      </trkpt>
      <trkpt lat="45.29273" lon="4.61659">
        <ele>456</ele>
        <time>2019-02-27T03:16:17Z</time>
      </trkpt>
      <trkpt lat="45.29275" lon="4.61676">
        <ele>456</ele>
        <time>2019-02-27T03:17:17Z</time>
      </trkpt>
      <trkpt lat="45.29275" lon="4.61714">
        <ele>454</ele>
        <time>2019-02-27T03:18:17Z</time>
      </trkpt>
      <trkpt lat="45.29275" lon="4.61742">
        <ele>453</ele>
        <time>2019-02-27T03:19:17Z</time>
      </trkpt>
      <trkpt lat="45.29272" lon="4.6179">
        <ele>452</ele>
        <time>2019-02-27T03:20:17Z</time>
      </trkpt>
      <trkpt lat="45.29271" lon="4.6181">
        <ele>452</ele>
        <time>2019-02-27T03:21:17Z</time>
      </trkpt>
      <trkpt lat="45.29264" lon="4.61842">
        <ele>451</ele>
        <time>2019-02-27T03:22:17Z</time>
      </trkpt>
      <trkpt lat="45.29264" lon="4.61854">
        <ele>451</ele>
        <time>2019-02-27T03:23:17Z</time>
      </trkpt>
      <trkpt lat="45.29261" lon="4.61881">
        <ele>451</ele>
        <time>2019-02-27T03:24:17Z</time>
      </trkpt>
      <trkpt lat="45.29257" lon="4.61908">
        <ele>450</ele>
        <time>2019-02-27T03:25:17Z</time>
      </trkpt>
      <trkpt lat="45.29255" lon="4.61925">
        <ele>450</ele>
        <time>2019-02-27T03:26:17Z</time>
      </trkpt>
      <trkpt lat="45.2925" lon="4.61956">
        <ele>449</ele>
        <time>2019-02-27T03:27:17Z</time>
      </trkpt>
      <trkpt lat="45.29245" lon="4.61986">
        <ele>449</ele>
        <time>2019-02-27T03:28:17Z</time>
      </trkpt>
      <trkpt lat="45.29234" lon="4.62076">
        <ele>448</ele>
        <time>2019-02-27T03:29:17Z</time>
      </trkpt>
      <trkpt lat="45.29229" lon="4.62104">
        <ele>448</ele>
        <time>2019-02-27T03:30:17Z</time>
      </trkpt>
      <trkpt lat="45.29225" lon="4.62137">
        <ele>449</ele>
        <time>2019-02-27T03:31:17Z</time>
      </trkpt>
      <trkpt lat="45.29224" lon="4.62159">
        <ele>449</ele>
        <time>2019-02-27T03:32:17Z</time>
      </trkpt>
      <trkpt lat="45.2922" lon="4.62186">
        <ele>449</ele>
        <time>2019-02-27T03:33:17Z</time>
      </trkpt>
      <trkpt lat="45.29214" lon="4.62225">
        <ele>449</ele>
        <time>2019-02-27T03:34:17Z</time>
      </trkpt>
      <trkpt lat="45.2921" lon="4.62254">
        <ele>450</ele>
        <time>2019-02-27T03:35:17Z</time>
      </trkpt>
      <trkpt lat="45.29207" lon="4.62282">
        <ele>450</ele>
        <time>2019-02-27T03:36:17Z</time>
      </trkpt>
      <trkpt lat="45.29206" lon="4.6229">
        <ele>450</ele>
        <time>2019-02-27T03:37:17Z</time>
      </trkpt>
      <trkpt lat="45.29202" lon="4.62304">
        <ele>450</ele>
        <time>2019-02-27T03:38:17Z</time>
      </trkpt>
      <trkpt lat="45.29166" lon="4.62563">
        <ele>446</ele>
        <time>2019-02-27T03:39:17Z</time>
      </trkpt>
      <trkpt lat="45.29157" lon="4.62629">
        <ele>447</ele>
        <time>2019-02-27T03:40:17Z</time>
      </trkpt>
      <trkpt lat="45.29145" lon="4.6267">
        <ele>447</ele>
        <time>2019-02-27T03:41:17Z</time>
      </trkpt>
      <trkpt lat="45.29122" lon="4.62743">
        <ele>444</ele>
        <time>2019-02-27T03:42:17Z</time>
      </trkpt>
      <trkpt lat="45.2908" lon="4.62826">
        <ele>442</ele>
        <time>2019-02-27T03:43:17Z</time>
      </trkpt>
      <trkpt lat="45.29043" lon="4.62875">
        <ele>443</ele>
        <time>2019-02-27T03:44:17Z</time>
      </trkpt>
      <trkpt lat="45.28965" lon="4.62942">
        <ele>442</ele>
        <time>2019-02-27T03:45:17Z</time>
      </trkpt>
      <trkpt lat="45.28946" lon="4.62959">
        <ele>443</ele>
        <time>2019-02-27T03:46:17Z</time>
      </trkpt>
      <trkpt lat="45.2878" lon="4.63011">
        <ele>439</ele>
        <time>2019-02-27T03:47:17Z</time>
      </trkpt>
      <trkpt lat="45.28724" lon="4.6303">
        <ele>440</ele>
        <time>2019-02-27T03:48:17Z</time>
      </trkpt>
      <trkpt lat="45.28691" lon="4.63051">
        <ele>440</ele>
        <time>2019-02-27T03:49:17Z</time>
      </trkpt>
      <trkpt lat="45.28618" lon="4.63076">
        <ele>438</ele>
        <time>2019-02-27T03:50:17Z</time>
      </trkpt>
      <trkpt lat="45.28524" lon="4.63108">
        <ele>436</ele>
        <time>2019-02-27T03:51:17Z</time>
      </trkpt>
      <trkpt lat="45.28508" lon="4.63104">
        <ele>435</ele>
        <time>2019-02-27T03:52:17Z</time>
      </trkpt>
      <trkpt lat="45.28488" lon="4.63111">
        <ele>434</ele>
        <time>2019-02-27T03:53:17Z</time>
      </trkpt>
      <trkpt lat="45.28453" lon="4.63129">
        <ele>434</ele>
        <time>2019-02-27T03:54:17Z</time>
      </trkpt>
      <trkpt lat="45.28411" lon="4.6316">
        <ele>432</ele>
        <time>2019-02-27T03:55:17Z</time>
      </trkpt>
      <trkpt lat="45.28409" lon="4.6318">
        <ele>433</ele>
        <time>2019-02-27T03:56:17Z</time>
      </trkpt>
      <trkpt lat="45.284" lon="4.6319">
        <ele>433</ele>
        <time>2019-02-27T03:57:17Z</time>
      </trkpt>
      <trkpt lat="45.28375" lon="4.63216">
        <ele>433</ele>
        <time>2019-02-27T03:58:17Z</time>
      </trkpt>
      <trkpt lat="45.28364" lon="4.63239">
        <ele>433</ele>
        <time>2019-02-27T03:59:17Z</time>
      </trkpt>
      <trkpt lat="45.28301" lon="4.63389">
        <ele>432</ele>
        <time>2019-02-27T04:00:17Z</time>
      </trkpt>
      <trkpt lat="45.28277" lon="4.63433">
        <ele>430</ele>
        <time>2019-02-27T04:01:17Z</time>
      </trkpt>
      <trkpt lat="45.28211" lon="4.6354">
        <ele>428</ele>
        <time>2019-02-27T04:02:17Z</time>
      </trkpt>
      <trkpt lat="45.28194" lon="4.6355">
        <ele>428</ele>
        <time>2019-02-27T04:03:17Z</time>
      </trkpt>
      <trkpt lat="45.28135" lon="4.63682">
        <ele>430</ele>
        <time>2019-02-27T04:04:17Z</time>
      </trkpt>
      <trkpt lat="45.28118" lon="4.63664">
        <ele>428</ele>
        <time>2019-02-27T04:05:17Z</time>
      </trkpt>
      <trkpt lat="45.28093" lon="4.63729">
        <ele>427</ele>
        <time>2019-02-27T04:06:17Z</time>
      </trkpt>
      <trkpt lat="45.28077" lon="4.6376">
        <ele>427</ele>
        <time>2019-02-27T04:07:17Z</time>
      </trkpt>
      <trkpt lat="45.28068" lon="4.63789">
        <ele>426</ele>
        <time>2019-02-27T04:08:17Z</time>
      </trkpt>
      <trkpt lat="45.28059" lon="4.63834">
        <ele>426</ele>
        <time>2019-02-27T04:09:17Z</time>
      </trkpt>
      <trkpt lat="45.28019" lon="4.63919">
        <ele>424</ele>
        <time>2019-02-27T04:10:17Z</time>
      </trkpt>
      <trkpt lat="45.2795" lon="4.64083">
        <ele>423</ele>
        <time>2019-02-27T04:11:17Z</time>
      </trkpt>
      <trkpt lat="45.27868" lon="4.64263">
        <ele>422</ele>
        <time>2019-02-27T04:12:17Z</time>
      </trkpt>
      <trkpt lat="45.27831" lon="4.64359">
        <ele>420</ele>
        <time>2019-02-27T04:13:17Z</time>
      </trkpt>
      <trkpt lat="45.27645" lon="4.64763">
        <ele>415</ele>
        <time>2019-02-27T04:14:17Z</time>
      </trkpt>
      <trkpt lat="45.27594" lon="4.64829">
        <ele>414</ele>
        <time>2019-02-27T04:15:17Z</time>
      </trkpt>
      <trkpt lat="45.27544" lon="4.64868">
        <ele>414</ele>
        <time>2019-02-27T04:16:17Z</time>
      </trkpt>
      <trkpt lat="45.27477" lon="4.64903">
        <ele>415</ele>
        <time>2019-02-27T04:17:17Z</time>
      </trkpt>
      <trkpt lat="45.27433" lon="4.6491">
        <ele>414</ele>
        <time>2019-02-27T04:18:17Z</time>
      </trkpt>
      <trkpt lat="45.27364" lon="4.64907">
        <ele>412</ele>
        <time>2019-02-27T04:19:17Z</time>
      </trkpt>
      <trkpt lat="45.27309" lon="4.64889">
        <ele>411</ele>
        <time>2019-02-27T04:20:17Z</time>
      </trkpt>
      <trkpt lat="45.27231" lon="4.64857">
        <ele>412</ele>
        <time>2019-02-27T04:21:17Z</time>
      </trkpt>
      <trkpt lat="45.27185" lon="4.64845">
        <ele>411</ele>
        <time>2019-02-27T04:22:17Z</time>
      </trkpt>
      <trkpt lat="45.27117" lon="4.64847">
        <ele>411</ele>
        <time>2019-02-27T04:23:17Z</time>
      </trkpt>
      <trkpt lat="45.27056" lon="4.64869">
        <ele>412</ele>
        <time>2019-02-27T04:24:17Z</time>
      </trkpt>
      <trkpt lat="45.27049" lon="4.64872">
        <ele>412</ele>
        <time>2019-02-27T04:25:17Z</time>
      </trkpt>
      <trkpt lat="45.27005" lon="4.64913">
        <ele>411</ele>
        <time>2019-02-27T04:26:17Z</time>
      </trkpt>
      <trkpt lat="45.26947" lon="4.64992">
        <ele>410</ele>
        <time>2019-02-27T04:27:17Z</time>
      </trkpt>
      <trkpt lat="45.26937" lon="4.65011">
        <ele>409</ele>
        <time>2019-02-27T04:28:17Z</time>
      </trkpt>
      <trkpt lat="45.26916" lon="4.65063">
        <ele>407</ele>
        <time>2019-02-27T04:29:17Z</time>
      </trkpt>
      <trkpt lat="45.26902" lon="4.65115">
        <ele>408</ele>
        <time>2019-02-27T04:30:17Z</time>
      </trkpt>
      <trkpt lat="45.26894" lon="4.65169">
        <ele>410</ele>
        <time>2019-02-27T04:31:17Z</time>
      </trkpt>
      <trkpt lat="45.26892" lon="4.6519">
        <ele>410</ele>
        <time>2019-02-27T04:32:17Z</time>
      </trkpt>
      <trkpt lat="45.26886" lon="4.65204">
        <ele>411</ele>
        <time>2019-02-27T04:33:17Z</time>
      </trkpt>
      <trkpt lat="45.26885" lon="4.65217">
        <ele>411</ele>
        <time>2019-02-27T04:34:17Z</time>
      </trkpt>
      <trkpt lat="45.26882" lon="4.65223">
        <ele>411</ele>
        <time>2019-02-27T04:35:17Z</time>
      </trkpt>
      <trkpt lat="45.2688" lon="4.65234">
        <ele>411</ele>
        <time>2019-02-27T04:36:17Z</time>
      </trkpt>
      <trkpt lat="45.2688" lon="4.65244">
        <ele>411</ele>
        <time>2019-02-27T04:37:17Z</time>
      </trkpt>
      <trkpt lat="45.26888" lon="4.65262">
        <ele>410</ele>
        <time>2019-02-27T04:38:17Z</time>
      </trkpt>
      <trkpt lat="45.26895" lon="4.65275">
        <ele>409</ele>
        <time>2019-02-27T04:39:17Z</time>
      </trkpt>
      <trkpt lat="45.269" lon="4.65305">
        <ele>408</ele>
        <time>2019-02-27T04:40:17Z</time>
      </trkpt>
      <trkpt lat="45.26903" lon="4.65329">
        <ele>407</ele>
        <time>2019-02-27T04:41:17Z</time>
      </trkpt>
      <trkpt lat="45.26899" lon="4.65363">
        <ele>406</ele>
        <time>2019-02-27T04:42:17Z</time>
      </trkpt>
      <trkpt lat="45.26908" lon="4.65513">
        <ele>413</ele>
        <time>2019-02-27T04:43:17Z</time>
      </trkpt>
      <trkpt lat="45.2691" lon="4.65544">
        <ele>417</ele>
        <time>2019-02-27T04:44:17Z</time>
      </trkpt>
      <trkpt lat="45.26928" lon="4.65649">
        <ele>424</ele>
        <time>2019-02-27T04:45:17Z</time>
      </trkpt>
      <trkpt lat="45.26959" lon="4.65782">
        <ele>417</ele>
        <time>2019-02-27T04:46:17Z</time>
      </trkpt>
      <trkpt lat="45.26967" lon="4.65857">
        <ele>415</ele>
        <time>2019-02-27T04:47:17Z</time>
      </trkpt>
      <trkpt lat="45.2696" lon="4.65932">
        <ele>413</ele>
        <time>2019-02-27T04:48:17Z</time>
      </trkpt>
      <trkpt lat="45.26938" lon="4.66046">
        <ele>411</ele>
        <time>2019-02-27T04:49:17Z</time>
      </trkpt>
      <trkpt lat="45.26921" lon="4.66086">
        <ele>410</ele>
        <time>2019-02-27T04:50:17Z</time>
      </trkpt>
      <trkpt lat="45.26875" lon="4.6616">
        <ele>410</ele>
        <time>2019-02-27T04:51:17Z</time>
      </trkpt>
      <trkpt lat="45.2683" lon="4.66221">
        <ele>410</ele>
        <time>2019-02-27T04:52:17Z</time>
      </trkpt>
      <trkpt lat="45.26795" lon="4.66288">
        <ele>406</ele>
        <time>2019-02-27T04:53:17Z</time>
      </trkpt>
      <trkpt lat="45.26776" lon="4.66342">
        <ele>404</ele>
        <time>2019-02-27T04:54:17Z</time>
      </trkpt>
      <trkpt lat="45.26765" lon="4.66385">
        <ele>405</ele>
        <time>2019-02-27T04:55:17Z</time>
      </trkpt>
      <trkpt lat="45.26757" lon="4.66434">
        <ele>407</ele>
        <time>2019-02-27T04:56:17Z</time>
      </trkpt>
      <trkpt lat="45.26754" lon="4.66548">
        <ele>408</ele>
        <time>2019-02-27T04:57:17Z</time>
      </trkpt>
      <trkpt lat="45.26754" lon="4.66591">
        <ele>407</ele>
        <time>2019-02-27T04:58:17Z</time>
      </trkpt>
      <trkpt lat="45.26747" lon="4.66635">
        <ele>406</ele>
        <time>2019-02-27T04:59:17Z</time>
      </trkpt>
      <trkpt lat="45.26719" lon="4.66705">
        <ele>402</ele>
        <time>2019-02-27T05:00:17Z</time>
      </trkpt>
      <trkpt lat="45.26708" lon="4.66739">
        <ele>401</ele>
        <time>2019-02-27T05:01:17Z</time>
      </trkpt>
      <trkpt lat="45.26707" lon="4.66786">
        <ele>401</ele>
        <time>2019-02-27T05:02:17Z</time>
      </trkpt>
      <trkpt lat="45.26715" lon="4.66855">
        <ele>403</ele>
        <time>2019-02-27T05:03:17Z</time>
      </trkpt>
      <trkpt lat="45.26725" lon="4.66908">
        <ele>404</ele>
        <time>2019-02-27T05:04:17Z</time>
      </trkpt>
      <trkpt lat="45.26732" lon="4.66941">
        <ele>405</ele>
        <time>2019-02-27T05:05:17Z</time>
      </trkpt>
      <trkpt lat="45.26735" lon="4.6697">
        <ele>405</ele>
        <time>2019-02-27T05:06:17Z</time>
      </trkpt>
      <trkpt lat="45.26747" lon="4.66985">
        <ele>406</ele>
        <time>2019-02-27T05:07:17Z</time>
      </trkpt>
      <trkpt lat="45.26744" lon="4.67018">
        <ele>406</ele>
        <time>2019-02-27T05:08:17Z</time>
      </trkpt>
      <trkpt lat="45.26727" lon="4.67089">
        <ele>405</ele>
        <time>2019-02-27T05:09:17Z</time>
      </trkpt>
      <trkpt lat="45.26706" lon="4.67143">
        <ele>405</ele>
        <time>2019-02-27T05:10:17Z</time>
      </trkpt>
      <trkpt lat="45.26679" lon="4.67194">
        <ele>405</ele>
        <time>2019-02-27T05:11:17Z</time>
      </trkpt>
      <trkpt lat="45.26638" lon="4.67244">
        <ele>405</ele>
        <time>2019-02-27T05:12:17Z</time>
      </trkpt>
      <trkpt lat="45.26607" lon="4.67273">
        <ele>405</ele>
        <time>2019-02-27T05:13:17Z</time>
      </trkpt>
      <trkpt lat="45.26571" lon="4.67296">
        <ele>405</ele>
        <time>2019-02-27T05:14:17Z</time>
      </trkpt>
      <trkpt lat="45.26513" lon="4.67317">
        <ele>404</ele>
        <time>2019-02-27T05:15:17Z</time>
      </trkpt>
      <trkpt lat="45.26467" lon="4.67332">
        <ele>402</ele>
        <time>2019-02-27T05:16:17Z</time>
      </trkpt>
      <trkpt lat="45.26418" lon="4.67349">
        <ele>400</ele>
        <time>2019-02-27T05:17:17Z</time>
      </trkpt>
      <trkpt lat="45.26372" lon="4.67374">
        <ele>398</ele>
        <time>2019-02-27T05:18:17Z</time>
      </trkpt>
      <trkpt lat="45.26329" lon="4.67408">
        <ele>398</ele>
        <time>2019-02-27T05:19:17Z</time>
      </trkpt>
      <trkpt lat="45.26287" lon="4.67453">
        <ele>396</ele>
        <time>2019-02-27T05:20:17Z</time>
      </trkpt>
      <trkpt lat="45.26085" lon="4.67682">
        <ele>391</ele>
        <time>2019-02-27T05:21:17Z</time>
      </trkpt>
      <trkpt lat="45.26046" lon="4.67732">
        <ele>392</ele>
        <time>2019-02-27T05:22:17Z</time>
      </trkpt>
      <trkpt lat="45.26007" lon="4.67797">
        <ele>393</ele>
        <time>2019-02-27T05:23:17Z</time>
      </trkpt>
      <trkpt lat="45.25984" lon="4.67853">
        <ele>391</ele>
        <time>2019-02-27T05:24:17Z</time>
      </trkpt>
      <trkpt lat="45.25966" lon="4.67914">
        <ele>387</ele>
        <time>2019-02-27T05:25:17Z</time>
      </trkpt>
      <trkpt lat="45.25951" lon="4.67975">
        <ele>388</ele>
        <time>2019-02-27T05:26:17Z</time>
      </trkpt>
      <trkpt lat="45.25925" lon="4.68116">
        <ele>387</ele>
        <time>2019-02-27T05:27:17Z</time>
      </trkpt>
      <trkpt lat="45.25911" lon="4.68165">
        <ele>385</ele>
        <time>2019-02-27T05:28:17Z</time>
      </trkpt>
      <trkpt lat="45.25894" lon="4.68202">
        <ele>380</ele>
        <time>2019-02-27T05:29:17Z</time>
      </trkpt>
      <trkpt lat="45.25879" lon="4.68234">
        <ele>376</ele>
        <time>2019-02-27T05:30:17Z</time>
      </trkpt>
      <trkpt lat="45.2587" lon="4.68231">
        <ele>374</ele>
        <time>2019-02-27T05:31:17Z</time>
      </trkpt>
      <trkpt lat="45.25866" lon="4.68226">
        <ele>374</ele>
        <time>2019-02-27T05:32:17Z</time>
      </trkpt>
      <trkpt lat="45.25862" lon="4.682">
        <ele>374</ele>
        <time>2019-02-27T05:33:17Z</time>
      </trkpt>
      <trkpt lat="45.25862" lon="4.68177">
        <ele>375</ele>
        <time>2019-02-27T05:34:17Z</time>
      </trkpt>
      <trkpt lat="45.2586" lon="4.68147">
        <ele>375</ele>
        <time>2019-02-27T05:35:17Z</time>
      </trkpt>
      <trkpt lat="45.2586" lon="4.68099">
        <ele>375</ele>
        <time>2019-02-27T05:36:17Z</time>
      </trkpt>
      <trkpt lat="45.25857" lon="4.68086">
        <ele>375</ele>
        <time>2019-02-27T05:37:17Z</time>
      </trkpt>
      <trkpt lat="45.25857" lon="4.68088">
        <ele>375</ele>
        <time>2019-02-27T05:38:17Z</time>
      </trkpt>
      <trkpt lat="45.2585" lon="4.68092">
        <ele>373</ele>
        <time>2019-02-27T05:39:17Z</time>
      </trkpt>
      <trkpt lat="45.25845" lon="4.68143">
        <ele>372</ele>
        <time>2019-02-27T05:40:17Z</time>
      </trkpt>
      <trkpt lat="45.25843" lon="4.68157">
        <ele>372</ele>
        <time>2019-02-27T05:41:17Z</time>
      </trkpt>
      <trkpt lat="45.25842" lon="4.68172">
        <ele>372</ele>
        <time>2019-02-27T05:42:17Z</time>
      </trkpt>
      <trkpt lat="45.25842" lon="4.68191">
        <ele>371</ele>
        <time>2019-02-27T05:43:17Z</time>
      </trkpt>
      <trkpt lat="45.25844" lon="4.68206">
        <ele>371</ele>
        <time>2019-02-27T05:44:17Z</time>
      </trkpt>
      <trkpt lat="45.25842" lon="4.68217">
        <ele>370</ele>
        <time>2019-02-27T05:45:17Z</time>
      </trkpt>
      <trkpt lat="45.25832" lon="4.68223">
        <ele>369</ele>
        <time>2019-02-27T05:46:17Z</time>
      </trkpt>
      <trkpt lat="45.25823" lon="4.68227">
        <ele>369</ele>
        <time>2019-02-27T05:47:17Z</time>
      </trkpt>
      <trkpt lat="45.2582" lon="4.68234">
        <ele>368</ele>
        <time>2019-02-27T05:48:17Z</time>
      </trkpt>
      <trkpt lat="45.2582" lon="4.68241">
        <ele>368</ele>
        <time>2019-02-27T05:49:17Z</time>
      </trkpt>
      <trkpt lat="45.25812" lon="4.68285">
        <ele>370</ele>
        <time>2019-02-27T05:50:17Z</time>
      </trkpt>
      <trkpt lat="45.25798" lon="4.68295">
        <ele>371</ele>
        <time>2019-02-27T05:51:17Z</time>
      </trkpt>
      <trkpt lat="45.25793" lon="4.68306">
        <ele>372</ele>
        <time>2019-02-27T05:52:17Z</time>
      </trkpt>
      <trkpt lat="45.25771" lon="4.68318">
        <ele>373</ele>
        <time>2019-02-27T05:53:17Z</time>
      </trkpt>
      <trkpt lat="45.25754" lon="4.68322">
        <ele>373</ele>
        <time>2019-02-27T05:54:17Z</time>
      </trkpt>
      <trkpt lat="45.2572" lon="4.68323">
        <ele>374</ele>
        <time>2019-02-27T05:55:17Z</time>
      </trkpt>
      <trkpt lat="45.257" lon="4.68317">
        <ele>374</ele>
        <time>2019-02-27T05:56:17Z</time>
      </trkpt>
      <trkpt lat="45.25665" lon="4.68297">
        <ele>372</ele>
        <time>2019-02-27T05:57:17Z</time>
      </trkpt>
      <trkpt lat="45.25647" lon="4.68287">
        <ele>373</ele>
        <time>2019-02-27T05:58:17Z</time>
      </trkpt>
      <trkpt lat="45.2562" lon="4.68273">
        <ele>373</ele>
        <time>2019-02-27T05:59:17Z</time>
      </trkpt>
      <trkpt lat="45.25583" lon="4.68239">
        <ele>369</ele>
        <time>2019-02-27T06:00:17Z</time>
      </trkpt>
      <trkpt lat="45.25552" lon="4.68202">
        <ele>375</ele>
        <time>2019-02-27T06:01:17Z</time>
      </trkpt>
      <trkpt lat="45.25523" lon="4.68146">
        <ele>374</ele>
        <time>2019-02-27T06:02:17Z</time>
      </trkpt>
      <trkpt lat="45.25511" lon="4.68086">
        <ele>366</ele>
        <time>2019-02-27T06:03:17Z</time>
      </trkpt>
      <trkpt lat="45.25491" lon="4.68056">
        <ele>366</ele>
        <time>2019-02-27T06:04:17Z</time>
      </trkpt>
      <trkpt lat="45.25472" lon="4.68031">
        <ele>367</ele>
        <time>2019-02-27T06:05:17Z</time>
      </trkpt>
      <trkpt lat="45.25449" lon="4.68014">
        <ele>368</ele>
        <time>2019-02-27T06:06:17Z</time>
      </trkpt>
      <trkpt lat="45.25429" lon="4.68002">
        <ele>368</ele>
        <time>2019-02-27T06:07:17Z</time>
      </trkpt>
      <trkpt lat="45.25412" lon="4.67996">
        <ele>369</ele>
        <time>2019-02-27T06:08:17Z</time>
      </trkpt>
      <trkpt lat="45.254" lon="4.67985">
        <ele>369</ele>
        <time>2019-02-27T06:09:17Z</time>
      </trkpt>
      <trkpt lat="45.25395" lon="4.67976">
        <ele>368</ele>
        <time>2019-02-27T06:10:17Z</time>
      </trkpt>
      <trkpt lat="45.25389" lon="4.67958">
        <ele>368</ele>
        <time>2019-02-27T06:11:17Z</time>
      </trkpt>
      <trkpt lat="45.25383" lon="4.67924">
        <ele>367</ele>
        <time>2019-02-27T06:12:17Z</time>
      </trkpt>
      <trkpt lat="45.25374" lon="4.6788">
        <ele>365</ele>
        <time>2019-02-27T06:13:17Z</time>
      </trkpt>
      <trkpt lat="45.25373" lon="4.67861">
        <ele>364</ele>
        <time>2019-02-27T06:14:17Z</time>
      </trkpt>
      <trkpt lat="45.25379" lon="4.67842">
        <ele>363</ele>
        <time>2019-02-27T06:15:17Z</time>
      </trkpt>
      <trkpt lat="45.25381" lon="4.6782">
        <ele>364</ele>
        <time>2019-02-27T06:16:17Z</time>
      </trkpt>
      <trkpt lat="45.25377" lon="4.67805">
        <ele>364</ele>
        <time>2019-02-27T06:17:17Z</time>
      </trkpt>
      <trkpt lat="45.25371" lon="4.67787">
        <ele>364</ele>
        <time>2019-02-27T06:18:17Z</time>
      </trkpt>
      <trkpt lat="45.25357" lon="4.6777">
        <ele>362</ele>
        <time>2019-02-27T06:19:17Z</time>
      </trkpt>
      <trkpt lat="45.25344" lon="4.67769">
        <ele>359</ele>
        <time>2019-02-27T06:20:17Z</time>
      </trkpt>
      <trkpt lat="45.25335" lon="4.67774">
        <ele>358</ele>
        <time>2019-02-27T06:21:17Z</time>
      </trkpt>
      <trkpt lat="45.25314" lon="4.67807">
        <ele>360</ele>
        <time>2019-02-27T06:22:17Z</time>
      </trkpt>
      <trkpt lat="45.25292" lon="4.67846">
        <ele>360</ele>
        <time>2019-02-27T06:23:17Z</time>
      </trkpt>
      <trkpt lat="45.25284" lon="4.67875">
        <ele>361</ele>
        <time>2019-02-27T06:24:17Z</time>
      </trkpt>
      <trkpt lat="45.25277" lon="4.67877">
        <ele>360</ele>
        <time>2019-02-27T06:25:17Z</time>
      </trkpt>
      <trkpt lat="45.25253" lon="4.67861">
        <ele>360</ele>
        <time>2019-02-27T06:26:17Z</time>
      </trkpt>
      <trkpt lat="45.25243" lon="4.6786">
        <ele>361</ele>
        <time>2019-02-27T06:27:17Z</time>
      </trkpt>
      <trkpt lat="45.25239" lon="4.67865">
        <ele>361</ele>
        <time>2019-02-27T06:28:17Z</time>
      </trkpt>
      <trkpt lat="45.25236" lon="4.67875">
        <ele>361</ele>
        <time>2019-02-27T06:29:17Z</time>
      </trkpt>
      <trkpt lat="45.25224" lon="4.67962">
        <ele>356</ele>
        <time>2019-02-27T06:30:17Z</time>
      </trkpt>
      <trkpt lat="45.25222" lon="4.6798">
        <ele>355</ele>
        <time>2019-02-27T06:31:17Z</time>
      </trkpt>
      <trkpt lat="45.25221" lon="4.68005">
        <ele>354</ele>
        <time>2019-02-27T06:32:17Z</time>
      </trkpt>
      <trkpt lat="45.25214" lon="4.68028">
        <ele>355</ele>
        <time>2019-02-27T06:33:17Z</time>
      </trkpt>
      <trkpt lat="45.25202" lon="4.68055">
        <ele>356</ele>
        <time>2019-02-27T06:34:17Z</time>
      </trkpt>
      <trkpt lat="45.25195" lon="4.68067">
        <ele>356</ele>
        <time>2019-02-27T06:35:17Z</time>
      </trkpt>
      <trkpt lat="45.25178" lon="4.68071">
        <ele>356</ele>
        <time>2019-02-27T06:36:17Z</time>
      </trkpt>
      <trkpt lat="45.25164" lon="4.68062">
        <ele>356</ele>
        <time>2019-02-27T06:37:17Z</time>
      </trkpt>
      <trkpt lat="45.2514" lon="4.68037">
        <ele>359</ele>
        <time>2019-02-27T06:38:17Z</time>
      </trkpt>
      <trkpt lat="45.25133" lon="4.68027">
        <ele>359</ele>
        <time>2019-02-27T06:39:17Z</time>
      </trkpt>
      <trkpt lat="45.25117" lon="4.67986">
        <ele>357</ele>
        <time>2019-02-27T06:40:17Z</time>
      </trkpt>
      <trkpt lat="45.25081" lon="4.67934">
        <ele>353</ele>
        <time>2019-02-27T06:41:17Z</time>
      </trkpt>
      <trkpt lat="45.25026" lon="4.67892">
        <ele>355</ele>
        <time>2019-02-27T06:42:17Z</time>
      </trkpt>
      <trkpt lat="45.25013" lon="4.67881">
        <ele>355</ele>
        <time>2019-02-27T06:43:17Z</time>
      </trkpt>
      <trkpt lat="45.24953" lon="4.67866">
        <ele>352</ele>
        <time>2019-02-27T06:44:17Z</time>
      </trkpt>
      <trkpt lat="45.24895" lon="4.67874">
        <ele>353</ele>
        <time>2019-02-27T06:45:17Z</time>
      </trkpt>
      <trkpt lat="45.24846" lon="4.67871">
        <ele>357</ele>
        <time>2019-02-27T06:46:17Z</time>
      </trkpt>
      <trkpt lat="45.24834" lon="4.67849">
        <ele>354</ele>
        <time>2019-02-27T06:47:17Z</time>
      </trkpt>
      <trkpt lat="45.24828" lon="4.67833">
        <ele>353</ele>
        <time>2019-02-27T06:48:17Z</time>
      </trkpt>
      <trkpt lat="45.24825" lon="4.67801">
        <ele>352</ele>
        <time>2019-02-27T06:49:17Z</time>
      </trkpt>
      <trkpt lat="45.2483" lon="4.67765">
        <ele>348</ele>
        <time>2019-02-27T06:50:17Z</time>
      </trkpt>
      <trkpt lat="45.2483" lon="4.67733">
        <ele>347</ele>
        <time>2019-02-27T06:51:17Z</time>
      </trkpt>
      <trkpt lat="45.24828" lon="4.67711">
        <ele>348</ele>
        <time>2019-02-27T06:52:17Z</time>
      </trkpt>
      <trkpt lat="45.24823" lon="4.67681">
        <ele>349</ele>
        <time>2019-02-27T06:53:17Z</time>
      </trkpt>
      <trkpt lat="45.24816" lon="4.67647">
        <ele>349</ele>
        <time>2019-02-27T06:54:17Z</time>
      </trkpt>
      <trkpt lat="45.24809" lon="4.67625">
        <ele>349</ele>
        <time>2019-02-27T06:55:17Z</time>
      </trkpt>
      <trkpt lat="45.24781" lon="4.67561">
        <ele>346</ele>
        <time>2019-02-27T06:56:17Z</time>
      </trkpt>
      <trkpt lat="45.24693" lon="4.67396">
        <ele>346</ele>
        <time>2019-02-27T06:57:17Z</time>
      </trkpt>
      <trkpt lat="45.24629" lon="4.67283">
        <ele>342</ele>
        <time>2019-02-27T06:58:17Z</time>
      </trkpt>
      <trkpt lat="45.24554" lon="4.67186">
        <ele>339</ele>
        <time>2019-02-27T06:59:17Z</time>
      </trkpt>
      <trkpt lat="45.24517" lon="4.67132">
        <ele>340</ele>
        <time>2019-02-27T07:00:17Z</time>
      </trkpt>
      <trkpt lat="45.2451" lon="4.67121">
        <ele>339</ele>
        <time>2019-02-27T07:01:17Z</time>
      </trkpt>
      <trkpt lat="45.24495" lon="4.67062">
        <ele>334</ele>
        <time>2019-02-27T07:02:17Z</time>
      </trkpt>
      <trkpt lat="45.2448" lon="4.67019">
        <ele>332</ele>
        <time>2019-02-27T07:03:17Z</time>
      </trkpt>
      <trkpt lat="45.2448" lon="4.67001">
        <ele>330</ele>
        <time>2019-02-27T07:04:17Z</time>
      </trkpt>
      <trkpt lat="45.24482" lon="4.66983">
        <ele>330</ele>
        <time>2019-02-27T07:05:17Z</time>
      </trkpt>
      <trkpt lat="45.24482" lon="4.66934">
        <ele>329</ele>
        <time>2019-02-27T07:06:17Z</time>
      </trkpt>
      <trkpt lat="45.24485" lon="4.66914">
        <ele>328</ele>
        <time>2019-02-27T07:07:17Z</time>
      </trkpt>
      <trkpt lat="45.24485" lon="4.66904">
        <ele>328</ele>
        <time>2019-02-27T07:08:17Z</time>
      </trkpt>
      <trkpt lat="45.24482" lon="4.66893">
        <ele>328</ele>
        <time>2019-02-27T07:09:17Z</time>
      </trkpt>
      <trkpt lat="45.24466" lon="4.66885">
        <ele>329</ele>
        <time>2019-02-27T07:10:17Z</time>
      </trkpt>
      <trkpt lat="45.24415" lon="4.66869">
        <ele>329</ele>
        <time>2019-02-27T07:11:17Z</time>
      </trkpt>
      <trkpt lat="45.24405" lon="4.66853">
        <ele>333</ele>
      </trkpt>
      <trkpt lat="45.24405" lon="4.6686">
        <ele>332.9</ele>
      </trkpt>
      <trkpt lat="45.24402" lon="4.66866">
        <ele>333.2</ele>
      </trkpt>
      <trkpt lat="45.24398" lon="4.66869">
        <ele>333.4</ele>
      </trkpt>
      <trkpt lat="45.24372" lon="4.66869">
        <ele>335.3</ele>
      </trkpt>
      <trkpt lat="45.24345" lon="4.66875">
        <ele>336.6</ele>
      </trkpt>
      <trkpt lat="45.24335" lon="4.66881">
        <ele>336.1</ele>
      </trkpt>
      <trkpt lat="45.2433" lon="4.66889">
        <ele>343.9</ele>
      </trkpt>
      <trkpt lat="45.24326" lon="4.66909">
        <ele>338.3</ele>
      </trkpt>
      <trkpt lat="45.24328" lon="4.66917">
        <ele>333.1</ele>
      </trkpt>
      <trkpt lat="45.24328" lon="4.66925">
        <ele>333.7</ele>
      </trkpt>
      <trkpt lat="45.24326" lon="4.6693">
        <ele>334.3</ele>
      </trkpt>
      <trkpt lat="45.24319" lon="4.66937">
        <ele>335.2</ele>
      </trkpt>
      <trkpt lat="45.24315" lon="4.66937">
        <ele>335.5</ele>
      </trkpt>
      <trkpt lat="45.24312" lon="4.66966">
        <ele>335.1</ele>
      </trkpt>
      <trkpt lat="45.24307" lon="4.66994">
        <ele>334</ele>
      </trkpt>
      <trkpt lat="45.24293" lon="4.67024">
        <ele>331.3</ele>
      </trkpt>
      <trkpt lat="45.24308" lon="4.67061">
        <ele>331.5</ele>
      </trkpt>
      <trkpt lat="45.24312" lon="4.67071">
        <ele>331.7</ele>
      </trkpt>
      <trkpt lat="45.24308" lon="4.67074">
        <ele>331.6</ele>
      </trkpt>
      <trkpt lat="45.24311" lon="4.67084">
        <ele>332</ele>
      </trkpt>
      <trkpt lat="45.2431" lon="4.67085">
        <ele>332</ele>
      </trkpt>
      <trkpt lat="45.24322" lon="4.67121">
        <ele>332.1</ele>
      </trkpt>
      <trkpt lat="45.24318" lon="4.67124">
        <ele>332.1</ele>
      </trkpt>
      <trkpt lat="45.2433" lon="4.6715">
        <ele>332.8</ele>
      </trkpt>
      <trkpt lat="45.24328" lon="4.67152">
        <ele>332.9</ele>
      </trkpt>
      <trkpt lat="45.24316" lon="4.67165">
        <ele>332.7</ele>
      </trkpt>
      <trkpt lat="45.24318" lon="4.67176">
        <ele>334</ele>
      </trkpt>
      <trkpt lat="45.24319" lon="4.67188">
        <ele>334.3</ele>
      </trkpt>
      <trkpt lat="45.24318" lon="4.67192">
        <ele>334.4</ele>
      </trkpt>
      <trkpt lat="45.24283" lon="4.67243">
        <ele>334</ele>
      </trkpt>
      <trkpt lat="45.24277" lon="4.67256">
        <ele>335.7</ele>
      </trkpt>
      <trkpt lat="45.24275" lon="4.67266">
        <ele>335.9</ele>
      </trkpt>
      <trkpt lat="45.24271" lon="4.67291">
        <ele>336.6</ele>
      </trkpt>
      <trkpt lat="45.24268" lon="4.67297">
        <ele>336.6</ele>
      </trkpt>
      <trkpt lat="45.2426" lon="4.67306">
        <ele>336.5</ele>
      </trkpt>
      <trkpt lat="45.24256" lon="4.67309">
        <ele>336.3</ele>
      </trkpt>
      <trkpt lat="45.24254" lon="4.6731">
        <ele>336.3</ele>
      </trkpt>
      <trkpt lat="45.24252" lon="4.67311">
        <ele>336.2</ele>
      </trkpt>
      <trkpt lat="45.2425" lon="4.67312">
        <ele>333.1</ele>
      </trkpt>
      <trkpt lat="45.24247" lon="4.67337">
        <ele>335.5</ele>
      </trkpt>
      <trkpt lat="45.24239" lon="4.67365">
        <ele>337.5</ele>
      </trkpt>
      <trkpt lat="45.2423" lon="4.67397">
        <ele>339.8</ele>
      </trkpt>
      <trkpt lat="45.24225" lon="4.67406">
        <ele>340.1</ele>
      </trkpt>
      <trkpt lat="45.24216" lon="4.67444">
        <ele>346.8</ele>
      </trkpt>
      <trkpt lat="45.2421" lon="4.67475">
        <ele>348.6</ele>
      </trkpt>
      <trkpt lat="45.24205" lon="4.67521">
        <ele>358.6</ele>
      </trkpt>
      <trkpt lat="45.24199" lon="4.6754">
        <ele>360.1</ele>
      </trkpt>
      <trkpt lat="45.24161" lon="4.67603">
        <ele>369.7</ele>
      </trkpt>
      <trkpt lat="45.24159" lon="4.67612">
        <ele>370.8</ele>
      </trkpt>
      <trkpt lat="45.24157" lon="4.67617">
        <ele>371.3</ele>
      </trkpt>
      <trkpt lat="45.24151" lon="4.67633">
        <ele>372.7</ele>
      </trkpt>
      <trkpt lat="45.24146" lon="4.67653">
        <ele>373.9</ele>
      </trkpt>
      <trkpt lat="45.24144" lon="4.6766">
        <ele>374.1</ele>
      </trkpt>
      <trkpt lat="45.24137" lon="4.67657">
        <ele>373.9</ele>
      </trkpt>
      <trkpt lat="45.24133" lon="4.67683">
        <ele>378.3</ele>
      </trkpt>
      <trkpt lat="45.24125" lon="4.67723">
        <ele>379.3</ele>
      </trkpt>
      <trkpt lat="45.24126" lon="4.67739">
        <ele>379.6</ele>
      </trkpt>
      <trkpt lat="45.24116" lon="4.67764">
        <ele>382.3</ele>
      </trkpt>
      <trkpt lat="45.24112" lon="4.67771">
        <ele>382.4</ele>
      </trkpt>
      <trkpt lat="45.24108" lon="4.67777">
        <ele>382.5</ele>
      </trkpt>
      <trkpt lat="45.24105" lon="4.67779">
        <ele>382.5</ele>
      </trkpt>
      <trkpt lat="45.24102" lon="4.67786">
        <ele>382.6</ele>
      </trkpt>
      <trkpt lat="45.24101" lon="4.6779">
        <ele>382.7</ele>
      </trkpt>
      <trkpt lat="45.24101" lon="4.67793">
        <ele>382.8</ele>
      </trkpt>
      <trkpt lat="45.24091" lon="4.67813">
        <ele>383</ele>
      </trkpt>
      <trkpt lat="45.24077" lon="4.67858">
        <ele>380.7</ele>
      </trkpt>
      <trkpt lat="45.24067" lon="4.67894">
        <ele>380.4</ele>
      </trkpt>
      <trkpt lat="45.24059" lon="4.67942">
        <ele>379.6</ele>
      </trkpt>
      <trkpt lat="45.24058" lon="4.67966">
        <ele>379.2</ele>
      </trkpt>
      <trkpt lat="45.24059" lon="4.67993">
        <ele>379.1</ele>
      </trkpt>
      <trkpt lat="45.24059" lon="4.68013">
        <ele>378.7</ele>
      </trkpt>
      <trkpt lat="45.24058" lon="4.68052">
        <ele>378.6</ele>
      </trkpt>
      <trkpt lat="45.24049" lon="4.68149">
        <ele>378.9</ele>
      </trkpt>
      <trkpt lat="45.24044" lon="4.68185">
        <ele>380.5</ele>
      </trkpt>
      <trkpt lat="45.24039" lon="4.68221">
        <ele>381.3</ele>
      </trkpt>
      <trkpt lat="45.24037" lon="4.68236">
        <ele>381.6</ele>
      </trkpt>
      <trkpt lat="45.24024" lon="4.68315">
        <ele>384.5</ele>
      </trkpt>
      <trkpt lat="45.24008" lon="4.684">
        <ele>385.5</ele>
      </trkpt>
      <trkpt lat="45.24005" lon="4.68447">
        <ele>385.5</ele>
      </trkpt>
      <trkpt lat="45.23999" lon="4.68501">
        <ele>384</ele>
      </trkpt>
      <trkpt lat="45.23998" lon="4.68504">
        <ele>383.9</ele>
      </trkpt>
      <trkpt lat="45.23996" lon="4.68521">
        <ele>383.6</ele>
      </trkpt>
      <trkpt lat="45.23997" lon="4.68523">
        <ele>383.6</ele>
      </trkpt>
      <trkpt lat="45.23996" lon="4.68532">
        <ele>383.5</ele>
      </trkpt>
      <trkpt lat="45.23994" lon="4.68535">
        <ele>383.5</ele>
      </trkpt>
      <trkpt lat="45.23991" lon="4.68547">
        <ele>383.5</ele>
      </trkpt>
      <trkpt lat="45.23989" lon="4.68554">
        <ele>383.6</ele>
      </trkpt>
      <trkpt lat="45.23982" lon="4.68585">
        <ele>384.4</ele>
      </trkpt>
      <trkpt lat="45.2395" lon="4.68745">
        <ele>386.1</ele>
      </trkpt>
      <trkpt lat="45.23943" lon="4.6878">
        <ele>385.8</ele>
      </trkpt>
      <trkpt lat="45.23933" lon="4.68831">
        <ele>385.3</ele>
      </trkpt>
      <trkpt lat="45.23924" lon="4.68876">
        <ele>384.7</ele>
      </trkpt>
      <trkpt lat="45.23917" lon="4.68941">
        <ele>383</ele>
      </trkpt>
      <trkpt lat="45.23912" lon="4.68972">
        <ele>381</ele>
      </trkpt>
      <trkpt lat="45.23901" lon="4.68991">
        <ele>380.6</ele>
      </trkpt>
      <trkpt lat="45.23896" lon="4.68992">
        <ele>380.6</ele>
      </trkpt>
      <trkpt lat="45.23891" lon="4.68995">
        <ele>380.6</ele>
      </trkpt>
      <trkpt lat="45.23887" lon="4.68999">
        <ele>380.5</ele>
      </trkpt>
      <trkpt lat="45.23881" lon="4.69006">
        <ele>379.3</ele>
      </trkpt>
      <trkpt lat="45.23877" lon="4.69015">
        <ele>379.2</ele>
      </trkpt>
      <trkpt lat="45.23875" lon="4.69029">
        <ele>379.2</ele>
      </trkpt>
      <trkpt lat="45.23876" lon="4.69043">
        <ele>379.3</ele>
      </trkpt>
      <trkpt lat="45.23878" lon="4.6905">
        <ele>379.3</ele>
      </trkpt>
      <trkpt lat="45.2388" lon="4.69056">
        <ele>379.4</ele>
      </trkpt>
      <trkpt lat="45.23879" lon="4.6907">
        <ele>379.5</ele>
      </trkpt>
      <trkpt lat="45.23875" lon="4.69092">
        <ele>381.8</ele>
      </trkpt>
      <trkpt lat="45.23871" lon="4.69102">
        <ele>382</ele>
      </trkpt>
      <trkpt lat="45.23862" lon="4.69111">
        <ele>382</ele>
      </trkpt>
      <trkpt lat="45.23814" lon="4.69144">
        <ele>381.5</ele>
      </trkpt>
      <trkpt lat="45.23802" lon="4.69153">
        <ele>381.6</ele>
      </trkpt>
      <trkpt lat="45.23767" lon="4.69207">
        <ele>387.7</ele>
      </trkpt>
      <trkpt lat="45.23754" lon="4.69233">
        <ele>389.7</ele>
      </trkpt>
      <trkpt lat="45.23748" lon="4.69254">
        <ele>392.4</ele>
      </trkpt>
      <trkpt lat="45.23742" lon="4.69274">
        <ele>393.4</ele>
      </trkpt>
      <trkpt lat="45.23734" lon="4.69302">
        <ele>394</ele>
      </trkpt>
      <trkpt lat="45.23717" lon="4.69343">
        <ele>395.7</ele>
      </trkpt>
      <trkpt lat="45.23693" lon="4.69391">
        <ele>396.6</ele>
      </trkpt>
      <trkpt lat="45.23678" lon="4.69416">
        <ele>397.4</ele>
      </trkpt>
      <trkpt lat="45.23643" lon="4.6944">
        <ele>397.8</ele>
      </trkpt>
      <trkpt lat="45.23608" lon="4.69471">
        <ele>397.6</ele>
      </trkpt>
      <trkpt lat="45.23569" lon="4.69497">
        <ele>396</ele>
      </trkpt>
      <trkpt lat="45.23554" lon="4.69519">
        <ele>396.1</ele>
      </trkpt>
      <trkpt lat="45.23543" lon="4.69556">
        <ele>396.1</ele>
      </trkpt>
      <trkpt lat="45.23535" lon="4.69565">
        <ele>396</ele>
      </trkpt>
      <trkpt lat="45.23436" lon="4.69662">
        <ele>396.4</ele>
      </trkpt>
      <trkpt lat="45.23357" lon="4.69771">
        <ele>398.5</ele>
      </trkpt>
      <trkpt lat="45.23351" lon="4.69781">
        <ele>398.6</ele>
      </trkpt>
      <trkpt lat="45.23343" lon="4.69796">
        <ele>398.7</ele>
      </trkpt>
      <trkpt lat="45.23332" lon="4.69809">
        <ele>397.2</ele>
      </trkpt>
      <trkpt lat="45.23287" lon="4.69845">
        <ele>395.8</ele>
      </trkpt>
      <trkpt lat="45.23275" lon="4.69862">
        <ele>395.4</ele>
      </trkpt>
      <trkpt lat="45.23272" lon="4.69879">
        <ele>395.1</ele>
      </trkpt>
      <trkpt lat="45.23277" lon="4.69914">
        <ele>394.6</ele>
      </trkpt>
      <trkpt lat="45.23262" lon="4.6992">
        <ele>392.8</ele>
      </trkpt>
      <trkpt lat="45.23234" lon="4.6993">
        <ele>392.8</ele>
      </trkpt>
      <trkpt lat="45.23211" lon="4.69929">
        <ele>392.9</ele>
      </trkpt>
      <trkpt lat="45.23181" lon="4.69917">
        <ele>393.9</ele>
      </trkpt>
      <trkpt lat="45.23168" lon="4.69911">
        <ele>394.9</ele>
      </trkpt>
      <trkpt lat="45.23139" lon="4.69908">
        <ele>394.5</ele>
      </trkpt>
      <trkpt lat="45.23096" lon="4.69914">
        <ele>393.6</ele>
      </trkpt>
      <trkpt lat="45.23086" lon="4.69906">
        <ele>393.6</ele>
      </trkpt>
      <trkpt lat="45.2307" lon="4.69904">
        <ele>393.1</ele>
      </trkpt>
      <trkpt lat="45.23029" lon="4.69891">
        <ele>392.8</ele>
      </trkpt>
      <trkpt lat="45.23008" lon="4.69889">
        <ele>392.6</ele>
      </trkpt>
      <trkpt lat="45.22945" lon="4.69887">
        <ele>388.4</ele>
      </trkpt>
      <trkpt lat="45.22928" lon="4.69882">
        <ele>388</ele>
      </trkpt>
      <trkpt lat="45.22892" lon="4.69866">
        <ele>384.3</ele>
      </trkpt>
      <trkpt lat="45.22857" lon="4.69862">
        <ele>383.3</ele>
      </trkpt>
      <trkpt lat="45.22836" lon="4.69858">
        <ele>383</ele>
      </trkpt>
      <trkpt lat="45.22822" lon="4.69853">
        <ele>379.4</ele>
      </trkpt>
      <trkpt lat="45.22811" lon="4.69844">
        <ele>378.9</ele>
      </trkpt>
      <trkpt lat="45.22793" lon="4.69838">
        <ele>377.3</ele>
      </trkpt>
      <trkpt lat="45.22776" lon="4.69836">
        <ele>375.7</ele>
      </trkpt>
      <trkpt lat="45.22762" lon="4.69845">
        <ele>374.6</ele>
      </trkpt>
      <trkpt lat="45.22736" lon="4.69883">
        <ele>369.2</ele>
      </trkpt>
      <trkpt lat="45.22728" lon="4.699">
        <ele>369.4</ele>
      </trkpt>
      <trkpt lat="45.22705" lon="4.69914">
        <ele>367.4</ele>
      </trkpt>
      <trkpt lat="45.22672" lon="4.69926">
        <ele>365.6</ele>
      </trkpt>
      <trkpt lat="45.22644" lon="4.69929">
        <ele>361.7</ele>
      </trkpt>
      <trkpt lat="45.22622" lon="4.69944">
        <ele>360.7</ele>
      </trkpt>
      <trkpt lat="45.22567" lon="4.69958">
        <ele>352.8</ele>
      </trkpt>
      <trkpt lat="45.22556" lon="4.69962">
        <ele>352.5</ele>
      </trkpt>
      <trkpt lat="45.22547" lon="4.69965">
        <ele>352.1</ele>
      </trkpt>
      <trkpt lat="45.22531" lon="4.6997">
        <ele>351.4</ele>
      </trkpt>
      <trkpt lat="45.22498" lon="4.69969">
        <ele>344.7</ele>
      </trkpt>
      <trkpt lat="45.22454" lon="4.69954">
        <ele>341.4</ele>
      </trkpt>
      <trkpt lat="45.22427" lon="4.69935">
        <ele>337</ele>
      </trkpt>
      <trkpt lat="45.22219" lon="4.69826">
        <ele>307.9</ele>
      </trkpt>
      <trkpt lat="45.22212" lon="4.69814">
        <ele>307.5</ele>
      </trkpt>
      <trkpt lat="45.22212" lon="4.69793">
        <ele>307.7</ele>
      </trkpt>
      <trkpt lat="45.22184" lon="4.69772">
        <ele>305.2</ele>
      </trkpt>
      <trkpt lat="45.22155" lon="4.69769">
        <ele>297</ele>
      </trkpt>
      <trkpt lat="45.22154" lon="4.69787">
        <ele>296.9</ele>
      </trkpt>
      <trkpt lat="45.22147" lon="4.69799">
        <ele>296.9</ele>
      </trkpt>
      <trkpt lat="45.22135" lon="4.69802">
        <ele>296.2</ele>
      </trkpt>
      <trkpt lat="45.22099" lon="4.69795">
        <ele>293.5</ele>
      </trkpt>
      <trkpt lat="45.2206" lon="4.6978">
        <ele>281</ele>
      </trkpt>
      <trkpt lat="45.22047" lon="4.69781">
        <ele>279.8</ele>
      </trkpt>
      <trkpt lat="45.21979" lon="4.69835">
        <ele>277.2</ele>
      </trkpt>
      <trkpt lat="45.21968" lon="4.69849">
        <ele>275.6</ele>
      </trkpt>
      <trkpt lat="45.21964" lon="4.69875">
        <ele>276.1</ele>
      </trkpt>
      <trkpt lat="45.21965" lon="4.69889">
        <ele>277</ele>
      </trkpt>
      <trkpt lat="45.21977" lon="4.69925">
        <ele>284.6</ele>
      </trkpt>
      <trkpt lat="45.21979" lon="4.69937">
        <ele>284.6</ele>
      </trkpt>
      <trkpt lat="45.21973" lon="4.6997">
        <ele>284.8</ele>
      </trkpt>
      <trkpt lat="45.21976" lon="4.69988">
        <ele>285.6</ele>
      </trkpt>
      <trkpt lat="45.21986" lon="4.70021">
        <ele>289.1</ele>
      </trkpt>
      <trkpt lat="45.21995" lon="4.70043">
        <ele>289.1</ele>
      </trkpt>
      <trkpt lat="45.22024" lon="4.70087">
        <ele>292.4</ele>
      </trkpt>
      <trkpt lat="45.2203" lon="4.70099">
        <ele>293.9</ele>
      </trkpt>
      <trkpt lat="45.2203" lon="4.70111">
        <ele>294.2</ele>
      </trkpt>
      <trkpt lat="45.22029" lon="4.70125">
        <ele>294.2</ele>
      </trkpt>
      <trkpt lat="45.22024" lon="4.70135">
        <ele>293.8</ele>
      </trkpt>
      <trkpt lat="45.22017" lon="4.70142">
        <ele>293.3</ele>
      </trkpt>
      <trkpt lat="45.21999" lon="4.70141">
        <ele>295.5</ele>
      </trkpt>
      <trkpt lat="45.21983" lon="4.70132">
        <ele>296.9</ele>
      </trkpt>
      <trkpt lat="45.21966" lon="4.70114">
        <ele>297.9</ele>
      </trkpt>
      <trkpt lat="45.21959" lon="4.70105">
        <ele>298.2</ele>
      </trkpt>
      <trkpt lat="45.21953" lon="4.70095">
        <ele>298.6</ele>
      </trkpt>
      <trkpt lat="45.2192" lon="4.70019">
        <ele>289.5</ele>
      </trkpt>
      <trkpt lat="45.21905" lon="4.69967">
        <ele>287.2</ele>
      </trkpt>
      <trkpt lat="45.21899" lon="4.69936">
        <ele>283</ele>
      </trkpt>
      <trkpt lat="45.21887" lon="4.69914">
        <ele>272</ele>
      </trkpt>
      <trkpt lat="45.21839" lon="4.69896">
        <ele>276</ele>
      </trkpt>
      <trkpt lat="45.21816" lon="4.69883">
        <ele>277.6</ele>
      </trkpt>
      <trkpt lat="45.21785" lon="4.6987">
        <ele>276.7</ele>
      </trkpt>
      <trkpt lat="45.21763" lon="4.69867">
        <ele>276.7</ele>
      </trkpt>
      <trkpt lat="45.21684" lon="4.69843">
        <ele>276.2</ele>
      </trkpt>
      <trkpt lat="45.21643" lon="4.69841">
        <ele>273.2</ele>
      </trkpt>
      <trkpt lat="45.21621" lon="4.69843">
        <ele>272.7</ele>
      </trkpt>
      <trkpt lat="45.21607" lon="4.69848">
        <ele>271.1</ele>
      </trkpt>
      <trkpt lat="45.21596" lon="4.69855">
        <ele>270.7</ele>
      </trkpt>
      <trkpt lat="45.21581" lon="4.69875">
        <ele>268.3</ele>
      </trkpt>
      <trkpt lat="45.21556" lon="4.69917">
        <ele>279</ele>
      </trkpt>
      <trkpt lat="45.21536" lon="4.69942">
        <ele>277</ele>
      </trkpt>
      <trkpt lat="45.21512" lon="4.69978">
        <ele>275.9</ele>
      </trkpt>
      <trkpt lat="45.21478" lon="4.70063">
        <ele>274.8</ele>
      </trkpt>
      <trkpt lat="45.21464" lon="4.70089">
        <ele>285.6</ele>
      </trkpt>
      <trkpt lat="45.21447" lon="4.70105">
        <ele>283.4</ele>
      </trkpt>
      <trkpt lat="45.21428" lon="4.70122">
        <ele>284.4</ele>
      </trkpt>
      <trkpt lat="45.21405" lon="4.70126">
        <ele>276.3</ele>
      </trkpt>
      <trkpt lat="45.21354" lon="4.7011">
        <ele>272.1</ele>
      </trkpt>
      <trkpt lat="45.21336" lon="4.70108">
        <ele>270.3</ele>
      </trkpt>
      <trkpt lat="45.21281" lon="4.70113">
        <ele>266.3</ele>
      </trkpt>
      <trkpt lat="45.21222" lon="4.70156">
        <ele>260.4</ele>
      </trkpt>
      <trkpt lat="45.21213" lon="4.70169">
        <ele>267.6</ele>
      </trkpt>
      <trkpt lat="45.21204" lon="4.70198">
        <ele>267.8</ele>
      </trkpt>
      <trkpt lat="45.21203" lon="4.70204">
        <ele>268.2</ele>
      </trkpt>
      <trkpt lat="45.21197" lon="4.70218">
        <ele>268</ele>
      </trkpt>
      <trkpt lat="45.21176" lon="4.70262">
        <ele>269.2</ele>
      </trkpt>
      <trkpt lat="45.21168" lon="4.70286">
        <ele>276.5</ele>
      </trkpt>
      <trkpt lat="45.21161" lon="4.70305">
        <ele>259.7</ele>
      </trkpt>
      <trkpt lat="45.2114" lon="4.70339">
        <ele>265.4</ele>
      </trkpt>
      <trkpt lat="45.21123" lon="4.70349">
        <ele>262.3</ele>
      </trkpt>
      <trkpt lat="45.21113" lon="4.7036">
        <ele>261.2</ele>
      </trkpt>
      <trkpt lat="45.21071" lon="4.70426">
        <ele>255.7</ele>
      </trkpt>
      <trkpt lat="45.21066" lon="4.7043">
        <ele>256.1</ele>
      </trkpt>
      <trkpt lat="45.21062" lon="4.70455">
        <ele>258.6</ele>
      </trkpt>
      <trkpt lat="45.2105" lon="4.70495">
        <ele>261.5</ele>
      </trkpt>
      <trkpt lat="45.21051" lon="4.70501">
        <ele>271.7</ele>
      </trkpt>
      <trkpt lat="45.21033" lon="4.70528">
        <ele>269.6</ele>
      </trkpt>
      <trkpt lat="45.20992" lon="4.70564">
        <ele>256.3</ele>
      </trkpt>
      <trkpt lat="45.20985" lon="4.70575">
        <ele>257.2</ele>
      </trkpt>
      <trkpt lat="45.20983" lon="4.70593">
        <ele>259.4</ele>
      </trkpt>
      <trkpt lat="45.20985" lon="4.70613">
        <ele>258.9</ele>
      </trkpt>
      <trkpt lat="45.21001" lon="4.70677">
        <ele>278.8</ele>
      </trkpt>
      <trkpt lat="45.21004" lon="4.70698">
        <ele>285.7</ele>
      </trkpt>
      <trkpt lat="45.20991" lon="4.70816">
        <ele>269.2</ele>
      </trkpt>
      <trkpt lat="45.20978" lon="4.7086">
        <ele>274.3</ele>
      </trkpt>
      <trkpt lat="45.20969" lon="4.70873">
        <ele>274.1</ele>
      </trkpt>
      <trkpt lat="45.20923" lon="4.70897">
        <ele>270</ele>
      </trkpt>
      <trkpt lat="45.20862" lon="4.70934">
        <ele>262.2</ele>
      </trkpt>
      <trkpt lat="45.20851" lon="4.70947">
        <ele>262</ele>
      </trkpt>
      <trkpt lat="45.20846" lon="4.70962">
        <ele>263.3</ele>
      </trkpt>
      <trkpt lat="45.20842" lon="4.70989">
        <ele>262.2</ele>
      </trkpt>
      <trkpt lat="45.20839" lon="4.71039">
        <ele>274.4</ele>
      </trkpt>
      <trkpt lat="45.20829" lon="4.71069">
        <ele>261.2</ele>
      </trkpt>
      <trkpt lat="45.20831" lon="4.71122">
        <ele>259.1</ele>
      </trkpt>
      <trkpt lat="45.20839" lon="4.7116">
        <ele>269.3</ele>
      </trkpt>
      <trkpt lat="45.20838" lon="4.712">
        <ele>275.7</ele>
      </trkpt>
      <trkpt lat="45.20845" lon="4.71237">
        <ele>271.7</ele>
      </trkpt>
      <trkpt lat="45.20848" lon="4.71273">
        <ele>271.1</ele>
      </trkpt>
      <trkpt lat="45.20851" lon="4.71329">
        <ele>265.5</ele>
      </trkpt>
      <trkpt lat="45.20853" lon="4.71489">
        <ele>260.9</ele>
      </trkpt>
      <trkpt lat="45.20859" lon="4.71512">
        <ele>261.2</ele>
      </trkpt>
      <trkpt lat="45.20859" lon="4.71534">
        <ele>262.5</ele>
      </trkpt>
      <trkpt lat="45.2085" lon="4.71554">
        <ele>261.1</ele>
      </trkpt>
      <trkpt lat="45.20837" lon="4.71568">
        <ele>257.7</ele>
      </trkpt>
      <trkpt lat="45.20833" lon="4.71575">
        <ele>249.4</ele>
      </trkpt>
      <trkpt lat="45.2083" lon="4.71585">
        <ele>250.7</ele>
      </trkpt>
      <trkpt lat="45.20831" lon="4.71597">
        <ele>248.3</ele>
      </trkpt>
      <trkpt lat="45.20837" lon="4.71608">
        <ele>258.6</ele>
      </trkpt>
      <trkpt lat="45.20851" lon="4.71618">
        <ele>260.6</ele>
      </trkpt>
      <trkpt lat="45.20865" lon="4.71626">
        <ele>262.3</ele>
      </trkpt>
      <trkpt lat="45.20878" lon="4.71644">
        <ele>264</ele>
      </trkpt>
      <trkpt lat="45.2088" lon="4.71652">
        <ele>264.3</ele>
      </trkpt>
      <trkpt lat="45.20879" lon="4.7166">
        <ele>264.1</ele>
      </trkpt>
      <trkpt lat="45.20877" lon="4.71668">
        <ele>266.3</ele>
      </trkpt>
      <trkpt lat="45.2087" lon="4.71674">
        <ele>265.2</ele>
      </trkpt>
      <trkpt lat="45.20845" lon="4.71684">
        <ele>261.2</ele>
      </trkpt>
      <trkpt lat="45.20832" lon="4.71696">
        <ele>252.1</ele>
      </trkpt>
      <trkpt lat="45.20824" lon="4.717">
        <ele>252.1</ele>
      </trkpt>
      <trkpt lat="45.2081" lon="4.71703">
        <ele>251.3</ele>
      </trkpt>
      <trkpt lat="45.20786" lon="4.71719">
        <ele>249.9</ele>
      </trkpt>
      <trkpt lat="45.20762" lon="4.71751">
        <ele>251.6</ele>
      </trkpt>
      <trkpt lat="45.20752" lon="4.7177">
        <ele>253.6</ele>
      </trkpt>
      <trkpt lat="45.20748" lon="4.71788">
        <ele>244.5</ele>
      </trkpt>
      <trkpt lat="45.20747" lon="4.71805">
        <ele>245.9</ele>
      </trkpt>
      <trkpt lat="45.20749" lon="4.71821">
        <ele>249.2</ele>
      </trkpt>
      <trkpt lat="45.20764" lon="4.71851">
        <ele>260.5</ele>
      </trkpt>
      <trkpt lat="45.20764" lon="4.7186">
        <ele>261.4</ele>
      </trkpt>
      <trkpt lat="45.20763" lon="4.71868">
        <ele>261.8</ele>
      </trkpt>
      <trkpt lat="45.20747" lon="4.71895">
        <ele>249.5</ele>
      </trkpt>
      <trkpt lat="45.20745" lon="4.71914">
        <ele>253.5</ele>
      </trkpt>
      <trkpt lat="45.20744" lon="4.71932">
        <ele>250.1</ele>
      </trkpt>
      <trkpt lat="45.20751" lon="4.71951">
        <ele>259.5</ele>
      </trkpt>
      <trkpt lat="45.2076" lon="4.71959">
        <ele>259.7</ele>
      </trkpt>
      <trkpt lat="45.20767" lon="4.7197">
        <ele>259.5</ele>
      </trkpt>
      <trkpt lat="45.20776" lon="4.71999">
        <ele>258.9</ele>
      </trkpt>
      <trkpt lat="45.20783" lon="4.72009">
        <ele>257.7</ele>
      </trkpt>
      <trkpt lat="45.208" lon="4.7203">
        <ele>259.6</ele>
      </trkpt>
      <trkpt lat="45.20816" lon="4.72046">
        <ele>260.4</ele>
      </trkpt>
      <trkpt lat="45.20822" lon="4.72052">
        <ele>260.6</ele>
      </trkpt>
      <trkpt lat="45.20828" lon="4.72065">
        <ele>261</ele>
      </trkpt>
      <trkpt lat="45.20829" lon="4.72075">
        <ele>261.7</ele>
      </trkpt>
      <trkpt lat="45.20827" lon="4.7209">
        <ele>264.1</ele>
      </trkpt>
      <trkpt lat="45.20822" lon="4.72099">
        <ele>265</ele>
      </trkpt>
      <trkpt lat="45.20815" lon="4.72104">
        <ele>265.4</ele>
      </trkpt>
      <trkpt lat="45.20804" lon="4.72106">
        <ele>265.3</ele>
      </trkpt>
      <trkpt lat="45.20772" lon="4.721">
        <ele>261.4</ele>
      </trkpt>
      <trkpt lat="45.20761" lon="4.72101">
        <ele>259.9</ele>
      </trkpt>
      <trkpt lat="45.20751" lon="4.72107">
        <ele>260.6</ele>
      </trkpt>
      <trkpt lat="45.20743" lon="4.7212">
        <ele>254.3</ele>
      </trkpt>
      <trkpt lat="45.20723" lon="4.7216">
        <ele>258</ele>
      </trkpt>
      <trkpt lat="45.20709" lon="4.72182">
        <ele>267.1</ele>
      </trkpt>
      <trkpt lat="45.20671" lon="4.72224">
        <ele>267.4</ele>
      </trkpt>
      <trkpt lat="45.2065" lon="4.72228">
        <ele>256.6</ele>
      </trkpt>
      <trkpt lat="45.20629" lon="4.72225">
        <ele>253.7</ele>
      </trkpt>
      <trkpt lat="45.20609" lon="4.72217">
        <ele>251.5</ele>
      </trkpt>
      <trkpt lat="45.20593" lon="4.72207">
        <ele>249.5</ele>
      </trkpt>
      <trkpt lat="45.20583" lon="4.72199">
        <ele>240.9</ele>
      </trkpt>
      <trkpt lat="45.20565" lon="4.72181">
        <ele>239.3</ele>
      </trkpt>
      <trkpt lat="45.20559" lon="4.72178">
        <ele>239.1</ele>
      </trkpt>
      <trkpt lat="45.20551" lon="4.72178">
        <ele>238.8</ele>
      </trkpt>
      <trkpt lat="45.20547" lon="4.72182">
        <ele>238.8</ele>
      </trkpt>
      <trkpt lat="45.20544" lon="4.72186">
        <ele>238.8</ele>
      </trkpt>
      <trkpt lat="45.20543" lon="4.72189">
        <ele>238.9</ele>
      </trkpt>
      <trkpt lat="45.20543" lon="4.72203">
        <ele>239.6</ele>
      </trkpt>
      <trkpt lat="45.20556" lon="4.72248">
        <ele>243.8</ele>
      </trkpt>
      <trkpt lat="45.20559" lon="4.72265">
        <ele>248.2</ele>
      </trkpt>
      <trkpt lat="45.20554" lon="4.72303">
        <ele>248.6</ele>
      </trkpt>
      <trkpt lat="45.20549" lon="4.72317">
        <ele>248.5</ele>
      </trkpt>
      <trkpt lat="45.20548" lon="4.72337">
        <ele>248.9</ele>
      </trkpt>
      <trkpt lat="45.20551" lon="4.72369">
        <ele>248.2</ele>
      </trkpt>
      <trkpt lat="45.20549" lon="4.72385">
        <ele>247.5</ele>
      </trkpt>
      <trkpt lat="45.20552" lon="4.72412">
        <ele>248.3</ele>
      </trkpt>
      <trkpt lat="45.20558" lon="4.72438">
        <ele>243.5</ele>
      </trkpt>
      <trkpt lat="45.20561" lon="4.72448">
        <ele>242.6</ele>
      </trkpt>
      <trkpt lat="45.20567" lon="4.7246">
        <ele>241.7</ele>
      </trkpt>
      <trkpt lat="45.20574" lon="4.72475">
        <ele>240.7</ele>
      </trkpt>
      <trkpt lat="45.20577" lon="4.7248">
        <ele>240.5</ele>
      </trkpt>
      <trkpt lat="45.20603" lon="4.72504">
        <ele>246.7</ele>
      </trkpt>
      <trkpt lat="45.20617" lon="4.7252">
        <ele>250.1</ele>
      </trkpt>
      <trkpt lat="45.20622" lon="4.72533">
        <ele>250.5</ele>
      </trkpt>
      <trkpt lat="45.20623" lon="4.7255">
        <ele>249.4</ele>
      </trkpt>
      <trkpt lat="45.20622" lon="4.72562">
        <ele>248.3</ele>
      </trkpt>
      <trkpt lat="45.20625" lon="4.72574">
        <ele>248.3</ele>
      </trkpt>
      <trkpt lat="45.20638" lon="4.72587">
        <ele>247.9</ele>
      </trkpt>
      <trkpt lat="45.20646" lon="4.72593">
        <ele>250.1</ele>
      </trkpt>
      <trkpt lat="45.20653" lon="4.72605">
        <ele>250.4</ele>
      </trkpt>
      <trkpt lat="45.20654" lon="4.72618">
        <ele>249.5</ele>
      </trkpt>
      <trkpt lat="45.2065" lon="4.72628">
        <ele>249</ele>
      </trkpt>
      <trkpt lat="45.20638" lon="4.72642">
        <ele>247.4</ele>
      </trkpt>
      <trkpt lat="45.2063" lon="4.72657">
        <ele>245.7</ele>
      </trkpt>
      <trkpt lat="45.20611" lon="4.72726">
        <ele>251</ele>
      </trkpt>
      <trkpt lat="45.20604" lon="4.72737">
        <ele>249.3</ele>
      </trkpt>
      <trkpt lat="45.20592" lon="4.72745">
        <ele>245.1</ele>
      </trkpt>
      <trkpt lat="45.20574" lon="4.72783">
        <ele>249.7</ele>
      </trkpt>
      <trkpt lat="45.20568" lon="4.72788">
        <ele>250.7</ele>
      </trkpt>
      <trkpt lat="45.20457" lon="4.72819">
        <ele>237.1</ele>
      </trkpt>
      <trkpt lat="45.20427" lon="4.72821">
        <ele>234.6</ele>
      </trkpt>
      <trkpt lat="45.20413" lon="4.72826">
        <ele>233.5</ele>
      </trkpt>
      <trkpt lat="45.20406" lon="4.72839">
        <ele>235.3</ele>
      </trkpt>
      <trkpt lat="45.20402" lon="4.72857">
        <ele>236.1</ele>
      </trkpt>
      <trkpt lat="45.20402" lon="4.72894">
        <ele>240.8</ele>
      </trkpt>
      <trkpt lat="45.20398" lon="4.72952">
        <ele>244.7</ele>
      </trkpt>
      <trkpt lat="45.20392" lon="4.72974">
        <ele>245</ele>
      </trkpt>
      <trkpt lat="45.20387" lon="4.72986">
        <ele>244.8</ele>
      </trkpt>
      <trkpt lat="45.20375" lon="4.73003">
        <ele>243.8</ele>
      </trkpt>
      <trkpt lat="45.20371" lon="4.73014">
        <ele>242.7</ele>
      </trkpt>
      <trkpt lat="45.20368" lon="4.73027">
        <ele>242.4</ele>
      </trkpt>
      <trkpt lat="45.20367" lon="4.73055">
        <ele>242.7</ele>
      </trkpt>
      <trkpt lat="45.20368" lon="4.73082">
        <ele>242.7</ele>
      </trkpt>
      <trkpt lat="45.20383" lon="4.73149">
        <ele>248.9</ele>
      </trkpt>
      <trkpt lat="45.20384" lon="4.7317">
        <ele>250.7</ele>
      </trkpt>
      <trkpt lat="45.20383" lon="4.7322">
        <ele>250.4</ele>
      </trkpt>
      <trkpt lat="45.20378" lon="4.73249">
        <ele>249.7</ele>
      </trkpt>
      <trkpt lat="45.20363" lon="4.73285">
        <ele>249</ele>
      </trkpt>
      <trkpt lat="45.2036" lon="4.73304">
        <ele>248.6</ele>
      </trkpt>
      <trkpt lat="45.2036" lon="4.73331">
        <ele>247.2</ele>
      </trkpt>
      <trkpt lat="45.20357" lon="4.73341">
        <ele>250.6</ele>
      </trkpt>
      <trkpt lat="45.2031" lon="4.73428">
        <ele>241.5</ele>
      </trkpt>
      <trkpt lat="45.203" lon="4.73449">
        <ele>240.1</ele>
      </trkpt>
      <trkpt lat="45.20294" lon="4.73468">
        <ele>240.5</ele>
      </trkpt>
      <trkpt lat="45.20294" lon="4.73484">
        <ele>241.7</ele>
      </trkpt>
      <trkpt lat="45.20296" lon="4.73504">
        <ele>252.4</ele>
      </trkpt>
      <trkpt lat="45.20297" lon="4.73526">
        <ele>253.7</ele>
      </trkpt>
      <trkpt lat="45.20295" lon="4.73536">
        <ele>254.2</ele>
      </trkpt>
      <trkpt lat="45.20291" lon="4.73542">
        <ele>254.2</ele>
      </trkpt>
      <trkpt lat="45.20281" lon="4.73544">
        <ele>253.1</ele>
      </trkpt>
      <trkpt lat="45.20273" lon="4.73542">
        <ele>251.9</ele>
      </trkpt>
      <trkpt lat="45.20253" lon="4.7353">
        <ele>247.1</ele>
      </trkpt>
      <trkpt lat="45.20236" lon="4.73529">
        <ele>234</ele>
      </trkpt>
      <trkpt lat="45.20205" lon="4.73531">
        <ele>231.7</ele>
      </trkpt>
      <trkpt lat="45.20194" lon="4.73536">
        <ele>231.1</ele>
      </trkpt>
      <trkpt lat="45.20169" lon="4.73557">
        <ele>232.3</ele>
      </trkpt>
      <trkpt lat="45.20159" lon="4.73572">
        <ele>229.2</ele>
      </trkpt>
      <trkpt lat="45.20151" lon="4.73593">
        <ele>233.4</ele>
      </trkpt>
      <trkpt lat="45.20144" lon="4.73628">
        <ele>235</ele>
      </trkpt>
      <trkpt lat="45.20134" lon="4.73718">
        <ele>240.7</ele>
      </trkpt>
      <trkpt lat="45.20124" lon="4.73779">
        <ele>241.2</ele>
      </trkpt>
      <trkpt lat="45.201" lon="4.73853">
        <ele>233.7</ele>
      </trkpt>
      <trkpt lat="45.20097" lon="4.73867">
        <ele>234</ele>
      </trkpt>
      <trkpt lat="45.20097" lon="4.73882">
        <ele>233.5</ele>
      </trkpt>
      <trkpt lat="45.20099" lon="4.73896">
        <ele>232</ele>
      </trkpt>
      <trkpt lat="45.20108" lon="4.73906">
        <ele>232.9</ele>
      </trkpt>
      <trkpt lat="45.20133" lon="4.73913">
        <ele>238.9</ele>
      </trkpt>
      <trkpt lat="45.20168" lon="4.73927">
        <ele>246.8</ele>
      </trkpt>
      <trkpt lat="45.20174" lon="4.73934">
        <ele>246.6</ele>
      </trkpt>
      <trkpt lat="45.20181" lon="4.7395">
        <ele>244.7</ele>
      </trkpt>
      <trkpt lat="45.20189" lon="4.73962">
        <ele>243.1</ele>
      </trkpt>
      <trkpt lat="45.20202" lon="4.73973">
        <ele>243.4</ele>
      </trkpt>
      <trkpt lat="45.20225" lon="4.73983">
        <ele>247</ele>
      </trkpt>
      <trkpt lat="45.20237" lon="4.73997">
        <ele>247.9</ele>
      </trkpt>
      <trkpt lat="45.2024" lon="4.74004">
        <ele>241.3</ele>
      </trkpt>
      <trkpt lat="45.2024" lon="4.74013">
        <ele>238.6</ele>
      </trkpt>
      <trkpt lat="45.20239" lon="4.74039">
        <ele>232.6</ele>
      </trkpt>
      <trkpt lat="45.20242" lon="4.7405">
        <ele>231.9</ele>
      </trkpt>
      <trkpt lat="45.20257" lon="4.74078">
        <ele>244.9</ele>
      </trkpt>
      <trkpt lat="45.20265" lon="4.74118">
        <ele>249.6</ele>
      </trkpt>
      <trkpt lat="45.20275" lon="4.74151">
        <ele>248.1</ele>
      </trkpt>
      <trkpt lat="45.20282" lon="4.7419">
        <ele>246.2</ele>
      </trkpt>
      <trkpt lat="45.20284" lon="4.74211">
        <ele>246.8</ele>
      </trkpt>
      <trkpt lat="45.20283" lon="4.74244">
        <ele>244</ele>
      </trkpt>
      <trkpt lat="45.20295" lon="4.74282">
        <ele>245.8</ele>
      </trkpt>
      <trkpt lat="45.20296" lon="4.74298">
        <ele>245.6</ele>
      </trkpt>
      <trkpt lat="45.20293" lon="4.74319">
        <ele>244.1</ele>
      </trkpt>
      <trkpt lat="45.20295" lon="4.74358">
        <ele>245.2</ele>
      </trkpt>
      <trkpt lat="45.20284" lon="4.7439">
        <ele>242</ele>
      </trkpt>
      <trkpt lat="45.20275" lon="4.74449">
        <ele>246.5</ele>
      </trkpt>
      <trkpt lat="45.20268" lon="4.74476">
        <ele>245.8</ele>
      </trkpt>
      <trkpt lat="45.20251" lon="4.74518">
        <ele>247</ele>
      </trkpt>
      <trkpt lat="45.20232" lon="4.74549">
        <ele>229.9</ele>
      </trkpt>
      <trkpt lat="45.20234" lon="4.74576">
        <ele>235.3</ele>
      </trkpt>
      <trkpt lat="45.20233" lon="4.74589">
        <ele>243</ele>
      </trkpt>
      <trkpt lat="45.20227" lon="4.746">
        <ele>242.3</ele>
      </trkpt>
      <trkpt lat="45.20217" lon="4.74605">
        <ele>240.7</ele>
      </trkpt>
      <trkpt lat="45.20202" lon="4.74601">
        <ele>236.4</ele>
      </trkpt>
      <trkpt lat="45.20192" lon="4.74606">
        <ele>234.4</ele>
      </trkpt>
      <trkpt lat="45.20184" lon="4.74618">
        <ele>235.3</ele>
      </trkpt>
      <trkpt lat="45.2015" lon="4.74685">
        <ele>233.7</ele>
      </trkpt>
      <trkpt lat="45.20137" lon="4.74697">
        <ele>232.8</ele>
      </trkpt>
      <trkpt lat="45.2012" lon="4.74709">
        <ele>231.1</ele>
      </trkpt>
      <trkpt lat="45.20107" lon="4.74727">
        <ele>230.7</ele>
      </trkpt>
      <trkpt lat="45.20092" lon="4.74738">
        <ele>228.6</ele>
      </trkpt>
      <trkpt lat="45.20077" lon="4.7474">
        <ele>218.9</ele>
      </trkpt>
      <trkpt lat="45.20069" lon="4.74748">
        <ele>217.7</ele>
      </trkpt>
      <trkpt lat="45.20068" lon="4.74765">
        <ele>215.8</ele>
      </trkpt>
      <trkpt lat="45.20074" lon="4.74781">
        <ele>213.7</ele>
      </trkpt>
      <trkpt lat="45.2011" lon="4.7482">
        <ele>232.5</ele>
      </trkpt>
      <trkpt lat="45.20134" lon="4.74842">
        <ele>230.8</ele>
      </trkpt>
      <trkpt lat="45.20146" lon="4.74857">
        <ele>232.3</ele>
      </trkpt>
      <trkpt lat="45.20155" lon="4.74874">
        <ele>229.7</ele>
      </trkpt>
      <trkpt lat="45.20162" lon="4.74907">
        <ele>227.4</ele>
      </trkpt>
      <trkpt lat="45.20164" lon="4.74931">
        <ele>220.2</ele>
      </trkpt>
      <trkpt lat="45.2017" lon="4.74953">
        <ele>235</ele>
      </trkpt>
      <trkpt lat="45.20194" lon="4.74986">
        <ele>234.1</ele>
      </trkpt>
      <trkpt lat="45.20203" lon="4.75008">
        <ele>223.5</ele>
      </trkpt>
      <trkpt lat="45.20222" lon="4.75047">
        <ele>223.5</ele>
      </trkpt>
      <trkpt lat="45.20241" lon="4.7508">
        <ele>223.2</ele>
      </trkpt>
      <trkpt lat="45.20251" lon="4.75093">
        <ele>226.5</ele>
      </trkpt>
      <trkpt lat="45.20262" lon="4.75099">
        <ele>228.6</ele>
      </trkpt>
      <trkpt lat="45.20274" lon="4.75102">
        <ele>231</ele>
      </trkpt>
      <trkpt lat="45.20282" lon="4.75107">
        <ele>232.7</ele>
      </trkpt>
      <trkpt lat="45.20287" lon="4.75115">
        <ele>233.2</ele>
      </trkpt>
      <trkpt lat="45.2029" lon="4.75124">
        <ele>233</ele>
      </trkpt>
      <trkpt lat="45.20294" lon="4.75158">
        <ele>231</ele>
      </trkpt>
      <trkpt lat="45.20338" lon="4.7525">
        <ele>227.7</ele>
      </trkpt>
      <trkpt lat="45.20343" lon="4.75264">
        <ele>232.2</ele>
      </trkpt>
      <trkpt lat="45.20345" lon="4.75291">
        <ele>232</ele>
      </trkpt>
      <trkpt lat="45.2036" lon="4.75323">
        <ele>229</ele>
      </trkpt>
      <trkpt lat="45.2037" lon="4.75358">
        <ele>219.6</ele>
      </trkpt>
      <trkpt lat="45.20394" lon="4.7541">
        <ele>222.1</ele>
      </trkpt>
      <trkpt lat="45.20418" lon="4.75446">
        <ele>234.6</ele>
      </trkpt>
      <trkpt lat="45.20427" lon="4.75468">
        <ele>231.4</ele>
      </trkpt>
      <trkpt lat="45.20434" lon="4.75496">
        <ele>223.8</ele>
      </trkpt>
      <trkpt lat="45.20438" lon="4.75507">
        <ele>213.7</ele>
      </trkpt>
      <trkpt lat="45.20454" lon="4.75519">
        <ele>218.3</ele>
      </trkpt>
      <trkpt lat="45.20461" lon="4.75529">
        <ele>219.3</ele>
      </trkpt>
      <trkpt lat="45.20471" lon="4.75553">
        <ele>218.1</ele>
      </trkpt>
      <trkpt lat="45.20487" lon="4.75582">
        <ele>218.6</ele>
      </trkpt>
      <trkpt lat="45.20505" lon="4.75621">
        <ele>223.4</ele>
      </trkpt>
      <trkpt lat="45.20547" lon="4.75683">
        <ele>213.4</ele>
      </trkpt>
      <trkpt lat="45.20555" lon="4.75712">
        <ele>211.3</ele>
      </trkpt>
      <trkpt lat="45.20567" lon="4.75735">
        <ele>210.5</ele>
      </trkpt>
      <trkpt lat="45.20585" lon="4.75753">
        <ele>212.1</ele>
      </trkpt>
      <trkpt lat="45.20594" lon="4.75766">
        <ele>215</ele>
      </trkpt>
      <trkpt lat="45.20603" lon="4.75785">
        <ele>215.4</ele>
      </trkpt>
      <trkpt lat="45.20623" lon="4.75836">
        <ele>201.9</ele>
      </trkpt>
      <trkpt lat="45.20635" lon="4.75852">
        <ele>203.9</ele>
      </trkpt>
      <trkpt lat="45.20642" lon="4.75867">
        <ele>203.1</ele>
      </trkpt>
      <trkpt lat="45.20654" lon="4.75898">
        <ele>199.3</ele>
      </trkpt>
      <trkpt lat="45.20662" lon="4.75912">
        <ele>197.2</ele>
      </trkpt>
      <trkpt lat="45.20671" lon="4.75923">
        <ele>200.4</ele>
      </trkpt>
      <trkpt lat="45.20675" lon="4.75925">
        <ele>202.3</ele>
      </trkpt>
      <trkpt lat="45.20682" lon="4.75921">
        <ele>204.3</ele>
      </trkpt>
      <trkpt lat="45.20691" lon="4.7592">
        <ele>207.7</ele>
      </trkpt>
      <trkpt lat="45.20713" lon="4.75937">
        <ele>215</ele>
      </trkpt>
      <trkpt lat="45.20715" lon="4.75948">
        <ele>215.1</ele>
      </trkpt>
      <trkpt lat="45.20712" lon="4.75974">
        <ele>213.7</ele>
      </trkpt>
      <trkpt lat="45.20701" lon="4.76022">
        <ele>206.2</ele>
      </trkpt>
      <trkpt lat="45.20702" lon="4.76041">
        <ele>206.5</ele>
      </trkpt>
      <trkpt lat="45.20706" lon="4.76061">
        <ele>206.8</ele>
      </trkpt>
      <trkpt lat="45.20716" lon="4.76093">
        <ele>202.8</ele>
      </trkpt>
      <trkpt lat="45.20727" lon="4.76115">
        <ele>202.3</ele>
      </trkpt>
      <trkpt lat="45.20745" lon="4.76155">
        <ele>196.9</ele>
      </trkpt>
      <trkpt lat="45.20777" lon="4.76204">
        <ele>206.1</ele>
      </trkpt>
      <trkpt lat="45.20785" lon="4.76236">
        <ele>204.4</ele>
      </trkpt>
      <trkpt lat="45.20798" lon="4.76266">
        <ele>196.8</ele>
      </trkpt>
      <trkpt lat="45.2086" lon="4.76351">
        <ele>198.5</ele>
      </trkpt>
      <trkpt lat="45.20884" lon="4.76382">
        <ele>198.6</ele>
      </trkpt>
      <trkpt lat="45.20898" lon="4.76389">
        <ele>198.6</ele>
      </trkpt>
      <trkpt lat="45.20914" lon="4.76393">
        <ele>198.3</ele>
      </trkpt>
      <trkpt lat="45.20948" lon="4.76421">
        <ele>200.2</ele>
      </trkpt>
      <trkpt lat="45.20968" lon="4.76444">
        <ele>203</ele>
      </trkpt>
      <trkpt lat="45.21001" lon="4.76495">
        <ele>207.9</ele>
      </trkpt>
      <trkpt lat="45.21004" lon="4.76504">
        <ele>206.7</ele>
      </trkpt>
      <trkpt lat="45.21004" lon="4.76516">
        <ele>213.6</ele>
      </trkpt>
      <trkpt lat="45.21" lon="4.76536">
        <ele>218.2</ele>
      </trkpt>
      <trkpt lat="45.21001" lon="4.76555">
        <ele>217.3</ele>
      </trkpt>
      <trkpt lat="45.20998" lon="4.76571">
        <ele>196.3</ele>
      </trkpt>
      <trkpt lat="45.20992" lon="4.76584">
        <ele>200.1</ele>
      </trkpt>
      <trkpt lat="45.20974" lon="4.766">
        <ele>198.1</ele>
      </trkpt>
      <trkpt lat="45.20958" lon="4.76623">
        <ele>197.5</ele>
      </trkpt>
      <trkpt lat="45.2091" lon="4.76675">
        <ele>188.5</ele>
      </trkpt>
      <trkpt lat="45.20895" lon="4.76695">
        <ele>190.5</ele>
      </trkpt>
      <trkpt lat="45.20887" lon="4.76713">
        <ele>191.7</ele>
      </trkpt>
      <trkpt lat="45.20866" lon="4.76745">
        <ele>189.9</ele>
      </trkpt>
      <trkpt lat="45.20863" lon="4.76759">
        <ele>190.8</ele>
      </trkpt>
      <trkpt lat="45.20866" lon="4.76774">
        <ele>191.7</ele>
      </trkpt>
      <trkpt lat="45.20872" lon="4.76788">
        <ele>192.8</ele>
      </trkpt>
      <trkpt lat="45.20882" lon="4.76803">
        <ele>194.5</ele>
      </trkpt>
      <trkpt lat="45.20887" lon="4.76815">
        <ele>195.9</ele>
      </trkpt>
      <trkpt lat="45.20885" lon="4.76841">
        <ele>193.8</ele>
      </trkpt>
      <trkpt lat="45.20887" lon="4.76852">
        <ele>193.7</ele>
      </trkpt>
      <trkpt lat="45.20898" lon="4.76894">
        <ele>194</ele>
      </trkpt>
      <trkpt lat="45.20903" lon="4.76936">
        <ele>193.5</ele>
      </trkpt>
      <trkpt lat="45.20907" lon="4.76961">
        <ele>191.5</ele>
      </trkpt>
      <trkpt lat="45.20908" lon="4.76985">
        <ele>190.8</ele>
      </trkpt>
      <trkpt lat="45.2091" lon="4.76996">
        <ele>190.9</ele>
      </trkpt>
      <trkpt lat="45.20915" lon="4.77004">
        <ele>191</ele>
      </trkpt>
      <trkpt lat="45.2092" lon="4.77019">
        <ele>199.1</ele>
      </trkpt>
      <trkpt lat="45.20921" lon="4.77033">
        <ele>200.6</ele>
      </trkpt>
      <trkpt lat="45.20919" lon="4.77056">
        <ele>198.1</ele>
      </trkpt>
      <trkpt lat="45.20929" lon="4.77136">
        <ele>189.8</ele>
      </trkpt>
      <trkpt lat="45.20932" lon="4.77151">
        <ele>187.5</ele>
      </trkpt>
      <trkpt lat="45.20936" lon="4.77163">
        <ele>186.9</ele>
      </trkpt>
      <trkpt lat="45.20958" lon="4.7718">
        <ele>190.1</ele>
      </trkpt>
      <trkpt lat="45.20961" lon="4.77189">
        <ele>190.7</ele>
      </trkpt>
      <trkpt lat="45.20962" lon="4.77202">
        <ele>190.9</ele>
      </trkpt>
      <trkpt lat="45.20954" lon="4.77232">
        <ele>189.4</ele>
      </trkpt>
      <trkpt lat="45.20953" lon="4.77256">
        <ele>187.5</ele>
      </trkpt>
      <trkpt lat="45.20974" lon="4.7732">
        <ele>190.4</ele>
      </trkpt>
      <trkpt lat="45.20974" lon="4.77343">
        <ele>190.6</ele>
      </trkpt>
      <trkpt lat="45.20971" lon="4.77366">
        <ele>189.9</ele>
      </trkpt>
      <trkpt lat="45.20958" lon="4.77413">
        <ele>188.8</ele>
      </trkpt>
      <trkpt lat="45.20953" lon="4.7745">
        <ele>192.4</ele>
      </trkpt>
      <trkpt lat="45.20956" lon="4.77474">
        <ele>194</ele>
      </trkpt>
      <trkpt lat="45.20954" lon="4.77544">
        <ele>197.4</ele>
      </trkpt>
      <trkpt lat="45.2095" lon="4.77559">
        <ele>196.3</ele>
      </trkpt>
      <trkpt lat="45.20945" lon="4.77567">
        <ele>194.5</ele>
      </trkpt>
      <trkpt lat="45.20936" lon="4.77571">
        <ele>191.1</ele>
      </trkpt>
      <trkpt lat="45.20911" lon="4.77566">
        <ele>179.5</ele>
      </trkpt>
      <trkpt lat="45.209" lon="4.77574">
        <ele>179.5</ele>
      </trkpt>
      <trkpt lat="45.20895" lon="4.7758">
        <ele>179.6</ele>
      </trkpt>
      <trkpt lat="45.20891" lon="4.7759">
        <ele>178.7</ele>
      </trkpt>
      <trkpt lat="45.20889" lon="4.77609">
        <ele>178.9</ele>
      </trkpt>
      <trkpt lat="45.2088" lon="4.7766">
        <ele>179.3</ele>
      </trkpt>
      <trkpt lat="45.2088" lon="4.7767">
        <ele>178.9</ele>
      </trkpt>
      <trkpt lat="45.20891" lon="4.77729">
        <ele>178.8</ele>
      </trkpt>
      <trkpt lat="45.20901" lon="4.77745">
        <ele>179.9</ele>
      </trkpt>
      <trkpt lat="45.2092" lon="4.77781">
        <ele>187</ele>
      </trkpt>
      <trkpt lat="45.20935" lon="4.77814">
        <ele>182.5</ele>
      </trkpt>
      <trkpt lat="45.20944" lon="4.77822">
        <ele>184.3</ele>
      </trkpt>
      <trkpt lat="45.20951" lon="4.7783">
        <ele>186.5</ele>
      </trkpt>
      <trkpt lat="45.20973" lon="4.77872">
        <ele>178.3</ele>
      </trkpt>
      <trkpt lat="45.20997" lon="4.77903">
        <ele>178.2</ele>
      </trkpt>
      <trkpt lat="45.21006" lon="4.77923">
        <ele>183.8</ele>
      </trkpt>
      <trkpt lat="45.21036" lon="4.77998">
        <ele>189.5</ele>
      </trkpt>
      <trkpt lat="45.2106" lon="4.78063">
        <ele>182.6</ele>
      </trkpt>
      <trkpt lat="45.21061" lon="4.78101">
        <ele>176.5</ele>
      </trkpt>
      <trkpt lat="45.21065" lon="4.78118">
        <ele>175.1</ele>
      </trkpt>
      <trkpt lat="45.21068" lon="4.78137">
        <ele>174.5</ele>
      </trkpt>
      <trkpt lat="45.21066" lon="4.78166">
        <ele>175.2</ele>
      </trkpt>
      <trkpt lat="45.21068" lon="4.78192">
        <ele>172.3</ele>
      </trkpt>
      <trkpt lat="45.21065" lon="4.78229">
        <ele>172</ele>
      </trkpt>
      <trkpt lat="45.21068" lon="4.78256">
        <ele>175.2</ele>
      </trkpt>
      <trkpt lat="45.21068" lon="4.78279">
        <ele>174.5</ele>
      </trkpt>
      <trkpt lat="45.21063" lon="4.78288">
        <ele>174.3</ele>
      </trkpt>
      <trkpt lat="45.2104" lon="4.78317">
        <ele>171.7</ele>
      </trkpt>
      <trkpt lat="45.21016" lon="4.78383">
        <ele>174</ele>
      </trkpt>
      <trkpt lat="45.21014" lon="4.78392">
        <ele>173.4</ele>
      </trkpt>
      <trkpt lat="45.21014" lon="4.78403">
        <ele>172.4</ele>
      </trkpt>
      <trkpt lat="45.21019" lon="4.78432">
        <ele>177.3</ele>
      </trkpt>
      <trkpt lat="45.21019" lon="4.78441">
        <ele>178.7</ele>
      </trkpt>
      <trkpt lat="45.21015" lon="4.78451">
        <ele>179.4</ele>
      </trkpt>
      <trkpt lat="45.21008" lon="4.7846">
        <ele>179.6</ele>
      </trkpt>
      <trkpt lat="45.20944" lon="4.78495">
        <ele>171.1</ele>
      </trkpt>
      <trkpt lat="45.20925" lon="4.78499">
        <ele>173.6</ele>
      </trkpt>
      <trkpt lat="45.20896" lon="4.78501">
        <ele>186.1</ele>
      </trkpt>
      <trkpt lat="45.20864" lon="4.78495">
        <ele>169.2</ele>
      </trkpt>
      <trkpt lat="45.20855" lon="4.78494">
        <ele>170.2</ele>
      </trkpt>
      <trkpt lat="45.20713" lon="4.78433">
        <ele>169.8</ele>
      </trkpt>
      <trkpt lat="45.20666" lon="4.78419">
        <ele>163.8</ele>
      </trkpt>
      <trkpt lat="45.20638" lon="4.78418">
        <ele>167.4</ele>
      </trkpt>
      <trkpt lat="45.20598" lon="4.78427">
        <ele>164.4</ele>
      </trkpt>
      <trkpt lat="45.20558" lon="4.78441">
        <ele>158.7</ele>
      </trkpt>
      <trkpt lat="45.20531" lon="4.7846">
        <ele>157.7</ele>
      </trkpt>
      <trkpt lat="45.2052" lon="4.78466">
        <ele>156.9</ele>
      </trkpt>
      <trkpt lat="45.20491" lon="4.78478">
        <ele>154.2</ele>
      </trkpt>
      <trkpt lat="45.20486" lon="4.78483">
        <ele>154.1</ele>
      </trkpt>
      <trkpt lat="45.20485" lon="4.78496">
        <ele>153.7</ele>
      </trkpt>
      <trkpt lat="45.20488" lon="4.78507">
        <ele>152</ele>
      </trkpt>
      <trkpt lat="45.20508" lon="4.7854">
        <ele>155.7</ele>
      </trkpt>
      <trkpt lat="45.20515" lon="4.78547">
        <ele>155.8</ele>
      </trkpt>
      <trkpt lat="45.20542" lon="4.78567">
        <ele>157.4</ele>
      </trkpt>
      <trkpt lat="45.20554" lon="4.78579">
        <ele>158.4</ele>
      </trkpt>
      <trkpt lat="45.20597" lon="4.7859">
        <ele>168.8</ele>
      </trkpt>
      <trkpt lat="45.20606" lon="4.78597">
        <ele>172.6</ele>
      </trkpt>
      <trkpt lat="45.20615" lon="4.78609">
        <ele>175.7</ele>
      </trkpt>
      <trkpt lat="45.20624" lon="4.78632">
        <ele>177.5</ele>
      </trkpt>
      <trkpt lat="45.20625" lon="4.7864">
        <ele>177.6</ele>
      </trkpt>
      <trkpt lat="45.20623" lon="4.7865">
        <ele>176.5</ele>
      </trkpt>
      <trkpt lat="45.20619" lon="4.78658">
        <ele>174.6</ele>
      </trkpt>
      <trkpt lat="45.20615" lon="4.78661">
        <ele>172.6</ele>
      </trkpt>
      <trkpt lat="45.20578" lon="4.78671">
        <ele>151.7</ele>
      </trkpt>
      <trkpt lat="45.2053" lon="4.78755">
        <ele>161.2</ele>
      </trkpt>
      <trkpt lat="45.2049" lon="4.78784">
        <ele>161.9</ele>
      </trkpt>
      <trkpt lat="45.20457" lon="4.78797">
        <ele>162.3</ele>
      </trkpt>
      <trkpt lat="45.2038" lon="4.78812">
        <ele>168.3</ele>
      </trkpt>
      <trkpt lat="45.20349" lon="4.78829">
        <ele>166.3</ele>
      </trkpt>
      <trkpt lat="45.20325" lon="4.78851">
        <ele>165.8</ele>
      </trkpt>
      <trkpt lat="45.20304" lon="4.78878">
        <ele>167.6</ele>
      </trkpt>
      <trkpt lat="45.20294" lon="4.78925">
        <ele>159.8</ele>
      </trkpt>
      <trkpt lat="45.2026" lon="4.79002">
        <ele>160.1</ele>
      </trkpt>
      <trkpt lat="45.20255" lon="4.7905">
        <ele>158.3</ele>
      </trkpt>
      <trkpt lat="45.20259" lon="4.79082">
        <ele>162.3</ele>
      </trkpt>
      <trkpt lat="45.20268" lon="4.791">
        <ele>164.9</ele>
      </trkpt>
      <trkpt lat="45.20304" lon="4.79126">
        <ele>161.6</ele>
      </trkpt>
      <trkpt lat="45.20381" lon="4.79148">
        <ele>148.1</ele>
      </trkpt>
      <trkpt lat="45.20441" lon="4.79184">
        <ele>141.9</ele>
      </trkpt>
      <trkpt lat="45.20445" lon="4.79191">
        <ele>141.7</ele>
      </trkpt>
      <trkpt lat="45.20446" lon="4.79196">
        <ele>141.7</ele>
      </trkpt>
      <trkpt lat="45.20447" lon="4.79201">
        <ele>141.7</ele>
      </trkpt>
      <trkpt lat="45.20436" lon="4.79235">
        <ele>144.5</ele>
      </trkpt>
      <trkpt lat="45.20435" lon="4.79254">
        <ele>147.2</ele>
      </trkpt>
      <trkpt lat="45.20459" lon="4.79381">
        <ele>145.1</ele>
      </trkpt>
      <trkpt lat="45.20449" lon="4.79475">
        <ele>148.6</ele>
      </trkpt>
      <trkpt lat="45.20457" lon="4.79557">
        <ele>150</ele>
      </trkpt>
      <trkpt lat="45.20463" lon="4.79577">
        <ele>148.3</ele>
      </trkpt>
      <trkpt lat="45.20468" lon="4.79601">
        <ele>148.2</ele>
      </trkpt>
      <trkpt lat="45.20445" lon="4.79735">
        <ele>148.9</ele>
      </trkpt>
      <trkpt lat="45.20415" lon="4.79835">
        <ele>138.4</ele>
      </trkpt>
      <trkpt lat="45.20402" lon="4.79862">
        <ele>140.6</ele>
      </trkpt>
      <trkpt lat="45.2032" lon="4.80033">
        <ele>132</ele>
      </trkpt>
      <trkpt lat="45.20318" lon="4.80028">
        <ele>132.1</ele>
      </trkpt>
      <trkpt lat="45.20316" lon="4.80002">
        <ele>132.7</ele>
      </trkpt>
      <trkpt lat="45.20318" lon="4.80028">
        <ele>132.1</ele>
      </trkpt>
      <trkpt lat="45.2032" lon="4.80033">
        <ele>132</ele>
      </trkpt>
      <trkpt lat="45.20282" lon="4.80109">
        <ele>129.8</ele>
      </trkpt>
      <trkpt lat="45.20277" lon="4.80126">
        <ele>129.8</ele>
      </trkpt>
      <trkpt lat="45.20277" lon="4.8015">
        <ele>129.8</ele>
      </trkpt>
      <trkpt lat="45.20271" lon="4.80169">
        <ele>130.1</ele>
      </trkpt>
      <trkpt lat="45.20271" lon="4.80177">
        <ele>130.2</ele>
      </trkpt>
      <trkpt lat="45.20251" lon="4.80174">
        <ele>130.1</ele>
      </trkpt>
      <trkpt lat="45.20237" lon="4.80169">
        <ele>130.3</ele>
      </trkpt>
      <trkpt lat="45.20221" lon="4.80173">
        <ele>130.5</ele>
      </trkpt>
      <trkpt lat="45.20016" lon="4.80154">
        <ele>131.1</ele>
      </trkpt>
      <trkpt lat="45.19995" lon="4.80152">
        <ele>131.4</ele>
      </trkpt>
      <trkpt lat="45.19975" lon="4.80145">
        <ele>132.2</ele>
      </trkpt>
      <trkpt lat="45.1996" lon="4.80142">
        <ele>132.5</ele>
      </trkpt>
      <trkpt lat="45.19945" lon="4.80143">
        <ele>132.5</ele>
      </trkpt>
      <trkpt lat="45.19933" lon="4.80147">
        <ele>132.3</ele>
      </trkpt>
      <trkpt lat="45.19894" lon="4.80143">
        <ele>132.9</ele>
      </trkpt>
      <trkpt lat="45.19887" lon="4.80142">
        <ele>133</ele>
      </trkpt>
      <trkpt lat="45.19878" lon="4.80142">
        <ele>133.1</ele>
      </trkpt>
      <trkpt lat="45.19824" lon="4.80137">
        <ele>132.3</ele>
      </trkpt>
      <trkpt lat="45.19821" lon="4.80132">
        <ele>132.3</ele>
      </trkpt>
      <trkpt lat="45.19761" lon="4.80127">
        <ele>131.5</ele>
      </trkpt>
      <trkpt lat="45.19754" lon="4.80126">
        <ele>131.4</ele>
      </trkpt>
      <trkpt lat="45.19702" lon="4.80121">
        <ele>130</ele>
      </trkpt>
      <trkpt lat="45.19633" lon="4.80114">
        <ele>129.2</ele>
      </trkpt>
      <trkpt lat="45.19617" lon="4.80113">
        <ele>129.2</ele>
      </trkpt>
      <trkpt lat="45.19609" lon="4.80112">
        <ele>129.2</ele>
      </trkpt>
      <trkpt lat="45.196" lon="4.80111">
        <ele>129.2</ele>
      </trkpt>
      <trkpt lat="45.19527" lon="4.80105">
        <ele>129.4</ele>
      </trkpt>
      <trkpt lat="45.19504" lon="4.80102">
        <ele>129.6</ele>
      </trkpt>
      <trkpt lat="45.1949" lon="4.80101">
        <ele>129.4</ele>
      </trkpt>
      <trkpt lat="45.19435" lon="4.80096">
        <ele>128.6</ele>
      </trkpt>
      <trkpt lat="45.19397" lon="4.8009">
        <ele>128.4</ele>
      </trkpt>
      <trkpt lat="45.1935" lon="4.8007">
        <ele>128.4</ele>
      </trkpt>
      <trkpt lat="45.1933" lon="4.80056">
        <ele>128.4</ele>
      </trkpt>
      <trkpt lat="45.19316" lon="4.80044">
        <ele>128.5</ele>
      </trkpt>
      <trkpt lat="45.19303" lon="4.8001">
        <ele>128.6</ele>
      </trkpt>
      <trkpt lat="45.19261" lon="4.79883">
        <ele>140.4</ele>
      </trkpt>
      <trkpt lat="45.19256" lon="4.79866">
        <ele>141.2</ele>
      </trkpt>
      <trkpt lat="45.19248" lon="4.79875">
        <ele>131.4</ele>
      </trkpt>
      <trkpt lat="45.19216" lon="4.79907">
        <ele>130.2</ele>
      </trkpt>
      <trkpt lat="45.19209" lon="4.79902">
        <ele>130.1</ele>
      </trkpt>
      <trkpt lat="45.1916" lon="4.7984">
        <ele>128.4</ele>
      </trkpt>
      <trkpt lat="45.19156" lon="4.79838">
        <ele>128.5</ele>
      </trkpt>
      <trkpt lat="45.1914" lon="4.79825">
        <ele>129.7</ele>
      </trkpt>
      <trkpt lat="45.19119" lon="4.79811">
        <ele>130.2</ele>
      </trkpt>
      <trkpt lat="45.19094" lon="4.79804">
        <ele>130.3</ele>
      </trkpt>
      <trkpt lat="45.19079" lon="4.79801">
        <ele>130.7</ele>
      </trkpt>
      <trkpt lat="45.19007" lon="4.79792">
        <ele>131.2</ele>
      </trkpt>
      <trkpt lat="45.19002" lon="4.79787">
        <ele>131.2</ele>
      </trkpt>
      <trkpt lat="45.18998" lon="4.79787">
        <ele>131.7</ele>
      </trkpt>
      <trkpt lat="45.18995" lon="4.79782">
        <ele>131.7</ele>
      </trkpt>
      <trkpt lat="45.1899" lon="4.79779">
        <ele>131.8</ele>
      </trkpt>
      <trkpt lat="45.18918" lon="4.79779">
        <ele>132.1</ele>
      </trkpt>
      <trkpt lat="45.18906" lon="4.79777">
        <ele>132.5</ele>
      </trkpt>
      <trkpt lat="45.18904" lon="4.79777">
        <ele>132.5</ele>
      </trkpt>
      <trkpt lat="45.1889" lon="4.79776">
        <ele>132.6</ele>
      </trkpt>
      <trkpt lat="45.18881" lon="4.79775">
        <ele>132.6</ele>
      </trkpt>
      <trkpt lat="45.18871" lon="4.79774">
        <ele>132.6</ele>
      </trkpt>
      <trkpt lat="45.18808" lon="4.79766">
        <ele>134.3</ele>
      </trkpt>
      <trkpt lat="45.18755" lon="4.79755">
        <ele>136.4</ele>
      </trkpt>
      <trkpt lat="45.18747" lon="4.79759">
        <ele>137.1</ele>
      </trkpt>
      <trkpt lat="45.18701" lon="4.79786">
        <ele>137.6</ele>
      </trkpt>
      <trkpt lat="45.18696" lon="4.79788">
        <ele>137.7</ele>
      </trkpt>
      <trkpt lat="45.18678" lon="4.79797">
        <ele>137.8</ele>
      </trkpt>
      <trkpt lat="45.18678" lon="4.79798">
        <ele>137.8</ele>
      </trkpt>
      <trkpt lat="45.18659" lon="4.79805">
        <ele>139</ele>
      </trkpt>
      <trkpt lat="45.18638" lon="4.79802">
        <ele>139.2</ele>
      </trkpt>
      <trkpt lat="45.18623" lon="4.79806">
        <ele>139.3</ele>
      </trkpt>
      <trkpt lat="45.18614" lon="4.79819">
        <ele>139.1</ele>
      </trkpt>
      <trkpt lat="45.18602" lon="4.79837">
        <ele>137.5</ele>
      </trkpt>
      <trkpt lat="45.18593" lon="4.79851">
        <ele>137.4</ele>
      </trkpt>
      <trkpt lat="45.18514" lon="4.79882">
        <ele>137.1</ele>
      </trkpt>
      <trkpt lat="45.18477" lon="4.79897">
        <ele>139.4</ele>
      </trkpt>
      <trkpt lat="45.18411" lon="4.79896">
        <ele>143.6</ele>
      </trkpt>
      <trkpt lat="45.18263" lon="4.79927">
        <ele>139.2</ele>
      </trkpt>
      <trkpt lat="45.18243" lon="4.79944">
        <ele>143.6</ele>
      </trkpt>
      <trkpt lat="45.18212" lon="4.79985">
        <ele>142.6</ele>
      </trkpt>
      <trkpt lat="45.18211" lon="4.79991">
        <ele>142.2</ele>
      </trkpt>
      <trkpt lat="45.18175" lon="4.80004">
        <ele>138.7</ele>
      </trkpt>
      <trkpt lat="45.18177" lon="4.8001">
        <ele>137.7</ele>
      </trkpt>
      <trkpt lat="45.18183" lon="4.80067">
        <ele>133.2</ele>
      </trkpt>
      <trkpt lat="45.18182" lon="4.80082">
        <ele>132.8</ele>
      </trkpt>
      <trkpt lat="45.18179" lon="4.80114">
        <ele>130.6</ele>
      </trkpt>
      <trkpt lat="45.18182" lon="4.80128">
        <ele>130.3</ele>
      </trkpt>
      <trkpt lat="45.18171" lon="4.8013">
        <ele>130.2</ele>
      </trkpt>
      <trkpt lat="45.18117" lon="4.80149">
        <ele>131</ele>
      </trkpt>
      <trkpt lat="45.18056" lon="4.8021">
        <ele>130.6</ele>
      </trkpt>
      <trkpt lat="45.18004" lon="4.80255">
        <ele>128.4</ele>
      </trkpt>
      <trkpt lat="45.17988" lon="4.80263">
        <ele>129</ele>
      </trkpt>
      <trkpt lat="45.17949" lon="4.80275">
        <ele>129.8</ele>
      </trkpt>
      <trkpt lat="45.1754" lon="4.80602">
        <ele>129</ele>
      </trkpt>
      <trkpt lat="45.17469" lon="4.80666">
        <ele>130.3</ele>
      </trkpt>
      <trkpt lat="45.17466" lon="4.80676">
        <ele>129.7</ele>
      </trkpt>
      <trkpt lat="45.17469" lon="4.80695">
        <ele>129.5</ele>
      </trkpt>
      <trkpt lat="45.17459" lon="4.80695">
        <ele>129.6</ele>
      </trkpt>
      <trkpt lat="45.17449" lon="4.80698">
        <ele>129.6</ele>
      </trkpt>
      <trkpt lat="45.17443" lon="4.80703">
        <ele>129.6</ele>
      </trkpt>
      <trkpt lat="45.17427" lon="4.80735">
        <ele>129.7</ele>
      </trkpt>
      <trkpt lat="45.17421" lon="4.80742">
        <ele>129.8</ele>
      </trkpt>
      <trkpt lat="45.17413" lon="4.80745">
        <ele>129.9</ele>
      </trkpt>
      <trkpt lat="45.17407" lon="4.80743">
        <ele>129.8</ele>
      </trkpt>
      <trkpt lat="45.17382" lon="4.80729">
        <ele>129.6</ele>
      </trkpt>
      <trkpt lat="45.17379" lon="4.80722">
        <ele>129.5</ele>
      </trkpt>
      <trkpt lat="45.17377" lon="4.80713">
        <ele>129.5</ele>
      </trkpt>
      <trkpt lat="45.17369" lon="4.80717">
        <ele>129.5</ele>
      </trkpt>
      <trkpt lat="45.17366" lon="4.80731">
        <ele>129.4</ele>
      </trkpt>
      <trkpt lat="45.17358" lon="4.80728">
        <ele>129.4</ele>
      </trkpt>
      <trkpt lat="45.17262" lon="4.80681">
        <ele>129.9</ele>
      </trkpt>
      <trkpt lat="45.17209" lon="4.8066">
        <ele>130.7</ele>
      </trkpt>
      <trkpt lat="45.17157" lon="4.80643">
        <ele>130.2</ele>
      </trkpt>
      <trkpt lat="45.17103" lon="4.80631">
        <ele>131.3</ele>
      </trkpt>
      <trkpt lat="45.17055" lon="4.80624">
        <ele>132</ele>
      </trkpt>
      <trkpt lat="45.17031" lon="4.80618">
        <ele>132.4</ele>
      </trkpt>
      <trkpt lat="45.17028" lon="4.80619">
        <ele>132.3</ele>
      </trkpt>
      <trkpt lat="45.16991" lon="4.80615">
        <ele>133.7</ele>
      </trkpt>
      <trkpt lat="45.16975" lon="4.80617">
        <ele>133.6</ele>
      </trkpt>
      <trkpt lat="45.16961" lon="4.80625">
        <ele>133.2</ele>
      </trkpt>
      <trkpt lat="45.16945" lon="4.80629">
        <ele>133.1</ele>
      </trkpt>
      <trkpt lat="45.16932" lon="4.80627">
        <ele>133.4</ele>
      </trkpt>
      <trkpt lat="45.16925" lon="4.80623">
        <ele>133.9</ele>
      </trkpt>
      <trkpt lat="45.16918" lon="4.80623">
        <ele>134</ele>
      </trkpt>
      <trkpt lat="45.16895" lon="4.80638">
        <ele>135.7</ele>
      </trkpt>
      <trkpt lat="45.16881" lon="4.80644">
        <ele>136.1</ele>
      </trkpt>
      <trkpt lat="45.16878" lon="4.80642">
        <ele>136.4</ele>
      </trkpt>
      <trkpt lat="45.16882" lon="4.80634">
        <ele>136.8</ele>
      </trkpt>
      <trkpt lat="45.16904" lon="4.80615">
        <ele>137.9</ele>
      </trkpt>
      <trkpt lat="45.16907" lon="4.80608">
        <ele>138.6</ele>
      </trkpt>
      <trkpt lat="45.16904" lon="4.80606">
        <ele>138.8</ele>
      </trkpt>
      <trkpt lat="45.16849" lon="4.80649">
        <ele>137.3</ele>
      </trkpt>
      <trkpt lat="45.16842" lon="4.80649">
        <ele>137.5</ele>
      </trkpt>
      <trkpt lat="45.16834" lon="4.80655">
        <ele>137.3</ele>
      </trkpt>
      <trkpt lat="45.16819" lon="4.8066">
        <ele>140.4</ele>
      </trkpt>
      <trkpt lat="45.16805" lon="4.80666">
        <ele>141.7</ele>
      </trkpt>
      <trkpt lat="45.16797" lon="4.80675">
        <ele>135.2</ele>
      </trkpt>
      <trkpt lat="45.16787" lon="4.8068">
        <ele>135.3</ele>
      </trkpt>
      <trkpt lat="45.16761" lon="4.80694">
        <ele>135.5</ele>
      </trkpt>
      <trkpt lat="45.16741" lon="4.80698">
        <ele>139.8</ele>
      </trkpt>
      <trkpt lat="45.16724" lon="4.80709">
        <ele>139.6</ele>
      </trkpt>
      <trkpt lat="45.16686" lon="4.80735">
        <ele>140.6</ele>
      </trkpt>
      <trkpt lat="45.16649" lon="4.80764">
        <ele>139.5</ele>
      </trkpt>
      <trkpt lat="45.16642" lon="4.80773">
        <ele>139</ele>
      </trkpt>
      <trkpt lat="45.16641" lon="4.80777">
        <ele>138.8</ele>
      </trkpt>
      <trkpt lat="45.16637" lon="4.80782">
        <ele>138.5</ele>
      </trkpt>
      <trkpt lat="45.16633" lon="4.80784">
        <ele>138.5</ele>
      </trkpt>
      <trkpt lat="45.16626" lon="4.80783">
        <ele>138.9</ele>
      </trkpt>
      <trkpt lat="45.16617" lon="4.80788">
        <ele>139</ele>
      </trkpt>
      <trkpt lat="45.16421" lon="4.80926">
        <ele>135.6</ele>
      </trkpt>
      <trkpt lat="45.16302" lon="4.80999">
        <ele>140.8</ele>
      </trkpt>
      <trkpt lat="45.16283" lon="4.8102">
        <ele>135.1</ele>
      </trkpt>
      <trkpt lat="45.1625" lon="4.81049">
        <ele>134.1</ele>
      </trkpt>
      <trkpt lat="45.16216" lon="4.81094">
        <ele>133.3</ele>
      </trkpt>
      <trkpt lat="45.16206" lon="4.81103">
        <ele>133.6</ele>
      </trkpt>
      <trkpt lat="45.16194" lon="4.81107">
        <ele>134.1</ele>
      </trkpt>
      <trkpt lat="45.16179" lon="4.81111">
        <ele>134.6</ele>
      </trkpt>
      <trkpt lat="45.16163" lon="4.81111">
        <ele>137.9</ele>
      </trkpt>
      <trkpt lat="45.16156" lon="4.81118">
        <ele>137.8</ele>
      </trkpt>
      <trkpt lat="45.16038" lon="4.8129">
        <ele>137.6</ele>
      </trkpt>
      <trkpt lat="45.15977" lon="4.8136">
        <ele>136.4</ele>
      </trkpt>
      <trkpt lat="45.15946" lon="4.81393">
        <ele>135.7</ele>
      </trkpt>
      <trkpt lat="45.15899" lon="4.81437">
        <ele>134.8</ele>
      </trkpt>
      <trkpt lat="45.15848" lon="4.81476">
        <ele>134.9</ele>
      </trkpt>
      <trkpt lat="45.15797" lon="4.8151">
        <ele>133.7</ele>
      </trkpt>
      <trkpt lat="45.15743" lon="4.81537">
        <ele>132.6</ele>
      </trkpt>
      <trkpt lat="45.15738" lon="4.8154">
        <ele>132.5</ele>
      </trkpt>
      <trkpt lat="45.1568" lon="4.81565">
        <ele>131.7</ele>
      </trkpt>
      <trkpt lat="45.15607" lon="4.81586">
        <ele>130.4</ele>
      </trkpt>
      <trkpt lat="45.15593" lon="4.81586">
        <ele>130.7</ele>
      </trkpt>
      <trkpt lat="45.15566" lon="4.81593">
        <ele>130.5</ele>
      </trkpt>
      <trkpt lat="45.15517" lon="4.81596">
        <ele>131.3</ele>
      </trkpt>
      <trkpt lat="45.15453" lon="4.81591">
        <ele>131.7</ele>
      </trkpt>
      <trkpt lat="45.15417" lon="4.81583">
        <ele>133.1</ele>
      </trkpt>
      <trkpt lat="45.15382" lon="4.81573">
        <ele>133.5</ele>
      </trkpt>
      <trkpt lat="45.15362" lon="4.81573">
        <ele>133</ele>
      </trkpt>
      <trkpt lat="45.15351" lon="4.81567">
        <ele>132.8</ele>
      </trkpt>
      <trkpt lat="45.15333" lon="4.81563">
        <ele>131.6</ele>
      </trkpt>
      <trkpt lat="45.15266" lon="4.81539">
        <ele>131.9</ele>
      </trkpt>
      <trkpt lat="45.15223" lon="4.81521">
        <ele>130.9</ele>
      </trkpt>
      <trkpt lat="45.15216" lon="4.81513">
        <ele>130.9</ele>
      </trkpt>
      <trkpt lat="45.15179" lon="4.81498">
        <ele>132.7</ele>
      </trkpt>
      <trkpt lat="45.15104" lon="4.81463">
        <ele>131.1</ele>
      </trkpt>
      <trkpt lat="45.15095" lon="4.81463">
        <ele>131</ele>
      </trkpt>
      <trkpt lat="45.15087" lon="4.81453">
        <ele>131.4</ele>
      </trkpt>
      <trkpt lat="45.15016" lon="4.81422">
        <ele>129.6</ele>
      </trkpt>
      <trkpt lat="45.14917" lon="4.81372">
        <ele>132.8</ele>
      </trkpt>
      <trkpt lat="45.14872" lon="4.81353">
        <ele>129</ele>
      </trkpt>
      <trkpt lat="45.14854" lon="4.81341">
        <ele>128.9</ele>
      </trkpt>
      <trkpt lat="45.14857" lon="4.81331">
        <ele>133.1</ele>
      </trkpt>
      <trkpt lat="45.14861" lon="4.81315">
        <ele>134.2</ele>
      </trkpt>
      <trkpt lat="45.14861" lon="4.81305">
        <ele>134.8</ele>
      </trkpt>
      <trkpt lat="45.14846" lon="4.81296">
        <ele>134.8</ele>
      </trkpt>
      <trkpt lat="45.14808" lon="4.81285">
        <ele>131.6</ele>
      </trkpt>
      <trkpt lat="45.14802" lon="4.81278">
        <ele>131.7</ele>
      </trkpt>
      <trkpt lat="45.14799" lon="4.81269">
        <ele>132</ele>
      </trkpt>
      <trkpt lat="45.14799" lon="4.81262">
        <ele>132.2</ele>
      </trkpt>
      <trkpt lat="45.14802" lon="4.81255">
        <ele>132.5</ele>
      </trkpt>
      <trkpt lat="45.14804" lon="4.81249">
        <ele>137.2</ele>
      </trkpt>
      <trkpt lat="45.14807" lon="4.81243">
        <ele>137.4</ele>
      </trkpt>
      <trkpt lat="45.14806" lon="4.81231">
        <ele>137.8</ele>
      </trkpt>
      <trkpt lat="45.14787" lon="4.81215">
        <ele>138.2</ele>
      </trkpt>
      <trkpt lat="45.14737" lon="4.81175">
        <ele>137.1</ele>
      </trkpt>
      <trkpt lat="45.14699" lon="4.81144">
        <ele>138.1</ele>
      </trkpt>
      <trkpt lat="45.14668" lon="4.81113">
        <ele>138.8</ele>
      </trkpt>
      <trkpt lat="45.14629" lon="4.81075">
        <ele>139</ele>
      </trkpt>
      <trkpt lat="45.14615" lon="4.8106">
        <ele>138.7</ele>
      </trkpt>
      <trkpt lat="45.14605" lon="4.81053">
        <ele>138.5</ele>
      </trkpt>
      <trkpt lat="45.14601" lon="4.81047">
        <ele>138.7</ele>
      </trkpt>
      <trkpt lat="45.14594" lon="4.81036">
        <ele>138.9</ele>
      </trkpt>
      <trkpt lat="45.1457" lon="4.8101">
        <ele>137</ele>
      </trkpt>
      <trkpt lat="45.14539" lon="4.80985">
        <ele>138.7</ele>
      </trkpt>
      <trkpt lat="45.14523" lon="4.80968">
        <ele>138.7</ele>
      </trkpt>
      <trkpt lat="45.14477" lon="4.80932">
        <ele>137.1</ele>
      </trkpt>
      <trkpt lat="45.14441" lon="4.80896">
        <ele>138.2</ele>
      </trkpt>
      <trkpt lat="45.14423" lon="4.80873">
        <ele>138.1</ele>
      </trkpt>
      <trkpt lat="45.14414" lon="4.80859">
        <ele>136</ele>
      </trkpt>
      <trkpt lat="45.14404" lon="4.80849">
        <ele>136.1</ele>
      </trkpt>
      <trkpt lat="45.14365" lon="4.80821">
        <ele>138.4</ele>
      </trkpt>
      <trkpt lat="45.14356" lon="4.80811">
        <ele>138.5</ele>
      </trkpt>
      <trkpt lat="45.14342" lon="4.80787">
        <ele>139.4</ele>
      </trkpt>
      <trkpt lat="45.14322" lon="4.8072">
        <ele>138.9</ele>
      </trkpt>
      <trkpt lat="45.14306" lon="4.80702">
        <ele>138.5</ele>
      </trkpt>
      <trkpt lat="45.14298" lon="4.8069">
        <ele>138.3</ele>
      </trkpt>
      <trkpt lat="45.14277" lon="4.80653">
        <ele>140.8</ele>
      </trkpt>
      <trkpt lat="45.1427" lon="4.80632">
        <ele>141.6</ele>
      </trkpt>
      <trkpt lat="45.14266" lon="4.80624">
        <ele>141.8</ele>
      </trkpt>
      <trkpt lat="45.14259" lon="4.80606">
        <ele>141.7</ele>
      </trkpt>
      <trkpt lat="45.14254" lon="4.80606">
        <ele>141.5</ele>
      </trkpt>
      <trkpt lat="45.14228" lon="4.80604">
        <ele>141.3</ele>
      </trkpt>
      <trkpt lat="45.14222" lon="4.80608">
        <ele>141.6</ele>
      </trkpt>
      <trkpt lat="45.14213" lon="4.8062">
        <ele>141.7</ele>
      </trkpt>
      <trkpt lat="45.14204" lon="4.80632">
        <ele>141.5</ele>
      </trkpt>
      <trkpt lat="45.14201" lon="4.80639">
        <ele>141.2</ele>
      </trkpt>
      <trkpt lat="45.14198" lon="4.80649">
        <ele>140.7</ele>
      </trkpt>
      <trkpt lat="45.14196" lon="4.80658">
        <ele>140.4</ele>
      </trkpt>
      <trkpt lat="45.14192" lon="4.8071">
        <ele>133.3</ele>
      </trkpt>
      <trkpt lat="45.14186" lon="4.80719">
        <ele>133</ele>
      </trkpt>
      <trkpt lat="45.14181" lon="4.80721">
        <ele>132.9</ele>
      </trkpt>
      <trkpt lat="45.14173" lon="4.80722">
        <ele>132.9</ele>
      </trkpt>
      <trkpt lat="45.14171" lon="4.80723">
        <ele>132.8</ele>
      </trkpt>
      <trkpt lat="45.14131" lon="4.80736">
        <ele>134.6</ele>
      </trkpt>
      <trkpt lat="45.14106" lon="4.80736">
        <ele>135</ele>
      </trkpt>
      <trkpt lat="45.14082" lon="4.80733">
        <ele>134.4</ele>
      </trkpt>
      <trkpt lat="45.14069" lon="4.80727">
        <ele>134.5</ele>
      </trkpt>
      <trkpt lat="45.14054" lon="4.80712">
        <ele>134.7</ele>
      </trkpt>
      <trkpt lat="45.1404" lon="4.80702">
        <ele>134.6</ele>
      </trkpt>
      <trkpt lat="45.13995" lon="4.80693">
        <ele>132.3</ele>
      </trkpt>
      <trkpt lat="45.13968" lon="4.8069">
        <ele>131.9</ele>
      </trkpt>
      <trkpt lat="45.13966" lon="4.8069">
        <ele>131.9</ele>
      </trkpt>
      <trkpt lat="45.13963" lon="4.80705">
        <ele>131.6</ele>
      </trkpt>
      <trkpt lat="45.13963" lon="4.80708">
        <ele>131.6</ele>
      </trkpt>
      <trkpt lat="45.13961" lon="4.80716">
        <ele>131.4</ele>
      </trkpt>
      <trkpt lat="45.13958" lon="4.80723">
        <ele>131.3</ele>
      </trkpt>
      <trkpt lat="45.13955" lon="4.80735">
        <ele>131.2</ele>
      </trkpt>
      <trkpt lat="45.13947" lon="4.80752">
        <ele>129.8</ele>
      </trkpt>
      <trkpt lat="45.13935" lon="4.80776">
        <ele>129.7</ele>
      </trkpt>
      <trkpt lat="45.13916" lon="4.80812">
        <ele>128.8</ele>
      </trkpt>
      <trkpt lat="45.13902" lon="4.80838">
        <ele>129</ele>
      </trkpt>
      <trkpt lat="45.13892" lon="4.80844">
        <ele>128.5</ele>
      </trkpt>
      <trkpt lat="45.13885" lon="4.80845">
        <ele>128.3</ele>
      </trkpt>
      <trkpt lat="45.13875" lon="4.80845">
        <ele>127.8</ele>
      </trkpt>
      <trkpt lat="45.13869" lon="4.80843">
        <ele>127.6</ele>
      </trkpt>
      <trkpt lat="45.13858" lon="4.80834">
        <ele>127</ele>
      </trkpt>
      <trkpt lat="45.13848" lon="4.80813">
        <ele>126.7</ele>
      </trkpt>
      <trkpt lat="45.13833" lon="4.80778">
        <ele>125.5</ele>
      </trkpt>
      <trkpt lat="45.13832" lon="4.80757">
        <ele>125.8</ele>
      </trkpt>
      <trkpt lat="45.13823" lon="4.80731">
        <ele>125.9</ele>
      </trkpt>
      <trkpt lat="45.13803" lon="4.80693">
        <ele>125.8</ele>
      </trkpt>
      <trkpt lat="45.13781" lon="4.80655">
        <ele>125.7</ele>
      </trkpt>
      <trkpt lat="45.1377" lon="4.80645">
        <ele>125.6</ele>
      </trkpt>
      <trkpt lat="45.13759" lon="4.80642">
        <ele>125.5</ele>
      </trkpt>
      <trkpt lat="45.13756" lon="4.80635">
        <ele>125.5</ele>
      </trkpt>
      <trkpt lat="45.13722" lon="4.80565">
        <ele>124.2</ele>
      </trkpt>
      <trkpt lat="45.1368" lon="4.80495">
        <ele>125.8</ele>
      </trkpt>
      <trkpt lat="45.13659" lon="4.80468">
        <ele>124.5</ele>
      </trkpt>
      <trkpt lat="45.13622" lon="4.8043">
        <ele>124.8</ele>
      </trkpt>
      <trkpt lat="45.13546" lon="4.80374">
        <ele>126.9</ele>
      </trkpt>
      <trkpt lat="45.13521" lon="4.80348">
        <ele>126.7</ele>
      </trkpt>
      <trkpt lat="45.13494" lon="4.80313">
        <ele>128.2</ele>
      </trkpt>
      <trkpt lat="45.13476" lon="4.80299">
        <ele>129.1</ele>
      </trkpt>
      <trkpt lat="45.13456" lon="4.80294">
        <ele>128.9</ele>
      </trkpt>
      <trkpt lat="45.13441" lon="4.80296">
        <ele>128.4</ele>
      </trkpt>
      <trkpt lat="45.13424" lon="4.80296">
        <ele>128.1</ele>
      </trkpt>
      <trkpt lat="45.13387" lon="4.80272">
        <ele>125.6</ele>
      </trkpt>
      <trkpt lat="45.13365" lon="4.80267">
        <ele>125.1</ele>
      </trkpt>
      <trkpt lat="45.13328" lon="4.80268">
        <ele>124.1</ele>
      </trkpt>
      <trkpt lat="45.13289" lon="4.80259">
        <ele>124.4</ele>
      </trkpt>
      <trkpt lat="45.13247" lon="4.80254">
        <ele>124.7</ele>
      </trkpt>
      <trkpt lat="45.13201" lon="4.80244">
        <ele>130.8</ele>
      </trkpt>
      <trkpt lat="45.13186" lon="4.80243">
        <ele>129.6</ele>
      </trkpt>
      <trkpt lat="45.13157" lon="4.80249">
        <ele>127.5</ele>
      </trkpt>
      <trkpt lat="45.1314" lon="4.80249">
        <ele>130.5</ele>
      </trkpt>
      <trkpt lat="45.13007" lon="4.80229">
        <ele>128.5</ele>
      </trkpt>
      <trkpt lat="45.1289" lon="4.80208">
        <ele>125.6</ele>
      </trkpt>
      <trkpt lat="45.12809" lon="4.80177">
        <ele>126.6</ele>
      </trkpt>
      <trkpt lat="45.12788" lon="4.80177">
        <ele>126.3</ele>
      </trkpt>
      <trkpt lat="45.12767" lon="4.80171">
        <ele>126.8</ele>
      </trkpt>
      <trkpt lat="45.12744" lon="4.80167">
        <ele>127.4</ele>
      </trkpt>
      <trkpt lat="45.12709" lon="4.80171">
        <ele>125.7</ele>
      </trkpt>
      <trkpt lat="45.12453" lon="4.80117">
        <ele>125.9</ele>
      </trkpt>
      <trkpt lat="45.12431" lon="4.80111">
        <ele>126.1</ele>
      </trkpt>
      <trkpt lat="45.12424" lon="4.80107">
        <ele>126.2</ele>
      </trkpt>
      <trkpt lat="45.12413" lon="4.80103">
        <ele>125.9</ele>
      </trkpt>
      <trkpt lat="45.12384" lon="4.80104">
        <ele>125.4</ele>
      </trkpt>
      <trkpt lat="45.12329" lon="4.80094">
        <ele>125.5</ele>
      </trkpt>
      <trkpt lat="45.12303" lon="4.80093">
        <ele>125.2</ele>
      </trkpt>
      <trkpt lat="45.12237" lon="4.80103">
        <ele>125.7</ele>
      </trkpt>
      <trkpt lat="45.12201" lon="4.80118">
        <ele>125.6</ele>
      </trkpt>
      <trkpt lat="45.12196" lon="4.80118">
        <ele>125.7</ele>
      </trkpt>
      <trkpt lat="45.12193" lon="4.80119">
        <ele>125.7</ele>
      </trkpt>
      <trkpt lat="45.12191" lon="4.80121">
        <ele>125.7</ele>
      </trkpt>
      <trkpt lat="45.12173" lon="4.80134">
        <ele>125.5</ele>
      </trkpt>
      <trkpt lat="45.12153" lon="4.80148">
        <ele>125.3</ele>
      </trkpt>
      <trkpt lat="45.12128" lon="4.80155">
        <ele>125.1</ele>
      </trkpt>
      <trkpt lat="45.12111" lon="4.80161">
        <ele>124.7</ele>
      </trkpt>
      <trkpt lat="45.12096" lon="4.80174">
        <ele>123.1</ele>
      </trkpt>
      <trkpt lat="45.12082" lon="4.80178">
        <ele>123.2</ele>
      </trkpt>
      <trkpt lat="45.12055" lon="4.80292">
        <ele>122.3</ele>
      </trkpt>
      <trkpt lat="45.12051" lon="4.80324">
        <ele>122.2</ele>
      </trkpt>
      <trkpt lat="45.1205" lon="4.80332">
        <ele>122.2</ele>
      </trkpt>
      <trkpt lat="45.12047" lon="4.80357">
        <ele>122.1</ele>
      </trkpt>
      <trkpt lat="45.12035" lon="4.80385">
        <ele>122.3</ele>
      </trkpt>
      <trkpt lat="45.11997" lon="4.80438">
        <ele>122.5</ele>
      </trkpt>
      <trkpt lat="45.11973" lon="4.80477">
        <ele>122.2</ele>
      </trkpt>
      <trkpt lat="45.11908" lon="4.80552">
        <ele>120.1</ele>
      </trkpt>
      <trkpt lat="45.11885" lon="4.80573">
        <ele>120.1</ele>
      </trkpt>
      <trkpt lat="45.11816" lon="4.80635">
        <ele>122.3</ele>
      </trkpt>
      <trkpt lat="45.11674" lon="4.80734">
        <ele>123.2</ele>
      </trkpt>
      <trkpt lat="45.1159" lon="4.808">
        <ele>123.5</ele>
      </trkpt>
      <trkpt lat="45.11558" lon="4.80833">
        <ele>123.6</ele>
      </trkpt>
      <trkpt lat="45.11522" lon="4.80865">
        <ele>123.8</ele>
      </trkpt>
      <trkpt lat="45.11378" lon="4.80988">
        <ele>124.1</ele>
      </trkpt>
      <trkpt lat="45.11349" lon="4.81033">
        <ele>123.7</ele>
      </trkpt>
      <trkpt lat="45.11338" lon="4.81042">
        <ele>123.6</ele>
      </trkpt>
      <trkpt lat="45.11327" lon="4.81046">
        <ele>122.8</ele>
      </trkpt>
      <trkpt lat="45.11287" lon="4.81065">
        <ele>122.8</ele>
      </trkpt>
      <trkpt lat="45.11248" lon="4.81088">
        <ele>123</ele>
      </trkpt>
      <trkpt lat="45.11223" lon="4.81112">
        <ele>123.1</ele>
      </trkpt>
      <trkpt lat="45.112" lon="4.81142">
        <ele>122.8</ele>
      </trkpt>
      <trkpt lat="45.11159" lon="4.81224">
        <ele>121.3</ele>
      </trkpt>
      <trkpt lat="45.1114" lon="4.81233">
        <ele>121.3</ele>
      </trkpt>
      <trkpt lat="45.11034" lon="4.81255">
        <ele>121.3</ele>
      </trkpt>
      <trkpt lat="45.11001" lon="4.81275">
        <ele>121.3</ele>
      </trkpt>
      <trkpt lat="45.10963" lon="4.81311">
        <ele>120.9</ele>
      </trkpt>
      <trkpt lat="45.10958" lon="4.81315">
        <ele>120.8</ele>
      </trkpt>
      <trkpt lat="45.10934" lon="4.8135">
        <ele>121.1</ele>
      </trkpt>
      <trkpt lat="45.10897" lon="4.81434">
        <ele>121.1</ele>
      </trkpt>
      <trkpt lat="45.10818" lon="4.81583">
        <ele>121.9</ele>
      </trkpt>
      <trkpt lat="45.10784" lon="4.81652">
        <ele>121.5</ele>
      </trkpt>
      <trkpt lat="45.10745" lon="4.81704">
        <ele>122.6</ele>
      </trkpt>
      <trkpt lat="45.10657" lon="4.8179">
        <ele>121</ele>
      </trkpt>
      <trkpt lat="45.10638" lon="4.81808">
        <ele>120.9</ele>
      </trkpt>
      <trkpt lat="45.10585" lon="4.81866">
        <ele>121.5</ele>
      </trkpt>
      <trkpt lat="45.10551" lon="4.81912">
        <ele>121.9</ele>
      </trkpt>
      <trkpt lat="45.1042" lon="4.82029">
        <ele>122.9</ele>
      </trkpt>
      <trkpt lat="45.1037" lon="4.82089">
        <ele>122.2</ele>
      </trkpt>
      <trkpt lat="45.10352" lon="4.8211">
        <ele>122.2</ele>
      </trkpt>
      <trkpt lat="45.10327" lon="4.8214">
        <ele>122.9</ele>
      </trkpt>
      <trkpt lat="45.10309" lon="4.82154">
        <ele>123.1</ele>
      </trkpt>
      <trkpt lat="45.10286" lon="4.82159">
        <ele>123</ele>
      </trkpt>
      <trkpt lat="45.10259" lon="4.82154">
        <ele>123.3</ele>
      </trkpt>
      <trkpt lat="45.10216" lon="4.82153">
        <ele>122.4</ele>
      </trkpt>
      <trkpt lat="45.10212" lon="4.82153">
        <ele>122.4</ele>
      </trkpt>
      <trkpt lat="45.10201" lon="4.82156">
        <ele>122.2</ele>
      </trkpt>
      <trkpt lat="45.10187" lon="4.82164">
        <ele>122.1</ele>
      </trkpt>
      <trkpt lat="45.10183" lon="4.8217">
        <ele>122.9</ele>
      </trkpt>
      <trkpt lat="45.10144" lon="4.82213">
        <ele>122.3</ele>
      </trkpt>
      <trkpt lat="45.1013" lon="4.82223">
        <ele>122.2</ele>
      </trkpt>
      <trkpt lat="45.10122" lon="4.8223">
        <ele>122.1</ele>
      </trkpt>
      <trkpt lat="45.10079" lon="4.82246">
        <ele>120.9</ele>
      </trkpt>
      <trkpt lat="45.1004" lon="4.82246">
        <ele>120.6</ele>
      </trkpt>
      <trkpt lat="45.10002" lon="4.82237">
        <ele>120.3</ele>
      </trkpt>
      <trkpt lat="45.09981" lon="4.82229">
        <ele>120.2</ele>
      </trkpt>
      <trkpt lat="45.0997" lon="4.82225">
        <ele>120.2</ele>
      </trkpt>
      <trkpt lat="45.09951" lon="4.82221">
        <ele>120.2</ele>
      </trkpt>
      <trkpt lat="45.09828" lon="4.82225">
        <ele>120.1</ele>
      </trkpt>
      <trkpt lat="45.0972" lon="4.82241">
        <ele>121.3</ele>
      </trkpt>
      <trkpt lat="45.09633" lon="4.82267">
        <ele>121.8</ele>
      </trkpt>
      <trkpt lat="45.09602" lon="4.8228">
        <ele>121.8</ele>
      </trkpt>
      <trkpt lat="45.09576" lon="4.82296">
        <ele>121.8</ele>
      </trkpt>
      <trkpt lat="45.09562" lon="4.82298">
        <ele>121.8</ele>
      </trkpt>
      <trkpt lat="45.09488" lon="4.82309">
        <ele>121.8</ele>
      </trkpt>
      <trkpt lat="45.0948" lon="4.82311">
        <ele>121.9</ele>
      </trkpt>
      <trkpt lat="45.09453" lon="4.82319">
        <ele>122.1</ele>
      </trkpt>
      <trkpt lat="45.09427" lon="4.82326">
        <ele>122.1</ele>
      </trkpt>
      <trkpt lat="45.09427" lon="4.82289">
        <ele>122.5</ele>
      </trkpt>
      <trkpt lat="45.09422" lon="4.82182">
        <ele>123.1</ele>
      </trkpt>
      <trkpt lat="45.09421" lon="4.82156">
        <ele>123.2</ele>
      </trkpt>
      <trkpt lat="45.09418" lon="4.82087">
        <ele>123.9</ele>
      </trkpt>
      <trkpt lat="45.09407" lon="4.82086">
        <ele>123.8</ele>
      </trkpt>
      <trkpt lat="45.09336" lon="4.82052">
        <ele>124.4</ele>
      </trkpt>
      <trkpt lat="45.09286" lon="4.82035">
        <ele>124</ele>
      </trkpt>
      <trkpt lat="45.09258" lon="4.82027">
        <ele>123.9</ele>
      </trkpt>
      <trkpt lat="45.09159" lon="4.81999">
        <ele>123.8</ele>
      </trkpt>
      <trkpt lat="45.09115" lon="4.81985">
        <ele>123.3</ele>
      </trkpt>
      <trkpt lat="45.09036" lon="4.81964">
        <ele>122.2</ele>
      </trkpt>
      <trkpt lat="45.08916" lon="4.81928">
        <ele>120.8</ele>
      </trkpt>
      <trkpt lat="45.08859" lon="4.81908">
        <ele>121.4</ele>
      </trkpt>
      <trkpt lat="45.08837" lon="4.81907">
        <ele>121.2</ele>
      </trkpt>
      <trkpt lat="45.0881" lon="4.81924">
        <ele>120.9</ele>
      </trkpt>
      <trkpt lat="45.08775" lon="4.81939">
        <ele>121</ele>
      </trkpt>
      <trkpt lat="45.08699" lon="4.81942">
        <ele>122</ele>
      </trkpt>
      <trkpt lat="45.08693" lon="4.81943">
        <ele>122</ele>
      </trkpt>
      <trkpt lat="45.08675" lon="4.81943">
        <ele>122.2</ele>
      </trkpt>
      <trkpt lat="45.08618" lon="4.81928">
        <ele>122.5</ele>
      </trkpt>
      <trkpt lat="45.0856" lon="4.81903">
        <ele>123.1</ele>
      </trkpt>
      <trkpt lat="45.08518" lon="4.81885">
        <ele>123</ele>
      </trkpt>
      <trkpt lat="45.08508" lon="4.81881">
        <ele>122.9</ele>
      </trkpt>
      <trkpt lat="45.08461" lon="4.81867">
        <ele>122.1</ele>
      </trkpt>
      <trkpt lat="45.08443" lon="4.81862">
        <ele>122</ele>
      </trkpt>
      <trkpt lat="45.08388" lon="4.81843">
        <ele>122.3</ele>
      </trkpt>
      <trkpt lat="45.08384" lon="4.81842">
        <ele>122.4</ele>
      </trkpt>
      <trkpt lat="45.08321" lon="4.8182">
        <ele>124.4</ele>
      </trkpt>
      <trkpt lat="45.08289" lon="4.81813">
        <ele>124.6</ele>
      </trkpt>
      <trkpt lat="45.08287" lon="4.81812">
        <ele>124.6</ele>
      </trkpt>
      <trkpt lat="45.08274" lon="4.81807">
        <ele>124.6</ele>
      </trkpt>
      <trkpt lat="45.08262" lon="4.81803">
        <ele>124.7</ele>
      </trkpt>
      <trkpt lat="45.0826" lon="4.81802">
        <ele>124.7</ele>
      </trkpt>
      <trkpt lat="45.08254" lon="4.81796">
        <ele>124.8</ele>
      </trkpt>
      <trkpt lat="45.08246" lon="4.81787">
        <ele>124.4</ele>
      </trkpt>
      <trkpt lat="45.08243" lon="4.81784">
        <ele>124.5</ele>
      </trkpt>
      <trkpt lat="45.08233" lon="4.81775">
        <ele>124.5</ele>
      </trkpt>
      <trkpt lat="45.08226" lon="4.81801">
        <ele>124.1</ele>
      </trkpt>
      <trkpt lat="45.08221" lon="4.81826">
        <ele>124</ele>
      </trkpt>
      <trkpt lat="45.08208" lon="4.81873">
        <ele>123.3</ele>
      </trkpt>
      <trkpt lat="45.08056" lon="4.81813">
        <ele>121.4</ele>
      </trkpt>
      <trkpt lat="45.0805" lon="4.81811">
        <ele>121.4</ele>
      </trkpt>
      <trkpt lat="45.08005" lon="4.81796">
        <ele>121</ele>
      </trkpt>
      <trkpt lat="45.07931" lon="4.81778">
        <ele>119.7</ele>
      </trkpt>
      <trkpt lat="45.07906" lon="4.81776">
        <ele>118.6</ele>
      </trkpt>
      <trkpt lat="45.07875" lon="4.81775">
        <ele>118.1</ele>
      </trkpt>
      <trkpt lat="45.07806" lon="4.81784">
        <ele>117.6</ele>
      </trkpt>
      <trkpt lat="45.07794" lon="4.81786">
        <ele>117.7</ele>
      </trkpt>
      <trkpt lat="45.07656" lon="4.81792">
        <ele>120.3</ele>
      </trkpt>
      <trkpt lat="45.07625" lon="4.81799">
        <ele>120.3</ele>
      </trkpt>
      <trkpt lat="45.0761" lon="4.81804">
        <ele>120.2</ele>
      </trkpt>
      <trkpt lat="45.07596" lon="4.81805">
        <ele>120.2</ele>
      </trkpt>
      <trkpt lat="45.07572" lon="4.81807">
        <ele>120</ele>
      </trkpt>
      <trkpt lat="45.07537" lon="4.81681">
        <ele>120.8</ele>
      </trkpt>
      <trkpt lat="45.07533" lon="4.81668">
        <ele>120.9</ele>
      </trkpt>
      <trkpt lat="45.07533" lon="4.81662">
        <ele>121.3</ele>
      </trkpt>
      <trkpt lat="45.07532" lon="4.81659">
        <ele>121.3</ele>
      </trkpt>
      <trkpt lat="45.0753" lon="4.81652">
        <ele>121.4</ele>
      </trkpt>
      <trkpt lat="45.07529" lon="4.81649">
        <ele>121.4</ele>
      </trkpt>
      <trkpt lat="45.07527" lon="4.8165">
        <ele>121.4</ele>
      </trkpt>
      <trkpt lat="45.07524" lon="4.81652">
        <ele>121.4</ele>
      </trkpt>
      <trkpt lat="45.0742" lon="4.81726">
        <ele>122</ele>
      </trkpt>
      <trkpt lat="45.07398" lon="4.81747">
        <ele>122.6</ele>
      </trkpt>
      <trkpt lat="45.07387" lon="4.8176">
        <ele>122.4</ele>
      </trkpt>
      <trkpt lat="45.07369" lon="4.81799">
        <ele>122.2</ele>
      </trkpt>
      <trkpt lat="45.07325" lon="4.81951">
        <ele>123.8</ele>
      </trkpt>
      <trkpt lat="45.07281" lon="4.82093">
        <ele>124.2</ele>
      </trkpt>
      <trkpt lat="45.07274" lon="4.82117">
        <ele>124.2</ele>
      </trkpt>
      <trkpt lat="45.07274" lon="4.8212">
        <ele>124.2</ele>
      </trkpt>
      <trkpt lat="45.07259" lon="4.82168">
        <ele>124.6</ele>
      </trkpt>
      <trkpt lat="45.07255" lon="4.82164">
        <ele>124.8</ele>
      </trkpt>
      <trkpt lat="45.07251" lon="4.82162">
        <ele>124.8</ele>
      </trkpt>
      <trkpt lat="45.07246" lon="4.82158">
        <ele>125.4</ele>
      </trkpt>
      <trkpt lat="45.07243" lon="4.82162">
        <ele>125.4</ele>
      </trkpt>
      <trkpt lat="45.0723" lon="4.82168">
        <ele>126.1</ele>
      </trkpt>
      <trkpt lat="45.07226" lon="4.82166">
        <ele>125.9</ele>
      </trkpt>
      <trkpt lat="45.07223" lon="4.82173">
        <ele>126.4</ele>
      </trkpt>
      <trkpt lat="45.07219" lon="4.82184">
        <ele>126.6</ele>
      </trkpt>
      <trkpt lat="45.07225" lon="4.82214">
        <ele>126.6</ele>
      </trkpt>
      <trkpt lat="45.07225" lon="4.82226">
        <ele>126.6</ele>
      </trkpt>
      <trkpt lat="45.07223" lon="4.82234">
        <ele>126.6</ele>
      </trkpt>
      <trkpt lat="45.07226" lon="4.82236">
        <ele>126.5</ele>
      </trkpt>
      <trkpt lat="45.07216" lon="4.82264">
        <ele>126.7</ele>
      </trkpt>
      <trkpt lat="45.07212" lon="4.82265">
        <ele>126.8</ele>
      </trkpt>
      <trkpt lat="45.07209" lon="4.82266">
        <ele>126.9</ele>
      </trkpt>
      <trkpt lat="45.07169" lon="4.82326">
        <ele>127.7</ele>
      </trkpt>
      <trkpt lat="45.07154" lon="4.82362">
        <ele>130.1</ele>
      </trkpt>
      <trkpt lat="45.07137" lon="4.82408">
        <ele>129.4</ele>
      </trkpt>
      <trkpt lat="45.07125" lon="4.82416">
        <ele>129.8</ele>
      </trkpt>
      <trkpt lat="45.07113" lon="4.8242">
        <ele>126.6</ele>
      </trkpt>
      <trkpt lat="45.07102" lon="4.82421">
        <ele>127.1</ele>
      </trkpt>
      <trkpt lat="45.0709" lon="4.82421">
        <ele>128</ele>
      </trkpt>
      <trkpt lat="45.07083" lon="4.82421">
        <ele>131.1</ele>
      </trkpt>
      <trkpt lat="45.07046" lon="4.82465">
        <ele>140.8</ele>
      </trkpt>
      <trkpt lat="45.07022" lon="4.82523">
        <ele>138.4</ele>
      </trkpt>
      <trkpt lat="45.06999" lon="4.82591">
        <ele>143.5</ele>
      </trkpt>
      <trkpt lat="45.07" lon="4.82603">
        <ele>133.6</ele>
      </trkpt>
      <trkpt lat="45.07" lon="4.8262">
        <ele>132.6</ele>
      </trkpt>
      <trkpt lat="45.07009" lon="4.82637">
        <ele>132.2</ele>
      </trkpt>
      <trkpt lat="45.07023" lon="4.82658">
        <ele>131.8</ele>
      </trkpt>
      <trkpt lat="45.07028" lon="4.8267">
        <ele>130.3</ele>
      </trkpt>
      <trkpt lat="45.07029" lon="4.82692">
        <ele>129.7</ele>
      </trkpt>
      <trkpt lat="45.07031" lon="4.82709">
        <ele>129.2</ele>
      </trkpt>
      <trkpt lat="45.0703" lon="4.82718">
        <ele>129.2</ele>
      </trkpt>
      <trkpt lat="45.07028" lon="4.82743">
        <ele>129.4</ele>
      </trkpt>
      <trkpt lat="45.07026" lon="4.82748">
        <ele>129.7</ele>
      </trkpt>
      <trkpt lat="45.07024" lon="4.82752">
        <ele>128.1</ele>
      </trkpt>
      <trkpt lat="45.07019" lon="4.82761">
        <ele>128.4</ele>
      </trkpt>
      <trkpt lat="45.07013" lon="4.82769">
        <ele>128.3</ele>
      </trkpt>
      <trkpt lat="45.07003" lon="4.82782">
        <ele>127.4</ele>
      </trkpt>
      <trkpt lat="45.06964" lon="4.82826">
        <ele>136.2</ele>
      </trkpt>
      <trkpt lat="45.06921" lon="4.82874">
        <ele>127.4</ele>
      </trkpt>
      <trkpt lat="45.06901" lon="4.82896">
        <ele>133.7</ele>
      </trkpt>
      <trkpt lat="45.06899" lon="4.82899">
        <ele>133.4</ele>
      </trkpt>
      <trkpt lat="45.06893" lon="4.82909">
        <ele>133.2</ele>
      </trkpt>
      <trkpt lat="45.06862" lon="4.82962">
        <ele>127.6</ele>
      </trkpt>
      <trkpt lat="45.06852" lon="4.8299">
        <ele>127.8</ele>
      </trkpt>
      <trkpt lat="45.06844" lon="4.83007">
        <ele>127.6</ele>
      </trkpt>
      <trkpt lat="45.06832" lon="4.83024">
        <ele>132.1</ele>
      </trkpt>
      <trkpt lat="45.06826" lon="4.83031">
        <ele>132.6</ele>
      </trkpt>
      <trkpt lat="45.06818" lon="4.83044">
        <ele>132.9</ele>
      </trkpt>
      <trkpt lat="45.06802" lon="4.83028">
        <ele>134.2</ele>
      </trkpt>
      <trkpt lat="45.06798" lon="4.83033">
        <ele>134.4</ele>
      </trkpt>
      <trkpt lat="45.06794" lon="4.83037">
        <ele>134.5</ele>
      </trkpt>
      <trkpt lat="45.06793" lon="4.83039">
        <ele>134.5</ele>
      </trkpt>
      <trkpt lat="45.06787" lon="4.83056">
        <ele>134</ele>
      </trkpt>
      <trkpt lat="45.06781" lon="4.83062">
        <ele>134</ele>
      </trkpt>
      <trkpt lat="45.06755" lon="4.83078">
        <ele>132.8</ele>
      </trkpt>
      <trkpt lat="45.06741" lon="4.8309">
        <ele>134.2</ele>
      </trkpt>
      <trkpt lat="45.06737" lon="4.83098">
        <ele>135.1</ele>
      </trkpt>
      <trkpt lat="45.06732" lon="4.83106">
        <ele>135.8</ele>
      </trkpt>
      <trkpt lat="45.06722" lon="4.83121">
        <ele>136.4</ele>
      </trkpt>
      <trkpt lat="45.06721" lon="4.83123">
        <ele>136.4</ele>
      </trkpt>
      <trkpt lat="45.06718" lon="4.8313">
        <ele>136.3</ele>
      </trkpt>
      <trkpt lat="45.06713" lon="4.83142">
        <ele>136</ele>
      </trkpt>
      <trkpt lat="45.06706" lon="4.83161">
        <ele>135.7</ele>
      </trkpt>
      <trkpt lat="45.06691" lon="4.83155">
        <ele>136.4</ele>
      </trkpt>
      <trkpt lat="45.06652" lon="4.83188">
        <ele>133.9</ele>
      </trkpt>
      <trkpt lat="45.06637" lon="4.83209">
        <ele>133</ele>
      </trkpt>
      <trkpt lat="45.06636" lon="4.83214">
        <ele>132.8</ele>
      </trkpt>
      <trkpt lat="45.06629" lon="4.83222">
        <ele>132.5</ele>
      </trkpt>
      <trkpt lat="45.06624" lon="4.83233">
        <ele>132.1</ele>
      </trkpt>
      <trkpt lat="45.06623" lon="4.83238">
        <ele>131.9</ele>
      </trkpt>
      <trkpt lat="45.06621" lon="4.83246">
        <ele>131.7</ele>
      </trkpt>
      <trkpt lat="45.06616" lon="4.83263">
        <ele>129</ele>
      </trkpt>
      <trkpt lat="45.06608" lon="4.83296">
        <ele>128.9</ele>
      </trkpt>
      <trkpt lat="45.066" lon="4.83321">
        <ele>128.6</ele>
      </trkpt>
      <trkpt lat="45.06595" lon="4.83329">
        <ele>128.4</ele>
      </trkpt>
      <trkpt lat="45.06589" lon="4.8333">
        <ele>128.3</ele>
      </trkpt>
      <trkpt lat="45.0658" lon="4.83329">
        <ele>128.6</ele>
      </trkpt>
      <trkpt lat="45.06572" lon="4.83336">
        <ele>127.9</ele>
      </trkpt>
      <trkpt lat="45.06516" lon="4.83376">
        <ele>127.6</ele>
      </trkpt>
      <trkpt lat="45.06515" lon="4.83404">
        <ele>126.8</ele>
      </trkpt>
      <trkpt lat="45.06497" lon="4.83394">
        <ele>127.5</ele>
      </trkpt>
      <trkpt lat="45.06485" lon="4.83383">
        <ele>128.1</ele>
      </trkpt>
      <trkpt lat="45.06463" lon="4.83378">
        <ele>128.4</ele>
      </trkpt>
      <trkpt lat="45.0645" lon="4.83371">
        <ele>128.7</ele>
      </trkpt>
      <trkpt lat="45.06427" lon="4.83351">
        <ele>130.4</ele>
      </trkpt>
      <trkpt lat="45.0642" lon="4.83353">
        <ele>130.4</ele>
      </trkpt>
      <trkpt lat="45.06372" lon="4.83392">
        <ele>126.8</ele>
      </trkpt>
      <trkpt lat="45.06353" lon="4.834">
        <ele>125.8</ele>
      </trkpt>
      <trkpt lat="45.0632" lon="4.83404">
        <ele>124.6</ele>
      </trkpt>
      <trkpt lat="45.06293" lon="4.83408">
        <ele>125</ele>
      </trkpt>
      <trkpt lat="45.06262" lon="4.83412">
        <ele>124.2</ele>
      </trkpt>
      <trkpt lat="45.06242" lon="4.83413">
        <ele>123.3</ele>
      </trkpt>
      <trkpt lat="45.06238" lon="4.83414">
        <ele>123.3</ele>
      </trkpt>
      <trkpt lat="45.06207" lon="4.83415">
        <ele>123</ele>
      </trkpt>
      <trkpt lat="45.0619" lon="4.83416">
        <ele>122.3</ele>
      </trkpt>
      <trkpt lat="45.06185" lon="4.83416">
        <ele>122</ele>
      </trkpt>
      <trkpt lat="45.06175" lon="4.83416">
        <ele>121.1</ele>
      </trkpt>
      <trkpt lat="45.06162" lon="4.83416">
        <ele>120.1</ele>
      </trkpt>
      <trkpt lat="45.0613" lon="4.83414">
        <ele>119.9</ele>
      </trkpt>
      <trkpt lat="45.06128" lon="4.83413">
        <ele>119.9</ele>
      </trkpt>
      <trkpt lat="45.06115" lon="4.83411">
        <ele>119.6</ele>
      </trkpt>
      <trkpt lat="45.06097" lon="4.83407">
        <ele>119</ele>
      </trkpt>
      <trkpt lat="45.06058" lon="4.83401">
        <ele>118.9</ele>
      </trkpt>
      <trkpt lat="45.06004" lon="4.83387">
        <ele>119.5</ele>
      </trkpt>
      <trkpt lat="45.0599" lon="4.83382">
        <ele>120.5</ele>
      </trkpt>
      <trkpt lat="45.05926" lon="4.83361">
        <ele>121.1</ele>
      </trkpt>
      <trkpt lat="45.05918" lon="4.83358">
        <ele>121.2</ele>
      </trkpt>
      <trkpt lat="45.05913" lon="4.83356">
        <ele>121.5</ele>
      </trkpt>
      <trkpt lat="45.05865" lon="4.83335">
        <ele>121.7</ele>
      </trkpt>
      <trkpt lat="45.05844" lon="4.83325">
        <ele>123.6</ele>
      </trkpt>
      <trkpt lat="45.058" lon="4.833">
        <ele>124.3</ele>
      </trkpt>
      <trkpt lat="45.05759" lon="4.83269">
        <ele>125.1</ele>
      </trkpt>
      <trkpt lat="45.05755" lon="4.83269">
        <ele>125.1</ele>
      </trkpt>
      <trkpt lat="45.05748" lon="4.83269">
        <ele>124.2</ele>
      </trkpt>
      <trkpt lat="45.05739" lon="4.83265">
        <ele>124.2</ele>
      </trkpt>
      <trkpt lat="45.05711" lon="4.83252">
        <ele>123.3</ele>
      </trkpt>
      <trkpt lat="45.05677" lon="4.83237">
        <ele>125.1</ele>
      </trkpt>
      <trkpt lat="45.05635" lon="4.83218">
        <ele>123.6</ele>
      </trkpt>
      <trkpt lat="45.05611" lon="4.83212">
        <ele>123.5</ele>
      </trkpt>
      <trkpt lat="45.05582" lon="4.83204">
        <ele>122.6</ele>
      </trkpt>
      <trkpt lat="45.05545" lon="4.83192">
        <ele>122.7</ele>
      </trkpt>
      <trkpt lat="45.05507" lon="4.83173">
        <ele>122.9</ele>
      </trkpt>
      <trkpt lat="45.05435" lon="4.8315">
        <ele>122.2</ele>
      </trkpt>
      <trkpt lat="45.0542" lon="4.83143">
        <ele>122.1</ele>
      </trkpt>
      <trkpt lat="45.05333" lon="4.83101">
        <ele>120.1</ele>
      </trkpt>
      <trkpt lat="45.05276" lon="4.83074">
        <ele>121.2</ele>
      </trkpt>
      <trkpt lat="45.05262" lon="4.83063">
        <ele>121.1</ele>
      </trkpt>
      <trkpt lat="45.05249" lon="4.83059">
        <ele>120.5</ele>
      </trkpt>
      <trkpt lat="45.05242" lon="4.83057">
        <ele>120.6</ele>
      </trkpt>
      <trkpt lat="45.05145" lon="4.83025">
        <ele>121.9</ele>
      </trkpt>
      <trkpt lat="45.0514" lon="4.83023">
        <ele>121.9</ele>
      </trkpt>
      <trkpt lat="45.05134" lon="4.83021">
        <ele>121.9</ele>
      </trkpt>
      <trkpt lat="45.0509" lon="4.83007">
        <ele>122.5</ele>
      </trkpt>
      <trkpt lat="45.05055" lon="4.82996">
        <ele>126.2</ele>
      </trkpt>
      <trkpt lat="45.04832" lon="4.82935">
        <ele>125.5</ele>
      </trkpt>
      <trkpt lat="45.04714" lon="4.82907">
        <ele>124.6</ele>
      </trkpt>
      <trkpt lat="45.0469" lon="4.82903">
        <ele>124.7</ele>
      </trkpt>
      <trkpt lat="45.04678" lon="4.82902">
        <ele>124.6</ele>
      </trkpt>
      <trkpt lat="45.04664" lon="4.829">
        <ele>125</ele>
      </trkpt>
      <trkpt lat="45.04562" lon="4.82886">
        <ele>127.6</ele>
      </trkpt>
      <trkpt lat="45.04469" lon="4.82871">
        <ele>129</ele>
      </trkpt>
      <trkpt lat="45.04454" lon="4.82866">
        <ele>129.1</ele>
      </trkpt>
      <trkpt lat="45.04405" lon="4.82824">
        <ele>131.2</ele>
      </trkpt>
      <trkpt lat="45.04355" lon="4.82763">
        <ele>130.4</ele>
      </trkpt>
      <trkpt lat="45.04325" lon="4.82731">
        <ele>130.7</ele>
      </trkpt>
      <trkpt lat="45.0432" lon="4.82726">
        <ele>131.2</ele>
      </trkpt>
      <trkpt lat="45.04313" lon="4.8272">
        <ele>131.8</ele>
      </trkpt>
      <trkpt lat="45.04309" lon="4.82717">
        <ele>132.2</ele>
      </trkpt>
      <trkpt lat="45.04299" lon="4.82715">
        <ele>132.8</ele>
      </trkpt>
      <trkpt lat="45.0429" lon="4.82719">
        <ele>133.1</ele>
      </trkpt>
      <trkpt lat="45.04281" lon="4.82728">
        <ele>133.2</ele>
      </trkpt>
      <trkpt lat="45.04265" lon="4.82753">
        <ele>130.4</ele>
      </trkpt>
      <trkpt lat="45.04261" lon="4.82755">
        <ele>130.6</ele>
      </trkpt>
      <trkpt lat="45.04259" lon="4.8274">
        <ele>132.9</ele>
      </trkpt>
      <trkpt lat="45.04256" lon="4.8274">
        <ele>132.8</ele>
      </trkpt>
      <trkpt lat="45.04183" lon="4.82753">
        <ele>132.5</ele>
      </trkpt>
      <trkpt lat="45.04176" lon="4.82759">
        <ele>132.8</ele>
      </trkpt>
      <trkpt lat="45.04175" lon="4.82762">
        <ele>132.6</ele>
      </trkpt>
      <trkpt lat="45.04169" lon="4.82774">
        <ele>131.5</ele>
      </trkpt>
      <trkpt lat="45.04164" lon="4.82778">
        <ele>130.2</ele>
      </trkpt>
      <trkpt lat="45.04154" lon="4.82779">
        <ele>129.8</ele>
      </trkpt>
      <trkpt lat="45.04132" lon="4.82774">
        <ele>129.2</ele>
      </trkpt>
      <trkpt lat="45.04116" lon="4.8277">
        <ele>128.7</ele>
      </trkpt>
      <trkpt lat="45.04102" lon="4.82763">
        <ele>128.4</ele>
      </trkpt>
      <trkpt lat="45.04048" lon="4.82736">
        <ele>132.1</ele>
      </trkpt>
      <trkpt lat="45.03998" lon="4.82705">
        <ele>129</ele>
      </trkpt>
      <trkpt lat="45.03991" lon="4.82701">
        <ele>129.3</ele>
      </trkpt>
      <trkpt lat="45.03961" lon="4.82687">
        <ele>129.1</ele>
      </trkpt>
      <trkpt lat="45.03944" lon="4.82682">
        <ele>128.7</ele>
      </trkpt>
      <trkpt lat="45.03896" lon="4.82654">
        <ele>132.8</ele>
      </trkpt>
      <trkpt lat="45.03881" lon="4.82648">
        <ele>133.6</ele>
      </trkpt>
      <trkpt lat="45.0388" lon="4.82651">
        <ele>133.4</ele>
      </trkpt>
      <trkpt lat="45.03877" lon="4.82669">
        <ele>127.4</ele>
      </trkpt>
      <trkpt lat="45.03877" lon="4.82673">
        <ele>127.4</ele>
      </trkpt>
      <trkpt lat="45.03856" lon="4.82667">
        <ele>127.5</ele>
      </trkpt>
      <trkpt lat="45.0385" lon="4.82677">
        <ele>127.4</ele>
      </trkpt>
      <trkpt lat="45.03842" lon="4.82686">
        <ele>127.4</ele>
      </trkpt>
      <trkpt lat="45.03835" lon="4.82698">
        <ele>127.2</ele>
      </trkpt>
      <trkpt lat="45.0383" lon="4.82706">
        <ele>127.2</ele>
      </trkpt>
      <trkpt lat="45.03813" lon="4.82733">
        <ele>127</ele>
      </trkpt>
      <trkpt lat="45.03791" lon="4.82768">
        <ele>125.6</ele>
      </trkpt>
      <trkpt lat="45.03779" lon="4.82775">
        <ele>125.4</ele>
      </trkpt>
      <trkpt lat="45.03776" lon="4.82775">
        <ele>125.4</ele>
      </trkpt>
      <trkpt lat="45.03763" lon="4.82771">
        <ele>125.5</ele>
      </trkpt>
      <trkpt lat="45.03757" lon="4.82767">
        <ele>125.6</ele>
      </trkpt>
      <trkpt lat="45.03746" lon="4.82763">
        <ele>125.1</ele>
      </trkpt>
      <trkpt lat="45.03702" lon="4.82754">
        <ele>124.1</ele>
      </trkpt>
      <trkpt lat="45.03687" lon="4.82752">
        <ele>124</ele>
      </trkpt>
      <trkpt lat="45.03683" lon="4.82751">
        <ele>123.9</ele>
      </trkpt>
      <trkpt lat="45.0366" lon="4.82752">
        <ele>123.5</ele>
      </trkpt>
      <trkpt lat="45.03638" lon="4.82751">
        <ele>122.6</ele>
      </trkpt>
      <trkpt lat="45.03625" lon="4.82751">
        <ele>122.4</ele>
      </trkpt>
      <trkpt lat="45.03614" lon="4.82751">
        <ele>122.4</ele>
      </trkpt>
      <trkpt lat="45.03589" lon="4.82751">
        <ele>122.7</ele>
      </trkpt>
      <trkpt lat="45.03571" lon="4.82746">
        <ele>124.1</ele>
      </trkpt>
      <trkpt lat="45.03566" lon="4.82743">
        <ele>124.5</ele>
      </trkpt>
      <trkpt lat="45.03534" lon="4.82723">
        <ele>125.5</ele>
      </trkpt>
      <trkpt lat="45.0352" lon="4.82721">
        <ele>125.6</ele>
      </trkpt>
      <trkpt lat="45.03508" lon="4.82657">
        <ele>129.4</ele>
      </trkpt>
      <trkpt lat="45.03503" lon="4.82625">
        <ele>133</ele>
      </trkpt>
      <trkpt lat="45.03499" lon="4.82616">
        <ele>136.6</ele>
      </trkpt>
      <trkpt lat="45.03492" lon="4.82615">
        <ele>136.8</ele>
      </trkpt>
      <trkpt lat="45.03475" lon="4.82628">
        <ele>135.8</ele>
      </trkpt>
      <trkpt lat="45.03447" lon="4.82645">
        <ele>134.7</ele>
      </trkpt>
      <trkpt lat="45.03327" lon="4.82711">
        <ele>130.1</ele>
      </trkpt>
      <trkpt lat="45.0332" lon="4.82705">
        <ele>131</ele>
      </trkpt>
      <trkpt lat="45.03314" lon="4.82684">
        <ele>133</ele>
      </trkpt>
      <trkpt lat="45.03305" lon="4.82684">
        <ele>133.4</ele>
      </trkpt>
      <trkpt lat="45.03285" lon="4.82685">
        <ele>135</ele>
      </trkpt>
      <trkpt lat="45.03007" lon="4.82844">
        <ele>127.5</ele>
      </trkpt>
      <trkpt lat="45.02946" lon="4.82878">
        <ele>124.7</ele>
      </trkpt>
      <trkpt lat="45.02933" lon="4.82892">
        <ele>124.1</ele>
      </trkpt>
      <trkpt lat="45.02928" lon="4.82898">
        <ele>123.7</ele>
      </trkpt>
      <trkpt lat="45.0292" lon="4.82906">
        <ele>123</ele>
      </trkpt>
      <trkpt lat="45.02781" lon="4.82989">
        <ele>122.9</ele>
      </trkpt>
      <trkpt lat="45.02617" lon="4.83083">
        <ele>119.3</ele>
      </trkpt>
      <trkpt lat="45.02574" lon="4.83103">
        <ele>118.4</ele>
      </trkpt>
      <trkpt lat="45.02489" lon="4.83132">
        <ele>120.1</ele>
      </trkpt>
      <trkpt lat="45.0248" lon="4.83131">
        <ele>120.2</ele>
      </trkpt>
      <trkpt lat="45.02472" lon="4.83127">
        <ele>120.2</ele>
      </trkpt>
      <trkpt lat="45.02461" lon="4.83109">
        <ele>120.4</ele>
      </trkpt>
      <trkpt lat="45.02455" lon="4.83104">
        <ele>120.5</ele>
      </trkpt>
      <trkpt lat="45.02452" lon="4.83105">
        <ele>120.5</ele>
      </trkpt>
      <trkpt lat="45.0245" lon="4.83111">
        <ele>120.4</ele>
      </trkpt>
      <trkpt lat="45.02451" lon="4.83128">
        <ele>120.2</ele>
      </trkpt>
      <trkpt lat="45.02445" lon="4.83152">
        <ele>119.9</ele>
      </trkpt>
      <trkpt lat="45.02446" lon="4.8316">
        <ele>119.9</ele>
      </trkpt>
      <trkpt lat="45.0244" lon="4.83161">
        <ele>119.8</ele>
      </trkpt>
      <trkpt lat="45.02408" lon="4.83174">
        <ele>118.7</ele>
      </trkpt>
      <trkpt lat="45.02362" lon="4.83179">
        <ele>117.9</ele>
      </trkpt>
      <trkpt lat="45.02175" lon="4.83218">
        <ele>115.8</ele>
      </trkpt>
      <trkpt lat="45.02114" lon="4.8325">
        <ele>115.3</ele>
      </trkpt>
      <trkpt lat="45.02096" lon="4.83264">
        <ele>114.7</ele>
      </trkpt>
      <trkpt lat="45.02014" lon="4.83326">
        <ele>115.8</ele>
      </trkpt>
      <trkpt lat="45.01981" lon="4.83342">
        <ele>116.7</ele>
      </trkpt>
      <trkpt lat="45.01953" lon="4.83347">
        <ele>117.3</ele>
      </trkpt>
      <trkpt lat="45.01938" lon="4.83348">
        <ele>117.5</ele>
      </trkpt>
      <trkpt lat="45.01913" lon="4.83342">
        <ele>118.1</ele>
      </trkpt>
      <trkpt lat="45.01909" lon="4.83341">
        <ele>118.1</ele>
      </trkpt>
      <trkpt lat="45.01874" lon="4.83326">
        <ele>118.5</ele>
      </trkpt>
      <trkpt lat="45.01828" lon="4.83312">
        <ele>119.2</ele>
      </trkpt>
      <trkpt lat="45.01783" lon="4.83306">
        <ele>119.1</ele>
      </trkpt>
      <trkpt lat="45.01757" lon="4.83306">
        <ele>118.9</ele>
      </trkpt>
      <trkpt lat="45.01743" lon="4.83307">
        <ele>118.6</ele>
      </trkpt>
      <trkpt lat="45.01728" lon="4.83308">
        <ele>118.6</ele>
      </trkpt>
      <trkpt lat="45.01689" lon="4.83311">
        <ele>118.3</ele>
      </trkpt>
      <trkpt lat="45.01619" lon="4.8332">
        <ele>116.8</ele>
      </trkpt>
      <trkpt lat="45.01548" lon="4.83333">
        <ele>116.6</ele>
      </trkpt>
      <trkpt lat="45.01507" lon="4.83335">
        <ele>115.8</ele>
      </trkpt>
      <trkpt lat="45.01332" lon="4.83314">
        <ele>130.3</ele>
      </trkpt>
      <trkpt lat="45.01295" lon="4.83313">
        <ele>134.5</ele>
      </trkpt>
      <trkpt lat="45.01258" lon="4.83316">
        <ele>132.6</ele>
      </trkpt>
      <trkpt lat="45.01175" lon="4.83333">
        <ele>134.3</ele>
      </trkpt>
      <trkpt lat="45.01134" lon="4.83348">
        <ele>128.9</ele>
      </trkpt>
      <trkpt lat="45.01035" lon="4.83368">
        <ele>131</ele>
      </trkpt>
      <trkpt lat="45.00977" lon="4.83362">
        <ele>131.4</ele>
      </trkpt>
      <trkpt lat="45.00921" lon="4.83348">
        <ele>134.9</ele>
      </trkpt>
      <trkpt lat="45.00895" lon="4.83346">
        <ele>134.4</ele>
      </trkpt>
      <trkpt lat="45.00867" lon="4.83351">
        <ele>133.9</ele>
      </trkpt>
      <trkpt lat="45.00825" lon="4.83361">
        <ele>137.2</ele>
      </trkpt>
      <trkpt lat="45.00634" lon="4.83432">
        <ele>132.5</ele>
      </trkpt>
      <trkpt lat="45.00579" lon="4.83461">
        <ele>136</ele>
      </trkpt>
      <trkpt lat="45.00549" lon="4.83482">
        <ele>133.8</ele>
      </trkpt>
      <trkpt lat="45.00523" lon="4.83508">
        <ele>124.6</ele>
      </trkpt>
      <trkpt lat="45.00502" lon="4.83537">
        <ele>123.7</ele>
      </trkpt>
      <trkpt lat="45.00484" lon="4.83567">
        <ele>131</ele>
      </trkpt>
      <trkpt lat="45.00348" lon="4.83837">
        <ele>123.5</ele>
      </trkpt>
      <trkpt lat="45.00301" lon="4.83901">
        <ele>134.8</ele>
      </trkpt>
      <trkpt lat="45.00271" lon="4.83938">
        <ele>126.1</ele>
      </trkpt>
      <trkpt lat="45.00237" lon="4.83962">
        <ele>134</ele>
      </trkpt>
      <trkpt lat="45.00202" lon="4.83983">
        <ele>133.4</ele>
      </trkpt>
      <trkpt lat="45.00189" lon="4.83998">
        <ele>131.8</ele>
      </trkpt>
      <trkpt lat="45.00148" lon="4.84025">
        <ele>124.8</ele>
      </trkpt>
      <trkpt lat="45.00107" lon="4.84041">
        <ele>124.5</ele>
      </trkpt>
      <trkpt lat="45.00074" lon="4.84049">
        <ele>123.7</ele>
      </trkpt>
      <trkpt lat="45.00067" lon="4.84044">
        <ele>124.3</ele>
      </trkpt>
      <trkpt lat="45.00064" lon="4.84036">
        <ele>125.1</ele>
      </trkpt>
      <trkpt lat="45.0006" lon="4.84026">
        <ele>126</ele>
      </trkpt>
      <trkpt lat="45.00055" lon="4.8402">
        <ele>126.3</ele>
      </trkpt>
      <trkpt lat="45.00004" lon="4.84014">
        <ele>125.1</ele>
      </trkpt>
      <trkpt lat="44.9999" lon="4.84024">
        <ele>125.6</ele>
      </trkpt>
      <trkpt lat="44.9997" lon="4.84058">
        <ele>124.5</ele>
      </trkpt>
      <trkpt lat="44.99971" lon="4.84067">
        <ele>124</ele>
      </trkpt>
      <trkpt lat="44.99966" lon="4.84069">
        <ele>124.3</ele>
      </trkpt>
      <trkpt lat="44.99908" lon="4.8409">
        <ele>126.6</ele>
      </trkpt>
      <trkpt lat="44.99862" lon="4.84123">
        <ele>128</ele>
      </trkpt>
      <trkpt lat="44.99842" lon="4.84138">
        <ele>126.7</ele>
      </trkpt>
      <trkpt lat="44.99811" lon="4.84165">
        <ele>129.3</ele>
      </trkpt>
      <trkpt lat="44.99812" lon="4.84174">
        <ele>122.9</ele>
      </trkpt>
      <trkpt lat="44.99793" lon="4.84217">
        <ele>122.7</ele>
      </trkpt>
      <trkpt lat="44.99776" lon="4.84247">
        <ele>122.7</ele>
      </trkpt>
      <trkpt lat="44.99765" lon="4.84281">
        <ele>120.1</ele>
      </trkpt>
      <trkpt lat="44.9976" lon="4.84304">
        <ele>119.9</ele>
      </trkpt>
      <trkpt lat="44.99757" lon="4.84313">
        <ele>120</ele>
      </trkpt>
      <trkpt lat="44.99746" lon="4.84327">
        <ele>122.1</ele>
      </trkpt>
      <trkpt lat="44.99739" lon="4.84338">
        <ele>121.9</ele>
      </trkpt>
      <trkpt lat="44.99725" lon="4.84374">
        <ele>122.8</ele>
      </trkpt>
      <trkpt lat="44.99722" lon="4.84381">
        <ele>122.9</ele>
      </trkpt>
      <trkpt lat="44.9971" lon="4.84395">
        <ele>123</ele>
      </trkpt>
      <trkpt lat="44.99704" lon="4.84402">
        <ele>123.1</ele>
      </trkpt>
      <trkpt lat="44.99694" lon="4.8441">
        <ele>123.4</ele>
      </trkpt>
      <trkpt lat="44.99642" lon="4.8444">
        <ele>121.3</ele>
      </trkpt>
      <trkpt lat="44.99631" lon="4.84458">
        <ele>120.5</ele>
      </trkpt>
      <trkpt lat="44.99616" lon="4.84478">
        <ele>119.9</ele>
      </trkpt>
      <trkpt lat="44.996" lon="4.84504">
        <ele>117.2</ele>
      </trkpt>
      <trkpt lat="44.99598" lon="4.84509">
        <ele>117.1</ele>
      </trkpt>
      <trkpt lat="44.99594" lon="4.84515">
        <ele>117</ele>
      </trkpt>
      <trkpt lat="44.99582" lon="4.84539">
        <ele>116.4</ele>
      </trkpt>
      <trkpt lat="44.99571" lon="4.84555">
        <ele>115.9</ele>
      </trkpt>
      <trkpt lat="44.99544" lon="4.84599">
        <ele>113.6</ele>
      </trkpt>
      <trkpt lat="44.9951" lon="4.84642">
        <ele>113.6</ele>
      </trkpt>
      <trkpt lat="44.99493" lon="4.84656">
        <ele>114</ele>
      </trkpt>
      <trkpt lat="44.9947" lon="4.84669">
        <ele>112.3</ele>
      </trkpt>
      <trkpt lat="44.99384" lon="4.84689">
        <ele>111</ele>
      </trkpt>
      <trkpt lat="44.99295" lon="4.84715">
        <ele>112.1</ele>
      </trkpt>
      <trkpt lat="44.99251" lon="4.84734">
        <ele>111.8</ele>
      </trkpt>
      <trkpt lat="44.99213" lon="4.84742">
        <ele>115.5</ele>
      </trkpt>
      <trkpt lat="44.99175" lon="4.84738">
        <ele>115.6</ele>
      </trkpt>
      <trkpt lat="44.99142" lon="4.84742">
        <ele>118.4</ele>
      </trkpt>
      <trkpt lat="44.99109" lon="4.84756">
        <ele>112.8</ele>
      </trkpt>
      <trkpt lat="44.98878" lon="4.84774">
        <ele>115.1</ele>
      </trkpt>
      <trkpt lat="44.98673" lon="4.84784">
        <ele>116</ele>
      </trkpt>
      <trkpt lat="44.98576" lon="4.84816">
        <ele>119.3</ele>
      </trkpt>
      <trkpt lat="44.98408" lon="4.84923">
        <ele>113.4</ele>
      </trkpt>
      <trkpt lat="44.98371" lon="4.84941">
        <ele>114.6</ele>
      </trkpt>
      <trkpt lat="44.9834" lon="4.84951">
        <ele>115</ele>
      </trkpt>
      <trkpt lat="44.98245" lon="4.84987">
        <ele>119.6</ele>
      </trkpt>
      <trkpt lat="44.98162" lon="4.85014">
        <ele>115.3</ele>
      </trkpt>
      <trkpt lat="44.98" lon="4.85091">
        <ele>111.2</ele>
      </trkpt>
      <trkpt lat="44.97974" lon="4.85101">
        <ele>111.5</ele>
      </trkpt>
      <trkpt lat="44.97943" lon="4.85113">
        <ele>111.7</ele>
      </trkpt>
      <trkpt lat="44.97933" lon="4.85117">
        <ele>111.7</ele>
      </trkpt>
      <trkpt lat="44.97911" lon="4.85113">
        <ele>113.9</ele>
      </trkpt>
      <trkpt lat="44.97844" lon="4.85141">
        <ele>114.2</ele>
      </trkpt>
      <trkpt lat="44.97705" lon="4.85175">
        <ele>113.1</ele>
      </trkpt>
      <trkpt lat="44.97459" lon="4.85256">
        <ele>112</ele>
      </trkpt>
      <trkpt lat="44.97387" lon="4.85312">
        <ele>112.4</ele>
      </trkpt>
      <trkpt lat="44.97377" lon="4.8533">
        <ele>112.2</ele>
      </trkpt>
      <trkpt lat="44.97366" lon="4.85337">
        <ele>110.5</ele>
      </trkpt>
      <trkpt lat="44.97363" lon="4.85333">
        <ele>112.4</ele>
      </trkpt>
      <trkpt lat="44.97358" lon="4.85327">
        <ele>112.4</ele>
      </trkpt>
      <trkpt lat="44.97355" lon="4.85325">
        <ele>112.5</ele>
      </trkpt>
      <trkpt lat="44.97354" lon="4.8532">
        <ele>112.5</ele>
      </trkpt>
      <trkpt lat="44.97352" lon="4.85315">
        <ele>112.6</ele>
      </trkpt>
      <trkpt lat="44.97345" lon="4.85308">
        <ele>112.7</ele>
      </trkpt>
      <trkpt lat="44.97339" lon="4.85284">
        <ele>113.4</ele>
      </trkpt>
      <trkpt lat="44.97293" lon="4.85298">
        <ele>113.8</ele>
      </trkpt>
      <trkpt lat="44.97232" lon="4.8532">
        <ele>114.4</ele>
      </trkpt>
      <trkpt lat="44.97146" lon="4.85346">
        <ele>116.3</ele>
      </trkpt>
      <trkpt lat="44.97063" lon="4.85356">
        <ele>117.7</ele>
      </trkpt>
      <trkpt lat="44.97022" lon="4.85352">
        <ele>117.6</ele>
      </trkpt>
      <trkpt lat="44.96974" lon="4.85342">
        <ele>117.9</ele>
      </trkpt>
      <trkpt lat="44.96919" lon="4.85328">
        <ele>119.2</ele>
      </trkpt>
      <trkpt lat="44.96857" lon="4.85313">
        <ele>120.5</ele>
      </trkpt>
      <trkpt lat="44.96789" lon="4.85301">
        <ele>120.6</ele>
      </trkpt>
      <trkpt lat="44.96772" lon="4.85301">
        <ele>120.5</ele>
      </trkpt>
      <trkpt lat="44.96757" lon="4.8531">
        <ele>120.2</ele>
      </trkpt>
      <trkpt lat="44.96733" lon="4.85322">
        <ele>119.7</ele>
      </trkpt>
      <trkpt lat="44.96695" lon="4.8535">
        <ele>118.1</ele>
      </trkpt>
      <trkpt lat="44.96687" lon="4.8535">
        <ele>118.2</ele>
      </trkpt>
      <trkpt lat="44.96676" lon="4.85343">
        <ele>118.5</ele>
      </trkpt>
      <trkpt lat="44.96624" lon="4.85342">
        <ele>117.8</ele>
      </trkpt>
      <trkpt lat="44.96616" lon="4.85344">
        <ele>117.8</ele>
      </trkpt>
      <trkpt lat="44.96521" lon="4.85377">
        <ele>120</ele>
      </trkpt>
      <trkpt lat="44.96453" lon="4.8539">
        <ele>122.8</ele>
      </trkpt>
      <trkpt lat="44.96367" lon="4.8541">
        <ele>123.2</ele>
      </trkpt>
      <trkpt lat="44.96363" lon="4.85411">
        <ele>123.1</ele>
      </trkpt>
      <trkpt lat="44.96333" lon="4.85416">
        <ele>122</ele>
      </trkpt>
      <trkpt lat="44.96187" lon="4.85472">
        <ele>121.8</ele>
      </trkpt>
      <trkpt lat="44.96129" lon="4.85488">
        <ele>121.7</ele>
      </trkpt>
      <trkpt lat="44.9605" lon="4.85498">
        <ele>121.9</ele>
      </trkpt>
      <trkpt lat="44.95989" lon="4.85503">
        <ele>121.6</ele>
      </trkpt>
      <trkpt lat="44.95974" lon="4.85492">
        <ele>121.7</ele>
      </trkpt>
      <trkpt lat="44.95941" lon="4.85504">
        <ele>120.7</ele>
      </trkpt>
      <trkpt lat="44.95909" lon="4.85504">
        <ele>120.2</ele>
      </trkpt>
      <trkpt lat="44.95881" lon="4.85503">
        <ele>120.7</ele>
      </trkpt>
      <trkpt lat="44.95812" lon="4.85507">
        <ele>121.8</ele>
      </trkpt>
      <trkpt lat="44.95787" lon="4.8551">
        <ele>121.6</ele>
      </trkpt>
      <trkpt lat="44.95768" lon="4.85515">
        <ele>121.5</ele>
      </trkpt>
      <trkpt lat="44.95717" lon="4.85537">
        <ele>122.2</ele>
      </trkpt>
      <trkpt lat="44.95692" lon="4.85552">
        <ele>122.4</ele>
      </trkpt>
      <trkpt lat="44.9562" lon="4.85595">
        <ele>122</ele>
      </trkpt>
      <trkpt lat="44.95572" lon="4.85619">
        <ele>121.7</ele>
      </trkpt>
      <trkpt lat="44.95532" lon="4.85632">
        <ele>121.8</ele>
      </trkpt>
      <trkpt lat="44.95518" lon="4.85633">
        <ele>121.8</ele>
      </trkpt>
      <trkpt lat="44.95502" lon="4.85634">
        <ele>121.8</ele>
      </trkpt>
      <trkpt lat="44.95471" lon="4.85629">
        <ele>121.1</ele>
      </trkpt>
      <trkpt lat="44.9542" lon="4.85611">
        <ele>120.6</ele>
      </trkpt>
      <trkpt lat="44.95377" lon="4.8559">
        <ele>120.6</ele>
      </trkpt>
      <trkpt lat="44.95353" lon="4.85582">
        <ele>121.6</ele>
      </trkpt>
      <trkpt lat="44.9533" lon="4.8558">
        <ele>122.1</ele>
      </trkpt>
      <trkpt lat="44.95274" lon="4.85584">
        <ele>122</ele>
      </trkpt>
      <trkpt lat="44.9517" lon="4.85597">
        <ele>121.1</ele>
      </trkpt>
      <trkpt lat="44.95129" lon="4.85601">
        <ele>121.5</ele>
      </trkpt>
      <trkpt lat="44.95116" lon="4.85604">
        <ele>121.6</ele>
      </trkpt>
      <trkpt lat="44.95079" lon="4.85612">
        <ele>121.7</ele>
      </trkpt>
      <trkpt lat="44.94987" lon="4.85635">
        <ele>122.1</ele>
      </trkpt>
      <trkpt lat="44.94969" lon="4.85638">
        <ele>122.4</ele>
      </trkpt>
      <trkpt lat="44.9488" lon="4.85653">
        <ele>123.9</ele>
      </trkpt>
      <trkpt lat="44.94791" lon="4.85676">
        <ele>122.2</ele>
      </trkpt>
      <trkpt lat="44.94779" lon="4.85627">
        <ele>123.4</ele>
      </trkpt>
      <trkpt lat="44.94773" lon="4.85579">
        <ele>124.2</ele>
      </trkpt>
      <trkpt lat="44.94772" lon="4.85572">
        <ele>124.2</ele>
      </trkpt>
      <trkpt lat="44.94764" lon="4.85575">
        <ele>124.2</ele>
      </trkpt>
      <trkpt lat="44.94741" lon="4.8558">
        <ele>123.9</ele>
      </trkpt>
      <trkpt lat="44.94736" lon="4.85582">
        <ele>123.8</ele>
      </trkpt>
      <trkpt lat="44.94721" lon="4.85646">
        <ele>122.2</ele>
      </trkpt>
      <trkpt lat="44.94724" lon="4.8569">
        <ele>121.4</ele>
      </trkpt>
      <trkpt lat="44.94549" lon="4.8573">
        <ele>120.2</ele>
      </trkpt>
      <trkpt lat="44.9446" lon="4.8575">
        <ele>119.7</ele>
      </trkpt>
      <trkpt lat="44.94435" lon="4.85763">
        <ele>119.5</ele>
      </trkpt>
      <trkpt lat="44.94426" lon="4.85771">
        <ele>119.5</ele>
      </trkpt>
      <trkpt lat="44.94418" lon="4.85778">
        <ele>119.6</ele>
      </trkpt>
      <trkpt lat="44.94412" lon="4.85782">
        <ele>119.7</ele>
      </trkpt>
      <trkpt lat="44.944" lon="4.85791">
        <ele>119.8</ele>
      </trkpt>
      <trkpt lat="44.94383" lon="4.85799">
        <ele>119.8</ele>
      </trkpt>
      <trkpt lat="44.94376" lon="4.85802">
        <ele>119.8</ele>
      </trkpt>
      <trkpt lat="44.94371" lon="4.85813">
        <ele>119.9</ele>
      </trkpt>
      <trkpt lat="44.94364" lon="4.85821">
        <ele>119.9</ele>
      </trkpt>
      <trkpt lat="44.94355" lon="4.85824">
        <ele>119.9</ele>
      </trkpt>
      <trkpt lat="44.94347" lon="4.85823">
        <ele>119.9</ele>
      </trkpt>
      <trkpt lat="44.9434" lon="4.85819">
        <ele>119.9</ele>
      </trkpt>
      <trkpt lat="44.94335" lon="4.85811">
        <ele>119.8</ele>
      </trkpt>
      <trkpt lat="44.94332" lon="4.85806">
        <ele>119.8</ele>
      </trkpt>
      <trkpt lat="44.9433" lon="4.858">
        <ele>119.7</ele>
      </trkpt>
      <trkpt lat="44.94319" lon="4.85791">
        <ele>119.7</ele>
      </trkpt>
      <trkpt lat="44.94313" lon="4.85787">
        <ele>119.7</ele>
      </trkpt>
      <trkpt lat="44.94298" lon="4.85786">
        <ele>119.7</ele>
      </trkpt>
      <trkpt lat="44.94286" lon="4.85788">
        <ele>119.8</ele>
      </trkpt>
      <trkpt lat="44.94264" lon="4.85794">
        <ele>119.8</ele>
      </trkpt>
      <trkpt lat="44.94232" lon="4.85801">
        <ele>119.3</ele>
      </trkpt>
      <trkpt lat="44.94233" lon="4.85805">
        <ele>119.3</ele>
      </trkpt>
      <trkpt lat="44.94229" lon="4.85812">
        <ele>119.3</ele>
      </trkpt>
      <trkpt lat="44.94227" lon="4.85813">
        <ele>119.3</ele>
      </trkpt>
      <trkpt lat="44.94224" lon="4.85813">
        <ele>119.2</ele>
      </trkpt>
      <trkpt lat="44.94222" lon="4.85812">
        <ele>119.2</ele>
      </trkpt>
      <trkpt lat="44.9422" lon="4.8581">
        <ele>119.2</ele>
      </trkpt>
      <trkpt lat="44.94219" lon="4.85807">
        <ele>119.1</ele>
      </trkpt>
      <trkpt lat="44.94179" lon="4.85823">
        <ele>118.5</ele>
      </trkpt>
      <trkpt lat="44.94163" lon="4.85828">
        <ele>118.1</ele>
      </trkpt>
      <trkpt lat="44.9416" lon="4.85822">
        <ele>118.2</ele>
      </trkpt>
      <trkpt lat="44.94155" lon="4.8582">
        <ele>118.3</ele>
      </trkpt>
      <trkpt lat="44.94149" lon="4.85822">
        <ele>118.3</ele>
      </trkpt>
      <trkpt lat="44.94146" lon="4.85829">
        <ele>118.3</ele>
      </trkpt>
      <trkpt lat="44.94137" lon="4.8582">
        <ele>118.4</ele>
      </trkpt>
      <trkpt lat="44.94054" lon="4.85796">
        <ele>117.7</ele>
      </trkpt>
      <trkpt lat="44.93986" lon="4.85791">
        <ele>115.8</ele>
      </trkpt>
      <trkpt lat="44.93941" lon="4.85812">
        <ele>115.8</ele>
      </trkpt>
      <trkpt lat="44.93902" lon="4.85835">
        <ele>116.3</ele>
      </trkpt>
      <trkpt lat="44.9387" lon="4.85843">
        <ele>116.5</ele>
      </trkpt>
      <trkpt lat="44.93754" lon="4.85861">
        <ele>116.6</ele>
      </trkpt>
      <trkpt lat="44.93625" lon="4.85874">
        <ele>117.5</ele>
      </trkpt>
      <trkpt lat="44.9352" lon="4.85874">
        <ele>116.7</ele>
      </trkpt>
      <trkpt lat="44.93454" lon="4.85869">
        <ele>116.8</ele>
      </trkpt>
      <trkpt lat="44.93413" lon="4.85887">
        <ele>116.7</ele>
      </trkpt>
      <trkpt lat="44.93342" lon="4.85957">
        <ele>116.3</ele>
      </trkpt>
      <trkpt lat="44.93338" lon="4.85972">
        <ele>116.3</ele>
      </trkpt>
      <trkpt lat="44.93328" lon="4.85978">
        <ele>115.6</ele>
      </trkpt>
      <trkpt lat="44.93318" lon="4.85973">
        <ele>115.5</ele>
      </trkpt>
      <trkpt lat="44.93313" lon="4.85961">
        <ele>115.4</ele>
      </trkpt>
      <trkpt lat="44.93273" lon="4.85965">
        <ele>115.1</ele>
      </trkpt>
      <trkpt lat="44.93202" lon="4.85958">
        <ele>114.5</ele>
      </trkpt>
      <trkpt lat="44.93119" lon="4.85939">
        <ele>113.9</ele>
      </trkpt>
      <trkpt lat="44.93088" lon="4.85932">
        <ele>113.5</ele>
      </trkpt>
      <trkpt lat="44.92944" lon="4.8594">
        <ele>111.4</ele>
      </trkpt>
      <trkpt lat="44.92856" lon="4.85952">
        <ele>111.2</ele>
      </trkpt>
      <trkpt lat="44.92849" lon="4.85953">
        <ele>111.2</ele>
      </trkpt>
      <trkpt lat="44.92782" lon="4.8596">
        <ele>112</ele>
      </trkpt>
      <trkpt lat="44.92638" lon="4.85976">
        <ele>111.4</ele>
      </trkpt>
      <trkpt lat="44.92619" lon="4.85977">
        <ele>111.5</ele>
      </trkpt>
      <trkpt lat="44.92445" lon="4.85986">
        <ele>110.3</ele>
      </trkpt>
      <trkpt lat="44.92435" lon="4.85989">
        <ele>110.3</ele>
      </trkpt>
      <trkpt lat="44.92422" lon="4.85998">
        <ele>110.1</ele>
      </trkpt>
      <trkpt lat="44.92417" lon="4.86005">
        <ele>110</ele>
      </trkpt>
      <trkpt lat="44.92412" lon="4.86015">
        <ele>109.8</ele>
      </trkpt>
      <trkpt lat="44.92404" lon="4.86022">
        <ele>109.7</ele>
      </trkpt>
      <trkpt lat="44.92395" lon="4.86024">
        <ele>109.6</ele>
      </trkpt>
      <trkpt lat="44.9239" lon="4.86022">
        <ele>109.6</ele>
      </trkpt>
      <trkpt lat="44.92384" lon="4.86019">
        <ele>109.6</ele>
      </trkpt>
      <trkpt lat="44.92379" lon="4.86016">
        <ele>109.5</ele>
      </trkpt>
      <trkpt lat="44.92359" lon="4.86016">
        <ele>109.4</ele>
      </trkpt>
      <trkpt lat="44.92346" lon="4.8602">
        <ele>109.3</ele>
      </trkpt>
      <trkpt lat="44.92304" lon="4.86045">
        <ele>109.4</ele>
      </trkpt>
      <trkpt lat="44.92258" lon="4.86074">
        <ele>109.8</ele>
      </trkpt>
      <trkpt lat="44.92111" lon="4.86178">
        <ele>109</ele>
      </trkpt>
      <trkpt lat="44.92086" lon="4.86188">
        <ele>109</ele>
      </trkpt>
      <trkpt lat="44.92078" lon="4.86189">
        <ele>109.3</ele>
      </trkpt>
      <trkpt lat="44.92071" lon="4.86188">
        <ele>109.3</ele>
      </trkpt>
      <trkpt lat="44.92064" lon="4.86182">
        <ele>109.3</ele>
      </trkpt>
      <trkpt lat="44.92057" lon="4.8618">
        <ele>109.4</ele>
      </trkpt>
      <trkpt lat="44.9205" lon="4.8618">
        <ele>109.4</ele>
      </trkpt>
      <trkpt lat="44.92043" lon="4.86183">
        <ele>109.5</ele>
      </trkpt>
      <trkpt lat="44.92037" lon="4.86189">
        <ele>109.5</ele>
      </trkpt>
      <trkpt lat="44.92032" lon="4.86196">
        <ele>109.6</ele>
      </trkpt>
      <trkpt lat="44.92029" lon="4.86204">
        <ele>109.6</ele>
      </trkpt>
      <trkpt lat="44.92028" lon="4.86213">
        <ele>109.6</ele>
      </trkpt>
      <trkpt lat="44.92016" lon="4.86225">
        <ele>109.7</ele>
      </trkpt>
      <trkpt lat="44.92005" lon="4.8623">
        <ele>109.7</ele>
      </trkpt>
      <trkpt lat="44.92007" lon="4.8624">
        <ele>109.8</ele>
      </trkpt>
      <trkpt lat="44.92008" lon="4.86249">
        <ele>109.9</ele>
      </trkpt>
      <trkpt lat="44.92008" lon="4.86252">
        <ele>109.8</ele>
      </trkpt>
      <trkpt lat="44.91937" lon="4.8627">
        <ele>109.1</ele>
      </trkpt>
      <trkpt lat="44.91674" lon="4.86348">
        <ele>108.7</ele>
      </trkpt>
      <trkpt lat="44.91647" lon="4.86353">
        <ele>106.6</ele>
      </trkpt>
      <trkpt lat="44.91614" lon="4.86355">
        <ele>105.4</ele>
      </trkpt>
      <trkpt lat="44.91571" lon="4.86351">
        <ele>103.7</ele>
      </trkpt>
      <trkpt lat="44.91529" lon="4.86342">
        <ele>103.7</ele>
      </trkpt>
      <trkpt lat="44.91296" lon="4.86281">
        <ele>105.2</ele>
      </trkpt>
      <trkpt lat="44.91261" lon="4.86277">
        <ele>105.1</ele>
      </trkpt>
      <trkpt lat="44.91219" lon="4.8628">
        <ele>105.7</ele>
      </trkpt>
      <trkpt lat="44.91176" lon="4.86288">
        <ele>106</ele>
      </trkpt>
      <trkpt lat="44.91141" lon="4.86301">
        <ele>106.4</ele>
      </trkpt>
      <trkpt lat="44.91088" lon="4.86332">
        <ele>105.3</ele>
      </trkpt>
      <trkpt lat="44.9106" lon="4.86355">
        <ele>104.8</ele>
      </trkpt>
      <trkpt lat="44.91029" lon="4.86385">
        <ele>104.7</ele>
      </trkpt>
      <trkpt lat="44.90999" lon="4.86418">
        <ele>104.1</ele>
      </trkpt>
      <trkpt lat="44.90972" lon="4.86452">
        <ele>105.8</ele>
      </trkpt>
      <trkpt lat="44.90656" lon="4.86954">
        <ele>107.7</ele>
      </trkpt>
      <trkpt lat="44.90656" lon="4.86955">
        <ele>107.7</ele>
      </trkpt>
      <trkpt lat="44.9052" lon="4.87175">
        <ele>106.8</ele>
      </trkpt>
      <trkpt lat="44.9052" lon="4.87178">
        <ele>106.8</ele>
      </trkpt>
      <trkpt lat="44.90533" lon="4.87191">
        <ele>107.1</ele>
      </trkpt>
      <trkpt lat="44.90601" lon="4.87249">
        <ele>108</ele>
      </trkpt>
      <trkpt lat="44.90609" lon="4.87257">
        <ele>108.3</ele>
      </trkpt>
      <trkpt lat="44.90581" lon="4.87505">
        <ele>108.6</ele>
      </trkpt>
      <trkpt lat="44.90575" lon="4.87579">
        <ele>108.4</ele>
      </trkpt>
      <trkpt lat="44.90573" lon="4.87595">
        <ele>108.5</ele>
      </trkpt>
      <trkpt lat="44.90563" lon="4.87686">
        <ele>109.5</ele>
      </trkpt>
      <trkpt lat="44.90558" lon="4.87727">
        <ele>109.7</ele>
      </trkpt>
      <trkpt lat="44.90558" lon="4.87751">
        <ele>110.8</ele>
      </trkpt>
      <trkpt lat="44.90562" lon="4.87777">
        <ele>111</ele>
      </trkpt>
      <trkpt lat="44.90567" lon="4.878">
        <ele>111.2</ele>
      </trkpt>
      <trkpt lat="44.9056" lon="4.87799">
        <ele>111.2</ele>
      </trkpt>
      <trkpt lat="44.90551" lon="4.87802">
        <ele>111.2</ele>
      </trkpt>
      <trkpt lat="44.90546" lon="4.87806">
        <ele>111.2</ele>
      </trkpt>
      <trkpt lat="44.90538" lon="4.87819">
        <ele>111.3</ele>
      </trkpt>
      <trkpt lat="44.90534" lon="4.8783">
        <ele>111.4</ele>
      </trkpt>
      <trkpt lat="44.90532" lon="4.87842">
        <ele>113.1</ele>
      </trkpt>
      <trkpt lat="44.90533" lon="4.87856">
        <ele>113.4</ele>
      </trkpt>
      <trkpt lat="44.90534" lon="4.87861">
        <ele>113.5</ele>
      </trkpt>
      <trkpt lat="44.90537" lon="4.87869">
        <ele>113.6</ele>
      </trkpt>
      <trkpt lat="44.90527" lon="4.87861">
        <ele>113.5</ele>
      </trkpt>
      <trkpt lat="44.90517" lon="4.87858">
        <ele>113.3</ele>
      </trkpt>
      <trkpt lat="44.90502" lon="4.8786">
        <ele>113.3</ele>
      </trkpt>
      <trkpt lat="44.90448" lon="4.87874">
        <ele>112.6</ele>
      </trkpt>
      <trkpt lat="44.90444" lon="4.87876">
        <ele>112.6</ele>
      </trkpt>
      <trkpt lat="44.90382" lon="4.87885">
        <ele>111.5</ele>
      </trkpt>
      <trkpt lat="44.90372" lon="4.87884">
        <ele>111.4</ele>
      </trkpt>
      <trkpt lat="44.90366" lon="4.87883">
        <ele>111.4</ele>
      </trkpt>
      <trkpt lat="44.90361" lon="4.87889">
        <ele>111.5</ele>
      </trkpt>
      <trkpt lat="44.90358" lon="4.87897">
        <ele>111.7</ele>
      </trkpt>
      <trkpt lat="44.90348" lon="4.87903">
        <ele>112</ele>
      </trkpt>
      <trkpt lat="44.90337" lon="4.87908">
        <ele>112.4</ele>
      </trkpt>
      <trkpt lat="44.90309" lon="4.87917">
        <ele>112.5</ele>
      </trkpt>
      <trkpt lat="44.90284" lon="4.87923">
        <ele>111.9</ele>
      </trkpt>
      <trkpt lat="44.90256" lon="4.87922">
        <ele>110.7</ele>
      </trkpt>
      <trkpt lat="44.90194" lon="4.87912">
        <ele>109.3</ele>
      </trkpt>
      <trkpt lat="44.90187" lon="4.87904">
        <ele>109.3</ele>
      </trkpt>
      <trkpt lat="44.90182" lon="4.87903">
        <ele>109.4</ele>
      </trkpt>
      <trkpt lat="44.90177" lon="4.87908">
        <ele>109.5</ele>
      </trkpt>
      <trkpt lat="44.90162" lon="4.87881">
        <ele>109.6</ele>
      </trkpt>
      <trkpt lat="44.90148" lon="4.87899">
        <ele>109.7</ele>
      </trkpt>
      <trkpt lat="44.90139" lon="4.87905">
        <ele>109.8</ele>
      </trkpt>
      <trkpt lat="44.9013" lon="4.87907">
        <ele>109.8</ele>
      </trkpt>
      <trkpt lat="44.90107" lon="4.87903">
        <ele>110</ele>
      </trkpt>
      <trkpt lat="44.90089" lon="4.879">
        <ele>110.2</ele>
      </trkpt>
      <trkpt lat="44.90054" lon="4.87894">
        <ele>109.7</ele>
      </trkpt>
      <trkpt lat="44.90011" lon="4.87897">
        <ele>109.9</ele>
      </trkpt>
      <trkpt lat="44.8983" lon="4.87905">
        <ele>110.9</ele>
      </trkpt>
      <trkpt lat="44.89695" lon="4.87908">
        <ele>109.9</ele>
      </trkpt>
      <trkpt lat="44.89668" lon="4.87905">
        <ele>110.7</ele>
      </trkpt>
      <trkpt lat="44.8963" lon="4.87888">
        <ele>109.9</ele>
      </trkpt>
      <trkpt lat="44.89612" lon="4.87876">
        <ele>109.6</ele>
      </trkpt>
      <trkpt lat="44.89572" lon="4.87851">
        <ele>108.8</ele>
      </trkpt>
      <trkpt lat="44.8954" lon="4.87824">
        <ele>107.9</ele>
      </trkpt>
      <trkpt lat="44.89502" lon="4.87781">
        <ele>108.2</ele>
      </trkpt>
      <trkpt lat="44.89469" lon="4.87736">
        <ele>108.7</ele>
      </trkpt>
      <trkpt lat="44.89457" lon="4.87721">
        <ele>108.7</ele>
      </trkpt>
      <trkpt lat="44.89411" lon="4.87686">
        <ele>110.4</ele>
      </trkpt>
      <trkpt lat="44.89342" lon="4.87648">
        <ele>110.5</ele>
      </trkpt>
      <trkpt lat="44.89321" lon="4.87629">
        <ele>111.2</ele>
      </trkpt>
      <trkpt lat="44.89313" lon="4.87629">
        <ele>111.2</ele>
      </trkpt>
      <trkpt lat="44.89306" lon="4.87621">
        <ele>111.2</ele>
      </trkpt>
      <trkpt lat="44.89291" lon="4.87617">
        <ele>111.2</ele>
      </trkpt>
      <trkpt lat="44.89124" lon="4.87517">
        <ele>111.2</ele>
      </trkpt>
      <trkpt lat="44.88997" lon="4.87438">
        <ele>111.1</ele>
      </trkpt>
      <trkpt lat="44.88973" lon="4.87423">
        <ele>111.2</ele>
      </trkpt>
      <trkpt lat="44.88775" lon="4.873">
        <ele>111.6</ele>
      </trkpt>
      <trkpt lat="44.88764" lon="4.87298">
        <ele>111.7</ele>
      </trkpt>
      <trkpt lat="44.88659" lon="4.87374">
        <ele>111.5</ele>
      </trkpt>
      <trkpt lat="44.88591" lon="4.87418">
        <ele>111.8</ele>
      </trkpt>
      <trkpt lat="44.88531" lon="4.8744">
        <ele>110.9</ele>
      </trkpt>
      <trkpt lat="44.8849" lon="4.87445">
        <ele>110.4</ele>
      </trkpt>
      <trkpt lat="44.88411" lon="4.87435">
        <ele>110.1</ele>
      </trkpt>
      <trkpt lat="44.8835" lon="4.87418">
        <ele>109.6</ele>
      </trkpt>
      <trkpt lat="44.88306" lon="4.87406">
        <ele>109.2</ele>
      </trkpt>
      <trkpt lat="44.8827" lon="4.87402">
        <ele>109.5</ele>
      </trkpt>
      <trkpt lat="44.88241" lon="4.87397">
        <ele>109.7</ele>
      </trkpt>
      <trkpt lat="44.88201" lon="4.8738">
        <ele>109.5</ele>
      </trkpt>
      <trkpt lat="44.88132" lon="4.87345">
        <ele>109.1</ele>
      </trkpt>
      <trkpt lat="44.88083" lon="4.87332">
        <ele>108</ele>
      </trkpt>
      <trkpt lat="44.88" lon="4.87311">
        <ele>107.2</ele>
      </trkpt>
      <trkpt lat="44.87967" lon="4.87311">
        <ele>107.2</ele>
      </trkpt>
      <trkpt lat="44.87951" lon="4.87315">
        <ele>107.3</ele>
      </trkpt>
      <trkpt lat="44.87918" lon="4.87319">
        <ele>107.2</ele>
      </trkpt>
      <trkpt lat="44.87892" lon="4.87315">
        <ele>107.7</ele>
      </trkpt>
      <trkpt lat="44.87831" lon="4.87296">
        <ele>108.1</ele>
      </trkpt>
      <trkpt lat="44.87785" lon="4.87268">
        <ele>108.1</ele>
      </trkpt>
      <trkpt lat="44.87781" lon="4.87298">
        <ele>107.9</ele>
      </trkpt>
      <trkpt lat="44.87775" lon="4.87354">
        <ele>107.7</ele>
      </trkpt>
      <trkpt lat="44.87773" lon="4.87369">
        <ele>107.8</ele>
      </trkpt>
      <trkpt lat="44.87771" lon="4.87384">
        <ele>107.9</ele>
      </trkpt>
      <trkpt lat="44.87769" lon="4.87398">
        <ele>108</ele>
      </trkpt>
      <trkpt lat="44.87767" lon="4.87412">
        <ele>108</ele>
      </trkpt>
      <trkpt lat="44.87771" lon="4.87413">
        <ele>108</ele>
      </trkpt>
      <trkpt lat="44.87774" lon="4.87414">
        <ele>108.1</ele>
      </trkpt>
      <trkpt lat="44.87769" lon="4.8742">
        <ele>109</ele>
      </trkpt>
      <trkpt lat="44.87736" lon="4.87417">
        <ele>109.1</ele>
      </trkpt>
      <trkpt lat="44.87728" lon="4.87422">
        <ele>109.5</ele>
      </trkpt>
      <trkpt lat="44.87722" lon="4.87448">
        <ele>110.2</ele>
      </trkpt>
      <trkpt lat="44.8771" lon="4.87503">
        <ele>112</ele>
      </trkpt>
      <trkpt lat="44.87587" lon="4.87444">
        <ele>110.5</ele>
      </trkpt>
      <trkpt lat="44.87576" lon="4.8744">
        <ele>110.7</ele>
      </trkpt>
      <trkpt lat="44.87575" lon="4.87444">
        <ele>110.8</ele>
      </trkpt>
      <trkpt lat="44.87573" lon="4.87457">
        <ele>111</ele>
      </trkpt>
      <trkpt lat="44.87575" lon="4.87444">
        <ele>110.8</ele>
      </trkpt>
      <trkpt lat="44.87576" lon="4.8744">
        <ele>110.7</ele>
      </trkpt>
      <trkpt lat="44.87587" lon="4.87444">
        <ele>110.5</ele>
      </trkpt>
      <trkpt lat="44.8771" lon="4.87503">
        <ele>112</ele>
      </trkpt>
      <trkpt lat="44.87722" lon="4.87448">
        <ele>110.2</ele>
      </trkpt>
      <trkpt lat="44.87728" lon="4.87422">
        <ele>109.5</ele>
      </trkpt>
      <trkpt lat="44.87736" lon="4.87417">
        <ele>109.1</ele>
      </trkpt>
      <trkpt lat="44.87769" lon="4.8742">
        <ele>109</ele>
      </trkpt>
      <trkpt lat="44.87774" lon="4.87414">
        <ele>108.1</ele>
      </trkpt>
      <trkpt lat="44.87771" lon="4.87413">
        <ele>108</ele>
      </trkpt>
      <trkpt lat="44.87767" lon="4.87412">
        <ele>108</ele>
      </trkpt>
      <trkpt lat="44.87769" lon="4.87398">
        <ele>108</ele>
      </trkpt>
      <trkpt lat="44.87771" lon="4.87384">
        <ele>107.9</ele>
      </trkpt>
      <trkpt lat="44.87773" lon="4.87369">
        <ele>107.8</ele>
      </trkpt>
      <trkpt lat="44.87775" lon="4.87354">
        <ele>107.7</ele>
      </trkpt>
      <trkpt lat="44.87781" lon="4.87298">
        <ele>107.9</ele>
      </trkpt>
      <trkpt lat="44.87785" lon="4.87268">
        <ele>108.1</ele>
      </trkpt>
      <trkpt lat="44.8776" lon="4.8728">
        <ele>107.9</ele>
      </trkpt>
      <trkpt lat="44.87748" lon="4.8728">
        <ele>108</ele>
      </trkpt>
      <trkpt lat="44.87725" lon="4.87266">
        <ele>108.2</ele>
      </trkpt>
      <trkpt lat="44.8769" lon="4.8724">
        <ele>109.1</ele>
      </trkpt>
      <trkpt lat="44.87634" lon="4.87205">
        <ele>110.3</ele>
      </trkpt>
      <trkpt lat="44.87519" lon="4.87161">
        <ele>109.6</ele>
      </trkpt>
      <trkpt lat="44.87498" lon="4.87153">
        <ele>108.5</ele>
      </trkpt>
      <trkpt lat="44.87454" lon="4.87118">
        <ele>107.7</ele>
      </trkpt>
      <trkpt lat="44.87445" lon="4.87112">
        <ele>107.5</ele>
      </trkpt>
      <trkpt lat="44.87464" lon="4.87057">
        <ele>108</ele>
      </trkpt>
      <trkpt lat="44.87395" lon="4.86996">
        <ele>108.5</ele>
      </trkpt>
      <trkpt lat="44.87346" lon="4.86953">
        <ele>108.8</ele>
      </trkpt>
      <trkpt lat="44.87304" lon="4.86895">
        <ele>109</ele>
      </trkpt>
      <trkpt lat="44.87279" lon="4.8687">
        <ele>109</ele>
      </trkpt>
      <trkpt lat="44.87262" lon="4.86854">
        <ele>109</ele>
      </trkpt>
      <trkpt lat="44.8723" lon="4.86826">
        <ele>109</ele>
      </trkpt>
      <trkpt lat="44.87227" lon="4.86824">
        <ele>109</ele>
      </trkpt>
      <trkpt lat="44.87204" lon="4.86804">
        <ele>109</ele>
      </trkpt>
      <trkpt lat="44.87165" lon="4.8677">
        <ele>109.8</ele>
      </trkpt>
      <trkpt lat="44.8707" lon="4.867">
        <ele>109.6</ele>
      </trkpt>
      <trkpt lat="44.87077" lon="4.8669">
        <ele>109.7</ele>
      </trkpt>
      <trkpt lat="44.87121" lon="4.86639">
        <ele>109.5</ele>
      </trkpt>
      <trkpt lat="44.87113" lon="4.86612">
        <ele>109.5</ele>
      </trkpt>
      <trkpt lat="44.87111" lon="4.86591">
        <ele>109.4</ele>
      </trkpt>
      <trkpt lat="44.87117" lon="4.86564">
        <ele>108.1</ele>
      </trkpt>
      <trkpt lat="44.8712" lon="4.86555">
        <ele>108</ele>
      </trkpt>
      <trkpt lat="44.87131" lon="4.86518">
        <ele>107.4</ele>
      </trkpt>
      <trkpt lat="44.87154" lon="4.86444">
        <ele>106.6</ele>
      </trkpt>
      <trkpt lat="44.87162" lon="4.86417">
        <ele>107.6</ele>
      </trkpt>
      <trkpt lat="44.87168" lon="4.86399">
        <ele>107.1</ele>
      </trkpt>
      <trkpt lat="44.87172" lon="4.86378">
        <ele>106.4</ele>
      </trkpt>
      <trkpt lat="44.87171" lon="4.86352">
        <ele>105.7</ele>
      </trkpt>
      <trkpt lat="44.87187" lon="4.8633">
        <ele>104.2</ele>
      </trkpt>
      <trkpt lat="44.87226" lon="4.86336">
        <ele>105.7</ele>
      </trkpt>
      <trkpt lat="44.87319" lon="4.86338">
        <ele>106</ele>
      </trkpt>
      <trkpt lat="44.87351" lon="4.86336">
        <ele>106.3</ele>
      </trkpt>
      <trkpt lat="44.87346" lon="4.86314">
        <ele>106.2</ele>
      </trkpt>
      <trkpt lat="44.87333" lon="4.86304">
        <ele>105.3</ele>
      </trkpt>
      <trkpt lat="44.87302" lon="4.86289">
        <ele>104.9</ele>
      </trkpt>
      <trkpt lat="44.87253" lon="4.86261">
        <ele>103</ele>
      </trkpt>
      <trkpt lat="44.8716" lon="4.86202">
        <ele>104</ele>
      </trkpt>
      <trkpt lat="44.87079" lon="4.86136">
        <ele>101.8</ele>
      </trkpt>
      <trkpt lat="44.87018" lon="4.86074">
        <ele>100.5</ele>
      </trkpt>
      <trkpt lat="44.86937" lon="4.85987">
        <ele>99.9</ele>
      </trkpt>
      <trkpt lat="44.8686" lon="4.85886">
        <ele>101.1</ele>
      </trkpt>
      <trkpt lat="44.86764" lon="4.85767">
        <ele>101.8</ele>
      </trkpt>
      <trkpt lat="44.8668" lon="4.85654">
        <ele>99.4</ele>
      </trkpt>
      <trkpt lat="44.86366" lon="4.85255">
        <ele>100.4</ele>
      </trkpt>
      <trkpt lat="44.86142" lon="4.84989">
        <ele>100.3</ele>
      </trkpt>
      <trkpt lat="44.8603" lon="4.84879">
        <ele>96.8</ele>
      </trkpt>
      <trkpt lat="44.85946" lon="4.84807">
        <ele>96.8</ele>
      </trkpt>
      <trkpt lat="44.85875" lon="4.84758">
        <ele>96.5</ele>
      </trkpt>
      <trkpt lat="44.8567" lon="4.84649">
        <ele>97.4</ele>
      </trkpt>
      <trkpt lat="44.85518" lon="4.84597">
        <ele>95.9</ele>
      </trkpt>
      <trkpt lat="44.85413" lon="4.84572">
        <ele>95</ele>
      </trkpt>
      <trkpt lat="44.85362" lon="4.84567">
        <ele>95</ele>
      </trkpt>
      <trkpt lat="44.85345" lon="4.84576">
        <ele>95</ele>
      </trkpt>
      <trkpt lat="44.85338" lon="4.84586">
        <ele>95.7</ele>
      </trkpt>
      <trkpt lat="44.8532" lon="4.84627">
        <ele>100.3</ele>
      </trkpt>
      <trkpt lat="44.85312" lon="4.84647">
        <ele>101.2</ele>
      </trkpt>
      <trkpt lat="44.85303" lon="4.84659">
        <ele>101.4</ele>
      </trkpt>
      <trkpt lat="44.85305" lon="4.84616">
        <ele>100.1</ele>
      </trkpt>
      <trkpt lat="44.85305" lon="4.84581">
        <ele>96.9</ele>
      </trkpt>
      <trkpt lat="44.85308" lon="4.8455">
        <ele>96.7</ele>
      </trkpt>
      <trkpt lat="44.85315" lon="4.84529">
        <ele>96.3</ele>
      </trkpt>
      <trkpt lat="44.85324" lon="4.84512">
        <ele>95.8</ele>
      </trkpt>
      <trkpt lat="44.85323" lon="4.8449">
        <ele>95</ele>
      </trkpt>
      <trkpt lat="44.85315" lon="4.84232">
        <ele>96</ele>
      </trkpt>
      <trkpt lat="44.85314" lon="4.84207">
        <ele>96.3</ele>
      </trkpt>
      <trkpt lat="44.85326" lon="4.84194">
        <ele>96.1</ele>
      </trkpt>
      <trkpt lat="44.85331" lon="4.84175">
        <ele>95.6</ele>
      </trkpt>
      <trkpt lat="44.85341" lon="4.84132">
        <ele>98.4</ele>
      </trkpt>
      <trkpt lat="44.85358" lon="4.84091">
        <ele>100.9</ele>
      </trkpt>
      <trkpt lat="44.85346" lon="4.84077">
        <ele>102.9</ele>
      </trkpt>
      <trkpt lat="44.85258" lon="4.83992">
        <ele>102.1</ele>
      </trkpt>
      <trkpt lat="44.85195" lon="4.83925">
        <ele>102</ele>
      </trkpt>
      <trkpt lat="44.85141" lon="4.83862">
        <ele>101.3</ele>
      </trkpt>
      <trkpt lat="44.85047" lon="4.83731">
        <ele>100.2</ele>
      </trkpt>
      <trkpt lat="44.84993" lon="4.83646">
        <ele>102.2</ele>
      </trkpt>
      <trkpt lat="44.84857" lon="4.83426">
        <ele>99.1</ele>
      </trkpt>
      <trkpt lat="44.84823" lon="4.83376">
        <ele>98.9</ele>
      </trkpt>
      <trkpt lat="44.84373" lon="4.82645">
        <ele>98</ele>
      </trkpt>
      <trkpt lat="44.84231" lon="4.8242">
        <ele>97.5</ele>
      </trkpt>
      <trkpt lat="44.84154" lon="4.82284">
        <ele>96.9</ele>
      </trkpt>
      <trkpt lat="44.84116" lon="4.82225">
        <ele>98.7</ele>
      </trkpt>
      <trkpt lat="44.84039" lon="4.82129">
        <ele>99.4</ele>
      </trkpt>
      <trkpt lat="44.83992" lon="4.82076">
        <ele>100.3</ele>
      </trkpt>
      <trkpt lat="44.83925" lon="4.82015">
        <ele>100.9</ele>
      </trkpt>
      <trkpt lat="44.83864" lon="4.81966">
        <ele>98</ele>
      </trkpt>
      <trkpt lat="44.83731" lon="4.81886">
        <ele>99.3</ele>
      </trkpt>
      <trkpt lat="44.8343" lon="4.81769">
        <ele>96.8</ele>
      </trkpt>
      <trkpt lat="44.83215" lon="4.81675">
        <ele>97.7</ele>
      </trkpt>
      <trkpt lat="44.82781" lon="4.81476">
        <ele>98.3</ele>
      </trkpt>
      <trkpt lat="44.82608" lon="4.81401">
        <ele>98.7</ele>
      </trkpt>
      <trkpt lat="44.82462" lon="4.81333">
        <ele>95.9</ele>
      </trkpt>
      <trkpt lat="44.82359" lon="4.81289">
        <ele>96.9</ele>
      </trkpt>
      <trkpt lat="44.82344" lon="4.8133">
        <ele>99.6</ele>
      </trkpt>
      <trkpt lat="44.82331" lon="4.81374">
        <ele>101</ele>
      </trkpt>
      <trkpt lat="44.82327" lon="4.81373">
        <ele>101</ele>
      </trkpt>
      <trkpt lat="44.82307" lon="4.81343">
        <ele>101</ele>
      </trkpt>
      <trkpt lat="44.82316" lon="4.81292">
        <ele>98.3</ele>
      </trkpt>
      <trkpt lat="44.82321" lon="4.81262">
        <ele>96</ele>
      </trkpt>
      <trkpt lat="44.82378" lon="4.80972">
        <ele>96.3</ele>
      </trkpt>
      <trkpt lat="44.82381" lon="4.80951">
        <ele>96.1</ele>
      </trkpt>
      <trkpt lat="44.82393" lon="4.80888">
        <ele>95.7</ele>
      </trkpt>
      <trkpt lat="44.82403" lon="4.80841">
        <ele>95.8</ele>
      </trkpt>
      <trkpt lat="44.82425" lon="4.80729">
        <ele>96.1</ele>
      </trkpt>
      <trkpt lat="44.8243" lon="4.80703">
        <ele>96</ele>
      </trkpt>
      <trkpt lat="44.8243" lon="4.80697">
        <ele>95.9</ele>
      </trkpt>
      <trkpt lat="44.82438" lon="4.80661">
        <ele>95.7</ele>
      </trkpt>
      <trkpt lat="44.82445" lon="4.80618">
        <ele>96.1</ele>
      </trkpt>
      <trkpt lat="44.82452" lon="4.80596">
        <ele>96.2</ele>
      </trkpt>
      <trkpt lat="44.82462" lon="4.80578">
        <ele>96.9</ele>
      </trkpt>
      <trkpt lat="44.82471" lon="4.80566">
        <ele>97.1</ele>
      </trkpt>
      <trkpt lat="44.8249" lon="4.80545">
        <ele>97.5</ele>
      </trkpt>
      <trkpt lat="44.82498" lon="4.80536">
        <ele>97.6</ele>
      </trkpt>
      <trkpt lat="44.82503" lon="4.80529">
        <ele>98</ele>
      </trkpt>
      <trkpt lat="44.82505" lon="4.80525">
        <ele>98.1</ele>
      </trkpt>
      <trkpt lat="44.82509" lon="4.80518">
        <ele>98.2</ele>
      </trkpt>
      <trkpt lat="44.82511" lon="4.80513">
        <ele>98.3</ele>
      </trkpt>
      <trkpt lat="44.82534" lon="4.80434">
        <ele>97.6</ele>
      </trkpt>
      <trkpt lat="44.82545" lon="4.80397">
        <ele>97.7</ele>
      </trkpt>
      <trkpt lat="44.82565" lon="4.80332">
        <ele>98.3</ele>
      </trkpt>
      <trkpt lat="44.82571" lon="4.80314">
        <ele>98.2</ele>
      </trkpt>
      <trkpt lat="44.82577" lon="4.80306">
        <ele>98.2</ele>
      </trkpt>
      <trkpt lat="44.82581" lon="4.80302">
        <ele>98.1</ele>
      </trkpt>
      <trkpt lat="44.82598" lon="4.80282">
        <ele>101.8</ele>
      </trkpt>
      <trkpt lat="44.82615" lon="4.80278">
        <ele>102.8</ele>
      </trkpt>
      <trkpt lat="44.82621" lon="4.80274">
        <ele>103.3</ele>
      </trkpt>
      <trkpt lat="44.82625" lon="4.80271">
        <ele>103.7</ele>
      </trkpt>
      <trkpt lat="44.82617" lon="4.80255">
        <ele>103</ele>
      </trkpt>
      <trkpt lat="44.82621" lon="4.80245">
        <ele>104.7</ele>
      </trkpt>
      <trkpt lat="44.82622" lon="4.8024">
        <ele>104.8</ele>
      </trkpt>
      <trkpt lat="44.82624" lon="4.80223">
        <ele>105.1</ele>
      </trkpt>
      <trkpt lat="44.82632" lon="4.80155">
        <ele>109</ele>
      </trkpt>
      <trkpt lat="44.82632" lon="4.80096">
        <ele>111.9</ele>
      </trkpt>
      <trkpt lat="44.8263" lon="4.80041">
        <ele>115.7</ele>
      </trkpt>
      <trkpt lat="44.8263" lon="4.80021">
        <ele>116.4</ele>
      </trkpt>
      <trkpt lat="44.82625" lon="4.79927">
        <ele>117.5</ele>
      </trkpt>
      <trkpt lat="44.82629" lon="4.79858">
        <ele>118.8</ele>
      </trkpt>
      <trkpt lat="44.8263" lon="4.79847">
        <ele>119.2</ele>
      </trkpt>
      <trkpt lat="44.82634" lon="4.79788">
        <ele>117.7</ele>
      </trkpt>
      <trkpt lat="44.8264" lon="4.79755">
        <ele>118.5</ele>
      </trkpt>
      <trkpt lat="44.82653" lon="4.79707">
        <ele>113.8</ele>
      </trkpt>
      <trkpt lat="44.82669" lon="4.7967">
        <ele>117.3</ele>
      </trkpt>
      <trkpt lat="44.82672" lon="4.79662">
        <ele>117.2</ele>
      </trkpt>
      <trkpt lat="44.8267" lon="4.79648">
        <ele>119</ele>
      </trkpt>
      <trkpt lat="44.82673" lon="4.79642">
        <ele>119.6</ele>
      </trkpt>
      <trkpt lat="44.82684" lon="4.79617">
        <ele>120</ele>
      </trkpt>
      <trkpt lat="44.82695" lon="4.79583">
        <ele>115.8</ele>
      </trkpt>
      <trkpt lat="44.82704" lon="4.7956">
        <ele>117.6</ele>
      </trkpt>
      <trkpt lat="44.8271" lon="4.79536">
        <ele>117.5</ele>
      </trkpt>
      <trkpt lat="44.82711" lon="4.79528">
        <ele>117.3</ele>
      </trkpt>
      <trkpt lat="44.82713" lon="4.79515">
        <ele>117.2</ele>
      </trkpt>
      <trkpt lat="44.8272" lon="4.79498">
        <ele>113.8</ele>
      </trkpt>
      <trkpt lat="44.82725" lon="4.79471">
        <ele>112.7</ele>
      </trkpt>
      <trkpt lat="44.82726" lon="4.79464">
        <ele>112.2</ele>
      </trkpt>
      <trkpt lat="44.8274" lon="4.79441">
        <ele>112.2</ele>
      </trkpt>
      <trkpt lat="44.82748" lon="4.79424">
        <ele>113.1</ele>
      </trkpt>
      <trkpt lat="44.82756" lon="4.794">
        <ele>120.6</ele>
      </trkpt>
      <trkpt lat="44.82766" lon="4.79368">
        <ele>122.7</ele>
      </trkpt>
      <trkpt lat="44.82774" lon="4.79295">
        <ele>117.9</ele>
      </trkpt>
      <trkpt lat="44.82786" lon="4.7925">
        <ele>118.2</ele>
      </trkpt>
      <trkpt lat="44.82789" lon="4.79222">
        <ele>117.5</ele>
      </trkpt>
      <trkpt lat="44.82786" lon="4.79133">
        <ele>114</ele>
      </trkpt>
      <trkpt lat="44.82787" lon="4.79044">
        <ele>110.4</ele>
      </trkpt>
      <trkpt lat="44.82792" lon="4.78977">
        <ele>110.7</ele>
      </trkpt>
      <trkpt lat="44.82792" lon="4.78952">
        <ele>110.8</ele>
      </trkpt>
      <trkpt lat="44.82788" lon="4.78927">
        <ele>110.3</ele>
      </trkpt>
      <trkpt lat="44.82788" lon="4.78901">
        <ele>110.7</ele>
      </trkpt>
      <trkpt lat="44.82792" lon="4.78846">
        <ele>111.4</ele>
      </trkpt>
      <trkpt lat="44.82791" lon="4.78833">
        <ele>111.4</ele>
      </trkpt>
      <trkpt lat="44.82787" lon="4.78823">
        <ele>111</ele>
      </trkpt>
      <trkpt lat="44.82794" lon="4.78798">
        <ele>111.7</ele>
      </trkpt>
      <trkpt lat="44.82806" lon="4.78753">
        <ele>113.4</ele>
      </trkpt>
      <trkpt lat="44.82811" lon="4.78729">
        <ele>111.2</ele>
      </trkpt>
      <trkpt lat="44.82813" lon="4.78692">
        <ele>109.3</ele>
      </trkpt>
      <trkpt lat="44.82819" lon="4.78649">
        <ele>105.9</ele>
      </trkpt>
      <trkpt lat="44.82826" lon="4.78635">
        <ele>104.8</ele>
      </trkpt>
      <trkpt lat="44.82836" lon="4.78623">
        <ele>112.5</ele>
      </trkpt>
      <trkpt lat="44.82862" lon="4.78604">
        <ele>113.1</ele>
      </trkpt>
      <trkpt lat="44.82869" lon="4.78594">
        <ele>113.6</ele>
      </trkpt>
      <trkpt lat="44.8291" lon="4.78495">
        <ele>111</ele>
      </trkpt>
      <trkpt lat="44.82914" lon="4.78481">
        <ele>109.5</ele>
      </trkpt>
      <trkpt lat="44.82915" lon="4.78464">
        <ele>108.5</ele>
      </trkpt>
      <trkpt lat="44.82914" lon="4.78357">
        <ele>107.8</ele>
      </trkpt>
      <trkpt lat="44.82917" lon="4.78279">
        <ele>118.5</ele>
      </trkpt>
      <trkpt lat="44.82916" lon="4.78251">
        <ele>107.9</ele>
      </trkpt>
      <trkpt lat="44.82912" lon="4.78221">
        <ele>108.2</ele>
      </trkpt>
      <trkpt lat="44.82904" lon="4.78179">
        <ele>110.1</ele>
      </trkpt>
      <trkpt lat="44.82878" lon="4.78092">
        <ele>107.8</ele>
      </trkpt>
      <trkpt lat="44.82846" lon="4.78002">
        <ele>105.6</ele>
      </trkpt>
      <trkpt lat="44.82808" lon="4.77897">
        <ele>105.3</ele>
      </trkpt>
      <trkpt lat="44.82803" lon="4.77884">
        <ele>105.5</ele>
      </trkpt>
      <trkpt lat="44.82743" lon="4.77737">
        <ele>105.2</ele>
      </trkpt>
      <trkpt lat="44.82739" lon="4.77728">
        <ele>104.5</ele>
      </trkpt>
      <trkpt lat="44.82702" lon="4.77644">
        <ele>102.9</ele>
      </trkpt>
      <trkpt lat="44.82649" lon="4.77528">
        <ele>101.5</ele>
      </trkpt>
      <trkpt lat="44.82613" lon="4.7745">
        <ele>102.3</ele>
      </trkpt>
      <trkpt lat="44.82576" lon="4.7737">
        <ele>103.1</ele>
      </trkpt>
      <trkpt lat="44.82555" lon="4.77325">
        <ele>103.6</ele>
      </trkpt>
      <trkpt lat="44.82535" lon="4.77281">
        <ele>103.5</ele>
      </trkpt>
      <trkpt lat="44.8252" lon="4.77247">
        <ele>103.8</ele>
      </trkpt>
      <trkpt lat="44.82512" lon="4.77234">
        <ele>103.8</ele>
      </trkpt>
      <trkpt lat="44.82452" lon="4.77152">
        <ele>103.4</ele>
      </trkpt>
      <trkpt lat="44.82434" lon="4.77123">
        <ele>103.6</ele>
      </trkpt>
      <trkpt lat="44.82391" lon="4.77044">
        <ele>103.4</ele>
      </trkpt>
      <trkpt lat="44.82386" lon="4.77033">
        <ele>103.4</ele>
      </trkpt>
      <trkpt lat="44.82361" lon="4.76986">
        <ele>103.9</ele>
      </trkpt>
      <trkpt lat="44.82302" lon="4.76876">
        <ele>104.7</ele>
      </trkpt>
      <trkpt lat="44.82281" lon="4.76831">
        <ele>106.5</ele>
      </trkpt>
      <trkpt lat="44.82275" lon="4.76814">
        <ele>106.5</ele>
      </trkpt>
      <trkpt lat="44.82256" lon="4.76763">
        <ele>106.9</ele>
      </trkpt>
      <trkpt lat="44.82249" lon="4.76745">
        <ele>106.6</ele>
      </trkpt>
      <trkpt lat="44.82231" lon="4.76681">
        <ele>106.3</ele>
      </trkpt>
      <trkpt lat="44.82229" lon="4.76667">
        <ele>106.5</ele>
      </trkpt>
      <trkpt lat="44.8223" lon="4.76655">
        <ele>106.9</ele>
      </trkpt>
      <trkpt lat="44.82234" lon="4.76644">
        <ele>106.9</ele>
      </trkpt>
      <trkpt lat="44.82236" lon="4.76632">
        <ele>106.7</ele>
      </trkpt>
      <trkpt lat="44.8224" lon="4.76602">
        <ele>107.2</ele>
      </trkpt>
      <trkpt lat="44.82236" lon="4.76602">
        <ele>107.1</ele>
      </trkpt>
      <trkpt lat="44.82231" lon="4.76603">
        <ele>106.9</ele>
      </trkpt>
      <trkpt lat="44.8222" lon="4.76606">
        <ele>106.3</ele>
      </trkpt>
      <trkpt lat="44.82207" lon="4.7661">
        <ele>105.7</ele>
      </trkpt>
      <trkpt lat="44.82089" lon="4.76645">
        <ele>107.7</ele>
      </trkpt>
      <trkpt lat="44.82077" lon="4.7665">
        <ele>119.8</ele>
      </trkpt>
      <trkpt lat="44.82072" lon="4.76653">
        <ele>120.3</ele>
      </trkpt>
      <trkpt lat="44.82066" lon="4.76651">
        <ele>122.4</ele>
      </trkpt>
      <trkpt lat="44.82057" lon="4.76632">
        <ele>125.8</ele>
      </trkpt>
      <trkpt lat="44.82048" lon="4.76603">
        <ele>126.3</ele>
      </trkpt>
      <trkpt lat="44.82041" lon="4.76583">
        <ele>124.3</ele>
      </trkpt>
      <trkpt lat="44.82037" lon="4.76561">
        <ele>125</ele>
      </trkpt>
      <trkpt lat="44.82032" lon="4.76512">
        <ele>125.4</ele>
      </trkpt>
      <trkpt lat="44.82032" lon="4.76436">
        <ele>123.5</ele>
      </trkpt>
      <trkpt lat="44.82029" lon="4.76371">
        <ele>121.1</ele>
      </trkpt>
      <trkpt lat="44.82016" lon="4.76311">
        <ele>120.5</ele>
      </trkpt>
      <trkpt lat="44.82017" lon="4.76278">
        <ele>118.4</ele>
      </trkpt>
      <trkpt lat="44.82014" lon="4.7626">
        <ele>119.7</ele>
      </trkpt>
      <trkpt lat="44.81995" lon="4.76187">
        <ele>128.6</ele>
      </trkpt>
      <trkpt lat="44.8199" lon="4.76112">
        <ele>123.1</ele>
      </trkpt>
      <trkpt lat="44.81989" lon="4.76064">
        <ele>119.8</ele>
      </trkpt>
      <trkpt lat="44.81987" lon="4.76025">
        <ele>121.2</ele>
      </trkpt>
      <trkpt lat="44.81977" lon="4.75992">
        <ele>122.3</ele>
      </trkpt>
      <trkpt lat="44.81965" lon="4.75934">
        <ele>126.2</ele>
      </trkpt>
      <trkpt lat="44.81956" lon="4.75879">
        <ele>125.9</ele>
      </trkpt>
      <trkpt lat="44.81948" lon="4.75757">
        <ele>124.2</ele>
      </trkpt>
      <trkpt lat="44.81944" lon="4.75732">
        <ele>124.1</ele>
      </trkpt>
      <trkpt lat="44.81941" lon="4.75687">
        <ele>124.2</ele>
      </trkpt>
      <trkpt lat="44.81937" lon="4.75657">
        <ele>124.5</ele>
      </trkpt>
      <trkpt lat="44.81934" lon="4.75611">
        <ele>121.7</ele>
      </trkpt>
      <trkpt lat="44.81929" lon="4.75585">
        <ele>123.7</ele>
      </trkpt>
      <trkpt lat="44.81909" lon="4.75511">
        <ele>126.1</ele>
      </trkpt>
      <trkpt lat="44.81907" lon="4.75481">
        <ele>123</ele>
      </trkpt>
      <trkpt lat="44.81907" lon="4.75452">
        <ele>122.6</ele>
      </trkpt>
      <trkpt lat="44.81899" lon="4.75429">
        <ele>120</ele>
      </trkpt>
      <trkpt lat="44.81862" lon="4.75365">
        <ele>120.8</ele>
      </trkpt>
      <trkpt lat="44.81835" lon="4.75295">
        <ele>115.6</ele>
      </trkpt>
      <trkpt lat="44.81798" lon="4.75223">
        <ele>127.1</ele>
      </trkpt>
      <trkpt lat="44.81751" lon="4.75112">
        <ele>117.8</ele>
      </trkpt>
      <trkpt lat="44.81744" lon="4.75088">
        <ele>124.6</ele>
      </trkpt>
      <trkpt lat="44.81739" lon="4.75062">
        <ele>124.8</ele>
      </trkpt>
      <trkpt lat="44.81736" lon="4.75025">
        <ele>124.2</ele>
      </trkpt>
      <trkpt lat="44.81739" lon="4.74951">
        <ele>119.2</ele>
      </trkpt>
      <trkpt lat="44.81749" lon="4.74872">
        <ele>116.1</ele>
      </trkpt>
      <trkpt lat="44.8177" lon="4.74732">
        <ele>110.3</ele>
      </trkpt>
      <trkpt lat="44.8177" lon="4.74729">
        <ele>110.3</ele>
      </trkpt>
      <trkpt lat="44.81773" lon="4.74714">
        <ele>110.1</ele>
      </trkpt>
      <trkpt lat="44.81774" lon="4.74707">
        <ele>110.1</ele>
      </trkpt>
      <trkpt lat="44.81776" lon="4.74694">
        <ele>110.1</ele>
      </trkpt>
      <trkpt lat="44.81776" lon="4.74585">
        <ele>110.3</ele>
      </trkpt>
      <trkpt lat="44.81782" lon="4.74522">
        <ele>111.1</ele>
      </trkpt>
      <trkpt lat="44.81795" lon="4.74448">
        <ele>112</ele>
      </trkpt>
      <trkpt lat="44.81828" lon="4.74356">
        <ele>112.5</ele>
      </trkpt>
      <trkpt lat="44.81838" lon="4.74322">
        <ele>111.6</ele>
      </trkpt>
      <trkpt lat="44.81842" lon="4.74287">
        <ele>111.3</ele>
      </trkpt>
      <trkpt lat="44.81851" lon="4.74184">
        <ele>112.6</ele>
      </trkpt>
      <trkpt lat="44.81855" lon="4.74138">
        <ele>114.1</ele>
      </trkpt>
      <trkpt lat="44.81857" lon="4.74105">
        <ele>114.8</ele>
      </trkpt>
      <trkpt lat="44.81861" lon="4.74049">
        <ele>115.9</ele>
      </trkpt>
      <trkpt lat="44.81872" lon="4.73968">
        <ele>116.7</ele>
      </trkpt>
      <trkpt lat="44.81877" lon="4.73946">
        <ele>116.8</ele>
      </trkpt>
      <trkpt lat="44.81886" lon="4.73904">
        <ele>117.2</ele>
      </trkpt>
      <trkpt lat="44.81893" lon="4.73824">
        <ele>116.9</ele>
      </trkpt>
      <trkpt lat="44.81894" lon="4.73778">
        <ele>116.9</ele>
      </trkpt>
      <trkpt lat="44.819" lon="4.73741">
        <ele>116.8</ele>
      </trkpt>
      <trkpt lat="44.81901" lon="4.73726">
        <ele>116.9</ele>
      </trkpt>
      <trkpt lat="44.81902" lon="4.73696">
        <ele>117</ele>
      </trkpt>
      <trkpt lat="44.81906" lon="4.73669">
        <ele>116.6</ele>
      </trkpt>
      <trkpt lat="44.81921" lon="4.73569">
        <ele>115.8</ele>
      </trkpt>
      <trkpt lat="44.81921" lon="4.73563">
        <ele>115.8</ele>
      </trkpt>
      <trkpt lat="44.81915" lon="4.73563">
        <ele>117.4</ele>
      </trkpt>
      <trkpt lat="44.81793" lon="4.73556">
        <ele>128.8</ele>
      </trkpt>
      <trkpt lat="44.81785" lon="4.73554">
        <ele>129.6</ele>
      </trkpt>
      <trkpt lat="44.81787" lon="4.73543">
        <ele>129.4</ele>
      </trkpt>
      <trkpt lat="44.81794" lon="4.73518">
        <ele>128.9</ele>
      </trkpt>
      <trkpt lat="44.81801" lon="4.73477">
        <ele>128.7</ele>
      </trkpt>
      <trkpt lat="44.81802" lon="4.73454">
        <ele>128.8</ele>
      </trkpt>
      <trkpt lat="44.81797" lon="4.73368">
        <ele>131.1</ele>
      </trkpt>
      <trkpt lat="44.81795" lon="4.7332">
        <ele>133.6</ele>
      </trkpt>
      <trkpt lat="44.81792" lon="4.73265">
        <ele>134.9</ele>
      </trkpt>
      <trkpt lat="44.8179" lon="4.73218">
        <ele>138.9</ele>
      </trkpt>
      <trkpt lat="44.81784" lon="4.73137">
        <ele>143.6</ele>
      </trkpt>
      <trkpt lat="44.81775" lon="4.72976">
        <ele>139.5</ele>
      </trkpt>
      <trkpt lat="44.81769" lon="4.729">
        <ele>136.3</ele>
      </trkpt>
      <trkpt lat="44.81765" lon="4.72873">
        <ele>133.5</ele>
      </trkpt>
      <trkpt lat="44.81758" lon="4.72844">
        <ele>135.3</ele>
      </trkpt>
      <trkpt lat="44.81736" lon="4.7278">
        <ele>142</ele>
      </trkpt>
      <trkpt lat="44.81726" lon="4.72759">
        <ele>140.3</ele>
      </trkpt>
      <trkpt lat="44.81714" lon="4.72739">
        <ele>132.1</ele>
      </trkpt>
      <trkpt lat="44.81646" lon="4.7268">
        <ele>146</ele>
      </trkpt>
      <trkpt lat="44.81625" lon="4.72645">
        <ele>143.3</ele>
      </trkpt>
      <trkpt lat="44.81617" lon="4.72621">
        <ele>144.3</ele>
      </trkpt>
      <trkpt lat="44.8161" lon="4.72593">
        <ele>147</ele>
      </trkpt>
      <trkpt lat="44.81605" lon="4.72508">
        <ele>142.7</ele>
      </trkpt>
      <trkpt lat="44.81574" lon="4.72284">
        <ele>147.3</ele>
      </trkpt>
      <trkpt lat="44.81564" lon="4.72191">
        <ele>147.4</ele>
      </trkpt>
      <trkpt lat="44.81565" lon="4.72173">
        <ele>145.8</ele>
      </trkpt>
      <trkpt lat="44.81588" lon="4.72035">
        <ele>135.3</ele>
      </trkpt>
      <trkpt lat="44.816" lon="4.71955">
        <ele>136.8</ele>
      </trkpt>
      <trkpt lat="44.81623" lon="4.71835">
        <ele>141.5</ele>
      </trkpt>
      <trkpt lat="44.81623" lon="4.7182">
        <ele>143.6</ele>
      </trkpt>
      <trkpt lat="44.81621" lon="4.71774">
        <ele>143.7</ele>
      </trkpt>
      <trkpt lat="44.81615" lon="4.71748">
        <ele>140.6</ele>
      </trkpt>
      <trkpt lat="44.81609" lon="4.71733">
        <ele>140.4</ele>
      </trkpt>
      <trkpt lat="44.81584" lon="4.71694">
        <ele>137.7</ele>
      </trkpt>
      <trkpt lat="44.8154" lon="4.71639">
        <ele>140.5</ele>
      </trkpt>
      <trkpt lat="44.81529" lon="4.71611">
        <ele>141.2</ele>
      </trkpt>
      <trkpt lat="44.81521" lon="4.71582">
        <ele>141.2</ele>
      </trkpt>
      <trkpt lat="44.81519" lon="4.71523">
        <ele>138.7</ele>
      </trkpt>
      <trkpt lat="44.81516" lon="4.71499">
        <ele>137.9</ele>
      </trkpt>
      <trkpt lat="44.81511" lon="4.71478">
        <ele>135.9</ele>
      </trkpt>
      <trkpt lat="44.81499" lon="4.71448">
        <ele>146.9</ele>
      </trkpt>
      <trkpt lat="44.8149" lon="4.7143">
        <ele>143.9</ele>
      </trkpt>
      <trkpt lat="44.8146" lon="4.71383">
        <ele>143.6</ele>
      </trkpt>
      <trkpt lat="44.81408" lon="4.71328">
        <ele>151.7</ele>
      </trkpt>
      <trkpt lat="44.81402" lon="4.71318">
        <ele>154.2</ele>
      </trkpt>
      <trkpt lat="44.81395" lon="4.71304">
        <ele>155.7</ele>
      </trkpt>
      <trkpt lat="44.81389" lon="4.71282">
        <ele>155.1</ele>
      </trkpt>
      <trkpt lat="44.81385" lon="4.71263">
        <ele>153.9</ele>
      </trkpt>
      <trkpt lat="44.81375" lon="4.71189">
        <ele>149.5</ele>
      </trkpt>
      <trkpt lat="44.81374" lon="4.71168">
        <ele>149.3</ele>
      </trkpt>
      <trkpt lat="44.81375" lon="4.71151">
        <ele>147.7</ele>
      </trkpt>
      <trkpt lat="44.81392" lon="4.71062">
        <ele>145.5</ele>
      </trkpt>
      <trkpt lat="44.81392" lon="4.71016">
        <ele>144.4</ele>
      </trkpt>
      <trkpt lat="44.81379" lon="4.70973">
        <ele>146.9</ele>
      </trkpt>
      <trkpt lat="44.81325" lon="4.70834">
        <ele>155.5</ele>
      </trkpt>
      <trkpt lat="44.81318" lon="4.70795">
        <ele>159.6</ele>
      </trkpt>
      <trkpt lat="44.81317" lon="4.70758">
        <ele>154.5</ele>
      </trkpt>
      <trkpt lat="44.8132" lon="4.70742">
        <ele>150.8</ele>
      </trkpt>
      <trkpt lat="44.81331" lon="4.70702">
        <ele>153.8</ele>
      </trkpt>
      <trkpt lat="44.81346" lon="4.7067">
        <ele>142.3</ele>
      </trkpt>
      <trkpt lat="44.81366" lon="4.70636">
        <ele>148.1</ele>
      </trkpt>
      <trkpt lat="44.81373" lon="4.70627">
        <ele>148.5</ele>
      </trkpt>
      <trkpt lat="44.81392" lon="4.70612">
        <ele>148.2</ele>
      </trkpt>
      <trkpt lat="44.81412" lon="4.70601">
        <ele>147.9</ele>
      </trkpt>
      <trkpt lat="44.81438" lon="4.70598">
        <ele>142.4</ele>
      </trkpt>
      <trkpt lat="44.81449" lon="4.70599">
        <ele>141.5</ele>
      </trkpt>
      <trkpt lat="44.81483" lon="4.70613">
        <ele>140</ele>
      </trkpt>
      <trkpt lat="44.81525" lon="4.70635">
        <ele>137.5</ele>
      </trkpt>
      <trkpt lat="44.81545" lon="4.70638">
        <ele>137.5</ele>
      </trkpt>
      <trkpt lat="44.81557" lon="4.70636">
        <ele>137.6</ele>
      </trkpt>
      <trkpt lat="44.81569" lon="4.70633">
        <ele>137.8</ele>
      </trkpt>
      <trkpt lat="44.81572" lon="4.70621">
        <ele>139.1</ele>
      </trkpt>
      <trkpt lat="44.81574" lon="4.70613">
        <ele>140.1</ele>
      </trkpt>
      <trkpt lat="44.81593" lon="4.70606">
        <ele>138.4</ele>
      </trkpt>
      <trkpt lat="44.81602" lon="4.70595">
        <ele>138.9</ele>
      </trkpt>
      <trkpt lat="44.81614" lon="4.70576">
        <ele>142.6</ele>
      </trkpt>
      <trkpt lat="44.81625" lon="4.70546">
        <ele>142.3</ele>
      </trkpt>
      <trkpt lat="44.81637" lon="4.70467">
        <ele>148</ele>
      </trkpt>
      <trkpt lat="44.81643" lon="4.70456">
        <ele>147.8</ele>
      </trkpt>
      <trkpt lat="44.81648" lon="4.70396">
        <ele>152.1</ele>
      </trkpt>
      <trkpt lat="44.81651" lon="4.70379">
        <ele>153.5</ele>
      </trkpt>
      <trkpt lat="44.81654" lon="4.70367">
        <ele>153.6</ele>
      </trkpt>
      <trkpt lat="44.81659" lon="4.70346">
        <ele>151.5</ele>
      </trkpt>
      <trkpt lat="44.81667" lon="4.70305">
        <ele>142.3</ele>
      </trkpt>
      <trkpt lat="44.81669" lon="4.70264">
        <ele>146.2</ele>
      </trkpt>
      <trkpt lat="44.81666" lon="4.70215">
        <ele>158.2</ele>
      </trkpt>
      <trkpt lat="44.81652" lon="4.70137">
        <ele>156</ele>
      </trkpt>
      <trkpt lat="44.81651" lon="4.70117">
        <ele>155.9</ele>
      </trkpt>
      <trkpt lat="44.81652" lon="4.70095">
        <ele>152.8</ele>
      </trkpt>
      <trkpt lat="44.81669" lon="4.69981">
        <ele>144.1</ele>
      </trkpt>
      <trkpt lat="44.81671" lon="4.69967">
        <ele>143.4</ele>
      </trkpt>
      <trkpt lat="44.8167" lon="4.69931">
        <ele>147.8</ele>
      </trkpt>
      <trkpt lat="44.81664" lon="4.69883">
        <ele>167.4</ele>
      </trkpt>
      <trkpt lat="44.81638" lon="4.69787">
        <ele>158.5</ele>
      </trkpt>
      <trkpt lat="44.81636" lon="4.69767">
        <ele>156</ele>
      </trkpt>
      <trkpt lat="44.81637" lon="4.69747">
        <ele>145</ele>
      </trkpt>
      <trkpt lat="44.81639" lon="4.69733">
        <ele>144.7</ele>
      </trkpt>
      <trkpt lat="44.81647" lon="4.69699">
        <ele>143.3</ele>
      </trkpt>
      <trkpt lat="44.81656" lon="4.69675">
        <ele>140</ele>
      </trkpt>
      <trkpt lat="44.81669" lon="4.69637">
        <ele>138</ele>
      </trkpt>
      <trkpt lat="44.8168" lon="4.69573">
        <ele>149.1</ele>
      </trkpt>
      <trkpt lat="44.81687" lon="4.69537">
        <ele>151.5</ele>
      </trkpt>
      <trkpt lat="44.81691" lon="4.69521">
        <ele>153.4</ele>
      </trkpt>
      <trkpt lat="44.817" lon="4.69498">
        <ele>162.8</ele>
      </trkpt>
      <trkpt lat="44.8171" lon="4.69482">
        <ele>161.1</ele>
      </trkpt>
      <trkpt lat="44.8172" lon="4.6947">
        <ele>160.2</ele>
      </trkpt>
      <trkpt lat="44.81731" lon="4.69462">
        <ele>159.3</ele>
      </trkpt>
      <trkpt lat="44.81748" lon="4.69453">
        <ele>158.7</ele>
      </trkpt>
      <trkpt lat="44.8188" lon="4.69412">
        <ele>153.6</ele>
      </trkpt>
      <trkpt lat="44.81908" lon="4.69406">
        <ele>149.9</ele>
      </trkpt>
      <trkpt lat="44.81935" lon="4.6941">
        <ele>149.7</ele>
      </trkpt>
      <trkpt lat="44.81963" lon="4.6942">
        <ele>143.5</ele>
      </trkpt>
      <trkpt lat="44.81979" lon="4.69429">
        <ele>144.2</ele>
      </trkpt>
      <trkpt lat="44.8201" lon="4.69453">
        <ele>145.7</ele>
      </trkpt>
      <trkpt lat="44.82119" lon="4.6956">
        <ele>147.2</ele>
      </trkpt>
      <trkpt lat="44.82145" lon="4.69575">
        <ele>147.6</ele>
      </trkpt>
      <trkpt lat="44.82155" lon="4.69576">
        <ele>147.6</ele>
      </trkpt>
      <trkpt lat="44.82174" lon="4.69576">
        <ele>148.7</ele>
      </trkpt>
      <trkpt lat="44.82194" lon="4.69574">
        <ele>149.7</ele>
      </trkpt>
      <trkpt lat="44.82214" lon="4.69565">
        <ele>149.9</ele>
      </trkpt>
      <trkpt lat="44.82245" lon="4.69538">
        <ele>152.6</ele>
      </trkpt>
      <trkpt lat="44.82272" lon="4.69515">
        <ele>150</ele>
      </trkpt>
      <trkpt lat="44.82307" lon="4.69484">
        <ele>154.4</ele>
      </trkpt>
      <trkpt lat="44.82344" lon="4.6943">
        <ele>150.6</ele>
      </trkpt>
      <trkpt lat="44.8237" lon="4.69385">
        <ele>153.4</ele>
      </trkpt>
      <trkpt lat="44.82384" lon="4.69352">
        <ele>152.9</ele>
      </trkpt>
      <trkpt lat="44.82399" lon="4.69307">
        <ele>154.5</ele>
      </trkpt>
      <trkpt lat="44.82457" lon="4.6912">
        <ele>150.8</ele>
      </trkpt>
      <trkpt lat="44.82467" lon="4.69094">
        <ele>150.8</ele>
      </trkpt>
      <trkpt lat="44.8248" lon="4.69068">
        <ele>153.7</ele>
      </trkpt>
      <trkpt lat="44.82511" lon="4.69023">
        <ele>146.5</ele>
      </trkpt>
      <trkpt lat="44.82524" lon="4.68997">
        <ele>147.4</ele>
      </trkpt>
      <trkpt lat="44.82533" lon="4.68972">
        <ele>146</ele>
      </trkpt>
      <trkpt lat="44.82538" lon="4.68947">
        <ele>145.8</ele>
      </trkpt>
      <trkpt lat="44.82538" lon="4.68911">
        <ele>146.6</ele>
      </trkpt>
      <trkpt lat="44.82535" lon="4.68884">
        <ele>146.8</ele>
      </trkpt>
      <trkpt lat="44.82524" lon="4.68814">
        <ele>149.9</ele>
      </trkpt>
      <trkpt lat="44.8252" lon="4.6878">
        <ele>151.3</ele>
      </trkpt>
      <trkpt lat="44.8253" lon="4.68679">
        <ele>154.6</ele>
      </trkpt>
      <trkpt lat="44.82528" lon="4.68651">
        <ele>155</ele>
      </trkpt>
      <trkpt lat="44.82523" lon="4.6863">
        <ele>154.5</ele>
      </trkpt>
      <trkpt lat="44.82498" lon="4.68546">
        <ele>176.8</ele>
      </trkpt>
      <trkpt lat="44.82496" lon="4.68521">
        <ele>172.8</ele>
      </trkpt>
      <trkpt lat="44.82502" lon="4.68477">
        <ele>153.3</ele>
      </trkpt>
      <trkpt lat="44.82512" lon="4.68447">
        <ele>152.3</ele>
      </trkpt>
      <trkpt lat="44.82546" lon="4.68387">
        <ele>153</ele>
      </trkpt>
      <trkpt lat="44.8258" lon="4.68319">
        <ele>152.5</ele>
      </trkpt>
      <trkpt lat="44.82608" lon="4.68252">
        <ele>147.7</ele>
      </trkpt>
      <trkpt lat="44.82621" lon="4.68209">
        <ele>149.4</ele>
      </trkpt>
      <trkpt lat="44.82639" lon="4.68138">
        <ele>149.5</ele>
      </trkpt>
      <trkpt lat="44.82646" lon="4.68132">
        <ele>149.3</ele>
      </trkpt>
      <trkpt lat="44.82648" lon="4.68128">
        <ele>149.2</ele>
      </trkpt>
      <trkpt lat="44.82665" lon="4.68026">
        <ele>147.1</ele>
      </trkpt>
      <trkpt lat="44.82665" lon="4.68008">
        <ele>146</ele>
      </trkpt>
      <trkpt lat="44.82666" lon="4.67984">
        <ele>146.6</ele>
      </trkpt>
      <trkpt lat="44.82664" lon="4.67928">
        <ele>147</ele>
      </trkpt>
      <trkpt lat="44.82659" lon="4.67864">
        <ele>149.4</ele>
      </trkpt>
      <trkpt lat="44.82649" lon="4.67808">
        <ele>149.9</ele>
      </trkpt>
      <trkpt lat="44.82639" lon="4.6778">
        <ele>150.4</ele>
      </trkpt>
      <trkpt lat="44.82633" lon="4.67763">
        <ele>150.5</ele>
      </trkpt>
      <trkpt lat="44.8263" lon="4.67748">
        <ele>150.2</ele>
      </trkpt>
      <trkpt lat="44.82621" lon="4.67688">
        <ele>151.6</ele>
      </trkpt>
      <trkpt lat="44.82614" lon="4.6761">
        <ele>151.6</ele>
      </trkpt>
      <trkpt lat="44.82602" lon="4.67546">
        <ele>151.2</ele>
      </trkpt>
      <trkpt lat="44.82569" lon="4.67406">
        <ele>152.5</ele>
      </trkpt>
      <trkpt lat="44.8256" lon="4.67383">
        <ele>153.7</ele>
      </trkpt>
      <trkpt lat="44.82548" lon="4.67363">
        <ele>153.8</ele>
      </trkpt>
      <trkpt lat="44.82509" lon="4.67313">
        <ele>152.3</ele>
      </trkpt>
      <trkpt lat="44.82492" lon="4.67285">
        <ele>161.1</ele>
      </trkpt>
      <trkpt lat="44.82478" lon="4.67257">
        <ele>159</ele>
      </trkpt>
      <trkpt lat="44.82397" lon="4.67065">
        <ele>155.1</ele>
      </trkpt>
      <trkpt lat="44.82368" lon="4.67007">
        <ele>156.4</ele>
      </trkpt>
      <trkpt lat="44.82203" lon="4.66753">
        <ele>158.4</ele>
      </trkpt>
      <trkpt lat="44.82146" lon="4.66653">
        <ele>155.2</ele>
      </trkpt>
      <trkpt lat="44.82132" lon="4.66636">
        <ele>157</ele>
      </trkpt>
      <trkpt lat="44.8207" lon="4.66581">
        <ele>164.5</ele>
      </trkpt>
      <trkpt lat="44.81996" lon="4.6645">
        <ele>181.7</ele>
      </trkpt>
      <trkpt lat="44.8198" lon="4.66417">
        <ele>177.3</ele>
      </trkpt>
      <trkpt lat="44.81969" lon="4.66381">
        <ele>173.6</ele>
      </trkpt>
      <trkpt lat="44.81954" lon="4.6631">
        <ele>166.7</ele>
      </trkpt>
      <trkpt lat="44.81923" lon="4.66211">
        <ele>158.3</ele>
      </trkpt>
      <trkpt lat="44.81903" lon="4.66154">
        <ele>163.5</ele>
      </trkpt>
      <trkpt lat="44.81874" lon="4.66105">
        <ele>168.4</ele>
      </trkpt>
      <trkpt lat="44.81856" lon="4.66055">
        <ele>165.8</ele>
      </trkpt>
      <trkpt lat="44.81845" lon="4.66011">
        <ele>167.2</ele>
      </trkpt>
      <trkpt lat="44.81838" lon="4.65966">
        <ele>163.2</ele>
      </trkpt>
      <trkpt lat="44.81838" lon="4.65932">
        <ele>164.1</ele>
      </trkpt>
      <trkpt lat="44.8184" lon="4.65888">
        <ele>163.2</ele>
      </trkpt>
      <trkpt lat="44.81841" lon="4.65839">
        <ele>168</ele>
      </trkpt>
      <trkpt lat="44.81839" lon="4.6576">
        <ele>167.9</ele>
      </trkpt>
      <trkpt lat="44.81833" lon="4.65682">
        <ele>174.3</ele>
      </trkpt>
      <trkpt lat="44.81826" lon="4.65632">
        <ele>171.9</ele>
      </trkpt>
      <trkpt lat="44.818" lon="4.65531">
        <ele>168.3</ele>
      </trkpt>
      <trkpt lat="44.81788" lon="4.65478">
        <ele>170.1</ele>
      </trkpt>
      <trkpt lat="44.81785" lon="4.65445">
        <ele>171.1</ele>
      </trkpt>
      <trkpt lat="44.81783" lon="4.65412">
        <ele>173.5</ele>
      </trkpt>
      <trkpt lat="44.81789" lon="4.65331">
        <ele>171.6</ele>
      </trkpt>
      <trkpt lat="44.81776" lon="4.65244">
        <ele>172.1</ele>
      </trkpt>
      <trkpt lat="44.8176" lon="4.65157">
        <ele>174.3</ele>
      </trkpt>
      <trkpt lat="44.81758" lon="4.65014">
        <ele>170.1</ele>
      </trkpt>
      <trkpt lat="44.81739" lon="4.64813">
        <ele>175.2</ele>
      </trkpt>
      <trkpt lat="44.81715" lon="4.64674">
        <ele>181.8</ele>
      </trkpt>
      <trkpt lat="44.81715" lon="4.64651">
        <ele>184.6</ele>
      </trkpt>
      <trkpt lat="44.81728" lon="4.64586">
        <ele>181.6</ele>
      </trkpt>
      <trkpt lat="44.81736" lon="4.64535">
        <ele>182.2</ele>
      </trkpt>
      <trkpt lat="44.81736" lon="4.64491">
        <ele>175.1</ele>
      </trkpt>
      <trkpt lat="44.81734" lon="4.64446">
        <ele>176.6</ele>
      </trkpt>
      <trkpt lat="44.8172" lon="4.64407">
        <ele>172.1</ele>
      </trkpt>
      <trkpt lat="44.81704" lon="4.64373">
        <ele>173.1</ele>
      </trkpt>
      <trkpt lat="44.81676" lon="4.64331">
        <ele>171.4</ele>
      </trkpt>
      <trkpt lat="44.81633" lon="4.64275">
        <ele>174.7</ele>
      </trkpt>
      <trkpt lat="44.81606" lon="4.64243">
        <ele>168.1</ele>
      </trkpt>
      <trkpt lat="44.81596" lon="4.64228">
        <ele>167.8</ele>
      </trkpt>
      <trkpt lat="44.81562" lon="4.64201">
        <ele>173.4</ele>
      </trkpt>
      <trkpt lat="44.81548" lon="4.64193">
        <ele>173.8</ele>
      </trkpt>
      <trkpt lat="44.8146" lon="4.6418">
        <ele>181</ele>
      </trkpt>
      <trkpt lat="44.81415" lon="4.64174">
        <ele>172.7</ele>
      </trkpt>
      <trkpt lat="44.81403" lon="4.64168">
        <ele>173.7</ele>
      </trkpt>
      <trkpt lat="44.81382" lon="4.64148">
        <ele>164.6</ele>
      </trkpt>
      <trkpt lat="44.81371" lon="4.64132">
        <ele>163.8</ele>
      </trkpt>
      <trkpt lat="44.81362" lon="4.64116">
        <ele>163.6</ele>
      </trkpt>
      <trkpt lat="44.81354" lon="4.64096">
        <ele>163.8</ele>
      </trkpt>
      <trkpt lat="44.81342" lon="4.64065">
        <ele>167.6</ele>
      </trkpt>
      <trkpt lat="44.81326" lon="4.64025">
        <ele>172.7</ele>
      </trkpt>
      <trkpt lat="44.81318" lon="4.64014">
        <ele>173.6</ele>
      </trkpt>
      <trkpt lat="44.8131" lon="4.64005">
        <ele>173.5</ele>
      </trkpt>
      <trkpt lat="44.81287" lon="4.63988">
        <ele>181.8</ele>
      </trkpt>
      <trkpt lat="44.81221" lon="4.63966">
        <ele>176.2</ele>
      </trkpt>
      <trkpt lat="44.81203" lon="4.63957">
        <ele>175.7</ele>
      </trkpt>
      <trkpt lat="44.81188" lon="4.63945">
        <ele>175.4</ele>
      </trkpt>
      <trkpt lat="44.81175" lon="4.63927">
        <ele>174.9</ele>
      </trkpt>
      <trkpt lat="44.81169" lon="4.63917">
        <ele>174.2</ele>
      </trkpt>
      <trkpt lat="44.8116" lon="4.63893">
        <ele>173.2</ele>
      </trkpt>
      <trkpt lat="44.81155" lon="4.63866">
        <ele>173.5</ele>
      </trkpt>
      <trkpt lat="44.81159" lon="4.63757">
        <ele>179.6</ele>
      </trkpt>
      <trkpt lat="44.81156" lon="4.63731">
        <ele>180.7</ele>
      </trkpt>
      <trkpt lat="44.81153" lon="4.63713">
        <ele>181</ele>
      </trkpt>
      <trkpt lat="44.81109" lon="4.6358">
        <ele>188</ele>
      </trkpt>
      <trkpt lat="44.81086" lon="4.6352">
        <ele>189.1</ele>
      </trkpt>
      <trkpt lat="44.81049" lon="4.63451">
        <ele>178.9</ele>
      </trkpt>
      <trkpt lat="44.81036" lon="4.63409">
        <ele>184</ele>
      </trkpt>
      <trkpt lat="44.81016" lon="4.63328">
        <ele>188.6</ele>
      </trkpt>
      <trkpt lat="44.81011" lon="4.63312">
        <ele>189.7</ele>
      </trkpt>
      <trkpt lat="44.80998" lon="4.63286">
        <ele>182</ele>
      </trkpt>
      <trkpt lat="44.80992" lon="4.63276">
        <ele>182.7</ele>
      </trkpt>
      <trkpt lat="44.80979" lon="4.6326">
        <ele>183</ele>
      </trkpt>
      <trkpt lat="44.80937" lon="4.63217">
        <ele>185.5</ele>
      </trkpt>
      <trkpt lat="44.80929" lon="4.63207">
        <ele>185.9</ele>
      </trkpt>
      <trkpt lat="44.8092" lon="4.63195">
        <ele>186.4</ele>
      </trkpt>
      <trkpt lat="44.80901" lon="4.63162">
        <ele>186.8</ele>
      </trkpt>
      <trkpt lat="44.8085" lon="4.63062">
        <ele>192.3</ele>
      </trkpt>
      <trkpt lat="44.80837" lon="4.63047">
        <ele>193</ele>
      </trkpt>
      <trkpt lat="44.80826" lon="4.63039">
        <ele>190</ele>
      </trkpt>
      <trkpt lat="44.8082" lon="4.63036">
        <ele>190.2</ele>
      </trkpt>
      <trkpt lat="44.80806" lon="4.63029">
        <ele>190.3</ele>
      </trkpt>
      <trkpt lat="44.80796" lon="4.63026">
        <ele>190.1</ele>
      </trkpt>
      <trkpt lat="44.8079" lon="4.63024">
        <ele>190.1</ele>
      </trkpt>
      <trkpt lat="44.80788" lon="4.63017">
        <ele>190.3</ele>
      </trkpt>
      <trkpt lat="44.80786" lon="4.63007">
        <ele>190.6</ele>
      </trkpt>
      <trkpt lat="44.80745" lon="4.62999">
        <ele>191.5</ele>
      </trkpt>
      <trkpt lat="44.80742" lon="4.62998">
        <ele>191.3</ele>
      </trkpt>
      <trkpt lat="44.80732" lon="4.62993">
        <ele>190.5</ele>
      </trkpt>
      <trkpt lat="44.80725" lon="4.62987">
        <ele>190</ele>
      </trkpt>
      <trkpt lat="44.80722" lon="4.62983">
        <ele>189.8</ele>
      </trkpt>
      <trkpt lat="44.80718" lon="4.62977">
        <ele>189.6</ele>
      </trkpt>
      <trkpt lat="44.80718" lon="4.62975">
        <ele>189.6</ele>
      </trkpt>
      <trkpt lat="44.80719" lon="4.62966">
        <ele>190</ele>
      </trkpt>
      <trkpt lat="44.80723" lon="4.62952">
        <ele>191.1</ele>
      </trkpt>
      <trkpt lat="44.80728" lon="4.62932">
        <ele>193.2</ele>
      </trkpt>
      <trkpt lat="44.80728" lon="4.62929">
        <ele>193.5</ele>
      </trkpt>
      <trkpt lat="44.80733" lon="4.62918">
        <ele>195.2</ele>
      </trkpt>
      <trkpt lat="44.80735" lon="4.62911">
        <ele>197.9</ele>
      </trkpt>
      <trkpt lat="44.80729" lon="4.62907">
        <ele>197</ele>
      </trkpt>
      <trkpt lat="44.80731" lon="4.62902">
        <ele>197.1</ele>
      </trkpt>
      <trkpt lat="44.80736" lon="4.62887">
        <ele>197.2</ele>
      </trkpt>
      <trkpt lat="44.80744" lon="4.62864">
        <ele>198.6</ele>
      </trkpt>
      <trkpt lat="44.8075" lon="4.62843">
        <ele>202.5</ele>
      </trkpt>
      <trkpt lat="44.80762" lon="4.62847">
        <ele>204.3</ele>
      </trkpt>
      <trkpt lat="44.80773" lon="4.62847">
        <ele>203.9</ele>
      </trkpt>
      <trkpt lat="44.80779" lon="4.62839">
        <ele>203.9</ele>
      </trkpt>
      <trkpt lat="44.80787" lon="4.62827">
        <ele>205.5</ele>
      </trkpt>
      <trkpt lat="44.80794" lon="4.62817">
        <ele>205.5</ele>
      </trkpt>
      <trkpt lat="44.80845" lon="4.62728">
        <ele>211.6</ele>
      </trkpt>
      <trkpt lat="44.80843" lon="4.62727">
        <ele>211.6</ele>
      </trkpt>
      <trkpt lat="44.8084" lon="4.62722">
        <ele>211.9</ele>
      </trkpt>
      <trkpt lat="44.80813" lon="4.62692">
        <ele>209.4</ele>
      </trkpt>
      <trkpt lat="44.80809" lon="4.62687">
        <ele>209.4</ele>
      </trkpt>
      <trkpt lat="44.808" lon="4.62676">
        <ele>209.1</ele>
      </trkpt>
      <trkpt lat="44.80792" lon="4.62657">
        <ele>211.2</ele>
      </trkpt>
      <trkpt lat="44.80787" lon="4.62634">
        <ele>211.4</ele>
      </trkpt>
      <trkpt lat="44.80787" lon="4.62631">
        <ele>211.5</ele>
      </trkpt>
      <trkpt lat="44.80786" lon="4.62623">
        <ele>211.7</ele>
      </trkpt>
      <trkpt lat="44.80783" lon="4.62603">
        <ele>212</ele>
      </trkpt>
      <trkpt lat="44.80782" lon="4.62593">
        <ele>212</ele>
      </trkpt>
      <trkpt lat="44.8078" lon="4.62582">
        <ele>215.3</ele>
      </trkpt>
      <trkpt lat="44.80774" lon="4.62569">
        <ele>215.1</ele>
      </trkpt>
      <trkpt lat="44.80764" lon="4.62555">
        <ele>215.3</ele>
      </trkpt>
      <trkpt lat="44.80761" lon="4.62553">
        <ele>215.4</ele>
      </trkpt>
      <trkpt lat="44.80748" lon="4.62541">
        <ele>209.3</ele>
      </trkpt>
      <trkpt lat="44.80738" lon="4.62526">
        <ele>210.3</ele>
      </trkpt>
      <trkpt lat="44.80733" lon="4.62516">
        <ele>211</ele>
      </trkpt>
      <trkpt lat="44.80722" lon="4.6249">
        <ele>215.9</ele>
      </trkpt>
      <trkpt lat="44.80721" lon="4.62486">
        <ele>216</ele>
      </trkpt>
      <trkpt lat="44.80718" lon="4.62478">
        <ele>216</ele>
      </trkpt>
      <trkpt lat="44.80714" lon="4.62472">
        <ele>216</ele>
      </trkpt>
      <trkpt lat="44.80716" lon="4.62467">
        <ele>216.4</ele>
      </trkpt>
      <trkpt lat="44.80715" lon="4.62456">
        <ele>216.9</ele>
      </trkpt>
      <trkpt lat="44.80731" lon="4.62433">
        <ele>220.7</ele>
      </trkpt>
      <trkpt lat="44.80743" lon="4.62404">
        <ele>226</ele>
      </trkpt>
      <trkpt lat="44.80753" lon="4.62373">
        <ele>236.8</ele>
      </trkpt>
      <trkpt lat="44.8076" lon="4.62367">
        <ele>237.3</ele>
      </trkpt>
      <trkpt lat="44.80764" lon="4.62352">
        <ele>237.3</ele>
      </trkpt>
      <trkpt lat="44.80806" lon="4.62317">
        <ele>246.4</ele>
      </trkpt>
      <trkpt lat="44.80816" lon="4.62315">
        <ele>248</ele>
      </trkpt>
      <trkpt lat="44.80829" lon="4.62312">
        <ele>249.3</ele>
      </trkpt>
      <trkpt lat="44.80832" lon="4.62311">
        <ele>249.4</ele>
      </trkpt>
      <trkpt lat="44.80839" lon="4.6231">
        <ele>259.3</ele>
      </trkpt>
      <trkpt lat="44.80852" lon="4.62311">
        <ele>260.1</ele>
      </trkpt>
      <trkpt lat="44.80862" lon="4.62308">
        <ele>261</ele>
      </trkpt>
      <trkpt lat="44.80867" lon="4.62302">
        <ele>261.5</ele>
      </trkpt>
      <trkpt lat="44.80881" lon="4.6229">
        <ele>262.8</ele>
      </trkpt>
      <trkpt lat="44.80889" lon="4.62288">
        <ele>263.5</ele>
      </trkpt>
      <trkpt lat="44.80894" lon="4.62288">
        <ele>263.9</ele>
      </trkpt>
      <trkpt lat="44.80892" lon="4.62276">
        <ele>264.2</ele>
      </trkpt>
      <trkpt lat="44.80902" lon="4.62246">
        <ele>266.3</ele>
      </trkpt>
      <trkpt lat="44.80909" lon="4.62235">
        <ele>266</ele>
      </trkpt>
      <trkpt lat="44.80913" lon="4.62231">
        <ele>265.5</ele>
      </trkpt>
      <trkpt lat="44.80917" lon="4.62228">
        <ele>272.1</ele>
      </trkpt>
      <trkpt lat="44.80927" lon="4.62223">
        <ele>272.2</ele>
      </trkpt>
      <trkpt lat="44.80943" lon="4.62219">
        <ele>272.8</ele>
      </trkpt>
      <trkpt lat="44.80952" lon="4.62216">
        <ele>273.3</ele>
      </trkpt>
      <trkpt lat="44.80955" lon="4.62215">
        <ele>273.5</ele>
      </trkpt>
      <trkpt lat="44.80961" lon="4.62214">
        <ele>273.9</ele>
      </trkpt>
      <trkpt lat="44.80975" lon="4.62213">
        <ele>274.9</ele>
      </trkpt>
      <trkpt lat="44.80983" lon="4.62209">
        <ele>275.3</ele>
      </trkpt>
      <trkpt lat="44.80988" lon="4.62203">
        <ele>275.4</ele>
      </trkpt>
      <trkpt lat="44.80992" lon="4.62192">
        <ele>275.7</ele>
      </trkpt>
      <trkpt lat="44.80992" lon="4.62187">
        <ele>276</ele>
      </trkpt>
      <trkpt lat="44.8099" lon="4.62182">
        <ele>276.1</ele>
      </trkpt>
      <trkpt lat="44.8098" lon="4.62175">
        <ele>275.3</ele>
      </trkpt>
      <trkpt lat="44.80972" lon="4.62165">
        <ele>272.6</ele>
      </trkpt>
      <trkpt lat="44.80959" lon="4.62144">
        <ele>270.4</ele>
      </trkpt>
      <trkpt lat="44.80957" lon="4.62127">
        <ele>270.1</ele>
      </trkpt>
      <trkpt lat="44.8096" lon="4.62112">
        <ele>270.5</ele>
      </trkpt>
      <trkpt lat="44.80971" lon="4.62101">
        <ele>272.9</ele>
      </trkpt>
      <trkpt lat="44.80974" lon="4.62094">
        <ele>274</ele>
      </trkpt>
      <trkpt lat="44.80973" lon="4.62082">
        <ele>275</ele>
      </trkpt>
      <trkpt lat="44.8096" lon="4.62063">
        <ele>271.5</ele>
      </trkpt>
      <trkpt lat="44.80958" lon="4.62041">
        <ele>271.4</ele>
      </trkpt>
      <trkpt lat="44.80954" lon="4.62028">
        <ele>270.8</ele>
      </trkpt>
      <trkpt lat="44.80927" lon="4.62009">
        <ele>263.2</ele>
      </trkpt>
      <trkpt lat="44.80921" lon="4.62">
        <ele>259.4</ele>
      </trkpt>
      <trkpt lat="44.8092" lon="4.6199">
        <ele>261.4</ele>
      </trkpt>
      <trkpt lat="44.80916" lon="4.6199">
        <ele>254.2</ele>
      </trkpt>
      <trkpt lat="44.80919" lon="4.61969">
        <ele>264.9</ele>
      </trkpt>
      <trkpt lat="44.80921" lon="4.61961">
        <ele>265.3</ele>
      </trkpt>
      <trkpt lat="44.80931" lon="4.6194">
        <ele>265.2</ele>
      </trkpt>
      <trkpt lat="44.80961" lon="4.61895">
        <ele>263.7</ele>
      </trkpt>
      <trkpt lat="44.80971" lon="4.61875">
        <ele>263.2</ele>
      </trkpt>
      <trkpt lat="44.80975" lon="4.61863">
        <ele>262.4</ele>
      </trkpt>
      <trkpt lat="44.80976" lon="4.61858">
        <ele>262.1</ele>
      </trkpt>
      <trkpt lat="44.8098" lon="4.6185">
        <ele>261.6</ele>
      </trkpt>
      <trkpt lat="44.80987" lon="4.61849">
        <ele>261.4</ele>
      </trkpt>
      <trkpt lat="44.81012" lon="4.61862">
        <ele>264.1</ele>
      </trkpt>
      <trkpt lat="44.81023" lon="4.61865">
        <ele>264.5</ele>
      </trkpt>
      <trkpt lat="44.81041" lon="4.61843">
        <ele>261.6</ele>
      </trkpt>
      <trkpt lat="44.81055" lon="4.61841">
        <ele>259.7</ele>
      </trkpt>
      <trkpt lat="44.81069" lon="4.61844">
        <ele>257.2</ele>
      </trkpt>
      <trkpt lat="44.81073" lon="4.61839">
        <ele>254.7</ele>
      </trkpt>
      <trkpt lat="44.81081" lon="4.6185">
        <ele>257.1</ele>
      </trkpt>
      <trkpt lat="44.81096" lon="4.6188">
        <ele>262.4</ele>
      </trkpt>
      <trkpt lat="44.81108" lon="4.61888">
        <ele>263.7</ele>
      </trkpt>
      <trkpt lat="44.8112" lon="4.6189">
        <ele>263.1</ele>
      </trkpt>
      <trkpt lat="44.81128" lon="4.61888">
        <ele>262.3</ele>
      </trkpt>
      <trkpt lat="44.81141" lon="4.6188">
        <ele>260.2</ele>
      </trkpt>
      <trkpt lat="44.81146" lon="4.61878">
        <ele>259.6</ele>
      </trkpt>
      <trkpt lat="44.81145" lon="4.61872">
        <ele>258</ele>
      </trkpt>
      <trkpt lat="44.81148" lon="4.61867">
        <ele>256.3</ele>
      </trkpt>
      <trkpt lat="44.81153" lon="4.61867">
        <ele>255.9</ele>
      </trkpt>
      <trkpt lat="44.81186" lon="4.61889">
        <ele>255.1</ele>
      </trkpt>
      <trkpt lat="44.81199" lon="4.61894">
        <ele>254.6</ele>
      </trkpt>
      <trkpt lat="44.81223" lon="4.61891">
        <ele>252.2</ele>
      </trkpt>
      <trkpt lat="44.81233" lon="4.61891">
        <ele>252.2</ele>
      </trkpt>
      <trkpt lat="44.81258" lon="4.61897">
        <ele>241.8</ele>
      </trkpt>
      <trkpt lat="44.81268" lon="4.61895">
        <ele>237.6</ele>
      </trkpt>
      <trkpt lat="44.81274" lon="4.61898">
        <ele>236.5</ele>
      </trkpt>
      <trkpt lat="44.81286" lon="4.61908">
        <ele>234</ele>
      </trkpt>
      <trkpt lat="44.81298" lon="4.6193">
        <ele>255.3</ele>
      </trkpt>
      <trkpt lat="44.81305" lon="4.61939">
        <ele>255</ele>
      </trkpt>
      <trkpt lat="44.81319" lon="4.61951">
        <ele>255.4</ele>
      </trkpt>
      <trkpt lat="44.81329" lon="4.61956">
        <ele>255.9</ele>
      </trkpt>
      <trkpt lat="44.81354" lon="4.61979">
        <ele>238.6</ele>
      </trkpt>
      <trkpt lat="44.81381" lon="4.61999">
        <ele>232.7</ele>
      </trkpt>
      <trkpt lat="44.81409" lon="4.62002">
        <ele>238.3</ele>
      </trkpt>
      <trkpt lat="44.81421" lon="4.62007">
        <ele>230.6</ele>
      </trkpt>
      <trkpt lat="44.81435" lon="4.62022">
        <ele>234.6</ele>
      </trkpt>
      <trkpt lat="44.81443" lon="4.62024">
        <ele>234.7</ele>
      </trkpt>
      <trkpt lat="44.81452" lon="4.62018">
        <ele>232.6</ele>
      </trkpt>
      <trkpt lat="44.81464" lon="4.62016">
        <ele>230.1</ele>
      </trkpt>
      <trkpt lat="44.81508" lon="4.62047">
        <ele>220.2</ele>
      </trkpt>
      <trkpt lat="44.81518" lon="4.6207">
        <ele>227.1</ele>
      </trkpt>
      <trkpt lat="44.81551" lon="4.62087">
        <ele>241.1</ele>
      </trkpt>
      <trkpt lat="44.81583" lon="4.62118">
        <ele>242.8</ele>
      </trkpt>
      <trkpt lat="44.81592" lon="4.62119">
        <ele>235.1</ele>
      </trkpt>
      <trkpt lat="44.81606" lon="4.62114">
        <ele>234.2</ele>
      </trkpt>
      <trkpt lat="44.81637" lon="4.62108">
        <ele>233.5</ele>
      </trkpt>
      <trkpt lat="44.81645" lon="4.62108">
        <ele>233.1</ele>
      </trkpt>
      <trkpt lat="44.81651" lon="4.62112">
        <ele>233.8</ele>
      </trkpt>
      <trkpt lat="44.81662" lon="4.62113">
        <ele>233.6</ele>
      </trkpt>
      <trkpt lat="44.81671" lon="4.62093">
        <ele>229.6</ele>
      </trkpt>
      <trkpt lat="44.81713" lon="4.62047">
        <ele>218.2</ele>
      </trkpt>
      <trkpt lat="44.81729" lon="4.62052">
        <ele>221.4</ele>
      </trkpt>
      <trkpt lat="44.81734" lon="4.62051">
        <ele>221.9</ele>
      </trkpt>
      <trkpt lat="44.81743" lon="4.62025">
        <ele>216.2</ele>
      </trkpt>
      <trkpt lat="44.81762" lon="4.61999">
        <ele>208.9</ele>
      </trkpt>
      <trkpt lat="44.81771" lon="4.61989">
        <ele>207.7</ele>
      </trkpt>
      <trkpt lat="44.81779" lon="4.61982">
        <ele>207</ele>
      </trkpt>
      <trkpt lat="44.81787" lon="4.61979">
        <ele>207</ele>
      </trkpt>
      <trkpt lat="44.81812" lon="4.61975">
        <ele>208.9</ele>
      </trkpt>
      <trkpt lat="44.81858" lon="4.61977">
        <ele>211.4</ele>
      </trkpt>
      <trkpt lat="44.81891" lon="4.61982">
        <ele>211.1</ele>
      </trkpt>
      <trkpt lat="44.81911" lon="4.6199">
        <ele>214.2</ele>
      </trkpt>
      <trkpt lat="44.81935" lon="4.61987">
        <ele>214.1</ele>
      </trkpt>
      <trkpt lat="44.81948" lon="4.61998">
        <ele>214.6</ele>
      </trkpt>
      <trkpt lat="44.81954" lon="4.62012">
        <ele>230.6</ele>
      </trkpt>
      <trkpt lat="44.8196" lon="4.62015">
        <ele>231.2</ele>
      </trkpt>
      <trkpt lat="44.81965" lon="4.62014">
        <ele>231.1</ele>
      </trkpt>
      <trkpt lat="44.81986" lon="4.6197">
        <ele>214.3</ele>
      </trkpt>
      <trkpt lat="44.82016" lon="4.61914">
        <ele>209.6</ele>
      </trkpt>
      <trkpt lat="44.82042" lon="4.61887">
        <ele>212.2</ele>
      </trkpt>
      <trkpt lat="44.82093" lon="4.61849">
        <ele>224.5</ele>
      </trkpt>
      <trkpt lat="44.82125" lon="4.61812">
        <ele>215.3</ele>
      </trkpt>
      <trkpt lat="44.82148" lon="4.6178">
        <ele>214.1</ele>
      </trkpt>
      <trkpt lat="44.82156" lon="4.61763">
        <ele>212.3</ele>
      </trkpt>
      <trkpt lat="44.82176" lon="4.61728">
        <ele>220.6</ele>
      </trkpt>
      <trkpt lat="44.82179" lon="4.61714">
        <ele>221.6</ele>
      </trkpt>
      <trkpt lat="44.82181" lon="4.61691">
        <ele>218.5</ele>
      </trkpt>
      <trkpt lat="44.82193" lon="4.61658">
        <ele>214.1</ele>
      </trkpt>
      <trkpt lat="44.82203" lon="4.61595">
        <ele>216</ele>
      </trkpt>
      <trkpt lat="44.82218" lon="4.61552">
        <ele>215.9</ele>
      </trkpt>
      <trkpt lat="44.82219" lon="4.6152">
        <ele>215.4</ele>
      </trkpt>
      <trkpt lat="44.82229" lon="4.6149">
        <ele>215.5</ele>
      </trkpt>
      <trkpt lat="44.82241" lon="4.61466">
        <ele>214.2</ele>
      </trkpt>
      <trkpt lat="44.82248" lon="4.61461">
        <ele>214.3</ele>
      </trkpt>
      <trkpt lat="44.82259" lon="4.61462">
        <ele>234</ele>
      </trkpt>
      <trkpt lat="44.82265" lon="4.61464">
        <ele>234.8</ele>
      </trkpt>
      <trkpt lat="44.8227" lon="4.61462">
        <ele>235.4</ele>
      </trkpt>
      <trkpt lat="44.82285" lon="4.61461">
        <ele>237.7</ele>
      </trkpt>
      <trkpt lat="44.82287" lon="4.61456">
        <ele>237.8</ele>
      </trkpt>
      <trkpt lat="44.82288" lon="4.61446">
        <ele>237.5</ele>
      </trkpt>
      <trkpt lat="44.82283" lon="4.61436">
        <ele>235.8</ele>
      </trkpt>
      <trkpt lat="44.82277" lon="4.61427">
        <ele>233.6</ele>
      </trkpt>
      <trkpt lat="44.82274" lon="4.61415">
        <ele>230.3</ele>
      </trkpt>
      <trkpt lat="44.82269" lon="4.61398">
        <ele>230.1</ele>
      </trkpt>
      <trkpt lat="44.82265" lon="4.6138">
        <ele>230.7</ele>
      </trkpt>
      <trkpt lat="44.82274" lon="4.61297">
        <ele>230.3</ele>
      </trkpt>
      <trkpt lat="44.82273" lon="4.6126">
        <ele>226.4</ele>
      </trkpt>
      <trkpt lat="44.82275" lon="4.61231">
        <ele>225</ele>
      </trkpt>
      <trkpt lat="44.82272" lon="4.61221">
        <ele>224.8</ele>
      </trkpt>
      <trkpt lat="44.8227" lon="4.61203">
        <ele>224.2</ele>
      </trkpt>
      <trkpt lat="44.82271" lon="4.61179">
        <ele>221.3</ele>
      </trkpt>
      <trkpt lat="44.82275" lon="4.61166">
        <ele>219.7</ele>
      </trkpt>
      <trkpt lat="44.82282" lon="4.61157">
        <ele>222.6</ele>
      </trkpt>
      <trkpt lat="44.82284" lon="4.6115">
        <ele>223.5</ele>
      </trkpt>
      <trkpt lat="44.82278" lon="4.61129">
        <ele>222.3</ele>
      </trkpt>
      <trkpt lat="44.82273" lon="4.61083">
        <ele>214.5</ele>
      </trkpt>
      <trkpt lat="44.82268" lon="4.61057">
        <ele>215</ele>
      </trkpt>
      <trkpt lat="44.82266" lon="4.61054">
        <ele>214.8</ele>
      </trkpt>
      <trkpt lat="44.82271" lon="4.61027">
        <ele>214.6</ele>
      </trkpt>
      <trkpt lat="44.82281" lon="4.60981">
        <ele>213.9</ele>
      </trkpt>
      <trkpt lat="44.82281" lon="4.60978">
        <ele>214.1</ele>
      </trkpt>
      <trkpt lat="44.82288" lon="4.60941">
        <ele>216</ele>
      </trkpt>
      <trkpt lat="44.8229" lon="4.60875">
        <ele>216.6</ele>
      </trkpt>
      <trkpt lat="44.82282" lon="4.60717">
        <ele>221.6</ele>
      </trkpt>
      <trkpt lat="44.82276" lon="4.60686">
        <ele>221.2</ele>
      </trkpt>
      <trkpt lat="44.82259" lon="4.60647">
        <ele>224.4</ele>
      </trkpt>
      <trkpt lat="44.82247" lon="4.6063">
        <ele>208.3</ele>
      </trkpt>
      <trkpt lat="44.82234" lon="4.60616">
        <ele>209.5</ele>
      </trkpt>
      <trkpt lat="44.82214" lon="4.60602">
        <ele>208.1</ele>
      </trkpt>
      <trkpt lat="44.8219" lon="4.60588">
        <ele>204.4</ele>
      </trkpt>
      <trkpt lat="44.82161" lon="4.60561">
        <ele>204.3</ele>
      </trkpt>
      <trkpt lat="44.82111" lon="4.60488">
        <ele>218.8</ele>
      </trkpt>
      <trkpt lat="44.82067" lon="4.60427">
        <ele>210.4</ele>
      </trkpt>
      <trkpt lat="44.81999" lon="4.60254">
        <ele>212.6</ele>
      </trkpt>
      <trkpt lat="44.81982" lon="4.60215">
        <ele>214.3</ele>
      </trkpt>
      <trkpt lat="44.81945" lon="4.60138">
        <ele>218.8</ele>
      </trkpt>
      <trkpt lat="44.81926" lon="4.60097">
        <ele>215.6</ele>
      </trkpt>
      <trkpt lat="44.81924" lon="4.6009">
        <ele>213.9</ele>
      </trkpt>
      <trkpt lat="44.81918" lon="4.60064">
        <ele>219.6</ele>
      </trkpt>
      <trkpt lat="44.8191" lon="4.60014">
        <ele>210.6</ele>
      </trkpt>
      <trkpt lat="44.81904" lon="4.5994">
        <ele>217.4</ele>
      </trkpt>
      <trkpt lat="44.819" lon="4.59915">
        <ele>223</ele>
      </trkpt>
      <trkpt lat="44.81889" lon="4.59876">
        <ele>220.6</ele>
      </trkpt>
      <trkpt lat="44.81877" lon="4.59843">
        <ele>219.6</ele>
      </trkpt>
      <trkpt lat="44.81872" lon="4.59823">
        <ele>219.4</ele>
      </trkpt>
      <trkpt lat="44.8187" lon="4.598">
        <ele>219.2</ele>
      </trkpt>
      <trkpt lat="44.81868" lon="4.59784">
        <ele>218.6</ele>
      </trkpt>
      <trkpt lat="44.8187" lon="4.59754">
        <ele>218.5</ele>
      </trkpt>
      <trkpt lat="44.81874" lon="4.59726">
        <ele>214</ele>
      </trkpt>
      <trkpt lat="44.81887" lon="4.59691">
        <ele>213.1</ele>
      </trkpt>
      <trkpt lat="44.81928" lon="4.59596">
        <ele>220.7</ele>
      </trkpt>
      <trkpt lat="44.81938" lon="4.59569">
        <ele>219.1</ele>
      </trkpt>
      <trkpt lat="44.81945" lon="4.59531">
        <ele>220.7</ele>
      </trkpt>
      <trkpt lat="44.81949" lon="4.595">
        <ele>214.9</ele>
      </trkpt>
      <trkpt lat="44.81954" lon="4.59468">
        <ele>216</ele>
      </trkpt>
      <trkpt lat="44.81961" lon="4.59432">
        <ele>216.1</ele>
      </trkpt>
      <trkpt lat="44.81993" lon="4.59335">
        <ele>213.1</ele>
      </trkpt>
      <trkpt lat="44.82025" lon="4.59234">
        <ele>216.6</ele>
      </trkpt>
      <trkpt lat="44.82042" lon="4.59168">
        <ele>218.4</ele>
      </trkpt>
      <trkpt lat="44.82061" lon="4.59056">
        <ele>215.6</ele>
      </trkpt>
      <trkpt lat="44.8207" lon="4.59013">
        <ele>215.3</ele>
      </trkpt>
      <trkpt lat="44.8212" lon="4.58843">
        <ele>217.9</ele>
      </trkpt>
      <trkpt lat="44.82134" lon="4.58812">
        <ele>214</ele>
      </trkpt>
      <trkpt lat="44.82149" lon="4.58791">
        <ele>213.4</ele>
      </trkpt>
      <trkpt lat="44.82201" lon="4.58729">
        <ele>217.5</ele>
      </trkpt>
      <trkpt lat="44.82274" lon="4.58631">
        <ele>226.1</ele>
      </trkpt>
      <trkpt lat="44.8229" lon="4.58599">
        <ele>226.2</ele>
      </trkpt>
      <trkpt lat="44.82306" lon="4.58558">
        <ele>221.3</ele>
      </trkpt>
      <trkpt lat="44.82313" lon="4.5854">
        <ele>220.8</ele>
      </trkpt>
      <trkpt lat="44.82332" lon="4.58491">
        <ele>220.3</ele>
      </trkpt>
      <trkpt lat="44.82344" lon="4.58432">
        <ele>229.2</ele>
      </trkpt>
      <trkpt lat="44.82348" lon="4.58383">
        <ele>230.7</ele>
      </trkpt>
      <trkpt lat="44.82347" lon="4.5837">
        <ele>230.7</ele>
      </trkpt>
      <trkpt lat="44.82338" lon="4.5834">
        <ele>223</ele>
      </trkpt>
      <trkpt lat="44.82335" lon="4.58329">
        <ele>220.9</ele>
      </trkpt>
      <trkpt lat="44.82331" lon="4.58269">
        <ele>215.4</ele>
      </trkpt>
      <trkpt lat="44.82328" lon="4.58225">
        <ele>216.6</ele>
      </trkpt>
      <trkpt lat="44.82324" lon="4.58221">
        <ele>216.5</ele>
      </trkpt>
      <trkpt lat="44.82321" lon="4.58205">
        <ele>216.8</ele>
      </trkpt>
      <trkpt lat="44.82319" lon="4.58194">
        <ele>217.4</ele>
      </trkpt>
      <trkpt lat="44.82319" lon="4.58171">
        <ele>219.3</ele>
      </trkpt>
      <trkpt lat="44.82325" lon="4.58133">
        <ele>217</ele>
      </trkpt>
      <trkpt lat="44.82334" lon="4.58095">
        <ele>224.3</ele>
      </trkpt>
      <trkpt lat="44.82343" lon="4.5807">
        <ele>221.4</ele>
      </trkpt>
      <trkpt lat="44.82373" lon="4.58023">
        <ele>224.7</ele>
      </trkpt>
      <trkpt lat="44.82437" lon="4.57951">
        <ele>228.3</ele>
      </trkpt>
      <trkpt lat="44.82454" lon="4.57926">
        <ele>227.6</ele>
      </trkpt>
      <trkpt lat="44.82472" lon="4.57901">
        <ele>220.9</ele>
      </trkpt>
      <trkpt lat="44.82494" lon="4.57873">
        <ele>219.8</ele>
      </trkpt>
      <trkpt lat="44.82508" lon="4.57862">
        <ele>225.8</ele>
      </trkpt>
      <trkpt lat="44.82523" lon="4.57852">
        <ele>226</ele>
      </trkpt>
      <trkpt lat="44.82578" lon="4.57825">
        <ele>225</ele>
      </trkpt>
      <trkpt lat="44.82603" lon="4.5782">
        <ele>224.5</ele>
      </trkpt>
      <trkpt lat="44.82676" lon="4.57815">
        <ele>227</ele>
      </trkpt>
      <trkpt lat="44.82691" lon="4.57812">
        <ele>227.1</ele>
      </trkpt>
      <trkpt lat="44.82698" lon="4.57808">
        <ele>227.1</ele>
      </trkpt>
      <trkpt lat="44.82717" lon="4.57799">
        <ele>227.2</ele>
      </trkpt>
      <trkpt lat="44.8285" lon="4.57734">
        <ele>226.8</ele>
      </trkpt>
      <trkpt lat="44.82877" lon="4.57724">
        <ele>227.5</ele>
      </trkpt>
      <trkpt lat="44.82877" lon="4.57724">
        <ele>227.5</ele>
      </trkpt>
      <trkpt lat="44.82878" lon="4.57723">
        <ele>227.5</ele>
      </trkpt>
      <trkpt lat="44.82936" lon="4.5771">
        <ele>232.6</ele>
      </trkpt>
      <trkpt lat="44.83067" lon="4.57667">
        <ele>233.6</ele>
      </trkpt>
      <trkpt lat="44.83091" lon="4.57661">
        <ele>228.6</ele>
      </trkpt>
      <trkpt lat="44.83139" lon="4.57657">
        <ele>232.2</ele>
      </trkpt>
      <trkpt lat="44.83163" lon="4.5766">
        <ele>233.4</ele>
      </trkpt>
      <trkpt lat="44.83318" lon="4.57719">
        <ele>235.2</ele>
      </trkpt>
      <trkpt lat="44.83344" lon="4.57736">
        <ele>233.9</ele>
      </trkpt>
      <trkpt lat="44.83367" lon="4.57756">
        <ele>243.1</ele>
      </trkpt>
      <trkpt lat="44.83415" lon="4.57791">
        <ele>243.2</ele>
      </trkpt>
      <trkpt lat="44.83505" lon="4.57839">
        <ele>239</ele>
      </trkpt>
      <trkpt lat="44.83594" lon="4.57893">
        <ele>249.1</ele>
      </trkpt>
      <trkpt lat="44.83692" lon="4.57943">
        <ele>259.4</ele>
      </trkpt>
      <trkpt lat="44.83705" lon="4.57946">
        <ele>259.9</ele>
      </trkpt>
      <trkpt lat="44.83726" lon="4.57944">
        <ele>258.3</ele>
      </trkpt>
      <trkpt lat="44.83738" lon="4.5794">
        <ele>256.1</ele>
      </trkpt>
      <trkpt lat="44.83759" lon="4.57926">
        <ele>255.4</ele>
      </trkpt>
      <trkpt lat="44.83772" lon="4.57914">
        <ele>247</ele>
      </trkpt>
      <trkpt lat="44.83783" lon="4.57895">
        <ele>247.7</ele>
      </trkpt>
      <trkpt lat="44.83821" lon="4.57817">
        <ele>240.2</ele>
      </trkpt>
      <trkpt lat="44.83826" lon="4.57801">
        <ele>239.6</ele>
      </trkpt>
      <trkpt lat="44.83833" lon="4.57775">
        <ele>240</ele>
      </trkpt>
      <trkpt lat="44.83836" lon="4.5775">
        <ele>245.6</ele>
      </trkpt>
      <trkpt lat="44.83836" lon="4.57724">
        <ele>257.4</ele>
      </trkpt>
      <trkpt lat="44.83833" lon="4.57702">
        <ele>242.9</ele>
      </trkpt>
      <trkpt lat="44.83817" lon="4.57627">
        <ele>245.7</ele>
      </trkpt>
      <trkpt lat="44.83813" lon="4.57603">
        <ele>246.6</ele>
      </trkpt>
      <trkpt lat="44.83813" lon="4.5758">
        <ele>246.2</ele>
      </trkpt>
      <trkpt lat="44.83817" lon="4.57553">
        <ele>244.4</ele>
      </trkpt>
      <trkpt lat="44.83825" lon="4.57528">
        <ele>243.4</ele>
      </trkpt>
      <trkpt lat="44.83836" lon="4.57511">
        <ele>248.9</ele>
      </trkpt>
      <trkpt lat="44.8385" lon="4.57494">
        <ele>243</ele>
      </trkpt>
      <trkpt lat="44.83869" lon="4.57476">
        <ele>242.4</ele>
      </trkpt>
      <trkpt lat="44.8388" lon="4.57471">
        <ele>242.6</ele>
      </trkpt>
      <trkpt lat="44.83901" lon="4.57466">
        <ele>243.1</ele>
      </trkpt>
      <trkpt lat="44.83919" lon="4.57467">
        <ele>246.3</ele>
      </trkpt>
      <trkpt lat="44.83926" lon="4.57469">
        <ele>246.6</ele>
      </trkpt>
      <trkpt lat="44.83953" lon="4.57482">
        <ele>247.5</ele>
      </trkpt>
      <trkpt lat="44.8399" lon="4.57504">
        <ele>258</ele>
      </trkpt>
      <trkpt lat="44.84014" lon="4.57518">
        <ele>258.9</ele>
      </trkpt>
      <trkpt lat="44.8403" lon="4.57526">
        <ele>260.4</ele>
      </trkpt>
      <trkpt lat="44.84058" lon="4.57532">
        <ele>259.8</ele>
      </trkpt>
      <trkpt lat="44.84085" lon="4.57528">
        <ele>259.8</ele>
      </trkpt>
      <trkpt lat="44.84099" lon="4.57521">
        <ele>259</ele>
      </trkpt>
      <trkpt lat="44.84139" lon="4.57494">
        <ele>248.2</ele>
      </trkpt>
      <trkpt lat="44.84164" lon="4.57474">
        <ele>248.1</ele>
      </trkpt>
      <trkpt lat="44.84194" lon="4.57439">
        <ele>252.6</ele>
      </trkpt>
      <trkpt lat="44.84264" lon="4.57331">
        <ele>241.9</ele>
      </trkpt>
      <trkpt lat="44.8428" lon="4.57315">
        <ele>243.5</ele>
      </trkpt>
      <trkpt lat="44.84318" lon="4.57285">
        <ele>244</ele>
      </trkpt>
      <trkpt lat="44.84336" lon="4.57274">
        <ele>249.8</ele>
      </trkpt>
      <trkpt lat="44.84371" lon="4.57249">
        <ele>242.9</ele>
      </trkpt>
      <trkpt lat="44.84409" lon="4.57222">
        <ele>245</ele>
      </trkpt>
      <trkpt lat="44.84442" lon="4.57192">
        <ele>244</ele>
      </trkpt>
      <trkpt lat="44.84453" lon="4.57174">
        <ele>242.8</ele>
      </trkpt>
      <trkpt lat="44.84491" lon="4.5712">
        <ele>240.2</ele>
      </trkpt>
      <trkpt lat="44.8451" lon="4.57088">
        <ele>241.6</ele>
      </trkpt>
      <trkpt lat="44.84531" lon="4.57064">
        <ele>255.8</ele>
      </trkpt>
      <trkpt lat="44.84541" lon="4.57058">
        <ele>257.2</ele>
      </trkpt>
      <trkpt lat="44.84559" lon="4.57054">
        <ele>257.4</ele>
      </trkpt>
      <trkpt lat="44.84623" lon="4.57052">
        <ele>255.2</ele>
      </trkpt>
      <trkpt lat="44.84649" lon="4.57047">
        <ele>255.3</ele>
      </trkpt>
      <trkpt lat="44.84669" lon="4.57039">
        <ele>253.9</ele>
      </trkpt>
      <trkpt lat="44.84818" lon="4.56962">
        <ele>256.3</ele>
      </trkpt>
      <trkpt lat="44.84859" lon="4.56945">
        <ele>254.2</ele>
      </trkpt>
      <trkpt lat="44.84885" lon="4.56929">
        <ele>255.3</ele>
      </trkpt>
      <trkpt lat="44.84914" lon="4.56921">
        <ele>258.7</ele>
      </trkpt>
      <trkpt lat="44.84938" lon="4.56925">
        <ele>256.6</ele>
      </trkpt>
      <trkpt lat="44.85001" lon="4.56967">
        <ele>253.8</ele>
      </trkpt>
      <trkpt lat="44.85017" lon="4.56976">
        <ele>253.1</ele>
      </trkpt>
      <trkpt lat="44.85029" lon="4.56981">
        <ele>253.3</ele>
      </trkpt>
      <trkpt lat="44.85039" lon="4.56982">
        <ele>253.6</ele>
      </trkpt>
      <trkpt lat="44.85053" lon="4.56983">
        <ele>253.7</ele>
      </trkpt>
      <trkpt lat="44.85084" lon="4.56974">
        <ele>252.5</ele>
      </trkpt>
      <trkpt lat="44.85109" lon="4.56954">
        <ele>253.7</ele>
      </trkpt>
      <trkpt lat="44.85211" lon="4.56832">
        <ele>260.7</ele>
      </trkpt>
      <trkpt lat="44.85224" lon="4.56813">
        <ele>259.7</ele>
      </trkpt>
      <trkpt lat="44.85232" lon="4.56795">
        <ele>260.2</ele>
      </trkpt>
      <trkpt lat="44.85246" lon="4.56757">
        <ele>259.1</ele>
      </trkpt>
      <trkpt lat="44.85253" lon="4.56718">
        <ele>257.2</ele>
      </trkpt>
      <trkpt lat="44.85254" lon="4.56693">
        <ele>257.6</ele>
      </trkpt>
      <trkpt lat="44.85246" lon="4.5659">
        <ele>267.4</ele>
      </trkpt>
      <trkpt lat="44.85246" lon="4.5658">
        <ele>266.6</ele>
      </trkpt>
      <trkpt lat="44.85249" lon="4.56557">
        <ele>271.1</ele>
      </trkpt>
      <trkpt lat="44.85256" lon="4.56537">
        <ele>258.5</ele>
      </trkpt>
      <trkpt lat="44.85261" lon="4.56525">
        <ele>257.7</ele>
      </trkpt>
      <trkpt lat="44.85298" lon="4.56463">
        <ele>259.8</ele>
      </trkpt>
      <trkpt lat="44.85306" lon="4.56448">
        <ele>260.8</ele>
      </trkpt>
      <trkpt lat="44.85311" lon="4.56431">
        <ele>262.4</ele>
      </trkpt>
      <trkpt lat="44.85313" lon="4.56425">
        <ele>263.2</ele>
      </trkpt>
      <trkpt lat="44.85317" lon="4.56391">
        <ele>263.4</ele>
      </trkpt>
      <trkpt lat="44.8532" lon="4.5636">
        <ele>264.1</ele>
      </trkpt>
      <trkpt lat="44.85322" lon="4.56323">
        <ele>265.4</ele>
      </trkpt>
      <trkpt lat="44.85324" lon="4.56309">
        <ele>263.1</ele>
      </trkpt>
      <trkpt lat="44.85327" lon="4.56296">
        <ele>261.5</ele>
      </trkpt>
      <trkpt lat="44.85333" lon="4.56282">
        <ele>260.7</ele>
      </trkpt>
      <trkpt lat="44.85344" lon="4.5626">
        <ele>267.3</ele>
      </trkpt>
      <trkpt lat="44.85351" lon="4.5625">
        <ele>263.3</ele>
      </trkpt>
      <trkpt lat="44.85374" lon="4.56232">
        <ele>260.7</ele>
      </trkpt>
      <trkpt lat="44.85389" lon="4.56225">
        <ele>261.3</ele>
      </trkpt>
      <trkpt lat="44.85413" lon="4.56222">
        <ele>262.5</ele>
      </trkpt>
      <trkpt lat="44.85444" lon="4.5623">
        <ele>265.9</ele>
      </trkpt>
      <trkpt lat="44.8549" lon="4.56249">
        <ele>267.1</ele>
      </trkpt>
      <trkpt lat="44.8551" lon="4.56259">
        <ele>273.9</ele>
      </trkpt>
      <trkpt lat="44.85564" lon="4.563">
        <ele>282.7</ele>
      </trkpt>
      <trkpt lat="44.85584" lon="4.56309">
        <ele>282.2</ele>
      </trkpt>
      <trkpt lat="44.85607" lon="4.56314">
        <ele>281.8</ele>
      </trkpt>
      <trkpt lat="44.85626" lon="4.56314">
        <ele>280.9</ele>
      </trkpt>
      <trkpt lat="44.85643" lon="4.56308">
        <ele>280.5</ele>
      </trkpt>
      <trkpt lat="44.85655" lon="4.56301">
        <ele>279.6</ele>
      </trkpt>
      <trkpt lat="44.85674" lon="4.56283">
        <ele>285.3</ele>
      </trkpt>
      <trkpt lat="44.85694" lon="4.56249">
        <ele>274.3</ele>
      </trkpt>
      <trkpt lat="44.85715" lon="4.56206">
        <ele>276.9</ele>
      </trkpt>
      <trkpt lat="44.85727" lon="4.56184">
        <ele>276.7</ele>
      </trkpt>
      <trkpt lat="44.85744" lon="4.56165">
        <ele>276.3</ele>
      </trkpt>
      <trkpt lat="44.85776" lon="4.56149">
        <ele>275</ele>
      </trkpt>
      <trkpt lat="44.85793" lon="4.56144">
        <ele>275.3</ele>
      </trkpt>
      <trkpt lat="44.85805" lon="4.56143">
        <ele>276</ele>
      </trkpt>
      <trkpt lat="44.85827" lon="4.56151">
        <ele>279.6</ele>
      </trkpt>
      <trkpt lat="44.85836" lon="4.56158">
        <ele>280.5</ele>
      </trkpt>
      <trkpt lat="44.85851" lon="4.56175">
        <ele>282.3</ele>
      </trkpt>
      <trkpt lat="44.85862" lon="4.56193">
        <ele>280.7</ele>
      </trkpt>
      <trkpt lat="44.85869" lon="4.56209">
        <ele>280.5</ele>
      </trkpt>
      <trkpt lat="44.85879" lon="4.56256">
        <ele>284.8</ele>
      </trkpt>
      <trkpt lat="44.85882" lon="4.56349">
        <ele>290</ele>
      </trkpt>
      <trkpt lat="44.85888" lon="4.56379">
        <ele>290.1</ele>
      </trkpt>
      <trkpt lat="44.85895" lon="4.56405">
        <ele>286.3</ele>
      </trkpt>
      <trkpt lat="44.85904" lon="4.56428">
        <ele>290.2</ele>
      </trkpt>
      <trkpt lat="44.85946" lon="4.56503">
        <ele>292.1</ele>
      </trkpt>
      <trkpt lat="44.85963" lon="4.56525">
        <ele>290.5</ele>
      </trkpt>
      <trkpt lat="44.8598" lon="4.56545">
        <ele>290.6</ele>
      </trkpt>
      <trkpt lat="44.86121" lon="4.56657">
        <ele>281.1</ele>
      </trkpt>
      <trkpt lat="44.86225" lon="4.56742">
        <ele>287.2</ele>
      </trkpt>
      <trkpt lat="44.86245" lon="4.56756">
        <ele>291.9</ele>
      </trkpt>
      <trkpt lat="44.8627" lon="4.56769">
        <ele>296.9</ele>
      </trkpt>
      <trkpt lat="44.86284" lon="4.56775">
        <ele>299.1</ele>
      </trkpt>
      <trkpt lat="44.86299" lon="4.56778">
        <ele>299.7</ele>
      </trkpt>
      <trkpt lat="44.86318" lon="4.56778">
        <ele>298.4</ele>
      </trkpt>
      <trkpt lat="44.86333" lon="4.56775">
        <ele>296.2</ele>
      </trkpt>
      <trkpt lat="44.86357" lon="4.56763">
        <ele>306.2</ele>
      </trkpt>
      <trkpt lat="44.86373" lon="4.5675">
        <ele>290.1</ele>
      </trkpt>
      <trkpt lat="44.86387" lon="4.56732">
        <ele>292.5</ele>
      </trkpt>
      <trkpt lat="44.86402" lon="4.56708">
        <ele>290.6</ele>
      </trkpt>
      <trkpt lat="44.86412" lon="4.56678">
        <ele>286.9</ele>
      </trkpt>
      <trkpt lat="44.86425" lon="4.56635">
        <ele>291.5</ele>
      </trkpt>
      <trkpt lat="44.86433" lon="4.56606">
        <ele>290.2</ele>
      </trkpt>
      <trkpt lat="44.86436" lon="4.56586">
        <ele>288.5</ele>
      </trkpt>
      <trkpt lat="44.86437" lon="4.56567">
        <ele>289.7</ele>
      </trkpt>
      <trkpt lat="44.86436" lon="4.5655">
        <ele>291.2</ele>
      </trkpt>
      <trkpt lat="44.86425" lon="4.56496">
        <ele>289.1</ele>
      </trkpt>
      <trkpt lat="44.86403" lon="4.56409">
        <ele>285.8</ele>
      </trkpt>
      <trkpt lat="44.86391" lon="4.56358">
        <ele>284.6</ele>
      </trkpt>
      <trkpt lat="44.86387" lon="4.56321">
        <ele>284.9</ele>
      </trkpt>
      <trkpt lat="44.86386" lon="4.56295">
        <ele>284</ele>
      </trkpt>
      <trkpt lat="44.864" lon="4.56178">
        <ele>284.8</ele>
      </trkpt>
      <trkpt lat="44.86399" lon="4.56137">
        <ele>288.6</ele>
      </trkpt>
      <trkpt lat="44.86393" lon="4.56072">
        <ele>297.5</ele>
      </trkpt>
      <trkpt lat="44.86395" lon="4.56031">
        <ele>298.8</ele>
      </trkpt>
      <trkpt lat="44.86421" lon="4.55859">
        <ele>313.5</ele>
      </trkpt>
      <trkpt lat="44.86422" lon="4.55821">
        <ele>304.4</ele>
      </trkpt>
      <trkpt lat="44.86421" lon="4.55804">
        <ele>311.4</ele>
      </trkpt>
      <trkpt lat="44.86414" lon="4.55759">
        <ele>298.2</ele>
      </trkpt>
      <trkpt lat="44.86403" lon="4.55705">
        <ele>298.6</ele>
      </trkpt>
      <trkpt lat="44.86371" lon="4.55606">
        <ele>296.6</ele>
      </trkpt>
      <trkpt lat="44.86365" lon="4.55584">
        <ele>294.4</ele>
      </trkpt>
      <trkpt lat="44.8636" lon="4.55531">
        <ele>294.2</ele>
      </trkpt>
      <trkpt lat="44.8636" lon="4.55494">
        <ele>289.8</ele>
      </trkpt>
      <trkpt lat="44.86365" lon="4.55455">
        <ele>291.1</ele>
      </trkpt>
      <trkpt lat="44.86377" lon="4.55416">
        <ele>288.7</ele>
      </trkpt>
      <trkpt lat="44.86383" lon="4.55402">
        <ele>289.5</ele>
      </trkpt>
      <trkpt lat="44.86397" lon="4.5538">
        <ele>289.7</ele>
      </trkpt>
      <trkpt lat="44.8641" lon="4.55361">
        <ele>288.7</ele>
      </trkpt>
      <trkpt lat="44.86424" lon="4.55348">
        <ele>293.3</ele>
      </trkpt>
      <trkpt lat="44.86441" lon="4.55336">
        <ele>294.7</ele>
      </trkpt>
      <trkpt lat="44.86456" lon="4.55328">
        <ele>287</ele>
      </trkpt>
      <trkpt lat="44.86473" lon="4.55325">
        <ele>288</ele>
      </trkpt>
      <trkpt lat="44.86487" lon="4.55325">
        <ele>289.8</ele>
      </trkpt>
      <trkpt lat="44.865" lon="4.5533">
        <ele>293.1</ele>
      </trkpt>
      <trkpt lat="44.86516" lon="4.55337">
        <ele>295.4</ele>
      </trkpt>
      <trkpt lat="44.8653" lon="4.55347">
        <ele>295.6</ele>
      </trkpt>
      <trkpt lat="44.86569" lon="4.55394">
        <ele>295.7</ele>
      </trkpt>
      <trkpt lat="44.86656" lon="4.55505">
        <ele>312.3</ele>
      </trkpt>
      <trkpt lat="44.86682" lon="4.55533">
        <ele>308.7</ele>
      </trkpt>
      <trkpt lat="44.86701" lon="4.55546">
        <ele>310.3</ele>
      </trkpt>
      <trkpt lat="44.86717" lon="4.55552">
        <ele>309.8</ele>
      </trkpt>
      <trkpt lat="44.86733" lon="4.55555">
        <ele>309.4</ele>
      </trkpt>
      <trkpt lat="44.86793" lon="4.55556">
        <ele>305.8</ele>
      </trkpt>
      <trkpt lat="44.86813" lon="4.55554">
        <ele>306.8</ele>
      </trkpt>
      <trkpt lat="44.86817" lon="4.55553">
        <ele>306.9</ele>
      </trkpt>
      <trkpt lat="44.86822" lon="4.55552">
        <ele>306.9</ele>
      </trkpt>
      <trkpt lat="44.86842" lon="4.55538">
        <ele>316.3</ele>
      </trkpt>
      <trkpt lat="44.86864" lon="4.55516">
        <ele>315.1</ele>
      </trkpt>
      <trkpt lat="44.86942" lon="4.55398">
        <ele>307</ele>
      </trkpt>
      <trkpt lat="44.8697" lon="4.55362">
        <ele>307.2</ele>
      </trkpt>
      <trkpt lat="44.86982" lon="4.5535">
        <ele>305.1</ele>
      </trkpt>
      <trkpt lat="44.87" lon="4.55336">
        <ele>299.2</ele>
      </trkpt>
      <trkpt lat="44.87027" lon="4.5532">
        <ele>305.7</ele>
      </trkpt>
      <trkpt lat="44.8706" lon="4.55306">
        <ele>310.7</ele>
      </trkpt>
      <trkpt lat="44.87088" lon="4.55291">
        <ele>323.3</ele>
      </trkpt>
      <trkpt lat="44.87102" lon="4.5528">
        <ele>322.2</ele>
      </trkpt>
      <trkpt lat="44.87113" lon="4.55269">
        <ele>322.1</ele>
      </trkpt>
      <trkpt lat="44.87127" lon="4.55249">
        <ele>310.7</ele>
      </trkpt>
      <trkpt lat="44.87135" lon="4.55234">
        <ele>311.6</ele>
      </trkpt>
      <trkpt lat="44.87187" lon="4.55129">
        <ele>309.7</ele>
      </trkpt>
      <trkpt lat="44.87192" lon="4.55119">
        <ele>309.6</ele>
      </trkpt>
      <trkpt lat="44.87203" lon="4.55093">
        <ele>309.2</ele>
      </trkpt>
      <trkpt lat="44.87214" lon="4.5507">
        <ele>304.1</ele>
      </trkpt>
      <trkpt lat="44.87238" lon="4.55034">
        <ele>303.4</ele>
      </trkpt>
      <trkpt lat="44.8725" lon="4.55021">
        <ele>307.6</ele>
      </trkpt>
      <trkpt lat="44.87263" lon="4.55008">
        <ele>306.5</ele>
      </trkpt>
      <trkpt lat="44.8729" lon="4.54989">
        <ele>302.1</ele>
      </trkpt>
      <trkpt lat="44.87315" lon="4.54978">
        <ele>303.4</ele>
      </trkpt>
      <trkpt lat="44.8735" lon="4.54962">
        <ele>309.2</ele>
      </trkpt>
      <trkpt lat="44.8737" lon="4.54953">
        <ele>310</ele>
      </trkpt>
      <trkpt lat="44.8738" lon="4.54945">
        <ele>310.4</ele>
      </trkpt>
      <trkpt lat="44.87398" lon="4.54927">
        <ele>311.4</ele>
      </trkpt>
      <trkpt lat="44.87415" lon="4.54901">
        <ele>308</ele>
      </trkpt>
      <trkpt lat="44.87465" lon="4.54816">
        <ele>321.9</ele>
      </trkpt>
      <trkpt lat="44.87475" lon="4.54795">
        <ele>321.9</ele>
      </trkpt>
      <trkpt lat="44.87517" lon="4.54672">
        <ele>330.7</ele>
      </trkpt>
      <trkpt lat="44.87524" lon="4.54642">
        <ele>331.8</ele>
      </trkpt>
      <trkpt lat="44.87527" lon="4.54621">
        <ele>333</ele>
      </trkpt>
      <trkpt lat="44.87525" lon="4.54585">
        <ele>328.6</ele>
      </trkpt>
      <trkpt lat="44.87515" lon="4.54514">
        <ele>326.7</ele>
      </trkpt>
      <trkpt lat="44.87474" lon="4.54339">
        <ele>317.4</ele>
      </trkpt>
      <trkpt lat="44.8745" lon="4.54219">
        <ele>316.6</ele>
      </trkpt>
      <trkpt lat="44.87449" lon="4.542">
        <ele>317</ele>
      </trkpt>
      <trkpt lat="44.87452" lon="4.54148">
        <ele>318.1</ele>
      </trkpt>
      <trkpt lat="44.8746" lon="4.54089">
        <ele>318.4</ele>
      </trkpt>
      <trkpt lat="44.87468" lon="4.54055">
        <ele>314.8</ele>
      </trkpt>
      <trkpt lat="44.87479" lon="4.54021">
        <ele>313.4</ele>
      </trkpt>
      <trkpt lat="44.87488" lon="4.54005">
        <ele>313.1</ele>
      </trkpt>
      <trkpt lat="44.87498" lon="4.53993">
        <ele>311.1</ele>
      </trkpt>
      <trkpt lat="44.87504" lon="4.53982">
        <ele>314.4</ele>
      </trkpt>
      <trkpt lat="44.87519" lon="4.5397">
        <ele>315</ele>
      </trkpt>
      <trkpt lat="44.87564" lon="4.53945">
        <ele>316.7</ele>
      </trkpt>
      <trkpt lat="44.87586" lon="4.5393">
        <ele>327</ele>
      </trkpt>
      <trkpt lat="44.87607" lon="4.53908">
        <ele>322.2</ele>
      </trkpt>
      <trkpt lat="44.87721" lon="4.53762">
        <ele>331.2</ele>
      </trkpt>
      <trkpt lat="44.87769" lon="4.53704">
        <ele>335.6</ele>
      </trkpt>
      <trkpt lat="44.8778" lon="4.53689">
        <ele>335.5</ele>
      </trkpt>
      <trkpt lat="44.87789" lon="4.53669">
        <ele>336.3</ele>
      </trkpt>
      <trkpt lat="44.87828" lon="4.53554">
        <ele>329.1</ele>
      </trkpt>
      <trkpt lat="44.87847" lon="4.53465">
        <ele>338.5</ele>
      </trkpt>
      <trkpt lat="44.87895" lon="4.53194">
        <ele>329.5</ele>
      </trkpt>
      <trkpt lat="44.87917" lon="4.53157">
        <ele>329.2</ele>
      </trkpt>
      <trkpt lat="44.87943" lon="4.53133">
        <ele>330.8</ele>
      </trkpt>
      <trkpt lat="44.87963" lon="4.53125">
        <ele>331.9</ele>
      </trkpt>
      <trkpt lat="44.87982" lon="4.53124">
        <ele>333.4</ele>
      </trkpt>
      <trkpt lat="44.88003" lon="4.53128">
        <ele>339</ele>
      </trkpt>
      <trkpt lat="44.88032" lon="4.53149">
        <ele>340.8</ele>
      </trkpt>
      <trkpt lat="44.88075" lon="4.53202">
        <ele>359.3</ele>
      </trkpt>
      <trkpt lat="44.88094" lon="4.53213">
        <ele>352.5</ele>
      </trkpt>
      <trkpt lat="44.88114" lon="4.53219">
        <ele>351.3</ele>
      </trkpt>
      <trkpt lat="44.8814" lon="4.53218">
        <ele>347.1</ele>
      </trkpt>
      <trkpt lat="44.88157" lon="4.53208">
        <ele>344</ele>
      </trkpt>
      <trkpt lat="44.88174" lon="4.53195">
        <ele>343.6</ele>
      </trkpt>
      <trkpt lat="44.88187" lon="4.53179">
        <ele>342.9</ele>
      </trkpt>
      <trkpt lat="44.882" lon="4.53153">
        <ele>342.6</ele>
      </trkpt>
      <trkpt lat="44.88257" lon="4.52943">
        <ele>349.7</ele>
      </trkpt>
      <trkpt lat="44.88343" lon="4.52722">
        <ele>358.5</ele>
      </trkpt>
      <trkpt lat="44.88351" lon="4.52693">
        <ele>357.8</ele>
      </trkpt>
      <trkpt lat="44.88355" lon="4.52657">
        <ele>352.9</ele>
      </trkpt>
      <trkpt lat="44.88356" lon="4.52616">
        <ele>356.9</ele>
      </trkpt>
      <trkpt lat="44.88351" lon="4.52583">
        <ele>354.3</ele>
      </trkpt>
      <trkpt lat="44.88342" lon="4.5255">
        <ele>360.6</ele>
      </trkpt>
      <trkpt lat="44.88331" lon="4.52524">
        <ele>343.6</ele>
      </trkpt>
      <trkpt lat="44.88312" lon="4.52496">
        <ele>351.5</ele>
      </trkpt>
      <trkpt lat="44.88297" lon="4.52479">
        <ele>351.3</ele>
      </trkpt>
      <trkpt lat="44.8828" lon="4.52467">
        <ele>350.3</ele>
      </trkpt>
      <trkpt lat="44.88253" lon="4.52454">
        <ele>349.3</ele>
      </trkpt>
      <trkpt lat="44.88199" lon="4.52433">
        <ele>336.8</ele>
      </trkpt>
      <trkpt lat="44.88181" lon="4.52421">
        <ele>336.6</ele>
      </trkpt>
      <trkpt lat="44.88168" lon="4.52408">
        <ele>341.9</ele>
      </trkpt>
      <trkpt lat="44.88158" lon="4.52395">
        <ele>336.9</ele>
      </trkpt>
      <trkpt lat="44.88148" lon="4.52382">
        <ele>337.1</ele>
      </trkpt>
      <trkpt lat="44.88142" lon="4.52366">
        <ele>337.9</ele>
      </trkpt>
      <trkpt lat="44.88141" lon="4.52363">
        <ele>338.1</ele>
      </trkpt>
      <trkpt lat="44.88137" lon="4.52345">
        <ele>339.1</ele>
      </trkpt>
      <trkpt lat="44.88134" lon="4.52314">
        <ele>341.1</ele>
      </trkpt>
      <trkpt lat="44.88136" lon="4.52287">
        <ele>340.9</ele>
      </trkpt>
      <trkpt lat="44.88139" lon="4.52267">
        <ele>341.5</ele>
      </trkpt>
      <trkpt lat="44.88146" lon="4.52249">
        <ele>343.9</ele>
      </trkpt>
      <trkpt lat="44.88227" lon="4.52096">
        <ele>353.8</ele>
      </trkpt>
      <trkpt lat="44.88353" lon="4.51864">
        <ele>355.1</ele>
      </trkpt>
      <trkpt lat="44.88378" lon="4.51834">
        <ele>357.4</ele>
      </trkpt>
      <trkpt lat="44.88431" lon="4.51786">
        <ele>360.6</ele>
      </trkpt>
      <trkpt lat="44.88444" lon="4.51772">
        <ele>360.4</ele>
      </trkpt>
      <trkpt lat="44.8845" lon="4.51764">
        <ele>361</ele>
      </trkpt>
      <trkpt lat="44.88467" lon="4.51731">
        <ele>354.7</ele>
      </trkpt>
      <trkpt lat="44.88476" lon="4.51699">
        <ele>353.4</ele>
      </trkpt>
      <trkpt lat="44.88488" lon="4.51625">
        <ele>348.2</ele>
      </trkpt>
      <trkpt lat="44.88489" lon="4.51598">
        <ele>349.7</ele>
      </trkpt>
      <trkpt lat="44.88488" lon="4.51577">
        <ele>352.5</ele>
      </trkpt>
      <trkpt lat="44.88484" lon="4.51555">
        <ele>351.8</ele>
      </trkpt>
      <trkpt lat="44.88478" lon="4.51534">
        <ele>352.9</ele>
      </trkpt>
      <trkpt lat="44.8847" lon="4.51514">
        <ele>353.7</ele>
      </trkpt>
      <trkpt lat="44.8846" lon="4.51497">
        <ele>363.1</ele>
      </trkpt>
      <trkpt lat="44.8844" lon="4.51475">
        <ele>361.2</ele>
      </trkpt>
      <trkpt lat="44.88427" lon="4.51464">
        <ele>361.9</ele>
      </trkpt>
      <trkpt lat="44.88411" lon="4.51455">
        <ele>356</ele>
      </trkpt>
      <trkpt lat="44.88397" lon="4.5145">
        <ele>356.9</ele>
      </trkpt>
      <trkpt lat="44.88383" lon="4.51449">
        <ele>356.9</ele>
      </trkpt>
      <trkpt lat="44.88366" lon="4.51451">
        <ele>356.6</ele>
      </trkpt>
      <trkpt lat="44.8834" lon="4.51462">
        <ele>354.4</ele>
      </trkpt>
      <trkpt lat="44.88346" lon="4.51451">
        <ele>357.1</ele>
      </trkpt>
      <trkpt lat="44.88366" lon="4.5144">
        <ele>358.4</ele>
      </trkpt>
      <trkpt lat="44.88367" lon="4.51432">
        <ele>359.5</ele>
      </trkpt>
      <trkpt lat="44.88362" lon="4.5143">
        <ele>360.2</ele>
      </trkpt>
      <trkpt lat="44.88341" lon="4.51435">
        <ele>361.6</ele>
      </trkpt>
      <trkpt lat="44.8833" lon="4.51447">
        <ele>360.7</ele>
      </trkpt>
      <trkpt lat="44.88318" lon="4.51458">
        <ele>358.3</ele>
      </trkpt>
      <trkpt lat="44.88293" lon="4.51468">
        <ele>357.6</ele>
      </trkpt>
      <trkpt lat="44.88269" lon="4.51476">
        <ele>356.9</ele>
      </trkpt>
      <trkpt lat="44.88264" lon="4.51476">
        <ele>356.8</ele>
      </trkpt>
      <trkpt lat="44.88231" lon="4.51466">
        <ele>357.8</ele>
      </trkpt>
      <trkpt lat="44.88201" lon="4.51454">
        <ele>357.8</ele>
      </trkpt>
      <trkpt lat="44.88196" lon="4.51449">
        <ele>358</ele>
      </trkpt>
      <trkpt lat="44.88195" lon="4.51444">
        <ele>358.4</ele>
      </trkpt>
      <trkpt lat="44.88195" lon="4.51438">
        <ele>358.8</ele>
      </trkpt>
      <trkpt lat="44.88191" lon="4.51438">
        <ele>358.6</ele>
      </trkpt>
      <trkpt lat="44.88177" lon="4.51432">
        <ele>358.4</ele>
      </trkpt>
      <trkpt lat="44.88178" lon="4.51353">
        <ele>362.9</ele>
      </trkpt>
      <trkpt lat="44.88195" lon="4.51271">
        <ele>360.7</ele>
      </trkpt>
      <trkpt lat="44.88195" lon="4.51264">
        <ele>360.2</ele>
      </trkpt>
      <trkpt lat="44.88191" lon="4.51262">
        <ele>359.3</ele>
      </trkpt>
      <trkpt lat="44.88184" lon="4.51268">
        <ele>358.6</ele>
      </trkpt>
      <trkpt lat="44.88177" lon="4.51262">
        <ele>356.3</ele>
      </trkpt>
      <trkpt lat="44.88238" lon="4.51196">
        <ele>355.6</ele>
      </trkpt>
      <trkpt lat="44.88246" lon="4.51187">
        <ele>355.3</ele>
      </trkpt>
      <trkpt lat="44.88263" lon="4.51166">
        <ele>355.7</ele>
      </trkpt>
      <trkpt lat="44.88278" lon="4.51149">
        <ele>356.3</ele>
      </trkpt>
      <trkpt lat="44.88292" lon="4.51138">
        <ele>356.8</ele>
      </trkpt>
      <trkpt lat="44.88346" lon="4.51118">
        <ele>362.7</ele>
      </trkpt>
      <trkpt lat="44.88588" lon="4.51092">
        <ele>366.6</ele>
      </trkpt>
      <trkpt lat="44.8862" lon="4.51087">
        <ele>376.5</ele>
      </trkpt>
      <trkpt lat="44.8864" lon="4.51082">
        <ele>365.2</ele>
      </trkpt>
      <trkpt lat="44.88769" lon="4.51027">
        <ele>375.9</ele>
      </trkpt>
      <trkpt lat="44.88826" lon="4.51005">
        <ele>372.2</ele>
      </trkpt>
      <trkpt lat="44.88865" lon="4.50983">
        <ele>371.7</ele>
      </trkpt>
      <trkpt lat="44.88879" lon="4.50971">
        <ele>372.5</ele>
      </trkpt>
      <trkpt lat="44.89003" lon="4.50873">
        <ele>383</ele>
      </trkpt>
      <trkpt lat="44.89018" lon="4.50858">
        <ele>381.2</ele>
      </trkpt>
      <trkpt lat="44.8905" lon="4.5082">
        <ele>374</ele>
      </trkpt>
      <trkpt lat="44.89069" lon="4.50801">
        <ele>374</ele>
      </trkpt>
      <trkpt lat="44.89112" lon="4.50764">
        <ele>379.3</ele>
      </trkpt>
      <trkpt lat="44.89128" lon="4.50747">
        <ele>370.8</ele>
      </trkpt>
      <trkpt lat="44.89138" lon="4.50729">
        <ele>372.2</ele>
      </trkpt>
      <trkpt lat="44.89148" lon="4.50707">
        <ele>372.6</ele>
      </trkpt>
      <trkpt lat="44.89153" lon="4.50687">
        <ele>373.9</ele>
      </trkpt>
      <trkpt lat="44.89156" lon="4.50662">
        <ele>376</ele>
      </trkpt>
      <trkpt lat="44.89158" lon="4.50639">
        <ele>373</ele>
      </trkpt>
      <trkpt lat="44.89155" lon="4.50577">
        <ele>378.4</ele>
      </trkpt>
      <trkpt lat="44.89152" lon="4.50547">
        <ele>377.1</ele>
      </trkpt>
      <trkpt lat="44.89147" lon="4.50526">
        <ele>378.5</ele>
      </trkpt>
      <trkpt lat="44.89146" lon="4.5052">
        <ele>379.1</ele>
      </trkpt>
      <trkpt lat="44.89141" lon="4.50504">
        <ele>379.5</ele>
      </trkpt>
      <trkpt lat="44.89133" lon="4.50488">
        <ele>386.7</ele>
      </trkpt>
      <trkpt lat="44.89113" lon="4.50458">
        <ele>385.7</ele>
      </trkpt>
      <trkpt lat="44.89073" lon="4.50417">
        <ele>373.2</ele>
      </trkpt>
      <trkpt lat="44.89052" lon="4.50393">
        <ele>377</ele>
      </trkpt>
      <trkpt lat="44.89004" lon="4.50329">
        <ele>378.2</ele>
      </trkpt>
      <trkpt lat="44.88965" lon="4.50265">
        <ele>376.5</ele>
      </trkpt>
      <trkpt lat="44.88935" lon="4.5022">
        <ele>385.7</ele>
      </trkpt>
      <trkpt lat="44.88913" lon="4.50177">
        <ele>377.5</ele>
      </trkpt>
      <trkpt lat="44.88905" lon="4.50155">
        <ele>378.3</ele>
      </trkpt>
      <trkpt lat="44.88898" lon="4.50131">
        <ele>376.3</ele>
      </trkpt>
      <trkpt lat="44.88887" lon="4.5008">
        <ele>379</ele>
      </trkpt>
      <trkpt lat="44.8888" lon="4.50021">
        <ele>377.5</ele>
      </trkpt>
      <trkpt lat="44.88871" lon="4.49855">
        <ele>380.9</ele>
      </trkpt>
      <trkpt lat="44.88871" lon="4.49826">
        <ele>381.1</ele>
      </trkpt>
      <trkpt lat="44.88874" lon="4.49804">
        <ele>381.5</ele>
      </trkpt>
      <trkpt lat="44.88878" lon="4.49783">
        <ele>381.4</ele>
      </trkpt>
      <trkpt lat="44.88889" lon="4.49749">
        <ele>379.3</ele>
      </trkpt>
      <trkpt lat="44.88901" lon="4.49717">
        <ele>378.4</ele>
      </trkpt>
      <trkpt lat="44.88912" lon="4.49672">
        <ele>376.8</ele>
      </trkpt>
      <trkpt lat="44.88913" lon="4.49655">
        <ele>374.7</ele>
      </trkpt>
      <trkpt lat="44.88908" lon="4.49567">
        <ele>371.6</ele>
      </trkpt>
      <trkpt lat="44.88911" lon="4.49538">
        <ele>370.7</ele>
      </trkpt>
      <trkpt lat="44.88916" lon="4.49518">
        <ele>372.2</ele>
      </trkpt>
      <trkpt lat="44.88922" lon="4.49498">
        <ele>376.4</ele>
      </trkpt>
      <trkpt lat="44.88933" lon="4.49475">
        <ele>376.6</ele>
      </trkpt>
      <trkpt lat="44.88957" lon="4.49451">
        <ele>376</ele>
      </trkpt>
      <trkpt lat="44.88975" lon="4.49442">
        <ele>375.3</ele>
      </trkpt>
      <trkpt lat="44.8899" lon="4.49439">
        <ele>374.4</ele>
      </trkpt>
      <trkpt lat="44.88996" lon="4.49439">
        <ele>374.3</ele>
      </trkpt>
      <trkpt lat="44.89009" lon="4.4944">
        <ele>376.6</ele>
      </trkpt>
      <trkpt lat="44.89029" lon="4.49447">
        <ele>378.9</ele>
      </trkpt>
      <trkpt lat="44.89132" lon="4.49488">
        <ele>387.1</ele>
      </trkpt>
      <trkpt lat="44.89301" lon="4.49515">
        <ele>399.3</ele>
      </trkpt>
      <trkpt lat="44.89328" lon="4.49518">
        <ele>396.4</ele>
      </trkpt>
      <trkpt lat="44.89346" lon="4.49515">
        <ele>400.1</ele>
      </trkpt>
      <trkpt lat="44.89356" lon="4.49512">
        <ele>402.2</ele>
      </trkpt>
      <trkpt lat="44.89366" lon="4.49507">
        <ele>403.8</ele>
      </trkpt>
      <trkpt lat="44.89379" lon="4.49495">
        <ele>385.1</ele>
      </trkpt>
      <trkpt lat="44.89388" lon="4.49484">
        <ele>385.5</ele>
      </trkpt>
      <trkpt lat="44.89399" lon="4.49471">
        <ele>385.2</ele>
      </trkpt>
      <trkpt lat="44.89405" lon="4.49455">
        <ele>383.5</ele>
      </trkpt>
      <trkpt lat="44.89409" lon="4.49445">
        <ele>382.6</ele>
      </trkpt>
      <trkpt lat="44.89415" lon="4.49425">
        <ele>381.4</ele>
      </trkpt>
      <trkpt lat="44.89417" lon="4.49414">
        <ele>383.5</ele>
      </trkpt>
      <trkpt lat="44.89418" lon="4.49388">
        <ele>396.3</ele>
      </trkpt>
      <trkpt lat="44.89416" lon="4.49367">
        <ele>384.5</ele>
      </trkpt>
      <trkpt lat="44.89412" lon="4.49347">
        <ele>388.4</ele>
      </trkpt>
      <trkpt lat="44.89406" lon="4.49331">
        <ele>393.7</ele>
      </trkpt>
      <trkpt lat="44.89381" lon="4.49284">
        <ele>394.5</ele>
      </trkpt>
      <trkpt lat="44.89366" lon="4.49251">
        <ele>393.6</ele>
      </trkpt>
      <trkpt lat="44.8936" lon="4.49219">
        <ele>398</ele>
      </trkpt>
      <trkpt lat="44.8936" lon="4.49203">
        <ele>398.5</ele>
      </trkpt>
      <trkpt lat="44.8936" lon="4.49188">
        <ele>398.4</ele>
      </trkpt>
      <trkpt lat="44.89368" lon="4.49145">
        <ele>394.9</ele>
      </trkpt>
      <trkpt lat="44.89374" lon="4.49129">
        <ele>394.3</ele>
      </trkpt>
      <trkpt lat="44.89381" lon="4.49112">
        <ele>393.2</ele>
      </trkpt>
      <trkpt lat="44.89392" lon="4.49096">
        <ele>392.2</ele>
      </trkpt>
      <trkpt lat="44.89404" lon="4.49084">
        <ele>390.9</ele>
      </trkpt>
      <trkpt lat="44.89414" lon="4.49078">
        <ele>388.3</ele>
      </trkpt>
      <trkpt lat="44.89437" lon="4.49071">
        <ele>389.3</ele>
      </trkpt>
      <trkpt lat="44.8945" lon="4.49069">
        <ele>389.6</ele>
      </trkpt>
      <trkpt lat="44.89484" lon="4.49075">
        <ele>392.1</ele>
      </trkpt>
      <trkpt lat="44.89512" lon="4.49082">
        <ele>393.6</ele>
      </trkpt>
      <trkpt lat="44.89552" lon="4.49088">
        <ele>406.3</ele>
      </trkpt>
      <trkpt lat="44.89572" lon="4.49085">
        <ele>401.9</ele>
      </trkpt>
      <trkpt lat="44.89592" lon="4.4908">
        <ele>397.7</ele>
      </trkpt>
      <trkpt lat="44.89618" lon="4.49064">
        <ele>401.5</ele>
      </trkpt>
      <trkpt lat="44.8963" lon="4.49055">
        <ele>402.7</ele>
      </trkpt>
      <trkpt lat="44.89642" lon="4.49041">
        <ele>402.2</ele>
      </trkpt>
      <trkpt lat="44.89662" lon="4.49013">
        <ele>399</ele>
      </trkpt>
      <trkpt lat="44.89674" lon="4.48985">
        <ele>406</ele>
      </trkpt>
      <trkpt lat="44.89686" lon="4.48931">
        <ele>406.8</ele>
      </trkpt>
      <trkpt lat="44.89689" lon="4.48897">
        <ele>403.5</ele>
      </trkpt>
      <trkpt lat="44.89688" lon="4.48872">
        <ele>403.9</ele>
      </trkpt>
      <trkpt lat="44.8969" lon="4.48846">
        <ele>402</ele>
      </trkpt>
      <trkpt lat="44.89693" lon="4.48825">
        <ele>395.9</ele>
      </trkpt>
      <trkpt lat="44.89711" lon="4.48782">
        <ele>395.6</ele>
      </trkpt>
      <trkpt lat="44.89724" lon="4.48765">
        <ele>394.8</ele>
      </trkpt>
      <trkpt lat="44.89753" lon="4.48742">
        <ele>390.8</ele>
      </trkpt>
      <trkpt lat="44.89769" lon="4.48737">
        <ele>389.7</ele>
      </trkpt>
      <trkpt lat="44.89788" lon="4.48736">
        <ele>389.4</ele>
      </trkpt>
      <trkpt lat="44.89806" lon="4.48741">
        <ele>390.2</ele>
      </trkpt>
      <trkpt lat="44.89839" lon="4.48754">
        <ele>399.3</ele>
      </trkpt>
      <trkpt lat="44.89855" lon="4.48758">
        <ele>405.4</ele>
      </trkpt>
      <trkpt lat="44.89877" lon="4.48755">
        <ele>408.4</ele>
      </trkpt>
      <trkpt lat="44.89894" lon="4.48748">
        <ele>397.9</ele>
      </trkpt>
      <trkpt lat="44.89904" lon="4.48741">
        <ele>399.6</ele>
      </trkpt>
      <trkpt lat="44.89915" lon="4.48732">
        <ele>398.7</ele>
      </trkpt>
      <trkpt lat="44.89925" lon="4.4872">
        <ele>406.7</ele>
      </trkpt>
      <trkpt lat="44.89936" lon="4.48704">
        <ele>405.2</ele>
      </trkpt>
      <trkpt lat="44.90001" lon="4.48578">
        <ele>391.8</ele>
      </trkpt>
      <trkpt lat="44.90017" lon="4.48558">
        <ele>393.5</ele>
      </trkpt>
      <trkpt lat="44.90044" lon="4.48535">
        <ele>394.2</ele>
      </trkpt>
      <trkpt lat="44.9006" lon="4.48528">
        <ele>394.2</ele>
      </trkpt>
      <trkpt lat="44.90069" lon="4.48527">
        <ele>394.2</ele>
      </trkpt>
      <trkpt lat="44.901" lon="4.48527">
        <ele>396.2</ele>
      </trkpt>
      <trkpt lat="44.9013" lon="4.48541">
        <ele>397.3</ele>
      </trkpt>
      <trkpt lat="44.90145" lon="4.48553">
        <ele>397.6</ele>
      </trkpt>
      <trkpt lat="44.90156" lon="4.48566">
        <ele>397.9</ele>
      </trkpt>
      <trkpt lat="44.90208" lon="4.48643">
        <ele>409.8</ele>
      </trkpt>
      <trkpt lat="44.90225" lon="4.48661">
        <ele>408.9</ele>
      </trkpt>
      <trkpt lat="44.90239" lon="4.48671">
        <ele>419</ele>
      </trkpt>
      <trkpt lat="44.90251" lon="4.48677">
        <ele>411.9</ele>
      </trkpt>
      <trkpt lat="44.90267" lon="4.48681">
        <ele>414.9</ele>
      </trkpt>
      <trkpt lat="44.903" lon="4.48682">
        <ele>414.5</ele>
      </trkpt>
      <trkpt lat="44.90367" lon="4.4868">
        <ele>408.9</ele>
      </trkpt>
      <trkpt lat="44.90391" lon="4.48671">
        <ele>408.2</ele>
      </trkpt>
      <trkpt lat="44.90416" lon="4.48657">
        <ele>400.1</ele>
      </trkpt>
      <trkpt lat="44.90433" lon="4.48642">
        <ele>401.5</ele>
      </trkpt>
      <trkpt lat="44.90474" lon="4.48607">
        <ele>401.2</ele>
      </trkpt>
      <trkpt lat="44.90494" lon="4.4859">
        <ele>401.1</ele>
      </trkpt>
      <trkpt lat="44.9054" lon="4.48544">
        <ele>403.5</ele>
      </trkpt>
      <trkpt lat="44.90558" lon="4.4851">
        <ele>403.6</ele>
      </trkpt>
      <trkpt lat="44.90569" lon="4.4848">
        <ele>398.8</ele>
      </trkpt>
      <trkpt lat="44.90573" lon="4.48464">
        <ele>397.5</ele>
      </trkpt>
      <trkpt lat="44.90576" lon="4.48433">
        <ele>397</ele>
      </trkpt>
      <trkpt lat="44.90577" lon="4.48412">
        <ele>398</ele>
      </trkpt>
      <trkpt lat="44.90577" lon="4.48393">
        <ele>397.2</ele>
      </trkpt>
      <trkpt lat="44.90571" lon="4.48304">
        <ele>403</ele>
      </trkpt>
      <trkpt lat="44.90563" lon="4.48178">
        <ele>408.3</ele>
      </trkpt>
      <trkpt lat="44.90557" lon="4.48146">
        <ele>408.5</ele>
      </trkpt>
      <trkpt lat="44.90537" lon="4.4809">
        <ele>405.3</ele>
      </trkpt>
      <trkpt lat="44.90534" lon="4.48073">
        <ele>406.7</ele>
      </trkpt>
      <trkpt lat="44.90534" lon="4.48042">
        <ele>407.9</ele>
      </trkpt>
      <trkpt lat="44.90533" lon="4.48027">
        <ele>407.9</ele>
      </trkpt>
      <trkpt lat="44.90532" lon="4.48013">
        <ele>407.6</ele>
      </trkpt>
      <trkpt lat="44.90538" lon="4.47986">
        <ele>405.6</ele>
      </trkpt>
      <trkpt lat="44.90547" lon="4.47962">
        <ele>405.4</ele>
      </trkpt>
      <trkpt lat="44.90564" lon="4.47937">
        <ele>404.8</ele>
      </trkpt>
      <trkpt lat="44.90583" lon="4.47919">
        <ele>404.1</ele>
      </trkpt>
      <trkpt lat="44.90615" lon="4.47905">
        <ele>401.9</ele>
      </trkpt>
      <trkpt lat="44.90643" lon="4.47892">
        <ele>402.4</ele>
      </trkpt>
      <trkpt lat="44.90651" lon="4.47887">
        <ele>402.3</ele>
      </trkpt>
      <trkpt lat="44.90667" lon="4.47873">
        <ele>407.2</ele>
      </trkpt>
      <trkpt lat="44.90678" lon="4.47861">
        <ele>406.3</ele>
      </trkpt>
      <trkpt lat="44.90697" lon="4.47835">
        <ele>406.7</ele>
      </trkpt>
      <trkpt lat="44.90748" lon="4.4777">
        <ele>405.8</ele>
      </trkpt>
      <trkpt lat="44.90765" lon="4.47741">
        <ele>413.9</ele>
      </trkpt>
      <trkpt lat="44.90778" lon="4.47707">
        <ele>417.1</ele>
      </trkpt>
      <trkpt lat="44.90813" lon="4.47594">
        <ele>416.2</ele>
      </trkpt>
      <trkpt lat="44.90853" lon="4.47456">
        <ele>427.5</ele>
      </trkpt>
      <trkpt lat="44.90857" lon="4.47422">
        <ele>424.2</ele>
      </trkpt>
      <trkpt lat="44.90854" lon="4.4735">
        <ele>417.7</ele>
      </trkpt>
      <trkpt lat="44.90858" lon="4.4732">
        <ele>415</ele>
      </trkpt>
      <trkpt lat="44.90863" lon="4.47296">
        <ele>416.5</ele>
      </trkpt>
      <trkpt lat="44.9087" lon="4.47279">
        <ele>417.1</ele>
      </trkpt>
      <trkpt lat="44.90873" lon="4.47266">
        <ele>417.2</ele>
      </trkpt>
      <trkpt lat="44.90892" lon="4.47224">
        <ele>416.2</ele>
      </trkpt>
      <trkpt lat="44.90893" lon="4.47219">
        <ele>416</ele>
      </trkpt>
      <trkpt lat="44.90895" lon="4.472">
        <ele>415.4</ele>
      </trkpt>
      <trkpt lat="44.90895" lon="4.47199">
        <ele>415.4</ele>
      </trkpt>
      <trkpt lat="44.90904" lon="4.4718">
        <ele>415.7</ele>
      </trkpt>
      <trkpt lat="44.90918" lon="4.47169">
        <ele>418.5</ele>
      </trkpt>
      <trkpt lat="44.90923" lon="4.47157">
        <ele>419.7</ele>
      </trkpt>
      <trkpt lat="44.90932" lon="4.47138">
        <ele>421.7</ele>
      </trkpt>
      <trkpt lat="44.90954" lon="4.47095">
        <ele>422.4</ele>
      </trkpt>
      <trkpt lat="44.91" lon="4.46997">
        <ele>418.9</ele>
      </trkpt>
      <trkpt lat="44.91028" lon="4.46951">
        <ele>423.9</ele>
      </trkpt>
      <trkpt lat="44.91041" lon="4.46937">
        <ele>424.7</ele>
      </trkpt>
      <trkpt lat="44.9106" lon="4.4692">
        <ele>426.7</ele>
      </trkpt>
      <trkpt lat="44.9109" lon="4.46892">
        <ele>429.4</ele>
      </trkpt>
      <trkpt lat="44.91102" lon="4.46881">
        <ele>429.1</ele>
      </trkpt>
      <trkpt lat="44.91175" lon="4.46813">
        <ele>432.1</ele>
      </trkpt>
      <trkpt lat="44.91184" lon="4.46803">
        <ele>432.8</ele>
      </trkpt>
      <trkpt lat="44.91193" lon="4.46789">
        <ele>432.9</ele>
      </trkpt>
      <trkpt lat="44.91203" lon="4.46771">
        <ele>432.8</ele>
      </trkpt>
      <trkpt lat="44.91209" lon="4.46755">
        <ele>433</ele>
      </trkpt>
      <trkpt lat="44.91215" lon="4.46704">
        <ele>425.1</ele>
      </trkpt>
      <trkpt lat="44.91217" lon="4.46658">
        <ele>421.1</ele>
      </trkpt>
      <trkpt lat="44.91217" lon="4.4662">
        <ele>420.1</ele>
      </trkpt>
      <trkpt lat="44.91223" lon="4.46586">
        <ele>421.3</ele>
      </trkpt>
      <trkpt lat="44.91228" lon="4.46565">
        <ele>422.3</ele>
      </trkpt>
      <trkpt lat="44.91231" lon="4.46539">
        <ele>422.4</ele>
      </trkpt>
      <trkpt lat="44.91231" lon="4.4651">
        <ele>424</ele>
      </trkpt>
      <trkpt lat="44.91229" lon="4.46444">
        <ele>423.8</ele>
      </trkpt>
      <trkpt lat="44.91228" lon="4.46423">
        <ele>424.2</ele>
      </trkpt>
      <trkpt lat="44.91224" lon="4.46396">
        <ele>423.4</ele>
      </trkpt>
      <trkpt lat="44.91219" lon="4.46381">
        <ele>423</ele>
      </trkpt>
      <trkpt lat="44.91207" lon="4.46357">
        <ele>422.1</ele>
      </trkpt>
      <trkpt lat="44.91203" lon="4.4634">
        <ele>421.5</ele>
      </trkpt>
      <trkpt lat="44.91201" lon="4.46286">
        <ele>421.4</ele>
      </trkpt>
      <trkpt lat="44.91203" lon="4.46249">
        <ele>420.4</ele>
      </trkpt>
      <trkpt lat="44.91214" lon="4.46211">
        <ele>420.6</ele>
      </trkpt>
      <trkpt lat="44.91235" lon="4.46173">
        <ele>420.2</ele>
      </trkpt>
      <trkpt lat="44.91261" lon="4.46147">
        <ele>422.3</ele>
      </trkpt>
      <trkpt lat="44.91297" lon="4.46121">
        <ele>424.1</ele>
      </trkpt>
      <trkpt lat="44.91311" lon="4.46105">
        <ele>423.7</ele>
      </trkpt>
      <trkpt lat="44.91324" lon="4.46087">
        <ele>422.7</ele>
      </trkpt>
      <trkpt lat="44.91337" lon="4.46052">
        <ele>423</ele>
      </trkpt>
      <trkpt lat="44.9134" lon="4.46034">
        <ele>422.7</ele>
      </trkpt>
      <trkpt lat="44.91341" lon="4.46014">
        <ele>421.8</ele>
      </trkpt>
      <trkpt lat="44.9134" lon="4.45992">
        <ele>423.5</ele>
      </trkpt>
      <trkpt lat="44.91337" lon="4.45968">
        <ele>427.8</ele>
      </trkpt>
      <trkpt lat="44.91332" lon="4.45951">
        <ele>423.3</ele>
      </trkpt>
      <trkpt lat="44.91312" lon="4.45915">
        <ele>428.2</ele>
      </trkpt>
      <trkpt lat="44.91287" lon="4.45861">
        <ele>425.6</ele>
      </trkpt>
      <trkpt lat="44.91281" lon="4.45835">
        <ele>424.6</ele>
      </trkpt>
      <trkpt lat="44.91277" lon="4.45796">
        <ele>424</ele>
      </trkpt>
      <trkpt lat="44.91279" lon="4.45765">
        <ele>423</ele>
      </trkpt>
      <trkpt lat="44.91305" lon="4.45638">
        <ele>421.5</ele>
      </trkpt>
      <trkpt lat="44.91309" lon="4.45619">
        <ele>421.5</ele>
      </trkpt>
      <trkpt lat="44.91313" lon="4.45583">
        <ele>422.9</ele>
      </trkpt>
      <trkpt lat="44.91311" lon="4.45546">
        <ele>422</ele>
      </trkpt>
      <trkpt lat="44.91303" lon="4.45485">
        <ele>423.3</ele>
      </trkpt>
      <trkpt lat="44.91301" lon="4.45452">
        <ele>422.8</ele>
      </trkpt>
      <trkpt lat="44.91317" lon="4.4534">
        <ele>425.4</ele>
      </trkpt>
      <trkpt lat="44.91333" lon="4.45287">
        <ele>421.3</ele>
      </trkpt>
      <trkpt lat="44.91355" lon="4.45253">
        <ele>430.2</ele>
      </trkpt>
      <trkpt lat="44.91381" lon="4.45219">
        <ele>425.6</ele>
      </trkpt>
      <trkpt lat="44.91387" lon="4.45209">
        <ele>425.3</ele>
      </trkpt>
      <trkpt lat="44.91399" lon="4.45182">
        <ele>424.3</ele>
      </trkpt>
      <trkpt lat="44.91404" lon="4.4517">
        <ele>424.1</ele>
      </trkpt>
      <trkpt lat="44.91415" lon="4.45122">
        <ele>420.2</ele>
      </trkpt>
      <trkpt lat="44.9143" lon="4.45076">
        <ele>426.4</ele>
      </trkpt>
      <trkpt lat="44.9146" lon="4.45013">
        <ele>429.9</ele>
      </trkpt>
      <trkpt lat="44.91484" lon="4.44975">
        <ele>427.6</ele>
      </trkpt>
      <trkpt lat="44.91518" lon="4.44945">
        <ele>435</ele>
      </trkpt>
      <trkpt lat="44.91562" lon="4.44883">
        <ele>430.1</ele>
      </trkpt>
      <trkpt lat="44.91596" lon="4.44824">
        <ele>432.8</ele>
      </trkpt>
      <trkpt lat="44.91615" lon="4.44786">
        <ele>435.7</ele>
      </trkpt>
      <trkpt lat="44.91624" lon="4.44749">
        <ele>429.9</ele>
      </trkpt>
      <trkpt lat="44.91628" lon="4.44723">
        <ele>430.1</ele>
      </trkpt>
      <trkpt lat="44.91629" lon="4.44698">
        <ele>429.3</ele>
      </trkpt>
      <trkpt lat="44.91629" lon="4.44648">
        <ele>426.1</ele>
      </trkpt>
      <trkpt lat="44.9163" lon="4.4465">
        <ele>426.4</ele>
      </trkpt>
      <trkpt lat="44.91629" lon="4.44648">
        <ele>426.1</ele>
      </trkpt>
      <trkpt lat="44.91635" lon="4.44601">
        <ele>426.6</ele>
      </trkpt>
      <trkpt lat="44.9164" lon="4.4458">
        <ele>426.4</ele>
      </trkpt>
      <trkpt lat="44.91654" lon="4.44528">
        <ele>425.6</ele>
      </trkpt>
      <trkpt lat="44.91665" lon="4.44477">
        <ele>426.3</ele>
      </trkpt>
      <trkpt lat="44.91667" lon="4.44451">
        <ele>443.9</ele>
      </trkpt>
      <trkpt lat="44.91662" lon="4.44361">
        <ele>428.2</ele>
      </trkpt>
      <trkpt lat="44.91662" lon="4.44333">
        <ele>430.6</ele>
      </trkpt>
      <trkpt lat="44.91664" lon="4.44282">
        <ele>426.3</ele>
      </trkpt>
      <trkpt lat="44.91677" lon="4.44141">
        <ele>437.1</ele>
      </trkpt>
      <trkpt lat="44.91675" lon="4.44099">
        <ele>434.9</ele>
      </trkpt>
      <trkpt lat="44.91669" lon="4.44059">
        <ele>436.1</ele>
      </trkpt>
      <trkpt lat="44.91667" lon="4.44047">
        <ele>437.4</ele>
      </trkpt>
      <trkpt lat="44.91652" lon="4.43953">
        <ele>427</ele>
      </trkpt>
      <trkpt lat="44.91645" lon="4.43902">
        <ele>428.6</ele>
      </trkpt>
      <trkpt lat="44.91639" lon="4.43865">
        <ele>427.8</ele>
      </trkpt>
      <trkpt lat="44.91638" lon="4.43861">
        <ele>427.8</ele>
      </trkpt>
      <trkpt lat="44.91637" lon="4.43852">
        <ele>428.1</ele>
      </trkpt>
      <trkpt lat="44.91626" lon="4.43791">
        <ele>429.9</ele>
      </trkpt>
      <trkpt lat="44.91626" lon="4.43788">
        <ele>430</ele>
      </trkpt>
      <trkpt lat="44.91619" lon="4.43754">
        <ele>429.5</ele>
      </trkpt>
      <trkpt lat="44.91608" lon="4.4369">
        <ele>430.8</ele>
      </trkpt>
      <trkpt lat="44.91604" lon="4.43656">
        <ele>430.6</ele>
      </trkpt>
      <trkpt lat="44.91604" lon="4.43577">
        <ele>431.1</ele>
      </trkpt>
      <trkpt lat="44.91607" lon="4.4352">
        <ele>432.2</ele>
      </trkpt>
      <trkpt lat="44.9161" lon="4.43468">
        <ele>432.7</ele>
      </trkpt>
      <trkpt lat="44.91611" lon="4.4345">
        <ele>433</ele>
      </trkpt>
      <trkpt lat="44.91612" lon="4.4342">
        <ele>432.5</ele>
      </trkpt>
      <trkpt lat="44.91609" lon="4.43391">
        <ele>436.5</ele>
      </trkpt>
      <trkpt lat="44.91606" lon="4.43368">
        <ele>437.6</ele>
      </trkpt>
      <trkpt lat="44.916" lon="4.43345">
        <ele>436.3</ele>
      </trkpt>
      <trkpt lat="44.91555" lon="4.43224">
        <ele>436.6</ele>
      </trkpt>
      <trkpt lat="44.91541" lon="4.43188">
        <ele>437</ele>
      </trkpt>
      <trkpt lat="44.91528" lon="4.43158">
        <ele>441.2</ele>
      </trkpt>
      <trkpt lat="44.91514" lon="4.43132">
        <ele>441.5</ele>
      </trkpt>
      <trkpt lat="44.91498" lon="4.43107">
        <ele>431.3</ele>
      </trkpt>
      <trkpt lat="44.91486" lon="4.43087">
        <ele>432.4</ele>
      </trkpt>
      <trkpt lat="44.91454" lon="4.43049">
        <ele>433.1</ele>
      </trkpt>
      <trkpt lat="44.91377" lon="4.42917">
        <ele>431.5</ele>
      </trkpt>
      <trkpt lat="44.91352" lon="4.42876">
        <ele>433.9</ele>
      </trkpt>
      <trkpt lat="44.9133" lon="4.42842">
        <ele>430.9</ele>
      </trkpt>
      <trkpt lat="44.91296" lon="4.42786">
        <ele>431.5</ele>
      </trkpt>
      <trkpt lat="44.91287" lon="4.42777">
        <ele>431.5</ele>
      </trkpt>
      <trkpt lat="44.91283" lon="4.42772">
        <ele>431.5</ele>
      </trkpt>
      <trkpt lat="44.9127" lon="4.42758">
        <ele>431.3</ele>
      </trkpt>
      <trkpt lat="44.9125" lon="4.42728">
        <ele>432.7</ele>
      </trkpt>
      <trkpt lat="44.91247" lon="4.42726">
        <ele>431.7</ele>
      </trkpt>
      <trkpt lat="44.9124" lon="4.42697">
        <ele>432.1</ele>
      </trkpt>
      <trkpt lat="44.91236" lon="4.42673">
        <ele>432.2</ele>
      </trkpt>
      <trkpt lat="44.91237" lon="4.42652">
        <ele>433.1</ele>
      </trkpt>
      <trkpt lat="44.91239" lon="4.42634">
        <ele>433.2</ele>
      </trkpt>
      <trkpt lat="44.91253" lon="4.42583">
        <ele>430.1</ele>
      </trkpt>
      <trkpt lat="44.91266" lon="4.42554">
        <ele>430.7</ele>
      </trkpt>
      <trkpt lat="44.91284" lon="4.42518">
        <ele>430.6</ele>
      </trkpt>
      <trkpt lat="44.91303" lon="4.42491">
        <ele>430</ele>
      </trkpt>
      <trkpt lat="44.91327" lon="4.42457">
        <ele>429.8</ele>
      </trkpt>
      <trkpt lat="44.9133" lon="4.42455">
        <ele>429.8</ele>
      </trkpt>
      <trkpt lat="44.91334" lon="4.42452">
        <ele>432</ele>
      </trkpt>
      <trkpt lat="44.91335" lon="4.42452">
        <ele>432</ele>
      </trkpt>
      <trkpt lat="44.91347" lon="4.42442">
        <ele>432</ele>
      </trkpt>
      <trkpt lat="44.91379" lon="4.42416">
        <ele>431.1</ele>
      </trkpt>
      <trkpt lat="44.9141" lon="4.42395">
        <ele>432.2</ele>
      </trkpt>
      <trkpt lat="44.91426" lon="4.42378">
        <ele>436.8</ele>
      </trkpt>
      <trkpt lat="44.91494" lon="4.42284">
        <ele>434</ele>
      </trkpt>
      <trkpt lat="44.91525" lon="4.42244">
        <ele>437.7</ele>
      </trkpt>
      <trkpt lat="44.91551" lon="4.42213">
        <ele>440.6</ele>
      </trkpt>
      <trkpt lat="44.91572" lon="4.4219">
        <ele>440.8</ele>
      </trkpt>
      <trkpt lat="44.91578" lon="4.42198">
        <ele>441.4</ele>
      </trkpt>
      <trkpt lat="44.91597" lon="4.42175">
        <ele>453.6</ele>
      </trkpt>
      <trkpt lat="44.9161" lon="4.42163">
        <ele>450.1</ele>
      </trkpt>
      <trkpt lat="44.91626" lon="4.42153">
        <ele>454.2</ele>
      </trkpt>
      <trkpt lat="44.91645" lon="4.42132">
        <ele>455.6</ele>
      </trkpt>
      <trkpt lat="44.91653" lon="4.42112">
        <ele>453</ele>
      </trkpt>
      <trkpt lat="44.9167" lon="4.42087">
        <ele>455.8</ele>
      </trkpt>
      <trkpt lat="44.91676" lon="4.42073">
        <ele>455</ele>
      </trkpt>
      <trkpt lat="44.91679" lon="4.42061">
        <ele>456.9</ele>
      </trkpt>
      <trkpt lat="44.91679" lon="4.42053">
        <ele>457.2</ele>
      </trkpt>
      <trkpt lat="44.91683" lon="4.42045">
        <ele>457.5</ele>
      </trkpt>
      <trkpt lat="44.91691" lon="4.42039">
        <ele>458.3</ele>
      </trkpt>
      <trkpt lat="44.91696" lon="4.42039">
        <ele>459.2</ele>
      </trkpt>
      <trkpt lat="44.91701" lon="4.42029">
        <ele>459.4</ele>
      </trkpt>
      <trkpt lat="44.91702" lon="4.4202">
        <ele>459</ele>
      </trkpt>
      <trkpt lat="44.91703" lon="4.42012">
        <ele>458.7</ele>
      </trkpt>
      <trkpt lat="44.91704" lon="4.42">
        <ele>457.1</ele>
      </trkpt>
      <trkpt lat="44.91703" lon="4.41974">
        <ele>457.7</ele>
      </trkpt>
      <trkpt lat="44.91701" lon="4.41944">
        <ele>458.1</ele>
      </trkpt>
      <trkpt lat="44.91694" lon="4.41877">
        <ele>464.8</ele>
      </trkpt>
      <trkpt lat="44.91681" lon="4.41824">
        <ele>466.8</ele>
      </trkpt>
      <trkpt lat="44.91664" lon="4.41781">
        <ele>456.3</ele>
      </trkpt>
      <trkpt lat="44.91643" lon="4.41725">
        <ele>461.4</ele>
      </trkpt>
      <trkpt lat="44.91635" lon="4.41705">
        <ele>461.3</ele>
      </trkpt>
      <trkpt lat="44.9163" lon="4.41684">
        <ele>461.8</ele>
      </trkpt>
      <trkpt lat="44.91627" lon="4.41674">
        <ele>461.5</ele>
      </trkpt>
      <trkpt lat="44.91627" lon="4.41656">
        <ele>461.1</ele>
      </trkpt>
      <trkpt lat="44.9163" lon="4.41622">
        <ele>459.9</ele>
      </trkpt>
      <trkpt lat="44.91636" lon="4.41596">
        <ele>460.1</ele>
      </trkpt>
      <trkpt lat="44.91647" lon="4.41571">
        <ele>456.7</ele>
      </trkpt>
      <trkpt lat="44.91663" lon="4.4155">
        <ele>454.5</ele>
      </trkpt>
      <trkpt lat="44.91697" lon="4.41527">
        <ele>468.3</ele>
      </trkpt>
      <trkpt lat="44.91717" lon="4.41517">
        <ele>470.9</ele>
      </trkpt>
      <trkpt lat="44.91735" lon="4.41502">
        <ele>471.5</ele>
      </trkpt>
      <trkpt lat="44.91754" lon="4.41481">
        <ele>476.5</ele>
      </trkpt>
      <trkpt lat="44.91798" lon="4.41394">
        <ele>469.7</ele>
      </trkpt>
      <trkpt lat="44.91837" lon="4.41329">
        <ele>471.3</ele>
      </trkpt>
      <trkpt lat="44.91867" lon="4.41257">
        <ele>474.2</ele>
      </trkpt>
      <trkpt lat="44.91875" lon="4.41243">
        <ele>466.1</ele>
      </trkpt>
      <trkpt lat="44.91885" lon="4.41229">
        <ele>467.3</ele>
      </trkpt>
      <trkpt lat="44.91906" lon="4.4121">
        <ele>466.9</ele>
      </trkpt>
      <trkpt lat="44.92003" lon="4.41172">
        <ele>483</ele>
      </trkpt>
      <trkpt lat="44.92032" lon="4.41156">
        <ele>478.5</ele>
      </trkpt>
      <trkpt lat="44.92079" lon="4.4112">
        <ele>478.3</ele>
      </trkpt>
      <trkpt lat="44.9209" lon="4.4111">
        <ele>493.2</ele>
      </trkpt>
      <trkpt lat="44.92101" lon="4.41098">
        <ele>491.2</ele>
      </trkpt>
      <trkpt lat="44.92117" lon="4.41072">
        <ele>484.4</ele>
      </trkpt>
      <trkpt lat="44.92136" lon="4.41013">
        <ele>488.1</ele>
      </trkpt>
      <trkpt lat="44.92141" lon="4.40988">
        <ele>487</ele>
      </trkpt>
      <trkpt lat="44.92142" lon="4.40959">
        <ele>485.5</ele>
      </trkpt>
      <trkpt lat="44.92132" lon="4.40887">
        <ele>483.9</ele>
      </trkpt>
      <trkpt lat="44.92127" lon="4.40837">
        <ele>482.7</ele>
      </trkpt>
      <trkpt lat="44.92131" lon="4.40806">
        <ele>481.8</ele>
      </trkpt>
      <trkpt lat="44.92144" lon="4.40769">
        <ele>483.5</ele>
      </trkpt>
      <trkpt lat="44.92156" lon="4.40751">
        <ele>487.8</ele>
      </trkpt>
      <trkpt lat="44.92169" lon="4.40737">
        <ele>487.1</ele>
      </trkpt>
      <trkpt lat="44.922" lon="4.40717">
        <ele>481.8</ele>
      </trkpt>
      <trkpt lat="44.92215" lon="4.40716">
        <ele>482.2</ele>
      </trkpt>
      <trkpt lat="44.92267" lon="4.40726">
        <ele>491.5</ele>
      </trkpt>
      <trkpt lat="44.92289" lon="4.40728">
        <ele>491.5</ele>
      </trkpt>
      <trkpt lat="44.92304" lon="4.40725">
        <ele>492</ele>
      </trkpt>
      <trkpt lat="44.9232" lon="4.40716">
        <ele>491</ele>
      </trkpt>
      <trkpt lat="44.92374" lon="4.40674">
        <ele>489.6</ele>
      </trkpt>
      <trkpt lat="44.9241" lon="4.40644">
        <ele>482.3</ele>
      </trkpt>
      <trkpt lat="44.92415" lon="4.40638">
        <ele>482</ele>
      </trkpt>
      <trkpt lat="44.92423" lon="4.40626">
        <ele>491.2</ele>
      </trkpt>
      <trkpt lat="44.9243" lon="4.40613">
        <ele>491.1</ele>
      </trkpt>
      <trkpt lat="44.92439" lon="4.40589">
        <ele>490.6</ele>
      </trkpt>
      <trkpt lat="44.92453" lon="4.40478">
        <ele>487.6</ele>
      </trkpt>
      <trkpt lat="44.9246" lon="4.40449">
        <ele>486.9</ele>
      </trkpt>
      <trkpt lat="44.92473" lon="4.40421">
        <ele>488.1</ele>
      </trkpt>
      <trkpt lat="44.92479" lon="4.40412">
        <ele>482.9</ele>
      </trkpt>
      <trkpt lat="44.92497" lon="4.40395">
        <ele>482.8</ele>
      </trkpt>
      <trkpt lat="44.9251" lon="4.40386">
        <ele>488.2</ele>
      </trkpt>
      <trkpt lat="44.92524" lon="4.4038">
        <ele>487.8</ele>
      </trkpt>
      <trkpt lat="44.92584" lon="4.40373">
        <ele>501.7</ele>
      </trkpt>
      <trkpt lat="44.92598" lon="4.40367">
        <ele>501.2</ele>
      </trkpt>
      <trkpt lat="44.92616" lon="4.40354">
        <ele>501.5</ele>
      </trkpt>
      <trkpt lat="44.92631" lon="4.40336">
        <ele>502.5</ele>
      </trkpt>
      <trkpt lat="44.92654" lon="4.40298">
        <ele>487</ele>
      </trkpt>
      <trkpt lat="44.92668" lon="4.4028">
        <ele>496.4</ele>
      </trkpt>
      <trkpt lat="44.92678" lon="4.4027">
        <ele>494.6</ele>
      </trkpt>
      <trkpt lat="44.92689" lon="4.40264">
        <ele>495.6</ele>
      </trkpt>
      <trkpt lat="44.92702" lon="4.40259">
        <ele>497.8</ele>
      </trkpt>
      <trkpt lat="44.92731" lon="4.40258">
        <ele>501.1</ele>
      </trkpt>
      <trkpt lat="44.92751" lon="4.40264">
        <ele>499.9</ele>
      </trkpt>
      <trkpt lat="44.92759" lon="4.40268">
        <ele>499.5</ele>
      </trkpt>
      <trkpt lat="44.92767" lon="4.40274">
        <ele>499</ele>
      </trkpt>
      <trkpt lat="44.92781" lon="4.40288">
        <ele>498.4</ele>
      </trkpt>
      <trkpt lat="44.92819" lon="4.4035">
        <ele>510.3</ele>
      </trkpt>
      <trkpt lat="44.92831" lon="4.40364">
        <ele>514.3</ele>
      </trkpt>
      <trkpt lat="44.92843" lon="4.40375">
        <ele>504.1</ele>
      </trkpt>
      <trkpt lat="44.92857" lon="4.40384">
        <ele>505.7</ele>
      </trkpt>
      <trkpt lat="44.92888" lon="4.40396">
        <ele>505.4</ele>
      </trkpt>
      <trkpt lat="44.92907" lon="4.40398">
        <ele>506</ele>
      </trkpt>
      <trkpt lat="44.92933" lon="4.40389">
        <ele>505.6</ele>
      </trkpt>
      <trkpt lat="44.93012" lon="4.40349">
        <ele>511.5</ele>
      </trkpt>
      <trkpt lat="44.93023" lon="4.4034">
        <ele>513.2</ele>
      </trkpt>
      <trkpt lat="44.93027" lon="4.40337">
        <ele>514.4</ele>
      </trkpt>
      <trkpt lat="44.93041" lon="4.4032">
        <ele>500.6</ele>
      </trkpt>
      <trkpt lat="44.93059" lon="4.40286">
        <ele>498.6</ele>
      </trkpt>
      <trkpt lat="44.93088" lon="4.40239">
        <ele>497.9</ele>
      </trkpt>
      <trkpt lat="44.93111" lon="4.40218">
        <ele>499</ele>
      </trkpt>
      <trkpt lat="44.93122" lon="4.40213">
        <ele>499.9</ele>
      </trkpt>
      <trkpt lat="44.93144" lon="4.40208">
        <ele>501.9</ele>
      </trkpt>
      <trkpt lat="44.93173" lon="4.40213">
        <ele>503.4</ele>
      </trkpt>
      <trkpt lat="44.93189" lon="4.40222">
        <ele>503.2</ele>
      </trkpt>
      <trkpt lat="44.93206" lon="4.40236">
        <ele>501.6</ele>
      </trkpt>
      <trkpt lat="44.93213" lon="4.40245">
        <ele>500.7</ele>
      </trkpt>
      <trkpt lat="44.93246" lon="4.40308">
        <ele>515.6</ele>
      </trkpt>
      <trkpt lat="44.93259" lon="4.40326">
        <ele>508.2</ele>
      </trkpt>
      <trkpt lat="44.93283" lon="4.40359">
        <ele>516.6</ele>
      </trkpt>
      <trkpt lat="44.93367" lon="4.4046">
        <ele>513.8</ele>
      </trkpt>
      <trkpt lat="44.93393" lon="4.40488">
        <ele>510.7</ele>
      </trkpt>
      <trkpt lat="44.93407" lon="4.405">
        <ele>512.9</ele>
      </trkpt>
      <trkpt lat="44.93421" lon="4.40509">
        <ele>508.4</ele>
      </trkpt>
      <trkpt lat="44.93453" lon="4.40514">
        <ele>514.4</ele>
      </trkpt>
      <trkpt lat="44.93502" lon="4.405">
        <ele>515.4</ele>
      </trkpt>
      <trkpt lat="44.93521" lon="4.40491">
        <ele>516</ele>
      </trkpt>
      <trkpt lat="44.93537" lon="4.40476">
        <ele>517.8</ele>
      </trkpt>
      <trkpt lat="44.93552" lon="4.40457">
        <ele>517.1</ele>
      </trkpt>
      <trkpt lat="44.93587" lon="4.40378">
        <ele>522.1</ele>
      </trkpt>
      <trkpt lat="44.93598" lon="4.4034">
        <ele>514.6</ele>
      </trkpt>
      <trkpt lat="44.93604" lon="4.4022">
        <ele>507.2</ele>
      </trkpt>
      <trkpt lat="44.9361" lon="4.40182">
        <ele>506.3</ele>
      </trkpt>
      <trkpt lat="44.93624" lon="4.40153">
        <ele>503.8</ele>
      </trkpt>
      <trkpt lat="44.93643" lon="4.40131">
        <ele>505.5</ele>
      </trkpt>
      <trkpt lat="44.93663" lon="4.40119">
        <ele>506</ele>
      </trkpt>
      <trkpt lat="44.93685" lon="4.40113">
        <ele>512.2</ele>
      </trkpt>
      <trkpt lat="44.93711" lon="4.40116">
        <ele>512.6</ele>
      </trkpt>
      <trkpt lat="44.93734" lon="4.40125">
        <ele>514.1</ele>
      </trkpt>
      <trkpt lat="44.93781" lon="4.40146">
        <ele>518.4</ele>
      </trkpt>
      <trkpt lat="44.93806" lon="4.40151">
        <ele>519.6</ele>
      </trkpt>
      <trkpt lat="44.93838" lon="4.40148">
        <ele>523.5</ele>
      </trkpt>
      <trkpt lat="44.9386" lon="4.40135">
        <ele>519.3</ele>
      </trkpt>
      <trkpt lat="44.9388" lon="4.40111">
        <ele>515.4</ele>
      </trkpt>
      <trkpt lat="44.93906" lon="4.40067">
        <ele>502.5</ele>
      </trkpt>
      <trkpt lat="44.93923" lon="4.40029">
        <ele>506.6</ele>
      </trkpt>
      <trkpt lat="44.93934" lon="4.40006">
        <ele>504.6</ele>
      </trkpt>
      <trkpt lat="44.9394" lon="4.39988">
        <ele>504</ele>
      </trkpt>
      <trkpt lat="44.93951" lon="4.39943">
        <ele>506.1</ele>
      </trkpt>
      <trkpt lat="44.93956" lon="4.39898">
        <ele>506.7</ele>
      </trkpt>
      <trkpt lat="44.93954" lon="4.39754">
        <ele>507.4</ele>
      </trkpt>
      <trkpt lat="44.9395" lon="4.39597">
        <ele>510.3</ele>
      </trkpt>
      <trkpt lat="44.93948" lon="4.39545">
        <ele>512.2</ele>
      </trkpt>
      <trkpt lat="44.93931" lon="4.39431">
        <ele>513.3</ele>
      </trkpt>
      <trkpt lat="44.93926" lon="4.39362">
        <ele>517.7</ele>
      </trkpt>
      <trkpt lat="44.93927" lon="4.39134">
        <ele>531.5</ele>
      </trkpt>
      <trkpt lat="44.93925" lon="4.39062">
        <ele>533.1</ele>
      </trkpt>
      <trkpt lat="44.93922" lon="4.39024">
        <ele>533.8</ele>
      </trkpt>
      <trkpt lat="44.93892" lon="4.38832">
        <ele>522.9</ele>
      </trkpt>
      <trkpt lat="44.93892" lon="4.38806">
        <ele>520.8</ele>
      </trkpt>
      <trkpt lat="44.93898" lon="4.38774">
        <ele>520.8</ele>
      </trkpt>
      <trkpt lat="44.93905" lon="4.38743">
        <ele>520.4</ele>
      </trkpt>
      <trkpt lat="44.93915" lon="4.38726">
        <ele>517.2</ele>
      </trkpt>
      <trkpt lat="44.93956" lon="4.38668">
        <ele>537.6</ele>
      </trkpt>
      <trkpt lat="44.94001" lon="4.38528">
        <ele>548.4</ele>
      </trkpt>
      <trkpt lat="44.94012" lon="4.38358">
        <ele>540.3</ele>
      </trkpt>
      <trkpt lat="44.94016" lon="4.38334">
        <ele>535.4</ele>
      </trkpt>
      <trkpt lat="44.94023" lon="4.38324">
        <ele>537.5</ele>
      </trkpt>
      <trkpt lat="44.94029" lon="4.38307">
        <ele>541.5</ele>
      </trkpt>
      <trkpt lat="44.94036" lon="4.3824">
        <ele>537.7</ele>
      </trkpt>
      <trkpt lat="44.94036" lon="4.3821">
        <ele>538.2</ele>
      </trkpt>
      <trkpt lat="44.94022" lon="4.38048">
        <ele>541.3</ele>
      </trkpt>
      <trkpt lat="44.94006" lon="4.37998">
        <ele>535.2</ele>
      </trkpt>
      <trkpt lat="44.93953" lon="4.37885">
        <ele>531.3</ele>
      </trkpt>
      <trkpt lat="44.93939" lon="4.37814">
        <ele>531.3</ele>
      </trkpt>
      <trkpt lat="44.93937" lon="4.3777">
        <ele>532.8</ele>
      </trkpt>
      <trkpt lat="44.93933" lon="4.37748">
        <ele>534.6</ele>
      </trkpt>
      <trkpt lat="44.93928" lon="4.37731">
        <ele>537.1</ele>
      </trkpt>
      <trkpt lat="44.93907" lon="4.37694">
        <ele>526.9</ele>
      </trkpt>
      <trkpt lat="44.93889" lon="4.37671">
        <ele>526.7</ele>
      </trkpt>
      <trkpt lat="44.93883" lon="4.37664">
        <ele>534.7</ele>
      </trkpt>
      <trkpt lat="44.93874" lon="4.37651">
        <ele>533.6</ele>
      </trkpt>
      <trkpt lat="44.93822" lon="4.37596">
        <ele>523.4</ele>
      </trkpt>
      <trkpt lat="44.93767" lon="4.37548">
        <ele>526.7</ele>
      </trkpt>
      <trkpt lat="44.93696" lon="4.375">
        <ele>525.1</ele>
      </trkpt>
      <trkpt lat="44.937" lon="4.37465">
        <ele>528.2</ele>
      </trkpt>
      <trkpt lat="44.93667" lon="4.37458">
        <ele>526.9</ele>
      </trkpt>
      <trkpt lat="44.93657" lon="4.37449">
        <ele>521.3</ele>
      </trkpt>
      <trkpt lat="44.93647" lon="4.37436">
        <ele>522.1</ele>
      </trkpt>
      <trkpt lat="44.93639" lon="4.37417">
        <ele>522.2</ele>
      </trkpt>
      <trkpt lat="44.93631" lon="4.37395">
        <ele>523.4</ele>
      </trkpt>
      <trkpt lat="44.93628" lon="4.37372">
        <ele>523.2</ele>
      </trkpt>
      <trkpt lat="44.93627" lon="4.37352">
        <ele>523.3</ele>
      </trkpt>
      <trkpt lat="44.93631" lon="4.37329">
        <ele>523</ele>
      </trkpt>
      <trkpt lat="44.93639" lon="4.37304">
        <ele>522.9</ele>
      </trkpt>
      <trkpt lat="44.93647" lon="4.37281">
        <ele>522.5</ele>
      </trkpt>
      <trkpt lat="44.93654" lon="4.37262">
        <ele>522.5</ele>
      </trkpt>
      <trkpt lat="44.93657" lon="4.37261">
        <ele>522.6</ele>
      </trkpt>
      <trkpt lat="44.93685" lon="4.3724">
        <ele>523.6</ele>
      </trkpt>
      <trkpt lat="44.9371" lon="4.37237">
        <ele>524.7</ele>
      </trkpt>
      <trkpt lat="44.93746" lon="4.37238">
        <ele>527.9</ele>
      </trkpt>
      <trkpt lat="44.93773" lon="4.37237">
        <ele>531.1</ele>
      </trkpt>
      <trkpt lat="44.93813" lon="4.37223">
        <ele>533.4</ele>
      </trkpt>
      <trkpt lat="44.93835" lon="4.37219">
        <ele>537.7</ele>
      </trkpt>
      <trkpt lat="44.93856" lon="4.37219">
        <ele>537.5</ele>
      </trkpt>
      <trkpt lat="44.93879" lon="4.37219">
        <ele>537.8</ele>
      </trkpt>
      <trkpt lat="44.93932" lon="4.37235">
        <ele>542.9</ele>
      </trkpt>
      <trkpt lat="44.93964" lon="4.37241">
        <ele>541.7</ele>
      </trkpt>
      <trkpt lat="44.9399" lon="4.37242">
        <ele>543.7</ele>
      </trkpt>
      <trkpt lat="44.94083" lon="4.37235">
        <ele>546.6</ele>
      </trkpt>
      <trkpt lat="44.94113" lon="4.37219">
        <ele>547.8</ele>
      </trkpt>
      <trkpt lat="44.94152" lon="4.37187">
        <ele>544.9</ele>
      </trkpt>
      <trkpt lat="44.94191" lon="4.37152">
        <ele>545.4</ele>
      </trkpt>
      <trkpt lat="44.94201" lon="4.37139">
        <ele>546.6</ele>
      </trkpt>
      <trkpt lat="44.94236" lon="4.37076">
        <ele>543.9</ele>
      </trkpt>
      <trkpt lat="44.94283" lon="4.36986">
        <ele>546.1</ele>
      </trkpt>
      <trkpt lat="44.94288" lon="4.36977">
        <ele>546.5</ele>
      </trkpt>
      <trkpt lat="44.94304" lon="4.36951">
        <ele>546.6</ele>
      </trkpt>
      <trkpt lat="44.94324" lon="4.36923">
        <ele>546.7</ele>
      </trkpt>
      <trkpt lat="44.94344" lon="4.36898">
        <ele>547.4</ele>
      </trkpt>
      <trkpt lat="44.94357" lon="4.36886">
        <ele>547.5</ele>
      </trkpt>
      <trkpt lat="44.94373" lon="4.36882">
        <ele>548.2</ele>
      </trkpt>
      <trkpt lat="44.94394" lon="4.36884">
        <ele>549.5</ele>
      </trkpt>
      <trkpt lat="44.94414" lon="4.36889">
        <ele>550.8</ele>
      </trkpt>
      <trkpt lat="44.94428" lon="4.36899">
        <ele>551.5</ele>
      </trkpt>
      <trkpt lat="44.94441" lon="4.36913">
        <ele>551</ele>
      </trkpt>
      <trkpt lat="44.94454" lon="4.36932">
        <ele>556.1</ele>
      </trkpt>
      <trkpt lat="44.94465" lon="4.36954">
        <ele>556.8</ele>
      </trkpt>
      <trkpt lat="44.94485" lon="4.36998">
        <ele>556.8</ele>
      </trkpt>
      <trkpt lat="44.94501" lon="4.37023">
        <ele>562</ele>
      </trkpt>
      <trkpt lat="44.94532" lon="4.37049">
        <ele>566.8</ele>
      </trkpt>
      <trkpt lat="44.9456" lon="4.37065">
        <ele>568.1</ele>
      </trkpt>
      <trkpt lat="44.94595" lon="4.37074">
        <ele>568.5</ele>
      </trkpt>
      <trkpt lat="44.94654" lon="4.37075">
        <ele>568.6</ele>
      </trkpt>
      <trkpt lat="44.94672" lon="4.37069">
        <ele>571.9</ele>
      </trkpt>
      <trkpt lat="44.94689" lon="4.3706">
        <ele>571</ele>
      </trkpt>
      <trkpt lat="44.94747" lon="4.37022">
        <ele>568.9</ele>
      </trkpt>
      <trkpt lat="44.94765" lon="4.37014">
        <ele>573.4</ele>
      </trkpt>
      <trkpt lat="44.94778" lon="4.37013">
        <ele>575.2</ele>
      </trkpt>
      <trkpt lat="44.948" lon="4.37018">
        <ele>577.3</ele>
      </trkpt>
      <trkpt lat="44.94861" lon="4.37054">
        <ele>581.4</ele>
      </trkpt>
      <trkpt lat="44.94871" lon="4.37058">
        <ele>581.1</ele>
      </trkpt>
      <trkpt lat="44.94875" lon="4.3706">
        <ele>581</ele>
      </trkpt>
      <trkpt lat="44.94902" lon="4.3706">
        <ele>579.9</ele>
      </trkpt>
      <trkpt lat="44.94913" lon="4.37056">
        <ele>579.5</ele>
      </trkpt>
      <trkpt lat="44.9492" lon="4.37053">
        <ele>581.8</ele>
      </trkpt>
      <trkpt lat="44.94926" lon="4.37049">
        <ele>581.8</ele>
      </trkpt>
      <trkpt lat="44.94939" lon="4.37039">
        <ele>582</ele>
      </trkpt>
      <trkpt lat="44.94945" lon="4.37033">
        <ele>582.1</ele>
      </trkpt>
      <trkpt lat="44.94955" lon="4.37018">
        <ele>582.4</ele>
      </trkpt>
      <trkpt lat="44.94962" lon="4.37007">
        <ele>582.9</ele>
      </trkpt>
      <trkpt lat="44.94981" lon="4.36958">
        <ele>578.2</ele>
      </trkpt>
      <trkpt lat="44.94988" lon="4.36937">
        <ele>577.8</ele>
      </trkpt>
      <trkpt lat="44.94993" lon="4.36914">
        <ele>577.8</ele>
      </trkpt>
      <trkpt lat="44.94995" lon="4.36894">
        <ele>576.9</ele>
      </trkpt>
      <trkpt lat="44.94995" lon="4.3682">
        <ele>579.7</ele>
      </trkpt>
      <trkpt lat="44.94997" lon="4.36802">
        <ele>576.1</ele>
      </trkpt>
      <trkpt lat="44.95005" lon="4.36774">
        <ele>586.6</ele>
      </trkpt>
      <trkpt lat="44.95018" lon="4.36748">
        <ele>581.4</ele>
      </trkpt>
      <trkpt lat="44.95051" lon="4.36695">
        <ele>583.7</ele>
      </trkpt>
      <trkpt lat="44.9508" lon="4.36649">
        <ele>579.2</ele>
      </trkpt>
      <trkpt lat="44.9511" lon="4.3661">
        <ele>591</ele>
      </trkpt>
      <trkpt lat="44.95145" lon="4.36561">
        <ele>584.3</ele>
      </trkpt>
      <trkpt lat="44.95172" lon="4.36532">
        <ele>601.9</ele>
      </trkpt>
      <trkpt lat="44.95199" lon="4.36499">
        <ele>592.3</ele>
      </trkpt>
      <trkpt lat="44.95223" lon="4.36449">
        <ele>594</ele>
      </trkpt>
      <trkpt lat="44.95266" lon="4.36382">
        <ele>609.2</ele>
      </trkpt>
      <trkpt lat="44.95274" lon="4.36365">
        <ele>609.1</ele>
      </trkpt>
      <trkpt lat="44.95283" lon="4.36328">
        <ele>602</ele>
      </trkpt>
      <trkpt lat="44.95294" lon="4.36227">
        <ele>597.2</ele>
      </trkpt>
      <trkpt lat="44.95302" lon="4.36201">
        <ele>597.7</ele>
      </trkpt>
      <trkpt lat="44.95331" lon="4.36139">
        <ele>595.9</ele>
      </trkpt>
      <trkpt lat="44.95337" lon="4.36119">
        <ele>611.3</ele>
      </trkpt>
      <trkpt lat="44.9534" lon="4.36098">
        <ele>606</ele>
      </trkpt>
      <trkpt lat="44.95341" lon="4.36079">
        <ele>600.3</ele>
      </trkpt>
      <trkpt lat="44.9534" lon="4.36063">
        <ele>603.8</ele>
      </trkpt>
      <trkpt lat="44.95331" lon="4.35991">
        <ele>597.5</ele>
      </trkpt>
      <trkpt lat="44.95331" lon="4.35969">
        <ele>592.7</ele>
      </trkpt>
      <trkpt lat="44.95334" lon="4.35946">
        <ele>606.5</ele>
      </trkpt>
      <trkpt lat="44.95339" lon="4.35929">
        <ele>604.1</ele>
      </trkpt>
      <trkpt lat="44.95347" lon="4.35908">
        <ele>600.7</ele>
      </trkpt>
      <trkpt lat="44.95354" lon="4.35894">
        <ele>601</ele>
      </trkpt>
      <trkpt lat="44.95364" lon="4.35881">
        <ele>601.1</ele>
      </trkpt>
      <trkpt lat="44.95377" lon="4.35868">
        <ele>601.5</ele>
      </trkpt>
      <trkpt lat="44.95442" lon="4.3583">
        <ele>608.1</ele>
      </trkpt>
      <trkpt lat="44.95455" lon="4.35818">
        <ele>610.2</ele>
      </trkpt>
      <trkpt lat="44.95525" lon="4.3574">
        <ele>617.4</ele>
      </trkpt>
      <trkpt lat="44.95557" lon="4.35696">
        <ele>620.4</ele>
      </trkpt>
      <trkpt lat="44.956" lon="4.35618">
        <ele>631.8</ele>
      </trkpt>
      <trkpt lat="44.95616" lon="4.35578">
        <ele>622.1</ele>
      </trkpt>
      <trkpt lat="44.95662" lon="4.35431">
        <ele>621.9</ele>
      </trkpt>
      <trkpt lat="44.9567" lon="4.35391">
        <ele>638.6</ele>
      </trkpt>
      <trkpt lat="44.95679" lon="4.35334">
        <ele>625.8</ele>
      </trkpt>
      <trkpt lat="44.95686" lon="4.35307">
        <ele>625.1</ele>
      </trkpt>
      <trkpt lat="44.95714" lon="4.35248">
        <ele>621.2</ele>
      </trkpt>
      <trkpt lat="44.95742" lon="4.35161">
        <ele>622.4</ele>
      </trkpt>
      <trkpt lat="44.95752" lon="4.35136">
        <ele>632.8</ele>
      </trkpt>
      <trkpt lat="44.95764" lon="4.35116">
        <ele>631.8</ele>
      </trkpt>
      <trkpt lat="44.95775" lon="4.35102">
        <ele>631.3</ele>
      </trkpt>
      <trkpt lat="44.95787" lon="4.35091">
        <ele>632.4</ele>
      </trkpt>
      <trkpt lat="44.958" lon="4.35084">
        <ele>633.7</ele>
      </trkpt>
      <trkpt lat="44.95826" lon="4.35078">
        <ele>627.5</ele>
      </trkpt>
      <trkpt lat="44.95839" lon="4.35079">
        <ele>629.4</ele>
      </trkpt>
      <trkpt lat="44.95923" lon="4.3512">
        <ele>642.5</ele>
      </trkpt>
      <trkpt lat="44.95973" lon="4.35137">
        <ele>642.9</ele>
      </trkpt>
      <trkpt lat="44.95999" lon="4.35152">
        <ele>645.4</ele>
      </trkpt>
      <trkpt lat="44.96014" lon="4.35169">
        <ele>645.8</ele>
      </trkpt>
      <trkpt lat="44.96028" lon="4.35191">
        <ele>643.5</ele>
      </trkpt>
      <trkpt lat="44.96056" lon="4.35319">
        <ele>657</ele>
      </trkpt>
      <trkpt lat="44.96085" lon="4.35373">
        <ele>640.6</ele>
      </trkpt>
      <trkpt lat="44.96098" lon="4.35391">
        <ele>643.3</ele>
      </trkpt>
      <trkpt lat="44.96107" lon="4.3541">
        <ele>644.8</ele>
      </trkpt>
      <trkpt lat="44.96112" lon="4.35432">
        <ele>650.5</ele>
      </trkpt>
      <trkpt lat="44.96115" lon="4.35458">
        <ele>649.7</ele>
      </trkpt>
      <trkpt lat="44.96109" lon="4.35503">
        <ele>657.3</ele>
      </trkpt>
      <trkpt lat="44.96072" lon="4.3562">
        <ele>678.1</ele>
      </trkpt>
      <trkpt lat="44.96069" lon="4.35645">
        <ele>676.8</ele>
      </trkpt>
      <trkpt lat="44.9607" lon="4.35673">
        <ele>674.2</ele>
      </trkpt>
      <trkpt lat="44.96074" lon="4.35696">
        <ele>678.5</ele>
      </trkpt>
      <trkpt lat="44.96081" lon="4.35718">
        <ele>679.6</ele>
      </trkpt>
      <trkpt lat="44.96099" lon="4.3575">
        <ele>667.9</ele>
      </trkpt>
      <trkpt lat="44.96109" lon="4.35764">
        <ele>672.3</ele>
      </trkpt>
      <trkpt lat="44.96128" lon="4.35776">
        <ele>670.7</ele>
      </trkpt>
      <trkpt lat="44.96143" lon="4.35781">
        <ele>669.3</ele>
      </trkpt>
      <trkpt lat="44.96154" lon="4.35783">
        <ele>668.4</ele>
      </trkpt>
      <trkpt lat="44.96177" lon="4.3578">
        <ele>666.9</ele>
      </trkpt>
      <trkpt lat="44.96189" lon="4.35775">
        <ele>667.5</ele>
      </trkpt>
      <trkpt lat="44.96196" lon="4.35772">
        <ele>668.2</ele>
      </trkpt>
      <trkpt lat="44.96201" lon="4.35768">
        <ele>668.6</ele>
      </trkpt>
      <trkpt lat="44.9622" lon="4.35755">
        <ele>670.6</ele>
      </trkpt>
      <trkpt lat="44.96244" lon="4.35737">
        <ele>667.6</ele>
      </trkpt>
      <trkpt lat="44.96298" lon="4.35723">
        <ele>666.9</ele>
      </trkpt>
      <trkpt lat="44.96329" lon="4.35726">
        <ele>668.1</ele>
      </trkpt>
      <trkpt lat="44.96355" lon="4.35714">
        <ele>671.5</ele>
      </trkpt>
      <trkpt lat="44.96379" lon="4.35694">
        <ele>672.2</ele>
      </trkpt>
      <trkpt lat="44.96397" lon="4.35668">
        <ele>674.3</ele>
      </trkpt>
      <trkpt lat="44.96407" lon="4.35634">
        <ele>666.5</ele>
      </trkpt>
      <trkpt lat="44.96428" lon="4.35544">
        <ele>674.2</ele>
      </trkpt>
      <trkpt lat="44.96445" lon="4.355">
        <ele>672.4</ele>
      </trkpt>
      <trkpt lat="44.96496" lon="4.35403">
        <ele>661</ele>
      </trkpt>
      <trkpt lat="44.96547" lon="4.35345">
        <ele>675.6</ele>
      </trkpt>
      <trkpt lat="44.96567" lon="4.35325">
        <ele>670</ele>
      </trkpt>
      <trkpt lat="44.96583" lon="4.3529">
        <ele>663.5</ele>
      </trkpt>
      <trkpt lat="44.966" lon="4.35247">
        <ele>667.1</ele>
      </trkpt>
      <trkpt lat="44.96625" lon="4.35218">
        <ele>668.8</ele>
      </trkpt>
      <trkpt lat="44.96642" lon="4.35206">
        <ele>669.4</ele>
      </trkpt>
      <trkpt lat="44.9666" lon="4.35199">
        <ele>669.8</ele>
      </trkpt>
      <trkpt lat="44.96678" lon="4.35197">
        <ele>674.4</ele>
      </trkpt>
      <trkpt lat="44.96693" lon="4.35199">
        <ele>674.7</ele>
      </trkpt>
      <trkpt lat="44.96709" lon="4.35205">
        <ele>675</ele>
      </trkpt>
      <trkpt lat="44.96735" lon="4.35228">
        <ele>677.5</ele>
      </trkpt>
      <trkpt lat="44.96746" lon="4.35242">
        <ele>680</ele>
      </trkpt>
      <trkpt lat="44.96755" lon="4.3526">
        <ele>678.5</ele>
      </trkpt>
      <trkpt lat="44.96761" lon="4.35277">
        <ele>676.2</ele>
      </trkpt>
      <trkpt lat="44.96769" lon="4.35308">
        <ele>677.4</ele>
      </trkpt>
      <trkpt lat="44.96782" lon="4.35356">
        <ele>682</ele>
      </trkpt>
      <trkpt lat="44.96787" lon="4.35375">
        <ele>681.9</ele>
      </trkpt>
      <trkpt lat="44.9679" lon="4.35385">
        <ele>682</ele>
      </trkpt>
      <trkpt lat="44.96824" lon="4.35486">
        <ele>691.9</ele>
      </trkpt>
      <trkpt lat="44.96833" lon="4.35501">
        <ele>690.8</ele>
      </trkpt>
      <trkpt lat="44.9685" lon="4.3554">
        <ele>687.1</ele>
      </trkpt>
      <trkpt lat="44.96864" lon="4.3557">
        <ele>688.4</ele>
      </trkpt>
      <trkpt lat="44.9688" lon="4.3559">
        <ele>696.7</ele>
      </trkpt>
      <trkpt lat="44.96897" lon="4.35609">
        <ele>695.6</ele>
      </trkpt>
      <trkpt lat="44.96916" lon="4.35616">
        <ele>695</ele>
      </trkpt>
      <trkpt lat="44.96955" lon="4.35615">
        <ele>694.9</ele>
      </trkpt>
      <trkpt lat="44.96984" lon="4.35598">
        <ele>695.3</ele>
      </trkpt>
      <trkpt lat="44.97012" lon="4.35572">
        <ele>691.6</ele>
      </trkpt>
      <trkpt lat="44.97031" lon="4.35557">
        <ele>690.2</ele>
      </trkpt>
      <trkpt lat="44.97055" lon="4.35549">
        <ele>691</ele>
      </trkpt>
      <trkpt lat="44.97097" lon="4.3555">
        <ele>701.2</ele>
      </trkpt>
      <trkpt lat="44.97114" lon="4.35547">
        <ele>701.4</ele>
      </trkpt>
      <trkpt lat="44.97136" lon="4.35538">
        <ele>701.4</ele>
      </trkpt>
      <trkpt lat="44.9718" lon="4.35502">
        <ele>701.7</ele>
      </trkpt>
      <trkpt lat="44.972" lon="4.35483">
        <ele>691.3</ele>
      </trkpt>
      <trkpt lat="44.97218" lon="4.35469">
        <ele>691.6</ele>
      </trkpt>
      <trkpt lat="44.97236" lon="4.35458">
        <ele>691.4</ele>
      </trkpt>
      <trkpt lat="44.97247" lon="4.35454">
        <ele>691.2</ele>
      </trkpt>
      <trkpt lat="44.97275" lon="4.35455">
        <ele>694.4</ele>
      </trkpt>
      <trkpt lat="44.97295" lon="4.35463">
        <ele>694.8</ele>
      </trkpt>
      <trkpt lat="44.97315" lon="4.3548">
        <ele>697.1</ele>
      </trkpt>
      <trkpt lat="44.97325" lon="4.35491">
        <ele>699.6</ele>
      </trkpt>
      <trkpt lat="44.97348" lon="4.35527">
        <ele>699.9</ele>
      </trkpt>
      <trkpt lat="44.97371" lon="4.35558">
        <ele>699.5</ele>
      </trkpt>
      <trkpt lat="44.97403" lon="4.35605">
        <ele>707.3</ele>
      </trkpt>
      <trkpt lat="44.9741" lon="4.35623">
        <ele>710.6</ele>
      </trkpt>
      <trkpt lat="44.97416" lon="4.35643">
        <ele>712.7</ele>
      </trkpt>
      <trkpt lat="44.97419" lon="4.35666">
        <ele>709.3</ele>
      </trkpt>
      <trkpt lat="44.9742" lon="4.35707">
        <ele>699.2</ele>
      </trkpt>
      <trkpt lat="44.9742" lon="4.35748">
        <ele>711.5</ele>
      </trkpt>
      <trkpt lat="44.97415" lon="4.35851">
        <ele>733.3</ele>
      </trkpt>
      <trkpt lat="44.97418" lon="4.35875">
        <ele>711.6</ele>
      </trkpt>
      <trkpt lat="44.97422" lon="4.35897">
        <ele>716.8</ele>
      </trkpt>
      <trkpt lat="44.9743" lon="4.35917">
        <ele>726.4</ele>
      </trkpt>
      <trkpt lat="44.97464" lon="4.35977">
        <ele>720.1</ele>
      </trkpt>
      <trkpt lat="44.97476" lon="4.36005">
        <ele>726.9</ele>
      </trkpt>
      <trkpt lat="44.97483" lon="4.36031">
        <ele>729.8</ele>
      </trkpt>
      <trkpt lat="44.9749" lon="4.36081">
        <ele>728.2</ele>
      </trkpt>
      <trkpt lat="44.97497" lon="4.36107">
        <ele>737.7</ele>
      </trkpt>
      <trkpt lat="44.97501" lon="4.36117">
        <ele>723.7</ele>
      </trkpt>
      <trkpt lat="44.97505" lon="4.36126">
        <ele>724.4</ele>
      </trkpt>
      <trkpt lat="44.97513" lon="4.36138">
        <ele>725.5</ele>
      </trkpt>
      <trkpt lat="44.97526" lon="4.36151">
        <ele>725.9</ele>
      </trkpt>
      <trkpt lat="44.97552" lon="4.36168">
        <ele>738.4</ele>
      </trkpt>
      <trkpt lat="44.97566" lon="4.36172">
        <ele>736.4</ele>
      </trkpt>
      <trkpt lat="44.97579" lon="4.36172">
        <ele>732.7</ele>
      </trkpt>
      <trkpt lat="44.97588" lon="4.36172">
        <ele>733.2</ele>
      </trkpt>
      <trkpt lat="44.97642" lon="4.36158">
        <ele>722.4</ele>
      </trkpt>
      <trkpt lat="44.97657" lon="4.36158">
        <ele>725.2</ele>
      </trkpt>
      <trkpt lat="44.97694" lon="4.36163">
        <ele>719.6</ele>
      </trkpt>
      <trkpt lat="44.9771" lon="4.36172">
        <ele>733.8</ele>
      </trkpt>
      <trkpt lat="44.97724" lon="4.36195">
        <ele>735</ele>
      </trkpt>
      <trkpt lat="44.97732" lon="4.36215">
        <ele>737.9</ele>
      </trkpt>
      <trkpt lat="44.97757" lon="4.36306">
        <ele>739.6</ele>
      </trkpt>
      <trkpt lat="44.97764" lon="4.36323">
        <ele>742.3</ele>
      </trkpt>
      <trkpt lat="44.97768" lon="4.3633">
        <ele>741.9</ele>
      </trkpt>
      <trkpt lat="44.97778" lon="4.36346">
        <ele>742.6</ele>
      </trkpt>
      <trkpt lat="44.9779" lon="4.36359">
        <ele>740.4</ele>
      </trkpt>
      <trkpt lat="44.97806" lon="4.3637">
        <ele>738.8</ele>
      </trkpt>
      <trkpt lat="44.97828" lon="4.36376">
        <ele>737.6</ele>
      </trkpt>
      <trkpt lat="44.97845" lon="4.36375">
        <ele>739.7</ele>
      </trkpt>
      <trkpt lat="44.97877" lon="4.36364">
        <ele>742.5</ele>
      </trkpt>
      <trkpt lat="44.97882" lon="4.36362">
        <ele>743</ele>
      </trkpt>
      <trkpt lat="44.97889" lon="4.36356">
        <ele>743.5</ele>
      </trkpt>
      <trkpt lat="44.97904" lon="4.36351">
        <ele>744.7</ele>
      </trkpt>
      <trkpt lat="44.97925" lon="4.36344">
        <ele>747.8</ele>
      </trkpt>
      <trkpt lat="44.97935" lon="4.36342">
        <ele>747.9</ele>
      </trkpt>
      <trkpt lat="44.97961" lon="4.36347">
        <ele>747.4</ele>
      </trkpt>
      <trkpt lat="44.9797" lon="4.3635">
        <ele>746.9</ele>
      </trkpt>
      <trkpt lat="44.97988" lon="4.36362">
        <ele>746.8</ele>
      </trkpt>
      <trkpt lat="44.98005" lon="4.36385">
        <ele>735.9</ele>
      </trkpt>
      <trkpt lat="44.98035" lon="4.36458">
        <ele>746.2</ele>
      </trkpt>
      <trkpt lat="44.98082" lon="4.36615">
        <ele>769.2</ele>
      </trkpt>
      <trkpt lat="44.98112" lon="4.36673">
        <ele>762.1</ele>
      </trkpt>
      <trkpt lat="44.98123" lon="4.36698">
        <ele>761.1</ele>
      </trkpt>
      <trkpt lat="44.98133" lon="4.36718">
        <ele>761</ele>
      </trkpt>
      <trkpt lat="44.98152" lon="4.36742">
        <ele>758.9</ele>
      </trkpt>
      <trkpt lat="44.98167" lon="4.36756">
        <ele>758.6</ele>
      </trkpt>
      <trkpt lat="44.98193" lon="4.36769">
        <ele>764.6</ele>
      </trkpt>
      <trkpt lat="44.98205" lon="4.36771">
        <ele>765.7</ele>
      </trkpt>
      <trkpt lat="44.98232" lon="4.36764">
        <ele>765</ele>
      </trkpt>
      <trkpt lat="44.98324" lon="4.36717">
        <ele>759.3</ele>
      </trkpt>
      <trkpt lat="44.98349" lon="4.36708">
        <ele>760.2</ele>
      </trkpt>
      <trkpt lat="44.98359" lon="4.36707">
        <ele>759.8</ele>
      </trkpt>
      <trkpt lat="44.98384" lon="4.36713">
        <ele>760.3</ele>
      </trkpt>
      <trkpt lat="44.98413" lon="4.36733">
        <ele>764.6</ele>
      </trkpt>
      <trkpt lat="44.98422" lon="4.36745">
        <ele>763.1</ele>
      </trkpt>
      <trkpt lat="44.98428" lon="4.36756">
        <ele>766.2</ele>
      </trkpt>
      <trkpt lat="44.98442" lon="4.36791">
        <ele>764.6</ele>
      </trkpt>
      <trkpt lat="44.98476" lon="4.36914">
        <ele>774.5</ele>
      </trkpt>
      <trkpt lat="44.98515" lon="4.37067">
        <ele>772.5</ele>
      </trkpt>
      <trkpt lat="44.98518" lon="4.37091">
        <ele>776.6</ele>
      </trkpt>
      <trkpt lat="44.98517" lon="4.3712">
        <ele>773.7</ele>
      </trkpt>
      <trkpt lat="44.98503" lon="4.37235">
        <ele>782.5</ele>
      </trkpt>
      <trkpt lat="44.98502" lon="4.37265">
        <ele>784.9</ele>
      </trkpt>
      <trkpt lat="44.98503" lon="4.37321">
        <ele>790.8</ele>
      </trkpt>
      <trkpt lat="44.98506" lon="4.3734">
        <ele>797.1</ele>
      </trkpt>
      <trkpt lat="44.98518" lon="4.37373">
        <ele>793.5</ele>
      </trkpt>
      <trkpt lat="44.98525" lon="4.37384">
        <ele>793.6</ele>
      </trkpt>
      <trkpt lat="44.98533" lon="4.37396">
        <ele>793.3</ele>
      </trkpt>
      <trkpt lat="44.98578" lon="4.37443">
        <ele>799.6</ele>
      </trkpt>
      <trkpt lat="44.98587" lon="4.37454">
        <ele>782.2</ele>
      </trkpt>
      <trkpt lat="44.98596" lon="4.37468">
        <ele>784.1</ele>
      </trkpt>
      <trkpt lat="44.98601" lon="4.37483">
        <ele>787.1</ele>
      </trkpt>
      <trkpt lat="44.98605" lon="4.37501">
        <ele>794.5</ele>
      </trkpt>
      <trkpt lat="44.98612" lon="4.37614">
        <ele>800.1</ele>
      </trkpt>
      <trkpt lat="44.98618" lon="4.37638">
        <ele>800.7</ele>
      </trkpt>
      <trkpt lat="44.98638" lon="4.37693">
        <ele>810.1</ele>
      </trkpt>
      <trkpt lat="44.98669" lon="4.37767">
        <ele>805.8</ele>
      </trkpt>
      <trkpt lat="44.9869" lon="4.37804">
        <ele>806.6</ele>
      </trkpt>
      <trkpt lat="44.98729" lon="4.37843">
        <ele>814.2</ele>
      </trkpt>
      <trkpt lat="44.98793" lon="4.37885">
        <ele>803.5</ele>
      </trkpt>
      <trkpt lat="44.9886" lon="4.37904">
        <ele>794</ele>
      </trkpt>
      <trkpt lat="44.98884" lon="4.37921">
        <ele>804.4</ele>
      </trkpt>
      <trkpt lat="44.98898" lon="4.37936">
        <ele>803.4</ele>
      </trkpt>
      <trkpt lat="44.9891" lon="4.37956">
        <ele>806.3</ele>
      </trkpt>
      <trkpt lat="44.98916" lon="4.37973">
        <ele>808.7</ele>
      </trkpt>
      <trkpt lat="44.98919" lon="4.37986">
        <ele>804.7</ele>
      </trkpt>
      <trkpt lat="44.98924" lon="4.38011">
        <ele>809.9</ele>
      </trkpt>
      <trkpt lat="44.98928" lon="4.38031">
        <ele>809.6</ele>
      </trkpt>
      <trkpt lat="44.98934" lon="4.3806">
        <ele>810.7</ele>
      </trkpt>
      <trkpt lat="44.98947" lon="4.38099">
        <ele>819.5</ele>
      </trkpt>
      <trkpt lat="44.98952" lon="4.38108">
        <ele>820.1</ele>
      </trkpt>
      <trkpt lat="44.98963" lon="4.38123">
        <ele>821</ele>
      </trkpt>
      <trkpt lat="44.98983" lon="4.38141">
        <ele>821.8</ele>
      </trkpt>
      <trkpt lat="44.98992" lon="4.38147">
        <ele>822.2</ele>
      </trkpt>
      <trkpt lat="44.99005" lon="4.38151">
        <ele>819.4</ele>
      </trkpt>
      <trkpt lat="44.99013" lon="4.38152">
        <ele>819</ele>
      </trkpt>
      <trkpt lat="44.9903" lon="4.38151">
        <ele>817.8</ele>
      </trkpt>
      <trkpt lat="44.99039" lon="4.38149">
        <ele>817.5</ele>
      </trkpt>
      <trkpt lat="44.99061" lon="4.38139">
        <ele>817.1</ele>
      </trkpt>
      <trkpt lat="44.9907" lon="4.38131">
        <ele>816.3</ele>
      </trkpt>
      <trkpt lat="44.99082" lon="4.38117">
        <ele>814.3</ele>
      </trkpt>
      <trkpt lat="44.991" lon="4.38089">
        <ele>822.9</ele>
      </trkpt>
      <trkpt lat="44.99116" lon="4.38055">
        <ele>821.8</ele>
      </trkpt>
      <trkpt lat="44.99128" lon="4.38018">
        <ele>822.6</ele>
      </trkpt>
      <trkpt lat="44.99132" lon="4.38">
        <ele>820.6</ele>
      </trkpt>
      <trkpt lat="44.99136" lon="4.37983">
        <ele>821.6</ele>
      </trkpt>
      <trkpt lat="44.99138" lon="4.37964">
        <ele>821.6</ele>
      </trkpt>
      <trkpt lat="44.99139" lon="4.37948">
        <ele>822.3</ele>
      </trkpt>
      <trkpt lat="44.99139" lon="4.3793">
        <ele>823.7</ele>
      </trkpt>
      <trkpt lat="44.99133" lon="4.37897">
        <ele>827.1</ele>
      </trkpt>
      <trkpt lat="44.99117" lon="4.37845">
        <ele>825.6</ele>
      </trkpt>
      <trkpt lat="44.99092" lon="4.37778">
        <ele>839.5</ele>
      </trkpt>
      <trkpt lat="44.99086" lon="4.37754">
        <ele>840.3</ele>
      </trkpt>
      <trkpt lat="44.99084" lon="4.37741">
        <ele>844.6</ele>
      </trkpt>
      <trkpt lat="44.99085" lon="4.37708">
        <ele>851.5</ele>
      </trkpt>
      <trkpt lat="44.99088" lon="4.37687">
        <ele>852.5</ele>
      </trkpt>
      <trkpt lat="44.99095" lon="4.37663">
        <ele>849.1</ele>
      </trkpt>
      <trkpt lat="44.99112" lon="4.37628">
        <ele>844.8</ele>
      </trkpt>
      <trkpt lat="44.99121" lon="4.37612">
        <ele>843.1</ele>
      </trkpt>
      <trkpt lat="44.99127" lon="4.37601">
        <ele>842.2</ele>
      </trkpt>
      <trkpt lat="44.99131" lon="4.37589">
        <ele>841.4</ele>
      </trkpt>
      <trkpt lat="44.99138" lon="4.37569">
        <ele>828.9</ele>
      </trkpt>
      <trkpt lat="44.99142" lon="4.37554">
        <ele>827.7</ele>
      </trkpt>
      <trkpt lat="44.99145" lon="4.37519">
        <ele>824.4</ele>
      </trkpt>
      <trkpt lat="44.99142" lon="4.37488">
        <ele>828</ele>
      </trkpt>
      <trkpt lat="44.99137" lon="4.37473">
        <ele>830</ele>
      </trkpt>
      <trkpt lat="44.9913" lon="4.37456">
        <ele>832.5</ele>
      </trkpt>
      <trkpt lat="44.99119" lon="4.37436">
        <ele>834.8</ele>
      </trkpt>
      <trkpt lat="44.99089" lon="4.37409">
        <ele>847.5</ele>
      </trkpt>
      <trkpt lat="44.99068" lon="4.37397">
        <ele>851.9</ele>
      </trkpt>
      <trkpt lat="44.99056" lon="4.37392">
        <ele>854.3</ele>
      </trkpt>
      <trkpt lat="44.9903" lon="4.3739">
        <ele>854.7</ele>
      </trkpt>
      <trkpt lat="44.99014" lon="4.37394">
        <ele>852.2</ele>
      </trkpt>
      <trkpt lat="44.98948" lon="4.37425">
        <ele>832.8</ele>
      </trkpt>
      <trkpt lat="44.9893" lon="4.37429">
        <ele>835.7</ele>
      </trkpt>
      <trkpt lat="44.98919" lon="4.37428">
        <ele>838.3</ele>
      </trkpt>
      <trkpt lat="44.98898" lon="4.37419">
        <ele>832</ele>
      </trkpt>
      <trkpt lat="44.98881" lon="4.37406">
        <ele>840.4</ele>
      </trkpt>
      <trkpt lat="44.98865" lon="4.37389">
        <ele>838.9</ele>
      </trkpt>
      <trkpt lat="44.98857" lon="4.3737">
        <ele>840.6</ele>
      </trkpt>
      <trkpt lat="44.98847" lon="4.37343">
        <ele>841</ele>
      </trkpt>
      <trkpt lat="44.98832" lon="4.37288">
        <ele>829.5</ele>
      </trkpt>
      <trkpt lat="44.9883" lon="4.37261">
        <ele>838.3</ele>
      </trkpt>
      <trkpt lat="44.9883" lon="4.3726">
        <ele>838.9</ele>
      </trkpt>
      <trkpt lat="44.98831" lon="4.37226">
        <ele>834.5</ele>
      </trkpt>
      <trkpt lat="44.98838" lon="4.372">
        <ele>858.2</ele>
      </trkpt>
      <trkpt lat="44.98847" lon="4.37178">
        <ele>854.7</ele>
      </trkpt>
      <trkpt lat="44.98857" lon="4.37162">
        <ele>849.8</ele>
      </trkpt>
      <trkpt lat="44.98865" lon="4.3715">
        <ele>851.7</ele>
      </trkpt>
      <trkpt lat="44.98885" lon="4.37123">
        <ele>853.7</ele>
      </trkpt>
      <trkpt lat="44.98892" lon="4.3711">
        <ele>853.7</ele>
      </trkpt>
      <trkpt lat="44.98898" lon="4.37095">
        <ele>854.3</ele>
      </trkpt>
      <trkpt lat="44.98902" lon="4.37084">
        <ele>855.2</ele>
      </trkpt>
      <trkpt lat="44.98906" lon="4.37062">
        <ele>850</ele>
      </trkpt>
      <trkpt lat="44.98908" lon="4.37039">
        <ele>849.3</ele>
      </trkpt>
      <trkpt lat="44.98906" lon="4.37017">
        <ele>852.1</ele>
      </trkpt>
      <trkpt lat="44.98902" lon="4.36994">
        <ele>858.4</ele>
      </trkpt>
      <trkpt lat="44.98899" lon="4.36985">
        <ele>857.6</ele>
      </trkpt>
      <trkpt lat="44.98894" lon="4.36974">
        <ele>857.1</ele>
      </trkpt>
      <trkpt lat="44.98879" lon="4.36943">
        <ele>857.6</ele>
      </trkpt>
      <trkpt lat="44.98856" lon="4.36905">
        <ele>860.8</ele>
      </trkpt>
      <trkpt lat="44.9885" lon="4.36893">
        <ele>861</ele>
      </trkpt>
      <trkpt lat="44.98844" lon="4.36864">
        <ele>862.1</ele>
      </trkpt>
      <trkpt lat="44.98842" lon="4.36836">
        <ele>856.6</ele>
      </trkpt>
      <trkpt lat="44.98843" lon="4.36817">
        <ele>862.9</ele>
      </trkpt>
      <trkpt lat="44.98845" lon="4.36797">
        <ele>866.9</ele>
      </trkpt>
      <trkpt lat="44.98849" lon="4.36758">
        <ele>863.7</ele>
      </trkpt>
      <trkpt lat="44.98848" lon="4.36735">
        <ele>869.4</ele>
      </trkpt>
      <trkpt lat="44.98842" lon="4.36707">
        <ele>874.9</ele>
      </trkpt>
      <trkpt lat="44.98832" lon="4.36681">
        <ele>854.9</ele>
      </trkpt>
      <trkpt lat="44.98825" lon="4.36662">
        <ele>862.3</ele>
      </trkpt>
      <trkpt lat="44.98804" lon="4.36604">
        <ele>858.9</ele>
      </trkpt>
      <trkpt lat="44.98793" lon="4.36567">
        <ele>864</ele>
      </trkpt>
      <trkpt lat="44.98787" lon="4.36529">
        <ele>864</ele>
      </trkpt>
      <trkpt lat="44.98783" lon="4.36495">
        <ele>869.3</ele>
      </trkpt>
      <trkpt lat="44.98774" lon="4.3645">
        <ele>871.4</ele>
      </trkpt>
      <trkpt lat="44.98767" lon="4.36429">
        <ele>869.3</ele>
      </trkpt>
      <trkpt lat="44.98748" lon="4.36386">
        <ele>854.8</ele>
      </trkpt>
      <trkpt lat="44.9874" lon="4.36363">
        <ele>856.9</ele>
      </trkpt>
      <trkpt lat="44.98732" lon="4.36331">
        <ele>864.1</ele>
      </trkpt>
      <trkpt lat="44.9873" lon="4.36303">
        <ele>859.7</ele>
      </trkpt>
      <trkpt lat="44.98729" lon="4.36261">
        <ele>861.9</ele>
      </trkpt>
      <trkpt lat="44.98736" lon="4.36211">
        <ele>858.4</ele>
      </trkpt>
      <trkpt lat="44.98738" lon="4.36186">
        <ele>860.6</ele>
      </trkpt>
      <trkpt lat="44.98736" lon="4.36104">
        <ele>862</ele>
      </trkpt>
      <trkpt lat="44.9874" lon="4.36078">
        <ele>872.1</ele>
      </trkpt>
      <trkpt lat="44.98742" lon="4.3607">
        <ele>871</ele>
      </trkpt>
      <trkpt lat="44.98748" lon="4.36052">
        <ele>869.6</ele>
      </trkpt>
      <trkpt lat="44.98756" lon="4.36038">
        <ele>887.3</ele>
      </trkpt>
      <trkpt lat="44.98765" lon="4.36023">
        <ele>887.7</ele>
      </trkpt>
      <trkpt lat="44.98775" lon="4.3601">
        <ele>888.1</ele>
      </trkpt>
      <trkpt lat="44.98799" lon="4.35994">
        <ele>880.3</ele>
      </trkpt>
      <trkpt lat="44.98812" lon="4.3599">
        <ele>881.3</ele>
      </trkpt>
      <trkpt lat="44.98827" lon="4.35987">
        <ele>883.3</ele>
      </trkpt>
      <trkpt lat="44.98844" lon="4.3599">
        <ele>878.3</ele>
      </trkpt>
      <trkpt lat="44.9886" lon="4.35997">
        <ele>873.5</ele>
      </trkpt>
      <trkpt lat="44.98908" lon="4.36029">
        <ele>888.7</ele>
      </trkpt>
      <trkpt lat="44.9892" lon="4.36035">
        <ele>888.4</ele>
      </trkpt>
      <trkpt lat="44.98932" lon="4.36039">
        <ele>889.9</ele>
      </trkpt>
      <trkpt lat="44.98956" lon="4.36043">
        <ele>891.5</ele>
      </trkpt>
      <trkpt lat="44.98972" lon="4.36041">
        <ele>891.4</ele>
      </trkpt>
      <trkpt lat="44.98992" lon="4.36035">
        <ele>889.8</ele>
      </trkpt>
      <trkpt lat="44.99015" lon="4.36023">
        <ele>893.9</ele>
      </trkpt>
      <trkpt lat="44.9906" lon="4.35989">
        <ele>877.6</ele>
      </trkpt>
      <trkpt lat="44.99074" lon="4.35981">
        <ele>879.5</ele>
      </trkpt>
      <trkpt lat="44.99113" lon="4.35967">
        <ele>885.7</ele>
      </trkpt>
      <trkpt lat="44.99126" lon="4.35965">
        <ele>886</ele>
      </trkpt>
      <trkpt lat="44.99145" lon="4.35965">
        <ele>887.4</ele>
      </trkpt>
      <trkpt lat="44.99172" lon="4.35973">
        <ele>894.2</ele>
      </trkpt>
      <trkpt lat="44.99227" lon="4.35995">
        <ele>897</ele>
      </trkpt>
      <trkpt lat="44.99244" lon="4.35995">
        <ele>901.6</ele>
      </trkpt>
      <trkpt lat="44.99298" lon="4.35975">
        <ele>894.5</ele>
      </trkpt>
      <trkpt lat="44.99315" lon="4.35971">
        <ele>894.8</ele>
      </trkpt>
      <trkpt lat="44.99327" lon="4.35971">
        <ele>895.5</ele>
      </trkpt>
      <trkpt lat="44.99347" lon="4.35975">
        <ele>891.6</ele>
      </trkpt>
      <trkpt lat="44.99361" lon="4.35984">
        <ele>891</ele>
      </trkpt>
      <trkpt lat="44.99385" lon="4.36005">
        <ele>908.5</ele>
      </trkpt>
      <trkpt lat="44.99416" lon="4.36038">
        <ele>912.1</ele>
      </trkpt>
      <trkpt lat="44.99439" lon="4.36059">
        <ele>908.6</ele>
      </trkpt>
      <trkpt lat="44.99449" lon="4.36066">
        <ele>908.7</ele>
      </trkpt>
      <trkpt lat="44.99479" lon="4.36069">
        <ele>908</ele>
      </trkpt>
      <trkpt lat="44.99519" lon="4.36057">
        <ele>908.1</ele>
      </trkpt>
      <trkpt lat="44.99573" lon="4.36031">
        <ele>906.7</ele>
      </trkpt>
      <trkpt lat="44.99616" lon="4.36006">
        <ele>916.7</ele>
      </trkpt>
      <trkpt lat="44.9967" lon="4.36">
        <ele>922.6</ele>
      </trkpt>
      <trkpt lat="44.99685" lon="4.35997">
        <ele>919.7</ele>
      </trkpt>
      <trkpt lat="44.99706" lon="4.35986">
        <ele>921.3</ele>
      </trkpt>
      <trkpt lat="44.99722" lon="4.35971">
        <ele>922</ele>
      </trkpt>
      <trkpt lat="44.99762" lon="4.35908">
        <ele>919.8</ele>
      </trkpt>
      <trkpt lat="44.99807" lon="4.35865">
        <ele>923.2</ele>
      </trkpt>
      <trkpt lat="44.99819" lon="4.35851">
        <ele>924</ele>
      </trkpt>
      <trkpt lat="44.99846" lon="4.35805">
        <ele>926.2</ele>
      </trkpt>
      <trkpt lat="44.99867" lon="4.35777">
        <ele>924.5</ele>
      </trkpt>
      <trkpt lat="44.99927" lon="4.3571">
        <ele>927.5</ele>
      </trkpt>
      <trkpt lat="44.99928" lon="4.3571">
        <ele>927.6</ele>
      </trkpt>
      <trkpt lat="44.99943" lon="4.35696">
        <ele>926.7</ele>
      </trkpt>
      <trkpt lat="44.99983" lon="4.35638">
        <ele>913.7</ele>
      </trkpt>
      <trkpt lat="44.99997" lon="4.35625">
        <ele>912.1</ele>
      </trkpt>
      <trkpt lat="45.00009" lon="4.35617">
        <ele>925.5</ele>
      </trkpt>
      <trkpt lat="45.00022" lon="4.35614">
        <ele>926.1</ele>
      </trkpt>
      <trkpt lat="45.00034" lon="4.35614">
        <ele>927.6</ele>
      </trkpt>
      <trkpt lat="45.00057" lon="4.35618">
        <ele>930.5</ele>
      </trkpt>
      <trkpt lat="45.00076" lon="4.35629">
        <ele>933.5</ele>
      </trkpt>
      <trkpt lat="45.00087" lon="4.3564">
        <ele>934.3</ele>
      </trkpt>
      <trkpt lat="45.00098" lon="4.35653">
        <ele>936</ele>
      </trkpt>
      <trkpt lat="45.00107" lon="4.35667">
        <ele>939.2</ele>
      </trkpt>
      <trkpt lat="45.00115" lon="4.35687">
        <ele>936.7</ele>
      </trkpt>
      <trkpt lat="45.00122" lon="4.35725">
        <ele>935.9</ele>
      </trkpt>
      <trkpt lat="45.00123" lon="4.35739">
        <ele>936</ele>
      </trkpt>
      <trkpt lat="45.00109" lon="4.35872">
        <ele>942.5</ele>
      </trkpt>
      <trkpt lat="45.00104" lon="4.35892">
        <ele>943.7</ele>
      </trkpt>
      <trkpt lat="45.00097" lon="4.35911">
        <ele>947.7</ele>
      </trkpt>
      <trkpt lat="45.00074" lon="4.35959">
        <ele>957</ele>
      </trkpt>
      <trkpt lat="45.00055" lon="4.36012">
        <ele>953.7</ele>
      </trkpt>
      <trkpt lat="45.00053" lon="4.36038">
        <ele>954.7</ele>
      </trkpt>
      <trkpt lat="45.00054" lon="4.36063">
        <ele>953.7</ele>
      </trkpt>
      <trkpt lat="45.00057" lon="4.36079">
        <ele>952.1</ele>
      </trkpt>
      <trkpt lat="45.00061" lon="4.36092">
        <ele>953.1</ele>
      </trkpt>
      <trkpt lat="45.00107" lon="4.36212">
        <ele>944.8</ele>
      </trkpt>
      <trkpt lat="45.00135" lon="4.36297">
        <ele>955.2</ele>
      </trkpt>
      <trkpt lat="45.00154" lon="4.36329">
        <ele>954.5</ele>
      </trkpt>
      <trkpt lat="45.00164" lon="4.3634">
        <ele>957.4</ele>
      </trkpt>
      <trkpt lat="45.00192" lon="4.36356">
        <ele>958.1</ele>
      </trkpt>
      <trkpt lat="45.00255" lon="4.36376">
        <ele>949</ele>
      </trkpt>
      <trkpt lat="45.00274" lon="4.36394">
        <ele>949.9</ele>
      </trkpt>
      <trkpt lat="45.00286" lon="4.36414">
        <ele>949.1</ele>
      </trkpt>
      <trkpt lat="45.00308" lon="4.36467">
        <ele>960.4</ele>
      </trkpt>
      <trkpt lat="45.00323" lon="4.36496">
        <ele>959.6</ele>
      </trkpt>
      <trkpt lat="45.00355" lon="4.36545">
        <ele>960.2</ele>
      </trkpt>
      <trkpt lat="45.00395" lon="4.36597">
        <ele>968.6</ele>
      </trkpt>
      <trkpt lat="45.00414" lon="4.36614">
        <ele>969.7</ele>
      </trkpt>
      <trkpt lat="45.00439" lon="4.36632">
        <ele>965.1</ele>
      </trkpt>
      <trkpt lat="45.00485" lon="4.36658">
        <ele>965.4</ele>
      </trkpt>
      <trkpt lat="45.0055" lon="4.36722">
        <ele>969.9</ele>
      </trkpt>
      <trkpt lat="45.00573" lon="4.36748">
        <ele>972.9</ele>
      </trkpt>
      <trkpt lat="45.00596" lon="4.36767">
        <ele>980.1</ele>
      </trkpt>
      <trkpt lat="45.00614" lon="4.36775">
        <ele>981.5</ele>
      </trkpt>
      <trkpt lat="45.00633" lon="4.36777">
        <ele>980.6</ele>
      </trkpt>
      <trkpt lat="45.00733" lon="4.36765">
        <ele>979</ele>
      </trkpt>
      <trkpt lat="45.00759" lon="4.36754">
        <ele>981.6</ele>
      </trkpt>
      <trkpt lat="45.00771" lon="4.36744">
        <ele>976.4</ele>
      </trkpt>
      <trkpt lat="45.00807" lon="4.36698">
        <ele>976.1</ele>
      </trkpt>
      <trkpt lat="45.00818" lon="4.36688">
        <ele>976.5</ele>
      </trkpt>
      <trkpt lat="45.00832" lon="4.36679">
        <ele>977.2</ele>
      </trkpt>
      <trkpt lat="45.00847" lon="4.36674">
        <ele>983.2</ele>
      </trkpt>
      <trkpt lat="45.00863" lon="4.36673">
        <ele>985.6</ele>
      </trkpt>
      <trkpt lat="45.0088" lon="4.36676">
        <ele>987.1</ele>
      </trkpt>
      <trkpt lat="45.00896" lon="4.36683">
        <ele>987.9</ele>
      </trkpt>
      <trkpt lat="45.00915" lon="4.36698">
        <ele>988.9</ele>
      </trkpt>
      <trkpt lat="45.00934" lon="4.36724">
        <ele>980.4</ele>
      </trkpt>
      <trkpt lat="45.00943" lon="4.36745">
        <ele>980.4</ele>
      </trkpt>
      <trkpt lat="45.00944" lon="4.36748">
        <ele>980.2</ele>
      </trkpt>
      <trkpt lat="45.00949" lon="4.36766">
        <ele>981.5</ele>
      </trkpt>
      <trkpt lat="45.00952" lon="4.36791">
        <ele>981.1</ele>
      </trkpt>
      <trkpt lat="45.00953" lon="4.36822">
        <ele>982.4</ele>
      </trkpt>
      <trkpt lat="45.00947" lon="4.36938">
        <ele>981.8</ele>
      </trkpt>
      <trkpt lat="45.00943" lon="4.36965">
        <ele>981.3</ele>
      </trkpt>
      <trkpt lat="45.00936" lon="4.36987">
        <ele>983.5</ele>
      </trkpt>
      <trkpt lat="45.00925" lon="4.37013">
        <ele>984.9</ele>
      </trkpt>
      <trkpt lat="45.00904" lon="4.37053">
        <ele>995.7</ele>
      </trkpt>
      <trkpt lat="45.00897" lon="4.3707">
        <ele>995.2</ele>
      </trkpt>
      <trkpt lat="45.00892" lon="4.37088">
        <ele>995.2</ele>
      </trkpt>
      <trkpt lat="45.00889" lon="4.37103">
        <ele>996.2</ele>
      </trkpt>
      <trkpt lat="45.00886" lon="4.37127">
        <ele>996.7</ele>
      </trkpt>
      <trkpt lat="45.00886" lon="4.37154">
        <ele>995.4</ele>
      </trkpt>
      <trkpt lat="45.00884" lon="4.37181">
        <ele>992.4</ele>
      </trkpt>
      <trkpt lat="45.00878" lon="4.3721">
        <ele>992.7</ele>
      </trkpt>
      <trkpt lat="45.00871" lon="4.37233">
        <ele>992.9</ele>
      </trkpt>
      <trkpt lat="45.00857" lon="4.37254">
        <ele>990.6</ele>
      </trkpt>
      <trkpt lat="45.00817" lon="4.37304">
        <ele>999.5</ele>
      </trkpt>
      <trkpt lat="45.00782" lon="4.37343">
        <ele>996.2</ele>
      </trkpt>
      <trkpt lat="45.00739" lon="4.37396">
        <ele>1003.2</ele>
      </trkpt>
      <trkpt lat="45.00724" lon="4.37425">
        <ele>1002.3</ele>
      </trkpt>
      <trkpt lat="45.00715" lon="4.37459">
        <ele>1003.6</ele>
      </trkpt>
      <trkpt lat="45.0071" lon="4.3749">
        <ele>1004</ele>
      </trkpt>
      <trkpt lat="45.0071" lon="4.37529">
        <ele>1005.5</ele>
      </trkpt>
      <trkpt lat="45.00717" lon="4.37561">
        <ele>1005.6</ele>
      </trkpt>
      <trkpt lat="45.0073" lon="4.37592">
        <ele>1007.4</ele>
      </trkpt>
      <trkpt lat="45.0075" lon="4.37623">
        <ele>1005.2</ele>
      </trkpt>
      <trkpt lat="45.0079" lon="4.37672">
        <ele>1010.8</ele>
      </trkpt>
      <trkpt lat="45.00806" lon="4.37692">
        <ele>1010.9</ele>
      </trkpt>
      <trkpt lat="45.00817" lon="4.37716">
        <ele>1011.8</ele>
      </trkpt>
      <trkpt lat="45.00848" lon="4.37795">
        <ele>1012</ele>
      </trkpt>
      <trkpt lat="45.0086" lon="4.37815">
        <ele>1012.7</ele>
      </trkpt>
      <trkpt lat="45.00879" lon="4.37839">
        <ele>1018.3</ele>
      </trkpt>
      <trkpt lat="45.00892" lon="4.37849">
        <ele>1017.6</ele>
      </trkpt>
      <trkpt lat="45.00909" lon="4.37857">
        <ele>1017.2</ele>
      </trkpt>
      <trkpt lat="45.00938" lon="4.37868">
        <ele>1014.5</ele>
      </trkpt>
      <trkpt lat="45.00961" lon="4.37882">
        <ele>1015</ele>
      </trkpt>
      <trkpt lat="45.00971" lon="4.3789">
        <ele>1015.4</ele>
      </trkpt>
      <trkpt lat="45.00995" lon="4.37919">
        <ele>1020.6</ele>
      </trkpt>
      <trkpt lat="45.01008" lon="4.37947">
        <ele>1012.8</ele>
      </trkpt>
      <trkpt lat="45.01036" lon="4.38038">
        <ele>1016.8</ele>
      </trkpt>
      <trkpt lat="45.01046" lon="4.38058">
        <ele>1017</ele>
      </trkpt>
      <trkpt lat="45.0105" lon="4.38064">
        <ele>1017.1</ele>
      </trkpt>
      <trkpt lat="45.01057" lon="4.38076">
        <ele>1017.3</ele>
      </trkpt>
      <trkpt lat="45.01102" lon="4.38117">
        <ele>1020.2</ele>
      </trkpt>
      <trkpt lat="45.01117" lon="4.38137">
        <ele>1021</ele>
      </trkpt>
      <trkpt lat="45.01133" lon="4.38165">
        <ele>1021.4</ele>
      </trkpt>
      <trkpt lat="45.0114" lon="4.38183">
        <ele>1025.7</ele>
      </trkpt>
      <trkpt lat="45.01144" lon="4.38204">
        <ele>1026.5</ele>
      </trkpt>
      <trkpt lat="45.01144" lon="4.38222">
        <ele>1027.1</ele>
      </trkpt>
      <trkpt lat="45.01142" lon="4.38252">
        <ele>1030.2</ele>
      </trkpt>
      <trkpt lat="45.0114" lon="4.38264">
        <ele>1030.6</ele>
      </trkpt>
      <trkpt lat="45.01098" lon="4.38404">
        <ele>1035.7</ele>
      </trkpt>
      <trkpt lat="45.01088" lon="4.38467">
        <ele>1036</ele>
      </trkpt>
      <trkpt lat="45.01089" lon="4.38523">
        <ele>1036.4</ele>
      </trkpt>
      <trkpt lat="45.01098" lon="4.38574">
        <ele>1036.3</ele>
      </trkpt>
      <trkpt lat="45.01111" lon="4.38614">
        <ele>1038</ele>
      </trkpt>
      <trkpt lat="45.01123" lon="4.38642">
        <ele>1038.5</ele>
      </trkpt>
      <trkpt lat="45.01131" lon="4.38655">
        <ele>1038.9</ele>
      </trkpt>
      <trkpt lat="45.01137" lon="4.38666">
        <ele>1039.2</ele>
      </trkpt>
      <trkpt lat="45.01131" lon="4.38676">
        <ele>1038.9</ele>
      </trkpt>
      <trkpt lat="45.01113" lon="4.38708">
        <ele>1038.2</ele>
      </trkpt>
      <trkpt lat="45.01105" lon="4.38739">
        <ele>1037.6</ele>
      </trkpt>
      <trkpt lat="45.01102" lon="4.38757">
        <ele>1037.7</ele>
      </trkpt>
      <trkpt lat="45.01101" lon="4.38767">
        <ele>1037.9</ele>
      </trkpt>
      <trkpt lat="45.0109" lon="4.38773">
        <ele>1037.9</ele>
      </trkpt>
      <trkpt lat="45.01089" lon="4.38786">
        <ele>1038.3</ele>
      </trkpt>
      <trkpt lat="45.01087" lon="4.38822">
        <ele>1038.9</ele>
      </trkpt>
      <trkpt lat="45.01086" lon="4.3885">
        <ele>1040.2</ele>
      </trkpt>
      <trkpt lat="45.01077" lon="4.39003">
        <ele>1046.5</ele>
      </trkpt>
      <trkpt lat="45.01075" lon="4.39041">
        <ele>1048.1</ele>
      </trkpt>
      <trkpt lat="45.01064" lon="4.39122">
        <ele>1052.4</ele>
      </trkpt>
      <trkpt lat="45.01049" lon="4.39181">
        <ele>1055</ele>
      </trkpt>
      <trkpt lat="45.01041" lon="4.39208">
        <ele>1055.5</ele>
      </trkpt>
      <trkpt lat="45.01023" lon="4.39245">
        <ele>1056.5</ele>
      </trkpt>
      <trkpt lat="45.01005" lon="4.39303">
        <ele>1058.3</ele>
      </trkpt>
      <trkpt lat="45.00988" lon="4.39355">
        <ele>1060</ele>
      </trkpt>
      <trkpt lat="45.00976" lon="4.39385">
        <ele>1060.8</ele>
      </trkpt>
      <trkpt lat="45.00973" lon="4.39394">
        <ele>1061</ele>
      </trkpt>
      <trkpt lat="45.00961" lon="4.39427">
        <ele>1061.8</ele>
      </trkpt>
      <trkpt lat="45.00959" lon="4.39431">
        <ele>1061.7</ele>
      </trkpt>
      <trkpt lat="45.00982" lon="4.39446">
        <ele>1062.5</ele>
      </trkpt>
      <trkpt lat="45.00999" lon="4.39457">
        <ele>1063</ele>
      </trkpt>
      <trkpt lat="45.00983" lon="4.39516">
        <ele>1064.1</ele>
      </trkpt>
      <trkpt lat="45.00981" lon="4.39528">
        <ele>1063.9</ele>
      </trkpt>
      <trkpt lat="45.00984" lon="4.39534">
        <ele>1063.9</ele>
      </trkpt>
      <trkpt lat="45.01002" lon="4.39544">
        <ele>1069</ele>
      </trkpt>
      <trkpt lat="45.01006" lon="4.39546">
        <ele>1069.1</ele>
      </trkpt>
      <trkpt lat="45.00999" lon="4.39565">
        <ele>1065.1</ele>
      </trkpt>
      <trkpt lat="45.00992" lon="4.3958">
        <ele>1065.8</ele>
      </trkpt>
      <trkpt lat="45.00989" lon="4.39587">
        <ele>1066.7</ele>
      </trkpt>
      <trkpt lat="45.00985" lon="4.39595">
        <ele>1066.5</ele>
      </trkpt>
      <trkpt lat="45.00977" lon="4.39607">
        <ele>1066.4</ele>
      </trkpt>
      <trkpt lat="45.00965" lon="4.39627">
        <ele>1066.5</ele>
      </trkpt>
      <trkpt lat="45.0096" lon="4.39637">
        <ele>1066.6</ele>
      </trkpt>
      <trkpt lat="45.00956" lon="4.39649">
        <ele>1066.8</ele>
      </trkpt>
      <trkpt lat="45.00955" lon="4.39655">
        <ele>1066.8</ele>
      </trkpt>
      <trkpt lat="45.00951" lon="4.39672">
        <ele>1069.3</ele>
      </trkpt>
      <trkpt lat="45.00948" lon="4.39681">
        <ele>1069.2</ele>
      </trkpt>
      <trkpt lat="45.0094" lon="4.39717">
        <ele>1069.7</ele>
      </trkpt>
      <trkpt lat="45.00928" lon="4.39767">
        <ele>1069.9</ele>
      </trkpt>
      <trkpt lat="45.00921" lon="4.39791">
        <ele>1070.1</ele>
      </trkpt>
      <trkpt lat="45.00916" lon="4.3982">
        <ele>1066.5</ele>
      </trkpt>
      <trkpt lat="45.00911" lon="4.39851">
        <ele>1065.5</ele>
      </trkpt>
      <trkpt lat="45.00936" lon="4.39831">
        <ele>1069.5</ele>
      </trkpt>
      <trkpt lat="45.00936" lon="4.39831">
        <ele>1069</ele>
      </trkpt>
      <trkpt lat="45.00927" lon="4.39822">
        <ele>1069.1</ele>
      </trkpt>
      <trkpt lat="45.00921" lon="4.39821">
        <ele>1068.8</ele>
      </trkpt>
      <trkpt lat="45.00916" lon="4.3982">
        <ele>1066.5</ele>
      </trkpt>
      <trkpt lat="45.00921" lon="4.39791">
        <ele>1070.1</ele>
      </trkpt>
      <trkpt lat="45.00928" lon="4.39767">
        <ele>1069.9</ele>
      </trkpt>
      <trkpt lat="45.0094" lon="4.39717">
        <ele>1069.7</ele>
      </trkpt>
      <trkpt lat="45.00948" lon="4.39681">
        <ele>1069.2</ele>
      </trkpt>
      <trkpt lat="45.00951" lon="4.39672">
        <ele>1069.3</ele>
      </trkpt>
      <trkpt lat="45.00955" lon="4.39655">
        <ele>1066.8</ele>
      </trkpt>
      <trkpt lat="45.00956" lon="4.39649">
        <ele>1066.8</ele>
      </trkpt>
      <trkpt lat="45.0096" lon="4.39637">
        <ele>1066.6</ele>
      </trkpt>
      <trkpt lat="45.00965" lon="4.39627">
        <ele>1066.5</ele>
      </trkpt>
      <trkpt lat="45.00977" lon="4.39607">
        <ele>1066.4</ele>
      </trkpt>
      <trkpt lat="45.00985" lon="4.39595">
        <ele>1066.5</ele>
      </trkpt>
      <trkpt lat="45.00989" lon="4.39587">
        <ele>1066.7</ele>
      </trkpt>
      <trkpt lat="45.00992" lon="4.3958">
        <ele>1065.8</ele>
      </trkpt>
      <trkpt lat="45.00999" lon="4.39565">
        <ele>1065.1</ele>
      </trkpt>
      <trkpt lat="45.01006" lon="4.39546">
        <ele>1069.1</ele>
      </trkpt>
      <trkpt lat="45.01014" lon="4.39517">
        <ele>1068.6</ele>
      </trkpt>
      <trkpt lat="45.01018" lon="4.39502">
        <ele>1068.4</ele>
      </trkpt>
      <trkpt lat="45.01023" lon="4.39486">
        <ele>1067.4</ele>
      </trkpt>
      <trkpt lat="45.01026" lon="4.39475">
        <ele>1067.5</ele>
      </trkpt>
      <trkpt lat="45.01029" lon="4.39469">
        <ele>1067.5</ele>
      </trkpt>
      <trkpt lat="45.01067" lon="4.39388">
        <ele>1063.5</ele>
      </trkpt>
      <trkpt lat="45.01076" lon="4.39366">
        <ele>1062.3</ele>
      </trkpt>
      <trkpt lat="45.01089" lon="4.39334">
        <ele>1062.5</ele>
      </trkpt>
      <trkpt lat="45.01097" lon="4.39322">
        <ele>1062.2</ele>
      </trkpt>
      <trkpt lat="45.01149" lon="4.39218">
        <ele>1059</ele>
      </trkpt>
      <trkpt lat="45.01152" lon="4.39211">
        <ele>1058.7</ele>
      </trkpt>
      <trkpt lat="45.01172" lon="4.39184">
        <ele>1060.8</ele>
      </trkpt>
      <trkpt lat="45.01191" lon="4.39165">
        <ele>1057.4</ele>
      </trkpt>
      <trkpt lat="45.01213" lon="4.39146">
        <ele>1057.9</ele>
      </trkpt>
      <trkpt lat="45.01219" lon="4.39142">
        <ele>1058.1</ele>
      </trkpt>
      <trkpt lat="45.01222" lon="4.39139">
        <ele>1058.1</ele>
      </trkpt>
      <trkpt lat="45.01317" lon="4.39054">
        <ele>1055.9</ele>
      </trkpt>
      <trkpt lat="45.01335" lon="4.39032">
        <ele>1056.7</ele>
      </trkpt>
      <trkpt lat="45.01347" lon="4.39013">
        <ele>1056</ele>
      </trkpt>
      <trkpt lat="45.01356" lon="4.38995">
        <ele>1054.6</ele>
      </trkpt>
      <trkpt lat="45.01389" lon="4.3891">
        <ele>1053</ele>
      </trkpt>
      <trkpt lat="45.01406" lon="4.38877">
        <ele>1052.7</ele>
      </trkpt>
      <trkpt lat="45.01416" lon="4.38859">
        <ele>1052.6</ele>
      </trkpt>
      <trkpt lat="45.01427" lon="4.38844">
        <ele>1053</ele>
      </trkpt>
      <trkpt lat="45.01446" lon="4.38819">
        <ele>1051.4</ele>
      </trkpt>
      <trkpt lat="45.01452" lon="4.38811">
        <ele>1051.2</ele>
      </trkpt>
      <trkpt lat="45.01461" lon="4.38796">
        <ele>1051</ele>
      </trkpt>
      <trkpt lat="45.01462" lon="4.38793">
        <ele>1051</ele>
      </trkpt>
      <trkpt lat="45.01465" lon="4.38794">
        <ele>1050.9</ele>
      </trkpt>
      <trkpt lat="45.01468" lon="4.38794">
        <ele>1050.9</ele>
      </trkpt>
      <trkpt lat="45.01472" lon="4.38789">
        <ele>1050.8</ele>
      </trkpt>
      <trkpt lat="45.01473" lon="4.38785">
        <ele>1050.8</ele>
      </trkpt>
      <trkpt lat="45.01473" lon="4.38782">
        <ele>1050.8</ele>
      </trkpt>
      <trkpt lat="45.01491" lon="4.38761">
        <ele>1050.4</ele>
      </trkpt>
      <trkpt lat="45.01507" lon="4.38752">
        <ele>1049.1</ele>
      </trkpt>
      <trkpt lat="45.01512" lon="4.38749">
        <ele>1048.2</ele>
      </trkpt>
      <trkpt lat="45.01518" lon="4.38746">
        <ele>1047.5</ele>
      </trkpt>
      <trkpt lat="45.01555" lon="4.38733">
        <ele>1044.9</ele>
      </trkpt>
      <trkpt lat="45.01571" lon="4.38731">
        <ele>1044.1</ele>
      </trkpt>
      <trkpt lat="45.0157" lon="4.38725">
        <ele>1044.3</ele>
      </trkpt>
      <trkpt lat="45.01569" lon="4.3871">
        <ele>1044.6</ele>
      </trkpt>
      <trkpt lat="45.01565" lon="4.38691">
        <ele>1044.6</ele>
      </trkpt>
      <trkpt lat="45.01627" lon="4.38626">
        <ele>1037.7</ele>
      </trkpt>
      <trkpt lat="45.01664" lon="4.38596">
        <ele>1034.9</ele>
      </trkpt>
      <trkpt lat="45.0168" lon="4.38588">
        <ele>1031.9</ele>
      </trkpt>
      <trkpt lat="45.01698" lon="4.38581">
        <ele>1029.7</ele>
      </trkpt>
      <trkpt lat="45.01734" lon="4.38574">
        <ele>1027.6</ele>
      </trkpt>
      <trkpt lat="45.01748" lon="4.38569">
        <ele>1027.2</ele>
      </trkpt>
      <trkpt lat="45.01758" lon="4.38563">
        <ele>1022.9</ele>
      </trkpt>
      <trkpt lat="45.01766" lon="4.38554">
        <ele>1022</ele>
      </trkpt>
      <trkpt lat="45.01778" lon="4.38533">
        <ele>1021</ele>
      </trkpt>
      <trkpt lat="45.01787" lon="4.38527">
        <ele>1020.3</ele>
      </trkpt>
      <trkpt lat="45.01794" lon="4.38529">
        <ele>1019.6</ele>
      </trkpt>
      <trkpt lat="45.01865" lon="4.38563">
        <ele>1011.3</ele>
      </trkpt>
      <trkpt lat="45.01892" lon="4.38574">
        <ele>1010.1</ele>
      </trkpt>
      <trkpt lat="45.01912" lon="4.38582">
        <ele>1009.2</ele>
      </trkpt>
      <trkpt lat="45.01947" lon="4.38603">
        <ele>1008</ele>
      </trkpt>
      <trkpt lat="45.01958" lon="4.38611">
        <ele>1007.6</ele>
      </trkpt>
      <trkpt lat="45.01963" lon="4.38618">
        <ele>1007.5</ele>
      </trkpt>
      <trkpt lat="45.01977" lon="4.38644">
        <ele>1006.9</ele>
      </trkpt>
      <trkpt lat="45.02" lon="4.38672">
        <ele>1004.3</ele>
      </trkpt>
      <trkpt lat="45.02009" lon="4.38678">
        <ele>1004.8</ele>
      </trkpt>
      <trkpt lat="45.02024" lon="4.3868">
        <ele>1005.2</ele>
      </trkpt>
      <trkpt lat="45.02031" lon="4.38677">
        <ele>1005.4</ele>
      </trkpt>
      <trkpt lat="45.02044" lon="4.38659">
        <ele>1007.1</ele>
      </trkpt>
      <trkpt lat="45.02066" lon="4.38641">
        <ele>1007.9</ele>
      </trkpt>
      <trkpt lat="45.02071" lon="4.38637">
        <ele>1008.1</ele>
      </trkpt>
      <trkpt lat="45.02094" lon="4.38621">
        <ele>1014.1</ele>
      </trkpt>
      <trkpt lat="45.02101" lon="4.38611">
        <ele>1014.7</ele>
      </trkpt>
      <trkpt lat="45.02115" lon="4.38579">
        <ele>1017.4</ele>
      </trkpt>
      <trkpt lat="45.02132" lon="4.38526">
        <ele>1018.3</ele>
      </trkpt>
      <trkpt lat="45.02137" lon="4.3852">
        <ele>1018</ele>
      </trkpt>
      <trkpt lat="45.02141" lon="4.38519">
        <ele>1017.8</ele>
      </trkpt>
      <trkpt lat="45.0214" lon="4.38502">
        <ele>1017.8</ele>
      </trkpt>
      <trkpt lat="45.02149" lon="4.38457">
        <ele>1018.1</ele>
      </trkpt>
      <trkpt lat="45.02153" lon="4.38437">
        <ele>1017.5</ele>
      </trkpt>
      <trkpt lat="45.02166" lon="4.38359">
        <ele>1019.1</ele>
      </trkpt>
      <trkpt lat="45.02177" lon="4.38314">
        <ele>1019.7</ele>
      </trkpt>
      <trkpt lat="45.02186" lon="4.38282">
        <ele>1020.8</ele>
      </trkpt>
      <trkpt lat="45.02229" lon="4.38171">
        <ele>1024.7</ele>
      </trkpt>
      <trkpt lat="45.02255" lon="4.38127">
        <ele>1027.7</ele>
      </trkpt>
      <trkpt lat="45.02271" lon="4.38105">
        <ele>1028.4</ele>
      </trkpt>
      <trkpt lat="45.02274" lon="4.381">
        <ele>1028.5</ele>
      </trkpt>
      <trkpt lat="45.0229" lon="4.38083">
        <ele>1031.2</ele>
      </trkpt>
      <trkpt lat="45.02307" lon="4.38072">
        <ele>1032</ele>
      </trkpt>
      <trkpt lat="45.02339" lon="4.38057">
        <ele>1035.1</ele>
      </trkpt>
      <trkpt lat="45.02462" lon="4.3802">
        <ele>1039.6</ele>
      </trkpt>
      <trkpt lat="45.02519" lon="4.38006">
        <ele>1041.4</ele>
      </trkpt>
      <trkpt lat="45.02677" lon="4.3796">
        <ele>1048.5</ele>
      </trkpt>
      <trkpt lat="45.02703" lon="4.37953">
        <ele>1048.9</ele>
      </trkpt>
      <trkpt lat="45.02722" lon="4.37946">
        <ele>1049.3</ele>
      </trkpt>
      <trkpt lat="45.02751" lon="4.37938">
        <ele>1051.3</ele>
      </trkpt>
      <trkpt lat="45.02802" lon="4.37917">
        <ele>1052.3</ele>
      </trkpt>
      <trkpt lat="45.0285" lon="4.37896">
        <ele>1054</ele>
      </trkpt>
      <trkpt lat="45.02877" lon="4.37881">
        <ele>1054.3</ele>
      </trkpt>
      <trkpt lat="45.02905" lon="4.37863">
        <ele>1055</ele>
      </trkpt>
      <trkpt lat="45.02961" lon="4.37824">
        <ele>1058</ele>
      </trkpt>
      <trkpt lat="45.03014" lon="4.37779">
        <ele>1060</ele>
      </trkpt>
      <trkpt lat="45.03033" lon="4.3776">
        <ele>1060.3</ele>
      </trkpt>
      <trkpt lat="45.0305" lon="4.37741">
        <ele>1060.4</ele>
      </trkpt>
      <trkpt lat="45.03088" lon="4.37698">
        <ele>1062.2</ele>
      </trkpt>
      <trkpt lat="45.03094" lon="4.3769">
        <ele>1062</ele>
      </trkpt>
      <trkpt lat="45.03122" lon="4.37654">
        <ele>1061</ele>
      </trkpt>
      <trkpt lat="45.03168" lon="4.37579">
        <ele>1060.2</ele>
      </trkpt>
      <trkpt lat="45.03215" lon="4.37492">
        <ele>1058.2</ele>
      </trkpt>
      <trkpt lat="45.03248" lon="4.37418">
        <ele>1056.1</ele>
      </trkpt>
      <trkpt lat="45.03282" lon="4.37326">
        <ele>1053.6</ele>
      </trkpt>
      <trkpt lat="45.0334" lon="4.37122">
        <ele>1054.8</ele>
      </trkpt>
      <trkpt lat="45.03429" lon="4.36794">
        <ele>1062.6</ele>
      </trkpt>
      <trkpt lat="45.03453" lon="4.36709">
        <ele>1058.9</ele>
      </trkpt>
      <trkpt lat="45.03485" lon="4.36587">
        <ele>1056.5</ele>
      </trkpt>
      <trkpt lat="45.03503" lon="4.36533">
        <ele>1062.9</ele>
      </trkpt>
      <trkpt lat="45.03519" lon="4.36475">
        <ele>1061.7</ele>
      </trkpt>
      <trkpt lat="45.0354" lon="4.36427">
        <ele>1062.7</ele>
      </trkpt>
      <trkpt lat="45.03565" lon="4.36395">
        <ele>1059.8</ele>
      </trkpt>
      <trkpt lat="45.03614" lon="4.36351">
        <ele>1063.2</ele>
      </trkpt>
      <trkpt lat="45.03652" lon="4.36321">
        <ele>1058.8</ele>
      </trkpt>
      <trkpt lat="45.03693" lon="4.36277">
        <ele>1055.9</ele>
      </trkpt>
      <trkpt lat="45.0373" lon="4.36269">
        <ele>1055.3</ele>
      </trkpt>
      <trkpt lat="45.03811" lon="4.3627">
        <ele>1053.4</ele>
      </trkpt>
      <trkpt lat="45.0386" lon="4.3626">
        <ele>1054.8</ele>
      </trkpt>
      <trkpt lat="45.03889" lon="4.36238">
        <ele>1048.8</ele>
      </trkpt>
      <trkpt lat="45.03936" lon="4.36218">
        <ele>1050.6</ele>
      </trkpt>
      <trkpt lat="45.0398" lon="4.3619">
        <ele>1049.6</ele>
      </trkpt>
      <trkpt lat="45.04" lon="4.36164">
        <ele>1047.7</ele>
      </trkpt>
      <trkpt lat="45.04004" lon="4.36135">
        <ele>1052.7</ele>
      </trkpt>
      <trkpt lat="45.04" lon="4.36102">
        <ele>1048.9</ele>
      </trkpt>
      <trkpt lat="45.03977" lon="4.36031">
        <ele>1044.5</ele>
      </trkpt>
      <trkpt lat="45.03979" lon="4.35989">
        <ele>1042.5</ele>
      </trkpt>
      <trkpt lat="45.0399" lon="4.35957">
        <ele>1041.2</ele>
      </trkpt>
      <trkpt lat="45.04052" lon="4.35894">
        <ele>1041.8</ele>
      </trkpt>
      <trkpt lat="45.04153" lon="4.35803">
        <ele>1038.4</ele>
      </trkpt>
      <trkpt lat="45.04165" lon="4.35792">
        <ele>1037.7</ele>
      </trkpt>
      <trkpt lat="45.04231" lon="4.35725">
        <ele>1030.5</ele>
      </trkpt>
      <trkpt lat="45.04307" lon="4.35652">
        <ele>1026.6</ele>
      </trkpt>
      <trkpt lat="45.04334" lon="4.35628">
        <ele>1029.2</ele>
      </trkpt>
      <trkpt lat="45.04341" lon="4.35621">
        <ele>1029.2</ele>
      </trkpt>
      <trkpt lat="45.04371" lon="4.3559">
        <ele>1030.3</ele>
      </trkpt>
      <trkpt lat="45.04435" lon="4.35531">
        <ele>1033.8</ele>
      </trkpt>
      <trkpt lat="45.04624" lon="4.3534">
        <ele>1021.5</ele>
      </trkpt>
      <trkpt lat="45.04669" lon="4.35296">
        <ele>1019.8</ele>
      </trkpt>
      <trkpt lat="45.04684" lon="4.35282">
        <ele>1019.2</ele>
      </trkpt>
      <trkpt lat="45.04771" lon="4.35194">
        <ele>1015.8</ele>
      </trkpt>
      <trkpt lat="45.04785" lon="4.35178">
        <ele>1016.2</ele>
      </trkpt>
      <trkpt lat="45.04797" lon="4.35161">
        <ele>1011.9</ele>
      </trkpt>
      <trkpt lat="45.04807" lon="4.3514">
        <ele>1012</ele>
      </trkpt>
      <trkpt lat="45.04815" lon="4.35119">
        <ele>1011.4</ele>
      </trkpt>
      <trkpt lat="45.0485" lon="4.34986">
        <ele>1005.4</ele>
      </trkpt>
      <trkpt lat="45.04856" lon="4.34969">
        <ele>1004.9</ele>
      </trkpt>
      <trkpt lat="45.04864" lon="4.34953">
        <ele>1004.2</ele>
      </trkpt>
      <trkpt lat="45.04875" lon="4.3494">
        <ele>1003.9</ele>
      </trkpt>
      <trkpt lat="45.04911" lon="4.34918">
        <ele>1003.5</ele>
      </trkpt>
      <trkpt lat="45.05002" lon="4.34872">
        <ele>999</ele>
      </trkpt>
      <trkpt lat="45.05061" lon="4.3484">
        <ele>996.5</ele>
      </trkpt>
      <trkpt lat="45.05073" lon="4.3483">
        <ele>991.7</ele>
      </trkpt>
      <trkpt lat="45.05085" lon="4.34818">
        <ele>990.4</ele>
      </trkpt>
      <trkpt lat="45.0509" lon="4.34811">
        <ele>989.5</ele>
      </trkpt>
      <trkpt lat="45.05095" lon="4.34799">
        <ele>988.4</ele>
      </trkpt>
      <trkpt lat="45.05102" lon="4.34776">
        <ele>987.1</ele>
      </trkpt>
      <trkpt lat="45.05108" lon="4.34754">
        <ele>986.5</ele>
      </trkpt>
      <trkpt lat="45.05118" lon="4.34718">
        <ele>985.2</ele>
      </trkpt>
      <trkpt lat="45.05143" lon="4.34631">
        <ele>987.3</ele>
      </trkpt>
      <trkpt lat="45.05163" lon="4.34547">
        <ele>991.8</ele>
      </trkpt>
      <trkpt lat="45.05169" lon="4.34522">
        <ele>997.9</ele>
      </trkpt>
      <trkpt lat="45.0518" lon="4.34486">
        <ele>999.9</ele>
      </trkpt>
      <trkpt lat="45.05182" lon="4.34469">
        <ele>1000.8</ele>
      </trkpt>
      <trkpt lat="45.05181" lon="4.34436">
        <ele>1000.8</ele>
      </trkpt>
      <trkpt lat="45.05177" lon="4.34399">
        <ele>1001.8</ele>
      </trkpt>
      <trkpt lat="45.05163" lon="4.34315">
        <ele>997.9</ele>
      </trkpt>
      <trkpt lat="45.05144" lon="4.34228">
        <ele>998.5</ele>
      </trkpt>
      <trkpt lat="45.05123" lon="4.34131">
        <ele>998.1</ele>
      </trkpt>
      <trkpt lat="45.05105" lon="4.3404">
        <ele>999.5</ele>
      </trkpt>
      <trkpt lat="45.05086" lon="4.33948">
        <ele>1004.6</ele>
      </trkpt>
      <trkpt lat="45.05077" lon="4.33902">
        <ele>1004</ele>
      </trkpt>
      <trkpt lat="45.05073" lon="4.339">
        <ele>1003.9</ele>
      </trkpt>
      <trkpt lat="45.05042" lon="4.33878">
        <ele>1002.7</ele>
      </trkpt>
      <trkpt lat="45.04986" lon="4.33818">
        <ele>1000.9</ele>
      </trkpt>
      <trkpt lat="45.04949" lon="4.33765">
        <ele>1000.9</ele>
      </trkpt>
      <trkpt lat="45.04882" lon="4.33687">
        <ele>993.2</ele>
      </trkpt>
      <trkpt lat="45.04872" lon="4.33654">
        <ele>991.8</ele>
      </trkpt>
      <trkpt lat="45.04871" lon="4.33591">
        <ele>991.4</ele>
      </trkpt>
      <trkpt lat="45.0487" lon="4.33543">
        <ele>991.9</ele>
      </trkpt>
      <trkpt lat="45.04869" lon="4.33538">
        <ele>991.9</ele>
      </trkpt>
      <trkpt lat="45.04861" lon="4.33501">
        <ele>991.2</ele>
      </trkpt>
      <trkpt lat="45.0483" lon="4.33412">
        <ele>989.3</ele>
      </trkpt>
      <trkpt lat="45.04803" lon="4.33371">
        <ele>986.9</ele>
      </trkpt>
      <trkpt lat="45.04798" lon="4.3336">
        <ele>986.7</ele>
      </trkpt>
      <trkpt lat="45.04788" lon="4.33289">
        <ele>983.5</ele>
      </trkpt>
      <trkpt lat="45.04804" lon="4.33235">
        <ele>980</ele>
      </trkpt>
      <trkpt lat="45.04809" lon="4.33205">
        <ele>978.9</ele>
      </trkpt>
      <trkpt lat="45.04812" lon="4.33196">
        <ele>978.7</ele>
      </trkpt>
      <trkpt lat="45.04827" lon="4.33173">
        <ele>979.4</ele>
      </trkpt>
      <trkpt lat="45.04831" lon="4.33163">
        <ele>978.5</ele>
      </trkpt>
      <trkpt lat="45.04835" lon="4.33143">
        <ele>982.3</ele>
      </trkpt>
      <trkpt lat="45.04835" lon="4.33134">
        <ele>982.1</ele>
      </trkpt>
      <trkpt lat="45.04833" lon="4.33126">
        <ele>972.8</ele>
      </trkpt>
      <trkpt lat="45.0484" lon="4.33106">
        <ele>979.4</ele>
      </trkpt>
      <trkpt lat="45.04858" lon="4.33022">
        <ele>975</ele>
      </trkpt>
      <trkpt lat="45.04868" lon="4.32992">
        <ele>970.6</ele>
      </trkpt>
      <trkpt lat="45.04876" lon="4.32977">
        <ele>970.8</ele>
      </trkpt>
      <trkpt lat="45.04887" lon="4.32964">
        <ele>970.8</ele>
      </trkpt>
      <trkpt lat="45.04897" lon="4.32957">
        <ele>970.7</ele>
      </trkpt>
      <trkpt lat="45.04921" lon="4.32949">
        <ele>974.3</ele>
      </trkpt>
      <trkpt lat="45.05031" lon="4.32921">
        <ele>975.8</ele>
      </trkpt>
      <trkpt lat="45.05043" lon="4.32921">
        <ele>976.1</ele>
      </trkpt>
      <trkpt lat="45.05056" lon="4.32925">
        <ele>975.8</ele>
      </trkpt>
      <trkpt lat="45.05091" lon="4.32945">
        <ele>978.9</ele>
      </trkpt>
      <trkpt lat="45.05103" lon="4.32949">
        <ele>980.2</ele>
      </trkpt>
      <trkpt lat="45.05115" lon="4.32948">
        <ele>980.7</ele>
      </trkpt>
      <trkpt lat="45.05126" lon="4.32942">
        <ele>980.7</ele>
      </trkpt>
      <trkpt lat="45.05133" lon="4.32934">
        <ele>980.6</ele>
      </trkpt>
      <trkpt lat="45.05138" lon="4.32923">
        <ele>980.3</ele>
      </trkpt>
      <trkpt lat="45.05168" lon="4.32833">
        <ele>973.8</ele>
      </trkpt>
      <trkpt lat="45.0518" lon="4.32793">
        <ele>981.9</ele>
      </trkpt>
      <trkpt lat="45.05186" lon="4.32755">
        <ele>978.5</ele>
      </trkpt>
      <trkpt lat="45.05188" lon="4.32731">
        <ele>980.3</ele>
      </trkpt>
      <trkpt lat="45.05188" lon="4.32707">
        <ele>982</ele>
      </trkpt>
      <trkpt lat="45.05186" lon="4.32684">
        <ele>980.5</ele>
      </trkpt>
      <trkpt lat="45.05182" lon="4.32659">
        <ele>980</ele>
      </trkpt>
      <trkpt lat="45.05161" lon="4.32583">
        <ele>973.3</ele>
      </trkpt>
      <trkpt lat="45.051" lon="4.32383">
        <ele>974.9</ele>
      </trkpt>
      <trkpt lat="45.05086" lon="4.3233">
        <ele>967.2</ele>
      </trkpt>
      <trkpt lat="45.0508" lon="4.32293">
        <ele>959.9</ele>
      </trkpt>
      <trkpt lat="45.05077" lon="4.32257">
        <ele>961.8</ele>
      </trkpt>
      <trkpt lat="45.05075" lon="4.32206">
        <ele>956.6</ele>
      </trkpt>
      <trkpt lat="45.05074" lon="4.32167">
        <ele>958.1</ele>
      </trkpt>
      <trkpt lat="45.05075" lon="4.32146">
        <ele>954.1</ele>
      </trkpt>
      <trkpt lat="45.0508" lon="4.32131">
        <ele>952.7</ele>
      </trkpt>
      <trkpt lat="45.05085" lon="4.32119">
        <ele>958.3</ele>
      </trkpt>
      <trkpt lat="45.05095" lon="4.32108">
        <ele>957.5</ele>
      </trkpt>
      <trkpt lat="45.05105" lon="4.321">
        <ele>957.4</ele>
      </trkpt>
      <trkpt lat="45.05118" lon="4.32092">
        <ele>957.9</ele>
      </trkpt>
      <trkpt lat="45.05129" lon="4.3209">
        <ele>958.4</ele>
      </trkpt>
      <trkpt lat="45.05142" lon="4.32089">
        <ele>958.5</ele>
      </trkpt>
      <trkpt lat="45.05153" lon="4.32092">
        <ele>958.2</ele>
      </trkpt>
      <trkpt lat="45.05189" lon="4.32113">
        <ele>964.6</ele>
      </trkpt>
      <trkpt lat="45.05201" lon="4.32117">
        <ele>965.5</ele>
      </trkpt>
      <trkpt lat="45.05214" lon="4.32115">
        <ele>965.7</ele>
      </trkpt>
      <trkpt lat="45.05225" lon="4.32108">
        <ele>965.4</ele>
      </trkpt>
      <trkpt lat="45.05235" lon="4.32098">
        <ele>965</ele>
      </trkpt>
      <trkpt lat="45.05241" lon="4.32085">
        <ele>964.5</ele>
      </trkpt>
      <trkpt lat="45.05246" lon="4.32069">
        <ele>960.6</ele>
      </trkpt>
      <trkpt lat="45.05257" lon="4.32014">
        <ele>967.2</ele>
      </trkpt>
      <trkpt lat="45.05267" lon="4.31954">
        <ele>968.3</ele>
      </trkpt>
      <trkpt lat="45.0527" lon="4.31912">
        <ele>962.2</ele>
      </trkpt>
      <trkpt lat="45.05273" lon="4.31889">
        <ele>963.8</ele>
      </trkpt>
      <trkpt lat="45.05282" lon="4.31857">
        <ele>964.1</ele>
      </trkpt>
      <trkpt lat="45.05298" lon="4.31825">
        <ele>961.7</ele>
      </trkpt>
      <trkpt lat="45.05314" lon="4.31806">
        <ele>962.8</ele>
      </trkpt>
      <trkpt lat="45.05348" lon="4.31786">
        <ele>970.8</ele>
      </trkpt>
      <trkpt lat="45.05389" lon="4.31768">
        <ele>972.5</ele>
      </trkpt>
      <trkpt lat="45.054" lon="4.3176">
        <ele>972.8</ele>
      </trkpt>
      <trkpt lat="45.05409" lon="4.31749">
        <ele>970.1</ele>
      </trkpt>
      <trkpt lat="45.05416" lon="4.31736">
        <ele>968.5</ele>
      </trkpt>
      <trkpt lat="45.0542" lon="4.3172">
        <ele>972.2</ele>
      </trkpt>
      <trkpt lat="45.05424" lon="4.31672">
        <ele>967.5</ele>
      </trkpt>
      <trkpt lat="45.05426" lon="4.31645">
        <ele>965.7</ele>
      </trkpt>
      <trkpt lat="45.05428" lon="4.31629">
        <ele>965.2</ele>
      </trkpt>
      <trkpt lat="45.05436" lon="4.31598">
        <ele>963.2</ele>
      </trkpt>
      <trkpt lat="45.05446" lon="4.31569">
        <ele>958.8</ele>
      </trkpt>
      <trkpt lat="45.05451" lon="4.31556">
        <ele>958.8</ele>
      </trkpt>
      <trkpt lat="45.05459" lon="4.31538">
        <ele>958.3</ele>
      </trkpt>
      <trkpt lat="45.05465" lon="4.31525">
        <ele>958</ele>
      </trkpt>
      <trkpt lat="45.05481" lon="4.31505">
        <ele>958.4</ele>
      </trkpt>
      <trkpt lat="45.05511" lon="4.31483">
        <ele>957.1</ele>
      </trkpt>
      <trkpt lat="45.0552" lon="4.31477">
        <ele>956.6</ele>
      </trkpt>
      <trkpt lat="45.05535" lon="4.31462">
        <ele>955.8</ele>
      </trkpt>
      <trkpt lat="45.05542" lon="4.31449">
        <ele>955.4</ele>
      </trkpt>
      <trkpt lat="45.05548" lon="4.31431">
        <ele>954.9</ele>
      </trkpt>
      <trkpt lat="45.05554" lon="4.31413">
        <ele>953.3</ele>
      </trkpt>
      <trkpt lat="45.05567" lon="4.31358">
        <ele>954.3</ele>
      </trkpt>
      <trkpt lat="45.05569" lon="4.31349">
        <ele>954.8</ele>
      </trkpt>
      <trkpt lat="45.0557" lon="4.31341">
        <ele>955.2</ele>
      </trkpt>
      <trkpt lat="45.05573" lon="4.31318">
        <ele>954.8</ele>
      </trkpt>
      <trkpt lat="45.05575" lon="4.31279">
        <ele>954.1</ele>
      </trkpt>
      <trkpt lat="45.05581" lon="4.31232">
        <ele>954</ele>
      </trkpt>
      <trkpt lat="45.05594" lon="4.31198">
        <ele>960</ele>
      </trkpt>
      <trkpt lat="45.05642" lon="4.3112">
        <ele>961</ele>
      </trkpt>
      <trkpt lat="45.05656" lon="4.31096">
        <ele>962.1</ele>
      </trkpt>
      <trkpt lat="45.05662" lon="4.31086">
        <ele>963.2</ele>
      </trkpt>
      <trkpt lat="45.05677" lon="4.31061">
        <ele>963.3</ele>
      </trkpt>
      <trkpt lat="45.05694" lon="4.31035">
        <ele>962.6</ele>
      </trkpt>
      <trkpt lat="45.05705" lon="4.3102">
        <ele>962.5</ele>
      </trkpt>
      <trkpt lat="45.05715" lon="4.31009">
        <ele>962.6</ele>
      </trkpt>
      <trkpt lat="45.05725" lon="4.30998">
        <ele>959</ele>
      </trkpt>
      <trkpt lat="45.05743" lon="4.30983">
        <ele>959.7</ele>
      </trkpt>
      <trkpt lat="45.05771" lon="4.30965">
        <ele>962.5</ele>
      </trkpt>
      <trkpt lat="45.05811" lon="4.30944">
        <ele>962.7</ele>
      </trkpt>
      <trkpt lat="45.05839" lon="4.30931">
        <ele>964.2</ele>
      </trkpt>
      <trkpt lat="45.05865" lon="4.30917">
        <ele>965.3</ele>
      </trkpt>
      <trkpt lat="45.05901" lon="4.30894">
        <ele>962.2</ele>
      </trkpt>
      <trkpt lat="45.05929" lon="4.30871">
        <ele>965.7</ele>
      </trkpt>
      <trkpt lat="45.05951" lon="4.30848">
        <ele>965.7</ele>
      </trkpt>
      <trkpt lat="45.05975" lon="4.30823">
        <ele>961.8</ele>
      </trkpt>
      <trkpt lat="45.05995" lon="4.30798">
        <ele>961.1</ele>
      </trkpt>
      <trkpt lat="45.06008" lon="4.30774">
        <ele>968.1</ele>
      </trkpt>
      <trkpt lat="45.06017" lon="4.30753">
        <ele>966.8</ele>
      </trkpt>
      <trkpt lat="45.06025" lon="4.30722">
        <ele>966.7</ele>
      </trkpt>
      <trkpt lat="45.06031" lon="4.30679">
        <ele>966.1</ele>
      </trkpt>
      <trkpt lat="45.06038" lon="4.30622">
        <ele>964.3</ele>
      </trkpt>
      <trkpt lat="45.06045" lon="4.30583">
        <ele>961.4</ele>
      </trkpt>
      <trkpt lat="45.06051" lon="4.30556">
        <ele>961.3</ele>
      </trkpt>
      <trkpt lat="45.0606" lon="4.3052">
        <ele>961.6</ele>
      </trkpt>
      <trkpt lat="45.06055" lon="4.30515">
        <ele>960.9</ele>
      </trkpt>
      <trkpt lat="45.06054" lon="4.30503">
        <ele>960.7</ele>
      </trkpt>
      <trkpt lat="45.06063" lon="4.30439">
        <ele>955.3</ele>
      </trkpt>
      <trkpt lat="45.06058" lon="4.30414">
        <ele>954.3</ele>
      </trkpt>
      <trkpt lat="45.0605" lon="4.30392">
        <ele>952.7</ele>
      </trkpt>
      <trkpt lat="45.06035" lon="4.30368">
        <ele>951.5</ele>
      </trkpt>
      <trkpt lat="45.06016" lon="4.30354">
        <ele>950.2</ele>
      </trkpt>
      <trkpt lat="45.05994" lon="4.30329">
        <ele>948.1</ele>
      </trkpt>
      <trkpt lat="45.05986" lon="4.30318">
        <ele>948.2</ele>
      </trkpt>
      <trkpt lat="45.05985" lon="4.30314">
        <ele>948.3</ele>
      </trkpt>
      <trkpt lat="45.05977" lon="4.30292">
        <ele>949.1</ele>
      </trkpt>
      <trkpt lat="45.0598" lon="4.30275">
        <ele>950.5</ele>
      </trkpt>
      <trkpt lat="45.05975" lon="4.30274">
        <ele>950.2</ele>
      </trkpt>
      <trkpt lat="45.05975" lon="4.30261">
        <ele>951.1</ele>
      </trkpt>
      <trkpt lat="45.05978" lon="4.30245">
        <ele>954</ele>
      </trkpt>
      <trkpt lat="45.05988" lon="4.30217">
        <ele>953.9</ele>
      </trkpt>
      <trkpt lat="45.05991" lon="4.30214">
        <ele>954</ele>
      </trkpt>
      <trkpt lat="45.05989" lon="4.30209">
        <ele>953.9</ele>
      </trkpt>
      <trkpt lat="45.05983" lon="4.30192">
        <ele>954</ele>
      </trkpt>
      <trkpt lat="45.05978" lon="4.30183">
        <ele>954</ele>
      </trkpt>
      <trkpt lat="45.05942" lon="4.30128">
        <ele>951.4</ele>
      </trkpt>
      <trkpt lat="45.05934" lon="4.3012">
        <ele>950.8</ele>
      </trkpt>
      <trkpt lat="45.05924" lon="4.30117">
        <ele>950.3</ele>
      </trkpt>
      <trkpt lat="45.05907" lon="4.30116">
        <ele>943.5</ele>
      </trkpt>
      <trkpt lat="45.05902" lon="4.30117">
        <ele>943.3</ele>
      </trkpt>
      <trkpt lat="45.05892" lon="4.30121">
        <ele>942.8</ele>
      </trkpt>
      <trkpt lat="45.05889" lon="4.30122">
        <ele>942.7</ele>
      </trkpt>
      <trkpt lat="45.05875" lon="4.30129">
        <ele>942</ele>
      </trkpt>
      <trkpt lat="45.05864" lon="4.30133">
        <ele>941.5</ele>
      </trkpt>
      <trkpt lat="45.05854" lon="4.30134">
        <ele>941.1</ele>
      </trkpt>
      <trkpt lat="45.05844" lon="4.30131">
        <ele>940.7</ele>
      </trkpt>
      <trkpt lat="45.0583" lon="4.30124">
        <ele>937.3</ele>
      </trkpt>
      <trkpt lat="45.05822" lon="4.30119">
        <ele>937.2</ele>
      </trkpt>
      <trkpt lat="45.05808" lon="4.30113">
        <ele>937.2</ele>
      </trkpt>
      <trkpt lat="45.05801" lon="4.30109">
        <ele>937.3</ele>
      </trkpt>
      <trkpt lat="45.0575" lon="4.30074">
        <ele>944.9</ele>
      </trkpt>
      <trkpt lat="45.05738" lon="4.30062">
        <ele>949.9</ele>
      </trkpt>
      <trkpt lat="45.05732" lon="4.30036">
        <ele>953</ele>
      </trkpt>
      <trkpt lat="45.05733" lon="4.30018">
        <ele>952.4</ele>
      </trkpt>
      <trkpt lat="45.05759" lon="4.29905">
        <ele>945.3</ele>
      </trkpt>
      <trkpt lat="45.05764" lon="4.29877">
        <ele>943.9</ele>
      </trkpt>
      <trkpt lat="45.05764" lon="4.29854">
        <ele>944.9</ele>
      </trkpt>
      <trkpt lat="45.0576" lon="4.29834">
        <ele>947.3</ele>
      </trkpt>
      <trkpt lat="45.05738" lon="4.29783">
        <ele>956.1</ele>
      </trkpt>
      <trkpt lat="45.05734" lon="4.29758">
        <ele>955</ele>
      </trkpt>
      <trkpt lat="45.05734" lon="4.29739">
        <ele>955</ele>
      </trkpt>
      <trkpt lat="45.05736" lon="4.29728">
        <ele>955.5</ele>
      </trkpt>
      <trkpt lat="45.05743" lon="4.29694">
        <ele>955.4</ele>
      </trkpt>
      <trkpt lat="45.05749" lon="4.29658">
        <ele>953.4</ele>
      </trkpt>
      <trkpt lat="45.05751" lon="4.29631">
        <ele>950.2</ele>
      </trkpt>
      <trkpt lat="45.05749" lon="4.29606">
        <ele>957.2</ele>
      </trkpt>
      <trkpt lat="45.05743" lon="4.29583">
        <ele>956.8</ele>
      </trkpt>
      <trkpt lat="45.05723" lon="4.29529">
        <ele>958.4</ele>
      </trkpt>
      <trkpt lat="45.05687" lon="4.29429">
        <ele>957.1</ele>
      </trkpt>
      <trkpt lat="45.0568" lon="4.29412">
        <ele>956.9</ele>
      </trkpt>
      <trkpt lat="45.05646" lon="4.29327">
        <ele>959.6</ele>
      </trkpt>
      <trkpt lat="45.05638" lon="4.29303">
        <ele>960.2</ele>
      </trkpt>
      <trkpt lat="45.05632" lon="4.29284">
        <ele>960.3</ele>
      </trkpt>
      <trkpt lat="45.05627" lon="4.29268">
        <ele>960.3</ele>
      </trkpt>
      <trkpt lat="45.05621" lon="4.29259">
        <ele>960.4</ele>
      </trkpt>
      <trkpt lat="45.05613" lon="4.29252">
        <ele>960.5</ele>
      </trkpt>
      <trkpt lat="45.05601" lon="4.29244">
        <ele>959.8</ele>
      </trkpt>
      <trkpt lat="45.05559" lon="4.29228">
        <ele>962.8</ele>
      </trkpt>
      <trkpt lat="45.05546" lon="4.29221">
        <ele>963.3</ele>
      </trkpt>
      <trkpt lat="45.05532" lon="4.29207">
        <ele>963.9</ele>
      </trkpt>
      <trkpt lat="45.05525" lon="4.29199">
        <ele>964.2</ele>
      </trkpt>
      <trkpt lat="45.05517" lon="4.29182">
        <ele>965.2</ele>
      </trkpt>
      <trkpt lat="45.05511" lon="4.29164">
        <ele>967.3</ele>
      </trkpt>
      <trkpt lat="45.0551" lon="4.29143">
        <ele>967.3</ele>
      </trkpt>
      <trkpt lat="45.05514" lon="4.29122">
        <ele>967.8</ele>
      </trkpt>
      <trkpt lat="45.05524" lon="4.29096">
        <ele>968.7</ele>
      </trkpt>
      <trkpt lat="45.05546" lon="4.29045">
        <ele>971.3</ele>
      </trkpt>
      <trkpt lat="45.05551" lon="4.29035">
        <ele>971.4</ele>
      </trkpt>
      <trkpt lat="45.05557" lon="4.29022">
        <ele>971.5</ele>
      </trkpt>
      <trkpt lat="45.05573" lon="4.28984">
        <ele>974.6</ele>
      </trkpt>
      <trkpt lat="45.05579" lon="4.28964">
        <ele>976.4</ele>
      </trkpt>
      <trkpt lat="45.05582" lon="4.28946">
        <ele>977.4</ele>
      </trkpt>
      <trkpt lat="45.05582" lon="4.28921">
        <ele>977.3</ele>
      </trkpt>
      <trkpt lat="45.0558" lon="4.28905">
        <ele>979.7</ele>
      </trkpt>
      <trkpt lat="45.05576" lon="4.28884">
        <ele>981.9</ele>
      </trkpt>
      <trkpt lat="45.05577" lon="4.28863">
        <ele>982.2</ele>
      </trkpt>
      <trkpt lat="45.05587" lon="4.28818">
        <ele>978.7</ele>
      </trkpt>
      <trkpt lat="45.0559" lon="4.28784">
        <ele>980.2</ele>
      </trkpt>
      <trkpt lat="45.05588" lon="4.28755">
        <ele>984.7</ele>
      </trkpt>
      <trkpt lat="45.05584" lon="4.28724">
        <ele>984.6</ele>
      </trkpt>
      <trkpt lat="45.05579" lon="4.28706">
        <ele>991.9</ele>
      </trkpt>
      <trkpt lat="45.0557" lon="4.28688">
        <ele>991.9</ele>
      </trkpt>
      <trkpt lat="45.05562" lon="4.28677">
        <ele>992.1</ele>
      </trkpt>
      <trkpt lat="45.0555" lon="4.28669">
        <ele>993.1</ele>
      </trkpt>
      <trkpt lat="45.05531" lon="4.2866">
        <ele>992.4</ele>
      </trkpt>
      <trkpt lat="45.05468" lon="4.28648">
        <ele>999.9</ele>
      </trkpt>
      <trkpt lat="45.05444" lon="4.28642">
        <ele>1002</ele>
      </trkpt>
      <trkpt lat="45.05425" lon="4.28632">
        <ele>1002.3</ele>
      </trkpt>
      <trkpt lat="45.05409" lon="4.28619">
        <ele>1008</ele>
      </trkpt>
      <trkpt lat="45.05393" lon="4.28594">
        <ele>1006</ele>
      </trkpt>
      <trkpt lat="45.05377" lon="4.2858">
        <ele>1000</ele>
      </trkpt>
      <trkpt lat="45.05362" lon="4.2857">
        <ele>1001.2</ele>
      </trkpt>
      <trkpt lat="45.05343" lon="4.28562">
        <ele>1002.5</ele>
      </trkpt>
      <trkpt lat="45.05288" lon="4.28547">
        <ele>1010.1</ele>
      </trkpt>
      <trkpt lat="45.05268" lon="4.28532">
        <ele>1010.4</ele>
      </trkpt>
      <trkpt lat="45.05254" lon="4.28518">
        <ele>1010.1</ele>
      </trkpt>
      <trkpt lat="45.05232" lon="4.28487">
        <ele>1010.6</ele>
      </trkpt>
      <trkpt lat="45.05212" lon="4.28466">
        <ele>1011</ele>
      </trkpt>
      <trkpt lat="45.05202" lon="4.28457">
        <ele>1011.2</ele>
      </trkpt>
      <trkpt lat="45.0519" lon="4.28442">
        <ele>1011.3</ele>
      </trkpt>
      <trkpt lat="45.0517" lon="4.28412">
        <ele>1011.4</ele>
      </trkpt>
      <trkpt lat="45.05144" lon="4.28371">
        <ele>1015.6</ele>
      </trkpt>
      <trkpt lat="45.05121" lon="4.2834">
        <ele>1016.3</ele>
      </trkpt>
      <trkpt lat="45.05102" lon="4.28323">
        <ele>1014.1</ele>
      </trkpt>
      <trkpt lat="45.05071" lon="4.28299">
        <ele>1016.1</ele>
      </trkpt>
      <trkpt lat="45.05057" lon="4.28282">
        <ele>1015.2</ele>
      </trkpt>
      <trkpt lat="45.05046" lon="4.28264">
        <ele>1014.6</ele>
      </trkpt>
      <trkpt lat="45.05038" lon="4.28244">
        <ele>1011.4</ele>
      </trkpt>
      <trkpt lat="45.05033" lon="4.28221">
        <ele>1011.4</ele>
      </trkpt>
      <trkpt lat="45.05031" lon="4.282">
        <ele>1011.4</ele>
      </trkpt>
      <trkpt lat="45.05031" lon="4.28174">
        <ele>1011.4</ele>
      </trkpt>
      <trkpt lat="45.05032" lon="4.28163">
        <ele>1013.5</ele>
      </trkpt>
      <trkpt lat="45.05055" lon="4.28078">
        <ele>1018.9</ele>
      </trkpt>
      <trkpt lat="45.05088" lon="4.27955">
        <ele>1016.4</ele>
      </trkpt>
      <trkpt lat="45.05109" lon="4.27879">
        <ele>1017.4</ele>
      </trkpt>
      <trkpt lat="45.05115" lon="4.27854">
        <ele>1017.7</ele>
      </trkpt>
      <trkpt lat="45.05119" lon="4.27837">
        <ele>1017.9</ele>
      </trkpt>
      <trkpt lat="45.05121" lon="4.27821">
        <ele>1019.1</ele>
      </trkpt>
      <trkpt lat="45.0512" lon="4.27802">
        <ele>1019.3</ele>
      </trkpt>
      <trkpt lat="45.05117" lon="4.27782">
        <ele>1019.6</ele>
      </trkpt>
      <trkpt lat="45.05095" lon="4.27684">
        <ele>1023.4</ele>
      </trkpt>
      <trkpt lat="45.05063" lon="4.27547">
        <ele>1032.4</ele>
      </trkpt>
      <trkpt lat="45.05035" lon="4.27469">
        <ele>1034.2</ele>
      </trkpt>
      <trkpt lat="45.05013" lon="4.27416">
        <ele>1036.4</ele>
      </trkpt>
      <trkpt lat="45.04937" lon="4.27215">
        <ele>1038.9</ele>
      </trkpt>
      <trkpt lat="45.04926" lon="4.27182">
        <ele>1038.4</ele>
      </trkpt>
      <trkpt lat="45.04896" lon="4.27047">
        <ele>1038.3</ele>
      </trkpt>
      <trkpt lat="45.04868" lon="4.26908">
        <ele>1043.3</ele>
      </trkpt>
      <trkpt lat="45.04862" lon="4.26882">
        <ele>1043.5</ele>
      </trkpt>
      <trkpt lat="45.04856" lon="4.26868">
        <ele>1043.7</ele>
      </trkpt>
      <trkpt lat="45.04853" lon="4.26864">
        <ele>1043.8</ele>
      </trkpt>
      <trkpt lat="45.0486" lon="4.26824">
        <ele>1045</ele>
      </trkpt>
      <trkpt lat="45.04911" lon="4.26713">
        <ele>1048.1</ele>
      </trkpt>
      <trkpt lat="45.04965" lon="4.26579">
        <ele>1047.2</ele>
      </trkpt>
      <trkpt lat="45.0505" lon="4.2643">
        <ele>1040.9</ele>
      </trkpt>
      <trkpt lat="45.05065" lon="4.262">
        <ele>1043.7</ele>
      </trkpt>
      <trkpt lat="45.05126" lon="4.26015">
        <ele>1045.3</ele>
      </trkpt>
      <trkpt lat="45.05164" lon="4.25926">
        <ele>1046.4</ele>
      </trkpt>
      <trkpt lat="45.05182" lon="4.25879">
        <ele>1046.3</ele>
      </trkpt>
      <trkpt lat="45.05184" lon="4.25845">
        <ele>1047.6</ele>
      </trkpt>
      <trkpt lat="45.05175" lon="4.25792">
        <ele>1048.7</ele>
      </trkpt>
      <trkpt lat="45.05135" lon="4.2566">
        <ele>1049.6</ele>
      </trkpt>
      <trkpt lat="45.05117" lon="4.25615">
        <ele>1050</ele>
      </trkpt>
      <trkpt lat="45.05095" lon="4.25533">
        <ele>1046.3</ele>
      </trkpt>
      <trkpt lat="45.0509" lon="4.25392">
        <ele>1043.4</ele>
      </trkpt>
      <trkpt lat="45.05101" lon="4.25356">
        <ele>1043.3</ele>
      </trkpt>
      <trkpt lat="45.05146" lon="4.2529">
        <ele>1040.2</ele>
      </trkpt>
      <trkpt lat="45.05146" lon="4.25242">
        <ele>1038.6</ele>
      </trkpt>
      <trkpt lat="45.0512" lon="4.25137">
        <ele>1036.5</ele>
      </trkpt>
      <trkpt lat="45.05035" lon="4.2502">
        <ele>1031.9</ele>
      </trkpt>
      <trkpt lat="45.04996" lon="4.24998">
        <ele>1030.2</ele>
      </trkpt>
      <trkpt lat="45.04982" lon="4.24986">
        <ele>1030.9</ele>
      </trkpt>
      <trkpt lat="45.0497" lon="4.24969">
        <ele>1031.1</ele>
      </trkpt>
      <trkpt lat="45.04935" lon="4.24873">
        <ele>1026.1</ele>
      </trkpt>
      <trkpt lat="45.04922" lon="4.24846">
        <ele>1025.8</ele>
      </trkpt>
      <trkpt lat="45.04895" lon="4.24818">
        <ele>1025.5</ele>
      </trkpt>
      <trkpt lat="45.04849" lon="4.24791">
        <ele>1025.5</ele>
      </trkpt>
      <trkpt lat="45.0481" lon="4.24762">
        <ele>1027</ele>
      </trkpt>
      <trkpt lat="45.048" lon="4.24754">
        <ele>1027.2</ele>
      </trkpt>
      <trkpt lat="45.04777" lon="4.24728">
        <ele>1022.9</ele>
      </trkpt>
      <trkpt lat="45.04746" lon="4.24681">
        <ele>1023</ele>
      </trkpt>
      <trkpt lat="45.04734" lon="4.24664">
        <ele>1021.7</ele>
      </trkpt>
      <trkpt lat="45.04717" lon="4.24651">
        <ele>1022.8</ele>
      </trkpt>
      <trkpt lat="45.04699" lon="4.24633">
        <ele>1023.4</ele>
      </trkpt>
      <trkpt lat="45.04695" lon="4.24628">
        <ele>1023.5</ele>
      </trkpt>
      <trkpt lat="45.04693" lon="4.24608">
        <ele>1023.4</ele>
      </trkpt>
      <trkpt lat="45.04699" lon="4.2456">
        <ele>1024.4</ele>
      </trkpt>
      <trkpt lat="45.04702" lon="4.24537">
        <ele>1024.8</ele>
      </trkpt>
      <trkpt lat="45.04705" lon="4.24513">
        <ele>1025.1</ele>
      </trkpt>
      <trkpt lat="45.04705" lon="4.24511">
        <ele>1025.1</ele>
      </trkpt>
      <trkpt lat="45.04709" lon="4.2449">
        <ele>1027.2</ele>
      </trkpt>
      <trkpt lat="45.04693" lon="4.24487">
        <ele>1026.9</ele>
      </trkpt>
      <trkpt lat="45.0469" lon="4.24487">
        <ele>1026.8</ele>
      </trkpt>
      <trkpt lat="45.04693" lon="4.24487">
        <ele>1026.9</ele>
      </trkpt>
      <trkpt lat="45.04709" lon="4.2449">
        <ele>1027.2</ele>
      </trkpt>
      <trkpt lat="45.04716" lon="4.24473">
        <ele>1027.6</ele>
      </trkpt>
      <trkpt lat="45.04712" lon="4.24455">
        <ele>1027.9</ele>
      </trkpt>
      <trkpt lat="45.04701" lon="4.24429">
        <ele>1028.1</ele>
      </trkpt>
      <trkpt lat="45.04682" lon="4.24385">
        <ele>1032.1</ele>
      </trkpt>
      <trkpt lat="45.04655" lon="4.24321">
        <ele>1034.3</ele>
      </trkpt>
      <trkpt lat="45.0465" lon="4.24303">
        <ele>1034.6</ele>
      </trkpt>
      <trkpt lat="45.04654" lon="4.2428">
        <ele>1035.1</ele>
      </trkpt>
      <trkpt lat="45.04663" lon="4.24261">
        <ele>1036</ele>
      </trkpt>
      <trkpt lat="45.04717" lon="4.24192">
        <ele>1043.5</ele>
      </trkpt>
      <trkpt lat="45.04723" lon="4.24172">
        <ele>1044.4</ele>
      </trkpt>
      <trkpt lat="45.04728" lon="4.24136">
        <ele>1048.1</ele>
      </trkpt>
      <trkpt lat="45.04726" lon="4.24113">
        <ele>1048.9</ele>
      </trkpt>
      <trkpt lat="45.04719" lon="4.24097">
        <ele>1049.3</ele>
      </trkpt>
      <trkpt lat="45.04708" lon="4.24088">
        <ele>1049.3</ele>
      </trkpt>
      <trkpt lat="45.04669" lon="4.2408">
        <ele>1051.5</ele>
      </trkpt>
      <trkpt lat="45.04657" lon="4.24072">
        <ele>1050.2</ele>
      </trkpt>
      <trkpt lat="45.04648" lon="4.24059">
        <ele>1049.8</ele>
      </trkpt>
      <trkpt lat="45.04642" lon="4.24037">
        <ele>1050</ele>
      </trkpt>
      <trkpt lat="45.04643" lon="4.24016">
        <ele>1051</ele>
      </trkpt>
      <trkpt lat="45.04651" lon="4.23991">
        <ele>1052.6</ele>
      </trkpt>
      <trkpt lat="45.04669" lon="4.23947">
        <ele>1055.9</ele>
      </trkpt>
      <trkpt lat="45.04681" lon="4.23936">
        <ele>1055.8</ele>
      </trkpt>
      <trkpt lat="45.04708" lon="4.2392">
        <ele>1056.8</ele>
      </trkpt>
      <trkpt lat="45.04732" lon="4.23905">
        <ele>1058.6</ele>
      </trkpt>
      <trkpt lat="45.04738" lon="4.23899">
        <ele>1058.7</ele>
      </trkpt>
      <trkpt lat="45.04744" lon="4.23889">
        <ele>1058.8</ele>
      </trkpt>
      <trkpt lat="45.04752" lon="4.23832">
        <ele>1063.5</ele>
      </trkpt>
      <trkpt lat="45.04772" lon="4.23757">
        <ele>1068.1</ele>
      </trkpt>
      <trkpt lat="45.04776" lon="4.23723">
        <ele>1068.4</ele>
      </trkpt>
      <trkpt lat="45.04775" lon="4.23699">
        <ele>1068.1</ele>
      </trkpt>
      <trkpt lat="45.04744" lon="4.23538">
        <ele>1064.1</ele>
      </trkpt>
      <trkpt lat="45.04741" lon="4.23514">
        <ele>1064.8</ele>
      </trkpt>
      <trkpt lat="45.04743" lon="4.23437">
        <ele>1065.3</ele>
      </trkpt>
      <trkpt lat="45.04741" lon="4.23388">
        <ele>1065.1</ele>
      </trkpt>
      <trkpt lat="45.04738" lon="4.23373">
        <ele>1065</ele>
      </trkpt>
      <trkpt lat="45.04732" lon="4.23359">
        <ele>1064.9</ele>
      </trkpt>
      <trkpt lat="45.04726" lon="4.23349">
        <ele>1064.8</ele>
      </trkpt>
      <trkpt lat="45.04707" lon="4.23336">
        <ele>1064.6</ele>
      </trkpt>
      <trkpt lat="45.0466" lon="4.23314">
        <ele>1065.9</ele>
      </trkpt>
      <trkpt lat="45.04642" lon="4.23301">
        <ele>1066.9</ele>
      </trkpt>
      <trkpt lat="45.04633" lon="4.23294">
        <ele>1067.4</ele>
      </trkpt>
      <trkpt lat="45.04627" lon="4.23285">
        <ele>1067.7</ele>
      </trkpt>
      <trkpt lat="45.04621" lon="4.23276">
        <ele>1068.1</ele>
      </trkpt>
      <trkpt lat="45.04611" lon="4.23256">
        <ele>1069.2</ele>
      </trkpt>
      <trkpt lat="45.04591" lon="4.23177">
        <ele>1068.7</ele>
      </trkpt>
      <trkpt lat="45.04568" lon="4.23082">
        <ele>1070.8</ele>
      </trkpt>
      <trkpt lat="45.04561" lon="4.23056">
        <ele>1071.8</ele>
      </trkpt>
      <trkpt lat="45.04553" lon="4.23034">
        <ele>1072.2</ele>
      </trkpt>
      <trkpt lat="45.0449" lon="4.22887">
        <ele>1075.2</ele>
      </trkpt>
      <trkpt lat="45.0448" lon="4.2287">
        <ele>1074.9</ele>
      </trkpt>
      <trkpt lat="45.0447" lon="4.22858">
        <ele>1074.9</ele>
      </trkpt>
      <trkpt lat="45.04458" lon="4.2285">
        <ele>1075.1</ele>
      </trkpt>
      <trkpt lat="45.04441" lon="4.22842">
        <ele>1075.6</ele>
      </trkpt>
      <trkpt lat="45.04364" lon="4.22829">
        <ele>1076.3</ele>
      </trkpt>
      <trkpt lat="45.04347" lon="4.22821">
        <ele>1077.2</ele>
      </trkpt>
      <trkpt lat="45.04339" lon="4.22812">
        <ele>1076.8</ele>
      </trkpt>
      <trkpt lat="45.04334" lon="4.228">
        <ele>1076</ele>
      </trkpt>
      <trkpt lat="45.0433" lon="4.22788">
        <ele>1080.3</ele>
      </trkpt>
      <trkpt lat="45.04315" lon="4.22598">
        <ele>1076.7</ele>
      </trkpt>
      <trkpt lat="45.04311" lon="4.2257">
        <ele>1076.3</ele>
      </trkpt>
      <trkpt lat="45.04306" lon="4.2256">
        <ele>1076.7</ele>
      </trkpt>
      <trkpt lat="45.04301" lon="4.22551">
        <ele>1076.9</ele>
      </trkpt>
      <trkpt lat="45.0428" lon="4.22529">
        <ele>1077.7</ele>
      </trkpt>
      <trkpt lat="45.04275" lon="4.22521">
        <ele>1077.9</ele>
      </trkpt>
      <trkpt lat="45.04194" lon="4.22346">
        <ele>1080.8</ele>
      </trkpt>
      <trkpt lat="45.04185" lon="4.22315">
        <ele>1079.6</ele>
      </trkpt>
      <trkpt lat="45.04162" lon="4.22192">
        <ele>1082.3</ele>
      </trkpt>
      <trkpt lat="45.04151" lon="4.22164">
        <ele>1079.4</ele>
      </trkpt>
      <trkpt lat="45.04089" lon="4.22021">
        <ele>1074.9</ele>
      </trkpt>
      <trkpt lat="45.04075" lon="4.22001">
        <ele>1076.7</ele>
      </trkpt>
      <trkpt lat="45.04063" lon="4.21989">
        <ele>1075.1</ele>
      </trkpt>
      <trkpt lat="45.04053" lon="4.21983">
        <ele>1075.3</ele>
      </trkpt>
      <trkpt lat="45.04039" lon="4.21978">
        <ele>1075.7</ele>
      </trkpt>
      <trkpt lat="45.04013" lon="4.21976">
        <ele>1076.7</ele>
      </trkpt>
      <trkpt lat="45.04004" lon="4.21974">
        <ele>1076.8</ele>
      </trkpt>
      <trkpt lat="45.03987" lon="4.21962">
        <ele>1079.6</ele>
      </trkpt>
      <trkpt lat="45.03981" lon="4.21955">
        <ele>1079.4</ele>
      </trkpt>
      <trkpt lat="45.03968" lon="4.21932">
        <ele>1079</ele>
      </trkpt>
      <trkpt lat="45.03962" lon="4.21916">
        <ele>1076.9</ele>
      </trkpt>
      <trkpt lat="45.03954" lon="4.21884">
        <ele>1077</ele>
      </trkpt>
      <trkpt lat="45.03951" lon="4.21846">
        <ele>1076.9</ele>
      </trkpt>
      <trkpt lat="45.03954" lon="4.21737">
        <ele>1078.1</ele>
      </trkpt>
      <trkpt lat="45.03952" lon="4.21699">
        <ele>1078.3</ele>
      </trkpt>
      <trkpt lat="45.03925" lon="4.21433">
        <ele>1079.9</ele>
      </trkpt>
      <trkpt lat="45.03922" lon="4.21415">
        <ele>1081.2</ele>
      </trkpt>
      <trkpt lat="45.03914" lon="4.21392">
        <ele>1086.2</ele>
      </trkpt>
      <trkpt lat="45.03879" lon="4.21303">
        <ele>1086.5</ele>
      </trkpt>
      <trkpt lat="45.03875" lon="4.2128">
        <ele>1086.6</ele>
      </trkpt>
      <trkpt lat="45.03877" lon="4.21272">
        <ele>1086.3</ele>
      </trkpt>
      <trkpt lat="45.0388" lon="4.21265">
        <ele>1085.8</ele>
      </trkpt>
      <trkpt lat="45.03888" lon="4.21252">
        <ele>1084.6</ele>
      </trkpt>
      <trkpt lat="45.03894" lon="4.21248">
        <ele>1083.8</ele>
      </trkpt>
      <trkpt lat="45.0393" lon="4.21226">
        <ele>1081.7</ele>
      </trkpt>
      <trkpt lat="45.03939" lon="4.2122">
        <ele>1082.2</ele>
      </trkpt>
      <trkpt lat="45.03945" lon="4.21212">
        <ele>1082.6</ele>
      </trkpt>
      <trkpt lat="45.03952" lon="4.21204">
        <ele>1083</ele>
      </trkpt>
      <trkpt lat="45.03957" lon="4.21192">
        <ele>1083.5</ele>
      </trkpt>
      <trkpt lat="45.03982" lon="4.21101">
        <ele>1092</ele>
      </trkpt>
      <trkpt lat="45.03989" lon="4.21083">
        <ele>1095.4</ele>
      </trkpt>
      <trkpt lat="45.04001" lon="4.21061">
        <ele>1095.9</ele>
      </trkpt>
      <trkpt lat="45.04015" lon="4.21043">
        <ele>1096.9</ele>
      </trkpt>
      <trkpt lat="45.04035" lon="4.21034">
        <ele>1097.2</ele>
      </trkpt>
      <trkpt lat="45.04047" lon="4.21032">
        <ele>1097.3</ele>
      </trkpt>
      <trkpt lat="45.0406" lon="4.21036">
        <ele>1097.2</ele>
      </trkpt>
      <trkpt lat="45.04124" lon="4.21079">
        <ele>1098.6</ele>
      </trkpt>
      <trkpt lat="45.04139" lon="4.21082">
        <ele>1099</ele>
      </trkpt>
      <trkpt lat="45.04157" lon="4.21078">
        <ele>1099.2</ele>
      </trkpt>
      <trkpt lat="45.04168" lon="4.21071">
        <ele>1100.7</ele>
      </trkpt>
      <trkpt lat="45.04246" lon="4.21006">
        <ele>1106.1</ele>
      </trkpt>
      <trkpt lat="45.0426" lon="4.20984">
        <ele>1108.3</ele>
      </trkpt>
      <trkpt lat="45.04268" lon="4.20959">
        <ele>1109.1</ele>
      </trkpt>
      <trkpt lat="45.0427" lon="4.20949">
        <ele>1109.3</ele>
      </trkpt>
      <trkpt lat="45.04271" lon="4.20935">
        <ele>1109.4</ele>
      </trkpt>
      <trkpt lat="45.04269" lon="4.20881">
        <ele>1109.6</ele>
      </trkpt>
      <trkpt lat="45.04255" lon="4.20792">
        <ele>1109.7</ele>
      </trkpt>
      <trkpt lat="45.04251" lon="4.2076">
        <ele>1111</ele>
      </trkpt>
      <trkpt lat="45.04247" lon="4.20702">
        <ele>1115.1</ele>
      </trkpt>
      <trkpt lat="45.04243" lon="4.20653">
        <ele>1116.6</ele>
      </trkpt>
      <trkpt lat="45.04241" lon="4.20616">
        <ele>1117.7</ele>
      </trkpt>
      <trkpt lat="45.04244" lon="4.2059">
        <ele>1116.9</ele>
      </trkpt>
      <trkpt lat="45.04256" lon="4.20536">
        <ele>1116.9</ele>
      </trkpt>
      <trkpt lat="45.04263" lon="4.20501">
        <ele>1119.2</ele>
      </trkpt>
      <trkpt lat="45.04272" lon="4.20473">
        <ele>1122.2</ele>
      </trkpt>
      <trkpt lat="45.04278" lon="4.20458">
        <ele>1122.7</ele>
      </trkpt>
      <trkpt lat="45.04326" lon="4.20376">
        <ele>1128.4</ele>
      </trkpt>
      <trkpt lat="45.0434" lon="4.20353">
        <ele>1124.5</ele>
      </trkpt>
      <trkpt lat="45.04385" lon="4.20282">
        <ele>1127.5</ele>
      </trkpt>
      <trkpt lat="45.04391" lon="4.2027">
        <ele>1127.5</ele>
      </trkpt>
      <trkpt lat="45.044" lon="4.20247">
        <ele>1130.2</ele>
      </trkpt>
      <trkpt lat="45.04402" lon="4.20237">
        <ele>1130.6</ele>
      </trkpt>
      <trkpt lat="45.04402" lon="4.20196">
        <ele>1133.1</ele>
      </trkpt>
      <trkpt lat="45.04398" lon="4.20162">
        <ele>1136.3</ele>
      </trkpt>
      <trkpt lat="45.04397" lon="4.20141">
        <ele>1138.1</ele>
      </trkpt>
      <trkpt lat="45.04397" lon="4.20132">
        <ele>1138.8</ele>
      </trkpt>
      <trkpt lat="45.04403" lon="4.20106">
        <ele>1139.5</ele>
      </trkpt>
      <trkpt lat="45.04421" lon="4.20062">
        <ele>1136.3</ele>
      </trkpt>
      <trkpt lat="45.04427" lon="4.20048">
        <ele>1136.2</ele>
      </trkpt>
      <trkpt lat="45.04435" lon="4.2004">
        <ele>1136.1</ele>
      </trkpt>
      <trkpt lat="45.04439" lon="4.20029">
        <ele>1136.4</ele>
      </trkpt>
      <trkpt lat="45.04442" lon="4.20011">
        <ele>1137.2</ele>
      </trkpt>
      <trkpt lat="45.04457" lon="4.19951">
        <ele>1140.6</ele>
      </trkpt>
      <trkpt lat="45.04467" lon="4.19922">
        <ele>1140.7</ele>
      </trkpt>
      <trkpt lat="45.04477" lon="4.19904">
        <ele>1144.5</ele>
      </trkpt>
      <trkpt lat="45.04491" lon="4.19879">
        <ele>1146</ele>
      </trkpt>
      <trkpt lat="45.04526" lon="4.19833">
        <ele>1150.3</ele>
      </trkpt>
      <trkpt lat="45.04548" lon="4.1981">
        <ele>1150.2</ele>
      </trkpt>
      <trkpt lat="45.04591" lon="4.19771">
        <ele>1149.4</ele>
      </trkpt>
      <trkpt lat="45.04616" lon="4.19742">
        <ele>1155.8</ele>
      </trkpt>
      <trkpt lat="45.04626" lon="4.19729">
        <ele>1155.9</ele>
      </trkpt>
      <trkpt lat="45.04632" lon="4.19717">
        <ele>1156.4</ele>
      </trkpt>
      <trkpt lat="45.0464" lon="4.19679">
        <ele>1158.4</ele>
      </trkpt>
      <trkpt lat="45.04647" lon="4.19644">
        <ele>1165.8</ele>
      </trkpt>
      <trkpt lat="45.04652" lon="4.19617">
        <ele>1167.4</ele>
      </trkpt>
      <trkpt lat="45.04654" lon="4.196">
        <ele>1167.4</ele>
      </trkpt>
      <trkpt lat="45.04672" lon="4.19515">
        <ele>1168.1</ele>
      </trkpt>
      <trkpt lat="45.04686" lon="4.19487">
        <ele>1170.5</ele>
      </trkpt>
      <trkpt lat="45.04744" lon="4.19404">
        <ele>1175</ele>
      </trkpt>
      <trkpt lat="45.04751" lon="4.19388">
        <ele>1177.6</ele>
      </trkpt>
      <trkpt lat="45.04752" lon="4.19374">
        <ele>1178.5</ele>
      </trkpt>
      <trkpt lat="45.04751" lon="4.19362">
        <ele>1179</ele>
      </trkpt>
      <trkpt lat="45.04743" lon="4.19337">
        <ele>1179</ele>
      </trkpt>
      <trkpt lat="45.04735" lon="4.19317">
        <ele>1181.4</ele>
      </trkpt>
      <trkpt lat="45.047" lon="4.1924">
        <ele>1186.8</ele>
      </trkpt>
      <trkpt lat="45.04691" lon="4.19215">
        <ele>1187.1</ele>
      </trkpt>
      <trkpt lat="45.04687" lon="4.19197">
        <ele>1187.4</ele>
      </trkpt>
      <trkpt lat="45.04688" lon="4.19176">
        <ele>1187.6</ele>
      </trkpt>
      <trkpt lat="45.04703" lon="4.19077">
        <ele>1191.2</ele>
      </trkpt>
      <trkpt lat="45.04707" lon="4.19064">
        <ele>1191.4</ele>
      </trkpt>
      <trkpt lat="45.04734" lon="4.1889">
        <ele>1191.1</ele>
      </trkpt>
      <trkpt lat="45.04736" lon="4.1886">
        <ele>1190.9</ele>
      </trkpt>
      <trkpt lat="45.04736" lon="4.18785">
        <ele>1189.7</ele>
      </trkpt>
      <trkpt lat="45.0474" lon="4.18742">
        <ele>1190.3</ele>
      </trkpt>
      <trkpt lat="45.04751" lon="4.18669">
        <ele>1195.2</ele>
      </trkpt>
      <trkpt lat="45.04755" lon="4.18626">
        <ele>1199.2</ele>
      </trkpt>
      <trkpt lat="45.04761" lon="4.18624">
        <ele>1199.4</ele>
      </trkpt>
      <trkpt lat="45.04775" lon="4.18601">
        <ele>1200.2</ele>
      </trkpt>
      <trkpt lat="45.04788" lon="4.18585">
        <ele>1200.9</ele>
      </trkpt>
      <trkpt lat="45.04792" lon="4.18571">
        <ele>1203.4</ele>
      </trkpt>
      <trkpt lat="45.04793" lon="4.18543">
        <ele>1204</ele>
      </trkpt>
      <trkpt lat="45.04789" lon="4.18496">
        <ele>1208.1</ele>
      </trkpt>
      <trkpt lat="45.04777" lon="4.18458">
        <ele>1209</ele>
      </trkpt>
      <trkpt lat="45.04776" lon="4.18423">
        <ele>1210.1</ele>
      </trkpt>
      <trkpt lat="45.0477" lon="4.18407">
        <ele>1212.9</ele>
      </trkpt>
      <trkpt lat="45.04748" lon="4.18374">
        <ele>1208.2</ele>
      </trkpt>
      <trkpt lat="45.04745" lon="4.18363">
        <ele>1208.6</ele>
      </trkpt>
      <trkpt lat="45.04747" lon="4.18355">
        <ele>1209.3</ele>
      </trkpt>
      <trkpt lat="45.04766" lon="4.18308">
        <ele>1216.9</ele>
      </trkpt>
      <trkpt lat="45.04779" lon="4.18269">
        <ele>1218.2</ele>
      </trkpt>
      <trkpt lat="45.0479" lon="4.18227">
        <ele>1221.7</ele>
      </trkpt>
      <trkpt lat="45.04822" lon="4.18136">
        <ele>1228</ele>
      </trkpt>
      <trkpt lat="45.04825" lon="4.18117">
        <ele>1229</ele>
      </trkpt>
      <trkpt lat="45.04823" lon="4.18098">
        <ele>1230.8</ele>
      </trkpt>
      <trkpt lat="45.04818" lon="4.18081">
        <ele>1233.5</ele>
      </trkpt>
      <trkpt lat="45.04838" lon="4.18065">
        <ele>1238.6</ele>
      </trkpt>
      <trkpt lat="45.04891" lon="4.18058">
        <ele>1241.9</ele>
      </trkpt>
      <trkpt lat="45.04933" lon="4.18073">
        <ele>1244.3</ele>
      </trkpt>
      <trkpt lat="45.05" lon="4.18068">
        <ele>1246.5</ele>
      </trkpt>
      <trkpt lat="45.05084" lon="4.18054">
        <ele>1245</ele>
      </trkpt>
      <trkpt lat="45.05171" lon="4.1803">
        <ele>1245.1</ele>
      </trkpt>
      <trkpt lat="45.05211" lon="4.18015">
        <ele>1246</ele>
      </trkpt>
      <trkpt lat="45.05224" lon="4.18011">
        <ele>1246.3</ele>
      </trkpt>
      <trkpt lat="45.05222" lon="4.1798">
        <ele>1243.9</ele>
      </trkpt>
      <trkpt lat="45.0521" lon="4.17882">
        <ele>1239.9</ele>
      </trkpt>
      <trkpt lat="45.05213" lon="4.17867">
        <ele>1239.7</ele>
      </trkpt>
      <trkpt lat="45.05235" lon="4.17852">
        <ele>1239.9</ele>
      </trkpt>
      <trkpt lat="45.05316" lon="4.17765">
        <ele>1239.3</ele>
      </trkpt>
      <trkpt lat="45.05398" lon="4.17625">
        <ele>1227.9</ele>
      </trkpt>
      <trkpt lat="45.05423" lon="4.17569">
        <ele>1220.1</ele>
      </trkpt>
      <trkpt lat="45.05452" lon="4.17525">
        <ele>1215.7</ele>
      </trkpt>
      <trkpt lat="45.05462" lon="4.17523">
        <ele>1215.6</ele>
      </trkpt>
      <trkpt lat="45.05474" lon="4.1752">
        <ele>1215.3</ele>
      </trkpt>
      <trkpt lat="45.05498" lon="4.17513">
        <ele>1213.5</ele>
      </trkpt>
      <trkpt lat="45.05598" lon="4.17454">
        <ele>1208.6</ele>
      </trkpt>
      <trkpt lat="45.05624" lon="4.17441">
        <ele>1208.4</ele>
      </trkpt>
      <trkpt lat="45.05637" lon="4.17418">
        <ele>1207.4</ele>
      </trkpt>
      <trkpt lat="45.05649" lon="4.17402">
        <ele>1200.3</ele>
      </trkpt>
      <trkpt lat="45.0565" lon="4.17384">
        <ele>1198.6</ele>
      </trkpt>
      <trkpt lat="45.05646" lon="4.17373">
        <ele>1197.5</ele>
      </trkpt>
      <trkpt lat="45.05636" lon="4.17365">
        <ele>1196.8</ele>
      </trkpt>
      <trkpt lat="45.05627" lon="4.17361">
        <ele>1196.4</ele>
      </trkpt>
      <trkpt lat="45.05622" lon="4.1735">
        <ele>1195.6</ele>
      </trkpt>
      <trkpt lat="45.05621" lon="4.17332">
        <ele>1188.3</ele>
      </trkpt>
      <trkpt lat="45.05628" lon="4.17302">
        <ele>1187.2</ele>
      </trkpt>
      <trkpt lat="45.05644" lon="4.17224">
        <ele>1178.2</ele>
      </trkpt>
      <trkpt lat="45.05655" lon="4.17196">
        <ele>1176.1</ele>
      </trkpt>
      <trkpt lat="45.05665" lon="4.17175">
        <ele>1174.1</ele>
      </trkpt>
      <trkpt lat="45.05702" lon="4.17143">
        <ele>1171.8</ele>
      </trkpt>
      <trkpt lat="45.05715" lon="4.1713">
        <ele>1171.5</ele>
      </trkpt>
      <trkpt lat="45.05729" lon="4.17106">
        <ele>1170.3</ele>
      </trkpt>
      <trkpt lat="45.05736" lon="4.17088">
        <ele>1169.2</ele>
      </trkpt>
      <trkpt lat="45.05737" lon="4.17072">
        <ele>1164.4</ele>
      </trkpt>
      <trkpt lat="45.05735" lon="4.17063">
        <ele>1163.3</ele>
      </trkpt>
      <trkpt lat="45.0573" lon="4.17056">
        <ele>1162.4</ele>
      </trkpt>
      <trkpt lat="45.057" lon="4.1703">
        <ele>1159.8</ele>
      </trkpt>
      <trkpt lat="45.05682" lon="4.17009">
        <ele>1157.3</ele>
      </trkpt>
      <trkpt lat="45.05681" lon="4.17">
        <ele>1153</ele>
      </trkpt>
      <trkpt lat="45.05682" lon="4.16993">
        <ele>1152.8</ele>
      </trkpt>
      <trkpt lat="45.05688" lon="4.16928">
        <ele>1149.4</ele>
      </trkpt>
      <trkpt lat="45.05688" lon="4.169">
        <ele>1144.2</ele>
      </trkpt>
      <trkpt lat="45.05685" lon="4.16886">
        <ele>1143.4</ele>
      </trkpt>
      <trkpt lat="45.05668" lon="4.16853">
        <ele>1141.5</ele>
      </trkpt>
      <trkpt lat="45.05667" lon="4.16839">
        <ele>1140.5</ele>
      </trkpt>
      <trkpt lat="45.05675" lon="4.16815">
        <ele>1136.8</ele>
      </trkpt>
      <trkpt lat="45.05686" lon="4.16772">
        <ele>1133.7</ele>
      </trkpt>
      <trkpt lat="45.05694" lon="4.16738">
        <ele>1128.6</ele>
      </trkpt>
      <trkpt lat="45.05695" lon="4.16721">
        <ele>1127.8</ele>
      </trkpt>
      <trkpt lat="45.05692" lon="4.16705">
        <ele>1127.1</ele>
      </trkpt>
      <trkpt lat="45.05687" lon="4.1669">
        <ele>1126.5</ele>
      </trkpt>
      <trkpt lat="45.05642" lon="4.16621">
        <ele>1120.7</ele>
      </trkpt>
      <trkpt lat="45.0564" lon="4.16612">
        <ele>1120.3</ele>
      </trkpt>
      <trkpt lat="45.05641" lon="4.166">
        <ele>1119.8</ele>
      </trkpt>
      <trkpt lat="45.05647" lon="4.16587">
        <ele>1119.4</ele>
      </trkpt>
      <trkpt lat="45.05664" lon="4.16565">
        <ele>1116.6</ele>
      </trkpt>
      <trkpt lat="45.05677" lon="4.16539">
        <ele>1114.7</ele>
      </trkpt>
      <trkpt lat="45.05684" lon="4.16515">
        <ele>1114.3</ele>
      </trkpt>
      <trkpt lat="45.05695" lon="4.1647">
        <ele>1109.4</ele>
      </trkpt>
      <trkpt lat="45.05703" lon="4.16451">
        <ele>1108.2</ele>
      </trkpt>
      <trkpt lat="45.05718" lon="4.1643">
        <ele>1106.6</ele>
      </trkpt>
      <trkpt lat="45.05763" lon="4.16377">
        <ele>1096.5</ele>
      </trkpt>
      <trkpt lat="45.05784" lon="4.16341">
        <ele>1095.1</ele>
      </trkpt>
      <trkpt lat="45.05815" lon="4.16274">
        <ele>1089.9</ele>
      </trkpt>
      <trkpt lat="45.05825" lon="4.16259">
        <ele>1088.2</ele>
      </trkpt>
      <trkpt lat="45.05831" lon="4.16252">
        <ele>1086.7</ele>
      </trkpt>
      <trkpt lat="45.05848" lon="4.16242">
        <ele>1085.6</ele>
      </trkpt>
      <trkpt lat="45.0588" lon="4.16215">
        <ele>1085.1</ele>
      </trkpt>
      <trkpt lat="45.05916" lon="4.16195">
        <ele>1084.6</ele>
      </trkpt>
      <trkpt lat="45.05951" lon="4.16182">
        <ele>1082.2</ele>
      </trkpt>
      <trkpt lat="45.05959" lon="4.16176">
        <ele>1082</ele>
      </trkpt>
      <trkpt lat="45.05984" lon="4.16142">
        <ele>1082.1</ele>
      </trkpt>
      <trkpt lat="45.05992" lon="4.16123">
        <ele>1082.3</ele>
      </trkpt>
      <trkpt lat="45.06008" lon="4.16053">
        <ele>1081.3</ele>
      </trkpt>
      <trkpt lat="45.06022" lon="4.16016">
        <ele>1081.9</ele>
      </trkpt>
      <trkpt lat="45.06023" lon="4.16009">
        <ele>1082</ele>
      </trkpt>
      <trkpt lat="45.06035" lon="4.16009">
        <ele>1081.6</ele>
      </trkpt>
      <trkpt lat="45.06051" lon="4.16008">
        <ele>1081.1</ele>
      </trkpt>
      <trkpt lat="45.06108" lon="4.16006">
        <ele>1079.2</ele>
      </trkpt>
      <trkpt lat="45.06154" lon="4.16001">
        <ele>1078.9</ele>
      </trkpt>
      <trkpt lat="45.06196" lon="4.15997">
        <ele>1079.6</ele>
      </trkpt>
      <trkpt lat="45.06215" lon="4.15995">
        <ele>1079.6</ele>
      </trkpt>
      <trkpt lat="45.06237" lon="4.15993">
        <ele>1079</ele>
      </trkpt>
      <trkpt lat="45.06256" lon="4.15989">
        <ele>1078</ele>
      </trkpt>
      <trkpt lat="45.06265" lon="4.15986">
        <ele>1077.9</ele>
      </trkpt>
      <trkpt lat="45.06275" lon="4.15979">
        <ele>1077.9</ele>
      </trkpt>
      <trkpt lat="45.0632" lon="4.15951">
        <ele>1077.7</ele>
      </trkpt>
      <trkpt lat="45.06347" lon="4.15934">
        <ele>1076.2</ele>
      </trkpt>
      <trkpt lat="45.06361" lon="4.15925">
        <ele>1075.8</ele>
      </trkpt>
      <trkpt lat="45.06386" lon="4.15909">
        <ele>1077.7</ele>
      </trkpt>
      <trkpt lat="45.06441" lon="4.15872">
        <ele>1075.5</ele>
      </trkpt>
      <trkpt lat="45.0649" lon="4.15844">
        <ele>1076</ele>
      </trkpt>
      <trkpt lat="45.06509" lon="4.1583">
        <ele>1077.2</ele>
      </trkpt>
      <trkpt lat="45.06517" lon="4.15823">
        <ele>1077.3</ele>
      </trkpt>
      <trkpt lat="45.06532" lon="4.15803">
        <ele>1077.6</ele>
      </trkpt>
      <trkpt lat="45.06555" lon="4.15784">
        <ele>1077.8</ele>
      </trkpt>
      <trkpt lat="45.06561" lon="4.15781">
        <ele>1077.8</ele>
      </trkpt>
      <trkpt lat="45.06576" lon="4.15771">
        <ele>1078.1</ele>
      </trkpt>
      <trkpt lat="45.06597" lon="4.15756">
        <ele>1078</ele>
      </trkpt>
      <trkpt lat="45.06623" lon="4.15729">
        <ele>1081.8</ele>
      </trkpt>
      <trkpt lat="45.06634" lon="4.15716">
        <ele>1082.2</ele>
      </trkpt>
      <trkpt lat="45.06748" lon="4.15572">
        <ele>1088</ele>
      </trkpt>
      <trkpt lat="45.06823" lon="4.15486">
        <ele>1090.4</ele>
      </trkpt>
      <trkpt lat="45.06837" lon="4.15475">
        <ele>1088.5</ele>
      </trkpt>
      <trkpt lat="45.0685" lon="4.15468">
        <ele>1089.1</ele>
      </trkpt>
      <trkpt lat="45.06874" lon="4.15459">
        <ele>1089.5</ele>
      </trkpt>
      <trkpt lat="45.06892" lon="4.15456">
        <ele>1089.5</ele>
      </trkpt>
      <trkpt lat="45.06907" lon="4.15457">
        <ele>1089.3</ele>
      </trkpt>
      <trkpt lat="45.06927" lon="4.15463">
        <ele>1089.4</ele>
      </trkpt>
      <trkpt lat="45.07025" lon="4.15513">
        <ele>1086</ele>
      </trkpt>
      <trkpt lat="45.07057" lon="4.1552">
        <ele>1087.5</ele>
      </trkpt>
      <trkpt lat="45.07071" lon="4.15518">
        <ele>1088.7</ele>
      </trkpt>
      <trkpt lat="45.07148" lon="4.15488">
        <ele>1096.7</ele>
      </trkpt>
      <trkpt lat="45.0717" lon="4.15481">
        <ele>1096.4</ele>
      </trkpt>
      <trkpt lat="45.07169" lon="4.15475">
        <ele>1096.5</ele>
      </trkpt>
      <trkpt lat="45.07166" lon="4.15465">
        <ele>1097.3</ele>
      </trkpt>
      <trkpt lat="45.07152" lon="4.15437">
        <ele>1098.1</ele>
      </trkpt>
      <trkpt lat="45.07149" lon="4.15423">
        <ele>1098.4</ele>
      </trkpt>
      <trkpt lat="45.07147" lon="4.15397">
        <ele>1101.8</ele>
      </trkpt>
      <trkpt lat="45.07135" lon="4.15336">
        <ele>1103.9</ele>
      </trkpt>
      <trkpt lat="45.07134" lon="4.15318">
        <ele>1106.6</ele>
      </trkpt>
      <trkpt lat="45.07136" lon="4.15307">
        <ele>1106.8</ele>
      </trkpt>
      <trkpt lat="45.07141" lon="4.15302">
        <ele>1106.8</ele>
      </trkpt>
      <trkpt lat="45.07151" lon="4.153">
        <ele>1106.7</ele>
      </trkpt>
      <trkpt lat="45.07188" lon="4.15299">
        <ele>1105.3</ele>
      </trkpt>
      <trkpt lat="45.07223" lon="4.1529">
        <ele>1105.1</ele>
      </trkpt>
      <trkpt lat="45.07227" lon="4.15286">
        <ele>1105.1</ele>
      </trkpt>
      <trkpt lat="45.07228" lon="4.15277">
        <ele>1105.2</ele>
      </trkpt>
      <trkpt lat="45.07227" lon="4.15269">
        <ele>1105.2</ele>
      </trkpt>
      <trkpt lat="45.07196" lon="4.15167">
        <ele>1109.5</ele>
      </trkpt>
      <trkpt lat="45.0719" lon="4.15154">
        <ele>1112.4</ele>
      </trkpt>
      <trkpt lat="45.07162" lon="4.1512">
        <ele>1116.6</ele>
      </trkpt>
      <trkpt lat="45.07154" lon="4.15107">
        <ele>1117.1</ele>
      </trkpt>
      <trkpt lat="45.0715" lon="4.15095">
        <ele>1117.3</ele>
      </trkpt>
      <trkpt lat="45.07151" lon="4.15085">
        <ele>1117.3</ele>
      </trkpt>
      <trkpt lat="45.07146" lon="4.15078">
        <ele>1120.7</ele>
      </trkpt>
      <trkpt lat="45.07141" lon="4.15064">
        <ele>1121.8</ele>
      </trkpt>
      <trkpt lat="45.07139" lon="4.15053">
        <ele>1122.5</ele>
      </trkpt>
      <trkpt lat="45.07139" lon="4.15037">
        <ele>1123.4</ele>
      </trkpt>
      <trkpt lat="45.07142" lon="4.15022">
        <ele>1124.1</ele>
      </trkpt>
      <trkpt lat="45.0715" lon="4.15007">
        <ele>1124.8</ele>
      </trkpt>
      <trkpt lat="45.07172" lon="4.1497">
        <ele>1126.3</ele>
      </trkpt>
      <trkpt lat="45.07179" lon="4.14957">
        <ele>1126.7</ele>
      </trkpt>
      <trkpt lat="45.07197" lon="4.14907">
        <ele>1129.4</ele>
      </trkpt>
      <trkpt lat="45.07223" lon="4.1482">
        <ele>1132.4</ele>
      </trkpt>
      <trkpt lat="45.07262" lon="4.14698">
        <ele>1139.4</ele>
      </trkpt>
      <trkpt lat="45.07268" lon="4.14679">
        <ele>1140.8</ele>
      </trkpt>
      <trkpt lat="45.07282" lon="4.14644">
        <ele>1147.8</ele>
      </trkpt>
      <trkpt lat="45.07304" lon="4.14613">
        <ele>1149.8</ele>
      </trkpt>
      <trkpt lat="45.0732" lon="4.14598">
        <ele>1151.6</ele>
      </trkpt>
      <trkpt lat="45.07375" lon="4.14577">
        <ele>1155.2</ele>
      </trkpt>
      <trkpt lat="45.07395" lon="4.14562">
        <ele>1154.4</ele>
      </trkpt>
      <trkpt lat="45.07414" lon="4.14536">
        <ele>1156.9</ele>
      </trkpt>
      <trkpt lat="45.07427" lon="4.14506">
        <ele>1154.8</ele>
      </trkpt>
      <trkpt lat="45.07435" lon="4.14461">
        <ele>1156.1</ele>
      </trkpt>
      <trkpt lat="45.07429" lon="4.14406">
        <ele>1160.9</ele>
      </trkpt>
      <trkpt lat="45.07399" lon="4.14256">
        <ele>1171.5</ele>
      </trkpt>
      <trkpt lat="45.07404" lon="4.14208">
        <ele>1176.3</ele>
      </trkpt>
      <trkpt lat="45.07422" lon="4.1416">
        <ele>1174.9</ele>
      </trkpt>
      <trkpt lat="45.07433" lon="4.14112">
        <ele>1174.7</ele>
      </trkpt>
      <trkpt lat="45.07443" lon="4.14033">
        <ele>1178.2</ele>
      </trkpt>
      <trkpt lat="45.07458" lon="4.13941">
        <ele>1182.6</ele>
      </trkpt>
      <trkpt lat="45.07465" lon="4.13899">
        <ele>1187.6</ele>
      </trkpt>
      <trkpt lat="45.07467" lon="4.13839">
        <ele>1190</ele>
      </trkpt>
      <trkpt lat="45.07467" lon="4.1375">
        <ele>1197.1</ele>
      </trkpt>
      <trkpt lat="45.07467" lon="4.13706">
        <ele>1202.2</ele>
      </trkpt>
      <trkpt lat="45.07466" lon="4.13672">
        <ele>1202.9</ele>
      </trkpt>
      <trkpt lat="45.07466" lon="4.13624">
        <ele>1209.3</ele>
      </trkpt>
      <trkpt lat="45.07466" lon="4.13459">
        <ele>1221.1</ele>
      </trkpt>
      <trkpt lat="45.07465" lon="4.13335">
        <ele>1224.2</ele>
      </trkpt>
      <trkpt lat="45.07453" lon="4.13248">
        <ele>1229.8</ele>
      </trkpt>
      <trkpt lat="45.07427" lon="4.13172">
        <ele>1234.8</ele>
      </trkpt>
      <trkpt lat="45.07391" lon="4.13103">
        <ele>1243</ele>
      </trkpt>
      <trkpt lat="45.07384" lon="4.13089">
        <ele>1243.5</ele>
      </trkpt>
      <trkpt lat="45.07304" lon="4.12943">
        <ele>1255.5</ele>
      </trkpt>
      <trkpt lat="45.07269" lon="4.12877">
        <ele>1254.2</ele>
      </trkpt>
      <trkpt lat="45.07266" lon="4.12871">
        <ele>1254.1</ele>
      </trkpt>
      <trkpt lat="45.07198" lon="4.12752">
        <ele>1260.5</ele>
      </trkpt>
      <trkpt lat="45.07176" lon="4.12729">
        <ele>1263.8</ele>
      </trkpt>
      <trkpt lat="45.07161" lon="4.12717">
        <ele>1267.6</ele>
      </trkpt>
      <trkpt lat="45.07088" lon="4.12672">
        <ele>1270.6</ele>
      </trkpt>
      <trkpt lat="45.07021" lon="4.12626">
        <ele>1271.9</ele>
      </trkpt>
      <trkpt lat="45.06993" lon="4.12595">
        <ele>1272.5</ele>
      </trkpt>
      <trkpt lat="45.06974" lon="4.12555">
        <ele>1272.1</ele>
      </trkpt>
      <trkpt lat="45.06919" lon="4.12373">
        <ele>1269.8</ele>
      </trkpt>
      <trkpt lat="45.06887" lon="4.12244">
        <ele>1268.2</ele>
      </trkpt>
      <trkpt lat="45.06853" lon="4.12141">
        <ele>1268.3</ele>
      </trkpt>
      <trkpt lat="45.06835" lon="4.1209">
        <ele>1267.7</ele>
      </trkpt>
      <trkpt lat="45.06819" lon="4.12063">
        <ele>1267.8</ele>
      </trkpt>
      <trkpt lat="45.06818" lon="4.12061">
        <ele>1267.9</ele>
      </trkpt>
      <trkpt lat="45.06812" lon="4.12021">
        <ele>1268.8</ele>
      </trkpt>
      <trkpt lat="45.06815" lon="4.11968">
        <ele>1267.2</ele>
      </trkpt>
      <trkpt lat="45.06825" lon="4.11886">
        <ele>1258.8</ele>
      </trkpt>
      <trkpt lat="45.06838" lon="4.11817">
        <ele>1259</ele>
      </trkpt>
      <trkpt lat="45.06863" lon="4.11735">
        <ele>1252.3</ele>
      </trkpt>
      <trkpt lat="45.0688" lon="4.1166">
        <ele>1247.5</ele>
      </trkpt>
      <trkpt lat="45.06892" lon="4.11565">
        <ele>1241.9</ele>
      </trkpt>
      <trkpt lat="45.06892" lon="4.11472">
        <ele>1233.7</ele>
      </trkpt>
      <trkpt lat="45.06896" lon="4.11423">
        <ele>1234.4</ele>
      </trkpt>
      <trkpt lat="45.06905" lon="4.11384">
        <ele>1226.8</ele>
      </trkpt>
      <trkpt lat="45.06914" lon="4.11365">
        <ele>1225.6</ele>
      </trkpt>
      <trkpt lat="45.06925" lon="4.11342">
        <ele>1237.6</ele>
      </trkpt>
      <trkpt lat="45.0695" lon="4.11259">
        <ele>1234.6</ele>
      </trkpt>
      <trkpt lat="45.06953" lon="4.11189">
        <ele>1227.5</ele>
      </trkpt>
      <trkpt lat="45.06944" lon="4.11117">
        <ele>1221.3</ele>
      </trkpt>
      <trkpt lat="45.06949" lon="4.11061">
        <ele>1216.5</ele>
      </trkpt>
      <trkpt lat="45.06963" lon="4.11027">
        <ele>1215.3</ele>
      </trkpt>
      <trkpt lat="45.06979" lon="4.1099">
        <ele>1208.2</ele>
      </trkpt>
      <trkpt lat="45.06996" lon="4.10966">
        <ele>1206.6</ele>
      </trkpt>
      <trkpt lat="45.07075" lon="4.10889">
        <ele>1200.4</ele>
      </trkpt>
      <trkpt lat="45.0709" lon="4.1087">
        <ele>1202.6</ele>
      </trkpt>
      <trkpt lat="45.07101" lon="4.10833">
        <ele>1193.7</ele>
      </trkpt>
      <trkpt lat="45.07122" lon="4.10804">
        <ele>1194.2</ele>
      </trkpt>
      <trkpt lat="45.07139" lon="4.10797">
        <ele>1194.8</ele>
      </trkpt>
      <trkpt lat="45.07151" lon="4.10768">
        <ele>1193.9</ele>
      </trkpt>
      <trkpt lat="45.07195" lon="4.10604">
        <ele>1181.7</ele>
      </trkpt>
      <trkpt lat="45.07201" lon="4.10564">
        <ele>1176.2</ele>
      </trkpt>
      <trkpt lat="45.07222" lon="4.10496">
        <ele>1171</ele>
      </trkpt>
      <trkpt lat="45.07267" lon="4.10376">
        <ele>1168</ele>
      </trkpt>
      <trkpt lat="45.073" lon="4.10298">
        <ele>1162.6</ele>
      </trkpt>
      <trkpt lat="45.07319" lon="4.10243">
        <ele>1159.9</ele>
      </trkpt>
      <trkpt lat="45.07319" lon="4.10206">
        <ele>1157.4</ele>
      </trkpt>
      <trkpt lat="45.07308" lon="4.10171">
        <ele>1156.3</ele>
      </trkpt>
      <trkpt lat="45.07302" lon="4.10148">
        <ele>1153</ele>
      </trkpt>
      <trkpt lat="45.07288" lon="4.10075">
        <ele>1149</ele>
      </trkpt>
      <trkpt lat="45.07271" lon="4.10016">
        <ele>1146.9</ele>
      </trkpt>
      <trkpt lat="45.07237" lon="4.0994">
        <ele>1140.5</ele>
      </trkpt>
      <trkpt lat="45.07208" lon="4.09888">
        <ele>1139.9</ele>
      </trkpt>
      <trkpt lat="45.07205" lon="4.09881">
        <ele>1139.8</ele>
      </trkpt>
      <trkpt lat="45.07192" lon="4.09857">
        <ele>1138.9</ele>
      </trkpt>
      <trkpt lat="45.07179" lon="4.0983">
        <ele>1138.1</ele>
      </trkpt>
      <trkpt lat="45.07171" lon="4.09815">
        <ele>1139</ele>
      </trkpt>
      <trkpt lat="45.07151" lon="4.0978">
        <ele>1131.2</ele>
      </trkpt>
      <trkpt lat="45.07128" lon="4.09747">
        <ele>1131.7</ele>
      </trkpt>
      <trkpt lat="45.07111" lon="4.09732">
        <ele>1130</ele>
      </trkpt>
      <trkpt lat="45.07097" lon="4.09726">
        <ele>1129.1</ele>
      </trkpt>
      <trkpt lat="45.07087" lon="4.09725">
        <ele>1128.6</ele>
      </trkpt>
      <trkpt lat="45.0706" lon="4.09735">
        <ele>1123.1</ele>
      </trkpt>
      <trkpt lat="45.0705" lon="4.09733">
        <ele>1122.6</ele>
      </trkpt>
      <trkpt lat="45.07019" lon="4.09718">
        <ele>1121.6</ele>
      </trkpt>
      <trkpt lat="45.06955" lon="4.09702">
        <ele>1114.4</ele>
      </trkpt>
      <trkpt lat="45.06906" lon="4.09697">
        <ele>1104.3</ele>
      </trkpt>
      <trkpt lat="45.0689" lon="4.09677">
        <ele>1104.9</ele>
      </trkpt>
      <trkpt lat="45.06885" lon="4.09643">
        <ele>1107.3</ele>
      </trkpt>
      <trkpt lat="45.06891" lon="4.09596">
        <ele>1109.4</ele>
      </trkpt>
      <trkpt lat="45.06919" lon="4.09451">
        <ele>1104.1</ele>
      </trkpt>
      <trkpt lat="45.06944" lon="4.09392">
        <ele>1093.4</ele>
      </trkpt>
      <trkpt lat="45.06981" lon="4.0934">
        <ele>1092.5</ele>
      </trkpt>
      <trkpt lat="45.07023" lon="4.09298">
        <ele>1086</ele>
      </trkpt>
      <trkpt lat="45.07043" lon="4.09286">
        <ele>1085</ele>
      </trkpt>
      <trkpt lat="45.07048" lon="4.09283">
        <ele>1084.7</ele>
      </trkpt>
      <trkpt lat="45.07072" lon="4.09278">
        <ele>1083.9</ele>
      </trkpt>
      <trkpt lat="45.07091" lon="4.09287">
        <ele>1082.7</ele>
      </trkpt>
      <trkpt lat="45.07143" lon="4.09322">
        <ele>1082.8</ele>
      </trkpt>
      <trkpt lat="45.07167" lon="4.09333">
        <ele>1082.9</ele>
      </trkpt>
      <trkpt lat="45.07185" lon="4.09334">
        <ele>1085.1</ele>
      </trkpt>
      <trkpt lat="45.07197" lon="4.09331">
        <ele>1080.3</ele>
      </trkpt>
      <trkpt lat="45.07218" lon="4.09318">
        <ele>1079.9</ele>
      </trkpt>
      <trkpt lat="45.07256" lon="4.09245">
        <ele>1079.8</ele>
      </trkpt>
      <trkpt lat="45.07259" lon="4.09215">
        <ele>1080.6</ele>
      </trkpt>
      <trkpt lat="45.07256" lon="4.09193">
        <ele>1079.9</ele>
      </trkpt>
      <trkpt lat="45.07166" lon="4.09064">
        <ele>1072</ele>
      </trkpt>
      <trkpt lat="45.07133" lon="4.08998">
        <ele>1075.1</ele>
      </trkpt>
      <trkpt lat="45.07117" lon="4.08957">
        <ele>1075</ele>
      </trkpt>
      <trkpt lat="45.07113" lon="4.08952">
        <ele>1074.9</ele>
      </trkpt>
      <trkpt lat="45.07078" lon="4.08911">
        <ele>1073.3</ele>
      </trkpt>
      <trkpt lat="45.07014" lon="4.08845">
        <ele>1070.3</ele>
      </trkpt>
      <trkpt lat="45.06975" lon="4.08801">
        <ele>1068</ele>
      </trkpt>
      <trkpt lat="45.06942" lon="4.08762">
        <ele>1067.3</ele>
      </trkpt>
      <trkpt lat="45.06932" lon="4.08746">
        <ele>1068.7</ele>
      </trkpt>
      <trkpt lat="45.06918" lon="4.08721">
        <ele>1069.6</ele>
      </trkpt>
      <trkpt lat="45.06887" lon="4.08674">
        <ele>1063.5</ele>
      </trkpt>
      <trkpt lat="45.06874" lon="4.08639">
        <ele>1064.2</ele>
      </trkpt>
      <trkpt lat="45.06865" lon="4.08606">
        <ele>1063.9</ele>
      </trkpt>
      <trkpt lat="45.06861" lon="4.08592">
        <ele>1063.4</ele>
      </trkpt>
      <trkpt lat="45.06839" lon="4.08514">
        <ele>1063.7</ele>
      </trkpt>
      <trkpt lat="45.06813" lon="4.08454">
        <ele>1054.7</ele>
      </trkpt>
      <trkpt lat="45.06803" lon="4.08419">
        <ele>1054.6</ele>
      </trkpt>
      <trkpt lat="45.06795" lon="4.0836">
        <ele>1054.6</ele>
      </trkpt>
      <trkpt lat="45.06782" lon="4.0832">
        <ele>1053.8</ele>
      </trkpt>
      <trkpt lat="45.06765" lon="4.08285">
        <ele>1052.7</ele>
      </trkpt>
      <trkpt lat="45.06749" lon="4.08257">
        <ele>1044.8</ele>
      </trkpt>
      <trkpt lat="45.06707" lon="4.08203">
        <ele>1041</ele>
      </trkpt>
      <trkpt lat="45.06695" lon="4.08175">
        <ele>1040.1</ele>
      </trkpt>
      <trkpt lat="45.06688" lon="4.08156">
        <ele>1040.6</ele>
      </trkpt>
      <trkpt lat="45.06671" lon="4.08105">
        <ele>1040.1</ele>
      </trkpt>
      <trkpt lat="45.06649" lon="4.08029">
        <ele>1031.9</ele>
      </trkpt>
      <trkpt lat="45.06643" lon="4.07997">
        <ele>1030.4</ele>
      </trkpt>
      <trkpt lat="45.06635" lon="4.0795">
        <ele>1028</ele>
      </trkpt>
      <trkpt lat="45.06636" lon="4.0793">
        <ele>1027.9</ele>
      </trkpt>
      <trkpt lat="45.06639" lon="4.07886">
        <ele>1023.7</ele>
      </trkpt>
      <trkpt lat="45.06646" lon="4.07792">
        <ele>1017.4</ele>
      </trkpt>
      <trkpt lat="45.0665" lon="4.07759">
        <ele>1017.4</ele>
      </trkpt>
      <trkpt lat="45.06672" lon="4.07712">
        <ele>1017.1</ele>
      </trkpt>
      <trkpt lat="45.06685" lon="4.07695">
        <ele>1016.1</ele>
      </trkpt>
      <trkpt lat="45.06735" lon="4.07628">
        <ele>1010.6</ele>
      </trkpt>
      <trkpt lat="45.06759" lon="4.07597">
        <ele>1010.8</ele>
      </trkpt>
      <trkpt lat="45.06818" lon="4.07526">
        <ele>1007.1</ele>
      </trkpt>
      <trkpt lat="45.06846" lon="4.07492">
        <ele>1006.1</ele>
      </trkpt>
      <trkpt lat="45.0686" lon="4.07477">
        <ele>1005.5</ele>
      </trkpt>
      <trkpt lat="45.06863" lon="4.07471">
        <ele>1005.2</ele>
      </trkpt>
      <trkpt lat="45.06872" lon="4.07457">
        <ele>1004.6</ele>
      </trkpt>
      <trkpt lat="45.0687" lon="4.0743">
        <ele>1003.3</ele>
      </trkpt>
      <trkpt lat="45.06857" lon="4.07403">
        <ele>997.2</ele>
      </trkpt>
      <trkpt lat="45.06839" lon="4.07376">
        <ele>995.7</ele>
      </trkpt>
      <trkpt lat="45.06766" lon="4.0732">
        <ele>989.1</ele>
      </trkpt>
      <trkpt lat="45.06761" lon="4.07306">
        <ele>988.4</ele>
      </trkpt>
      <trkpt lat="45.06758" lon="4.07295">
        <ele>987.7</ele>
      </trkpt>
      <trkpt lat="45.06769" lon="4.07257">
        <ele>985.8</ele>
      </trkpt>
      <trkpt lat="45.06772" lon="4.07244">
        <ele>981.9</ele>
      </trkpt>
      <trkpt lat="45.06776" lon="4.07228">
        <ele>981.1</ele>
      </trkpt>
      <trkpt lat="45.06771" lon="4.07128">
        <ele>974.6</ele>
      </trkpt>
      <trkpt lat="45.06772" lon="4.07107">
        <ele>973.8</ele>
      </trkpt>
      <trkpt lat="45.06776" lon="4.07076">
        <ele>970.5</ele>
      </trkpt>
      <trkpt lat="45.06788" lon="4.07039">
        <ele>969.6</ele>
      </trkpt>
      <trkpt lat="45.06798" lon="4.0702">
        <ele>969.2</ele>
      </trkpt>
      <trkpt lat="45.06855" lon="4.06941">
        <ele>963.5</ele>
      </trkpt>
      <trkpt lat="45.06862" lon="4.06917">
        <ele>963</ele>
      </trkpt>
      <trkpt lat="45.06863" lon="4.06881">
        <ele>958.9</ele>
      </trkpt>
      <trkpt lat="45.0687" lon="4.06793">
        <ele>954.2</ele>
      </trkpt>
      <trkpt lat="45.06874" lon="4.06777">
        <ele>953.7</ele>
      </trkpt>
      <trkpt lat="45.06882" lon="4.06759">
        <ele>953</ele>
      </trkpt>
      <trkpt lat="45.06892" lon="4.06746">
        <ele>950.4</ele>
      </trkpt>
      <trkpt lat="45.06904" lon="4.06737">
        <ele>949.9</ele>
      </trkpt>
      <trkpt lat="45.06929" lon="4.06726">
        <ele>947.1</ele>
      </trkpt>
      <trkpt lat="45.06931" lon="4.06724">
        <ele>947</ele>
      </trkpt>
      <trkpt lat="45.06949" lon="4.06745">
        <ele>946.8</ele>
      </trkpt>
      <trkpt lat="45.06954" lon="4.06744">
        <ele>946.7</ele>
      </trkpt>
      <trkpt lat="45.0698" lon="4.0673">
        <ele>945.9</ele>
      </trkpt>
      <trkpt lat="45.07074" lon="4.06624">
        <ele>941.6</ele>
      </trkpt>
      <trkpt lat="45.07101" lon="4.06593">
        <ele>939.9</ele>
      </trkpt>
      <trkpt lat="45.07112" lon="4.06581">
        <ele>939.1</ele>
      </trkpt>
      <trkpt lat="45.0714" lon="4.0655">
        <ele>939.2</ele>
      </trkpt>
      <trkpt lat="45.07194" lon="4.06491">
        <ele>938.8</ele>
      </trkpt>
      <trkpt lat="45.07227" lon="4.06457">
        <ele>937.9</ele>
      </trkpt>
      <trkpt lat="45.07247" lon="4.06437">
        <ele>937.3</ele>
      </trkpt>
      <trkpt lat="45.073" lon="4.06394">
        <ele>934.3</ele>
      </trkpt>
      <trkpt lat="45.07318" lon="4.06376">
        <ele>934</ele>
      </trkpt>
      <trkpt lat="45.07331" lon="4.06361">
        <ele>933.8</ele>
      </trkpt>
      <trkpt lat="45.07381" lon="4.06281">
        <ele>926.5</ele>
      </trkpt>
      <trkpt lat="45.07396" lon="4.06254">
        <ele>924.7</ele>
      </trkpt>
      <trkpt lat="45.0742" lon="4.06201">
        <ele>916.3</ele>
      </trkpt>
      <trkpt lat="45.0744" lon="4.06147">
        <ele>914.8</ele>
      </trkpt>
      <trkpt lat="45.07472" lon="4.06066">
        <ele>912.1</ele>
      </trkpt>
      <trkpt lat="45.07516" lon="4.05973">
        <ele>899.4</ele>
      </trkpt>
      <trkpt lat="45.07525" lon="4.05947">
        <ele>899</ele>
      </trkpt>
      <trkpt lat="45.07567" lon="4.05788">
        <ele>896.7</ele>
      </trkpt>
      <trkpt lat="45.07579" lon="4.05724">
        <ele>893.6</ele>
      </trkpt>
      <trkpt lat="45.07585" lon="4.05673">
        <ele>882.9</ele>
      </trkpt>
      <trkpt lat="45.07596" lon="4.05559">
        <ele>873.5</ele>
      </trkpt>
      <trkpt lat="45.07598" lon="4.05522">
        <ele>872.4</ele>
      </trkpt>
      <trkpt lat="45.07598" lon="4.055">
        <ele>871.5</ele>
      </trkpt>
      <trkpt lat="45.07596" lon="4.05467">
        <ele>868.7</ele>
      </trkpt>
      <trkpt lat="45.07591" lon="4.05429">
        <ele>868.4</ele>
      </trkpt>
      <trkpt lat="45.07582" lon="4.05386">
        <ele>870.5</ele>
      </trkpt>
      <trkpt lat="45.07575" lon="4.05367">
        <ele>869.5</ele>
      </trkpt>
      <trkpt lat="45.07571" lon="4.05357">
        <ele>868.7</ele>
      </trkpt>
      <trkpt lat="45.07557" lon="4.05333">
        <ele>862.7</ele>
      </trkpt>
      <trkpt lat="45.07487" lon="4.05226">
        <ele>859</ele>
      </trkpt>
      <trkpt lat="45.0746" lon="4.05178">
        <ele>857.8</ele>
      </trkpt>
      <trkpt lat="45.07415" lon="4.05105">
        <ele>855.1</ele>
      </trkpt>
      <trkpt lat="45.07385" lon="4.05063">
        <ele>849.5</ele>
      </trkpt>
      <trkpt lat="45.07372" lon="4.05037">
        <ele>848.9</ele>
      </trkpt>
      <trkpt lat="45.07369" lon="4.05029">
        <ele>848.6</ele>
      </trkpt>
      <trkpt lat="45.07367" lon="4.05023">
        <ele>848.4</ele>
      </trkpt>
      <trkpt lat="45.07367" lon="4.04997">
        <ele>842.7</ele>
      </trkpt>
      <trkpt lat="45.0739" lon="4.04835">
        <ele>834</ele>
      </trkpt>
      <trkpt lat="45.07392" lon="4.0483">
        <ele>832.2</ele>
      </trkpt>
      <trkpt lat="45.07382" lon="4.04817">
        <ele>832.3</ele>
      </trkpt>
      <trkpt lat="45.07371" lon="4.04806">
        <ele>832.3</ele>
      </trkpt>
      <trkpt lat="45.0735" lon="4.04788">
        <ele>832.3</ele>
      </trkpt>
      <trkpt lat="45.07351" lon="4.04783">
        <ele>832.2</ele>
      </trkpt>
      <trkpt lat="45.07353" lon="4.04772">
        <ele>832</ele>
      </trkpt>
      <trkpt lat="45.07354" lon="4.04769">
        <ele>832</ele>
      </trkpt>
      <trkpt lat="45.07359" lon="4.04755">
        <ele>831.8</ele>
      </trkpt>
      <trkpt lat="45.07376" lon="4.04709">
        <ele>830</ele>
      </trkpt>
      <trkpt lat="45.07383" lon="4.04692">
        <ele>829.7</ele>
      </trkpt>
      <trkpt lat="45.07405" lon="4.04654">
        <ele>827.7</ele>
      </trkpt>
      <trkpt lat="45.07407" lon="4.04649">
        <ele>827.7</ele>
      </trkpt>
      <trkpt lat="45.07408" lon="4.0464">
        <ele>827.8</ele>
      </trkpt>
      <trkpt lat="45.07408" lon="4.04626">
        <ele>827.8</ele>
      </trkpt>
      <trkpt lat="45.07406" lon="4.04612">
        <ele>827.7</ele>
      </trkpt>
      <trkpt lat="45.07395" lon="4.04575">
        <ele>826.6</ele>
      </trkpt>
      <trkpt lat="45.07393" lon="4.0456">
        <ele>826.4</ele>
      </trkpt>
      <trkpt lat="45.07393" lon="4.04546">
        <ele>826.3</ele>
      </trkpt>
      <trkpt lat="45.07396" lon="4.04531">
        <ele>826</ele>
      </trkpt>
      <trkpt lat="45.07421" lon="4.04459">
        <ele>828.2</ele>
      </trkpt>
      <trkpt lat="45.07424" lon="4.04443">
        <ele>827.7</ele>
      </trkpt>
      <trkpt lat="45.07428" lon="4.04407">
        <ele>823.9</ele>
      </trkpt>
      <trkpt lat="45.07429" lon="4.04355">
        <ele>820.9</ele>
      </trkpt>
      <trkpt lat="45.07432" lon="4.04341">
        <ele>819.8</ele>
      </trkpt>
      <trkpt lat="45.07435" lon="4.04332">
        <ele>815.1</ele>
      </trkpt>
      <trkpt lat="45.0744" lon="4.04324">
        <ele>814.9</ele>
      </trkpt>
      <trkpt lat="45.07448" lon="4.04317">
        <ele>814.7</ele>
      </trkpt>
      <trkpt lat="45.07493" lon="4.04283">
        <ele>813.6</ele>
      </trkpt>
      <trkpt lat="45.07519" lon="4.04253">
        <ele>815.3</ele>
      </trkpt>
      <trkpt lat="45.07525" lon="4.04243">
        <ele>810.5</ele>
      </trkpt>
      <trkpt lat="45.07529" lon="4.04235">
        <ele>810.5</ele>
      </trkpt>
      <trkpt lat="45.07534" lon="4.0422">
        <ele>810.2</ele>
      </trkpt>
      <trkpt lat="45.07545" lon="4.04174">
        <ele>808.7</ele>
      </trkpt>
      <trkpt lat="45.0755" lon="4.04149">
        <ele>804.7</ele>
      </trkpt>
      <trkpt lat="45.07557" lon="4.04096">
        <ele>804.2</ele>
      </trkpt>
      <trkpt lat="45.07564" lon="4.04062">
        <ele>801.9</ele>
      </trkpt>
      <trkpt lat="45.07572" lon="4.04019">
        <ele>801.5</ele>
      </trkpt>
      <trkpt lat="45.07577" lon="4.03994">
        <ele>801.6</ele>
      </trkpt>
      <trkpt lat="45.0759" lon="4.03911">
        <ele>802.8</ele>
      </trkpt>
      <trkpt lat="45.07609" lon="4.03865">
        <ele>804.6</ele>
      </trkpt>
      <trkpt lat="45.07624" lon="4.0384">
        <ele>805.3</ele>
      </trkpt>
      <trkpt lat="45.07681" lon="4.03787">
        <ele>806.1</ele>
      </trkpt>
      <trkpt lat="45.077" lon="4.03768">
        <ele>805.4</ele>
      </trkpt>
      <trkpt lat="45.07736" lon="4.03719">
        <ele>800.3</ele>
      </trkpt>
      <trkpt lat="45.07756" lon="4.03689">
        <ele>806.5</ele>
      </trkpt>
      <trkpt lat="45.07792" lon="4.03623">
        <ele>805</ele>
      </trkpt>
      <trkpt lat="45.07801" lon="4.03605">
        <ele>805.4</ele>
      </trkpt>
      <trkpt lat="45.07804" lon="4.03598">
        <ele>805.7</ele>
      </trkpt>
      <trkpt lat="45.07844" lon="4.03484">
        <ele>804.5</ele>
      </trkpt>
      <trkpt lat="45.07863" lon="4.03425">
        <ele>803.5</ele>
      </trkpt>
      <trkpt lat="45.07881" lon="4.03298">
        <ele>795</ele>
      </trkpt>
      <trkpt lat="45.07907" lon="4.03179">
        <ele>789.9</ele>
      </trkpt>
      <trkpt lat="45.07922" lon="4.031">
        <ele>790.7</ele>
      </trkpt>
      <trkpt lat="45.07925" lon="4.03085">
        <ele>789.6</ele>
      </trkpt>
      <trkpt lat="45.07933" lon="4.03056">
        <ele>788.4</ele>
      </trkpt>
      <trkpt lat="45.07965" lon="4.02985">
        <ele>784.3</ele>
      </trkpt>
      <trkpt lat="45.08018" lon="4.02914">
        <ele>781.4</ele>
      </trkpt>
      <trkpt lat="45.08028" lon="4.02903">
        <ele>780.8</ele>
      </trkpt>
      <trkpt lat="45.08029" lon="4.02902">
        <ele>780.7</ele>
      </trkpt>
      <trkpt lat="45.08037" lon="4.02895">
        <ele>780.4</ele>
      </trkpt>
      <trkpt lat="45.08055" lon="4.02885">
        <ele>780.1</ele>
      </trkpt>
      <trkpt lat="45.0807" lon="4.02881">
        <ele>779.9</ele>
      </trkpt>
      <trkpt lat="45.08121" lon="4.02875">
        <ele>779.5</ele>
      </trkpt>
      <trkpt lat="45.08136" lon="4.0287">
        <ele>779.1</ele>
      </trkpt>
      <trkpt lat="45.08146" lon="4.02863">
        <ele>778.4</ele>
      </trkpt>
      <trkpt lat="45.08155" lon="4.02853">
        <ele>777.1</ele>
      </trkpt>
      <trkpt lat="45.08188" lon="4.02804">
        <ele>774.6</ele>
      </trkpt>
      <trkpt lat="45.08202" lon="4.02787">
        <ele>774.7</ele>
      </trkpt>
      <trkpt lat="45.08217" lon="4.02771">
        <ele>774.8</ele>
      </trkpt>
      <trkpt lat="45.08228" lon="4.02762">
        <ele>775</ele>
      </trkpt>
      <trkpt lat="45.08239" lon="4.02757">
        <ele>775.1</ele>
      </trkpt>
      <trkpt lat="45.08259" lon="4.02752">
        <ele>777.4</ele>
      </trkpt>
      <trkpt lat="45.08314" lon="4.0276">
        <ele>781.8</ele>
      </trkpt>
      <trkpt lat="45.08325" lon="4.0276">
        <ele>781.7</ele>
      </trkpt>
      <trkpt lat="45.08423" lon="4.02736">
        <ele>778.9</ele>
      </trkpt>
      <trkpt lat="45.08431" lon="4.02736">
        <ele>778.3</ele>
      </trkpt>
      <trkpt lat="45.08446" lon="4.02743">
        <ele>777.9</ele>
      </trkpt>
      <trkpt lat="45.08452" lon="4.02747">
        <ele>777.8</ele>
      </trkpt>
      <trkpt lat="45.08469" lon="4.02762">
        <ele>784.2</ele>
      </trkpt>
      <trkpt lat="45.08505" lon="4.02781">
        <ele>782.8</ele>
      </trkpt>
      <trkpt lat="45.08537" lon="4.02797">
        <ele>782.8</ele>
      </trkpt>
      <trkpt lat="45.08545" lon="4.02802">
        <ele>782.7</ele>
      </trkpt>
      <trkpt lat="45.08572" lon="4.02812">
        <ele>781.9</ele>
      </trkpt>
      <trkpt lat="45.08603" lon="4.0281">
        <ele>778.9</ele>
      </trkpt>
      <trkpt lat="45.08631" lon="4.028">
        <ele>778</ele>
      </trkpt>
      <trkpt lat="45.08643" lon="4.02789">
        <ele>777.5</ele>
      </trkpt>
      <trkpt lat="45.08655" lon="4.02773">
        <ele>776.9</ele>
      </trkpt>
      <trkpt lat="45.08679" lon="4.02742">
        <ele>774</ele>
      </trkpt>
      <trkpt lat="45.087" lon="4.02711">
        <ele>772.8</ele>
      </trkpt>
      <trkpt lat="45.08722" lon="4.02679">
        <ele>772.1</ele>
      </trkpt>
      <trkpt lat="45.0878" lon="4.02593">
        <ele>766.5</ele>
      </trkpt>
      <trkpt lat="45.08796" lon="4.02576">
        <ele>763.2</ele>
      </trkpt>
      <trkpt lat="45.08815" lon="4.02568">
        <ele>763.3</ele>
      </trkpt>
      <trkpt lat="45.08873" lon="4.02564">
        <ele>764.2</ele>
      </trkpt>
      <trkpt lat="45.08886" lon="4.02556">
        <ele>764.3</ele>
      </trkpt>
      <trkpt lat="45.08898" lon="4.02539">
        <ele>763.8</ele>
      </trkpt>
      <trkpt lat="45.08902" lon="4.02524">
        <ele>763.2</ele>
      </trkpt>
      <trkpt lat="45.08913" lon="4.02476">
        <ele>758.6</ele>
      </trkpt>
      <trkpt lat="45.08921" lon="4.02456">
        <ele>759.7</ele>
      </trkpt>
      <trkpt lat="45.0893" lon="4.02443">
        <ele>758.9</ele>
      </trkpt>
      <trkpt lat="45.08939" lon="4.02433">
        <ele>758.6</ele>
      </trkpt>
      <trkpt lat="45.08989" lon="4.02393">
        <ele>755.8</ele>
      </trkpt>
      <trkpt lat="45.09005" lon="4.02374">
        <ele>760.2</ele>
      </trkpt>
      <trkpt lat="45.09009" lon="4.02365">
        <ele>759.9</ele>
      </trkpt>
      <trkpt lat="45.09012" lon="4.02352">
        <ele>759.1</ele>
      </trkpt>
      <trkpt lat="45.09013" lon="4.02337">
        <ele>757.9</ele>
      </trkpt>
      <trkpt lat="45.09012" lon="4.02313">
        <ele>758.6</ele>
      </trkpt>
      <trkpt lat="45.08999" lon="4.0214">
        <ele>755.2</ele>
      </trkpt>
      <trkpt lat="45.08997" lon="4.02111">
        <ele>755.6</ele>
      </trkpt>
      <trkpt lat="45.09003" lon="4.02107">
        <ele>763.9</ele>
      </trkpt>
      <trkpt lat="45.09012" lon="4.02093">
        <ele>763.4</ele>
      </trkpt>
      <trkpt lat="45.09017" lon="4.02078">
        <ele>764.5</ele>
      </trkpt>
      <trkpt lat="45.09024" lon="4.02037">
        <ele>767.1</ele>
      </trkpt>
      <trkpt lat="45.09032" lon="4.02">
        <ele>768.5</ele>
      </trkpt>
      <trkpt lat="45.0907" lon="4.01866">
        <ele>773.2</ele>
      </trkpt>
      <trkpt lat="45.09081" lon="4.01839">
        <ele>776.5</ele>
      </trkpt>
      <trkpt lat="45.09097" lon="4.01813">
        <ele>781</ele>
      </trkpt>
      <trkpt lat="45.09105" lon="4.01802">
        <ele>781.6</ele>
      </trkpt>
      <trkpt lat="45.0911" lon="4.01797">
        <ele>781.9</ele>
      </trkpt>
      <trkpt lat="45.09114" lon="4.01793">
        <ele>782.1</ele>
      </trkpt>
      <trkpt lat="45.09149" lon="4.01775">
        <ele>784.3</ele>
      </trkpt>
      <trkpt lat="45.09161" lon="4.01765">
        <ele>784.9</ele>
      </trkpt>
      <trkpt lat="45.09167" lon="4.01757">
        <ele>788.6</ele>
      </trkpt>
      <trkpt lat="45.09184" lon="4.01733">
        <ele>788</ele>
      </trkpt>
      <trkpt lat="45.09216" lon="4.0169">
        <ele>789.2</ele>
      </trkpt>
      <trkpt lat="45.0924" lon="4.01656">
        <ele>788.1</ele>
      </trkpt>
      <trkpt lat="45.09268" lon="4.01626">
        <ele>796.6</ele>
      </trkpt>
      <trkpt lat="45.09283" lon="4.01607">
        <ele>797.2</ele>
      </trkpt>
      <trkpt lat="45.09315" lon="4.01543">
        <ele>797.1</ele>
      </trkpt>
      <trkpt lat="45.09318" lon="4.01537">
        <ele>797.2</ele>
      </trkpt>
      <trkpt lat="45.09317" lon="4.01527">
        <ele>797.1</ele>
      </trkpt>
      <trkpt lat="45.0932" lon="4.01475">
        <ele>793.1</ele>
      </trkpt>
      <trkpt lat="45.09319" lon="4.01472">
        <ele>792.7</ele>
      </trkpt>
      <trkpt lat="45.09317" lon="4.01471">
        <ele>792.4</ele>
      </trkpt>
      <trkpt lat="45.0931" lon="4.01468">
        <ele>791.5</ele>
      </trkpt>
      <trkpt lat="45.09308" lon="4.01466">
        <ele>791.2</ele>
      </trkpt>
      <trkpt lat="45.09307" lon="4.01463">
        <ele>790.9</ele>
      </trkpt>
      <trkpt lat="45.09308" lon="4.01442">
        <ele>790.1</ele>
      </trkpt>
      <trkpt lat="45.09312" lon="4.01424">
        <ele>790.4</ele>
      </trkpt>
      <trkpt lat="45.09314" lon="4.01413">
        <ele>786.7</ele>
      </trkpt>
      <trkpt lat="45.09315" lon="4.01398">
        <ele>785.5</ele>
      </trkpt>
      <trkpt lat="45.09311" lon="4.01372">
        <ele>783</ele>
      </trkpt>
      <trkpt lat="45.09265" lon="4.01239">
        <ele>768.4</ele>
      </trkpt>
      <trkpt lat="45.09246" lon="4.01166">
        <ele>762.3</ele>
      </trkpt>
      <trkpt lat="45.09236" lon="4.01118">
        <ele>755.8</ele>
      </trkpt>
      <trkpt lat="45.0923" lon="4.01072">
        <ele>755.6</ele>
      </trkpt>
      <trkpt lat="45.09231" lon="4.01051">
        <ele>754.2</ele>
      </trkpt>
      <trkpt lat="45.09229" lon="4.00993">
        <ele>751.9</ele>
      </trkpt>
      <trkpt lat="45.09232" lon="4.00963">
        <ele>750.4</ele>
      </trkpt>
      <trkpt lat="45.09246" lon="4.00936">
        <ele>749.9</ele>
      </trkpt>
      <trkpt lat="45.0925" lon="4.00931">
        <ele>751.5</ele>
      </trkpt>
      <trkpt lat="45.09258" lon="4.00925">
        <ele>751.2</ele>
      </trkpt>
      <trkpt lat="45.09267" lon="4.00918">
        <ele>751.4</ele>
      </trkpt>
      <trkpt lat="45.09281" lon="4.00913">
        <ele>746.2</ele>
      </trkpt>
      <trkpt lat="45.09292" lon="4.00913">
        <ele>745.8</ele>
      </trkpt>
      <trkpt lat="45.0932" lon="4.00921">
        <ele>750.4</ele>
      </trkpt>
      <trkpt lat="45.09367" lon="4.00939">
        <ele>752.2</ele>
      </trkpt>
      <trkpt lat="45.09382" lon="4.00942">
        <ele>752.3</ele>
      </trkpt>
      <trkpt lat="45.0939" lon="4.00941">
        <ele>752</ele>
      </trkpt>
      <trkpt lat="45.09395" lon="4.00937">
        <ele>751.5</ele>
      </trkpt>
      <trkpt lat="45.094" lon="4.00931">
        <ele>750.8</ele>
      </trkpt>
      <trkpt lat="45.09405" lon="4.00922">
        <ele>749.5</ele>
      </trkpt>
      <trkpt lat="45.09415" lon="4.00877">
        <ele>744.6</ele>
      </trkpt>
      <trkpt lat="45.09417" lon="4.0086">
        <ele>748.1</ele>
      </trkpt>
      <trkpt lat="45.09414" lon="4.00805">
        <ele>740.4</ele>
      </trkpt>
      <trkpt lat="45.09418" lon="4.00788">
        <ele>745.8</ele>
      </trkpt>
      <trkpt lat="45.09433" lon="4.0077">
        <ele>745.5</ele>
      </trkpt>
      <trkpt lat="45.09436" lon="4.00763">
        <ele>745.4</ele>
      </trkpt>
      <trkpt lat="45.09438" lon="4.00743">
        <ele>744.6</ele>
      </trkpt>
      <trkpt lat="45.09436" lon="4.00732">
        <ele>744.7</ele>
      </trkpt>
      <trkpt lat="45.09418" lon="4.00673">
        <ele>740</ele>
      </trkpt>
      <trkpt lat="45.09396" lon="4.00644">
        <ele>732.4</ele>
      </trkpt>
      <trkpt lat="45.09373" lon="4.00587">
        <ele>729.5</ele>
      </trkpt>
      <trkpt lat="45.09344" lon="4.00531">
        <ele>724.3</ele>
      </trkpt>
      <trkpt lat="45.0934" lon="4.00519">
        <ele>722.4</ele>
      </trkpt>
      <trkpt lat="45.09338" lon="4.00512">
        <ele>720.8</ele>
      </trkpt>
      <trkpt lat="45.09333" lon="4.00493">
        <ele>714.6</ele>
      </trkpt>
      <trkpt lat="45.09325" lon="4.00481">
        <ele>712.9</ele>
      </trkpt>
      <trkpt lat="45.09322" lon="4.00473">
        <ele>712.2</ele>
      </trkpt>
      <trkpt lat="45.09315" lon="4.00445">
        <ele>711.4</ele>
      </trkpt>
      <trkpt lat="45.09307" lon="4.00439">
        <ele>710.9</ele>
      </trkpt>
      <trkpt lat="45.09293" lon="4.00438">
        <ele>709.7</ele>
      </trkpt>
      <trkpt lat="45.09286" lon="4.00436">
        <ele>708.9</ele>
      </trkpt>
      <trkpt lat="45.09257" lon="4.00404">
        <ele>703.1</ele>
      </trkpt>
      <trkpt lat="45.0925" lon="4.00393">
        <ele>703.4</ele>
      </trkpt>
      <trkpt lat="45.09245" lon="4.00384">
        <ele>696.4</ele>
      </trkpt>
      <trkpt lat="45.0923" lon="4.0035">
        <ele>695.2</ele>
      </trkpt>
      <trkpt lat="45.09221" lon="4.00331">
        <ele>692.3</ele>
      </trkpt>
      <trkpt lat="45.09215" lon="4.00322">
        <ele>691.6</ele>
      </trkpt>
      <trkpt lat="45.09194" lon="4.003">
        <ele>690.1</ele>
      </trkpt>
      <trkpt lat="45.09176" lon="4.00293">
        <ele>689.4</ele>
      </trkpt>
      <trkpt lat="45.09168" lon="4.00292">
        <ele>689.2</ele>
      </trkpt>
      <trkpt lat="45.09162" lon="4.00289">
        <ele>689.8</ele>
      </trkpt>
      <trkpt lat="45.09144" lon="4.00267">
        <ele>689.9</ele>
      </trkpt>
      <trkpt lat="45.09122" lon="4.00233">
        <ele>691.6</ele>
      </trkpt>
      <trkpt lat="45.09119" lon="4.00224">
        <ele>691.8</ele>
      </trkpt>
      <trkpt lat="45.09115" lon="4.00193">
        <ele>692.2</ele>
      </trkpt>
      <trkpt lat="45.09112" lon="4.0018">
        <ele>692.6</ele>
      </trkpt>
      <trkpt lat="45.0906" lon="4.00069">
        <ele>699</ele>
      </trkpt>
      <trkpt lat="45.09053" lon="4.00064">
        <ele>699.8</ele>
      </trkpt>
      <trkpt lat="45.09056" lon="4.00058">
        <ele>699.8</ele>
      </trkpt>
      <trkpt lat="45.09058" lon="4.00027">
        <ele>700.4</ele>
      </trkpt>
      <trkpt lat="45.0906" lon="4.00016">
        <ele>700.3</ele>
      </trkpt>
      <trkpt lat="45.0908" lon="3.99969">
        <ele>703</ele>
      </trkpt>
      <trkpt lat="45.09084" lon="3.99932">
        <ele>699.6</ele>
      </trkpt>
      <trkpt lat="45.0908" lon="3.99914">
        <ele>703.9</ele>
      </trkpt>
      <trkpt lat="45.09064" lon="3.99872">
        <ele>707.7</ele>
      </trkpt>
      <trkpt lat="45.0906" lon="3.99865">
        <ele>708</ele>
      </trkpt>
      <trkpt lat="45.09067" lon="3.99844">
        <ele>707.5</ele>
      </trkpt>
      <trkpt lat="45.09071" lon="3.99824">
        <ele>707.5</ele>
      </trkpt>
      <trkpt lat="45.09074" lon="3.99796">
        <ele>708</ele>
      </trkpt>
      <trkpt lat="45.09076" lon="3.9977">
        <ele>707.3</ele>
      </trkpt>
      <trkpt lat="45.09073" lon="3.99753">
        <ele>706.5</ele>
      </trkpt>
      <trkpt lat="45.09056" lon="3.99711">
        <ele>705.6</ele>
      </trkpt>
      <trkpt lat="45.09048" lon="3.99684">
        <ele>705.1</ele>
      </trkpt>
      <trkpt lat="45.09046" lon="3.99654">
        <ele>702.5</ele>
      </trkpt>
      <trkpt lat="45.09042" lon="3.99627">
        <ele>702.5</ele>
      </trkpt>
      <trkpt lat="45.09032" lon="3.99588">
        <ele>702.9</ele>
      </trkpt>
      <trkpt lat="45.09022" lon="3.99559">
        <ele>701.9</ele>
      </trkpt>
      <trkpt lat="45.09028" lon="3.99554">
        <ele>701.4</ele>
      </trkpt>
      <trkpt lat="45.09059" lon="3.9951">
        <ele>699</ele>
      </trkpt>
      <trkpt lat="45.09066" lon="3.99502">
        <ele>698.3</ele>
      </trkpt>
      <trkpt lat="45.09081" lon="3.9949">
        <ele>697</ele>
      </trkpt>
      <trkpt lat="45.09114" lon="3.99467">
        <ele>693.1</ele>
      </trkpt>
      <trkpt lat="45.09133" lon="3.99453">
        <ele>692.5</ele>
      </trkpt>
      <trkpt lat="45.0913" lon="3.99412">
        <ele>693.1</ele>
      </trkpt>
      <trkpt lat="45.09125" lon="3.993">
        <ele>694</ele>
      </trkpt>
      <trkpt lat="45.0913" lon="3.9927">
        <ele>693.8</ele>
      </trkpt>
      <trkpt lat="45.0915" lon="3.99215">
        <ele>692.8</ele>
      </trkpt>
      <trkpt lat="45.09174" lon="3.9916">
        <ele>689.9</ele>
      </trkpt>
      <trkpt lat="45.09204" lon="3.99079">
        <ele>687.3</ele>
      </trkpt>
      <trkpt lat="45.09212" lon="3.99053">
        <ele>687</ele>
      </trkpt>
      <trkpt lat="45.09223" lon="3.99007">
        <ele>685.9</ele>
      </trkpt>
      <trkpt lat="45.09238" lon="3.9892">
        <ele>684.7</ele>
      </trkpt>
      <trkpt lat="45.09262" lon="3.98877">
        <ele>682.9</ele>
      </trkpt>
      <trkpt lat="45.09268" lon="3.98863">
        <ele>683</ele>
      </trkpt>
      <trkpt lat="45.09279" lon="3.98824">
        <ele>683.3</ele>
      </trkpt>
      <trkpt lat="45.09293" lon="3.98759">
        <ele>683.1</ele>
      </trkpt>
      <trkpt lat="45.09299" lon="3.98729">
        <ele>683.3</ele>
      </trkpt>
      <trkpt lat="45.09289" lon="3.98697">
        <ele>683.6</ele>
      </trkpt>
      <trkpt lat="45.09275" lon="3.98665">
        <ele>684</ele>
      </trkpt>
      <trkpt lat="45.09259" lon="3.98639">
        <ele>684.1</ele>
      </trkpt>
      <trkpt lat="45.09238" lon="3.98615">
        <ele>685.8</ele>
      </trkpt>
      <trkpt lat="45.09207" lon="3.98591">
        <ele>686</ele>
      </trkpt>
      <trkpt lat="45.09195" lon="3.98584">
        <ele>686.1</ele>
      </trkpt>
      <trkpt lat="45.09155" lon="3.98571">
        <ele>684.4</ele>
      </trkpt>
      <trkpt lat="45.0913" lon="3.98569">
        <ele>683.6</ele>
      </trkpt>
      <trkpt lat="45.09118" lon="3.98571">
        <ele>683.6</ele>
      </trkpt>
      <trkpt lat="45.09082" lon="3.98587">
        <ele>685.8</ele>
      </trkpt>
      <trkpt lat="45.09062" lon="3.98591">
        <ele>688</ele>
      </trkpt>
      <trkpt lat="45.09055" lon="3.98589">
        <ele>688.4</ele>
      </trkpt>
      <trkpt lat="45.09026" lon="3.9857">
        <ele>684.9</ele>
      </trkpt>
      <trkpt lat="45.08915" lon="3.98528">
        <ele>694.7</ele>
      </trkpt>
      <trkpt lat="45.08861" lon="3.98497">
        <ele>691.7</ele>
      </trkpt>
      <trkpt lat="45.08833" lon="3.98487">
        <ele>694.7</ele>
      </trkpt>
      <trkpt lat="45.08822" lon="3.98483">
        <ele>694.2</ele>
      </trkpt>
      <trkpt lat="45.08827" lon="3.98475">
        <ele>693.8</ele>
      </trkpt>
      <trkpt lat="45.08841" lon="3.98442">
        <ele>689.7</ele>
      </trkpt>
      <trkpt lat="45.08846" lon="3.98436">
        <ele>689.4</ele>
      </trkpt>
      <trkpt lat="45.08853" lon="3.98429">
        <ele>689.2</ele>
      </trkpt>
      <trkpt lat="45.08892" lon="3.98402">
        <ele>684.4</ele>
      </trkpt>
      <trkpt lat="45.08937" lon="3.98371">
        <ele>681</ele>
      </trkpt>
      <trkpt lat="45.08944" lon="3.98365">
        <ele>680.8</ele>
      </trkpt>
      <trkpt lat="45.09015" lon="3.98278">
        <ele>676.8</ele>
      </trkpt>
      <trkpt lat="45.09089" lon="3.98211">
        <ele>672.9</ele>
      </trkpt>
      <trkpt lat="45.09119" lon="3.98175">
        <ele>672.5</ele>
      </trkpt>
      <trkpt lat="45.09133" lon="3.98162">
        <ele>671.3</ele>
      </trkpt>
      <trkpt lat="45.09149" lon="3.98157">
        <ele>671.4</ele>
      </trkpt>
      <trkpt lat="45.09226" lon="3.9815">
        <ele>670.6</ele>
      </trkpt>
      <trkpt lat="45.09241" lon="3.98143">
        <ele>670.6</ele>
      </trkpt>
      <trkpt lat="45.09249" lon="3.98136">
        <ele>670.5</ele>
      </trkpt>
      <trkpt lat="45.09261" lon="3.98119">
        <ele>670.8</ele>
      </trkpt>
      <trkpt lat="45.09269" lon="3.98098">
        <ele>670.6</ele>
      </trkpt>
      <trkpt lat="45.09299" lon="3.97978">
        <ele>667.2</ele>
      </trkpt>
      <trkpt lat="45.09314" lon="3.97896">
        <ele>667.3</ele>
      </trkpt>
      <trkpt lat="45.09333" lon="3.97746">
        <ele>668.5</ele>
      </trkpt>
      <trkpt lat="45.09336" lon="3.97734">
        <ele>669.6</ele>
      </trkpt>
      <trkpt lat="45.09352" lon="3.97699">
        <ele>669.5</ele>
      </trkpt>
      <trkpt lat="45.09358" lon="3.9768">
        <ele>669</ele>
      </trkpt>
      <trkpt lat="45.09363" lon="3.9766">
        <ele>666.7</ele>
      </trkpt>
      <trkpt lat="45.09378" lon="3.97568">
        <ele>663.9</ele>
      </trkpt>
      <trkpt lat="45.09397" lon="3.97478">
        <ele>663.1</ele>
      </trkpt>
      <trkpt lat="45.09398" lon="3.97456">
        <ele>662.8</ele>
      </trkpt>
      <trkpt lat="45.09396" lon="3.97444">
        <ele>662.8</ele>
      </trkpt>
      <trkpt lat="45.09373" lon="3.97355">
        <ele>662.6</ele>
      </trkpt>
      <trkpt lat="45.09369" lon="3.97325">
        <ele>662.3</ele>
      </trkpt>
      <trkpt lat="45.09368" lon="3.97289">
        <ele>662.1</ele>
      </trkpt>
      <trkpt lat="45.09371" lon="3.97259">
        <ele>661.9</ele>
      </trkpt>
      <trkpt lat="45.09376" lon="3.9723">
        <ele>660.2</ele>
      </trkpt>
      <trkpt lat="45.09382" lon="3.97199">
        <ele>659.6</ele>
      </trkpt>
      <trkpt lat="45.09386" lon="3.97179">
        <ele>659.2</ele>
      </trkpt>
      <trkpt lat="45.09387" lon="3.97169">
        <ele>659.1</ele>
      </trkpt>
      <trkpt lat="45.09386" lon="3.97165">
        <ele>658.1</ele>
      </trkpt>
      <trkpt lat="45.09381" lon="3.97152">
        <ele>658.2</ele>
      </trkpt>
      <trkpt lat="45.09377" lon="3.97141">
        <ele>658.2</ele>
      </trkpt>
      <trkpt lat="45.09375" lon="3.97135">
        <ele>658.2</ele>
      </trkpt>
      <trkpt lat="45.09375" lon="3.97121">
        <ele>658.3</ele>
      </trkpt>
      <trkpt lat="45.09378" lon="3.97113">
        <ele>658.3</ele>
      </trkpt>
      <trkpt lat="45.09382" lon="3.97105">
        <ele>658.3</ele>
      </trkpt>
      <trkpt lat="45.09462" lon="3.96999">
        <ele>660.4</ele>
      </trkpt>
      <trkpt lat="45.09479" lon="3.96969">
        <ele>660.4</ele>
      </trkpt>
      <trkpt lat="45.0949" lon="3.96939">
        <ele>660.3</ele>
      </trkpt>
      <trkpt lat="45.09497" lon="3.96911">
        <ele>660.5</ele>
      </trkpt>
      <trkpt lat="45.09514" lon="3.96793">
        <ele>661.6</ele>
      </trkpt>
      <trkpt lat="45.09519" lon="3.96742">
        <ele>666</ele>
      </trkpt>
      <trkpt lat="45.09521" lon="3.96694">
        <ele>666.8</ele>
      </trkpt>
      <trkpt lat="45.09521" lon="3.96672">
        <ele>668.1</ele>
      </trkpt>
      <trkpt lat="45.09517" lon="3.96636">
        <ele>669.5</ele>
      </trkpt>
      <trkpt lat="45.09511" lon="3.96604">
        <ele>670.5</ele>
      </trkpt>
      <trkpt lat="45.09511" lon="3.96577">
        <ele>671.8</ele>
      </trkpt>
      <trkpt lat="45.09513" lon="3.96553">
        <ele>670.2</ele>
      </trkpt>
      <trkpt lat="45.09514" lon="3.96541">
        <ele>669.8</ele>
      </trkpt>
      <trkpt lat="45.09517" lon="3.96536">
        <ele>669.7</ele>
      </trkpt>
      <trkpt lat="45.09526" lon="3.96526">
        <ele>669.3</ele>
      </trkpt>
      <trkpt lat="45.0953" lon="3.96523">
        <ele>669.2</ele>
      </trkpt>
      <trkpt lat="45.09534" lon="3.96521">
        <ele>669</ele>
      </trkpt>
      <trkpt lat="45.09544" lon="3.96532">
        <ele>668.6</ele>
      </trkpt>
      <trkpt lat="45.09562" lon="3.96549">
        <ele>667.8</ele>
      </trkpt>
      <trkpt lat="45.09599" lon="3.96585">
        <ele>662.1</ele>
      </trkpt>
      <trkpt lat="45.09616" lon="3.96595">
        <ele>660.8</ele>
      </trkpt>
      <trkpt lat="45.09624" lon="3.96598">
        <ele>660.3</ele>
      </trkpt>
      <trkpt lat="45.09644" lon="3.96604">
        <ele>659.5</ele>
      </trkpt>
      <trkpt lat="45.09676" lon="3.96613">
        <ele>656.3</ele>
      </trkpt>
      <trkpt lat="45.09738" lon="3.96633">
        <ele>654.8</ele>
      </trkpt>
      <trkpt lat="45.09748" lon="3.96634">
        <ele>654.6</ele>
      </trkpt>
      <trkpt lat="45.09789" lon="3.9663">
        <ele>651.8</ele>
      </trkpt>
      <trkpt lat="45.09807" lon="3.96632">
        <ele>651.4</ele>
      </trkpt>
      <trkpt lat="45.09828" lon="3.96637">
        <ele>651.1</ele>
      </trkpt>
      <trkpt lat="45.09834" lon="3.96597">
        <ele>649.6</ele>
      </trkpt>
      <trkpt lat="45.09845" lon="3.96511">
        <ele>649.4</ele>
      </trkpt>
      <trkpt lat="45.09849" lon="3.96498">
        <ele>649.7</ele>
      </trkpt>
      <trkpt lat="45.09864" lon="3.96469">
        <ele>649.4</ele>
      </trkpt>
      <trkpt lat="45.09896" lon="3.96414">
        <ele>649.8</ele>
      </trkpt>
      <trkpt lat="45.09988" lon="3.96273">
        <ele>648.8</ele>
      </trkpt>
      <trkpt lat="45.09997" lon="3.96238">
        <ele>650.2</ele>
      </trkpt>
      <trkpt lat="45.10059" lon="3.96017">
        <ele>650.4</ele>
      </trkpt>
      <trkpt lat="45.10066" lon="3.95986">
        <ele>650.6</ele>
      </trkpt>
      <trkpt lat="45.10069" lon="3.95972">
        <ele>650.9</ele>
      </trkpt>
      <trkpt lat="45.10069" lon="3.9595">
        <ele>650.7</ele>
      </trkpt>
      <trkpt lat="45.10066" lon="3.958">
        <ele>647.7</ele>
      </trkpt>
      <trkpt lat="45.10074" lon="3.95683">
        <ele>644.1</ele>
      </trkpt>
      <trkpt lat="45.10078" lon="3.9566">
        <ele>642.3</ele>
      </trkpt>
      <trkpt lat="45.1009" lon="3.95627">
        <ele>639.9</ele>
      </trkpt>
      <trkpt lat="45.10093" lon="3.95618">
        <ele>639.9</ele>
      </trkpt>
      <trkpt lat="45.10108" lon="3.9558">
        <ele>641</ele>
      </trkpt>
      <trkpt lat="45.10141" lon="3.95511">
        <ele>640.2</ele>
      </trkpt>
      <trkpt lat="45.10161" lon="3.95467">
        <ele>641.5</ele>
      </trkpt>
      <trkpt lat="45.10177" lon="3.95436">
        <ele>638.9</ele>
      </trkpt>
      <trkpt lat="45.10194" lon="3.95408">
        <ele>639.6</ele>
      </trkpt>
      <trkpt lat="45.10245" lon="3.95318">
        <ele>639.6</ele>
      </trkpt>
      <trkpt lat="45.10311" lon="3.95151">
        <ele>637</ele>
      </trkpt>
      <trkpt lat="45.10336" lon="3.95105">
        <ele>632.7</ele>
      </trkpt>
      <trkpt lat="45.10397" lon="3.94975">
        <ele>632.4</ele>
      </trkpt>
      <trkpt lat="45.10405" lon="3.9495">
        <ele>632.4</ele>
      </trkpt>
      <trkpt lat="45.10424" lon="3.94851">
        <ele>629.5</ele>
      </trkpt>
      <trkpt lat="45.10438" lon="3.94813">
        <ele>629.5</ele>
      </trkpt>
      <trkpt lat="45.10601" lon="3.94589">
        <ele>620.6</ele>
      </trkpt>
      <trkpt lat="45.10609" lon="3.94577">
        <ele>620.2</ele>
      </trkpt>
      <trkpt lat="45.10633" lon="3.94535">
        <ele>619.3</ele>
      </trkpt>
      <trkpt lat="45.10648" lon="3.9451">
        <ele>618.5</ele>
      </trkpt>
      <trkpt lat="45.10731" lon="3.94341">
        <ele>615.8</ele>
      </trkpt>
      <trkpt lat="45.10752" lon="3.94309">
        <ele>613.3</ele>
      </trkpt>
      <trkpt lat="45.10773" lon="3.94292">
        <ele>613</ele>
      </trkpt>
      <trkpt lat="45.10818" lon="3.94276">
        <ele>612.1</ele>
      </trkpt>
      <trkpt lat="45.10927" lon="3.94229">
        <ele>610.4</ele>
      </trkpt>
      <trkpt lat="45.1096" lon="3.94206">
        <ele>611.1</ele>
      </trkpt>
      <trkpt lat="45.11024" lon="3.94153">
        <ele>612.1</ele>
      </trkpt>
      <trkpt lat="45.11038" lon="3.94143">
        <ele>611.7</ele>
      </trkpt>
      <trkpt lat="45.1105" lon="3.94136">
        <ele>611.4</ele>
      </trkpt>
      <trkpt lat="45.11108" lon="3.94102">
        <ele>608.3</ele>
      </trkpt>
      <trkpt lat="45.11139" lon="3.94078">
        <ele>610.6</ele>
      </trkpt>
      <trkpt lat="45.1117" lon="3.94047">
        <ele>608.4</ele>
      </trkpt>
      <trkpt lat="45.11174" lon="3.94044">
        <ele>608.4</ele>
      </trkpt>
      <trkpt lat="45.11208" lon="3.94015">
        <ele>608.1</ele>
      </trkpt>
      <trkpt lat="45.11242" lon="3.93988">
        <ele>608</ele>
      </trkpt>
      <trkpt lat="45.11279" lon="3.93965">
        <ele>604.1</ele>
      </trkpt>
      <trkpt lat="45.11318" lon="3.93946">
        <ele>602.9</ele>
      </trkpt>
      <trkpt lat="45.1135" lon="3.93936">
        <ele>599.6</ele>
      </trkpt>
      <trkpt lat="45.11397" lon="3.93926">
        <ele>598.1</ele>
      </trkpt>
      <trkpt lat="45.1143" lon="3.93914">
        <ele>595.7</ele>
      </trkpt>
      <trkpt lat="45.11496" lon="3.9388">
        <ele>593.4</ele>
      </trkpt>
      <trkpt lat="45.11571" lon="3.93835">
        <ele>589.4</ele>
      </trkpt>
      <trkpt lat="45.11598" lon="3.93822">
        <ele>588</ele>
      </trkpt>
      <trkpt lat="45.11713" lon="3.93795">
        <ele>583.9</ele>
      </trkpt>
      <trkpt lat="45.1185" lon="3.93745">
        <ele>581.2</ele>
      </trkpt>
      <trkpt lat="45.11867" lon="3.93745">
        <ele>580.6</ele>
      </trkpt>
      <trkpt lat="45.11878" lon="3.93751">
        <ele>579.4</ele>
      </trkpt>
      <trkpt lat="45.11896" lon="3.9377">
        <ele>578.9</ele>
      </trkpt>
      <trkpt lat="45.11908" lon="3.93781">
        <ele>578.7</ele>
      </trkpt>
      <trkpt lat="45.11924" lon="3.93785">
        <ele>577.2</ele>
      </trkpt>
      <trkpt lat="45.11962" lon="3.93786">
        <ele>577</ele>
      </trkpt>
      <trkpt lat="45.12056" lon="3.93799">
        <ele>575.1</ele>
      </trkpt>
      <trkpt lat="45.12074" lon="3.93799">
        <ele>574.9</ele>
      </trkpt>
      <trkpt lat="45.12094" lon="3.93789">
        <ele>573.5</ele>
      </trkpt>
      <trkpt lat="45.12142" lon="3.93732">
        <ele>573.3</ele>
      </trkpt>
      <trkpt lat="45.1218" lon="3.93676">
        <ele>572.1</ele>
      </trkpt>
      <trkpt lat="45.12202" lon="3.93633">
        <ele>570</ele>
      </trkpt>
      <trkpt lat="45.12336" lon="3.93344">
        <ele>565</ele>
      </trkpt>
      <trkpt lat="45.1235" lon="3.93323">
        <ele>564.3</ele>
      </trkpt>
      <trkpt lat="45.12363" lon="3.93306">
        <ele>564</ele>
      </trkpt>
      <trkpt lat="45.12429" lon="3.93242">
        <ele>561.4</ele>
      </trkpt>
      <trkpt lat="45.12444" lon="3.93236">
        <ele>561</ele>
      </trkpt>
      <trkpt lat="45.12455" lon="3.93234">
        <ele>560.8</ele>
      </trkpt>
      <trkpt lat="45.1246" lon="3.93233">
        <ele>560.6</ele>
      </trkpt>
      <trkpt lat="45.12455" lon="3.93221">
        <ele>560.8</ele>
      </trkpt>
      <trkpt lat="45.12449" lon="3.93204">
        <ele>560.9</ele>
      </trkpt>
      <trkpt lat="45.12444" lon="3.93165">
        <ele>561.6</ele>
      </trkpt>
      <trkpt lat="45.12434" lon="3.93054">
        <ele>562.2</ele>
      </trkpt>
      <trkpt lat="45.12415" lon="3.92828">
        <ele>560.4</ele>
      </trkpt>
      <trkpt lat="45.12407" lon="3.9274">
        <ele>560.5</ele>
      </trkpt>
      <trkpt lat="45.12403" lon="3.92702">
        <ele>560.7</ele>
      </trkpt>
      <trkpt lat="45.12396" lon="3.92662">
        <ele>560.2</ele>
      </trkpt>
      <trkpt lat="45.12386" lon="3.92619">
        <ele>560.7</ele>
      </trkpt>
      <trkpt lat="45.12354" lon="3.925">
        <ele>559.1</ele>
      </trkpt>
      <trkpt lat="45.12289" lon="3.92276">
        <ele>558.4</ele>
      </trkpt>
    </trkseg>
  </trk>
  <trk>
    <name><![CDATA[GR7 Des Vosges aux Pyrénées (2020)_3]]></name>
    <extensions>
      <line xmlns="http://www.topografix.com/GPX/gpx_style/0/2">
        <color>FF0000</color>
        <width>4</width>
      </line>
    </extensions>
    <trkseg>
      <trkpt lat="45.75547" lon="3.57268">
        <ele>457.9</ele>
      </trkpt>
      <trkpt lat="45.7554" lon="3.57264">
        <ele>458</ele>
      </trkpt>
      <trkpt lat="45.75526" lon="3.57258">
        <ele>458.4</ele>
      </trkpt>
      <trkpt lat="45.75505" lon="3.57251">
        <ele>458.9</ele>
      </trkpt>
      <trkpt lat="45.75491" lon="3.57247">
        <ele>458.9</ele>
      </trkpt>
      <trkpt lat="45.75478" lon="3.57242">
        <ele>458.7</ele>
      </trkpt>
      <trkpt lat="45.75458" lon="3.57235">
        <ele>458.4</ele>
      </trkpt>
      <trkpt lat="45.75438" lon="3.57227">
        <ele>458.2</ele>
      </trkpt>
      <trkpt lat="45.75417" lon="3.5722">
        <ele>458</ele>
      </trkpt>
      <trkpt lat="45.75405" lon="3.57216">
        <ele>458</ele>
      </trkpt>
      <trkpt lat="45.75394" lon="3.57212">
        <ele>458</ele>
      </trkpt>
      <trkpt lat="45.75372" lon="3.57203">
        <ele>458.1</ele>
      </trkpt>
      <trkpt lat="45.75354" lon="3.57196">
        <ele>458.2</ele>
      </trkpt>
      <trkpt lat="45.75336" lon="3.5719">
        <ele>458.4</ele>
      </trkpt>
      <trkpt lat="45.75323" lon="3.57185">
        <ele>458.6</ele>
      </trkpt>
      <trkpt lat="45.7531" lon="3.57181">
        <ele>458.9</ele>
      </trkpt>
      <trkpt lat="45.75289" lon="3.57173">
        <ele>459.3</ele>
      </trkpt>
      <trkpt lat="45.75273" lon="3.57167">
        <ele>459.7</ele>
      </trkpt>
      <trkpt lat="45.75255" lon="3.57161">
        <ele>460</ele>
      </trkpt>
      <trkpt lat="45.75235" lon="3.57153">
        <ele>459.3</ele>
      </trkpt>
      <trkpt lat="45.75216" lon="3.57146">
        <ele>458.4</ele>
      </trkpt>
      <trkpt lat="45.75202" lon="3.57141">
        <ele>457.8</ele>
      </trkpt>
      <trkpt lat="45.75184" lon="3.57135">
        <ele>457</ele>
      </trkpt>
      <trkpt lat="45.75168" lon="3.5713">
        <ele>456.4</ele>
      </trkpt>
      <trkpt lat="45.75156" lon="3.57125">
        <ele>456.3</ele>
      </trkpt>
      <trkpt lat="45.75144" lon="3.57121">
        <ele>456.3</ele>
      </trkpt>
      <trkpt lat="45.75131" lon="3.57118">
        <ele>456.3</ele>
      </trkpt>
      <trkpt lat="45.75118" lon="3.57114">
        <ele>456.4</ele>
      </trkpt>
      <trkpt lat="45.75103" lon="3.5711">
        <ele>456.6</ele>
      </trkpt>
      <trkpt lat="45.75086" lon="3.57106">
        <ele>456.9</ele>
      </trkpt>
      <trkpt lat="45.75086" lon="3.57106">
        <ele>456.9</ele>
      </trkpt>
      <trkpt lat="45.75073" lon="3.57102">
        <ele>457.3</ele>
      </trkpt>
      <trkpt lat="45.75053" lon="3.57097">
        <ele>458.1</ele>
      </trkpt>
      <trkpt lat="45.75034" lon="3.57092">
        <ele>458.8</ele>
      </trkpt>
      <trkpt lat="45.75015" lon="3.57087">
        <ele>459.5</ele>
      </trkpt>
      <trkpt lat="45.75009" lon="3.57081">
        <ele>459.9</ele>
      </trkpt>
      <trkpt lat="45.74994" lon="3.57084">
        <ele>459.4</ele>
      </trkpt>
      <trkpt lat="45.74984" lon="3.57087">
        <ele>458.2</ele>
      </trkpt>
      <trkpt lat="45.7497" lon="3.57093">
        <ele>456.5</ele>
      </trkpt>
      <trkpt lat="45.74958" lon="3.571">
        <ele>455.2</ele>
      </trkpt>
      <trkpt lat="45.74949" lon="3.57105">
        <ele>454.3</ele>
      </trkpt>
      <trkpt lat="45.74942" lon="3.57111">
        <ele>453.6</ele>
      </trkpt>
      <trkpt lat="45.74935" lon="3.57119">
        <ele>453</ele>
      </trkpt>
      <trkpt lat="45.74923" lon="3.57132">
        <ele>452.3</ele>
      </trkpt>
      <trkpt lat="45.74919" lon="3.57137">
        <ele>452.1</ele>
      </trkpt>
      <trkpt lat="45.74914" lon="3.57142">
        <ele>451.6</ele>
      </trkpt>
      <trkpt lat="45.74904" lon="3.57149">
        <ele>450.5</ele>
      </trkpt>
      <trkpt lat="45.74891" lon="3.57159">
        <ele>449.1</ele>
      </trkpt>
      <trkpt lat="45.74873" lon="3.5717">
        <ele>447.2</ele>
      </trkpt>
      <trkpt lat="45.74855" lon="3.57184">
        <ele>445</ele>
      </trkpt>
      <trkpt lat="45.74842" lon="3.57193">
        <ele>443.8</ele>
      </trkpt>
      <trkpt lat="45.74829" lon="3.57201">
        <ele>442.5</ele>
      </trkpt>
      <trkpt lat="45.74815" lon="3.5721">
        <ele>441</ele>
      </trkpt>
      <trkpt lat="45.74808" lon="3.57213">
        <ele>440.4</ele>
      </trkpt>
      <trkpt lat="45.74801" lon="3.57216">
        <ele>439.8</ele>
      </trkpt>
      <trkpt lat="45.74794" lon="3.5722">
        <ele>439.3</ele>
      </trkpt>
      <trkpt lat="45.74788" lon="3.57226">
        <ele>439</ele>
      </trkpt>
      <trkpt lat="45.74774" lon="3.57238">
        <ele>438.6</ele>
      </trkpt>
      <trkpt lat="45.74762" lon="3.57249">
        <ele>438.7</ele>
      </trkpt>
      <trkpt lat="45.74757" lon="3.57254">
        <ele>438</ele>
      </trkpt>
      <trkpt lat="45.74746" lon="3.57263">
        <ele>436.5</ele>
      </trkpt>
      <trkpt lat="45.74736" lon="3.57271">
        <ele>435</ele>
      </trkpt>
      <trkpt lat="45.74727" lon="3.57277">
        <ele>434</ele>
      </trkpt>
      <trkpt lat="45.74722" lon="3.5728">
        <ele>433.5</ele>
      </trkpt>
      <trkpt lat="45.74718" lon="3.57283">
        <ele>433</ele>
      </trkpt>
      <trkpt lat="45.74713" lon="3.57286">
        <ele>432.6</ele>
      </trkpt>
      <trkpt lat="45.747" lon="3.57293">
        <ele>431.5</ele>
      </trkpt>
      <trkpt lat="45.74683" lon="3.57302">
        <ele>430.4</ele>
      </trkpt>
      <trkpt lat="45.74665" lon="3.57311">
        <ele>429.4</ele>
      </trkpt>
      <trkpt lat="45.74658" lon="3.57314">
        <ele>428.5</ele>
      </trkpt>
      <trkpt lat="45.74658" lon="3.57314">
        <ele>428.5</ele>
      </trkpt>
      <trkpt lat="45.74644" lon="3.57318">
        <ele>426.9</ele>
      </trkpt>
      <trkpt lat="45.74628" lon="3.57323">
        <ele>425.2</ele>
      </trkpt>
      <trkpt lat="45.74608" lon="3.57327">
        <ele>423.2</ele>
      </trkpt>
      <trkpt lat="45.74592" lon="3.5733">
        <ele>421.7</ele>
      </trkpt>
      <trkpt lat="45.7458" lon="3.57332">
        <ele>420.5</ele>
      </trkpt>
      <trkpt lat="45.74568" lon="3.57334">
        <ele>418.8</ele>
      </trkpt>
      <trkpt lat="45.74551" lon="3.57338">
        <ele>416</ele>
      </trkpt>
      <trkpt lat="45.74529" lon="3.5734">
        <ele>412.6</ele>
      </trkpt>
      <trkpt lat="45.74511" lon="3.57343">
        <ele>409.8</ele>
      </trkpt>
      <trkpt lat="45.74495" lon="3.57344">
        <ele>407.6</ele>
      </trkpt>
      <trkpt lat="45.74479" lon="3.57346">
        <ele>406</ele>
      </trkpt>
      <trkpt lat="45.74472" lon="3.57347">
        <ele>405.3</ele>
      </trkpt>
      <trkpt lat="45.74465" lon="3.5735">
        <ele>404.5</ele>
      </trkpt>
      <trkpt lat="45.74453" lon="3.57357">
        <ele>403</ele>
      </trkpt>
      <trkpt lat="45.7444" lon="3.57363">
        <ele>401.5</ele>
      </trkpt>
      <trkpt lat="45.74426" lon="3.57371">
        <ele>399.9</ele>
      </trkpt>
      <trkpt lat="45.74421" lon="3.57374">
        <ele>399.4</ele>
      </trkpt>
      <trkpt lat="45.74413" lon="3.57378">
        <ele>398.4</ele>
      </trkpt>
      <trkpt lat="45.74397" lon="3.57386">
        <ele>396.5</ele>
      </trkpt>
      <trkpt lat="45.74384" lon="3.57393">
        <ele>395.2</ele>
      </trkpt>
      <trkpt lat="45.74371" lon="3.574">
        <ele>394.2</ele>
      </trkpt>
      <trkpt lat="45.74357" lon="3.57408">
        <ele>393.6</ele>
      </trkpt>
      <trkpt lat="45.74352" lon="3.5741">
        <ele>393.5</ele>
      </trkpt>
      <trkpt lat="45.74347" lon="3.57413">
        <ele>393.4</ele>
      </trkpt>
      <trkpt lat="45.74343" lon="3.57415">
        <ele>393.3</ele>
      </trkpt>
      <trkpt lat="45.74328" lon="3.57426">
        <ele>390.7</ele>
      </trkpt>
      <trkpt lat="45.74314" lon="3.57435">
        <ele>386.9</ele>
      </trkpt>
      <trkpt lat="45.74306" lon="3.57439">
        <ele>384.8</ele>
      </trkpt>
      <trkpt lat="45.74288" lon="3.5745">
        <ele>380.1</ele>
      </trkpt>
      <trkpt lat="45.74278" lon="3.57456">
        <ele>377.6</ele>
      </trkpt>
      <trkpt lat="45.74271" lon="3.57457">
        <ele>376</ele>
      </trkpt>
      <trkpt lat="45.74265" lon="3.57457">
        <ele>375.1</ele>
      </trkpt>
      <trkpt lat="45.74259" lon="3.57451">
        <ele>374.2</ele>
      </trkpt>
      <trkpt lat="45.74253" lon="3.57441">
        <ele>373.8</ele>
      </trkpt>
      <trkpt lat="45.74246" lon="3.57428">
        <ele>373.1</ele>
      </trkpt>
      <trkpt lat="45.74241" lon="3.57423">
        <ele>372.4</ele>
      </trkpt>
      <trkpt lat="45.74234" lon="3.57417">
        <ele>371.2</ele>
      </trkpt>
      <trkpt lat="45.74229" lon="3.5741">
        <ele>369.2</ele>
      </trkpt>
      <trkpt lat="45.74229" lon="3.5741">
        <ele>369.2</ele>
      </trkpt>
      <trkpt lat="45.74227" lon="3.57403">
        <ele>368.1</ele>
      </trkpt>
      <trkpt lat="45.74227" lon="3.57395">
        <ele>367.4</ele>
      </trkpt>
      <trkpt lat="45.74229" lon="3.57386">
        <ele>366.9</ele>
      </trkpt>
      <trkpt lat="45.74232" lon="3.57373">
        <ele>366.3</ele>
      </trkpt>
      <trkpt lat="45.74238" lon="3.57356">
        <ele>365.9</ele>
      </trkpt>
      <trkpt lat="45.74245" lon="3.57338">
        <ele>365.6</ele>
      </trkpt>
      <trkpt lat="45.74248" lon="3.57332">
        <ele>365.3</ele>
      </trkpt>
      <trkpt lat="45.74253" lon="3.57325">
        <ele>364.8</ele>
      </trkpt>
      <trkpt lat="45.74257" lon="3.57319">
        <ele>364.5</ele>
      </trkpt>
      <trkpt lat="45.74263" lon="3.57314">
        <ele>364.9</ele>
      </trkpt>
      <trkpt lat="45.74268" lon="3.57313">
        <ele>365.9</ele>
      </trkpt>
      <trkpt lat="45.74281" lon="3.57302">
        <ele>366.6</ele>
      </trkpt>
      <trkpt lat="45.74289" lon="3.57292">
        <ele>366.4</ele>
      </trkpt>
      <trkpt lat="45.74299" lon="3.57276">
        <ele>365.6</ele>
      </trkpt>
      <trkpt lat="45.74308" lon="3.57259">
        <ele>364</ele>
      </trkpt>
      <trkpt lat="45.74315" lon="3.57233">
        <ele>361.9</ele>
      </trkpt>
      <trkpt lat="45.74318" lon="3.5722">
        <ele>361</ele>
      </trkpt>
      <trkpt lat="45.74318" lon="3.57208">
        <ele>359.6</ele>
      </trkpt>
      <trkpt lat="45.74319" lon="3.57188">
        <ele>357.5</ele>
      </trkpt>
      <trkpt lat="45.74317" lon="3.57172">
        <ele>355.2</ele>
      </trkpt>
      <trkpt lat="45.74316" lon="3.5716">
        <ele>353.9</ele>
      </trkpt>
      <trkpt lat="45.74314" lon="3.57148">
        <ele>353.1</ele>
      </trkpt>
      <trkpt lat="45.74313" lon="3.57138">
        <ele>352.6</ele>
      </trkpt>
      <trkpt lat="45.74312" lon="3.57131">
        <ele>352</ele>
      </trkpt>
      <trkpt lat="45.74307" lon="3.5712">
        <ele>350.7</ele>
      </trkpt>
      <trkpt lat="45.743" lon="3.57115">
        <ele>349.1</ele>
      </trkpt>
      <trkpt lat="45.7429" lon="3.57115">
        <ele>347.1</ele>
      </trkpt>
      <trkpt lat="45.7429" lon="3.57127">
        <ele>347.4</ele>
      </trkpt>
      <trkpt lat="45.74291" lon="3.57133">
        <ele>347.8</ele>
      </trkpt>
      <trkpt lat="45.74292" lon="3.57144">
        <ele>348.3</ele>
      </trkpt>
      <trkpt lat="45.74292" lon="3.57156">
        <ele>348.7</ele>
      </trkpt>
      <trkpt lat="45.74291" lon="3.57173">
        <ele>349.5</ele>
      </trkpt>
      <trkpt lat="45.74291" lon="3.57181">
        <ele>350.5</ele>
      </trkpt>
      <trkpt lat="45.7429" lon="3.5719">
        <ele>351.2</ele>
      </trkpt>
      <trkpt lat="45.74289" lon="3.57199">
        <ele>352</ele>
      </trkpt>
      <trkpt lat="45.74286" lon="3.5721">
        <ele>352.8</ele>
      </trkpt>
      <trkpt lat="45.74282" lon="3.57219">
        <ele>352.8</ele>
      </trkpt>
      <trkpt lat="45.74278" lon="3.57226">
        <ele>352.6</ele>
      </trkpt>
      <trkpt lat="45.74272" lon="3.57232">
        <ele>352</ele>
      </trkpt>
      <trkpt lat="45.74268" lon="3.57236">
        <ele>351.5</ele>
      </trkpt>
      <trkpt lat="45.74263" lon="3.5724">
        <ele>350.9</ele>
      </trkpt>
      <trkpt lat="45.74254" lon="3.57245">
        <ele>349.4</ele>
      </trkpt>
      <trkpt lat="45.74247" lon="3.5725">
        <ele>348.8</ele>
      </trkpt>
      <trkpt lat="45.74239" lon="3.57254">
        <ele>349.4</ele>
      </trkpt>
      <trkpt lat="45.74232" lon="3.5726">
        <ele>350.1</ele>
      </trkpt>
      <trkpt lat="45.74225" lon="3.57266">
        <ele>350.6</ele>
      </trkpt>
      <trkpt lat="45.7422" lon="3.57271">
        <ele>351</ele>
      </trkpt>
      <trkpt lat="45.74215" lon="3.57276">
        <ele>351.3</ele>
      </trkpt>
      <trkpt lat="45.74211" lon="3.57281">
        <ele>351.6</ele>
      </trkpt>
      <trkpt lat="45.74206" lon="3.57288">
        <ele>352</ele>
      </trkpt>
      <trkpt lat="45.74202" lon="3.57295">
        <ele>352.4</ele>
      </trkpt>
      <trkpt lat="45.74199" lon="3.57303">
        <ele>352.9</ele>
      </trkpt>
      <trkpt lat="45.74195" lon="3.57312">
        <ele>353.3</ele>
      </trkpt>
      <trkpt lat="45.74192" lon="3.57323">
        <ele>353.8</ele>
      </trkpt>
      <trkpt lat="45.7419" lon="3.57329">
        <ele>354.1</ele>
      </trkpt>
      <trkpt lat="45.7419" lon="3.57329">
        <ele>354.1</ele>
      </trkpt>
      <trkpt lat="45.74187" lon="3.57343">
        <ele>354.5</ele>
      </trkpt>
      <trkpt lat="45.74182" lon="3.57361">
        <ele>354.9</ele>
      </trkpt>
      <trkpt lat="45.74179" lon="3.5738">
        <ele>355.4</ele>
      </trkpt>
      <trkpt lat="45.74177" lon="3.57395">
        <ele>356.1</ele>
      </trkpt>
      <trkpt lat="45.74178" lon="3.57409">
        <ele>357.2</ele>
      </trkpt>
      <trkpt lat="45.7418" lon="3.5742">
        <ele>358</ele>
      </trkpt>
      <trkpt lat="45.74183" lon="3.57436">
        <ele>358.5</ele>
      </trkpt>
      <trkpt lat="45.74186" lon="3.57447">
        <ele>358.8</ele>
      </trkpt>
      <trkpt lat="45.74187" lon="3.57458">
        <ele>358.8</ele>
      </trkpt>
      <trkpt lat="45.74188" lon="3.57472">
        <ele>358.5</ele>
      </trkpt>
      <trkpt lat="45.74188" lon="3.57487">
        <ele>358.2</ele>
      </trkpt>
      <trkpt lat="45.74189" lon="3.57501">
        <ele>357.9</ele>
      </trkpt>
      <trkpt lat="45.74189" lon="3.57527">
        <ele>357.7</ele>
      </trkpt>
      <trkpt lat="45.7419" lon="3.57558">
        <ele>357.4</ele>
      </trkpt>
      <trkpt lat="45.74191" lon="3.57582">
        <ele>357.1</ele>
      </trkpt>
      <trkpt lat="45.74193" lon="3.57601">
        <ele>357.5</ele>
      </trkpt>
      <trkpt lat="45.74181" lon="3.57605">
        <ele>356.2</ele>
      </trkpt>
      <trkpt lat="45.74172" lon="3.57608">
        <ele>355.3</ele>
      </trkpt>
      <trkpt lat="45.74165" lon="3.57611">
        <ele>355</ele>
      </trkpt>
      <trkpt lat="45.7416" lon="3.57615">
        <ele>356.7</ele>
      </trkpt>
      <trkpt lat="45.74155" lon="3.5762">
        <ele>358</ele>
      </trkpt>
      <trkpt lat="45.74152" lon="3.57593">
        <ele>359.6</ele>
      </trkpt>
      <trkpt lat="45.74149" lon="3.57567">
        <ele>360.8</ele>
      </trkpt>
      <trkpt lat="45.74146" lon="3.57539">
        <ele>361.5</ele>
      </trkpt>
      <trkpt lat="45.74143" lon="3.57511">
        <ele>362.3</ele>
      </trkpt>
      <trkpt lat="45.7414" lon="3.57483">
        <ele>363.1</ele>
      </trkpt>
      <trkpt lat="45.74137" lon="3.57455">
        <ele>363.6</ele>
      </trkpt>
      <trkpt lat="45.74132" lon="3.57437">
        <ele>364.8</ele>
      </trkpt>
      <trkpt lat="45.74127" lon="3.57418">
        <ele>365.9</ele>
      </trkpt>
      <trkpt lat="45.74127" lon="3.57394">
        <ele>363.7</ele>
      </trkpt>
      <trkpt lat="45.74129" lon="3.57376">
        <ele>361.7</ele>
      </trkpt>
      <trkpt lat="45.7413" lon="3.57358">
        <ele>359.7</ele>
      </trkpt>
      <trkpt lat="45.74129" lon="3.57334">
        <ele>357.7</ele>
      </trkpt>
      <trkpt lat="45.74127" lon="3.57313">
        <ele>356.4</ele>
      </trkpt>
      <trkpt lat="45.74125" lon="3.57292">
        <ele>355</ele>
      </trkpt>
      <trkpt lat="45.74125" lon="3.57292">
        <ele>355</ele>
      </trkpt>
      <trkpt lat="45.74129" lon="3.57271">
        <ele>352.7</ele>
      </trkpt>
      <trkpt lat="45.74134" lon="3.57268">
        <ele>351.6</ele>
      </trkpt>
      <trkpt lat="45.74139" lon="3.57262">
        <ele>350.4</ele>
      </trkpt>
      <trkpt lat="45.74144" lon="3.57256">
        <ele>349.4</ele>
      </trkpt>
      <trkpt lat="45.74148" lon="3.57248">
        <ele>348.4</ele>
      </trkpt>
      <trkpt lat="45.74152" lon="3.5724">
        <ele>347.6</ele>
      </trkpt>
      <trkpt lat="45.7416" lon="3.5722">
        <ele>346.1</ele>
      </trkpt>
      <trkpt lat="45.74168" lon="3.572">
        <ele>344.8</ele>
      </trkpt>
      <trkpt lat="45.74175" lon="3.57183">
        <ele>344.1</ele>
      </trkpt>
      <trkpt lat="45.74184" lon="3.57158">
        <ele>342.9</ele>
      </trkpt>
      <trkpt lat="45.74191" lon="3.57136">
        <ele>342</ele>
      </trkpt>
      <trkpt lat="45.74197" lon="3.5712">
        <ele>341.3</ele>
      </trkpt>
      <trkpt lat="45.74203" lon="3.57105">
        <ele>340.7</ele>
      </trkpt>
      <trkpt lat="45.74209" lon="3.57097">
        <ele>340.3</ele>
      </trkpt>
      <trkpt lat="45.74214" lon="3.57088">
        <ele>340</ele>
      </trkpt>
      <trkpt lat="45.7422" lon="3.5708">
        <ele>340</ele>
      </trkpt>
      <trkpt lat="45.74224" lon="3.57073">
        <ele>340.3</ele>
      </trkpt>
      <trkpt lat="45.74228" lon="3.57066">
        <ele>340.6</ele>
      </trkpt>
      <trkpt lat="45.7423" lon="3.57059">
        <ele>340.9</ele>
      </trkpt>
      <trkpt lat="45.74232" lon="3.57048">
        <ele>341.4</ele>
      </trkpt>
      <trkpt lat="45.74232" lon="3.57037">
        <ele>342</ele>
      </trkpt>
      <trkpt lat="45.74231" lon="3.5702">
        <ele>343.1</ele>
      </trkpt>
      <trkpt lat="45.7423" lon="3.57004">
        <ele>344.2</ele>
      </trkpt>
      <trkpt lat="45.74227" lon="3.56975">
        <ele>349.3</ele>
      </trkpt>
      <trkpt lat="45.74228" lon="3.5696">
        <ele>351.8</ele>
      </trkpt>
      <trkpt lat="45.74229" lon="3.56951">
        <ele>353.1</ele>
      </trkpt>
      <trkpt lat="45.74234" lon="3.56935">
        <ele>354.5</ele>
      </trkpt>
      <trkpt lat="45.7424" lon="3.56915">
        <ele>355.8</ele>
      </trkpt>
      <trkpt lat="45.74245" lon="3.56897">
        <ele>356.9</ele>
      </trkpt>
      <trkpt lat="45.74249" lon="3.56884">
        <ele>357.9</ele>
      </trkpt>
      <trkpt lat="45.74255" lon="3.56863">
        <ele>360.2</ele>
      </trkpt>
      <trkpt lat="45.74262" lon="3.56843">
        <ele>362</ele>
      </trkpt>
      <trkpt lat="45.74269" lon="3.56824">
        <ele>362.8</ele>
      </trkpt>
      <trkpt lat="45.74277" lon="3.56804">
        <ele>362.9</ele>
      </trkpt>
      <trkpt lat="45.74285" lon="3.56787">
        <ele>363.2</ele>
      </trkpt>
      <trkpt lat="45.74289" lon="3.56773">
        <ele>363.5</ele>
      </trkpt>
      <trkpt lat="45.74295" lon="3.56758">
        <ele>364.1</ele>
      </trkpt>
      <trkpt lat="45.74302" lon="3.5674">
        <ele>364</ele>
      </trkpt>
      <trkpt lat="45.74308" lon="3.56727">
        <ele>363.4</ele>
      </trkpt>
      <trkpt lat="45.74313" lon="3.56718">
        <ele>363.1</ele>
      </trkpt>
      <trkpt lat="45.74316" lon="3.56712">
        <ele>362.8</ele>
      </trkpt>
      <trkpt lat="45.74316" lon="3.56712">
        <ele>362.8</ele>
      </trkpt>
      <trkpt lat="45.74323" lon="3.56697">
        <ele>362.2</ele>
      </trkpt>
      <trkpt lat="45.7433" lon="3.56685">
        <ele>361.7</ele>
      </trkpt>
      <trkpt lat="45.74333" lon="3.56679">
        <ele>361.5</ele>
      </trkpt>
      <trkpt lat="45.74338" lon="3.56669">
        <ele>361</ele>
      </trkpt>
      <trkpt lat="45.74341" lon="3.56661">
        <ele>360.2</ele>
      </trkpt>
      <trkpt lat="45.74344" lon="3.56652">
        <ele>359.3</ele>
      </trkpt>
      <trkpt lat="45.74346" lon="3.5664">
        <ele>358.4</ele>
      </trkpt>
      <trkpt lat="45.74347" lon="3.5663">
        <ele>358</ele>
      </trkpt>
      <trkpt lat="45.74347" lon="3.56623">
        <ele>357.7</ele>
      </trkpt>
      <trkpt lat="45.74347" lon="3.56616">
        <ele>357.5</ele>
      </trkpt>
      <trkpt lat="45.74346" lon="3.56604">
        <ele>357.1</ele>
      </trkpt>
      <trkpt lat="45.74345" lon="3.56593">
        <ele>357</ele>
      </trkpt>
      <trkpt lat="45.74343" lon="3.56584">
        <ele>357.1</ele>
      </trkpt>
      <trkpt lat="45.74339" lon="3.56575">
        <ele>357.2</ele>
      </trkpt>
      <trkpt lat="45.74336" lon="3.56569">
        <ele>357.4</ele>
      </trkpt>
      <trkpt lat="45.74331" lon="3.56563">
        <ele>357.6</ele>
      </trkpt>
      <trkpt lat="45.74327" lon="3.56567">
        <ele>358.6</ele>
      </trkpt>
      <trkpt lat="45.74314" lon="3.56561">
        <ele>360.2</ele>
      </trkpt>
      <trkpt lat="45.74308" lon="3.56559">
        <ele>360.8</ele>
      </trkpt>
      <trkpt lat="45.74301" lon="3.56556">
        <ele>361.8</ele>
      </trkpt>
      <trkpt lat="45.74292" lon="3.56557">
        <ele>363.2</ele>
      </trkpt>
      <trkpt lat="45.74286" lon="3.5656">
        <ele>364.4</ele>
      </trkpt>
      <trkpt lat="45.74281" lon="3.56563">
        <ele>365.4</ele>
      </trkpt>
      <trkpt lat="45.74278" lon="3.56568">
        <ele>366.4</ele>
      </trkpt>
      <trkpt lat="45.74274" lon="3.56575">
        <ele>367.6</ele>
      </trkpt>
      <trkpt lat="45.74269" lon="3.56588">
        <ele>369.2</ele>
      </trkpt>
      <trkpt lat="45.74263" lon="3.56603">
        <ele>370.8</ele>
      </trkpt>
      <trkpt lat="45.74256" lon="3.56613">
        <ele>372.2</ele>
      </trkpt>
      <trkpt lat="45.74247" lon="3.56626">
        <ele>373.8</ele>
      </trkpt>
      <trkpt lat="45.74245" lon="3.56632">
        <ele>374.3</ele>
      </trkpt>
      <trkpt lat="45.74239" lon="3.5665">
        <ele>375.6</ele>
      </trkpt>
      <trkpt lat="45.74234" lon="3.56665">
        <ele>376.8</ele>
      </trkpt>
      <trkpt lat="45.74227" lon="3.56684">
        <ele>377.3</ele>
      </trkpt>
      <trkpt lat="45.74224" lon="3.56691">
        <ele>377.5</ele>
      </trkpt>
      <trkpt lat="45.74219" lon="3.56699">
        <ele>377.9</ele>
      </trkpt>
      <trkpt lat="45.74214" lon="3.56705">
        <ele>378.3</ele>
      </trkpt>
      <trkpt lat="45.74207" lon="3.5671">
        <ele>379.1</ele>
      </trkpt>
      <trkpt lat="45.74201" lon="3.56713">
        <ele>379.7</ele>
      </trkpt>
      <trkpt lat="45.74195" lon="3.56717">
        <ele>380.4</ele>
      </trkpt>
      <trkpt lat="45.7419" lon="3.5672">
        <ele>380.9</ele>
      </trkpt>
      <trkpt lat="45.74178" lon="3.56724">
        <ele>382.3</ele>
      </trkpt>
      <trkpt lat="45.74161" lon="3.56731">
        <ele>384</ele>
      </trkpt>
      <trkpt lat="45.74145" lon="3.56737">
        <ele>385.5</ele>
      </trkpt>
      <trkpt lat="45.74129" lon="3.56741">
        <ele>387.1</ele>
      </trkpt>
      <trkpt lat="45.74109" lon="3.56748">
        <ele>389.2</ele>
      </trkpt>
      <trkpt lat="45.741" lon="3.56752">
        <ele>390.2</ele>
      </trkpt>
      <trkpt lat="45.74094" lon="3.56755">
        <ele>390.7</ele>
      </trkpt>
      <trkpt lat="45.74081" lon="3.56766">
        <ele>391.7</ele>
      </trkpt>
      <trkpt lat="45.7407" lon="3.56775">
        <ele>391.9</ele>
      </trkpt>
      <trkpt lat="45.74061" lon="3.56783">
        <ele>392.1</ele>
      </trkpt>
      <trkpt lat="45.74055" lon="3.56789">
        <ele>392.3</ele>
      </trkpt>
      <trkpt lat="45.74055" lon="3.56789">
        <ele>392.3</ele>
      </trkpt>
      <trkpt lat="45.74048" lon="3.56795">
        <ele>392.4</ele>
      </trkpt>
      <trkpt lat="45.7404" lon="3.56802">
        <ele>392.6</ele>
      </trkpt>
      <trkpt lat="45.74036" lon="3.56808">
        <ele>392.7</ele>
      </trkpt>
      <trkpt lat="45.74027" lon="3.56805">
        <ele>393.2</ele>
      </trkpt>
      <trkpt lat="45.7402" lon="3.56802">
        <ele>393.5</ele>
      </trkpt>
      <trkpt lat="45.74013" lon="3.56798">
        <ele>393.9</ele>
      </trkpt>
      <trkpt lat="45.74006" lon="3.56791">
        <ele>394.2</ele>
      </trkpt>
      <trkpt lat="45.74002" lon="3.56786">
        <ele>394.5</ele>
      </trkpt>
      <trkpt lat="45.73996" lon="3.56779">
        <ele>394.8</ele>
      </trkpt>
      <trkpt lat="45.73993" lon="3.56773">
        <ele>395</ele>
      </trkpt>
      <trkpt lat="45.73989" lon="3.56769">
        <ele>395.2</ele>
      </trkpt>
      <trkpt lat="45.73983" lon="3.56764">
        <ele>395.5</ele>
      </trkpt>
      <trkpt lat="45.73979" lon="3.56761">
        <ele>395.7</ele>
      </trkpt>
      <trkpt lat="45.73972" lon="3.56758">
        <ele>395.9</ele>
      </trkpt>
      <trkpt lat="45.73965" lon="3.56757">
        <ele>396.2</ele>
      </trkpt>
      <trkpt lat="45.73961" lon="3.56757">
        <ele>396.4</ele>
      </trkpt>
      <trkpt lat="45.73953" lon="3.56758">
        <ele>396.6</ele>
      </trkpt>
      <trkpt lat="45.73941" lon="3.56763">
        <ele>397.1</ele>
      </trkpt>
      <trkpt lat="45.73927" lon="3.56768">
        <ele>397.6</ele>
      </trkpt>
      <trkpt lat="45.73913" lon="3.56775">
        <ele>398.3</ele>
      </trkpt>
      <trkpt lat="45.73895" lon="3.56784">
        <ele>399.4</ele>
      </trkpt>
      <trkpt lat="45.73878" lon="3.56794">
        <ele>400.5</ele>
      </trkpt>
      <trkpt lat="45.73865" lon="3.568">
        <ele>401.5</ele>
      </trkpt>
      <trkpt lat="45.73852" lon="3.56807">
        <ele>402.4</ele>
      </trkpt>
      <trkpt lat="45.73844" lon="3.56811">
        <ele>403</ele>
      </trkpt>
      <trkpt lat="45.7383" lon="3.56818">
        <ele>404.2</ele>
      </trkpt>
      <trkpt lat="45.73818" lon="3.56825">
        <ele>405.5</ele>
      </trkpt>
      <trkpt lat="45.73806" lon="3.56831">
        <ele>406.9</ele>
      </trkpt>
      <trkpt lat="45.7379" lon="3.5684">
        <ele>408.5</ele>
      </trkpt>
      <trkpt lat="45.73773" lon="3.56848">
        <ele>410.2</ele>
      </trkpt>
      <trkpt lat="45.73757" lon="3.56856">
        <ele>411.9</ele>
      </trkpt>
      <trkpt lat="45.7374" lon="3.56865">
        <ele>413.6</ele>
      </trkpt>
      <trkpt lat="45.73728" lon="3.56872">
        <ele>414.8</ele>
      </trkpt>
      <trkpt lat="45.73723" lon="3.56876">
        <ele>415.3</ele>
      </trkpt>
      <trkpt lat="45.73717" lon="3.56881">
        <ele>415.9</ele>
      </trkpt>
      <trkpt lat="45.73707" lon="3.56891">
        <ele>417</ele>
      </trkpt>
      <trkpt lat="45.73695" lon="3.56901">
        <ele>418.4</ele>
      </trkpt>
      <trkpt lat="45.73685" lon="3.56909">
        <ele>419.7</ele>
      </trkpt>
      <trkpt lat="45.73678" lon="3.56912">
        <ele>420.5</ele>
      </trkpt>
      <trkpt lat="45.73669" lon="3.56915">
        <ele>421.7</ele>
      </trkpt>
      <trkpt lat="45.73648" lon="3.56918">
        <ele>424.2</ele>
      </trkpt>
      <trkpt lat="45.73637" lon="3.56919">
        <ele>425.5</ele>
      </trkpt>
      <trkpt lat="45.73625" lon="3.56921">
        <ele>426.9</ele>
      </trkpt>
      <trkpt lat="45.73625" lon="3.56921">
        <ele>426.9</ele>
      </trkpt>
      <trkpt lat="45.73607" lon="3.56924">
        <ele>429.2</ele>
      </trkpt>
      <trkpt lat="45.736" lon="3.56925">
        <ele>430</ele>
      </trkpt>
      <trkpt lat="45.73596" lon="3.56927">
        <ele>430.5</ele>
      </trkpt>
      <trkpt lat="45.73591" lon="3.5693">
        <ele>431.1</ele>
      </trkpt>
      <trkpt lat="45.73586" lon="3.56934">
        <ele>431.8</ele>
      </trkpt>
      <trkpt lat="45.73578" lon="3.56941">
        <ele>432.8</ele>
      </trkpt>
      <trkpt lat="45.73566" lon="3.56953">
        <ele>434.4</ele>
      </trkpt>
      <trkpt lat="45.7356" lon="3.56959">
        <ele>435.3</ele>
      </trkpt>
      <trkpt lat="45.73555" lon="3.56963">
        <ele>436.2</ele>
      </trkpt>
      <trkpt lat="45.73547" lon="3.56967">
        <ele>437.4</ele>
      </trkpt>
      <trkpt lat="45.73534" lon="3.56973">
        <ele>439.5</ele>
      </trkpt>
      <trkpt lat="45.73522" lon="3.56977">
        <ele>441.5</ele>
      </trkpt>
      <trkpt lat="45.73514" lon="3.56979">
        <ele>442.8</ele>
      </trkpt>
      <trkpt lat="45.73502" lon="3.5698">
        <ele>444.5</ele>
      </trkpt>
      <trkpt lat="45.73492" lon="3.56981">
        <ele>446.4</ele>
      </trkpt>
      <trkpt lat="45.7348" lon="3.5698">
        <ele>448.5</ele>
      </trkpt>
      <trkpt lat="45.73466" lon="3.56978">
        <ele>451.1</ele>
      </trkpt>
      <trkpt lat="45.73451" lon="3.56976">
        <ele>453.6</ele>
      </trkpt>
      <trkpt lat="45.7343" lon="3.56971">
        <ele>457</ele>
      </trkpt>
      <trkpt lat="45.73416" lon="3.56967">
        <ele>459.1</ele>
      </trkpt>
      <trkpt lat="45.73395" lon="3.56961">
        <ele>460.6</ele>
      </trkpt>
      <trkpt lat="45.73383" lon="3.56958">
        <ele>461.6</ele>
      </trkpt>
      <trkpt lat="45.7337" lon="3.56954">
        <ele>462.6</ele>
      </trkpt>
      <trkpt lat="45.73354" lon="3.56949">
        <ele>463.9</ele>
      </trkpt>
      <trkpt lat="45.7334" lon="3.56945">
        <ele>464.9</ele>
      </trkpt>
      <trkpt lat="45.73332" lon="3.56941">
        <ele>465.4</ele>
      </trkpt>
      <trkpt lat="45.73325" lon="3.56936">
        <ele>465.6</ele>
      </trkpt>
      <trkpt lat="45.73313" lon="3.56924">
        <ele>465.6</ele>
      </trkpt>
      <trkpt lat="45.73301" lon="3.5691">
        <ele>465.6</ele>
      </trkpt>
      <trkpt lat="45.73289" lon="3.56896">
        <ele>465.6</ele>
      </trkpt>
      <trkpt lat="45.73279" lon="3.56884">
        <ele>465.9</ele>
      </trkpt>
      <trkpt lat="45.73268" lon="3.56872">
        <ele>466.2</ele>
      </trkpt>
      <trkpt lat="45.73252" lon="3.56855">
        <ele>467</ele>
      </trkpt>
      <trkpt lat="45.73241" lon="3.56842">
        <ele>467.6</ele>
      </trkpt>
      <trkpt lat="45.73236" lon="3.56835">
        <ele>467.8</ele>
      </trkpt>
      <trkpt lat="45.73231" lon="3.56828">
        <ele>468.4</ele>
      </trkpt>
      <trkpt lat="45.73226" lon="3.56818">
        <ele>469.4</ele>
      </trkpt>
      <trkpt lat="45.73212" lon="3.56795">
        <ele>471.6</ele>
      </trkpt>
      <trkpt lat="45.73203" lon="3.56778">
        <ele>472.8</ele>
      </trkpt>
      <trkpt lat="45.73203" lon="3.56778">
        <ele>472.8</ele>
      </trkpt>
      <trkpt lat="45.73194" lon="3.56762">
        <ele>473.8</ele>
      </trkpt>
      <trkpt lat="45.73186" lon="3.56747">
        <ele>474.6</ele>
      </trkpt>
      <trkpt lat="45.73179" lon="3.56733">
        <ele>475.1</ele>
      </trkpt>
      <trkpt lat="45.73174" lon="3.56724">
        <ele>475.3</ele>
      </trkpt>
      <trkpt lat="45.73169" lon="3.56715">
        <ele>475.5</ele>
      </trkpt>
      <trkpt lat="45.73165" lon="3.5672">
        <ele>475.5</ele>
      </trkpt>
      <trkpt lat="45.73161" lon="3.56725">
        <ele>475.4</ele>
      </trkpt>
      <trkpt lat="45.73158" lon="3.5673">
        <ele>475.3</ele>
      </trkpt>
      <trkpt lat="45.73154" lon="3.56736">
        <ele>475.3</ele>
      </trkpt>
      <trkpt lat="45.73151" lon="3.56742">
        <ele>475.4</ele>
      </trkpt>
      <trkpt lat="45.73148" lon="3.56747">
        <ele>475.4</ele>
      </trkpt>
      <trkpt lat="45.73142" lon="3.5676">
        <ele>475.6</ele>
      </trkpt>
      <trkpt lat="45.73133" lon="3.56779">
        <ele>476</ele>
      </trkpt>
      <trkpt lat="45.73122" lon="3.56806">
        <ele>477.1</ele>
      </trkpt>
      <trkpt lat="45.73113" lon="3.56829">
        <ele>478.4</ele>
      </trkpt>
      <trkpt lat="45.73102" lon="3.56856">
        <ele>480.4</ele>
      </trkpt>
      <trkpt lat="45.73096" lon="3.56871">
        <ele>481.6</ele>
      </trkpt>
      <trkpt lat="45.73089" lon="3.56886">
        <ele>482.9</ele>
      </trkpt>
      <trkpt lat="45.73082" lon="3.56903">
        <ele>484.1</ele>
      </trkpt>
      <trkpt lat="45.73075" lon="3.5692">
        <ele>484.8</ele>
      </trkpt>
      <trkpt lat="45.73066" lon="3.5694">
        <ele>486.1</ele>
      </trkpt>
      <trkpt lat="45.73058" lon="3.56961">
        <ele>487.4</ele>
      </trkpt>
      <trkpt lat="45.73047" lon="3.56984">
        <ele>489.2</ele>
      </trkpt>
      <trkpt lat="45.73034" lon="3.5701">
        <ele>491.1</ele>
      </trkpt>
      <trkpt lat="45.73023" lon="3.57033">
        <ele>492.6</ele>
      </trkpt>
      <trkpt lat="45.73017" lon="3.57047">
        <ele>493.5</ele>
      </trkpt>
      <trkpt lat="45.73012" lon="3.57058">
        <ele>494.2</ele>
      </trkpt>
      <trkpt lat="45.73008" lon="3.57067">
        <ele>494.8</ele>
      </trkpt>
      <trkpt lat="45.73002" lon="3.57077">
        <ele>495.5</ele>
      </trkpt>
      <trkpt lat="45.72989" lon="3.57097">
        <ele>496.4</ele>
      </trkpt>
      <trkpt lat="45.72975" lon="3.57115">
        <ele>497.3</ele>
      </trkpt>
      <trkpt lat="45.72965" lon="3.57128">
        <ele>498</ele>
      </trkpt>
      <trkpt lat="45.72958" lon="3.57138">
        <ele>498.7</ele>
      </trkpt>
      <trkpt lat="45.72947" lon="3.57156">
        <ele>500.2</ele>
      </trkpt>
      <trkpt lat="45.72939" lon="3.57169">
        <ele>501.3</ele>
      </trkpt>
      <trkpt lat="45.72931" lon="3.57182">
        <ele>501.9</ele>
      </trkpt>
      <trkpt lat="45.72923" lon="3.57198">
        <ele>502.8</ele>
      </trkpt>
      <trkpt lat="45.72923" lon="3.57198">
        <ele>502.8</ele>
      </trkpt>
      <trkpt lat="45.72913" lon="3.57214">
        <ele>503.7</ele>
      </trkpt>
      <trkpt lat="45.729" lon="3.57239">
        <ele>504.6</ele>
      </trkpt>
      <trkpt lat="45.72894" lon="3.57252">
        <ele>505.2</ele>
      </trkpt>
      <trkpt lat="45.72887" lon="3.57266">
        <ele>505.6</ele>
      </trkpt>
      <trkpt lat="45.72875" lon="3.57291">
        <ele>506.7</ele>
      </trkpt>
      <trkpt lat="45.72864" lon="3.57313">
        <ele>508</ele>
      </trkpt>
      <trkpt lat="45.72858" lon="3.57329">
        <ele>509.2</ele>
      </trkpt>
      <trkpt lat="45.72852" lon="3.57346">
        <ele>510.2</ele>
      </trkpt>
      <trkpt lat="45.72845" lon="3.57369">
        <ele>511.8</ele>
      </trkpt>
      <trkpt lat="45.72839" lon="3.57388">
        <ele>513.3</ele>
      </trkpt>
      <trkpt lat="45.72833" lon="3.57407">
        <ele>515.2</ele>
      </trkpt>
      <trkpt lat="45.72826" lon="3.57432">
        <ele>515.7</ele>
      </trkpt>
      <trkpt lat="45.7282" lon="3.57452">
        <ele>515.7</ele>
      </trkpt>
      <trkpt lat="45.72814" lon="3.57468">
        <ele>515.7</ele>
      </trkpt>
      <trkpt lat="45.72804" lon="3.57491">
        <ele>515.7</ele>
      </trkpt>
      <trkpt lat="45.72798" lon="3.57505">
        <ele>516.1</ele>
      </trkpt>
      <trkpt lat="45.72792" lon="3.57519">
        <ele>517</ele>
      </trkpt>
      <trkpt lat="45.72782" lon="3.57539">
        <ele>518.5</ele>
      </trkpt>
      <trkpt lat="45.72773" lon="3.57559">
        <ele>520.3</ele>
      </trkpt>
      <trkpt lat="45.72764" lon="3.5758">
        <ele>522.3</ele>
      </trkpt>
      <trkpt lat="45.72755" lon="3.57601">
        <ele>523.7</ele>
      </trkpt>
      <trkpt lat="45.72746" lon="3.57619">
        <ele>524.6</ele>
      </trkpt>
      <trkpt lat="45.72738" lon="3.57638">
        <ele>525.5</ele>
      </trkpt>
      <trkpt lat="45.72729" lon="3.57656">
        <ele>526.4</ele>
      </trkpt>
      <trkpt lat="45.7272" lon="3.57675">
        <ele>527.3</ele>
      </trkpt>
      <trkpt lat="45.7271" lon="3.57697">
        <ele>528.1</ele>
      </trkpt>
      <trkpt lat="45.72697" lon="3.57721">
        <ele>528.8</ele>
      </trkpt>
      <trkpt lat="45.72689" lon="3.57737">
        <ele>529.1</ele>
      </trkpt>
      <trkpt lat="45.7268" lon="3.57753">
        <ele>529.4</ele>
      </trkpt>
      <trkpt lat="45.72671" lon="3.57768">
        <ele>529.5</ele>
      </trkpt>
      <trkpt lat="45.72671" lon="3.57768">
        <ele>529.5</ele>
      </trkpt>
      <trkpt lat="45.72662" lon="3.57783">
        <ele>529.8</ele>
      </trkpt>
      <trkpt lat="45.7265" lon="3.57804">
        <ele>530.5</ele>
      </trkpt>
      <trkpt lat="45.72637" lon="3.57824">
        <ele>531.7</ele>
      </trkpt>
      <trkpt lat="45.72625" lon="3.57845">
        <ele>533.1</ele>
      </trkpt>
      <trkpt lat="45.72611" lon="3.57866">
        <ele>534.8</ele>
      </trkpt>
      <trkpt lat="45.72598" lon="3.57886">
        <ele>536.5</ele>
      </trkpt>
      <trkpt lat="45.72589" lon="3.57901">
        <ele>537.8</ele>
      </trkpt>
      <trkpt lat="45.72579" lon="3.57916">
        <ele>538.9</ele>
      </trkpt>
      <trkpt lat="45.7257" lon="3.57931">
        <ele>539.2</ele>
      </trkpt>
      <trkpt lat="45.72565" lon="3.57938">
        <ele>539.3</ele>
      </trkpt>
      <trkpt lat="45.72555" lon="3.57953">
        <ele>539.4</ele>
      </trkpt>
      <trkpt lat="45.72545" lon="3.57968">
        <ele>539.6</ele>
      </trkpt>
      <trkpt lat="45.7253" lon="3.57991">
        <ele>539.9</ele>
      </trkpt>
      <trkpt lat="45.7252" lon="3.58005">
        <ele>539.7</ele>
      </trkpt>
      <trkpt lat="45.72515" lon="3.58011">
        <ele>539.4</ele>
      </trkpt>
      <trkpt lat="45.72509" lon="3.58016">
        <ele>539.2</ele>
      </trkpt>
      <trkpt lat="45.72504" lon="3.5802">
        <ele>539</ele>
      </trkpt>
      <trkpt lat="45.72498" lon="3.58024">
        <ele>538.8</ele>
      </trkpt>
      <trkpt lat="45.72492" lon="3.58026">
        <ele>538.5</ele>
      </trkpt>
      <trkpt lat="45.72484" lon="3.58027">
        <ele>538.2</ele>
      </trkpt>
      <trkpt lat="45.72472" lon="3.5803">
        <ele>537.7</ele>
      </trkpt>
      <trkpt lat="45.7246" lon="3.58032">
        <ele>537.3</ele>
      </trkpt>
      <trkpt lat="45.72452" lon="3.58034">
        <ele>537</ele>
      </trkpt>
      <trkpt lat="45.72443" lon="3.58038">
        <ele>536.7</ele>
      </trkpt>
      <trkpt lat="45.72434" lon="3.58043">
        <ele>536.4</ele>
      </trkpt>
      <trkpt lat="45.72421" lon="3.5805">
        <ele>536.1</ele>
      </trkpt>
      <trkpt lat="45.7241" lon="3.58057">
        <ele>536.1</ele>
      </trkpt>
      <trkpt lat="45.724" lon="3.58063">
        <ele>536.2</ele>
      </trkpt>
      <trkpt lat="45.72383" lon="3.58073">
        <ele>536.4</ele>
      </trkpt>
      <trkpt lat="45.72371" lon="3.5808">
        <ele>536.5</ele>
      </trkpt>
      <trkpt lat="45.72373" lon="3.58086">
        <ele>536.4</ele>
      </trkpt>
      <trkpt lat="45.72373" lon="3.58097">
        <ele>535.7</ele>
      </trkpt>
      <trkpt lat="45.72371" lon="3.58105">
        <ele>535.3</ele>
      </trkpt>
      <trkpt lat="45.72369" lon="3.58111">
        <ele>535</ele>
      </trkpt>
      <trkpt lat="45.72365" lon="3.58119">
        <ele>534.8</ele>
      </trkpt>
      <trkpt lat="45.72359" lon="3.58127">
        <ele>534.6</ele>
      </trkpt>
      <trkpt lat="45.7235" lon="3.58142">
        <ele>534.6</ele>
      </trkpt>
      <trkpt lat="45.72347" lon="3.58147">
        <ele>534.6</ele>
      </trkpt>
      <trkpt lat="45.72345" lon="3.58155">
        <ele>534.5</ele>
      </trkpt>
      <trkpt lat="45.72342" lon="3.58163">
        <ele>534.4</ele>
      </trkpt>
      <trkpt lat="45.72341" lon="3.58174">
        <ele>534.5</ele>
      </trkpt>
      <trkpt lat="45.72341" lon="3.58174">
        <ele>534.5</ele>
      </trkpt>
      <trkpt lat="45.72342" lon="3.58185">
        <ele>534.7</ele>
      </trkpt>
      <trkpt lat="45.72346" lon="3.58196">
        <ele>534.6</ele>
      </trkpt>
      <trkpt lat="45.7235" lon="3.58204">
        <ele>534.4</ele>
      </trkpt>
      <trkpt lat="45.72356" lon="3.58213">
        <ele>534</ele>
      </trkpt>
      <trkpt lat="45.72364" lon="3.58224">
        <ele>533.5</ele>
      </trkpt>
      <trkpt lat="45.72372" lon="3.58236">
        <ele>533</ele>
      </trkpt>
      <trkpt lat="45.7238" lon="3.58248">
        <ele>532.5</ele>
      </trkpt>
      <trkpt lat="45.72389" lon="3.58264">
        <ele>532.2</ele>
      </trkpt>
      <trkpt lat="45.724" lon="3.5829">
        <ele>532</ele>
      </trkpt>
      <trkpt lat="45.72406" lon="3.58304">
        <ele>532</ele>
      </trkpt>
      <trkpt lat="45.72412" lon="3.58318">
        <ele>531.9</ele>
      </trkpt>
      <trkpt lat="45.72418" lon="3.58334">
        <ele>531.9</ele>
      </trkpt>
      <trkpt lat="45.72424" lon="3.5835">
        <ele>531.4</ele>
      </trkpt>
      <trkpt lat="45.7243" lon="3.58365">
        <ele>531.1</ele>
      </trkpt>
      <trkpt lat="45.72436" lon="3.5838">
        <ele>530.7</ele>
      </trkpt>
      <trkpt lat="45.72444" lon="3.58399">
        <ele>530.3</ele>
      </trkpt>
      <trkpt lat="45.72451" lon="3.58418">
        <ele>529.9</ele>
      </trkpt>
      <trkpt lat="45.72452" lon="3.58424">
        <ele>529.6</ele>
      </trkpt>
      <trkpt lat="45.72452" lon="3.58431">
        <ele>529.4</ele>
      </trkpt>
      <trkpt lat="45.7245" lon="3.5844">
        <ele>529.3</ele>
      </trkpt>
      <trkpt lat="45.72447" lon="3.58449">
        <ele>529.5</ele>
      </trkpt>
      <trkpt lat="45.72442" lon="3.58456">
        <ele>529.8</ele>
      </trkpt>
      <trkpt lat="45.72438" lon="3.58463">
        <ele>530.2</ele>
      </trkpt>
      <trkpt lat="45.72433" lon="3.58469">
        <ele>530.6</ele>
      </trkpt>
      <trkpt lat="45.72428" lon="3.58475">
        <ele>531.1</ele>
      </trkpt>
      <trkpt lat="45.72428" lon="3.58488">
        <ele>530.8</ele>
      </trkpt>
      <trkpt lat="45.72427" lon="3.58498">
        <ele>530.7</ele>
      </trkpt>
      <trkpt lat="45.72423" lon="3.58518">
        <ele>530.1</ele>
      </trkpt>
      <trkpt lat="45.72417" lon="3.58546">
        <ele>529.2</ele>
      </trkpt>
      <trkpt lat="45.72413" lon="3.5856">
        <ele>528.8</ele>
      </trkpt>
      <trkpt lat="45.72411" lon="3.58569">
        <ele>528.4</ele>
      </trkpt>
      <trkpt lat="45.7241" lon="3.58577">
        <ele>528.1</ele>
      </trkpt>
      <trkpt lat="45.7241" lon="3.58584">
        <ele>527.7</ele>
      </trkpt>
      <trkpt lat="45.72411" lon="3.58598">
        <ele>526.8</ele>
      </trkpt>
      <trkpt lat="45.72413" lon="3.58616">
        <ele>525.4</ele>
      </trkpt>
      <trkpt lat="45.72415" lon="3.58635">
        <ele>524.1</ele>
      </trkpt>
      <trkpt lat="45.72418" lon="3.58656">
        <ele>522.6</ele>
      </trkpt>
      <trkpt lat="45.7242" lon="3.58677">
        <ele>521.4</ele>
      </trkpt>
      <trkpt lat="45.72423" lon="3.58698">
        <ele>520.5</ele>
      </trkpt>
      <trkpt lat="45.72425" lon="3.58719">
        <ele>519.5</ele>
      </trkpt>
      <trkpt lat="45.72427" lon="3.58737">
        <ele>518.7</ele>
      </trkpt>
      <trkpt lat="45.72429" lon="3.58755">
        <ele>517.9</ele>
      </trkpt>
      <trkpt lat="45.72431" lon="3.58774">
        <ele>516.9</ele>
      </trkpt>
      <trkpt lat="45.72431" lon="3.58774">
        <ele>516.9</ele>
      </trkpt>
      <trkpt lat="45.72431" lon="3.58786">
        <ele>516.3</ele>
      </trkpt>
      <trkpt lat="45.72431" lon="3.58799">
        <ele>515.7</ele>
      </trkpt>
      <trkpt lat="45.7243" lon="3.58811">
        <ele>515.2</ele>
      </trkpt>
      <trkpt lat="45.72428" lon="3.58829">
        <ele>514.3</ele>
      </trkpt>
      <trkpt lat="45.72424" lon="3.5885">
        <ele>513</ele>
      </trkpt>
      <trkpt lat="45.72421" lon="3.58877">
        <ele>511.1</ele>
      </trkpt>
      <trkpt lat="45.72419" lon="3.58899">
        <ele>509.5</ele>
      </trkpt>
      <trkpt lat="45.72417" lon="3.58916">
        <ele>508.1</ele>
      </trkpt>
      <trkpt lat="45.72415" lon="3.58934">
        <ele>506.8</ele>
      </trkpt>
      <trkpt lat="45.72414" lon="3.58954">
        <ele>505.4</ele>
      </trkpt>
      <trkpt lat="45.72414" lon="3.58979">
        <ele>503.5</ele>
      </trkpt>
      <trkpt lat="45.72413" lon="3.58996">
        <ele>502.4</ele>
      </trkpt>
      <trkpt lat="45.7241" lon="3.59008">
        <ele>501.8</ele>
      </trkpt>
      <trkpt lat="45.72408" lon="3.59016">
        <ele>501.6</ele>
      </trkpt>
      <trkpt lat="45.72404" lon="3.59027">
        <ele>501.3</ele>
      </trkpt>
      <trkpt lat="45.72395" lon="3.59047">
        <ele>501</ele>
      </trkpt>
      <trkpt lat="45.72387" lon="3.59064">
        <ele>501</ele>
      </trkpt>
      <trkpt lat="45.72379" lon="3.59081">
        <ele>501.2</ele>
      </trkpt>
      <trkpt lat="45.72367" lon="3.59107">
        <ele>502.4</ele>
      </trkpt>
      <trkpt lat="45.72355" lon="3.59132">
        <ele>503.7</ele>
      </trkpt>
      <trkpt lat="45.72345" lon="3.59151">
        <ele>504.7</ele>
      </trkpt>
      <trkpt lat="45.72336" lon="3.5917">
        <ele>505.7</ele>
      </trkpt>
      <trkpt lat="45.72325" lon="3.59193">
        <ele>505.6</ele>
      </trkpt>
      <trkpt lat="45.72314" lon="3.59214">
        <ele>505.4</ele>
      </trkpt>
      <trkpt lat="45.72309" lon="3.59226">
        <ele>505.3</ele>
      </trkpt>
      <trkpt lat="45.72302" lon="3.5924">
        <ele>505</ele>
      </trkpt>
      <trkpt lat="45.72297" lon="3.59256">
        <ele>504.6</ele>
      </trkpt>
      <trkpt lat="45.72291" lon="3.5927">
        <ele>504.2</ele>
      </trkpt>
      <trkpt lat="45.72288" lon="3.59276">
        <ele>504</ele>
      </trkpt>
      <trkpt lat="45.72285" lon="3.5928">
        <ele>503.9</ele>
      </trkpt>
      <trkpt lat="45.72279" lon="3.59285">
        <ele>503.8</ele>
      </trkpt>
      <trkpt lat="45.72279" lon="3.59285">
        <ele>503.8</ele>
      </trkpt>
      <trkpt lat="45.72273" lon="3.59289">
        <ele>503.7</ele>
      </trkpt>
      <trkpt lat="45.72269" lon="3.59294">
        <ele>503.5</ele>
      </trkpt>
      <trkpt lat="45.72267" lon="3.593">
        <ele>503.3</ele>
      </trkpt>
      <trkpt lat="45.72265" lon="3.59308">
        <ele>503</ele>
      </trkpt>
      <trkpt lat="45.72264" lon="3.59316">
        <ele>502.6</ele>
      </trkpt>
      <trkpt lat="45.72264" lon="3.59334">
        <ele>501.8</ele>
      </trkpt>
      <trkpt lat="45.72262" lon="3.59357">
        <ele>501.9</ele>
      </trkpt>
      <trkpt lat="45.72262" lon="3.59374">
        <ele>501.9</ele>
      </trkpt>
      <trkpt lat="45.72262" lon="3.59374">
        <ele>501.9</ele>
      </trkpt>
      <trkpt lat="45.72262" lon="3.59391">
        <ele>502</ele>
      </trkpt>
      <trkpt lat="45.72263" lon="3.59398">
        <ele>502</ele>
      </trkpt>
      <trkpt lat="45.72267" lon="3.59408">
        <ele>502</ele>
      </trkpt>
      <trkpt lat="45.72271" lon="3.59413">
        <ele>502</ele>
      </trkpt>
      <trkpt lat="45.72279" lon="3.59421">
        <ele>502.4</ele>
      </trkpt>
      <trkpt lat="45.72288" lon="3.59431">
        <ele>503.4</ele>
      </trkpt>
      <trkpt lat="45.72297" lon="3.59442">
        <ele>504.6</ele>
      </trkpt>
      <trkpt lat="45.72309" lon="3.59456">
        <ele>506.1</ele>
      </trkpt>
      <trkpt lat="45.72319" lon="3.59468">
        <ele>507.5</ele>
      </trkpt>
      <trkpt lat="45.72329" lon="3.59481">
        <ele>508.9</ele>
      </trkpt>
      <trkpt lat="45.72339" lon="3.59494">
        <ele>510.2</ele>
      </trkpt>
      <trkpt lat="45.72346" lon="3.59506">
        <ele>511.2</ele>
      </trkpt>
      <trkpt lat="45.72349" lon="3.59513">
        <ele>511.8</ele>
      </trkpt>
      <trkpt lat="45.72354" lon="3.59525">
        <ele>512.7</ele>
      </trkpt>
      <trkpt lat="45.7236" lon="3.59542">
        <ele>513.9</ele>
      </trkpt>
      <trkpt lat="45.72363" lon="3.59551">
        <ele>514.5</ele>
      </trkpt>
      <trkpt lat="45.72366" lon="3.5956">
        <ele>515.1</ele>
      </trkpt>
      <trkpt lat="45.7237" lon="3.59574">
        <ele>516.1</ele>
      </trkpt>
      <trkpt lat="45.72372" lon="3.59584">
        <ele>516.7</ele>
      </trkpt>
      <trkpt lat="45.72376" lon="3.59606">
        <ele>518.4</ele>
      </trkpt>
      <trkpt lat="45.72378" lon="3.59625">
        <ele>519.7</ele>
      </trkpt>
      <trkpt lat="45.72379" lon="3.59633">
        <ele>520.4</ele>
      </trkpt>
      <trkpt lat="45.7238" lon="3.59644">
        <ele>521.2</ele>
      </trkpt>
      <trkpt lat="45.72379" lon="3.59662">
        <ele>522.8</ele>
      </trkpt>
      <trkpt lat="45.72378" lon="3.5967">
        <ele>523.4</ele>
      </trkpt>
      <trkpt lat="45.72376" lon="3.5968">
        <ele>524</ele>
      </trkpt>
      <trkpt lat="45.72372" lon="3.59694">
        <ele>524.9</ele>
      </trkpt>
      <trkpt lat="45.72365" lon="3.59717">
        <ele>526.6</ele>
      </trkpt>
      <trkpt lat="45.72357" lon="3.59742">
        <ele>528.7</ele>
      </trkpt>
      <trkpt lat="45.72351" lon="3.59759">
        <ele>530</ele>
      </trkpt>
      <trkpt lat="45.72345" lon="3.59777">
        <ele>531.1</ele>
      </trkpt>
      <trkpt lat="45.72337" lon="3.59802">
        <ele>532.7</ele>
      </trkpt>
      <trkpt lat="45.72331" lon="3.59821">
        <ele>533.8</ele>
      </trkpt>
      <trkpt lat="45.72324" lon="3.59848">
        <ele>534.4</ele>
      </trkpt>
      <trkpt lat="45.72316" lon="3.59875">
        <ele>534.7</ele>
      </trkpt>
      <trkpt lat="45.72309" lon="3.59905">
        <ele>535.1</ele>
      </trkpt>
      <trkpt lat="45.72305" lon="3.59922">
        <ele>535.6</ele>
      </trkpt>
      <trkpt lat="45.72302" lon="3.5994">
        <ele>536.9</ele>
      </trkpt>
      <trkpt lat="45.72301" lon="3.59953">
        <ele>537.6</ele>
      </trkpt>
      <trkpt lat="45.72301" lon="3.59953">
        <ele>537.6</ele>
      </trkpt>
      <trkpt lat="45.723" lon="3.59965">
        <ele>538.2</ele>
      </trkpt>
      <trkpt lat="45.72301" lon="3.59975">
        <ele>538.5</ele>
      </trkpt>
      <trkpt lat="45.72302" lon="3.59984">
        <ele>538.8</ele>
      </trkpt>
      <trkpt lat="45.72304" lon="3.59992">
        <ele>539.1</ele>
      </trkpt>
      <trkpt lat="45.72305" lon="3.6">
        <ele>539.3</ele>
      </trkpt>
      <trkpt lat="45.72308" lon="3.60011">
        <ele>539.3</ele>
      </trkpt>
      <trkpt lat="45.72314" lon="3.60031">
        <ele>539.3</ele>
      </trkpt>
      <trkpt lat="45.72319" lon="3.60048">
        <ele>539.2</ele>
      </trkpt>
      <trkpt lat="45.72322" lon="3.60059">
        <ele>539.3</ele>
      </trkpt>
      <trkpt lat="45.72324" lon="3.60073">
        <ele>539.4</ele>
      </trkpt>
      <trkpt lat="45.72324" lon="3.60084">
        <ele>539.7</ele>
      </trkpt>
      <trkpt lat="45.72323" lon="3.60112">
        <ele>539.8</ele>
      </trkpt>
      <trkpt lat="45.72315" lon="3.6013">
        <ele>540.5</ele>
      </trkpt>
      <trkpt lat="45.72312" lon="3.60137">
        <ele>540.7</ele>
      </trkpt>
      <trkpt lat="45.72304" lon="3.60158">
        <ele>541.5</ele>
      </trkpt>
      <trkpt lat="45.72299" lon="3.60171">
        <ele>541.8</ele>
      </trkpt>
      <trkpt lat="45.72296" lon="3.60183">
        <ele>542</ele>
      </trkpt>
      <trkpt lat="45.72288" lon="3.60209">
        <ele>542.6</ele>
      </trkpt>
      <trkpt lat="45.72282" lon="3.60234">
        <ele>543.2</ele>
      </trkpt>
      <trkpt lat="45.72277" lon="3.60249">
        <ele>543.7</ele>
      </trkpt>
      <trkpt lat="45.72272" lon="3.60263">
        <ele>544.4</ele>
      </trkpt>
      <trkpt lat="45.72267" lon="3.60278">
        <ele>545.1</ele>
      </trkpt>
      <trkpt lat="45.72258" lon="3.60298">
        <ele>546.3</ele>
      </trkpt>
      <trkpt lat="45.72256" lon="3.60304">
        <ele>546.7</ele>
      </trkpt>
      <trkpt lat="45.72254" lon="3.60313">
        <ele>547.1</ele>
      </trkpt>
      <trkpt lat="45.72249" lon="3.60333">
        <ele>548.1</ele>
      </trkpt>
      <trkpt lat="45.72243" lon="3.60354">
        <ele>548.4</ele>
      </trkpt>
      <trkpt lat="45.72239" lon="3.60369">
        <ele>548.7</ele>
      </trkpt>
      <trkpt lat="45.72235" lon="3.60385">
        <ele>549</ele>
      </trkpt>
      <trkpt lat="45.72231" lon="3.60402">
        <ele>549.3</ele>
      </trkpt>
      <trkpt lat="45.72227" lon="3.6042">
        <ele>549.7</ele>
      </trkpt>
      <trkpt lat="45.72225" lon="3.60427">
        <ele>549.9</ele>
      </trkpt>
      <trkpt lat="45.72223" lon="3.60434">
        <ele>550.1</ele>
      </trkpt>
      <trkpt lat="45.72218" lon="3.60449">
        <ele>550.5</ele>
      </trkpt>
      <trkpt lat="45.72213" lon="3.60464">
        <ele>551</ele>
      </trkpt>
      <trkpt lat="45.72205" lon="3.60487">
        <ele>551.6</ele>
      </trkpt>
      <trkpt lat="45.72197" lon="3.6051">
        <ele>552.5</ele>
      </trkpt>
      <trkpt lat="45.72193" lon="3.60522">
        <ele>553.1</ele>
      </trkpt>
      <trkpt lat="45.7219" lon="3.60532">
        <ele>553.6</ele>
      </trkpt>
      <trkpt lat="45.72189" lon="3.60539">
        <ele>553.9</ele>
      </trkpt>
      <trkpt lat="45.72187" lon="3.60551">
        <ele>554.3</ele>
      </trkpt>
      <trkpt lat="45.72186" lon="3.60561">
        <ele>554.7</ele>
      </trkpt>
      <trkpt lat="45.72186" lon="3.60561">
        <ele>554.7</ele>
      </trkpt>
      <trkpt lat="45.72184" lon="3.60579">
        <ele>555.3</ele>
      </trkpt>
      <trkpt lat="45.72182" lon="3.60598">
        <ele>556.1</ele>
      </trkpt>
      <trkpt lat="45.7218" lon="3.6062">
        <ele>557.1</ele>
      </trkpt>
      <trkpt lat="45.72177" lon="3.60642">
        <ele>558</ele>
      </trkpt>
      <trkpt lat="45.72175" lon="3.60665">
        <ele>558.9</ele>
      </trkpt>
      <trkpt lat="45.72173" lon="3.60686">
        <ele>559.5</ele>
      </trkpt>
      <trkpt lat="45.72171" lon="3.60708">
        <ele>560.1</ele>
      </trkpt>
      <trkpt lat="45.72169" lon="3.60736">
        <ele>560.8</ele>
      </trkpt>
      <trkpt lat="45.72169" lon="3.60742">
        <ele>560.9</ele>
      </trkpt>
      <trkpt lat="45.72168" lon="3.60766">
        <ele>561</ele>
      </trkpt>
      <trkpt lat="45.72167" lon="3.6079">
        <ele>561</ele>
      </trkpt>
      <trkpt lat="45.72165" lon="3.60815">
        <ele>561</ele>
      </trkpt>
      <trkpt lat="45.72164" lon="3.60841">
        <ele>560.6</ele>
      </trkpt>
      <trkpt lat="45.72162" lon="3.60859">
        <ele>559.6</ele>
      </trkpt>
      <trkpt lat="45.72161" lon="3.60877">
        <ele>558.6</ele>
      </trkpt>
      <trkpt lat="45.72158" lon="3.60899">
        <ele>557.4</ele>
      </trkpt>
      <trkpt lat="45.72157" lon="3.60906">
        <ele>557</ele>
      </trkpt>
      <trkpt lat="45.72154" lon="3.60919">
        <ele>556.5</ele>
      </trkpt>
      <trkpt lat="45.72145" lon="3.60942">
        <ele>556.1</ele>
      </trkpt>
      <trkpt lat="45.72138" lon="3.6096">
        <ele>556</ele>
      </trkpt>
      <trkpt lat="45.72134" lon="3.60975">
        <ele>555.9</ele>
      </trkpt>
      <trkpt lat="45.72133" lon="3.60981">
        <ele>555.8</ele>
      </trkpt>
      <trkpt lat="45.72132" lon="3.60988">
        <ele>555.7</ele>
      </trkpt>
      <trkpt lat="45.72132" lon="3.61002">
        <ele>555.4</ele>
      </trkpt>
      <trkpt lat="45.72134" lon="3.61017">
        <ele>556.1</ele>
      </trkpt>
      <trkpt lat="45.72135" lon="3.61026">
        <ele>556.5</ele>
      </trkpt>
      <trkpt lat="45.72137" lon="3.61033">
        <ele>556.9</ele>
      </trkpt>
      <trkpt lat="45.72138" lon="3.61043">
        <ele>557.3</ele>
      </trkpt>
      <trkpt lat="45.72145" lon="3.61051">
        <ele>557.3</ele>
      </trkpt>
      <trkpt lat="45.72139" lon="3.61054">
        <ele>557.9</ele>
      </trkpt>
      <trkpt lat="45.72134" lon="3.61054">
        <ele>558.3</ele>
      </trkpt>
      <trkpt lat="45.72127" lon="3.61054">
        <ele>558.8</ele>
      </trkpt>
      <trkpt lat="45.72116" lon="3.61054">
        <ele>559.5</ele>
      </trkpt>
      <trkpt lat="45.72094" lon="3.61049">
        <ele>561</ele>
      </trkpt>
      <trkpt lat="45.72088" lon="3.61053">
        <ele>561.6</ele>
      </trkpt>
      <trkpt lat="45.72091" lon="3.61059">
        <ele>561.6</ele>
      </trkpt>
      <trkpt lat="45.72097" lon="3.61069">
        <ele>561.6</ele>
      </trkpt>
      <trkpt lat="45.7211" lon="3.61089">
        <ele>561.7</ele>
      </trkpt>
      <trkpt lat="45.72123" lon="3.61107">
        <ele>561.8</ele>
      </trkpt>
      <trkpt lat="45.72136" lon="3.61126">
        <ele>561.9</ele>
      </trkpt>
      <trkpt lat="45.72136" lon="3.61126">
        <ele>561.9</ele>
      </trkpt>
      <trkpt lat="45.72148" lon="3.61145">
        <ele>562.1</ele>
      </trkpt>
      <trkpt lat="45.72158" lon="3.61158">
        <ele>562.1</ele>
      </trkpt>
      <trkpt lat="45.72162" lon="3.61166">
        <ele>562.3</ele>
      </trkpt>
      <trkpt lat="45.72165" lon="3.61174">
        <ele>562.3</ele>
      </trkpt>
      <trkpt lat="45.72169" lon="3.6119">
        <ele>562.3</ele>
      </trkpt>
      <trkpt lat="45.72177" lon="3.61202">
        <ele>562</ele>
      </trkpt>
      <trkpt lat="45.72184" lon="3.61215">
        <ele>561.7</ele>
      </trkpt>
      <trkpt lat="45.72189" lon="3.61226">
        <ele>561.5</ele>
      </trkpt>
      <trkpt lat="45.72194" lon="3.61238">
        <ele>561.4</ele>
      </trkpt>
      <trkpt lat="45.72197" lon="3.6125">
        <ele>561.5</ele>
      </trkpt>
      <trkpt lat="45.722" lon="3.61266">
        <ele>559.9</ele>
      </trkpt>
      <trkpt lat="45.72203" lon="3.61283">
        <ele>558.3</ele>
      </trkpt>
      <trkpt lat="45.72205" lon="3.61301">
        <ele>556.5</ele>
      </trkpt>
      <trkpt lat="45.72205" lon="3.6131">
        <ele>555.8</ele>
      </trkpt>
      <trkpt lat="45.72203" lon="3.61318">
        <ele>555.4</ele>
      </trkpt>
      <trkpt lat="45.72197" lon="3.61334">
        <ele>554.7</ele>
      </trkpt>
      <trkpt lat="45.72192" lon="3.61348">
        <ele>553.6</ele>
      </trkpt>
      <trkpt lat="45.72189" lon="3.61357">
        <ele>552.9</ele>
      </trkpt>
      <trkpt lat="45.72185" lon="3.61365">
        <ele>552.4</ele>
      </trkpt>
      <trkpt lat="45.72182" lon="3.61371">
        <ele>551.9</ele>
      </trkpt>
      <trkpt lat="45.7218" lon="3.61383">
        <ele>550.9</ele>
      </trkpt>
      <trkpt lat="45.72179" lon="3.61393">
        <ele>549.7</ele>
      </trkpt>
      <trkpt lat="45.72181" lon="3.61405">
        <ele>548.1</ele>
      </trkpt>
      <trkpt lat="45.72176" lon="3.61417">
        <ele>547.2</ele>
      </trkpt>
      <trkpt lat="45.72173" lon="3.61427">
        <ele>546.9</ele>
      </trkpt>
      <trkpt lat="45.72172" lon="3.61438">
        <ele>546.4</ele>
      </trkpt>
      <trkpt lat="45.72173" lon="3.6145">
        <ele>545.7</ele>
      </trkpt>
      <trkpt lat="45.72174" lon="3.61459">
        <ele>545.1</ele>
      </trkpt>
      <trkpt lat="45.72176" lon="3.61466">
        <ele>544.7</ele>
      </trkpt>
      <trkpt lat="45.72185" lon="3.6149">
        <ele>543.2</ele>
      </trkpt>
      <trkpt lat="45.72195" lon="3.61506">
        <ele>542.7</ele>
      </trkpt>
      <trkpt lat="45.72203" lon="3.61518">
        <ele>542.7</ele>
      </trkpt>
      <trkpt lat="45.72212" lon="3.61529">
        <ele>542.9</ele>
      </trkpt>
      <trkpt lat="45.72221" lon="3.61539">
        <ele>543.1</ele>
      </trkpt>
      <trkpt lat="45.7223" lon="3.6155">
        <ele>543.5</ele>
      </trkpt>
      <trkpt lat="45.72241" lon="3.61564">
        <ele>544.1</ele>
      </trkpt>
      <trkpt lat="45.72242" lon="3.61596">
        <ele>545.3</ele>
      </trkpt>
      <trkpt lat="45.72243" lon="3.61627">
        <ele>546.8</ele>
      </trkpt>
      <trkpt lat="45.72244" lon="3.6165">
        <ele>547.9</ele>
      </trkpt>
      <trkpt lat="45.72224" lon="3.61657">
        <ele>547.1</ele>
      </trkpt>
      <trkpt lat="45.72204" lon="3.61665">
        <ele>546.2</ele>
      </trkpt>
      <trkpt lat="45.7219" lon="3.6167">
        <ele>545.4</ele>
      </trkpt>
      <trkpt lat="45.7219" lon="3.6167">
        <ele>545.4</ele>
      </trkpt>
      <trkpt lat="45.72177" lon="3.61675">
        <ele>544.7</ele>
      </trkpt>
      <trkpt lat="45.72167" lon="3.61678">
        <ele>544.2</ele>
      </trkpt>
      <trkpt lat="45.72152" lon="3.61684">
        <ele>543.4</ele>
      </trkpt>
      <trkpt lat="45.72141" lon="3.61688">
        <ele>542.8</ele>
      </trkpt>
      <trkpt lat="45.72123" lon="3.61695">
        <ele>541.7</ele>
      </trkpt>
      <trkpt lat="45.72104" lon="3.61702">
        <ele>540.5</ele>
      </trkpt>
      <trkpt lat="45.72087" lon="3.61708">
        <ele>539.3</ele>
      </trkpt>
      <trkpt lat="45.7207" lon="3.61713">
        <ele>538.1</ele>
      </trkpt>
      <trkpt lat="45.72056" lon="3.61719">
        <ele>537.1</ele>
      </trkpt>
      <trkpt lat="45.72044" lon="3.61724">
        <ele>536.3</ele>
      </trkpt>
      <trkpt lat="45.72032" lon="3.61728">
        <ele>535.5</ele>
      </trkpt>
      <trkpt lat="45.72017" lon="3.61734">
        <ele>534.4</ele>
      </trkpt>
      <trkpt lat="45.72002" lon="3.6174">
        <ele>533.3</ele>
      </trkpt>
      <trkpt lat="45.71986" lon="3.61745">
        <ele>532.5</ele>
      </trkpt>
      <trkpt lat="45.71971" lon="3.6175">
        <ele>531.6</ele>
      </trkpt>
      <trkpt lat="45.71956" lon="3.61756">
        <ele>530.8</ele>
      </trkpt>
      <trkpt lat="45.71951" lon="3.61758">
        <ele>530.5</ele>
      </trkpt>
      <trkpt lat="45.71946" lon="3.61759">
        <ele>530.2</ele>
      </trkpt>
      <trkpt lat="45.71933" lon="3.61759">
        <ele>529.5</ele>
      </trkpt>
      <trkpt lat="45.71918" lon="3.61776">
        <ele>528.1</ele>
      </trkpt>
      <trkpt lat="45.71903" lon="3.61789">
        <ele>526.9</ele>
      </trkpt>
      <trkpt lat="45.71892" lon="3.61799">
        <ele>525.8</ele>
      </trkpt>
      <trkpt lat="45.71897" lon="3.61803">
        <ele>525.9</ele>
      </trkpt>
      <trkpt lat="45.71904" lon="3.6181">
        <ele>526.1</ele>
      </trkpt>
      <trkpt lat="45.71912" lon="3.61816">
        <ele>526.3</ele>
      </trkpt>
      <trkpt lat="45.71923" lon="3.61828">
        <ele>526.6</ele>
      </trkpt>
      <trkpt lat="45.71934" lon="3.61839">
        <ele>527.1</ele>
      </trkpt>
      <trkpt lat="45.71952" lon="3.61857">
        <ele>528</ele>
      </trkpt>
      <trkpt lat="45.7197" lon="3.61874">
        <ele>528.8</ele>
      </trkpt>
      <trkpt lat="45.71984" lon="3.61889">
        <ele>529.5</ele>
      </trkpt>
      <trkpt lat="45.71999" lon="3.61903">
        <ele>530.2</ele>
      </trkpt>
      <trkpt lat="45.72013" lon="3.61917">
        <ele>530.8</ele>
      </trkpt>
      <trkpt lat="45.72002" lon="3.61923">
        <ele>529.9</ele>
      </trkpt>
      <trkpt lat="45.72002" lon="3.61923">
        <ele>529.9</ele>
      </trkpt>
      <trkpt lat="45.7199" lon="3.6193">
        <ele>529</ele>
      </trkpt>
      <trkpt lat="45.71971" lon="3.61942">
        <ele>527.5</ele>
      </trkpt>
      <trkpt lat="45.71957" lon="3.61953">
        <ele>526.5</ele>
      </trkpt>
      <trkpt lat="45.71945" lon="3.61962">
        <ele>525.7</ele>
      </trkpt>
      <trkpt lat="45.71934" lon="3.6197">
        <ele>525</ele>
      </trkpt>
      <trkpt lat="45.71924" lon="3.61977">
        <ele>524.4</ele>
      </trkpt>
      <trkpt lat="45.71919" lon="3.6198">
        <ele>524.1</ele>
      </trkpt>
      <trkpt lat="45.7191" lon="3.61982">
        <ele>523.8</ele>
      </trkpt>
      <trkpt lat="45.71902" lon="3.61983">
        <ele>523.5</ele>
      </trkpt>
      <trkpt lat="45.71897" lon="3.61986">
        <ele>523.4</ele>
      </trkpt>
      <trkpt lat="45.71886" lon="3.61991">
        <ele>523.1</ele>
      </trkpt>
      <trkpt lat="45.71875" lon="3.61996">
        <ele>522.9</ele>
      </trkpt>
      <trkpt lat="45.71858" lon="3.62003">
        <ele>522.6</ele>
      </trkpt>
      <trkpt lat="45.7184" lon="3.62009">
        <ele>522.1</ele>
      </trkpt>
      <trkpt lat="45.71827" lon="3.62014">
        <ele>521.6</ele>
      </trkpt>
      <trkpt lat="45.71813" lon="3.62019">
        <ele>521.1</ele>
      </trkpt>
      <trkpt lat="45.71798" lon="3.62026">
        <ele>520.6</ele>
      </trkpt>
      <trkpt lat="45.71787" lon="3.62032">
        <ele>520.2</ele>
      </trkpt>
      <trkpt lat="45.71777" lon="3.62039">
        <ele>519.8</ele>
      </trkpt>
      <trkpt lat="45.71759" lon="3.6205">
        <ele>519.3</ele>
      </trkpt>
      <trkpt lat="45.71742" lon="3.62061">
        <ele>518.1</ele>
      </trkpt>
      <trkpt lat="45.71725" lon="3.62075">
        <ele>516.1</ele>
      </trkpt>
      <trkpt lat="45.71708" lon="3.62088">
        <ele>513.8</ele>
      </trkpt>
      <trkpt lat="45.71691" lon="3.62103">
        <ele>511.2</ele>
      </trkpt>
      <trkpt lat="45.71686" lon="3.62106">
        <ele>510.5</ele>
      </trkpt>
      <trkpt lat="45.7168" lon="3.62114">
        <ele>509.5</ele>
      </trkpt>
      <trkpt lat="45.71676" lon="3.62117">
        <ele>508.9</ele>
      </trkpt>
      <trkpt lat="45.71669" lon="3.62124">
        <ele>507.8</ele>
      </trkpt>
      <trkpt lat="45.71662" lon="3.62128">
        <ele>507.6</ele>
      </trkpt>
      <trkpt lat="45.71655" lon="3.62133">
        <ele>507.9</ele>
      </trkpt>
      <trkpt lat="45.71649" lon="3.62137">
        <ele>508.3</ele>
      </trkpt>
      <trkpt lat="45.71646" lon="3.62144">
        <ele>508.5</ele>
      </trkpt>
      <trkpt lat="45.7164" lon="3.62142">
        <ele>509</ele>
      </trkpt>
      <trkpt lat="45.71633" lon="3.62144">
        <ele>509.6</ele>
      </trkpt>
      <trkpt lat="45.71625" lon="3.62145">
        <ele>510.3</ele>
      </trkpt>
      <trkpt lat="45.71615" lon="3.62148">
        <ele>511.4</ele>
      </trkpt>
      <trkpt lat="45.71597" lon="3.62152">
        <ele>513.5</ele>
      </trkpt>
      <trkpt lat="45.71579" lon="3.62156">
        <ele>515.7</ele>
      </trkpt>
      <trkpt lat="45.71561" lon="3.62138">
        <ele>514</ele>
      </trkpt>
      <trkpt lat="45.71561" lon="3.62138">
        <ele>514</ele>
      </trkpt>
      <trkpt lat="45.71549" lon="3.62132">
        <ele>513.8</ele>
      </trkpt>
      <trkpt lat="45.71537" lon="3.62126">
        <ele>513.6</ele>
      </trkpt>
      <trkpt lat="45.71523" lon="3.62117">
        <ele>513.2</ele>
      </trkpt>
      <trkpt lat="45.71509" lon="3.62112">
        <ele>513.3</ele>
      </trkpt>
      <trkpt lat="45.71503" lon="3.6211">
        <ele>513.4</ele>
      </trkpt>
      <trkpt lat="45.71493" lon="3.62108">
        <ele>513.4</ele>
      </trkpt>
      <trkpt lat="45.71481" lon="3.62107">
        <ele>513.4</ele>
      </trkpt>
      <trkpt lat="45.71473" lon="3.62107">
        <ele>513.5</ele>
      </trkpt>
      <trkpt lat="45.71464" lon="3.62107">
        <ele>513.6</ele>
      </trkpt>
      <trkpt lat="45.71457" lon="3.62108">
        <ele>513.8</ele>
      </trkpt>
      <trkpt lat="45.71452" lon="3.6211">
        <ele>514.1</ele>
      </trkpt>
      <trkpt lat="45.71443" lon="3.62112">
        <ele>514.5</ele>
      </trkpt>
      <trkpt lat="45.71433" lon="3.62116">
        <ele>514.9</ele>
      </trkpt>
      <trkpt lat="45.71423" lon="3.6212">
        <ele>515.4</ele>
      </trkpt>
      <trkpt lat="45.71409" lon="3.62125">
        <ele>515.9</ele>
      </trkpt>
      <trkpt lat="45.714" lon="3.6213">
        <ele>516.2</ele>
      </trkpt>
      <trkpt lat="45.71388" lon="3.62137">
        <ele>516.5</ele>
      </trkpt>
      <trkpt lat="45.71375" lon="3.62146">
        <ele>516.9</ele>
      </trkpt>
      <trkpt lat="45.71362" lon="3.62156">
        <ele>517.2</ele>
      </trkpt>
      <trkpt lat="45.71352" lon="3.62162">
        <ele>517.4</ele>
      </trkpt>
      <trkpt lat="45.71348" lon="3.62166">
        <ele>517.5</ele>
      </trkpt>
      <trkpt lat="45.71341" lon="3.62173">
        <ele>517.7</ele>
      </trkpt>
      <trkpt lat="45.71336" lon="3.62177">
        <ele>517.8</ele>
      </trkpt>
      <trkpt lat="45.7133" lon="3.62182">
        <ele>518</ele>
      </trkpt>
      <trkpt lat="45.7132" lon="3.6219">
        <ele>518.1</ele>
      </trkpt>
      <trkpt lat="45.71309" lon="3.62197">
        <ele>518.2</ele>
      </trkpt>
      <trkpt lat="45.71297" lon="3.62205">
        <ele>518.3</ele>
      </trkpt>
      <trkpt lat="45.71287" lon="3.62212">
        <ele>518.3</ele>
      </trkpt>
      <trkpt lat="45.71276" lon="3.6222">
        <ele>518.3</ele>
      </trkpt>
      <trkpt lat="45.71269" lon="3.62225">
        <ele>518.3</ele>
      </trkpt>
      <trkpt lat="45.7126" lon="3.62233">
        <ele>518.4</ele>
      </trkpt>
      <trkpt lat="45.71253" lon="3.6224">
        <ele>518.5</ele>
      </trkpt>
      <trkpt lat="45.71244" lon="3.6225">
        <ele>519.1</ele>
      </trkpt>
      <trkpt lat="45.71236" lon="3.62263">
        <ele>519.7</ele>
      </trkpt>
      <trkpt lat="45.71228" lon="3.62272">
        <ele>520.1</ele>
      </trkpt>
      <trkpt lat="45.71222" lon="3.62279">
        <ele>520.4</ele>
      </trkpt>
      <trkpt lat="45.71216" lon="3.62284">
        <ele>520.5</ele>
      </trkpt>
      <trkpt lat="45.71212" lon="3.62288">
        <ele>520.7</ele>
      </trkpt>
      <trkpt lat="45.71207" lon="3.62297">
        <ele>520.9</ele>
      </trkpt>
      <trkpt lat="45.71193" lon="3.62303">
        <ele>520.9</ele>
      </trkpt>
      <trkpt lat="45.71176" lon="3.62314">
        <ele>520.9</ele>
      </trkpt>
      <trkpt lat="45.7116" lon="3.62326">
        <ele>521.8</ele>
      </trkpt>
      <trkpt lat="45.71144" lon="3.62335">
        <ele>524</ele>
      </trkpt>
      <trkpt lat="45.71128" lon="3.62344">
        <ele>525.5</ele>
      </trkpt>
      <trkpt lat="45.71128" lon="3.62344">
        <ele>525.5</ele>
      </trkpt>
      <trkpt lat="45.71125" lon="3.62354">
        <ele>525.2</ele>
      </trkpt>
      <trkpt lat="45.71119" lon="3.62353">
        <ele>525.7</ele>
      </trkpt>
      <trkpt lat="45.71104" lon="3.62358">
        <ele>526.6</ele>
      </trkpt>
      <trkpt lat="45.71088" lon="3.62364">
        <ele>527</ele>
      </trkpt>
      <trkpt lat="45.71073" lon="3.62369">
        <ele>525.3</ele>
      </trkpt>
      <trkpt lat="45.71055" lon="3.6238">
        <ele>522</ele>
      </trkpt>
      <trkpt lat="45.71041" lon="3.62387">
        <ele>519.7</ele>
      </trkpt>
      <trkpt lat="45.71028" lon="3.62395">
        <ele>517.4</ele>
      </trkpt>
      <trkpt lat="45.71014" lon="3.62402">
        <ele>515.2</ele>
      </trkpt>
      <trkpt lat="45.71003" lon="3.62407">
        <ele>513.5</ele>
      </trkpt>
      <trkpt lat="45.70987" lon="3.6241">
        <ele>512.1</ele>
      </trkpt>
      <trkpt lat="45.70972" lon="3.62414">
        <ele>510.7</ele>
      </trkpt>
      <trkpt lat="45.70957" lon="3.62417">
        <ele>509.4</ele>
      </trkpt>
      <trkpt lat="45.70936" lon="3.62423">
        <ele>508.1</ele>
      </trkpt>
      <trkpt lat="45.70921" lon="3.62435">
        <ele>506.9</ele>
      </trkpt>
      <trkpt lat="45.70907" lon="3.62447">
        <ele>505.1</ele>
      </trkpt>
      <trkpt lat="45.70892" lon="3.62458">
        <ele>502.9</ele>
      </trkpt>
      <trkpt lat="45.70877" lon="3.6247">
        <ele>500.5</ele>
      </trkpt>
      <trkpt lat="45.70861" lon="3.62482">
        <ele>497.9</ele>
      </trkpt>
      <trkpt lat="45.70842" lon="3.62479">
        <ele>495.5</ele>
      </trkpt>
      <trkpt lat="45.70823" lon="3.62476">
        <ele>492.4</ele>
      </trkpt>
      <trkpt lat="45.70803" lon="3.62472">
        <ele>488.4</ele>
      </trkpt>
      <trkpt lat="45.70782" lon="3.62468">
        <ele>484.4</ele>
      </trkpt>
      <trkpt lat="45.70761" lon="3.62465">
        <ele>480.4</ele>
      </trkpt>
      <trkpt lat="45.70742" lon="3.62455">
        <ele>477.2</ele>
      </trkpt>
      <trkpt lat="45.70722" lon="3.62445">
        <ele>474.3</ele>
      </trkpt>
      <trkpt lat="45.70703" lon="3.62434">
        <ele>471.5</ele>
      </trkpt>
      <trkpt lat="45.70684" lon="3.62428">
        <ele>468.4</ele>
      </trkpt>
      <trkpt lat="45.70684" lon="3.62428">
        <ele>468.4</ele>
      </trkpt>
      <trkpt lat="45.70664" lon="3.62421">
        <ele>465.1</ele>
      </trkpt>
      <trkpt lat="45.70644" lon="3.62414">
        <ele>460.6</ele>
      </trkpt>
      <trkpt lat="45.70622" lon="3.62408">
        <ele>455.6</ele>
      </trkpt>
      <trkpt lat="45.70623" lon="3.62419">
        <ele>455.4</ele>
      </trkpt>
      <trkpt lat="45.70623" lon="3.62426">
        <ele>454.9</ele>
      </trkpt>
      <trkpt lat="45.70623" lon="3.62442">
        <ele>453.9</ele>
      </trkpt>
      <trkpt lat="45.70622" lon="3.6246">
        <ele>452.7</ele>
      </trkpt>
      <trkpt lat="45.70615" lon="3.62476">
        <ele>450</ele>
      </trkpt>
      <trkpt lat="45.70616" lon="3.62502">
        <ele>448.8</ele>
      </trkpt>
      <trkpt lat="45.70616" lon="3.62526">
        <ele>448.2</ele>
      </trkpt>
      <trkpt lat="45.70611" lon="3.62543">
        <ele>446.7</ele>
      </trkpt>
      <trkpt lat="45.70608" lon="3.62558">
        <ele>445.4</ele>
      </trkpt>
      <trkpt lat="45.70604" lon="3.62565">
        <ele>444.1</ele>
      </trkpt>
      <trkpt lat="45.70594" lon="3.62567">
        <ele>441.4</ele>
      </trkpt>
      <trkpt lat="45.70584" lon="3.6255">
        <ele>439.4</ele>
      </trkpt>
      <trkpt lat="45.70579" lon="3.62544">
        <ele>439.2</ele>
      </trkpt>
      <trkpt lat="45.70566" lon="3.62539">
        <ele>438.8</ele>
      </trkpt>
      <trkpt lat="45.70553" lon="3.62533">
        <ele>438.2</ele>
      </trkpt>
      <trkpt lat="45.70548" lon="3.6253">
        <ele>438</ele>
      </trkpt>
      <trkpt lat="45.70542" lon="3.62524">
        <ele>437.7</ele>
      </trkpt>
      <trkpt lat="45.7053" lon="3.62509">
        <ele>437.1</ele>
      </trkpt>
      <trkpt lat="45.70518" lon="3.62494">
        <ele>436.5</ele>
      </trkpt>
      <trkpt lat="45.70512" lon="3.62485">
        <ele>436.4</ele>
      </trkpt>
      <trkpt lat="45.70509" lon="3.62479">
        <ele>436.5</ele>
      </trkpt>
      <trkpt lat="45.70504" lon="3.62462">
        <ele>436.7</ele>
      </trkpt>
      <trkpt lat="45.70499" lon="3.62445">
        <ele>437.2</ele>
      </trkpt>
      <trkpt lat="45.70492" lon="3.62427">
        <ele>438.9</ele>
      </trkpt>
      <trkpt lat="45.70486" lon="3.62409">
        <ele>440.1</ele>
      </trkpt>
      <trkpt lat="45.70475" lon="3.624">
        <ele>441.9</ele>
      </trkpt>
      <trkpt lat="45.70464" lon="3.6239">
        <ele>444</ele>
      </trkpt>
      <trkpt lat="45.70449" lon="3.62387">
        <ele>447.1</ele>
      </trkpt>
      <trkpt lat="45.70435" lon="3.62384">
        <ele>450.3</ele>
      </trkpt>
      <trkpt lat="45.7042" lon="3.62382">
        <ele>453.5</ele>
      </trkpt>
      <trkpt lat="45.70407" lon="3.62396">
        <ele>455.4</ele>
      </trkpt>
      <trkpt lat="45.70391" lon="3.62405">
        <ele>457.9</ele>
      </trkpt>
      <trkpt lat="45.70374" lon="3.62414">
        <ele>460.2</ele>
      </trkpt>
      <trkpt lat="45.70374" lon="3.62414">
        <ele>460.2</ele>
      </trkpt>
      <trkpt lat="45.70358" lon="3.62423">
        <ele>461.8</ele>
      </trkpt>
      <trkpt lat="45.70343" lon="3.62422">
        <ele>464.3</ele>
      </trkpt>
      <trkpt lat="45.70329" lon="3.6242">
        <ele>467.1</ele>
      </trkpt>
      <trkpt lat="45.70316" lon="3.62417">
        <ele>470.1</ele>
      </trkpt>
      <trkpt lat="45.70308" lon="3.62414">
        <ele>471.8</ele>
      </trkpt>
      <trkpt lat="45.70288" lon="3.62399">
        <ele>476.7</ele>
      </trkpt>
      <trkpt lat="45.70268" lon="3.62384">
        <ele>482.2</ele>
      </trkpt>
      <trkpt lat="45.70259" lon="3.62377">
        <ele>484.9</ele>
      </trkpt>
      <trkpt lat="45.70244" lon="3.62363">
        <ele>488.6</ele>
      </trkpt>
      <trkpt lat="45.70228" lon="3.62349">
        <ele>490.8</ele>
      </trkpt>
      <trkpt lat="45.70213" lon="3.62335">
        <ele>493.2</ele>
      </trkpt>
      <trkpt lat="45.70198" lon="3.62316">
        <ele>495.8</ele>
      </trkpt>
      <trkpt lat="45.70184" lon="3.62298">
        <ele>498.3</ele>
      </trkpt>
      <trkpt lat="45.70169" lon="3.6228">
        <ele>500.7</ele>
      </trkpt>
      <trkpt lat="45.70154" lon="3.62262">
        <ele>502.6</ele>
      </trkpt>
      <trkpt lat="45.7014" lon="3.62244">
        <ele>503.7</ele>
      </trkpt>
      <trkpt lat="45.70125" lon="3.62225">
        <ele>503.8</ele>
      </trkpt>
      <trkpt lat="45.70112" lon="3.6221">
        <ele>504.1</ele>
      </trkpt>
      <trkpt lat="45.70098" lon="3.62195">
        <ele>504.7</ele>
      </trkpt>
      <trkpt lat="45.70089" lon="3.62171">
        <ele>505.7</ele>
      </trkpt>
      <trkpt lat="45.70079" lon="3.62147">
        <ele>507.3</ele>
      </trkpt>
      <trkpt lat="45.70076" lon="3.62141">
        <ele>507.9</ele>
      </trkpt>
      <trkpt lat="45.7007" lon="3.62133">
        <ele>508.8</ele>
      </trkpt>
      <trkpt lat="45.70063" lon="3.62127">
        <ele>509.8</ele>
      </trkpt>
      <trkpt lat="45.70058" lon="3.62123">
        <ele>510.5</ele>
      </trkpt>
      <trkpt lat="45.70054" lon="3.62121">
        <ele>511.1</ele>
      </trkpt>
      <trkpt lat="45.70049" lon="3.62118">
        <ele>511.9</ele>
      </trkpt>
      <trkpt lat="45.70037" lon="3.62113">
        <ele>513.5</ele>
      </trkpt>
      <trkpt lat="45.70019" lon="3.62108">
        <ele>515.9</ele>
      </trkpt>
      <trkpt lat="45.70001" lon="3.62103">
        <ele>518.5</ele>
      </trkpt>
      <trkpt lat="45.69982" lon="3.62095">
        <ele>519.4</ele>
      </trkpt>
      <trkpt lat="45.69982" lon="3.62095">
        <ele>519.4</ele>
      </trkpt>
      <trkpt lat="45.69974" lon="3.62091">
        <ele>519.8</ele>
      </trkpt>
      <trkpt lat="45.6996" lon="3.62084">
        <ele>520.5</ele>
      </trkpt>
      <trkpt lat="45.69946" lon="3.62074">
        <ele>521.4</ele>
      </trkpt>
      <trkpt lat="45.69935" lon="3.62065">
        <ele>522.3</ele>
      </trkpt>
      <trkpt lat="45.69925" lon="3.62056">
        <ele>523.3</ele>
      </trkpt>
      <trkpt lat="45.69913" lon="3.62045">
        <ele>524.7</ele>
      </trkpt>
      <trkpt lat="45.69902" lon="3.62034">
        <ele>526.2</ele>
      </trkpt>
      <trkpt lat="45.69894" lon="3.62025">
        <ele>527.4</ele>
      </trkpt>
      <trkpt lat="45.6989" lon="3.62018">
        <ele>528.4</ele>
      </trkpt>
      <trkpt lat="45.69888" lon="3.62011">
        <ele>529.3</ele>
      </trkpt>
      <trkpt lat="45.69887" lon="3.62004">
        <ele>530.2</ele>
      </trkpt>
      <trkpt lat="45.69876" lon="3.62006">
        <ele>530.3</ele>
      </trkpt>
      <trkpt lat="45.69869" lon="3.62002">
        <ele>530.9</ele>
      </trkpt>
      <trkpt lat="45.69858" lon="3.61993">
        <ele>531.3</ele>
      </trkpt>
      <trkpt lat="45.69848" lon="3.61985">
        <ele>531.5</ele>
      </trkpt>
      <trkpt lat="45.69841" lon="3.61983">
        <ele>531.6</ele>
      </trkpt>
      <trkpt lat="45.69826" lon="3.61983">
        <ele>531.7</ele>
      </trkpt>
      <trkpt lat="45.69814" lon="3.61985">
        <ele>531.6</ele>
      </trkpt>
      <trkpt lat="45.69801" lon="3.61986">
        <ele>531.5</ele>
      </trkpt>
      <trkpt lat="45.69782" lon="3.61989">
        <ele>531.2</ele>
      </trkpt>
      <trkpt lat="45.69762" lon="3.61992">
        <ele>530.8</ele>
      </trkpt>
      <trkpt lat="45.69742" lon="3.61995">
        <ele>531.3</ele>
      </trkpt>
      <trkpt lat="45.69724" lon="3.61997">
        <ele>533</ele>
      </trkpt>
      <trkpt lat="45.69708" lon="3.61998">
        <ele>534.7</ele>
      </trkpt>
      <trkpt lat="45.69701" lon="3.61997">
        <ele>535.4</ele>
      </trkpt>
      <trkpt lat="45.69697" lon="3.61997">
        <ele>535.9</ele>
      </trkpt>
      <trkpt lat="45.69692" lon="3.61996">
        <ele>536.5</ele>
      </trkpt>
      <trkpt lat="45.69687" lon="3.61994">
        <ele>537.1</ele>
      </trkpt>
      <trkpt lat="45.69682" lon="3.61992">
        <ele>537.8</ele>
      </trkpt>
      <trkpt lat="45.69674" lon="3.61987">
        <ele>538.9</ele>
      </trkpt>
      <trkpt lat="45.69662" lon="3.6198">
        <ele>540.5</ele>
      </trkpt>
      <trkpt lat="45.69662" lon="3.61969">
        <ele>541</ele>
      </trkpt>
      <trkpt lat="45.69657" lon="3.61975">
        <ele>541.4</ele>
      </trkpt>
      <trkpt lat="45.69653" lon="3.61979">
        <ele>541.8</ele>
      </trkpt>
      <trkpt lat="45.69636" lon="3.6199">
        <ele>543.8</ele>
      </trkpt>
      <trkpt lat="45.69629" lon="3.61994">
        <ele>544.8</ele>
      </trkpt>
      <trkpt lat="45.69623" lon="3.61997">
        <ele>545.8</ele>
      </trkpt>
      <trkpt lat="45.69615" lon="3.61998">
        <ele>547</ele>
      </trkpt>
      <trkpt lat="45.69609" lon="3.62">
        <ele>547.9</ele>
      </trkpt>
      <trkpt lat="45.69604" lon="3.62">
        <ele>548.8</ele>
      </trkpt>
      <trkpt lat="45.6959" lon="3.62">
        <ele>551</ele>
      </trkpt>
      <trkpt lat="45.69588" lon="3.61993">
        <ele>550.9</ele>
      </trkpt>
      <trkpt lat="45.69585" lon="3.61986">
        <ele>550.9</ele>
      </trkpt>
      <trkpt lat="45.69578" lon="3.61988">
        <ele>551.8</ele>
      </trkpt>
      <trkpt lat="45.69573" lon="3.61993">
        <ele>552.5</ele>
      </trkpt>
      <trkpt lat="45.69573" lon="3.61993">
        <ele>552.5</ele>
      </trkpt>
      <trkpt lat="45.69569" lon="3.62008">
        <ele>554</ele>
      </trkpt>
      <trkpt lat="45.69565" lon="3.62025">
        <ele>555.6</ele>
      </trkpt>
      <trkpt lat="45.69559" lon="3.6204">
        <ele>557.2</ele>
      </trkpt>
      <trkpt lat="45.69554" lon="3.62055">
        <ele>559</ele>
      </trkpt>
      <trkpt lat="45.69549" lon="3.62069">
        <ele>560.6</ele>
      </trkpt>
      <trkpt lat="45.69546" lon="3.62073">
        <ele>561.5</ele>
      </trkpt>
      <trkpt lat="45.6954" lon="3.62079">
        <ele>562.9</ele>
      </trkpt>
      <trkpt lat="45.69526" lon="3.62091">
        <ele>566.1</ele>
      </trkpt>
      <trkpt lat="45.69512" lon="3.62102">
        <ele>569</ele>
      </trkpt>
      <trkpt lat="45.695" lon="3.62112">
        <ele>571.4</ele>
      </trkpt>
      <trkpt lat="45.69489" lon="3.62122">
        <ele>572.6</ele>
      </trkpt>
      <trkpt lat="45.69471" lon="3.62136">
        <ele>574.5</ele>
      </trkpt>
      <trkpt lat="45.69462" lon="3.62143">
        <ele>575.5</ele>
      </trkpt>
      <trkpt lat="45.69442" lon="3.62156">
        <ele>577.6</ele>
      </trkpt>
      <trkpt lat="45.69422" lon="3.62169">
        <ele>579.5</ele>
      </trkpt>
      <trkpt lat="45.69402" lon="3.62182">
        <ele>579.7</ele>
      </trkpt>
      <trkpt lat="45.69382" lon="3.62195">
        <ele>580</ele>
      </trkpt>
      <trkpt lat="45.69363" lon="3.62209">
        <ele>580.6</ele>
      </trkpt>
      <trkpt lat="45.69343" lon="3.62222">
        <ele>581.3</ele>
      </trkpt>
      <trkpt lat="45.69329" lon="3.62232">
        <ele>582.4</ele>
      </trkpt>
      <trkpt lat="45.69315" lon="3.62243">
        <ele>584.5</ele>
      </trkpt>
      <trkpt lat="45.693" lon="3.62253">
        <ele>587.1</ele>
      </trkpt>
      <trkpt lat="45.69281" lon="3.62268">
        <ele>591.3</ele>
      </trkpt>
      <trkpt lat="45.69261" lon="3.62282">
        <ele>595.8</ele>
      </trkpt>
      <trkpt lat="45.69253" lon="3.62291">
        <ele>597.8</ele>
      </trkpt>
      <trkpt lat="45.69246" lon="3.62302">
        <ele>599.7</ele>
      </trkpt>
      <trkpt lat="45.69242" lon="3.62309">
        <ele>600.7</ele>
      </trkpt>
      <trkpt lat="45.69236" lon="3.62322">
        <ele>602.3</ele>
      </trkpt>
      <trkpt lat="45.69229" lon="3.62335">
        <ele>604</ele>
      </trkpt>
      <trkpt lat="45.6922" lon="3.62348">
        <ele>605</ele>
      </trkpt>
      <trkpt lat="45.69211" lon="3.62362">
        <ele>606</ele>
      </trkpt>
      <trkpt lat="45.69196" lon="3.62384">
        <ele>607.4</ele>
      </trkpt>
      <trkpt lat="45.69196" lon="3.62384">
        <ele>607.4</ele>
      </trkpt>
      <trkpt lat="45.69181" lon="3.62405">
        <ele>608.7</ele>
      </trkpt>
      <trkpt lat="45.69173" lon="3.62417">
        <ele>609.3</ele>
      </trkpt>
      <trkpt lat="45.69165" lon="3.62429">
        <ele>609.9</ele>
      </trkpt>
      <trkpt lat="45.69156" lon="3.62442">
        <ele>610</ele>
      </trkpt>
      <trkpt lat="45.69148" lon="3.62454">
        <ele>610.2</ele>
      </trkpt>
      <trkpt lat="45.6914" lon="3.62464">
        <ele>610.4</ele>
      </trkpt>
      <trkpt lat="45.69132" lon="3.62473">
        <ele>610.7</ele>
      </trkpt>
      <trkpt lat="45.69119" lon="3.62485">
        <ele>611.3</ele>
      </trkpt>
      <trkpt lat="45.69106" lon="3.62497">
        <ele>611.9</ele>
      </trkpt>
      <trkpt lat="45.69089" lon="3.62513">
        <ele>612.3</ele>
      </trkpt>
      <trkpt lat="45.69072" lon="3.62529">
        <ele>612.1</ele>
      </trkpt>
      <trkpt lat="45.69058" lon="3.62543">
        <ele>611.9</ele>
      </trkpt>
      <trkpt lat="45.69047" lon="3.62554">
        <ele>611.8</ele>
      </trkpt>
      <trkpt lat="45.69042" lon="3.62557">
        <ele>611.8</ele>
      </trkpt>
      <trkpt lat="45.69034" lon="3.62562">
        <ele>611.8</ele>
      </trkpt>
      <trkpt lat="45.69029" lon="3.62564">
        <ele>611.8</ele>
      </trkpt>
      <trkpt lat="45.69025" lon="3.62564">
        <ele>611.9</ele>
      </trkpt>
      <trkpt lat="45.69005" lon="3.62565">
        <ele>612.3</ele>
      </trkpt>
      <trkpt lat="45.68986" lon="3.62566">
        <ele>612.3</ele>
      </trkpt>
      <trkpt lat="45.68967" lon="3.62567">
        <ele>612.2</ele>
      </trkpt>
      <trkpt lat="45.68952" lon="3.62567">
        <ele>612.1</ele>
      </trkpt>
      <trkpt lat="45.68937" lon="3.62567">
        <ele>611.9</ele>
      </trkpt>
      <trkpt lat="45.68917" lon="3.62568">
        <ele>611.8</ele>
      </trkpt>
      <trkpt lat="45.68898" lon="3.62569">
        <ele>611.5</ele>
      </trkpt>
      <trkpt lat="45.68886" lon="3.62569">
        <ele>611.3</ele>
      </trkpt>
      <trkpt lat="45.68875" lon="3.6257">
        <ele>611.2</ele>
      </trkpt>
      <trkpt lat="45.68861" lon="3.62569">
        <ele>611</ele>
      </trkpt>
      <trkpt lat="45.68846" lon="3.62567">
        <ele>610.9</ele>
      </trkpt>
      <trkpt lat="45.68835" lon="3.62566">
        <ele>610.9</ele>
      </trkpt>
      <trkpt lat="45.68819" lon="3.62563">
        <ele>610.4</ele>
      </trkpt>
      <trkpt lat="45.68803" lon="3.6256">
        <ele>609.7</ele>
      </trkpt>
      <trkpt lat="45.68785" lon="3.62557">
        <ele>609</ele>
      </trkpt>
      <trkpt lat="45.68766" lon="3.62555">
        <ele>608.1</ele>
      </trkpt>
      <trkpt lat="45.68766" lon="3.62555">
        <ele>608.1</ele>
      </trkpt>
      <trkpt lat="45.68748" lon="3.62552">
        <ele>607.2</ele>
      </trkpt>
      <trkpt lat="45.68732" lon="3.6255">
        <ele>606</ele>
      </trkpt>
      <trkpt lat="45.68716" lon="3.62548">
        <ele>604.8</ele>
      </trkpt>
      <trkpt lat="45.68701" lon="3.62545">
        <ele>603.6</ele>
      </trkpt>
      <trkpt lat="45.68685" lon="3.62543">
        <ele>602.4</ele>
      </trkpt>
      <trkpt lat="45.6867" lon="3.6254">
        <ele>601.3</ele>
      </trkpt>
      <trkpt lat="45.68649" lon="3.62537">
        <ele>599.5</ele>
      </trkpt>
      <trkpt lat="45.68629" lon="3.62535">
        <ele>597.7</ele>
      </trkpt>
      <trkpt lat="45.68614" lon="3.62532">
        <ele>596.5</ele>
      </trkpt>
      <trkpt lat="45.686" lon="3.62529">
        <ele>595.2</ele>
      </trkpt>
      <trkpt lat="45.68587" lon="3.62527">
        <ele>594</ele>
      </trkpt>
      <trkpt lat="45.68573" lon="3.62525">
        <ele>592.6</ele>
      </trkpt>
      <trkpt lat="45.68553" lon="3.62521">
        <ele>590.6</ele>
      </trkpt>
      <trkpt lat="45.68547" lon="3.62517">
        <ele>589.9</ele>
      </trkpt>
      <trkpt lat="45.68542" lon="3.62524">
        <ele>589.4</ele>
      </trkpt>
      <trkpt lat="45.68529" lon="3.62535">
        <ele>588</ele>
      </trkpt>
      <trkpt lat="45.68518" lon="3.62545">
        <ele>586.8</ele>
      </trkpt>
      <trkpt lat="45.68512" lon="3.6254">
        <ele>586.2</ele>
      </trkpt>
      <trkpt lat="45.68498" lon="3.62521">
        <ele>584.8</ele>
      </trkpt>
      <trkpt lat="45.68491" lon="3.62513">
        <ele>584.2</ele>
      </trkpt>
      <trkpt lat="45.68483" lon="3.62507">
        <ele>583.7</ele>
      </trkpt>
      <trkpt lat="45.68471" lon="3.62499">
        <ele>582.9</ele>
      </trkpt>
      <trkpt lat="45.68466" lon="3.62518">
        <ele>581.9</ele>
      </trkpt>
      <trkpt lat="45.68458" lon="3.62537">
        <ele>580.2</ele>
      </trkpt>
      <trkpt lat="45.68452" lon="3.62553">
        <ele>578.6</ele>
      </trkpt>
      <trkpt lat="45.68444" lon="3.62577">
        <ele>576</ele>
      </trkpt>
      <trkpt lat="45.6844" lon="3.62598">
        <ele>573.7</ele>
      </trkpt>
      <trkpt lat="45.68439" lon="3.62605">
        <ele>572.9</ele>
      </trkpt>
      <trkpt lat="45.68441" lon="3.62627">
        <ele>571.4</ele>
      </trkpt>
      <trkpt lat="45.68442" lon="3.62648">
        <ele>569.8</ele>
      </trkpt>
      <trkpt lat="45.68444" lon="3.6267">
        <ele>568.6</ele>
      </trkpt>
      <trkpt lat="45.68444" lon="3.62684">
        <ele>568.6</ele>
      </trkpt>
      <trkpt lat="45.68443" lon="3.62692">
        <ele>568.5</ele>
      </trkpt>
      <trkpt lat="45.68443" lon="3.62692">
        <ele>568.5</ele>
      </trkpt>
      <trkpt lat="45.68441" lon="3.627">
        <ele>568.1</ele>
      </trkpt>
      <trkpt lat="45.68424" lon="3.62701">
        <ele>565</ele>
      </trkpt>
      <trkpt lat="45.68425" lon="3.62708">
        <ele>565</ele>
      </trkpt>
      <trkpt lat="45.68406" lon="3.62715">
        <ele>561.5</ele>
      </trkpt>
      <trkpt lat="45.68387" lon="3.62723">
        <ele>558.3</ele>
      </trkpt>
      <trkpt lat="45.68375" lon="3.62727">
        <ele>556.2</ele>
      </trkpt>
      <trkpt lat="45.68362" lon="3.62731">
        <ele>554.1</ele>
      </trkpt>
      <trkpt lat="45.68347" lon="3.62736">
        <ele>551.8</ele>
      </trkpt>
      <trkpt lat="45.68338" lon="3.62741">
        <ele>550.4</ele>
      </trkpt>
      <trkpt lat="45.68325" lon="3.62749">
        <ele>548.6</ele>
      </trkpt>
      <trkpt lat="45.68318" lon="3.62757">
        <ele>547.8</ele>
      </trkpt>
      <trkpt lat="45.68307" lon="3.62771">
        <ele>546.9</ele>
      </trkpt>
      <trkpt lat="45.683" lon="3.62775">
        <ele>546.2</ele>
      </trkpt>
      <trkpt lat="45.68288" lon="3.62781">
        <ele>544.6</ele>
      </trkpt>
      <trkpt lat="45.68275" lon="3.62788">
        <ele>543.1</ele>
      </trkpt>
      <trkpt lat="45.68261" lon="3.62797">
        <ele>541.5</ele>
      </trkpt>
      <trkpt lat="45.68246" lon="3.62805">
        <ele>540.1</ele>
      </trkpt>
      <trkpt lat="45.68232" lon="3.62814">
        <ele>538.8</ele>
      </trkpt>
      <trkpt lat="45.68218" lon="3.62824">
        <ele>537.5</ele>
      </trkpt>
      <trkpt lat="45.68203" lon="3.62833">
        <ele>536.2</ele>
      </trkpt>
      <trkpt lat="45.68194" lon="3.62839">
        <ele>535.3</ele>
      </trkpt>
      <trkpt lat="45.68189" lon="3.62843">
        <ele>534.7</ele>
      </trkpt>
      <trkpt lat="45.68183" lon="3.62849">
        <ele>533.9</ele>
      </trkpt>
      <trkpt lat="45.68179" lon="3.62853">
        <ele>533.4</ele>
      </trkpt>
      <trkpt lat="45.68175" lon="3.62857">
        <ele>532.8</ele>
      </trkpt>
      <trkpt lat="45.68171" lon="3.62863">
        <ele>532.3</ele>
      </trkpt>
      <trkpt lat="45.68171" lon="3.62863">
        <ele>532.3</ele>
      </trkpt>
      <trkpt lat="45.68165" lon="3.62874">
        <ele>531.2</ele>
      </trkpt>
      <trkpt lat="45.68161" lon="3.62884">
        <ele>530.2</ele>
      </trkpt>
      <trkpt lat="45.68155" lon="3.62898">
        <ele>528.7</ele>
      </trkpt>
      <trkpt lat="45.68151" lon="3.6291">
        <ele>527.7</ele>
      </trkpt>
      <trkpt lat="45.68146" lon="3.62935">
        <ele>526.7</ele>
      </trkpt>
      <trkpt lat="45.68141" lon="3.62956">
        <ele>525.9</ele>
      </trkpt>
      <trkpt lat="45.68137" lon="3.62977">
        <ele>524.9</ele>
      </trkpt>
      <trkpt lat="45.68133" lon="3.62997">
        <ele>523.8</ele>
      </trkpt>
      <trkpt lat="45.68129" lon="3.63017">
        <ele>524.7</ele>
      </trkpt>
      <trkpt lat="45.68118" lon="3.63038">
        <ele>523.9</ele>
      </trkpt>
      <trkpt lat="45.68101" lon="3.63046">
        <ele>518.9</ele>
      </trkpt>
      <trkpt lat="45.68084" lon="3.63054">
        <ele>514.1</ele>
      </trkpt>
      <trkpt lat="45.68084" lon="3.63054">
        <ele>514.1</ele>
      </trkpt>
      <trkpt lat="45.68064" lon="3.63058">
        <ele>509.3</ele>
      </trkpt>
      <trkpt lat="45.68044" lon="3.63062">
        <ele>504.5</ele>
      </trkpt>
      <trkpt lat="45.68028" lon="3.63068">
        <ele>500.8</ele>
      </trkpt>
      <trkpt lat="45.68016" lon="3.63087">
        <ele>499.8</ele>
      </trkpt>
      <trkpt lat="45.68004" lon="3.63107">
        <ele>498.8</ele>
      </trkpt>
      <trkpt lat="45.67997" lon="3.63125">
        <ele>499.2</ele>
      </trkpt>
      <trkpt lat="45.6799" lon="3.63143">
        <ele>499.7</ele>
      </trkpt>
      <trkpt lat="45.67978" lon="3.63155">
        <ele>498</ele>
      </trkpt>
      <trkpt lat="45.67962" lon="3.6316">
        <ele>494.5</ele>
      </trkpt>
      <trkpt lat="45.67946" lon="3.63166">
        <ele>491.1</ele>
      </trkpt>
      <trkpt lat="45.67934" lon="3.63175">
        <ele>490.1</ele>
      </trkpt>
      <trkpt lat="45.67922" lon="3.63184">
        <ele>489.4</ele>
      </trkpt>
      <trkpt lat="45.67915" lon="3.6319">
        <ele>489.1</ele>
      </trkpt>
      <trkpt lat="45.67902" lon="3.63203">
        <ele>489.3</ele>
      </trkpt>
      <trkpt lat="45.67889" lon="3.63216">
        <ele>489.8</ele>
      </trkpt>
      <trkpt lat="45.67875" lon="3.63229">
        <ele>490.6</ele>
      </trkpt>
      <trkpt lat="45.67863" lon="3.63236">
        <ele>490.2</ele>
      </trkpt>
      <trkpt lat="45.6785" lon="3.63244">
        <ele>490</ele>
      </trkpt>
      <trkpt lat="45.67828" lon="3.63243">
        <ele>486.5</ele>
      </trkpt>
      <trkpt lat="45.67807" lon="3.63243">
        <ele>485.3</ele>
      </trkpt>
      <trkpt lat="45.67802" lon="3.63245">
        <ele>485.9</ele>
      </trkpt>
      <trkpt lat="45.67795" lon="3.63247">
        <ele>486.3</ele>
      </trkpt>
      <trkpt lat="45.67785" lon="3.63247">
        <ele>485.7</ele>
      </trkpt>
      <trkpt lat="45.6778" lon="3.63247">
        <ele>485.4</ele>
      </trkpt>
      <trkpt lat="45.67774" lon="3.63245">
        <ele>484.3</ele>
      </trkpt>
      <trkpt lat="45.67769" lon="3.63242">
        <ele>483.1</ele>
      </trkpt>
      <trkpt lat="45.67759" lon="3.63234">
        <ele>479.9</ele>
      </trkpt>
      <trkpt lat="45.67748" lon="3.63224">
        <ele>475.3</ele>
      </trkpt>
      <trkpt lat="45.67736" lon="3.63213">
        <ele>470.6</ele>
      </trkpt>
      <trkpt lat="45.6773" lon="3.63209">
        <ele>468.6</ele>
      </trkpt>
      <trkpt lat="45.67714" lon="3.63202">
        <ele>465.3</ele>
      </trkpt>
      <trkpt lat="45.67699" lon="3.63199">
        <ele>463.6</ele>
      </trkpt>
      <trkpt lat="45.6768" lon="3.63195">
        <ele>461.4</ele>
      </trkpt>
      <trkpt lat="45.67668" lon="3.63194">
        <ele>460.6</ele>
      </trkpt>
      <trkpt lat="45.67668" lon="3.63194">
        <ele>460.6</ele>
      </trkpt>
      <trkpt lat="45.67656" lon="3.63193">
        <ele>458.3</ele>
      </trkpt>
      <trkpt lat="45.67643" lon="3.63191">
        <ele>455.7</ele>
      </trkpt>
      <trkpt lat="45.67631" lon="3.6319">
        <ele>453.1</ele>
      </trkpt>
      <trkpt lat="45.6761" lon="3.63188">
        <ele>449.1</ele>
      </trkpt>
      <trkpt lat="45.67601" lon="3.63187">
        <ele>447.3</ele>
      </trkpt>
      <trkpt lat="45.67594" lon="3.63187">
        <ele>446.2</ele>
      </trkpt>
      <trkpt lat="45.67588" lon="3.63188">
        <ele>445.1</ele>
      </trkpt>
      <trkpt lat="45.67582" lon="3.63189">
        <ele>444.1</ele>
      </trkpt>
      <trkpt lat="45.67571" lon="3.63194">
        <ele>441.8</ele>
      </trkpt>
      <trkpt lat="45.67567" lon="3.63197">
        <ele>441.1</ele>
      </trkpt>
      <trkpt lat="45.67557" lon="3.6321">
        <ele>439.6</ele>
      </trkpt>
      <trkpt lat="45.67548" lon="3.63221">
        <ele>438.2</ele>
      </trkpt>
      <trkpt lat="45.67546" lon="3.63234">
        <ele>438.8</ele>
      </trkpt>
      <trkpt lat="45.67551" lon="3.63251">
        <ele>440.8</ele>
      </trkpt>
      <trkpt lat="45.67555" lon="3.6326">
        <ele>440.2</ele>
      </trkpt>
      <trkpt lat="45.67567" lon="3.6327">
        <ele>440.4</ele>
      </trkpt>
      <trkpt lat="45.67578" lon="3.63277">
        <ele>440.7</ele>
      </trkpt>
      <trkpt lat="45.6759" lon="3.63285">
        <ele>441.8</ele>
      </trkpt>
      <trkpt lat="45.67605" lon="3.63296">
        <ele>444.2</ele>
      </trkpt>
      <trkpt lat="45.67618" lon="3.63306">
        <ele>446.3</ele>
      </trkpt>
      <trkpt lat="45.67631" lon="3.6332">
        <ele>448.5</ele>
      </trkpt>
      <trkpt lat="45.67642" lon="3.63331">
        <ele>450.2</ele>
      </trkpt>
      <trkpt lat="45.67652" lon="3.63341">
        <ele>451</ele>
      </trkpt>
      <trkpt lat="45.67664" lon="3.63356">
        <ele>450.2</ele>
      </trkpt>
      <trkpt lat="45.67676" lon="3.63375">
        <ele>449.2</ele>
      </trkpt>
      <trkpt lat="45.67686" lon="3.63392">
        <ele>448.8</ele>
      </trkpt>
      <trkpt lat="45.67695" lon="3.63409">
        <ele>448.6</ele>
      </trkpt>
      <trkpt lat="45.67702" lon="3.63423">
        <ele>449.3</ele>
      </trkpt>
      <trkpt lat="45.67708" lon="3.63437">
        <ele>450.9</ele>
      </trkpt>
      <trkpt lat="45.67715" lon="3.63456">
        <ele>451.4</ele>
      </trkpt>
      <trkpt lat="45.67723" lon="3.63475">
        <ele>451</ele>
      </trkpt>
      <trkpt lat="45.6773" lon="3.63495">
        <ele>449.5</ele>
      </trkpt>
      <trkpt lat="45.67738" lon="3.63515">
        <ele>449.2</ele>
      </trkpt>
      <trkpt lat="45.67743" lon="3.6353">
        <ele>448.9</ele>
      </trkpt>
      <trkpt lat="45.67748" lon="3.63546">
        <ele>448.2</ele>
      </trkpt>
      <trkpt lat="45.67752" lon="3.63557">
        <ele>448.2</ele>
      </trkpt>
      <trkpt lat="45.67754" lon="3.63565">
        <ele>448.3</ele>
      </trkpt>
      <trkpt lat="45.67754" lon="3.63565">
        <ele>448.3</ele>
      </trkpt>
      <trkpt lat="45.67755" lon="3.63573">
        <ele>448.1</ele>
      </trkpt>
      <trkpt lat="45.67756" lon="3.63585">
        <ele>447.5</ele>
      </trkpt>
      <trkpt lat="45.67756" lon="3.63592">
        <ele>447.3</ele>
      </trkpt>
      <trkpt lat="45.67756" lon="3.63602">
        <ele>447</ele>
      </trkpt>
      <trkpt lat="45.67756" lon="3.63618">
        <ele>446.4</ele>
      </trkpt>
      <trkpt lat="45.67755" lon="3.63629">
        <ele>445.9</ele>
      </trkpt>
      <trkpt lat="45.67754" lon="3.63639">
        <ele>445.1</ele>
      </trkpt>
      <trkpt lat="45.67751" lon="3.63652">
        <ele>443.7</ele>
      </trkpt>
      <trkpt lat="45.67745" lon="3.63676">
        <ele>443.9</ele>
      </trkpt>
      <trkpt lat="45.67743" lon="3.63683">
        <ele>444.8</ele>
      </trkpt>
      <trkpt lat="45.67739" lon="3.63693">
        <ele>445.7</ele>
      </trkpt>
      <trkpt lat="45.67735" lon="3.63702">
        <ele>446.4</ele>
      </trkpt>
      <trkpt lat="45.67731" lon="3.63708">
        <ele>446.7</ele>
      </trkpt>
      <trkpt lat="45.67717" lon="3.63725">
        <ele>446.7</ele>
      </trkpt>
      <trkpt lat="45.67711" lon="3.63732">
        <ele>446.5</ele>
      </trkpt>
      <trkpt lat="45.67706" lon="3.63736">
        <ele>446.1</ele>
      </trkpt>
      <trkpt lat="45.67701" lon="3.63739">
        <ele>445.5</ele>
      </trkpt>
      <trkpt lat="45.67696" lon="3.63743">
        <ele>444.9</ele>
      </trkpt>
      <trkpt lat="45.6769" lon="3.63745">
        <ele>444</ele>
      </trkpt>
      <trkpt lat="45.67677" lon="3.63748">
        <ele>441.8</ele>
      </trkpt>
      <trkpt lat="45.67677" lon="3.63748">
        <ele>441.8</ele>
      </trkpt>
      <trkpt lat="45.67658" lon="3.63752">
        <ele>440.5</ele>
      </trkpt>
      <trkpt lat="45.67647" lon="3.63754">
        <ele>441</ele>
      </trkpt>
      <trkpt lat="45.67637" lon="3.63755">
        <ele>441.2</ele>
      </trkpt>
      <trkpt lat="45.67632" lon="3.63755">
        <ele>441.1</ele>
      </trkpt>
      <trkpt lat="45.67625" lon="3.63754">
        <ele>440.7</ele>
      </trkpt>
      <trkpt lat="45.67619" lon="3.63752">
        <ele>440.1</ele>
      </trkpt>
      <trkpt lat="45.67613" lon="3.63749">
        <ele>439.3</ele>
      </trkpt>
      <trkpt lat="45.67607" lon="3.63745">
        <ele>438.9</ele>
      </trkpt>
      <trkpt lat="45.67601" lon="3.63738">
        <ele>438.2</ele>
      </trkpt>
      <trkpt lat="45.67597" lon="3.63732">
        <ele>437.7</ele>
      </trkpt>
      <trkpt lat="45.67588" lon="3.63713">
        <ele>436</ele>
      </trkpt>
      <trkpt lat="45.6758" lon="3.63698">
        <ele>435.2</ele>
      </trkpt>
      <trkpt lat="45.67577" lon="3.63692">
        <ele>435.3</ele>
      </trkpt>
      <trkpt lat="45.67572" lon="3.63684">
        <ele>435.5</ele>
      </trkpt>
      <trkpt lat="45.67566" lon="3.63676">
        <ele>435.7</ele>
      </trkpt>
      <trkpt lat="45.67563" lon="3.6367">
        <ele>435.8</ele>
      </trkpt>
      <trkpt lat="45.67552" lon="3.63655">
        <ele>436.6</ele>
      </trkpt>
      <trkpt lat="45.67541" lon="3.63634">
        <ele>436.7</ele>
      </trkpt>
      <trkpt lat="45.67538" lon="3.63628">
        <ele>436.6</ele>
      </trkpt>
      <trkpt lat="45.67527" lon="3.6361">
        <ele>436.2</ele>
      </trkpt>
      <trkpt lat="45.67522" lon="3.63603">
        <ele>435.9</ele>
      </trkpt>
      <trkpt lat="45.67514" lon="3.63595">
        <ele>435.7</ele>
      </trkpt>
      <trkpt lat="45.67496" lon="3.63582">
        <ele>434.8</ele>
      </trkpt>
      <trkpt lat="45.67479" lon="3.63568">
        <ele>433.8</ele>
      </trkpt>
      <trkpt lat="45.67472" lon="3.63564">
        <ele>433.7</ele>
      </trkpt>
      <trkpt lat="45.67466" lon="3.63562">
        <ele>433.7</ele>
      </trkpt>
      <trkpt lat="45.6746" lon="3.63561">
        <ele>433.7</ele>
      </trkpt>
      <trkpt lat="45.67452" lon="3.63562">
        <ele>433.8</ele>
      </trkpt>
      <trkpt lat="45.67444" lon="3.63565">
        <ele>433.9</ele>
      </trkpt>
      <trkpt lat="45.67441" lon="3.63553">
        <ele>434.1</ele>
      </trkpt>
      <trkpt lat="45.67441" lon="3.63553">
        <ele>434.1</ele>
      </trkpt>
      <trkpt lat="45.6744" lon="3.63546">
        <ele>434.3</ele>
      </trkpt>
      <trkpt lat="45.67436" lon="3.63525">
        <ele>435</ele>
      </trkpt>
      <trkpt lat="45.67431" lon="3.63496">
        <ele>437.1</ele>
      </trkpt>
      <trkpt lat="45.67429" lon="3.63488">
        <ele>439.1</ele>
      </trkpt>
      <trkpt lat="45.67424" lon="3.63487">
        <ele>440.2</ele>
      </trkpt>
      <trkpt lat="45.67419" lon="3.63485">
        <ele>441.4</ele>
      </trkpt>
      <trkpt lat="45.67409" lon="3.63486">
        <ele>443.4</ele>
      </trkpt>
      <trkpt lat="45.67404" lon="3.63488">
        <ele>444.3</ele>
      </trkpt>
      <trkpt lat="45.67394" lon="3.63494">
        <ele>445.1</ele>
      </trkpt>
      <trkpt lat="45.67386" lon="3.63503">
        <ele>444.9</ele>
      </trkpt>
      <trkpt lat="45.6738" lon="3.6351">
        <ele>445.4</ele>
      </trkpt>
      <trkpt lat="45.67376" lon="3.63519">
        <ele>445.2</ele>
      </trkpt>
      <trkpt lat="45.6737" lon="3.6353">
        <ele>444.6</ele>
      </trkpt>
      <trkpt lat="45.6736" lon="3.63554">
        <ele>442.3</ele>
      </trkpt>
      <trkpt lat="45.67349" lon="3.63554">
        <ele>443.6</ele>
      </trkpt>
      <trkpt lat="45.67339" lon="3.63554">
        <ele>445</ele>
      </trkpt>
      <trkpt lat="45.67333" lon="3.63554">
        <ele>446</ele>
      </trkpt>
      <trkpt lat="45.67327" lon="3.63554">
        <ele>447.5</ele>
      </trkpt>
      <trkpt lat="45.67321" lon="3.63559">
        <ele>448.3</ele>
      </trkpt>
      <trkpt lat="45.67315" lon="3.63569">
        <ele>447.9</ele>
      </trkpt>
      <trkpt lat="45.67311" lon="3.63578">
        <ele>447.1</ele>
      </trkpt>
      <trkpt lat="45.67304" lon="3.63594">
        <ele>446.9</ele>
      </trkpt>
      <trkpt lat="45.67297" lon="3.6361">
        <ele>447.2</ele>
      </trkpt>
      <trkpt lat="45.67289" lon="3.63632">
        <ele>446.9</ele>
      </trkpt>
      <trkpt lat="45.6728" lon="3.63655">
        <ele>446.1</ele>
      </trkpt>
      <trkpt lat="45.67271" lon="3.63677">
        <ele>445.2</ele>
      </trkpt>
      <trkpt lat="45.67269" lon="3.63684">
        <ele>445</ele>
      </trkpt>
      <trkpt lat="45.67263" lon="3.63685">
        <ele>445.8</ele>
      </trkpt>
      <trkpt lat="45.67249" lon="3.63695">
        <ele>447.1</ele>
      </trkpt>
      <trkpt lat="45.67241" lon="3.637">
        <ele>449.7</ele>
      </trkpt>
      <trkpt lat="45.67236" lon="3.63704">
        <ele>451.3</ele>
      </trkpt>
      <trkpt lat="45.67232" lon="3.63709">
        <ele>452.5</ele>
      </trkpt>
      <trkpt lat="45.67228" lon="3.63715">
        <ele>453.7</ele>
      </trkpt>
      <trkpt lat="45.67224" lon="3.6372">
        <ele>454.5</ele>
      </trkpt>
      <trkpt lat="45.67222" lon="3.63725">
        <ele>454.9</ele>
      </trkpt>
      <trkpt lat="45.67219" lon="3.63738">
        <ele>454.6</ele>
      </trkpt>
      <trkpt lat="45.67217" lon="3.63749">
        <ele>454.2</ele>
      </trkpt>
      <trkpt lat="45.67216" lon="3.63756">
        <ele>454</ele>
      </trkpt>
      <trkpt lat="45.67211" lon="3.63768">
        <ele>454.8</ele>
      </trkpt>
      <trkpt lat="45.67205" lon="3.6378">
        <ele>456.2</ele>
      </trkpt>
      <trkpt lat="45.67198" lon="3.63791">
        <ele>457.6</ele>
      </trkpt>
      <trkpt lat="45.6719" lon="3.63804">
        <ele>459</ele>
      </trkpt>
      <trkpt lat="45.67182" lon="3.63814">
        <ele>460.6</ele>
      </trkpt>
      <trkpt lat="45.6717" lon="3.63827">
        <ele>462.9</ele>
      </trkpt>
      <trkpt lat="45.67158" lon="3.6384">
        <ele>464.7</ele>
      </trkpt>
      <trkpt lat="45.67145" lon="3.63854">
        <ele>465.6</ele>
      </trkpt>
      <trkpt lat="45.6714" lon="3.63859">
        <ele>466</ele>
      </trkpt>
      <trkpt lat="45.6714" lon="3.63859">
        <ele>466</ele>
      </trkpt>
      <trkpt lat="45.67133" lon="3.63865">
        <ele>466.7</ele>
      </trkpt>
      <trkpt lat="45.67119" lon="3.63873">
        <ele>468.9</ele>
      </trkpt>
      <trkpt lat="45.67104" lon="3.63867">
        <ele>476.6</ele>
      </trkpt>
      <trkpt lat="45.67088" lon="3.6386">
        <ele>484.5</ele>
      </trkpt>
      <trkpt lat="45.67076" lon="3.63858">
        <ele>489.3</ele>
      </trkpt>
      <trkpt lat="45.67064" lon="3.63856">
        <ele>493.8</ele>
      </trkpt>
      <trkpt lat="45.67045" lon="3.63855">
        <ele>499.9</ele>
      </trkpt>
      <trkpt lat="45.67028" lon="3.63869">
        <ele>501.1</ele>
      </trkpt>
      <trkpt lat="45.67019" lon="3.63887">
        <ele>499</ele>
      </trkpt>
      <trkpt lat="45.6701" lon="3.63904">
        <ele>497.4</ele>
      </trkpt>
      <trkpt lat="45.67001" lon="3.63922">
        <ele>496.9</ele>
      </trkpt>
      <trkpt lat="45.66993" lon="3.63941">
        <ele>498.1</ele>
      </trkpt>
      <trkpt lat="45.6699" lon="3.6396">
        <ele>497.1</ele>
      </trkpt>
      <trkpt lat="45.66987" lon="3.63979">
        <ele>496.1</ele>
      </trkpt>
      <trkpt lat="45.66982" lon="3.63995">
        <ele>496.3</ele>
      </trkpt>
      <trkpt lat="45.66977" lon="3.64012">
        <ele>496.6</ele>
      </trkpt>
      <trkpt lat="45.66964" lon="3.64024">
        <ele>500.2</ele>
      </trkpt>
      <trkpt lat="45.66952" lon="3.64036">
        <ele>503.7</ele>
      </trkpt>
      <trkpt lat="45.66935" lon="3.6405">
        <ele>508.2</ele>
      </trkpt>
      <trkpt lat="45.66919" lon="3.64063">
        <ele>512.4</ele>
      </trkpt>
      <trkpt lat="45.66898" lon="3.64068">
        <ele>513.5</ele>
      </trkpt>
      <trkpt lat="45.6688" lon="3.64076">
        <ele>513.4</ele>
      </trkpt>
      <trkpt lat="45.66862" lon="3.64084">
        <ele>513.2</ele>
      </trkpt>
      <trkpt lat="45.66844" lon="3.64091">
        <ele>512.4</ele>
      </trkpt>
      <trkpt lat="45.66828" lon="3.64096">
        <ele>512.3</ele>
      </trkpt>
      <trkpt lat="45.66816" lon="3.6409">
        <ele>514.8</ele>
      </trkpt>
      <trkpt lat="45.66803" lon="3.64085">
        <ele>517.4</ele>
      </trkpt>
      <trkpt lat="45.66786" lon="3.64078">
        <ele>520.5</ele>
      </trkpt>
      <trkpt lat="45.66773" lon="3.64079">
        <ele>521.7</ele>
      </trkpt>
      <trkpt lat="45.66755" lon="3.64093">
        <ele>519.8</ele>
      </trkpt>
      <trkpt lat="45.66755" lon="3.64093">
        <ele>519.8</ele>
      </trkpt>
      <trkpt lat="45.66743" lon="3.64107">
        <ele>518</ele>
      </trkpt>
      <trkpt lat="45.66731" lon="3.6412">
        <ele>516.5</ele>
      </trkpt>
      <trkpt lat="45.66722" lon="3.64131">
        <ele>515.2</ele>
      </trkpt>
      <trkpt lat="45.66713" lon="3.64141">
        <ele>513.7</ele>
      </trkpt>
      <trkpt lat="45.66697" lon="3.64144">
        <ele>515.7</ele>
      </trkpt>
      <trkpt lat="45.66684" lon="3.64147">
        <ele>517.1</ele>
      </trkpt>
      <trkpt lat="45.66683" lon="3.64139">
        <ele>520</ele>
      </trkpt>
      <trkpt lat="45.66675" lon="3.64137">
        <ele>521.9</ele>
      </trkpt>
      <trkpt lat="45.66656" lon="3.64136">
        <ele>525.1</ele>
      </trkpt>
      <trkpt lat="45.66651" lon="3.64135">
        <ele>525.7</ele>
      </trkpt>
      <trkpt lat="45.66646" lon="3.64133">
        <ele>526.8</ele>
      </trkpt>
      <trkpt lat="45.66627" lon="3.64122">
        <ele>532</ele>
      </trkpt>
      <trkpt lat="45.6662" lon="3.64118">
        <ele>533.9</ele>
      </trkpt>
      <trkpt lat="45.66615" lon="3.64115">
        <ele>534.9</ele>
      </trkpt>
      <trkpt lat="45.66604" lon="3.64113">
        <ele>536.5</ele>
      </trkpt>
      <trkpt lat="45.66596" lon="3.64114">
        <ele>537</ele>
      </trkpt>
      <trkpt lat="45.66585" lon="3.6412">
        <ele>536.3</ele>
      </trkpt>
      <trkpt lat="45.66571" lon="3.6413">
        <ele>533</ele>
      </trkpt>
      <trkpt lat="45.66557" lon="3.64141">
        <ele>530</ele>
      </trkpt>
      <trkpt lat="45.6655" lon="3.64145">
        <ele>529</ele>
      </trkpt>
      <trkpt lat="45.66543" lon="3.64145">
        <ele>528.8</ele>
      </trkpt>
      <trkpt lat="45.66544" lon="3.64138">
        <ele>530</ele>
      </trkpt>
      <trkpt lat="45.66544" lon="3.6413">
        <ele>531.7</ele>
      </trkpt>
      <trkpt lat="45.66545" lon="3.64122">
        <ele>533.4</ele>
      </trkpt>
      <trkpt lat="45.66547" lon="3.64114">
        <ele>535.1</ele>
      </trkpt>
      <trkpt lat="45.6655" lon="3.64104">
        <ele>537.5</ele>
      </trkpt>
      <trkpt lat="45.66554" lon="3.64096">
        <ele>539.4</ele>
      </trkpt>
      <trkpt lat="45.66558" lon="3.64086">
        <ele>541.9</ele>
      </trkpt>
      <trkpt lat="45.66562" lon="3.64077">
        <ele>544.2</ele>
      </trkpt>
      <trkpt lat="45.66566" lon="3.64072">
        <ele>545.6</ele>
      </trkpt>
      <trkpt lat="45.66569" lon="3.64066">
        <ele>547</ele>
      </trkpt>
      <trkpt lat="45.66576" lon="3.64059">
        <ele>549.1</ele>
      </trkpt>
      <trkpt lat="45.66585" lon="3.64052">
        <ele>551.2</ele>
      </trkpt>
      <trkpt lat="45.666" lon="3.64042">
        <ele>551.8</ele>
      </trkpt>
      <trkpt lat="45.66615" lon="3.64032">
        <ele>552.3</ele>
      </trkpt>
      <trkpt lat="45.6662" lon="3.64026">
        <ele>552.9</ele>
      </trkpt>
      <trkpt lat="45.66626" lon="3.64019">
        <ele>553.5</ele>
      </trkpt>
      <trkpt lat="45.66632" lon="3.64012">
        <ele>554.1</ele>
      </trkpt>
      <trkpt lat="45.66636" lon="3.64006">
        <ele>554.8</ele>
      </trkpt>
      <trkpt lat="45.66643" lon="3.63993">
        <ele>555.9</ele>
      </trkpt>
      <trkpt lat="45.66648" lon="3.63982">
        <ele>556.9</ele>
      </trkpt>
      <trkpt lat="45.66655" lon="3.63966">
        <ele>558.5</ele>
      </trkpt>
      <trkpt lat="45.66662" lon="3.63948">
        <ele>560.3</ele>
      </trkpt>
      <trkpt lat="45.66666" lon="3.63937">
        <ele>561.3</ele>
      </trkpt>
      <trkpt lat="45.66671" lon="3.63927">
        <ele>562</ele>
      </trkpt>
      <trkpt lat="45.66678" lon="3.63914">
        <ele>562.9</ele>
      </trkpt>
      <trkpt lat="45.66684" lon="3.63904">
        <ele>563.8</ele>
      </trkpt>
      <trkpt lat="45.66684" lon="3.63904">
        <ele>563.8</ele>
      </trkpt>
      <trkpt lat="45.66691" lon="3.63893">
        <ele>564.8</ele>
      </trkpt>
      <trkpt lat="45.66696" lon="3.63885">
        <ele>565.3</ele>
      </trkpt>
      <trkpt lat="45.66707" lon="3.63874">
        <ele>566</ele>
      </trkpt>
      <trkpt lat="45.66715" lon="3.63865">
        <ele>566.5</ele>
      </trkpt>
      <trkpt lat="45.66724" lon="3.63856">
        <ele>566.9</ele>
      </trkpt>
      <trkpt lat="45.66736" lon="3.63844">
        <ele>567.7</ele>
      </trkpt>
      <trkpt lat="45.66748" lon="3.63832">
        <ele>568.4</ele>
      </trkpt>
      <trkpt lat="45.66763" lon="3.63815">
        <ele>568.3</ele>
      </trkpt>
      <trkpt lat="45.66778" lon="3.63799">
        <ele>568.5</ele>
      </trkpt>
      <trkpt lat="45.6679" lon="3.63785">
        <ele>569</ele>
      </trkpt>
      <trkpt lat="45.66802" lon="3.63771">
        <ele>569.5</ele>
      </trkpt>
      <trkpt lat="45.66811" lon="3.6376">
        <ele>570.2</ele>
      </trkpt>
      <trkpt lat="45.6682" lon="3.63748">
        <ele>570.6</ele>
      </trkpt>
      <trkpt lat="45.66827" lon="3.63737">
        <ele>569.6</ele>
      </trkpt>
      <trkpt lat="45.66827" lon="3.63728">
        <ele>569</ele>
      </trkpt>
      <trkpt lat="45.66826" lon="3.6372">
        <ele>568.6</ele>
      </trkpt>
      <trkpt lat="45.66823" lon="3.63714">
        <ele>568.7</ele>
      </trkpt>
      <trkpt lat="45.66817" lon="3.63709">
        <ele>569.1</ele>
      </trkpt>
      <trkpt lat="45.66809" lon="3.63703">
        <ele>570</ele>
      </trkpt>
      <trkpt lat="45.66796" lon="3.63696">
        <ele>571.6</ele>
      </trkpt>
      <trkpt lat="45.66779" lon="3.63686">
        <ele>574.6</ele>
      </trkpt>
      <trkpt lat="45.66759" lon="3.63675">
        <ele>578.6</ele>
      </trkpt>
      <trkpt lat="45.66747" lon="3.63669">
        <ele>581.3</ele>
      </trkpt>
      <trkpt lat="45.66736" lon="3.63661">
        <ele>583.3</ele>
      </trkpt>
      <trkpt lat="45.66725" lon="3.63653">
        <ele>585.3</ele>
      </trkpt>
      <trkpt lat="45.66716" lon="3.63647">
        <ele>587</ele>
      </trkpt>
      <trkpt lat="45.6671" lon="3.63642">
        <ele>588.1</ele>
      </trkpt>
      <trkpt lat="45.66699" lon="3.63636">
        <ele>590.2</ele>
      </trkpt>
      <trkpt lat="45.66692" lon="3.63633">
        <ele>591.6</ele>
      </trkpt>
      <trkpt lat="45.66684" lon="3.6363">
        <ele>593.2</ele>
      </trkpt>
      <trkpt lat="45.66676" lon="3.63628">
        <ele>594.6</ele>
      </trkpt>
      <trkpt lat="45.66666" lon="3.63626">
        <ele>596.5</ele>
      </trkpt>
      <trkpt lat="45.66653" lon="3.63624">
        <ele>598.1</ele>
      </trkpt>
      <trkpt lat="45.66638" lon="3.63621">
        <ele>599.8</ele>
      </trkpt>
      <trkpt lat="45.66633" lon="3.63619">
        <ele>600.5</ele>
      </trkpt>
      <trkpt lat="45.66625" lon="3.63614">
        <ele>601.6</ele>
      </trkpt>
      <trkpt lat="45.66618" lon="3.63608">
        <ele>602.8</ele>
      </trkpt>
      <trkpt lat="45.66609" lon="3.63599">
        <ele>604.4</ele>
      </trkpt>
      <trkpt lat="45.66596" lon="3.63583">
        <ele>606.7</ele>
      </trkpt>
      <trkpt lat="45.66584" lon="3.63566">
        <ele>610.3</ele>
      </trkpt>
      <trkpt lat="45.66584" lon="3.63566">
        <ele>610.3</ele>
      </trkpt>
      <trkpt lat="45.66568" lon="3.63547">
        <ele>614.7</ele>
      </trkpt>
      <trkpt lat="45.66552" lon="3.63528">
        <ele>619.2</ele>
      </trkpt>
      <trkpt lat="45.6654" lon="3.63515">
        <ele>622.6</ele>
      </trkpt>
      <trkpt lat="45.66529" lon="3.63502">
        <ele>626</ele>
      </trkpt>
      <trkpt lat="45.66519" lon="3.63491">
        <ele>628.2</ele>
      </trkpt>
      <trkpt lat="45.6651" lon="3.63481">
        <ele>630.1</ele>
      </trkpt>
      <trkpt lat="45.66497" lon="3.63465">
        <ele>632.5</ele>
      </trkpt>
      <trkpt lat="45.66482" lon="3.63445">
        <ele>633.2</ele>
      </trkpt>
      <trkpt lat="45.66466" lon="3.63426">
        <ele>633.5</ele>
      </trkpt>
      <trkpt lat="45.6646" lon="3.63418">
        <ele>633.6</ele>
      </trkpt>
      <trkpt lat="45.66457" lon="3.63412">
        <ele>633.8</ele>
      </trkpt>
      <trkpt lat="45.66454" lon="3.63404">
        <ele>634.2</ele>
      </trkpt>
      <trkpt lat="45.66452" lon="3.63393">
        <ele>635.1</ele>
      </trkpt>
      <trkpt lat="45.66451" lon="3.63381">
        <ele>636</ele>
      </trkpt>
      <trkpt lat="45.6645" lon="3.63368">
        <ele>637.1</ele>
      </trkpt>
      <trkpt lat="45.66446" lon="3.63342">
        <ele>639.1</ele>
      </trkpt>
      <trkpt lat="45.66443" lon="3.63324">
        <ele>641.1</ele>
      </trkpt>
      <trkpt lat="45.6644" lon="3.63307">
        <ele>643.9</ele>
      </trkpt>
      <trkpt lat="45.66436" lon="3.63279">
        <ele>648.6</ele>
      </trkpt>
      <trkpt lat="45.66438" lon="3.63273">
        <ele>649.6</ele>
      </trkpt>
      <trkpt lat="45.66443" lon="3.63264">
        <ele>650.8</ele>
      </trkpt>
      <trkpt lat="45.66454" lon="3.63252">
        <ele>652</ele>
      </trkpt>
      <trkpt lat="45.66464" lon="3.6324">
        <ele>653.1</ele>
      </trkpt>
      <trkpt lat="45.66469" lon="3.63232">
        <ele>653.9</ele>
      </trkpt>
      <trkpt lat="45.66474" lon="3.63222">
        <ele>655</ele>
      </trkpt>
      <trkpt lat="45.66481" lon="3.63203">
        <ele>656.8</ele>
      </trkpt>
      <trkpt lat="45.6649" lon="3.6318">
        <ele>658.9</ele>
      </trkpt>
      <trkpt lat="45.66498" lon="3.63156">
        <ele>660.1</ele>
      </trkpt>
      <trkpt lat="45.66506" lon="3.63132">
        <ele>660.4</ele>
      </trkpt>
      <trkpt lat="45.6651" lon="3.63117">
        <ele>660.9</ele>
      </trkpt>
      <trkpt lat="45.66511" lon="3.63107">
        <ele>661.5</ele>
      </trkpt>
      <trkpt lat="45.66509" lon="3.63101">
        <ele>662.3</ele>
      </trkpt>
      <trkpt lat="45.66518" lon="3.63096">
        <ele>661.3</ele>
      </trkpt>
      <trkpt lat="45.66526" lon="3.63092">
        <ele>660.4</ele>
      </trkpt>
      <trkpt lat="45.66531" lon="3.63092">
        <ele>659.7</ele>
      </trkpt>
      <trkpt lat="45.66538" lon="3.63087">
        <ele>659.1</ele>
      </trkpt>
      <trkpt lat="45.66541" lon="3.63093">
        <ele>658.1</ele>
      </trkpt>
      <trkpt lat="45.66552" lon="3.63093">
        <ele>656.4</ele>
      </trkpt>
      <trkpt lat="45.6656" lon="3.63091">
        <ele>655.4</ele>
      </trkpt>
      <trkpt lat="45.6656" lon="3.63091">
        <ele>655.4</ele>
      </trkpt>
      <trkpt lat="45.66565" lon="3.63087">
        <ele>655.1</ele>
      </trkpt>
      <trkpt lat="45.66571" lon="3.63082">
        <ele>654.9</ele>
      </trkpt>
      <trkpt lat="45.66583" lon="3.6307">
        <ele>653.4</ele>
      </trkpt>
      <trkpt lat="45.66587" lon="3.63066">
        <ele>652.9</ele>
      </trkpt>
      <trkpt lat="45.66593" lon="3.63061">
        <ele>652.4</ele>
      </trkpt>
      <trkpt lat="45.66599" lon="3.63055">
        <ele>651.9</ele>
      </trkpt>
      <trkpt lat="45.66604" lon="3.63051">
        <ele>651.6</ele>
      </trkpt>
      <trkpt lat="45.66611" lon="3.63043">
        <ele>651.1</ele>
      </trkpt>
      <trkpt lat="45.66612" lon="3.63027">
        <ele>651.7</ele>
      </trkpt>
      <trkpt lat="45.66612" lon="3.63011">
        <ele>652.5</ele>
      </trkpt>
      <trkpt lat="45.6661" lon="3.62989">
        <ele>652.7</ele>
      </trkpt>
      <trkpt lat="45.66608" lon="3.62967">
        <ele>652.1</ele>
      </trkpt>
      <trkpt lat="45.66605" lon="3.62952">
        <ele>651.7</ele>
      </trkpt>
      <trkpt lat="45.66603" lon="3.62935">
        <ele>651.2</ele>
      </trkpt>
      <trkpt lat="45.66599" lon="3.62915">
        <ele>650.8</ele>
      </trkpt>
      <trkpt lat="45.66595" lon="3.62895">
        <ele>650.8</ele>
      </trkpt>
      <trkpt lat="45.66591" lon="3.62873">
        <ele>650.8</ele>
      </trkpt>
      <trkpt lat="45.66589" lon="3.62865">
        <ele>650.8</ele>
      </trkpt>
      <trkpt lat="45.66588" lon="3.62857">
        <ele>650.8</ele>
      </trkpt>
      <trkpt lat="45.66588" lon="3.62849">
        <ele>650.7</ele>
      </trkpt>
      <trkpt lat="45.66589" lon="3.62834">
        <ele>650.4</ele>
      </trkpt>
      <trkpt lat="45.66589" lon="3.62819">
        <ele>649.6</ele>
      </trkpt>
      <trkpt lat="45.66587" lon="3.62807">
        <ele>649.2</ele>
      </trkpt>
      <trkpt lat="45.66583" lon="3.62798">
        <ele>649.3</ele>
      </trkpt>
      <trkpt lat="45.66578" lon="3.6279">
        <ele>649.5</ele>
      </trkpt>
      <trkpt lat="45.66569" lon="3.62778">
        <ele>649.8</ele>
      </trkpt>
      <trkpt lat="45.66566" lon="3.62767">
        <ele>649.7</ele>
      </trkpt>
      <trkpt lat="45.66566" lon="3.62757">
        <ele>649.1</ele>
      </trkpt>
      <trkpt lat="45.66568" lon="3.6275">
        <ele>648.7</ele>
      </trkpt>
      <trkpt lat="45.66569" lon="3.62743">
        <ele>647.9</ele>
      </trkpt>
      <trkpt lat="45.66572" lon="3.62736">
        <ele>646.9</ele>
      </trkpt>
      <trkpt lat="45.66579" lon="3.62718">
        <ele>644.4</ele>
      </trkpt>
      <trkpt lat="45.66589" lon="3.62693">
        <ele>640.5</ele>
      </trkpt>
      <trkpt lat="45.66595" lon="3.62677">
        <ele>637.5</ele>
      </trkpt>
      <trkpt lat="45.666" lon="3.62664">
        <ele>635.3</ele>
      </trkpt>
      <trkpt lat="45.66602" lon="3.62657">
        <ele>634.2</ele>
      </trkpt>
      <trkpt lat="45.66603" lon="3.62651">
        <ele>633.4</ele>
      </trkpt>
      <trkpt lat="45.66604" lon="3.62641">
        <ele>632.3</ele>
      </trkpt>
      <trkpt lat="45.66605" lon="3.62622">
        <ele>630.5</ele>
      </trkpt>
      <trkpt lat="45.66606" lon="3.62605">
        <ele>629.1</ele>
      </trkpt>
      <trkpt lat="45.66606" lon="3.62588">
        <ele>627.6</ele>
      </trkpt>
      <trkpt lat="45.66606" lon="3.62567">
        <ele>625.7</ele>
      </trkpt>
      <trkpt lat="45.66607" lon="3.62558">
        <ele>624.9</ele>
      </trkpt>
      <trkpt lat="45.66609" lon="3.62547">
        <ele>623.7</ele>
      </trkpt>
      <trkpt lat="45.66614" lon="3.62535">
        <ele>622.2</ele>
      </trkpt>
      <trkpt lat="45.66621" lon="3.62522">
        <ele>620.7</ele>
      </trkpt>
      <trkpt lat="45.66633" lon="3.62501">
        <ele>618.7</ele>
      </trkpt>
      <trkpt lat="45.66638" lon="3.6249">
        <ele>617.9</ele>
      </trkpt>
      <trkpt lat="45.66638" lon="3.6249">
        <ele>617.9</ele>
      </trkpt>
      <trkpt lat="45.66641" lon="3.62484">
        <ele>617.5</ele>
      </trkpt>
      <trkpt lat="45.66641" lon="3.62477">
        <ele>617.2</ele>
      </trkpt>
      <trkpt lat="45.6664" lon="3.6247">
        <ele>616.9</ele>
      </trkpt>
      <trkpt lat="45.66634" lon="3.62464">
        <ele>616.6</ele>
      </trkpt>
      <trkpt lat="45.66618" lon="3.62462">
        <ele>616.4</ele>
      </trkpt>
      <trkpt lat="45.66597" lon="3.62459">
        <ele>616.1</ele>
      </trkpt>
      <trkpt lat="45.6659" lon="3.62457">
        <ele>615.9</ele>
      </trkpt>
      <trkpt lat="45.66582" lon="3.62454">
        <ele>615.6</ele>
      </trkpt>
      <trkpt lat="45.66569" lon="3.62448">
        <ele>615.9</ele>
      </trkpt>
      <trkpt lat="45.66554" lon="3.62441">
        <ele>616.2</ele>
      </trkpt>
      <trkpt lat="45.66539" lon="3.62434">
        <ele>616.4</ele>
      </trkpt>
      <trkpt lat="45.66519" lon="3.62423">
        <ele>616.5</ele>
      </trkpt>
      <trkpt lat="45.66507" lon="3.62414">
        <ele>616.2</ele>
      </trkpt>
      <trkpt lat="45.66502" lon="3.6241">
        <ele>615.9</ele>
      </trkpt>
      <trkpt lat="45.66496" lon="3.62405">
        <ele>615.8</ele>
      </trkpt>
      <trkpt lat="45.66492" lon="3.62399">
        <ele>615.6</ele>
      </trkpt>
      <trkpt lat="45.66483" lon="3.62386">
        <ele>615.1</ele>
      </trkpt>
      <trkpt lat="45.66468" lon="3.62363">
        <ele>614.3</ele>
      </trkpt>
      <trkpt lat="45.66454" lon="3.62342">
        <ele>613.5</ele>
      </trkpt>
      <trkpt lat="45.66447" lon="3.6233">
        <ele>613</ele>
      </trkpt>
      <trkpt lat="45.66434" lon="3.62312">
        <ele>612</ele>
      </trkpt>
      <trkpt lat="45.66422" lon="3.62295">
        <ele>610.7</ele>
      </trkpt>
      <trkpt lat="45.66416" lon="3.62287">
        <ele>610.1</ele>
      </trkpt>
      <trkpt lat="45.66408" lon="3.62275">
        <ele>608.1</ele>
      </trkpt>
      <trkpt lat="45.66403" lon="3.6227">
        <ele>607.3</ele>
      </trkpt>
      <trkpt lat="45.66398" lon="3.62265">
        <ele>606.6</ele>
      </trkpt>
      <trkpt lat="45.66393" lon="3.62262">
        <ele>606.1</ele>
      </trkpt>
      <trkpt lat="45.66385" lon="3.62259">
        <ele>606</ele>
      </trkpt>
      <trkpt lat="45.66378" lon="3.62259">
        <ele>606.3</ele>
      </trkpt>
      <trkpt lat="45.66371" lon="3.6226">
        <ele>606.7</ele>
      </trkpt>
      <trkpt lat="45.66355" lon="3.62263">
        <ele>607.8</ele>
      </trkpt>
      <trkpt lat="45.66338" lon="3.62266">
        <ele>608.7</ele>
      </trkpt>
      <trkpt lat="45.66325" lon="3.62268">
        <ele>610.3</ele>
      </trkpt>
      <trkpt lat="45.66312" lon="3.62273">
        <ele>612.7</ele>
      </trkpt>
      <trkpt lat="45.66298" lon="3.62278">
        <ele>614.6</ele>
      </trkpt>
      <trkpt lat="45.66287" lon="3.62275">
        <ele>616</ele>
      </trkpt>
      <trkpt lat="45.6628" lon="3.62269">
        <ele>617.1</ele>
      </trkpt>
      <trkpt lat="45.66277" lon="3.62261">
        <ele>618</ele>
      </trkpt>
      <trkpt lat="45.66276" lon="3.62252">
        <ele>618.5</ele>
      </trkpt>
      <trkpt lat="45.6628" lon="3.62243">
        <ele>619</ele>
      </trkpt>
      <trkpt lat="45.66286" lon="3.62238">
        <ele>618.7</ele>
      </trkpt>
      <trkpt lat="45.66284" lon="3.6223">
        <ele>620.3</ele>
      </trkpt>
      <trkpt lat="45.66284" lon="3.6223">
        <ele>620.3</ele>
      </trkpt>
      <trkpt lat="45.66292" lon="3.62213">
        <ele>621.4</ele>
      </trkpt>
      <trkpt lat="45.66302" lon="3.62192">
        <ele>622.3</ele>
      </trkpt>
      <trkpt lat="45.66312" lon="3.62171">
        <ele>622.7</ele>
      </trkpt>
      <trkpt lat="45.66322" lon="3.62149">
        <ele>624.5</ele>
      </trkpt>
      <trkpt lat="45.66331" lon="3.62131">
        <ele>626.8</ele>
      </trkpt>
      <trkpt lat="45.66341" lon="3.62113">
        <ele>629.5</ele>
      </trkpt>
      <trkpt lat="45.66352" lon="3.62087">
        <ele>633.4</ele>
      </trkpt>
      <trkpt lat="45.66355" lon="3.62073">
        <ele>633.7</ele>
      </trkpt>
      <trkpt lat="45.66356" lon="3.62043">
        <ele>635</ele>
      </trkpt>
      <trkpt lat="45.66353" lon="3.62023">
        <ele>636.5</ele>
      </trkpt>
      <trkpt lat="45.6635" lon="3.62003">
        <ele>638</ele>
      </trkpt>
      <trkpt lat="45.66349" lon="3.61973">
        <ele>638.9</ele>
      </trkpt>
      <trkpt lat="45.66352" lon="3.61945">
        <ele>639.1</ele>
      </trkpt>
      <trkpt lat="45.66356" lon="3.61918">
        <ele>639.2</ele>
      </trkpt>
      <trkpt lat="45.6636" lon="3.61891">
        <ele>640.2</ele>
      </trkpt>
      <trkpt lat="45.66355" lon="3.61881">
        <ele>641.2</ele>
      </trkpt>
      <trkpt lat="45.66347" lon="3.61871">
        <ele>642.5</ele>
      </trkpt>
      <trkpt lat="45.66338" lon="3.6186">
        <ele>643.7</ele>
      </trkpt>
      <trkpt lat="45.66329" lon="3.6185">
        <ele>644.8</ele>
      </trkpt>
      <trkpt lat="45.66321" lon="3.61839">
        <ele>646</ele>
      </trkpt>
      <trkpt lat="45.6631" lon="3.61826">
        <ele>647.8</ele>
      </trkpt>
      <trkpt lat="45.66299" lon="3.61814">
        <ele>649.7</ele>
      </trkpt>
      <trkpt lat="45.66289" lon="3.61801">
        <ele>651.3</ele>
      </trkpt>
      <trkpt lat="45.66278" lon="3.61789">
        <ele>652.6</ele>
      </trkpt>
      <trkpt lat="45.6627" lon="3.61779">
        <ele>653.5</ele>
      </trkpt>
      <trkpt lat="45.66261" lon="3.61769">
        <ele>654.2</ele>
      </trkpt>
      <trkpt lat="45.66249" lon="3.61754">
        <ele>654.9</ele>
      </trkpt>
      <trkpt lat="45.66231" lon="3.61734">
        <ele>656.3</ele>
      </trkpt>
      <trkpt lat="45.6623" lon="3.61725">
        <ele>656.7</ele>
      </trkpt>
      <trkpt lat="45.66227" lon="3.61717">
        <ele>657.1</ele>
      </trkpt>
      <trkpt lat="45.66221" lon="3.61703">
        <ele>657.7</ele>
      </trkpt>
      <trkpt lat="45.66213" lon="3.61681">
        <ele>658.6</ele>
      </trkpt>
      <trkpt lat="45.66213" lon="3.61681">
        <ele>658.6</ele>
      </trkpt>
      <trkpt lat="45.66205" lon="3.61661">
        <ele>659.3</ele>
      </trkpt>
      <trkpt lat="45.66201" lon="3.61654">
        <ele>659.8</ele>
      </trkpt>
      <trkpt lat="45.66197" lon="3.61647">
        <ele>660.1</ele>
      </trkpt>
      <trkpt lat="45.66192" lon="3.61635">
        <ele>660.7</ele>
      </trkpt>
      <trkpt lat="45.6619" lon="3.61629">
        <ele>661</ele>
      </trkpt>
      <trkpt lat="45.66188" lon="3.61622">
        <ele>661.3</ele>
      </trkpt>
      <trkpt lat="45.66186" lon="3.61612">
        <ele>661.7</ele>
      </trkpt>
      <trkpt lat="45.66181" lon="3.61586">
        <ele>662.7</ele>
      </trkpt>
      <trkpt lat="45.66177" lon="3.61556">
        <ele>666</ele>
      </trkpt>
      <trkpt lat="45.66177" lon="3.61544">
        <ele>667.6</ele>
      </trkpt>
      <trkpt lat="45.6618" lon="3.61534">
        <ele>669</ele>
      </trkpt>
      <trkpt lat="45.66189" lon="3.61516">
        <ele>672</ele>
      </trkpt>
      <trkpt lat="45.66197" lon="3.61493">
        <ele>675.6</ele>
      </trkpt>
      <trkpt lat="45.66197" lon="3.61482">
        <ele>676.7</ele>
      </trkpt>
      <trkpt lat="45.66195" lon="3.61472">
        <ele>677.5</ele>
      </trkpt>
      <trkpt lat="45.66189" lon="3.61457">
        <ele>678.5</ele>
      </trkpt>
      <trkpt lat="45.66181" lon="3.61447">
        <ele>678.9</ele>
      </trkpt>
      <trkpt lat="45.66173" lon="3.61439">
        <ele>679.1</ele>
      </trkpt>
      <trkpt lat="45.66163" lon="3.61433">
        <ele>679.2</ele>
      </trkpt>
      <trkpt lat="45.66152" lon="3.61428">
        <ele>679.7</ele>
      </trkpt>
      <trkpt lat="45.66144" lon="3.61422">
        <ele>680.4</ele>
      </trkpt>
      <trkpt lat="45.66136" lon="3.61413">
        <ele>681.1</ele>
      </trkpt>
      <trkpt lat="45.66129" lon="3.61403">
        <ele>681.6</ele>
      </trkpt>
      <trkpt lat="45.66124" lon="3.61393">
        <ele>682</ele>
      </trkpt>
      <trkpt lat="45.66121" lon="3.61385">
        <ele>682.4</ele>
      </trkpt>
      <trkpt lat="45.66118" lon="3.61369">
        <ele>683.2</ele>
      </trkpt>
      <trkpt lat="45.66112" lon="3.6134">
        <ele>684.9</ele>
      </trkpt>
      <trkpt lat="45.6611" lon="3.61329">
        <ele>685.5</ele>
      </trkpt>
      <trkpt lat="45.66108" lon="3.61323">
        <ele>685.6</ele>
      </trkpt>
      <trkpt lat="45.66105" lon="3.61316">
        <ele>685.8</ele>
      </trkpt>
      <trkpt lat="45.66102" lon="3.61309">
        <ele>686</ele>
      </trkpt>
      <trkpt lat="45.66098" lon="3.61302">
        <ele>686.1</ele>
      </trkpt>
      <trkpt lat="45.66091" lon="3.6129">
        <ele>686.3</ele>
      </trkpt>
      <trkpt lat="45.66079" lon="3.61272">
        <ele>686.5</ele>
      </trkpt>
      <trkpt lat="45.66066" lon="3.61253">
        <ele>686.9</ele>
      </trkpt>
      <trkpt lat="45.66057" lon="3.61242">
        <ele>687.4</ele>
      </trkpt>
      <trkpt lat="45.66048" lon="3.61231">
        <ele>687.9</ele>
      </trkpt>
      <trkpt lat="45.66037" lon="3.61218">
        <ele>688.6</ele>
      </trkpt>
      <trkpt lat="45.66026" lon="3.61204">
        <ele>689.3</ele>
      </trkpt>
      <trkpt lat="45.66016" lon="3.6119">
        <ele>690</ele>
      </trkpt>
      <trkpt lat="45.66005" lon="3.61177">
        <ele>690.6</ele>
      </trkpt>
      <trkpt lat="45.65995" lon="3.61163">
        <ele>690.8</ele>
      </trkpt>
      <trkpt lat="45.65984" lon="3.61149">
        <ele>690.5</ele>
      </trkpt>
      <trkpt lat="45.65984" lon="3.61149">
        <ele>690.5</ele>
      </trkpt>
      <trkpt lat="45.65979" lon="3.61143">
        <ele>690.4</ele>
      </trkpt>
      <trkpt lat="45.65969" lon="3.61129">
        <ele>690.2</ele>
      </trkpt>
      <trkpt lat="45.65965" lon="3.61122">
        <ele>690.2</ele>
      </trkpt>
      <trkpt lat="45.65961" lon="3.61113">
        <ele>690.3</ele>
      </trkpt>
      <trkpt lat="45.6596" lon="3.61101">
        <ele>690.5</ele>
      </trkpt>
      <trkpt lat="45.6596" lon="3.61092">
        <ele>690.8</ele>
      </trkpt>
      <trkpt lat="45.65961" lon="3.61085">
        <ele>691.1</ele>
      </trkpt>
      <trkpt lat="45.65966" lon="3.61063">
        <ele>692.8</ele>
      </trkpt>
      <trkpt lat="45.6597" lon="3.61044">
        <ele>694.4</ele>
      </trkpt>
      <trkpt lat="45.65972" lon="3.61023">
        <ele>696.2</ele>
      </trkpt>
      <trkpt lat="45.65972" lon="3.61014">
        <ele>696.9</ele>
      </trkpt>
      <trkpt lat="45.65972" lon="3.61">
        <ele>698</ele>
      </trkpt>
      <trkpt lat="45.65972" lon="3.60985">
        <ele>699.3</ele>
      </trkpt>
      <trkpt lat="45.65971" lon="3.60969">
        <ele>700.6</ele>
      </trkpt>
      <trkpt lat="45.6597" lon="3.60952">
        <ele>701.9</ele>
      </trkpt>
      <trkpt lat="45.65969" lon="3.60923">
        <ele>704.3</ele>
      </trkpt>
      <trkpt lat="45.65968" lon="3.60893">
        <ele>705.5</ele>
      </trkpt>
      <trkpt lat="45.65968" lon="3.60881">
        <ele>706</ele>
      </trkpt>
      <trkpt lat="45.65968" lon="3.60855">
        <ele>707.1</ele>
      </trkpt>
      <trkpt lat="45.65969" lon="3.60826">
        <ele>708.3</ele>
      </trkpt>
      <trkpt lat="45.65971" lon="3.60807">
        <ele>708.8</ele>
      </trkpt>
      <trkpt lat="45.65972" lon="3.60787">
        <ele>709.2</ele>
      </trkpt>
      <trkpt lat="45.65974" lon="3.60771">
        <ele>709.5</ele>
      </trkpt>
      <trkpt lat="45.65975" lon="3.60755">
        <ele>709.8</ele>
      </trkpt>
      <trkpt lat="45.65976" lon="3.60739">
        <ele>710.4</ele>
      </trkpt>
      <trkpt lat="45.65976" lon="3.60727">
        <ele>710.8</ele>
      </trkpt>
      <trkpt lat="45.65975" lon="3.6072">
        <ele>711</ele>
      </trkpt>
      <trkpt lat="45.65974" lon="3.60711">
        <ele>711.1</ele>
      </trkpt>
      <trkpt lat="45.65969" lon="3.60684">
        <ele>711.6</ele>
      </trkpt>
      <trkpt lat="45.65965" lon="3.60656">
        <ele>711.8</ele>
      </trkpt>
      <trkpt lat="45.65964" lon="3.60649">
        <ele>711.8</ele>
      </trkpt>
      <trkpt lat="45.65965" lon="3.60641">
        <ele>711.9</ele>
      </trkpt>
      <trkpt lat="45.6596" lon="3.60638">
        <ele>711.3</ele>
      </trkpt>
      <trkpt lat="45.65946" lon="3.60627">
        <ele>709.8</ele>
      </trkpt>
      <trkpt lat="45.65932" lon="3.60616">
        <ele>708.4</ele>
      </trkpt>
      <trkpt lat="45.65918" lon="3.60603">
        <ele>706.9</ele>
      </trkpt>
      <trkpt lat="45.65913" lon="3.60595">
        <ele>707</ele>
      </trkpt>
      <trkpt lat="45.65905" lon="3.60594">
        <ele>707.2</ele>
      </trkpt>
      <trkpt lat="45.65897" lon="3.6059">
        <ele>707.6</ele>
      </trkpt>
      <trkpt lat="45.65886" lon="3.60585">
        <ele>708.1</ele>
      </trkpt>
      <trkpt lat="45.65881" lon="3.60584">
        <ele>708.3</ele>
      </trkpt>
      <trkpt lat="45.65881" lon="3.60584">
        <ele>708.3</ele>
      </trkpt>
      <trkpt lat="45.65876" lon="3.60583">
        <ele>708.5</ele>
      </trkpt>
      <trkpt lat="45.65871" lon="3.60583">
        <ele>708.6</ele>
      </trkpt>
      <trkpt lat="45.65854" lon="3.60583">
        <ele>709.3</ele>
      </trkpt>
      <trkpt lat="45.65833" lon="3.60583">
        <ele>710</ele>
      </trkpt>
      <trkpt lat="45.65813" lon="3.60582">
        <ele>712.2</ele>
      </trkpt>
      <trkpt lat="45.65793" lon="3.60582">
        <ele>714.3</ele>
      </trkpt>
      <trkpt lat="45.65774" lon="3.60581">
        <ele>716.5</ele>
      </trkpt>
      <trkpt lat="45.6576" lon="3.6058">
        <ele>717.9</ele>
      </trkpt>
      <trkpt lat="45.65747" lon="3.60579">
        <ele>719.2</ele>
      </trkpt>
      <trkpt lat="45.65747" lon="3.60579">
        <ele>719.2</ele>
      </trkpt>
      <trkpt lat="45.65729" lon="3.60578">
        <ele>720.5</ele>
      </trkpt>
      <trkpt lat="45.65711" lon="3.60577">
        <ele>721.7</ele>
      </trkpt>
      <trkpt lat="45.65704" lon="3.60575">
        <ele>722.2</ele>
      </trkpt>
      <trkpt lat="45.65691" lon="3.60576">
        <ele>723.2</ele>
      </trkpt>
      <trkpt lat="45.65685" lon="3.60576">
        <ele>723.6</ele>
      </trkpt>
      <trkpt lat="45.65673" lon="3.60575">
        <ele>724.3</ele>
      </trkpt>
      <trkpt lat="45.65662" lon="3.60574">
        <ele>725.1</ele>
      </trkpt>
      <trkpt lat="45.65641" lon="3.60572">
        <ele>726.6</ele>
      </trkpt>
      <trkpt lat="45.65619" lon="3.60571">
        <ele>728</ele>
      </trkpt>
      <trkpt lat="45.656" lon="3.6057">
        <ele>729.3</ele>
      </trkpt>
      <trkpt lat="45.65582" lon="3.60569">
        <ele>730.6</ele>
      </trkpt>
      <trkpt lat="45.65568" lon="3.60569">
        <ele>731.4</ele>
      </trkpt>
      <trkpt lat="45.65554" lon="3.60569">
        <ele>732.1</ele>
      </trkpt>
      <trkpt lat="45.65541" lon="3.6057">
        <ele>732.9</ele>
      </trkpt>
      <trkpt lat="45.65528" lon="3.6057">
        <ele>733.6</ele>
      </trkpt>
      <trkpt lat="45.65514" lon="3.60571">
        <ele>734.5</ele>
      </trkpt>
      <trkpt lat="45.65508" lon="3.6057">
        <ele>734.8</ele>
      </trkpt>
      <trkpt lat="45.65497" lon="3.60568">
        <ele>735.3</ele>
      </trkpt>
      <trkpt lat="45.65492" lon="3.60567">
        <ele>735.7</ele>
      </trkpt>
      <trkpt lat="45.65485" lon="3.60564">
        <ele>736</ele>
      </trkpt>
      <trkpt lat="45.65468" lon="3.60555">
        <ele>736.7</ele>
      </trkpt>
      <trkpt lat="45.65451" lon="3.60546">
        <ele>737.4</ele>
      </trkpt>
      <trkpt lat="45.65439" lon="3.60539">
        <ele>737.7</ele>
      </trkpt>
      <trkpt lat="45.65428" lon="3.60534">
        <ele>738</ele>
      </trkpt>
      <trkpt lat="45.65416" lon="3.60528">
        <ele>738.4</ele>
      </trkpt>
      <trkpt lat="45.65416" lon="3.60528">
        <ele>738.4</ele>
      </trkpt>
      <trkpt lat="45.65402" lon="3.60523">
        <ele>738</ele>
      </trkpt>
      <trkpt lat="45.65388" lon="3.60517">
        <ele>737.6</ele>
      </trkpt>
      <trkpt lat="45.6537" lon="3.6051">
        <ele>737.3</ele>
      </trkpt>
      <trkpt lat="45.65353" lon="3.60504">
        <ele>737</ele>
      </trkpt>
      <trkpt lat="45.65341" lon="3.60499">
        <ele>736.8</ele>
      </trkpt>
      <trkpt lat="45.65329" lon="3.60495">
        <ele>736.4</ele>
      </trkpt>
      <trkpt lat="45.65324" lon="3.60488">
        <ele>735.8</ele>
      </trkpt>
      <trkpt lat="45.65316" lon="3.60492">
        <ele>736.2</ele>
      </trkpt>
      <trkpt lat="45.65308" lon="3.60494">
        <ele>736.4</ele>
      </trkpt>
      <trkpt lat="45.65297" lon="3.60494">
        <ele>736.5</ele>
      </trkpt>
      <trkpt lat="45.65285" lon="3.60494">
        <ele>736.5</ele>
      </trkpt>
      <trkpt lat="45.65272" lon="3.60492">
        <ele>736.4</ele>
      </trkpt>
      <trkpt lat="45.65252" lon="3.60488">
        <ele>736.2</ele>
      </trkpt>
      <trkpt lat="45.65237" lon="3.60483">
        <ele>736.3</ele>
      </trkpt>
      <trkpt lat="45.65223" lon="3.60479">
        <ele>736.5</ele>
      </trkpt>
      <trkpt lat="45.65208" lon="3.60475">
        <ele>736.9</ele>
      </trkpt>
      <trkpt lat="45.65191" lon="3.60469">
        <ele>737.5</ele>
      </trkpt>
      <trkpt lat="45.65183" lon="3.60465">
        <ele>737.9</ele>
      </trkpt>
      <trkpt lat="45.65166" lon="3.60456">
        <ele>739.1</ele>
      </trkpt>
      <trkpt lat="45.65155" lon="3.60449">
        <ele>739.8</ele>
      </trkpt>
      <trkpt lat="45.65144" lon="3.60443">
        <ele>740.6</ele>
      </trkpt>
      <trkpt lat="45.65135" lon="3.60438">
        <ele>741.2</ele>
      </trkpt>
      <trkpt lat="45.65129" lon="3.60436">
        <ele>741.6</ele>
      </trkpt>
      <trkpt lat="45.6512" lon="3.60434">
        <ele>742.1</ele>
      </trkpt>
      <trkpt lat="45.65111" lon="3.60432">
        <ele>742.5</ele>
      </trkpt>
      <trkpt lat="45.65095" lon="3.60431">
        <ele>743.3</ele>
      </trkpt>
      <trkpt lat="45.65079" lon="3.60431">
        <ele>744.2</ele>
      </trkpt>
      <trkpt lat="45.65069" lon="3.60432">
        <ele>745</ele>
      </trkpt>
      <trkpt lat="45.6506" lon="3.60433">
        <ele>745.7</ele>
      </trkpt>
      <trkpt lat="45.65052" lon="3.60435">
        <ele>746.3</ele>
      </trkpt>
      <trkpt lat="45.65046" lon="3.60436">
        <ele>746.8</ele>
      </trkpt>
      <trkpt lat="45.65033" lon="3.60441">
        <ele>747.7</ele>
      </trkpt>
      <trkpt lat="45.65024" lon="3.60444">
        <ele>748.4</ele>
      </trkpt>
      <trkpt lat="45.65016" lon="3.60445">
        <ele>749.1</ele>
      </trkpt>
      <trkpt lat="45.65009" lon="3.60446">
        <ele>749.7</ele>
      </trkpt>
      <trkpt lat="45.65003" lon="3.60446">
        <ele>750.3</ele>
      </trkpt>
      <trkpt lat="45.64997" lon="3.60445">
        <ele>750.7</ele>
      </trkpt>
      <trkpt lat="45.64989" lon="3.60444">
        <ele>751</ele>
      </trkpt>
      <trkpt lat="45.64969" lon="3.6044">
        <ele>751.6</ele>
      </trkpt>
      <trkpt lat="45.64948" lon="3.60435">
        <ele>752.2</ele>
      </trkpt>
      <trkpt lat="45.64948" lon="3.60435">
        <ele>752.2</ele>
      </trkpt>
      <trkpt lat="45.64926" lon="3.60429">
        <ele>752.7</ele>
      </trkpt>
      <trkpt lat="45.64909" lon="3.60425">
        <ele>752.9</ele>
      </trkpt>
      <trkpt lat="45.64891" lon="3.60421">
        <ele>753</ele>
      </trkpt>
      <trkpt lat="45.64876" lon="3.60417">
        <ele>753</ele>
      </trkpt>
      <trkpt lat="45.64861" lon="3.60414">
        <ele>752.8</ele>
      </trkpt>
      <trkpt lat="45.64851" lon="3.60412">
        <ele>752.8</ele>
      </trkpt>
      <trkpt lat="45.64845" lon="3.60413">
        <ele>752.7</ele>
      </trkpt>
      <trkpt lat="45.64837" lon="3.60414">
        <ele>752.8</ele>
      </trkpt>
      <trkpt lat="45.64826" lon="3.60417">
        <ele>753.3</ele>
      </trkpt>
      <trkpt lat="45.64811" lon="3.60424">
        <ele>753.9</ele>
      </trkpt>
      <trkpt lat="45.64796" lon="3.6043">
        <ele>754.5</ele>
      </trkpt>
      <trkpt lat="45.64776" lon="3.60439">
        <ele>754.9</ele>
      </trkpt>
      <trkpt lat="45.64771" lon="3.60433">
        <ele>755.1</ele>
      </trkpt>
      <trkpt lat="45.64762" lon="3.60426">
        <ele>755.4</ele>
      </trkpt>
      <trkpt lat="45.64746" lon="3.60415">
        <ele>755.8</ele>
      </trkpt>
      <trkpt lat="45.64728" lon="3.60405">
        <ele>754.9</ele>
      </trkpt>
      <trkpt lat="45.64711" lon="3.60395">
        <ele>754.2</ele>
      </trkpt>
      <trkpt lat="45.64692" lon="3.60389">
        <ele>753.9</ele>
      </trkpt>
      <trkpt lat="45.64672" lon="3.60382">
        <ele>753.7</ele>
      </trkpt>
      <trkpt lat="45.64653" lon="3.60375">
        <ele>755</ele>
      </trkpt>
      <trkpt lat="45.64639" lon="3.6037">
        <ele>756.6</ele>
      </trkpt>
      <trkpt lat="45.64631" lon="3.60367">
        <ele>757.5</ele>
      </trkpt>
      <trkpt lat="45.6462" lon="3.6036">
        <ele>759.3</ele>
      </trkpt>
      <trkpt lat="45.64616" lon="3.60355">
        <ele>760</ele>
      </trkpt>
      <trkpt lat="45.64613" lon="3.60344">
        <ele>761</ele>
      </trkpt>
      <trkpt lat="45.64613" lon="3.60336">
        <ele>761.5</ele>
      </trkpt>
      <trkpt lat="45.64613" lon="3.60326">
        <ele>762.7</ele>
      </trkpt>
      <trkpt lat="45.64615" lon="3.60318">
        <ele>763.6</ele>
      </trkpt>
      <trkpt lat="45.64619" lon="3.60306">
        <ele>764.4</ele>
      </trkpt>
      <trkpt lat="45.64627" lon="3.60282">
        <ele>765.4</ele>
      </trkpt>
      <trkpt lat="45.64635" lon="3.60259">
        <ele>765.8</ele>
      </trkpt>
      <trkpt lat="45.64644" lon="3.60248">
        <ele>764</ele>
      </trkpt>
      <trkpt lat="45.64654" lon="3.60237">
        <ele>761.4</ele>
      </trkpt>
      <trkpt lat="45.64659" lon="3.60226">
        <ele>759.9</ele>
      </trkpt>
      <trkpt lat="45.6466" lon="3.60219">
        <ele>760</ele>
      </trkpt>
      <trkpt lat="45.6466" lon="3.60219">
        <ele>760</ele>
      </trkpt>
      <trkpt lat="45.64657" lon="3.60203">
        <ele>761.2</ele>
      </trkpt>
      <trkpt lat="45.64653" lon="3.60187">
        <ele>762.6</ele>
      </trkpt>
      <trkpt lat="45.6465" lon="3.60172">
        <ele>764.1</ele>
      </trkpt>
      <trkpt lat="45.64647" lon="3.60141">
        <ele>765</ele>
      </trkpt>
      <trkpt lat="45.6465" lon="3.60115">
        <ele>764.3</ele>
      </trkpt>
      <trkpt lat="45.64652" lon="3.60089">
        <ele>763.5</ele>
      </trkpt>
      <trkpt lat="45.64655" lon="3.60075">
        <ele>762.5</ele>
      </trkpt>
      <trkpt lat="45.64659" lon="3.60056">
        <ele>761</ele>
      </trkpt>
      <trkpt lat="45.64662" lon="3.60042">
        <ele>759.9</ele>
      </trkpt>
      <trkpt lat="45.64663" lon="3.60031">
        <ele>759.3</ele>
      </trkpt>
      <trkpt lat="45.64664" lon="3.60024">
        <ele>759.1</ele>
      </trkpt>
      <trkpt lat="45.64664" lon="3.60014">
        <ele>759.1</ele>
      </trkpt>
      <trkpt lat="45.64663" lon="3.59997">
        <ele>759.1</ele>
      </trkpt>
      <trkpt lat="45.64663" lon="3.59986">
        <ele>759.7</ele>
      </trkpt>
      <trkpt lat="45.64664" lon="3.59976">
        <ele>760</ele>
      </trkpt>
      <trkpt lat="45.64665" lon="3.59965">
        <ele>760.2</ele>
      </trkpt>
      <trkpt lat="45.64667" lon="3.59953">
        <ele>760.2</ele>
      </trkpt>
      <trkpt lat="45.64671" lon="3.59928">
        <ele>760.7</ele>
      </trkpt>
      <trkpt lat="45.64673" lon="3.59909">
        <ele>761.3</ele>
      </trkpt>
      <trkpt lat="45.64674" lon="3.59894">
        <ele>761.9</ele>
      </trkpt>
      <trkpt lat="45.64674" lon="3.59886">
        <ele>762.3</ele>
      </trkpt>
      <trkpt lat="45.64674" lon="3.59879">
        <ele>762.8</ele>
      </trkpt>
      <trkpt lat="45.64671" lon="3.59874">
        <ele>763.4</ele>
      </trkpt>
      <trkpt lat="45.64669" lon="3.59867">
        <ele>764.1</ele>
      </trkpt>
      <trkpt lat="45.64655" lon="3.5989">
        <ele>765.2</ele>
      </trkpt>
      <trkpt lat="45.64647" lon="3.59901">
        <ele>766.2</ele>
      </trkpt>
      <trkpt lat="45.64641" lon="3.59904">
        <ele>767.2</ele>
      </trkpt>
      <trkpt lat="45.64635" lon="3.59904">
        <ele>768.4</ele>
      </trkpt>
      <trkpt lat="45.6463" lon="3.59899">
        <ele>769.3</ele>
      </trkpt>
      <trkpt lat="45.64626" lon="3.59888">
        <ele>770</ele>
      </trkpt>
      <trkpt lat="45.64621" lon="3.59872">
        <ele>770.8</ele>
      </trkpt>
      <trkpt lat="45.64617" lon="3.59858">
        <ele>771.5</ele>
      </trkpt>
      <trkpt lat="45.6461" lon="3.59841">
        <ele>772.2</ele>
      </trkpt>
      <trkpt lat="45.64604" lon="3.59825">
        <ele>772.5</ele>
      </trkpt>
      <trkpt lat="45.64593" lon="3.59798">
        <ele>772.5</ele>
      </trkpt>
      <trkpt lat="45.64588" lon="3.59785">
        <ele>772.4</ele>
      </trkpt>
      <trkpt lat="45.64583" lon="3.59774">
        <ele>772.2</ele>
      </trkpt>
      <trkpt lat="45.64568" lon="3.59791">
        <ele>773.7</ele>
      </trkpt>
      <trkpt lat="45.64558" lon="3.59802">
        <ele>775.1</ele>
      </trkpt>
      <trkpt lat="45.64548" lon="3.59814">
        <ele>776.7</ele>
      </trkpt>
      <trkpt lat="45.64538" lon="3.59825">
        <ele>778.6</ele>
      </trkpt>
      <trkpt lat="45.64528" lon="3.59837">
        <ele>780.7</ele>
      </trkpt>
      <trkpt lat="45.64528" lon="3.59837">
        <ele>780.7</ele>
      </trkpt>
      <trkpt lat="45.64516" lon="3.59851">
        <ele>783.9</ele>
      </trkpt>
      <trkpt lat="45.6451" lon="3.59857">
        <ele>785.4</ele>
      </trkpt>
      <trkpt lat="45.64504" lon="3.59863">
        <ele>787.1</ele>
      </trkpt>
      <trkpt lat="45.64497" lon="3.59867">
        <ele>788.1</ele>
      </trkpt>
      <trkpt lat="45.64488" lon="3.5987">
        <ele>788.4</ele>
      </trkpt>
      <trkpt lat="45.64476" lon="3.59872">
        <ele>788.5</ele>
      </trkpt>
      <trkpt lat="45.64469" lon="3.59874">
        <ele>788.6</ele>
      </trkpt>
      <trkpt lat="45.64456" lon="3.59881">
        <ele>789.3</ele>
      </trkpt>
      <trkpt lat="45.64444" lon="3.59888">
        <ele>789.9</ele>
      </trkpt>
      <trkpt lat="45.64432" lon="3.59894">
        <ele>790.5</ele>
      </trkpt>
      <trkpt lat="45.6442" lon="3.59901">
        <ele>791</ele>
      </trkpt>
      <trkpt lat="45.64408" lon="3.59908">
        <ele>792.5</ele>
      </trkpt>
      <trkpt lat="45.64396" lon="3.59916">
        <ele>794.4</ele>
      </trkpt>
      <trkpt lat="45.64384" lon="3.59924">
        <ele>796.7</ele>
      </trkpt>
      <trkpt lat="45.64365" lon="3.59936">
        <ele>799.9</ele>
      </trkpt>
      <trkpt lat="45.64348" lon="3.59945">
        <ele>802.2</ele>
      </trkpt>
      <trkpt lat="45.64329" lon="3.59955">
        <ele>804.6</ele>
      </trkpt>
      <trkpt lat="45.64315" lon="3.59962">
        <ele>806.8</ele>
      </trkpt>
      <trkpt lat="45.64306" lon="3.59968">
        <ele>808.3</ele>
      </trkpt>
      <trkpt lat="45.64301" lon="3.59971">
        <ele>809.2</ele>
      </trkpt>
      <trkpt lat="45.64297" lon="3.59976">
        <ele>810.1</ele>
      </trkpt>
      <trkpt lat="45.64291" lon="3.59983">
        <ele>811.3</ele>
      </trkpt>
      <trkpt lat="45.64285" lon="3.59988">
        <ele>812.3</ele>
      </trkpt>
      <trkpt lat="45.64276" lon="3.59993">
        <ele>813.4</ele>
      </trkpt>
      <trkpt lat="45.64268" lon="3.59995">
        <ele>814.3</ele>
      </trkpt>
      <trkpt lat="45.64255" lon="3.59997">
        <ele>815.4</ele>
      </trkpt>
      <trkpt lat="45.64245" lon="3.59998">
        <ele>816.1</ele>
      </trkpt>
      <trkpt lat="45.64237" lon="3.60001">
        <ele>816.7</ele>
      </trkpt>
      <trkpt lat="45.64231" lon="3.60004">
        <ele>817.1</ele>
      </trkpt>
      <trkpt lat="45.64226" lon="3.60006">
        <ele>817.5</ele>
      </trkpt>
      <trkpt lat="45.64224" lon="3.59991">
        <ele>816.5</ele>
      </trkpt>
      <trkpt lat="45.64222" lon="3.59981">
        <ele>815.9</ele>
      </trkpt>
      <trkpt lat="45.64219" lon="3.59971">
        <ele>815.3</ele>
      </trkpt>
      <trkpt lat="45.64215" lon="3.59957">
        <ele>814.3</ele>
      </trkpt>
      <trkpt lat="45.6421" lon="3.59939">
        <ele>813.1</ele>
      </trkpt>
      <trkpt lat="45.64204" lon="3.59913">
        <ele>811.4</ele>
      </trkpt>
      <trkpt lat="45.642" lon="3.59892">
        <ele>810.2</ele>
      </trkpt>
      <trkpt lat="45.64193" lon="3.59866">
        <ele>808.8</ele>
      </trkpt>
      <trkpt lat="45.64185" lon="3.59838">
        <ele>807.4</ele>
      </trkpt>
      <trkpt lat="45.64179" lon="3.59814">
        <ele>807</ele>
      </trkpt>
      <trkpt lat="45.64179" lon="3.59814">
        <ele>807</ele>
      </trkpt>
      <trkpt lat="45.64173" lon="3.59788">
        <ele>806.7</ele>
      </trkpt>
      <trkpt lat="45.64168" lon="3.59765">
        <ele>806.3</ele>
      </trkpt>
      <trkpt lat="45.64164" lon="3.59754">
        <ele>806.1</ele>
      </trkpt>
      <trkpt lat="45.64161" lon="3.59746">
        <ele>806.2</ele>
      </trkpt>
      <trkpt lat="45.64157" lon="3.59737">
        <ele>806.5</ele>
      </trkpt>
      <trkpt lat="45.64151" lon="3.59726">
        <ele>806.8</ele>
      </trkpt>
      <trkpt lat="45.64143" lon="3.59713">
        <ele>806.7</ele>
      </trkpt>
      <trkpt lat="45.64135" lon="3.597">
        <ele>806.2</ele>
      </trkpt>
      <trkpt lat="45.6413" lon="3.59691">
        <ele>805.9</ele>
      </trkpt>
      <trkpt lat="45.64125" lon="3.59681">
        <ele>805.3</ele>
      </trkpt>
      <trkpt lat="45.64122" lon="3.5967">
        <ele>804.6</ele>
      </trkpt>
      <trkpt lat="45.64118" lon="3.59656">
        <ele>803.8</ele>
      </trkpt>
      <trkpt lat="45.64114" lon="3.59633">
        <ele>802.4</ele>
      </trkpt>
      <trkpt lat="45.64111" lon="3.59611">
        <ele>801.3</ele>
      </trkpt>
      <trkpt lat="45.64107" lon="3.59592">
        <ele>800.2</ele>
      </trkpt>
      <trkpt lat="45.64102" lon="3.59586">
        <ele>799.3</ele>
      </trkpt>
      <trkpt lat="45.64091" lon="3.59584">
        <ele>798</ele>
      </trkpt>
      <trkpt lat="45.64071" lon="3.59581">
        <ele>795</ele>
      </trkpt>
      <trkpt lat="45.64057" lon="3.59578">
        <ele>792.8</ele>
      </trkpt>
      <trkpt lat="45.6405" lon="3.59577">
        <ele>791.7</ele>
      </trkpt>
      <trkpt lat="45.64045" lon="3.59575">
        <ele>790.8</ele>
      </trkpt>
      <trkpt lat="45.64034" lon="3.59571">
        <ele>789.1</ele>
      </trkpt>
      <trkpt lat="45.6403" lon="3.5957">
        <ele>788.4</ele>
      </trkpt>
      <trkpt lat="45.64034" lon="3.59571">
        <ele>789.1</ele>
      </trkpt>
      <trkpt lat="45.64045" lon="3.59575">
        <ele>790.8</ele>
      </trkpt>
      <trkpt lat="45.6405" lon="3.59577">
        <ele>791.7</ele>
      </trkpt>
      <trkpt lat="45.64057" lon="3.59578">
        <ele>792.8</ele>
      </trkpt>
      <trkpt lat="45.64071" lon="3.59581">
        <ele>795</ele>
      </trkpt>
      <trkpt lat="45.64091" lon="3.59584">
        <ele>798</ele>
      </trkpt>
      <trkpt lat="45.64102" lon="3.59586">
        <ele>799.3</ele>
      </trkpt>
      <trkpt lat="45.64107" lon="3.59592">
        <ele>800.2</ele>
      </trkpt>
      <trkpt lat="45.64111" lon="3.59611">
        <ele>801.3</ele>
      </trkpt>
      <trkpt lat="45.64114" lon="3.59633">
        <ele>802.4</ele>
      </trkpt>
      <trkpt lat="45.64118" lon="3.59656">
        <ele>803.8</ele>
      </trkpt>
      <trkpt lat="45.64122" lon="3.5967">
        <ele>804.6</ele>
      </trkpt>
      <trkpt lat="45.64125" lon="3.59681">
        <ele>805.3</ele>
      </trkpt>
      <trkpt lat="45.6413" lon="3.59691">
        <ele>805.9</ele>
      </trkpt>
      <trkpt lat="45.64135" lon="3.597">
        <ele>806.2</ele>
      </trkpt>
      <trkpt lat="45.64143" lon="3.59713">
        <ele>806.7</ele>
      </trkpt>
      <trkpt lat="45.64151" lon="3.59726">
        <ele>806.8</ele>
      </trkpt>
      <trkpt lat="45.64157" lon="3.59737">
        <ele>806.5</ele>
      </trkpt>
      <trkpt lat="45.64161" lon="3.59746">
        <ele>806.2</ele>
      </trkpt>
      <trkpt lat="45.64161" lon="3.59746">
        <ele>806.2</ele>
      </trkpt>
      <trkpt lat="45.64164" lon="3.59754">
        <ele>806.1</ele>
      </trkpt>
      <trkpt lat="45.64168" lon="3.59765">
        <ele>806.3</ele>
      </trkpt>
      <trkpt lat="45.64173" lon="3.59788">
        <ele>806.7</ele>
      </trkpt>
      <trkpt lat="45.64179" lon="3.59814">
        <ele>807</ele>
      </trkpt>
      <trkpt lat="45.64185" lon="3.59838">
        <ele>807.4</ele>
      </trkpt>
      <trkpt lat="45.64193" lon="3.59866">
        <ele>808.8</ele>
      </trkpt>
      <trkpt lat="45.642" lon="3.59892">
        <ele>810.2</ele>
      </trkpt>
      <trkpt lat="45.64204" lon="3.59913">
        <ele>811.4</ele>
      </trkpt>
      <trkpt lat="45.6421" lon="3.59939">
        <ele>813.1</ele>
      </trkpt>
      <trkpt lat="45.64215" lon="3.59957">
        <ele>814.3</ele>
      </trkpt>
      <trkpt lat="45.64219" lon="3.59971">
        <ele>815.3</ele>
      </trkpt>
      <trkpt lat="45.64222" lon="3.59981">
        <ele>815.9</ele>
      </trkpt>
      <trkpt lat="45.64224" lon="3.59991">
        <ele>816.5</ele>
      </trkpt>
      <trkpt lat="45.64226" lon="3.60006">
        <ele>817.5</ele>
      </trkpt>
      <trkpt lat="45.64214" lon="3.6002">
        <ele>818.9</ele>
      </trkpt>
      <trkpt lat="45.642" lon="3.60038">
        <ele>820.4</ele>
      </trkpt>
      <trkpt lat="45.64189" lon="3.60053">
        <ele>821.6</ele>
      </trkpt>
      <trkpt lat="45.64175" lon="3.60071">
        <ele>823.1</ele>
      </trkpt>
      <trkpt lat="45.64163" lon="3.60089">
        <ele>823.8</ele>
      </trkpt>
      <trkpt lat="45.64151" lon="3.60106">
        <ele>823.2</ele>
      </trkpt>
      <trkpt lat="45.64143" lon="3.60117">
        <ele>822.9</ele>
      </trkpt>
      <trkpt lat="45.64136" lon="3.60127">
        <ele>822.8</ele>
      </trkpt>
      <trkpt lat="45.6413" lon="3.60134">
        <ele>822.8</ele>
      </trkpt>
      <trkpt lat="45.64125" lon="3.6014">
        <ele>822.8</ele>
      </trkpt>
      <trkpt lat="45.64121" lon="3.60144">
        <ele>822.9</ele>
      </trkpt>
      <trkpt lat="45.64115" lon="3.60148">
        <ele>823</ele>
      </trkpt>
      <trkpt lat="45.64107" lon="3.60154">
        <ele>823.2</ele>
      </trkpt>
      <trkpt lat="45.64093" lon="3.60162">
        <ele>823.6</ele>
      </trkpt>
      <trkpt lat="45.64083" lon="3.60168">
        <ele>824</ele>
      </trkpt>
      <trkpt lat="45.64076" lon="3.60175">
        <ele>823.9</ele>
      </trkpt>
      <trkpt lat="45.64071" lon="3.60179">
        <ele>823.8</ele>
      </trkpt>
      <trkpt lat="45.64066" lon="3.60184">
        <ele>823.9</ele>
      </trkpt>
      <trkpt lat="45.64052" lon="3.60199">
        <ele>824.1</ele>
      </trkpt>
      <trkpt lat="45.64041" lon="3.60211">
        <ele>824.6</ele>
      </trkpt>
      <trkpt lat="45.64037" lon="3.60215">
        <ele>824.8</ele>
      </trkpt>
      <trkpt lat="45.64027" lon="3.60222">
        <ele>825.4</ele>
      </trkpt>
      <trkpt lat="45.64017" lon="3.6023">
        <ele>826.1</ele>
      </trkpt>
      <trkpt lat="45.64005" lon="3.60239">
        <ele>827.2</ele>
      </trkpt>
      <trkpt lat="45.64005" lon="3.60239">
        <ele>827.2</ele>
      </trkpt>
      <trkpt lat="45.63992" lon="3.60248">
        <ele>828.1</ele>
      </trkpt>
      <trkpt lat="45.63978" lon="3.6026">
        <ele>828.6</ele>
      </trkpt>
      <trkpt lat="45.63974" lon="3.60264">
        <ele>828.8</ele>
      </trkpt>
      <trkpt lat="45.63965" lon="3.60273">
        <ele>829.2</ele>
      </trkpt>
      <trkpt lat="45.63953" lon="3.60286">
        <ele>829.9</ele>
      </trkpt>
      <trkpt lat="45.6394" lon="3.603">
        <ele>830.7</ele>
      </trkpt>
      <trkpt lat="45.63929" lon="3.60312">
        <ele>831.6</ele>
      </trkpt>
      <trkpt lat="45.63929" lon="3.60312">
        <ele>831.6</ele>
      </trkpt>
      <trkpt lat="45.63918" lon="3.60324">
        <ele>832.6</ele>
      </trkpt>
      <trkpt lat="45.63901" lon="3.60343">
        <ele>834.9</ele>
      </trkpt>
      <trkpt lat="45.63895" lon="3.60348">
        <ele>835.6</ele>
      </trkpt>
      <trkpt lat="45.6388" lon="3.60352">
        <ele>837.2</ele>
      </trkpt>
      <trkpt lat="45.63867" lon="3.60353">
        <ele>838.4</ele>
      </trkpt>
      <trkpt lat="45.63853" lon="3.60353">
        <ele>839.8</ele>
      </trkpt>
      <trkpt lat="45.63838" lon="3.60353">
        <ele>841.2</ele>
      </trkpt>
      <trkpt lat="45.63821" lon="3.60352">
        <ele>842.6</ele>
      </trkpt>
      <trkpt lat="45.63804" lon="3.60352">
        <ele>843.9</ele>
      </trkpt>
      <trkpt lat="45.63792" lon="3.60351">
        <ele>844.8</ele>
      </trkpt>
      <trkpt lat="45.63781" lon="3.6035">
        <ele>845.6</ele>
      </trkpt>
      <trkpt lat="45.63776" lon="3.6035">
        <ele>846</ele>
      </trkpt>
      <trkpt lat="45.63764" lon="3.60349">
        <ele>846.9</ele>
      </trkpt>
      <trkpt lat="45.63753" lon="3.60348">
        <ele>847.8</ele>
      </trkpt>
      <trkpt lat="45.63741" lon="3.60345">
        <ele>849.4</ele>
      </trkpt>
      <trkpt lat="45.63725" lon="3.60339">
        <ele>851.6</ele>
      </trkpt>
      <trkpt lat="45.6371" lon="3.60332">
        <ele>853.6</ele>
      </trkpt>
      <trkpt lat="45.63691" lon="3.60321">
        <ele>855.3</ele>
      </trkpt>
      <trkpt lat="45.63681" lon="3.60315">
        <ele>856.1</ele>
      </trkpt>
      <trkpt lat="45.63673" lon="3.60312">
        <ele>856.8</ele>
      </trkpt>
      <trkpt lat="45.63669" lon="3.6031">
        <ele>857.2</ele>
      </trkpt>
      <trkpt lat="45.63663" lon="3.6031">
        <ele>857.8</ele>
      </trkpt>
      <trkpt lat="45.63656" lon="3.60311">
        <ele>858.5</ele>
      </trkpt>
      <trkpt lat="45.63651" lon="3.60313">
        <ele>859</ele>
      </trkpt>
      <trkpt lat="45.63644" lon="3.60318">
        <ele>860.1</ele>
      </trkpt>
      <trkpt lat="45.6364" lon="3.60324">
        <ele>861</ele>
      </trkpt>
      <trkpt lat="45.63636" lon="3.60333">
        <ele>862.2</ele>
      </trkpt>
      <trkpt lat="45.63632" lon="3.60343">
        <ele>862.6</ele>
      </trkpt>
      <trkpt lat="45.63628" lon="3.60348">
        <ele>862.8</ele>
      </trkpt>
      <trkpt lat="45.63624" lon="3.60353">
        <ele>863.2</ele>
      </trkpt>
      <trkpt lat="45.63619" lon="3.60358">
        <ele>863.6</ele>
      </trkpt>
      <trkpt lat="45.63609" lon="3.60367">
        <ele>864.4</ele>
      </trkpt>
      <trkpt lat="45.63592" lon="3.60383">
        <ele>865.9</ele>
      </trkpt>
      <trkpt lat="45.63585" lon="3.60386">
        <ele>866.5</ele>
      </trkpt>
      <trkpt lat="45.63585" lon="3.60386">
        <ele>866.5</ele>
      </trkpt>
      <trkpt lat="45.63578" lon="3.60389">
        <ele>866.8</ele>
      </trkpt>
      <trkpt lat="45.63562" lon="3.60391">
        <ele>867.4</ele>
      </trkpt>
      <trkpt lat="45.63557" lon="3.60393">
        <ele>867.5</ele>
      </trkpt>
      <trkpt lat="45.63552" lon="3.60395">
        <ele>867.7</ele>
      </trkpt>
      <trkpt lat="45.63544" lon="3.604">
        <ele>867.9</ele>
      </trkpt>
      <trkpt lat="45.63536" lon="3.60407">
        <ele>868.1</ele>
      </trkpt>
      <trkpt lat="45.63529" lon="3.60414">
        <ele>868.3</ele>
      </trkpt>
      <trkpt lat="45.63525" lon="3.60421">
        <ele>868.2</ele>
      </trkpt>
      <trkpt lat="45.63517" lon="3.60435">
        <ele>867.5</ele>
      </trkpt>
      <trkpt lat="45.63509" lon="3.60448">
        <ele>866.7</ele>
      </trkpt>
      <trkpt lat="45.63505" lon="3.60453">
        <ele>866.4</ele>
      </trkpt>
      <trkpt lat="45.63498" lon="3.6046">
        <ele>866</ele>
      </trkpt>
      <trkpt lat="45.63489" lon="3.60467">
        <ele>865.8</ele>
      </trkpt>
      <trkpt lat="45.63483" lon="3.60471">
        <ele>865.8</ele>
      </trkpt>
      <trkpt lat="45.63477" lon="3.60474">
        <ele>865.8</ele>
      </trkpt>
      <trkpt lat="45.63467" lon="3.60478">
        <ele>866</ele>
      </trkpt>
      <trkpt lat="45.63459" lon="3.6048">
        <ele>866.2</ele>
      </trkpt>
      <trkpt lat="45.63448" lon="3.60473">
        <ele>867</ele>
      </trkpt>
      <trkpt lat="45.63436" lon="3.60466">
        <ele>867.9</ele>
      </trkpt>
      <trkpt lat="45.63421" lon="3.60457">
        <ele>868.9</ele>
      </trkpt>
      <trkpt lat="45.63405" lon="3.60448">
        <ele>870.2</ele>
      </trkpt>
      <trkpt lat="45.63386" lon="3.60438">
        <ele>872</ele>
      </trkpt>
      <trkpt lat="45.63369" lon="3.60431">
        <ele>873.5</ele>
      </trkpt>
      <trkpt lat="45.63358" lon="3.60426">
        <ele>874.6</ele>
      </trkpt>
      <trkpt lat="45.63347" lon="3.60422">
        <ele>875.7</ele>
      </trkpt>
      <trkpt lat="45.63327" lon="3.60412">
        <ele>877.6</ele>
      </trkpt>
      <trkpt lat="45.63309" lon="3.60405">
        <ele>879.2</ele>
      </trkpt>
      <trkpt lat="45.63294" lon="3.60399">
        <ele>880.6</ele>
      </trkpt>
      <trkpt lat="45.6328" lon="3.60393">
        <ele>882</ele>
      </trkpt>
      <trkpt lat="45.63265" lon="3.60386">
        <ele>883.4</ele>
      </trkpt>
      <trkpt lat="45.63254" lon="3.60381">
        <ele>884.5</ele>
      </trkpt>
      <trkpt lat="45.63249" lon="3.60378">
        <ele>885</ele>
      </trkpt>
      <trkpt lat="45.63244" lon="3.60374">
        <ele>885.4</ele>
      </trkpt>
      <trkpt lat="45.63231" lon="3.60363">
        <ele>886.5</ele>
      </trkpt>
      <trkpt lat="45.63217" lon="3.60352">
        <ele>887.5</ele>
      </trkpt>
      <trkpt lat="45.63205" lon="3.60341">
        <ele>888.5</ele>
      </trkpt>
      <trkpt lat="45.63193" lon="3.60331">
        <ele>889.5</ele>
      </trkpt>
      <trkpt lat="45.6318" lon="3.60321">
        <ele>890.5</ele>
      </trkpt>
      <trkpt lat="45.63166" lon="3.60312">
        <ele>891.6</ele>
      </trkpt>
      <trkpt lat="45.63152" lon="3.60302">
        <ele>892.6</ele>
      </trkpt>
      <trkpt lat="45.63152" lon="3.60302">
        <ele>892.6</ele>
      </trkpt>
      <trkpt lat="45.63139" lon="3.60297">
        <ele>893.4</ele>
      </trkpt>
      <trkpt lat="45.63126" lon="3.60291">
        <ele>894.2</ele>
      </trkpt>
      <trkpt lat="45.63105" lon="3.60286">
        <ele>895.4</ele>
      </trkpt>
      <trkpt lat="45.63084" lon="3.60281">
        <ele>896.6</ele>
      </trkpt>
      <trkpt lat="45.63074" lon="3.60279">
        <ele>897.4</ele>
      </trkpt>
      <trkpt lat="45.63057" lon="3.60277">
        <ele>898.8</ele>
      </trkpt>
      <trkpt lat="45.6304" lon="3.60274">
        <ele>900.3</ele>
      </trkpt>
      <trkpt lat="45.63021" lon="3.60271">
        <ele>902</ele>
      </trkpt>
      <trkpt lat="45.63003" lon="3.60267">
        <ele>903.7</ele>
      </trkpt>
      <trkpt lat="45.62985" lon="3.60263">
        <ele>904.5</ele>
      </trkpt>
      <trkpt lat="45.62967" lon="3.6026">
        <ele>905</ele>
      </trkpt>
      <trkpt lat="45.62961" lon="3.60258">
        <ele>905.1</ele>
      </trkpt>
      <trkpt lat="45.62954" lon="3.60256">
        <ele>905.3</ele>
      </trkpt>
      <trkpt lat="45.62949" lon="3.60255">
        <ele>905.4</ele>
      </trkpt>
      <trkpt lat="45.62944" lon="3.60253">
        <ele>905.6</ele>
      </trkpt>
      <trkpt lat="45.62933" lon="3.60247">
        <ele>906.1</ele>
      </trkpt>
      <trkpt lat="45.62923" lon="3.60241">
        <ele>906.9</ele>
      </trkpt>
      <trkpt lat="45.62918" lon="3.60238">
        <ele>907.3</ele>
      </trkpt>
      <trkpt lat="45.62911" lon="3.60236">
        <ele>907.5</ele>
      </trkpt>
      <trkpt lat="45.62905" lon="3.60237">
        <ele>907.5</ele>
      </trkpt>
      <trkpt lat="45.62894" lon="3.60242">
        <ele>907.1</ele>
      </trkpt>
      <trkpt lat="45.62883" lon="3.60246">
        <ele>906.8</ele>
      </trkpt>
      <trkpt lat="45.62869" lon="3.60255">
        <ele>906.8</ele>
      </trkpt>
      <trkpt lat="45.62863" lon="3.6026">
        <ele>907.1</ele>
      </trkpt>
      <trkpt lat="45.62858" lon="3.60266">
        <ele>907.6</ele>
      </trkpt>
      <trkpt lat="45.6285" lon="3.60274">
        <ele>908.3</ele>
      </trkpt>
      <trkpt lat="45.62844" lon="3.60279">
        <ele>908.9</ele>
      </trkpt>
      <trkpt lat="45.62839" lon="3.60281">
        <ele>909.3</ele>
      </trkpt>
      <trkpt lat="45.62825" lon="3.60286">
        <ele>910.1</ele>
      </trkpt>
      <trkpt lat="45.62811" lon="3.6029">
        <ele>910.8</ele>
      </trkpt>
      <trkpt lat="45.62797" lon="3.60294">
        <ele>911.3</ele>
      </trkpt>
      <trkpt lat="45.62787" lon="3.603">
        <ele>912</ele>
      </trkpt>
      <trkpt lat="45.62781" lon="3.60306">
        <ele>912.5</ele>
      </trkpt>
      <trkpt lat="45.62765" lon="3.6032">
        <ele>913.9</ele>
      </trkpt>
      <trkpt lat="45.62752" lon="3.60345">
        <ele>915.9</ele>
      </trkpt>
      <trkpt lat="45.62744" lon="3.60364">
        <ele>917.9</ele>
      </trkpt>
      <trkpt lat="45.62735" lon="3.60384">
        <ele>920.1</ele>
      </trkpt>
      <trkpt lat="45.62728" lon="3.60402">
        <ele>922.3</ele>
      </trkpt>
      <trkpt lat="45.62728" lon="3.60402">
        <ele>922.3</ele>
      </trkpt>
      <trkpt lat="45.62715" lon="3.60422">
        <ele>925.8</ele>
      </trkpt>
      <trkpt lat="45.62702" lon="3.60431">
        <ele>928.4</ele>
      </trkpt>
      <trkpt lat="45.62686" lon="3.60439">
        <ele>931.2</ele>
      </trkpt>
      <trkpt lat="45.62667" lon="3.60439">
        <ele>933</ele>
      </trkpt>
      <trkpt lat="45.6265" lon="3.6044">
        <ele>932.7</ele>
      </trkpt>
      <trkpt lat="45.62633" lon="3.6044">
        <ele>932.3</ele>
      </trkpt>
      <trkpt lat="45.62616" lon="3.60441">
        <ele>932.1</ele>
      </trkpt>
      <trkpt lat="45.62609" lon="3.60441">
        <ele>931.9</ele>
      </trkpt>
      <trkpt lat="45.62598" lon="3.60439">
        <ele>931.4</ele>
      </trkpt>
      <trkpt lat="45.62579" lon="3.60434">
        <ele>930.4</ele>
      </trkpt>
      <trkpt lat="45.62571" lon="3.60432">
        <ele>930.3</ele>
      </trkpt>
      <trkpt lat="45.62557" lon="3.6043">
        <ele>930.3</ele>
      </trkpt>
      <trkpt lat="45.62544" lon="3.60427">
        <ele>930.4</ele>
      </trkpt>
      <trkpt lat="45.62531" lon="3.60425">
        <ele>930.4</ele>
      </trkpt>
      <trkpt lat="45.62508" lon="3.60423">
        <ele>930.6</ele>
      </trkpt>
      <trkpt lat="45.62492" lon="3.60421">
        <ele>930.9</ele>
      </trkpt>
      <trkpt lat="45.62471" lon="3.60421">
        <ele>931.6</ele>
      </trkpt>
      <trkpt lat="45.62462" lon="3.6042">
        <ele>931.8</ele>
      </trkpt>
      <trkpt lat="45.62453" lon="3.6042">
        <ele>932.1</ele>
      </trkpt>
      <trkpt lat="45.62438" lon="3.60414">
        <ele>932.1</ele>
      </trkpt>
      <trkpt lat="45.62422" lon="3.60409">
        <ele>932.6</ele>
      </trkpt>
      <trkpt lat="45.62411" lon="3.60405">
        <ele>932.8</ele>
      </trkpt>
      <trkpt lat="45.62399" lon="3.60403">
        <ele>932.9</ele>
      </trkpt>
      <trkpt lat="45.62392" lon="3.60403">
        <ele>932.9</ele>
      </trkpt>
      <trkpt lat="45.62378" lon="3.60404">
        <ele>933.1</ele>
      </trkpt>
      <trkpt lat="45.62365" lon="3.60404">
        <ele>933.2</ele>
      </trkpt>
      <trkpt lat="45.62357" lon="3.60404">
        <ele>933.3</ele>
      </trkpt>
      <trkpt lat="45.62349" lon="3.60404">
        <ele>933.4</ele>
      </trkpt>
      <trkpt lat="45.62331" lon="3.604">
        <ele>933.8</ele>
      </trkpt>
      <trkpt lat="45.62326" lon="3.60399">
        <ele>934.6</ele>
      </trkpt>
      <trkpt lat="45.62321" lon="3.60397">
        <ele>935.4</ele>
      </trkpt>
      <trkpt lat="45.62312" lon="3.60392">
        <ele>936.7</ele>
      </trkpt>
      <trkpt lat="45.62295" lon="3.60386">
        <ele>939.3</ele>
      </trkpt>
      <trkpt lat="45.62275" lon="3.60375">
        <ele>942</ele>
      </trkpt>
      <trkpt lat="45.62255" lon="3.60364">
        <ele>944.4</ele>
      </trkpt>
      <trkpt lat="45.62255" lon="3.60364">
        <ele>944.4</ele>
      </trkpt>
      <trkpt lat="45.6224" lon="3.60345">
        <ele>943.2</ele>
      </trkpt>
      <trkpt lat="45.62224" lon="3.60327">
        <ele>941</ele>
      </trkpt>
      <trkpt lat="45.62209" lon="3.60308">
        <ele>940</ele>
      </trkpt>
      <trkpt lat="45.62201" lon="3.603">
        <ele>939.7</ele>
      </trkpt>
      <trkpt lat="45.62192" lon="3.60294">
        <ele>939.4</ele>
      </trkpt>
      <trkpt lat="45.62178" lon="3.60284">
        <ele>939.1</ele>
      </trkpt>
      <trkpt lat="45.62173" lon="3.6028">
        <ele>939.1</ele>
      </trkpt>
      <trkpt lat="45.62167" lon="3.60275">
        <ele>939.1</ele>
      </trkpt>
      <trkpt lat="45.62163" lon="3.60271">
        <ele>939.1</ele>
      </trkpt>
      <trkpt lat="45.62158" lon="3.60269">
        <ele>939</ele>
      </trkpt>
      <trkpt lat="45.62152" lon="3.60265">
        <ele>939</ele>
      </trkpt>
      <trkpt lat="45.62148" lon="3.60262">
        <ele>938.9</ele>
      </trkpt>
      <trkpt lat="45.62142" lon="3.6026">
        <ele>938.8</ele>
      </trkpt>
      <trkpt lat="45.62137" lon="3.6026">
        <ele>938.6</ele>
      </trkpt>
      <trkpt lat="45.6213" lon="3.6026">
        <ele>938.4</ele>
      </trkpt>
      <trkpt lat="45.6212" lon="3.6026">
        <ele>938</ele>
      </trkpt>
      <trkpt lat="45.62116" lon="3.60261">
        <ele>937.8</ele>
      </trkpt>
      <trkpt lat="45.62096" lon="3.60272">
        <ele>936.9</ele>
      </trkpt>
      <trkpt lat="45.62094" lon="3.60261">
        <ele>937.1</ele>
      </trkpt>
      <trkpt lat="45.62091" lon="3.60252">
        <ele>937.2</ele>
      </trkpt>
      <trkpt lat="45.62081" lon="3.60231">
        <ele>939</ele>
      </trkpt>
      <trkpt lat="45.62072" lon="3.60209">
        <ele>941.8</ele>
      </trkpt>
      <trkpt lat="45.62066" lon="3.60199">
        <ele>943.4</ele>
      </trkpt>
      <trkpt lat="45.62058" lon="3.60186">
        <ele>945.7</ele>
      </trkpt>
      <trkpt lat="45.62052" lon="3.60179">
        <ele>947.2</ele>
      </trkpt>
      <trkpt lat="45.62039" lon="3.60163">
        <ele>950.3</ele>
      </trkpt>
      <trkpt lat="45.62042" lon="3.60156">
        <ele>950</ele>
      </trkpt>
      <trkpt lat="45.62034" lon="3.60144">
        <ele>951</ele>
      </trkpt>
      <trkpt lat="45.62025" lon="3.60133">
        <ele>952.1</ele>
      </trkpt>
      <trkpt lat="45.62012" lon="3.60123">
        <ele>954</ele>
      </trkpt>
      <trkpt lat="45.61995" lon="3.60112">
        <ele>956.2</ele>
      </trkpt>
      <trkpt lat="45.61978" lon="3.601">
        <ele>958.3</ele>
      </trkpt>
      <trkpt lat="45.61961" lon="3.60088">
        <ele>960.5</ele>
      </trkpt>
      <trkpt lat="45.61945" lon="3.60077">
        <ele>962.4</ele>
      </trkpt>
      <trkpt lat="45.61933" lon="3.60069">
        <ele>963.8</ele>
      </trkpt>
      <trkpt lat="45.61921" lon="3.60061">
        <ele>965.2</ele>
      </trkpt>
      <trkpt lat="45.61911" lon="3.60054">
        <ele>965.9</ele>
      </trkpt>
      <trkpt lat="45.61907" lon="3.60048">
        <ele>966.1</ele>
      </trkpt>
      <trkpt lat="45.61903" lon="3.60034">
        <ele>966.3</ele>
      </trkpt>
      <trkpt lat="45.619" lon="3.60005">
        <ele>966.6</ele>
      </trkpt>
      <trkpt lat="45.619" lon="3.60005">
        <ele>966.6</ele>
      </trkpt>
      <trkpt lat="45.61898" lon="3.59985">
        <ele>967.3</ele>
      </trkpt>
      <trkpt lat="45.61897" lon="3.59965">
        <ele>968.3</ele>
      </trkpt>
      <trkpt lat="45.61897" lon="3.59938">
        <ele>969.3</ele>
      </trkpt>
      <trkpt lat="45.61896" lon="3.59912">
        <ele>970.1</ele>
      </trkpt>
      <trkpt lat="45.61894" lon="3.59895">
        <ele>969.9</ele>
      </trkpt>
      <trkpt lat="45.6189" lon="3.59886">
        <ele>969.9</ele>
      </trkpt>
      <trkpt lat="45.61886" lon="3.5988">
        <ele>970</ele>
      </trkpt>
      <trkpt lat="45.61878" lon="3.59875">
        <ele>970.5</ele>
      </trkpt>
      <trkpt lat="45.6186" lon="3.59869">
        <ele>971.7</ele>
      </trkpt>
      <trkpt lat="45.61841" lon="3.59864">
        <ele>972.7</ele>
      </trkpt>
      <trkpt lat="45.61824" lon="3.59859">
        <ele>974.1</ele>
      </trkpt>
      <trkpt lat="45.61807" lon="3.59853">
        <ele>976.2</ele>
      </trkpt>
      <trkpt lat="45.61787" lon="3.59847">
        <ele>978.5</ele>
      </trkpt>
      <trkpt lat="45.61767" lon="3.5984">
        <ele>980.9</ele>
      </trkpt>
      <trkpt lat="45.61747" lon="3.59833">
        <ele>983.3</ele>
      </trkpt>
      <trkpt lat="45.6173" lon="3.59825">
        <ele>984.9</ele>
      </trkpt>
      <trkpt lat="45.61718" lon="3.59816">
        <ele>985.9</ele>
      </trkpt>
      <trkpt lat="45.61706" lon="3.59807">
        <ele>987</ele>
      </trkpt>
      <trkpt lat="45.61696" lon="3.59797">
        <ele>987.9</ele>
      </trkpt>
      <trkpt lat="45.61686" lon="3.59782">
        <ele>988.6</ele>
      </trkpt>
      <trkpt lat="45.61676" lon="3.59767">
        <ele>989.3</ele>
      </trkpt>
      <trkpt lat="45.61664" lon="3.59745">
        <ele>990.3</ele>
      </trkpt>
      <trkpt lat="45.61652" lon="3.59723">
        <ele>991.5</ele>
      </trkpt>
      <trkpt lat="45.61641" lon="3.59702">
        <ele>992.3</ele>
      </trkpt>
      <trkpt lat="45.6163" lon="3.5968">
        <ele>992.9</ele>
      </trkpt>
      <trkpt lat="45.61616" lon="3.59657">
        <ele>993.5</ele>
      </trkpt>
      <trkpt lat="45.6161" lon="3.59649">
        <ele>993.9</ele>
      </trkpt>
      <trkpt lat="45.61603" lon="3.59646">
        <ele>994.4</ele>
      </trkpt>
      <trkpt lat="45.61591" lon="3.59648">
        <ele>995</ele>
      </trkpt>
      <trkpt lat="45.6157" lon="3.59659">
        <ele>994</ele>
      </trkpt>
      <trkpt lat="45.61558" lon="3.59666">
        <ele>992.6</ele>
      </trkpt>
      <trkpt lat="45.61558" lon="3.59666">
        <ele>992.6</ele>
      </trkpt>
      <trkpt lat="45.61546" lon="3.59673">
        <ele>991.6</ele>
      </trkpt>
      <trkpt lat="45.61528" lon="3.59681">
        <ele>990.2</ele>
      </trkpt>
      <trkpt lat="45.61523" lon="3.59666">
        <ele>989.2</ele>
      </trkpt>
      <trkpt lat="45.61519" lon="3.59654">
        <ele>989.5</ele>
      </trkpt>
      <trkpt lat="45.61515" lon="3.59643">
        <ele>989.8</ele>
      </trkpt>
      <trkpt lat="45.61512" lon="3.59635">
        <ele>989.9</ele>
      </trkpt>
      <trkpt lat="45.61506" lon="3.59624">
        <ele>990</ele>
      </trkpt>
      <trkpt lat="45.61497" lon="3.59613">
        <ele>989.9</ele>
      </trkpt>
      <trkpt lat="45.61487" lon="3.59599">
        <ele>989.5</ele>
      </trkpt>
      <trkpt lat="45.61482" lon="3.59591">
        <ele>989.2</ele>
      </trkpt>
      <trkpt lat="45.61478" lon="3.59584">
        <ele>989</ele>
      </trkpt>
      <trkpt lat="45.61474" lon="3.59575">
        <ele>989.3</ele>
      </trkpt>
      <trkpt lat="45.61465" lon="3.59549">
        <ele>990.6</ele>
      </trkpt>
      <trkpt lat="45.61456" lon="3.59522">
        <ele>991.6</ele>
      </trkpt>
      <trkpt lat="45.61446" lon="3.59495">
        <ele>992.5</ele>
      </trkpt>
      <trkpt lat="45.61436" lon="3.59473">
        <ele>993.7</ele>
      </trkpt>
      <trkpt lat="45.61424" lon="3.5945">
        <ele>995.2</ele>
      </trkpt>
      <trkpt lat="45.61416" lon="3.59426">
        <ele>997.7</ele>
      </trkpt>
      <trkpt lat="45.61411" lon="3.59414">
        <ele>999.4</ele>
      </trkpt>
      <trkpt lat="45.61403" lon="3.59401">
        <ele>1000.3</ele>
      </trkpt>
      <trkpt lat="45.61394" lon="3.59395">
        <ele>1000.9</ele>
      </trkpt>
      <trkpt lat="45.61388" lon="3.59389">
        <ele>1001.5</ele>
      </trkpt>
      <trkpt lat="45.61378" lon="3.59382">
        <ele>1002.4</ele>
      </trkpt>
      <trkpt lat="45.6136" lon="3.59372">
        <ele>1003.8</ele>
      </trkpt>
      <trkpt lat="45.61342" lon="3.59362">
        <ele>1005.4</ele>
      </trkpt>
      <trkpt lat="45.61324" lon="3.59352">
        <ele>1006.5</ele>
      </trkpt>
      <trkpt lat="45.61308" lon="3.59345">
        <ele>1007</ele>
      </trkpt>
      <trkpt lat="45.61291" lon="3.59337">
        <ele>1007.4</ele>
      </trkpt>
      <trkpt lat="45.61275" lon="3.5933">
        <ele>1007.5</ele>
      </trkpt>
      <trkpt lat="45.61254" lon="3.59327">
        <ele>1007.6</ele>
      </trkpt>
      <trkpt lat="45.61233" lon="3.59325">
        <ele>1006.6</ele>
      </trkpt>
      <trkpt lat="45.61211" lon="3.59322">
        <ele>1005.5</ele>
      </trkpt>
      <trkpt lat="45.61189" lon="3.5932">
        <ele>1004.5</ele>
      </trkpt>
      <trkpt lat="45.61189" lon="3.5932">
        <ele>1004.5</ele>
      </trkpt>
      <trkpt lat="45.61167" lon="3.59317">
        <ele>1003.6</ele>
      </trkpt>
      <trkpt lat="45.61146" lon="3.59313">
        <ele>1002.2</ele>
      </trkpt>
      <trkpt lat="45.61125" lon="3.59309">
        <ele>1000.9</ele>
      </trkpt>
      <trkpt lat="45.61106" lon="3.593">
        <ele>1000.2</ele>
      </trkpt>
      <trkpt lat="45.61087" lon="3.59291">
        <ele>999.8</ele>
      </trkpt>
      <trkpt lat="45.61068" lon="3.59282">
        <ele>999.4</ele>
      </trkpt>
      <trkpt lat="45.61053" lon="3.59271">
        <ele>999.4</ele>
      </trkpt>
      <trkpt lat="45.61039" lon="3.5926">
        <ele>999.5</ele>
      </trkpt>
      <trkpt lat="45.61019" lon="3.59258">
        <ele>998.5</ele>
      </trkpt>
      <trkpt lat="45.61" lon="3.59257">
        <ele>997.4</ele>
      </trkpt>
      <trkpt lat="45.60983" lon="3.59258">
        <ele>997.1</ele>
      </trkpt>
      <trkpt lat="45.60966" lon="3.5926">
        <ele>996.9</ele>
      </trkpt>
      <trkpt lat="45.60951" lon="3.59265">
        <ele>996.4</ele>
      </trkpt>
      <trkpt lat="45.60926" lon="3.59254">
        <ele>996.9</ele>
      </trkpt>
      <trkpt lat="45.60911" lon="3.59253">
        <ele>997</ele>
      </trkpt>
      <trkpt lat="45.60901" lon="3.5924">
        <ele>997.5</ele>
      </trkpt>
      <trkpt lat="45.60882" lon="3.59223">
        <ele>998.1</ele>
      </trkpt>
      <trkpt lat="45.60867" lon="3.59205">
        <ele>998.6</ele>
      </trkpt>
      <trkpt lat="45.60787" lon="3.59175">
        <ele>998.8</ele>
      </trkpt>
      <trkpt lat="45.60686" lon="3.59128">
        <ele>995.4</ele>
      </trkpt>
      <trkpt lat="45.60672" lon="3.59118">
        <ele>995</ele>
      </trkpt>
      <trkpt lat="45.60672" lon="3.59118">
        <ele>995</ele>
      </trkpt>
      <trkpt lat="45.60657" lon="3.59109">
        <ele>995.5</ele>
      </trkpt>
      <trkpt lat="45.60639" lon="3.59098">
        <ele>997</ele>
      </trkpt>
      <trkpt lat="45.60621" lon="3.59087">
        <ele>999</ele>
      </trkpt>
      <trkpt lat="45.60603" lon="3.59076">
        <ele>1001.4</ele>
      </trkpt>
      <trkpt lat="45.60585" lon="3.59065">
        <ele>1003.8</ele>
      </trkpt>
      <trkpt lat="45.60567" lon="3.59054">
        <ele>1005.7</ele>
      </trkpt>
      <trkpt lat="45.60552" lon="3.59045">
        <ele>1007.1</ele>
      </trkpt>
      <trkpt lat="45.60537" lon="3.59036">
        <ele>1008.3</ele>
      </trkpt>
      <trkpt lat="45.60522" lon="3.59027">
        <ele>1009.4</ele>
      </trkpt>
      <trkpt lat="45.60522" lon="3.59027">
        <ele>1009.4</ele>
      </trkpt>
      <trkpt lat="45.60515" lon="3.59021">
        <ele>1009.7</ele>
      </trkpt>
      <trkpt lat="45.60502" lon="3.59009">
        <ele>1010.3</ele>
      </trkpt>
      <trkpt lat="45.60488" lon="3.58998">
        <ele>1010.4</ele>
      </trkpt>
      <trkpt lat="45.60474" lon="3.58989">
        <ele>1010.9</ele>
      </trkpt>
      <trkpt lat="45.60459" lon="3.5898">
        <ele>1011.3</ele>
      </trkpt>
      <trkpt lat="45.60438" lon="3.58979">
        <ele>1012</ele>
      </trkpt>
      <trkpt lat="45.60417" lon="3.58978">
        <ele>1012.7</ele>
      </trkpt>
      <trkpt lat="45.60404" lon="3.58974">
        <ele>1012.6</ele>
      </trkpt>
      <trkpt lat="45.60392" lon="3.5897">
        <ele>1012.4</ele>
      </trkpt>
      <trkpt lat="45.60372" lon="3.58963">
        <ele>1012.1</ele>
      </trkpt>
      <trkpt lat="45.60353" lon="3.58957">
        <ele>1011.7</ele>
      </trkpt>
      <trkpt lat="45.60333" lon="3.5895">
        <ele>1011.2</ele>
      </trkpt>
      <trkpt lat="45.60317" lon="3.58939">
        <ele>1011.1</ele>
      </trkpt>
      <trkpt lat="45.603" lon="3.58927">
        <ele>1011.1</ele>
      </trkpt>
      <trkpt lat="45.60284" lon="3.58916">
        <ele>1011.2</ele>
      </trkpt>
      <trkpt lat="45.60268" lon="3.58905">
        <ele>1011.6</ele>
      </trkpt>
      <trkpt lat="45.60249" lon="3.58888">
        <ele>1012.4</ele>
      </trkpt>
      <trkpt lat="45.6023" lon="3.58871">
        <ele>1013.4</ele>
      </trkpt>
      <trkpt lat="45.6023" lon="3.58871">
        <ele>1013.4</ele>
      </trkpt>
      <trkpt lat="45.60211" lon="3.58854">
        <ele>1014.8</ele>
      </trkpt>
      <trkpt lat="45.602" lon="3.58842">
        <ele>1015.7</ele>
      </trkpt>
      <trkpt lat="45.60188" lon="3.5883">
        <ele>1017</ele>
      </trkpt>
      <trkpt lat="45.60177" lon="3.58815">
        <ele>1019</ele>
      </trkpt>
      <trkpt lat="45.60167" lon="3.58805">
        <ele>1020.4</ele>
      </trkpt>
      <trkpt lat="45.60161" lon="3.588">
        <ele>1020.6</ele>
      </trkpt>
      <trkpt lat="45.60151" lon="3.58793">
        <ele>1020.8</ele>
      </trkpt>
      <trkpt lat="45.60137" lon="3.58782">
        <ele>1020.9</ele>
      </trkpt>
      <trkpt lat="45.60131" lon="3.58777">
        <ele>1020.9</ele>
      </trkpt>
      <trkpt lat="45.60124" lon="3.58769">
        <ele>1021</ele>
      </trkpt>
      <trkpt lat="45.6012" lon="3.58763">
        <ele>1021</ele>
      </trkpt>
      <trkpt lat="45.60113" lon="3.58752">
        <ele>1021</ele>
      </trkpt>
      <trkpt lat="45.60099" lon="3.58734">
        <ele>1020</ele>
      </trkpt>
      <trkpt lat="45.60094" lon="3.58727">
        <ele>1019.7</ele>
      </trkpt>
      <trkpt lat="45.6009" lon="3.58719">
        <ele>1019.4</ele>
      </trkpt>
      <trkpt lat="45.6008" lon="3.58698">
        <ele>1018.9</ele>
      </trkpt>
      <trkpt lat="45.60075" lon="3.58686">
        <ele>1018.7</ele>
      </trkpt>
      <trkpt lat="45.60067" lon="3.58662">
        <ele>1018.2</ele>
      </trkpt>
      <trkpt lat="45.60059" lon="3.58639">
        <ele>1017.1</ele>
      </trkpt>
      <trkpt lat="45.60056" lon="3.58627">
        <ele>1016.7</ele>
      </trkpt>
      <trkpt lat="45.60052" lon="3.58616">
        <ele>1016.4</ele>
      </trkpt>
      <trkpt lat="45.60041" lon="3.58589">
        <ele>1016.1</ele>
      </trkpt>
      <trkpt lat="45.60034" lon="3.58572">
        <ele>1015.5</ele>
      </trkpt>
      <trkpt lat="45.60026" lon="3.58555">
        <ele>1014.8</ele>
      </trkpt>
      <trkpt lat="45.60019" lon="3.58538">
        <ele>1014.3</ele>
      </trkpt>
      <trkpt lat="45.60012" lon="3.58521">
        <ele>1014.2</ele>
      </trkpt>
      <trkpt lat="45.60006" lon="3.58507">
        <ele>1014.4</ele>
      </trkpt>
      <trkpt lat="45.59999" lon="3.58493">
        <ele>1014.5</ele>
      </trkpt>
      <trkpt lat="45.59983" lon="3.58475">
        <ele>1013.9</ele>
      </trkpt>
      <trkpt lat="45.59966" lon="3.58457">
        <ele>1013.4</ele>
      </trkpt>
      <trkpt lat="45.5995" lon="3.58438">
        <ele>1013.1</ele>
      </trkpt>
      <trkpt lat="45.59933" lon="3.5842">
        <ele>1013</ele>
      </trkpt>
      <trkpt lat="45.59917" lon="3.58401">
        <ele>1012.5</ele>
      </trkpt>
      <trkpt lat="45.59903" lon="3.58389">
        <ele>1011.2</ele>
      </trkpt>
      <trkpt lat="45.59903" lon="3.58389">
        <ele>1011.2</ele>
      </trkpt>
      <trkpt lat="45.59889" lon="3.58377">
        <ele>1010</ele>
      </trkpt>
      <trkpt lat="45.59876" lon="3.58363">
        <ele>1008.8</ele>
      </trkpt>
      <trkpt lat="45.59867" lon="3.58353">
        <ele>1008.1</ele>
      </trkpt>
      <trkpt lat="45.59855" lon="3.5834">
        <ele>1007.2</ele>
      </trkpt>
      <trkpt lat="45.59844" lon="3.58326">
        <ele>1006.2</ele>
      </trkpt>
      <trkpt lat="45.59831" lon="3.58314">
        <ele>1005.3</ele>
      </trkpt>
      <trkpt lat="45.59819" lon="3.58301">
        <ele>1004</ele>
      </trkpt>
      <trkpt lat="45.59806" lon="3.58288">
        <ele>1002.7</ele>
      </trkpt>
      <trkpt lat="45.59794" lon="3.58275">
        <ele>1001.5</ele>
      </trkpt>
      <trkpt lat="45.59781" lon="3.58263">
        <ele>1000.3</ele>
      </trkpt>
      <trkpt lat="45.5977" lon="3.58251">
        <ele>999.3</ele>
      </trkpt>
      <trkpt lat="45.5976" lon="3.58239">
        <ele>999.3</ele>
      </trkpt>
      <trkpt lat="45.59754" lon="3.58233">
        <ele>999.4</ele>
      </trkpt>
      <trkpt lat="45.59752" lon="3.58241">
        <ele>999.2</ele>
      </trkpt>
      <trkpt lat="45.59747" lon="3.58233">
        <ele>999.3</ele>
      </trkpt>
      <trkpt lat="45.59738" lon="3.58221">
        <ele>999.3</ele>
      </trkpt>
      <trkpt lat="45.59728" lon="3.58208">
        <ele>999.5</ele>
      </trkpt>
      <trkpt lat="45.59718" lon="3.58195">
        <ele>999.8</ele>
      </trkpt>
      <trkpt lat="45.59709" lon="3.58184">
        <ele>1000.2</ele>
      </trkpt>
      <trkpt lat="45.59699" lon="3.58173">
        <ele>1000.7</ele>
      </trkpt>
      <trkpt lat="45.59691" lon="3.58162">
        <ele>1001.2</ele>
      </trkpt>
      <trkpt lat="45.59678" lon="3.58147">
        <ele>1002.1</ele>
      </trkpt>
      <trkpt lat="45.59665" lon="3.58131">
        <ele>1003.3</ele>
      </trkpt>
      <trkpt lat="45.59652" lon="3.58115">
        <ele>1005</ele>
      </trkpt>
      <trkpt lat="45.59642" lon="3.58102">
        <ele>1006.5</ele>
      </trkpt>
      <trkpt lat="45.59633" lon="3.58087">
        <ele>1008.2</ele>
      </trkpt>
      <trkpt lat="45.59618" lon="3.58066">
        <ele>1009.3</ele>
      </trkpt>
      <trkpt lat="45.59604" lon="3.58045">
        <ele>1010.3</ele>
      </trkpt>
      <trkpt lat="45.59589" lon="3.58024">
        <ele>1011.5</ele>
      </trkpt>
      <trkpt lat="45.5957" lon="3.5801">
        <ele>1012.1</ele>
      </trkpt>
      <trkpt lat="45.59551" lon="3.57996">
        <ele>1012.2</ele>
      </trkpt>
      <trkpt lat="45.59535" lon="3.57975">
        <ele>1011.6</ele>
      </trkpt>
      <trkpt lat="45.59535" lon="3.57975">
        <ele>1011.6</ele>
      </trkpt>
      <trkpt lat="45.59519" lon="3.57954">
        <ele>1011.3</ele>
      </trkpt>
      <trkpt lat="45.59502" lon="3.57932">
        <ele>1011.3</ele>
      </trkpt>
      <trkpt lat="45.59486" lon="3.57911">
        <ele>1011.1</ele>
      </trkpt>
      <trkpt lat="45.5947" lon="3.5789">
        <ele>1010.8</ele>
      </trkpt>
      <trkpt lat="45.59456" lon="3.57867">
        <ele>1011</ele>
      </trkpt>
      <trkpt lat="45.59442" lon="3.57845">
        <ele>1011.7</ele>
      </trkpt>
      <trkpt lat="45.59428" lon="3.57822">
        <ele>1014.4</ele>
      </trkpt>
      <trkpt lat="45.59414" lon="3.578">
        <ele>1019.1</ele>
      </trkpt>
      <trkpt lat="45.594" lon="3.57777">
        <ele>1023.1</ele>
      </trkpt>
      <trkpt lat="45.59385" lon="3.57754">
        <ele>1026.6</ele>
      </trkpt>
      <trkpt lat="45.59371" lon="3.57732">
        <ele>1029.5</ele>
      </trkpt>
      <trkpt lat="45.5936" lon="3.57715">
        <ele>1031.4</ele>
      </trkpt>
      <trkpt lat="45.59348" lon="3.57699">
        <ele>1033.1</ele>
      </trkpt>
      <trkpt lat="45.59334" lon="3.5768">
        <ele>1034.9</ele>
      </trkpt>
      <trkpt lat="45.59329" lon="3.57654">
        <ele>1036.1</ele>
      </trkpt>
      <trkpt lat="45.59324" lon="3.57628">
        <ele>1036.4</ele>
      </trkpt>
      <trkpt lat="45.59318" lon="3.57621">
        <ele>1036.3</ele>
      </trkpt>
      <trkpt lat="45.59306" lon="3.57608">
        <ele>1035.9</ele>
      </trkpt>
      <trkpt lat="45.59292" lon="3.57597">
        <ele>1035.3</ele>
      </trkpt>
      <trkpt lat="45.59279" lon="3.57588">
        <ele>1034.6</ele>
      </trkpt>
      <trkpt lat="45.59268" lon="3.57579">
        <ele>1034.2</ele>
      </trkpt>
      <trkpt lat="45.59261" lon="3.57571">
        <ele>1034</ele>
      </trkpt>
      <trkpt lat="45.59256" lon="3.57557">
        <ele>1034.2</ele>
      </trkpt>
      <trkpt lat="45.59245" lon="3.57536">
        <ele>1034.7</ele>
      </trkpt>
      <trkpt lat="45.59232" lon="3.5752">
        <ele>1035.3</ele>
      </trkpt>
      <trkpt lat="45.59215" lon="3.57505">
        <ele>1036.2</ele>
      </trkpt>
      <trkpt lat="45.59199" lon="3.5749">
        <ele>1036.7</ele>
      </trkpt>
      <trkpt lat="45.59199" lon="3.5749">
        <ele>1036.7</ele>
      </trkpt>
      <trkpt lat="45.59188" lon="3.57485">
        <ele>1037</ele>
      </trkpt>
      <trkpt lat="45.59174" lon="3.57484">
        <ele>1037.4</ele>
      </trkpt>
      <trkpt lat="45.59159" lon="3.57486">
        <ele>1037.8</ele>
      </trkpt>
      <trkpt lat="45.59143" lon="3.57487">
        <ele>1038.3</ele>
      </trkpt>
      <trkpt lat="45.59128" lon="3.57489">
        <ele>1038.8</ele>
      </trkpt>
      <trkpt lat="45.59107" lon="3.57485">
        <ele>1039.6</ele>
      </trkpt>
      <trkpt lat="45.59086" lon="3.57481">
        <ele>1040.3</ele>
      </trkpt>
      <trkpt lat="45.5907" lon="3.57464">
        <ele>1040.4</ele>
      </trkpt>
      <trkpt lat="45.59053" lon="3.57447">
        <ele>1040.1</ele>
      </trkpt>
      <trkpt lat="45.59037" lon="3.5743">
        <ele>1039.6</ele>
      </trkpt>
      <trkpt lat="45.5902" lon="3.57413">
        <ele>1039</ele>
      </trkpt>
      <trkpt lat="45.59004" lon="3.57396">
        <ele>1038.6</ele>
      </trkpt>
      <trkpt lat="45.58987" lon="3.57379">
        <ele>1038.8</ele>
      </trkpt>
      <trkpt lat="45.58971" lon="3.57362">
        <ele>1038.8</ele>
      </trkpt>
      <trkpt lat="45.58953" lon="3.57362">
        <ele>1038.6</ele>
      </trkpt>
      <trkpt lat="45.58932" lon="3.57364">
        <ele>1038.2</ele>
      </trkpt>
      <trkpt lat="45.5891" lon="3.57367">
        <ele>1038.2</ele>
      </trkpt>
      <trkpt lat="45.58894" lon="3.57369">
        <ele>1038.5</ele>
      </trkpt>
      <trkpt lat="45.58878" lon="3.5737">
        <ele>1038.9</ele>
      </trkpt>
      <trkpt lat="45.58862" lon="3.5737">
        <ele>1039.3</ele>
      </trkpt>
      <trkpt lat="45.58845" lon="3.57369">
        <ele>1039.7</ele>
      </trkpt>
      <trkpt lat="45.58832" lon="3.57367">
        <ele>1040</ele>
      </trkpt>
      <trkpt lat="45.58819" lon="3.57365">
        <ele>1040.3</ele>
      </trkpt>
      <trkpt lat="45.58802" lon="3.57362">
        <ele>1040.7</ele>
      </trkpt>
      <trkpt lat="45.58785" lon="3.57358">
        <ele>1041.2</ele>
      </trkpt>
      <trkpt lat="45.58774" lon="3.57355">
        <ele>1041.6</ele>
      </trkpt>
      <trkpt lat="45.58768" lon="3.57354">
        <ele>1041.8</ele>
      </trkpt>
      <trkpt lat="45.58768" lon="3.57354">
        <ele>1041.8</ele>
      </trkpt>
      <trkpt lat="45.58753" lon="3.57354">
        <ele>1042.2</ele>
      </trkpt>
      <trkpt lat="45.58742" lon="3.57354">
        <ele>1042.2</ele>
      </trkpt>
      <trkpt lat="45.5873" lon="3.57354">
        <ele>1042.2</ele>
      </trkpt>
      <trkpt lat="45.58721" lon="3.57354">
        <ele>1042.2</ele>
      </trkpt>
      <trkpt lat="45.58702" lon="3.5735">
        <ele>1042.3</ele>
      </trkpt>
      <trkpt lat="45.58684" lon="3.57346">
        <ele>1042.4</ele>
      </trkpt>
      <trkpt lat="45.58662" lon="3.57339">
        <ele>1042.5</ele>
      </trkpt>
      <trkpt lat="45.58641" lon="3.57332">
        <ele>1041.8</ele>
      </trkpt>
      <trkpt lat="45.58622" lon="3.57319">
        <ele>1041.4</ele>
      </trkpt>
      <trkpt lat="45.58604" lon="3.57307">
        <ele>1040.6</ele>
      </trkpt>
      <trkpt lat="45.58586" lon="3.57295">
        <ele>1039.6</ele>
      </trkpt>
      <trkpt lat="45.58581" lon="3.57284">
        <ele>1039.4</ele>
      </trkpt>
      <trkpt lat="45.58577" lon="3.57277">
        <ele>1039.2</ele>
      </trkpt>
      <trkpt lat="45.58573" lon="3.57263">
        <ele>1039</ele>
      </trkpt>
      <trkpt lat="45.58571" lon="3.57255">
        <ele>1038.9</ele>
      </trkpt>
      <trkpt lat="45.5857" lon="3.57244">
        <ele>1038.9</ele>
      </trkpt>
      <trkpt lat="45.58568" lon="3.57223">
        <ele>1039</ele>
      </trkpt>
      <trkpt lat="45.58567" lon="3.57201">
        <ele>1038.9</ele>
      </trkpt>
      <trkpt lat="45.58564" lon="3.57188">
        <ele>1038.7</ele>
      </trkpt>
      <trkpt lat="45.58561" lon="3.5718">
        <ele>1038.5</ele>
      </trkpt>
      <trkpt lat="45.58553" lon="3.57166">
        <ele>1037.6</ele>
      </trkpt>
      <trkpt lat="45.58547" lon="3.57159">
        <ele>1036.7</ele>
      </trkpt>
      <trkpt lat="45.58539" lon="3.57153">
        <ele>1035.6</ele>
      </trkpt>
      <trkpt lat="45.58535" lon="3.57152">
        <ele>1035</ele>
      </trkpt>
      <trkpt lat="45.58526" lon="3.57152">
        <ele>1034.1</ele>
      </trkpt>
      <trkpt lat="45.58521" lon="3.57153">
        <ele>1033.6</ele>
      </trkpt>
      <trkpt lat="45.58509" lon="3.57156">
        <ele>1032.4</ele>
      </trkpt>
      <trkpt lat="45.58497" lon="3.57159">
        <ele>1031.5</ele>
      </trkpt>
      <trkpt lat="45.58492" lon="3.57159">
        <ele>1031.3</ele>
      </trkpt>
      <trkpt lat="45.58484" lon="3.57158">
        <ele>1030.9</ele>
      </trkpt>
      <trkpt lat="45.58477" lon="3.57155">
        <ele>1030.5</ele>
      </trkpt>
      <trkpt lat="45.58469" lon="3.5715">
        <ele>1029.9</ele>
      </trkpt>
      <trkpt lat="45.58454" lon="3.57141">
        <ele>1028.6</ele>
      </trkpt>
      <trkpt lat="45.58442" lon="3.57132">
        <ele>1027.3</ele>
      </trkpt>
      <trkpt lat="45.58431" lon="3.57127">
        <ele>1026.5</ele>
      </trkpt>
      <trkpt lat="45.58417" lon="3.57121">
        <ele>1025.2</ele>
      </trkpt>
      <trkpt lat="45.58406" lon="3.57117">
        <ele>1024.6</ele>
      </trkpt>
      <trkpt lat="45.58395" lon="3.57113">
        <ele>1024</ele>
      </trkpt>
      <trkpt lat="45.58385" lon="3.57109">
        <ele>1023.5</ele>
      </trkpt>
      <trkpt lat="45.58385" lon="3.57109">
        <ele>1023.5</ele>
      </trkpt>
      <trkpt lat="45.58376" lon="3.57104">
        <ele>1022.9</ele>
      </trkpt>
      <trkpt lat="45.58367" lon="3.57099">
        <ele>1022.3</ele>
      </trkpt>
      <trkpt lat="45.5836" lon="3.57093">
        <ele>1021.5</ele>
      </trkpt>
      <trkpt lat="45.58349" lon="3.57082">
        <ele>1020.3</ele>
      </trkpt>
      <trkpt lat="45.58335" lon="3.57068">
        <ele>1019.1</ele>
      </trkpt>
      <trkpt lat="45.58322" lon="3.57055">
        <ele>1019.2</ele>
      </trkpt>
      <trkpt lat="45.58312" lon="3.57043">
        <ele>1019.4</ele>
      </trkpt>
      <trkpt lat="45.58308" lon="3.57038">
        <ele>1019.5</ele>
      </trkpt>
      <trkpt lat="45.58305" lon="3.57032">
        <ele>1019.4</ele>
      </trkpt>
      <trkpt lat="45.58301" lon="3.57025">
        <ele>1019.3</ele>
      </trkpt>
      <trkpt lat="45.58299" lon="3.57014">
        <ele>1019</ele>
      </trkpt>
      <trkpt lat="45.58298" lon="3.57001">
        <ele>1018.4</ele>
      </trkpt>
      <trkpt lat="45.58299" lon="3.56992">
        <ele>1018</ele>
      </trkpt>
      <trkpt lat="45.58302" lon="3.5698">
        <ele>1017.4</ele>
      </trkpt>
      <trkpt lat="45.58306" lon="3.56968">
        <ele>1016.6</ele>
      </trkpt>
      <trkpt lat="45.58308" lon="3.56958">
        <ele>1016.1</ele>
      </trkpt>
      <trkpt lat="45.58309" lon="3.56943">
        <ele>1015.5</ele>
      </trkpt>
      <trkpt lat="45.58308" lon="3.56936">
        <ele>1015.3</ele>
      </trkpt>
      <trkpt lat="45.58305" lon="3.56928">
        <ele>1015.4</ele>
      </trkpt>
      <trkpt lat="45.58297" lon="3.56912">
        <ele>1015.7</ele>
      </trkpt>
      <trkpt lat="45.58289" lon="3.56897">
        <ele>1015.7</ele>
      </trkpt>
      <trkpt lat="45.58281" lon="3.56882">
        <ele>1015.5</ele>
      </trkpt>
      <trkpt lat="45.5827" lon="3.56861">
        <ele>1015</ele>
      </trkpt>
      <trkpt lat="45.58259" lon="3.5684">
        <ele>1014.1</ele>
      </trkpt>
      <trkpt lat="45.58248" lon="3.56819">
        <ele>1013</ele>
      </trkpt>
      <trkpt lat="45.58233" lon="3.56805">
        <ele>1012.2</ele>
      </trkpt>
      <trkpt lat="45.58219" lon="3.56791">
        <ele>1011.3</ele>
      </trkpt>
      <trkpt lat="45.58204" lon="3.56777">
        <ele>1010.3</ele>
      </trkpt>
      <trkpt lat="45.5819" lon="3.56763">
        <ele>1009.1</ele>
      </trkpt>
      <trkpt lat="45.58172" lon="3.56755">
        <ele>1008.5</ele>
      </trkpt>
      <trkpt lat="45.58154" lon="3.56747">
        <ele>1008.5</ele>
      </trkpt>
      <trkpt lat="45.58136" lon="3.56739">
        <ele>1009</ele>
      </trkpt>
      <trkpt lat="45.58118" lon="3.56732">
        <ele>1009.4</ele>
      </trkpt>
      <trkpt lat="45.58104" lon="3.56717">
        <ele>1009</ele>
      </trkpt>
      <trkpt lat="45.5809" lon="3.56702">
        <ele>1008.6</ele>
      </trkpt>
      <trkpt lat="45.58076" lon="3.56687">
        <ele>1008</ele>
      </trkpt>
      <trkpt lat="45.58076" lon="3.56687">
        <ele>1008</ele>
      </trkpt>
      <trkpt lat="45.58062" lon="3.56672">
        <ele>1007.1</ele>
      </trkpt>
      <trkpt lat="45.58044" lon="3.56652">
        <ele>1005.2</ele>
      </trkpt>
      <trkpt lat="45.58027" lon="3.56633">
        <ele>1003.1</ele>
      </trkpt>
      <trkpt lat="45.58009" lon="3.56613">
        <ele>1000.9</ele>
      </trkpt>
      <trkpt lat="45.57992" lon="3.56594">
        <ele>999.3</ele>
      </trkpt>
      <trkpt lat="45.57974" lon="3.56574">
        <ele>998.5</ele>
      </trkpt>
      <trkpt lat="45.57957" lon="3.56555">
        <ele>997.5</ele>
      </trkpt>
      <trkpt lat="45.57939" lon="3.56535">
        <ele>996.6</ele>
      </trkpt>
      <trkpt lat="45.57922" lon="3.56516">
        <ele>995.7</ele>
      </trkpt>
      <trkpt lat="45.57904" lon="3.56496">
        <ele>994.8</ele>
      </trkpt>
      <trkpt lat="45.57887" lon="3.56476">
        <ele>993.6</ele>
      </trkpt>
      <trkpt lat="45.5787" lon="3.56456">
        <ele>992.1</ele>
      </trkpt>
      <trkpt lat="45.57853" lon="3.56437">
        <ele>990.5</ele>
      </trkpt>
      <trkpt lat="45.57836" lon="3.56417">
        <ele>988.7</ele>
      </trkpt>
      <trkpt lat="45.5782" lon="3.56397">
        <ele>987.2</ele>
      </trkpt>
      <trkpt lat="45.57803" lon="3.56377">
        <ele>985.4</ele>
      </trkpt>
      <trkpt lat="45.57786" lon="3.56357">
        <ele>983.6</ele>
      </trkpt>
      <trkpt lat="45.57769" lon="3.56337">
        <ele>981.7</ele>
      </trkpt>
      <trkpt lat="45.57764" lon="3.5633">
        <ele>980.9</ele>
      </trkpt>
      <trkpt lat="45.57762" lon="3.56324">
        <ele>980.5</ele>
      </trkpt>
      <trkpt lat="45.57762" lon="3.56316">
        <ele>979.7</ele>
      </trkpt>
      <trkpt lat="45.57761" lon="3.56306">
        <ele>978.7</ele>
      </trkpt>
      <trkpt lat="45.57749" lon="3.56296">
        <ele>977.9</ele>
      </trkpt>
      <trkpt lat="45.57736" lon="3.56285">
        <ele>976.7</ele>
      </trkpt>
      <trkpt lat="45.57718" lon="3.56269">
        <ele>974.4</ele>
      </trkpt>
      <trkpt lat="45.577" lon="3.56253">
        <ele>971.7</ele>
      </trkpt>
      <trkpt lat="45.577" lon="3.56253">
        <ele>971.7</ele>
      </trkpt>
      <trkpt lat="45.57682" lon="3.56238">
        <ele>968.6</ele>
      </trkpt>
      <trkpt lat="45.57664" lon="3.56222">
        <ele>964.8</ele>
      </trkpt>
      <trkpt lat="45.57646" lon="3.56206">
        <ele>961.4</ele>
      </trkpt>
      <trkpt lat="45.57627" lon="3.5619">
        <ele>958.3</ele>
      </trkpt>
      <trkpt lat="45.57609" lon="3.56174">
        <ele>955.4</ele>
      </trkpt>
      <trkpt lat="45.57591" lon="3.56158">
        <ele>952.3</ele>
      </trkpt>
      <trkpt lat="45.57572" lon="3.56153">
        <ele>951.1</ele>
      </trkpt>
      <trkpt lat="45.57553" lon="3.56147">
        <ele>950.1</ele>
      </trkpt>
      <trkpt lat="45.57533" lon="3.56142">
        <ele>949.3</ele>
      </trkpt>
      <trkpt lat="45.57527" lon="3.56123">
        <ele>946.1</ele>
      </trkpt>
      <trkpt lat="45.57522" lon="3.56121">
        <ele>946</ele>
      </trkpt>
      <trkpt lat="45.57515" lon="3.56118">
        <ele>945.6</ele>
      </trkpt>
      <trkpt lat="45.57511" lon="3.56114">
        <ele>945.1</ele>
      </trkpt>
      <trkpt lat="45.57507" lon="3.56108">
        <ele>944.4</ele>
      </trkpt>
      <trkpt lat="45.57487" lon="3.56102">
        <ele>946.3</ele>
      </trkpt>
      <trkpt lat="45.57475" lon="3.56094">
        <ele>947.6</ele>
      </trkpt>
      <trkpt lat="45.57463" lon="3.56086">
        <ele>948.9</ele>
      </trkpt>
      <trkpt lat="45.57451" lon="3.56078">
        <ele>950.2</ele>
      </trkpt>
      <trkpt lat="45.57434" lon="3.56071">
        <ele>952.4</ele>
      </trkpt>
      <trkpt lat="45.57417" lon="3.56063">
        <ele>954.3</ele>
      </trkpt>
      <trkpt lat="45.574" lon="3.56055">
        <ele>955.3</ele>
      </trkpt>
      <trkpt lat="45.5738" lon="3.56047">
        <ele>956.4</ele>
      </trkpt>
      <trkpt lat="45.5737" lon="3.56043">
        <ele>957.1</ele>
      </trkpt>
      <trkpt lat="45.57351" lon="3.56035">
        <ele>958.5</ele>
      </trkpt>
      <trkpt lat="45.57329" lon="3.56028">
        <ele>959.7</ele>
      </trkpt>
      <trkpt lat="45.57319" lon="3.56026">
        <ele>959.2</ele>
      </trkpt>
      <trkpt lat="45.57313" lon="3.56026">
        <ele>959.1</ele>
      </trkpt>
      <trkpt lat="45.57303" lon="3.56026">
        <ele>959</ele>
      </trkpt>
      <trkpt lat="45.57293" lon="3.56026">
        <ele>959</ele>
      </trkpt>
      <trkpt lat="45.57285" lon="3.56028">
        <ele>959.3</ele>
      </trkpt>
      <trkpt lat="45.57275" lon="3.56031">
        <ele>959.9</ele>
      </trkpt>
      <trkpt lat="45.57275" lon="3.56031">
        <ele>959.9</ele>
      </trkpt>
      <trkpt lat="45.57255" lon="3.5604">
        <ele>962</ele>
      </trkpt>
      <trkpt lat="45.57242" lon="3.56045">
        <ele>962.9</ele>
      </trkpt>
      <trkpt lat="45.57229" lon="3.56049">
        <ele>963.3</ele>
      </trkpt>
      <trkpt lat="45.57214" lon="3.56054">
        <ele>963.8</ele>
      </trkpt>
      <trkpt lat="45.57201" lon="3.56059">
        <ele>964.2</ele>
      </trkpt>
      <trkpt lat="45.57189" lon="3.56063">
        <ele>964.6</ele>
      </trkpt>
      <trkpt lat="45.57172" lon="3.56068">
        <ele>964.7</ele>
      </trkpt>
      <trkpt lat="45.57156" lon="3.56072">
        <ele>964.4</ele>
      </trkpt>
      <trkpt lat="45.57139" lon="3.56077">
        <ele>963.8</ele>
      </trkpt>
      <trkpt lat="45.57122" lon="3.56097">
        <ele>965.4</ele>
      </trkpt>
      <trkpt lat="45.57104" lon="3.56116">
        <ele>966.8</ele>
      </trkpt>
      <trkpt lat="45.57094" lon="3.56139">
        <ele>969.7</ele>
      </trkpt>
      <trkpt lat="45.57085" lon="3.56162">
        <ele>972.5</ele>
      </trkpt>
      <trkpt lat="45.57066" lon="3.56176">
        <ele>974.8</ele>
      </trkpt>
      <trkpt lat="45.5705" lon="3.56181">
        <ele>975.7</ele>
      </trkpt>
      <trkpt lat="45.57035" lon="3.56187">
        <ele>976.6</ele>
      </trkpt>
      <trkpt lat="45.57019" lon="3.56193">
        <ele>977.4</ele>
      </trkpt>
      <trkpt lat="45.57005" lon="3.56202">
        <ele>978.9</ele>
      </trkpt>
      <trkpt lat="45.56992" lon="3.56211">
        <ele>980.2</ele>
      </trkpt>
      <trkpt lat="45.56978" lon="3.56221">
        <ele>981</ele>
      </trkpt>
      <trkpt lat="45.56963" lon="3.5624">
        <ele>982.4</ele>
      </trkpt>
      <trkpt lat="45.56948" lon="3.56259">
        <ele>982.5</ele>
      </trkpt>
      <trkpt lat="45.56955" lon="3.56274">
        <ele>984.5</ele>
      </trkpt>
      <trkpt lat="45.56962" lon="3.56292">
        <ele>986.8</ele>
      </trkpt>
      <trkpt lat="45.56957" lon="3.56295">
        <ele>986.3</ele>
      </trkpt>
      <trkpt lat="45.5695" lon="3.56301">
        <ele>985.8</ele>
      </trkpt>
      <trkpt lat="45.56945" lon="3.5631">
        <ele>985.7</ele>
      </trkpt>
      <trkpt lat="45.56942" lon="3.56331">
        <ele>986.8</ele>
      </trkpt>
      <trkpt lat="45.56932" lon="3.56345">
        <ele>986.7</ele>
      </trkpt>
      <trkpt lat="45.56919" lon="3.56352">
        <ele>985.5</ele>
      </trkpt>
      <trkpt lat="45.56919" lon="3.56352">
        <ele>985.5</ele>
      </trkpt>
      <trkpt lat="45.56898" lon="3.56354">
        <ele>985.2</ele>
      </trkpt>
      <trkpt lat="45.56877" lon="3.56364">
        <ele>986.3</ele>
      </trkpt>
      <trkpt lat="45.56862" lon="3.56377">
        <ele>988</ele>
      </trkpt>
      <trkpt lat="45.56844" lon="3.56395">
        <ele>990.6</ele>
      </trkpt>
      <trkpt lat="45.56827" lon="3.56413">
        <ele>993.8</ele>
      </trkpt>
      <trkpt lat="45.56809" lon="3.56431">
        <ele>997.4</ele>
      </trkpt>
      <trkpt lat="45.56792" lon="3.56449">
        <ele>1000.8</ele>
      </trkpt>
      <trkpt lat="45.56783" lon="3.5646">
        <ele>1002.7</ele>
      </trkpt>
      <trkpt lat="45.56774" lon="3.5647">
        <ele>1004.5</ele>
      </trkpt>
      <trkpt lat="45.56762" lon="3.56489">
        <ele>1007.3</ele>
      </trkpt>
      <trkpt lat="45.56751" lon="3.56514">
        <ele>1010.7</ele>
      </trkpt>
      <trkpt lat="45.5674" lon="3.56535">
        <ele>1013.3</ele>
      </trkpt>
      <trkpt lat="45.5673" lon="3.56548">
        <ele>1014.7</ele>
      </trkpt>
      <trkpt lat="45.56717" lon="3.56559">
        <ele>1015.8</ele>
      </trkpt>
      <trkpt lat="45.56697" lon="3.56573">
        <ele>1016.8</ele>
      </trkpt>
      <trkpt lat="45.56678" lon="3.56587">
        <ele>1017.9</ele>
      </trkpt>
      <trkpt lat="45.56663" lon="3.56597">
        <ele>1020</ele>
      </trkpt>
      <trkpt lat="45.56647" lon="3.56608">
        <ele>1023.4</ele>
      </trkpt>
      <trkpt lat="45.56632" lon="3.56619">
        <ele>1026.8</ele>
      </trkpt>
      <trkpt lat="45.56611" lon="3.5663">
        <ele>1030.6</ele>
      </trkpt>
      <trkpt lat="45.56597" lon="3.56637">
        <ele>1033.1</ele>
      </trkpt>
      <trkpt lat="45.56584" lon="3.56644">
        <ele>1035.5</ele>
      </trkpt>
      <trkpt lat="45.5657" lon="3.56651">
        <ele>1036.7</ele>
      </trkpt>
      <trkpt lat="45.56555" lon="3.56658">
        <ele>1037.8</ele>
      </trkpt>
      <trkpt lat="45.56542" lon="3.56664">
        <ele>1038.7</ele>
      </trkpt>
      <trkpt lat="45.56528" lon="3.56671">
        <ele>1040</ele>
      </trkpt>
      <trkpt lat="45.56513" lon="3.56685">
        <ele>1043.5</ele>
      </trkpt>
      <trkpt lat="45.56513" lon="3.56685">
        <ele>1043.5</ele>
      </trkpt>
      <trkpt lat="45.56498" lon="3.56688">
        <ele>1044.3</ele>
      </trkpt>
      <trkpt lat="45.56491" lon="3.56691">
        <ele>1044.4</ele>
      </trkpt>
      <trkpt lat="45.56485" lon="3.56694">
        <ele>1044.7</ele>
      </trkpt>
      <trkpt lat="45.56478" lon="3.56697">
        <ele>1045.1</ele>
      </trkpt>
      <trkpt lat="45.56475" lon="3.56708">
        <ele>1047.3</ele>
      </trkpt>
      <trkpt lat="45.56465" lon="3.56718">
        <ele>1048.7</ele>
      </trkpt>
      <trkpt lat="45.56455" lon="3.56729">
        <ele>1050.1</ele>
      </trkpt>
      <trkpt lat="45.56445" lon="3.56741">
        <ele>1051.6</ele>
      </trkpt>
      <trkpt lat="45.56436" lon="3.56753">
        <ele>1052.8</ele>
      </trkpt>
      <trkpt lat="45.56423" lon="3.56769">
        <ele>1053.6</ele>
      </trkpt>
      <trkpt lat="45.56411" lon="3.56785">
        <ele>1054.4</ele>
      </trkpt>
      <trkpt lat="45.56401" lon="3.56801">
        <ele>1055.4</ele>
      </trkpt>
      <trkpt lat="45.5639" lon="3.56817">
        <ele>1056.3</ele>
      </trkpt>
      <trkpt lat="45.56382" lon="3.56829">
        <ele>1056.9</ele>
      </trkpt>
      <trkpt lat="45.56373" lon="3.56841">
        <ele>1057.2</ele>
      </trkpt>
      <trkpt lat="45.56362" lon="3.5686">
        <ele>1057.7</ele>
      </trkpt>
      <trkpt lat="45.5635" lon="3.5688">
        <ele>1058.2</ele>
      </trkpt>
      <trkpt lat="45.56338" lon="3.56898">
        <ele>1058.6</ele>
      </trkpt>
      <trkpt lat="45.56327" lon="3.56916">
        <ele>1060</ele>
      </trkpt>
      <trkpt lat="45.5632" lon="3.56929">
        <ele>1060.6</ele>
      </trkpt>
      <trkpt lat="45.56312" lon="3.56941">
        <ele>1061.1</ele>
      </trkpt>
      <trkpt lat="45.56308" lon="3.56952">
        <ele>1061.4</ele>
      </trkpt>
      <trkpt lat="45.56305" lon="3.56964">
        <ele>1061.9</ele>
      </trkpt>
      <trkpt lat="45.56301" lon="3.56981">
        <ele>1062.4</ele>
      </trkpt>
      <trkpt lat="45.56295" lon="3.56989">
        <ele>1062.7</ele>
      </trkpt>
      <trkpt lat="45.56297" lon="3.57001">
        <ele>1063</ele>
      </trkpt>
      <trkpt lat="45.56299" lon="3.57008">
        <ele>1062.7</ele>
      </trkpt>
      <trkpt lat="45.563" lon="3.57017">
        <ele>1062.3</ele>
      </trkpt>
      <trkpt lat="45.563" lon="3.57025">
        <ele>1062</ele>
      </trkpt>
      <trkpt lat="45.563" lon="3.57031">
        <ele>1061.7</ele>
      </trkpt>
      <trkpt lat="45.56297" lon="3.57046">
        <ele>1061.1</ele>
      </trkpt>
      <trkpt lat="45.56292" lon="3.57063">
        <ele>1060.4</ele>
      </trkpt>
      <trkpt lat="45.56284" lon="3.57089">
        <ele>1059.1</ele>
      </trkpt>
      <trkpt lat="45.56278" lon="3.57111">
        <ele>1057.7</ele>
      </trkpt>
      <trkpt lat="45.56274" lon="3.57124">
        <ele>1056.7</ele>
      </trkpt>
      <trkpt lat="45.56267" lon="3.57142">
        <ele>1055.4</ele>
      </trkpt>
      <trkpt lat="45.56261" lon="3.57155">
        <ele>1054.3</ele>
      </trkpt>
      <trkpt lat="45.56253" lon="3.57167">
        <ele>1053.2</ele>
      </trkpt>
      <trkpt lat="45.56246" lon="3.5718">
        <ele>1053</ele>
      </trkpt>
      <trkpt lat="45.56246" lon="3.5718">
        <ele>1053</ele>
      </trkpt>
      <trkpt lat="45.56233" lon="3.57198">
        <ele>1052.8</ele>
      </trkpt>
      <trkpt lat="45.56226" lon="3.57208">
        <ele>1052.8</ele>
      </trkpt>
      <trkpt lat="45.56214" lon="3.57223">
        <ele>1052.7</ele>
      </trkpt>
      <trkpt lat="45.562" lon="3.5724">
        <ele>1052.6</ele>
      </trkpt>
      <trkpt lat="45.56193" lon="3.57247">
        <ele>1052.6</ele>
      </trkpt>
      <trkpt lat="45.56181" lon="3.57257">
        <ele>1052.7</ele>
      </trkpt>
      <trkpt lat="45.56172" lon="3.57262">
        <ele>1052.9</ele>
      </trkpt>
      <trkpt lat="45.56161" lon="3.57269">
        <ele>1053</ele>
      </trkpt>
      <trkpt lat="45.56141" lon="3.57284">
        <ele>1053.2</ele>
      </trkpt>
      <trkpt lat="45.56129" lon="3.57293">
        <ele>1053.2</ele>
      </trkpt>
      <trkpt lat="45.56116" lon="3.57302">
        <ele>1053.1</ele>
      </trkpt>
      <trkpt lat="45.56102" lon="3.57312">
        <ele>1053</ele>
      </trkpt>
      <trkpt lat="45.56083" lon="3.57324">
        <ele>1052.6</ele>
      </trkpt>
      <trkpt lat="45.56077" lon="3.57328">
        <ele>1052.5</ele>
      </trkpt>
      <trkpt lat="45.56073" lon="3.57331">
        <ele>1052.3</ele>
      </trkpt>
      <trkpt lat="45.56067" lon="3.57337">
        <ele>1052</ele>
      </trkpt>
      <trkpt lat="45.5606" lon="3.57352">
        <ele>1051.5</ele>
      </trkpt>
      <trkpt lat="45.56057" lon="3.5736">
        <ele>1051.3</ele>
      </trkpt>
      <trkpt lat="45.56052" lon="3.57371">
        <ele>1051</ele>
      </trkpt>
      <trkpt lat="45.56047" lon="3.57379">
        <ele>1050.7</ele>
      </trkpt>
      <trkpt lat="45.56042" lon="3.57383">
        <ele>1050.5</ele>
      </trkpt>
      <trkpt lat="45.56042" lon="3.57383">
        <ele>1050.5</ele>
      </trkpt>
      <trkpt lat="45.56033" lon="3.57391">
        <ele>1050.1</ele>
      </trkpt>
      <trkpt lat="45.56021" lon="3.574">
        <ele>1049.7</ele>
      </trkpt>
      <trkpt lat="45.56013" lon="3.57384">
        <ele>1049.2</ele>
      </trkpt>
      <trkpt lat="45.56008" lon="3.57372">
        <ele>1048.9</ele>
      </trkpt>
      <trkpt lat="45.56005" lon="3.57361">
        <ele>1048.6</ele>
      </trkpt>
      <trkpt lat="45.56003" lon="3.57355">
        <ele>1048.4</ele>
      </trkpt>
      <trkpt lat="45.56002" lon="3.57348">
        <ele>1048.3</ele>
      </trkpt>
      <trkpt lat="45.56001" lon="3.57335">
        <ele>1048.1</ele>
      </trkpt>
      <trkpt lat="45.56003" lon="3.57323">
        <ele>1048.2</ele>
      </trkpt>
      <trkpt lat="45.56005" lon="3.57313">
        <ele>1048.3</ele>
      </trkpt>
      <trkpt lat="45.56008" lon="3.57305">
        <ele>1048.4</ele>
      </trkpt>
      <trkpt lat="45.56003" lon="3.57301">
        <ele>1048.1</ele>
      </trkpt>
      <trkpt lat="45.56001" lon="3.57284">
        <ele>1048</ele>
      </trkpt>
      <trkpt lat="45.55998" lon="3.5727">
        <ele>1047.9</ele>
      </trkpt>
      <trkpt lat="45.55997" lon="3.5726">
        <ele>1047.9</ele>
      </trkpt>
      <trkpt lat="45.55996" lon="3.57248">
        <ele>1047.9</ele>
      </trkpt>
      <trkpt lat="45.55995" lon="3.57235">
        <ele>1048.3</ele>
      </trkpt>
      <trkpt lat="45.55994" lon="3.57226">
        <ele>1048.6</ele>
      </trkpt>
      <trkpt lat="45.55989" lon="3.57212">
        <ele>1048.9</ele>
      </trkpt>
      <trkpt lat="45.55983" lon="3.57204">
        <ele>1048.9</ele>
      </trkpt>
      <trkpt lat="45.55976" lon="3.57199">
        <ele>1048.9</ele>
      </trkpt>
      <trkpt lat="45.55968" lon="3.57195">
        <ele>1048.7</ele>
      </trkpt>
      <trkpt lat="45.55959" lon="3.57192">
        <ele>1048.4</ele>
      </trkpt>
      <trkpt lat="45.55944" lon="3.57186">
        <ele>1048.1</ele>
      </trkpt>
      <trkpt lat="45.55944" lon="3.57186">
        <ele>1048.1</ele>
      </trkpt>
      <trkpt lat="45.55939" lon="3.57183">
        <ele>1048.1</ele>
      </trkpt>
      <trkpt lat="45.55933" lon="3.57178">
        <ele>1048.1</ele>
      </trkpt>
      <trkpt lat="45.55926" lon="3.57169">
        <ele>1048.2</ele>
      </trkpt>
      <trkpt lat="45.55921" lon="3.5716">
        <ele>1048.5</ele>
      </trkpt>
      <trkpt lat="45.55916" lon="3.57153">
        <ele>1048.8</ele>
      </trkpt>
      <trkpt lat="45.55909" lon="3.57143">
        <ele>1049.6</ele>
      </trkpt>
      <trkpt lat="45.55903" lon="3.57136">
        <ele>1050.2</ele>
      </trkpt>
      <trkpt lat="45.55898" lon="3.57131">
        <ele>1050.8</ele>
      </trkpt>
      <trkpt lat="45.55882" lon="3.57124">
        <ele>1051.8</ele>
      </trkpt>
      <trkpt lat="45.55869" lon="3.57113">
        <ele>1053.3</ele>
      </trkpt>
      <trkpt lat="45.55856" lon="3.57101">
        <ele>1055</ele>
      </trkpt>
      <trkpt lat="45.55848" lon="3.57084">
        <ele>1057.1</ele>
      </trkpt>
      <trkpt lat="45.55841" lon="3.57065">
        <ele>1058.2</ele>
      </trkpt>
      <trkpt lat="45.55835" lon="3.57041">
        <ele>1059.5</ele>
      </trkpt>
      <trkpt lat="45.55826" lon="3.57022">
        <ele>1060.4</ele>
      </trkpt>
      <trkpt lat="45.55818" lon="3.57017">
        <ele>1060.9</ele>
      </trkpt>
      <trkpt lat="45.55812" lon="3.5701">
        <ele>1061.4</ele>
      </trkpt>
      <trkpt lat="45.55798" lon="3.56997">
        <ele>1062.3</ele>
      </trkpt>
      <trkpt lat="45.55787" lon="3.56986">
        <ele>1062.9</ele>
      </trkpt>
      <trkpt lat="45.55777" lon="3.56976">
        <ele>1063.3</ele>
      </trkpt>
      <trkpt lat="45.55768" lon="3.56965">
        <ele>1063.6</ele>
      </trkpt>
      <trkpt lat="45.55757" lon="3.56948">
        <ele>1063.9</ele>
      </trkpt>
      <trkpt lat="45.55749" lon="3.56932">
        <ele>1064.1</ele>
      </trkpt>
      <trkpt lat="45.55738" lon="3.56911">
        <ele>1064.9</ele>
      </trkpt>
      <trkpt lat="45.55732" lon="3.56901">
        <ele>1065.6</ele>
      </trkpt>
      <trkpt lat="45.55729" lon="3.56894">
        <ele>1066.1</ele>
      </trkpt>
      <trkpt lat="45.55725" lon="3.56888">
        <ele>1066.5</ele>
      </trkpt>
      <trkpt lat="45.55718" lon="3.56888">
        <ele>1066.9</ele>
      </trkpt>
      <trkpt lat="45.55711" lon="3.56883">
        <ele>1067.5</ele>
      </trkpt>
      <trkpt lat="45.557" lon="3.56871">
        <ele>1068.6</ele>
      </trkpt>
      <trkpt lat="45.55685" lon="3.56855">
        <ele>1070.1</ele>
      </trkpt>
      <trkpt lat="45.55673" lon="3.56841">
        <ele>1071.4</ele>
      </trkpt>
      <trkpt lat="45.5566" lon="3.56827">
        <ele>1072.6</ele>
      </trkpt>
      <trkpt lat="45.55642" lon="3.5681">
        <ele>1074</ele>
      </trkpt>
      <trkpt lat="45.55624" lon="3.56794">
        <ele>1075.5</ele>
      </trkpt>
      <trkpt lat="45.55611" lon="3.56784">
        <ele>1076.6</ele>
      </trkpt>
      <trkpt lat="45.55598" lon="3.56773">
        <ele>1077.7</ele>
      </trkpt>
      <trkpt lat="45.55589" lon="3.56763">
        <ele>1078.5</ele>
      </trkpt>
      <trkpt lat="45.55589" lon="3.56763">
        <ele>1078.5</ele>
      </trkpt>
      <trkpt lat="45.55579" lon="3.56747">
        <ele>1079.2</ele>
      </trkpt>
      <trkpt lat="45.55569" lon="3.5673">
        <ele>1079.7</ele>
      </trkpt>
      <trkpt lat="45.55557" lon="3.56708">
        <ele>1080.4</ele>
      </trkpt>
      <trkpt lat="45.55544" lon="3.56681">
        <ele>1081.3</ele>
      </trkpt>
      <trkpt lat="45.55532" lon="3.56655">
        <ele>1081.9</ele>
      </trkpt>
      <trkpt lat="45.5552" lon="3.56628">
        <ele>1082.2</ele>
      </trkpt>
      <trkpt lat="45.55507" lon="3.56602">
        <ele>1082.7</ele>
      </trkpt>
      <trkpt lat="45.55495" lon="3.56575">
        <ele>1083.3</ele>
      </trkpt>
      <trkpt lat="45.55483" lon="3.56548">
        <ele>1083.9</ele>
      </trkpt>
      <trkpt lat="45.55472" lon="3.56525">
        <ele>1084.2</ele>
      </trkpt>
      <trkpt lat="45.55461" lon="3.56501">
        <ele>1084.5</ele>
      </trkpt>
      <trkpt lat="45.55456" lon="3.56491">
        <ele>1084.5</ele>
      </trkpt>
      <trkpt lat="45.55447" lon="3.56478">
        <ele>1084.7</ele>
      </trkpt>
      <trkpt lat="45.55433" lon="3.56459">
        <ele>1085.1</ele>
      </trkpt>
      <trkpt lat="45.55425" lon="3.56448">
        <ele>1085.4</ele>
      </trkpt>
      <trkpt lat="45.55417" lon="3.5644">
        <ele>1085.7</ele>
      </trkpt>
      <trkpt lat="45.55403" lon="3.56428">
        <ele>1086</ele>
      </trkpt>
      <trkpt lat="45.55393" lon="3.5642">
        <ele>1086.2</ele>
      </trkpt>
      <trkpt lat="45.55387" lon="3.56418">
        <ele>1086.3</ele>
      </trkpt>
      <trkpt lat="45.55378" lon="3.56416">
        <ele>1086.4</ele>
      </trkpt>
      <trkpt lat="45.55377" lon="3.56426">
        <ele>1086.4</ele>
      </trkpt>
      <trkpt lat="45.55375" lon="3.56436">
        <ele>1086.3</ele>
      </trkpt>
      <trkpt lat="45.55371" lon="3.56443">
        <ele>1086.2</ele>
      </trkpt>
      <trkpt lat="45.55365" lon="3.56453">
        <ele>1086.2</ele>
      </trkpt>
      <trkpt lat="45.55357" lon="3.56463">
        <ele>1086.2</ele>
      </trkpt>
      <trkpt lat="45.55347" lon="3.56476">
        <ele>1086.1</ele>
      </trkpt>
      <trkpt lat="45.55341" lon="3.56486">
        <ele>1086.1</ele>
      </trkpt>
      <trkpt lat="45.55337" lon="3.56492">
        <ele>1086</ele>
      </trkpt>
      <trkpt lat="45.55331" lon="3.56493">
        <ele>1086.1</ele>
      </trkpt>
      <trkpt lat="45.55327" lon="3.56494">
        <ele>1086.2</ele>
      </trkpt>
      <trkpt lat="45.55319" lon="3.56499">
        <ele>1086.2</ele>
      </trkpt>
      <trkpt lat="45.55305" lon="3.5651">
        <ele>1086.1</ele>
      </trkpt>
      <trkpt lat="45.55289" lon="3.56521">
        <ele>1085.7</ele>
      </trkpt>
      <trkpt lat="45.55276" lon="3.56531">
        <ele>1085.3</ele>
      </trkpt>
      <trkpt lat="45.55276" lon="3.56531">
        <ele>1085.3</ele>
      </trkpt>
      <trkpt lat="45.55265" lon="3.56541">
        <ele>1084.7</ele>
      </trkpt>
      <trkpt lat="45.5525" lon="3.56554">
        <ele>1083.7</ele>
      </trkpt>
      <trkpt lat="45.55236" lon="3.56564">
        <ele>1082.5</ele>
      </trkpt>
      <trkpt lat="45.55228" lon="3.5657">
        <ele>1081.8</ele>
      </trkpt>
      <trkpt lat="45.55219" lon="3.56575">
        <ele>1081</ele>
      </trkpt>
      <trkpt lat="45.55213" lon="3.56578">
        <ele>1080.6</ele>
      </trkpt>
      <trkpt lat="45.55203" lon="3.5658">
        <ele>1080</ele>
      </trkpt>
      <trkpt lat="45.55195" lon="3.56581">
        <ele>1079.5</ele>
      </trkpt>
      <trkpt lat="45.55187" lon="3.56582">
        <ele>1079</ele>
      </trkpt>
      <trkpt lat="45.55176" lon="3.56583">
        <ele>1078.4</ele>
      </trkpt>
      <trkpt lat="45.55167" lon="3.56582">
        <ele>1078.1</ele>
      </trkpt>
      <trkpt lat="45.55158" lon="3.56579">
        <ele>1077.7</ele>
      </trkpt>
      <trkpt lat="45.55147" lon="3.56574">
        <ele>1077.2</ele>
      </trkpt>
      <trkpt lat="45.55138" lon="3.56568">
        <ele>1077</ele>
      </trkpt>
      <trkpt lat="45.55127" lon="3.56559">
        <ele>1076.9</ele>
      </trkpt>
      <trkpt lat="45.55119" lon="3.56552">
        <ele>1076.8</ele>
      </trkpt>
      <trkpt lat="45.5511" lon="3.56543">
        <ele>1076.8</ele>
      </trkpt>
      <trkpt lat="45.55099" lon="3.5653">
        <ele>1077</ele>
      </trkpt>
      <trkpt lat="45.55084" lon="3.56514">
        <ele>1077.1</ele>
      </trkpt>
      <trkpt lat="45.55078" lon="3.5651">
        <ele>1077</ele>
      </trkpt>
      <trkpt lat="45.55074" lon="3.56508">
        <ele>1076.8</ele>
      </trkpt>
      <trkpt lat="45.55058" lon="3.56508">
        <ele>1075.9</ele>
      </trkpt>
      <trkpt lat="45.55042" lon="3.56508">
        <ele>1075</ele>
      </trkpt>
      <trkpt lat="45.55026" lon="3.56508">
        <ele>1074.1</ele>
      </trkpt>
      <trkpt lat="45.5501" lon="3.56508">
        <ele>1073.2</ele>
      </trkpt>
      <trkpt lat="45.54995" lon="3.56508">
        <ele>1072.6</ele>
      </trkpt>
      <trkpt lat="45.54974" lon="3.56507">
        <ele>1072.8</ele>
      </trkpt>
      <trkpt lat="45.54964" lon="3.56507">
        <ele>1072.8</ele>
      </trkpt>
      <trkpt lat="45.54954" lon="3.5651">
        <ele>1072.6</ele>
      </trkpt>
      <trkpt lat="45.54941" lon="3.56515">
        <ele>1072</ele>
      </trkpt>
      <trkpt lat="45.54928" lon="3.56522">
        <ele>1071.2</ele>
      </trkpt>
      <trkpt lat="45.54916" lon="3.56528">
        <ele>1070.3</ele>
      </trkpt>
      <trkpt lat="45.54906" lon="3.56534">
        <ele>1069.3</ele>
      </trkpt>
      <trkpt lat="45.54898" lon="3.56539">
        <ele>1068.5</ele>
      </trkpt>
      <trkpt lat="45.54893" lon="3.56544">
        <ele>1067.7</ele>
      </trkpt>
      <trkpt lat="45.54883" lon="3.56557">
        <ele>1065.5</ele>
      </trkpt>
      <trkpt lat="45.54877" lon="3.56565">
        <ele>1064.2</ele>
      </trkpt>
      <trkpt lat="45.54867" lon="3.5657">
        <ele>1063.2</ele>
      </trkpt>
      <trkpt lat="45.54859" lon="3.56573">
        <ele>1062.5</ele>
      </trkpt>
      <trkpt lat="45.54848" lon="3.56575">
        <ele>1061.8</ele>
      </trkpt>
      <trkpt lat="45.54848" lon="3.56575">
        <ele>1061.8</ele>
      </trkpt>
      <trkpt lat="45.54841" lon="3.56576">
        <ele>1061.4</ele>
      </trkpt>
      <trkpt lat="45.54829" lon="3.56577">
        <ele>1061</ele>
      </trkpt>
      <trkpt lat="45.54817" lon="3.56577">
        <ele>1060.6</ele>
      </trkpt>
      <trkpt lat="45.54802" lon="3.5658">
        <ele>1059.8</ele>
      </trkpt>
      <trkpt lat="45.54792" lon="3.56582">
        <ele>1059.2</ele>
      </trkpt>
      <trkpt lat="45.54784" lon="3.56583">
        <ele>1058.9</ele>
      </trkpt>
      <trkpt lat="45.54779" lon="3.56583">
        <ele>1058.7</ele>
      </trkpt>
      <trkpt lat="45.54772" lon="3.56582">
        <ele>1058.7</ele>
      </trkpt>
      <trkpt lat="45.54757" lon="3.56579">
        <ele>1059.1</ele>
      </trkpt>
      <trkpt lat="45.54735" lon="3.56573">
        <ele>1059.5</ele>
      </trkpt>
      <trkpt lat="45.54717" lon="3.56569">
        <ele>1059.5</ele>
      </trkpt>
      <trkpt lat="45.54697" lon="3.56565">
        <ele>1059.4</ele>
      </trkpt>
      <trkpt lat="45.54683" lon="3.56563">
        <ele>1059</ele>
      </trkpt>
      <trkpt lat="45.5467" lon="3.56561">
        <ele>1058.7</ele>
      </trkpt>
      <trkpt lat="45.54656" lon="3.56556">
        <ele>1058.3</ele>
      </trkpt>
      <trkpt lat="45.54642" lon="3.56552">
        <ele>1057.7</ele>
      </trkpt>
      <trkpt lat="45.54633" lon="3.56548">
        <ele>1057.3</ele>
      </trkpt>
      <trkpt lat="45.5462" lon="3.56541">
        <ele>1056.9</ele>
      </trkpt>
      <trkpt lat="45.5461" lon="3.56533">
        <ele>1056.5</ele>
      </trkpt>
      <trkpt lat="45.546" lon="3.56526">
        <ele>1056.1</ele>
      </trkpt>
      <trkpt lat="45.5459" lon="3.56518">
        <ele>1055.5</ele>
      </trkpt>
      <trkpt lat="45.54582" lon="3.56511">
        <ele>1054.9</ele>
      </trkpt>
      <trkpt lat="45.54573" lon="3.56503">
        <ele>1054.4</ele>
      </trkpt>
      <trkpt lat="45.54567" lon="3.56496">
        <ele>1054.5</ele>
      </trkpt>
      <trkpt lat="45.54557" lon="3.56487">
        <ele>1054.7</ele>
      </trkpt>
      <trkpt lat="45.54551" lon="3.56483">
        <ele>1054.4</ele>
      </trkpt>
      <trkpt lat="45.54551" lon="3.56483">
        <ele>1054.4</ele>
      </trkpt>
      <trkpt lat="45.54533" lon="3.56473">
        <ele>1053.4</ele>
      </trkpt>
      <trkpt lat="45.5452" lon="3.56467">
        <ele>1052.4</ele>
      </trkpt>
      <trkpt lat="45.54514" lon="3.56465">
        <ele>1051.8</ele>
      </trkpt>
      <trkpt lat="45.54505" lon="3.56463">
        <ele>1050.7</ele>
      </trkpt>
      <trkpt lat="45.54497" lon="3.56462">
        <ele>1049.9</ele>
      </trkpt>
      <trkpt lat="45.54488" lon="3.56463">
        <ele>1049.1</ele>
      </trkpt>
      <trkpt lat="45.54479" lon="3.56466">
        <ele>1048.2</ele>
      </trkpt>
      <trkpt lat="45.54474" lon="3.56468">
        <ele>1047.7</ele>
      </trkpt>
      <trkpt lat="45.54465" lon="3.56473">
        <ele>1046.7</ele>
      </trkpt>
      <trkpt lat="45.5446" lon="3.56476">
        <ele>1046.1</ele>
      </trkpt>
      <trkpt lat="45.54447" lon="3.56485">
        <ele>1044.8</ele>
      </trkpt>
      <trkpt lat="45.54427" lon="3.56499">
        <ele>1043.3</ele>
      </trkpt>
      <trkpt lat="45.54413" lon="3.5651">
        <ele>1042.7</ele>
      </trkpt>
      <trkpt lat="45.54402" lon="3.56516">
        <ele>1043.1</ele>
      </trkpt>
      <trkpt lat="45.54402" lon="3.56516">
        <ele>1043.1</ele>
      </trkpt>
      <trkpt lat="45.5439" lon="3.56523">
        <ele>1043.4</ele>
      </trkpt>
      <trkpt lat="45.54372" lon="3.56534">
        <ele>1043.8</ele>
      </trkpt>
      <trkpt lat="45.54353" lon="3.56547">
        <ele>1044.2</ele>
      </trkpt>
      <trkpt lat="45.54339" lon="3.56558">
        <ele>1044.3</ele>
      </trkpt>
      <trkpt lat="45.54328" lon="3.56566">
        <ele>1044.4</ele>
      </trkpt>
      <trkpt lat="45.54316" lon="3.56573">
        <ele>1044.5</ele>
      </trkpt>
      <trkpt lat="45.54304" lon="3.56582">
        <ele>1044.5</ele>
      </trkpt>
      <trkpt lat="45.54292" lon="3.56593">
        <ele>1044.1</ele>
      </trkpt>
      <trkpt lat="45.54279" lon="3.56603">
        <ele>1043.8</ele>
      </trkpt>
      <trkpt lat="45.54265" lon="3.56614">
        <ele>1043.3</ele>
      </trkpt>
      <trkpt lat="45.54252" lon="3.56623">
        <ele>1043.1</ele>
      </trkpt>
      <trkpt lat="45.5424" lon="3.5663">
        <ele>1043.9</ele>
      </trkpt>
      <trkpt lat="45.54234" lon="3.56635">
        <ele>1044.3</ele>
      </trkpt>
      <trkpt lat="45.54224" lon="3.56645">
        <ele>1044.8</ele>
      </trkpt>
      <trkpt lat="45.5421" lon="3.56664">
        <ele>1045.1</ele>
      </trkpt>
      <trkpt lat="45.54195" lon="3.56683">
        <ele>1045.5</ele>
      </trkpt>
      <trkpt lat="45.54181" lon="3.56702">
        <ele>1045.7</ele>
      </trkpt>
      <trkpt lat="45.54175" lon="3.56707">
        <ele>1046</ele>
      </trkpt>
      <trkpt lat="45.54169" lon="3.56711">
        <ele>1046.4</ele>
      </trkpt>
      <trkpt lat="45.54165" lon="3.56713">
        <ele>1046.7</ele>
      </trkpt>
      <trkpt lat="45.54162" lon="3.56719">
        <ele>1046.4</ele>
      </trkpt>
      <trkpt lat="45.54161" lon="3.56729">
        <ele>1045.6</ele>
      </trkpt>
      <trkpt lat="45.54159" lon="3.56737">
        <ele>1045</ele>
      </trkpt>
      <trkpt lat="45.54155" lon="3.56743">
        <ele>1044.8</ele>
      </trkpt>
      <trkpt lat="45.54143" lon="3.56751">
        <ele>1045.1</ele>
      </trkpt>
      <trkpt lat="45.54136" lon="3.56755">
        <ele>1045.4</ele>
      </trkpt>
      <trkpt lat="45.54128" lon="3.56757">
        <ele>1045.9</ele>
      </trkpt>
      <trkpt lat="45.5412" lon="3.56759">
        <ele>1046.5</ele>
      </trkpt>
      <trkpt lat="45.54109" lon="3.5676">
        <ele>1047.4</ele>
      </trkpt>
      <trkpt lat="45.54097" lon="3.5676">
        <ele>1048.5</ele>
      </trkpt>
      <trkpt lat="45.54091" lon="3.56761">
        <ele>1048.9</ele>
      </trkpt>
      <trkpt lat="45.54085" lon="3.56763">
        <ele>1049.2</ele>
      </trkpt>
      <trkpt lat="45.54077" lon="3.56769">
        <ele>1049</ele>
      </trkpt>
      <trkpt lat="45.54071" lon="3.56777">
        <ele>1048.3</ele>
      </trkpt>
      <trkpt lat="45.54066" lon="3.56787">
        <ele>1047.5</ele>
      </trkpt>
      <trkpt lat="45.5406" lon="3.56799">
        <ele>1046.6</ele>
      </trkpt>
      <trkpt lat="45.54053" lon="3.56812">
        <ele>1045.8</ele>
      </trkpt>
      <trkpt lat="45.5405" lon="3.5682">
        <ele>1045.2</ele>
      </trkpt>
      <trkpt lat="45.54046" lon="3.56831">
        <ele>1044.2</ele>
      </trkpt>
      <trkpt lat="45.54043" lon="3.56844">
        <ele>1043.8</ele>
      </trkpt>
      <trkpt lat="45.5404" lon="3.5685">
        <ele>1043.7</ele>
      </trkpt>
      <trkpt lat="45.54038" lon="3.56856">
        <ele>1043.6</ele>
      </trkpt>
      <trkpt lat="45.54038" lon="3.56856">
        <ele>1043.6</ele>
      </trkpt>
      <trkpt lat="45.54035" lon="3.56862">
        <ele>1043.6</ele>
      </trkpt>
      <trkpt lat="45.54028" lon="3.56873">
        <ele>1043.5</ele>
      </trkpt>
      <trkpt lat="45.54016" lon="3.56886">
        <ele>1043.4</ele>
      </trkpt>
      <trkpt lat="45.54005" lon="3.56901">
        <ele>1043</ele>
      </trkpt>
      <trkpt lat="45.53998" lon="3.56909">
        <ele>1042.8</ele>
      </trkpt>
      <trkpt lat="45.53987" lon="3.56921">
        <ele>1043.3</ele>
      </trkpt>
      <trkpt lat="45.53976" lon="3.56935">
        <ele>1044.2</ele>
      </trkpt>
      <trkpt lat="45.53972" lon="3.5694">
        <ele>1044.4</ele>
      </trkpt>
      <trkpt lat="45.53967" lon="3.56949">
        <ele>1044.6</ele>
      </trkpt>
      <trkpt lat="45.53964" lon="3.56955">
        <ele>1044.6</ele>
      </trkpt>
      <trkpt lat="45.53959" lon="3.56963">
        <ele>1044.8</ele>
      </trkpt>
      <trkpt lat="45.53955" lon="3.56967">
        <ele>1044.9</ele>
      </trkpt>
      <trkpt lat="45.53949" lon="3.56974">
        <ele>1045.2</ele>
      </trkpt>
      <trkpt lat="45.5394" lon="3.56982">
        <ele>1045.4</ele>
      </trkpt>
      <trkpt lat="45.53928" lon="3.56995">
        <ele>1045.6</ele>
      </trkpt>
      <trkpt lat="45.53916" lon="3.57008">
        <ele>1045.2</ele>
      </trkpt>
      <trkpt lat="45.53909" lon="3.57017">
        <ele>1044.9</ele>
      </trkpt>
      <trkpt lat="45.53896" lon="3.57035">
        <ele>1044.2</ele>
      </trkpt>
      <trkpt lat="45.53885" lon="3.57052">
        <ele>1043.4</ele>
      </trkpt>
      <trkpt lat="45.53874" lon="3.57066">
        <ele>1042.9</ele>
      </trkpt>
      <trkpt lat="45.53863" lon="3.57081">
        <ele>1042.4</ele>
      </trkpt>
      <trkpt lat="45.53852" lon="3.57093">
        <ele>1042.1</ele>
      </trkpt>
      <trkpt lat="45.53847" lon="3.57096">
        <ele>1042</ele>
      </trkpt>
      <trkpt lat="45.53836" lon="3.57108">
        <ele>1041.5</ele>
      </trkpt>
      <trkpt lat="45.53824" lon="3.57121">
        <ele>1041</ele>
      </trkpt>
      <trkpt lat="45.53813" lon="3.57134">
        <ele>1040.6</ele>
      </trkpt>
      <trkpt lat="45.53801" lon="3.57145">
        <ele>1040.5</ele>
      </trkpt>
      <trkpt lat="45.53789" lon="3.57157">
        <ele>1040.4</ele>
      </trkpt>
      <trkpt lat="45.53778" lon="3.57167">
        <ele>1040.6</ele>
      </trkpt>
      <trkpt lat="45.53765" lon="3.57179">
        <ele>1040.5</ele>
      </trkpt>
      <trkpt lat="45.53753" lon="3.57188">
        <ele>1040.6</ele>
      </trkpt>
      <trkpt lat="45.53739" lon="3.57197">
        <ele>1039.7</ele>
      </trkpt>
      <trkpt lat="45.53731" lon="3.57201">
        <ele>1039</ele>
      </trkpt>
      <trkpt lat="45.53721" lon="3.57206">
        <ele>1038.3</ele>
      </trkpt>
      <trkpt lat="45.53709" lon="3.57211">
        <ele>1037.6</ele>
      </trkpt>
      <trkpt lat="45.53699" lon="3.57215">
        <ele>1037</ele>
      </trkpt>
      <trkpt lat="45.53692" lon="3.57218">
        <ele>1036.5</ele>
      </trkpt>
      <trkpt lat="45.53683" lon="3.57219">
        <ele>1036.2</ele>
      </trkpt>
      <trkpt lat="45.53667" lon="3.57224">
        <ele>1035.5</ele>
      </trkpt>
      <trkpt lat="45.53654" lon="3.57228">
        <ele>1035.5</ele>
      </trkpt>
      <trkpt lat="45.53654" lon="3.57228">
        <ele>1035.5</ele>
      </trkpt>
      <trkpt lat="45.53641" lon="3.57232">
        <ele>1035.6</ele>
      </trkpt>
      <trkpt lat="45.53629" lon="3.57238">
        <ele>1035.4</ele>
      </trkpt>
      <trkpt lat="45.5362" lon="3.57243">
        <ele>1035.3</ele>
      </trkpt>
      <trkpt lat="45.5361" lon="3.57251">
        <ele>1035</ele>
      </trkpt>
      <trkpt lat="45.53601" lon="3.57259">
        <ele>1034.9</ele>
      </trkpt>
      <trkpt lat="45.53584" lon="3.57278">
        <ele>1034</ele>
      </trkpt>
      <trkpt lat="45.53578" lon="3.57285">
        <ele>1033.9</ele>
      </trkpt>
      <trkpt lat="45.53566" lon="3.57299">
        <ele>1033.6</ele>
      </trkpt>
      <trkpt lat="45.53556" lon="3.57309">
        <ele>1033.8</ele>
      </trkpt>
      <trkpt lat="45.53546" lon="3.57319">
        <ele>1034</ele>
      </trkpt>
      <trkpt lat="45.53536" lon="3.57328">
        <ele>1034.2</ele>
      </trkpt>
      <trkpt lat="45.53527" lon="3.57337">
        <ele>1034.6</ele>
      </trkpt>
      <trkpt lat="45.53517" lon="3.57348">
        <ele>1035.1</ele>
      </trkpt>
      <trkpt lat="45.53508" lon="3.5736">
        <ele>1035.5</ele>
      </trkpt>
      <trkpt lat="45.53498" lon="3.57372">
        <ele>1035.8</ele>
      </trkpt>
      <trkpt lat="45.53489" lon="3.57384">
        <ele>1035.8</ele>
      </trkpt>
      <trkpt lat="45.53473" lon="3.57405">
        <ele>1035.5</ele>
      </trkpt>
      <trkpt lat="45.53462" lon="3.57419">
        <ele>1035.2</ele>
      </trkpt>
      <trkpt lat="45.5345" lon="3.57428">
        <ele>1035.7</ele>
      </trkpt>
      <trkpt lat="45.53433" lon="3.57436">
        <ele>1036.4</ele>
      </trkpt>
      <trkpt lat="45.53415" lon="3.57442">
        <ele>1037.1</ele>
      </trkpt>
      <trkpt lat="45.53399" lon="3.57446">
        <ele>1036.7</ele>
      </trkpt>
      <trkpt lat="45.5338" lon="3.57447">
        <ele>1036.4</ele>
      </trkpt>
      <trkpt lat="45.53362" lon="3.57446">
        <ele>1036.2</ele>
      </trkpt>
      <trkpt lat="45.53343" lon="3.57444">
        <ele>1036.2</ele>
      </trkpt>
      <trkpt lat="45.53325" lon="3.5744">
        <ele>1036.6</ele>
      </trkpt>
      <trkpt lat="45.53307" lon="3.57438">
        <ele>1036.9</ele>
      </trkpt>
      <trkpt lat="45.53294" lon="3.57438">
        <ele>1037.1</ele>
      </trkpt>
      <trkpt lat="45.53279" lon="3.57441">
        <ele>1036.7</ele>
      </trkpt>
      <trkpt lat="45.53261" lon="3.57447">
        <ele>1035.8</ele>
      </trkpt>
      <trkpt lat="45.53242" lon="3.57451">
        <ele>1035.8</ele>
      </trkpt>
      <trkpt lat="45.53223" lon="3.57454">
        <ele>1036.5</ele>
      </trkpt>
      <trkpt lat="45.53223" lon="3.57454">
        <ele>1036.5</ele>
      </trkpt>
      <trkpt lat="45.5321" lon="3.57456">
        <ele>1037</ele>
      </trkpt>
      <trkpt lat="45.53196" lon="3.57458">
        <ele>1037.6</ele>
      </trkpt>
      <trkpt lat="45.53184" lon="3.57459">
        <ele>1038.3</ele>
      </trkpt>
      <trkpt lat="45.53171" lon="3.57459">
        <ele>1039.1</ele>
      </trkpt>
      <trkpt lat="45.53159" lon="3.57459">
        <ele>1039.7</ele>
      </trkpt>
      <trkpt lat="45.53146" lon="3.57459">
        <ele>1040.4</ele>
      </trkpt>
      <trkpt lat="45.53133" lon="3.57459">
        <ele>1041.1</ele>
      </trkpt>
      <trkpt lat="45.5312" lon="3.57458">
        <ele>1041.8</ele>
      </trkpt>
      <trkpt lat="45.53103" lon="3.57458">
        <ele>1042.7</ele>
      </trkpt>
      <trkpt lat="45.53085" lon="3.57457">
        <ele>1043.5</ele>
      </trkpt>
      <trkpt lat="45.53074" lon="3.57457">
        <ele>1043.5</ele>
      </trkpt>
      <trkpt lat="45.53065" lon="3.57454">
        <ele>1043.6</ele>
      </trkpt>
      <trkpt lat="45.53056" lon="3.57448">
        <ele>1043.8</ele>
      </trkpt>
      <trkpt lat="45.53045" lon="3.57438">
        <ele>1044.2</ele>
      </trkpt>
      <trkpt lat="45.53035" lon="3.57424">
        <ele>1044.6</ele>
      </trkpt>
      <trkpt lat="45.53026" lon="3.57407">
        <ele>1045</ele>
      </trkpt>
      <trkpt lat="45.53018" lon="3.5739">
        <ele>1045.2</ele>
      </trkpt>
      <trkpt lat="45.53013" lon="3.57371">
        <ele>1045.5</ele>
      </trkpt>
      <trkpt lat="45.53012" lon="3.57344">
        <ele>1046.3</ele>
      </trkpt>
      <trkpt lat="45.53012" lon="3.57321">
        <ele>1046.9</ele>
      </trkpt>
      <trkpt lat="45.53014" lon="3.57297">
        <ele>1047.8</ele>
      </trkpt>
      <trkpt lat="45.5302" lon="3.57267">
        <ele>1049.1</ele>
      </trkpt>
      <trkpt lat="45.53023" lon="3.57252">
        <ele>1049.7</ele>
      </trkpt>
      <trkpt lat="45.53024" lon="3.57241">
        <ele>1050.5</ele>
      </trkpt>
      <trkpt lat="45.53023" lon="3.57226">
        <ele>1051.3</ele>
      </trkpt>
      <trkpt lat="45.53017" lon="3.57196">
        <ele>1052.9</ele>
      </trkpt>
      <trkpt lat="45.53015" lon="3.57181">
        <ele>1053.9</ele>
      </trkpt>
      <trkpt lat="45.53012" lon="3.57165">
        <ele>1054.9</ele>
      </trkpt>
      <trkpt lat="45.5301" lon="3.57142">
        <ele>1056.6</ele>
      </trkpt>
      <trkpt lat="45.53008" lon="3.5712">
        <ele>1058.2</ele>
      </trkpt>
      <trkpt lat="45.53008" lon="3.57102">
        <ele>1059.6</ele>
      </trkpt>
      <trkpt lat="45.53008" lon="3.57084">
        <ele>1061</ele>
      </trkpt>
      <trkpt lat="45.53006" lon="3.57058">
        <ele>1064.1</ele>
      </trkpt>
      <trkpt lat="45.53003" lon="3.57036">
        <ele>1066.7</ele>
      </trkpt>
      <trkpt lat="45.53003" lon="3.57036">
        <ele>1066.7</ele>
      </trkpt>
      <trkpt lat="45.52999" lon="3.57019">
        <ele>1068.5</ele>
      </trkpt>
      <trkpt lat="45.52992" lon="3.57003">
        <ele>1070.3</ele>
      </trkpt>
      <trkpt lat="45.52984" lon="3.56989">
        <ele>1072.1</ele>
      </trkpt>
      <trkpt lat="45.52972" lon="3.56974">
        <ele>1073.9</ele>
      </trkpt>
      <trkpt lat="45.52963" lon="3.56967">
        <ele>1074.8</ele>
      </trkpt>
      <trkpt lat="45.5295" lon="3.56959">
        <ele>1075.7</ele>
      </trkpt>
      <trkpt lat="45.52933" lon="3.56955">
        <ele>1075.9</ele>
      </trkpt>
      <trkpt lat="45.52913" lon="3.5695">
        <ele>1076.5</ele>
      </trkpt>
      <trkpt lat="45.52899" lon="3.56945">
        <ele>1077.8</ele>
      </trkpt>
      <trkpt lat="45.52892" lon="3.56939">
        <ele>1079</ele>
      </trkpt>
      <trkpt lat="45.52887" lon="3.56941">
        <ele>1078.9</ele>
      </trkpt>
      <trkpt lat="45.52878" lon="3.56945">
        <ele>1078.4</ele>
      </trkpt>
      <trkpt lat="45.52869" lon="3.56951">
        <ele>1077.8</ele>
      </trkpt>
      <trkpt lat="45.52859" lon="3.56959">
        <ele>1077</ele>
      </trkpt>
      <trkpt lat="45.52844" lon="3.56974">
        <ele>1075.3</ele>
      </trkpt>
      <trkpt lat="45.52831" lon="3.5699">
        <ele>1073.4</ele>
      </trkpt>
      <trkpt lat="45.52814" lon="3.5701">
        <ele>1071.7</ele>
      </trkpt>
      <trkpt lat="45.52802" lon="3.57022">
        <ele>1071.2</ele>
      </trkpt>
      <trkpt lat="45.52792" lon="3.5703">
        <ele>1070.7</ele>
      </trkpt>
      <trkpt lat="45.5278" lon="3.57037">
        <ele>1070.3</ele>
      </trkpt>
      <trkpt lat="45.52774" lon="3.5704">
        <ele>1070</ele>
      </trkpt>
      <trkpt lat="45.5277" lon="3.57042">
        <ele>1069.8</ele>
      </trkpt>
      <trkpt lat="45.52761" lon="3.57045">
        <ele>1069.5</ele>
      </trkpt>
      <trkpt lat="45.52747" lon="3.5705">
        <ele>1069</ele>
      </trkpt>
      <trkpt lat="45.52734" lon="3.57056">
        <ele>1068.6</ele>
      </trkpt>
      <trkpt lat="45.52723" lon="3.57062">
        <ele>1068.1</ele>
      </trkpt>
      <trkpt lat="45.52712" lon="3.57068">
        <ele>1067.4</ele>
      </trkpt>
      <trkpt lat="45.52695" lon="3.57077">
        <ele>1066.3</ele>
      </trkpt>
      <trkpt lat="45.52687" lon="3.57082">
        <ele>1065.6</ele>
      </trkpt>
      <trkpt lat="45.52682" lon="3.57084">
        <ele>1065.3</ele>
      </trkpt>
      <trkpt lat="45.52674" lon="3.57084">
        <ele>1065.1</ele>
      </trkpt>
      <trkpt lat="45.52666" lon="3.57083">
        <ele>1065.1</ele>
      </trkpt>
      <trkpt lat="45.52655" lon="3.57077">
        <ele>1066.4</ele>
      </trkpt>
      <trkpt lat="45.52646" lon="3.5707">
        <ele>1067.7</ele>
      </trkpt>
      <trkpt lat="45.52635" lon="3.5706">
        <ele>1069.6</ele>
      </trkpt>
      <trkpt lat="45.52629" lon="3.57052">
        <ele>1070.9</ele>
      </trkpt>
      <trkpt lat="45.52616" lon="3.5704">
        <ele>1073.3</ele>
      </trkpt>
      <trkpt lat="45.52597" lon="3.57035">
        <ele>1075.2</ele>
      </trkpt>
      <trkpt lat="45.52597" lon="3.57035">
        <ele>1075.2</ele>
      </trkpt>
      <trkpt lat="45.5259" lon="3.57036">
        <ele>1075.4</ele>
      </trkpt>
      <trkpt lat="45.52582" lon="3.5704">
        <ele>1075.3</ele>
      </trkpt>
      <trkpt lat="45.52574" lon="3.57047">
        <ele>1074.7</ele>
      </trkpt>
      <trkpt lat="45.52566" lon="3.57058">
        <ele>1073.4</ele>
      </trkpt>
      <trkpt lat="45.52558" lon="3.5707">
        <ele>1072.2</ele>
      </trkpt>
      <trkpt lat="45.52553" lon="3.57077">
        <ele>1071.4</ele>
      </trkpt>
      <trkpt lat="45.52542" lon="3.57093">
        <ele>1069.8</ele>
      </trkpt>
      <trkpt lat="45.5253" lon="3.5711">
        <ele>1068.4</ele>
      </trkpt>
      <trkpt lat="45.52519" lon="3.57127">
        <ele>1067.2</ele>
      </trkpt>
      <trkpt lat="45.52514" lon="3.57131">
        <ele>1066.9</ele>
      </trkpt>
      <trkpt lat="45.52508" lon="3.57136">
        <ele>1066.8</ele>
      </trkpt>
      <trkpt lat="45.52493" lon="3.57143">
        <ele>1067.1</ele>
      </trkpt>
      <trkpt lat="45.52478" lon="3.57149">
        <ele>1067.5</ele>
      </trkpt>
      <trkpt lat="45.52464" lon="3.57156">
        <ele>1067.7</ele>
      </trkpt>
      <trkpt lat="45.52455" lon="3.57163">
        <ele>1067.6</ele>
      </trkpt>
      <trkpt lat="45.52438" lon="3.57179">
        <ele>1067.1</ele>
      </trkpt>
      <trkpt lat="45.52422" lon="3.57194">
        <ele>1066.4</ele>
      </trkpt>
      <trkpt lat="45.52411" lon="3.57206">
        <ele>1065.9</ele>
      </trkpt>
      <trkpt lat="45.524" lon="3.57218">
        <ele>1065.6</ele>
      </trkpt>
      <trkpt lat="45.52382" lon="3.57235">
        <ele>1065.3</ele>
      </trkpt>
      <trkpt lat="45.52365" lon="3.57252">
        <ele>1064.8</ele>
      </trkpt>
      <trkpt lat="45.52347" lon="3.5727">
        <ele>1065.2</ele>
      </trkpt>
      <trkpt lat="45.52329" lon="3.57287">
        <ele>1065.6</ele>
      </trkpt>
      <trkpt lat="45.52311" lon="3.57303">
        <ele>1065.5</ele>
      </trkpt>
      <trkpt lat="45.52294" lon="3.5732">
        <ele>1065.7</ele>
      </trkpt>
      <trkpt lat="45.52275" lon="3.57336">
        <ele>1066.1</ele>
      </trkpt>
      <trkpt lat="45.52256" lon="3.57352">
        <ele>1066.5</ele>
      </trkpt>
      <trkpt lat="45.52248" lon="3.57356">
        <ele>1066.5</ele>
      </trkpt>
      <trkpt lat="45.52239" lon="3.57361">
        <ele>1065.8</ele>
      </trkpt>
      <trkpt lat="45.52232" lon="3.57364">
        <ele>1065.3</ele>
      </trkpt>
      <trkpt lat="45.52223" lon="3.57366">
        <ele>1064.8</ele>
      </trkpt>
      <trkpt lat="45.52213" lon="3.57368">
        <ele>1064.3</ele>
      </trkpt>
      <trkpt lat="45.52195" lon="3.57371">
        <ele>1063.5</ele>
      </trkpt>
      <trkpt lat="45.52195" lon="3.57371">
        <ele>1063.5</ele>
      </trkpt>
      <trkpt lat="45.52178" lon="3.57375">
        <ele>1062.9</ele>
      </trkpt>
      <trkpt lat="45.52162" lon="3.57379">
        <ele>1062.2</ele>
      </trkpt>
      <trkpt lat="45.52144" lon="3.57382">
        <ele>1060.6</ele>
      </trkpt>
      <trkpt lat="45.52126" lon="3.57393">
        <ele>1059.3</ele>
      </trkpt>
      <trkpt lat="45.52113" lon="3.57403">
        <ele>1058.3</ele>
      </trkpt>
      <trkpt lat="45.52099" lon="3.57414">
        <ele>1057.4</ele>
      </trkpt>
      <trkpt lat="45.52081" lon="3.5743">
        <ele>1055.7</ele>
      </trkpt>
      <trkpt lat="45.52063" lon="3.57447">
        <ele>1054.4</ele>
      </trkpt>
      <trkpt lat="45.52045" lon="3.57463">
        <ele>1053.1</ele>
      </trkpt>
      <trkpt lat="45.52026" lon="3.5748">
        <ele>1051.8</ele>
      </trkpt>
      <trkpt lat="45.52011" lon="3.57493">
        <ele>1050.8</ele>
      </trkpt>
      <trkpt lat="45.51997" lon="3.57505">
        <ele>1049.8</ele>
      </trkpt>
      <trkpt lat="45.5198" lon="3.57519">
        <ele>1049</ele>
      </trkpt>
      <trkpt lat="45.51963" lon="3.57533">
        <ele>1048.2</ele>
      </trkpt>
      <trkpt lat="45.51956" lon="3.57542">
        <ele>1047.9</ele>
      </trkpt>
      <trkpt lat="45.51951" lon="3.57547">
        <ele>1047.6</ele>
      </trkpt>
      <trkpt lat="45.51945" lon="3.57553">
        <ele>1047.4</ele>
      </trkpt>
      <trkpt lat="45.51937" lon="3.57576">
        <ele>1047</ele>
      </trkpt>
      <trkpt lat="45.51931" lon="3.57594">
        <ele>1046.8</ele>
      </trkpt>
      <trkpt lat="45.51929" lon="3.57608">
        <ele>1046.7</ele>
      </trkpt>
      <trkpt lat="45.51928" lon="3.57617">
        <ele>1046.7</ele>
      </trkpt>
      <trkpt lat="45.51927" lon="3.57627">
        <ele>1046.7</ele>
      </trkpt>
      <trkpt lat="45.5192" lon="3.57628">
        <ele>1046.2</ele>
      </trkpt>
      <trkpt lat="45.51913" lon="3.5763">
        <ele>1045.8</ele>
      </trkpt>
      <trkpt lat="45.519" lon="3.57634">
        <ele>1045.3</ele>
      </trkpt>
      <trkpt lat="45.51894" lon="3.57634">
        <ele>1045</ele>
      </trkpt>
      <trkpt lat="45.51887" lon="3.57635">
        <ele>1044.7</ele>
      </trkpt>
      <trkpt lat="45.51873" lon="3.57637">
        <ele>1044.1</ele>
      </trkpt>
      <trkpt lat="45.51874" lon="3.57622">
        <ele>1044.2</ele>
      </trkpt>
      <trkpt lat="45.51874" lon="3.57612">
        <ele>1044.3</ele>
      </trkpt>
      <trkpt lat="45.51874" lon="3.57602">
        <ele>1044.4</ele>
      </trkpt>
      <trkpt lat="45.51875" lon="3.5759">
        <ele>1044.5</ele>
      </trkpt>
      <trkpt lat="45.51875" lon="3.57578">
        <ele>1044.4</ele>
      </trkpt>
      <trkpt lat="45.51871" lon="3.57565">
        <ele>1044.1</ele>
      </trkpt>
      <trkpt lat="45.51867" lon="3.5755">
        <ele>1043.7</ele>
      </trkpt>
      <trkpt lat="45.51862" lon="3.5754">
        <ele>1043.4</ele>
      </trkpt>
      <trkpt lat="45.51862" lon="3.5754">
        <ele>1043.4</ele>
      </trkpt>
      <trkpt lat="45.51858" lon="3.57534">
        <ele>1043.1</ele>
      </trkpt>
      <trkpt lat="45.51851" lon="3.57526">
        <ele>1042.6</ele>
      </trkpt>
      <trkpt lat="45.51847" lon="3.57521">
        <ele>1042.2</ele>
      </trkpt>
      <trkpt lat="45.5184" lon="3.5752">
        <ele>1041.8</ele>
      </trkpt>
      <trkpt lat="45.51831" lon="3.5752">
        <ele>1041.4</ele>
      </trkpt>
      <trkpt lat="45.51824" lon="3.57523">
        <ele>1041.1</ele>
      </trkpt>
      <trkpt lat="45.51819" lon="3.57526">
        <ele>1040.9</ele>
      </trkpt>
      <trkpt lat="45.51816" lon="3.57533">
        <ele>1041</ele>
      </trkpt>
      <trkpt lat="45.51807" lon="3.57531">
        <ele>1040.5</ele>
      </trkpt>
      <trkpt lat="45.51798" lon="3.57536">
        <ele>1040.2</ele>
      </trkpt>
      <trkpt lat="45.51785" lon="3.57544">
        <ele>1039.7</ele>
      </trkpt>
      <trkpt lat="45.51776" lon="3.57549">
        <ele>1039.4</ele>
      </trkpt>
      <trkpt lat="45.51763" lon="3.57554">
        <ele>1038.9</ele>
      </trkpt>
      <trkpt lat="45.51755" lon="3.57557">
        <ele>1038.6</ele>
      </trkpt>
      <trkpt lat="45.51748" lon="3.57562">
        <ele>1038.3</ele>
      </trkpt>
      <trkpt lat="45.51738" lon="3.57574">
        <ele>1038</ele>
      </trkpt>
      <trkpt lat="45.51728" lon="3.57586">
        <ele>1037.6</ele>
      </trkpt>
      <trkpt lat="45.51718" lon="3.57597">
        <ele>1036.8</ele>
      </trkpt>
      <trkpt lat="45.51708" lon="3.57606">
        <ele>1036</ele>
      </trkpt>
      <trkpt lat="45.51697" lon="3.57613">
        <ele>1035.3</ele>
      </trkpt>
      <trkpt lat="45.51688" lon="3.57619">
        <ele>1034.7</ele>
      </trkpt>
      <trkpt lat="45.51677" lon="3.57625">
        <ele>1034.1</ele>
      </trkpt>
      <trkpt lat="45.5167" lon="3.57628">
        <ele>1033.6</ele>
      </trkpt>
      <trkpt lat="45.5166" lon="3.57629">
        <ele>1032.9</ele>
      </trkpt>
      <trkpt lat="45.51646" lon="3.57629">
        <ele>1031.9</ele>
      </trkpt>
      <trkpt lat="45.51634" lon="3.57629">
        <ele>1030.9</ele>
      </trkpt>
      <trkpt lat="45.51624" lon="3.57628">
        <ele>1030.1</ele>
      </trkpt>
      <trkpt lat="45.51614" lon="3.57626">
        <ele>1029.4</ele>
      </trkpt>
      <trkpt lat="45.51603" lon="3.57623">
        <ele>1028.6</ele>
      </trkpt>
      <trkpt lat="45.51591" lon="3.57618">
        <ele>1027.7</ele>
      </trkpt>
      <trkpt lat="45.51578" lon="3.57611">
        <ele>1026.9</ele>
      </trkpt>
      <trkpt lat="45.51563" lon="3.57601">
        <ele>1026</ele>
      </trkpt>
      <trkpt lat="45.51553" lon="3.57594">
        <ele>1025.2</ele>
      </trkpt>
      <trkpt lat="45.51539" lon="3.57585">
        <ele>1024.2</ele>
      </trkpt>
      <trkpt lat="45.51527" lon="3.57579">
        <ele>1023.5</ele>
      </trkpt>
      <trkpt lat="45.51515" lon="3.57572">
        <ele>1022.8</ele>
      </trkpt>
      <trkpt lat="45.51501" lon="3.57567">
        <ele>1022.1</ele>
      </trkpt>
      <trkpt lat="45.51486" lon="3.57561">
        <ele>1021.9</ele>
      </trkpt>
      <trkpt lat="45.51472" lon="3.57557">
        <ele>1021.8</ele>
      </trkpt>
      <trkpt lat="45.51454" lon="3.57553">
        <ele>1021.5</ele>
      </trkpt>
      <trkpt lat="45.51446" lon="3.57552">
        <ele>1021.4</ele>
      </trkpt>
      <trkpt lat="45.51434" lon="3.57552">
        <ele>1021</ele>
      </trkpt>
      <trkpt lat="45.51434" lon="3.57552">
        <ele>1021</ele>
      </trkpt>
      <trkpt lat="45.51422" lon="3.57552">
        <ele>1020.7</ele>
      </trkpt>
      <trkpt lat="45.51408" lon="3.57551">
        <ele>1019.9</ele>
      </trkpt>
      <trkpt lat="45.51394" lon="3.57549">
        <ele>1018.9</ele>
      </trkpt>
      <trkpt lat="45.51381" lon="3.57544">
        <ele>1018.1</ele>
      </trkpt>
      <trkpt lat="45.51368" lon="3.5754">
        <ele>1017.2</ele>
      </trkpt>
      <trkpt lat="45.51356" lon="3.57535">
        <ele>1016.5</ele>
      </trkpt>
      <trkpt lat="45.5135" lon="3.57531">
        <ele>1016.2</ele>
      </trkpt>
      <trkpt lat="45.51342" lon="3.57525">
        <ele>1015.8</ele>
      </trkpt>
      <trkpt lat="45.5133" lon="3.5752">
        <ele>1015.2</ele>
      </trkpt>
      <trkpt lat="45.51316" lon="3.57515">
        <ele>1015.1</ele>
      </trkpt>
      <trkpt lat="45.51303" lon="3.5751">
        <ele>1015</ele>
      </trkpt>
      <trkpt lat="45.51291" lon="3.57505">
        <ele>1014.9</ele>
      </trkpt>
      <trkpt lat="45.51275" lon="3.57495">
        <ele>1014.4</ele>
      </trkpt>
      <trkpt lat="45.51258" lon="3.57485">
        <ele>1013.5</ele>
      </trkpt>
      <trkpt lat="45.51242" lon="3.57475">
        <ele>1013</ele>
      </trkpt>
      <trkpt lat="45.51226" lon="3.57466">
        <ele>1012.9</ele>
      </trkpt>
      <trkpt lat="45.51214" lon="3.57462">
        <ele>1012.9</ele>
      </trkpt>
      <trkpt lat="45.51202" lon="3.57458">
        <ele>1012.8</ele>
      </trkpt>
      <trkpt lat="45.51186" lon="3.57472">
        <ele>1014.2</ele>
      </trkpt>
      <trkpt lat="45.51169" lon="3.57485">
        <ele>1015.7</ele>
      </trkpt>
      <trkpt lat="45.51153" lon="3.57499">
        <ele>1017.6</ele>
      </trkpt>
      <trkpt lat="45.51136" lon="3.57513">
        <ele>1018.5</ele>
      </trkpt>
      <trkpt lat="45.5112" lon="3.57526">
        <ele>1019.4</ele>
      </trkpt>
      <trkpt lat="45.51104" lon="3.5754">
        <ele>1020.1</ele>
      </trkpt>
      <trkpt lat="45.51087" lon="3.57553">
        <ele>1020.8</ele>
      </trkpt>
      <trkpt lat="45.5107" lon="3.57558">
        <ele>1021.3</ele>
      </trkpt>
      <trkpt lat="45.51053" lon="3.57562">
        <ele>1021.6</ele>
      </trkpt>
      <trkpt lat="45.51036" lon="3.57567">
        <ele>1022</ele>
      </trkpt>
      <trkpt lat="45.51019" lon="3.57566">
        <ele>1022.4</ele>
      </trkpt>
      <trkpt lat="45.51001" lon="3.57566">
        <ele>1022.8</ele>
      </trkpt>
      <trkpt lat="45.50984" lon="3.57566">
        <ele>1022.3</ele>
      </trkpt>
      <trkpt lat="45.50984" lon="3.57566">
        <ele>1022.3</ele>
      </trkpt>
      <trkpt lat="45.50978" lon="3.57566">
        <ele>1022.1</ele>
      </trkpt>
      <trkpt lat="45.50965" lon="3.57567">
        <ele>1021.7</ele>
      </trkpt>
      <trkpt lat="45.50953" lon="3.57563">
        <ele>1021.3</ele>
      </trkpt>
      <trkpt lat="45.5095" lon="3.5757">
        <ele>1021.2</ele>
      </trkpt>
      <trkpt lat="45.5094" lon="3.57574">
        <ele>1020.9</ele>
      </trkpt>
      <trkpt lat="45.50926" lon="3.57578">
        <ele>1020.4</ele>
      </trkpt>
      <trkpt lat="45.50917" lon="3.57581">
        <ele>1020</ele>
      </trkpt>
      <trkpt lat="45.50908" lon="3.57586">
        <ele>1021</ele>
      </trkpt>
      <trkpt lat="45.509" lon="3.57593">
        <ele>1021.6</ele>
      </trkpt>
      <trkpt lat="45.50896" lon="3.57601">
        <ele>1021.8</ele>
      </trkpt>
      <trkpt lat="45.50886" lon="3.5758">
        <ele>1023.7</ele>
      </trkpt>
      <trkpt lat="45.50879" lon="3.57563">
        <ele>1024.4</ele>
      </trkpt>
      <trkpt lat="45.50872" lon="3.57545">
        <ele>1024.9</ele>
      </trkpt>
      <trkpt lat="45.50863" lon="3.5753">
        <ele>1025.4</ele>
      </trkpt>
      <trkpt lat="45.50855" lon="3.57515">
        <ele>1025.8</ele>
      </trkpt>
      <trkpt lat="45.50848" lon="3.575">
        <ele>1025.9</ele>
      </trkpt>
      <trkpt lat="45.50841" lon="3.57485">
        <ele>1025.2</ele>
      </trkpt>
      <trkpt lat="45.50833" lon="3.57472">
        <ele>1024.7</ele>
      </trkpt>
      <trkpt lat="45.50825" lon="3.57459">
        <ele>1024.5</ele>
      </trkpt>
      <trkpt lat="45.50811" lon="3.57439">
        <ele>1024.4</ele>
      </trkpt>
      <trkpt lat="45.50796" lon="3.57417">
        <ele>1024.5</ele>
      </trkpt>
      <trkpt lat="45.50784" lon="3.57403">
        <ele>1023.5</ele>
      </trkpt>
      <trkpt lat="45.50773" lon="3.57393">
        <ele>1022.9</ele>
      </trkpt>
      <trkpt lat="45.50761" lon="3.57385">
        <ele>1022.2</ele>
      </trkpt>
      <trkpt lat="45.50741" lon="3.57371">
        <ele>1020.5</ele>
      </trkpt>
      <trkpt lat="45.50725" lon="3.57364">
        <ele>1019.6</ele>
      </trkpt>
      <trkpt lat="45.50709" lon="3.57357">
        <ele>1018.7</ele>
      </trkpt>
      <trkpt lat="45.50695" lon="3.5735">
        <ele>1018</ele>
      </trkpt>
      <trkpt lat="45.50681" lon="3.57343">
        <ele>1017.3</ele>
      </trkpt>
      <trkpt lat="45.50666" lon="3.57337">
        <ele>1016.7</ele>
      </trkpt>
      <trkpt lat="45.50651" lon="3.57331">
        <ele>1015.4</ele>
      </trkpt>
      <trkpt lat="45.50646" lon="3.57329">
        <ele>1015</ele>
      </trkpt>
      <trkpt lat="45.5063" lon="3.57322">
        <ele>1013.7</ele>
      </trkpt>
      <trkpt lat="45.50612" lon="3.57313">
        <ele>1011.9</ele>
      </trkpt>
      <trkpt lat="45.50596" lon="3.57304">
        <ele>1010.1</ele>
      </trkpt>
      <trkpt lat="45.50596" lon="3.57304">
        <ele>1010.1</ele>
      </trkpt>
      <trkpt lat="45.50585" lon="3.57295">
        <ele>1008.2</ele>
      </trkpt>
      <trkpt lat="45.50577" lon="3.57284">
        <ele>1005.7</ele>
      </trkpt>
      <trkpt lat="45.50569" lon="3.57272">
        <ele>1003.1</ele>
      </trkpt>
      <trkpt lat="45.5056" lon="3.57251">
        <ele>999.3</ele>
      </trkpt>
      <trkpt lat="45.50549" lon="3.57227">
        <ele>998.3</ele>
      </trkpt>
      <trkpt lat="45.50539" lon="3.57207">
        <ele>997.7</ele>
      </trkpt>
      <trkpt lat="45.50528" lon="3.57192">
        <ele>997.3</ele>
      </trkpt>
      <trkpt lat="45.50524" lon="3.57189">
        <ele>997.2</ele>
      </trkpt>
      <trkpt lat="45.50525" lon="3.5718">
        <ele>997.1</ele>
      </trkpt>
      <trkpt lat="45.50521" lon="3.5717">
        <ele>997</ele>
      </trkpt>
      <trkpt lat="45.50517" lon="3.57157">
        <ele>998.5</ele>
      </trkpt>
      <trkpt lat="45.50507" lon="3.57156">
        <ele>998.9</ele>
      </trkpt>
      <trkpt lat="45.50498" lon="3.57154">
        <ele>999.6</ele>
      </trkpt>
      <trkpt lat="45.50491" lon="3.5715">
        <ele>1001.4</ele>
      </trkpt>
      <trkpt lat="45.50478" lon="3.57142">
        <ele>1004.3</ele>
      </trkpt>
      <trkpt lat="45.50459" lon="3.5713">
        <ele>1008.8</ele>
      </trkpt>
      <trkpt lat="45.50442" lon="3.57115">
        <ele>1013.3</ele>
      </trkpt>
      <trkpt lat="45.50427" lon="3.57103">
        <ele>1016.8</ele>
      </trkpt>
      <trkpt lat="45.50418" lon="3.57093">
        <ele>1019.4</ele>
      </trkpt>
      <trkpt lat="45.50407" lon="3.57076">
        <ele>1021.3</ele>
      </trkpt>
      <trkpt lat="45.50394" lon="3.57055">
        <ele>1022.6</ele>
      </trkpt>
      <trkpt lat="45.50385" lon="3.57039">
        <ele>1023.5</ele>
      </trkpt>
      <trkpt lat="45.50373" lon="3.57022">
        <ele>1024.4</ele>
      </trkpt>
      <trkpt lat="45.50359" lon="3.57004">
        <ele>1025.2</ele>
      </trkpt>
      <trkpt lat="45.50344" lon="3.56987">
        <ele>1026.2</ele>
      </trkpt>
      <trkpt lat="45.50328" lon="3.56974">
        <ele>1027</ele>
      </trkpt>
      <trkpt lat="45.50318" lon="3.56967">
        <ele>1027.1</ele>
      </trkpt>
      <trkpt lat="45.5031" lon="3.5696">
        <ele>1027.5</ele>
      </trkpt>
      <trkpt lat="45.50303" lon="3.5695">
        <ele>1028.1</ele>
      </trkpt>
      <trkpt lat="45.50296" lon="3.56939">
        <ele>1029</ele>
      </trkpt>
      <trkpt lat="45.50291" lon="3.56934">
        <ele>1029.3</ele>
      </trkpt>
      <trkpt lat="45.50286" lon="3.56929">
        <ele>1029.5</ele>
      </trkpt>
      <trkpt lat="45.50279" lon="3.56925">
        <ele>1029.4</ele>
      </trkpt>
      <trkpt lat="45.50267" lon="3.56922">
        <ele>1028.8</ele>
      </trkpt>
      <trkpt lat="45.50258" lon="3.56921">
        <ele>1028.1</ele>
      </trkpt>
      <trkpt lat="45.50243" lon="3.56918">
        <ele>1028.1</ele>
      </trkpt>
      <trkpt lat="45.50243" lon="3.56918">
        <ele>1028.1</ele>
      </trkpt>
      <trkpt lat="45.50228" lon="3.56919">
        <ele>1028.8</ele>
      </trkpt>
      <trkpt lat="45.50213" lon="3.56921">
        <ele>1029.2</ele>
      </trkpt>
      <trkpt lat="45.50198" lon="3.56924">
        <ele>1029.6</ele>
      </trkpt>
      <trkpt lat="45.50184" lon="3.56926">
        <ele>1030</ele>
      </trkpt>
      <trkpt lat="45.50166" lon="3.56932">
        <ele>1030</ele>
      </trkpt>
      <trkpt lat="45.50158" lon="3.56934">
        <ele>1029.8</ele>
      </trkpt>
      <trkpt lat="45.50159" lon="3.5692">
        <ele>1031.5</ele>
      </trkpt>
      <trkpt lat="45.50158" lon="3.56906">
        <ele>1033</ele>
      </trkpt>
      <trkpt lat="45.50157" lon="3.56894">
        <ele>1034.1</ele>
      </trkpt>
      <trkpt lat="45.50154" lon="3.56883">
        <ele>1035.1</ele>
      </trkpt>
      <trkpt lat="45.5015" lon="3.56872">
        <ele>1035.9</ele>
      </trkpt>
      <trkpt lat="45.50154" lon="3.56867">
        <ele>1036.6</ele>
      </trkpt>
      <trkpt lat="45.50167" lon="3.56848">
        <ele>1039.5</ele>
      </trkpt>
      <trkpt lat="45.5018" lon="3.56827">
        <ele>1041.3</ele>
      </trkpt>
      <trkpt lat="45.50186" lon="3.56817">
        <ele>1041.8</ele>
      </trkpt>
      <trkpt lat="45.5019" lon="3.56811">
        <ele>1042.2</ele>
      </trkpt>
      <trkpt lat="45.50198" lon="3.56797">
        <ele>1043.2</ele>
      </trkpt>
      <trkpt lat="45.50205" lon="3.56781">
        <ele>1044.2</ele>
      </trkpt>
      <trkpt lat="45.50209" lon="3.56769">
        <ele>1045.2</ele>
      </trkpt>
      <trkpt lat="45.50211" lon="3.56753">
        <ele>1046.3</ele>
      </trkpt>
      <trkpt lat="45.50211" lon="3.56738">
        <ele>1046.7</ele>
      </trkpt>
      <trkpt lat="45.50211" lon="3.56725">
        <ele>1046.9</ele>
      </trkpt>
      <trkpt lat="45.50211" lon="3.56713">
        <ele>1047</ele>
      </trkpt>
      <trkpt lat="45.50214" lon="3.567">
        <ele>1047.4</ele>
      </trkpt>
      <trkpt lat="45.50221" lon="3.5667">
        <ele>1048.5</ele>
      </trkpt>
      <trkpt lat="45.50223" lon="3.56648">
        <ele>1048.9</ele>
      </trkpt>
      <trkpt lat="45.50225" lon="3.5663">
        <ele>1049.2</ele>
      </trkpt>
      <trkpt lat="45.50229" lon="3.56614">
        <ele>1049.7</ele>
      </trkpt>
      <trkpt lat="45.50236" lon="3.56584">
        <ele>1050.7</ele>
      </trkpt>
      <trkpt lat="45.5024" lon="3.56566">
        <ele>1051.5</ele>
      </trkpt>
      <trkpt lat="45.50243" lon="3.56549">
        <ele>1052.3</ele>
      </trkpt>
      <trkpt lat="45.50245" lon="3.56539">
        <ele>1052.7</ele>
      </trkpt>
      <trkpt lat="45.50247" lon="3.56527">
        <ele>1053.1</ele>
      </trkpt>
      <trkpt lat="45.5025" lon="3.5651">
        <ele>1053.8</ele>
      </trkpt>
      <trkpt lat="45.50255" lon="3.56492">
        <ele>1054.1</ele>
      </trkpt>
      <trkpt lat="45.50263" lon="3.5647">
        <ele>1054.5</ele>
      </trkpt>
      <trkpt lat="45.50272" lon="3.56441">
        <ele>1055</ele>
      </trkpt>
      <trkpt lat="45.50278" lon="3.56424">
        <ele>1055.1</ele>
      </trkpt>
      <trkpt lat="45.50278" lon="3.56424">
        <ele>1055.1</ele>
      </trkpt>
      <trkpt lat="45.50284" lon="3.56408">
        <ele>1055</ele>
      </trkpt>
      <trkpt lat="45.50294" lon="3.56379">
        <ele>1054.7</ele>
      </trkpt>
      <trkpt lat="45.50303" lon="3.5635">
        <ele>1054.5</ele>
      </trkpt>
      <trkpt lat="45.50313" lon="3.56325">
        <ele>1054</ele>
      </trkpt>
      <trkpt lat="45.50321" lon="3.56307">
        <ele>1053.4</ele>
      </trkpt>
      <trkpt lat="45.50329" lon="3.56289">
        <ele>1052.9</ele>
      </trkpt>
      <trkpt lat="45.50339" lon="3.56267">
        <ele>1052.9</ele>
      </trkpt>
      <trkpt lat="45.50348" lon="3.56252">
        <ele>1053.3</ele>
      </trkpt>
      <trkpt lat="45.50357" lon="3.56239">
        <ele>1053.6</ele>
      </trkpt>
      <trkpt lat="45.50367" lon="3.56228">
        <ele>1053.9</ele>
      </trkpt>
      <trkpt lat="45.50379" lon="3.56216">
        <ele>1054.3</ele>
      </trkpt>
      <trkpt lat="45.50386" lon="3.56206">
        <ele>1054.6</ele>
      </trkpt>
      <trkpt lat="45.50391" lon="3.56192">
        <ele>1054.9</ele>
      </trkpt>
      <trkpt lat="45.50395" lon="3.56169">
        <ele>1055.2</ele>
      </trkpt>
      <trkpt lat="45.50399" lon="3.56143">
        <ele>1055.2</ele>
      </trkpt>
      <trkpt lat="45.50403" lon="3.56122">
        <ele>1055.3</ele>
      </trkpt>
      <trkpt lat="45.50409" lon="3.56101">
        <ele>1055.6</ele>
      </trkpt>
      <trkpt lat="45.50418" lon="3.56078">
        <ele>1055.7</ele>
      </trkpt>
      <trkpt lat="45.50419" lon="3.56066">
        <ele>1055.2</ele>
      </trkpt>
      <trkpt lat="45.50416" lon="3.56061">
        <ele>1054.8</ele>
      </trkpt>
      <trkpt lat="45.50408" lon="3.56052">
        <ele>1054</ele>
      </trkpt>
      <trkpt lat="45.50404" lon="3.56044">
        <ele>1053.4</ele>
      </trkpt>
      <trkpt lat="45.50393" lon="3.56025">
        <ele>1051.8</ele>
      </trkpt>
      <trkpt lat="45.50382" lon="3.56007">
        <ele>1050.2</ele>
      </trkpt>
      <trkpt lat="45.5037" lon="3.55991">
        <ele>1048.7</ele>
      </trkpt>
      <trkpt lat="45.50364" lon="3.55986">
        <ele>1048.1</ele>
      </trkpt>
      <trkpt lat="45.50365" lon="3.55979">
        <ele>1047.8</ele>
      </trkpt>
      <trkpt lat="45.50358" lon="3.55979">
        <ele>1047.4</ele>
      </trkpt>
      <trkpt lat="45.50348" lon="3.55972">
        <ele>1046.6</ele>
      </trkpt>
      <trkpt lat="45.50334" lon="3.55969">
        <ele>1045.9</ele>
      </trkpt>
      <trkpt lat="45.50319" lon="3.55968">
        <ele>1045.5</ele>
      </trkpt>
      <trkpt lat="45.50311" lon="3.55967">
        <ele>1045.3</ele>
      </trkpt>
      <trkpt lat="45.50302" lon="3.55962">
        <ele>1044.9</ele>
      </trkpt>
      <trkpt lat="45.50292" lon="3.55953">
        <ele>1044.3</ele>
      </trkpt>
      <trkpt lat="45.50286" lon="3.55944">
        <ele>1043.8</ele>
      </trkpt>
      <trkpt lat="45.50286" lon="3.55944">
        <ele>1043.8</ele>
      </trkpt>
      <trkpt lat="45.50283" lon="3.55936">
        <ele>1043.5</ele>
      </trkpt>
      <trkpt lat="45.50282" lon="3.55928">
        <ele>1043.2</ele>
      </trkpt>
      <trkpt lat="45.50285" lon="3.55915">
        <ele>1042.7</ele>
      </trkpt>
      <trkpt lat="45.50285" lon="3.559">
        <ele>1041.6</ele>
      </trkpt>
      <trkpt lat="45.5028" lon="3.55876">
        <ele>1039.8</ele>
      </trkpt>
      <trkpt lat="45.50274" lon="3.5585">
        <ele>1037.8</ele>
      </trkpt>
      <trkpt lat="45.50269" lon="3.55833">
        <ele>1036.5</ele>
      </trkpt>
      <trkpt lat="45.50264" lon="3.55816">
        <ele>1035</ele>
      </trkpt>
      <trkpt lat="45.50254" lon="3.55788">
        <ele>1032.8</ele>
      </trkpt>
      <trkpt lat="45.5025" lon="3.55771">
        <ele>1031.5</ele>
      </trkpt>
      <trkpt lat="45.50245" lon="3.55755">
        <ele>1030.3</ele>
      </trkpt>
      <trkpt lat="45.50243" lon="3.55742">
        <ele>1029.6</ele>
      </trkpt>
      <trkpt lat="45.50244" lon="3.5573">
        <ele>1029.1</ele>
      </trkpt>
      <trkpt lat="45.50246" lon="3.55721">
        <ele>1028.6</ele>
      </trkpt>
      <trkpt lat="45.5025" lon="3.55714">
        <ele>1028.3</ele>
      </trkpt>
      <trkpt lat="45.50256" lon="3.55706">
        <ele>1027.8</ele>
      </trkpt>
      <trkpt lat="45.50261" lon="3.55696">
        <ele>1027.2</ele>
      </trkpt>
      <trkpt lat="45.50264" lon="3.55681">
        <ele>1026.2</ele>
      </trkpt>
      <trkpt lat="45.50264" lon="3.55664">
        <ele>1025.3</ele>
      </trkpt>
      <trkpt lat="45.50263" lon="3.55647">
        <ele>1024.5</ele>
      </trkpt>
      <trkpt lat="45.5026" lon="3.55632">
        <ele>1023.8</ele>
      </trkpt>
      <trkpt lat="45.50259" lon="3.55624">
        <ele>1023.3</ele>
      </trkpt>
      <trkpt lat="45.50261" lon="3.55612">
        <ele>1022.7</ele>
      </trkpt>
      <trkpt lat="45.50271" lon="3.55597">
        <ele>1021.9</ele>
      </trkpt>
      <trkpt lat="45.5028" lon="3.55579">
        <ele>1021.3</ele>
      </trkpt>
      <trkpt lat="45.50287" lon="3.55563">
        <ele>1021.3</ele>
      </trkpt>
      <trkpt lat="45.50294" lon="3.55547">
        <ele>1021.3</ele>
      </trkpt>
      <trkpt lat="45.503" lon="3.55535">
        <ele>1021.5</ele>
      </trkpt>
      <trkpt lat="45.50304" lon="3.55529">
        <ele>1021.6</ele>
      </trkpt>
      <trkpt lat="45.50308" lon="3.55524">
        <ele>1021.8</ele>
      </trkpt>
      <trkpt lat="45.50315" lon="3.55515">
        <ele>1022</ele>
      </trkpt>
      <trkpt lat="45.50325" lon="3.55508">
        <ele>1022.5</ele>
      </trkpt>
      <trkpt lat="45.50332" lon="3.55502">
        <ele>1022.9</ele>
      </trkpt>
      <trkpt lat="45.50335" lon="3.55496">
        <ele>1023.1</ele>
      </trkpt>
      <trkpt lat="45.50339" lon="3.55483">
        <ele>1023.4</ele>
      </trkpt>
      <trkpt lat="45.50341" lon="3.55469">
        <ele>1023.5</ele>
      </trkpt>
      <trkpt lat="45.50342" lon="3.55449">
        <ele>1023.6</ele>
      </trkpt>
      <trkpt lat="45.50342" lon="3.55433">
        <ele>1023.6</ele>
      </trkpt>
      <trkpt lat="45.50342" lon="3.5542">
        <ele>1023.6</ele>
      </trkpt>
      <trkpt lat="45.50341" lon="3.55411">
        <ele>1024</ele>
      </trkpt>
      <trkpt lat="45.50337" lon="3.55394">
        <ele>1025.4</ele>
      </trkpt>
      <trkpt lat="45.50336" lon="3.55382">
        <ele>1026.4</ele>
      </trkpt>
      <trkpt lat="45.50333" lon="3.55367">
        <ele>1027.8</ele>
      </trkpt>
      <trkpt lat="45.50331" lon="3.5535">
        <ele>1029.4</ele>
      </trkpt>
      <trkpt lat="45.50331" lon="3.5535">
        <ele>1029.4</ele>
      </trkpt>
      <trkpt lat="45.50328" lon="3.5533">
        <ele>1031.4</ele>
      </trkpt>
      <trkpt lat="45.50327" lon="3.55309">
        <ele>1035.2</ele>
      </trkpt>
      <trkpt lat="45.50325" lon="3.55287">
        <ele>1038.9</ele>
      </trkpt>
      <trkpt lat="45.50325" lon="3.55266">
        <ele>1042.5</ele>
      </trkpt>
      <trkpt lat="45.50325" lon="3.55244">
        <ele>1045.9</ele>
      </trkpt>
      <trkpt lat="45.50324" lon="3.55224">
        <ele>1047.7</ele>
      </trkpt>
      <trkpt lat="45.50323" lon="3.55209">
        <ele>1048.9</ele>
      </trkpt>
      <trkpt lat="45.50319" lon="3.55193">
        <ele>1049.9</ele>
      </trkpt>
      <trkpt lat="45.50315" lon="3.55176">
        <ele>1050.7</ele>
      </trkpt>
      <trkpt lat="45.50312" lon="3.55157">
        <ele>1051.7</ele>
      </trkpt>
      <trkpt lat="45.50312" lon="3.55139">
        <ele>1052.6</ele>
      </trkpt>
      <trkpt lat="45.5031" lon="3.55123">
        <ele>1053.1</ele>
      </trkpt>
      <trkpt lat="45.50306" lon="3.55107">
        <ele>1053.3</ele>
      </trkpt>
      <trkpt lat="45.50305" lon="3.55089">
        <ele>1054</ele>
      </trkpt>
      <trkpt lat="45.50303" lon="3.55066">
        <ele>1054.2</ele>
      </trkpt>
      <trkpt lat="45.50298" lon="3.55047">
        <ele>1053.7</ele>
      </trkpt>
      <trkpt lat="45.5029" lon="3.55029">
        <ele>1052.5</ele>
      </trkpt>
      <trkpt lat="45.50285" lon="3.5501">
        <ele>1051.8</ele>
      </trkpt>
      <trkpt lat="45.50281" lon="3.54988">
        <ele>1051.1</ele>
      </trkpt>
      <trkpt lat="45.50278" lon="3.54962">
        <ele>1050.7</ele>
      </trkpt>
      <trkpt lat="45.50277" lon="3.54935">
        <ele>1050.6</ele>
      </trkpt>
      <trkpt lat="45.50277" lon="3.54935">
        <ele>1050.6</ele>
      </trkpt>
      <trkpt lat="45.50277" lon="3.54915">
        <ele>1050.9</ele>
      </trkpt>
      <trkpt lat="45.50277" lon="3.54895">
        <ele>1051.5</ele>
      </trkpt>
      <trkpt lat="45.50275" lon="3.54868">
        <ele>1052</ele>
      </trkpt>
      <trkpt lat="45.50271" lon="3.54846">
        <ele>1052.2</ele>
      </trkpt>
      <trkpt lat="45.50269" lon="3.54822">
        <ele>1052.2</ele>
      </trkpt>
      <trkpt lat="45.50269" lon="3.54801">
        <ele>1052</ele>
      </trkpt>
      <trkpt lat="45.50266" lon="3.54783">
        <ele>1051.7</ele>
      </trkpt>
      <trkpt lat="45.50262" lon="3.54771">
        <ele>1051.3</ele>
      </trkpt>
      <trkpt lat="45.50254" lon="3.54755">
        <ele>1050.4</ele>
      </trkpt>
      <trkpt lat="45.50247" lon="3.54744">
        <ele>1050.4</ele>
      </trkpt>
      <trkpt lat="45.50239" lon="3.54735">
        <ele>1051.2</ele>
      </trkpt>
      <trkpt lat="45.50232" lon="3.54721">
        <ele>1052</ele>
      </trkpt>
      <trkpt lat="45.50232" lon="3.54721">
        <ele>1052</ele>
      </trkpt>
      <trkpt lat="45.50223" lon="3.54701">
        <ele>1053</ele>
      </trkpt>
      <trkpt lat="45.50213" lon="3.54694">
        <ele>1053.9</ele>
      </trkpt>
      <trkpt lat="45.50213" lon="3.54687">
        <ele>1054</ele>
      </trkpt>
      <trkpt lat="45.50214" lon="3.54678">
        <ele>1054</ele>
      </trkpt>
      <trkpt lat="45.50214" lon="3.54665">
        <ele>1054.1</ele>
      </trkpt>
      <trkpt lat="45.50221" lon="3.54647">
        <ele>1054.4</ele>
      </trkpt>
      <trkpt lat="45.50225" lon="3.54635">
        <ele>1054.5</ele>
      </trkpt>
      <trkpt lat="45.5023" lon="3.54623">
        <ele>1054.5</ele>
      </trkpt>
      <trkpt lat="45.50241" lon="3.54598">
        <ele>1054.4</ele>
      </trkpt>
      <trkpt lat="45.50247" lon="3.54585">
        <ele>1054.3</ele>
      </trkpt>
      <trkpt lat="45.50253" lon="3.54567">
        <ele>1054.3</ele>
      </trkpt>
      <trkpt lat="45.50257" lon="3.54553">
        <ele>1054.5</ele>
      </trkpt>
      <trkpt lat="45.5026" lon="3.54537">
        <ele>1054.8</ele>
      </trkpt>
      <trkpt lat="45.50261" lon="3.54527">
        <ele>1054.9</ele>
      </trkpt>
      <trkpt lat="45.50261" lon="3.54518">
        <ele>1055.1</ele>
      </trkpt>
      <trkpt lat="45.5026" lon="3.54509">
        <ele>1055.3</ele>
      </trkpt>
      <trkpt lat="45.50258" lon="3.54497">
        <ele>1055.7</ele>
      </trkpt>
      <trkpt lat="45.50254" lon="3.54481">
        <ele>1056.1</ele>
      </trkpt>
      <trkpt lat="45.50249" lon="3.54468">
        <ele>1056.5</ele>
      </trkpt>
      <trkpt lat="45.50243" lon="3.54447">
        <ele>1057.6</ele>
      </trkpt>
      <trkpt lat="45.50236" lon="3.54421">
        <ele>1059</ele>
      </trkpt>
      <trkpt lat="45.50232" lon="3.54407">
        <ele>1059.4</ele>
      </trkpt>
      <trkpt lat="45.50228" lon="3.54387">
        <ele>1059.4</ele>
      </trkpt>
      <trkpt lat="45.50226" lon="3.54376">
        <ele>1059.5</ele>
      </trkpt>
      <trkpt lat="45.50223" lon="3.5436">
        <ele>1059.5</ele>
      </trkpt>
      <trkpt lat="45.5022" lon="3.54335">
        <ele>1059.4</ele>
      </trkpt>
      <trkpt lat="45.50217" lon="3.54309">
        <ele>1060</ele>
      </trkpt>
      <trkpt lat="45.50215" lon="3.54293">
        <ele>1060.3</ele>
      </trkpt>
      <trkpt lat="45.50215" lon="3.54278">
        <ele>1060.5</ele>
      </trkpt>
      <trkpt lat="45.50215" lon="3.54266">
        <ele>1060.5</ele>
      </trkpt>
      <trkpt lat="45.50216" lon="3.54256">
        <ele>1060.4</ele>
      </trkpt>
      <trkpt lat="45.5022" lon="3.5423">
        <ele>1059.3</ele>
      </trkpt>
      <trkpt lat="45.50224" lon="3.54205">
        <ele>1057.8</ele>
      </trkpt>
      <trkpt lat="45.50225" lon="3.54193">
        <ele>1057.2</ele>
      </trkpt>
      <trkpt lat="45.50227" lon="3.54182">
        <ele>1056.5</ele>
      </trkpt>
      <trkpt lat="45.50227" lon="3.54172">
        <ele>1056</ele>
      </trkpt>
      <trkpt lat="45.50228" lon="3.54157">
        <ele>1056.1</ele>
      </trkpt>
      <trkpt lat="45.50227" lon="3.54141">
        <ele>1056.7</ele>
      </trkpt>
      <trkpt lat="45.50228" lon="3.54125">
        <ele>1057.2</ele>
      </trkpt>
      <trkpt lat="45.50228" lon="3.54115">
        <ele>1057.5</ele>
      </trkpt>
      <trkpt lat="45.50229" lon="3.54105">
        <ele>1057.7</ele>
      </trkpt>
      <trkpt lat="45.50229" lon="3.54105">
        <ele>1057.7</ele>
      </trkpt>
      <trkpt lat="45.50232" lon="3.5409">
        <ele>1057.8</ele>
      </trkpt>
      <trkpt lat="45.50234" lon="3.54069">
        <ele>1058.3</ele>
      </trkpt>
      <trkpt lat="45.50236" lon="3.54049">
        <ele>1058.9</ele>
      </trkpt>
      <trkpt lat="45.50237" lon="3.54041">
        <ele>1059.1</ele>
      </trkpt>
      <trkpt lat="45.50238" lon="3.54034">
        <ele>1059.1</ele>
      </trkpt>
      <trkpt lat="45.50241" lon="3.54025">
        <ele>1059.1</ele>
      </trkpt>
      <trkpt lat="45.50251" lon="3.54014">
        <ele>1058.3</ele>
      </trkpt>
      <trkpt lat="45.50258" lon="3.54001">
        <ele>1058.6</ele>
      </trkpt>
      <trkpt lat="45.50264" lon="3.53985">
        <ele>1058.6</ele>
      </trkpt>
      <trkpt lat="45.50271" lon="3.53956">
        <ele>1058.6</ele>
      </trkpt>
      <trkpt lat="45.50276" lon="3.5393">
        <ele>1058.7</ele>
      </trkpt>
      <trkpt lat="45.50278" lon="3.53909">
        <ele>1058.5</ele>
      </trkpt>
      <trkpt lat="45.50281" lon="3.53888">
        <ele>1057.9</ele>
      </trkpt>
      <trkpt lat="45.50283" lon="3.53872">
        <ele>1057.3</ele>
      </trkpt>
      <trkpt lat="45.50286" lon="3.53855">
        <ele>1056.7</ele>
      </trkpt>
      <trkpt lat="45.50292" lon="3.53834">
        <ele>1055.5</ele>
      </trkpt>
      <trkpt lat="45.50298" lon="3.53813">
        <ele>1054.8</ele>
      </trkpt>
      <trkpt lat="45.50303" lon="3.5379">
        <ele>1054.2</ele>
      </trkpt>
      <trkpt lat="45.50309" lon="3.53768">
        <ele>1053.4</ele>
      </trkpt>
      <trkpt lat="45.50309" lon="3.53748">
        <ele>1053.4</ele>
      </trkpt>
      <trkpt lat="45.5031" lon="3.53728">
        <ele>1053.5</ele>
      </trkpt>
      <trkpt lat="45.50309" lon="3.53707">
        <ele>1054</ele>
      </trkpt>
      <trkpt lat="45.50308" lon="3.53686">
        <ele>1054.5</ele>
      </trkpt>
      <trkpt lat="45.5031" lon="3.53668">
        <ele>1054.4</ele>
      </trkpt>
      <trkpt lat="45.50312" lon="3.53651">
        <ele>1053.5</ele>
      </trkpt>
      <trkpt lat="45.50312" lon="3.53639">
        <ele>1052.9</ele>
      </trkpt>
      <trkpt lat="45.50311" lon="3.5363">
        <ele>1052.8</ele>
      </trkpt>
      <trkpt lat="45.50306" lon="3.53612">
        <ele>1052.9</ele>
      </trkpt>
      <trkpt lat="45.50302" lon="3.53594">
        <ele>1052.8</ele>
      </trkpt>
      <trkpt lat="45.50296" lon="3.53565">
        <ele>1052</ele>
      </trkpt>
      <trkpt lat="45.50291" lon="3.53547">
        <ele>1051.5</ele>
      </trkpt>
      <trkpt lat="45.50284" lon="3.53526">
        <ele>1051</ele>
      </trkpt>
      <trkpt lat="45.50278" lon="3.5351">
        <ele>1050.7</ele>
      </trkpt>
      <trkpt lat="45.50272" lon="3.53494">
        <ele>1050.4</ele>
      </trkpt>
      <trkpt lat="45.50265" lon="3.5348">
        <ele>1050.2</ele>
      </trkpt>
      <trkpt lat="45.50265" lon="3.5348">
        <ele>1050.2</ele>
      </trkpt>
      <trkpt lat="45.50259" lon="3.53467">
        <ele>1049.9</ele>
      </trkpt>
      <trkpt lat="45.50252" lon="3.5345">
        <ele>1049.6</ele>
      </trkpt>
      <trkpt lat="45.50244" lon="3.53433">
        <ele>1049.4</ele>
      </trkpt>
      <trkpt lat="45.50237" lon="3.53419">
        <ele>1049.3</ele>
      </trkpt>
      <trkpt lat="45.5023" lon="3.53404">
        <ele>1048.4</ele>
      </trkpt>
      <trkpt lat="45.50221" lon="3.53386">
        <ele>1047.5</ele>
      </trkpt>
      <trkpt lat="45.50215" lon="3.53374">
        <ele>1047.1</ele>
      </trkpt>
      <trkpt lat="45.50207" lon="3.53362">
        <ele>1047</ele>
      </trkpt>
      <trkpt lat="45.50197" lon="3.53346">
        <ele>1047</ele>
      </trkpt>
      <trkpt lat="45.50187" lon="3.53327">
        <ele>1046.4</ele>
      </trkpt>
      <trkpt lat="45.50178" lon="3.53308">
        <ele>1045.2</ele>
      </trkpt>
      <trkpt lat="45.50165" lon="3.53285">
        <ele>1043.5</ele>
      </trkpt>
      <trkpt lat="45.50153" lon="3.53261">
        <ele>1041.9</ele>
      </trkpt>
      <trkpt lat="45.50141" lon="3.53238">
        <ele>1039.9</ele>
      </trkpt>
      <trkpt lat="45.50129" lon="3.53215">
        <ele>1037.3</ele>
      </trkpt>
      <trkpt lat="45.50125" lon="3.53199">
        <ele>1034.7</ele>
      </trkpt>
      <trkpt lat="45.50119" lon="3.53194">
        <ele>1034.8</ele>
      </trkpt>
      <trkpt lat="45.50113" lon="3.53186">
        <ele>1034.4</ele>
      </trkpt>
      <trkpt lat="45.50105" lon="3.53173">
        <ele>1033.5</ele>
      </trkpt>
      <trkpt lat="45.50097" lon="3.53162">
        <ele>1033.6</ele>
      </trkpt>
      <trkpt lat="45.50089" lon="3.53153">
        <ele>1034.9</ele>
      </trkpt>
      <trkpt lat="45.5008" lon="3.53143">
        <ele>1036.2</ele>
      </trkpt>
      <trkpt lat="45.50066" lon="3.53129">
        <ele>1037.6</ele>
      </trkpt>
      <trkpt lat="45.50062" lon="3.53122">
        <ele>1037.7</ele>
      </trkpt>
      <trkpt lat="45.50059" lon="3.53117">
        <ele>1037.7</ele>
      </trkpt>
      <trkpt lat="45.50057" lon="3.53109">
        <ele>1037.3</ele>
      </trkpt>
      <trkpt lat="45.50056" lon="3.53102">
        <ele>1036.9</ele>
      </trkpt>
      <trkpt lat="45.50056" lon="3.53093">
        <ele>1036.1</ele>
      </trkpt>
      <trkpt lat="45.50057" lon="3.53086">
        <ele>1035.4</ele>
      </trkpt>
      <trkpt lat="45.50059" lon="3.53073">
        <ele>1034.8</ele>
      </trkpt>
      <trkpt lat="45.50066" lon="3.53052">
        <ele>1034</ele>
      </trkpt>
      <trkpt lat="45.50071" lon="3.53034">
        <ele>1033.4</ele>
      </trkpt>
      <trkpt lat="45.50072" lon="3.53027">
        <ele>1033.3</ele>
      </trkpt>
      <trkpt lat="45.50073" lon="3.53016">
        <ele>1033.2</ele>
      </trkpt>
      <trkpt lat="45.50072" lon="3.53007">
        <ele>1033.2</ele>
      </trkpt>
      <trkpt lat="45.50068" lon="3.52989">
        <ele>1033.7</ele>
      </trkpt>
      <trkpt lat="45.5006" lon="3.52967">
        <ele>1034.9</ele>
      </trkpt>
      <trkpt lat="45.50054" lon="3.52952">
        <ele>1035.8</ele>
      </trkpt>
      <trkpt lat="45.50044" lon="3.52932">
        <ele>1037.1</ele>
      </trkpt>
      <trkpt lat="45.50044" lon="3.52932">
        <ele>1037.1</ele>
      </trkpt>
      <trkpt lat="45.50034" lon="3.52911">
        <ele>1038.5</ele>
      </trkpt>
      <trkpt lat="45.50027" lon="3.52897">
        <ele>1039.6</ele>
      </trkpt>
      <trkpt lat="45.5002" lon="3.52887">
        <ele>1040.4</ele>
      </trkpt>
      <trkpt lat="45.50013" lon="3.52878">
        <ele>1041.1</ele>
      </trkpt>
      <trkpt lat="45.50006" lon="3.52872">
        <ele>1041.6</ele>
      </trkpt>
      <trkpt lat="45.50001" lon="3.5286">
        <ele>1041.9</ele>
      </trkpt>
      <trkpt lat="45.49995" lon="3.52862">
        <ele>1042.1</ele>
      </trkpt>
      <trkpt lat="45.49981" lon="3.52851">
        <ele>1042.1</ele>
      </trkpt>
      <trkpt lat="45.49969" lon="3.52845">
        <ele>1042.2</ele>
      </trkpt>
      <trkpt lat="45.49963" lon="3.52843">
        <ele>1042.1</ele>
      </trkpt>
      <trkpt lat="45.49958" lon="3.52847">
        <ele>1042.2</ele>
      </trkpt>
      <trkpt lat="45.49948" lon="3.52847">
        <ele>1042.3</ele>
      </trkpt>
      <trkpt lat="45.49937" lon="3.52846">
        <ele>1042.3</ele>
      </trkpt>
      <trkpt lat="45.4993" lon="3.52846">
        <ele>1042.4</ele>
      </trkpt>
      <trkpt lat="45.49923" lon="3.52846">
        <ele>1042.4</ele>
      </trkpt>
      <trkpt lat="45.49916" lon="3.52847">
        <ele>1042.5</ele>
      </trkpt>
      <trkpt lat="45.49908" lon="3.52849">
        <ele>1042.4</ele>
      </trkpt>
      <trkpt lat="45.49908" lon="3.52839">
        <ele>1042.1</ele>
      </trkpt>
      <trkpt lat="45.49909" lon="3.52821">
        <ele>1042</ele>
      </trkpt>
      <trkpt lat="45.49915" lon="3.52824">
        <ele>1042.1</ele>
      </trkpt>
      <trkpt lat="45.49913" lon="3.52813">
        <ele>1042.2</ele>
      </trkpt>
      <trkpt lat="45.49912" lon="3.52801">
        <ele>1042.3</ele>
      </trkpt>
      <trkpt lat="45.49912" lon="3.52785">
        <ele>1042.5</ele>
      </trkpt>
      <trkpt lat="45.49909" lon="3.52769">
        <ele>1042.7</ele>
      </trkpt>
      <trkpt lat="45.49907" lon="3.5276">
        <ele>1042.8</ele>
      </trkpt>
      <trkpt lat="45.49904" lon="3.52751">
        <ele>1042.8</ele>
      </trkpt>
      <trkpt lat="45.49899" lon="3.52739">
        <ele>1043.3</ele>
      </trkpt>
      <trkpt lat="45.49894" lon="3.5273">
        <ele>1043.6</ele>
      </trkpt>
      <trkpt lat="45.49887" lon="3.52719">
        <ele>1043.9</ele>
      </trkpt>
      <trkpt lat="45.49873" lon="3.52696">
        <ele>1044.4</ele>
      </trkpt>
      <trkpt lat="45.49861" lon="3.52676">
        <ele>1044.7</ele>
      </trkpt>
      <trkpt lat="45.4985" lon="3.52658">
        <ele>1044.8</ele>
      </trkpt>
      <trkpt lat="45.49838" lon="3.52638">
        <ele>1044.9</ele>
      </trkpt>
      <trkpt lat="45.49829" lon="3.52622">
        <ele>1045.3</ele>
      </trkpt>
      <trkpt lat="45.49816" lon="3.52605">
        <ele>1046.5</ele>
      </trkpt>
      <trkpt lat="45.49804" lon="3.52587">
        <ele>1047.6</ele>
      </trkpt>
      <trkpt lat="45.49793" lon="3.52568">
        <ele>1048.2</ele>
      </trkpt>
      <trkpt lat="45.49781" lon="3.52545">
        <ele>1048.3</ele>
      </trkpt>
      <trkpt lat="45.49776" lon="3.52534">
        <ele>1048.2</ele>
      </trkpt>
      <trkpt lat="45.49768" lon="3.52514">
        <ele>1047.7</ele>
      </trkpt>
      <trkpt lat="45.4976" lon="3.52495">
        <ele>1047.1</ele>
      </trkpt>
      <trkpt lat="45.4976" lon="3.52495">
        <ele>1047.1</ele>
      </trkpt>
      <trkpt lat="45.49753" lon="3.52478">
        <ele>1047.1</ele>
      </trkpt>
      <trkpt lat="45.49749" lon="3.52464">
        <ele>1047</ele>
      </trkpt>
      <trkpt lat="45.49743" lon="3.52446">
        <ele>1047.1</ele>
      </trkpt>
      <trkpt lat="45.49738" lon="3.52431">
        <ele>1047.2</ele>
      </trkpt>
      <trkpt lat="45.49732" lon="3.52409">
        <ele>1047.6</ele>
      </trkpt>
      <trkpt lat="45.49726" lon="3.52389">
        <ele>1048.6</ele>
      </trkpt>
      <trkpt lat="45.49724" lon="3.52381">
        <ele>1048.9</ele>
      </trkpt>
      <trkpt lat="45.49723" lon="3.5237">
        <ele>1049.4</ele>
      </trkpt>
      <trkpt lat="45.49722" lon="3.52363">
        <ele>1049.7</ele>
      </trkpt>
      <trkpt lat="45.49721" lon="3.52351">
        <ele>1050.2</ele>
      </trkpt>
      <trkpt lat="45.49722" lon="3.5234">
        <ele>1050.7</ele>
      </trkpt>
      <trkpt lat="45.49722" lon="3.52328">
        <ele>1051</ele>
      </trkpt>
      <trkpt lat="45.49723" lon="3.52312">
        <ele>1051</ele>
      </trkpt>
      <trkpt lat="45.49723" lon="3.52289">
        <ele>1051.1</ele>
      </trkpt>
      <trkpt lat="45.49723" lon="3.52272">
        <ele>1051.1</ele>
      </trkpt>
      <trkpt lat="45.49722" lon="3.52249">
        <ele>1050.9</ele>
      </trkpt>
      <trkpt lat="45.49721" lon="3.5224">
        <ele>1050.7</ele>
      </trkpt>
      <trkpt lat="45.49719" lon="3.5223">
        <ele>1050.4</ele>
      </trkpt>
      <trkpt lat="45.49717" lon="3.52224">
        <ele>1050.2</ele>
      </trkpt>
      <trkpt lat="45.49713" lon="3.52217">
        <ele>1049.9</ele>
      </trkpt>
      <trkpt lat="45.49706" lon="3.52205">
        <ele>1049.4</ele>
      </trkpt>
      <trkpt lat="45.49699" lon="3.52194">
        <ele>1049</ele>
      </trkpt>
      <trkpt lat="45.49691" lon="3.52185">
        <ele>1048.6</ele>
      </trkpt>
      <trkpt lat="45.49684" lon="3.52179">
        <ele>1048.4</ele>
      </trkpt>
      <trkpt lat="45.49675" lon="3.52172">
        <ele>1048.2</ele>
      </trkpt>
      <trkpt lat="45.49666" lon="3.52166">
        <ele>1048</ele>
      </trkpt>
      <trkpt lat="45.49656" lon="3.52158">
        <ele>1047.6</ele>
      </trkpt>
      <trkpt lat="45.49647" lon="3.52152">
        <ele>1047.3</ele>
      </trkpt>
      <trkpt lat="45.49639" lon="3.52144">
        <ele>1047.1</ele>
      </trkpt>
      <trkpt lat="45.49633" lon="3.52137">
        <ele>1046.9</ele>
      </trkpt>
      <trkpt lat="45.49628" lon="3.52131">
        <ele>1046.8</ele>
      </trkpt>
      <trkpt lat="45.49622" lon="3.52124">
        <ele>1046.7</ele>
      </trkpt>
      <trkpt lat="45.49616" lon="3.52116">
        <ele>1046.5</ele>
      </trkpt>
      <trkpt lat="45.49609" lon="3.52107">
        <ele>1046.4</ele>
      </trkpt>
      <trkpt lat="45.496" lon="3.52095">
        <ele>1046.3</ele>
      </trkpt>
      <trkpt lat="45.49588" lon="3.5208">
        <ele>1046.1</ele>
      </trkpt>
      <trkpt lat="45.49585" lon="3.52076">
        <ele>1046.1</ele>
      </trkpt>
      <trkpt lat="45.49589" lon="3.52071">
        <ele>1046.2</ele>
      </trkpt>
      <trkpt lat="45.49592" lon="3.52067">
        <ele>1046.4</ele>
      </trkpt>
      <trkpt lat="45.49605" lon="3.52053">
        <ele>1046.6</ele>
      </trkpt>
      <trkpt lat="45.49616" lon="3.5204">
        <ele>1046.7</ele>
      </trkpt>
      <trkpt lat="45.49626" lon="3.52026">
        <ele>1046.7</ele>
      </trkpt>
      <trkpt lat="45.49638" lon="3.52011">
        <ele>1046.5</ele>
      </trkpt>
      <trkpt lat="45.49647" lon="3.51999">
        <ele>1046.3</ele>
      </trkpt>
      <trkpt lat="45.49657" lon="3.51985">
        <ele>1046.6</ele>
      </trkpt>
      <trkpt lat="45.49657" lon="3.51985">
        <ele>1046.6</ele>
      </trkpt>
      <trkpt lat="45.49668" lon="3.5197">
        <ele>1047.1</ele>
      </trkpt>
      <trkpt lat="45.4968" lon="3.51952">
        <ele>1048</ele>
      </trkpt>
      <trkpt lat="45.49685" lon="3.51946">
        <ele>1048.4</ele>
      </trkpt>
      <trkpt lat="45.4969" lon="3.51939">
        <ele>1048.8</ele>
      </trkpt>
      <trkpt lat="45.49696" lon="3.5193">
        <ele>1049.2</ele>
      </trkpt>
      <trkpt lat="45.49706" lon="3.51912">
        <ele>1050.1</ele>
      </trkpt>
      <trkpt lat="45.49715" lon="3.51898">
        <ele>1050.4</ele>
      </trkpt>
      <trkpt lat="45.49723" lon="3.51887">
        <ele>1050.7</ele>
      </trkpt>
      <trkpt lat="45.49732" lon="3.51874">
        <ele>1050.9</ele>
      </trkpt>
      <trkpt lat="45.49742" lon="3.51863">
        <ele>1051</ele>
      </trkpt>
      <trkpt lat="45.49754" lon="3.51851">
        <ele>1051.1</ele>
      </trkpt>
      <trkpt lat="45.49767" lon="3.51839">
        <ele>1051.4</ele>
      </trkpt>
      <trkpt lat="45.49771" lon="3.51835">
        <ele>1051.5</ele>
      </trkpt>
      <trkpt lat="45.49777" lon="3.51835">
        <ele>1051.6</ele>
      </trkpt>
      <trkpt lat="45.4978" lon="3.51827">
        <ele>1051.6</ele>
      </trkpt>
      <trkpt lat="45.49787" lon="3.51817">
        <ele>1051.6</ele>
      </trkpt>
      <trkpt lat="45.498" lon="3.51797">
        <ele>1051.6</ele>
      </trkpt>
      <trkpt lat="45.49812" lon="3.5178">
        <ele>1051.7</ele>
      </trkpt>
      <trkpt lat="45.49823" lon="3.51764">
        <ele>1051.8</ele>
      </trkpt>
      <trkpt lat="45.49834" lon="3.51746">
        <ele>1051.8</ele>
      </trkpt>
      <trkpt lat="45.49841" lon="3.51733">
        <ele>1050.9</ele>
      </trkpt>
      <trkpt lat="45.49851" lon="3.51714">
        <ele>1049.8</ele>
      </trkpt>
      <trkpt lat="45.49857" lon="3.51703">
        <ele>1049.2</ele>
      </trkpt>
      <trkpt lat="45.49862" lon="3.51692">
        <ele>1048.6</ele>
      </trkpt>
      <trkpt lat="45.49868" lon="3.51679">
        <ele>1048</ele>
      </trkpt>
      <trkpt lat="45.49875" lon="3.51662">
        <ele>1047.2</ele>
      </trkpt>
      <trkpt lat="45.49882" lon="3.51649">
        <ele>1046.5</ele>
      </trkpt>
      <trkpt lat="45.49888" lon="3.51632">
        <ele>1045.6</ele>
      </trkpt>
      <trkpt lat="45.49895" lon="3.51616">
        <ele>1044.7</ele>
      </trkpt>
      <trkpt lat="45.49902" lon="3.51597">
        <ele>1043.6</ele>
      </trkpt>
      <trkpt lat="45.49908" lon="3.5158">
        <ele>1042.8</ele>
      </trkpt>
      <trkpt lat="45.49915" lon="3.51562">
        <ele>1042.2</ele>
      </trkpt>
      <trkpt lat="45.49924" lon="3.51538">
        <ele>1041.5</ele>
      </trkpt>
      <trkpt lat="45.49933" lon="3.51514">
        <ele>1040.8</ele>
      </trkpt>
      <trkpt lat="45.49942" lon="3.51488">
        <ele>1039.4</ele>
      </trkpt>
      <trkpt lat="45.49948" lon="3.51465">
        <ele>1037.8</ele>
      </trkpt>
      <trkpt lat="45.49948" lon="3.51465">
        <ele>1037.8</ele>
      </trkpt>
      <trkpt lat="45.49953" lon="3.51448">
        <ele>1036.8</ele>
      </trkpt>
      <trkpt lat="45.49954" lon="3.51441">
        <ele>1036.4</ele>
      </trkpt>
      <trkpt lat="45.49955" lon="3.5143">
        <ele>1035.7</ele>
      </trkpt>
      <trkpt lat="45.49961" lon="3.51422">
        <ele>1035.5</ele>
      </trkpt>
      <trkpt lat="45.49965" lon="3.51414">
        <ele>1035.4</ele>
      </trkpt>
      <trkpt lat="45.49976" lon="3.51391">
        <ele>1035.5</ele>
      </trkpt>
      <trkpt lat="45.49987" lon="3.51367">
        <ele>1035.4</ele>
      </trkpt>
      <trkpt lat="45.4999" lon="3.51361">
        <ele>1035.5</ele>
      </trkpt>
      <trkpt lat="45.49995" lon="3.51353">
        <ele>1035.5</ele>
      </trkpt>
      <trkpt lat="45.50006" lon="3.51337">
        <ele>1034.8</ele>
      </trkpt>
      <trkpt lat="45.50018" lon="3.51321">
        <ele>1033.4</ele>
      </trkpt>
      <trkpt lat="45.50033" lon="3.513">
        <ele>1031.7</ele>
      </trkpt>
      <trkpt lat="45.50048" lon="3.51278">
        <ele>1030.3</ele>
      </trkpt>
      <trkpt lat="45.50057" lon="3.51265">
        <ele>1029.4</ele>
      </trkpt>
      <trkpt lat="45.50065" lon="3.51252">
        <ele>1028.7</ele>
      </trkpt>
      <trkpt lat="45.50072" lon="3.51238">
        <ele>1028.7</ele>
      </trkpt>
      <trkpt lat="45.50079" lon="3.51223">
        <ele>1029</ele>
      </trkpt>
      <trkpt lat="45.50093" lon="3.51201">
        <ele>1029.2</ele>
      </trkpt>
      <trkpt lat="45.50107" lon="3.51178">
        <ele>1029.4</ele>
      </trkpt>
      <trkpt lat="45.50121" lon="3.51155">
        <ele>1029</ele>
      </trkpt>
      <trkpt lat="45.50135" lon="3.51133">
        <ele>1027.8</ele>
      </trkpt>
      <trkpt lat="45.50148" lon="3.5111">
        <ele>1026.3</ele>
      </trkpt>
      <trkpt lat="45.50162" lon="3.51087">
        <ele>1024.5</ele>
      </trkpt>
      <trkpt lat="45.50176" lon="3.51065">
        <ele>1023.1</ele>
      </trkpt>
      <trkpt lat="45.5019" lon="3.51042">
        <ele>1021.7</ele>
      </trkpt>
      <trkpt lat="45.50202" lon="3.51023">
        <ele>1020.4</ele>
      </trkpt>
      <trkpt lat="45.50215" lon="3.50999">
        <ele>1018.9</ele>
      </trkpt>
      <trkpt lat="45.50228" lon="3.50976">
        <ele>1016.8</ele>
      </trkpt>
      <trkpt lat="45.50238" lon="3.5096">
        <ele>1015.3</ele>
      </trkpt>
      <trkpt lat="45.5025" lon="3.50943">
        <ele>1013.3</ele>
      </trkpt>
      <trkpt lat="45.5025" lon="3.50943">
        <ele>1013.3</ele>
      </trkpt>
      <trkpt lat="45.5026" lon="3.5093">
        <ele>1012.4</ele>
      </trkpt>
      <trkpt lat="45.50274" lon="3.50914">
        <ele>1011.9</ele>
      </trkpt>
      <trkpt lat="45.50284" lon="3.50904">
        <ele>1011.8</ele>
      </trkpt>
      <trkpt lat="45.50299" lon="3.50891">
        <ele>1011.9</ele>
      </trkpt>
      <trkpt lat="45.50309" lon="3.50882">
        <ele>1012.1</ele>
      </trkpt>
      <trkpt lat="45.50321" lon="3.50871">
        <ele>1012.6</ele>
      </trkpt>
      <trkpt lat="45.50332" lon="3.50859">
        <ele>1013.3</ele>
      </trkpt>
      <trkpt lat="45.50341" lon="3.50848">
        <ele>1013.4</ele>
      </trkpt>
      <trkpt lat="45.5035" lon="3.50835">
        <ele>1013.5</ele>
      </trkpt>
      <trkpt lat="45.50358" lon="3.50822">
        <ele>1013.2</ele>
      </trkpt>
      <trkpt lat="45.50365" lon="3.50811">
        <ele>1012.8</ele>
      </trkpt>
      <trkpt lat="45.5037" lon="3.50802">
        <ele>1012.4</ele>
      </trkpt>
      <trkpt lat="45.5038" lon="3.50786">
        <ele>1011.7</ele>
      </trkpt>
      <trkpt lat="45.50388" lon="3.50775">
        <ele>1011.1</ele>
      </trkpt>
      <trkpt lat="45.50396" lon="3.50762">
        <ele>1010.4</ele>
      </trkpt>
      <trkpt lat="45.50404" lon="3.50749">
        <ele>1009.5</ele>
      </trkpt>
      <trkpt lat="45.50412" lon="3.50735">
        <ele>1007.4</ele>
      </trkpt>
      <trkpt lat="45.5042" lon="3.50724">
        <ele>1005.7</ele>
      </trkpt>
      <trkpt lat="45.50428" lon="3.50713">
        <ele>1003.8</ele>
      </trkpt>
      <trkpt lat="45.50435" lon="3.50706">
        <ele>1002.6</ele>
      </trkpt>
      <trkpt lat="45.50449" lon="3.50692">
        <ele>1000.4</ele>
      </trkpt>
      <trkpt lat="45.50461" lon="3.50683">
        <ele>998.9</ele>
      </trkpt>
      <trkpt lat="45.50472" lon="3.50675">
        <ele>997.7</ele>
      </trkpt>
      <trkpt lat="45.50484" lon="3.50666">
        <ele>996.6</ele>
      </trkpt>
      <trkpt lat="45.50495" lon="3.50657">
        <ele>996.2</ele>
      </trkpt>
      <trkpt lat="45.50511" lon="3.50644">
        <ele>994.8</ele>
      </trkpt>
      <trkpt lat="45.50522" lon="3.50635">
        <ele>993.6</ele>
      </trkpt>
      <trkpt lat="45.50533" lon="3.50626">
        <ele>992.3</ele>
      </trkpt>
      <trkpt lat="45.50542" lon="3.5062">
        <ele>991.1</ele>
      </trkpt>
      <trkpt lat="45.50551" lon="3.50615">
        <ele>990.1</ele>
      </trkpt>
      <trkpt lat="45.50558" lon="3.50612">
        <ele>989.2</ele>
      </trkpt>
      <trkpt lat="45.50573" lon="3.50607">
        <ele>987.5</ele>
      </trkpt>
      <trkpt lat="45.50588" lon="3.50601">
        <ele>986</ele>
      </trkpt>
      <trkpt lat="45.50602" lon="3.50598">
        <ele>985.4</ele>
      </trkpt>
      <trkpt lat="45.50616" lon="3.50595">
        <ele>984.7</ele>
      </trkpt>
      <trkpt lat="45.50626" lon="3.50591">
        <ele>984.2</ele>
      </trkpt>
      <trkpt lat="45.50626" lon="3.50591">
        <ele>984.2</ele>
      </trkpt>
      <trkpt lat="45.50635" lon="3.50586">
        <ele>983.6</ele>
      </trkpt>
      <trkpt lat="45.50639" lon="3.50582">
        <ele>983.2</ele>
      </trkpt>
      <trkpt lat="45.50645" lon="3.50572">
        <ele>981.9</ele>
      </trkpt>
      <trkpt lat="45.50652" lon="3.50562">
        <ele>980.3</ele>
      </trkpt>
      <trkpt lat="45.50661" lon="3.50552">
        <ele>978.6</ele>
      </trkpt>
      <trkpt lat="45.50667" lon="3.50545">
        <ele>977.3</ele>
      </trkpt>
      <trkpt lat="45.50673" lon="3.50538">
        <ele>976.3</ele>
      </trkpt>
      <trkpt lat="45.50681" lon="3.5053">
        <ele>975.1</ele>
      </trkpt>
      <trkpt lat="45.50689" lon="3.50522">
        <ele>973.7</ele>
      </trkpt>
      <trkpt lat="45.50699" lon="3.50513">
        <ele>972.1</ele>
      </trkpt>
      <trkpt lat="45.50706" lon="3.50507">
        <ele>971</ele>
      </trkpt>
      <trkpt lat="45.50714" lon="3.50501">
        <ele>969.9</ele>
      </trkpt>
      <trkpt lat="45.50718" lon="3.50498">
        <ele>969.1</ele>
      </trkpt>
      <trkpt lat="45.50726" lon="3.50493">
        <ele>967.8</ele>
      </trkpt>
      <trkpt lat="45.50737" lon="3.50486">
        <ele>966.1</ele>
      </trkpt>
      <trkpt lat="45.50746" lon="3.50479">
        <ele>964.7</ele>
      </trkpt>
      <trkpt lat="45.50756" lon="3.50473">
        <ele>963.3</ele>
      </trkpt>
      <trkpt lat="45.50768" lon="3.50465">
        <ele>961.6</ele>
      </trkpt>
      <trkpt lat="45.50781" lon="3.50456">
        <ele>959.7</ele>
      </trkpt>
      <trkpt lat="45.50792" lon="3.50449">
        <ele>958.3</ele>
      </trkpt>
      <trkpt lat="45.50805" lon="3.50441">
        <ele>956.5</ele>
      </trkpt>
      <trkpt lat="45.50819" lon="3.50433">
        <ele>955</ele>
      </trkpt>
      <trkpt lat="45.50828" lon="3.50429">
        <ele>954</ele>
      </trkpt>
      <trkpt lat="45.50837" lon="3.50425">
        <ele>953.2</ele>
      </trkpt>
      <trkpt lat="45.50848" lon="3.5042">
        <ele>952.2</ele>
      </trkpt>
      <trkpt lat="45.50865" lon="3.50413">
        <ele>951.2</ele>
      </trkpt>
      <trkpt lat="45.50872" lon="3.5041">
        <ele>950.9</ele>
      </trkpt>
      <trkpt lat="45.50877" lon="3.50407">
        <ele>950.7</ele>
      </trkpt>
      <trkpt lat="45.5088" lon="3.50402">
        <ele>950.3</ele>
      </trkpt>
      <trkpt lat="45.50879" lon="3.50392">
        <ele>949.5</ele>
      </trkpt>
      <trkpt lat="45.50877" lon="3.50382">
        <ele>948.6</ele>
      </trkpt>
      <trkpt lat="45.50872" lon="3.50358">
        <ele>946.4</ele>
      </trkpt>
      <trkpt lat="45.50869" lon="3.50342">
        <ele>944.7</ele>
      </trkpt>
      <trkpt lat="45.50866" lon="3.50329">
        <ele>943.1</ele>
      </trkpt>
      <trkpt lat="45.50864" lon="3.50311">
        <ele>940.2</ele>
      </trkpt>
      <trkpt lat="45.50862" lon="3.50289">
        <ele>936.7</ele>
      </trkpt>
      <trkpt lat="45.50859" lon="3.50271">
        <ele>933.7</ele>
      </trkpt>
      <trkpt lat="45.50857" lon="3.50262">
        <ele>932.2</ele>
      </trkpt>
      <trkpt lat="45.50851" lon="3.50245">
        <ele>929</ele>
      </trkpt>
      <trkpt lat="45.50842" lon="3.50226">
        <ele>925.9</ele>
      </trkpt>
      <trkpt lat="45.50835" lon="3.50212">
        <ele>923.7</ele>
      </trkpt>
      <trkpt lat="45.50831" lon="3.50205">
        <ele>922.4</ele>
      </trkpt>
      <trkpt lat="45.50825" lon="3.50198">
        <ele>921.3</ele>
      </trkpt>
      <trkpt lat="45.50819" lon="3.50195">
        <ele>920.5</ele>
      </trkpt>
      <trkpt lat="45.50805" lon="3.50189">
        <ele>918.9</ele>
      </trkpt>
      <trkpt lat="45.50805" lon="3.50189">
        <ele>918.9</ele>
      </trkpt>
      <trkpt lat="45.50792" lon="3.50182">
        <ele>917.2</ele>
      </trkpt>
      <trkpt lat="45.50782" lon="3.50176">
        <ele>915.6</ele>
      </trkpt>
      <trkpt lat="45.50771" lon="3.5017">
        <ele>913.9</ele>
      </trkpt>
      <trkpt lat="45.50753" lon="3.50159">
        <ele>910.8</ele>
      </trkpt>
      <trkpt lat="45.50741" lon="3.50153">
        <ele>908.9</ele>
      </trkpt>
      <trkpt lat="45.50736" lon="3.50151">
        <ele>908.3</ele>
      </trkpt>
      <trkpt lat="45.50728" lon="3.50148">
        <ele>907.5</ele>
      </trkpt>
      <trkpt lat="45.50718" lon="3.50147">
        <ele>906.8</ele>
      </trkpt>
      <trkpt lat="45.50712" lon="3.50147">
        <ele>906.7</ele>
      </trkpt>
      <trkpt lat="45.50698" lon="3.50152">
        <ele>906.9</ele>
      </trkpt>
      <trkpt lat="45.50694" lon="3.50154">
        <ele>907.1</ele>
      </trkpt>
      <trkpt lat="45.50689" lon="3.50156">
        <ele>907.2</ele>
      </trkpt>
      <trkpt lat="45.50684" lon="3.50157">
        <ele>907.1</ele>
      </trkpt>
      <trkpt lat="45.50675" lon="3.50154">
        <ele>906.3</ele>
      </trkpt>
      <trkpt lat="45.5067" lon="3.50152">
        <ele>905.6</ele>
      </trkpt>
      <trkpt lat="45.50665" lon="3.50149">
        <ele>905.2</ele>
      </trkpt>
      <trkpt lat="45.5066" lon="3.50146">
        <ele>905.3</ele>
      </trkpt>
      <trkpt lat="45.50656" lon="3.50142">
        <ele>905.2</ele>
      </trkpt>
      <trkpt lat="45.50651" lon="3.50133">
        <ele>904.6</ele>
      </trkpt>
      <trkpt lat="45.50648" lon="3.50127">
        <ele>904</ele>
      </trkpt>
      <trkpt lat="45.50646" lon="3.50119">
        <ele>903</ele>
      </trkpt>
      <trkpt lat="45.50645" lon="3.50111">
        <ele>902</ele>
      </trkpt>
      <trkpt lat="45.50645" lon="3.50101">
        <ele>900.5</ele>
      </trkpt>
      <trkpt lat="45.50646" lon="3.50092">
        <ele>899</ele>
      </trkpt>
      <trkpt lat="45.50649" lon="3.50078">
        <ele>896.7</ele>
      </trkpt>
      <trkpt lat="45.50654" lon="3.50064">
        <ele>894.8</ele>
      </trkpt>
      <trkpt lat="45.50659" lon="3.50049">
        <ele>892.9</ele>
      </trkpt>
      <trkpt lat="45.50661" lon="3.5004">
        <ele>891.9</ele>
      </trkpt>
      <trkpt lat="45.5066" lon="3.50033">
        <ele>891.5</ele>
      </trkpt>
      <trkpt lat="45.50655" lon="3.50018">
        <ele>891.3</ele>
      </trkpt>
      <trkpt lat="45.50649" lon="3.50004">
        <ele>891.2</ele>
      </trkpt>
      <trkpt lat="45.50643" lon="3.49987">
        <ele>890.2</ele>
      </trkpt>
      <trkpt lat="45.50636" lon="3.49971">
        <ele>889</ele>
      </trkpt>
      <trkpt lat="45.50631" lon="3.49955">
        <ele>887.8</ele>
      </trkpt>
      <trkpt lat="45.50626" lon="3.49939">
        <ele>886.7</ele>
      </trkpt>
      <trkpt lat="45.50618" lon="3.49912">
        <ele>885</ele>
      </trkpt>
      <trkpt lat="45.50614" lon="3.49896">
        <ele>884.1</ele>
      </trkpt>
      <trkpt lat="45.50611" lon="3.49879">
        <ele>882.7</ele>
      </trkpt>
      <trkpt lat="45.50609" lon="3.49866">
        <ele>881.4</ele>
      </trkpt>
      <trkpt lat="45.50609" lon="3.49857">
        <ele>880.4</ele>
      </trkpt>
      <trkpt lat="45.5061" lon="3.49849">
        <ele>879.2</ele>
      </trkpt>
      <trkpt lat="45.50617" lon="3.49829">
        <ele>876.2</ele>
      </trkpt>
      <trkpt lat="45.50621" lon="3.49819">
        <ele>874.9</ele>
      </trkpt>
      <trkpt lat="45.50624" lon="3.49808">
        <ele>873.7</ele>
      </trkpt>
      <trkpt lat="45.50625" lon="3.49798">
        <ele>872.9</ele>
      </trkpt>
      <trkpt lat="45.50624" lon="3.49787">
        <ele>872.2</ele>
      </trkpt>
      <trkpt lat="45.50621" lon="3.49778">
        <ele>871.8</ele>
      </trkpt>
      <trkpt lat="45.50613" lon="3.49767">
        <ele>871.4</ele>
      </trkpt>
      <trkpt lat="45.50608" lon="3.49755">
        <ele>870.6</ele>
      </trkpt>
      <trkpt lat="45.50608" lon="3.49748">
        <ele>870</ele>
      </trkpt>
      <trkpt lat="45.50608" lon="3.49748">
        <ele>870</ele>
      </trkpt>
      <trkpt lat="45.50601" lon="3.49742">
        <ele>869.8</ele>
      </trkpt>
      <trkpt lat="45.50595" lon="3.49732">
        <ele>869.3</ele>
      </trkpt>
      <trkpt lat="45.50581" lon="3.49708">
        <ele>868</ele>
      </trkpt>
      <trkpt lat="45.50572" lon="3.49696">
        <ele>866.9</ele>
      </trkpt>
      <trkpt lat="45.50564" lon="3.49689">
        <ele>866.2</ele>
      </trkpt>
      <trkpt lat="45.5056" lon="3.49686">
        <ele>865.9</ele>
      </trkpt>
      <trkpt lat="45.50552" lon="3.49684">
        <ele>865.5</ele>
      </trkpt>
      <trkpt lat="45.50541" lon="3.49681">
        <ele>864.9</ele>
      </trkpt>
      <trkpt lat="45.50535" lon="3.49679">
        <ele>864.5</ele>
      </trkpt>
      <trkpt lat="45.50524" lon="3.49677">
        <ele>864.1</ele>
      </trkpt>
      <trkpt lat="45.50503" lon="3.49675">
        <ele>863.2</ele>
      </trkpt>
      <trkpt lat="45.50496" lon="3.49673">
        <ele>862.6</ele>
      </trkpt>
      <trkpt lat="45.50483" lon="3.4967">
        <ele>861.5</ele>
      </trkpt>
      <trkpt lat="45.5047" lon="3.49666">
        <ele>860.2</ele>
      </trkpt>
      <trkpt lat="45.50451" lon="3.49661">
        <ele>858.3</ele>
      </trkpt>
      <trkpt lat="45.50435" lon="3.49656">
        <ele>856.8</ele>
      </trkpt>
      <trkpt lat="45.50416" lon="3.49647">
        <ele>854.9</ele>
      </trkpt>
      <trkpt lat="45.504" lon="3.49642">
        <ele>855.3</ele>
      </trkpt>
      <trkpt lat="45.50386" lon="3.49636">
        <ele>855.5</ele>
      </trkpt>
      <trkpt lat="45.50377" lon="3.49633">
        <ele>855.8</ele>
      </trkpt>
      <trkpt lat="45.50367" lon="3.49631">
        <ele>856.1</ele>
      </trkpt>
      <trkpt lat="45.50359" lon="3.4963">
        <ele>856.5</ele>
      </trkpt>
      <trkpt lat="45.50351" lon="3.49629">
        <ele>856.9</ele>
      </trkpt>
      <trkpt lat="45.5033" lon="3.49628">
        <ele>858.4</ele>
      </trkpt>
      <trkpt lat="45.50322" lon="3.49627">
        <ele>859.5</ele>
      </trkpt>
      <trkpt lat="45.50317" lon="3.49626">
        <ele>860</ele>
      </trkpt>
      <trkpt lat="45.50313" lon="3.49622">
        <ele>860.3</ele>
      </trkpt>
      <trkpt lat="45.50308" lon="3.49616">
        <ele>860.5</ele>
      </trkpt>
      <trkpt lat="45.50303" lon="3.49607">
        <ele>860.4</ele>
      </trkpt>
      <trkpt lat="45.50296" lon="3.4959">
        <ele>860</ele>
      </trkpt>
      <trkpt lat="45.50295" lon="3.49581">
        <ele>859.2</ele>
      </trkpt>
      <trkpt lat="45.50294" lon="3.49572">
        <ele>858.6</ele>
      </trkpt>
      <trkpt lat="45.50291" lon="3.49557">
        <ele>857.6</ele>
      </trkpt>
      <trkpt lat="45.50288" lon="3.49541">
        <ele>856.5</ele>
      </trkpt>
      <trkpt lat="45.50284" lon="3.49525">
        <ele>855.5</ele>
      </trkpt>
      <trkpt lat="45.5028" lon="3.49509">
        <ele>854.4</ele>
      </trkpt>
      <trkpt lat="45.50275" lon="3.49493">
        <ele>853.4</ele>
      </trkpt>
      <trkpt lat="45.50271" lon="3.49479">
        <ele>852.7</ele>
      </trkpt>
      <trkpt lat="45.50262" lon="3.49458">
        <ele>851.7</ele>
      </trkpt>
      <trkpt lat="45.50258" lon="3.49446">
        <ele>851.1</ele>
      </trkpt>
      <trkpt lat="45.50255" lon="3.49437">
        <ele>850.5</ele>
      </trkpt>
      <trkpt lat="45.50255" lon="3.49437">
        <ele>850.5</ele>
      </trkpt>
      <trkpt lat="45.50253" lon="3.49427">
        <ele>849.8</ele>
      </trkpt>
      <trkpt lat="45.5025" lon="3.49413">
        <ele>848.8</ele>
      </trkpt>
      <trkpt lat="45.50249" lon="3.49401">
        <ele>848.1</ele>
      </trkpt>
      <trkpt lat="45.5025" lon="3.49391">
        <ele>847.4</ele>
      </trkpt>
      <trkpt lat="45.50252" lon="3.4938">
        <ele>846.6</ele>
      </trkpt>
      <trkpt lat="45.50258" lon="3.49363">
        <ele>845.2</ele>
      </trkpt>
      <trkpt lat="45.50267" lon="3.49338">
        <ele>843</ele>
      </trkpt>
      <trkpt lat="45.50269" lon="3.49329">
        <ele>842.4</ele>
      </trkpt>
      <trkpt lat="45.5027" lon="3.49323">
        <ele>842.1</ele>
      </trkpt>
      <trkpt lat="45.50271" lon="3.49312">
        <ele>841.6</ele>
      </trkpt>
      <trkpt lat="45.5027" lon="3.49288">
        <ele>840.6</ele>
      </trkpt>
      <trkpt lat="45.5027" lon="3.49268">
        <ele>839.8</ele>
      </trkpt>
      <trkpt lat="45.50269" lon="3.49253">
        <ele>839.2</ele>
      </trkpt>
      <trkpt lat="45.50267" lon="3.49247">
        <ele>839</ele>
      </trkpt>
      <trkpt lat="45.50264" lon="3.49238">
        <ele>838.7</ele>
      </trkpt>
      <trkpt lat="45.50257" lon="3.49226">
        <ele>838.3</ele>
      </trkpt>
      <trkpt lat="45.50251" lon="3.49215">
        <ele>837.9</ele>
      </trkpt>
      <trkpt lat="45.50241" lon="3.49203">
        <ele>836.9</ele>
      </trkpt>
      <trkpt lat="45.50236" lon="3.49198">
        <ele>836.4</ele>
      </trkpt>
      <trkpt lat="45.50231" lon="3.49195">
        <ele>836</ele>
      </trkpt>
      <trkpt lat="45.50217" lon="3.49189">
        <ele>835</ele>
      </trkpt>
      <trkpt lat="45.50199" lon="3.49181">
        <ele>833.4</ele>
      </trkpt>
      <trkpt lat="45.50187" lon="3.49175">
        <ele>832.2</ele>
      </trkpt>
      <trkpt lat="45.50176" lon="3.49169">
        <ele>830.8</ele>
      </trkpt>
      <trkpt lat="45.50166" lon="3.49163">
        <ele>829.7</ele>
      </trkpt>
      <trkpt lat="45.50156" lon="3.49156">
        <ele>829.2</ele>
      </trkpt>
      <trkpt lat="45.50141" lon="3.49147">
        <ele>828.6</ele>
      </trkpt>
      <trkpt lat="45.50135" lon="3.49142">
        <ele>828.3</ele>
      </trkpt>
      <trkpt lat="45.50125" lon="3.49134">
        <ele>827.8</ele>
      </trkpt>
      <trkpt lat="45.50117" lon="3.49126">
        <ele>827.2</ele>
      </trkpt>
      <trkpt lat="45.50107" lon="3.49114">
        <ele>826.3</ele>
      </trkpt>
      <trkpt lat="45.50097" lon="3.49104">
        <ele>825.5</ele>
      </trkpt>
      <trkpt lat="45.50084" lon="3.4909">
        <ele>824.5</ele>
      </trkpt>
      <trkpt lat="45.50075" lon="3.49082">
        <ele>823.8</ele>
      </trkpt>
      <trkpt lat="45.50068" lon="3.49075">
        <ele>823.2</ele>
      </trkpt>
      <trkpt lat="45.50062" lon="3.49068">
        <ele>822.7</ele>
      </trkpt>
      <trkpt lat="45.50055" lon="3.49061">
        <ele>822.1</ele>
      </trkpt>
      <trkpt lat="45.50049" lon="3.49053">
        <ele>821.5</ele>
      </trkpt>
      <trkpt lat="45.50039" lon="3.49039">
        <ele>820.5</ele>
      </trkpt>
      <trkpt lat="45.50028" lon="3.49024">
        <ele>819.5</ele>
      </trkpt>
      <trkpt lat="45.50015" lon="3.49004">
        <ele>818.3</ele>
      </trkpt>
      <trkpt lat="45.50003" lon="3.48988">
        <ele>817.7</ele>
      </trkpt>
      <trkpt lat="45.49998" lon="3.48981">
        <ele>817.3</ele>
      </trkpt>
      <trkpt lat="45.49998" lon="3.48981">
        <ele>817.3</ele>
      </trkpt>
      <trkpt lat="45.49989" lon="3.48968">
        <ele>816.1</ele>
      </trkpt>
      <trkpt lat="45.49975" lon="3.4895">
        <ele>814.4</ele>
      </trkpt>
      <trkpt lat="45.4997" lon="3.48944">
        <ele>813.8</ele>
      </trkpt>
      <trkpt lat="45.49962" lon="3.48936">
        <ele>813.1</ele>
      </trkpt>
      <trkpt lat="45.49953" lon="3.48924">
        <ele>812.1</ele>
      </trkpt>
      <trkpt lat="45.49948" lon="3.48917">
        <ele>811.6</ele>
      </trkpt>
      <trkpt lat="45.49942" lon="3.48907">
        <ele>811</ele>
      </trkpt>
      <trkpt lat="45.49935" lon="3.48896">
        <ele>810.4</ele>
      </trkpt>
      <trkpt lat="45.49928" lon="3.48886">
        <ele>810</ele>
      </trkpt>
      <trkpt lat="45.49921" lon="3.48877">
        <ele>809.7</ele>
      </trkpt>
      <trkpt lat="45.49913" lon="3.48866">
        <ele>809.2</ele>
      </trkpt>
      <trkpt lat="45.49907" lon="3.48857">
        <ele>808.5</ele>
      </trkpt>
      <trkpt lat="45.49902" lon="3.48849">
        <ele>807.7</ele>
      </trkpt>
      <trkpt lat="45.49897" lon="3.48842">
        <ele>807</ele>
      </trkpt>
      <trkpt lat="45.49893" lon="3.48832">
        <ele>806.1</ele>
      </trkpt>
      <trkpt lat="45.49889" lon="3.48825">
        <ele>804.8</ele>
      </trkpt>
      <trkpt lat="45.49883" lon="3.48817">
        <ele>803.2</ele>
      </trkpt>
      <trkpt lat="45.49879" lon="3.48812">
        <ele>802.1</ele>
      </trkpt>
      <trkpt lat="45.49871" lon="3.48807">
        <ele>800.6</ele>
      </trkpt>
      <trkpt lat="45.49867" lon="3.48805">
        <ele>799.8</ele>
      </trkpt>
      <trkpt lat="45.4986" lon="3.48802">
        <ele>798.6</ele>
      </trkpt>
      <trkpt lat="45.49852" lon="3.48799">
        <ele>797.2</ele>
      </trkpt>
      <trkpt lat="45.49847" lon="3.48797">
        <ele>796.3</ele>
      </trkpt>
      <trkpt lat="45.49843" lon="3.48792">
        <ele>795.4</ele>
      </trkpt>
      <trkpt lat="45.49832" lon="3.48794">
        <ele>794.1</ele>
      </trkpt>
      <trkpt lat="45.49821" lon="3.48797">
        <ele>794.2</ele>
      </trkpt>
      <trkpt lat="45.49809" lon="3.488">
        <ele>794.2</ele>
      </trkpt>
      <trkpt lat="45.49799" lon="3.48805">
        <ele>794.1</ele>
      </trkpt>
      <trkpt lat="45.4979" lon="3.48809">
        <ele>794.1</ele>
      </trkpt>
      <trkpt lat="45.49784" lon="3.48809">
        <ele>793.9</ele>
      </trkpt>
      <trkpt lat="45.49778" lon="3.48808">
        <ele>793.7</ele>
      </trkpt>
      <trkpt lat="45.49774" lon="3.48804">
        <ele>793.5</ele>
      </trkpt>
      <trkpt lat="45.49765" lon="3.48795">
        <ele>793.2</ele>
      </trkpt>
      <trkpt lat="45.4976" lon="3.4879">
        <ele>793.1</ele>
      </trkpt>
      <trkpt lat="45.49754" lon="3.48788">
        <ele>793</ele>
      </trkpt>
      <trkpt lat="45.49745" lon="3.48789">
        <ele>793.2</ele>
      </trkpt>
      <trkpt lat="45.49735" lon="3.4879">
        <ele>793.7</ele>
      </trkpt>
      <trkpt lat="45.49727" lon="3.4879">
        <ele>794.1</ele>
      </trkpt>
      <trkpt lat="45.49721" lon="3.48786">
        <ele>794.4</ele>
      </trkpt>
      <trkpt lat="45.49716" lon="3.4878">
        <ele>794.6</ele>
      </trkpt>
      <trkpt lat="45.49708" lon="3.48779">
        <ele>795</ele>
      </trkpt>
      <trkpt lat="45.49721" lon="3.48765">
        <ele>794.4</ele>
      </trkpt>
      <trkpt lat="45.49734" lon="3.48751">
        <ele>793.8</ele>
      </trkpt>
      <trkpt lat="45.49747" lon="3.48737">
        <ele>794.8</ele>
      </trkpt>
      <trkpt lat="45.49766" lon="3.48719">
        <ele>795.8</ele>
      </trkpt>
      <trkpt lat="45.49784" lon="3.48702">
        <ele>796</ele>
      </trkpt>
      <trkpt lat="45.49785" lon="3.48692">
        <ele>796.8</ele>
      </trkpt>
      <trkpt lat="45.49783" lon="3.48681">
        <ele>797.8</ele>
      </trkpt>
      <trkpt lat="45.49783" lon="3.48681">
        <ele>797.8</ele>
      </trkpt>
      <trkpt lat="45.49771" lon="3.48655">
        <ele>801.4</ele>
      </trkpt>
      <trkpt lat="45.49759" lon="3.48629">
        <ele>805.3</ele>
      </trkpt>
      <trkpt lat="45.49756" lon="3.4861">
        <ele>807.3</ele>
      </trkpt>
      <trkpt lat="45.49756" lon="3.48592">
        <ele>809.1</ele>
      </trkpt>
      <trkpt lat="45.49762" lon="3.48567">
        <ele>812.1</ele>
      </trkpt>
      <trkpt lat="45.49767" lon="3.48543">
        <ele>815.8</ele>
      </trkpt>
      <trkpt lat="45.49772" lon="3.48519">
        <ele>819.3</ele>
      </trkpt>
      <trkpt lat="45.49776" lon="3.48493">
        <ele>822.9</ele>
      </trkpt>
      <trkpt lat="45.4978" lon="3.48466">
        <ele>825.1</ele>
      </trkpt>
      <trkpt lat="45.49784" lon="3.4844">
        <ele>827.4</ele>
      </trkpt>
      <trkpt lat="45.49784" lon="3.4844">
        <ele>827.4</ele>
      </trkpt>
      <trkpt lat="45.49788" lon="3.48409">
        <ele>829.4</ele>
      </trkpt>
      <trkpt lat="45.49792" lon="3.48378">
        <ele>829</ele>
      </trkpt>
      <trkpt lat="45.49795" lon="3.48347">
        <ele>828.6</ele>
      </trkpt>
      <trkpt lat="45.49787" lon="3.48324">
        <ele>830.5</ele>
      </trkpt>
      <trkpt lat="45.49779" lon="3.48301">
        <ele>832.1</ele>
      </trkpt>
      <trkpt lat="45.49771" lon="3.48278">
        <ele>833.6</ele>
      </trkpt>
      <trkpt lat="45.49768" lon="3.48252">
        <ele>834</ele>
      </trkpt>
      <trkpt lat="45.49765" lon="3.48226">
        <ele>834.2</ele>
      </trkpt>
      <trkpt lat="45.49762" lon="3.482">
        <ele>834.2</ele>
      </trkpt>
      <trkpt lat="45.49755" lon="3.48179">
        <ele>834.7</ele>
      </trkpt>
      <trkpt lat="45.49749" lon="3.48159">
        <ele>834.8</ele>
      </trkpt>
      <trkpt lat="45.49742" lon="3.48138">
        <ele>834.6</ele>
      </trkpt>
      <trkpt lat="45.49734" lon="3.4812">
        <ele>835.1</ele>
      </trkpt>
      <trkpt lat="45.49725" lon="3.48102">
        <ele>835.7</ele>
      </trkpt>
      <trkpt lat="45.49717" lon="3.48085">
        <ele>836.6</ele>
      </trkpt>
      <trkpt lat="45.49702" lon="3.48077">
        <ele>838.9</ele>
      </trkpt>
      <trkpt lat="45.49688" lon="3.48069">
        <ele>841.1</ele>
      </trkpt>
      <trkpt lat="45.49688" lon="3.48069">
        <ele>841.1</ele>
      </trkpt>
      <trkpt lat="45.49672" lon="3.48063">
        <ele>843.6</ele>
      </trkpt>
      <trkpt lat="45.49656" lon="3.48057">
        <ele>845.7</ele>
      </trkpt>
      <trkpt lat="45.4964" lon="3.48051">
        <ele>847.5</ele>
      </trkpt>
      <trkpt lat="45.49623" lon="3.48033">
        <ele>849.4</ele>
      </trkpt>
      <trkpt lat="45.49607" lon="3.48015">
        <ele>851.6</ele>
      </trkpt>
      <trkpt lat="45.49604" lon="3.47993">
        <ele>851.5</ele>
      </trkpt>
      <trkpt lat="45.49601" lon="3.47972">
        <ele>850.1</ele>
      </trkpt>
      <trkpt lat="45.49592" lon="3.47954">
        <ele>849.3</ele>
      </trkpt>
      <trkpt lat="45.49573" lon="3.4794">
        <ele>849.1</ele>
      </trkpt>
      <trkpt lat="45.49568" lon="3.47937">
        <ele>849</ele>
      </trkpt>
      <trkpt lat="45.49563" lon="3.47934">
        <ele>848.9</ele>
      </trkpt>
      <trkpt lat="45.49547" lon="3.47924">
        <ele>848.6</ele>
      </trkpt>
      <trkpt lat="45.49534" lon="3.47914">
        <ele>848</ele>
      </trkpt>
      <trkpt lat="45.4952" lon="3.47905">
        <ele>847.6</ele>
      </trkpt>
      <trkpt lat="45.49508" lon="3.47898">
        <ele>847.2</ele>
      </trkpt>
      <trkpt lat="45.49498" lon="3.47891">
        <ele>846.7</ele>
      </trkpt>
      <trkpt lat="45.49494" lon="3.47887">
        <ele>846.6</ele>
      </trkpt>
      <trkpt lat="45.49489" lon="3.47881">
        <ele>846.2</ele>
      </trkpt>
      <trkpt lat="45.49485" lon="3.47875">
        <ele>845.9</ele>
      </trkpt>
      <trkpt lat="45.49482" lon="3.47869">
        <ele>845.4</ele>
      </trkpt>
      <trkpt lat="45.49477" lon="3.47857">
        <ele>844.5</ele>
      </trkpt>
      <trkpt lat="45.49474" lon="3.47847">
        <ele>843.7</ele>
      </trkpt>
      <trkpt lat="45.49468" lon="3.47831">
        <ele>842.8</ele>
      </trkpt>
      <trkpt lat="45.49463" lon="3.47816">
        <ele>842.6</ele>
      </trkpt>
      <trkpt lat="45.49457" lon="3.47799">
        <ele>842.5</ele>
      </trkpt>
      <trkpt lat="45.49454" lon="3.47786">
        <ele>842.3</ele>
      </trkpt>
      <trkpt lat="45.49451" lon="3.47775">
        <ele>842.1</ele>
      </trkpt>
      <trkpt lat="45.49449" lon="3.47766">
        <ele>841.9</ele>
      </trkpt>
      <trkpt lat="45.49447" lon="3.47756">
        <ele>841.7</ele>
      </trkpt>
      <trkpt lat="45.49449" lon="3.47747">
        <ele>841.2</ele>
      </trkpt>
      <trkpt lat="45.49453" lon="3.47738">
        <ele>840.9</ele>
      </trkpt>
      <trkpt lat="45.49457" lon="3.4773">
        <ele>840.6</ele>
      </trkpt>
      <trkpt lat="45.49462" lon="3.4772">
        <ele>840.1</ele>
      </trkpt>
      <trkpt lat="45.4947" lon="3.47709">
        <ele>839.4</ele>
      </trkpt>
      <trkpt lat="45.49478" lon="3.47699">
        <ele>838.7</ele>
      </trkpt>
      <trkpt lat="45.4949" lon="3.47684">
        <ele>837.6</ele>
      </trkpt>
      <trkpt lat="45.49501" lon="3.47672">
        <ele>836.8</ele>
      </trkpt>
      <trkpt lat="45.49509" lon="3.47663">
        <ele>836.6</ele>
      </trkpt>
      <trkpt lat="45.49514" lon="3.47656">
        <ele>836.3</ele>
      </trkpt>
      <trkpt lat="45.49518" lon="3.47651">
        <ele>836.2</ele>
      </trkpt>
      <trkpt lat="45.49521" lon="3.47646">
        <ele>836.2</ele>
      </trkpt>
      <trkpt lat="45.49521" lon="3.47646">
        <ele>836.2</ele>
      </trkpt>
      <trkpt lat="45.49526" lon="3.47631">
        <ele>836.3</ele>
      </trkpt>
      <trkpt lat="45.49528" lon="3.47623">
        <ele>836.4</ele>
      </trkpt>
      <trkpt lat="45.4953" lon="3.47614">
        <ele>836.5</ele>
      </trkpt>
      <trkpt lat="45.49532" lon="3.47605">
        <ele>836.7</ele>
      </trkpt>
      <trkpt lat="45.49533" lon="3.47597">
        <ele>836.9</ele>
      </trkpt>
      <trkpt lat="45.49533" lon="3.47578">
        <ele>836.8</ele>
      </trkpt>
      <trkpt lat="45.49538" lon="3.47557">
        <ele>835.7</ele>
      </trkpt>
      <trkpt lat="45.49544" lon="3.47541">
        <ele>834.8</ele>
      </trkpt>
      <trkpt lat="45.49561" lon="3.47522">
        <ele>833.6</ele>
      </trkpt>
      <trkpt lat="45.49578" lon="3.47502">
        <ele>832.2</ele>
      </trkpt>
      <trkpt lat="45.49595" lon="3.47482">
        <ele>829.8</ele>
      </trkpt>
      <trkpt lat="45.49612" lon="3.47463">
        <ele>827.1</ele>
      </trkpt>
      <trkpt lat="45.49629" lon="3.47443">
        <ele>824.1</ele>
      </trkpt>
      <trkpt lat="45.49642" lon="3.47425">
        <ele>821</ele>
      </trkpt>
      <trkpt lat="45.49655" lon="3.47407">
        <ele>817.9</ele>
      </trkpt>
      <trkpt lat="45.49663" lon="3.47395">
        <ele>815.9</ele>
      </trkpt>
      <trkpt lat="45.49671" lon="3.47382">
        <ele>814.4</ele>
      </trkpt>
      <trkpt lat="45.49683" lon="3.47362">
        <ele>812.5</ele>
      </trkpt>
      <trkpt lat="45.49695" lon="3.47342">
        <ele>810.5</ele>
      </trkpt>
      <trkpt lat="45.49708" lon="3.47319">
        <ele>806.8</ele>
      </trkpt>
      <trkpt lat="45.49722" lon="3.47295">
        <ele>802.7</ele>
      </trkpt>
      <trkpt lat="45.49735" lon="3.47271">
        <ele>798.5</ele>
      </trkpt>
      <trkpt lat="45.49748" lon="3.47248">
        <ele>794.3</ele>
      </trkpt>
      <trkpt lat="45.49761" lon="3.47224">
        <ele>790.6</ele>
      </trkpt>
      <trkpt lat="45.49775" lon="3.472">
        <ele>787.2</ele>
      </trkpt>
      <trkpt lat="45.49788" lon="3.47177">
        <ele>784</ele>
      </trkpt>
      <trkpt lat="45.49792" lon="3.47149">
        <ele>779.3</ele>
      </trkpt>
      <trkpt lat="45.49797" lon="3.47121">
        <ele>774.7</ele>
      </trkpt>
      <trkpt lat="45.49797" lon="3.47121">
        <ele>774.7</ele>
      </trkpt>
      <trkpt lat="45.49801" lon="3.47093">
        <ele>770</ele>
      </trkpt>
      <trkpt lat="45.49806" lon="3.47068">
        <ele>767</ele>
      </trkpt>
      <trkpt lat="45.49807" lon="3.47056">
        <ele>765.6</ele>
      </trkpt>
      <trkpt lat="45.4981" lon="3.47048">
        <ele>765</ele>
      </trkpt>
      <trkpt lat="45.49809" lon="3.47033">
        <ele>763.2</ele>
      </trkpt>
      <trkpt lat="45.49817" lon="3.47027">
        <ele>762.7</ele>
      </trkpt>
      <trkpt lat="45.49825" lon="3.47021">
        <ele>762</ele>
      </trkpt>
      <trkpt lat="45.49832" lon="3.47013">
        <ele>761</ele>
      </trkpt>
      <trkpt lat="45.4984" lon="3.47006">
        <ele>760.2</ele>
      </trkpt>
      <trkpt lat="45.49836" lon="3.47001">
        <ele>759.3</ele>
      </trkpt>
      <trkpt lat="45.49834" lon="3.46994">
        <ele>759</ele>
      </trkpt>
      <trkpt lat="45.49831" lon="3.46985">
        <ele>759</ele>
      </trkpt>
      <trkpt lat="45.49827" lon="3.46973">
        <ele>759.2</ele>
      </trkpt>
      <trkpt lat="45.49826" lon="3.46966">
        <ele>759.3</ele>
      </trkpt>
      <trkpt lat="45.49826" lon="3.46954">
        <ele>759.3</ele>
      </trkpt>
      <trkpt lat="45.49829" lon="3.46948">
        <ele>759.2</ele>
      </trkpt>
      <trkpt lat="45.49834" lon="3.46938">
        <ele>759</ele>
      </trkpt>
      <trkpt lat="45.49841" lon="3.46929">
        <ele>758.8</ele>
      </trkpt>
      <trkpt lat="45.49846" lon="3.46922">
        <ele>758.6</ele>
      </trkpt>
      <trkpt lat="45.49851" lon="3.46918">
        <ele>758.4</ele>
      </trkpt>
      <trkpt lat="45.4986" lon="3.4691">
        <ele>758.8</ele>
      </trkpt>
      <trkpt lat="45.49869" lon="3.46904">
        <ele>759.3</ele>
      </trkpt>
      <trkpt lat="45.4988" lon="3.46896">
        <ele>760</ele>
      </trkpt>
      <trkpt lat="45.49887" lon="3.46893">
        <ele>760.3</ele>
      </trkpt>
      <trkpt lat="45.499" lon="3.46886">
        <ele>761.1</ele>
      </trkpt>
      <trkpt lat="45.49906" lon="3.46883">
        <ele>761.4</ele>
      </trkpt>
      <trkpt lat="45.49916" lon="3.46875">
        <ele>762.5</ele>
      </trkpt>
      <trkpt lat="45.49921" lon="3.4687">
        <ele>763.3</ele>
      </trkpt>
      <trkpt lat="45.49925" lon="3.46864">
        <ele>764.1</ele>
      </trkpt>
      <trkpt lat="45.49931" lon="3.46856">
        <ele>765.4</ele>
      </trkpt>
      <trkpt lat="45.49936" lon="3.46845">
        <ele>767</ele>
      </trkpt>
      <trkpt lat="45.49948" lon="3.46823">
        <ele>770.2</ele>
      </trkpt>
      <trkpt lat="45.49956" lon="3.4681">
        <ele>772.2</ele>
      </trkpt>
      <trkpt lat="45.49968" lon="3.46786">
        <ele>775.7</ele>
      </trkpt>
      <trkpt lat="45.49978" lon="3.46765">
        <ele>778.5</ele>
      </trkpt>
      <trkpt lat="45.4999" lon="3.46742">
        <ele>781.3</ele>
      </trkpt>
      <trkpt lat="45.49997" lon="3.4673">
        <ele>782.5</ele>
      </trkpt>
      <trkpt lat="45.50003" lon="3.46721">
        <ele>783.2</ele>
      </trkpt>
      <trkpt lat="45.50007" lon="3.46713">
        <ele>783.8</ele>
      </trkpt>
      <trkpt lat="45.50007" lon="3.46713">
        <ele>783.8</ele>
      </trkpt>
      <trkpt lat="45.50008" lon="3.46685">
        <ele>787.1</ele>
      </trkpt>
      <trkpt lat="45.50009" lon="3.46657">
        <ele>790.1</ele>
      </trkpt>
      <trkpt lat="45.5001" lon="3.46629">
        <ele>792.4</ele>
      </trkpt>
      <trkpt lat="45.5" lon="3.46604">
        <ele>795.3</ele>
      </trkpt>
      <trkpt lat="45.5" lon="3.46604">
        <ele>795.3</ele>
      </trkpt>
      <trkpt lat="45.49991" lon="3.46578">
        <ele>798.1</ele>
      </trkpt>
      <trkpt lat="45.49998" lon="3.46556">
        <ele>800.7</ele>
      </trkpt>
      <trkpt lat="45.50005" lon="3.46534">
        <ele>803.3</ele>
      </trkpt>
      <trkpt lat="45.50022" lon="3.46523">
        <ele>804.1</ele>
      </trkpt>
      <trkpt lat="45.5004" lon="3.46512">
        <ele>805.1</ele>
      </trkpt>
      <trkpt lat="45.5006" lon="3.46502">
        <ele>806.3</ele>
      </trkpt>
      <trkpt lat="45.5008" lon="3.46491">
        <ele>807.7</ele>
      </trkpt>
      <trkpt lat="45.50096" lon="3.46469">
        <ele>810.9</ele>
      </trkpt>
      <trkpt lat="45.50112" lon="3.46447">
        <ele>813.5</ele>
      </trkpt>
      <trkpt lat="45.50121" lon="3.46425">
        <ele>816.2</ele>
      </trkpt>
      <trkpt lat="45.5013" lon="3.46403">
        <ele>817.4</ele>
      </trkpt>
      <trkpt lat="45.5014" lon="3.4638">
        <ele>818.1</ele>
      </trkpt>
      <trkpt lat="45.50145" lon="3.46372">
        <ele>818.1</ele>
      </trkpt>
      <trkpt lat="45.50164" lon="3.4637">
        <ele>816.6</ele>
      </trkpt>
      <trkpt lat="45.50176" lon="3.46369">
        <ele>816.4</ele>
      </trkpt>
      <trkpt lat="45.50187" lon="3.46369">
        <ele>816.4</ele>
      </trkpt>
      <trkpt lat="45.50202" lon="3.46375">
        <ele>815.8</ele>
      </trkpt>
      <trkpt lat="45.50223" lon="3.46377">
        <ele>815.4</ele>
      </trkpt>
      <trkpt lat="45.50242" lon="3.46379">
        <ele>815.1</ele>
      </trkpt>
      <trkpt lat="45.50259" lon="3.46373">
        <ele>816.1</ele>
      </trkpt>
      <trkpt lat="45.50272" lon="3.46366">
        <ele>817.5</ele>
      </trkpt>
      <trkpt lat="45.50282" lon="3.46358">
        <ele>819.2</ele>
      </trkpt>
      <trkpt lat="45.50293" lon="3.4635">
        <ele>820.9</ele>
      </trkpt>
      <trkpt lat="45.50305" lon="3.46339">
        <ele>823.4</ele>
      </trkpt>
      <trkpt lat="45.50317" lon="3.46327">
        <ele>826</ele>
      </trkpt>
      <trkpt lat="45.50327" lon="3.46318">
        <ele>828.2</ele>
      </trkpt>
      <trkpt lat="45.50336" lon="3.46308">
        <ele>830</ele>
      </trkpt>
      <trkpt lat="45.50345" lon="3.46297">
        <ele>831.2</ele>
      </trkpt>
      <trkpt lat="45.50353" lon="3.46286">
        <ele>832.4</ele>
      </trkpt>
      <trkpt lat="45.50353" lon="3.46286">
        <ele>832.4</ele>
      </trkpt>
      <trkpt lat="45.50359" lon="3.46276">
        <ele>833.7</ele>
      </trkpt>
      <trkpt lat="45.50362" lon="3.46268">
        <ele>834.7</ele>
      </trkpt>
      <trkpt lat="45.50366" lon="3.46249">
        <ele>837.4</ele>
      </trkpt>
      <trkpt lat="45.5037" lon="3.4623">
        <ele>839.5</ele>
      </trkpt>
      <trkpt lat="45.50375" lon="3.46203">
        <ele>842.4</ele>
      </trkpt>
      <trkpt lat="45.50381" lon="3.46177">
        <ele>845.3</ele>
      </trkpt>
      <trkpt lat="45.50387" lon="3.4615">
        <ele>847.6</ele>
      </trkpt>
      <trkpt lat="45.50393" lon="3.46123">
        <ele>849.7</ele>
      </trkpt>
      <trkpt lat="45.50393" lon="3.46099">
        <ele>851.9</ele>
      </trkpt>
      <trkpt lat="45.50396" lon="3.46083">
        <ele>853.3</ele>
      </trkpt>
      <trkpt lat="45.50404" lon="3.46068">
        <ele>853.4</ele>
      </trkpt>
      <trkpt lat="45.50422" lon="3.46052">
        <ele>853.1</ele>
      </trkpt>
      <trkpt lat="45.50437" lon="3.4604">
        <ele>852.6</ele>
      </trkpt>
      <trkpt lat="45.50451" lon="3.46027">
        <ele>852.6</ele>
      </trkpt>
      <trkpt lat="45.50463" lon="3.46014">
        <ele>853.1</ele>
      </trkpt>
      <trkpt lat="45.50476" lon="3.46">
        <ele>854</ele>
      </trkpt>
      <trkpt lat="45.50484" lon="3.45987">
        <ele>853.7</ele>
      </trkpt>
      <trkpt lat="45.50496" lon="3.45977">
        <ele>853.5</ele>
      </trkpt>
      <trkpt lat="45.50509" lon="3.4597">
        <ele>852.9</ele>
      </trkpt>
      <trkpt lat="45.50522" lon="3.45962">
        <ele>852.6</ele>
      </trkpt>
      <trkpt lat="45.50533" lon="3.45954">
        <ele>852.5</ele>
      </trkpt>
      <trkpt lat="45.50544" lon="3.45945">
        <ele>852.8</ele>
      </trkpt>
      <trkpt lat="45.50556" lon="3.45928">
        <ele>854</ele>
      </trkpt>
      <trkpt lat="45.50569" lon="3.4591">
        <ele>854.4</ele>
      </trkpt>
      <trkpt lat="45.50579" lon="3.45898">
        <ele>853.4</ele>
      </trkpt>
      <trkpt lat="45.5059" lon="3.45886">
        <ele>851.7</ele>
      </trkpt>
      <trkpt lat="45.50608" lon="3.45872">
        <ele>850</ele>
      </trkpt>
      <trkpt lat="45.50625" lon="3.45859">
        <ele>849.2</ele>
      </trkpt>
      <trkpt lat="45.50636" lon="3.45846">
        <ele>849.1</ele>
      </trkpt>
      <trkpt lat="45.50637" lon="3.45838">
        <ele>849</ele>
      </trkpt>
      <trkpt lat="45.50638" lon="3.45826">
        <ele>848.6</ele>
      </trkpt>
      <trkpt lat="45.50638" lon="3.45826">
        <ele>848.6</ele>
      </trkpt>
      <trkpt lat="45.50638" lon="3.45819">
        <ele>848.3</ele>
      </trkpt>
      <trkpt lat="45.50646" lon="3.45811">
        <ele>848.8</ele>
      </trkpt>
      <trkpt lat="45.50652" lon="3.45805">
        <ele>849.1</ele>
      </trkpt>
      <trkpt lat="45.5066" lon="3.45795">
        <ele>849.8</ele>
      </trkpt>
      <trkpt lat="45.50666" lon="3.45787">
        <ele>850.4</ele>
      </trkpt>
      <trkpt lat="45.50676" lon="3.45774">
        <ele>850.9</ele>
      </trkpt>
      <trkpt lat="45.50684" lon="3.45763">
        <ele>851.4</ele>
      </trkpt>
      <trkpt lat="45.5069" lon="3.45756">
        <ele>851.9</ele>
      </trkpt>
      <trkpt lat="45.50698" lon="3.45749">
        <ele>852.6</ele>
      </trkpt>
      <trkpt lat="45.50706" lon="3.45744">
        <ele>853.1</ele>
      </trkpt>
      <trkpt lat="45.50718" lon="3.45737">
        <ele>854</ele>
      </trkpt>
      <trkpt lat="45.50733" lon="3.45729">
        <ele>855.2</ele>
      </trkpt>
      <trkpt lat="45.50748" lon="3.4572">
        <ele>856.5</ele>
      </trkpt>
      <trkpt lat="45.50769" lon="3.45709">
        <ele>853.6</ele>
      </trkpt>
      <trkpt lat="45.50769" lon="3.45709">
        <ele>853.6</ele>
      </trkpt>
      <trkpt lat="45.5079" lon="3.45699">
        <ele>850.4</ele>
      </trkpt>
      <trkpt lat="45.50804" lon="3.45692">
        <ele>848.4</ele>
      </trkpt>
      <trkpt lat="45.50816" lon="3.45685">
        <ele>846.6</ele>
      </trkpt>
      <trkpt lat="45.50827" lon="3.45679">
        <ele>844.9</ele>
      </trkpt>
      <trkpt lat="45.50838" lon="3.45673">
        <ele>844</ele>
      </trkpt>
      <trkpt lat="45.50859" lon="3.45663">
        <ele>844.3</ele>
      </trkpt>
      <trkpt lat="45.50872" lon="3.45656">
        <ele>844.9</ele>
      </trkpt>
      <trkpt lat="45.50885" lon="3.45649">
        <ele>845.6</ele>
      </trkpt>
      <trkpt lat="45.50904" lon="3.45637">
        <ele>847</ele>
      </trkpt>
      <trkpt lat="45.50923" lon="3.45626">
        <ele>847.4</ele>
      </trkpt>
      <trkpt lat="45.50932" lon="3.45622">
        <ele>846.3</ele>
      </trkpt>
      <trkpt lat="45.50945" lon="3.45614">
        <ele>844.7</ele>
      </trkpt>
      <trkpt lat="45.50962" lon="3.45604">
        <ele>842.6</ele>
      </trkpt>
      <trkpt lat="45.50973" lon="3.45596">
        <ele>841.3</ele>
      </trkpt>
      <trkpt lat="45.50982" lon="3.45588">
        <ele>840.1</ele>
      </trkpt>
      <trkpt lat="45.50988" lon="3.45582">
        <ele>839.3</ele>
      </trkpt>
      <trkpt lat="45.50996" lon="3.45573">
        <ele>838.3</ele>
      </trkpt>
      <trkpt lat="45.51008" lon="3.45557">
        <ele>837.6</ele>
      </trkpt>
      <trkpt lat="45.51022" lon="3.45536">
        <ele>837</ele>
      </trkpt>
      <trkpt lat="45.51032" lon="3.45521">
        <ele>836.4</ele>
      </trkpt>
      <trkpt lat="45.51042" lon="3.45506">
        <ele>835.7</ele>
      </trkpt>
      <trkpt lat="45.51042" lon="3.45506">
        <ele>835.7</ele>
      </trkpt>
      <trkpt lat="45.51054" lon="3.45487">
        <ele>834.3</ele>
      </trkpt>
      <trkpt lat="45.51066" lon="3.45468">
        <ele>832.8</ele>
      </trkpt>
      <trkpt lat="45.51079" lon="3.45445">
        <ele>831.2</ele>
      </trkpt>
      <trkpt lat="45.51092" lon="3.45422">
        <ele>830.6</ele>
      </trkpt>
      <trkpt lat="45.51105" lon="3.45402">
        <ele>830.4</ele>
      </trkpt>
      <trkpt lat="45.51109" lon="3.45394">
        <ele>830.3</ele>
      </trkpt>
      <trkpt lat="45.51119" lon="3.45377">
        <ele>830.3</ele>
      </trkpt>
      <trkpt lat="45.5113" lon="3.4536">
        <ele>830.5</ele>
      </trkpt>
      <trkpt lat="45.51142" lon="3.45338">
        <ele>830.9</ele>
      </trkpt>
      <trkpt lat="45.51149" lon="3.45325">
        <ele>831.1</ele>
      </trkpt>
      <trkpt lat="45.51156" lon="3.45313">
        <ele>831.2</ele>
      </trkpt>
      <trkpt lat="45.51165" lon="3.453">
        <ele>831.4</ele>
      </trkpt>
      <trkpt lat="45.51173" lon="3.45288">
        <ele>831.4</ele>
      </trkpt>
      <trkpt lat="45.51183" lon="3.45276">
        <ele>831.2</ele>
      </trkpt>
      <trkpt lat="45.51188" lon="3.45264">
        <ele>831.1</ele>
      </trkpt>
      <trkpt lat="45.51186" lon="3.45257">
        <ele>831.3</ele>
      </trkpt>
      <trkpt lat="45.51184" lon="3.45246">
        <ele>831.2</ele>
      </trkpt>
      <trkpt lat="45.51186" lon="3.45235">
        <ele>830.8</ele>
      </trkpt>
      <trkpt lat="45.51188" lon="3.45229">
        <ele>830.5</ele>
      </trkpt>
      <trkpt lat="45.51192" lon="3.45215">
        <ele>829.9</ele>
      </trkpt>
      <trkpt lat="45.51197" lon="3.45192">
        <ele>829.1</ele>
      </trkpt>
      <trkpt lat="45.51201" lon="3.45176">
        <ele>828.7</ele>
      </trkpt>
      <trkpt lat="45.51204" lon="3.4516">
        <ele>828</ele>
      </trkpt>
      <trkpt lat="45.5121" lon="3.4513">
        <ele>825.9</ele>
      </trkpt>
      <trkpt lat="45.51209" lon="3.45116">
        <ele>824.9</ele>
      </trkpt>
      <trkpt lat="45.51208" lon="3.451">
        <ele>823.7</ele>
      </trkpt>
      <trkpt lat="45.51205" lon="3.45086">
        <ele>822.6</ele>
      </trkpt>
      <trkpt lat="45.51191" lon="3.45087">
        <ele>822.2</ele>
      </trkpt>
      <trkpt lat="45.51176" lon="3.45087">
        <ele>821.6</ele>
      </trkpt>
      <trkpt lat="45.51168" lon="3.45087">
        <ele>821.3</ele>
      </trkpt>
      <trkpt lat="45.51161" lon="3.45087">
        <ele>821.3</ele>
      </trkpt>
      <trkpt lat="45.51156" lon="3.45088">
        <ele>821.3</ele>
      </trkpt>
      <trkpt lat="45.51148" lon="3.4509">
        <ele>821.3</ele>
      </trkpt>
      <trkpt lat="45.51138" lon="3.45092">
        <ele>821.4</ele>
      </trkpt>
      <trkpt lat="45.51131" lon="3.45093">
        <ele>821.4</ele>
      </trkpt>
      <trkpt lat="45.51123" lon="3.45094">
        <ele>821.3</ele>
      </trkpt>
      <trkpt lat="45.51115" lon="3.45094">
        <ele>821.2</ele>
      </trkpt>
      <trkpt lat="45.51104" lon="3.45093">
        <ele>821</ele>
      </trkpt>
      <trkpt lat="45.51092" lon="3.45089">
        <ele>820.5</ele>
      </trkpt>
      <trkpt lat="45.51092" lon="3.45089">
        <ele>820.5</ele>
      </trkpt>
      <trkpt lat="45.51081" lon="3.45085">
        <ele>820.1</ele>
      </trkpt>
      <trkpt lat="45.51072" lon="3.4508">
        <ele>820</ele>
      </trkpt>
      <trkpt lat="45.51066" lon="3.45075">
        <ele>819.7</ele>
      </trkpt>
      <trkpt lat="45.51061" lon="3.4507">
        <ele>819.4</ele>
      </trkpt>
      <trkpt lat="45.51057" lon="3.45065">
        <ele>819.1</ele>
      </trkpt>
      <trkpt lat="45.51051" lon="3.45059">
        <ele>818.7</ele>
      </trkpt>
      <trkpt lat="45.51046" lon="3.45053">
        <ele>818.3</ele>
      </trkpt>
      <trkpt lat="45.51042" lon="3.45049">
        <ele>818.1</ele>
      </trkpt>
      <trkpt lat="45.51037" lon="3.45044">
        <ele>817.8</ele>
      </trkpt>
      <trkpt lat="45.51032" lon="3.4504">
        <ele>817.6</ele>
      </trkpt>
      <trkpt lat="45.51027" lon="3.45037">
        <ele>817.5</ele>
      </trkpt>
      <trkpt lat="45.51022" lon="3.45034">
        <ele>817.3</ele>
      </trkpt>
      <trkpt lat="45.51016" lon="3.45031">
        <ele>817.2</ele>
      </trkpt>
      <trkpt lat="45.51011" lon="3.45029">
        <ele>817.2</ele>
      </trkpt>
      <trkpt lat="45.51004" lon="3.45027">
        <ele>817.2</ele>
      </trkpt>
      <trkpt lat="45.50993" lon="3.45025">
        <ele>817.1</ele>
      </trkpt>
      <trkpt lat="45.50984" lon="3.45024">
        <ele>817</ele>
      </trkpt>
      <trkpt lat="45.5097" lon="3.45023">
        <ele>816.9</ele>
      </trkpt>
      <trkpt lat="45.50954" lon="3.45021">
        <ele>816.8</ele>
      </trkpt>
      <trkpt lat="45.50947" lon="3.4502">
        <ele>816.7</ele>
      </trkpt>
      <trkpt lat="45.50937" lon="3.45018">
        <ele>816.6</ele>
      </trkpt>
      <trkpt lat="45.5093" lon="3.45015">
        <ele>816.5</ele>
      </trkpt>
      <trkpt lat="45.50926" lon="3.45011">
        <ele>816.3</ele>
      </trkpt>
      <trkpt lat="45.50922" lon="3.45005">
        <ele>816.1</ele>
      </trkpt>
      <trkpt lat="45.50915" lon="3.44992">
        <ele>815.3</ele>
      </trkpt>
      <trkpt lat="45.50906" lon="3.44974">
        <ele>813.4</ele>
      </trkpt>
      <trkpt lat="45.50897" lon="3.44956">
        <ele>811.6</ele>
      </trkpt>
      <trkpt lat="45.50885" lon="3.44933">
        <ele>809.4</ele>
      </trkpt>
      <trkpt lat="45.50872" lon="3.44909">
        <ele>807.2</ele>
      </trkpt>
      <trkpt lat="45.5086" lon="3.44886">
        <ele>804.7</ele>
      </trkpt>
      <trkpt lat="45.50852" lon="3.44871">
        <ele>803.2</ele>
      </trkpt>
      <trkpt lat="45.50848" lon="3.44866">
        <ele>802.7</ele>
      </trkpt>
      <trkpt lat="45.50837" lon="3.44853">
        <ele>801.5</ele>
      </trkpt>
      <trkpt lat="45.50827" lon="3.44843">
        <ele>800.3</ele>
      </trkpt>
      <trkpt lat="45.50818" lon="3.44834">
        <ele>799.1</ele>
      </trkpt>
      <trkpt lat="45.50805" lon="3.44822">
        <ele>797.6</ele>
      </trkpt>
      <trkpt lat="45.50793" lon="3.4481">
        <ele>796.3</ele>
      </trkpt>
      <trkpt lat="45.50777" lon="3.44796">
        <ele>794.8</ele>
      </trkpt>
      <trkpt lat="45.50767" lon="3.44786">
        <ele>794</ele>
      </trkpt>
      <trkpt lat="45.50757" lon="3.44776">
        <ele>793.2</ele>
      </trkpt>
      <trkpt lat="45.50744" lon="3.44764">
        <ele>792.3</ele>
      </trkpt>
      <trkpt lat="45.50731" lon="3.44751">
        <ele>791.6</ele>
      </trkpt>
      <trkpt lat="45.50714" lon="3.44736">
        <ele>790.8</ele>
      </trkpt>
      <trkpt lat="45.50701" lon="3.44723">
        <ele>790.3</ele>
      </trkpt>
      <trkpt lat="45.50701" lon="3.44723">
        <ele>790.3</ele>
      </trkpt>
      <trkpt lat="45.50687" lon="3.44711">
        <ele>790</ele>
      </trkpt>
      <trkpt lat="45.50669" lon="3.44693">
        <ele>790</ele>
      </trkpt>
      <trkpt lat="45.50651" lon="3.44676">
        <ele>789.2</ele>
      </trkpt>
      <trkpt lat="45.50638" lon="3.44663">
        <ele>788.5</ele>
      </trkpt>
      <trkpt lat="45.50625" lon="3.44651">
        <ele>787.4</ele>
      </trkpt>
      <trkpt lat="45.5061" lon="3.44637">
        <ele>786.5</ele>
      </trkpt>
      <trkpt lat="45.50595" lon="3.44624">
        <ele>785.8</ele>
      </trkpt>
      <trkpt lat="45.50583" lon="3.44612">
        <ele>785.3</ele>
      </trkpt>
      <trkpt lat="45.5057" lon="3.446">
        <ele>784.4</ele>
      </trkpt>
      <trkpt lat="45.50552" lon="3.44584">
        <ele>783.1</ele>
      </trkpt>
      <trkpt lat="45.50542" lon="3.44574">
        <ele>782</ele>
      </trkpt>
      <trkpt lat="45.50532" lon="3.44565">
        <ele>781.1</ele>
      </trkpt>
      <trkpt lat="45.50516" lon="3.4455">
        <ele>779.8</ele>
      </trkpt>
      <trkpt lat="45.505" lon="3.44534">
        <ele>778.8</ele>
      </trkpt>
      <trkpt lat="45.50482" lon="3.44517">
        <ele>777.5</ele>
      </trkpt>
      <trkpt lat="45.50482" lon="3.44517">
        <ele>777.5</ele>
      </trkpt>
      <trkpt lat="45.50463" lon="3.445">
        <ele>776.2</ele>
      </trkpt>
      <trkpt lat="45.50446" lon="3.44483">
        <ele>774.6</ele>
      </trkpt>
      <trkpt lat="45.5043" lon="3.44466">
        <ele>773</ele>
      </trkpt>
      <trkpt lat="45.50417" lon="3.44454">
        <ele>771.8</ele>
      </trkpt>
      <trkpt lat="45.5041" lon="3.44451">
        <ele>771.8</ele>
      </trkpt>
      <trkpt lat="45.50402" lon="3.44451">
        <ele>772.1</ele>
      </trkpt>
      <trkpt lat="45.50396" lon="3.44454">
        <ele>772.4</ele>
      </trkpt>
      <trkpt lat="45.50386" lon="3.44459">
        <ele>772.8</ele>
      </trkpt>
      <trkpt lat="45.50374" lon="3.44466">
        <ele>773.1</ele>
      </trkpt>
      <trkpt lat="45.50361" lon="3.44472">
        <ele>773.3</ele>
      </trkpt>
      <trkpt lat="45.50351" lon="3.44475">
        <ele>773.4</ele>
      </trkpt>
      <trkpt lat="45.50345" lon="3.44475">
        <ele>773.5</ele>
      </trkpt>
      <trkpt lat="45.50339" lon="3.44473">
        <ele>773.6</ele>
      </trkpt>
      <trkpt lat="45.50334" lon="3.44471">
        <ele>773.7</ele>
      </trkpt>
      <trkpt lat="45.50328" lon="3.44467">
        <ele>774.4</ele>
      </trkpt>
      <trkpt lat="45.50322" lon="3.44462">
        <ele>775.1</ele>
      </trkpt>
      <trkpt lat="45.50317" lon="3.44454">
        <ele>775.9</ele>
      </trkpt>
      <trkpt lat="45.50317" lon="3.44446">
        <ele>776.1</ele>
      </trkpt>
      <trkpt lat="45.5032" lon="3.44425">
        <ele>776.4</ele>
      </trkpt>
      <trkpt lat="45.5032" lon="3.44425">
        <ele>776.4</ele>
      </trkpt>
      <trkpt lat="45.5032" lon="3.44402">
        <ele>777.1</ele>
      </trkpt>
      <trkpt lat="45.50321" lon="3.44378">
        <ele>778</ele>
      </trkpt>
      <trkpt lat="45.50303" lon="3.44376">
        <ele>779.7</ele>
      </trkpt>
      <trkpt lat="45.50284" lon="3.44374">
        <ele>781.4</ele>
      </trkpt>
      <trkpt lat="45.50266" lon="3.44372">
        <ele>783.1</ele>
      </trkpt>
      <trkpt lat="45.50249" lon="3.44372">
        <ele>784.5</ele>
      </trkpt>
      <trkpt lat="45.50232" lon="3.44372">
        <ele>784.8</ele>
      </trkpt>
      <trkpt lat="45.50213" lon="3.4437">
        <ele>785.2</ele>
      </trkpt>
      <trkpt lat="45.50194" lon="3.44368">
        <ele>785.6</ele>
      </trkpt>
      <trkpt lat="45.50175" lon="3.44365">
        <ele>786.1</ele>
      </trkpt>
      <trkpt lat="45.50163" lon="3.44365">
        <ele>786.3</ele>
      </trkpt>
      <trkpt lat="45.50151" lon="3.44364">
        <ele>786.7</ele>
      </trkpt>
      <trkpt lat="45.50132" lon="3.44362">
        <ele>787.2</ele>
      </trkpt>
      <trkpt lat="45.50126" lon="3.4436">
        <ele>787.3</ele>
      </trkpt>
      <trkpt lat="45.50118" lon="3.44356">
        <ele>787.5</ele>
      </trkpt>
      <trkpt lat="45.50114" lon="3.44352">
        <ele>787.6</ele>
      </trkpt>
      <trkpt lat="45.50108" lon="3.44346">
        <ele>787.7</ele>
      </trkpt>
      <trkpt lat="45.50104" lon="3.44336">
        <ele>787.8</ele>
      </trkpt>
      <trkpt lat="45.50101" lon="3.44328">
        <ele>787.8</ele>
      </trkpt>
      <trkpt lat="45.50097" lon="3.44318">
        <ele>787.9</ele>
      </trkpt>
      <trkpt lat="45.50093" lon="3.44307">
        <ele>788</ele>
      </trkpt>
      <trkpt lat="45.50089" lon="3.44298">
        <ele>788</ele>
      </trkpt>
      <trkpt lat="45.50084" lon="3.44287">
        <ele>788</ele>
      </trkpt>
      <trkpt lat="45.50078" lon="3.44279">
        <ele>788.1</ele>
      </trkpt>
      <trkpt lat="45.5007" lon="3.44267">
        <ele>788.1</ele>
      </trkpt>
      <trkpt lat="45.50063" lon="3.44258">
        <ele>788.1</ele>
      </trkpt>
      <trkpt lat="45.50051" lon="3.44247">
        <ele>787.9</ele>
      </trkpt>
      <trkpt lat="45.50036" lon="3.4423">
        <ele>787.6</ele>
      </trkpt>
      <trkpt lat="45.50027" lon="3.4422">
        <ele>787.4</ele>
      </trkpt>
      <trkpt lat="45.50019" lon="3.44211">
        <ele>787.2</ele>
      </trkpt>
      <trkpt lat="45.50015" lon="3.44208">
        <ele>787.1</ele>
      </trkpt>
      <trkpt lat="45.5001" lon="3.44204">
        <ele>787</ele>
      </trkpt>
      <trkpt lat="45.50004" lon="3.442">
        <ele>786.8</ele>
      </trkpt>
      <trkpt lat="45.49991" lon="3.44193">
        <ele>787</ele>
      </trkpt>
      <trkpt lat="45.49974" lon="3.44182">
        <ele>787.4</ele>
      </trkpt>
      <trkpt lat="45.49967" lon="3.44178">
        <ele>787.5</ele>
      </trkpt>
      <trkpt lat="45.49957" lon="3.44172">
        <ele>787.7</ele>
      </trkpt>
      <trkpt lat="45.49947" lon="3.44165">
        <ele>787.9</ele>
      </trkpt>
      <trkpt lat="45.49936" lon="3.44159">
        <ele>788.1</ele>
      </trkpt>
      <trkpt lat="45.49936" lon="3.44159">
        <ele>788.1</ele>
      </trkpt>
      <trkpt lat="45.49916" lon="3.44146">
        <ele>788.5</ele>
      </trkpt>
      <trkpt lat="45.49906" lon="3.4414">
        <ele>788.6</ele>
      </trkpt>
      <trkpt lat="45.49897" lon="3.44134">
        <ele>788.7</ele>
      </trkpt>
      <trkpt lat="45.49882" lon="3.44125">
        <ele>788.8</ele>
      </trkpt>
      <trkpt lat="45.49867" lon="3.44117">
        <ele>789</ele>
      </trkpt>
      <trkpt lat="45.49854" lon="3.44108">
        <ele>789.1</ele>
      </trkpt>
      <trkpt lat="45.49843" lon="3.441">
        <ele>789.2</ele>
      </trkpt>
      <trkpt lat="45.49831" lon="3.4409">
        <ele>789.2</ele>
      </trkpt>
      <trkpt lat="45.49817" lon="3.44079">
        <ele>788.9</ele>
      </trkpt>
      <trkpt lat="45.49803" lon="3.44067">
        <ele>788.5</ele>
      </trkpt>
      <trkpt lat="45.49785" lon="3.44051">
        <ele>788.1</ele>
      </trkpt>
      <trkpt lat="45.49777" lon="3.44044">
        <ele>788</ele>
      </trkpt>
      <trkpt lat="45.49762" lon="3.44033">
        <ele>787.8</ele>
      </trkpt>
      <trkpt lat="45.49751" lon="3.44024">
        <ele>787.8</ele>
      </trkpt>
      <trkpt lat="45.4974" lon="3.44017">
        <ele>787.2</ele>
      </trkpt>
      <trkpt lat="45.4973" lon="3.44011">
        <ele>786.5</ele>
      </trkpt>
      <trkpt lat="45.49722" lon="3.44007">
        <ele>785.9</ele>
      </trkpt>
      <trkpt lat="45.49712" lon="3.44002">
        <ele>785.3</ele>
      </trkpt>
      <trkpt lat="45.49707" lon="3.44">
        <ele>784.9</ele>
      </trkpt>
      <trkpt lat="45.49702" lon="3.43999">
        <ele>784.6</ele>
      </trkpt>
      <trkpt lat="45.49696" lon="3.43997">
        <ele>784.4</ele>
      </trkpt>
      <trkpt lat="45.49686" lon="3.43996">
        <ele>783.9</ele>
      </trkpt>
      <trkpt lat="45.49673" lon="3.43996">
        <ele>783.2</ele>
      </trkpt>
      <trkpt lat="45.49659" lon="3.43997">
        <ele>782.5</ele>
      </trkpt>
      <trkpt lat="45.49646" lon="3.43999">
        <ele>782</ele>
      </trkpt>
      <trkpt lat="45.49632" lon="3.44">
        <ele>781.4</ele>
      </trkpt>
      <trkpt lat="45.49619" lon="3.44002">
        <ele>780.8</ele>
      </trkpt>
      <trkpt lat="45.49605" lon="3.44003">
        <ele>780.2</ele>
      </trkpt>
      <trkpt lat="45.49594" lon="3.44005">
        <ele>779.6</ele>
      </trkpt>
      <trkpt lat="45.49582" lon="3.44007">
        <ele>779</ele>
      </trkpt>
      <trkpt lat="45.49569" lon="3.44008">
        <ele>778</ele>
      </trkpt>
      <trkpt lat="45.49563" lon="3.44006">
        <ele>777.4</ele>
      </trkpt>
      <trkpt lat="45.49556" lon="3.44011">
        <ele>776.9</ele>
      </trkpt>
      <trkpt lat="45.49545" lon="3.44013">
        <ele>776.1</ele>
      </trkpt>
      <trkpt lat="45.49537" lon="3.44014">
        <ele>775.4</ele>
      </trkpt>
      <trkpt lat="45.4953" lon="3.44017">
        <ele>775</ele>
      </trkpt>
      <trkpt lat="45.49526" lon="3.44023">
        <ele>774.7</ele>
      </trkpt>
      <trkpt lat="45.49519" lon="3.44029">
        <ele>774.3</ele>
      </trkpt>
      <trkpt lat="45.49514" lon="3.44027">
        <ele>773.8</ele>
      </trkpt>
      <trkpt lat="45.49502" lon="3.44034">
        <ele>773</ele>
      </trkpt>
      <trkpt lat="45.49502" lon="3.44034">
        <ele>773</ele>
      </trkpt>
      <trkpt lat="45.49489" lon="3.44043">
        <ele>772.2</ele>
      </trkpt>
      <trkpt lat="45.49476" lon="3.44051">
        <ele>771.6</ele>
      </trkpt>
      <trkpt lat="45.49465" lon="3.44059">
        <ele>771</ele>
      </trkpt>
      <trkpt lat="45.49453" lon="3.44067">
        <ele>770.6</ele>
      </trkpt>
      <trkpt lat="45.49446" lon="3.44072">
        <ele>770.3</ele>
      </trkpt>
      <trkpt lat="45.49436" lon="3.44078">
        <ele>769.9</ele>
      </trkpt>
      <trkpt lat="45.49422" lon="3.44087">
        <ele>769.5</ele>
      </trkpt>
      <trkpt lat="45.49409" lon="3.44097">
        <ele>769</ele>
      </trkpt>
      <trkpt lat="45.49392" lon="3.44108">
        <ele>768</ele>
      </trkpt>
      <trkpt lat="45.49375" lon="3.4412">
        <ele>767.1</ele>
      </trkpt>
      <trkpt lat="45.49356" lon="3.44132">
        <ele>765.8</ele>
      </trkpt>
      <trkpt lat="45.49348" lon="3.44137">
        <ele>765.3</ele>
      </trkpt>
      <trkpt lat="45.49342" lon="3.44141">
        <ele>764.9</ele>
      </trkpt>
      <trkpt lat="45.49333" lon="3.44142">
        <ele>764.1</ele>
      </trkpt>
      <trkpt lat="45.49324" lon="3.4414">
        <ele>763.3</ele>
      </trkpt>
      <trkpt lat="45.49312" lon="3.44137">
        <ele>762.2</ele>
      </trkpt>
      <trkpt lat="45.493" lon="3.44133">
        <ele>761.1</ele>
      </trkpt>
      <trkpt lat="45.49287" lon="3.4413">
        <ele>759.8</ele>
      </trkpt>
      <trkpt lat="45.49275" lon="3.44128">
        <ele>758.8</ele>
      </trkpt>
      <trkpt lat="45.49264" lon="3.44126">
        <ele>757.7</ele>
      </trkpt>
      <trkpt lat="45.49248" lon="3.44123">
        <ele>756.3</ele>
      </trkpt>
      <trkpt lat="45.49232" lon="3.4412">
        <ele>755.3</ele>
      </trkpt>
      <trkpt lat="45.49218" lon="3.44117">
        <ele>754.6</ele>
      </trkpt>
      <trkpt lat="45.49205" lon="3.44114">
        <ele>753.9</ele>
      </trkpt>
      <trkpt lat="45.49196" lon="3.44111">
        <ele>753.5</ele>
      </trkpt>
      <trkpt lat="45.49198" lon="3.44103">
        <ele>753.5</ele>
      </trkpt>
      <trkpt lat="45.49203" lon="3.44095">
        <ele>753.6</ele>
      </trkpt>
      <trkpt lat="45.49214" lon="3.44076">
        <ele>753.5</ele>
      </trkpt>
      <trkpt lat="45.49223" lon="3.44056">
        <ele>753.3</ele>
      </trkpt>
      <trkpt lat="45.49233" lon="3.44037">
        <ele>753</ele>
      </trkpt>
      <trkpt lat="45.49245" lon="3.44013">
        <ele>752.4</ele>
      </trkpt>
      <trkpt lat="45.49253" lon="3.43997">
        <ele>752.1</ele>
      </trkpt>
      <trkpt lat="45.49261" lon="3.4398">
        <ele>752.1</ele>
      </trkpt>
      <trkpt lat="45.49267" lon="3.43966">
        <ele>752.1</ele>
      </trkpt>
      <trkpt lat="45.49274" lon="3.43951">
        <ele>752.1</ele>
      </trkpt>
      <trkpt lat="45.49281" lon="3.43938">
        <ele>752.3</ele>
      </trkpt>
      <trkpt lat="45.49281" lon="3.43938">
        <ele>752.3</ele>
      </trkpt>
      <trkpt lat="45.49288" lon="3.43924">
        <ele>752.4</ele>
      </trkpt>
      <trkpt lat="45.49296" lon="3.43911">
        <ele>752.8</ele>
      </trkpt>
      <trkpt lat="45.49302" lon="3.43901">
        <ele>753.2</ele>
      </trkpt>
      <trkpt lat="45.49313" lon="3.43884">
        <ele>753.9</ele>
      </trkpt>
      <trkpt lat="45.49328" lon="3.43865">
        <ele>754.9</ele>
      </trkpt>
      <trkpt lat="45.49344" lon="3.43844">
        <ele>756</ele>
      </trkpt>
      <trkpt lat="45.49349" lon="3.43832">
        <ele>756.3</ele>
      </trkpt>
      <trkpt lat="45.49353" lon="3.4382">
        <ele>756.6</ele>
      </trkpt>
      <trkpt lat="45.49358" lon="3.43807">
        <ele>756.9</ele>
      </trkpt>
      <trkpt lat="45.49361" lon="3.43796">
        <ele>757.1</ele>
      </trkpt>
      <trkpt lat="45.49368" lon="3.43772">
        <ele>757.8</ele>
      </trkpt>
      <trkpt lat="45.49372" lon="3.43755">
        <ele>758.2</ele>
      </trkpt>
      <trkpt lat="45.49374" lon="3.43743">
        <ele>758.6</ele>
      </trkpt>
      <trkpt lat="45.49376" lon="3.43729">
        <ele>759.1</ele>
      </trkpt>
      <trkpt lat="45.49377" lon="3.43716">
        <ele>759.6</ele>
      </trkpt>
      <trkpt lat="45.49377" lon="3.43706">
        <ele>759.9</ele>
      </trkpt>
      <trkpt lat="45.49378" lon="3.43694">
        <ele>760.2</ele>
      </trkpt>
      <trkpt lat="45.49379" lon="3.43683">
        <ele>760.7</ele>
      </trkpt>
      <trkpt lat="45.49381" lon="3.43665">
        <ele>761.4</ele>
      </trkpt>
      <trkpt lat="45.49383" lon="3.43642">
        <ele>761.4</ele>
      </trkpt>
      <trkpt lat="45.49383" lon="3.43627">
        <ele>761.3</ele>
      </trkpt>
      <trkpt lat="45.49383" lon="3.43614">
        <ele>761.1</ele>
      </trkpt>
      <trkpt lat="45.49382" lon="3.43601">
        <ele>760.8</ele>
      </trkpt>
      <trkpt lat="45.49381" lon="3.4359">
        <ele>760.6</ele>
      </trkpt>
      <trkpt lat="45.49381" lon="3.43579">
        <ele>760.2</ele>
      </trkpt>
      <trkpt lat="45.49382" lon="3.4357">
        <ele>759.9</ele>
      </trkpt>
      <trkpt lat="45.49383" lon="3.43561">
        <ele>759.6</ele>
      </trkpt>
      <trkpt lat="45.49384" lon="3.43552">
        <ele>759.4</ele>
      </trkpt>
      <trkpt lat="45.49386" lon="3.43542">
        <ele>759.1</ele>
      </trkpt>
      <trkpt lat="45.49389" lon="3.43532">
        <ele>759</ele>
      </trkpt>
      <trkpt lat="45.49392" lon="3.43523">
        <ele>759</ele>
      </trkpt>
      <trkpt lat="45.49396" lon="3.43514">
        <ele>759.1</ele>
      </trkpt>
      <trkpt lat="45.49401" lon="3.43504">
        <ele>759.2</ele>
      </trkpt>
      <trkpt lat="45.49411" lon="3.43487">
        <ele>759</ele>
      </trkpt>
      <trkpt lat="45.49418" lon="3.43475">
        <ele>758.7</ele>
      </trkpt>
      <trkpt lat="45.49425" lon="3.43462">
        <ele>758.1</ele>
      </trkpt>
      <trkpt lat="45.49436" lon="3.43445">
        <ele>757.4</ele>
      </trkpt>
      <trkpt lat="45.49445" lon="3.4343">
        <ele>756.7</ele>
      </trkpt>
      <trkpt lat="45.49454" lon="3.43419">
        <ele>756.3</ele>
      </trkpt>
      <trkpt lat="45.49461" lon="3.4341">
        <ele>756.1</ele>
      </trkpt>
      <trkpt lat="45.49468" lon="3.43403">
        <ele>756</ele>
      </trkpt>
      <trkpt lat="45.49482" lon="3.43389">
        <ele>755.9</ele>
      </trkpt>
      <trkpt lat="45.49497" lon="3.43373">
        <ele>755.6</ele>
      </trkpt>
      <trkpt lat="45.49497" lon="3.43373">
        <ele>755.6</ele>
      </trkpt>
      <trkpt lat="45.49512" lon="3.43358">
        <ele>755.5</ele>
      </trkpt>
      <trkpt lat="45.49527" lon="3.43343">
        <ele>755.5</ele>
      </trkpt>
      <trkpt lat="45.49541" lon="3.43329">
        <ele>756</ele>
      </trkpt>
      <trkpt lat="45.49551" lon="3.4332">
        <ele>756.9</ele>
      </trkpt>
      <trkpt lat="45.4956" lon="3.4331">
        <ele>757.9</ele>
      </trkpt>
      <trkpt lat="45.49569" lon="3.43301">
        <ele>758.8</ele>
      </trkpt>
      <trkpt lat="45.49575" lon="3.43293">
        <ele>759.5</ele>
      </trkpt>
      <trkpt lat="45.4958" lon="3.43284">
        <ele>760.3</ele>
      </trkpt>
      <trkpt lat="45.49585" lon="3.43278">
        <ele>760.8</ele>
      </trkpt>
      <trkpt lat="45.4959" lon="3.4327">
        <ele>761.4</ele>
      </trkpt>
      <trkpt lat="45.49592" lon="3.43265">
        <ele>761.7</ele>
      </trkpt>
      <trkpt lat="45.49593" lon="3.43263">
        <ele>761.8</ele>
      </trkpt>
      <trkpt lat="45.49592" lon="3.43265">
        <ele>761.7</ele>
      </trkpt>
      <trkpt lat="45.4959" lon="3.4327">
        <ele>761.4</ele>
      </trkpt>
      <trkpt lat="45.49585" lon="3.43278">
        <ele>760.8</ele>
      </trkpt>
      <trkpt lat="45.4958" lon="3.43284">
        <ele>760.3</ele>
      </trkpt>
      <trkpt lat="45.49575" lon="3.43293">
        <ele>759.5</ele>
      </trkpt>
      <trkpt lat="45.49569" lon="3.43301">
        <ele>758.8</ele>
      </trkpt>
      <trkpt lat="45.4956" lon="3.4331">
        <ele>757.9</ele>
      </trkpt>
      <trkpt lat="45.49551" lon="3.4332">
        <ele>756.9</ele>
      </trkpt>
      <trkpt lat="45.49541" lon="3.43329">
        <ele>756</ele>
      </trkpt>
      <trkpt lat="45.49527" lon="3.43343">
        <ele>755.5</ele>
      </trkpt>
      <trkpt lat="45.49512" lon="3.43358">
        <ele>755.5</ele>
      </trkpt>
      <trkpt lat="45.49497" lon="3.43373">
        <ele>755.6</ele>
      </trkpt>
      <trkpt lat="45.49482" lon="3.43389">
        <ele>755.9</ele>
      </trkpt>
      <trkpt lat="45.49468" lon="3.43403">
        <ele>756</ele>
      </trkpt>
      <trkpt lat="45.49461" lon="3.4341">
        <ele>756.1</ele>
      </trkpt>
      <trkpt lat="45.49454" lon="3.43419">
        <ele>756.3</ele>
      </trkpt>
      <trkpt lat="45.49445" lon="3.4343">
        <ele>756.7</ele>
      </trkpt>
      <trkpt lat="45.49436" lon="3.43445">
        <ele>757.4</ele>
      </trkpt>
      <trkpt lat="45.49425" lon="3.43462">
        <ele>758.1</ele>
      </trkpt>
      <trkpt lat="45.49418" lon="3.43475">
        <ele>758.7</ele>
      </trkpt>
      <trkpt lat="45.49411" lon="3.43487">
        <ele>759</ele>
      </trkpt>
      <trkpt lat="45.49401" lon="3.43504">
        <ele>759.2</ele>
      </trkpt>
      <trkpt lat="45.49396" lon="3.43514">
        <ele>759.1</ele>
      </trkpt>
      <trkpt lat="45.49392" lon="3.43523">
        <ele>759</ele>
      </trkpt>
      <trkpt lat="45.49389" lon="3.43532">
        <ele>759</ele>
      </trkpt>
      <trkpt lat="45.49386" lon="3.43542">
        <ele>759.1</ele>
      </trkpt>
      <trkpt lat="45.49384" lon="3.43552">
        <ele>759.4</ele>
      </trkpt>
      <trkpt lat="45.49383" lon="3.43561">
        <ele>759.6</ele>
      </trkpt>
      <trkpt lat="45.49382" lon="3.4357">
        <ele>759.9</ele>
      </trkpt>
      <trkpt lat="45.49381" lon="3.43579">
        <ele>760.2</ele>
      </trkpt>
      <trkpt lat="45.49381" lon="3.4359">
        <ele>760.6</ele>
      </trkpt>
      <trkpt lat="45.49382" lon="3.43601">
        <ele>760.8</ele>
      </trkpt>
      <trkpt lat="45.49383" lon="3.43614">
        <ele>761.1</ele>
      </trkpt>
      <trkpt lat="45.49383" lon="3.43614">
        <ele>761.1</ele>
      </trkpt>
      <trkpt lat="45.49383" lon="3.43627">
        <ele>761.3</ele>
      </trkpt>
      <trkpt lat="45.49383" lon="3.43642">
        <ele>761.4</ele>
      </trkpt>
      <trkpt lat="45.49381" lon="3.43665">
        <ele>761.4</ele>
      </trkpt>
      <trkpt lat="45.49379" lon="3.43683">
        <ele>760.7</ele>
      </trkpt>
      <trkpt lat="45.49379" lon="3.43683">
        <ele>760.7</ele>
      </trkpt>
      <trkpt lat="45.49378" lon="3.43694">
        <ele>760.2</ele>
      </trkpt>
      <trkpt lat="45.49377" lon="3.43706">
        <ele>759.9</ele>
      </trkpt>
      <trkpt lat="45.49377" lon="3.43716">
        <ele>759.6</ele>
      </trkpt>
      <trkpt lat="45.49376" lon="3.43729">
        <ele>759.1</ele>
      </trkpt>
      <trkpt lat="45.49374" lon="3.43743">
        <ele>758.6</ele>
      </trkpt>
      <trkpt lat="45.49372" lon="3.43755">
        <ele>758.2</ele>
      </trkpt>
      <trkpt lat="45.49368" lon="3.43772">
        <ele>757.8</ele>
      </trkpt>
      <trkpt lat="45.49361" lon="3.43796">
        <ele>757.1</ele>
      </trkpt>
      <trkpt lat="45.49358" lon="3.43807">
        <ele>756.9</ele>
      </trkpt>
      <trkpt lat="45.49353" lon="3.4382">
        <ele>756.6</ele>
      </trkpt>
      <trkpt lat="45.49349" lon="3.43832">
        <ele>756.3</ele>
      </trkpt>
      <trkpt lat="45.49344" lon="3.43844">
        <ele>756</ele>
      </trkpt>
      <trkpt lat="45.49328" lon="3.43865">
        <ele>754.9</ele>
      </trkpt>
      <trkpt lat="45.49313" lon="3.43884">
        <ele>753.9</ele>
      </trkpt>
      <trkpt lat="45.49302" lon="3.43901">
        <ele>753.2</ele>
      </trkpt>
      <trkpt lat="45.49296" lon="3.43911">
        <ele>752.8</ele>
      </trkpt>
      <trkpt lat="45.49288" lon="3.43924">
        <ele>752.4</ele>
      </trkpt>
      <trkpt lat="45.49281" lon="3.43938">
        <ele>752.3</ele>
      </trkpt>
      <trkpt lat="45.49274" lon="3.43951">
        <ele>752.1</ele>
      </trkpt>
      <trkpt lat="45.49267" lon="3.43966">
        <ele>752.1</ele>
      </trkpt>
      <trkpt lat="45.49261" lon="3.4398">
        <ele>752.1</ele>
      </trkpt>
      <trkpt lat="45.49253" lon="3.43997">
        <ele>752.1</ele>
      </trkpt>
      <trkpt lat="45.49245" lon="3.44013">
        <ele>752.4</ele>
      </trkpt>
      <trkpt lat="45.49233" lon="3.44037">
        <ele>753</ele>
      </trkpt>
      <trkpt lat="45.49223" lon="3.44056">
        <ele>753.3</ele>
      </trkpt>
      <trkpt lat="45.49214" lon="3.44076">
        <ele>753.5</ele>
      </trkpt>
      <trkpt lat="45.49203" lon="3.44095">
        <ele>753.6</ele>
      </trkpt>
      <trkpt lat="45.49198" lon="3.44103">
        <ele>753.5</ele>
      </trkpt>
      <trkpt lat="45.49196" lon="3.44111">
        <ele>753.5</ele>
      </trkpt>
      <trkpt lat="45.49192" lon="3.44108">
        <ele>753.3</ele>
      </trkpt>
      <trkpt lat="45.49182" lon="3.44111">
        <ele>753</ele>
      </trkpt>
      <trkpt lat="45.49175" lon="3.44111">
        <ele>752.7</ele>
      </trkpt>
      <trkpt lat="45.49161" lon="3.44108">
        <ele>753.3</ele>
      </trkpt>
      <trkpt lat="45.49147" lon="3.44107">
        <ele>755.4</ele>
      </trkpt>
      <trkpt lat="45.49133" lon="3.44105">
        <ele>757.6</ele>
      </trkpt>
      <trkpt lat="45.49133" lon="3.44105">
        <ele>757.6</ele>
      </trkpt>
      <trkpt lat="45.49124" lon="3.44108">
        <ele>758.6</ele>
      </trkpt>
      <trkpt lat="45.49122" lon="3.44102">
        <ele>759.6</ele>
      </trkpt>
      <trkpt lat="45.49113" lon="3.44098">
        <ele>761.4</ele>
      </trkpt>
      <trkpt lat="45.49106" lon="3.44097">
        <ele>762.8</ele>
      </trkpt>
      <trkpt lat="45.49093" lon="3.44093">
        <ele>765.5</ele>
      </trkpt>
      <trkpt lat="45.49084" lon="3.44092">
        <ele>767.3</ele>
      </trkpt>
      <trkpt lat="45.49076" lon="3.44091">
        <ele>767.7</ele>
      </trkpt>
      <trkpt lat="45.49066" lon="3.44092">
        <ele>767.8</ele>
      </trkpt>
      <trkpt lat="45.49052" lon="3.44092">
        <ele>768</ele>
      </trkpt>
      <trkpt lat="45.49039" lon="3.44093">
        <ele>768.2</ele>
      </trkpt>
      <trkpt lat="45.49025" lon="3.44094">
        <ele>768.5</ele>
      </trkpt>
      <trkpt lat="45.4901" lon="3.44093">
        <ele>768.9</ele>
      </trkpt>
      <trkpt lat="45.48996" lon="3.44091">
        <ele>769.5</ele>
      </trkpt>
      <trkpt lat="45.48975" lon="3.44088">
        <ele>770.8</ele>
      </trkpt>
      <trkpt lat="45.4896" lon="3.44085">
        <ele>771.8</ele>
      </trkpt>
      <trkpt lat="45.48949" lon="3.44085">
        <ele>772.4</ele>
      </trkpt>
      <trkpt lat="45.48939" lon="3.44085">
        <ele>772.8</ele>
      </trkpt>
      <trkpt lat="45.48922" lon="3.44088">
        <ele>773.5</ele>
      </trkpt>
      <trkpt lat="45.48912" lon="3.44089">
        <ele>773.8</ele>
      </trkpt>
      <trkpt lat="45.48906" lon="3.4409">
        <ele>774</ele>
      </trkpt>
      <trkpt lat="45.48899" lon="3.4409">
        <ele>774.2</ele>
      </trkpt>
      <trkpt lat="45.48892" lon="3.4409">
        <ele>774.5</ele>
      </trkpt>
      <trkpt lat="45.48881" lon="3.44089">
        <ele>774.9</ele>
      </trkpt>
      <trkpt lat="45.48869" lon="3.44089">
        <ele>775.3</ele>
      </trkpt>
      <trkpt lat="45.48857" lon="3.44089">
        <ele>775.7</ele>
      </trkpt>
      <trkpt lat="45.48838" lon="3.44089">
        <ele>776.4</ele>
      </trkpt>
      <trkpt lat="45.48823" lon="3.44089">
        <ele>777</ele>
      </trkpt>
      <trkpt lat="45.48808" lon="3.44088">
        <ele>777.6</ele>
      </trkpt>
      <trkpt lat="45.48796" lon="3.44089">
        <ele>778</ele>
      </trkpt>
      <trkpt lat="45.48788" lon="3.4409">
        <ele>778.2</ele>
      </trkpt>
      <trkpt lat="45.48772" lon="3.44093">
        <ele>778.6</ele>
      </trkpt>
      <trkpt lat="45.4875" lon="3.44096">
        <ele>779.2</ele>
      </trkpt>
      <trkpt lat="45.48737" lon="3.44098">
        <ele>779.9</ele>
      </trkpt>
      <trkpt lat="45.48724" lon="3.44101">
        <ele>780.7</ele>
      </trkpt>
      <trkpt lat="45.48705" lon="3.44104">
        <ele>781.7</ele>
      </trkpt>
      <trkpt lat="45.48695" lon="3.44106">
        <ele>782.3</ele>
      </trkpt>
      <trkpt lat="45.48685" lon="3.44106">
        <ele>782.9</ele>
      </trkpt>
      <trkpt lat="45.48677" lon="3.44105">
        <ele>783.6</ele>
      </trkpt>
      <trkpt lat="45.48677" lon="3.44105">
        <ele>783.6</ele>
      </trkpt>
      <trkpt lat="45.48667" lon="3.44107">
        <ele>784.1</ele>
      </trkpt>
      <trkpt lat="45.48658" lon="3.44099">
        <ele>784.8</ele>
      </trkpt>
      <trkpt lat="45.48645" lon="3.4409">
        <ele>785.6</ele>
      </trkpt>
      <trkpt lat="45.48632" lon="3.4408">
        <ele>786.1</ele>
      </trkpt>
      <trkpt lat="45.48628" lon="3.44077">
        <ele>786.2</ele>
      </trkpt>
      <trkpt lat="45.48622" lon="3.44075">
        <ele>786.4</ele>
      </trkpt>
      <trkpt lat="45.48619" lon="3.44066">
        <ele>786.2</ele>
      </trkpt>
      <trkpt lat="45.48615" lon="3.44061">
        <ele>786.2</ele>
      </trkpt>
      <trkpt lat="45.48611" lon="3.44057">
        <ele>786.2</ele>
      </trkpt>
      <trkpt lat="45.48604" lon="3.4405">
        <ele>786.1</ele>
      </trkpt>
      <trkpt lat="45.48591" lon="3.44033">
        <ele>786</ele>
      </trkpt>
      <trkpt lat="45.48578" lon="3.44016">
        <ele>785.9</ele>
      </trkpt>
      <trkpt lat="45.48569" lon="3.44005">
        <ele>786.1</ele>
      </trkpt>
      <trkpt lat="45.48562" lon="3.44">
        <ele>786.2</ele>
      </trkpt>
      <trkpt lat="45.48557" lon="3.43998">
        <ele>786.4</ele>
      </trkpt>
      <trkpt lat="45.48557" lon="3.43984">
        <ele>785.4</ele>
      </trkpt>
      <trkpt lat="45.48557" lon="3.43976">
        <ele>784.7</ele>
      </trkpt>
      <trkpt lat="45.48555" lon="3.43967">
        <ele>784.2</ele>
      </trkpt>
      <trkpt lat="45.48553" lon="3.43958">
        <ele>783.7</ele>
      </trkpt>
      <trkpt lat="45.48547" lon="3.4394">
        <ele>783</ele>
      </trkpt>
      <trkpt lat="45.48538" lon="3.4392">
        <ele>782.7</ele>
      </trkpt>
      <trkpt lat="45.48533" lon="3.43897">
        <ele>781.5</ele>
      </trkpt>
      <trkpt lat="45.48527" lon="3.43875">
        <ele>780.4</ele>
      </trkpt>
      <trkpt lat="45.4852" lon="3.43849">
        <ele>779.3</ele>
      </trkpt>
      <trkpt lat="45.48513" lon="3.43829">
        <ele>778.5</ele>
      </trkpt>
      <trkpt lat="45.48506" lon="3.43809">
        <ele>776.7</ele>
      </trkpt>
      <trkpt lat="45.48491" lon="3.43788">
        <ele>775.9</ele>
      </trkpt>
      <trkpt lat="45.48476" lon="3.43766">
        <ele>775.8</ele>
      </trkpt>
      <trkpt lat="45.48462" lon="3.43745">
        <ele>775.9</ele>
      </trkpt>
      <trkpt lat="45.48452" lon="3.43728">
        <ele>774.5</ele>
      </trkpt>
      <trkpt lat="45.48442" lon="3.4371">
        <ele>773</ele>
      </trkpt>
      <trkpt lat="45.4843" lon="3.43693">
        <ele>772</ele>
      </trkpt>
      <trkpt lat="45.48417" lon="3.43677">
        <ele>771</ele>
      </trkpt>
      <trkpt lat="45.48405" lon="3.4366">
        <ele>769.9</ele>
      </trkpt>
      <trkpt lat="45.48393" lon="3.43644">
        <ele>769.4</ele>
      </trkpt>
      <trkpt lat="45.48375" lon="3.43628">
        <ele>769.1</ele>
      </trkpt>
      <trkpt lat="45.48375" lon="3.43628">
        <ele>769.1</ele>
      </trkpt>
      <trkpt lat="45.48356" lon="3.43613">
        <ele>768.2</ele>
      </trkpt>
      <trkpt lat="45.4834" lon="3.43601">
        <ele>767.2</ele>
      </trkpt>
      <trkpt lat="45.48324" lon="3.43589">
        <ele>764.3</ele>
      </trkpt>
      <trkpt lat="45.48307" lon="3.43577">
        <ele>760.8</ele>
      </trkpt>
      <trkpt lat="45.48292" lon="3.43573">
        <ele>759</ele>
      </trkpt>
      <trkpt lat="45.48276" lon="3.43575">
        <ele>757.9</ele>
      </trkpt>
      <trkpt lat="45.48255" lon="3.43575">
        <ele>756.1</ele>
      </trkpt>
      <trkpt lat="45.48235" lon="3.43575">
        <ele>755.9</ele>
      </trkpt>
      <trkpt lat="45.48221" lon="3.43576">
        <ele>756.1</ele>
      </trkpt>
      <trkpt lat="45.48208" lon="3.43577">
        <ele>756.3</ele>
      </trkpt>
      <trkpt lat="45.48202" lon="3.4357">
        <ele>756.3</ele>
      </trkpt>
      <trkpt lat="45.482" lon="3.43558">
        <ele>756.1</ele>
      </trkpt>
      <trkpt lat="45.48202" lon="3.43539">
        <ele>755.6</ele>
      </trkpt>
      <trkpt lat="45.48207" lon="3.43518">
        <ele>755</ele>
      </trkpt>
      <trkpt lat="45.48213" lon="3.43498">
        <ele>754.4</ele>
      </trkpt>
      <trkpt lat="45.48219" lon="3.43477">
        <ele>755.3</ele>
      </trkpt>
      <trkpt lat="45.48202" lon="3.4347">
        <ele>756.1</ele>
      </trkpt>
      <trkpt lat="45.48186" lon="3.43463">
        <ele>756.8</ele>
      </trkpt>
      <trkpt lat="45.48179" lon="3.43455">
        <ele>757.3</ele>
      </trkpt>
      <trkpt lat="45.48178" lon="3.43442">
        <ele>757.9</ele>
      </trkpt>
      <trkpt lat="45.48182" lon="3.43428">
        <ele>758.4</ele>
      </trkpt>
      <trkpt lat="45.48192" lon="3.43406">
        <ele>759.3</ele>
      </trkpt>
      <trkpt lat="45.48204" lon="3.43381">
        <ele>760.4</ele>
      </trkpt>
      <trkpt lat="45.48214" lon="3.43359">
        <ele>761</ele>
      </trkpt>
      <trkpt lat="45.48222" lon="3.43341">
        <ele>761.4</ele>
      </trkpt>
      <trkpt lat="45.48227" lon="3.43323">
        <ele>762.6</ele>
      </trkpt>
      <trkpt lat="45.48228" lon="3.43309">
        <ele>764</ele>
      </trkpt>
      <trkpt lat="45.48227" lon="3.4329">
        <ele>766.2</ele>
      </trkpt>
      <trkpt lat="45.48224" lon="3.43266">
        <ele>769</ele>
      </trkpt>
      <trkpt lat="45.48221" lon="3.43243">
        <ele>771.4</ele>
      </trkpt>
      <trkpt lat="45.48215" lon="3.43231">
        <ele>772.5</ele>
      </trkpt>
      <trkpt lat="45.48215" lon="3.43231">
        <ele>772.5</ele>
      </trkpt>
      <trkpt lat="45.48207" lon="3.43219">
        <ele>773.8</ele>
      </trkpt>
      <trkpt lat="45.48192" lon="3.43225">
        <ele>775.2</ele>
      </trkpt>
      <trkpt lat="45.48177" lon="3.43231">
        <ele>776.6</ele>
      </trkpt>
      <trkpt lat="45.48162" lon="3.43237">
        <ele>778</ele>
      </trkpt>
      <trkpt lat="45.48157" lon="3.43236">
        <ele>778.7</ele>
      </trkpt>
      <trkpt lat="45.48151" lon="3.4323">
        <ele>779.4</ele>
      </trkpt>
      <trkpt lat="45.48146" lon="3.43224">
        <ele>780.1</ele>
      </trkpt>
      <trkpt lat="45.48139" lon="3.43217">
        <ele>781</ele>
      </trkpt>
      <trkpt lat="45.4813" lon="3.43211">
        <ele>781.8</ele>
      </trkpt>
      <trkpt lat="45.48126" lon="3.43225">
        <ele>782.3</ele>
      </trkpt>
      <trkpt lat="45.48123" lon="3.43234">
        <ele>782.7</ele>
      </trkpt>
      <trkpt lat="45.48118" lon="3.43243">
        <ele>783.3</ele>
      </trkpt>
      <trkpt lat="45.48114" lon="3.43251">
        <ele>783.7</ele>
      </trkpt>
      <trkpt lat="45.48109" lon="3.4326">
        <ele>783.2</ele>
      </trkpt>
      <trkpt lat="45.48104" lon="3.43269">
        <ele>782.8</ele>
      </trkpt>
      <trkpt lat="45.48094" lon="3.43282">
        <ele>782.3</ele>
      </trkpt>
      <trkpt lat="45.48087" lon="3.43291">
        <ele>782</ele>
      </trkpt>
      <trkpt lat="45.48077" lon="3.43303">
        <ele>781.9</ele>
      </trkpt>
      <trkpt lat="45.48066" lon="3.43315">
        <ele>782.1</ele>
      </trkpt>
      <trkpt lat="45.48051" lon="3.4333">
        <ele>783.1</ele>
      </trkpt>
      <trkpt lat="45.48037" lon="3.43345">
        <ele>783.4</ele>
      </trkpt>
      <trkpt lat="45.48022" lon="3.4336">
        <ele>783.4</ele>
      </trkpt>
      <trkpt lat="45.48008" lon="3.43374">
        <ele>783.3</ele>
      </trkpt>
      <trkpt lat="45.47992" lon="3.43391">
        <ele>782.5</ele>
      </trkpt>
      <trkpt lat="45.47977" lon="3.43407">
        <ele>781.8</ele>
      </trkpt>
      <trkpt lat="45.47961" lon="3.43423">
        <ele>781.9</ele>
      </trkpt>
      <trkpt lat="45.47946" lon="3.43438">
        <ele>782.3</ele>
      </trkpt>
      <trkpt lat="45.47932" lon="3.43451">
        <ele>782.7</ele>
      </trkpt>
      <trkpt lat="45.47922" lon="3.43461">
        <ele>783</ele>
      </trkpt>
      <trkpt lat="45.47906" lon="3.43473">
        <ele>782.5</ele>
      </trkpt>
      <trkpt lat="45.47891" lon="3.43485">
        <ele>781.6</ele>
      </trkpt>
      <trkpt lat="45.47877" lon="3.43496">
        <ele>780.9</ele>
      </trkpt>
      <trkpt lat="45.47862" lon="3.43506">
        <ele>780.3</ele>
      </trkpt>
      <trkpt lat="45.47848" lon="3.43517">
        <ele>779.5</ele>
      </trkpt>
      <trkpt lat="45.47829" lon="3.43531">
        <ele>778.7</ele>
      </trkpt>
      <trkpt lat="45.47829" lon="3.43531">
        <ele>778.7</ele>
      </trkpt>
      <trkpt lat="45.4781" lon="3.43545">
        <ele>778.7</ele>
      </trkpt>
      <trkpt lat="45.47795" lon="3.43556">
        <ele>778.9</ele>
      </trkpt>
      <trkpt lat="45.47786" lon="3.43564">
        <ele>779</ele>
      </trkpt>
      <trkpt lat="45.47778" lon="3.43571">
        <ele>779.1</ele>
      </trkpt>
      <trkpt lat="45.47771" lon="3.4358">
        <ele>779.1</ele>
      </trkpt>
      <trkpt lat="45.47765" lon="3.43587">
        <ele>779</ele>
      </trkpt>
      <trkpt lat="45.47758" lon="3.43596">
        <ele>778.9</ele>
      </trkpt>
      <trkpt lat="45.47752" lon="3.43605">
        <ele>778.7</ele>
      </trkpt>
      <trkpt lat="45.47743" lon="3.43622">
        <ele>778</ele>
      </trkpt>
      <trkpt lat="45.47737" lon="3.43635">
        <ele>777.5</ele>
      </trkpt>
      <trkpt lat="45.4773" lon="3.43651">
        <ele>777.1</ele>
      </trkpt>
      <trkpt lat="45.47724" lon="3.43665">
        <ele>776.8</ele>
      </trkpt>
      <trkpt lat="45.47713" lon="3.43692">
        <ele>777.3</ele>
      </trkpt>
      <trkpt lat="45.47706" lon="3.43708">
        <ele>777.9</ele>
      </trkpt>
      <trkpt lat="45.47699" lon="3.43724">
        <ele>778.6</ele>
      </trkpt>
      <trkpt lat="45.47693" lon="3.4374">
        <ele>779.2</ele>
      </trkpt>
      <trkpt lat="45.4769" lon="3.43751">
        <ele>779.6</ele>
      </trkpt>
      <trkpt lat="45.47682" lon="3.43778">
        <ele>781</ele>
      </trkpt>
      <trkpt lat="45.47674" lon="3.43769">
        <ele>782.5</ele>
      </trkpt>
      <trkpt lat="45.47672" lon="3.43763">
        <ele>783</ele>
      </trkpt>
      <trkpt lat="45.4767" lon="3.43753">
        <ele>783.3</ele>
      </trkpt>
      <trkpt lat="45.47671" lon="3.43745">
        <ele>783.2</ele>
      </trkpt>
      <trkpt lat="45.47672" lon="3.4373">
        <ele>783.2</ele>
      </trkpt>
      <trkpt lat="45.47672" lon="3.43714">
        <ele>783.5</ele>
      </trkpt>
      <trkpt lat="45.47671" lon="3.43699">
        <ele>783.9</ele>
      </trkpt>
      <trkpt lat="45.47668" lon="3.43691">
        <ele>784.4</ele>
      </trkpt>
      <trkpt lat="45.47665" lon="3.43684">
        <ele>784.9</ele>
      </trkpt>
      <trkpt lat="45.47659" lon="3.43674">
        <ele>785.4</ele>
      </trkpt>
      <trkpt lat="45.47651" lon="3.43663">
        <ele>786</ele>
      </trkpt>
      <trkpt lat="45.47642" lon="3.43652">
        <ele>786.6</ele>
      </trkpt>
      <trkpt lat="45.47633" lon="3.4364">
        <ele>787.2</ele>
      </trkpt>
      <trkpt lat="45.47623" lon="3.43627">
        <ele>787.9</ele>
      </trkpt>
      <trkpt lat="45.47613" lon="3.43614">
        <ele>788.5</ele>
      </trkpt>
      <trkpt lat="45.47598" lon="3.43594">
        <ele>789.3</ele>
      </trkpt>
      <trkpt lat="45.47593" lon="3.43619">
        <ele>789.5</ele>
      </trkpt>
      <trkpt lat="45.47588" lon="3.43628">
        <ele>789.7</ele>
      </trkpt>
      <trkpt lat="45.47588" lon="3.43638">
        <ele>789.7</ele>
      </trkpt>
      <trkpt lat="45.47583" lon="3.43664">
        <ele>790</ele>
      </trkpt>
      <trkpt lat="45.47577" lon="3.43691">
        <ele>790.4</ele>
      </trkpt>
      <trkpt lat="45.47577" lon="3.43691">
        <ele>790.4</ele>
      </trkpt>
      <trkpt lat="45.47572" lon="3.43719">
        <ele>791</ele>
      </trkpt>
      <trkpt lat="45.47566" lon="3.43747">
        <ele>791.7</ele>
      </trkpt>
      <trkpt lat="45.47561" lon="3.43775">
        <ele>793.7</ele>
      </trkpt>
      <trkpt lat="45.47555" lon="3.43802">
        <ele>795.9</ele>
      </trkpt>
      <trkpt lat="45.4755" lon="3.4383">
        <ele>798.2</ele>
      </trkpt>
      <trkpt lat="45.47546" lon="3.43853">
        <ele>800.8</ele>
      </trkpt>
      <trkpt lat="45.47543" lon="3.43875">
        <ele>803.5</ele>
      </trkpt>
      <trkpt lat="45.4754" lon="3.43891">
        <ele>805.3</ele>
      </trkpt>
      <trkpt lat="45.47537" lon="3.43907">
        <ele>807.1</ele>
      </trkpt>
      <trkpt lat="45.47532" lon="3.43923">
        <ele>808.9</ele>
      </trkpt>
      <trkpt lat="45.47524" lon="3.43943">
        <ele>811.1</ele>
      </trkpt>
      <trkpt lat="45.47518" lon="3.43961">
        <ele>813</ele>
      </trkpt>
      <trkpt lat="45.47513" lon="3.43978">
        <ele>814.8</ele>
      </trkpt>
      <trkpt lat="45.47505" lon="3.44004">
        <ele>817.2</ele>
      </trkpt>
      <trkpt lat="45.47497" lon="3.44029">
        <ele>818.4</ele>
      </trkpt>
      <trkpt lat="45.47492" lon="3.44045">
        <ele>819.3</ele>
      </trkpt>
      <trkpt lat="45.47487" lon="3.44061">
        <ele>820.3</ele>
      </trkpt>
      <trkpt lat="45.47479" lon="3.44081">
        <ele>821.6</ele>
      </trkpt>
      <trkpt lat="45.47466" lon="3.44093">
        <ele>822.1</ele>
      </trkpt>
      <trkpt lat="45.47459" lon="3.44099">
        <ele>822.3</ele>
      </trkpt>
      <trkpt lat="45.47447" lon="3.44103">
        <ele>822.8</ele>
      </trkpt>
      <trkpt lat="45.47436" lon="3.44107">
        <ele>823.3</ele>
      </trkpt>
      <trkpt lat="45.47416" lon="3.44114">
        <ele>824.3</ele>
      </trkpt>
      <trkpt lat="45.47406" lon="3.44122">
        <ele>823.8</ele>
      </trkpt>
      <trkpt lat="45.47388" lon="3.44142">
        <ele>823.5</ele>
      </trkpt>
      <trkpt lat="45.47377" lon="3.44157">
        <ele>823.6</ele>
      </trkpt>
      <trkpt lat="45.47369" lon="3.44166">
        <ele>823.8</ele>
      </trkpt>
      <trkpt lat="45.47361" lon="3.44174">
        <ele>824.3</ele>
      </trkpt>
      <trkpt lat="45.47356" lon="3.44177">
        <ele>824.6</ele>
      </trkpt>
      <trkpt lat="45.47351" lon="3.4418">
        <ele>825</ele>
      </trkpt>
      <trkpt lat="45.47344" lon="3.44181">
        <ele>825.3</ele>
      </trkpt>
      <trkpt lat="45.47337" lon="3.44182">
        <ele>825.5</ele>
      </trkpt>
      <trkpt lat="45.47324" lon="3.44182">
        <ele>825</ele>
      </trkpt>
      <trkpt lat="45.47324" lon="3.44182">
        <ele>825</ele>
      </trkpt>
      <trkpt lat="45.47311" lon="3.44182">
        <ele>824.3</ele>
      </trkpt>
      <trkpt lat="45.47298" lon="3.44182">
        <ele>823.5</ele>
      </trkpt>
      <trkpt lat="45.47286" lon="3.44182">
        <ele>822.9</ele>
      </trkpt>
      <trkpt lat="45.47274" lon="3.44182">
        <ele>822.1</ele>
      </trkpt>
      <trkpt lat="45.4726" lon="3.44185">
        <ele>822.2</ele>
      </trkpt>
      <trkpt lat="45.47243" lon="3.44196">
        <ele>822.9</ele>
      </trkpt>
      <trkpt lat="45.4723" lon="3.44208">
        <ele>822.9</ele>
      </trkpt>
      <trkpt lat="45.47215" lon="3.44229">
        <ele>824.1</ele>
      </trkpt>
      <trkpt lat="45.47199" lon="3.44251">
        <ele>824.1</ele>
      </trkpt>
      <trkpt lat="45.47189" lon="3.44261">
        <ele>822.8</ele>
      </trkpt>
      <trkpt lat="45.47179" lon="3.44271">
        <ele>821.4</ele>
      </trkpt>
      <trkpt lat="45.47166" lon="3.4428">
        <ele>819.3</ele>
      </trkpt>
      <trkpt lat="45.47154" lon="3.4429">
        <ele>817.2</ele>
      </trkpt>
      <trkpt lat="45.47148" lon="3.44295">
        <ele>816.2</ele>
      </trkpt>
      <trkpt lat="45.47143" lon="3.44302">
        <ele>815.5</ele>
      </trkpt>
      <trkpt lat="45.47138" lon="3.44313">
        <ele>815.6</ele>
      </trkpt>
      <trkpt lat="45.47137" lon="3.4432">
        <ele>815.8</ele>
      </trkpt>
      <trkpt lat="45.47136" lon="3.44326">
        <ele>816.2</ele>
      </trkpt>
      <trkpt lat="45.47135" lon="3.44336">
        <ele>816.9</ele>
      </trkpt>
      <trkpt lat="45.47137" lon="3.44352">
        <ele>817.7</ele>
      </trkpt>
      <trkpt lat="45.47141" lon="3.44384">
        <ele>819.2</ele>
      </trkpt>
      <trkpt lat="45.47141" lon="3.44404">
        <ele>819.5</ele>
      </trkpt>
      <trkpt lat="45.47141" lon="3.44413">
        <ele>819.5</ele>
      </trkpt>
      <trkpt lat="45.4714" lon="3.44421">
        <ele>819.3</ele>
      </trkpt>
      <trkpt lat="45.47137" lon="3.44435">
        <ele>818.6</ele>
      </trkpt>
      <trkpt lat="45.47134" lon="3.44455">
        <ele>817.6</ele>
      </trkpt>
      <trkpt lat="45.47127" lon="3.44484">
        <ele>816.1</ele>
      </trkpt>
      <trkpt lat="45.47123" lon="3.44497">
        <ele>815.5</ele>
      </trkpt>
      <trkpt lat="45.47117" lon="3.44516">
        <ele>815.1</ele>
      </trkpt>
      <trkpt lat="45.47114" lon="3.44526">
        <ele>815.1</ele>
      </trkpt>
      <trkpt lat="45.47109" lon="3.44536">
        <ele>814.9</ele>
      </trkpt>
      <trkpt lat="45.47097" lon="3.44561">
        <ele>814.4</ele>
      </trkpt>
      <trkpt lat="45.47087" lon="3.44579">
        <ele>814.2</ele>
      </trkpt>
      <trkpt lat="45.47077" lon="3.44598">
        <ele>813.3</ele>
      </trkpt>
      <trkpt lat="45.47071" lon="3.44607">
        <ele>812.7</ele>
      </trkpt>
      <trkpt lat="45.47068" lon="3.44615">
        <ele>812.3</ele>
      </trkpt>
      <trkpt lat="45.47063" lon="3.44624">
        <ele>811.9</ele>
      </trkpt>
      <trkpt lat="45.47058" lon="3.44638">
        <ele>811.6</ele>
      </trkpt>
      <trkpt lat="45.47058" lon="3.44638">
        <ele>811.6</ele>
      </trkpt>
      <trkpt lat="45.47052" lon="3.44657">
        <ele>811.4</ele>
      </trkpt>
      <trkpt lat="45.47049" lon="3.44668">
        <ele>811.3</ele>
      </trkpt>
      <trkpt lat="45.47046" lon="3.4468">
        <ele>811.4</ele>
      </trkpt>
      <trkpt lat="45.47044" lon="3.44691">
        <ele>811.6</ele>
      </trkpt>
      <trkpt lat="45.47043" lon="3.44699">
        <ele>811.8</ele>
      </trkpt>
      <trkpt lat="45.47042" lon="3.44711">
        <ele>812.2</ele>
      </trkpt>
      <trkpt lat="45.4704" lon="3.44733">
        <ele>813.2</ele>
      </trkpt>
      <trkpt lat="45.47039" lon="3.44759">
        <ele>813.8</ele>
      </trkpt>
      <trkpt lat="45.47038" lon="3.44784">
        <ele>813</ele>
      </trkpt>
      <trkpt lat="45.47038" lon="3.44784">
        <ele>813</ele>
      </trkpt>
      <trkpt lat="45.47035" lon="3.44802">
        <ele>812.2</ele>
      </trkpt>
      <trkpt lat="45.47037" lon="3.44807">
        <ele>812.3</ele>
      </trkpt>
      <trkpt lat="45.47036" lon="3.44819">
        <ele>812</ele>
      </trkpt>
      <trkpt lat="45.47031" lon="3.44824">
        <ele>811.4</ele>
      </trkpt>
      <trkpt lat="45.47034" lon="3.4484">
        <ele>811.4</ele>
      </trkpt>
      <trkpt lat="45.47037" lon="3.44856">
        <ele>811.6</ele>
      </trkpt>
      <trkpt lat="45.47039" lon="3.44865">
        <ele>811.6</ele>
      </trkpt>
      <trkpt lat="45.47046" lon="3.44881">
        <ele>811.4</ele>
      </trkpt>
      <trkpt lat="45.47051" lon="3.4489">
        <ele>811.2</ele>
      </trkpt>
      <trkpt lat="45.47057" lon="3.44902">
        <ele>810.8</ele>
      </trkpt>
      <trkpt lat="45.47062" lon="3.44911">
        <ele>810.2</ele>
      </trkpt>
      <trkpt lat="45.47072" lon="3.44929">
        <ele>809.7</ele>
      </trkpt>
      <trkpt lat="45.47079" lon="3.44944">
        <ele>809.3</ele>
      </trkpt>
      <trkpt lat="45.47085" lon="3.44958">
        <ele>809</ele>
      </trkpt>
      <trkpt lat="45.47089" lon="3.44967">
        <ele>808.9</ele>
      </trkpt>
      <trkpt lat="45.47098" lon="3.44991">
        <ele>808.7</ele>
      </trkpt>
      <trkpt lat="45.47107" lon="3.45012">
        <ele>808.7</ele>
      </trkpt>
      <trkpt lat="45.47111" lon="3.45023">
        <ele>808.8</ele>
      </trkpt>
      <trkpt lat="45.47113" lon="3.45031">
        <ele>808.9</ele>
      </trkpt>
      <trkpt lat="45.47116" lon="3.4504">
        <ele>809</ele>
      </trkpt>
      <trkpt lat="45.47118" lon="3.45048">
        <ele>809.1</ele>
      </trkpt>
      <trkpt lat="45.47119" lon="3.45059">
        <ele>809.2</ele>
      </trkpt>
      <trkpt lat="45.47121" lon="3.45075">
        <ele>809.5</ele>
      </trkpt>
      <trkpt lat="45.47123" lon="3.45086">
        <ele>809.6</ele>
      </trkpt>
      <trkpt lat="45.47126" lon="3.45094">
        <ele>809.7</ele>
      </trkpt>
      <trkpt lat="45.47131" lon="3.45103">
        <ele>809.7</ele>
      </trkpt>
      <trkpt lat="45.47135" lon="3.45109">
        <ele>809.7</ele>
      </trkpt>
      <trkpt lat="45.4714" lon="3.45112">
        <ele>809.7</ele>
      </trkpt>
      <trkpt lat="45.47144" lon="3.45115">
        <ele>809.6</ele>
      </trkpt>
      <trkpt lat="45.47152" lon="3.45118">
        <ele>809.5</ele>
      </trkpt>
      <trkpt lat="45.47166" lon="3.45119">
        <ele>809.3</ele>
      </trkpt>
      <trkpt lat="45.4718" lon="3.4512">
        <ele>810.1</ele>
      </trkpt>
      <trkpt lat="45.47193" lon="3.45122">
        <ele>810.9</ele>
      </trkpt>
      <trkpt lat="45.47199" lon="3.45123">
        <ele>811.3</ele>
      </trkpt>
      <trkpt lat="45.47211" lon="3.45124">
        <ele>812.1</ele>
      </trkpt>
      <trkpt lat="45.47222" lon="3.45124">
        <ele>812.8</ele>
      </trkpt>
      <trkpt lat="45.47241" lon="3.45126">
        <ele>814</ele>
      </trkpt>
      <trkpt lat="45.47241" lon="3.45126">
        <ele>814</ele>
      </trkpt>
      <trkpt lat="45.47253" lon="3.45128">
        <ele>814.6</ele>
      </trkpt>
      <trkpt lat="45.47262" lon="3.45129">
        <ele>814.7</ele>
      </trkpt>
      <trkpt lat="45.47272" lon="3.45131">
        <ele>814.7</ele>
      </trkpt>
      <trkpt lat="45.47283" lon="3.45134">
        <ele>814.8</ele>
      </trkpt>
      <trkpt lat="45.47296" lon="3.45138">
        <ele>814.9</ele>
      </trkpt>
      <trkpt lat="45.47306" lon="3.45141">
        <ele>815</ele>
      </trkpt>
      <trkpt lat="45.47314" lon="3.45145">
        <ele>815.1</ele>
      </trkpt>
      <trkpt lat="45.47331" lon="3.45151">
        <ele>815.3</ele>
      </trkpt>
      <trkpt lat="45.47336" lon="3.45154">
        <ele>815.3</ele>
      </trkpt>
      <trkpt lat="45.47354" lon="3.45162">
        <ele>815.5</ele>
      </trkpt>
      <trkpt lat="45.47365" lon="3.45166">
        <ele>815.6</ele>
      </trkpt>
      <trkpt lat="45.47376" lon="3.4517">
        <ele>815.6</ele>
      </trkpt>
      <trkpt lat="45.4739" lon="3.45175">
        <ele>815.7</ele>
      </trkpt>
      <trkpt lat="45.47394" lon="3.45176">
        <ele>815.7</ele>
      </trkpt>
      <trkpt lat="45.47404" lon="3.45173">
        <ele>815.4</ele>
      </trkpt>
      <trkpt lat="45.47405" lon="3.45187">
        <ele>815.9</ele>
      </trkpt>
      <trkpt lat="45.47407" lon="3.45206">
        <ele>816.6</ele>
      </trkpt>
      <trkpt lat="45.47411" lon="3.4523">
        <ele>817.4</ele>
      </trkpt>
      <trkpt lat="45.47414" lon="3.45253">
        <ele>818.2</ele>
      </trkpt>
      <trkpt lat="45.47414" lon="3.45271">
        <ele>818.6</ele>
      </trkpt>
      <trkpt lat="45.47412" lon="3.45284">
        <ele>819</ele>
      </trkpt>
      <trkpt lat="45.47409" lon="3.45304">
        <ele>819.7</ele>
      </trkpt>
      <trkpt lat="45.47406" lon="3.45331">
        <ele>820.6</ele>
      </trkpt>
      <trkpt lat="45.47402" lon="3.45362">
        <ele>821.7</ele>
      </trkpt>
      <trkpt lat="45.474" lon="3.45377">
        <ele>822.2</ele>
      </trkpt>
      <trkpt lat="45.474" lon="3.45391">
        <ele>822.7</ele>
      </trkpt>
      <trkpt lat="45.47401" lon="3.45403">
        <ele>822.9</ele>
      </trkpt>
      <trkpt lat="45.47405" lon="3.4542">
        <ele>823.2</ele>
      </trkpt>
      <trkpt lat="45.47414" lon="3.45444">
        <ele>824.2</ele>
      </trkpt>
      <trkpt lat="45.47419" lon="3.45461">
        <ele>825.1</ele>
      </trkpt>
      <trkpt lat="45.47425" lon="3.45479">
        <ele>826.3</ele>
      </trkpt>
      <trkpt lat="45.47425" lon="3.45479">
        <ele>826.3</ele>
      </trkpt>
      <trkpt lat="45.47429" lon="3.45493">
        <ele>827.2</ele>
      </trkpt>
      <trkpt lat="45.47431" lon="3.45505">
        <ele>828</ele>
      </trkpt>
      <trkpt lat="45.47432" lon="3.45518">
        <ele>828.8</ele>
      </trkpt>
      <trkpt lat="45.47432" lon="3.45531">
        <ele>829.7</ele>
      </trkpt>
      <trkpt lat="45.47432" lon="3.45546">
        <ele>830.7</ele>
      </trkpt>
      <trkpt lat="45.47431" lon="3.45562">
        <ele>831.7</ele>
      </trkpt>
      <trkpt lat="45.47429" lon="3.45584">
        <ele>833.3</ele>
      </trkpt>
      <trkpt lat="45.47426" lon="3.45602">
        <ele>834.3</ele>
      </trkpt>
      <trkpt lat="45.47426" lon="3.45602">
        <ele>834.3</ele>
      </trkpt>
      <trkpt lat="45.47424" lon="3.4562">
        <ele>835.3</ele>
      </trkpt>
      <trkpt lat="45.47422" lon="3.45637">
        <ele>836.2</ele>
      </trkpt>
      <trkpt lat="45.47418" lon="3.45646">
        <ele>836.9</ele>
      </trkpt>
      <trkpt lat="45.47422" lon="3.45652">
        <ele>836.9</ele>
      </trkpt>
      <trkpt lat="45.47422" lon="3.45664">
        <ele>837.5</ele>
      </trkpt>
      <trkpt lat="45.47423" lon="3.45674">
        <ele>838</ele>
      </trkpt>
      <trkpt lat="45.47424" lon="3.45683">
        <ele>838.5</ele>
      </trkpt>
      <trkpt lat="45.47427" lon="3.45703">
        <ele>839.5</ele>
      </trkpt>
      <trkpt lat="45.4743" lon="3.45716">
        <ele>840.1</ele>
      </trkpt>
      <trkpt lat="45.47435" lon="3.45737">
        <ele>841</ele>
      </trkpt>
      <trkpt lat="45.47439" lon="3.45749">
        <ele>841.6</ele>
      </trkpt>
      <trkpt lat="45.47443" lon="3.45759">
        <ele>842.2</ele>
      </trkpt>
      <trkpt lat="45.4745" lon="3.45776">
        <ele>843.1</ele>
      </trkpt>
      <trkpt lat="45.47458" lon="3.45797">
        <ele>844.2</ele>
      </trkpt>
      <trkpt lat="45.47465" lon="3.45813">
        <ele>845</ele>
      </trkpt>
      <trkpt lat="45.47476" lon="3.45838">
        <ele>846</ele>
      </trkpt>
      <trkpt lat="45.47484" lon="3.45859">
        <ele>846.9</ele>
      </trkpt>
      <trkpt lat="45.47491" lon="3.45876">
        <ele>847.9</ele>
      </trkpt>
      <trkpt lat="45.47498" lon="3.45897">
        <ele>849.3</ele>
      </trkpt>
      <trkpt lat="45.47503" lon="3.45911">
        <ele>850.6</ele>
      </trkpt>
      <trkpt lat="45.47507" lon="3.4593">
        <ele>852.3</ele>
      </trkpt>
      <trkpt lat="45.47512" lon="3.45956">
        <ele>855</ele>
      </trkpt>
      <trkpt lat="45.47515" lon="3.45971">
        <ele>856.7</ele>
      </trkpt>
      <trkpt lat="45.47517" lon="3.45984">
        <ele>858</ele>
      </trkpt>
      <trkpt lat="45.47518" lon="3.45995">
        <ele>859.3</ele>
      </trkpt>
      <trkpt lat="45.47519" lon="3.46015">
        <ele>861.1</ele>
      </trkpt>
      <trkpt lat="45.47519" lon="3.46022">
        <ele>861.7</ele>
      </trkpt>
      <trkpt lat="45.47517" lon="3.46038">
        <ele>862.8</ele>
      </trkpt>
      <trkpt lat="45.47515" lon="3.46055">
        <ele>863.8</ele>
      </trkpt>
      <trkpt lat="45.47512" lon="3.46074">
        <ele>865</ele>
      </trkpt>
      <trkpt lat="45.4751" lon="3.46095">
        <ele>866.3</ele>
      </trkpt>
      <trkpt lat="45.4751" lon="3.46106">
        <ele>866.9</ele>
      </trkpt>
      <trkpt lat="45.4751" lon="3.46116">
        <ele>867.7</ele>
      </trkpt>
      <trkpt lat="45.4751" lon="3.46132">
        <ele>868.7</ele>
      </trkpt>
      <trkpt lat="45.4751" lon="3.46155">
        <ele>870.2</ele>
      </trkpt>
      <trkpt lat="45.47508" lon="3.46177">
        <ele>871</ele>
      </trkpt>
      <trkpt lat="45.47502" lon="3.46182">
        <ele>870.4</ele>
      </trkpt>
      <trkpt lat="45.47506" lon="3.46189">
        <ele>870.9</ele>
      </trkpt>
      <trkpt lat="45.47503" lon="3.46201">
        <ele>870.7</ele>
      </trkpt>
      <trkpt lat="45.475" lon="3.4621">
        <ele>870.5</ele>
      </trkpt>
      <trkpt lat="45.475" lon="3.4621">
        <ele>870.5</ele>
      </trkpt>
      <trkpt lat="45.47496" lon="3.46221">
        <ele>870.7</ele>
      </trkpt>
      <trkpt lat="45.47492" lon="3.46232">
        <ele>871</ele>
      </trkpt>
      <trkpt lat="45.47487" lon="3.46246">
        <ele>871.4</ele>
      </trkpt>
      <trkpt lat="45.47484" lon="3.46255">
        <ele>871.6</ele>
      </trkpt>
      <trkpt lat="45.47481" lon="3.46272">
        <ele>872</ele>
      </trkpt>
      <trkpt lat="45.47478" lon="3.46287">
        <ele>872.2</ele>
      </trkpt>
      <trkpt lat="45.47477" lon="3.46303">
        <ele>872.4</ele>
      </trkpt>
      <trkpt lat="45.47477" lon="3.46319">
        <ele>872.6</ele>
      </trkpt>
      <trkpt lat="45.47477" lon="3.46333">
        <ele>872.7</ele>
      </trkpt>
      <trkpt lat="45.47478" lon="3.46357">
        <ele>873.2</ele>
      </trkpt>
      <trkpt lat="45.4748" lon="3.46382">
        <ele>873.8</ele>
      </trkpt>
      <trkpt lat="45.47482" lon="3.46407">
        <ele>874.6</ele>
      </trkpt>
      <trkpt lat="45.47484" lon="3.46428">
        <ele>876</ele>
      </trkpt>
      <trkpt lat="45.47484" lon="3.46436">
        <ele>876.8</ele>
      </trkpt>
      <trkpt lat="45.47486" lon="3.46463">
        <ele>879.5</ele>
      </trkpt>
      <trkpt lat="45.47487" lon="3.4649">
        <ele>882.3</ele>
      </trkpt>
      <trkpt lat="45.47487" lon="3.46511">
        <ele>884.2</ele>
      </trkpt>
      <trkpt lat="45.47487" lon="3.4653">
        <ele>885.6</ele>
      </trkpt>
      <trkpt lat="45.47486" lon="3.46549">
        <ele>887.1</ele>
      </trkpt>
      <trkpt lat="45.47486" lon="3.46567">
        <ele>888.4</ele>
      </trkpt>
      <trkpt lat="45.47486" lon="3.46589">
        <ele>889.9</ele>
      </trkpt>
      <trkpt lat="45.47485" lon="3.46602">
        <ele>890</ele>
      </trkpt>
      <trkpt lat="45.47486" lon="3.46611">
        <ele>890.3</ele>
      </trkpt>
      <trkpt lat="45.47487" lon="3.46619">
        <ele>890.8</ele>
      </trkpt>
      <trkpt lat="45.47493" lon="3.46636">
        <ele>892.3</ele>
      </trkpt>
      <trkpt lat="45.47498" lon="3.46647">
        <ele>893.5</ele>
      </trkpt>
      <trkpt lat="45.47505" lon="3.46657">
        <ele>894.5</ele>
      </trkpt>
      <trkpt lat="45.4751" lon="3.46665">
        <ele>895.2</ele>
      </trkpt>
      <trkpt lat="45.47525" lon="3.46682">
        <ele>895.7</ele>
      </trkpt>
      <trkpt lat="45.4754" lon="3.46702">
        <ele>895.3</ele>
      </trkpt>
      <trkpt lat="45.47551" lon="3.46715">
        <ele>894.6</ele>
      </trkpt>
      <trkpt lat="45.47562" lon="3.46728">
        <ele>893.6</ele>
      </trkpt>
      <trkpt lat="45.4757" lon="3.46736">
        <ele>892.8</ele>
      </trkpt>
      <trkpt lat="45.47577" lon="3.46741">
        <ele>892.2</ele>
      </trkpt>
      <trkpt lat="45.47582" lon="3.46744">
        <ele>891.9</ele>
      </trkpt>
      <trkpt lat="45.47592" lon="3.46749">
        <ele>891.7</ele>
      </trkpt>
      <trkpt lat="45.47604" lon="3.46753">
        <ele>891.9</ele>
      </trkpt>
      <trkpt lat="45.47616" lon="3.46756">
        <ele>892.1</ele>
      </trkpt>
      <trkpt lat="45.47621" lon="3.46759">
        <ele>892.2</ele>
      </trkpt>
      <trkpt lat="45.47621" lon="3.46759">
        <ele>892.2</ele>
      </trkpt>
      <trkpt lat="45.4763" lon="3.46764">
        <ele>892</ele>
      </trkpt>
      <trkpt lat="45.47639" lon="3.46771">
        <ele>891.6</ele>
      </trkpt>
      <trkpt lat="45.47642" lon="3.46775">
        <ele>891.3</ele>
      </trkpt>
      <trkpt lat="45.47648" lon="3.46784">
        <ele>890.4</ele>
      </trkpt>
      <trkpt lat="45.47655" lon="3.46798">
        <ele>889</ele>
      </trkpt>
      <trkpt lat="45.47661" lon="3.46808">
        <ele>888.1</ele>
      </trkpt>
      <trkpt lat="45.47667" lon="3.46815">
        <ele>887.4</ele>
      </trkpt>
      <trkpt lat="45.47673" lon="3.46822">
        <ele>887.7</ele>
      </trkpt>
      <trkpt lat="45.47683" lon="3.46829">
        <ele>888.3</ele>
      </trkpt>
      <trkpt lat="45.47697" lon="3.46841">
        <ele>888.9</ele>
      </trkpt>
      <trkpt lat="45.47708" lon="3.4685">
        <ele>889</ele>
      </trkpt>
      <trkpt lat="45.47716" lon="3.46858">
        <ele>888.9</ele>
      </trkpt>
      <trkpt lat="45.47727" lon="3.46872">
        <ele>888.3</ele>
      </trkpt>
      <trkpt lat="45.47737" lon="3.46886">
        <ele>887.5</ele>
      </trkpt>
      <trkpt lat="45.47752" lon="3.46907">
        <ele>885.9</ele>
      </trkpt>
      <trkpt lat="45.47762" lon="3.46923">
        <ele>884.9</ele>
      </trkpt>
      <trkpt lat="45.47765" lon="3.4693">
        <ele>884.6</ele>
      </trkpt>
      <trkpt lat="45.47774" lon="3.46951">
        <ele>883.2</ele>
      </trkpt>
      <trkpt lat="45.47778" lon="3.46965">
        <ele>882</ele>
      </trkpt>
      <trkpt lat="45.4778" lon="3.46978">
        <ele>880.6</ele>
      </trkpt>
      <trkpt lat="45.47782" lon="3.4699">
        <ele>879.3</ele>
      </trkpt>
      <trkpt lat="45.47783" lon="3.47003">
        <ele>878</ele>
      </trkpt>
      <trkpt lat="45.47784" lon="3.47021">
        <ele>877</ele>
      </trkpt>
      <trkpt lat="45.47784" lon="3.47039">
        <ele>875.9</ele>
      </trkpt>
      <trkpt lat="45.47785" lon="3.47058">
        <ele>874.8</ele>
      </trkpt>
      <trkpt lat="45.47784" lon="3.47085">
        <ele>873.2</ele>
      </trkpt>
      <trkpt lat="45.47784" lon="3.47115">
        <ele>872.8</ele>
      </trkpt>
      <trkpt lat="45.47784" lon="3.47141">
        <ele>872.4</ele>
      </trkpt>
      <trkpt lat="45.47783" lon="3.47148">
        <ele>872.3</ele>
      </trkpt>
      <trkpt lat="45.47783" lon="3.47158">
        <ele>872.1</ele>
      </trkpt>
      <trkpt lat="45.47781" lon="3.47169">
        <ele>872</ele>
      </trkpt>
      <trkpt lat="45.4778" lon="3.47182">
        <ele>872.2</ele>
      </trkpt>
      <trkpt lat="45.47778" lon="3.4719">
        <ele>872.3</ele>
      </trkpt>
      <trkpt lat="45.47775" lon="3.47201">
        <ele>872.5</ele>
      </trkpt>
      <trkpt lat="45.47769" lon="3.47225">
        <ele>872.9</ele>
      </trkpt>
      <trkpt lat="45.47764" lon="3.47239">
        <ele>873.3</ele>
      </trkpt>
      <trkpt lat="45.47759" lon="3.47254">
        <ele>873.8</ele>
      </trkpt>
      <trkpt lat="45.4775" lon="3.4728">
        <ele>874.7</ele>
      </trkpt>
      <trkpt lat="45.47745" lon="3.47295">
        <ele>874.7</ele>
      </trkpt>
      <trkpt lat="45.4774" lon="3.4731">
        <ele>874.8</ele>
      </trkpt>
      <trkpt lat="45.4774" lon="3.4731">
        <ele>874.8</ele>
      </trkpt>
      <trkpt lat="45.47734" lon="3.47327">
        <ele>874.8</ele>
      </trkpt>
      <trkpt lat="45.47728" lon="3.47344">
        <ele>874.9</ele>
      </trkpt>
      <trkpt lat="45.47719" lon="3.4737">
        <ele>874.9</ele>
      </trkpt>
      <trkpt lat="45.47711" lon="3.47393">
        <ele>875</ele>
      </trkpt>
      <trkpt lat="45.47702" lon="3.47417">
        <ele>875.3</ele>
      </trkpt>
      <trkpt lat="45.47694" lon="3.47435">
        <ele>875.4</ele>
      </trkpt>
      <trkpt lat="45.47683" lon="3.47459">
        <ele>875.6</ele>
      </trkpt>
      <trkpt lat="45.47673" lon="3.47482">
        <ele>875.8</ele>
      </trkpt>
      <trkpt lat="45.47662" lon="3.47508">
        <ele>875.6</ele>
      </trkpt>
      <trkpt lat="45.47651" lon="3.47533">
        <ele>874.9</ele>
      </trkpt>
      <trkpt lat="45.47645" lon="3.47548">
        <ele>874.6</ele>
      </trkpt>
      <trkpt lat="45.47639" lon="3.47562">
        <ele>874.4</ele>
      </trkpt>
      <trkpt lat="45.47633" lon="3.47578">
        <ele>874.3</ele>
      </trkpt>
      <trkpt lat="45.47627" lon="3.47594">
        <ele>874.1</ele>
      </trkpt>
      <trkpt lat="45.47619" lon="3.47613">
        <ele>873.8</ele>
      </trkpt>
      <trkpt lat="45.4761" lon="3.47611">
        <ele>873.5</ele>
      </trkpt>
      <trkpt lat="45.47594" lon="3.47608">
        <ele>872.9</ele>
      </trkpt>
      <trkpt lat="45.47578" lon="3.47606">
        <ele>872.5</ele>
      </trkpt>
      <trkpt lat="45.47562" lon="3.47605">
        <ele>872.2</ele>
      </trkpt>
      <trkpt lat="45.47547" lon="3.47603">
        <ele>871.9</ele>
      </trkpt>
      <trkpt lat="45.47531" lon="3.47602">
        <ele>871.6</ele>
      </trkpt>
      <trkpt lat="45.4752" lon="3.47602">
        <ele>871.4</ele>
      </trkpt>
      <trkpt lat="45.47505" lon="3.47601">
        <ele>871.2</ele>
      </trkpt>
      <trkpt lat="45.47487" lon="3.47602">
        <ele>870.7</ele>
      </trkpt>
      <trkpt lat="45.47475" lon="3.47601">
        <ele>870.3</ele>
      </trkpt>
      <trkpt lat="45.47462" lon="3.47599">
        <ele>869.8</ele>
      </trkpt>
      <trkpt lat="45.47454" lon="3.47598">
        <ele>869.4</ele>
      </trkpt>
      <trkpt lat="45.47444" lon="3.47593">
        <ele>868.7</ele>
      </trkpt>
      <trkpt lat="45.4743" lon="3.47587">
        <ele>867.8</ele>
      </trkpt>
      <trkpt lat="45.47422" lon="3.47584">
        <ele>867.2</ele>
      </trkpt>
      <trkpt lat="45.47413" lon="3.47582">
        <ele>866.8</ele>
      </trkpt>
      <trkpt lat="45.47406" lon="3.4758">
        <ele>866.5</ele>
      </trkpt>
      <trkpt lat="45.47406" lon="3.4758">
        <ele>866.5</ele>
      </trkpt>
      <trkpt lat="45.47393" lon="3.47579">
        <ele>866.1</ele>
      </trkpt>
      <trkpt lat="45.47376" lon="3.47578">
        <ele>865.7</ele>
      </trkpt>
      <trkpt lat="45.47363" lon="3.47577">
        <ele>865.3</ele>
      </trkpt>
      <trkpt lat="45.47353" lon="3.47575">
        <ele>864.9</ele>
      </trkpt>
      <trkpt lat="45.47344" lon="3.47572">
        <ele>864.5</ele>
      </trkpt>
      <trkpt lat="45.47331" lon="3.47568">
        <ele>864</ele>
      </trkpt>
      <trkpt lat="45.47318" lon="3.47562">
        <ele>863.6</ele>
      </trkpt>
      <trkpt lat="45.47304" lon="3.47557">
        <ele>863.3</ele>
      </trkpt>
      <trkpt lat="45.47293" lon="3.47553">
        <ele>863.1</ele>
      </trkpt>
      <trkpt lat="45.47282" lon="3.47548">
        <ele>863</ele>
      </trkpt>
      <trkpt lat="45.47266" lon="3.47542">
        <ele>862.9</ele>
      </trkpt>
      <trkpt lat="45.47256" lon="3.47538">
        <ele>862.9</ele>
      </trkpt>
      <trkpt lat="45.47248" lon="3.47535">
        <ele>863</ele>
      </trkpt>
      <trkpt lat="45.47232" lon="3.47528">
        <ele>863</ele>
      </trkpt>
      <trkpt lat="45.47211" lon="3.47518">
        <ele>863.3</ele>
      </trkpt>
      <trkpt lat="45.47203" lon="3.47514">
        <ele>863.6</ele>
      </trkpt>
      <trkpt lat="45.47196" lon="3.47526">
        <ele>863.1</ele>
      </trkpt>
      <trkpt lat="45.4719" lon="3.47538">
        <ele>862.5</ele>
      </trkpt>
      <trkpt lat="45.47183" lon="3.4755">
        <ele>861.7</ele>
      </trkpt>
      <trkpt lat="45.47176" lon="3.47562">
        <ele>860.8</ele>
      </trkpt>
      <trkpt lat="45.47171" lon="3.4757">
        <ele>860.1</ele>
      </trkpt>
      <trkpt lat="45.47167" lon="3.47576">
        <ele>859.5</ele>
      </trkpt>
      <trkpt lat="45.4716" lon="3.47585">
        <ele>859.1</ele>
      </trkpt>
      <trkpt lat="45.47156" lon="3.47589">
        <ele>859.1</ele>
      </trkpt>
      <trkpt lat="45.47151" lon="3.47594">
        <ele>859.1</ele>
      </trkpt>
      <trkpt lat="45.47143" lon="3.47603">
        <ele>858.8</ele>
      </trkpt>
      <trkpt lat="45.47135" lon="3.47612">
        <ele>858.3</ele>
      </trkpt>
      <trkpt lat="45.47131" lon="3.47618">
        <ele>857.9</ele>
      </trkpt>
      <trkpt lat="45.47127" lon="3.47626">
        <ele>857.3</ele>
      </trkpt>
      <trkpt lat="45.47127" lon="3.47626">
        <ele>857.3</ele>
      </trkpt>
      <trkpt lat="45.47117" lon="3.47652">
        <ele>855</ele>
      </trkpt>
      <trkpt lat="45.47111" lon="3.47666">
        <ele>853.3</ele>
      </trkpt>
      <trkpt lat="45.47104" lon="3.47681">
        <ele>852.9</ele>
      </trkpt>
      <trkpt lat="45.47098" lon="3.47694">
        <ele>852.5</ele>
      </trkpt>
      <trkpt lat="45.47091" lon="3.4771">
        <ele>852</ele>
      </trkpt>
      <trkpt lat="45.47084" lon="3.47725">
        <ele>851.5</ele>
      </trkpt>
      <trkpt lat="45.47074" lon="3.47751">
        <ele>850.8</ele>
      </trkpt>
      <trkpt lat="45.47069" lon="3.47765">
        <ele>851</ele>
      </trkpt>
      <trkpt lat="45.47063" lon="3.47779">
        <ele>851.2</ele>
      </trkpt>
      <trkpt lat="45.47052" lon="3.47805">
        <ele>851.5</ele>
      </trkpt>
      <trkpt lat="45.47044" lon="3.47824">
        <ele>851.7</ele>
      </trkpt>
      <trkpt lat="45.47044" lon="3.47824">
        <ele>851.7</ele>
      </trkpt>
      <trkpt lat="45.47039" lon="3.47836">
        <ele>851.7</ele>
      </trkpt>
      <trkpt lat="45.47034" lon="3.4785">
        <ele>851.2</ele>
      </trkpt>
      <trkpt lat="45.4703" lon="3.47866">
        <ele>850.8</ele>
      </trkpt>
      <trkpt lat="45.47025" lon="3.47886">
        <ele>850.5</ele>
      </trkpt>
      <trkpt lat="45.47022" lon="3.47902">
        <ele>850.3</ele>
      </trkpt>
      <trkpt lat="45.47019" lon="3.47915">
        <ele>850.2</ele>
      </trkpt>
      <trkpt lat="45.47015" lon="3.47927">
        <ele>850</ele>
      </trkpt>
      <trkpt lat="45.47013" lon="3.47937">
        <ele>849.8</ele>
      </trkpt>
      <trkpt lat="45.4701" lon="3.4795">
        <ele>849.6</ele>
      </trkpt>
      <trkpt lat="45.47003" lon="3.47973">
        <ele>849.1</ele>
      </trkpt>
      <trkpt lat="45.46997" lon="3.4799">
        <ele>848.5</ele>
      </trkpt>
      <trkpt lat="45.46992" lon="3.48005">
        <ele>848.2</ele>
      </trkpt>
      <trkpt lat="45.46986" lon="3.4802">
        <ele>848.3</ele>
      </trkpt>
      <trkpt lat="45.46978" lon="3.48036">
        <ele>848.1</ele>
      </trkpt>
      <trkpt lat="45.46969" lon="3.48054">
        <ele>847.9</ele>
      </trkpt>
      <trkpt lat="45.46966" lon="3.48062">
        <ele>847.9</ele>
      </trkpt>
      <trkpt lat="45.46964" lon="3.48071">
        <ele>848.1</ele>
      </trkpt>
      <trkpt lat="45.46963" lon="3.48082">
        <ele>848.6</ele>
      </trkpt>
      <trkpt lat="45.46964" lon="3.48095">
        <ele>849.5</ele>
      </trkpt>
      <trkpt lat="45.46965" lon="3.48111">
        <ele>850.6</ele>
      </trkpt>
      <trkpt lat="45.46967" lon="3.48127">
        <ele>851.8</ele>
      </trkpt>
      <trkpt lat="45.46967" lon="3.48136">
        <ele>852.4</ele>
      </trkpt>
      <trkpt lat="45.46966" lon="3.48142">
        <ele>852.7</ele>
      </trkpt>
      <trkpt lat="45.46964" lon="3.48155">
        <ele>853</ele>
      </trkpt>
      <trkpt lat="45.46962" lon="3.48166">
        <ele>853.5</ele>
      </trkpt>
      <trkpt lat="45.46963" lon="3.48176">
        <ele>853.9</ele>
      </trkpt>
      <trkpt lat="45.46968" lon="3.48188">
        <ele>854.9</ele>
      </trkpt>
      <trkpt lat="45.46971" lon="3.48194">
        <ele>855.5</ele>
      </trkpt>
      <trkpt lat="45.46975" lon="3.48201">
        <ele>856.2</ele>
      </trkpt>
      <trkpt lat="45.46979" lon="3.48209">
        <ele>856.8</ele>
      </trkpt>
      <trkpt lat="45.46974" lon="3.48215">
        <ele>856.4</ele>
      </trkpt>
      <trkpt lat="45.46971" lon="3.4822">
        <ele>856.1</ele>
      </trkpt>
      <trkpt lat="45.46967" lon="3.48226">
        <ele>855.9</ele>
      </trkpt>
      <trkpt lat="45.46964" lon="3.48236">
        <ele>855.7</ele>
      </trkpt>
      <trkpt lat="45.46961" lon="3.48248">
        <ele>855.7</ele>
      </trkpt>
      <trkpt lat="45.46956" lon="3.4827">
        <ele>854.4</ele>
      </trkpt>
      <trkpt lat="45.46953" lon="3.48286">
        <ele>853.4</ele>
      </trkpt>
      <trkpt lat="45.46949" lon="3.48299">
        <ele>852.5</ele>
      </trkpt>
      <trkpt lat="45.46947" lon="3.48309">
        <ele>851.9</ele>
      </trkpt>
      <trkpt lat="45.46945" lon="3.48315">
        <ele>851.4</ele>
      </trkpt>
      <trkpt lat="45.46942" lon="3.48324">
        <ele>850.8</ele>
      </trkpt>
      <trkpt lat="45.46938" lon="3.48338">
        <ele>849.9</ele>
      </trkpt>
      <trkpt lat="45.46934" lon="3.48359">
        <ele>848.8</ele>
      </trkpt>
      <trkpt lat="45.46932" lon="3.48371">
        <ele>848.2</ele>
      </trkpt>
      <trkpt lat="45.46931" lon="3.48379">
        <ele>847.9</ele>
      </trkpt>
      <trkpt lat="45.4693" lon="3.48396">
        <ele>847.3</ele>
      </trkpt>
      <trkpt lat="45.46928" lon="3.48418">
        <ele>846.5</ele>
      </trkpt>
      <trkpt lat="45.46927" lon="3.48438">
        <ele>845.7</ele>
      </trkpt>
      <trkpt lat="45.46927" lon="3.48438">
        <ele>845.7</ele>
      </trkpt>
      <trkpt lat="45.46925" lon="3.48454">
        <ele>845</ele>
      </trkpt>
      <trkpt lat="45.46922" lon="3.4848">
        <ele>843.9</ele>
      </trkpt>
      <trkpt lat="45.4692" lon="3.48497">
        <ele>843.2</ele>
      </trkpt>
      <trkpt lat="45.46919" lon="3.4851">
        <ele>843.2</ele>
      </trkpt>
      <trkpt lat="45.46919" lon="3.48521">
        <ele>843.3</ele>
      </trkpt>
      <trkpt lat="45.4692" lon="3.48531">
        <ele>843.4</ele>
      </trkpt>
      <trkpt lat="45.46921" lon="3.48538">
        <ele>843.5</ele>
      </trkpt>
      <trkpt lat="45.46923" lon="3.48549">
        <ele>843.7</ele>
      </trkpt>
      <trkpt lat="45.46928" lon="3.48565">
        <ele>843.9</ele>
      </trkpt>
      <trkpt lat="45.46922" lon="3.48564">
        <ele>843.8</ele>
      </trkpt>
      <trkpt lat="45.46914" lon="3.48564">
        <ele>843.7</ele>
      </trkpt>
      <trkpt lat="45.4691" lon="3.48562">
        <ele>843.7</ele>
      </trkpt>
      <trkpt lat="45.46902" lon="3.4856">
        <ele>843.6</ele>
      </trkpt>
      <trkpt lat="45.46893" lon="3.48557">
        <ele>843.4</ele>
      </trkpt>
      <trkpt lat="45.46887" lon="3.48554">
        <ele>843.3</ele>
      </trkpt>
      <trkpt lat="45.46882" lon="3.48551">
        <ele>843.1</ele>
      </trkpt>
      <trkpt lat="45.46877" lon="3.48547">
        <ele>842.9</ele>
      </trkpt>
      <trkpt lat="45.46867" lon="3.48538">
        <ele>842.5</ele>
      </trkpt>
      <trkpt lat="45.4686" lon="3.48533">
        <ele>842.2</ele>
      </trkpt>
      <trkpt lat="45.46853" lon="3.48532">
        <ele>842</ele>
      </trkpt>
      <trkpt lat="45.46849" lon="3.48532">
        <ele>841.9</ele>
      </trkpt>
      <trkpt lat="45.4684" lon="3.48533">
        <ele>841.7</ele>
      </trkpt>
      <trkpt lat="45.4683" lon="3.48535">
        <ele>841.7</ele>
      </trkpt>
      <trkpt lat="45.46818" lon="3.48538">
        <ele>842.1</ele>
      </trkpt>
      <trkpt lat="45.46804" lon="3.48543">
        <ele>842.6</ele>
      </trkpt>
      <trkpt lat="45.46799" lon="3.48544">
        <ele>842.8</ele>
      </trkpt>
      <trkpt lat="45.46794" lon="3.48546">
        <ele>843</ele>
      </trkpt>
      <trkpt lat="45.46786" lon="3.48551">
        <ele>843.5</ele>
      </trkpt>
      <trkpt lat="45.4678" lon="3.48551">
        <ele>843.7</ele>
      </trkpt>
      <trkpt lat="45.46775" lon="3.48548">
        <ele>843.5</ele>
      </trkpt>
      <trkpt lat="45.4677" lon="3.48535">
        <ele>842.7</ele>
      </trkpt>
      <trkpt lat="45.46768" lon="3.4852">
        <ele>841.5</ele>
      </trkpt>
      <trkpt lat="45.46766" lon="3.48513">
        <ele>841</ele>
      </trkpt>
      <trkpt lat="45.46762" lon="3.48501">
        <ele>840.1</ele>
      </trkpt>
      <trkpt lat="45.46759" lon="3.48495">
        <ele>839.8</ele>
      </trkpt>
      <trkpt lat="45.46755" lon="3.4849">
        <ele>839.7</ele>
      </trkpt>
      <trkpt lat="45.46751" lon="3.48483">
        <ele>839.4</ele>
      </trkpt>
      <trkpt lat="45.4674" lon="3.48473">
        <ele>838.9</ele>
      </trkpt>
      <trkpt lat="45.46729" lon="3.48463">
        <ele>838.2</ele>
      </trkpt>
      <trkpt lat="45.4672" lon="3.48454">
        <ele>837.5</ele>
      </trkpt>
      <trkpt lat="45.46715" lon="3.48448">
        <ele>837</ele>
      </trkpt>
      <trkpt lat="45.46706" lon="3.48435">
        <ele>836</ele>
      </trkpt>
      <trkpt lat="45.46699" lon="3.48426">
        <ele>835.1</ele>
      </trkpt>
      <trkpt lat="45.46686" lon="3.48403">
        <ele>834.2</ele>
      </trkpt>
      <trkpt lat="45.46678" lon="3.48388">
        <ele>834.3</ele>
      </trkpt>
      <trkpt lat="45.46675" lon="3.48383">
        <ele>834.4</ele>
      </trkpt>
      <trkpt lat="45.46664" lon="3.48371">
        <ele>834.8</ele>
      </trkpt>
      <trkpt lat="45.46659" lon="3.48366">
        <ele>835.3</ele>
      </trkpt>
      <trkpt lat="45.46653" lon="3.48362">
        <ele>835.9</ele>
      </trkpt>
      <trkpt lat="45.46648" lon="3.48358">
        <ele>836.5</ele>
      </trkpt>
      <trkpt lat="45.46632" lon="3.48347">
        <ele>838.3</ele>
      </trkpt>
      <trkpt lat="45.46627" lon="3.48343">
        <ele>839</ele>
      </trkpt>
      <trkpt lat="45.46627" lon="3.48343">
        <ele>839</ele>
      </trkpt>
      <trkpt lat="45.46619" lon="3.48337">
        <ele>840.3</ele>
      </trkpt>
      <trkpt lat="45.46606" lon="3.48328">
        <ele>842.7</ele>
      </trkpt>
      <trkpt lat="45.46595" lon="3.48319">
        <ele>845.3</ele>
      </trkpt>
      <trkpt lat="45.46583" lon="3.48311">
        <ele>848.3</ele>
      </trkpt>
      <trkpt lat="45.46566" lon="3.48298">
        <ele>851.2</ele>
      </trkpt>
      <trkpt lat="45.46552" lon="3.48287">
        <ele>853.6</ele>
      </trkpt>
      <trkpt lat="45.46536" lon="3.48276">
        <ele>856.2</ele>
      </trkpt>
      <trkpt lat="45.46519" lon="3.48262">
        <ele>859.2</ele>
      </trkpt>
      <trkpt lat="45.46502" lon="3.48249">
        <ele>862.1</ele>
      </trkpt>
      <trkpt lat="45.46489" lon="3.48239">
        <ele>863.8</ele>
      </trkpt>
      <trkpt lat="45.46477" lon="3.48229">
        <ele>865</ele>
      </trkpt>
      <trkpt lat="45.46467" lon="3.48221">
        <ele>865.7</ele>
      </trkpt>
      <trkpt lat="45.46452" lon="3.48209">
        <ele>866.2</ele>
      </trkpt>
      <trkpt lat="45.46439" lon="3.48199">
        <ele>866.2</ele>
      </trkpt>
      <trkpt lat="45.46434" lon="3.482">
        <ele>865.9</ele>
      </trkpt>
      <trkpt lat="45.46429" lon="3.48208">
        <ele>865.5</ele>
      </trkpt>
      <trkpt lat="45.46421" lon="3.4822">
        <ele>865.1</ele>
      </trkpt>
      <trkpt lat="45.4641" lon="3.48237">
        <ele>865.3</ele>
      </trkpt>
      <trkpt lat="45.464" lon="3.48251">
        <ele>866</ele>
      </trkpt>
      <trkpt lat="45.46389" lon="3.48263">
        <ele>866.3</ele>
      </trkpt>
      <trkpt lat="45.46379" lon="3.48275">
        <ele>867</ele>
      </trkpt>
      <trkpt lat="45.4637" lon="3.48285">
        <ele>867.8</ele>
      </trkpt>
      <trkpt lat="45.4636" lon="3.48296">
        <ele>869</ele>
      </trkpt>
      <trkpt lat="45.4635" lon="3.48307">
        <ele>870.5</ele>
      </trkpt>
      <trkpt lat="45.46342" lon="3.48315">
        <ele>871.9</ele>
      </trkpt>
      <trkpt lat="45.46331" lon="3.48325">
        <ele>873.8</ele>
      </trkpt>
      <trkpt lat="45.4632" lon="3.48334">
        <ele>874.8</ele>
      </trkpt>
      <trkpt lat="45.46313" lon="3.48341">
        <ele>875.6</ele>
      </trkpt>
      <trkpt lat="45.46308" lon="3.48345">
        <ele>876.1</ele>
      </trkpt>
      <trkpt lat="45.46301" lon="3.48351">
        <ele>876.8</ele>
      </trkpt>
      <trkpt lat="45.46291" lon="3.48357">
        <ele>877.8</ele>
      </trkpt>
      <trkpt lat="45.46276" lon="3.48365">
        <ele>879.4</ele>
      </trkpt>
      <trkpt lat="45.46269" lon="3.48368">
        <ele>880.1</ele>
      </trkpt>
      <trkpt lat="45.46257" lon="3.48375">
        <ele>881.5</ele>
      </trkpt>
      <trkpt lat="45.46248" lon="3.4838">
        <ele>882.2</ele>
      </trkpt>
      <trkpt lat="45.46238" lon="3.48386">
        <ele>881.8</ele>
      </trkpt>
      <trkpt lat="45.46231" lon="3.48391">
        <ele>881.6</ele>
      </trkpt>
      <trkpt lat="45.46231" lon="3.48391">
        <ele>881.6</ele>
      </trkpt>
      <trkpt lat="45.46226" lon="3.48396">
        <ele>881.5</ele>
      </trkpt>
      <trkpt lat="45.46221" lon="3.48402">
        <ele>881.4</ele>
      </trkpt>
      <trkpt lat="45.46215" lon="3.48409">
        <ele>881.3</ele>
      </trkpt>
      <trkpt lat="45.46207" lon="3.4842">
        <ele>881.1</ele>
      </trkpt>
      <trkpt lat="45.46198" lon="3.48433">
        <ele>881.2</ele>
      </trkpt>
      <trkpt lat="45.46184" lon="3.48452">
        <ele>881.4</ele>
      </trkpt>
      <trkpt lat="45.46179" lon="3.48459">
        <ele>881.6</ele>
      </trkpt>
      <trkpt lat="45.46173" lon="3.48468">
        <ele>881.8</ele>
      </trkpt>
      <trkpt lat="45.4617" lon="3.48474">
        <ele>882.1</ele>
      </trkpt>
      <trkpt lat="45.46166" lon="3.48483">
        <ele>882.5</ele>
      </trkpt>
      <trkpt lat="45.46158" lon="3.48503">
        <ele>883.1</ele>
      </trkpt>
      <trkpt lat="45.46154" lon="3.48515">
        <ele>882.8</ele>
      </trkpt>
      <trkpt lat="45.46149" lon="3.4853">
        <ele>882.4</ele>
      </trkpt>
      <trkpt lat="45.46144" lon="3.4854">
        <ele>882.2</ele>
      </trkpt>
      <trkpt lat="45.46139" lon="3.4855">
        <ele>882</ele>
      </trkpt>
      <trkpt lat="45.46134" lon="3.48557">
        <ele>881.8</ele>
      </trkpt>
      <trkpt lat="45.46128" lon="3.48566">
        <ele>881.6</ele>
      </trkpt>
      <trkpt lat="45.46117" lon="3.48582">
        <ele>881.6</ele>
      </trkpt>
      <trkpt lat="45.46108" lon="3.48594">
        <ele>881.3</ele>
      </trkpt>
      <trkpt lat="45.46096" lon="3.48612">
        <ele>881.3</ele>
      </trkpt>
      <trkpt lat="45.46084" lon="3.48627">
        <ele>881.6</ele>
      </trkpt>
      <trkpt lat="45.46074" lon="3.4864">
        <ele>882</ele>
      </trkpt>
      <trkpt lat="45.46061" lon="3.48655">
        <ele>882.9</ele>
      </trkpt>
      <trkpt lat="45.4605" lon="3.48668">
        <ele>883.8</ele>
      </trkpt>
      <trkpt lat="45.46038" lon="3.48682">
        <ele>884.2</ele>
      </trkpt>
      <trkpt lat="45.46031" lon="3.48691">
        <ele>884.5</ele>
      </trkpt>
      <trkpt lat="45.46023" lon="3.48702">
        <ele>884.9</ele>
      </trkpt>
      <trkpt lat="45.46016" lon="3.48716">
        <ele>885.5</ele>
      </trkpt>
      <trkpt lat="45.4601" lon="3.48728">
        <ele>885.9</ele>
      </trkpt>
      <trkpt lat="45.46005" lon="3.48741">
        <ele>886.5</ele>
      </trkpt>
      <trkpt lat="45.45998" lon="3.48758">
        <ele>887.1</ele>
      </trkpt>
      <trkpt lat="45.45992" lon="3.48776">
        <ele>887.2</ele>
      </trkpt>
      <trkpt lat="45.45987" lon="3.48788">
        <ele>887.3</ele>
      </trkpt>
      <trkpt lat="45.45982" lon="3.48803">
        <ele>887.7</ele>
      </trkpt>
      <trkpt lat="45.45978" lon="3.48814">
        <ele>888</ele>
      </trkpt>
      <trkpt lat="45.45976" lon="3.48825">
        <ele>888.3</ele>
      </trkpt>
      <trkpt lat="45.45973" lon="3.4884">
        <ele>889.1</ele>
      </trkpt>
      <trkpt lat="45.45972" lon="3.48852">
        <ele>890</ele>
      </trkpt>
      <trkpt lat="45.4597" lon="3.48866">
        <ele>891</ele>
      </trkpt>
      <trkpt lat="45.45968" lon="3.48886">
        <ele>892.4</ele>
      </trkpt>
      <trkpt lat="45.45966" lon="3.48906">
        <ele>893.8</ele>
      </trkpt>
      <trkpt lat="45.45964" lon="3.48923">
        <ele>894.9</ele>
      </trkpt>
      <trkpt lat="45.45964" lon="3.48923">
        <ele>894.9</ele>
      </trkpt>
      <trkpt lat="45.45961" lon="3.48941">
        <ele>895.8</ele>
      </trkpt>
      <trkpt lat="45.45959" lon="3.48956">
        <ele>896.6</ele>
      </trkpt>
      <trkpt lat="45.45958" lon="3.48968">
        <ele>897.3</ele>
      </trkpt>
      <trkpt lat="45.45957" lon="3.48986">
        <ele>898.2</ele>
      </trkpt>
      <trkpt lat="45.45957" lon="3.49001">
        <ele>899</ele>
      </trkpt>
      <trkpt lat="45.45957" lon="3.49015">
        <ele>899.2</ele>
      </trkpt>
      <trkpt lat="45.45955" lon="3.49026">
        <ele>899.3</ele>
      </trkpt>
      <trkpt lat="45.45954" lon="3.49033">
        <ele>899.4</ele>
      </trkpt>
      <trkpt lat="45.45952" lon="3.49042">
        <ele>899.7</ele>
      </trkpt>
      <trkpt lat="45.45949" lon="3.49051">
        <ele>900</ele>
      </trkpt>
      <trkpt lat="45.45944" lon="3.49057">
        <ele>900.5</ele>
      </trkpt>
      <trkpt lat="45.45944" lon="3.49065">
        <ele>900.7</ele>
      </trkpt>
      <trkpt lat="45.45944" lon="3.49072">
        <ele>900.9</ele>
      </trkpt>
      <trkpt lat="45.45942" lon="3.4909">
        <ele>901.4</ele>
      </trkpt>
      <trkpt lat="45.4594" lon="3.49113">
        <ele>902.2</ele>
      </trkpt>
      <trkpt lat="45.4594" lon="3.49126">
        <ele>902.7</ele>
      </trkpt>
      <trkpt lat="45.45939" lon="3.49144">
        <ele>903.2</ele>
      </trkpt>
      <trkpt lat="45.45939" lon="3.49163">
        <ele>903.7</ele>
      </trkpt>
      <trkpt lat="45.4594" lon="3.49184">
        <ele>904.5</ele>
      </trkpt>
      <trkpt lat="45.45939" lon="3.492">
        <ele>905.1</ele>
      </trkpt>
      <trkpt lat="45.45938" lon="3.4922">
        <ele>906</ele>
      </trkpt>
      <trkpt lat="45.45937" lon="3.49235">
        <ele>906.7</ele>
      </trkpt>
      <trkpt lat="45.45935" lon="3.49252">
        <ele>907.5</ele>
      </trkpt>
      <trkpt lat="45.45934" lon="3.49266">
        <ele>908.2</ele>
      </trkpt>
      <trkpt lat="45.45933" lon="3.49278">
        <ele>908.7</ele>
      </trkpt>
      <trkpt lat="45.45933" lon="3.49285">
        <ele>909</ele>
      </trkpt>
      <trkpt lat="45.45928" lon="3.49285">
        <ele>909.4</ele>
      </trkpt>
      <trkpt lat="45.45923" lon="3.49285">
        <ele>909.8</ele>
      </trkpt>
      <trkpt lat="45.45917" lon="3.49288">
        <ele>910.4</ele>
      </trkpt>
      <trkpt lat="45.45912" lon="3.49292">
        <ele>910.4</ele>
      </trkpt>
      <trkpt lat="45.45904" lon="3.49302">
        <ele>910.6</ele>
      </trkpt>
      <trkpt lat="45.45895" lon="3.49312">
        <ele>910.7</ele>
      </trkpt>
      <trkpt lat="45.45885" lon="3.49325">
        <ele>910.7</ele>
      </trkpt>
      <trkpt lat="45.45872" lon="3.49342">
        <ele>911.1</ele>
      </trkpt>
      <trkpt lat="45.45861" lon="3.49356">
        <ele>911.8</ele>
      </trkpt>
      <trkpt lat="45.45851" lon="3.4937">
        <ele>912.5</ele>
      </trkpt>
      <trkpt lat="45.45843" lon="3.49382">
        <ele>913</ele>
      </trkpt>
      <trkpt lat="45.45835" lon="3.49396">
        <ele>913.6</ele>
      </trkpt>
      <trkpt lat="45.45831" lon="3.49404">
        <ele>913.8</ele>
      </trkpt>
      <trkpt lat="45.45827" lon="3.49414">
        <ele>914.1</ele>
      </trkpt>
      <trkpt lat="45.45823" lon="3.49424">
        <ele>914.8</ele>
      </trkpt>
      <trkpt lat="45.45819" lon="3.49438">
        <ele>915.7</ele>
      </trkpt>
      <trkpt lat="45.45815" lon="3.4945">
        <ele>916.6</ele>
      </trkpt>
      <trkpt lat="45.45812" lon="3.49457">
        <ele>917.1</ele>
      </trkpt>
      <trkpt lat="45.45809" lon="3.49464">
        <ele>917.6</ele>
      </trkpt>
      <trkpt lat="45.45805" lon="3.4947">
        <ele>917.8</ele>
      </trkpt>
      <trkpt lat="45.45801" lon="3.49477">
        <ele>918.2</ele>
      </trkpt>
      <trkpt lat="45.45796" lon="3.49483">
        <ele>918.5</ele>
      </trkpt>
      <trkpt lat="45.45796" lon="3.49483">
        <ele>918.5</ele>
      </trkpt>
      <trkpt lat="45.45788" lon="3.49492">
        <ele>918.8</ele>
      </trkpt>
      <trkpt lat="45.4578" lon="3.49501">
        <ele>919.3</ele>
      </trkpt>
      <trkpt lat="45.4577" lon="3.49512">
        <ele>919.9</ele>
      </trkpt>
      <trkpt lat="45.45764" lon="3.49521">
        <ele>920.5</ele>
      </trkpt>
      <trkpt lat="45.45758" lon="3.49529">
        <ele>921.1</ele>
      </trkpt>
      <trkpt lat="45.45751" lon="3.49542">
        <ele>922.1</ele>
      </trkpt>
      <trkpt lat="45.45746" lon="3.49551">
        <ele>922.8</ele>
      </trkpt>
      <trkpt lat="45.45745" lon="3.49558">
        <ele>923.5</ele>
      </trkpt>
      <trkpt lat="45.45743" lon="3.49567">
        <ele>924.5</ele>
      </trkpt>
      <trkpt lat="45.45741" lon="3.4958">
        <ele>925.9</ele>
      </trkpt>
      <trkpt lat="45.45739" lon="3.4959">
        <ele>926.9</ele>
      </trkpt>
      <trkpt lat="45.45736" lon="3.49597">
        <ele>927.5</ele>
      </trkpt>
      <trkpt lat="45.45731" lon="3.49607">
        <ele>928.2</ele>
      </trkpt>
      <trkpt lat="45.45724" lon="3.49624">
        <ele>929.5</ele>
      </trkpt>
      <trkpt lat="45.45717" lon="3.49637">
        <ele>930.4</ele>
      </trkpt>
      <trkpt lat="45.45708" lon="3.49652">
        <ele>931.4</ele>
      </trkpt>
      <trkpt lat="45.45699" lon="3.49666">
        <ele>932.2</ele>
      </trkpt>
      <trkpt lat="45.45692" lon="3.4968">
        <ele>932.4</ele>
      </trkpt>
      <trkpt lat="45.45689" lon="3.49686">
        <ele>932.4</ele>
      </trkpt>
      <trkpt lat="45.45687" lon="3.49694">
        <ele>932.6</ele>
      </trkpt>
      <trkpt lat="45.45686" lon="3.49703">
        <ele>932.9</ele>
      </trkpt>
      <trkpt lat="45.45687" lon="3.49712">
        <ele>933.4</ele>
      </trkpt>
      <trkpt lat="45.4569" lon="3.49722">
        <ele>934</ele>
      </trkpt>
      <trkpt lat="45.45696" lon="3.49733">
        <ele>935</ele>
      </trkpt>
      <trkpt lat="45.457" lon="3.49742">
        <ele>935.9</ele>
      </trkpt>
      <trkpt lat="45.45707" lon="3.49753">
        <ele>936.9</ele>
      </trkpt>
      <trkpt lat="45.45715" lon="3.49764">
        <ele>938.3</ele>
      </trkpt>
      <trkpt lat="45.4572" lon="3.49762">
        <ele>938.7</ele>
      </trkpt>
      <trkpt lat="45.45727" lon="3.49764">
        <ele>939.5</ele>
      </trkpt>
      <trkpt lat="45.45731" lon="3.49766">
        <ele>940</ele>
      </trkpt>
      <trkpt lat="45.45746" lon="3.49772">
        <ele>941.9</ele>
      </trkpt>
      <trkpt lat="45.45756" lon="3.49775">
        <ele>943.5</ele>
      </trkpt>
      <trkpt lat="45.45759" lon="3.49787">
        <ele>944.6</ele>
      </trkpt>
      <trkpt lat="45.45762" lon="3.49795">
        <ele>945.5</ele>
      </trkpt>
      <trkpt lat="45.45768" lon="3.49806">
        <ele>947.2</ele>
      </trkpt>
      <trkpt lat="45.45774" lon="3.49816">
        <ele>948.7</ele>
      </trkpt>
      <trkpt lat="45.45778" lon="3.49824">
        <ele>949.7</ele>
      </trkpt>
      <trkpt lat="45.4578" lon="3.49836">
        <ele>950.7</ele>
      </trkpt>
      <trkpt lat="45.45781" lon="3.49849">
        <ele>951.4</ele>
      </trkpt>
      <trkpt lat="45.45782" lon="3.49856">
        <ele>951.9</ele>
      </trkpt>
      <trkpt lat="45.45785" lon="3.49876">
        <ele>953.1</ele>
      </trkpt>
      <trkpt lat="45.45786" lon="3.49892">
        <ele>953.9</ele>
      </trkpt>
      <trkpt lat="45.45785" lon="3.49904">
        <ele>954.3</ele>
      </trkpt>
      <trkpt lat="45.45784" lon="3.4991">
        <ele>954.4</ele>
      </trkpt>
      <trkpt lat="45.4578" lon="3.49921">
        <ele>954.6</ele>
      </trkpt>
      <trkpt lat="45.45775" lon="3.49933">
        <ele>955.1</ele>
      </trkpt>
      <trkpt lat="45.45772" lon="3.4994">
        <ele>955.6</ele>
      </trkpt>
      <trkpt lat="45.45769" lon="3.49952">
        <ele>956.4</ele>
      </trkpt>
      <trkpt lat="45.45769" lon="3.4996">
        <ele>957.1</ele>
      </trkpt>
      <trkpt lat="45.45769" lon="3.49968">
        <ele>957.9</ele>
      </trkpt>
      <trkpt lat="45.4577" lon="3.49977">
        <ele>958.8</ele>
      </trkpt>
      <trkpt lat="45.45772" lon="3.49985">
        <ele>959.7</ele>
      </trkpt>
      <trkpt lat="45.45775" lon="3.49991">
        <ele>960.4</ele>
      </trkpt>
      <trkpt lat="45.45779" lon="3.49996">
        <ele>961</ele>
      </trkpt>
      <trkpt lat="45.45779" lon="3.49996">
        <ele>961</ele>
      </trkpt>
      <trkpt lat="45.45784" lon="3.5">
        <ele>961.6</ele>
      </trkpt>
      <trkpt lat="45.45794" lon="3.50004">
        <ele>962.5</ele>
      </trkpt>
      <trkpt lat="45.45803" lon="3.50002">
        <ele>962.7</ele>
      </trkpt>
      <trkpt lat="45.45808" lon="3.49998">
        <ele>962.6</ele>
      </trkpt>
      <trkpt lat="45.45815" lon="3.49992">
        <ele>962.6</ele>
      </trkpt>
      <trkpt lat="45.45824" lon="3.49982">
        <ele>962.5</ele>
      </trkpt>
      <trkpt lat="45.45835" lon="3.49969">
        <ele>962.6</ele>
      </trkpt>
      <trkpt lat="45.45843" lon="3.49959">
        <ele>962.4</ele>
      </trkpt>
      <trkpt lat="45.45849" lon="3.49954">
        <ele>962.4</ele>
      </trkpt>
      <trkpt lat="45.45856" lon="3.4995">
        <ele>962.5</ele>
      </trkpt>
      <trkpt lat="45.45861" lon="3.49948">
        <ele>962.7</ele>
      </trkpt>
      <trkpt lat="45.45869" lon="3.49948">
        <ele>962.9</ele>
      </trkpt>
      <trkpt lat="45.45886" lon="3.4995">
        <ele>963.8</ele>
      </trkpt>
      <trkpt lat="45.45905" lon="3.49953">
        <ele>964.7</ele>
      </trkpt>
      <trkpt lat="45.4592" lon="3.49955">
        <ele>965.2</ele>
      </trkpt>
      <trkpt lat="45.45933" lon="3.49957">
        <ele>965.1</ele>
      </trkpt>
      <trkpt lat="45.45933" lon="3.49972">
        <ele>966</ele>
      </trkpt>
      <trkpt lat="45.45933" lon="3.49985">
        <ele>966.9</ele>
      </trkpt>
      <trkpt lat="45.45933" lon="3.49995">
        <ele>967.5</ele>
      </trkpt>
      <trkpt lat="45.45932" lon="3.50009">
        <ele>968.6</ele>
      </trkpt>
      <trkpt lat="45.45931" lon="3.50026">
        <ele>969.9</ele>
      </trkpt>
      <trkpt lat="45.45927" lon="3.50028">
        <ele>970.2</ele>
      </trkpt>
      <trkpt lat="45.45931" lon="3.50036">
        <ele>970.8</ele>
      </trkpt>
      <trkpt lat="45.45931" lon="3.50056">
        <ele>972.4</ele>
      </trkpt>
      <trkpt lat="45.4593" lon="3.50068">
        <ele>973.5</ele>
      </trkpt>
      <trkpt lat="45.45928" lon="3.50079">
        <ele>974.4</ele>
      </trkpt>
      <trkpt lat="45.45926" lon="3.50088">
        <ele>975.2</ele>
      </trkpt>
      <trkpt lat="45.45923" lon="3.50102">
        <ele>976.6</ele>
      </trkpt>
      <trkpt lat="45.45919" lon="3.50116">
        <ele>978.1</ele>
      </trkpt>
      <trkpt lat="45.45916" lon="3.5013">
        <ele>979.4</ele>
      </trkpt>
      <trkpt lat="45.45911" lon="3.50145">
        <ele>980.9</ele>
      </trkpt>
      <trkpt lat="45.45906" lon="3.50159">
        <ele>982.2</ele>
      </trkpt>
      <trkpt lat="45.459" lon="3.50177">
        <ele>984.3</ele>
      </trkpt>
      <trkpt lat="45.45894" lon="3.50191">
        <ele>986.2</ele>
      </trkpt>
      <trkpt lat="45.45888" lon="3.50205">
        <ele>988.1</ele>
      </trkpt>
      <trkpt lat="45.45879" lon="3.50227">
        <ele>991.5</ele>
      </trkpt>
      <trkpt lat="45.45874" lon="3.50238">
        <ele>993.4</ele>
      </trkpt>
      <trkpt lat="45.45868" lon="3.50251">
        <ele>995.8</ele>
      </trkpt>
      <trkpt lat="45.45862" lon="3.50263">
        <ele>998.9</ele>
      </trkpt>
      <trkpt lat="45.45857" lon="3.50274">
        <ele>1001.8</ele>
      </trkpt>
      <trkpt lat="45.45854" lon="3.5028">
        <ele>1003.2</ele>
      </trkpt>
      <trkpt lat="45.4585" lon="3.50287">
        <ele>1005</ele>
      </trkpt>
      <trkpt lat="45.45841" lon="3.50299">
        <ele>1008.6</ele>
      </trkpt>
      <trkpt lat="45.45831" lon="3.50312">
        <ele>1011.9</ele>
      </trkpt>
      <trkpt lat="45.4582" lon="3.50326">
        <ele>1014.6</ele>
      </trkpt>
      <trkpt lat="45.4582" lon="3.50326">
        <ele>1014.6</ele>
      </trkpt>
      <trkpt lat="45.45811" lon="3.50338">
        <ele>1016.4</ele>
      </trkpt>
      <trkpt lat="45.45808" lon="3.50344">
        <ele>1017.1</ele>
      </trkpt>
      <trkpt lat="45.45805" lon="3.50351">
        <ele>1018</ele>
      </trkpt>
      <trkpt lat="45.458" lon="3.50364">
        <ele>1019.6</ele>
      </trkpt>
      <trkpt lat="45.45794" lon="3.50379">
        <ele>1021.5</ele>
      </trkpt>
      <trkpt lat="45.45791" lon="3.5039">
        <ele>1023</ele>
      </trkpt>
      <trkpt lat="45.4579" lon="3.50397">
        <ele>1023.8</ele>
      </trkpt>
      <trkpt lat="45.45789" lon="3.50412">
        <ele>1026.1</ele>
      </trkpt>
      <trkpt lat="45.45789" lon="3.50425">
        <ele>1027.5</ele>
      </trkpt>
      <trkpt lat="45.4579" lon="3.5044">
        <ele>1028.9</ele>
      </trkpt>
      <trkpt lat="45.45791" lon="3.50453">
        <ele>1030</ele>
      </trkpt>
      <trkpt lat="45.45792" lon="3.50467">
        <ele>1031.3</ele>
      </trkpt>
      <trkpt lat="45.45793" lon="3.50481">
        <ele>1032.5</ele>
      </trkpt>
      <trkpt lat="45.45794" lon="3.50497">
        <ele>1033.8</ele>
      </trkpt>
      <trkpt lat="45.45796" lon="3.50516">
        <ele>1035</ele>
      </trkpt>
      <trkpt lat="45.45796" lon="3.50527">
        <ele>1035.6</ele>
      </trkpt>
      <trkpt lat="45.45798" lon="3.5054">
        <ele>1036.3</ele>
      </trkpt>
      <trkpt lat="45.45799" lon="3.5055">
        <ele>1036.8</ele>
      </trkpt>
      <trkpt lat="45.458" lon="3.50558">
        <ele>1037.2</ele>
      </trkpt>
      <trkpt lat="45.45803" lon="3.50572">
        <ele>1037.8</ele>
      </trkpt>
      <trkpt lat="45.45805" lon="3.50585">
        <ele>1038.4</ele>
      </trkpt>
      <trkpt lat="45.45806" lon="3.50595">
        <ele>1039.1</ele>
      </trkpt>
      <trkpt lat="45.45806" lon="3.50604">
        <ele>1039.7</ele>
      </trkpt>
      <trkpt lat="45.45806" lon="3.50611">
        <ele>1040.1</ele>
      </trkpt>
      <trkpt lat="45.45806" lon="3.50623">
        <ele>1040.9</ele>
      </trkpt>
      <trkpt lat="45.45805" lon="3.50638">
        <ele>1041.8</ele>
      </trkpt>
      <trkpt lat="45.45804" lon="3.50657">
        <ele>1043</ele>
      </trkpt>
      <trkpt lat="45.45803" lon="3.50673">
        <ele>1043.9</ele>
      </trkpt>
      <trkpt lat="45.45802" lon="3.50684">
        <ele>1044.4</ele>
      </trkpt>
      <trkpt lat="45.458" lon="3.50704">
        <ele>1045.1</ele>
      </trkpt>
      <trkpt lat="45.45798" lon="3.50722">
        <ele>1045.8</ele>
      </trkpt>
      <trkpt lat="45.45798" lon="3.50733">
        <ele>1046.2</ele>
      </trkpt>
      <trkpt lat="45.45798" lon="3.50741">
        <ele>1046.5</ele>
      </trkpt>
      <trkpt lat="45.458" lon="3.50757">
        <ele>1046.6</ele>
      </trkpt>
      <trkpt lat="45.458" lon="3.50778">
        <ele>1045.6</ele>
      </trkpt>
      <trkpt lat="45.458" lon="3.50804">
        <ele>1044.3</ele>
      </trkpt>
      <trkpt lat="45.45801" lon="3.50824">
        <ele>1043.3</ele>
      </trkpt>
      <trkpt lat="45.45801" lon="3.50842">
        <ele>1042.6</ele>
      </trkpt>
      <trkpt lat="45.45801" lon="3.50868">
        <ele>1042</ele>
      </trkpt>
      <trkpt lat="45.45799" lon="3.50894">
        <ele>1041.3</ele>
      </trkpt>
      <trkpt lat="45.45797" lon="3.50919">
        <ele>1040.9</ele>
      </trkpt>
      <trkpt lat="45.45796" lon="3.50947">
        <ele>1043.3</ele>
      </trkpt>
      <trkpt lat="45.45794" lon="3.50964">
        <ele>1044.6</ele>
      </trkpt>
      <trkpt lat="45.45793" lon="3.5098">
        <ele>1045.9</ele>
      </trkpt>
      <trkpt lat="45.45793" lon="3.5098">
        <ele>1045.9</ele>
      </trkpt>
      <trkpt lat="45.4579" lon="3.5101">
        <ele>1047.8</ele>
      </trkpt>
      <trkpt lat="45.45788" lon="3.51031">
        <ele>1048.6</ele>
      </trkpt>
      <trkpt lat="45.45786" lon="3.51055">
        <ele>1049.6</ele>
      </trkpt>
      <trkpt lat="45.45785" lon="3.51085">
        <ele>1050.7</ele>
      </trkpt>
      <trkpt lat="45.45783" lon="3.51103">
        <ele>1050.7</ele>
      </trkpt>
      <trkpt lat="45.45782" lon="3.51122">
        <ele>1050.7</ele>
      </trkpt>
      <trkpt lat="45.4578" lon="3.51144">
        <ele>1050.7</ele>
      </trkpt>
      <trkpt lat="45.45777" lon="3.51172">
        <ele>1050.6</ele>
      </trkpt>
      <trkpt lat="45.45775" lon="3.51189">
        <ele>1050.4</ele>
      </trkpt>
      <trkpt lat="45.45773" lon="3.51205">
        <ele>1050.2</ele>
      </trkpt>
      <trkpt lat="45.45771" lon="3.51223">
        <ele>1050</ele>
      </trkpt>
      <trkpt lat="45.45768" lon="3.51249">
        <ele>1049.8</ele>
      </trkpt>
      <trkpt lat="45.45767" lon="3.5127">
        <ele>1049</ele>
      </trkpt>
      <trkpt lat="45.45766" lon="3.51288">
        <ele>1048.4</ele>
      </trkpt>
      <trkpt lat="45.45765" lon="3.5131">
        <ele>1047.8</ele>
      </trkpt>
      <trkpt lat="45.45765" lon="3.51327">
        <ele>1047.3</ele>
      </trkpt>
      <trkpt lat="45.45766" lon="3.51344">
        <ele>1046.9</ele>
      </trkpt>
      <trkpt lat="45.45767" lon="3.51361">
        <ele>1046.5</ele>
      </trkpt>
      <trkpt lat="45.45767" lon="3.51388">
        <ele>1045.9</ele>
      </trkpt>
      <trkpt lat="45.45763" lon="3.51419">
        <ele>1045.3</ele>
      </trkpt>
      <trkpt lat="45.45759" lon="3.5145">
        <ele>1044.5</ele>
      </trkpt>
      <trkpt lat="45.45754" lon="3.51481">
        <ele>1044</ele>
      </trkpt>
      <trkpt lat="45.4575" lon="3.51503">
        <ele>1043.5</ele>
      </trkpt>
      <trkpt lat="45.45746" lon="3.51525">
        <ele>1040</ele>
      </trkpt>
      <trkpt lat="45.45741" lon="3.51547">
        <ele>1036.6</ele>
      </trkpt>
      <trkpt lat="45.4574" lon="3.5157">
        <ele>1033.2</ele>
      </trkpt>
      <trkpt lat="45.45739" lon="3.51592">
        <ele>1029.8</ele>
      </trkpt>
      <trkpt lat="45.45737" lon="3.51615">
        <ele>1026.5</ele>
      </trkpt>
      <trkpt lat="45.45739" lon="3.51624">
        <ele>1025.1</ele>
      </trkpt>
      <trkpt lat="45.45739" lon="3.51624">
        <ele>1025.1</ele>
      </trkpt>
      <trkpt lat="45.45744" lon="3.51642">
        <ele>1022.1</ele>
      </trkpt>
      <trkpt lat="45.45747" lon="3.51652">
        <ele>1020.5</ele>
      </trkpt>
      <trkpt lat="45.45746" lon="3.51662">
        <ele>1019</ele>
      </trkpt>
      <trkpt lat="45.4575" lon="3.51666">
        <ele>1018.1</ele>
      </trkpt>
      <trkpt lat="45.45756" lon="3.51674">
        <ele>1017.9</ele>
      </trkpt>
      <trkpt lat="45.45759" lon="3.51681">
        <ele>1017.8</ele>
      </trkpt>
      <trkpt lat="45.45762" lon="3.5169">
        <ele>1017.6</ele>
      </trkpt>
      <trkpt lat="45.45764" lon="3.51698">
        <ele>1017.4</ele>
      </trkpt>
      <trkpt lat="45.45765" lon="3.51709">
        <ele>1017.1</ele>
      </trkpt>
      <trkpt lat="45.45768" lon="3.5173">
        <ele>1016.6</ele>
      </trkpt>
      <trkpt lat="45.45771" lon="3.51752">
        <ele>1016.3</ele>
      </trkpt>
      <trkpt lat="45.45774" lon="3.51775">
        <ele>1016.8</ele>
      </trkpt>
      <trkpt lat="45.45776" lon="3.51796">
        <ele>1017.3</ele>
      </trkpt>
      <trkpt lat="45.45779" lon="3.51818">
        <ele>1017.8</ele>
      </trkpt>
      <trkpt lat="45.45783" lon="3.51842">
        <ele>1018.7</ele>
      </trkpt>
      <trkpt lat="45.45786" lon="3.51866">
        <ele>1019.8</ele>
      </trkpt>
      <trkpt lat="45.45789" lon="3.51894">
        <ele>1021</ele>
      </trkpt>
      <trkpt lat="45.4579" lon="3.51911">
        <ele>1021.7</ele>
      </trkpt>
      <trkpt lat="45.45791" lon="3.5193">
        <ele>1022.5</ele>
      </trkpt>
      <trkpt lat="45.45792" lon="3.51948">
        <ele>1023.3</ele>
      </trkpt>
      <trkpt lat="45.45792" lon="3.51965">
        <ele>1024.1</ele>
      </trkpt>
      <trkpt lat="45.45792" lon="3.51986">
        <ele>1024.9</ele>
      </trkpt>
      <trkpt lat="45.45793" lon="3.52006">
        <ele>1025.8</ele>
      </trkpt>
      <trkpt lat="45.45794" lon="3.52024">
        <ele>1026.6</ele>
      </trkpt>
      <trkpt lat="45.45794" lon="3.52042">
        <ele>1027.3</ele>
      </trkpt>
      <trkpt lat="45.45795" lon="3.52059">
        <ele>1028.1</ele>
      </trkpt>
      <trkpt lat="45.45796" lon="3.52077">
        <ele>1028.8</ele>
      </trkpt>
      <trkpt lat="45.45796" lon="3.52097">
        <ele>1029.5</ele>
      </trkpt>
      <trkpt lat="45.45797" lon="3.52117">
        <ele>1030.2</ele>
      </trkpt>
      <trkpt lat="45.45798" lon="3.52145">
        <ele>1031</ele>
      </trkpt>
      <trkpt lat="45.45799" lon="3.52162">
        <ele>1031.5</ele>
      </trkpt>
      <trkpt lat="45.458" lon="3.52172">
        <ele>1031.8</ele>
      </trkpt>
      <trkpt lat="45.45803" lon="3.52184">
        <ele>1032.2</ele>
      </trkpt>
      <trkpt lat="45.45807" lon="3.52195">
        <ele>1032.3</ele>
      </trkpt>
      <trkpt lat="45.4581" lon="3.52201">
        <ele>1032.4</ele>
      </trkpt>
      <trkpt lat="45.45816" lon="3.52214">
        <ele>1032.2</ele>
      </trkpt>
      <trkpt lat="45.45826" lon="3.52232">
        <ele>1031.7</ele>
      </trkpt>
      <trkpt lat="45.45838" lon="3.52252">
        <ele>1031.3</ele>
      </trkpt>
      <trkpt lat="45.4585" lon="3.52272">
        <ele>1032.9</ele>
      </trkpt>
      <trkpt lat="45.4585" lon="3.52272">
        <ele>1032.9</ele>
      </trkpt>
      <trkpt lat="45.45863" lon="3.52295">
        <ele>1034.3</ele>
      </trkpt>
      <trkpt lat="45.45876" lon="3.52317">
        <ele>1035.2</ele>
      </trkpt>
      <trkpt lat="45.45885" lon="3.52332">
        <ele>1035.5</ele>
      </trkpt>
      <trkpt lat="45.45894" lon="3.52347">
        <ele>1035.9</ele>
      </trkpt>
      <trkpt lat="45.45903" lon="3.52364">
        <ele>1036.3</ele>
      </trkpt>
      <trkpt lat="45.45909" lon="3.52381">
        <ele>1036.8</ele>
      </trkpt>
      <trkpt lat="45.45912" lon="3.52389">
        <ele>1037</ele>
      </trkpt>
      <trkpt lat="45.45913" lon="3.52396">
        <ele>1037.3</ele>
      </trkpt>
      <trkpt lat="45.45914" lon="3.52406">
        <ele>1037.7</ele>
      </trkpt>
      <trkpt lat="45.45914" lon="3.52417">
        <ele>1038.3</ele>
      </trkpt>
      <trkpt lat="45.45913" lon="3.52427">
        <ele>1038.3</ele>
      </trkpt>
      <trkpt lat="45.45912" lon="3.52434">
        <ele>1038.4</ele>
      </trkpt>
      <trkpt lat="45.45909" lon="3.52446">
        <ele>1038.8</ele>
      </trkpt>
      <trkpt lat="45.45905" lon="3.52456">
        <ele>1039.3</ele>
      </trkpt>
      <trkpt lat="45.459" lon="3.52445">
        <ele>1039.7</ele>
      </trkpt>
      <trkpt lat="45.45897" lon="3.52436">
        <ele>1040</ele>
      </trkpt>
      <trkpt lat="45.45893" lon="3.52432">
        <ele>1040.3</ele>
      </trkpt>
      <trkpt lat="45.45888" lon="3.52428">
        <ele>1040.7</ele>
      </trkpt>
      <trkpt lat="45.4588" lon="3.52426">
        <ele>1041.3</ele>
      </trkpt>
      <trkpt lat="45.45863" lon="3.52423">
        <ele>1042.7</ele>
      </trkpt>
      <trkpt lat="45.45848" lon="3.52422">
        <ele>1044.1</ele>
      </trkpt>
      <trkpt lat="45.45832" lon="3.52421">
        <ele>1045.4</ele>
      </trkpt>
      <trkpt lat="45.45817" lon="3.52419">
        <ele>1046.1</ele>
      </trkpt>
      <trkpt lat="45.45802" lon="3.52416">
        <ele>1046.8</ele>
      </trkpt>
      <trkpt lat="45.45786" lon="3.52414">
        <ele>1047.7</ele>
      </trkpt>
      <trkpt lat="45.4577" lon="3.52412">
        <ele>1048.6</ele>
      </trkpt>
      <trkpt lat="45.45751" lon="3.52411">
        <ele>1049.7</ele>
      </trkpt>
      <trkpt lat="45.4574" lon="3.52411">
        <ele>1051</ele>
      </trkpt>
      <trkpt lat="45.45728" lon="3.52411">
        <ele>1052.3</ele>
      </trkpt>
      <trkpt lat="45.45715" lon="3.52413">
        <ele>1053.9</ele>
      </trkpt>
      <trkpt lat="45.45702" lon="3.52414">
        <ele>1055.5</ele>
      </trkpt>
      <trkpt lat="45.45684" lon="3.52416">
        <ele>1057.9</ele>
      </trkpt>
      <trkpt lat="45.45673" lon="3.52418">
        <ele>1059.3</ele>
      </trkpt>
      <trkpt lat="45.45674" lon="3.52431">
        <ele>1059.8</ele>
      </trkpt>
      <trkpt lat="45.45675" lon="3.52441">
        <ele>1060.2</ele>
      </trkpt>
      <trkpt lat="45.45677" lon="3.5245">
        <ele>1060.4</ele>
      </trkpt>
      <trkpt lat="45.45682" lon="3.52459">
        <ele>1060.4</ele>
      </trkpt>
      <trkpt lat="45.45687" lon="3.52468">
        <ele>1060.3</ele>
      </trkpt>
      <trkpt lat="45.45693" lon="3.5248">
        <ele>1060.4</ele>
      </trkpt>
      <trkpt lat="45.45699" lon="3.52496">
        <ele>1060.7</ele>
      </trkpt>
      <trkpt lat="45.45706" lon="3.5252">
        <ele>1061.7</ele>
      </trkpt>
      <trkpt lat="45.45706" lon="3.5252">
        <ele>1061.7</ele>
      </trkpt>
      <trkpt lat="45.45712" lon="3.52543">
        <ele>1062.7</ele>
      </trkpt>
      <trkpt lat="45.45717" lon="3.5256">
        <ele>1063.7</ele>
      </trkpt>
      <trkpt lat="45.45723" lon="3.52587">
        <ele>1065.3</ele>
      </trkpt>
      <trkpt lat="45.45728" lon="3.52614">
        <ele>1067.2</ele>
      </trkpt>
      <trkpt lat="45.45732" lon="3.52634">
        <ele>1068.6</ele>
      </trkpt>
      <trkpt lat="45.45736" lon="3.52654">
        <ele>1070</ele>
      </trkpt>
      <trkpt lat="45.4574" lon="3.52671">
        <ele>1071</ele>
      </trkpt>
      <trkpt lat="45.45744" lon="3.52689">
        <ele>1071.6</ele>
      </trkpt>
      <trkpt lat="45.4575" lon="3.52711">
        <ele>1072.1</ele>
      </trkpt>
      <trkpt lat="45.45759" lon="3.52737">
        <ele>1072.2</ele>
      </trkpt>
      <trkpt lat="45.45765" lon="3.52767">
        <ele>1072.8</ele>
      </trkpt>
      <trkpt lat="45.45767" lon="3.52788">
        <ele>1073.6</ele>
      </trkpt>
      <trkpt lat="45.45767" lon="3.52803">
        <ele>1074.4</ele>
      </trkpt>
      <trkpt lat="45.45766" lon="3.52815">
        <ele>1075.3</ele>
      </trkpt>
      <trkpt lat="45.45766" lon="3.52831">
        <ele>1076.2</ele>
      </trkpt>
      <trkpt lat="45.45767" lon="3.52848">
        <ele>1077.1</ele>
      </trkpt>
      <trkpt lat="45.45769" lon="3.52856">
        <ele>1077.2</ele>
      </trkpt>
      <trkpt lat="45.45774" lon="3.52865">
        <ele>1076.9</ele>
      </trkpt>
      <trkpt lat="45.45787" lon="3.52883">
        <ele>1076</ele>
      </trkpt>
      <trkpt lat="45.45801" lon="3.52901">
        <ele>1075</ele>
      </trkpt>
      <trkpt lat="45.45811" lon="3.52918">
        <ele>1074.6</ele>
      </trkpt>
      <trkpt lat="45.45822" lon="3.52936">
        <ele>1075.2</ele>
      </trkpt>
      <trkpt lat="45.45833" lon="3.52952">
        <ele>1076.1</ele>
      </trkpt>
      <trkpt lat="45.45845" lon="3.5297">
        <ele>1077.3</ele>
      </trkpt>
      <trkpt lat="45.45856" lon="3.52989">
        <ele>1079.1</ele>
      </trkpt>
      <trkpt lat="45.45865" lon="3.53003">
        <ele>1080.3</ele>
      </trkpt>
      <trkpt lat="45.45876" lon="3.53023">
        <ele>1081.3</ele>
      </trkpt>
      <trkpt lat="45.4589" lon="3.53048">
        <ele>1082.4</ele>
      </trkpt>
      <trkpt lat="45.45899" lon="3.53066">
        <ele>1083.2</ele>
      </trkpt>
      <trkpt lat="45.45905" lon="3.5308">
        <ele>1083.9</ele>
      </trkpt>
      <trkpt lat="45.45911" lon="3.53092">
        <ele>1083.9</ele>
      </trkpt>
      <trkpt lat="45.45911" lon="3.53092">
        <ele>1083.9</ele>
      </trkpt>
      <trkpt lat="45.45918" lon="3.53112">
        <ele>1083.9</ele>
      </trkpt>
      <trkpt lat="45.45924" lon="3.53128">
        <ele>1084.1</ele>
      </trkpt>
      <trkpt lat="45.45929" lon="3.53146">
        <ele>1084.4</ele>
      </trkpt>
      <trkpt lat="45.45934" lon="3.53165">
        <ele>1084.7</ele>
      </trkpt>
      <trkpt lat="45.4594" lon="3.53189">
        <ele>1084.9</ele>
      </trkpt>
      <trkpt lat="45.45946" lon="3.53212">
        <ele>1084.9</ele>
      </trkpt>
      <trkpt lat="45.45952" lon="3.53232">
        <ele>1084.6</ele>
      </trkpt>
      <trkpt lat="45.45957" lon="3.53252">
        <ele>1084.2</ele>
      </trkpt>
      <trkpt lat="45.45962" lon="3.53271">
        <ele>1083.3</ele>
      </trkpt>
      <trkpt lat="45.45968" lon="3.5329">
        <ele>1082.4</ele>
      </trkpt>
      <trkpt lat="45.4597" lon="3.53306">
        <ele>1081.9</ele>
      </trkpt>
      <trkpt lat="45.45974" lon="3.53315">
        <ele>1081.2</ele>
      </trkpt>
      <trkpt lat="45.45984" lon="3.53336">
        <ele>1079.5</ele>
      </trkpt>
      <trkpt lat="45.45987" lon="3.53344">
        <ele>1078.5</ele>
      </trkpt>
      <trkpt lat="45.45984" lon="3.53355">
        <ele>1078.5</ele>
      </trkpt>
      <trkpt lat="45.45982" lon="3.53372">
        <ele>1077.9</ele>
      </trkpt>
      <trkpt lat="45.4598" lon="3.53395">
        <ele>1077.1</ele>
      </trkpt>
      <trkpt lat="45.45976" lon="3.53413">
        <ele>1076.6</ele>
      </trkpt>
      <trkpt lat="45.45973" lon="3.53431">
        <ele>1075.8</ele>
      </trkpt>
      <trkpt lat="45.45969" lon="3.53455">
        <ele>1074.3</ele>
      </trkpt>
      <trkpt lat="45.45965" lon="3.53479">
        <ele>1072.8</ele>
      </trkpt>
      <trkpt lat="45.45959" lon="3.53504">
        <ele>1071.2</ele>
      </trkpt>
      <trkpt lat="45.45954" lon="3.53526">
        <ele>1070.1</ele>
      </trkpt>
      <trkpt lat="45.4595" lon="3.53548">
        <ele>1069</ele>
      </trkpt>
      <trkpt lat="45.45948" lon="3.53562">
        <ele>1068.2</ele>
      </trkpt>
      <trkpt lat="45.45946" lon="3.53578">
        <ele>1067.3</ele>
      </trkpt>
      <trkpt lat="45.45945" lon="3.53595">
        <ele>1065.9</ele>
      </trkpt>
      <trkpt lat="45.45945" lon="3.53604">
        <ele>1065.2</ele>
      </trkpt>
      <trkpt lat="45.45945" lon="3.53612">
        <ele>1064.4</ele>
      </trkpt>
      <trkpt lat="45.45946" lon="3.53622">
        <ele>1063.5</ele>
      </trkpt>
      <trkpt lat="45.45947" lon="3.53641">
        <ele>1061.8</ele>
      </trkpt>
      <trkpt lat="45.45949" lon="3.53658">
        <ele>1060.3</ele>
      </trkpt>
      <trkpt lat="45.45949" lon="3.53658">
        <ele>1060.3</ele>
      </trkpt>
      <trkpt lat="45.45949" lon="3.53676">
        <ele>1058.9</ele>
      </trkpt>
      <trkpt lat="45.45948" lon="3.53689">
        <ele>1058</ele>
      </trkpt>
      <trkpt lat="45.45946" lon="3.53698">
        <ele>1057.3</ele>
      </trkpt>
      <trkpt lat="45.45944" lon="3.53709">
        <ele>1056.4</ele>
      </trkpt>
      <trkpt lat="45.45938" lon="3.53734">
        <ele>1054.3</ele>
      </trkpt>
      <trkpt lat="45.45938" lon="3.53734">
        <ele>1054.3</ele>
      </trkpt>
      <trkpt lat="45.45933" lon="3.53755">
        <ele>1052.6</ele>
      </trkpt>
      <trkpt lat="45.45928" lon="3.53775">
        <ele>1051.5</ele>
      </trkpt>
      <trkpt lat="45.45932" lon="3.53779">
        <ele>1051.4</ele>
      </trkpt>
      <trkpt lat="45.45925" lon="3.53795">
        <ele>1050.4</ele>
      </trkpt>
      <trkpt lat="45.45919" lon="3.5381">
        <ele>1049.3</ele>
      </trkpt>
      <trkpt lat="45.45915" lon="3.53831">
        <ele>1048</ele>
      </trkpt>
      <trkpt lat="45.45913" lon="3.53841">
        <ele>1047.7</ele>
      </trkpt>
      <trkpt lat="45.45906" lon="3.53851">
        <ele>1047</ele>
      </trkpt>
      <trkpt lat="45.459" lon="3.5386">
        <ele>1046.5</ele>
      </trkpt>
      <trkpt lat="45.45894" lon="3.53871">
        <ele>1045.8</ele>
      </trkpt>
      <trkpt lat="45.45888" lon="3.53884">
        <ele>1045</ele>
      </trkpt>
      <trkpt lat="45.45883" lon="3.53897">
        <ele>1044.3</ele>
      </trkpt>
      <trkpt lat="45.45879" lon="3.53911">
        <ele>1043.6</ele>
      </trkpt>
      <trkpt lat="45.45877" lon="3.53929">
        <ele>1042.4</ele>
      </trkpt>
      <trkpt lat="45.45877" lon="3.53941">
        <ele>1041.5</ele>
      </trkpt>
      <trkpt lat="45.45877" lon="3.53952">
        <ele>1040.9</ele>
      </trkpt>
      <trkpt lat="45.45877" lon="3.53965">
        <ele>1040</ele>
      </trkpt>
      <trkpt lat="45.45876" lon="3.53994">
        <ele>1038</ele>
      </trkpt>
      <trkpt lat="45.45876" lon="3.54005">
        <ele>1037.4</ele>
      </trkpt>
      <trkpt lat="45.45877" lon="3.54012">
        <ele>1037.1</ele>
      </trkpt>
      <trkpt lat="45.45873" lon="3.54019">
        <ele>1036.7</ele>
      </trkpt>
      <trkpt lat="45.45869" lon="3.54022">
        <ele>1036.3</ele>
      </trkpt>
      <trkpt lat="45.45865" lon="3.54028">
        <ele>1035.9</ele>
      </trkpt>
      <trkpt lat="45.45861" lon="3.54034">
        <ele>1035.5</ele>
      </trkpt>
      <trkpt lat="45.45858" lon="3.54042">
        <ele>1034.9</ele>
      </trkpt>
      <trkpt lat="45.45856" lon="3.54051">
        <ele>1034.5</ele>
      </trkpt>
      <trkpt lat="45.45844" lon="3.54063">
        <ele>1033.3</ele>
      </trkpt>
      <trkpt lat="45.4584" lon="3.54067">
        <ele>1033</ele>
      </trkpt>
      <trkpt lat="45.45825" lon="3.54082">
        <ele>1031</ele>
      </trkpt>
      <trkpt lat="45.4581" lon="3.54097">
        <ele>1029.3</ele>
      </trkpt>
      <trkpt lat="45.4581" lon="3.54097">
        <ele>1029.3</ele>
      </trkpt>
      <trkpt lat="45.45799" lon="3.54108">
        <ele>1028.3</ele>
      </trkpt>
      <trkpt lat="45.45798" lon="3.54108">
        <ele>1028.3</ele>
      </trkpt>
      <trkpt lat="45.45794" lon="3.54112">
        <ele>1027.9</ele>
      </trkpt>
      <trkpt lat="45.45805" lon="3.54136">
        <ele>1029.2</ele>
      </trkpt>
      <trkpt lat="45.45815" lon="3.54159">
        <ele>1030.1</ele>
      </trkpt>
      <trkpt lat="45.45821" lon="3.54172">
        <ele>1030.2</ele>
      </trkpt>
      <trkpt lat="45.45816" lon="3.54177">
        <ele>1029.9</ele>
      </trkpt>
      <trkpt lat="45.45804" lon="3.54188">
        <ele>1029.2</ele>
      </trkpt>
      <trkpt lat="45.45794" lon="3.54202">
        <ele>1028.7</ele>
      </trkpt>
      <trkpt lat="45.45791" lon="3.5421">
        <ele>1028.5</ele>
      </trkpt>
      <trkpt lat="45.45791" lon="3.54219">
        <ele>1028.4</ele>
      </trkpt>
      <trkpt lat="45.45793" lon="3.5423">
        <ele>1028.2</ele>
      </trkpt>
      <trkpt lat="45.45793" lon="3.54242">
        <ele>1028.1</ele>
      </trkpt>
      <trkpt lat="45.45794" lon="3.54253">
        <ele>1027.8</ele>
      </trkpt>
      <trkpt lat="45.45794" lon="3.54262">
        <ele>1027.2</ele>
      </trkpt>
      <trkpt lat="45.45795" lon="3.54276">
        <ele>1026.3</ele>
      </trkpt>
      <trkpt lat="45.45795" lon="3.54276">
        <ele>1026.3</ele>
      </trkpt>
      <trkpt lat="45.45795" lon="3.54284">
        <ele>1025.8</ele>
      </trkpt>
      <trkpt lat="45.45794" lon="3.54296">
        <ele>1024.9</ele>
      </trkpt>
      <trkpt lat="45.45793" lon="3.54308">
        <ele>1024.2</ele>
      </trkpt>
      <trkpt lat="45.4579" lon="3.5432">
        <ele>1023.4</ele>
      </trkpt>
      <trkpt lat="45.45787" lon="3.54331">
        <ele>1022.7</ele>
      </trkpt>
      <trkpt lat="45.45785" lon="3.54345">
        <ele>1021.5</ele>
      </trkpt>
      <trkpt lat="45.45783" lon="3.54362">
        <ele>1019.8</ele>
      </trkpt>
      <trkpt lat="45.45782" lon="3.54375">
        <ele>1018.7</ele>
      </trkpt>
      <trkpt lat="45.45779" lon="3.54381">
        <ele>1018.1</ele>
      </trkpt>
      <trkpt lat="45.45773" lon="3.54392">
        <ele>1017.1</ele>
      </trkpt>
      <trkpt lat="45.45769" lon="3.54401">
        <ele>1016.3</ele>
      </trkpt>
      <trkpt lat="45.45764" lon="3.54408">
        <ele>1015.7</ele>
      </trkpt>
      <trkpt lat="45.4576" lon="3.54412">
        <ele>1015.3</ele>
      </trkpt>
      <trkpt lat="45.45755" lon="3.54417">
        <ele>1014.9</ele>
      </trkpt>
      <trkpt lat="45.45749" lon="3.54421">
        <ele>1014.7</ele>
      </trkpt>
      <trkpt lat="45.4574" lon="3.54426">
        <ele>1013.8</ele>
      </trkpt>
      <trkpt lat="45.4573" lon="3.54432">
        <ele>1012.8</ele>
      </trkpt>
      <trkpt lat="45.45721" lon="3.54438">
        <ele>1012</ele>
      </trkpt>
      <trkpt lat="45.45712" lon="3.54444">
        <ele>1011.2</ele>
      </trkpt>
      <trkpt lat="45.45705" lon="3.54449">
        <ele>1010.6</ele>
      </trkpt>
      <trkpt lat="45.45699" lon="3.54455">
        <ele>1010.2</ele>
      </trkpt>
      <trkpt lat="45.45694" lon="3.54462">
        <ele>1009.7</ele>
      </trkpt>
      <trkpt lat="45.45685" lon="3.54475">
        <ele>1009</ele>
      </trkpt>
      <trkpt lat="45.45677" lon="3.54488">
        <ele>1008.5</ele>
      </trkpt>
      <trkpt lat="45.45667" lon="3.54506">
        <ele>1008</ele>
      </trkpt>
      <trkpt lat="45.45662" lon="3.54516">
        <ele>1008.4</ele>
      </trkpt>
      <trkpt lat="45.45654" lon="3.54529">
        <ele>1008.9</ele>
      </trkpt>
      <trkpt lat="45.45647" lon="3.54543">
        <ele>1009.4</ele>
      </trkpt>
      <trkpt lat="45.4564" lon="3.54557">
        <ele>1009.9</ele>
      </trkpt>
      <trkpt lat="45.45631" lon="3.54574">
        <ele>1010.5</ele>
      </trkpt>
      <trkpt lat="45.45623" lon="3.54589">
        <ele>1011.3</ele>
      </trkpt>
      <trkpt lat="45.45611" lon="3.54606">
        <ele>1012.3</ele>
      </trkpt>
      <trkpt lat="45.45606" lon="3.54613">
        <ele>1012.7</ele>
      </trkpt>
      <trkpt lat="45.45598" lon="3.54609">
        <ele>1013.1</ele>
      </trkpt>
      <trkpt lat="45.45588" lon="3.54602">
        <ele>1013.7</ele>
      </trkpt>
      <trkpt lat="45.45574" lon="3.54595">
        <ele>1015.1</ele>
      </trkpt>
      <trkpt lat="45.4556" lon="3.54587">
        <ele>1016.6</ele>
      </trkpt>
      <trkpt lat="45.45549" lon="3.54579">
        <ele>1017.6</ele>
      </trkpt>
      <trkpt lat="45.45543" lon="3.54577">
        <ele>1018.2</ele>
      </trkpt>
      <trkpt lat="45.45536" lon="3.54575">
        <ele>1018.9</ele>
      </trkpt>
      <trkpt lat="45.45519" lon="3.54573">
        <ele>1020.5</ele>
      </trkpt>
      <trkpt lat="45.45506" lon="3.54571">
        <ele>1021.7</ele>
      </trkpt>
      <trkpt lat="45.45499" lon="3.54572">
        <ele>1022.4</ele>
      </trkpt>
      <trkpt lat="45.45491" lon="3.54573">
        <ele>1022.8</ele>
      </trkpt>
      <trkpt lat="45.45483" lon="3.54575">
        <ele>1023.3</ele>
      </trkpt>
      <trkpt lat="45.4547" lon="3.54582">
        <ele>1024.4</ele>
      </trkpt>
      <trkpt lat="45.45458" lon="3.54588">
        <ele>1025.2</ele>
      </trkpt>
      <trkpt lat="45.45458" lon="3.54588">
        <ele>1025.2</ele>
      </trkpt>
      <trkpt lat="45.45445" lon="3.54594">
        <ele>1026.1</ele>
      </trkpt>
      <trkpt lat="45.45432" lon="3.54601">
        <ele>1027.2</ele>
      </trkpt>
      <trkpt lat="45.45421" lon="3.54606">
        <ele>1028.1</ele>
      </trkpt>
      <trkpt lat="45.4541" lon="3.54611">
        <ele>1028.8</ele>
      </trkpt>
      <trkpt lat="45.45397" lon="3.54616">
        <ele>1029.2</ele>
      </trkpt>
      <trkpt lat="45.45375" lon="3.54622">
        <ele>1030</ele>
      </trkpt>
      <trkpt lat="45.4536" lon="3.54627">
        <ele>1030.7</ele>
      </trkpt>
      <trkpt lat="45.45346" lon="3.54631">
        <ele>1031.3</ele>
      </trkpt>
      <trkpt lat="45.45329" lon="3.54637">
        <ele>1032.2</ele>
      </trkpt>
      <trkpt lat="45.45308" lon="3.54644">
        <ele>1033.2</ele>
      </trkpt>
      <trkpt lat="45.45289" lon="3.54651">
        <ele>1033.8</ele>
      </trkpt>
      <trkpt lat="45.45272" lon="3.54657">
        <ele>1034</ele>
      </trkpt>
      <trkpt lat="45.45263" lon="3.5466">
        <ele>1034.1</ele>
      </trkpt>
      <trkpt lat="45.45251" lon="3.54662">
        <ele>1034</ele>
      </trkpt>
      <trkpt lat="45.4524" lon="3.54661">
        <ele>1034.8</ele>
      </trkpt>
      <trkpt lat="45.45232" lon="3.5466">
        <ele>1035.4</ele>
      </trkpt>
      <trkpt lat="45.45219" lon="3.54658">
        <ele>1036.5</ele>
      </trkpt>
      <trkpt lat="45.45211" lon="3.54657">
        <ele>1037.2</ele>
      </trkpt>
      <trkpt lat="45.45196" lon="3.54657">
        <ele>1038.5</ele>
      </trkpt>
      <trkpt lat="45.45182" lon="3.54658">
        <ele>1039.6</ele>
      </trkpt>
      <trkpt lat="45.45164" lon="3.54661">
        <ele>1041.2</ele>
      </trkpt>
      <trkpt lat="45.45146" lon="3.54664">
        <ele>1044.6</ele>
      </trkpt>
      <trkpt lat="45.45137" lon="3.54663">
        <ele>1046.7</ele>
      </trkpt>
      <trkpt lat="45.45119" lon="3.54661">
        <ele>1050.6</ele>
      </trkpt>
      <trkpt lat="45.451" lon="3.54656">
        <ele>1054.7</ele>
      </trkpt>
      <trkpt lat="45.45082" lon="3.54652">
        <ele>1058.7</ele>
      </trkpt>
      <trkpt lat="45.45063" lon="3.54647">
        <ele>1062</ele>
      </trkpt>
      <trkpt lat="45.45044" lon="3.54642">
        <ele>1065.5</ele>
      </trkpt>
      <trkpt lat="45.45028" lon="3.54633">
        <ele>1068.6</ele>
      </trkpt>
      <trkpt lat="45.45012" lon="3.54625">
        <ele>1071.9</ele>
      </trkpt>
      <trkpt lat="45.44996" lon="3.54616">
        <ele>1074.8</ele>
      </trkpt>
      <trkpt lat="45.44996" lon="3.54616">
        <ele>1074.8</ele>
      </trkpt>
      <trkpt lat="45.4498" lon="3.54607">
        <ele>1076.5</ele>
      </trkpt>
      <trkpt lat="45.44964" lon="3.54597">
        <ele>1078.3</ele>
      </trkpt>
      <trkpt lat="45.44952" lon="3.5459">
        <ele>1079.6</ele>
      </trkpt>
      <trkpt lat="45.44941" lon="3.54586">
        <ele>1080.8</ele>
      </trkpt>
      <trkpt lat="45.44928" lon="3.54584">
        <ele>1082</ele>
      </trkpt>
      <trkpt lat="45.44911" lon="3.54582">
        <ele>1083.8</ele>
      </trkpt>
      <trkpt lat="45.44896" lon="3.54581">
        <ele>1085.4</ele>
      </trkpt>
      <trkpt lat="45.44881" lon="3.54581">
        <ele>1087</ele>
      </trkpt>
      <trkpt lat="45.44862" lon="3.54581">
        <ele>1089.1</ele>
      </trkpt>
      <trkpt lat="45.44856" lon="3.54581">
        <ele>1089.7</ele>
      </trkpt>
      <trkpt lat="45.4484" lon="3.54584">
        <ele>1091.2</ele>
      </trkpt>
      <trkpt lat="45.44829" lon="3.54587">
        <ele>1092.4</ele>
      </trkpt>
      <trkpt lat="45.44819" lon="3.54593">
        <ele>1093.6</ele>
      </trkpt>
      <trkpt lat="45.44811" lon="3.54599">
        <ele>1094.5</ele>
      </trkpt>
      <trkpt lat="45.44804" lon="3.54607">
        <ele>1095.2</ele>
      </trkpt>
      <trkpt lat="45.44796" lon="3.54616">
        <ele>1096</ele>
      </trkpt>
      <trkpt lat="45.44788" lon="3.54628">
        <ele>1096.7</ele>
      </trkpt>
      <trkpt lat="45.44777" lon="3.54645">
        <ele>1097.7</ele>
      </trkpt>
      <trkpt lat="45.4477" lon="3.54657">
        <ele>1098.3</ele>
      </trkpt>
      <trkpt lat="45.44762" lon="3.5467">
        <ele>1099</ele>
      </trkpt>
      <trkpt lat="45.44753" lon="3.54687">
        <ele>1099.8</ele>
      </trkpt>
      <trkpt lat="45.4474" lon="3.54712">
        <ele>1101.1</ele>
      </trkpt>
      <trkpt lat="45.44727" lon="3.54734">
        <ele>1102.5</ele>
      </trkpt>
      <trkpt lat="45.4472" lon="3.54749">
        <ele>1103.5</ele>
      </trkpt>
      <trkpt lat="45.44713" lon="3.54763">
        <ele>1104.4</ele>
      </trkpt>
      <trkpt lat="45.44705" lon="3.54785">
        <ele>1105.2</ele>
      </trkpt>
      <trkpt lat="45.44698" lon="3.54807">
        <ele>1105.9</ele>
      </trkpt>
      <trkpt lat="45.44691" lon="3.54828">
        <ele>1106.4</ele>
      </trkpt>
      <trkpt lat="45.44691" lon="3.54854">
        <ele>1105.8</ele>
      </trkpt>
      <trkpt lat="45.44691" lon="3.54879">
        <ele>1105.2</ele>
      </trkpt>
      <trkpt lat="45.44691" lon="3.54904">
        <ele>1104.6</ele>
      </trkpt>
      <trkpt lat="45.44691" lon="3.54929">
        <ele>1104.4</ele>
      </trkpt>
      <trkpt lat="45.44692" lon="3.54953">
        <ele>1104.5</ele>
      </trkpt>
      <trkpt lat="45.44692" lon="3.54953">
        <ele>1104.5</ele>
      </trkpt>
      <trkpt lat="45.44693" lon="3.54978">
        <ele>1104.6</ele>
      </trkpt>
      <trkpt lat="45.44694" lon="3.55002">
        <ele>1104.8</ele>
      </trkpt>
      <trkpt lat="45.44693" lon="3.55028">
        <ele>1106.8</ele>
      </trkpt>
      <trkpt lat="45.44692" lon="3.55054">
        <ele>1108.7</ele>
      </trkpt>
      <trkpt lat="45.44691" lon="3.5508">
        <ele>1110.6</ele>
      </trkpt>
      <trkpt lat="45.4469" lon="3.55107">
        <ele>1111.5</ele>
      </trkpt>
      <trkpt lat="45.44684" lon="3.55134">
        <ele>1112.2</ele>
      </trkpt>
      <trkpt lat="45.44678" lon="3.5516">
        <ele>1112.4</ele>
      </trkpt>
      <trkpt lat="45.44671" lon="3.55187">
        <ele>1112</ele>
      </trkpt>
      <trkpt lat="45.44668" lon="3.5521">
        <ele>1111.5</ele>
      </trkpt>
      <trkpt lat="45.44664" lon="3.55234">
        <ele>1111</ele>
      </trkpt>
      <trkpt lat="45.44663" lon="3.55242">
        <ele>1110.8</ele>
      </trkpt>
      <trkpt lat="45.44664" lon="3.55251">
        <ele>1110.8</ele>
      </trkpt>
      <trkpt lat="45.44659" lon="3.55277">
        <ele>1111.4</ele>
      </trkpt>
      <trkpt lat="45.44654" lon="3.55302">
        <ele>1112</ele>
      </trkpt>
      <trkpt lat="45.4465" lon="3.55328">
        <ele>1112.8</ele>
      </trkpt>
      <trkpt lat="45.44645" lon="3.55354">
        <ele>1113</ele>
      </trkpt>
      <trkpt lat="45.44637" lon="3.55379">
        <ele>1113.2</ele>
      </trkpt>
      <trkpt lat="45.44629" lon="3.55404">
        <ele>1113.6</ele>
      </trkpt>
      <trkpt lat="45.4462" lon="3.55428">
        <ele>1114.3</ele>
      </trkpt>
      <trkpt lat="45.44612" lon="3.55453">
        <ele>1114.9</ele>
      </trkpt>
      <trkpt lat="45.44604" lon="3.55478">
        <ele>1115.3</ele>
      </trkpt>
      <trkpt lat="45.44596" lon="3.55503">
        <ele>1115.7</ele>
      </trkpt>
      <trkpt lat="45.44578" lon="3.55514">
        <ele>1115.5</ele>
      </trkpt>
      <trkpt lat="45.44559" lon="3.55525">
        <ele>1114.7</ele>
      </trkpt>
      <trkpt lat="45.4454" lon="3.55536">
        <ele>1114.2</ele>
      </trkpt>
      <trkpt lat="45.44522" lon="3.55547">
        <ele>1114.1</ele>
      </trkpt>
      <trkpt lat="45.44522" lon="3.55547">
        <ele>1114.1</ele>
      </trkpt>
      <trkpt lat="45.44505" lon="3.55558">
        <ele>1114.4</ele>
      </trkpt>
      <trkpt lat="45.44488" lon="3.5557">
        <ele>1115.2</ele>
      </trkpt>
      <trkpt lat="45.44471" lon="3.55581">
        <ele>1115.9</ele>
      </trkpt>
      <trkpt lat="45.44453" lon="3.55593">
        <ele>1115.9</ele>
      </trkpt>
      <trkpt lat="45.44436" lon="3.55604">
        <ele>1115.8</ele>
      </trkpt>
      <trkpt lat="45.44415" lon="3.55608">
        <ele>1114.9</ele>
      </trkpt>
      <trkpt lat="45.44394" lon="3.55611">
        <ele>1113.6</ele>
      </trkpt>
      <trkpt lat="45.44373" lon="3.55615">
        <ele>1112.3</ele>
      </trkpt>
      <trkpt lat="45.44352" lon="3.55618">
        <ele>1110.9</ele>
      </trkpt>
      <trkpt lat="45.44331" lon="3.55622">
        <ele>1109.8</ele>
      </trkpt>
      <trkpt lat="45.44316" lon="3.55624">
        <ele>1110.3</ele>
      </trkpt>
      <trkpt lat="45.44304" lon="3.55626">
        <ele>1110.8</ele>
      </trkpt>
      <trkpt lat="45.44291" lon="3.55629">
        <ele>1111.3</ele>
      </trkpt>
      <trkpt lat="45.4428" lon="3.55633">
        <ele>1111.8</ele>
      </trkpt>
      <trkpt lat="45.44271" lon="3.55637">
        <ele>1112.2</ele>
      </trkpt>
      <trkpt lat="45.44264" lon="3.5564">
        <ele>1112.5</ele>
      </trkpt>
      <trkpt lat="45.44259" lon="3.55644">
        <ele>1112.8</ele>
      </trkpt>
      <trkpt lat="45.4425" lon="3.55652">
        <ele>1113.3</ele>
      </trkpt>
      <trkpt lat="45.44239" lon="3.55664">
        <ele>1112.8</ele>
      </trkpt>
      <trkpt lat="45.44226" lon="3.55685">
        <ele>1112.4</ele>
      </trkpt>
      <trkpt lat="45.44213" lon="3.55706">
        <ele>1111.9</ele>
      </trkpt>
      <trkpt lat="45.442" lon="3.55727">
        <ele>1111.3</ele>
      </trkpt>
      <trkpt lat="45.44188" lon="3.55749">
        <ele>1110.5</ele>
      </trkpt>
      <trkpt lat="45.44186" lon="3.55778">
        <ele>1109.9</ele>
      </trkpt>
      <trkpt lat="45.44184" lon="3.55807">
        <ele>1109.2</ele>
      </trkpt>
      <trkpt lat="45.44183" lon="3.55836">
        <ele>1108.1</ele>
      </trkpt>
      <trkpt lat="45.44184" lon="3.55858">
        <ele>1105.9</ele>
      </trkpt>
      <trkpt lat="45.44186" lon="3.55879">
        <ele>1103.6</ele>
      </trkpt>
      <trkpt lat="45.44186" lon="3.55879">
        <ele>1103.6</ele>
      </trkpt>
      <trkpt lat="45.44184" lon="3.55903">
        <ele>1100.7</ele>
      </trkpt>
      <trkpt lat="45.44166" lon="3.55914">
        <ele>1097.2</ele>
      </trkpt>
      <trkpt lat="45.44146" lon="3.55915">
        <ele>1095.1</ele>
      </trkpt>
      <trkpt lat="45.44126" lon="3.55916">
        <ele>1093.1</ele>
      </trkpt>
      <trkpt lat="45.44123" lon="3.55928">
        <ele>1092.2</ele>
      </trkpt>
      <trkpt lat="45.44119" lon="3.55942">
        <ele>1091.4</ele>
      </trkpt>
      <trkpt lat="45.44116" lon="3.55967">
        <ele>1090.3</ele>
      </trkpt>
      <trkpt lat="45.44113" lon="3.55985">
        <ele>1089.5</ele>
      </trkpt>
      <trkpt lat="45.4411" lon="3.56006">
        <ele>1088.8</ele>
      </trkpt>
      <trkpt lat="45.44106" lon="3.56031">
        <ele>1088.1</ele>
      </trkpt>
      <trkpt lat="45.44103" lon="3.56061">
        <ele>1087.4</ele>
      </trkpt>
      <trkpt lat="45.44103" lon="3.56079">
        <ele>1086.9</ele>
      </trkpt>
      <trkpt lat="45.44102" lon="3.561">
        <ele>1085.7</ele>
      </trkpt>
      <trkpt lat="45.44101" lon="3.56121">
        <ele>1084.3</ele>
      </trkpt>
      <trkpt lat="45.44099" lon="3.56146">
        <ele>1082.7</ele>
      </trkpt>
      <trkpt lat="45.44096" lon="3.56174">
        <ele>1080.8</ele>
      </trkpt>
      <trkpt lat="45.44093" lon="3.56189">
        <ele>1079.7</ele>
      </trkpt>
      <trkpt lat="45.4409" lon="3.56196">
        <ele>1079.3</ele>
      </trkpt>
      <trkpt lat="45.44087" lon="3.56201">
        <ele>1078.9</ele>
      </trkpt>
      <trkpt lat="45.44083" lon="3.56206">
        <ele>1078.6</ele>
      </trkpt>
      <trkpt lat="45.44072" lon="3.56215">
        <ele>1076.5</ele>
      </trkpt>
      <trkpt lat="45.44062" lon="3.56223">
        <ele>1074.5</ele>
      </trkpt>
      <trkpt lat="45.44053" lon="3.56232">
        <ele>1072.4</ele>
      </trkpt>
      <trkpt lat="45.44042" lon="3.56241">
        <ele>1069.9</ele>
      </trkpt>
      <trkpt lat="45.44038" lon="3.56248">
        <ele>1068.6</ele>
      </trkpt>
      <trkpt lat="45.44035" lon="3.56253">
        <ele>1067.8</ele>
      </trkpt>
      <trkpt lat="45.4403" lon="3.56264">
        <ele>1066.4</ele>
      </trkpt>
      <trkpt lat="45.44027" lon="3.56271">
        <ele>1065.6</ele>
      </trkpt>
      <trkpt lat="45.44024" lon="3.56279">
        <ele>1064.6</ele>
      </trkpt>
      <trkpt lat="45.44018" lon="3.56287">
        <ele>1063.5</ele>
      </trkpt>
      <trkpt lat="45.44012" lon="3.56289">
        <ele>1062.8</ele>
      </trkpt>
      <trkpt lat="45.44004" lon="3.56285">
        <ele>1062.1</ele>
      </trkpt>
      <trkpt lat="45.43993" lon="3.56277">
        <ele>1061</ele>
      </trkpt>
      <trkpt lat="45.43984" lon="3.56269">
        <ele>1059.9</ele>
      </trkpt>
      <trkpt lat="45.43984" lon="3.56297">
        <ele>1058.8</ele>
      </trkpt>
      <trkpt lat="45.43982" lon="3.56312">
        <ele>1057.8</ele>
      </trkpt>
      <trkpt lat="45.43971" lon="3.56318">
        <ele>1055.8</ele>
      </trkpt>
      <trkpt lat="45.43961" lon="3.56324">
        <ele>1053.9</ele>
      </trkpt>
      <trkpt lat="45.43961" lon="3.56324">
        <ele>1053.9</ele>
      </trkpt>
      <trkpt lat="45.43959" lon="3.5633">
        <ele>1053.3</ele>
      </trkpt>
      <trkpt lat="45.43958" lon="3.56337">
        <ele>1053</ele>
      </trkpt>
      <trkpt lat="45.43958" lon="3.56346">
        <ele>1052.8</ele>
      </trkpt>
      <trkpt lat="45.43958" lon="3.56356">
        <ele>1052.8</ele>
      </trkpt>
      <trkpt lat="45.43958" lon="3.56364">
        <ele>1052.8</ele>
      </trkpt>
      <trkpt lat="45.43959" lon="3.56372">
        <ele>1052.9</ele>
      </trkpt>
      <trkpt lat="45.43964" lon="3.56382">
        <ele>1053.6</ele>
      </trkpt>
      <trkpt lat="45.4396" lon="3.56389">
        <ele>1052.9</ele>
      </trkpt>
      <trkpt lat="45.43957" lon="3.56394">
        <ele>1052.4</ele>
      </trkpt>
      <trkpt lat="45.4395" lon="3.56402">
        <ele>1051.3</ele>
      </trkpt>
      <trkpt lat="45.4394" lon="3.56411">
        <ele>1049.7</ele>
      </trkpt>
      <trkpt lat="45.43936" lon="3.56415">
        <ele>1049</ele>
      </trkpt>
      <trkpt lat="45.43929" lon="3.56423">
        <ele>1047.8</ele>
      </trkpt>
      <trkpt lat="45.43924" lon="3.56433">
        <ele>1046.9</ele>
      </trkpt>
      <trkpt lat="45.43922" lon="3.5644">
        <ele>1046.5</ele>
      </trkpt>
      <trkpt lat="45.43921" lon="3.56448">
        <ele>1046.2</ele>
      </trkpt>
      <trkpt lat="45.43921" lon="3.56459">
        <ele>1046.2</ele>
      </trkpt>
      <trkpt lat="45.43924" lon="3.56475">
        <ele>1046.4</ele>
      </trkpt>
      <trkpt lat="45.43927" lon="3.56488">
        <ele>1046.6</ele>
      </trkpt>
      <trkpt lat="45.4393" lon="3.56506">
        <ele>1046.6</ele>
      </trkpt>
      <trkpt lat="45.43932" lon="3.56521">
        <ele>1046</ele>
      </trkpt>
      <trkpt lat="45.43936" lon="3.56547">
        <ele>1045</ele>
      </trkpt>
      <trkpt lat="45.43938" lon="3.56559">
        <ele>1044.5</ele>
      </trkpt>
      <trkpt lat="45.43941" lon="3.5657">
        <ele>1044.2</ele>
      </trkpt>
      <trkpt lat="45.43944" lon="3.56579">
        <ele>1043.9</ele>
      </trkpt>
      <trkpt lat="45.43949" lon="3.56594">
        <ele>1043.1</ele>
      </trkpt>
      <trkpt lat="45.43956" lon="3.56611">
        <ele>1042.2</ele>
      </trkpt>
      <trkpt lat="45.43959" lon="3.56622">
        <ele>1041.6</ele>
      </trkpt>
      <trkpt lat="45.43961" lon="3.5663">
        <ele>1041.1</ele>
      </trkpt>
      <trkpt lat="45.43962" lon="3.56638">
        <ele>1040.5</ele>
      </trkpt>
      <trkpt lat="45.43962" lon="3.56648">
        <ele>1039.7</ele>
      </trkpt>
      <trkpt lat="45.43962" lon="3.5666">
        <ele>1038.6</ele>
      </trkpt>
      <trkpt lat="45.43962" lon="3.56677">
        <ele>1037.2</ele>
      </trkpt>
      <trkpt lat="45.43962" lon="3.56692">
        <ele>1036.1</ele>
      </trkpt>
      <trkpt lat="45.43962" lon="3.56704">
        <ele>1035.2</ele>
      </trkpt>
      <trkpt lat="45.43962" lon="3.5672">
        <ele>1034</ele>
      </trkpt>
      <trkpt lat="45.43962" lon="3.56737">
        <ele>1032.8</ele>
      </trkpt>
      <trkpt lat="45.43962" lon="3.56754">
        <ele>1031.6</ele>
      </trkpt>
      <trkpt lat="45.43961" lon="3.56768">
        <ele>1030.9</ele>
      </trkpt>
      <trkpt lat="45.43959" lon="3.56777">
        <ele>1030.4</ele>
      </trkpt>
      <trkpt lat="45.43955" lon="3.56786">
        <ele>1029.8</ele>
      </trkpt>
      <trkpt lat="45.43951" lon="3.56793">
        <ele>1029.2</ele>
      </trkpt>
      <trkpt lat="45.43948" lon="3.568">
        <ele>1028.7</ele>
      </trkpt>
      <trkpt lat="45.43943" lon="3.56808">
        <ele>1028.2</ele>
      </trkpt>
      <trkpt lat="45.43935" lon="3.56819">
        <ele>1027.3</ele>
      </trkpt>
      <trkpt lat="45.43929" lon="3.56828">
        <ele>1026.8</ele>
      </trkpt>
      <trkpt lat="45.43921" lon="3.5684">
        <ele>1025.8</ele>
      </trkpt>
      <trkpt lat="45.43916" lon="3.56846">
        <ele>1025.1</ele>
      </trkpt>
      <trkpt lat="45.4391" lon="3.56851">
        <ele>1024.1</ele>
      </trkpt>
      <trkpt lat="45.43902" lon="3.56856">
        <ele>1023.2</ele>
      </trkpt>
      <trkpt lat="45.43889" lon="3.56863">
        <ele>1021.7</ele>
      </trkpt>
      <trkpt lat="45.43876" lon="3.5687">
        <ele>1020.3</ele>
      </trkpt>
      <trkpt lat="45.43861" lon="3.56876">
        <ele>1018.9</ele>
      </trkpt>
      <trkpt lat="45.43861" lon="3.56876">
        <ele>1018.9</ele>
      </trkpt>
      <trkpt lat="45.43851" lon="3.56881">
        <ele>1018.1</ele>
      </trkpt>
      <trkpt lat="45.43839" lon="3.56885">
        <ele>1017.2</ele>
      </trkpt>
      <trkpt lat="45.43824" lon="3.5689">
        <ele>1015.9</ele>
      </trkpt>
      <trkpt lat="45.4381" lon="3.56894">
        <ele>1014.9</ele>
      </trkpt>
      <trkpt lat="45.43802" lon="3.56897">
        <ele>1014.3</ele>
      </trkpt>
      <trkpt lat="45.43781" lon="3.56905">
        <ele>1012.9</ele>
      </trkpt>
      <trkpt lat="45.43765" lon="3.56913">
        <ele>1011.9</ele>
      </trkpt>
      <trkpt lat="45.43758" lon="3.56919">
        <ele>1011.4</ele>
      </trkpt>
      <trkpt lat="45.43754" lon="3.56923">
        <ele>1011.1</ele>
      </trkpt>
      <trkpt lat="45.43749" lon="3.5693">
        <ele>1010.6</ele>
      </trkpt>
      <trkpt lat="45.43746" lon="3.56941">
        <ele>1010.2</ele>
      </trkpt>
      <trkpt lat="45.43746" lon="3.5695">
        <ele>1010</ele>
      </trkpt>
      <trkpt lat="45.43749" lon="3.56956">
        <ele>1010</ele>
      </trkpt>
      <trkpt lat="45.43751" lon="3.56972">
        <ele>1009.7</ele>
      </trkpt>
      <trkpt lat="45.43752" lon="3.5699">
        <ele>1009.3</ele>
      </trkpt>
      <trkpt lat="45.43754" lon="3.5701">
        <ele>1008.9</ele>
      </trkpt>
      <trkpt lat="45.43757" lon="3.57037">
        <ele>1008.2</ele>
      </trkpt>
      <trkpt lat="45.43758" lon="3.57062">
        <ele>1007.7</ele>
      </trkpt>
      <trkpt lat="45.43759" lon="3.5708">
        <ele>1007.2</ele>
      </trkpt>
      <trkpt lat="45.43759" lon="3.5709">
        <ele>1006.9</ele>
      </trkpt>
      <trkpt lat="45.43758" lon="3.571">
        <ele>1006.6</ele>
      </trkpt>
      <trkpt lat="45.43756" lon="3.57111">
        <ele>1006.3</ele>
      </trkpt>
      <trkpt lat="45.43753" lon="3.57121">
        <ele>1006.1</ele>
      </trkpt>
      <trkpt lat="45.43749" lon="3.57135">
        <ele>1005.7</ele>
      </trkpt>
      <trkpt lat="45.43746" lon="3.57146">
        <ele>1005.3</ele>
      </trkpt>
      <trkpt lat="45.43743" lon="3.57158">
        <ele>1004.8</ele>
      </trkpt>
      <trkpt lat="45.43738" lon="3.57174">
        <ele>1004.3</ele>
      </trkpt>
      <trkpt lat="45.43732" lon="3.5719">
        <ele>1003.8</ele>
      </trkpt>
      <trkpt lat="45.43727" lon="3.57205">
        <ele>1003.4</ele>
      </trkpt>
      <trkpt lat="45.4372" lon="3.57223">
        <ele>1002.9</ele>
      </trkpt>
      <trkpt lat="45.43716" lon="3.57237">
        <ele>1002.7</ele>
      </trkpt>
      <trkpt lat="45.43712" lon="3.57252">
        <ele>1002.5</ele>
      </trkpt>
      <trkpt lat="45.43708" lon="3.57269">
        <ele>1002.3</ele>
      </trkpt>
      <trkpt lat="45.43701" lon="3.57292">
        <ele>1002.1</ele>
      </trkpt>
      <trkpt lat="45.43694" lon="3.57314">
        <ele>1002.1</ele>
      </trkpt>
      <trkpt lat="45.43688" lon="3.57332">
        <ele>1002.2</ele>
      </trkpt>
      <trkpt lat="45.43682" lon="3.57345">
        <ele>1002.1</ele>
      </trkpt>
      <trkpt lat="45.43677" lon="3.57356">
        <ele>1002</ele>
      </trkpt>
      <trkpt lat="45.43672" lon="3.57365">
        <ele>1002</ele>
      </trkpt>
      <trkpt lat="45.43667" lon="3.57372">
        <ele>1002</ele>
      </trkpt>
      <trkpt lat="45.43662" lon="3.57381">
        <ele>1002.2</ele>
      </trkpt>
      <trkpt lat="45.43662" lon="3.57381">
        <ele>1002.2</ele>
      </trkpt>
      <trkpt lat="45.43656" lon="3.57389">
        <ele>1002.6</ele>
      </trkpt>
      <trkpt lat="45.4364" lon="3.57411">
        <ele>1003.9</ele>
      </trkpt>
      <trkpt lat="45.43624" lon="3.57433">
        <ele>1004.2</ele>
      </trkpt>
      <trkpt lat="45.4361" lon="3.57448">
        <ele>1004.4</ele>
      </trkpt>
      <trkpt lat="45.43596" lon="3.57463">
        <ele>1004.4</ele>
      </trkpt>
      <trkpt lat="45.43582" lon="3.57478">
        <ele>1004.1</ele>
      </trkpt>
      <trkpt lat="45.4357" lon="3.57501">
        <ele>1002</ele>
      </trkpt>
      <trkpt lat="45.43557" lon="3.57525">
        <ele>999.5</ele>
      </trkpt>
      <trkpt lat="45.43545" lon="3.57548">
        <ele>996.7</ele>
      </trkpt>
      <trkpt lat="45.43537" lon="3.57567">
        <ele>994.5</ele>
      </trkpt>
      <trkpt lat="45.43528" lon="3.57585">
        <ele>992.2</ele>
      </trkpt>
      <trkpt lat="45.43525" lon="3.57591">
        <ele>991.6</ele>
      </trkpt>
      <trkpt lat="45.43522" lon="3.57598">
        <ele>990.9</ele>
      </trkpt>
      <trkpt lat="45.43516" lon="3.57615">
        <ele>989.4</ele>
      </trkpt>
      <trkpt lat="45.43508" lon="3.5764">
        <ele>987.2</ele>
      </trkpt>
      <trkpt lat="45.43499" lon="3.57666">
        <ele>985</ele>
      </trkpt>
      <trkpt lat="45.43491" lon="3.57689">
        <ele>987.7</ele>
      </trkpt>
      <trkpt lat="45.43487" lon="3.577">
        <ele>988.9</ele>
      </trkpt>
      <trkpt lat="45.43483" lon="3.57708">
        <ele>989.8</ele>
      </trkpt>
      <trkpt lat="45.43479" lon="3.57715">
        <ele>990.5</ele>
      </trkpt>
      <trkpt lat="45.43472" lon="3.57728">
        <ele>991.8</ele>
      </trkpt>
      <trkpt lat="45.43462" lon="3.57749">
        <ele>993.9</ele>
      </trkpt>
      <trkpt lat="45.43451" lon="3.5777">
        <ele>995.7</ele>
      </trkpt>
      <trkpt lat="45.43445" lon="3.57779">
        <ele>996.3</ele>
      </trkpt>
      <trkpt lat="45.43436" lon="3.57787">
        <ele>996.8</ele>
      </trkpt>
      <trkpt lat="45.43431" lon="3.5779">
        <ele>996.9</ele>
      </trkpt>
      <trkpt lat="45.43424" lon="3.57795">
        <ele>997.1</ele>
      </trkpt>
      <trkpt lat="45.43418" lon="3.57806">
        <ele>997.8</ele>
      </trkpt>
      <trkpt lat="45.43413" lon="3.57816">
        <ele>998.2</ele>
      </trkpt>
      <trkpt lat="45.43409" lon="3.57826">
        <ele>998.6</ele>
      </trkpt>
      <trkpt lat="45.43407" lon="3.57837">
        <ele>999.1</ele>
      </trkpt>
      <trkpt lat="45.43405" lon="3.57846">
        <ele>999.3</ele>
      </trkpt>
      <trkpt lat="45.43404" lon="3.57856">
        <ele>999.7</ele>
      </trkpt>
      <trkpt lat="45.43404" lon="3.57863">
        <ele>1000</ele>
      </trkpt>
      <trkpt lat="45.43406" lon="3.57878">
        <ele>1000.9</ele>
      </trkpt>
      <trkpt lat="45.43408" lon="3.57886">
        <ele>1001.5</ele>
      </trkpt>
      <trkpt lat="45.43411" lon="3.57896">
        <ele>1002.3</ele>
      </trkpt>
      <trkpt lat="45.43411" lon="3.57896">
        <ele>1002.3</ele>
      </trkpt>
      <trkpt lat="45.43415" lon="3.57904">
        <ele>1003.1</ele>
      </trkpt>
      <trkpt lat="45.43418" lon="3.57912">
        <ele>1003.8</ele>
      </trkpt>
      <trkpt lat="45.43421" lon="3.57922">
        <ele>1004.1</ele>
      </trkpt>
      <trkpt lat="45.43427" lon="3.57939">
        <ele>1004</ele>
      </trkpt>
      <trkpt lat="45.43431" lon="3.5795">
        <ele>1003.9</ele>
      </trkpt>
      <trkpt lat="45.43434" lon="3.57958">
        <ele>1003.9</ele>
      </trkpt>
      <trkpt lat="45.43438" lon="3.57966">
        <ele>1004</ele>
      </trkpt>
      <trkpt lat="45.43443" lon="3.57975">
        <ele>1004.1</ele>
      </trkpt>
      <trkpt lat="45.43447" lon="3.5798">
        <ele>1004.2</ele>
      </trkpt>
      <trkpt lat="45.43454" lon="3.5799">
        <ele>1004.4</ele>
      </trkpt>
      <trkpt lat="45.43459" lon="3.57994">
        <ele>1004.6</ele>
      </trkpt>
      <trkpt lat="45.43464" lon="3.57998">
        <ele>1004.9</ele>
      </trkpt>
      <trkpt lat="45.43469" lon="3.58002">
        <ele>1005.1</ele>
      </trkpt>
      <trkpt lat="45.43474" lon="3.58006">
        <ele>1005.2</ele>
      </trkpt>
      <trkpt lat="45.43481" lon="3.58012">
        <ele>1005.3</ele>
      </trkpt>
      <trkpt lat="45.43486" lon="3.58017">
        <ele>1005.4</ele>
      </trkpt>
      <trkpt lat="45.43495" lon="3.58029">
        <ele>1005.6</ele>
      </trkpt>
      <trkpt lat="45.43504" lon="3.58041">
        <ele>1005.7</ele>
      </trkpt>
      <trkpt lat="45.43516" lon="3.58058">
        <ele>1005.8</ele>
      </trkpt>
      <trkpt lat="45.43525" lon="3.5807">
        <ele>1006.2</ele>
      </trkpt>
      <trkpt lat="45.4353" lon="3.58077">
        <ele>1006.5</ele>
      </trkpt>
      <trkpt lat="45.43538" lon="3.5809">
        <ele>1007.3</ele>
      </trkpt>
      <trkpt lat="45.43541" lon="3.58096">
        <ele>1007.7</ele>
      </trkpt>
      <trkpt lat="45.43544" lon="3.58104">
        <ele>1008</ele>
      </trkpt>
      <trkpt lat="45.43547" lon="3.58117">
        <ele>1008.5</ele>
      </trkpt>
      <trkpt lat="45.43549" lon="3.58128">
        <ele>1008.8</ele>
      </trkpt>
      <trkpt lat="45.4355" lon="3.58137">
        <ele>1009.1</ele>
      </trkpt>
      <trkpt lat="45.4355" lon="3.58146">
        <ele>1009.2</ele>
      </trkpt>
      <trkpt lat="45.43548" lon="3.58156">
        <ele>1009.3</ele>
      </trkpt>
      <trkpt lat="45.43545" lon="3.58167">
        <ele>1009.3</ele>
      </trkpt>
      <trkpt lat="45.43543" lon="3.58176">
        <ele>1009</ele>
      </trkpt>
      <trkpt lat="45.43539" lon="3.58189">
        <ele>1008.7</ele>
      </trkpt>
      <trkpt lat="45.43535" lon="3.58203">
        <ele>1008.4</ele>
      </trkpt>
      <trkpt lat="45.43533" lon="3.58216">
        <ele>1008.1</ele>
      </trkpt>
      <trkpt lat="45.43532" lon="3.58226">
        <ele>1008</ele>
      </trkpt>
      <trkpt lat="45.4353" lon="3.58239">
        <ele>1007.8</ele>
      </trkpt>
      <trkpt lat="45.43528" lon="3.58255">
        <ele>1007.4</ele>
      </trkpt>
      <trkpt lat="45.43528" lon="3.58268">
        <ele>1006.6</ele>
      </trkpt>
      <trkpt lat="45.43527" lon="3.58279">
        <ele>1005.9</ele>
      </trkpt>
      <trkpt lat="45.43529" lon="3.58286">
        <ele>1005.6</ele>
      </trkpt>
      <trkpt lat="45.4353" lon="3.58292">
        <ele>1005.3</ele>
      </trkpt>
      <trkpt lat="45.43535" lon="3.58302">
        <ele>1005.1</ele>
      </trkpt>
      <trkpt lat="45.43538" lon="3.58309">
        <ele>1005</ele>
      </trkpt>
      <trkpt lat="45.43541" lon="3.58319">
        <ele>1004.7</ele>
      </trkpt>
      <trkpt lat="45.43543" lon="3.58329">
        <ele>1004.4</ele>
      </trkpt>
      <trkpt lat="45.43545" lon="3.58338">
        <ele>1004.4</ele>
      </trkpt>
      <trkpt lat="45.43543" lon="3.58356">
        <ele>1004.6</ele>
      </trkpt>
      <trkpt lat="45.43547" lon="3.58363">
        <ele>1005.2</ele>
      </trkpt>
      <trkpt lat="45.43547" lon="3.58377">
        <ele>1005.5</ele>
      </trkpt>
      <trkpt lat="45.43528" lon="3.58369">
        <ele>1003.5</ele>
      </trkpt>
      <trkpt lat="45.43508" lon="3.58361">
        <ele>1001.4</ele>
      </trkpt>
      <trkpt lat="45.43491" lon="3.58361">
        <ele>1000.2</ele>
      </trkpt>
      <trkpt lat="45.43473" lon="3.58362">
        <ele>999.4</ele>
      </trkpt>
      <trkpt lat="45.43473" lon="3.58362">
        <ele>999.4</ele>
      </trkpt>
      <trkpt lat="45.43455" lon="3.58363">
        <ele>998.6</ele>
      </trkpt>
      <trkpt lat="45.43434" lon="3.58368">
        <ele>998</ele>
      </trkpt>
      <trkpt lat="45.43413" lon="3.58372">
        <ele>997.9</ele>
      </trkpt>
      <trkpt lat="45.43391" lon="3.58377">
        <ele>999</ele>
      </trkpt>
      <trkpt lat="45.4337" lon="3.58382">
        <ele>1000</ele>
      </trkpt>
      <trkpt lat="45.43349" lon="3.58387">
        <ele>1001.1</ele>
      </trkpt>
      <trkpt lat="45.43327" lon="3.58392">
        <ele>1001.9</ele>
      </trkpt>
      <trkpt lat="45.43315" lon="3.5839">
        <ele>1001.7</ele>
      </trkpt>
      <trkpt lat="45.43303" lon="3.58388">
        <ele>1001.5</ele>
      </trkpt>
      <trkpt lat="45.43291" lon="3.58386">
        <ele>1001.4</ele>
      </trkpt>
      <trkpt lat="45.43272" lon="3.58385">
        <ele>1001.3</ele>
      </trkpt>
      <trkpt lat="45.43253" lon="3.58385">
        <ele>1001.2</ele>
      </trkpt>
      <trkpt lat="45.43236" lon="3.58385">
        <ele>999.9</ele>
      </trkpt>
      <trkpt lat="45.4322" lon="3.58385">
        <ele>998.3</ele>
      </trkpt>
      <trkpt lat="45.43203" lon="3.58386">
        <ele>996.6</ele>
      </trkpt>
      <trkpt lat="45.43191" lon="3.58386">
        <ele>995.4</ele>
      </trkpt>
      <trkpt lat="45.43178" lon="3.58386">
        <ele>994.1</ele>
      </trkpt>
      <trkpt lat="45.43159" lon="3.58386">
        <ele>991.9</ele>
      </trkpt>
      <trkpt lat="45.43138" lon="3.58385">
        <ele>988.7</ele>
      </trkpt>
      <trkpt lat="45.43118" lon="3.58383">
        <ele>985.7</ele>
      </trkpt>
      <trkpt lat="45.43116" lon="3.58389">
        <ele>985.5</ele>
      </trkpt>
      <trkpt lat="45.43107" lon="3.58414">
        <ele>984.4</ele>
      </trkpt>
      <trkpt lat="45.43099" lon="3.58432">
        <ele>983.5</ele>
      </trkpt>
      <trkpt lat="45.43091" lon="3.58455">
        <ele>982.5</ele>
      </trkpt>
      <trkpt lat="45.43082" lon="3.58478">
        <ele>981.6</ele>
      </trkpt>
      <trkpt lat="45.43075" lon="3.58497">
        <ele>981.1</ele>
      </trkpt>
      <trkpt lat="45.43065" lon="3.5852">
        <ele>981.9</ele>
      </trkpt>
      <trkpt lat="45.43056" lon="3.58542">
        <ele>982.7</ele>
      </trkpt>
      <trkpt lat="45.43056" lon="3.58542">
        <ele>982.7</ele>
      </trkpt>
      <trkpt lat="45.43047" lon="3.58563">
        <ele>983.5</ele>
      </trkpt>
      <trkpt lat="45.43038" lon="3.58585">
        <ele>984.2</ele>
      </trkpt>
      <trkpt lat="45.43031" lon="3.58605">
        <ele>984.7</ele>
      </trkpt>
      <trkpt lat="45.43025" lon="3.58621">
        <ele>985.2</ele>
      </trkpt>
      <trkpt lat="45.43022" lon="3.58633">
        <ele>985.5</ele>
      </trkpt>
      <trkpt lat="45.43017" lon="3.58652">
        <ele>986.2</ele>
      </trkpt>
      <trkpt lat="45.43012" lon="3.58673">
        <ele>987</ele>
      </trkpt>
      <trkpt lat="45.43008" lon="3.58688">
        <ele>987.7</ele>
      </trkpt>
      <trkpt lat="45.43004" lon="3.58699">
        <ele>988.2</ele>
      </trkpt>
      <trkpt lat="45.43" lon="3.58709">
        <ele>988.6</ele>
      </trkpt>
      <trkpt lat="45.42998" lon="3.58718">
        <ele>989.2</ele>
      </trkpt>
      <trkpt lat="45.42995" lon="3.58728">
        <ele>989.8</ele>
      </trkpt>
      <trkpt lat="45.42993" lon="3.58737">
        <ele>990.4</ele>
      </trkpt>
      <trkpt lat="45.42992" lon="3.58747">
        <ele>991</ele>
      </trkpt>
      <trkpt lat="45.42989" lon="3.58774">
        <ele>993.9</ele>
      </trkpt>
      <trkpt lat="45.42988" lon="3.58791">
        <ele>995.6</ele>
      </trkpt>
      <trkpt lat="45.42986" lon="3.58804">
        <ele>996.8</ele>
      </trkpt>
      <trkpt lat="45.42982" lon="3.58816">
        <ele>997.7</ele>
      </trkpt>
      <trkpt lat="45.42979" lon="3.58822">
        <ele>998</ele>
      </trkpt>
      <trkpt lat="45.42972" lon="3.58834">
        <ele>998.4</ele>
      </trkpt>
      <trkpt lat="45.42965" lon="3.58846">
        <ele>998.5</ele>
      </trkpt>
      <trkpt lat="45.42959" lon="3.58857">
        <ele>998.6</ele>
      </trkpt>
      <trkpt lat="45.42954" lon="3.58868">
        <ele>998.8</ele>
      </trkpt>
      <trkpt lat="45.42946" lon="3.58886">
        <ele>999.1</ele>
      </trkpt>
      <trkpt lat="45.42938" lon="3.58904">
        <ele>999.4</ele>
      </trkpt>
      <trkpt lat="45.42928" lon="3.58926">
        <ele>999.5</ele>
      </trkpt>
      <trkpt lat="45.42916" lon="3.58948">
        <ele>999.6</ele>
      </trkpt>
      <trkpt lat="45.42909" lon="3.58961">
        <ele>1000.2</ele>
      </trkpt>
      <trkpt lat="45.42905" lon="3.5897">
        <ele>1000.6</ele>
      </trkpt>
      <trkpt lat="45.42901" lon="3.58979">
        <ele>1000.9</ele>
      </trkpt>
      <trkpt lat="45.42897" lon="3.58994">
        <ele>1001.7</ele>
      </trkpt>
      <trkpt lat="45.42886" lon="3.59021">
        <ele>1001.2</ele>
      </trkpt>
      <trkpt lat="45.42875" lon="3.59047">
        <ele>1000</ele>
      </trkpt>
      <trkpt lat="45.42864" lon="3.59074">
        <ele>998.5</ele>
      </trkpt>
      <trkpt lat="45.42853" lon="3.591">
        <ele>995.5</ele>
      </trkpt>
      <trkpt lat="45.4285" lon="3.59128">
        <ele>992.9</ele>
      </trkpt>
      <trkpt lat="45.42846" lon="3.59156">
        <ele>990.3</ele>
      </trkpt>
      <trkpt lat="45.42846" lon="3.59156">
        <ele>990.3</ele>
      </trkpt>
      <trkpt lat="45.42843" lon="3.59184">
        <ele>987.9</ele>
      </trkpt>
      <trkpt lat="45.42842" lon="3.59207">
        <ele>986.2</ele>
      </trkpt>
      <trkpt lat="45.42841" lon="3.5923">
        <ele>984.4</ele>
      </trkpt>
      <trkpt lat="45.4284" lon="3.59253">
        <ele>982.6</ele>
      </trkpt>
      <trkpt lat="45.4284" lon="3.59268">
        <ele>981</ele>
      </trkpt>
      <trkpt lat="45.42839" lon="3.59282">
        <ele>979.5</ele>
      </trkpt>
      <trkpt lat="45.42839" lon="3.59295">
        <ele>978.1</ele>
      </trkpt>
      <trkpt lat="45.42839" lon="3.59307">
        <ele>976.8</ele>
      </trkpt>
      <trkpt lat="45.42839" lon="3.59315">
        <ele>976.1</ele>
      </trkpt>
      <trkpt lat="45.42841" lon="3.59326">
        <ele>975.3</ele>
      </trkpt>
      <trkpt lat="45.42842" lon="3.59334">
        <ele>974.8</ele>
      </trkpt>
      <trkpt lat="45.42843" lon="3.59342">
        <ele>974.7</ele>
      </trkpt>
      <trkpt lat="45.42843" lon="3.59349">
        <ele>974.6</ele>
      </trkpt>
      <trkpt lat="45.42841" lon="3.5936">
        <ele>974</ele>
      </trkpt>
      <trkpt lat="45.4284" lon="3.59367">
        <ele>973.5</ele>
      </trkpt>
      <trkpt lat="45.42837" lon="3.59373">
        <ele>972.9</ele>
      </trkpt>
      <trkpt lat="45.42828" lon="3.59393">
        <ele>970.8</ele>
      </trkpt>
      <trkpt lat="45.42822" lon="3.59406">
        <ele>969.4</ele>
      </trkpt>
      <trkpt lat="45.42815" lon="3.59419">
        <ele>968.2</ele>
      </trkpt>
      <trkpt lat="45.42807" lon="3.59439">
        <ele>968.1</ele>
      </trkpt>
      <trkpt lat="45.42798" lon="3.59459">
        <ele>967.9</ele>
      </trkpt>
      <trkpt lat="45.42791" lon="3.59472">
        <ele>967.6</ele>
      </trkpt>
      <trkpt lat="45.42785" lon="3.59486">
        <ele>967.3</ele>
      </trkpt>
      <trkpt lat="45.42773" lon="3.59513">
        <ele>967</ele>
      </trkpt>
      <trkpt lat="45.42762" lon="3.59535">
        <ele>967.5</ele>
      </trkpt>
      <trkpt lat="45.42754" lon="3.59555">
        <ele>968.3</ele>
      </trkpt>
      <trkpt lat="45.42748" lon="3.59571">
        <ele>969</ele>
      </trkpt>
      <trkpt lat="45.42743" lon="3.59585">
        <ele>969.1</ele>
      </trkpt>
      <trkpt lat="45.42739" lon="3.59597">
        <ele>968.4</ele>
      </trkpt>
      <trkpt lat="45.42733" lon="3.59619">
        <ele>967.5</ele>
      </trkpt>
      <trkpt lat="45.42727" lon="3.59642">
        <ele>966.7</ele>
      </trkpt>
      <trkpt lat="45.42722" lon="3.59652">
        <ele>965.8</ele>
      </trkpt>
      <trkpt lat="45.42716" lon="3.59657">
        <ele>964.1</ele>
      </trkpt>
      <trkpt lat="45.4271" lon="3.5966">
        <ele>962.7</ele>
      </trkpt>
      <trkpt lat="45.42705" lon="3.59663">
        <ele>961.5</ele>
      </trkpt>
      <trkpt lat="45.42699" lon="3.59672">
        <ele>959.5</ele>
      </trkpt>
      <trkpt lat="45.42696" lon="3.59683">
        <ele>957.8</ele>
      </trkpt>
      <trkpt lat="45.42695" lon="3.5969">
        <ele>957</ele>
      </trkpt>
      <trkpt lat="45.42694" lon="3.59706">
        <ele>955.7</ele>
      </trkpt>
      <trkpt lat="45.42694" lon="3.5972">
        <ele>954.8</ele>
      </trkpt>
      <trkpt lat="45.42695" lon="3.59735">
        <ele>953.8</ele>
      </trkpt>
      <trkpt lat="45.42696" lon="3.59746">
        <ele>953.2</ele>
      </trkpt>
      <trkpt lat="45.42696" lon="3.59746">
        <ele>953.2</ele>
      </trkpt>
      <trkpt lat="45.42698" lon="3.5976">
        <ele>952.4</ele>
      </trkpt>
      <trkpt lat="45.427" lon="3.59771">
        <ele>951.7</ele>
      </trkpt>
      <trkpt lat="45.42702" lon="3.59781">
        <ele>951</ele>
      </trkpt>
      <trkpt lat="45.42702" lon="3.59787">
        <ele>950.4</ele>
      </trkpt>
      <trkpt lat="45.42702" lon="3.59787">
        <ele>950.4</ele>
      </trkpt>
      <trkpt lat="45.42702" lon="3.59794">
        <ele>949.7</ele>
      </trkpt>
      <trkpt lat="45.427" lon="3.59804">
        <ele>948.7</ele>
      </trkpt>
      <trkpt lat="45.42698" lon="3.59817">
        <ele>947.4</ele>
      </trkpt>
      <trkpt lat="45.42697" lon="3.5983">
        <ele>946.1</ele>
      </trkpt>
      <trkpt lat="45.42697" lon="3.59839">
        <ele>945.5</ele>
      </trkpt>
      <trkpt lat="45.42699" lon="3.5985">
        <ele>944.8</ele>
      </trkpt>
      <trkpt lat="45.42701" lon="3.59865">
        <ele>943.9</ele>
      </trkpt>
      <trkpt lat="45.42704" lon="3.59885">
        <ele>942.6</ele>
      </trkpt>
      <trkpt lat="45.42706" lon="3.59898">
        <ele>941.7</ele>
      </trkpt>
      <trkpt lat="45.42706" lon="3.59905">
        <ele>941.2</ele>
      </trkpt>
      <trkpt lat="45.42706" lon="3.59912">
        <ele>940.7</ele>
      </trkpt>
      <trkpt lat="45.42704" lon="3.59921">
        <ele>940.3</ele>
      </trkpt>
      <trkpt lat="45.42701" lon="3.59934">
        <ele>940</ele>
      </trkpt>
      <trkpt lat="45.42699" lon="3.59945">
        <ele>939.8</ele>
      </trkpt>
      <trkpt lat="45.42698" lon="3.59956">
        <ele>939.5</ele>
      </trkpt>
      <trkpt lat="45.42696" lon="3.5997">
        <ele>939.2</ele>
      </trkpt>
      <trkpt lat="45.42695" lon="3.59978">
        <ele>939</ele>
      </trkpt>
      <trkpt lat="45.42692" lon="3.59987">
        <ele>938.7</ele>
      </trkpt>
      <trkpt lat="45.42692" lon="3.60002">
        <ele>938.5</ele>
      </trkpt>
      <trkpt lat="45.42698" lon="3.60013">
        <ele>938.6</ele>
      </trkpt>
      <trkpt lat="45.42702" lon="3.60023">
        <ele>938.7</ele>
      </trkpt>
      <trkpt lat="45.42706" lon="3.60044">
        <ele>938.6</ele>
      </trkpt>
      <trkpt lat="45.42709" lon="3.60068">
        <ele>938.3</ele>
      </trkpt>
      <trkpt lat="45.42713" lon="3.60091">
        <ele>938.5</ele>
      </trkpt>
      <trkpt lat="45.42715" lon="3.60102">
        <ele>938.8</ele>
      </trkpt>
      <trkpt lat="45.42718" lon="3.60126">
        <ele>939.5</ele>
      </trkpt>
      <trkpt lat="45.42722" lon="3.60151">
        <ele>940.3</ele>
      </trkpt>
      <trkpt lat="45.42726" lon="3.6018">
        <ele>942</ele>
      </trkpt>
      <trkpt lat="45.4273" lon="3.6021">
        <ele>944.7</ele>
      </trkpt>
      <trkpt lat="45.42733" lon="3.60229">
        <ele>946.5</ele>
      </trkpt>
      <trkpt lat="45.42735" lon="3.60239">
        <ele>947.5</ele>
      </trkpt>
      <trkpt lat="45.42737" lon="3.6025">
        <ele>948.6</ele>
      </trkpt>
      <trkpt lat="45.42742" lon="3.60262">
        <ele>949.1</ele>
      </trkpt>
      <trkpt lat="45.42745" lon="3.60268">
        <ele>949.5</ele>
      </trkpt>
      <trkpt lat="45.42748" lon="3.60274">
        <ele>949.8</ele>
      </trkpt>
      <trkpt lat="45.42752" lon="3.6028">
        <ele>950.3</ele>
      </trkpt>
      <trkpt lat="45.42759" lon="3.6029">
        <ele>951.3</ele>
      </trkpt>
      <trkpt lat="45.42771" lon="3.60306">
        <ele>953</ele>
      </trkpt>
      <trkpt lat="45.42775" lon="3.60312">
        <ele>953.8</ele>
      </trkpt>
      <trkpt lat="45.42778" lon="3.60318">
        <ele>954.4</ele>
      </trkpt>
      <trkpt lat="45.42782" lon="3.60323">
        <ele>955.1</ele>
      </trkpt>
      <trkpt lat="45.42785" lon="3.6033">
        <ele>955.8</ele>
      </trkpt>
      <trkpt lat="45.42791" lon="3.60341">
        <ele>956.9</ele>
      </trkpt>
      <trkpt lat="45.42799" lon="3.60357">
        <ele>958.4</ele>
      </trkpt>
      <trkpt lat="45.42811" lon="3.60382">
        <ele>960.5</ele>
      </trkpt>
      <trkpt lat="45.42811" lon="3.60382">
        <ele>960.5</ele>
      </trkpt>
      <trkpt lat="45.42822" lon="3.60406">
        <ele>962.2</ele>
      </trkpt>
      <trkpt lat="45.4283" lon="3.60422">
        <ele>963.3</ele>
      </trkpt>
      <trkpt lat="45.42838" lon="3.60438">
        <ele>963.4</ele>
      </trkpt>
      <trkpt lat="45.42845" lon="3.60452">
        <ele>963.1</ele>
      </trkpt>
      <trkpt lat="45.42852" lon="3.60467">
        <ele>962.8</ele>
      </trkpt>
      <trkpt lat="45.42861" lon="3.60486">
        <ele>962.3</ele>
      </trkpt>
      <trkpt lat="45.42871" lon="3.60506">
        <ele>961.6</ele>
      </trkpt>
      <trkpt lat="45.42877" lon="3.6052">
        <ele>961.1</ele>
      </trkpt>
      <trkpt lat="45.42884" lon="3.60534">
        <ele>960.6</ele>
      </trkpt>
      <trkpt lat="45.42897" lon="3.60559">
        <ele>959.7</ele>
      </trkpt>
      <trkpt lat="45.42907" lon="3.60579">
        <ele>959</ele>
      </trkpt>
      <trkpt lat="45.42911" lon="3.60586">
        <ele>958.9</ele>
      </trkpt>
      <trkpt lat="45.42915" lon="3.60594">
        <ele>959.1</ele>
      </trkpt>
      <trkpt lat="45.42923" lon="3.60606">
        <ele>959.5</ele>
      </trkpt>
      <trkpt lat="45.42926" lon="3.60611">
        <ele>959.7</ele>
      </trkpt>
      <trkpt lat="45.42935" lon="3.60622">
        <ele>960.2</ele>
      </trkpt>
      <trkpt lat="45.42951" lon="3.60642">
        <ele>960.8</ele>
      </trkpt>
      <trkpt lat="45.42955" lon="3.60646">
        <ele>960.9</ele>
      </trkpt>
      <trkpt lat="45.42962" lon="3.60653">
        <ele>961.1</ele>
      </trkpt>
      <trkpt lat="45.42968" lon="3.60658">
        <ele>961.2</ele>
      </trkpt>
      <trkpt lat="45.42974" lon="3.60662">
        <ele>961.4</ele>
      </trkpt>
      <trkpt lat="45.42981" lon="3.60667">
        <ele>961.5</ele>
      </trkpt>
      <trkpt lat="45.42989" lon="3.60672">
        <ele>961.8</ele>
      </trkpt>
      <trkpt lat="45.43" lon="3.60678">
        <ele>962.1</ele>
      </trkpt>
      <trkpt lat="45.4302" lon="3.60687">
        <ele>963.2</ele>
      </trkpt>
      <trkpt lat="45.4303" lon="3.60693">
        <ele>963.7</ele>
      </trkpt>
      <trkpt lat="45.43041" lon="3.60698">
        <ele>964</ele>
      </trkpt>
      <trkpt lat="45.43058" lon="3.60707">
        <ele>964.3</ele>
      </trkpt>
      <trkpt lat="45.4307" lon="3.60712">
        <ele>964.4</ele>
      </trkpt>
      <trkpt lat="45.43082" lon="3.60718">
        <ele>964.3</ele>
      </trkpt>
      <trkpt lat="45.43094" lon="3.60724">
        <ele>963.9</ele>
      </trkpt>
      <trkpt lat="45.43106" lon="3.6073">
        <ele>963.5</ele>
      </trkpt>
      <trkpt lat="45.43121" lon="3.60737">
        <ele>963</ele>
      </trkpt>
      <trkpt lat="45.43134" lon="3.60743">
        <ele>962.5</ele>
      </trkpt>
      <trkpt lat="45.43146" lon="3.60749">
        <ele>962.1</ele>
      </trkpt>
      <trkpt lat="45.43165" lon="3.60759">
        <ele>961.6</ele>
      </trkpt>
      <trkpt lat="45.43181" lon="3.60767">
        <ele>961.4</ele>
      </trkpt>
      <trkpt lat="45.43181" lon="3.60767">
        <ele>961.4</ele>
      </trkpt>
      <trkpt lat="45.43192" lon="3.60773">
        <ele>961.5</ele>
      </trkpt>
      <trkpt lat="45.43204" lon="3.60778">
        <ele>961.5</ele>
      </trkpt>
      <trkpt lat="45.43223" lon="3.60787">
        <ele>961.8</ele>
      </trkpt>
      <trkpt lat="45.43231" lon="3.60792">
        <ele>961.9</ele>
      </trkpt>
      <trkpt lat="45.43238" lon="3.60795">
        <ele>962.1</ele>
      </trkpt>
      <trkpt lat="45.43249" lon="3.60801">
        <ele>962.4</ele>
      </trkpt>
      <trkpt lat="45.43256" lon="3.60804">
        <ele>962.5</ele>
      </trkpt>
      <trkpt lat="45.43259" lon="3.60811">
        <ele>962.4</ele>
      </trkpt>
      <trkpt lat="45.4326" lon="3.6082">
        <ele>962.2</ele>
      </trkpt>
      <trkpt lat="45.43261" lon="3.60829">
        <ele>962.1</ele>
      </trkpt>
      <trkpt lat="45.43261" lon="3.60837">
        <ele>961.9</ele>
      </trkpt>
      <trkpt lat="45.43261" lon="3.60845">
        <ele>961.8</ele>
      </trkpt>
      <trkpt lat="45.43256" lon="3.6085">
        <ele>961.8</ele>
      </trkpt>
      <trkpt lat="45.43248" lon="3.60858">
        <ele>961.6</ele>
      </trkpt>
      <trkpt lat="45.43242" lon="3.60864">
        <ele>961.3</ele>
      </trkpt>
      <trkpt lat="45.43231" lon="3.60875">
        <ele>960.7</ele>
      </trkpt>
      <trkpt lat="45.43219" lon="3.60885">
        <ele>960.1</ele>
      </trkpt>
      <trkpt lat="45.43214" lon="3.60891">
        <ele>959.9</ele>
      </trkpt>
      <trkpt lat="45.43209" lon="3.60891">
        <ele>959.7</ele>
      </trkpt>
      <trkpt lat="45.432" lon="3.60905">
        <ele>959.2</ele>
      </trkpt>
      <trkpt lat="45.43183" lon="3.60921">
        <ele>958.6</ele>
      </trkpt>
      <trkpt lat="45.43171" lon="3.60933">
        <ele>958.3</ele>
      </trkpt>
      <trkpt lat="45.43158" lon="3.60946">
        <ele>958</ele>
      </trkpt>
      <trkpt lat="45.43161" lon="3.60953">
        <ele>958.2</ele>
      </trkpt>
      <trkpt lat="45.4316" lon="3.60964">
        <ele>958.3</ele>
      </trkpt>
      <trkpt lat="45.43158" lon="3.60982">
        <ele>958.4</ele>
      </trkpt>
      <trkpt lat="45.43157" lon="3.61001">
        <ele>958.5</ele>
      </trkpt>
      <trkpt lat="45.43157" lon="3.61021">
        <ele>958.1</ele>
      </trkpt>
      <trkpt lat="45.43156" lon="3.61034">
        <ele>957.8</ele>
      </trkpt>
      <trkpt lat="45.43154" lon="3.6105">
        <ele>957.4</ele>
      </trkpt>
      <trkpt lat="45.43151" lon="3.6107">
        <ele>956.9</ele>
      </trkpt>
      <trkpt lat="45.43147" lon="3.61092">
        <ele>956.5</ele>
      </trkpt>
      <trkpt lat="45.43145" lon="3.61108">
        <ele>956.3</ele>
      </trkpt>
      <trkpt lat="45.43145" lon="3.61119">
        <ele>956.3</ele>
      </trkpt>
      <trkpt lat="45.43145" lon="3.61134">
        <ele>956.2</ele>
      </trkpt>
      <trkpt lat="45.43145" lon="3.6115">
        <ele>956.1</ele>
      </trkpt>
      <trkpt lat="45.43145" lon="3.61166">
        <ele>956</ele>
      </trkpt>
      <trkpt lat="45.43145" lon="3.61194">
        <ele>955.5</ele>
      </trkpt>
      <trkpt lat="45.43144" lon="3.61211">
        <ele>955.2</ele>
      </trkpt>
      <trkpt lat="45.43144" lon="3.61227">
        <ele>955</ele>
      </trkpt>
      <trkpt lat="45.43143" lon="3.61248">
        <ele>954.6</ele>
      </trkpt>
      <trkpt lat="45.43141" lon="3.61263">
        <ele>954.6</ele>
      </trkpt>
      <trkpt lat="45.43141" lon="3.61263">
        <ele>954.6</ele>
      </trkpt>
      <trkpt lat="45.4314" lon="3.61269">
        <ele>954.7</ele>
      </trkpt>
      <trkpt lat="45.43139" lon="3.61276">
        <ele>954.7</ele>
      </trkpt>
      <trkpt lat="45.43138" lon="3.61283">
        <ele>954.7</ele>
      </trkpt>
      <trkpt lat="45.43135" lon="3.61294">
        <ele>954.6</ele>
      </trkpt>
      <trkpt lat="45.43133" lon="3.61306">
        <ele>954.5</ele>
      </trkpt>
      <trkpt lat="45.43132" lon="3.61318">
        <ele>954.4</ele>
      </trkpt>
      <trkpt lat="45.43131" lon="3.61328">
        <ele>954.3</ele>
      </trkpt>
      <trkpt lat="45.43131" lon="3.61346">
        <ele>954.2</ele>
      </trkpt>
      <trkpt lat="45.43131" lon="3.61365">
        <ele>954.1</ele>
      </trkpt>
      <trkpt lat="45.43131" lon="3.61384">
        <ele>953.9</ele>
      </trkpt>
      <trkpt lat="45.43131" lon="3.61413">
        <ele>953.7</ele>
      </trkpt>
      <trkpt lat="45.43131" lon="3.61442">
        <ele>952.4</ele>
      </trkpt>
      <trkpt lat="45.43131" lon="3.61459">
        <ele>951.7</ele>
      </trkpt>
      <trkpt lat="45.43132" lon="3.61471">
        <ele>951.1</ele>
      </trkpt>
      <trkpt lat="45.43134" lon="3.61481">
        <ele>950.8</ele>
      </trkpt>
      <trkpt lat="45.43136" lon="3.6149">
        <ele>950.6</ele>
      </trkpt>
      <trkpt lat="45.4314" lon="3.61502">
        <ele>950.3</ele>
      </trkpt>
      <trkpt lat="45.43144" lon="3.61515">
        <ele>950.1</ele>
      </trkpt>
      <trkpt lat="45.43152" lon="3.6154">
        <ele>949.7</ele>
      </trkpt>
      <trkpt lat="45.4316" lon="3.61566">
        <ele>949.2</ele>
      </trkpt>
      <trkpt lat="45.43164" lon="3.61582">
        <ele>948.8</ele>
      </trkpt>
      <trkpt lat="45.43166" lon="3.61594">
        <ele>948.3</ele>
      </trkpt>
      <trkpt lat="45.43169" lon="3.6161">
        <ele>947.4</ele>
      </trkpt>
      <trkpt lat="45.43171" lon="3.61626">
        <ele>946.4</ele>
      </trkpt>
      <trkpt lat="45.43174" lon="3.61657">
        <ele>944.5</ele>
      </trkpt>
      <trkpt lat="45.43177" lon="3.61678">
        <ele>942.7</ele>
      </trkpt>
      <trkpt lat="45.4318" lon="3.61699">
        <ele>940.6</ele>
      </trkpt>
      <trkpt lat="45.43181" lon="3.61712">
        <ele>939.3</ele>
      </trkpt>
      <trkpt lat="45.43183" lon="3.61726">
        <ele>937.9</ele>
      </trkpt>
      <trkpt lat="45.43185" lon="3.61739">
        <ele>936.7</ele>
      </trkpt>
      <trkpt lat="45.43187" lon="3.61754">
        <ele>935.6</ele>
      </trkpt>
      <trkpt lat="45.43189" lon="3.61768">
        <ele>935.4</ele>
      </trkpt>
      <trkpt lat="45.43191" lon="3.6178">
        <ele>935.2</ele>
      </trkpt>
      <trkpt lat="45.43194" lon="3.61795">
        <ele>934.9</ele>
      </trkpt>
      <trkpt lat="45.43197" lon="3.61806">
        <ele>934.7</ele>
      </trkpt>
      <trkpt lat="45.43201" lon="3.61825">
        <ele>934.5</ele>
      </trkpt>
      <trkpt lat="45.43206" lon="3.61845">
        <ele>934.1</ele>
      </trkpt>
      <trkpt lat="45.43207" lon="3.61854">
        <ele>933.8</ele>
      </trkpt>
      <trkpt lat="45.43208" lon="3.61861">
        <ele>933.7</ele>
      </trkpt>
      <trkpt lat="45.43208" lon="3.61873">
        <ele>933.3</ele>
      </trkpt>
      <trkpt lat="45.43208" lon="3.61884">
        <ele>933</ele>
      </trkpt>
      <trkpt lat="45.43207" lon="3.61892">
        <ele>932.7</ele>
      </trkpt>
      <trkpt lat="45.43206" lon="3.61902">
        <ele>932.4</ele>
      </trkpt>
      <trkpt lat="45.43206" lon="3.61902">
        <ele>932.4</ele>
      </trkpt>
      <trkpt lat="45.43203" lon="3.61924">
        <ele>932</ele>
      </trkpt>
      <trkpt lat="45.432" lon="3.61941">
        <ele>931.8</ele>
      </trkpt>
      <trkpt lat="45.43198" lon="3.61958">
        <ele>931.6</ele>
      </trkpt>
      <trkpt lat="45.43195" lon="3.61983">
        <ele>931.2</ele>
      </trkpt>
      <trkpt lat="45.43193" lon="3.61997">
        <ele>930.9</ele>
      </trkpt>
      <trkpt lat="45.43191" lon="3.62011">
        <ele>930.8</ele>
      </trkpt>
      <trkpt lat="45.4319" lon="3.62018">
        <ele>930.8</ele>
      </trkpt>
      <trkpt lat="45.43187" lon="3.62036">
        <ele>930.7</ele>
      </trkpt>
      <trkpt lat="45.43184" lon="3.62054">
        <ele>930.5</ele>
      </trkpt>
      <trkpt lat="45.43179" lon="3.62077">
        <ele>930.1</ele>
      </trkpt>
      <trkpt lat="45.43177" lon="3.62088">
        <ele>930</ele>
      </trkpt>
      <trkpt lat="45.43176" lon="3.62103">
        <ele>930</ele>
      </trkpt>
      <trkpt lat="45.43177" lon="3.62119">
        <ele>930</ele>
      </trkpt>
      <trkpt lat="45.43177" lon="3.62143">
        <ele>930.1</ele>
      </trkpt>
      <trkpt lat="45.43177" lon="3.62159">
        <ele>930.1</ele>
      </trkpt>
      <trkpt lat="45.43177" lon="3.62185">
        <ele>930</ele>
      </trkpt>
      <trkpt lat="45.43177" lon="3.62208">
        <ele>929.8</ele>
      </trkpt>
      <trkpt lat="45.43177" lon="3.62217">
        <ele>929.7</ele>
      </trkpt>
      <trkpt lat="45.43178" lon="3.62224">
        <ele>929.7</ele>
      </trkpt>
      <trkpt lat="45.43179" lon="3.62234">
        <ele>929.7</ele>
      </trkpt>
      <trkpt lat="45.43181" lon="3.62246">
        <ele>929.7</ele>
      </trkpt>
      <trkpt lat="45.43183" lon="3.62263">
        <ele>930.2</ele>
      </trkpt>
      <trkpt lat="45.43187" lon="3.62291">
        <ele>931.3</ele>
      </trkpt>
      <trkpt lat="45.4319" lon="3.62318">
        <ele>932.2</ele>
      </trkpt>
      <trkpt lat="45.43191" lon="3.62338">
        <ele>932.9</ele>
      </trkpt>
      <trkpt lat="45.43189" lon="3.62346">
        <ele>933.3</ele>
      </trkpt>
      <trkpt lat="45.43189" lon="3.62353">
        <ele>933.6</ele>
      </trkpt>
      <trkpt lat="45.43189" lon="3.62361">
        <ele>934</ele>
      </trkpt>
      <trkpt lat="45.43184" lon="3.62386">
        <ele>935.2</ele>
      </trkpt>
      <trkpt lat="45.43182" lon="3.62402">
        <ele>936</ele>
      </trkpt>
      <trkpt lat="45.43181" lon="3.62424">
        <ele>936.6</ele>
      </trkpt>
      <trkpt lat="45.4318" lon="3.62446">
        <ele>936.2</ele>
      </trkpt>
      <trkpt lat="45.43181" lon="3.62464">
        <ele>935.9</ele>
      </trkpt>
      <trkpt lat="45.43183" lon="3.62492">
        <ele>935.4</ele>
      </trkpt>
      <trkpt lat="45.43184" lon="3.62507">
        <ele>935.1</ele>
      </trkpt>
      <trkpt lat="45.43192" lon="3.62512">
        <ele>934.6</ele>
      </trkpt>
      <trkpt lat="45.43204" lon="3.62518">
        <ele>934</ele>
      </trkpt>
      <trkpt lat="45.43217" lon="3.62525">
        <ele>933.3</ele>
      </trkpt>
      <trkpt lat="45.43217" lon="3.62525">
        <ele>933.3</ele>
      </trkpt>
      <trkpt lat="45.43228" lon="3.62533">
        <ele>932.6</ele>
      </trkpt>
      <trkpt lat="45.43239" lon="3.62541">
        <ele>932.1</ele>
      </trkpt>
      <trkpt lat="45.43254" lon="3.62553">
        <ele>931.2</ele>
      </trkpt>
      <trkpt lat="45.43269" lon="3.62564">
        <ele>930.2</ele>
      </trkpt>
      <trkpt lat="45.43284" lon="3.62576">
        <ele>929.4</ele>
      </trkpt>
      <trkpt lat="45.43293" lon="3.62586">
        <ele>928.9</ele>
      </trkpt>
      <trkpt lat="45.43302" lon="3.62596">
        <ele>928.2</ele>
      </trkpt>
      <trkpt lat="45.43311" lon="3.62609">
        <ele>927.3</ele>
      </trkpt>
      <trkpt lat="45.43322" lon="3.62623">
        <ele>926.3</ele>
      </trkpt>
      <trkpt lat="45.43333" lon="3.62639">
        <ele>925</ele>
      </trkpt>
      <trkpt lat="45.43344" lon="3.62658">
        <ele>924.8</ele>
      </trkpt>
      <trkpt lat="45.43356" lon="3.62676">
        <ele>925.1</ele>
      </trkpt>
      <trkpt lat="45.43362" lon="3.62685">
        <ele>925.4</ele>
      </trkpt>
      <trkpt lat="45.43365" lon="3.6269">
        <ele>925.5</ele>
      </trkpt>
      <trkpt lat="45.43372" lon="3.62697">
        <ele>925.5</ele>
      </trkpt>
      <trkpt lat="45.43378" lon="3.62701">
        <ele>925.5</ele>
      </trkpt>
      <trkpt lat="45.4339" lon="3.62706">
        <ele>925.2</ele>
      </trkpt>
      <trkpt lat="45.43401" lon="3.62711">
        <ele>924.8</ele>
      </trkpt>
      <trkpt lat="45.43421" lon="3.62721">
        <ele>923.3</ele>
      </trkpt>
      <trkpt lat="45.43441" lon="3.6273">
        <ele>920.2</ele>
      </trkpt>
      <trkpt lat="45.43448" lon="3.62734">
        <ele>918.9</ele>
      </trkpt>
      <trkpt lat="45.43461" lon="3.62741">
        <ele>916.6</ele>
      </trkpt>
      <trkpt lat="45.43474" lon="3.62746">
        <ele>914.2</ele>
      </trkpt>
      <trkpt lat="45.43483" lon="3.62749">
        <ele>912.6</ele>
      </trkpt>
      <trkpt lat="45.43491" lon="3.62752">
        <ele>911.6</ele>
      </trkpt>
      <trkpt lat="45.43497" lon="3.62754">
        <ele>911</ele>
      </trkpt>
      <trkpt lat="45.43501" lon="3.62756">
        <ele>910.8</ele>
      </trkpt>
      <trkpt lat="45.43507" lon="3.62759">
        <ele>910.6</ele>
      </trkpt>
      <trkpt lat="45.43512" lon="3.62762">
        <ele>910.6</ele>
      </trkpt>
      <trkpt lat="45.43518" lon="3.62767">
        <ele>910.8</ele>
      </trkpt>
      <trkpt lat="45.43526" lon="3.62774">
        <ele>911.2</ele>
      </trkpt>
      <trkpt lat="45.43533" lon="3.6278">
        <ele>911.5</ele>
      </trkpt>
      <trkpt lat="45.43539" lon="3.62784">
        <ele>911.6</ele>
      </trkpt>
      <trkpt lat="45.43546" lon="3.62789">
        <ele>911.7</ele>
      </trkpt>
      <trkpt lat="45.43551" lon="3.62791">
        <ele>911.6</ele>
      </trkpt>
      <trkpt lat="45.43563" lon="3.62797">
        <ele>911.5</ele>
      </trkpt>
      <trkpt lat="45.43576" lon="3.62802">
        <ele>911.3</ele>
      </trkpt>
      <trkpt lat="45.43585" lon="3.62804">
        <ele>911</ele>
      </trkpt>
      <trkpt lat="45.43599" lon="3.6281">
        <ele>911.2</ele>
      </trkpt>
      <trkpt lat="45.43606" lon="3.62814">
        <ele>911.3</ele>
      </trkpt>
      <trkpt lat="45.43615" lon="3.62819">
        <ele>911.5</ele>
      </trkpt>
      <trkpt lat="45.43624" lon="3.62826">
        <ele>911.7</ele>
      </trkpt>
      <trkpt lat="45.43624" lon="3.62826">
        <ele>911.7</ele>
      </trkpt>
      <trkpt lat="45.4363" lon="3.62832">
        <ele>911.9</ele>
      </trkpt>
      <trkpt lat="45.43637" lon="3.62837">
        <ele>912</ele>
      </trkpt>
      <trkpt lat="45.43643" lon="3.62841">
        <ele>912</ele>
      </trkpt>
      <trkpt lat="45.4365" lon="3.62846">
        <ele>911.9</ele>
      </trkpt>
      <trkpt lat="45.43656" lon="3.62848">
        <ele>911.7</ele>
      </trkpt>
      <trkpt lat="45.43665" lon="3.6285">
        <ele>911.2</ele>
      </trkpt>
      <trkpt lat="45.4367" lon="3.62851">
        <ele>911</ele>
      </trkpt>
      <trkpt lat="45.43679" lon="3.62851">
        <ele>910.8</ele>
      </trkpt>
      <trkpt lat="45.43695" lon="3.62849">
        <ele>910.1</ele>
      </trkpt>
      <trkpt lat="45.43711" lon="3.62847">
        <ele>909.2</ele>
      </trkpt>
      <trkpt lat="45.43725" lon="3.62844">
        <ele>908.4</ele>
      </trkpt>
      <trkpt lat="45.43736" lon="3.62842">
        <ele>907.8</ele>
      </trkpt>
      <trkpt lat="45.43745" lon="3.62841">
        <ele>907.4</ele>
      </trkpt>
      <trkpt lat="45.43758" lon="3.6284">
        <ele>906.4</ele>
      </trkpt>
      <trkpt lat="45.43772" lon="3.62841">
        <ele>905.3</ele>
      </trkpt>
      <trkpt lat="45.4379" lon="3.62842">
        <ele>904</ele>
      </trkpt>
      <trkpt lat="45.43803" lon="3.62844">
        <ele>903.3</ele>
      </trkpt>
      <trkpt lat="45.43817" lon="3.62847">
        <ele>902.4</ele>
      </trkpt>
      <trkpt lat="45.43832" lon="3.6285">
        <ele>901.7</ele>
      </trkpt>
      <trkpt lat="45.43839" lon="3.62851">
        <ele>901.1</ele>
      </trkpt>
      <trkpt lat="45.43854" lon="3.62853">
        <ele>899.3</ele>
      </trkpt>
      <trkpt lat="45.43869" lon="3.62854">
        <ele>897.5</ele>
      </trkpt>
      <trkpt lat="45.43876" lon="3.62856">
        <ele>896.7</ele>
      </trkpt>
      <trkpt lat="45.43882" lon="3.62857">
        <ele>896.1</ele>
      </trkpt>
      <trkpt lat="45.43892" lon="3.62861">
        <ele>895.2</ele>
      </trkpt>
      <trkpt lat="45.43899" lon="3.62865">
        <ele>895</ele>
      </trkpt>
      <trkpt lat="45.43915" lon="3.62876">
        <ele>894.4</ele>
      </trkpt>
      <trkpt lat="45.43923" lon="3.62881">
        <ele>894.4</ele>
      </trkpt>
      <trkpt lat="45.43933" lon="3.62887">
        <ele>894.6</ele>
      </trkpt>
      <trkpt lat="45.43938" lon="3.6289">
        <ele>894.6</ele>
      </trkpt>
      <trkpt lat="45.43948" lon="3.62895">
        <ele>894.6</ele>
      </trkpt>
      <trkpt lat="45.43968" lon="3.62906">
        <ele>894.4</ele>
      </trkpt>
      <trkpt lat="45.43986" lon="3.62916">
        <ele>894.1</ele>
      </trkpt>
      <trkpt lat="45.44003" lon="3.62926">
        <ele>892.6</ele>
      </trkpt>
      <trkpt lat="45.44018" lon="3.62937">
        <ele>890.3</ele>
      </trkpt>
      <trkpt lat="45.44034" lon="3.62948">
        <ele>887.8</ele>
      </trkpt>
      <trkpt lat="45.44049" lon="3.62959">
        <ele>885</ele>
      </trkpt>
      <trkpt lat="45.44063" lon="3.62969">
        <ele>882.4</ele>
      </trkpt>
      <trkpt lat="45.44076" lon="3.62979">
        <ele>879.6</ele>
      </trkpt>
      <trkpt lat="45.44076" lon="3.62979">
        <ele>879.6</ele>
      </trkpt>
      <trkpt lat="45.44087" lon="3.62989">
        <ele>877.4</ele>
      </trkpt>
      <trkpt lat="45.44098" lon="3.63">
        <ele>876.1</ele>
      </trkpt>
      <trkpt lat="45.44105" lon="3.63008">
        <ele>876</ele>
      </trkpt>
      <trkpt lat="45.44118" lon="3.63025">
        <ele>875.8</ele>
      </trkpt>
      <trkpt lat="45.4413" lon="3.63039">
        <ele>875.6</ele>
      </trkpt>
      <trkpt lat="45.44137" lon="3.63046">
        <ele>875.4</ele>
      </trkpt>
      <trkpt lat="45.44146" lon="3.63054">
        <ele>875.2</ele>
      </trkpt>
      <trkpt lat="45.44154" lon="3.6306">
        <ele>875</ele>
      </trkpt>
      <trkpt lat="45.44161" lon="3.63066">
        <ele>874.7</ele>
      </trkpt>
      <trkpt lat="45.44165" lon="3.63069">
        <ele>874.6</ele>
      </trkpt>
      <trkpt lat="45.44173" lon="3.63074">
        <ele>874.5</ele>
      </trkpt>
      <trkpt lat="45.44182" lon="3.63074">
        <ele>874.2</ele>
      </trkpt>
      <trkpt lat="45.44187" lon="3.63073">
        <ele>874</ele>
      </trkpt>
      <trkpt lat="45.44195" lon="3.6307">
        <ele>873.7</ele>
      </trkpt>
      <trkpt lat="45.44208" lon="3.63062">
        <ele>873.3</ele>
      </trkpt>
      <trkpt lat="45.44216" lon="3.63058">
        <ele>873</ele>
      </trkpt>
      <trkpt lat="45.44233" lon="3.63045">
        <ele>872.7</ele>
      </trkpt>
      <trkpt lat="45.44243" lon="3.63037">
        <ele>872.6</ele>
      </trkpt>
      <trkpt lat="45.44253" lon="3.63029">
        <ele>872.6</ele>
      </trkpt>
      <trkpt lat="45.44269" lon="3.63018">
        <ele>872.8</ele>
      </trkpt>
      <trkpt lat="45.44283" lon="3.63009">
        <ele>873.1</ele>
      </trkpt>
      <trkpt lat="45.44294" lon="3.63002">
        <ele>873.4</ele>
      </trkpt>
      <trkpt lat="45.44308" lon="3.62995">
        <ele>873.6</ele>
      </trkpt>
      <trkpt lat="45.44316" lon="3.62992">
        <ele>873.7</ele>
      </trkpt>
      <trkpt lat="45.44323" lon="3.62989">
        <ele>873.7</ele>
      </trkpt>
      <trkpt lat="45.44336" lon="3.62989">
        <ele>873.7</ele>
      </trkpt>
      <trkpt lat="45.44348" lon="3.62991">
        <ele>872.9</ele>
      </trkpt>
      <trkpt lat="45.44363" lon="3.62996">
        <ele>871.9</ele>
      </trkpt>
      <trkpt lat="45.44382" lon="3.63001">
        <ele>870.5</ele>
      </trkpt>
      <trkpt lat="45.44401" lon="3.63005">
        <ele>868.8</ele>
      </trkpt>
      <trkpt lat="45.44419" lon="3.63011">
        <ele>867.1</ele>
      </trkpt>
      <trkpt lat="45.4443" lon="3.63018">
        <ele>865.4</ele>
      </trkpt>
      <trkpt lat="45.44438" lon="3.63021">
        <ele>864.3</ele>
      </trkpt>
      <trkpt lat="45.44446" lon="3.63022">
        <ele>863.3</ele>
      </trkpt>
      <trkpt lat="45.44461" lon="3.63023">
        <ele>861.5</ele>
      </trkpt>
      <trkpt lat="45.44474" lon="3.63024">
        <ele>859.8</ele>
      </trkpt>
      <trkpt lat="45.44484" lon="3.63025">
        <ele>858.6</ele>
      </trkpt>
      <trkpt lat="45.44491" lon="3.63021">
        <ele>858.1</ele>
      </trkpt>
      <trkpt lat="45.44501" lon="3.63017">
        <ele>857.2</ele>
      </trkpt>
      <trkpt lat="45.44501" lon="3.63017">
        <ele>857.2</ele>
      </trkpt>
      <trkpt lat="45.44513" lon="3.63013">
        <ele>855.1</ele>
      </trkpt>
      <trkpt lat="45.44522" lon="3.6301">
        <ele>853.3</ele>
      </trkpt>
      <trkpt lat="45.44535" lon="3.63007">
        <ele>851</ele>
      </trkpt>
      <trkpt lat="45.44547" lon="3.63003">
        <ele>848.6</ele>
      </trkpt>
      <trkpt lat="45.44556" lon="3.63001">
        <ele>846.9</ele>
      </trkpt>
      <trkpt lat="45.44566" lon="3.62998">
        <ele>844.9</ele>
      </trkpt>
      <trkpt lat="45.44575" lon="3.62996">
        <ele>843.2</ele>
      </trkpt>
      <trkpt lat="45.44582" lon="3.62995">
        <ele>841.8</ele>
      </trkpt>
      <trkpt lat="45.44589" lon="3.62999">
        <ele>840.4</ele>
      </trkpt>
      <trkpt lat="45.4459" lon="3.63007">
        <ele>839.8</ele>
      </trkpt>
      <trkpt lat="45.446" lon="3.63013">
        <ele>838.2</ele>
      </trkpt>
      <trkpt lat="45.44606" lon="3.63025">
        <ele>837</ele>
      </trkpt>
      <trkpt lat="45.44613" lon="3.63037">
        <ele>835.9</ele>
      </trkpt>
      <trkpt lat="45.44617" lon="3.63043">
        <ele>835.2</ele>
      </trkpt>
      <trkpt lat="45.44621" lon="3.63048">
        <ele>834.7</ele>
      </trkpt>
      <trkpt lat="45.44628" lon="3.63053">
        <ele>834</ele>
      </trkpt>
      <trkpt lat="45.44637" lon="3.63058">
        <ele>833.2</ele>
      </trkpt>
      <trkpt lat="45.44645" lon="3.63062">
        <ele>832.4</ele>
      </trkpt>
      <trkpt lat="45.4465" lon="3.63063">
        <ele>832</ele>
      </trkpt>
      <trkpt lat="45.44658" lon="3.63064">
        <ele>831.5</ele>
      </trkpt>
      <trkpt lat="45.44665" lon="3.63064">
        <ele>830.9</ele>
      </trkpt>
      <trkpt lat="45.4467" lon="3.63064">
        <ele>831.4</ele>
      </trkpt>
      <trkpt lat="45.44678" lon="3.63066">
        <ele>833</ele>
      </trkpt>
      <trkpt lat="45.44683" lon="3.63068">
        <ele>833.9</ele>
      </trkpt>
      <trkpt lat="45.44688" lon="3.63072">
        <ele>834.9</ele>
      </trkpt>
      <trkpt lat="45.44698" lon="3.63082">
        <ele>837</ele>
      </trkpt>
      <trkpt lat="45.44708" lon="3.63094">
        <ele>839.3</ele>
      </trkpt>
      <trkpt lat="45.4472" lon="3.63107">
        <ele>841.6</ele>
      </trkpt>
      <trkpt lat="45.44731" lon="3.63119">
        <ele>843.8</ele>
      </trkpt>
      <trkpt lat="45.44739" lon="3.63127">
        <ele>845.1</ele>
      </trkpt>
      <trkpt lat="45.44745" lon="3.63136">
        <ele>846.1</ele>
      </trkpt>
      <trkpt lat="45.44748" lon="3.63146">
        <ele>846.7</ele>
      </trkpt>
      <trkpt lat="45.44754" lon="3.63165">
        <ele>847.5</ele>
      </trkpt>
      <trkpt lat="45.44756" lon="3.6317">
        <ele>847.8</ele>
      </trkpt>
      <trkpt lat="45.44759" lon="3.63175">
        <ele>847.9</ele>
      </trkpt>
      <trkpt lat="45.44764" lon="3.63178">
        <ele>848.5</ele>
      </trkpt>
      <trkpt lat="45.44771" lon="3.63173">
        <ele>849.8</ele>
      </trkpt>
      <trkpt lat="45.44774" lon="3.63166">
        <ele>850.7</ele>
      </trkpt>
      <trkpt lat="45.44778" lon="3.63156">
        <ele>851.5</ele>
      </trkpt>
      <trkpt lat="45.44782" lon="3.63149">
        <ele>852.2</ele>
      </trkpt>
      <trkpt lat="45.44787" lon="3.63143">
        <ele>853.2</ele>
      </trkpt>
      <trkpt lat="45.44796" lon="3.63141">
        <ele>854.7</ele>
      </trkpt>
      <trkpt lat="45.44813" lon="3.63139">
        <ele>857.6</ele>
      </trkpt>
      <trkpt lat="45.44826" lon="3.63138">
        <ele>859.9</ele>
      </trkpt>
      <trkpt lat="45.44839" lon="3.63136">
        <ele>861.7</ele>
      </trkpt>
      <trkpt lat="45.44845" lon="3.63136">
        <ele>862.2</ele>
      </trkpt>
      <trkpt lat="45.4485" lon="3.63136">
        <ele>862.7</ele>
      </trkpt>
      <trkpt lat="45.44856" lon="3.63136">
        <ele>863.3</ele>
      </trkpt>
      <trkpt lat="45.44863" lon="3.63137">
        <ele>863.9</ele>
      </trkpt>
      <trkpt lat="45.44867" lon="3.63138">
        <ele>864.3</ele>
      </trkpt>
      <trkpt lat="45.44886" lon="3.63146">
        <ele>865.7</ele>
      </trkpt>
      <trkpt lat="45.44907" lon="3.63153">
        <ele>867.1</ele>
      </trkpt>
      <trkpt lat="45.44907" lon="3.63153">
        <ele>867.1</ele>
      </trkpt>
      <trkpt lat="45.44912" lon="3.63154">
        <ele>867.5</ele>
      </trkpt>
      <trkpt lat="45.4492" lon="3.63155">
        <ele>868.2</ele>
      </trkpt>
      <trkpt lat="45.44922" lon="3.63162">
        <ele>867.9</ele>
      </trkpt>
      <trkpt lat="45.44924" lon="3.63169">
        <ele>867.7</ele>
      </trkpt>
      <trkpt lat="45.44925" lon="3.63176">
        <ele>867.7</ele>
      </trkpt>
      <trkpt lat="45.44928" lon="3.63181">
        <ele>867.7</ele>
      </trkpt>
      <trkpt lat="45.44931" lon="3.63187">
        <ele>867.9</ele>
      </trkpt>
      <trkpt lat="45.44946" lon="3.63209">
        <ele>868.5</ele>
      </trkpt>
      <trkpt lat="45.44958" lon="3.63227">
        <ele>868.7</ele>
      </trkpt>
      <trkpt lat="45.4496" lon="3.63236">
        <ele>868.4</ele>
      </trkpt>
      <trkpt lat="45.44962" lon="3.63243">
        <ele>868.2</ele>
      </trkpt>
      <trkpt lat="45.44964" lon="3.63254">
        <ele>867.9</ele>
      </trkpt>
      <trkpt lat="45.44965" lon="3.63262">
        <ele>867.8</ele>
      </trkpt>
      <trkpt lat="45.44965" lon="3.63289">
        <ele>867.2</ele>
      </trkpt>
      <trkpt lat="45.44966" lon="3.63307">
        <ele>866.9</ele>
      </trkpt>
      <trkpt lat="45.44968" lon="3.63317">
        <ele>866.9</ele>
      </trkpt>
      <trkpt lat="45.44972" lon="3.6333">
        <ele>867</ele>
      </trkpt>
      <trkpt lat="45.44976" lon="3.63342">
        <ele>867.1</ele>
      </trkpt>
      <trkpt lat="45.44982" lon="3.63359">
        <ele>867.1</ele>
      </trkpt>
      <trkpt lat="45.44982" lon="3.63359">
        <ele>867.1</ele>
      </trkpt>
      <trkpt lat="45.44989" lon="3.63379">
        <ele>867.1</ele>
      </trkpt>
      <trkpt lat="45.44997" lon="3.63404">
        <ele>867.1</ele>
      </trkpt>
      <trkpt lat="45.45005" lon="3.63428">
        <ele>867.6</ele>
      </trkpt>
      <trkpt lat="45.45009" lon="3.6344">
        <ele>867.9</ele>
      </trkpt>
      <trkpt lat="45.4501" lon="3.63447">
        <ele>867.8</ele>
      </trkpt>
      <trkpt lat="45.45009" lon="3.63464">
        <ele>867.1</ele>
      </trkpt>
      <trkpt lat="45.45006" lon="3.63489">
        <ele>865.9</ele>
      </trkpt>
      <trkpt lat="45.45005" lon="3.63496">
        <ele>865.6</ele>
      </trkpt>
      <trkpt lat="45.45004" lon="3.63503">
        <ele>865.5</ele>
      </trkpt>
      <trkpt lat="45.45001" lon="3.63514">
        <ele>865.9</ele>
      </trkpt>
      <trkpt lat="45.44998" lon="3.63522">
        <ele>866.2</ele>
      </trkpt>
      <trkpt lat="45.44993" lon="3.63524">
        <ele>865.9</ele>
      </trkpt>
      <trkpt lat="45.44993" lon="3.63531">
        <ele>866.4</ele>
      </trkpt>
      <trkpt lat="45.4499" lon="3.63536">
        <ele>866.6</ele>
      </trkpt>
      <trkpt lat="45.44986" lon="3.63541">
        <ele>866.7</ele>
      </trkpt>
      <trkpt lat="45.44979" lon="3.63547">
        <ele>866.8</ele>
      </trkpt>
      <trkpt lat="45.44972" lon="3.63551">
        <ele>866.8</ele>
      </trkpt>
      <trkpt lat="45.44967" lon="3.63553">
        <ele>866.8</ele>
      </trkpt>
      <trkpt lat="45.44961" lon="3.63555">
        <ele>866.7</ele>
      </trkpt>
      <trkpt lat="45.4495" lon="3.63558">
        <ele>866.6</ele>
      </trkpt>
      <trkpt lat="45.44939" lon="3.63561">
        <ele>866.5</ele>
      </trkpt>
      <trkpt lat="45.44927" lon="3.63564">
        <ele>866.5</ele>
      </trkpt>
      <trkpt lat="45.44915" lon="3.63568">
        <ele>866.5</ele>
      </trkpt>
      <trkpt lat="45.44908" lon="3.63571">
        <ele>866.2</ele>
      </trkpt>
      <trkpt lat="45.44902" lon="3.63576">
        <ele>866</ele>
      </trkpt>
      <trkpt lat="45.44897" lon="3.63572">
        <ele>864.9</ele>
      </trkpt>
      <trkpt lat="45.44889" lon="3.6357">
        <ele>863.5</ele>
      </trkpt>
      <trkpt lat="45.44881" lon="3.63569">
        <ele>862.4</ele>
      </trkpt>
      <trkpt lat="45.44875" lon="3.63569">
        <ele>861.8</ele>
      </trkpt>
      <trkpt lat="45.44867" lon="3.63581">
        <ele>862.1</ele>
      </trkpt>
      <trkpt lat="45.44863" lon="3.63586">
        <ele>862.2</ele>
      </trkpt>
      <trkpt lat="45.44857" lon="3.63594">
        <ele>862.3</ele>
      </trkpt>
      <trkpt lat="45.44857" lon="3.63594">
        <ele>862.3</ele>
      </trkpt>
      <trkpt lat="45.44849" lon="3.63601">
        <ele>862.1</ele>
      </trkpt>
      <trkpt lat="45.44842" lon="3.63607">
        <ele>861.8</ele>
      </trkpt>
      <trkpt lat="45.44836" lon="3.63612">
        <ele>861.5</ele>
      </trkpt>
      <trkpt lat="45.44828" lon="3.63619">
        <ele>860.9</ele>
      </trkpt>
      <trkpt lat="45.44819" lon="3.63626">
        <ele>860.2</ele>
      </trkpt>
      <trkpt lat="45.44809" lon="3.63634">
        <ele>859.3</ele>
      </trkpt>
      <trkpt lat="45.448" lon="3.6364">
        <ele>858.7</ele>
      </trkpt>
      <trkpt lat="45.44794" lon="3.63644">
        <ele>858.3</ele>
      </trkpt>
      <trkpt lat="45.44788" lon="3.6365">
        <ele>858.1</ele>
      </trkpt>
      <trkpt lat="45.44778" lon="3.63661">
        <ele>858.1</ele>
      </trkpt>
      <trkpt lat="45.44763" lon="3.63673">
        <ele>857.6</ele>
      </trkpt>
      <trkpt lat="45.44752" lon="3.63685">
        <ele>857.4</ele>
      </trkpt>
      <trkpt lat="45.4474" lon="3.63695">
        <ele>856.5</ele>
      </trkpt>
      <trkpt lat="45.44731" lon="3.63702">
        <ele>855.6</ele>
      </trkpt>
      <trkpt lat="45.44723" lon="3.63706">
        <ele>854.5</ele>
      </trkpt>
      <trkpt lat="45.44709" lon="3.63714">
        <ele>852.7</ele>
      </trkpt>
      <trkpt lat="45.447" lon="3.63718">
        <ele>851.7</ele>
      </trkpt>
      <trkpt lat="45.44694" lon="3.63724">
        <ele>851.2</ele>
      </trkpt>
      <trkpt lat="45.44686" lon="3.63732">
        <ele>850.5</ele>
      </trkpt>
      <trkpt lat="45.44678" lon="3.63739">
        <ele>849.9</ele>
      </trkpt>
      <trkpt lat="45.44671" lon="3.63744">
        <ele>849.2</ele>
      </trkpt>
      <trkpt lat="45.44664" lon="3.63749">
        <ele>848.3</ele>
      </trkpt>
      <trkpt lat="45.44649" lon="3.63757">
        <ele>846.2</ele>
      </trkpt>
      <trkpt lat="45.44641" lon="3.63761">
        <ele>845.1</ele>
      </trkpt>
      <trkpt lat="45.44632" lon="3.63766">
        <ele>843.9</ele>
      </trkpt>
      <trkpt lat="45.44625" lon="3.63771">
        <ele>843.1</ele>
      </trkpt>
      <trkpt lat="45.44618" lon="3.63776">
        <ele>842.5</ele>
      </trkpt>
      <trkpt lat="45.44607" lon="3.63785">
        <ele>841.5</ele>
      </trkpt>
      <trkpt lat="45.44591" lon="3.63798">
        <ele>840.2</ele>
      </trkpt>
      <trkpt lat="45.44582" lon="3.63804">
        <ele>839.5</ele>
      </trkpt>
      <trkpt lat="45.44575" lon="3.63808">
        <ele>838.9</ele>
      </trkpt>
      <trkpt lat="45.4457" lon="3.6381">
        <ele>838.3</ele>
      </trkpt>
      <trkpt lat="45.44566" lon="3.63813">
        <ele>837.9</ele>
      </trkpt>
      <trkpt lat="45.44562" lon="3.63818">
        <ele>837.8</ele>
      </trkpt>
      <trkpt lat="45.44556" lon="3.63828">
        <ele>837.8</ele>
      </trkpt>
      <trkpt lat="45.44552" lon="3.63834">
        <ele>837.8</ele>
      </trkpt>
      <trkpt lat="45.44545" lon="3.63844">
        <ele>837.9</ele>
      </trkpt>
      <trkpt lat="45.44536" lon="3.63855">
        <ele>837.7</ele>
      </trkpt>
      <trkpt lat="45.44526" lon="3.63863">
        <ele>836.9</ele>
      </trkpt>
      <trkpt lat="45.44516" lon="3.63869">
        <ele>835.8</ele>
      </trkpt>
      <trkpt lat="45.44509" lon="3.63874">
        <ele>835</ele>
      </trkpt>
      <trkpt lat="45.44504" lon="3.63879">
        <ele>834.6</ele>
      </trkpt>
      <trkpt lat="45.44497" lon="3.63888">
        <ele>834.4</ele>
      </trkpt>
      <trkpt lat="45.44491" lon="3.63896">
        <ele>834.5</ele>
      </trkpt>
      <trkpt lat="45.44486" lon="3.63904">
        <ele>834.6</ele>
      </trkpt>
      <trkpt lat="45.4448" lon="3.63914">
        <ele>834.8</ele>
      </trkpt>
      <trkpt lat="45.44475" lon="3.63923">
        <ele>834.7</ele>
      </trkpt>
      <trkpt lat="45.4447" lon="3.63933">
        <ele>834.7</ele>
      </trkpt>
      <trkpt lat="45.4447" lon="3.63933">
        <ele>834.7</ele>
      </trkpt>
      <trkpt lat="45.44459" lon="3.63949">
        <ele>834.4</ele>
      </trkpt>
      <trkpt lat="45.44451" lon="3.63929">
        <ele>830.9</ele>
      </trkpt>
      <trkpt lat="45.44443" lon="3.63907">
        <ele>827.3</ele>
      </trkpt>
      <trkpt lat="45.44436" lon="3.63897">
        <ele>825.4</ele>
      </trkpt>
      <trkpt lat="45.44423" lon="3.63885">
        <ele>822.5</ele>
      </trkpt>
      <trkpt lat="45.44414" lon="3.63876">
        <ele>821.1</ele>
      </trkpt>
      <trkpt lat="45.44407" lon="3.63865">
        <ele>821.1</ele>
      </trkpt>
      <trkpt lat="45.44405" lon="3.63858">
        <ele>821.1</ele>
      </trkpt>
      <trkpt lat="45.44401" lon="3.6385">
        <ele>821.1</ele>
      </trkpt>
      <trkpt lat="45.44393" lon="3.6384">
        <ele>821.6</ele>
      </trkpt>
      <trkpt lat="45.44381" lon="3.63827">
        <ele>823</ele>
      </trkpt>
      <trkpt lat="45.44367" lon="3.6382">
        <ele>824.7</ele>
      </trkpt>
      <trkpt lat="45.44369" lon="3.63814">
        <ele>824.8</ele>
      </trkpt>
      <trkpt lat="45.4436" lon="3.63804">
        <ele>826</ele>
      </trkpt>
      <trkpt lat="45.44355" lon="3.63796">
        <ele>826.9</ele>
      </trkpt>
      <trkpt lat="45.4435" lon="3.63787">
        <ele>827.8</ele>
      </trkpt>
      <trkpt lat="45.44348" lon="3.63778">
        <ele>828.4</ele>
      </trkpt>
      <trkpt lat="45.44348" lon="3.63766">
        <ele>828.7</ele>
      </trkpt>
      <trkpt lat="45.44349" lon="3.63759">
        <ele>828.9</ele>
      </trkpt>
      <trkpt lat="45.4435" lon="3.63751">
        <ele>828.9</ele>
      </trkpt>
      <trkpt lat="45.44353" lon="3.63744">
        <ele>829.2</ele>
      </trkpt>
      <trkpt lat="45.44358" lon="3.63731">
        <ele>829.7</ele>
      </trkpt>
      <trkpt lat="45.44365" lon="3.63716">
        <ele>830</ele>
      </trkpt>
      <trkpt lat="45.44372" lon="3.637">
        <ele>830.3</ele>
      </trkpt>
      <trkpt lat="45.44377" lon="3.63687">
        <ele>830.6</ele>
      </trkpt>
      <trkpt lat="45.4438" lon="3.63675">
        <ele>831.1</ele>
      </trkpt>
      <trkpt lat="45.44381" lon="3.63663">
        <ele>831.9</ele>
      </trkpt>
      <trkpt lat="45.44383" lon="3.63645">
        <ele>833.5</ele>
      </trkpt>
      <trkpt lat="45.44384" lon="3.63623">
        <ele>835.6</ele>
      </trkpt>
      <trkpt lat="45.44384" lon="3.63607">
        <ele>837.3</ele>
      </trkpt>
      <trkpt lat="45.44384" lon="3.63591">
        <ele>838.9</ele>
      </trkpt>
      <trkpt lat="45.44385" lon="3.63566">
        <ele>841.6</ele>
      </trkpt>
      <trkpt lat="45.44385" lon="3.63537">
        <ele>844.7</ele>
      </trkpt>
      <trkpt lat="45.44384" lon="3.63528">
        <ele>845.8</ele>
      </trkpt>
      <trkpt lat="45.44382" lon="3.63516">
        <ele>847.2</ele>
      </trkpt>
      <trkpt lat="45.44378" lon="3.63503">
        <ele>848.6</ele>
      </trkpt>
      <trkpt lat="45.44372" lon="3.63491">
        <ele>849.6</ele>
      </trkpt>
      <trkpt lat="45.44367" lon="3.63478">
        <ele>850.6</ele>
      </trkpt>
      <trkpt lat="45.44365" lon="3.63471">
        <ele>851.1</ele>
      </trkpt>
      <trkpt lat="45.44364" lon="3.63459">
        <ele>851.9</ele>
      </trkpt>
      <trkpt lat="45.44365" lon="3.63446">
        <ele>852.6</ele>
      </trkpt>
      <trkpt lat="45.44369" lon="3.63437">
        <ele>853</ele>
      </trkpt>
      <trkpt lat="45.44376" lon="3.63424">
        <ele>853.5</ele>
      </trkpt>
      <trkpt lat="45.4438" lon="3.63417">
        <ele>853.8</ele>
      </trkpt>
      <trkpt lat="45.4438" lon="3.63417">
        <ele>853.8</ele>
      </trkpt>
      <trkpt lat="45.44382" lon="3.6341">
        <ele>854</ele>
      </trkpt>
      <trkpt lat="45.44384" lon="3.63398">
        <ele>854.4</ele>
      </trkpt>
      <trkpt lat="45.44384" lon="3.63387">
        <ele>854.9</ele>
      </trkpt>
      <trkpt lat="45.4437" lon="3.63391">
        <ele>855.6</ele>
      </trkpt>
      <trkpt lat="45.4436" lon="3.63393">
        <ele>856</ele>
      </trkpt>
      <trkpt lat="45.44356" lon="3.63394">
        <ele>856.2</ele>
      </trkpt>
      <trkpt lat="45.4435" lon="3.63399">
        <ele>856.2</ele>
      </trkpt>
      <trkpt lat="45.4434" lon="3.63411">
        <ele>856</ele>
      </trkpt>
      <trkpt lat="45.4433" lon="3.63424">
        <ele>855.6</ele>
      </trkpt>
      <trkpt lat="45.44324" lon="3.6343">
        <ele>855.2</ele>
      </trkpt>
      <trkpt lat="45.4432" lon="3.63433">
        <ele>855.1</ele>
      </trkpt>
      <trkpt lat="45.44312" lon="3.63436">
        <ele>855</ele>
      </trkpt>
      <trkpt lat="45.44301" lon="3.63437">
        <ele>855.1</ele>
      </trkpt>
      <trkpt lat="45.44283" lon="3.63438">
        <ele>855.4</ele>
      </trkpt>
      <trkpt lat="45.44265" lon="3.63439">
        <ele>855.6</ele>
      </trkpt>
      <trkpt lat="45.44248" lon="3.6344">
        <ele>855.9</ele>
      </trkpt>
      <trkpt lat="45.4423" lon="3.63441">
        <ele>856.8</ele>
      </trkpt>
      <trkpt lat="45.44219" lon="3.63442">
        <ele>857.4</ele>
      </trkpt>
      <trkpt lat="45.44207" lon="3.63443">
        <ele>858</ele>
      </trkpt>
      <trkpt lat="45.44192" lon="3.63444">
        <ele>858.8</ele>
      </trkpt>
      <trkpt lat="45.44187" lon="3.63446">
        <ele>859.1</ele>
      </trkpt>
      <trkpt lat="45.44181" lon="3.6345">
        <ele>859.3</ele>
      </trkpt>
      <trkpt lat="45.44178" lon="3.63454">
        <ele>859.4</ele>
      </trkpt>
      <trkpt lat="45.44174" lon="3.63459">
        <ele>859.4</ele>
      </trkpt>
      <trkpt lat="45.44168" lon="3.6347">
        <ele>859.6</ele>
      </trkpt>
      <trkpt lat="45.44163" lon="3.63484">
        <ele>859.7</ele>
      </trkpt>
      <trkpt lat="45.44158" lon="3.63497">
        <ele>859.8</ele>
      </trkpt>
      <trkpt lat="45.44159" lon="3.63504">
        <ele>859.7</ele>
      </trkpt>
      <trkpt lat="45.44153" lon="3.63506">
        <ele>860.2</ele>
      </trkpt>
      <trkpt lat="45.44148" lon="3.63511">
        <ele>860.8</ele>
      </trkpt>
      <trkpt lat="45.44142" lon="3.63512">
        <ele>861.3</ele>
      </trkpt>
      <trkpt lat="45.44137" lon="3.63512">
        <ele>861.7</ele>
      </trkpt>
      <trkpt lat="45.44133" lon="3.63509">
        <ele>862</ele>
      </trkpt>
      <trkpt lat="45.44133" lon="3.63509">
        <ele>862</ele>
      </trkpt>
      <trkpt lat="45.44121" lon="3.63502">
        <ele>862.8</ele>
      </trkpt>
      <trkpt lat="45.44108" lon="3.63491">
        <ele>864.1</ele>
      </trkpt>
      <trkpt lat="45.44102" lon="3.63485">
        <ele>864.6</ele>
      </trkpt>
      <trkpt lat="45.44094" lon="3.63474">
        <ele>865.5</ele>
      </trkpt>
      <trkpt lat="45.44081" lon="3.63457">
        <ele>866.8</ele>
      </trkpt>
      <trkpt lat="45.44068" lon="3.6344">
        <ele>868.7</ele>
      </trkpt>
      <trkpt lat="45.44055" lon="3.63423">
        <ele>870.6</ele>
      </trkpt>
      <trkpt lat="45.44042" lon="3.63406">
        <ele>873.1</ele>
      </trkpt>
      <trkpt lat="45.44032" lon="3.63393">
        <ele>875.2</ele>
      </trkpt>
      <trkpt lat="45.44022" lon="3.6338">
        <ele>877.3</ele>
      </trkpt>
      <trkpt lat="45.44008" lon="3.63362">
        <ele>880.2</ele>
      </trkpt>
      <trkpt lat="45.44008" lon="3.63362">
        <ele>880.2</ele>
      </trkpt>
      <trkpt lat="45.43995" lon="3.63344">
        <ele>883.2</ele>
      </trkpt>
      <trkpt lat="45.43979" lon="3.63321">
        <ele>886.3</ele>
      </trkpt>
      <trkpt lat="45.43972" lon="3.63314">
        <ele>887.5</ele>
      </trkpt>
      <trkpt lat="45.43965" lon="3.63308">
        <ele>888.8</ele>
      </trkpt>
      <trkpt lat="45.43956" lon="3.63304">
        <ele>890.2</ele>
      </trkpt>
      <trkpt lat="45.43944" lon="3.63299">
        <ele>892.2</ele>
      </trkpt>
      <trkpt lat="45.43931" lon="3.63295">
        <ele>894.2</ele>
      </trkpt>
      <trkpt lat="45.4392" lon="3.63291">
        <ele>896</ele>
      </trkpt>
      <trkpt lat="45.43908" lon="3.63287">
        <ele>897.3</ele>
      </trkpt>
      <trkpt lat="45.43892" lon="3.63282">
        <ele>898.7</ele>
      </trkpt>
      <trkpt lat="45.43887" lon="3.63277">
        <ele>899.2</ele>
      </trkpt>
      <trkpt lat="45.4388" lon="3.63271">
        <ele>900</ele>
      </trkpt>
      <trkpt lat="45.4387" lon="3.6326">
        <ele>901</ele>
      </trkpt>
      <trkpt lat="45.43853" lon="3.63242">
        <ele>903.1</ele>
      </trkpt>
      <trkpt lat="45.43844" lon="3.63233">
        <ele>904.3</ele>
      </trkpt>
      <trkpt lat="45.43834" lon="3.63224">
        <ele>905.5</ele>
      </trkpt>
      <trkpt lat="45.43823" lon="3.63213">
        <ele>907.7</ele>
      </trkpt>
      <trkpt lat="45.43811" lon="3.63204">
        <ele>910</ele>
      </trkpt>
      <trkpt lat="45.438" lon="3.63196">
        <ele>912.1</ele>
      </trkpt>
      <trkpt lat="45.43788" lon="3.63189">
        <ele>914.2</ele>
      </trkpt>
      <trkpt lat="45.43778" lon="3.63182">
        <ele>916.1</ele>
      </trkpt>
      <trkpt lat="45.43767" lon="3.63175">
        <ele>918</ele>
      </trkpt>
      <trkpt lat="45.43754" lon="3.63167">
        <ele>920.5</ele>
      </trkpt>
      <trkpt lat="45.4374" lon="3.63159">
        <ele>922.4</ele>
      </trkpt>
      <trkpt lat="45.43726" lon="3.63162">
        <ele>923.5</ele>
      </trkpt>
      <trkpt lat="45.43713" lon="3.63164">
        <ele>924.7</ele>
      </trkpt>
      <trkpt lat="45.43694" lon="3.63161">
        <ele>926.7</ele>
      </trkpt>
      <trkpt lat="45.43674" lon="3.63157">
        <ele>928.8</ele>
      </trkpt>
      <trkpt lat="45.43655" lon="3.63153">
        <ele>930.4</ele>
      </trkpt>
      <trkpt lat="45.4364" lon="3.63142">
        <ele>931.7</ele>
      </trkpt>
      <trkpt lat="45.43624" lon="3.63132">
        <ele>933</ele>
      </trkpt>
      <trkpt lat="45.43609" lon="3.63121">
        <ele>934.3</ele>
      </trkpt>
      <trkpt lat="45.43593" lon="3.63111">
        <ele>935.5</ele>
      </trkpt>
      <trkpt lat="45.43576" lon="3.63104">
        <ele>936.2</ele>
      </trkpt>
      <trkpt lat="45.43576" lon="3.63104">
        <ele>936.2</ele>
      </trkpt>
      <trkpt lat="45.4356" lon="3.63098">
        <ele>936.3</ele>
      </trkpt>
      <trkpt lat="45.43543" lon="3.63091">
        <ele>936.6</ele>
      </trkpt>
      <trkpt lat="45.43523" lon="3.63079">
        <ele>936.9</ele>
      </trkpt>
      <trkpt lat="45.43502" lon="3.63067">
        <ele>936.6</ele>
      </trkpt>
      <trkpt lat="45.43482" lon="3.63055">
        <ele>937.5</ele>
      </trkpt>
      <trkpt lat="45.4347" lon="3.63042">
        <ele>938.2</ele>
      </trkpt>
      <trkpt lat="45.43453" lon="3.63024">
        <ele>939.5</ele>
      </trkpt>
      <trkpt lat="45.43439" lon="3.63007">
        <ele>940.8</ele>
      </trkpt>
      <trkpt lat="45.43426" lon="3.62989">
        <ele>941.3</ele>
      </trkpt>
      <trkpt lat="45.43415" lon="3.62972">
        <ele>941.2</ele>
      </trkpt>
      <trkpt lat="45.43408" lon="3.62966">
        <ele>941.4</ele>
      </trkpt>
      <trkpt lat="45.43404" lon="3.6297">
        <ele>942.1</ele>
      </trkpt>
      <trkpt lat="45.43401" lon="3.62961">
        <ele>941.7</ele>
      </trkpt>
      <trkpt lat="45.43396" lon="3.6295">
        <ele>941.4</ele>
      </trkpt>
      <trkpt lat="45.43389" lon="3.6294">
        <ele>941.3</ele>
      </trkpt>
      <trkpt lat="45.43382" lon="3.62931">
        <ele>941.4</ele>
      </trkpt>
      <trkpt lat="45.43376" lon="3.62925">
        <ele>941.5</ele>
      </trkpt>
      <trkpt lat="45.43369" lon="3.62919">
        <ele>941.7</ele>
      </trkpt>
      <trkpt lat="45.43349" lon="3.62906">
        <ele>942.4</ele>
      </trkpt>
      <trkpt lat="45.43328" lon="3.62896">
        <ele>942.7</ele>
      </trkpt>
      <trkpt lat="45.43307" lon="3.62885">
        <ele>942.4</ele>
      </trkpt>
      <trkpt lat="45.43291" lon="3.62876">
        <ele>942.4</ele>
      </trkpt>
      <trkpt lat="45.43274" lon="3.62868">
        <ele>942.6</ele>
      </trkpt>
      <trkpt lat="45.43257" lon="3.6286">
        <ele>942.8</ele>
      </trkpt>
      <trkpt lat="45.4324" lon="3.62851">
        <ele>942.6</ele>
      </trkpt>
      <trkpt lat="45.43232" lon="3.62847">
        <ele>942.3</ele>
      </trkpt>
      <trkpt lat="45.43219" lon="3.62841">
        <ele>941.9</ele>
      </trkpt>
      <trkpt lat="45.43201" lon="3.62833">
        <ele>941.6</ele>
      </trkpt>
      <trkpt lat="45.43191" lon="3.62829">
        <ele>941.6</ele>
      </trkpt>
      <trkpt lat="45.43182" lon="3.62826">
        <ele>941.7</ele>
      </trkpt>
      <trkpt lat="45.43171" lon="3.62824">
        <ele>941.9</ele>
      </trkpt>
      <trkpt lat="45.43171" lon="3.62824">
        <ele>941.9</ele>
      </trkpt>
      <trkpt lat="45.4315" lon="3.62821">
        <ele>942.6</ele>
      </trkpt>
      <trkpt lat="45.43143" lon="3.62819">
        <ele>942.9</ele>
      </trkpt>
      <trkpt lat="45.43133" lon="3.62815">
        <ele>943.3</ele>
      </trkpt>
      <trkpt lat="45.43116" lon="3.62809">
        <ele>944.3</ele>
      </trkpt>
      <trkpt lat="45.43103" lon="3.62805">
        <ele>945.1</ele>
      </trkpt>
      <trkpt lat="45.43092" lon="3.62804">
        <ele>945.7</ele>
      </trkpt>
      <trkpt lat="45.43078" lon="3.62803">
        <ele>946.1</ele>
      </trkpt>
      <trkpt lat="45.43065" lon="3.62801">
        <ele>946</ele>
      </trkpt>
      <trkpt lat="45.4305" lon="3.62802">
        <ele>945.7</ele>
      </trkpt>
      <trkpt lat="45.43034" lon="3.62802">
        <ele>945.4</ele>
      </trkpt>
      <trkpt lat="45.43019" lon="3.62803">
        <ele>945.2</ele>
      </trkpt>
      <trkpt lat="45.42999" lon="3.62804">
        <ele>944.8</ele>
      </trkpt>
      <trkpt lat="45.42986" lon="3.62805">
        <ele>945.6</ele>
      </trkpt>
      <trkpt lat="45.42981" lon="3.62803">
        <ele>946</ele>
      </trkpt>
      <trkpt lat="45.42976" lon="3.62801">
        <ele>946.4</ele>
      </trkpt>
      <trkpt lat="45.42973" lon="3.62813">
        <ele>946.1</ele>
      </trkpt>
      <trkpt lat="45.42962" lon="3.6281">
        <ele>947</ele>
      </trkpt>
      <trkpt lat="45.42943" lon="3.62804">
        <ele>948.3</ele>
      </trkpt>
      <trkpt lat="45.42924" lon="3.62798">
        <ele>949.6</ele>
      </trkpt>
      <trkpt lat="45.42905" lon="3.62792">
        <ele>950.3</ele>
      </trkpt>
      <trkpt lat="45.42886" lon="3.62787">
        <ele>950.7</ele>
      </trkpt>
      <trkpt lat="45.42866" lon="3.62781">
        <ele>950.9</ele>
      </trkpt>
      <trkpt lat="45.42848" lon="3.62775">
        <ele>951</ele>
      </trkpt>
      <trkpt lat="45.42834" lon="3.62775">
        <ele>951.2</ele>
      </trkpt>
      <trkpt lat="45.42828" lon="3.62775">
        <ele>951</ele>
      </trkpt>
      <trkpt lat="45.42821" lon="3.62775">
        <ele>950.7</ele>
      </trkpt>
      <trkpt lat="45.42802" lon="3.62777">
        <ele>949.9</ele>
      </trkpt>
      <trkpt lat="45.42798" lon="3.62779">
        <ele>949.8</ele>
      </trkpt>
      <trkpt lat="45.4279" lon="3.62781">
        <ele>949.5</ele>
      </trkpt>
      <trkpt lat="45.42778" lon="3.62783">
        <ele>949.1</ele>
      </trkpt>
      <trkpt lat="45.42765" lon="3.62785">
        <ele>948.5</ele>
      </trkpt>
      <trkpt lat="45.42752" lon="3.62786">
        <ele>948</ele>
      </trkpt>
      <trkpt lat="45.42743" lon="3.62787">
        <ele>948.2</ele>
      </trkpt>
      <trkpt lat="45.42736" lon="3.62787">
        <ele>948.6</ele>
      </trkpt>
      <trkpt lat="45.42731" lon="3.62787">
        <ele>948.8</ele>
      </trkpt>
      <trkpt lat="45.42723" lon="3.62784">
        <ele>949.2</ele>
      </trkpt>
      <trkpt lat="45.42723" lon="3.62784">
        <ele>949.2</ele>
      </trkpt>
      <trkpt lat="45.42717" lon="3.62781">
        <ele>949.4</ele>
      </trkpt>
      <trkpt lat="45.42711" lon="3.62779">
        <ele>949.7</ele>
      </trkpt>
      <trkpt lat="45.42705" lon="3.62776">
        <ele>950</ele>
      </trkpt>
      <trkpt lat="45.42687" lon="3.6277">
        <ele>950.9</ele>
      </trkpt>
      <trkpt lat="45.42675" lon="3.62765">
        <ele>951.5</ele>
      </trkpt>
      <trkpt lat="45.42663" lon="3.62759">
        <ele>952</ele>
      </trkpt>
      <trkpt lat="45.42645" lon="3.62763">
        <ele>952.1</ele>
      </trkpt>
      <trkpt lat="45.42627" lon="3.62767">
        <ele>952.2</ele>
      </trkpt>
      <trkpt lat="45.42609" lon="3.62771">
        <ele>952.3</ele>
      </trkpt>
      <trkpt lat="45.42588" lon="3.6278">
        <ele>952.7</ele>
      </trkpt>
      <trkpt lat="45.42568" lon="3.62789">
        <ele>952.7</ele>
      </trkpt>
      <trkpt lat="45.42547" lon="3.62799">
        <ele>952.5</ele>
      </trkpt>
      <trkpt lat="45.42527" lon="3.62808">
        <ele>952.2</ele>
      </trkpt>
      <trkpt lat="45.42506" lon="3.62817">
        <ele>951.9</ele>
      </trkpt>
      <trkpt lat="45.42484" lon="3.62824">
        <ele>951.8</ele>
      </trkpt>
      <trkpt lat="45.42463" lon="3.62831">
        <ele>952</ele>
      </trkpt>
      <trkpt lat="45.42441" lon="3.62838">
        <ele>952.1</ele>
      </trkpt>
      <trkpt lat="45.42419" lon="3.62846">
        <ele>952.3</ele>
      </trkpt>
      <trkpt lat="45.42406" lon="3.62847">
        <ele>952.2</ele>
      </trkpt>
      <trkpt lat="45.42393" lon="3.62849">
        <ele>952.1</ele>
      </trkpt>
      <trkpt lat="45.42372" lon="3.62851">
        <ele>951.9</ele>
      </trkpt>
      <trkpt lat="45.42352" lon="3.62854">
        <ele>951.9</ele>
      </trkpt>
      <trkpt lat="45.42331" lon="3.62856">
        <ele>952</ele>
      </trkpt>
      <trkpt lat="45.42312" lon="3.62858">
        <ele>952.7</ele>
      </trkpt>
      <trkpt lat="45.42296" lon="3.6287">
        <ele>954</ele>
      </trkpt>
      <trkpt lat="45.4228" lon="3.62881">
        <ele>955.2</ele>
      </trkpt>
      <trkpt lat="45.42264" lon="3.62893">
        <ele>956.3</ele>
      </trkpt>
      <trkpt lat="45.42264" lon="3.62893">
        <ele>956.3</ele>
      </trkpt>
      <trkpt lat="45.4225" lon="3.62908">
        <ele>957.5</ele>
      </trkpt>
      <trkpt lat="45.42233" lon="3.62908">
        <ele>956.8</ele>
      </trkpt>
      <trkpt lat="45.42215" lon="3.62908">
        <ele>956.1</ele>
      </trkpt>
      <trkpt lat="45.42198" lon="3.62909">
        <ele>955.4</ele>
      </trkpt>
      <trkpt lat="45.42181" lon="3.62909">
        <ele>954.7</ele>
      </trkpt>
      <trkpt lat="45.42174" lon="3.62908">
        <ele>954.4</ele>
      </trkpt>
      <trkpt lat="45.42165" lon="3.62908">
        <ele>954</ele>
      </trkpt>
      <trkpt lat="45.42149" lon="3.6291">
        <ele>953.4</ele>
      </trkpt>
      <trkpt lat="45.42131" lon="3.62914">
        <ele>952.7</ele>
      </trkpt>
      <trkpt lat="45.42115" lon="3.62919">
        <ele>952.2</ele>
      </trkpt>
      <trkpt lat="45.42103" lon="3.62921">
        <ele>951.8</ele>
      </trkpt>
      <trkpt lat="45.4209" lon="3.62924">
        <ele>951.4</ele>
      </trkpt>
      <trkpt lat="45.4207" lon="3.6293">
        <ele>951.4</ele>
      </trkpt>
      <trkpt lat="45.42056" lon="3.62933">
        <ele>951.5</ele>
      </trkpt>
      <trkpt lat="45.42039" lon="3.62934">
        <ele>951.6</ele>
      </trkpt>
      <trkpt lat="45.42021" lon="3.62935">
        <ele>951.8</ele>
      </trkpt>
      <trkpt lat="45.42004" lon="3.62937">
        <ele>951.9</ele>
      </trkpt>
      <trkpt lat="45.41988" lon="3.62938">
        <ele>950.6</ele>
      </trkpt>
      <trkpt lat="45.4198" lon="3.62939">
        <ele>949.7</ele>
      </trkpt>
      <trkpt lat="45.41969" lon="3.62943">
        <ele>948.5</ele>
      </trkpt>
      <trkpt lat="45.41948" lon="3.62948">
        <ele>946.3</ele>
      </trkpt>
      <trkpt lat="45.41937" lon="3.62951">
        <ele>945.1</ele>
      </trkpt>
      <trkpt lat="45.41926" lon="3.62953">
        <ele>943.8</ele>
      </trkpt>
      <trkpt lat="45.41912" lon="3.62954">
        <ele>942.7</ele>
      </trkpt>
      <trkpt lat="45.41902" lon="3.62954">
        <ele>942.6</ele>
      </trkpt>
      <trkpt lat="45.41896" lon="3.62954">
        <ele>942.5</ele>
      </trkpt>
      <trkpt lat="45.4188" lon="3.62953">
        <ele>942.3</ele>
      </trkpt>
      <trkpt lat="45.41862" lon="3.62953">
        <ele>942.1</ele>
      </trkpt>
      <trkpt lat="45.41845" lon="3.62953">
        <ele>941.9</ele>
      </trkpt>
      <trkpt lat="45.41829" lon="3.62954">
        <ele>941.8</ele>
      </trkpt>
      <trkpt lat="45.41812" lon="3.62954">
        <ele>941.7</ele>
      </trkpt>
      <trkpt lat="45.41798" lon="3.62955">
        <ele>941.7</ele>
      </trkpt>
      <trkpt lat="45.41798" lon="3.62955">
        <ele>941.7</ele>
      </trkpt>
      <trkpt lat="45.41783" lon="3.62956">
        <ele>941.6</ele>
      </trkpt>
      <trkpt lat="45.41763" lon="3.62958">
        <ele>941.6</ele>
      </trkpt>
      <trkpt lat="45.41749" lon="3.6296">
        <ele>941.5</ele>
      </trkpt>
      <trkpt lat="45.41745" lon="3.62956">
        <ele>941.5</ele>
      </trkpt>
      <trkpt lat="45.4174" lon="3.62961">
        <ele>941.7</ele>
      </trkpt>
      <trkpt lat="45.41731" lon="3.62969">
        <ele>941.8</ele>
      </trkpt>
      <trkpt lat="45.41721" lon="3.62976">
        <ele>941.9</ele>
      </trkpt>
      <trkpt lat="45.4171" lon="3.62985">
        <ele>942</ele>
      </trkpt>
      <trkpt lat="45.41699" lon="3.62993">
        <ele>942</ele>
      </trkpt>
      <trkpt lat="45.41688" lon="3.63001">
        <ele>942</ele>
      </trkpt>
      <trkpt lat="45.41676" lon="3.6301">
        <ele>941.7</ele>
      </trkpt>
      <trkpt lat="45.41658" lon="3.63023">
        <ele>941.4</ele>
      </trkpt>
      <trkpt lat="45.41646" lon="3.63032">
        <ele>941.4</ele>
      </trkpt>
      <trkpt lat="45.41637" lon="3.63038">
        <ele>941.4</ele>
      </trkpt>
      <trkpt lat="45.41631" lon="3.63043">
        <ele>941.3</ele>
      </trkpt>
      <trkpt lat="45.41625" lon="3.63046">
        <ele>941.3</ele>
      </trkpt>
      <trkpt lat="45.4161" lon="3.63052">
        <ele>941.3</ele>
      </trkpt>
      <trkpt lat="45.41595" lon="3.63059">
        <ele>941.2</ele>
      </trkpt>
      <trkpt lat="45.4158" lon="3.63065">
        <ele>941.2</ele>
      </trkpt>
      <trkpt lat="45.41566" lon="3.63072">
        <ele>941.4</ele>
      </trkpt>
      <trkpt lat="45.41559" lon="3.63077">
        <ele>941.4</ele>
      </trkpt>
      <trkpt lat="45.41551" lon="3.63083">
        <ele>941.6</ele>
      </trkpt>
      <trkpt lat="45.41538" lon="3.63094">
        <ele>942.2</ele>
      </trkpt>
      <trkpt lat="45.41527" lon="3.63103">
        <ele>943</ele>
      </trkpt>
      <trkpt lat="45.41517" lon="3.63112">
        <ele>944</ele>
      </trkpt>
      <trkpt lat="45.41499" lon="3.63126">
        <ele>946</ele>
      </trkpt>
      <trkpt lat="45.41485" lon="3.63138">
        <ele>946.4</ele>
      </trkpt>
      <trkpt lat="45.4147" lon="3.6315">
        <ele>946.7</ele>
      </trkpt>
      <trkpt lat="45.41456" lon="3.63162">
        <ele>946.8</ele>
      </trkpt>
      <trkpt lat="45.41443" lon="3.63174">
        <ele>946.7</ele>
      </trkpt>
      <trkpt lat="45.41428" lon="3.63187">
        <ele>946.9</ele>
      </trkpt>
      <trkpt lat="45.41414" lon="3.63198">
        <ele>947.6</ele>
      </trkpt>
      <trkpt lat="45.41397" lon="3.63211">
        <ele>948.9</ele>
      </trkpt>
      <trkpt lat="45.41386" lon="3.63219">
        <ele>949.7</ele>
      </trkpt>
      <trkpt lat="45.41375" lon="3.63227">
        <ele>950.3</ele>
      </trkpt>
      <trkpt lat="45.41375" lon="3.63227">
        <ele>950.3</ele>
      </trkpt>
      <trkpt lat="45.41363" lon="3.63235">
        <ele>950.9</ele>
      </trkpt>
      <trkpt lat="45.41351" lon="3.63244">
        <ele>951.5</ele>
      </trkpt>
      <trkpt lat="45.41335" lon="3.63254">
        <ele>952</ele>
      </trkpt>
      <trkpt lat="45.41322" lon="3.63261">
        <ele>952.6</ele>
      </trkpt>
      <trkpt lat="45.41313" lon="3.63266">
        <ele>953</ele>
      </trkpt>
      <trkpt lat="45.413" lon="3.63274">
        <ele>953.7</ele>
      </trkpt>
      <trkpt lat="45.41287" lon="3.63282">
        <ele>954.5</ele>
      </trkpt>
      <trkpt lat="45.41275" lon="3.63289">
        <ele>955.2</ele>
      </trkpt>
      <trkpt lat="45.41263" lon="3.63297">
        <ele>956.1</ele>
      </trkpt>
      <trkpt lat="45.41246" lon="3.63308">
        <ele>957.2</ele>
      </trkpt>
      <trkpt lat="45.41229" lon="3.63318">
        <ele>958.4</ele>
      </trkpt>
      <trkpt lat="45.41216" lon="3.63326">
        <ele>959.3</ele>
      </trkpt>
      <trkpt lat="45.41203" lon="3.63333">
        <ele>960.3</ele>
      </trkpt>
      <trkpt lat="45.41187" lon="3.63341">
        <ele>961.2</ele>
      </trkpt>
      <trkpt lat="45.41172" lon="3.6335">
        <ele>962.2</ele>
      </trkpt>
      <trkpt lat="45.41159" lon="3.63357">
        <ele>962</ele>
      </trkpt>
      <trkpt lat="45.41148" lon="3.63363">
        <ele>961.4</ele>
      </trkpt>
      <trkpt lat="45.41139" lon="3.6337">
        <ele>961</ele>
      </trkpt>
      <trkpt lat="45.41128" lon="3.63379">
        <ele>960.5</ele>
      </trkpt>
      <trkpt lat="45.41114" lon="3.6339">
        <ele>960</ele>
      </trkpt>
      <trkpt lat="45.41104" lon="3.63399">
        <ele>959.7</ele>
      </trkpt>
      <trkpt lat="45.41094" lon="3.63408">
        <ele>959.4</ele>
      </trkpt>
      <trkpt lat="45.41082" lon="3.63419">
        <ele>959.1</ele>
      </trkpt>
      <trkpt lat="45.41072" lon="3.63429">
        <ele>958.9</ele>
      </trkpt>
      <trkpt lat="45.41065" lon="3.63438">
        <ele>959</ele>
      </trkpt>
      <trkpt lat="45.41059" lon="3.63446">
        <ele>959.2</ele>
      </trkpt>
      <trkpt lat="45.41053" lon="3.63456">
        <ele>959.7</ele>
      </trkpt>
      <trkpt lat="45.41044" lon="3.6346">
        <ele>959.1</ele>
      </trkpt>
      <trkpt lat="45.4104" lon="3.63463">
        <ele>959</ele>
      </trkpt>
      <trkpt lat="45.41036" lon="3.63467">
        <ele>959</ele>
      </trkpt>
      <trkpt lat="45.41029" lon="3.63475">
        <ele>959.2</ele>
      </trkpt>
      <trkpt lat="45.41015" lon="3.63491">
        <ele>959.5</ele>
      </trkpt>
      <trkpt lat="45.41005" lon="3.635">
        <ele>959.5</ele>
      </trkpt>
      <trkpt lat="45.40997" lon="3.63508">
        <ele>960.2</ele>
      </trkpt>
      <trkpt lat="45.40987" lon="3.63517">
        <ele>960.8</ele>
      </trkpt>
      <trkpt lat="45.4098" lon="3.63523">
        <ele>961.2</ele>
      </trkpt>
      <trkpt lat="45.4097" lon="3.63531">
        <ele>961.6</ele>
      </trkpt>
      <trkpt lat="45.4097" lon="3.63531">
        <ele>961.6</ele>
      </trkpt>
      <trkpt lat="45.40956" lon="3.63541">
        <ele>962.2</ele>
      </trkpt>
      <trkpt lat="45.40939" lon="3.63552">
        <ele>962.6</ele>
      </trkpt>
      <trkpt lat="45.40922" lon="3.63563">
        <ele>963</ele>
      </trkpt>
      <trkpt lat="45.40904" lon="3.63574">
        <ele>962.5</ele>
      </trkpt>
      <trkpt lat="45.40887" lon="3.63585">
        <ele>961.2</ele>
      </trkpt>
      <trkpt lat="45.40881" lon="3.63587">
        <ele>960.2</ele>
      </trkpt>
      <trkpt lat="45.40876" lon="3.63586">
        <ele>959.3</ele>
      </trkpt>
      <trkpt lat="45.40861" lon="3.63597">
        <ele>957.5</ele>
      </trkpt>
      <trkpt lat="45.40847" lon="3.63607">
        <ele>955.7</ele>
      </trkpt>
      <trkpt lat="45.40832" lon="3.63617">
        <ele>954.1</ele>
      </trkpt>
      <trkpt lat="45.4082" lon="3.63626">
        <ele>955</ele>
      </trkpt>
      <trkpt lat="45.40808" lon="3.63636">
        <ele>955.8</ele>
      </trkpt>
      <trkpt lat="45.40795" lon="3.63646">
        <ele>956.6</ele>
      </trkpt>
      <trkpt lat="45.40788" lon="3.63651">
        <ele>956.9</ele>
      </trkpt>
      <trkpt lat="45.40776" lon="3.63661">
        <ele>957.5</ele>
      </trkpt>
      <trkpt lat="45.40762" lon="3.63672">
        <ele>958.2</ele>
      </trkpt>
      <trkpt lat="45.40748" lon="3.63683">
        <ele>958.8</ele>
      </trkpt>
      <trkpt lat="45.40734" lon="3.63696">
        <ele>958.9</ele>
      </trkpt>
      <trkpt lat="45.40719" lon="3.63708">
        <ele>958.8</ele>
      </trkpt>
      <trkpt lat="45.40705" lon="3.63721">
        <ele>958.8</ele>
      </trkpt>
      <trkpt lat="45.40691" lon="3.63734">
        <ele>958.6</ele>
      </trkpt>
      <trkpt lat="45.40675" lon="3.63745">
        <ele>958.2</ele>
      </trkpt>
      <trkpt lat="45.40659" lon="3.63756">
        <ele>957.1</ele>
      </trkpt>
      <trkpt lat="45.40643" lon="3.63767">
        <ele>955.1</ele>
      </trkpt>
      <trkpt lat="45.40627" lon="3.63778">
        <ele>953.2</ele>
      </trkpt>
      <trkpt lat="45.40615" lon="3.63783">
        <ele>951.8</ele>
      </trkpt>
      <trkpt lat="45.40604" lon="3.63789">
        <ele>950.4</ele>
      </trkpt>
      <trkpt lat="45.40592" lon="3.63795">
        <ele>949</ele>
      </trkpt>
      <trkpt lat="45.4058" lon="3.638">
        <ele>948</ele>
      </trkpt>
      <trkpt lat="45.40561" lon="3.63808">
        <ele>947.8</ele>
      </trkpt>
      <trkpt lat="45.40545" lon="3.63813">
        <ele>947.5</ele>
      </trkpt>
      <trkpt lat="45.40545" lon="3.63813">
        <ele>947.5</ele>
      </trkpt>
      <trkpt lat="45.40532" lon="3.63817">
        <ele>947.3</ele>
      </trkpt>
      <trkpt lat="45.40519" lon="3.63821">
        <ele>946.9</ele>
      </trkpt>
      <trkpt lat="45.40502" lon="3.63834">
        <ele>946</ele>
      </trkpt>
      <trkpt lat="45.40485" lon="3.63847">
        <ele>945.2</ele>
      </trkpt>
      <trkpt lat="45.40468" lon="3.63859">
        <ele>945</ele>
      </trkpt>
      <trkpt lat="45.40452" lon="3.63872">
        <ele>945.4</ele>
      </trkpt>
      <trkpt lat="45.40435" lon="3.63885">
        <ele>946.2</ele>
      </trkpt>
      <trkpt lat="45.40418" lon="3.63898">
        <ele>947.5</ele>
      </trkpt>
      <trkpt lat="45.40398" lon="3.63906">
        <ele>947.6</ele>
      </trkpt>
      <trkpt lat="45.40378" lon="3.63915">
        <ele>947.5</ele>
      </trkpt>
      <trkpt lat="45.40358" lon="3.63924">
        <ele>947.7</ele>
      </trkpt>
      <trkpt lat="45.40338" lon="3.63933">
        <ele>948.1</ele>
      </trkpt>
      <trkpt lat="45.40318" lon="3.63941">
        <ele>947.8</ele>
      </trkpt>
      <trkpt lat="45.40298" lon="3.6395">
        <ele>947</ele>
      </trkpt>
      <trkpt lat="45.40278" lon="3.63959">
        <ele>945.8</ele>
      </trkpt>
      <trkpt lat="45.40258" lon="3.63968">
        <ele>944.4</ele>
      </trkpt>
      <trkpt lat="45.40241" lon="3.63975">
        <ele>943.6</ele>
      </trkpt>
      <trkpt lat="45.40224" lon="3.63982">
        <ele>943.3</ele>
      </trkpt>
      <trkpt lat="45.40207" lon="3.63989">
        <ele>943.1</ele>
      </trkpt>
      <trkpt lat="45.40187" lon="3.6399">
        <ele>943.2</ele>
      </trkpt>
      <trkpt lat="45.40168" lon="3.63992">
        <ele>943.4</ele>
      </trkpt>
      <trkpt lat="45.40148" lon="3.63993">
        <ele>942.5</ele>
      </trkpt>
      <trkpt lat="45.40129" lon="3.63994">
        <ele>941.5</ele>
      </trkpt>
      <trkpt lat="45.40109" lon="3.63996">
        <ele>940.6</ele>
      </trkpt>
      <trkpt lat="45.40089" lon="3.63997">
        <ele>939.5</ele>
      </trkpt>
      <trkpt lat="45.40089" lon="3.63997">
        <ele>939.5</ele>
      </trkpt>
      <trkpt lat="45.4007" lon="3.64">
        <ele>938.2</ele>
      </trkpt>
      <trkpt lat="45.40051" lon="3.64004">
        <ele>936.6</ele>
      </trkpt>
      <trkpt lat="45.40032" lon="3.64007">
        <ele>935.1</ele>
      </trkpt>
      <trkpt lat="45.40013" lon="3.6401">
        <ele>933.6</ele>
      </trkpt>
      <trkpt lat="45.39997" lon="3.64013">
        <ele>932.5</ele>
      </trkpt>
      <trkpt lat="45.39982" lon="3.64015">
        <ele>931.6</ele>
      </trkpt>
      <trkpt lat="45.39967" lon="3.64018">
        <ele>930.8</ele>
      </trkpt>
      <trkpt lat="45.39947" lon="3.64025">
        <ele>929.6</ele>
      </trkpt>
      <trkpt lat="45.39926" lon="3.64032">
        <ele>928.8</ele>
      </trkpt>
      <trkpt lat="45.39906" lon="3.64039">
        <ele>927.7</ele>
      </trkpt>
      <trkpt lat="45.39886" lon="3.64046">
        <ele>926.3</ele>
      </trkpt>
      <trkpt lat="45.39865" lon="3.64053">
        <ele>925</ele>
      </trkpt>
      <trkpt lat="45.39845" lon="3.6406">
        <ele>923.9</ele>
      </trkpt>
      <trkpt lat="45.39825" lon="3.64067">
        <ele>922.8</ele>
      </trkpt>
      <trkpt lat="45.39811" lon="3.64084">
        <ele>922.6</ele>
      </trkpt>
      <trkpt lat="45.39797" lon="3.64102">
        <ele>921.4</ele>
      </trkpt>
      <trkpt lat="45.39782" lon="3.6412">
        <ele>920</ele>
      </trkpt>
      <trkpt lat="45.39768" lon="3.64137">
        <ele>918.4</ele>
      </trkpt>
      <trkpt lat="45.39754" lon="3.64155">
        <ele>916.8</ele>
      </trkpt>
      <trkpt lat="45.39743" lon="3.64167">
        <ele>915.3</ele>
      </trkpt>
      <trkpt lat="45.3973" lon="3.64183">
        <ele>913.2</ele>
      </trkpt>
      <trkpt lat="45.39716" lon="3.64203">
        <ele>910.8</ele>
      </trkpt>
      <trkpt lat="45.39703" lon="3.64219">
        <ele>908.6</ele>
      </trkpt>
      <trkpt lat="45.39694" lon="3.64229">
        <ele>907.2</ele>
      </trkpt>
      <trkpt lat="45.39685" lon="3.64239">
        <ele>905.7</ele>
      </trkpt>
      <trkpt lat="45.39674" lon="3.64248">
        <ele>904</ele>
      </trkpt>
      <trkpt lat="45.39674" lon="3.64248">
        <ele>904</ele>
      </trkpt>
      <trkpt lat="45.39664" lon="3.64255">
        <ele>902.1</ele>
      </trkpt>
      <trkpt lat="45.39655" lon="3.6426">
        <ele>900.7</ele>
      </trkpt>
      <trkpt lat="45.39647" lon="3.64262">
        <ele>899.7</ele>
      </trkpt>
      <trkpt lat="45.39639" lon="3.64264">
        <ele>898.7</ele>
      </trkpt>
      <trkpt lat="45.39625" lon="3.64265">
        <ele>897.2</ele>
      </trkpt>
      <trkpt lat="45.39611" lon="3.64266">
        <ele>895.8</ele>
      </trkpt>
      <trkpt lat="45.39598" lon="3.64267">
        <ele>894.4</ele>
      </trkpt>
      <trkpt lat="45.39589" lon="3.64271">
        <ele>893.3</ele>
      </trkpt>
      <trkpt lat="45.39574" lon="3.6428">
        <ele>892</ele>
      </trkpt>
      <trkpt lat="45.39556" lon="3.64291">
        <ele>891</ele>
      </trkpt>
      <trkpt lat="45.39546" lon="3.64298">
        <ele>890.6</ele>
      </trkpt>
      <trkpt lat="45.39537" lon="3.64306">
        <ele>890.1</ele>
      </trkpt>
      <trkpt lat="45.39532" lon="3.64312">
        <ele>889.8</ele>
      </trkpt>
      <trkpt lat="45.39527" lon="3.6432">
        <ele>889.5</ele>
      </trkpt>
      <trkpt lat="45.39515" lon="3.64339">
        <ele>888.5</ele>
      </trkpt>
      <trkpt lat="45.39506" lon="3.64356">
        <ele>887.1</ele>
      </trkpt>
      <trkpt lat="45.39497" lon="3.6437">
        <ele>885.8</ele>
      </trkpt>
      <trkpt lat="45.39491" lon="3.6438">
        <ele>884.7</ele>
      </trkpt>
      <trkpt lat="45.39485" lon="3.6439">
        <ele>883.8</ele>
      </trkpt>
      <trkpt lat="45.39474" lon="3.6439">
        <ele>883.4</ele>
      </trkpt>
      <trkpt lat="45.39468" lon="3.64391">
        <ele>883.2</ele>
      </trkpt>
      <trkpt lat="45.3946" lon="3.6439">
        <ele>883</ele>
      </trkpt>
      <trkpt lat="45.39454" lon="3.64389">
        <ele>882.9</ele>
      </trkpt>
      <trkpt lat="45.3945" lon="3.64399">
        <ele>882.2</ele>
      </trkpt>
      <trkpt lat="45.39442" lon="3.64405">
        <ele>881.8</ele>
      </trkpt>
      <trkpt lat="45.39439" lon="3.64409">
        <ele>881.6</ele>
      </trkpt>
      <trkpt lat="45.39436" lon="3.64414">
        <ele>881.3</ele>
      </trkpt>
      <trkpt lat="45.39429" lon="3.64409">
        <ele>881.4</ele>
      </trkpt>
      <trkpt lat="45.39418" lon="3.64413">
        <ele>881.1</ele>
      </trkpt>
      <trkpt lat="45.3941" lon="3.64416">
        <ele>880.5</ele>
      </trkpt>
      <trkpt lat="45.39403" lon="3.64417">
        <ele>880</ele>
      </trkpt>
      <trkpt lat="45.39399" lon="3.64422">
        <ele>879.3</ele>
      </trkpt>
      <trkpt lat="45.39395" lon="3.64415">
        <ele>879.5</ele>
      </trkpt>
      <trkpt lat="45.39388" lon="3.64414">
        <ele>879</ele>
      </trkpt>
      <trkpt lat="45.39381" lon="3.64413">
        <ele>878.5</ele>
      </trkpt>
      <trkpt lat="45.39375" lon="3.64412">
        <ele>878.1</ele>
      </trkpt>
      <trkpt lat="45.39368" lon="3.64412">
        <ele>877.6</ele>
      </trkpt>
      <trkpt lat="45.3936" lon="3.6441">
        <ele>877</ele>
      </trkpt>
      <trkpt lat="45.39355" lon="3.64406">
        <ele>876.7</ele>
      </trkpt>
      <trkpt lat="45.39351" lon="3.64402">
        <ele>876.5</ele>
      </trkpt>
      <trkpt lat="45.39348" lon="3.64396">
        <ele>876.3</ele>
      </trkpt>
      <trkpt lat="45.39345" lon="3.64391">
        <ele>876.2</ele>
      </trkpt>
      <trkpt lat="45.39339" lon="3.64387">
        <ele>875.8</ele>
      </trkpt>
      <trkpt lat="45.39328" lon="3.64385">
        <ele>875.1</ele>
      </trkpt>
      <trkpt lat="45.39313" lon="3.64384">
        <ele>874.2</ele>
      </trkpt>
      <trkpt lat="45.39302" lon="3.64385">
        <ele>873.7</ele>
      </trkpt>
      <trkpt lat="45.39295" lon="3.64387">
        <ele>873.2</ele>
      </trkpt>
      <trkpt lat="45.39289" lon="3.64388">
        <ele>872.8</ele>
      </trkpt>
      <trkpt lat="45.3928" lon="3.64391">
        <ele>872.3</ele>
      </trkpt>
      <trkpt lat="45.3927" lon="3.64396">
        <ele>871.6</ele>
      </trkpt>
      <trkpt lat="45.39261" lon="3.644">
        <ele>871.1</ele>
      </trkpt>
      <trkpt lat="45.39261" lon="3.644">
        <ele>871.1</ele>
      </trkpt>
      <trkpt lat="45.39251" lon="3.64405">
        <ele>870.3</ele>
      </trkpt>
      <trkpt lat="45.39241" lon="3.64408">
        <ele>869.7</ele>
      </trkpt>
      <trkpt lat="45.39232" lon="3.64408">
        <ele>869.2</ele>
      </trkpt>
      <trkpt lat="45.39225" lon="3.64404">
        <ele>868.7</ele>
      </trkpt>
      <trkpt lat="45.39212" lon="3.64392">
        <ele>867.7</ele>
      </trkpt>
      <trkpt lat="45.39194" lon="3.64378">
        <ele>865.7</ele>
      </trkpt>
      <trkpt lat="45.3918" lon="3.64369">
        <ele>863.9</ele>
      </trkpt>
      <trkpt lat="45.39171" lon="3.64362">
        <ele>862.6</ele>
      </trkpt>
      <trkpt lat="45.39164" lon="3.64358">
        <ele>861.5</ele>
      </trkpt>
      <trkpt lat="45.39155" lon="3.64356">
        <ele>860.3</ele>
      </trkpt>
      <trkpt lat="45.39143" lon="3.64355">
        <ele>859.1</ele>
      </trkpt>
      <trkpt lat="45.39134" lon="3.64354">
        <ele>858</ele>
      </trkpt>
      <trkpt lat="45.39128" lon="3.64351">
        <ele>857</ele>
      </trkpt>
      <trkpt lat="45.39122" lon="3.6435">
        <ele>856.2</ele>
      </trkpt>
      <trkpt lat="45.39117" lon="3.6435">
        <ele>855.6</ele>
      </trkpt>
      <trkpt lat="45.39109" lon="3.64354">
        <ele>855.2</ele>
      </trkpt>
      <trkpt lat="45.39105" lon="3.64357">
        <ele>855.1</ele>
      </trkpt>
      <trkpt lat="45.39098" lon="3.64359">
        <ele>854.6</ele>
      </trkpt>
      <trkpt lat="45.39093" lon="3.64354">
        <ele>853.5</ele>
      </trkpt>
      <trkpt lat="45.39087" lon="3.64332">
        <ele>850.3</ele>
      </trkpt>
      <trkpt lat="45.39084" lon="3.64322">
        <ele>848.5</ele>
      </trkpt>
      <trkpt lat="45.3908" lon="3.64313">
        <ele>846.5</ele>
      </trkpt>
      <trkpt lat="45.39076" lon="3.64306">
        <ele>844.7</ele>
      </trkpt>
      <trkpt lat="45.39071" lon="3.64301">
        <ele>843.2</ele>
      </trkpt>
      <trkpt lat="45.39066" lon="3.64295">
        <ele>841.8</ele>
      </trkpt>
      <trkpt lat="45.39061" lon="3.64291">
        <ele>840.4</ele>
      </trkpt>
      <trkpt lat="45.39056" lon="3.64288">
        <ele>839.4</ele>
      </trkpt>
      <trkpt lat="45.39052" lon="3.64285">
        <ele>838.5</ele>
      </trkpt>
      <trkpt lat="45.39045" lon="3.64277">
        <ele>836.8</ele>
      </trkpt>
      <trkpt lat="45.3904" lon="3.64272">
        <ele>835.6</ele>
      </trkpt>
      <trkpt lat="45.39032" lon="3.64267">
        <ele>834.3</ele>
      </trkpt>
      <trkpt lat="45.3902" lon="3.64258">
        <ele>832.4</ele>
      </trkpt>
      <trkpt lat="45.39015" lon="3.64252">
        <ele>831.5</ele>
      </trkpt>
      <trkpt lat="45.39008" lon="3.64238">
        <ele>830.8</ele>
      </trkpt>
      <trkpt lat="45.39002" lon="3.64223">
        <ele>830.5</ele>
      </trkpt>
      <trkpt lat="45.38998" lon="3.64218">
        <ele>830.8</ele>
      </trkpt>
      <trkpt lat="45.38985" lon="3.64221">
        <ele>832.7</ele>
      </trkpt>
      <trkpt lat="45.38969" lon="3.64234">
        <ele>834.8</ele>
      </trkpt>
      <trkpt lat="45.38959" lon="3.64242">
        <ele>835.8</ele>
      </trkpt>
      <trkpt lat="45.38951" lon="3.64249">
        <ele>836.5</ele>
      </trkpt>
      <trkpt lat="45.38945" lon="3.64253">
        <ele>836.9</ele>
      </trkpt>
      <trkpt lat="45.38942" lon="3.64248">
        <ele>837.8</ele>
      </trkpt>
      <trkpt lat="45.38941" lon="3.64255">
        <ele>837.2</ele>
      </trkpt>
      <trkpt lat="45.38929" lon="3.64271">
        <ele>836.2</ele>
      </trkpt>
      <trkpt lat="45.38922" lon="3.64278">
        <ele>835.6</ele>
      </trkpt>
      <trkpt lat="45.38916" lon="3.64285">
        <ele>835</ele>
      </trkpt>
      <trkpt lat="45.38907" lon="3.64291">
        <ele>835.7</ele>
      </trkpt>
      <trkpt lat="45.38895" lon="3.643">
        <ele>836.9</ele>
      </trkpt>
      <trkpt lat="45.38881" lon="3.6431">
        <ele>838</ele>
      </trkpt>
      <trkpt lat="45.38867" lon="3.64319">
        <ele>839.4</ele>
      </trkpt>
      <trkpt lat="45.38867" lon="3.64319">
        <ele>839.4</ele>
      </trkpt>
      <trkpt lat="45.38858" lon="3.64323">
        <ele>840.6</ele>
      </trkpt>
      <trkpt lat="45.38848" lon="3.64325">
        <ele>842.5</ele>
      </trkpt>
      <trkpt lat="45.38841" lon="3.64326">
        <ele>843.9</ele>
      </trkpt>
      <trkpt lat="45.38832" lon="3.64324">
        <ele>845.9</ele>
      </trkpt>
      <trkpt lat="45.38815" lon="3.64323">
        <ele>847.3</ele>
      </trkpt>
      <trkpt lat="45.38802" lon="3.64323">
        <ele>848.2</ele>
      </trkpt>
      <trkpt lat="45.38791" lon="3.64325">
        <ele>848.5</ele>
      </trkpt>
      <trkpt lat="45.38783" lon="3.64328">
        <ele>848.5</ele>
      </trkpt>
      <trkpt lat="45.38774" lon="3.64334">
        <ele>848.2</ele>
      </trkpt>
      <trkpt lat="45.38764" lon="3.6434">
        <ele>848.6</ele>
      </trkpt>
      <trkpt lat="45.38749" lon="3.64346">
        <ele>849.1</ele>
      </trkpt>
      <trkpt lat="45.38738" lon="3.64351">
        <ele>848.6</ele>
      </trkpt>
      <trkpt lat="45.38728" lon="3.64355">
        <ele>848.3</ele>
      </trkpt>
      <trkpt lat="45.38719" lon="3.64357">
        <ele>848.2</ele>
      </trkpt>
      <trkpt lat="45.38709" lon="3.64357">
        <ele>848.1</ele>
      </trkpt>
      <trkpt lat="45.38694" lon="3.64358">
        <ele>848</ele>
      </trkpt>
      <trkpt lat="45.38681" lon="3.64358">
        <ele>847.9</ele>
      </trkpt>
      <trkpt lat="45.38668" lon="3.64358">
        <ele>847.8</ele>
      </trkpt>
      <trkpt lat="45.38657" lon="3.64357">
        <ele>848.3</ele>
      </trkpt>
      <trkpt lat="45.38646" lon="3.64356">
        <ele>848.9</ele>
      </trkpt>
      <trkpt lat="45.38634" lon="3.64354">
        <ele>849.6</ele>
      </trkpt>
      <trkpt lat="45.38625" lon="3.64351">
        <ele>850.3</ele>
      </trkpt>
      <trkpt lat="45.38619" lon="3.64348">
        <ele>850.8</ele>
      </trkpt>
      <trkpt lat="45.38613" lon="3.64343">
        <ele>851.5</ele>
      </trkpt>
      <trkpt lat="45.38606" lon="3.64336">
        <ele>852.5</ele>
      </trkpt>
      <trkpt lat="45.38598" lon="3.64327">
        <ele>853.6</ele>
      </trkpt>
      <trkpt lat="45.38589" lon="3.64317">
        <ele>855.1</ele>
      </trkpt>
      <trkpt lat="45.3858" lon="3.64308">
        <ele>856.2</ele>
      </trkpt>
      <trkpt lat="45.38573" lon="3.64302">
        <ele>856.9</ele>
      </trkpt>
      <trkpt lat="45.38566" lon="3.64297">
        <ele>857.4</ele>
      </trkpt>
      <trkpt lat="45.38554" lon="3.6429">
        <ele>858.4</ele>
      </trkpt>
      <trkpt lat="45.38547" lon="3.64286">
        <ele>859</ele>
      </trkpt>
      <trkpt lat="45.38537" lon="3.64281">
        <ele>859.6</ele>
      </trkpt>
      <trkpt lat="45.38528" lon="3.64278">
        <ele>860.2</ele>
      </trkpt>
      <trkpt lat="45.38517" lon="3.64273">
        <ele>861</ele>
      </trkpt>
      <trkpt lat="45.38506" lon="3.64266">
        <ele>862.1</ele>
      </trkpt>
      <trkpt lat="45.38494" lon="3.64258">
        <ele>863</ele>
      </trkpt>
      <trkpt lat="45.3848" lon="3.64246">
        <ele>864</ele>
      </trkpt>
      <trkpt lat="45.38472" lon="3.64238">
        <ele>864.7</ele>
      </trkpt>
      <trkpt lat="45.38467" lon="3.64231">
        <ele>865.4</ele>
      </trkpt>
      <trkpt lat="45.38461" lon="3.6422">
        <ele>866.5</ele>
      </trkpt>
      <trkpt lat="45.38456" lon="3.64211">
        <ele>867.4</ele>
      </trkpt>
      <trkpt lat="45.3845" lon="3.64197">
        <ele>868.7</ele>
      </trkpt>
      <trkpt lat="45.38446" lon="3.64189">
        <ele>869.6</ele>
      </trkpt>
      <trkpt lat="45.38446" lon="3.64189">
        <ele>869.6</ele>
      </trkpt>
      <trkpt lat="45.38437" lon="3.64174">
        <ele>870.9</ele>
      </trkpt>
      <trkpt lat="45.38428" lon="3.64161">
        <ele>871.9</ele>
      </trkpt>
      <trkpt lat="45.38418" lon="3.64145">
        <ele>872.9</ele>
      </trkpt>
      <trkpt lat="45.38412" lon="3.64136">
        <ele>873.5</ele>
      </trkpt>
      <trkpt lat="45.38406" lon="3.64128">
        <ele>874.1</ele>
      </trkpt>
      <trkpt lat="45.38395" lon="3.64115">
        <ele>874.8</ele>
      </trkpt>
      <trkpt lat="45.38388" lon="3.64104">
        <ele>875.3</ele>
      </trkpt>
      <trkpt lat="45.38383" lon="3.64092">
        <ele>875.9</ele>
      </trkpt>
      <trkpt lat="45.38376" lon="3.64088">
        <ele>875.8</ele>
      </trkpt>
      <trkpt lat="45.38375" lon="3.64097">
        <ele>875.3</ele>
      </trkpt>
      <trkpt lat="45.3837" lon="3.64109">
        <ele>874.4</ele>
      </trkpt>
      <trkpt lat="45.38364" lon="3.6412">
        <ele>873.8</ele>
      </trkpt>
      <trkpt lat="45.38356" lon="3.64129">
        <ele>873.3</ele>
      </trkpt>
      <trkpt lat="45.38351" lon="3.64134">
        <ele>873</ele>
      </trkpt>
      <trkpt lat="45.38344" lon="3.64138">
        <ele>872.8</ele>
      </trkpt>
      <trkpt lat="45.38338" lon="3.64139">
        <ele>872.7</ele>
      </trkpt>
      <trkpt lat="45.38331" lon="3.64139">
        <ele>872.5</ele>
      </trkpt>
      <trkpt lat="45.38319" lon="3.64138">
        <ele>871.8</ele>
      </trkpt>
      <trkpt lat="45.38302" lon="3.64138">
        <ele>870.7</ele>
      </trkpt>
      <trkpt lat="45.38284" lon="3.64139">
        <ele>869.5</ele>
      </trkpt>
      <trkpt lat="45.38267" lon="3.64142">
        <ele>868.3</ele>
      </trkpt>
      <trkpt lat="45.3825" lon="3.64147">
        <ele>867.2</ele>
      </trkpt>
      <trkpt lat="45.38238" lon="3.64152">
        <ele>866.7</ele>
      </trkpt>
      <trkpt lat="45.38225" lon="3.64157">
        <ele>866.3</ele>
      </trkpt>
      <trkpt lat="45.38215" lon="3.64162">
        <ele>866.1</ele>
      </trkpt>
      <trkpt lat="45.38209" lon="3.64166">
        <ele>866</ele>
      </trkpt>
      <trkpt lat="45.38196" lon="3.64175">
        <ele>865.9</ele>
      </trkpt>
      <trkpt lat="45.38185" lon="3.64184">
        <ele>866.1</ele>
      </trkpt>
      <trkpt lat="45.38171" lon="3.64195">
        <ele>866.6</ele>
      </trkpt>
      <trkpt lat="45.38159" lon="3.64203">
        <ele>866.1</ele>
      </trkpt>
      <trkpt lat="45.38145" lon="3.6421">
        <ele>864.4</ele>
      </trkpt>
      <trkpt lat="45.38126" lon="3.6422">
        <ele>862.3</ele>
      </trkpt>
      <trkpt lat="45.38106" lon="3.64231">
        <ele>860.1</ele>
      </trkpt>
      <trkpt lat="45.38094" lon="3.64238">
        <ele>858.8</ele>
      </trkpt>
      <trkpt lat="45.3808" lon="3.64249">
        <ele>857.4</ele>
      </trkpt>
      <trkpt lat="45.3807" lon="3.64257">
        <ele>855.2</ele>
      </trkpt>
      <trkpt lat="45.3806" lon="3.64262">
        <ele>853</ele>
      </trkpt>
      <trkpt lat="45.38051" lon="3.6426">
        <ele>852</ele>
      </trkpt>
      <trkpt lat="45.38051" lon="3.6426">
        <ele>852</ele>
      </trkpt>
      <trkpt lat="45.38045" lon="3.64255">
        <ele>851.6</ele>
      </trkpt>
      <trkpt lat="45.38036" lon="3.64247">
        <ele>850.6</ele>
      </trkpt>
      <trkpt lat="45.38025" lon="3.64237">
        <ele>849.1</ele>
      </trkpt>
      <trkpt lat="45.38027" lon="3.64227">
        <ele>849.5</ele>
      </trkpt>
      <trkpt lat="45.38031" lon="3.64219">
        <ele>850.1</ele>
      </trkpt>
      <trkpt lat="45.3804" lon="3.64204">
        <ele>851.1</ele>
      </trkpt>
      <trkpt lat="45.38054" lon="3.64182">
        <ele>851.9</ele>
      </trkpt>
      <trkpt lat="45.38059" lon="3.64172">
        <ele>852</ele>
      </trkpt>
      <trkpt lat="45.38062" lon="3.64163">
        <ele>852</ele>
      </trkpt>
      <trkpt lat="45.38062" lon="3.64156">
        <ele>852.2</ele>
      </trkpt>
      <trkpt lat="45.38062" lon="3.64147">
        <ele>852.3</ele>
      </trkpt>
      <trkpt lat="45.38059" lon="3.64141">
        <ele>852.3</ele>
      </trkpt>
      <trkpt lat="45.38056" lon="3.64134">
        <ele>852.5</ele>
      </trkpt>
      <trkpt lat="45.38053" lon="3.64129">
        <ele>852.6</ele>
      </trkpt>
      <trkpt lat="45.38049" lon="3.64125">
        <ele>852.7</ele>
      </trkpt>
      <trkpt lat="45.38043" lon="3.64122">
        <ele>852.8</ele>
      </trkpt>
      <trkpt lat="45.38039" lon="3.64122">
        <ele>852.9</ele>
      </trkpt>
      <trkpt lat="45.38031" lon="3.64121">
        <ele>853</ele>
      </trkpt>
      <trkpt lat="45.38023" lon="3.64123">
        <ele>853</ele>
      </trkpt>
      <trkpt lat="45.38014" lon="3.64126">
        <ele>852.8</ele>
      </trkpt>
      <trkpt lat="45.38004" lon="3.64128">
        <ele>852.7</ele>
      </trkpt>
      <trkpt lat="45.37998" lon="3.64126">
        <ele>853</ele>
      </trkpt>
      <trkpt lat="45.37989" lon="3.64122">
        <ele>853.9</ele>
      </trkpt>
      <trkpt lat="45.37983" lon="3.6412">
        <ele>854.4</ele>
      </trkpt>
      <trkpt lat="45.37977" lon="3.64118">
        <ele>854.8</ele>
      </trkpt>
      <trkpt lat="45.37972" lon="3.64118">
        <ele>855</ele>
      </trkpt>
      <trkpt lat="45.37967" lon="3.6412">
        <ele>855.1</ele>
      </trkpt>
      <trkpt lat="45.37962" lon="3.64123">
        <ele>855.1</ele>
      </trkpt>
      <trkpt lat="45.37955" lon="3.64129">
        <ele>854.8</ele>
      </trkpt>
      <trkpt lat="45.37946" lon="3.64138">
        <ele>854.1</ele>
      </trkpt>
      <trkpt lat="45.3794" lon="3.64143">
        <ele>853.9</ele>
      </trkpt>
      <trkpt lat="45.37934" lon="3.64145">
        <ele>853.8</ele>
      </trkpt>
      <trkpt lat="45.37928" lon="3.64146">
        <ele>854.1</ele>
      </trkpt>
      <trkpt lat="45.3792" lon="3.64144">
        <ele>854.6</ele>
      </trkpt>
      <trkpt lat="45.37911" lon="3.64138">
        <ele>855.1</ele>
      </trkpt>
      <trkpt lat="45.37905" lon="3.64133">
        <ele>855.3</ele>
      </trkpt>
      <trkpt lat="45.37897" lon="3.64125">
        <ele>855.7</ele>
      </trkpt>
      <trkpt lat="45.37891" lon="3.64118">
        <ele>856</ele>
      </trkpt>
      <trkpt lat="45.37884" lon="3.64109">
        <ele>856.5</ele>
      </trkpt>
      <trkpt lat="45.37874" lon="3.64095">
        <ele>857.2</ele>
      </trkpt>
      <trkpt lat="45.37861" lon="3.64077">
        <ele>857.7</ele>
      </trkpt>
      <trkpt lat="45.37849" lon="3.64059">
        <ele>857.6</ele>
      </trkpt>
      <trkpt lat="45.37839" lon="3.64046">
        <ele>857.3</ele>
      </trkpt>
      <trkpt lat="45.37839" lon="3.64046">
        <ele>857.3</ele>
      </trkpt>
      <trkpt lat="45.37831" lon="3.64037">
        <ele>856.9</ele>
      </trkpt>
      <trkpt lat="45.37821" lon="3.64028">
        <ele>856.3</ele>
      </trkpt>
      <trkpt lat="45.3781" lon="3.6402">
        <ele>855.5</ele>
      </trkpt>
      <trkpt lat="45.37798" lon="3.64011">
        <ele>854.7</ele>
      </trkpt>
      <trkpt lat="45.37788" lon="3.64001">
        <ele>854</ele>
      </trkpt>
      <trkpt lat="45.37777" lon="3.63992">
        <ele>853.5</ele>
      </trkpt>
      <trkpt lat="45.37762" lon="3.63976">
        <ele>853.2</ele>
      </trkpt>
      <trkpt lat="45.37753" lon="3.63965">
        <ele>853.2</ele>
      </trkpt>
      <trkpt lat="45.37753" lon="3.63965">
        <ele>853.2</ele>
      </trkpt>
      <trkpt lat="45.37743" lon="3.63955">
        <ele>853.4</ele>
      </trkpt>
      <trkpt lat="45.37729" lon="3.63935">
        <ele>853.8</ele>
      </trkpt>
      <trkpt lat="45.37725" lon="3.63928">
        <ele>854.1</ele>
      </trkpt>
      <trkpt lat="45.37721" lon="3.63917">
        <ele>854.6</ele>
      </trkpt>
      <trkpt lat="45.37719" lon="3.63905">
        <ele>855.3</ele>
      </trkpt>
      <trkpt lat="45.37716" lon="3.6389">
        <ele>856.2</ele>
      </trkpt>
      <trkpt lat="45.37713" lon="3.6388">
        <ele>856.9</ele>
      </trkpt>
      <trkpt lat="45.37711" lon="3.63871">
        <ele>857.4</ele>
      </trkpt>
      <trkpt lat="45.37707" lon="3.63862">
        <ele>858</ele>
      </trkpt>
      <trkpt lat="45.37703" lon="3.63855">
        <ele>858.5</ele>
      </trkpt>
      <trkpt lat="45.37699" lon="3.6385">
        <ele>858.8</ele>
      </trkpt>
      <trkpt lat="45.37694" lon="3.63847">
        <ele>859.1</ele>
      </trkpt>
      <trkpt lat="45.37687" lon="3.63844">
        <ele>859.2</ele>
      </trkpt>
      <trkpt lat="45.37682" lon="3.63842">
        <ele>859.3</ele>
      </trkpt>
      <trkpt lat="45.37675" lon="3.63842">
        <ele>859.2</ele>
      </trkpt>
      <trkpt lat="45.37659" lon="3.63842">
        <ele>858.4</ele>
      </trkpt>
      <trkpt lat="45.3764" lon="3.63845">
        <ele>856.9</ele>
      </trkpt>
      <trkpt lat="45.37629" lon="3.63845">
        <ele>856.2</ele>
      </trkpt>
      <trkpt lat="45.37624" lon="3.63843">
        <ele>856</ele>
      </trkpt>
      <trkpt lat="45.37619" lon="3.6384">
        <ele>855.9</ele>
      </trkpt>
      <trkpt lat="45.37613" lon="3.63837">
        <ele>855.8</ele>
      </trkpt>
      <trkpt lat="45.37604" lon="3.6383">
        <ele>855.8</ele>
      </trkpt>
      <trkpt lat="45.37593" lon="3.63821">
        <ele>855.7</ele>
      </trkpt>
      <trkpt lat="45.37581" lon="3.63812">
        <ele>855.7</ele>
      </trkpt>
      <trkpt lat="45.37563" lon="3.63795">
        <ele>856.3</ele>
      </trkpt>
      <trkpt lat="45.37551" lon="3.63785">
        <ele>856.5</ele>
      </trkpt>
      <trkpt lat="45.3754" lon="3.63776">
        <ele>856.6</ele>
      </trkpt>
      <trkpt lat="45.37533" lon="3.63769">
        <ele>856.6</ele>
      </trkpt>
      <trkpt lat="45.37521" lon="3.63759">
        <ele>856.6</ele>
      </trkpt>
      <trkpt lat="45.37503" lon="3.63743">
        <ele>857</ele>
      </trkpt>
      <trkpt lat="45.37487" lon="3.63729">
        <ele>857.6</ele>
      </trkpt>
      <trkpt lat="45.37475" lon="3.63718">
        <ele>858.1</ele>
      </trkpt>
      <trkpt lat="45.3747" lon="3.63711">
        <ele>858.5</ele>
      </trkpt>
      <trkpt lat="45.37467" lon="3.63705">
        <ele>858.9</ele>
      </trkpt>
      <trkpt lat="45.37451" lon="3.63703">
        <ele>858</ele>
      </trkpt>
      <trkpt lat="45.37435" lon="3.63701">
        <ele>857.1</ele>
      </trkpt>
      <trkpt lat="45.3742" lon="3.63699">
        <ele>856.1</ele>
      </trkpt>
      <trkpt lat="45.3741" lon="3.63698">
        <ele>855.8</ele>
      </trkpt>
      <trkpt lat="45.37392" lon="3.63695">
        <ele>855.7</ele>
      </trkpt>
      <trkpt lat="45.37373" lon="3.63692">
        <ele>855.6</ele>
      </trkpt>
      <trkpt lat="45.37361" lon="3.6369">
        <ele>855.5</ele>
      </trkpt>
      <trkpt lat="45.37361" lon="3.6369">
        <ele>855.5</ele>
      </trkpt>
      <trkpt lat="45.37349" lon="3.63689">
        <ele>855.4</ele>
      </trkpt>
      <trkpt lat="45.37339" lon="3.63686">
        <ele>855.6</ele>
      </trkpt>
      <trkpt lat="45.37334" lon="3.63685">
        <ele>855.6</ele>
      </trkpt>
      <trkpt lat="45.37326" lon="3.63682">
        <ele>855.4</ele>
      </trkpt>
      <trkpt lat="45.37314" lon="3.63676">
        <ele>855.3</ele>
      </trkpt>
      <trkpt lat="45.37303" lon="3.63668">
        <ele>855.3</ele>
      </trkpt>
      <trkpt lat="45.37288" lon="3.63655">
        <ele>855.6</ele>
      </trkpt>
      <trkpt lat="45.37272" lon="3.63639">
        <ele>856.1</ele>
      </trkpt>
      <trkpt lat="45.37256" lon="3.63623">
        <ele>856.7</ele>
      </trkpt>
      <trkpt lat="45.37243" lon="3.63611">
        <ele>857.1</ele>
      </trkpt>
      <trkpt lat="45.37237" lon="3.63606">
        <ele>857.3</ele>
      </trkpt>
      <trkpt lat="45.37229" lon="3.63603">
        <ele>857.1</ele>
      </trkpt>
      <trkpt lat="45.37223" lon="3.63601">
        <ele>856.6</ele>
      </trkpt>
      <trkpt lat="45.37217" lon="3.63601">
        <ele>856.2</ele>
      </trkpt>
      <trkpt lat="45.3721" lon="3.63603">
        <ele>855.6</ele>
      </trkpt>
      <trkpt lat="45.37204" lon="3.63605">
        <ele>854.8</ele>
      </trkpt>
      <trkpt lat="45.37197" lon="3.63608">
        <ele>854.1</ele>
      </trkpt>
      <trkpt lat="45.3719" lon="3.63614">
        <ele>853.1</ele>
      </trkpt>
      <trkpt lat="45.37177" lon="3.63629">
        <ele>851.4</ele>
      </trkpt>
      <trkpt lat="45.3716" lon="3.63647">
        <ele>849.8</ele>
      </trkpt>
      <trkpt lat="45.37144" lon="3.63667">
        <ele>848.4</ele>
      </trkpt>
      <trkpt lat="45.37136" lon="3.63675">
        <ele>848</ele>
      </trkpt>
      <trkpt lat="45.37125" lon="3.63682">
        <ele>847.5</ele>
      </trkpt>
      <trkpt lat="45.37116" lon="3.63687">
        <ele>847.2</ele>
      </trkpt>
      <trkpt lat="45.37098" lon="3.63694">
        <ele>846.6</ele>
      </trkpt>
      <trkpt lat="45.37079" lon="3.63701">
        <ele>846.1</ele>
      </trkpt>
      <trkpt lat="45.3706" lon="3.63709">
        <ele>845.9</ele>
      </trkpt>
      <trkpt lat="45.3704" lon="3.63717">
        <ele>845.6</ele>
      </trkpt>
      <trkpt lat="45.37023" lon="3.63724">
        <ele>845.4</ele>
      </trkpt>
      <trkpt lat="45.37006" lon="3.63731">
        <ele>845.2</ele>
      </trkpt>
      <trkpt lat="45.3699" lon="3.63737">
        <ele>845.2</ele>
      </trkpt>
      <trkpt lat="45.36974" lon="3.63743">
        <ele>845.1</ele>
      </trkpt>
      <trkpt lat="45.36958" lon="3.63749">
        <ele>845</ele>
      </trkpt>
      <trkpt lat="45.36942" lon="3.63755">
        <ele>845</ele>
      </trkpt>
      <trkpt lat="45.36926" lon="3.63761">
        <ele>845</ele>
      </trkpt>
      <trkpt lat="45.36926" lon="3.63761">
        <ele>845</ele>
      </trkpt>
      <trkpt lat="45.36914" lon="3.63765">
        <ele>845</ele>
      </trkpt>
      <trkpt lat="45.36902" lon="3.6377">
        <ele>845.2</ele>
      </trkpt>
      <trkpt lat="45.36884" lon="3.63776">
        <ele>845.5</ele>
      </trkpt>
      <trkpt lat="45.36867" lon="3.63783">
        <ele>845.8</ele>
      </trkpt>
      <trkpt lat="45.36855" lon="3.63788">
        <ele>846.1</ele>
      </trkpt>
      <trkpt lat="45.36844" lon="3.63792">
        <ele>846.3</ele>
      </trkpt>
      <trkpt lat="45.36823" lon="3.638">
        <ele>847</ele>
      </trkpt>
      <trkpt lat="45.36812" lon="3.63798">
        <ele>847.5</ele>
      </trkpt>
      <trkpt lat="45.36799" lon="3.6381">
        <ele>848.1</ele>
      </trkpt>
      <trkpt lat="45.36786" lon="3.63815">
        <ele>848.6</ele>
      </trkpt>
      <trkpt lat="45.36773" lon="3.63821">
        <ele>849.1</ele>
      </trkpt>
      <trkpt lat="45.36763" lon="3.63824">
        <ele>849.5</ele>
      </trkpt>
      <trkpt lat="45.36745" lon="3.63831">
        <ele>850.1</ele>
      </trkpt>
      <trkpt lat="45.36727" lon="3.63838">
        <ele>850.3</ele>
      </trkpt>
      <trkpt lat="45.36708" lon="3.63846">
        <ele>850.3</ele>
      </trkpt>
      <trkpt lat="45.3669" lon="3.63853">
        <ele>850.3</ele>
      </trkpt>
      <trkpt lat="45.36672" lon="3.6386">
        <ele>850.3</ele>
      </trkpt>
      <trkpt lat="45.36651" lon="3.63868">
        <ele>850</ele>
      </trkpt>
      <trkpt lat="45.36633" lon="3.63875">
        <ele>849.7</ele>
      </trkpt>
      <trkpt lat="45.36614" lon="3.63882">
        <ele>849.5</ele>
      </trkpt>
      <trkpt lat="45.36608" lon="3.63884">
        <ele>849.5</ele>
      </trkpt>
      <trkpt lat="45.366" lon="3.63896">
        <ele>849.2</ele>
      </trkpt>
      <trkpt lat="45.36592" lon="3.63905">
        <ele>849.1</ele>
      </trkpt>
      <trkpt lat="45.36587" lon="3.63911">
        <ele>849.1</ele>
      </trkpt>
      <trkpt lat="45.36576" lon="3.63919">
        <ele>849.5</ele>
      </trkpt>
      <trkpt lat="45.36569" lon="3.63922">
        <ele>850</ele>
      </trkpt>
      <trkpt lat="45.3656" lon="3.63926">
        <ele>850.6</ele>
      </trkpt>
      <trkpt lat="45.3655" lon="3.63928">
        <ele>851.2</ele>
      </trkpt>
      <trkpt lat="45.36541" lon="3.63928">
        <ele>851.8</ele>
      </trkpt>
      <trkpt lat="45.36531" lon="3.63928">
        <ele>852.6</ele>
      </trkpt>
      <trkpt lat="45.36519" lon="3.6393">
        <ele>853.4</ele>
      </trkpt>
      <trkpt lat="45.36506" lon="3.63937">
        <ele>854.1</ele>
      </trkpt>
      <trkpt lat="45.3649" lon="3.63949">
        <ele>855.1</ele>
      </trkpt>
      <trkpt lat="45.36478" lon="3.63958">
        <ele>855.7</ele>
      </trkpt>
      <trkpt lat="45.36478" lon="3.63958">
        <ele>855.7</ele>
      </trkpt>
      <trkpt lat="45.36466" lon="3.63967">
        <ele>856.3</ele>
      </trkpt>
      <trkpt lat="45.36453" lon="3.63976">
        <ele>856.9</ele>
      </trkpt>
      <trkpt lat="45.3644" lon="3.63985">
        <ele>857.4</ele>
      </trkpt>
      <trkpt lat="45.3643" lon="3.63993">
        <ele>857.6</ele>
      </trkpt>
      <trkpt lat="45.3642" lon="3.64001">
        <ele>857.8</ele>
      </trkpt>
      <trkpt lat="45.36411" lon="3.6401">
        <ele>858.6</ele>
      </trkpt>
      <trkpt lat="45.36401" lon="3.64019">
        <ele>859.4</ele>
      </trkpt>
      <trkpt lat="45.36391" lon="3.64027">
        <ele>860.1</ele>
      </trkpt>
      <trkpt lat="45.36381" lon="3.64036">
        <ele>860.7</ele>
      </trkpt>
      <trkpt lat="45.3637" lon="3.64045">
        <ele>861.3</ele>
      </trkpt>
      <trkpt lat="45.36358" lon="3.64055">
        <ele>861.7</ele>
      </trkpt>
      <trkpt lat="45.3634" lon="3.64069">
        <ele>862.1</ele>
      </trkpt>
      <trkpt lat="45.36323" lon="3.64083">
        <ele>862.6</ele>
      </trkpt>
      <trkpt lat="45.36305" lon="3.64097">
        <ele>862.9</ele>
      </trkpt>
      <trkpt lat="45.36291" lon="3.64108">
        <ele>863</ele>
      </trkpt>
      <trkpt lat="45.36274" lon="3.64121">
        <ele>863.1</ele>
      </trkpt>
      <trkpt lat="45.36256" lon="3.64134">
        <ele>863.1</ele>
      </trkpt>
      <trkpt lat="45.36244" lon="3.64143">
        <ele>862.9</ele>
      </trkpt>
      <trkpt lat="45.36234" lon="3.6415">
        <ele>862.8</ele>
      </trkpt>
      <trkpt lat="45.36223" lon="3.64157">
        <ele>862.5</ele>
      </trkpt>
      <trkpt lat="45.36215" lon="3.64161">
        <ele>862.4</ele>
      </trkpt>
      <trkpt lat="45.36202" lon="3.64167">
        <ele>862.1</ele>
      </trkpt>
      <trkpt lat="45.36192" lon="3.64172">
        <ele>862.2</ele>
      </trkpt>
      <trkpt lat="45.36179" lon="3.64176">
        <ele>862.3</ele>
      </trkpt>
      <trkpt lat="45.36158" lon="3.64181">
        <ele>862.9</ele>
      </trkpt>
      <trkpt lat="45.36144" lon="3.64186">
        <ele>863.8</ele>
      </trkpt>
      <trkpt lat="45.3613" lon="3.64191">
        <ele>864.8</ele>
      </trkpt>
      <trkpt lat="45.36117" lon="3.64195">
        <ele>865.8</ele>
      </trkpt>
      <trkpt lat="45.36105" lon="3.642">
        <ele>866.9</ele>
      </trkpt>
      <trkpt lat="45.36087" lon="3.64185">
        <ele>868.2</ele>
      </trkpt>
      <trkpt lat="45.36069" lon="3.64175">
        <ele>869</ele>
      </trkpt>
      <trkpt lat="45.36055" lon="3.64171">
        <ele>869.5</ele>
      </trkpt>
      <trkpt lat="45.36055" lon="3.64171">
        <ele>869.5</ele>
      </trkpt>
      <trkpt lat="45.36041" lon="3.64154">
        <ele>869.9</ele>
      </trkpt>
      <trkpt lat="45.36038" lon="3.64137">
        <ele>869.7</ele>
      </trkpt>
      <trkpt lat="45.36034" lon="3.64119">
        <ele>869.5</ele>
      </trkpt>
      <trkpt lat="45.36021" lon="3.64112">
        <ele>869.4</ele>
      </trkpt>
      <trkpt lat="45.36" lon="3.64106">
        <ele>869.1</ele>
      </trkpt>
      <trkpt lat="45.35979" lon="3.64101">
        <ele>871.3</ele>
      </trkpt>
      <trkpt lat="45.35964" lon="3.64089">
        <ele>872.8</ele>
      </trkpt>
      <trkpt lat="45.35949" lon="3.64077">
        <ele>874.4</ele>
      </trkpt>
      <trkpt lat="45.35928" lon="3.64075">
        <ele>876.9</ele>
      </trkpt>
      <trkpt lat="45.35907" lon="3.64073">
        <ele>880</ele>
      </trkpt>
      <trkpt lat="45.35885" lon="3.64071">
        <ele>883.8</ele>
      </trkpt>
      <trkpt lat="45.35864" lon="3.64069">
        <ele>887.6</ele>
      </trkpt>
      <trkpt lat="45.35845" lon="3.64071">
        <ele>891.3</ele>
      </trkpt>
      <trkpt lat="45.35826" lon="3.64073">
        <ele>894.9</ele>
      </trkpt>
      <trkpt lat="45.35807" lon="3.64076">
        <ele>898</ele>
      </trkpt>
      <trkpt lat="45.35801" lon="3.64096">
        <ele>899.1</ele>
      </trkpt>
      <trkpt lat="45.35789" lon="3.64114">
        <ele>900</ele>
      </trkpt>
      <trkpt lat="45.35776" lon="3.64138">
        <ele>900.9</ele>
      </trkpt>
      <trkpt lat="45.35759" lon="3.64158">
        <ele>902.9</ele>
      </trkpt>
      <trkpt lat="45.35737" lon="3.64159">
        <ele>905.4</ele>
      </trkpt>
      <trkpt lat="45.35716" lon="3.64159">
        <ele>907.2</ele>
      </trkpt>
      <trkpt lat="45.35694" lon="3.6416">
        <ele>909</ele>
      </trkpt>
      <trkpt lat="45.35674" lon="3.64162">
        <ele>910.7</ele>
      </trkpt>
      <trkpt lat="45.35653" lon="3.64163">
        <ele>913.7</ele>
      </trkpt>
      <trkpt lat="45.35633" lon="3.64165">
        <ele>917.5</ele>
      </trkpt>
      <trkpt lat="45.35633" lon="3.64165">
        <ele>917.5</ele>
      </trkpt>
      <trkpt lat="45.35613" lon="3.64167">
        <ele>921.4</ele>
      </trkpt>
      <trkpt lat="45.35593" lon="3.64172">
        <ele>924.9</ele>
      </trkpt>
      <trkpt lat="45.35573" lon="3.64177">
        <ele>927.3</ele>
      </trkpt>
      <trkpt lat="45.35553" lon="3.64183">
        <ele>928.8</ele>
      </trkpt>
      <trkpt lat="45.35541" lon="3.64188">
        <ele>929.8</ele>
      </trkpt>
      <trkpt lat="45.35529" lon="3.64194">
        <ele>930.9</ele>
      </trkpt>
      <trkpt lat="45.3551" lon="3.64204">
        <ele>932.9</ele>
      </trkpt>
      <trkpt lat="45.35491" lon="3.64214">
        <ele>934.1</ele>
      </trkpt>
      <trkpt lat="45.35472" lon="3.64223">
        <ele>934.1</ele>
      </trkpt>
      <trkpt lat="45.35453" lon="3.64233">
        <ele>934.1</ele>
      </trkpt>
      <trkpt lat="45.35434" lon="3.64239">
        <ele>934</ele>
      </trkpt>
      <trkpt lat="45.35415" lon="3.64245">
        <ele>933.8</ele>
      </trkpt>
      <trkpt lat="45.35397" lon="3.6425">
        <ele>932.1</ele>
      </trkpt>
      <trkpt lat="45.35378" lon="3.64256">
        <ele>929.9</ele>
      </trkpt>
      <trkpt lat="45.35358" lon="3.64268">
        <ele>927.2</ele>
      </trkpt>
      <trkpt lat="45.35341" lon="3.64283">
        <ele>924.7</ele>
      </trkpt>
      <trkpt lat="45.35325" lon="3.64297">
        <ele>924.1</ele>
      </trkpt>
      <trkpt lat="45.35315" lon="3.64305">
        <ele>924.8</ele>
      </trkpt>
      <trkpt lat="45.35303" lon="3.64314">
        <ele>925.5</ele>
      </trkpt>
      <trkpt lat="45.35287" lon="3.64323">
        <ele>926.7</ele>
      </trkpt>
      <trkpt lat="45.35271" lon="3.6433">
        <ele>927.9</ele>
      </trkpt>
      <trkpt lat="45.35264" lon="3.64335">
        <ele>928.4</ele>
      </trkpt>
      <trkpt lat="45.35251" lon="3.64349">
        <ele>928.6</ele>
      </trkpt>
      <trkpt lat="45.35239" lon="3.6436">
        <ele>928.5</ele>
      </trkpt>
      <trkpt lat="45.35227" lon="3.64371">
        <ele>928.7</ele>
      </trkpt>
      <trkpt lat="45.35216" lon="3.6438">
        <ele>929.1</ele>
      </trkpt>
      <trkpt lat="45.35204" lon="3.64389">
        <ele>929.7</ele>
      </trkpt>
      <trkpt lat="45.35192" lon="3.64398">
        <ele>930.5</ele>
      </trkpt>
      <trkpt lat="45.35192" lon="3.64398">
        <ele>930.5</ele>
      </trkpt>
      <trkpt lat="45.3518" lon="3.64408">
        <ele>931.6</ele>
      </trkpt>
      <trkpt lat="45.35168" lon="3.64417">
        <ele>932.8</ele>
      </trkpt>
      <trkpt lat="45.35156" lon="3.64426">
        <ele>932</ele>
      </trkpt>
      <trkpt lat="45.35146" lon="3.64437">
        <ele>931</ele>
      </trkpt>
      <trkpt lat="45.35136" lon="3.64454">
        <ele>930</ele>
      </trkpt>
      <trkpt lat="45.35126" lon="3.64468">
        <ele>929.5</ele>
      </trkpt>
      <trkpt lat="45.35121" lon="3.64477">
        <ele>929.3</ele>
      </trkpt>
      <trkpt lat="45.35102" lon="3.64493">
        <ele>929.8</ele>
      </trkpt>
      <trkpt lat="45.35088" lon="3.64511">
        <ele>931</ele>
      </trkpt>
      <trkpt lat="45.3508" lon="3.64526">
        <ele>932.1</ele>
      </trkpt>
      <trkpt lat="45.35068" lon="3.64541">
        <ele>933.1</ele>
      </trkpt>
      <trkpt lat="45.35059" lon="3.64555">
        <ele>934.1</ele>
      </trkpt>
      <trkpt lat="45.35051" lon="3.64563">
        <ele>934.9</ele>
      </trkpt>
      <trkpt lat="45.35045" lon="3.64566">
        <ele>935.4</ele>
      </trkpt>
      <trkpt lat="45.35038" lon="3.64567">
        <ele>935.8</ele>
      </trkpt>
      <trkpt lat="45.35032" lon="3.64567">
        <ele>936.1</ele>
      </trkpt>
      <trkpt lat="45.3502" lon="3.64566">
        <ele>936.7</ele>
      </trkpt>
      <trkpt lat="45.35002" lon="3.64566">
        <ele>937.6</ele>
      </trkpt>
      <trkpt lat="45.34981" lon="3.64565">
        <ele>937.5</ele>
      </trkpt>
      <trkpt lat="45.3496" lon="3.64566">
        <ele>937.4</ele>
      </trkpt>
      <trkpt lat="45.34948" lon="3.64568">
        <ele>937.3</ele>
      </trkpt>
      <trkpt lat="45.34937" lon="3.64569">
        <ele>937.2</ele>
      </trkpt>
      <trkpt lat="45.34924" lon="3.64574">
        <ele>937.1</ele>
      </trkpt>
      <trkpt lat="45.34907" lon="3.64586">
        <ele>937.3</ele>
      </trkpt>
      <trkpt lat="45.34889" lon="3.646">
        <ele>937.9</ele>
      </trkpt>
      <trkpt lat="45.34878" lon="3.64607">
        <ele>938.3</ele>
      </trkpt>
      <trkpt lat="45.34867" lon="3.64614">
        <ele>938.8</ele>
      </trkpt>
      <trkpt lat="45.34852" lon="3.64622">
        <ele>939.4</ele>
      </trkpt>
      <trkpt lat="45.34837" lon="3.64631">
        <ele>940</ele>
      </trkpt>
      <trkpt lat="45.34824" lon="3.64637">
        <ele>940.3</ele>
      </trkpt>
      <trkpt lat="45.34811" lon="3.64644">
        <ele>940.5</ele>
      </trkpt>
      <trkpt lat="45.34802" lon="3.6465">
        <ele>940.7</ele>
      </trkpt>
      <trkpt lat="45.3479" lon="3.64661">
        <ele>941.3</ele>
      </trkpt>
      <trkpt lat="45.34783" lon="3.64666">
        <ele>941.6</ele>
      </trkpt>
      <trkpt lat="45.34783" lon="3.64666">
        <ele>941.6</ele>
      </trkpt>
      <trkpt lat="45.34783" lon="3.64675">
        <ele>942</ele>
      </trkpt>
      <trkpt lat="45.34778" lon="3.64688">
        <ele>942.9</ele>
      </trkpt>
      <trkpt lat="45.3477" lon="3.64708">
        <ele>944.1</ele>
      </trkpt>
      <trkpt lat="45.34768" lon="3.64716">
        <ele>944.6</ele>
      </trkpt>
      <trkpt lat="45.34767" lon="3.64722">
        <ele>945</ele>
      </trkpt>
      <trkpt lat="45.34764" lon="3.64739">
        <ele>946</ele>
      </trkpt>
      <trkpt lat="45.34761" lon="3.64759">
        <ele>947</ele>
      </trkpt>
      <trkpt lat="45.34757" lon="3.64773">
        <ele>947.4</ele>
      </trkpt>
      <trkpt lat="45.34755" lon="3.64783">
        <ele>947.7</ele>
      </trkpt>
      <trkpt lat="45.34752" lon="3.64805">
        <ele>948.3</ele>
      </trkpt>
      <trkpt lat="45.3475" lon="3.64821">
        <ele>948.7</ele>
      </trkpt>
      <trkpt lat="45.34748" lon="3.64848">
        <ele>949.8</ele>
      </trkpt>
      <trkpt lat="45.34747" lon="3.64877">
        <ele>951.3</ele>
      </trkpt>
      <trkpt lat="45.34746" lon="3.64905">
        <ele>952.6</ele>
      </trkpt>
      <trkpt lat="45.34746" lon="3.64924">
        <ele>953.6</ele>
      </trkpt>
      <trkpt lat="45.34747" lon="3.64943">
        <ele>954.7</ele>
      </trkpt>
      <trkpt lat="45.34747" lon="3.64968">
        <ele>956.2</ele>
      </trkpt>
      <trkpt lat="45.34748" lon="3.64994">
        <ele>957.7</ele>
      </trkpt>
      <trkpt lat="45.34748" lon="3.65019">
        <ele>959.4</ele>
      </trkpt>
      <trkpt lat="45.34749" lon="3.65045">
        <ele>961.2</ele>
      </trkpt>
      <trkpt lat="45.34749" lon="3.65071">
        <ele>963.1</ele>
      </trkpt>
      <trkpt lat="45.3475" lon="3.65097">
        <ele>964.3</ele>
      </trkpt>
      <trkpt lat="45.34751" lon="3.65123">
        <ele>964.9</ele>
      </trkpt>
      <trkpt lat="45.34751" lon="3.65149">
        <ele>965.5</ele>
      </trkpt>
      <trkpt lat="45.34752" lon="3.65166">
        <ele>965.9</ele>
      </trkpt>
      <trkpt lat="45.34753" lon="3.65183">
        <ele>965</ele>
      </trkpt>
      <trkpt lat="45.34752" lon="3.65209">
        <ele>963.5</ele>
      </trkpt>
      <trkpt lat="45.34753" lon="3.65231">
        <ele>962.3</ele>
      </trkpt>
      <trkpt lat="45.34754" lon="3.65248">
        <ele>961.4</ele>
      </trkpt>
      <trkpt lat="45.34757" lon="3.65265">
        <ele>962.8</ele>
      </trkpt>
      <trkpt lat="45.34761" lon="3.65279">
        <ele>964.2</ele>
      </trkpt>
      <trkpt lat="45.34766" lon="3.65298">
        <ele>966.2</ele>
      </trkpt>
      <trkpt lat="45.34772" lon="3.65316">
        <ele>968.1</ele>
      </trkpt>
      <trkpt lat="45.34772" lon="3.65316">
        <ele>968.1</ele>
      </trkpt>
      <trkpt lat="45.34779" lon="3.65336">
        <ele>970.2</ele>
      </trkpt>
      <trkpt lat="45.34786" lon="3.65355">
        <ele>971.2</ele>
      </trkpt>
      <trkpt lat="45.34795" lon="3.65377">
        <ele>972.2</ele>
      </trkpt>
      <trkpt lat="45.34803" lon="3.65398">
        <ele>973</ele>
      </trkpt>
      <trkpt lat="45.3481" lon="3.65415">
        <ele>973.4</ele>
      </trkpt>
      <trkpt lat="45.34791" lon="3.6543">
        <ele>973.2</ele>
      </trkpt>
      <trkpt lat="45.34772" lon="3.65444">
        <ele>973.1</ele>
      </trkpt>
      <trkpt lat="45.34757" lon="3.65456">
        <ele>973.1</ele>
      </trkpt>
      <trkpt lat="45.34743" lon="3.65468">
        <ele>972.4</ele>
      </trkpt>
      <trkpt lat="45.34728" lon="3.6548">
        <ele>971</ele>
      </trkpt>
      <trkpt lat="45.3471" lon="3.65495">
        <ele>969.1</ele>
      </trkpt>
      <trkpt lat="45.34692" lon="3.6551">
        <ele>967.2</ele>
      </trkpt>
      <trkpt lat="45.34677" lon="3.65527">
        <ele>965.7</ele>
      </trkpt>
      <trkpt lat="45.34661" lon="3.65544">
        <ele>965</ele>
      </trkpt>
      <trkpt lat="45.34649" lon="3.65557">
        <ele>965.5</ele>
      </trkpt>
      <trkpt lat="45.34637" lon="3.6557">
        <ele>966.3</ele>
      </trkpt>
      <trkpt lat="45.34622" lon="3.65584">
        <ele>967.6</ele>
      </trkpt>
      <trkpt lat="45.34607" lon="3.65598">
        <ele>968.1</ele>
      </trkpt>
      <trkpt lat="45.34593" lon="3.65612">
        <ele>968.7</ele>
      </trkpt>
      <trkpt lat="45.34578" lon="3.65626">
        <ele>969.2</ele>
      </trkpt>
      <trkpt lat="45.34563" lon="3.65641">
        <ele>970</ele>
      </trkpt>
      <trkpt lat="45.34547" lon="3.65656">
        <ele>971.2</ele>
      </trkpt>
      <trkpt lat="45.34532" lon="3.65671">
        <ele>972.9</ele>
      </trkpt>
      <trkpt lat="45.34517" lon="3.65686">
        <ele>974.8</ele>
      </trkpt>
      <trkpt lat="45.34499" lon="3.65703">
        <ele>977.2</ele>
      </trkpt>
      <trkpt lat="45.3448" lon="3.65721">
        <ele>978.7</ele>
      </trkpt>
      <trkpt lat="45.3448" lon="3.65721">
        <ele>978.7</ele>
      </trkpt>
      <trkpt lat="45.34465" lon="3.65732">
        <ele>979.9</ele>
      </trkpt>
      <trkpt lat="45.34449" lon="3.65743">
        <ele>981.2</ele>
      </trkpt>
      <trkpt lat="45.34434" lon="3.65751">
        <ele>982.4</ele>
      </trkpt>
      <trkpt lat="45.34419" lon="3.65759">
        <ele>983.5</ele>
      </trkpt>
      <trkpt lat="45.34403" lon="3.65769">
        <ele>984.8</ele>
      </trkpt>
      <trkpt lat="45.34387" lon="3.65779">
        <ele>985.9</ele>
      </trkpt>
      <trkpt lat="45.34369" lon="3.6579">
        <ele>987.1</ele>
      </trkpt>
      <trkpt lat="45.3435" lon="3.65801">
        <ele>988.1</ele>
      </trkpt>
      <trkpt lat="45.34332" lon="3.65812">
        <ele>988.8</ele>
      </trkpt>
      <trkpt lat="45.34321" lon="3.65818">
        <ele>987.6</ele>
      </trkpt>
      <trkpt lat="45.3431" lon="3.65823">
        <ele>986.5</ele>
      </trkpt>
      <trkpt lat="45.34307" lon="3.65843">
        <ele>987.2</ele>
      </trkpt>
      <trkpt lat="45.34303" lon="3.65863">
        <ele>988.4</ele>
      </trkpt>
      <trkpt lat="45.343" lon="3.65883">
        <ele>989.9</ele>
      </trkpt>
      <trkpt lat="45.34301" lon="3.65905">
        <ele>991.9</ele>
      </trkpt>
      <trkpt lat="45.34303" lon="3.65916">
        <ele>992.9</ele>
      </trkpt>
      <trkpt lat="45.34305" lon="3.65923">
        <ele>993.2</ele>
      </trkpt>
      <trkpt lat="45.34311" lon="3.65941">
        <ele>994</ele>
      </trkpt>
      <trkpt lat="45.34323" lon="3.65965">
        <ele>994.7</ele>
      </trkpt>
      <trkpt lat="45.34339" lon="3.65988">
        <ele>994.8</ele>
      </trkpt>
      <trkpt lat="45.34349" lon="3.66003">
        <ele>995.1</ele>
      </trkpt>
      <trkpt lat="45.34357" lon="3.66012">
        <ele>995.4</ele>
      </trkpt>
      <trkpt lat="45.34353" lon="3.66037">
        <ele>996.2</ele>
      </trkpt>
      <trkpt lat="45.34349" lon="3.66061">
        <ele>996.9</ele>
      </trkpt>
      <trkpt lat="45.34345" lon="3.66086">
        <ele>997.6</ele>
      </trkpt>
      <trkpt lat="45.34334" lon="3.6608">
        <ele>997</ele>
      </trkpt>
      <trkpt lat="45.34324" lon="3.66075">
        <ele>997.2</ele>
      </trkpt>
      <trkpt lat="45.34317" lon="3.66072">
        <ele>997.3</ele>
      </trkpt>
      <trkpt lat="45.34312" lon="3.66096">
        <ele>998.4</ele>
      </trkpt>
      <trkpt lat="45.34307" lon="3.6612">
        <ele>999.8</ele>
      </trkpt>
      <trkpt lat="45.34305" lon="3.66141">
        <ele>1001</ele>
      </trkpt>
      <trkpt lat="45.34305" lon="3.66141">
        <ele>1001</ele>
      </trkpt>
      <trkpt lat="45.34304" lon="3.66162">
        <ele>1002.1</ele>
      </trkpt>
      <trkpt lat="45.34302" lon="3.66183">
        <ele>1001.7</ele>
      </trkpt>
      <trkpt lat="45.34298" lon="3.66212">
        <ele>1000.6</ele>
      </trkpt>
      <trkpt lat="45.34294" lon="3.6624">
        <ele>999.7</ele>
      </trkpt>
      <trkpt lat="45.3429" lon="3.66257">
        <ele>999</ele>
      </trkpt>
      <trkpt lat="45.34286" lon="3.66273">
        <ele>997.9</ele>
      </trkpt>
      <trkpt lat="45.34277" lon="3.66292">
        <ele>996.7</ele>
      </trkpt>
      <trkpt lat="45.34269" lon="3.66311">
        <ele>995.4</ele>
      </trkpt>
      <trkpt lat="45.34257" lon="3.66335">
        <ele>993.5</ele>
      </trkpt>
      <trkpt lat="45.34245" lon="3.66358">
        <ele>988.8</ele>
      </trkpt>
      <trkpt lat="45.34237" lon="3.66377">
        <ele>984.6</ele>
      </trkpt>
      <trkpt lat="45.34229" lon="3.66396">
        <ele>980.5</ele>
      </trkpt>
      <trkpt lat="45.34219" lon="3.6641">
        <ele>977.4</ele>
      </trkpt>
      <trkpt lat="45.34209" lon="3.6642">
        <ele>975.2</ele>
      </trkpt>
      <trkpt lat="45.34188" lon="3.66429">
        <ele>973.3</ele>
      </trkpt>
      <trkpt lat="45.34168" lon="3.66438">
        <ele>972</ele>
      </trkpt>
      <trkpt lat="45.34151" lon="3.66444">
        <ele>971.6</ele>
      </trkpt>
      <trkpt lat="45.34142" lon="3.66447">
        <ele>971.3</ele>
      </trkpt>
      <trkpt lat="45.34121" lon="3.66451">
        <ele>970.8</ele>
      </trkpt>
      <trkpt lat="45.34102" lon="3.6645">
        <ele>970.6</ele>
      </trkpt>
      <trkpt lat="45.34087" lon="3.66459">
        <ele>969.5</ele>
      </trkpt>
      <trkpt lat="45.34072" lon="3.66467">
        <ele>967.2</ele>
      </trkpt>
      <trkpt lat="45.34071" lon="3.66495">
        <ele>964.1</ele>
      </trkpt>
      <trkpt lat="45.3407" lon="3.66523">
        <ele>966.1</ele>
      </trkpt>
      <trkpt lat="45.3407" lon="3.66551">
        <ele>969.2</ele>
      </trkpt>
      <trkpt lat="45.34069" lon="3.66579">
        <ele>972.4</ele>
      </trkpt>
      <trkpt lat="45.34068" lon="3.66607">
        <ele>978.7</ele>
      </trkpt>
      <trkpt lat="45.34067" lon="3.66635">
        <ele>985.7</ele>
      </trkpt>
      <trkpt lat="45.34067" lon="3.66635">
        <ele>985.7</ele>
      </trkpt>
      <trkpt lat="45.34066" lon="3.66644">
        <ele>987.8</ele>
      </trkpt>
      <trkpt lat="45.3406" lon="3.66655">
        <ele>989.6</ele>
      </trkpt>
      <trkpt lat="45.34046" lon="3.66665">
        <ele>990.3</ele>
      </trkpt>
      <trkpt lat="45.34032" lon="3.66676">
        <ele>991.3</ele>
      </trkpt>
      <trkpt lat="45.34018" lon="3.66687">
        <ele>992.3</ele>
      </trkpt>
      <trkpt lat="45.34003" lon="3.66697">
        <ele>993.6</ele>
      </trkpt>
      <trkpt lat="45.33993" lon="3.66705">
        <ele>994</ele>
      </trkpt>
      <trkpt lat="45.33982" lon="3.66712">
        <ele>994.2</ele>
      </trkpt>
      <trkpt lat="45.33972" lon="3.66721">
        <ele>994.7</ele>
      </trkpt>
      <trkpt lat="45.33962" lon="3.6673">
        <ele>995</ele>
      </trkpt>
      <trkpt lat="45.33947" lon="3.66743">
        <ele>995.2</ele>
      </trkpt>
      <trkpt lat="45.33933" lon="3.66756">
        <ele>994.8</ele>
      </trkpt>
      <trkpt lat="45.33918" lon="3.66769">
        <ele>993.9</ele>
      </trkpt>
      <trkpt lat="45.33904" lon="3.66786">
        <ele>994.8</ele>
      </trkpt>
      <trkpt lat="45.3389" lon="3.66802">
        <ele>995.2</ele>
      </trkpt>
      <trkpt lat="45.33877" lon="3.66817">
        <ele>995.3</ele>
      </trkpt>
      <trkpt lat="45.33864" lon="3.66831">
        <ele>994.9</ele>
      </trkpt>
      <trkpt lat="45.33853" lon="3.6684">
        <ele>994.2</ele>
      </trkpt>
      <trkpt lat="45.33841" lon="3.66849">
        <ele>993.6</ele>
      </trkpt>
      <trkpt lat="45.33832" lon="3.66858">
        <ele>993.3</ele>
      </trkpt>
      <trkpt lat="45.33822" lon="3.66867">
        <ele>994.1</ele>
      </trkpt>
      <trkpt lat="45.33804" lon="3.66886">
        <ele>995.8</ele>
      </trkpt>
      <trkpt lat="45.33789" lon="3.66904">
        <ele>997.5</ele>
      </trkpt>
      <trkpt lat="45.33775" lon="3.66922">
        <ele>999.4</ele>
      </trkpt>
      <trkpt lat="45.33764" lon="3.66939">
        <ele>1001.2</ele>
      </trkpt>
      <trkpt lat="45.33752" lon="3.66956">
        <ele>1002.7</ele>
      </trkpt>
      <trkpt lat="45.33741" lon="3.66969">
        <ele>1004.4</ele>
      </trkpt>
      <trkpt lat="45.33734" lon="3.66978">
        <ele>1005.4</ele>
      </trkpt>
      <trkpt lat="45.33724" lon="3.66988">
        <ele>1006.4</ele>
      </trkpt>
      <trkpt lat="45.33714" lon="3.66997">
        <ele>1007.4</ele>
      </trkpt>
      <trkpt lat="45.337" lon="3.67011">
        <ele>1008.2</ele>
      </trkpt>
      <trkpt lat="45.33689" lon="3.67027">
        <ele>1009</ele>
      </trkpt>
      <trkpt lat="45.33689" lon="3.67027">
        <ele>1009</ele>
      </trkpt>
      <trkpt lat="45.3368" lon="3.67039">
        <ele>1009.5</ele>
      </trkpt>
      <trkpt lat="45.33672" lon="3.67062">
        <ele>1010.7</ele>
      </trkpt>
      <trkpt lat="45.33664" lon="3.67088">
        <ele>1012.1</ele>
      </trkpt>
      <trkpt lat="45.3366" lon="3.67105">
        <ele>1013.3</ele>
      </trkpt>
      <trkpt lat="45.33657" lon="3.67122">
        <ele>1014.5</ele>
      </trkpt>
      <trkpt lat="45.33652" lon="3.67138">
        <ele>1015.4</ele>
      </trkpt>
      <trkpt lat="45.33645" lon="3.67145">
        <ele>1015.5</ele>
      </trkpt>
      <trkpt lat="45.33633" lon="3.67153">
        <ele>1015.4</ele>
      </trkpt>
      <trkpt lat="45.33617" lon="3.67162">
        <ele>1014.9</ele>
      </trkpt>
      <trkpt lat="45.33603" lon="3.67171">
        <ele>1015.2</ele>
      </trkpt>
      <trkpt lat="45.33589" lon="3.67178">
        <ele>1015.6</ele>
      </trkpt>
      <trkpt lat="45.33573" lon="3.67182">
        <ele>1016</ele>
      </trkpt>
      <trkpt lat="45.33561" lon="3.67185">
        <ele>1016.4</ele>
      </trkpt>
      <trkpt lat="45.33548" lon="3.67188">
        <ele>1016.7</ele>
      </trkpt>
      <trkpt lat="45.33534" lon="3.67191">
        <ele>1017.1</ele>
      </trkpt>
      <trkpt lat="45.33514" lon="3.67199">
        <ele>1017.7</ele>
      </trkpt>
      <trkpt lat="45.33494" lon="3.67206">
        <ele>1017.6</ele>
      </trkpt>
      <trkpt lat="45.33481" lon="3.67212">
        <ele>1016.8</ele>
      </trkpt>
      <trkpt lat="45.33469" lon="3.67218">
        <ele>1015.9</ele>
      </trkpt>
      <trkpt lat="45.33453" lon="3.67227">
        <ele>1015</ele>
      </trkpt>
      <trkpt lat="45.33437" lon="3.67237">
        <ele>1014.1</ele>
      </trkpt>
      <trkpt lat="45.33422" lon="3.67246">
        <ele>1013.2</ele>
      </trkpt>
      <trkpt lat="45.33406" lon="3.67255">
        <ele>1013.4</ele>
      </trkpt>
      <trkpt lat="45.33391" lon="3.67267">
        <ele>1014.8</ele>
      </trkpt>
      <trkpt lat="45.33376" lon="3.67278">
        <ele>1016</ele>
      </trkpt>
      <trkpt lat="45.33361" lon="3.6729">
        <ele>1017.1</ele>
      </trkpt>
      <trkpt lat="45.33346" lon="3.67301">
        <ele>1018.1</ele>
      </trkpt>
      <trkpt lat="45.33336" lon="3.6731">
        <ele>1019</ele>
      </trkpt>
      <trkpt lat="45.33326" lon="3.67319">
        <ele>1019.4</ele>
      </trkpt>
      <trkpt lat="45.33312" lon="3.67334">
        <ele>1019.9</ele>
      </trkpt>
      <trkpt lat="45.33309" lon="3.67341">
        <ele>1020.4</ele>
      </trkpt>
      <trkpt lat="45.33309" lon="3.67341">
        <ele>1020.4</ele>
      </trkpt>
      <trkpt lat="45.33304" lon="3.67359">
        <ele>1022.1</ele>
      </trkpt>
      <trkpt lat="45.33295" lon="3.67375">
        <ele>1023.2</ele>
      </trkpt>
      <trkpt lat="45.33281" lon="3.67395">
        <ele>1024.2</ele>
      </trkpt>
      <trkpt lat="45.33272" lon="3.67407">
        <ele>1024.8</ele>
      </trkpt>
      <trkpt lat="45.33263" lon="3.6742">
        <ele>1025.5</ele>
      </trkpt>
      <trkpt lat="45.33246" lon="3.67437">
        <ele>1027.5</ele>
      </trkpt>
      <trkpt lat="45.33236" lon="3.67446">
        <ele>1030.1</ele>
      </trkpt>
      <trkpt lat="45.33226" lon="3.67449">
        <ele>1031.7</ele>
      </trkpt>
      <trkpt lat="45.33217" lon="3.67448">
        <ele>1032.2</ele>
      </trkpt>
      <trkpt lat="45.33204" lon="3.67445">
        <ele>1032.9</ele>
      </trkpt>
      <trkpt lat="45.33193" lon="3.67442">
        <ele>1033.4</ele>
      </trkpt>
      <trkpt lat="45.33181" lon="3.67439">
        <ele>1034</ele>
      </trkpt>
      <trkpt lat="45.33168" lon="3.67437">
        <ele>1034.8</ele>
      </trkpt>
      <trkpt lat="45.33155" lon="3.67434">
        <ele>1034.5</ele>
      </trkpt>
      <trkpt lat="45.33141" lon="3.67434">
        <ele>1034.4</ele>
      </trkpt>
      <trkpt lat="45.33127" lon="3.67434">
        <ele>1034.3</ele>
      </trkpt>
      <trkpt lat="45.33115" lon="3.67437">
        <ele>1034.5</ele>
      </trkpt>
      <trkpt lat="45.33104" lon="3.6744">
        <ele>1034.7</ele>
      </trkpt>
      <trkpt lat="45.33088" lon="3.67446">
        <ele>1034.8</ele>
      </trkpt>
      <trkpt lat="45.33072" lon="3.67452">
        <ele>1034.8</ele>
      </trkpt>
      <trkpt lat="45.33055" lon="3.6746">
        <ele>1034.9</ele>
      </trkpt>
      <trkpt lat="45.33038" lon="3.67468">
        <ele>1035</ele>
      </trkpt>
      <trkpt lat="45.33027" lon="3.67474">
        <ele>1035.1</ele>
      </trkpt>
      <trkpt lat="45.33015" lon="3.67481">
        <ele>1035.2</ele>
      </trkpt>
      <trkpt lat="45.33005" lon="3.67491">
        <ele>1035.6</ele>
      </trkpt>
      <trkpt lat="45.32995" lon="3.67502">
        <ele>1035.8</ele>
      </trkpt>
      <trkpt lat="45.32986" lon="3.67516">
        <ele>1036.1</ele>
      </trkpt>
      <trkpt lat="45.32976" lon="3.6753">
        <ele>1036.3</ele>
      </trkpt>
      <trkpt lat="45.32967" lon="3.67547">
        <ele>1036.7</ele>
      </trkpt>
      <trkpt lat="45.3296" lon="3.67562">
        <ele>1037.1</ele>
      </trkpt>
      <trkpt lat="45.32953" lon="3.67578">
        <ele>1037.5</ele>
      </trkpt>
      <trkpt lat="45.32942" lon="3.676">
        <ele>1039.7</ele>
      </trkpt>
      <trkpt lat="45.32931" lon="3.67623">
        <ele>1042.3</ele>
      </trkpt>
      <trkpt lat="45.3292" lon="3.67644">
        <ele>1044.2</ele>
      </trkpt>
      <trkpt lat="45.3292" lon="3.67644">
        <ele>1044.2</ele>
      </trkpt>
      <trkpt lat="45.32908" lon="3.67664">
        <ele>1045.3</ele>
      </trkpt>
      <trkpt lat="45.32897" lon="3.67685">
        <ele>1044.2</ele>
      </trkpt>
      <trkpt lat="45.32885" lon="3.67705">
        <ele>1043</ele>
      </trkpt>
      <trkpt lat="45.32874" lon="3.67725">
        <ele>1041.9</ele>
      </trkpt>
      <trkpt lat="45.32863" lon="3.67745">
        <ele>1041</ele>
      </trkpt>
      <trkpt lat="45.32849" lon="3.67768">
        <ele>1040.9</ele>
      </trkpt>
      <trkpt lat="45.32836" lon="3.6779">
        <ele>1041.2</ele>
      </trkpt>
      <trkpt lat="45.32826" lon="3.67802">
        <ele>1041.4</ele>
      </trkpt>
      <trkpt lat="45.32816" lon="3.67813">
        <ele>1041.8</ele>
      </trkpt>
      <trkpt lat="45.32803" lon="3.67834">
        <ele>1042.8</ele>
      </trkpt>
      <trkpt lat="45.3279" lon="3.67856">
        <ele>1041.9</ele>
      </trkpt>
      <trkpt lat="45.32777" lon="3.67877">
        <ele>1040.6</ele>
      </trkpt>
      <trkpt lat="45.32767" lon="3.679">
        <ele>1039.3</ele>
      </trkpt>
      <trkpt lat="45.32764" lon="3.67911">
        <ele>1038.8</ele>
      </trkpt>
      <trkpt lat="45.32764" lon="3.6792">
        <ele>1038.5</ele>
      </trkpt>
      <trkpt lat="45.32766" lon="3.6793">
        <ele>1038</ele>
      </trkpt>
      <trkpt lat="45.32768" lon="3.67938">
        <ele>1037.7</ele>
      </trkpt>
      <trkpt lat="45.32772" lon="3.67942">
        <ele>1037.8</ele>
      </trkpt>
      <trkpt lat="45.32781" lon="3.67951">
        <ele>1038.2</ele>
      </trkpt>
      <trkpt lat="45.32783" lon="3.67963">
        <ele>1037.5</ele>
      </trkpt>
      <trkpt lat="45.32781" lon="3.67974">
        <ele>1036.5</ele>
      </trkpt>
      <trkpt lat="45.32773" lon="3.67998">
        <ele>1034.1</ele>
      </trkpt>
      <trkpt lat="45.32764" lon="3.68023">
        <ele>1033.5</ele>
      </trkpt>
      <trkpt lat="45.32755" lon="3.68048">
        <ele>1033</ele>
      </trkpt>
      <trkpt lat="45.32746" lon="3.68073">
        <ele>1032.2</ele>
      </trkpt>
      <trkpt lat="45.32741" lon="3.68089">
        <ele>1030.8</ele>
      </trkpt>
      <trkpt lat="45.32737" lon="3.68105">
        <ele>1027.9</ele>
      </trkpt>
      <trkpt lat="45.32736" lon="3.68125">
        <ele>1025</ele>
      </trkpt>
      <trkpt lat="45.32737" lon="3.68142">
        <ele>1023.1</ele>
      </trkpt>
      <trkpt lat="45.32741" lon="3.68162">
        <ele>1021.6</ele>
      </trkpt>
      <trkpt lat="45.32746" lon="3.68174">
        <ele>1021</ele>
      </trkpt>
      <trkpt lat="45.32751" lon="3.68184">
        <ele>1020.8</ele>
      </trkpt>
      <trkpt lat="45.32751" lon="3.68184">
        <ele>1020.8</ele>
      </trkpt>
      <trkpt lat="45.32768" lon="3.68204">
        <ele>1020.8</ele>
      </trkpt>
      <trkpt lat="45.32776" lon="3.68215">
        <ele>1020.8</ele>
      </trkpt>
      <trkpt lat="45.32779" lon="3.68221">
        <ele>1020.4</ele>
      </trkpt>
      <trkpt lat="45.32783" lon="3.68239">
        <ele>1018.4</ele>
      </trkpt>
      <trkpt lat="45.32785" lon="3.68251">
        <ele>1017.2</ele>
      </trkpt>
      <trkpt lat="45.32792" lon="3.68272">
        <ele>1015.8</ele>
      </trkpt>
      <trkpt lat="45.32798" lon="3.68293">
        <ele>1014.4</ele>
      </trkpt>
      <trkpt lat="45.32805" lon="3.68322">
        <ele>1012.1</ele>
      </trkpt>
      <trkpt lat="45.32811" lon="3.68335">
        <ele>1011.2</ele>
      </trkpt>
      <trkpt lat="45.3282" lon="3.68343">
        <ele>1011.3</ele>
      </trkpt>
      <trkpt lat="45.32833" lon="3.68349">
        <ele>1012.2</ele>
      </trkpt>
      <trkpt lat="45.32853" lon="3.68355">
        <ele>1011.5</ele>
      </trkpt>
      <trkpt lat="45.32875" lon="3.68362">
        <ele>1011.1</ele>
      </trkpt>
      <trkpt lat="45.32879" lon="3.68365">
        <ele>1010.7</ele>
      </trkpt>
      <trkpt lat="45.32879" lon="3.68376">
        <ele>1009.3</ele>
      </trkpt>
      <trkpt lat="45.32873" lon="3.68374">
        <ele>1009.3</ele>
      </trkpt>
      <trkpt lat="45.32863" lon="3.68398">
        <ele>1005.4</ele>
      </trkpt>
      <trkpt lat="45.32858" lon="3.68412">
        <ele>1002.7</ele>
      </trkpt>
      <trkpt lat="45.32852" lon="3.68427">
        <ele>1001.7</ele>
      </trkpt>
      <trkpt lat="45.32842" lon="3.68451">
        <ele>1000.8</ele>
      </trkpt>
      <trkpt lat="45.32839" lon="3.68457">
        <ele>1000.5</ele>
      </trkpt>
      <trkpt lat="45.32831" lon="3.68476">
        <ele>999.9</ele>
      </trkpt>
      <trkpt lat="45.32823" lon="3.68495">
        <ele>999.6</ele>
      </trkpt>
      <trkpt lat="45.32816" lon="3.68512">
        <ele>1001</ele>
      </trkpt>
      <trkpt lat="45.3281" lon="3.68529">
        <ele>1002.9</ele>
      </trkpt>
      <trkpt lat="45.32806" lon="3.68546">
        <ele>1004.9</ele>
      </trkpt>
      <trkpt lat="45.32804" lon="3.68561">
        <ele>1006.8</ele>
      </trkpt>
      <trkpt lat="45.32802" lon="3.68575">
        <ele>1008.4</ele>
      </trkpt>
      <trkpt lat="45.32797" lon="3.68591">
        <ele>1009.7</ele>
      </trkpt>
      <trkpt lat="45.32792" lon="3.68608">
        <ele>1010.7</ele>
      </trkpt>
      <trkpt lat="45.32789" lon="3.68622">
        <ele>1011.7</ele>
      </trkpt>
      <trkpt lat="45.32788" lon="3.68634">
        <ele>1012.8</ele>
      </trkpt>
      <trkpt lat="45.32787" lon="3.68652">
        <ele>1014.3</ele>
      </trkpt>
      <trkpt lat="45.32785" lon="3.68671">
        <ele>1016.2</ele>
      </trkpt>
      <trkpt lat="45.32775" lon="3.68678">
        <ele>1016.6</ele>
      </trkpt>
      <trkpt lat="45.32758" lon="3.68686">
        <ele>1016.7</ele>
      </trkpt>
      <trkpt lat="45.32758" lon="3.68686">
        <ele>1016.7</ele>
      </trkpt>
      <trkpt lat="45.32742" lon="3.68691">
        <ele>1016.8</ele>
      </trkpt>
      <trkpt lat="45.32725" lon="3.68696">
        <ele>1017.1</ele>
      </trkpt>
      <trkpt lat="45.32709" lon="3.68701">
        <ele>1017.3</ele>
      </trkpt>
      <trkpt lat="45.32706" lon="3.68695">
        <ele>1016.5</ele>
      </trkpt>
      <trkpt lat="45.32688" lon="3.68689">
        <ele>1015.4</ele>
      </trkpt>
      <trkpt lat="45.3268" lon="3.68687">
        <ele>1015</ele>
      </trkpt>
      <trkpt lat="45.32666" lon="3.68683">
        <ele>1014.3</ele>
      </trkpt>
      <trkpt lat="45.32654" lon="3.6868">
        <ele>1013.5</ele>
      </trkpt>
      <trkpt lat="45.32641" lon="3.68684">
        <ele>1013.3</ele>
      </trkpt>
      <trkpt lat="45.32633" lon="3.68688">
        <ele>1013.2</ele>
      </trkpt>
      <trkpt lat="45.32626" lon="3.68694">
        <ele>1013.5</ele>
      </trkpt>
      <trkpt lat="45.32618" lon="3.68704">
        <ele>1014</ele>
      </trkpt>
      <trkpt lat="45.32604" lon="3.68724">
        <ele>1015.3</ele>
      </trkpt>
      <trkpt lat="45.32593" lon="3.68742">
        <ele>1016.6</ele>
      </trkpt>
      <trkpt lat="45.32582" lon="3.6876">
        <ele>1017.6</ele>
      </trkpt>
      <trkpt lat="45.32572" lon="3.68778">
        <ele>1018</ele>
      </trkpt>
      <trkpt lat="45.32561" lon="3.68796">
        <ele>1018.3</ele>
      </trkpt>
      <trkpt lat="45.32549" lon="3.6882">
        <ele>1018.8</ele>
      </trkpt>
      <trkpt lat="45.32538" lon="3.68843">
        <ele>1019.3</ele>
      </trkpt>
      <trkpt lat="45.32526" lon="3.68866">
        <ele>1019.7</ele>
      </trkpt>
      <trkpt lat="45.32513" lon="3.68891">
        <ele>1020</ele>
      </trkpt>
      <trkpt lat="45.32501" lon="3.68916">
        <ele>1020.1</ele>
      </trkpt>
      <trkpt lat="45.32489" lon="3.68941">
        <ele>1019.2</ele>
      </trkpt>
      <trkpt lat="45.32477" lon="3.68962">
        <ele>1018.4</ele>
      </trkpt>
      <trkpt lat="45.32465" lon="3.68984">
        <ele>1017.7</ele>
      </trkpt>
      <trkpt lat="45.32453" lon="3.69005">
        <ele>1016.9</ele>
      </trkpt>
      <trkpt lat="45.32442" lon="3.69024">
        <ele>1015.5</ele>
      </trkpt>
      <trkpt lat="45.3243" lon="3.69043">
        <ele>1014.1</ele>
      </trkpt>
      <trkpt lat="45.32421" lon="3.6905">
        <ele>1013.1</ele>
      </trkpt>
      <trkpt lat="45.32421" lon="3.6905">
        <ele>1013.1</ele>
      </trkpt>
      <trkpt lat="45.32421" lon="3.6905">
        <ele>1013.1</ele>
      </trkpt>
      <trkpt lat="45.3241" lon="3.6906">
        <ele>1012.3</ele>
      </trkpt>
      <trkpt lat="45.32399" lon="3.69071">
        <ele>1011.6</ele>
      </trkpt>
      <trkpt lat="45.3239" lon="3.69082">
        <ele>1011.1</ele>
      </trkpt>
      <trkpt lat="45.3238" lon="3.69092">
        <ele>1010.7</ele>
      </trkpt>
      <trkpt lat="45.3237" lon="3.69102">
        <ele>1010.4</ele>
      </trkpt>
      <trkpt lat="45.3236" lon="3.69113">
        <ele>1010.2</ele>
      </trkpt>
      <trkpt lat="45.32349" lon="3.69123">
        <ele>1010.2</ele>
      </trkpt>
      <trkpt lat="45.32337" lon="3.69137">
        <ele>1010.3</ele>
      </trkpt>
      <trkpt lat="45.32326" lon="3.6915">
        <ele>1011</ele>
      </trkpt>
      <trkpt lat="45.32319" lon="3.69158">
        <ele>1011.6</ele>
      </trkpt>
      <trkpt lat="45.32315" lon="3.69162">
        <ele>1011.9</ele>
      </trkpt>
      <trkpt lat="45.32301" lon="3.69168">
        <ele>1013.1</ele>
      </trkpt>
      <trkpt lat="45.32293" lon="3.69171">
        <ele>1013.8</ele>
      </trkpt>
      <trkpt lat="45.32278" lon="3.69174">
        <ele>1015</ele>
      </trkpt>
      <trkpt lat="45.32263" lon="3.69176">
        <ele>1016.3</ele>
      </trkpt>
      <trkpt lat="45.32247" lon="3.69178">
        <ele>1017.5</ele>
      </trkpt>
      <trkpt lat="45.3223" lon="3.6918">
        <ele>1018.2</ele>
      </trkpt>
      <trkpt lat="45.32219" lon="3.6918">
        <ele>1018.4</ele>
      </trkpt>
      <trkpt lat="45.32209" lon="3.69176">
        <ele>1018.2</ele>
      </trkpt>
      <trkpt lat="45.32198" lon="3.692">
        <ele>1021.8</ele>
      </trkpt>
      <trkpt lat="45.32186" lon="3.69226">
        <ele>1025.7</ele>
      </trkpt>
      <trkpt lat="45.3218" lon="3.69244">
        <ele>1028.5</ele>
      </trkpt>
      <trkpt lat="45.32175" lon="3.69267">
        <ele>1031.6</ele>
      </trkpt>
      <trkpt lat="45.32172" lon="3.69283">
        <ele>1033.7</ele>
      </trkpt>
      <trkpt lat="45.32168" lon="3.69299">
        <ele>1035.8</ele>
      </trkpt>
      <trkpt lat="45.32165" lon="3.69309">
        <ele>1037</ele>
      </trkpt>
      <trkpt lat="45.3217" lon="3.69315">
        <ele>1037.6</ele>
      </trkpt>
      <trkpt lat="45.3217" lon="3.69323">
        <ele>1038.5</ele>
      </trkpt>
      <trkpt lat="45.32169" lon="3.69341">
        <ele>1041</ele>
      </trkpt>
      <trkpt lat="45.32169" lon="3.69363">
        <ele>1044.5</ele>
      </trkpt>
      <trkpt lat="45.32169" lon="3.69382">
        <ele>1047.4</ele>
      </trkpt>
      <trkpt lat="45.32169" lon="3.6939">
        <ele>1048.6</ele>
      </trkpt>
      <trkpt lat="45.32166" lon="3.69411">
        <ele>1052</ele>
      </trkpt>
      <trkpt lat="45.32162" lon="3.69438">
        <ele>1054.8</ele>
      </trkpt>
      <trkpt lat="45.32158" lon="3.69461">
        <ele>1057</ele>
      </trkpt>
      <trkpt lat="45.32155" lon="3.69484">
        <ele>1059.3</ele>
      </trkpt>
      <trkpt lat="45.32155" lon="3.69484">
        <ele>1059.3</ele>
      </trkpt>
      <trkpt lat="45.32153" lon="3.69498">
        <ele>1060.6</ele>
      </trkpt>
      <trkpt lat="45.32149" lon="3.69529">
        <ele>1062.5</ele>
      </trkpt>
      <trkpt lat="45.32149" lon="3.69529">
        <ele>1062.5</ele>
      </trkpt>
      <trkpt lat="45.32147" lon="3.69543">
        <ele>1063.4</ele>
      </trkpt>
      <trkpt lat="45.32146" lon="3.6955">
        <ele>1063.9</ele>
      </trkpt>
      <trkpt lat="45.32139" lon="3.69559">
        <ele>1064.7</ele>
      </trkpt>
      <trkpt lat="45.32137" lon="3.6955">
        <ele>1064.1</ele>
      </trkpt>
      <trkpt lat="45.32133" lon="3.69547">
        <ele>1064</ele>
      </trkpt>
      <trkpt lat="45.32125" lon="3.69544">
        <ele>1063.9</ele>
      </trkpt>
      <trkpt lat="45.3212" lon="3.69542">
        <ele>1063.9</ele>
      </trkpt>
      <trkpt lat="45.32116" lon="3.69538">
        <ele>1063.6</ele>
      </trkpt>
      <trkpt lat="45.32111" lon="3.69537">
        <ele>1063.6</ele>
      </trkpt>
      <trkpt lat="45.32101" lon="3.69544">
        <ele>1064.4</ele>
      </trkpt>
      <trkpt lat="45.32093" lon="3.69546">
        <ele>1064.8</ele>
      </trkpt>
      <trkpt lat="45.32086" lon="3.69549">
        <ele>1065.2</ele>
      </trkpt>
      <trkpt lat="45.32068" lon="3.69556">
        <ele>1065.4</ele>
      </trkpt>
      <trkpt lat="45.32055" lon="3.69561">
        <ele>1065.6</ele>
      </trkpt>
      <trkpt lat="45.32051" lon="3.69563">
        <ele>1065.6</ele>
      </trkpt>
      <trkpt lat="45.32038" lon="3.69567">
        <ele>1065.8</ele>
      </trkpt>
      <trkpt lat="45.32034" lon="3.69568">
        <ele>1065.7</ele>
      </trkpt>
      <trkpt lat="45.32024" lon="3.69571">
        <ele>1065.8</ele>
      </trkpt>
      <trkpt lat="45.32015" lon="3.69571">
        <ele>1065.6</ele>
      </trkpt>
      <trkpt lat="45.31998" lon="3.69572">
        <ele>1065.3</ele>
      </trkpt>
      <trkpt lat="45.31984" lon="3.69572">
        <ele>1065.1</ele>
      </trkpt>
      <trkpt lat="45.31977" lon="3.69574">
        <ele>1065.3</ele>
      </trkpt>
      <trkpt lat="45.31957" lon="3.69584">
        <ele>1066.5</ele>
      </trkpt>
      <trkpt lat="45.31946" lon="3.69591">
        <ele>1066.9</ele>
      </trkpt>
      <trkpt lat="45.31934" lon="3.69598">
        <ele>1067.2</ele>
      </trkpt>
      <trkpt lat="45.31928" lon="3.696">
        <ele>1067.3</ele>
      </trkpt>
      <trkpt lat="45.31929" lon="3.6959">
        <ele>1066.6</ele>
      </trkpt>
      <trkpt lat="45.31929" lon="3.69578">
        <ele>1065.4</ele>
      </trkpt>
      <trkpt lat="45.31929" lon="3.69569">
        <ele>1064</ele>
      </trkpt>
      <trkpt lat="45.31921" lon="3.6957">
        <ele>1064.1</ele>
      </trkpt>
      <trkpt lat="45.31899" lon="3.69571">
        <ele>1065</ele>
      </trkpt>
      <trkpt lat="45.31878" lon="3.69575">
        <ele>1066.6</ele>
      </trkpt>
      <trkpt lat="45.3186" lon="3.69577">
        <ele>1067.8</ele>
      </trkpt>
      <trkpt lat="45.31843" lon="3.69579">
        <ele>1068.8</ele>
      </trkpt>
      <trkpt lat="45.31822" lon="3.69579">
        <ele>1070.1</ele>
      </trkpt>
      <trkpt lat="45.31804" lon="3.69578">
        <ele>1071.3</ele>
      </trkpt>
      <trkpt lat="45.31786" lon="3.69577">
        <ele>1072.4</ele>
      </trkpt>
      <trkpt lat="45.3178" lon="3.69576">
        <ele>1072.8</ele>
      </trkpt>
      <trkpt lat="45.31767" lon="3.69576">
        <ele>1073.7</ele>
      </trkpt>
      <trkpt lat="45.31767" lon="3.69576">
        <ele>1073.7</ele>
      </trkpt>
      <trkpt lat="45.31754" lon="3.69578">
        <ele>1074.9</ele>
      </trkpt>
      <trkpt lat="45.31741" lon="3.6958">
        <ele>1075.7</ele>
      </trkpt>
      <trkpt lat="45.31726" lon="3.69584">
        <ele>1076.6</ele>
      </trkpt>
      <trkpt lat="45.31712" lon="3.69587">
        <ele>1077.2</ele>
      </trkpt>
      <trkpt lat="45.317" lon="3.6959">
        <ele>1077.7</ele>
      </trkpt>
      <trkpt lat="45.31684" lon="3.69594">
        <ele>1078.3</ele>
      </trkpt>
      <trkpt lat="45.31672" lon="3.69597">
        <ele>1078.9</ele>
      </trkpt>
      <trkpt lat="45.31659" lon="3.696">
        <ele>1079.1</ele>
      </trkpt>
      <trkpt lat="45.31646" lon="3.69604">
        <ele>1079.3</ele>
      </trkpt>
      <trkpt lat="45.31633" lon="3.69609">
        <ele>1079.5</ele>
      </trkpt>
      <trkpt lat="45.31623" lon="3.69613">
        <ele>1079.8</ele>
      </trkpt>
      <trkpt lat="45.31614" lon="3.69622">
        <ele>1080.4</ele>
      </trkpt>
      <trkpt lat="45.31606" lon="3.6963">
        <ele>1081.1</ele>
      </trkpt>
      <trkpt lat="45.31594" lon="3.69636">
        <ele>1081.5</ele>
      </trkpt>
      <trkpt lat="45.31589" lon="3.69639">
        <ele>1081.7</ele>
      </trkpt>
      <trkpt lat="45.3157" lon="3.69649">
        <ele>1081.4</ele>
      </trkpt>
      <trkpt lat="45.31551" lon="3.69659">
        <ele>1080.6</ele>
      </trkpt>
      <trkpt lat="45.31531" lon="3.6967">
        <ele>1079.9</ele>
      </trkpt>
      <trkpt lat="45.31515" lon="3.69679">
        <ele>1079.3</ele>
      </trkpt>
      <trkpt lat="45.31499" lon="3.69688">
        <ele>1078.8</ele>
      </trkpt>
      <trkpt lat="45.31483" lon="3.69698">
        <ele>1078.8</ele>
      </trkpt>
      <trkpt lat="45.3147" lon="3.69706">
        <ele>1079</ele>
      </trkpt>
      <trkpt lat="45.31457" lon="3.69713">
        <ele>1079.3</ele>
      </trkpt>
      <trkpt lat="45.31437" lon="3.69724">
        <ele>1079.8</ele>
      </trkpt>
      <trkpt lat="45.31424" lon="3.69728">
        <ele>1080.1</ele>
      </trkpt>
      <trkpt lat="45.31411" lon="3.69732">
        <ele>1080.3</ele>
      </trkpt>
      <trkpt lat="45.31399" lon="3.69736">
        <ele>1080.5</ele>
      </trkpt>
      <trkpt lat="45.31386" lon="3.69739">
        <ele>1080.5</ele>
      </trkpt>
      <trkpt lat="45.31373" lon="3.69743">
        <ele>1080.6</ele>
      </trkpt>
      <trkpt lat="45.31354" lon="3.69751">
        <ele>1080.8</ele>
      </trkpt>
      <trkpt lat="45.31342" lon="3.69757">
        <ele>1081</ele>
      </trkpt>
      <trkpt lat="45.31339" lon="3.69752">
        <ele>1080.4</ele>
      </trkpt>
      <trkpt lat="45.31322" lon="3.69732">
        <ele>1078.7</ele>
      </trkpt>
      <trkpt lat="45.31322" lon="3.69732">
        <ele>1078.7</ele>
      </trkpt>
      <trkpt lat="45.31306" lon="3.69715">
        <ele>1077.8</ele>
      </trkpt>
      <trkpt lat="45.3129" lon="3.69697">
        <ele>1077.3</ele>
      </trkpt>
      <trkpt lat="45.31278" lon="3.6968">
        <ele>1076.8</ele>
      </trkpt>
      <trkpt lat="45.31268" lon="3.69659">
        <ele>1076.5</ele>
      </trkpt>
      <trkpt lat="45.31255" lon="3.69634">
        <ele>1077.1</ele>
      </trkpt>
      <trkpt lat="45.31241" lon="3.69617">
        <ele>1077.9</ele>
      </trkpt>
      <trkpt lat="45.3123" lon="3.69602">
        <ele>1078.3</ele>
      </trkpt>
      <trkpt lat="45.31227" lon="3.69593">
        <ele>1078.3</ele>
      </trkpt>
      <trkpt lat="45.31226" lon="3.69587">
        <ele>1078.2</ele>
      </trkpt>
      <trkpt lat="45.31218" lon="3.69579">
        <ele>1078.2</ele>
      </trkpt>
      <trkpt lat="45.31207" lon="3.69577">
        <ele>1078.6</ele>
      </trkpt>
      <trkpt lat="45.31188" lon="3.69581">
        <ele>1079.8</ele>
      </trkpt>
      <trkpt lat="45.31172" lon="3.69586">
        <ele>1080.9</ele>
      </trkpt>
      <trkpt lat="45.31155" lon="3.69591">
        <ele>1080.3</ele>
      </trkpt>
      <trkpt lat="45.31139" lon="3.69595">
        <ele>1079.1</ele>
      </trkpt>
      <trkpt lat="45.31124" lon="3.696">
        <ele>1078</ele>
      </trkpt>
      <trkpt lat="45.31109" lon="3.69605">
        <ele>1076.9</ele>
      </trkpt>
      <trkpt lat="45.31094" lon="3.6961">
        <ele>1075.8</ele>
      </trkpt>
      <trkpt lat="45.31081" lon="3.69612">
        <ele>1075.1</ele>
      </trkpt>
      <trkpt lat="45.31069" lon="3.69613">
        <ele>1075.3</ele>
      </trkpt>
      <trkpt lat="45.31047" lon="3.69612">
        <ele>1075.7</ele>
      </trkpt>
      <trkpt lat="45.31026" lon="3.69609">
        <ele>1076.1</ele>
      </trkpt>
      <trkpt lat="45.31012" lon="3.69604">
        <ele>1076.5</ele>
      </trkpt>
      <trkpt lat="45.31004" lon="3.696">
        <ele>1076.7</ele>
      </trkpt>
      <trkpt lat="45.30989" lon="3.69588">
        <ele>1077.1</ele>
      </trkpt>
      <trkpt lat="45.30973" lon="3.69575">
        <ele>1077.3</ele>
      </trkpt>
      <trkpt lat="45.30964" lon="3.69569">
        <ele>1077.4</ele>
      </trkpt>
      <trkpt lat="45.30953" lon="3.69561">
        <ele>1077.4</ele>
      </trkpt>
      <trkpt lat="45.30941" lon="3.69554">
        <ele>1077.5</ele>
      </trkpt>
      <trkpt lat="45.30926" lon="3.69544">
        <ele>1077.5</ele>
      </trkpt>
      <trkpt lat="45.3091" lon="3.69534">
        <ele>1077.7</ele>
      </trkpt>
      <trkpt lat="45.3091" lon="3.69534">
        <ele>1077.7</ele>
      </trkpt>
      <trkpt lat="45.30899" lon="3.69528">
        <ele>1078</ele>
      </trkpt>
      <trkpt lat="45.30887" lon="3.69522">
        <ele>1078.2</ele>
      </trkpt>
      <trkpt lat="45.30873" lon="3.69514">
        <ele>1078.2</ele>
      </trkpt>
      <trkpt lat="45.3086" lon="3.69506">
        <ele>1078</ele>
      </trkpt>
      <trkpt lat="45.30846" lon="3.69501">
        <ele>1078</ele>
      </trkpt>
      <trkpt lat="45.30825" lon="3.69495">
        <ele>1077.6</ele>
      </trkpt>
      <trkpt lat="45.30812" lon="3.69492">
        <ele>1077.7</ele>
      </trkpt>
      <trkpt lat="45.30806" lon="3.69489">
        <ele>1077.7</ele>
      </trkpt>
      <trkpt lat="45.308" lon="3.69487">
        <ele>1077.8</ele>
      </trkpt>
      <trkpt lat="45.30796" lon="3.69479">
        <ele>1077.5</ele>
      </trkpt>
      <trkpt lat="45.30795" lon="3.69469">
        <ele>1076.8</ele>
      </trkpt>
      <trkpt lat="45.30794" lon="3.69441">
        <ele>1075.1</ele>
      </trkpt>
      <trkpt lat="45.30794" lon="3.69419">
        <ele>1073.8</ele>
      </trkpt>
      <trkpt lat="45.30793" lon="3.69397">
        <ele>1073.8</ele>
      </trkpt>
      <trkpt lat="45.30792" lon="3.69375">
        <ele>1074.1</ele>
      </trkpt>
      <trkpt lat="45.30791" lon="3.69351">
        <ele>1074.5</ele>
      </trkpt>
      <trkpt lat="45.3079" lon="3.69328">
        <ele>1074.9</ele>
      </trkpt>
      <trkpt lat="45.30786" lon="3.69306">
        <ele>1076.1</ele>
      </trkpt>
      <trkpt lat="45.30782" lon="3.69284">
        <ele>1077.3</ele>
      </trkpt>
      <trkpt lat="45.30776" lon="3.69253">
        <ele>1079.3</ele>
      </trkpt>
      <trkpt lat="45.30769" lon="3.69223">
        <ele>1079</ele>
      </trkpt>
      <trkpt lat="45.30768" lon="3.69203">
        <ele>1077.6</ele>
      </trkpt>
      <trkpt lat="45.30766" lon="3.69183">
        <ele>1076.1</ele>
      </trkpt>
      <trkpt lat="45.30764" lon="3.69161">
        <ele>1074.4</ele>
      </trkpt>
      <trkpt lat="45.30763" lon="3.69139">
        <ele>1072.8</ele>
      </trkpt>
      <trkpt lat="45.30761" lon="3.69117">
        <ele>1071</ele>
      </trkpt>
      <trkpt lat="45.30761" lon="3.69099">
        <ele>1069.3</ele>
      </trkpt>
      <trkpt lat="45.30761" lon="3.6908">
        <ele>1067.7</ele>
      </trkpt>
      <trkpt lat="45.30762" lon="3.69059">
        <ele>1066.3</ele>
      </trkpt>
      <trkpt lat="45.3076" lon="3.69039">
        <ele>1065.2</ele>
      </trkpt>
      <trkpt lat="45.30756" lon="3.69021">
        <ele>1064.2</ele>
      </trkpt>
      <trkpt lat="45.30753" lon="3.69002">
        <ele>1063</ele>
      </trkpt>
      <trkpt lat="45.30748" lon="3.68977">
        <ele>1063.5</ele>
      </trkpt>
      <trkpt lat="45.30748" lon="3.68977">
        <ele>1063.5</ele>
      </trkpt>
      <trkpt lat="45.30743" lon="3.68952">
        <ele>1064</ele>
      </trkpt>
      <trkpt lat="45.30738" lon="3.68924">
        <ele>1064.3</ele>
      </trkpt>
      <trkpt lat="45.3073" lon="3.68903">
        <ele>1063.1</ele>
      </trkpt>
      <trkpt lat="45.30728" lon="3.68883">
        <ele>1061.5</ele>
      </trkpt>
      <trkpt lat="45.30712" lon="3.68889">
        <ele>1061.2</ele>
      </trkpt>
      <trkpt lat="45.30698" lon="3.68902">
        <ele>1061.4</ele>
      </trkpt>
      <trkpt lat="45.30683" lon="3.68915">
        <ele>1061.6</ele>
      </trkpt>
      <trkpt lat="45.30671" lon="3.68925">
        <ele>1061.5</ele>
      </trkpt>
      <trkpt lat="45.30659" lon="3.68935">
        <ele>1061.4</ele>
      </trkpt>
      <trkpt lat="45.30644" lon="3.68952">
        <ele>1061.8</ele>
      </trkpt>
      <trkpt lat="45.30629" lon="3.68968">
        <ele>1062.8</ele>
      </trkpt>
      <trkpt lat="45.30614" lon="3.68981">
        <ele>1064.1</ele>
      </trkpt>
      <trkpt lat="45.30599" lon="3.68995">
        <ele>1065.8</ele>
      </trkpt>
      <trkpt lat="45.30584" lon="3.69008">
        <ele>1068.4</ele>
      </trkpt>
      <trkpt lat="45.30567" lon="3.69022">
        <ele>1070.3</ele>
      </trkpt>
      <trkpt lat="45.30549" lon="3.69036">
        <ele>1072.2</ele>
      </trkpt>
      <trkpt lat="45.30533" lon="3.69047">
        <ele>1073.6</ele>
      </trkpt>
      <trkpt lat="45.30518" lon="3.69057">
        <ele>1074.9</ele>
      </trkpt>
      <trkpt lat="45.30506" lon="3.69065">
        <ele>1075.9</ele>
      </trkpt>
      <trkpt lat="45.30495" lon="3.69073">
        <ele>1076.8</ele>
      </trkpt>
      <trkpt lat="45.30485" lon="3.69082">
        <ele>1077.7</ele>
      </trkpt>
      <trkpt lat="45.30475" lon="3.69091">
        <ele>1078.5</ele>
      </trkpt>
      <trkpt lat="45.30463" lon="3.69107">
        <ele>1080</ele>
      </trkpt>
      <trkpt lat="45.3045" lon="3.69123">
        <ele>1081.6</ele>
      </trkpt>
      <trkpt lat="45.30436" lon="3.69138">
        <ele>1082.9</ele>
      </trkpt>
      <trkpt lat="45.30423" lon="3.69152">
        <ele>1084.2</ele>
      </trkpt>
      <trkpt lat="45.30409" lon="3.69165">
        <ele>1084.8</ele>
      </trkpt>
      <trkpt lat="45.30396" lon="3.69177">
        <ele>1084.9</ele>
      </trkpt>
      <trkpt lat="45.30382" lon="3.69189">
        <ele>1085</ele>
      </trkpt>
      <trkpt lat="45.30382" lon="3.69189">
        <ele>1085</ele>
      </trkpt>
      <trkpt lat="45.30363" lon="3.69203">
        <ele>1084.7</ele>
      </trkpt>
      <trkpt lat="45.3035" lon="3.69214">
        <ele>1084.6</ele>
      </trkpt>
      <trkpt lat="45.30341" lon="3.69226">
        <ele>1084.9</ele>
      </trkpt>
      <trkpt lat="45.30332" lon="3.69239">
        <ele>1085.5</ele>
      </trkpt>
      <trkpt lat="45.30318" lon="3.69252">
        <ele>1087</ele>
      </trkpt>
      <trkpt lat="45.30305" lon="3.69265">
        <ele>1087.8</ele>
      </trkpt>
      <trkpt lat="45.30292" lon="3.6928">
        <ele>1088.3</ele>
      </trkpt>
      <trkpt lat="45.3028" lon="3.69294">
        <ele>1088.4</ele>
      </trkpt>
      <trkpt lat="45.30263" lon="3.69314">
        <ele>1087.9</ele>
      </trkpt>
      <trkpt lat="45.30247" lon="3.69334">
        <ele>1087.1</ele>
      </trkpt>
      <trkpt lat="45.30233" lon="3.69348">
        <ele>1088.1</ele>
      </trkpt>
      <trkpt lat="45.30215" lon="3.69363">
        <ele>1088.9</ele>
      </trkpt>
      <trkpt lat="45.30197" lon="3.69377">
        <ele>1089.5</ele>
      </trkpt>
      <trkpt lat="45.30183" lon="3.69388">
        <ele>1089.6</ele>
      </trkpt>
      <trkpt lat="45.3017" lon="3.69399">
        <ele>1089.7</ele>
      </trkpt>
      <trkpt lat="45.30156" lon="3.6941">
        <ele>1090</ele>
      </trkpt>
      <trkpt lat="45.30141" lon="3.69423">
        <ele>1090.2</ele>
      </trkpt>
      <trkpt lat="45.30126" lon="3.69436">
        <ele>1090.1</ele>
      </trkpt>
      <trkpt lat="45.30141" lon="3.69445">
        <ele>1089.7</ele>
      </trkpt>
      <trkpt lat="45.30156" lon="3.69454">
        <ele>1089.3</ele>
      </trkpt>
      <trkpt lat="45.30172" lon="3.69462">
        <ele>1089.2</ele>
      </trkpt>
      <trkpt lat="45.30153" lon="3.6946">
        <ele>1089.2</ele>
      </trkpt>
      <trkpt lat="45.30135" lon="3.69458">
        <ele>1089.6</ele>
      </trkpt>
      <trkpt lat="45.30117" lon="3.69457">
        <ele>1089.9</ele>
      </trkpt>
      <trkpt lat="45.30099" lon="3.69455">
        <ele>1090.3</ele>
      </trkpt>
      <trkpt lat="45.30081" lon="3.69454">
        <ele>1090.6</ele>
      </trkpt>
      <trkpt lat="45.30062" lon="3.6945">
        <ele>1091.3</ele>
      </trkpt>
      <trkpt lat="45.30062" lon="3.6945">
        <ele>1091.3</ele>
      </trkpt>
      <trkpt lat="45.30043" lon="3.69447">
        <ele>1092.1</ele>
      </trkpt>
      <trkpt lat="45.30031" lon="3.69447">
        <ele>1092.6</ele>
      </trkpt>
      <trkpt lat="45.30019" lon="3.69446">
        <ele>1093.2</ele>
      </trkpt>
      <trkpt lat="45.30007" lon="3.69447">
        <ele>1093.5</ele>
      </trkpt>
      <trkpt lat="45.29996" lon="3.69448">
        <ele>1094.2</ele>
      </trkpt>
      <trkpt lat="45.29982" lon="3.69453">
        <ele>1095.2</ele>
      </trkpt>
      <trkpt lat="45.29969" lon="3.69457">
        <ele>1096.2</ele>
      </trkpt>
      <trkpt lat="45.29957" lon="3.69463">
        <ele>1097</ele>
      </trkpt>
      <trkpt lat="45.29945" lon="3.69469">
        <ele>1097.8</ele>
      </trkpt>
      <trkpt lat="45.29932" lon="3.69477">
        <ele>1098.4</ele>
      </trkpt>
      <trkpt lat="45.2992" lon="3.69484">
        <ele>1099</ele>
      </trkpt>
      <trkpt lat="45.29911" lon="3.69494">
        <ele>1099.5</ele>
      </trkpt>
      <trkpt lat="45.29901" lon="3.69504">
        <ele>1100.2</ele>
      </trkpt>
      <trkpt lat="45.29891" lon="3.69516">
        <ele>1100.6</ele>
      </trkpt>
      <trkpt lat="45.29882" lon="3.69529">
        <ele>1101</ele>
      </trkpt>
      <trkpt lat="45.29877" lon="3.69533">
        <ele>1101.4</ele>
      </trkpt>
      <trkpt lat="45.29868" lon="3.69543">
        <ele>1102.2</ele>
      </trkpt>
      <trkpt lat="45.29855" lon="3.69551">
        <ele>1103.7</ele>
      </trkpt>
      <trkpt lat="45.29844" lon="3.69553">
        <ele>1105.6</ele>
      </trkpt>
      <trkpt lat="45.29832" lon="3.69556">
        <ele>1107.3</ele>
      </trkpt>
      <trkpt lat="45.29817" lon="3.69557">
        <ele>1106.8</ele>
      </trkpt>
      <trkpt lat="45.29801" lon="3.69559">
        <ele>1106.2</ele>
      </trkpt>
      <trkpt lat="45.29786" lon="3.69558">
        <ele>1105.9</ele>
      </trkpt>
      <trkpt lat="45.29771" lon="3.69558">
        <ele>1105.6</ele>
      </trkpt>
      <trkpt lat="45.29758" lon="3.69557">
        <ele>1105.3</ele>
      </trkpt>
      <trkpt lat="45.29739" lon="3.69557">
        <ele>1105.3</ele>
      </trkpt>
      <trkpt lat="45.2972" lon="3.69558">
        <ele>1105.5</ele>
      </trkpt>
      <trkpt lat="45.29701" lon="3.69558">
        <ele>1105.8</ele>
      </trkpt>
      <trkpt lat="45.29684" lon="3.69557">
        <ele>1106.1</ele>
      </trkpt>
      <trkpt lat="45.29666" lon="3.69557">
        <ele>1106.4</ele>
      </trkpt>
      <trkpt lat="45.29649" lon="3.69556">
        <ele>1104.9</ele>
      </trkpt>
      <trkpt lat="45.29634" lon="3.69555">
        <ele>1103.7</ele>
      </trkpt>
      <trkpt lat="45.29619" lon="3.69555">
        <ele>1102.4</ele>
      </trkpt>
      <trkpt lat="45.29604" lon="3.69554">
        <ele>1101.1</ele>
      </trkpt>
      <trkpt lat="45.29604" lon="3.69554">
        <ele>1101.1</ele>
      </trkpt>
      <trkpt lat="45.2959" lon="3.69553">
        <ele>1099.8</ele>
      </trkpt>
      <trkpt lat="45.29576" lon="3.69553">
        <ele>1098.9</ele>
      </trkpt>
      <trkpt lat="45.29556" lon="3.69554">
        <ele>1097.8</ele>
      </trkpt>
      <trkpt lat="45.29544" lon="3.69557">
        <ele>1097</ele>
      </trkpt>
      <trkpt lat="45.29532" lon="3.69559">
        <ele>1096.3</ele>
      </trkpt>
      <trkpt lat="45.29518" lon="3.69563">
        <ele>1095.4</ele>
      </trkpt>
      <trkpt lat="45.29503" lon="3.69568">
        <ele>1094.7</ele>
      </trkpt>
      <trkpt lat="45.29488" lon="3.69573">
        <ele>1094</ele>
      </trkpt>
      <trkpt lat="45.2947" lon="3.69579">
        <ele>1093.1</ele>
      </trkpt>
      <trkpt lat="45.29451" lon="3.69586">
        <ele>1092</ele>
      </trkpt>
      <trkpt lat="45.29433" lon="3.69593">
        <ele>1090.8</ele>
      </trkpt>
      <trkpt lat="45.29414" lon="3.69599">
        <ele>1089.7</ele>
      </trkpt>
      <trkpt lat="45.29396" lon="3.69606">
        <ele>1089.2</ele>
      </trkpt>
      <trkpt lat="45.29375" lon="3.69614">
        <ele>1088.6</ele>
      </trkpt>
      <trkpt lat="45.29354" lon="3.69622">
        <ele>1088.1</ele>
      </trkpt>
      <trkpt lat="45.29334" lon="3.6963">
        <ele>1087.7</ele>
      </trkpt>
      <trkpt lat="45.29315" lon="3.69639">
        <ele>1087.2</ele>
      </trkpt>
      <trkpt lat="45.29296" lon="3.69648">
        <ele>1086.9</ele>
      </trkpt>
      <trkpt lat="45.29276" lon="3.69657">
        <ele>1086.8</ele>
      </trkpt>
      <trkpt lat="45.29265" lon="3.69665">
        <ele>1086.7</ele>
      </trkpt>
      <trkpt lat="45.29253" lon="3.69672">
        <ele>1086.7</ele>
      </trkpt>
      <trkpt lat="45.29238" lon="3.69687">
        <ele>1086.3</ele>
      </trkpt>
      <trkpt lat="45.29223" lon="3.69702">
        <ele>1086.2</ele>
      </trkpt>
      <trkpt lat="45.29212" lon="3.69708">
        <ele>1086.4</ele>
      </trkpt>
      <trkpt lat="45.29202" lon="3.69715">
        <ele>1086.6</ele>
      </trkpt>
      <trkpt lat="45.29183" lon="3.69726">
        <ele>1087.3</ele>
      </trkpt>
      <trkpt lat="45.29164" lon="3.69738">
        <ele>1088.1</ele>
      </trkpt>
      <trkpt lat="45.29144" lon="3.69749">
        <ele>1088.3</ele>
      </trkpt>
      <trkpt lat="45.29144" lon="3.69749">
        <ele>1088.3</ele>
      </trkpt>
      <trkpt lat="45.29128" lon="3.6976">
        <ele>1088.2</ele>
      </trkpt>
      <trkpt lat="45.29111" lon="3.69772">
        <ele>1088.4</ele>
      </trkpt>
      <trkpt lat="45.29094" lon="3.69783">
        <ele>1089</ele>
      </trkpt>
      <trkpt lat="45.29077" lon="3.69794">
        <ele>1089.9</ele>
      </trkpt>
      <trkpt lat="45.2906" lon="3.69806">
        <ele>1091.2</ele>
      </trkpt>
      <trkpt lat="45.29041" lon="3.69818">
        <ele>1092.9</ele>
      </trkpt>
      <trkpt lat="45.29022" lon="3.69831">
        <ele>1095</ele>
      </trkpt>
      <trkpt lat="45.29003" lon="3.69843">
        <ele>1097.2</ele>
      </trkpt>
      <trkpt lat="45.28983" lon="3.69856">
        <ele>1098.2</ele>
      </trkpt>
      <trkpt lat="45.28964" lon="3.69868">
        <ele>1098.5</ele>
      </trkpt>
      <trkpt lat="45.28959" lon="3.69889">
        <ele>1098.7</ele>
      </trkpt>
      <trkpt lat="45.28953" lon="3.6991">
        <ele>1098.7</ele>
      </trkpt>
      <trkpt lat="45.28948" lon="3.69933">
        <ele>1098.3</ele>
      </trkpt>
      <trkpt lat="45.28943" lon="3.69955">
        <ele>1097.8</ele>
      </trkpt>
      <trkpt lat="45.28939" lon="3.69978">
        <ele>1097.3</ele>
      </trkpt>
      <trkpt lat="45.28935" lon="3.70002">
        <ele>1096.8</ele>
      </trkpt>
      <trkpt lat="45.28931" lon="3.70025">
        <ele>1095.7</ele>
      </trkpt>
      <trkpt lat="45.28927" lon="3.70051">
        <ele>1094.3</ele>
      </trkpt>
      <trkpt lat="45.28922" lon="3.70077">
        <ele>1092.8</ele>
      </trkpt>
      <trkpt lat="45.28913" lon="3.70105">
        <ele>1092.1</ele>
      </trkpt>
      <trkpt lat="45.28904" lon="3.70124">
        <ele>1091.7</ele>
      </trkpt>
      <trkpt lat="45.28896" lon="3.70142">
        <ele>1091.2</ele>
      </trkpt>
      <trkpt lat="45.28887" lon="3.7016">
        <ele>1090.7</ele>
      </trkpt>
      <trkpt lat="45.28877" lon="3.70178">
        <ele>1090.1</ele>
      </trkpt>
      <trkpt lat="45.28867" lon="3.70195">
        <ele>1089.5</ele>
      </trkpt>
      <trkpt lat="45.28856" lon="3.70214">
        <ele>1088.8</ele>
      </trkpt>
      <trkpt lat="45.28856" lon="3.70214">
        <ele>1088.8</ele>
      </trkpt>
      <trkpt lat="45.28845" lon="3.70232">
        <ele>1088</ele>
      </trkpt>
      <trkpt lat="45.28834" lon="3.70248">
        <ele>1087</ele>
      </trkpt>
      <trkpt lat="45.28823" lon="3.70264">
        <ele>1087</ele>
      </trkpt>
      <trkpt lat="45.28813" lon="3.70279">
        <ele>1086.8</ele>
      </trkpt>
      <trkpt lat="45.28802" lon="3.70294">
        <ele>1086.4</ele>
      </trkpt>
      <trkpt lat="45.28792" lon="3.70309">
        <ele>1085.9</ele>
      </trkpt>
      <trkpt lat="45.2878" lon="3.70329">
        <ele>1085.1</ele>
      </trkpt>
      <trkpt lat="45.28768" lon="3.70348">
        <ele>1083.1</ele>
      </trkpt>
      <trkpt lat="45.28761" lon="3.70363">
        <ele>1081.5</ele>
      </trkpt>
      <trkpt lat="45.28755" lon="3.70377">
        <ele>1079.9</ele>
      </trkpt>
      <trkpt lat="45.28748" lon="3.704">
        <ele>1077.9</ele>
      </trkpt>
      <trkpt lat="45.28745" lon="3.7043">
        <ele>1076.3</ele>
      </trkpt>
      <trkpt lat="45.28746" lon="3.70457">
        <ele>1075.7</ele>
      </trkpt>
      <trkpt lat="45.28749" lon="3.70472">
        <ele>1075.6</ele>
      </trkpt>
      <trkpt lat="45.28753" lon="3.70488">
        <ele>1075.5</ele>
      </trkpt>
      <trkpt lat="45.28757" lon="3.70512">
        <ele>1076.2</ele>
      </trkpt>
      <trkpt lat="45.28756" lon="3.70533">
        <ele>1077.4</ele>
      </trkpt>
      <trkpt lat="45.28752" lon="3.70551">
        <ele>1078.1</ele>
      </trkpt>
      <trkpt lat="45.28747" lon="3.70557">
        <ele>1078.3</ele>
      </trkpt>
      <trkpt lat="45.28736" lon="3.70567">
        <ele>1078.1</ele>
      </trkpt>
      <trkpt lat="45.28724" lon="3.70577">
        <ele>1078</ele>
      </trkpt>
      <trkpt lat="45.28707" lon="3.70586">
        <ele>1077.6</ele>
      </trkpt>
      <trkpt lat="45.2869" lon="3.70595">
        <ele>1077.1</ele>
      </trkpt>
      <trkpt lat="45.28675" lon="3.70602">
        <ele>1076.6</ele>
      </trkpt>
      <trkpt lat="45.28659" lon="3.70609">
        <ele>1076.4</ele>
      </trkpt>
      <trkpt lat="45.28644" lon="3.70616">
        <ele>1076.5</ele>
      </trkpt>
      <trkpt lat="45.28626" lon="3.70625">
        <ele>1076.8</ele>
      </trkpt>
      <trkpt lat="45.28608" lon="3.70635">
        <ele>1077.1</ele>
      </trkpt>
      <trkpt lat="45.2859" lon="3.70644">
        <ele>1077.5</ele>
      </trkpt>
      <trkpt lat="45.28572" lon="3.70654">
        <ele>1078.1</ele>
      </trkpt>
      <trkpt lat="45.28572" lon="3.70654">
        <ele>1078.1</ele>
      </trkpt>
      <trkpt lat="45.28551" lon="3.70664">
        <ele>1078.8</ele>
      </trkpt>
      <trkpt lat="45.28531" lon="3.70674">
        <ele>1079.4</ele>
      </trkpt>
      <trkpt lat="45.28515" lon="3.70685">
        <ele>1080</ele>
      </trkpt>
      <trkpt lat="45.285" lon="3.70696">
        <ele>1080.4</ele>
      </trkpt>
      <trkpt lat="45.28486" lon="3.70706">
        <ele>1080</ele>
      </trkpt>
      <trkpt lat="45.28473" lon="3.70715">
        <ele>1079.7</ele>
      </trkpt>
      <trkpt lat="45.28457" lon="3.70729">
        <ele>1079.4</ele>
      </trkpt>
      <trkpt lat="45.28453" lon="3.70736">
        <ele>1079.5</ele>
      </trkpt>
      <trkpt lat="45.28449" lon="3.70743">
        <ele>1079.6</ele>
      </trkpt>
      <trkpt lat="45.28438" lon="3.70754">
        <ele>1079.4</ele>
      </trkpt>
      <trkpt lat="45.28426" lon="3.70765">
        <ele>1079.3</ele>
      </trkpt>
      <trkpt lat="45.28413" lon="3.70777">
        <ele>1079</ele>
      </trkpt>
      <trkpt lat="45.28401" lon="3.70789">
        <ele>1078.6</ele>
      </trkpt>
      <trkpt lat="45.28391" lon="3.70796">
        <ele>1078.3</ele>
      </trkpt>
      <trkpt lat="45.28372" lon="3.70805">
        <ele>1077.2</ele>
      </trkpt>
      <trkpt lat="45.28353" lon="3.70813">
        <ele>1076.3</ele>
      </trkpt>
      <trkpt lat="45.2834" lon="3.70819">
        <ele>1075.6</ele>
      </trkpt>
      <trkpt lat="45.28326" lon="3.70824">
        <ele>1074.9</ele>
      </trkpt>
      <trkpt lat="45.28315" lon="3.70831">
        <ele>1074.3</ele>
      </trkpt>
      <trkpt lat="45.28303" lon="3.70838">
        <ele>1073.8</ele>
      </trkpt>
      <trkpt lat="45.28291" lon="3.70848">
        <ele>1073.4</ele>
      </trkpt>
      <trkpt lat="45.28278" lon="3.70858">
        <ele>1073.2</ele>
      </trkpt>
      <trkpt lat="45.2826" lon="3.70874">
        <ele>1073.1</ele>
      </trkpt>
      <trkpt lat="45.28241" lon="3.70891">
        <ele>1074.1</ele>
      </trkpt>
      <trkpt lat="45.28229" lon="3.709">
        <ele>1075.1</ele>
      </trkpt>
      <trkpt lat="45.28216" lon="3.7091">
        <ele>1075.9</ele>
      </trkpt>
      <trkpt lat="45.28208" lon="3.70915">
        <ele>1076.4</ele>
      </trkpt>
      <trkpt lat="45.28192" lon="3.70924">
        <ele>1077.3</ele>
      </trkpt>
      <trkpt lat="45.28177" lon="3.70933">
        <ele>1078.4</ele>
      </trkpt>
      <trkpt lat="45.28162" lon="3.70941">
        <ele>1079.7</ele>
      </trkpt>
      <trkpt lat="45.28147" lon="3.70949">
        <ele>1081.6</ele>
      </trkpt>
      <trkpt lat="45.28147" lon="3.70949">
        <ele>1081.6</ele>
      </trkpt>
      <trkpt lat="45.28134" lon="3.70953">
        <ele>1082.9</ele>
      </trkpt>
      <trkpt lat="45.28121" lon="3.70957">
        <ele>1084.2</ele>
      </trkpt>
      <trkpt lat="45.28107" lon="3.70958">
        <ele>1085.3</ele>
      </trkpt>
      <trkpt lat="45.28094" lon="3.70959">
        <ele>1086.3</ele>
      </trkpt>
      <trkpt lat="45.28076" lon="3.70957">
        <ele>1087.1</ele>
      </trkpt>
      <trkpt lat="45.28059" lon="3.70955">
        <ele>1087.5</ele>
      </trkpt>
      <trkpt lat="45.28046" lon="3.70953">
        <ele>1087.8</ele>
      </trkpt>
      <trkpt lat="45.28033" lon="3.70951">
        <ele>1088.1</ele>
      </trkpt>
      <trkpt lat="45.28021" lon="3.70951">
        <ele>1088.5</ele>
      </trkpt>
      <trkpt lat="45.28009" lon="3.70952">
        <ele>1089</ele>
      </trkpt>
      <trkpt lat="45.27992" lon="3.70955">
        <ele>1089.1</ele>
      </trkpt>
      <trkpt lat="45.27971" lon="3.70963">
        <ele>1088.5</ele>
      </trkpt>
      <trkpt lat="45.27956" lon="3.70971">
        <ele>1088.2</ele>
      </trkpt>
      <trkpt lat="45.27942" lon="3.70979">
        <ele>1088</ele>
      </trkpt>
      <trkpt lat="45.27926" lon="3.70991">
        <ele>1087.9</ele>
      </trkpt>
      <trkpt lat="45.2791" lon="3.71002">
        <ele>1087.7</ele>
      </trkpt>
      <trkpt lat="45.27898" lon="3.71011">
        <ele>1087.4</ele>
      </trkpt>
      <trkpt lat="45.27886" lon="3.71019">
        <ele>1087.1</ele>
      </trkpt>
      <trkpt lat="45.27873" lon="3.71026">
        <ele>1086.7</ele>
      </trkpt>
      <trkpt lat="45.2786" lon="3.71033">
        <ele>1086.3</ele>
      </trkpt>
      <trkpt lat="45.27847" lon="3.7104">
        <ele>1086</ele>
      </trkpt>
      <trkpt lat="45.27833" lon="3.71048">
        <ele>1085.7</ele>
      </trkpt>
      <trkpt lat="45.2782" lon="3.71057">
        <ele>1084.8</ele>
      </trkpt>
      <trkpt lat="45.27807" lon="3.71067">
        <ele>1084</ele>
      </trkpt>
      <trkpt lat="45.27788" lon="3.71082">
        <ele>1083.2</ele>
      </trkpt>
      <trkpt lat="45.2777" lon="3.71097">
        <ele>1082.4</ele>
      </trkpt>
      <trkpt lat="45.27756" lon="3.71109">
        <ele>1081.7</ele>
      </trkpt>
      <trkpt lat="45.27742" lon="3.7112">
        <ele>1081.2</ele>
      </trkpt>
      <trkpt lat="45.27728" lon="3.71132">
        <ele>1080.8</ele>
      </trkpt>
      <trkpt lat="45.2771" lon="3.71146">
        <ele>1080.2</ele>
      </trkpt>
      <trkpt lat="45.27692" lon="3.71161">
        <ele>1079.6</ele>
      </trkpt>
      <trkpt lat="45.27692" lon="3.71161">
        <ele>1079.6</ele>
      </trkpt>
      <trkpt lat="45.27687" lon="3.71164">
        <ele>1079.4</ele>
      </trkpt>
      <trkpt lat="45.27675" lon="3.71174">
        <ele>1079.1</ele>
      </trkpt>
      <trkpt lat="45.27663" lon="3.71183">
        <ele>1079.2</ele>
      </trkpt>
      <trkpt lat="45.27642" lon="3.71194">
        <ele>1080.1</ele>
      </trkpt>
      <trkpt lat="45.27626" lon="3.712">
        <ele>1080.7</ele>
      </trkpt>
      <trkpt lat="45.27611" lon="3.71207">
        <ele>1081.2</ele>
      </trkpt>
      <trkpt lat="45.27596" lon="3.71214">
        <ele>1081.8</ele>
      </trkpt>
      <trkpt lat="45.27576" lon="3.71224">
        <ele>1082.5</ele>
      </trkpt>
      <trkpt lat="45.27557" lon="3.71234">
        <ele>1083.5</ele>
      </trkpt>
      <trkpt lat="45.27539" lon="3.71245">
        <ele>1084.6</ele>
      </trkpt>
      <trkpt lat="45.27522" lon="3.71256">
        <ele>1085.6</ele>
      </trkpt>
      <trkpt lat="45.27534" lon="3.71276">
        <ele>1085.9</ele>
      </trkpt>
      <trkpt lat="45.27546" lon="3.71296">
        <ele>1086.3</ele>
      </trkpt>
      <trkpt lat="45.27558" lon="3.71313">
        <ele>1086.6</ele>
      </trkpt>
      <trkpt lat="45.27569" lon="3.7133">
        <ele>1087.1</ele>
      </trkpt>
      <trkpt lat="45.27582" lon="3.7134">
        <ele>1087.2</ele>
      </trkpt>
      <trkpt lat="45.2759" lon="3.71342">
        <ele>1087.2</ele>
      </trkpt>
      <trkpt lat="45.27601" lon="3.71341">
        <ele>1087.2</ele>
      </trkpt>
      <trkpt lat="45.2762" lon="3.71335">
        <ele>1087</ele>
      </trkpt>
      <trkpt lat="45.27642" lon="3.71326">
        <ele>1086.7</ele>
      </trkpt>
      <trkpt lat="45.27663" lon="3.71317">
        <ele>1086.4</ele>
      </trkpt>
      <trkpt lat="45.27685" lon="3.71308">
        <ele>1087.6</ele>
      </trkpt>
      <trkpt lat="45.27691" lon="3.71308">
        <ele>1088.1</ele>
      </trkpt>
      <trkpt lat="45.27702" lon="3.7131">
        <ele>1089.1</ele>
      </trkpt>
      <trkpt lat="45.27715" lon="3.71317">
        <ele>1090.4</ele>
      </trkpt>
      <trkpt lat="45.27723" lon="3.7133">
        <ele>1091.6</ele>
      </trkpt>
      <trkpt lat="45.27726" lon="3.71342">
        <ele>1092</ele>
      </trkpt>
      <trkpt lat="45.27728" lon="3.7137">
        <ele>1092.2</ele>
      </trkpt>
      <trkpt lat="45.27728" lon="3.7139">
        <ele>1092.3</ele>
      </trkpt>
      <trkpt lat="45.27727" lon="3.7141">
        <ele>1092.3</ele>
      </trkpt>
      <trkpt lat="45.27727" lon="3.7141">
        <ele>1092.3</ele>
      </trkpt>
      <trkpt lat="45.27726" lon="3.71432">
        <ele>1091.7</ele>
      </trkpt>
      <trkpt lat="45.27724" lon="3.71455">
        <ele>1090.7</ele>
      </trkpt>
      <trkpt lat="45.2772" lon="3.71485">
        <ele>1089.4</ele>
      </trkpt>
      <trkpt lat="45.27715" lon="3.71514">
        <ele>1088.6</ele>
      </trkpt>
      <trkpt lat="45.2771" lon="3.7154">
        <ele>1088.1</ele>
      </trkpt>
      <trkpt lat="45.27705" lon="3.71566">
        <ele>1087.6</ele>
      </trkpt>
      <trkpt lat="45.27701" lon="3.71591">
        <ele>1087.4</ele>
      </trkpt>
      <trkpt lat="45.27697" lon="3.71617">
        <ele>1087.9</ele>
      </trkpt>
      <trkpt lat="45.27691" lon="3.71647">
        <ele>1088.4</ele>
      </trkpt>
      <trkpt lat="45.27686" lon="3.71678">
        <ele>1089.1</ele>
      </trkpt>
      <trkpt lat="45.27681" lon="3.71702">
        <ele>1089.7</ele>
      </trkpt>
      <trkpt lat="45.27677" lon="3.71726">
        <ele>1090.1</ele>
      </trkpt>
      <trkpt lat="45.27673" lon="3.71749">
        <ele>1090.5</ele>
      </trkpt>
      <trkpt lat="45.27669" lon="3.71773">
        <ele>1090.7</ele>
      </trkpt>
      <trkpt lat="45.27665" lon="3.71796">
        <ele>1091</ele>
      </trkpt>
      <trkpt lat="45.27663" lon="3.71822">
        <ele>1091.5</ele>
      </trkpt>
      <trkpt lat="45.2766" lon="3.71847">
        <ele>1091.7</ele>
      </trkpt>
      <trkpt lat="45.2766" lon="3.71866">
        <ele>1091.7</ele>
      </trkpt>
      <trkpt lat="45.27659" lon="3.71885">
        <ele>1091.8</ele>
      </trkpt>
      <trkpt lat="45.2766" lon="3.71891">
        <ele>1091.8</ele>
      </trkpt>
      <trkpt lat="45.27662" lon="3.71912">
        <ele>1091.9</ele>
      </trkpt>
      <trkpt lat="45.27667" lon="3.7194">
        <ele>1092.3</ele>
      </trkpt>
      <trkpt lat="45.27673" lon="3.71966">
        <ele>1093.2</ele>
      </trkpt>
      <trkpt lat="45.27679" lon="3.71991">
        <ele>1094.1</ele>
      </trkpt>
      <trkpt lat="45.27686" lon="3.72018">
        <ele>1094.2</ele>
      </trkpt>
      <trkpt lat="45.27693" lon="3.72046">
        <ele>1093.7</ele>
      </trkpt>
      <trkpt lat="45.27695" lon="3.72057">
        <ele>1093.4</ele>
      </trkpt>
      <trkpt lat="45.27695" lon="3.72057">
        <ele>1093.4</ele>
      </trkpt>
      <trkpt lat="45.27702" lon="3.72084">
        <ele>1092.7</ele>
      </trkpt>
      <trkpt lat="45.27708" lon="3.72111">
        <ele>1092.3</ele>
      </trkpt>
      <trkpt lat="45.2771" lon="3.72119">
        <ele>1092.3</ele>
      </trkpt>
      <trkpt lat="45.27716" lon="3.72147">
        <ele>1092</ele>
      </trkpt>
      <trkpt lat="45.27722" lon="3.72174">
        <ele>1091.9</ele>
      </trkpt>
      <trkpt lat="45.27725" lon="3.72195">
        <ele>1091.9</ele>
      </trkpt>
      <trkpt lat="45.2773" lon="3.72225">
        <ele>1091.8</ele>
      </trkpt>
      <trkpt lat="45.27733" lon="3.72255">
        <ele>1091.8</ele>
      </trkpt>
      <trkpt lat="45.27737" lon="3.72284">
        <ele>1092.4</ele>
      </trkpt>
      <trkpt lat="45.2774" lon="3.72313">
        <ele>1093.1</ele>
      </trkpt>
      <trkpt lat="45.27734" lon="3.72342">
        <ele>1092.7</ele>
      </trkpt>
      <trkpt lat="45.27728" lon="3.7237">
        <ele>1091.6</ele>
      </trkpt>
      <trkpt lat="45.27723" lon="3.72387">
        <ele>1091</ele>
      </trkpt>
      <trkpt lat="45.27718" lon="3.72403">
        <ele>1090.3</ele>
      </trkpt>
      <trkpt lat="45.27711" lon="3.72422">
        <ele>1089.8</ele>
      </trkpt>
      <trkpt lat="45.27709" lon="3.72427">
        <ele>1089.7</ele>
      </trkpt>
      <trkpt lat="45.27704" lon="3.72443">
        <ele>1089.7</ele>
      </trkpt>
      <trkpt lat="45.27698" lon="3.72459">
        <ele>1089.6</ele>
      </trkpt>
      <trkpt lat="45.27692" lon="3.7248">
        <ele>1089.5</ele>
      </trkpt>
      <trkpt lat="45.27685" lon="3.72501">
        <ele>1089.4</ele>
      </trkpt>
      <trkpt lat="45.27679" lon="3.72524">
        <ele>1089.7</ele>
      </trkpt>
      <trkpt lat="45.27673" lon="3.72547">
        <ele>1090.1</ele>
      </trkpt>
      <trkpt lat="45.27669" lon="3.72565">
        <ele>1090.5</ele>
      </trkpt>
      <trkpt lat="45.27665" lon="3.72583">
        <ele>1091</ele>
      </trkpt>
      <trkpt lat="45.27662" lon="3.72599">
        <ele>1091.6</ele>
      </trkpt>
      <trkpt lat="45.2766" lon="3.72616">
        <ele>1092.1</ele>
      </trkpt>
      <trkpt lat="45.27671" lon="3.7262">
        <ele>1092.6</ele>
      </trkpt>
      <trkpt lat="45.27681" lon="3.72624">
        <ele>1093.7</ele>
      </trkpt>
      <trkpt lat="45.27691" lon="3.72627">
        <ele>1094.6</ele>
      </trkpt>
      <trkpt lat="45.27693" lon="3.72648">
        <ele>1095.7</ele>
      </trkpt>
      <trkpt lat="45.27696" lon="3.72662">
        <ele>1096.6</ele>
      </trkpt>
      <trkpt lat="45.27696" lon="3.72662">
        <ele>1096.6</ele>
      </trkpt>
      <trkpt lat="45.27709" lon="3.72685">
        <ele>1099.4</ele>
      </trkpt>
      <trkpt lat="45.27717" lon="3.727">
        <ele>1101.3</ele>
      </trkpt>
      <trkpt lat="45.27725" lon="3.72715">
        <ele>1103.3</ele>
      </trkpt>
      <trkpt lat="45.27735" lon="3.72732">
        <ele>1105.7</ele>
      </trkpt>
      <trkpt lat="45.27745" lon="3.72749">
        <ele>1108.3</ele>
      </trkpt>
      <trkpt lat="45.27755" lon="3.72773">
        <ele>1109.4</ele>
      </trkpt>
      <trkpt lat="45.27766" lon="3.72797">
        <ele>1109.9</ele>
      </trkpt>
      <trkpt lat="45.27776" lon="3.72818">
        <ele>1110.4</ele>
      </trkpt>
      <trkpt lat="45.27786" lon="3.72838">
        <ele>1110.8</ele>
      </trkpt>
      <trkpt lat="45.27795" lon="3.72859">
        <ele>1110.8</ele>
      </trkpt>
      <trkpt lat="45.27807" lon="3.72883">
        <ele>1111</ele>
      </trkpt>
      <trkpt lat="45.2782" lon="3.72908">
        <ele>1111.4</ele>
      </trkpt>
      <trkpt lat="45.27832" lon="3.72932">
        <ele>1111.8</ele>
      </trkpt>
      <trkpt lat="45.27844" lon="3.72959">
        <ele>1112.2</ele>
      </trkpt>
      <trkpt lat="45.27856" lon="3.72986">
        <ele>1112.6</ele>
      </trkpt>
      <trkpt lat="45.27865" lon="3.73011">
        <ele>1112.9</ele>
      </trkpt>
      <trkpt lat="45.27875" lon="3.73035">
        <ele>1113.5</ele>
      </trkpt>
      <trkpt lat="45.27884" lon="3.7306">
        <ele>1114</ele>
      </trkpt>
      <trkpt lat="45.27891" lon="3.73084">
        <ele>1114.5</ele>
      </trkpt>
      <trkpt lat="45.27899" lon="3.73107">
        <ele>1114.7</ele>
      </trkpt>
      <trkpt lat="45.27906" lon="3.73131">
        <ele>1114.9</ele>
      </trkpt>
      <trkpt lat="45.27913" lon="3.73156">
        <ele>1114.9</ele>
      </trkpt>
      <trkpt lat="45.2792" lon="3.73181">
        <ele>1114.7</ele>
      </trkpt>
      <trkpt lat="45.27926" lon="3.73205">
        <ele>1114.4</ele>
      </trkpt>
      <trkpt lat="45.27933" lon="3.7323">
        <ele>1114.3</ele>
      </trkpt>
      <trkpt lat="45.27935" lon="3.73255">
        <ele>1114.3</ele>
      </trkpt>
      <trkpt lat="45.27935" lon="3.73255">
        <ele>1114.3</ele>
      </trkpt>
      <trkpt lat="45.27938" lon="3.7328">
        <ele>1113.5</ele>
      </trkpt>
      <trkpt lat="45.2794" lon="3.73301">
        <ele>1112.9</ele>
      </trkpt>
      <trkpt lat="45.27943" lon="3.73323">
        <ele>1112.3</ele>
      </trkpt>
      <trkpt lat="45.2795" lon="3.73345">
        <ele>1111.7</ele>
      </trkpt>
      <trkpt lat="45.27958" lon="3.73367">
        <ele>1110.9</ele>
      </trkpt>
      <trkpt lat="45.27966" lon="3.73389">
        <ele>1109.9</ele>
      </trkpt>
      <trkpt lat="45.27975" lon="3.7341">
        <ele>1108.7</ele>
      </trkpt>
      <trkpt lat="45.27984" lon="3.73431">
        <ele>1107.9</ele>
      </trkpt>
      <trkpt lat="45.27989" lon="3.73445">
        <ele>1107.5</ele>
      </trkpt>
      <trkpt lat="45.27994" lon="3.73459">
        <ele>1107</ele>
      </trkpt>
      <trkpt lat="45.28012" lon="3.73474">
        <ele>1106.2</ele>
      </trkpt>
      <trkpt lat="45.2803" lon="3.73489">
        <ele>1105</ele>
      </trkpt>
      <trkpt lat="45.2804" lon="3.73504">
        <ele>1104</ele>
      </trkpt>
      <trkpt lat="45.2805" lon="3.7352">
        <ele>1103.4</ele>
      </trkpt>
      <trkpt lat="45.28064" lon="3.73535">
        <ele>1102.5</ele>
      </trkpt>
      <trkpt lat="45.28078" lon="3.73551">
        <ele>1101.7</ele>
      </trkpt>
      <trkpt lat="45.28089" lon="3.73573">
        <ele>1100.7</ele>
      </trkpt>
      <trkpt lat="45.28101" lon="3.73594">
        <ele>1099.6</ele>
      </trkpt>
      <trkpt lat="45.28106" lon="3.73612">
        <ele>1099.3</ele>
      </trkpt>
      <trkpt lat="45.28111" lon="3.73629">
        <ele>1099.1</ele>
      </trkpt>
      <trkpt lat="45.28113" lon="3.73647">
        <ele>1099</ele>
      </trkpt>
      <trkpt lat="45.28116" lon="3.73666">
        <ele>1098.9</ele>
      </trkpt>
      <trkpt lat="45.28115" lon="3.73686">
        <ele>1100</ele>
      </trkpt>
      <trkpt lat="45.28115" lon="3.73686">
        <ele>1100</ele>
      </trkpt>
      <trkpt lat="45.28114" lon="3.73707">
        <ele>1101.1</ele>
      </trkpt>
      <trkpt lat="45.28111" lon="3.73733">
        <ele>1102.8</ele>
      </trkpt>
      <trkpt lat="45.28108" lon="3.73758">
        <ele>1104.1</ele>
      </trkpt>
      <trkpt lat="45.28107" lon="3.7377">
        <ele>1104.3</ele>
      </trkpt>
      <trkpt lat="45.28104" lon="3.73786">
        <ele>1104.7</ele>
      </trkpt>
      <trkpt lat="45.28098" lon="3.73806">
        <ele>1105.3</ele>
      </trkpt>
      <trkpt lat="45.28089" lon="3.73829">
        <ele>1105.8</ele>
      </trkpt>
      <trkpt lat="45.28089" lon="3.73829">
        <ele>1105.8</ele>
      </trkpt>
      <trkpt lat="45.28082" lon="3.73851">
        <ele>1104.4</ele>
      </trkpt>
      <trkpt lat="45.28075" lon="3.73873">
        <ele>1102.1</ele>
      </trkpt>
      <trkpt lat="45.28068" lon="3.73895">
        <ele>1099.4</ele>
      </trkpt>
      <trkpt lat="45.28066" lon="3.73902">
        <ele>1098.6</ele>
      </trkpt>
      <trkpt lat="45.28068" lon="3.73917">
        <ele>1097.4</ele>
      </trkpt>
      <trkpt lat="45.28076" lon="3.73937">
        <ele>1096.5</ele>
      </trkpt>
      <trkpt lat="45.28084" lon="3.73957">
        <ele>1095.7</ele>
      </trkpt>
      <trkpt lat="45.28091" lon="3.73975">
        <ele>1094.7</ele>
      </trkpt>
      <trkpt lat="45.28097" lon="3.73993">
        <ele>1093.7</ele>
      </trkpt>
      <trkpt lat="45.28104" lon="3.74009">
        <ele>1092.8</ele>
      </trkpt>
      <trkpt lat="45.28109" lon="3.74027">
        <ele>1091.5</ele>
      </trkpt>
      <trkpt lat="45.28116" lon="3.74046">
        <ele>1090.2</ele>
      </trkpt>
      <trkpt lat="45.28125" lon="3.74065">
        <ele>1088.9</ele>
      </trkpt>
      <trkpt lat="45.28134" lon="3.74079">
        <ele>1088.1</ele>
      </trkpt>
      <trkpt lat="45.28143" lon="3.74096">
        <ele>1087.2</ele>
      </trkpt>
      <trkpt lat="45.28149" lon="3.74108">
        <ele>1086.4</ele>
      </trkpt>
      <trkpt lat="45.28153" lon="3.74126">
        <ele>1085</ele>
      </trkpt>
      <trkpt lat="45.28157" lon="3.74151">
        <ele>1082.9</ele>
      </trkpt>
      <trkpt lat="45.28161" lon="3.74176">
        <ele>1080.9</ele>
      </trkpt>
      <trkpt lat="45.28165" lon="3.74202">
        <ele>1079.4</ele>
      </trkpt>
      <trkpt lat="45.2817" lon="3.74227">
        <ele>1077.7</ele>
      </trkpt>
      <trkpt lat="45.28174" lon="3.74252">
        <ele>1076.1</ele>
      </trkpt>
      <trkpt lat="45.28176" lon="3.74269">
        <ele>1075.1</ele>
      </trkpt>
      <trkpt lat="45.28178" lon="3.74287">
        <ele>1074.1</ele>
      </trkpt>
      <trkpt lat="45.28181" lon="3.74302">
        <ele>1073.3</ele>
      </trkpt>
      <trkpt lat="45.28184" lon="3.74318">
        <ele>1072.5</ele>
      </trkpt>
      <trkpt lat="45.28189" lon="3.74339">
        <ele>1071.5</ele>
      </trkpt>
      <trkpt lat="45.28194" lon="3.7436">
        <ele>1070.6</ele>
      </trkpt>
      <trkpt lat="45.28199" lon="3.74376">
        <ele>1069.7</ele>
      </trkpt>
      <trkpt lat="45.28209" lon="3.74403">
        <ele>1067.9</ele>
      </trkpt>
      <trkpt lat="45.28212" lon="3.74411">
        <ele>1067.2</ele>
      </trkpt>
      <trkpt lat="45.28218" lon="3.74419">
        <ele>1066.5</ele>
      </trkpt>
      <trkpt lat="45.28229" lon="3.74433">
        <ele>1065.4</ele>
      </trkpt>
      <trkpt lat="45.28229" lon="3.74433">
        <ele>1065.4</ele>
      </trkpt>
      <trkpt lat="45.28231" lon="3.7444">
        <ele>1065</ele>
      </trkpt>
      <trkpt lat="45.28233" lon="3.74449">
        <ele>1064.6</ele>
      </trkpt>
      <trkpt lat="45.28228" lon="3.7445">
        <ele>1064.7</ele>
      </trkpt>
      <trkpt lat="45.2822" lon="3.74454">
        <ele>1064.9</ele>
      </trkpt>
      <trkpt lat="45.28209" lon="3.74456">
        <ele>1065.3</ele>
      </trkpt>
      <trkpt lat="45.28204" lon="3.74456">
        <ele>1065.5</ele>
      </trkpt>
      <trkpt lat="45.28206" lon="3.74471">
        <ele>1064.8</ele>
      </trkpt>
      <trkpt lat="45.28207" lon="3.74478">
        <ele>1064.5</ele>
      </trkpt>
      <trkpt lat="45.28209" lon="3.74483">
        <ele>1064.2</ele>
      </trkpt>
      <trkpt lat="45.28212" lon="3.74488">
        <ele>1063.8</ele>
      </trkpt>
      <trkpt lat="45.28216" lon="3.74492">
        <ele>1063.5</ele>
      </trkpt>
      <trkpt lat="45.28225" lon="3.74501">
        <ele>1062.9</ele>
      </trkpt>
      <trkpt lat="45.28231" lon="3.74508">
        <ele>1062.8</ele>
      </trkpt>
      <trkpt lat="45.28236" lon="3.74514">
        <ele>1062.8</ele>
      </trkpt>
      <trkpt lat="45.28241" lon="3.74521">
        <ele>1062.8</ele>
      </trkpt>
      <trkpt lat="45.28248" lon="3.74532">
        <ele>1062.8</ele>
      </trkpt>
      <trkpt lat="45.2826" lon="3.74552">
        <ele>1063.1</ele>
      </trkpt>
      <trkpt lat="45.28268" lon="3.74566">
        <ele>1063.5</ele>
      </trkpt>
      <trkpt lat="45.28278" lon="3.7458">
        <ele>1064.2</ele>
      </trkpt>
      <trkpt lat="45.28285" lon="3.74592">
        <ele>1064.8</ele>
      </trkpt>
      <trkpt lat="45.28288" lon="3.74597">
        <ele>1065</ele>
      </trkpt>
      <trkpt lat="45.28289" lon="3.74599">
        <ele>1065.1</ele>
      </trkpt>
      <trkpt lat="45.28291" lon="3.74605">
        <ele>1065.4</ele>
      </trkpt>
      <trkpt lat="45.28294" lon="3.74615">
        <ele>1065.8</ele>
      </trkpt>
      <trkpt lat="45.28298" lon="3.7463">
        <ele>1066.4</ele>
      </trkpt>
      <trkpt lat="45.28301" lon="3.74644">
        <ele>1066.9</ele>
      </trkpt>
      <trkpt lat="45.28306" lon="3.74663">
        <ele>1067.5</ele>
      </trkpt>
      <trkpt lat="45.28309" lon="3.74679">
        <ele>1068.3</ele>
      </trkpt>
      <trkpt lat="45.28313" lon="3.74695">
        <ele>1069.2</ele>
      </trkpt>
      <trkpt lat="45.28316" lon="3.7471">
        <ele>1070</ele>
      </trkpt>
      <trkpt lat="45.2832" lon="3.74725">
        <ele>1070.8</ele>
      </trkpt>
      <trkpt lat="45.28322" lon="3.74732">
        <ele>1071.2</ele>
      </trkpt>
      <trkpt lat="45.28323" lon="3.74745">
        <ele>1071.9</ele>
      </trkpt>
      <trkpt lat="45.28324" lon="3.74754">
        <ele>1072.3</ele>
      </trkpt>
      <trkpt lat="45.28325" lon="3.74766">
        <ele>1072.6</ele>
      </trkpt>
      <trkpt lat="45.28324" lon="3.74792">
        <ele>1073.2</ele>
      </trkpt>
      <trkpt lat="45.28324" lon="3.74812">
        <ele>1073.7</ele>
      </trkpt>
      <trkpt lat="45.28325" lon="3.74824">
        <ele>1074</ele>
      </trkpt>
      <trkpt lat="45.28326" lon="3.74837">
        <ele>1074.3</ele>
      </trkpt>
      <trkpt lat="45.28329" lon="3.74858">
        <ele>1075</ele>
      </trkpt>
      <trkpt lat="45.2833" lon="3.74866">
        <ele>1075.3</ele>
      </trkpt>
      <trkpt lat="45.28332" lon="3.74894">
        <ele>1076.2</ele>
      </trkpt>
      <trkpt lat="45.28331" lon="3.749">
        <ele>1076.4</ele>
      </trkpt>
      <trkpt lat="45.28333" lon="3.74916">
        <ele>1077</ele>
      </trkpt>
      <trkpt lat="45.28334" lon="3.74933">
        <ele>1077.9</ele>
      </trkpt>
      <trkpt lat="45.28338" lon="3.74951">
        <ele>1079</ele>
      </trkpt>
      <trkpt lat="45.28341" lon="3.74969">
        <ele>1080.1</ele>
      </trkpt>
      <trkpt lat="45.28346" lon="3.74994">
        <ele>1081.7</ele>
      </trkpt>
      <trkpt lat="45.28351" lon="3.75018">
        <ele>1082.3</ele>
      </trkpt>
      <trkpt lat="45.28351" lon="3.75018">
        <ele>1082.3</ele>
      </trkpt>
      <trkpt lat="45.28356" lon="3.75043">
        <ele>1082.6</ele>
      </trkpt>
      <trkpt lat="45.28361" lon="3.75068">
        <ele>1082.9</ele>
      </trkpt>
      <trkpt lat="45.28362" lon="3.75085">
        <ele>1083</ele>
      </trkpt>
      <trkpt lat="45.28362" lon="3.75102">
        <ele>1082.9</ele>
      </trkpt>
      <trkpt lat="45.28362" lon="3.75123">
        <ele>1082.7</ele>
      </trkpt>
      <trkpt lat="45.28363" lon="3.75141">
        <ele>1082.6</ele>
      </trkpt>
      <trkpt lat="45.28364" lon="3.75145">
        <ele>1082.6</ele>
      </trkpt>
      <trkpt lat="45.28367" lon="3.75167">
        <ele>1082.6</ele>
      </trkpt>
      <trkpt lat="45.28372" lon="3.75194">
        <ele>1082.9</ele>
      </trkpt>
      <trkpt lat="45.28379" lon="3.75223">
        <ele>1083.1</ele>
      </trkpt>
      <trkpt lat="45.28384" lon="3.75244">
        <ele>1083</ele>
      </trkpt>
      <trkpt lat="45.28388" lon="3.75265">
        <ele>1082.3</ele>
      </trkpt>
      <trkpt lat="45.28396" lon="3.75288">
        <ele>1080.9</ele>
      </trkpt>
      <trkpt lat="45.28403" lon="3.75312">
        <ele>1079.3</ele>
      </trkpt>
      <trkpt lat="45.28411" lon="3.7534">
        <ele>1077.3</ele>
      </trkpt>
      <trkpt lat="45.28415" lon="3.75355">
        <ele>1076.6</ele>
      </trkpt>
      <trkpt lat="45.2842" lon="3.7538">
        <ele>1075.7</ele>
      </trkpt>
      <trkpt lat="45.28425" lon="3.75411">
        <ele>1074.5</ele>
      </trkpt>
      <trkpt lat="45.28429" lon="3.75429">
        <ele>1074.2</ele>
      </trkpt>
      <trkpt lat="45.28435" lon="3.75457">
        <ele>1074.2</ele>
      </trkpt>
      <trkpt lat="45.28442" lon="3.75486">
        <ele>1074.1</ele>
      </trkpt>
      <trkpt lat="45.28448" lon="3.75515">
        <ele>1073.7</ele>
      </trkpt>
      <trkpt lat="45.28454" lon="3.75543">
        <ele>1073</ele>
      </trkpt>
      <trkpt lat="45.28458" lon="3.75565">
        <ele>1072.6</ele>
      </trkpt>
      <trkpt lat="45.28462" lon="3.75587">
        <ele>1072</ele>
      </trkpt>
      <trkpt lat="45.28466" lon="3.75609">
        <ele>1071.4</ele>
      </trkpt>
      <trkpt lat="45.28468" lon="3.75625">
        <ele>1071.1</ele>
      </trkpt>
      <trkpt lat="45.2847" lon="3.75645">
        <ele>1070.8</ele>
      </trkpt>
      <trkpt lat="45.28472" lon="3.75665">
        <ele>1070.7</ele>
      </trkpt>
      <trkpt lat="45.28472" lon="3.75665">
        <ele>1070.7</ele>
      </trkpt>
      <trkpt lat="45.28474" lon="3.75683">
        <ele>1070</ele>
      </trkpt>
      <trkpt lat="45.28474" lon="3.75699">
        <ele>1069.4</ele>
      </trkpt>
      <trkpt lat="45.28473" lon="3.75713">
        <ele>1068.9</ele>
      </trkpt>
      <trkpt lat="45.28473" lon="3.75716">
        <ele>1068.8</ele>
      </trkpt>
      <trkpt lat="45.28473" lon="3.7573">
        <ele>1068.3</ele>
      </trkpt>
      <trkpt lat="45.28474" lon="3.75744">
        <ele>1067.7</ele>
      </trkpt>
      <trkpt lat="45.28479" lon="3.75764">
        <ele>1066.2</ele>
      </trkpt>
      <trkpt lat="45.28479" lon="3.7579">
        <ele>1064.7</ele>
      </trkpt>
      <trkpt lat="45.2848" lon="3.75801">
        <ele>1064</ele>
      </trkpt>
      <trkpt lat="45.28482" lon="3.75813">
        <ele>1063</ele>
      </trkpt>
      <trkpt lat="45.28485" lon="3.75827">
        <ele>1061.7</ele>
      </trkpt>
      <trkpt lat="45.28492" lon="3.75851">
        <ele>1059</ele>
      </trkpt>
      <trkpt lat="45.28499" lon="3.75875">
        <ele>1056.2</ele>
      </trkpt>
      <trkpt lat="45.28506" lon="3.75899">
        <ele>1054.3</ele>
      </trkpt>
      <trkpt lat="45.28512" lon="3.75924">
        <ele>1052.3</ele>
      </trkpt>
      <trkpt lat="45.28519" lon="3.75948">
        <ele>1050.2</ele>
      </trkpt>
      <trkpt lat="45.28522" lon="3.75961">
        <ele>1049</ele>
      </trkpt>
      <trkpt lat="45.28524" lon="3.75976">
        <ele>1047.5</ele>
      </trkpt>
      <trkpt lat="45.28526" lon="3.75989">
        <ele>1046.2</ele>
      </trkpt>
      <trkpt lat="45.28526" lon="3.76007">
        <ele>1044.9</ele>
      </trkpt>
      <trkpt lat="45.28525" lon="3.7602">
        <ele>1044.4</ele>
      </trkpt>
      <trkpt lat="45.28525" lon="3.76026">
        <ele>1044.1</ele>
      </trkpt>
      <trkpt lat="45.28523" lon="3.76049">
        <ele>1043.3</ele>
      </trkpt>
      <trkpt lat="45.28522" lon="3.76071">
        <ele>1042.6</ele>
      </trkpt>
      <trkpt lat="45.28518" lon="3.76099">
        <ele>1040.5</ele>
      </trkpt>
      <trkpt lat="45.28515" lon="3.76115">
        <ele>1038.7</ele>
      </trkpt>
      <trkpt lat="45.28511" lon="3.76128">
        <ele>1037.1</ele>
      </trkpt>
      <trkpt lat="45.28502" lon="3.76152">
        <ele>1034.3</ele>
      </trkpt>
      <trkpt lat="45.28496" lon="3.76166">
        <ele>1033</ele>
      </trkpt>
      <trkpt lat="45.2849" lon="3.76179">
        <ele>1031.7</ele>
      </trkpt>
      <trkpt lat="45.28479" lon="3.76207">
        <ele>1028.6</ele>
      </trkpt>
      <trkpt lat="45.2847" lon="3.76224">
        <ele>1026.9</ele>
      </trkpt>
      <trkpt lat="45.28462" lon="3.76241">
        <ele>1025.2</ele>
      </trkpt>
      <trkpt lat="45.28454" lon="3.76254">
        <ele>1024.1</ele>
      </trkpt>
      <trkpt lat="45.28448" lon="3.76265">
        <ele>1023.3</ele>
      </trkpt>
      <trkpt lat="45.28444" lon="3.76273">
        <ele>1022.7</ele>
      </trkpt>
      <trkpt lat="45.28444" lon="3.76273">
        <ele>1022.7</ele>
      </trkpt>
      <trkpt lat="45.28442" lon="3.76277">
        <ele>1022.2</ele>
      </trkpt>
      <trkpt lat="45.28441" lon="3.76285">
        <ele>1021</ele>
      </trkpt>
      <trkpt lat="45.28441" lon="3.76286">
        <ele>1020.8</ele>
      </trkpt>
      <trkpt lat="45.28441" lon="3.76297">
        <ele>1018.9</ele>
      </trkpt>
      <trkpt lat="45.28445" lon="3.76325">
        <ele>1014</ele>
      </trkpt>
      <trkpt lat="45.28447" lon="3.76351">
        <ele>1012.2</ele>
      </trkpt>
      <trkpt lat="45.28449" lon="3.76372">
        <ele>1011.6</ele>
      </trkpt>
      <trkpt lat="45.28451" lon="3.76383">
        <ele>1011.4</ele>
      </trkpt>
      <trkpt lat="45.28453" lon="3.76392">
        <ele>1011.3</ele>
      </trkpt>
      <trkpt lat="45.28458" lon="3.76403">
        <ele>1011.2</ele>
      </trkpt>
      <trkpt lat="45.28467" lon="3.7642">
        <ele>1011.6</ele>
      </trkpt>
      <trkpt lat="45.28476" lon="3.76434">
        <ele>1013.3</ele>
      </trkpt>
      <trkpt lat="45.28485" lon="3.76449">
        <ele>1015.1</ele>
      </trkpt>
      <trkpt lat="45.28499" lon="3.7647">
        <ele>1018</ele>
      </trkpt>
      <trkpt lat="45.28501" lon="3.76476">
        <ele>1018.8</ele>
      </trkpt>
      <trkpt lat="45.28503" lon="3.76482">
        <ele>1019.4</ele>
      </trkpt>
      <trkpt lat="45.28506" lon="3.76493">
        <ele>1020.6</ele>
      </trkpt>
      <trkpt lat="45.2851" lon="3.76524">
        <ele>1023.3</ele>
      </trkpt>
      <trkpt lat="45.28517" lon="3.7655">
        <ele>1025.8</ele>
      </trkpt>
      <trkpt lat="45.28518" lon="3.7655">
        <ele>1025.9</ele>
      </trkpt>
      <trkpt lat="45.28522" lon="3.76552">
        <ele>1026.2</ele>
      </trkpt>
      <trkpt lat="45.28527" lon="3.76555">
        <ele>1026.9</ele>
      </trkpt>
      <trkpt lat="45.28534" lon="3.76558">
        <ele>1027.6</ele>
      </trkpt>
      <trkpt lat="45.28538" lon="3.76559">
        <ele>1028</ele>
      </trkpt>
      <trkpt lat="45.28543" lon="3.76562">
        <ele>1028.7</ele>
      </trkpt>
      <trkpt lat="45.28548" lon="3.76561">
        <ele>1028.9</ele>
      </trkpt>
      <trkpt lat="45.28552" lon="3.7656">
        <ele>1029.2</ele>
      </trkpt>
      <trkpt lat="45.28557" lon="3.7656">
        <ele>1029.5</ele>
      </trkpt>
      <trkpt lat="45.28562" lon="3.76564">
        <ele>1030.2</ele>
      </trkpt>
      <trkpt lat="45.28565" lon="3.76566">
        <ele>1030.8</ele>
      </trkpt>
      <trkpt lat="45.28568" lon="3.7657">
        <ele>1031.4</ele>
      </trkpt>
      <trkpt lat="45.28568" lon="3.76575">
        <ele>1031.9</ele>
      </trkpt>
      <trkpt lat="45.28571" lon="3.7658">
        <ele>1032.7</ele>
      </trkpt>
      <trkpt lat="45.28576" lon="3.76591">
        <ele>1033.8</ele>
      </trkpt>
      <trkpt lat="45.2858" lon="3.766">
        <ele>1034.9</ele>
      </trkpt>
      <trkpt lat="45.28582" lon="3.76604">
        <ele>1035.3</ele>
      </trkpt>
      <trkpt lat="45.28583" lon="3.76606">
        <ele>1035.6</ele>
      </trkpt>
      <trkpt lat="45.28584" lon="3.76606">
        <ele>1035.7</ele>
      </trkpt>
      <trkpt lat="45.28588" lon="3.76606">
        <ele>1035.9</ele>
      </trkpt>
      <trkpt lat="45.28594" lon="3.76607">
        <ele>1036.4</ele>
      </trkpt>
      <trkpt lat="45.28598" lon="3.76609">
        <ele>1036.9</ele>
      </trkpt>
      <trkpt lat="45.28602" lon="3.76613">
        <ele>1037.5</ele>
      </trkpt>
      <trkpt lat="45.28607" lon="3.76617">
        <ele>1038.4</ele>
      </trkpt>
      <trkpt lat="45.2861" lon="3.76621">
        <ele>1039</ele>
      </trkpt>
      <trkpt lat="45.28611" lon="3.76627">
        <ele>1039.7</ele>
      </trkpt>
      <trkpt lat="45.28613" lon="3.76636">
        <ele>1040.9</ele>
      </trkpt>
      <trkpt lat="45.28615" lon="3.76643">
        <ele>1041.7</ele>
      </trkpt>
      <trkpt lat="45.28618" lon="3.76654">
        <ele>1043.3</ele>
      </trkpt>
      <trkpt lat="45.28621" lon="3.76667">
        <ele>1045</ele>
      </trkpt>
      <trkpt lat="45.28624" lon="3.76685">
        <ele>1045.6</ele>
      </trkpt>
      <trkpt lat="45.28627" lon="3.76707">
        <ele>1046.3</ele>
      </trkpt>
      <trkpt lat="45.2863" lon="3.7673">
        <ele>1047</ele>
      </trkpt>
      <trkpt lat="45.28633" lon="3.76752">
        <ele>1047.8</ele>
      </trkpt>
      <trkpt lat="45.28636" lon="3.76777">
        <ele>1048.9</ele>
      </trkpt>
      <trkpt lat="45.28638" lon="3.76797">
        <ele>1049.7</ele>
      </trkpt>
      <trkpt lat="45.28641" lon="3.76814">
        <ele>1050.6</ele>
      </trkpt>
      <trkpt lat="45.28641" lon="3.76814">
        <ele>1050.6</ele>
      </trkpt>
      <trkpt lat="45.28643" lon="3.76829">
        <ele>1051.3</ele>
      </trkpt>
      <trkpt lat="45.28644" lon="3.76836">
        <ele>1051.7</ele>
      </trkpt>
      <trkpt lat="45.28644" lon="3.76845">
        <ele>1052</ele>
      </trkpt>
      <trkpt lat="45.28644" lon="3.76869">
        <ele>1052.5</ele>
      </trkpt>
      <trkpt lat="45.28644" lon="3.76894">
        <ele>1053.1</ele>
      </trkpt>
      <trkpt lat="45.28643" lon="3.76915">
        <ele>1053.6</ele>
      </trkpt>
      <trkpt lat="45.28643" lon="3.76937">
        <ele>1054.2</ele>
      </trkpt>
      <trkpt lat="45.28642" lon="3.76959">
        <ele>1054.9</ele>
      </trkpt>
      <trkpt lat="45.28642" lon="3.7698">
        <ele>1055.6</ele>
      </trkpt>
      <trkpt lat="45.2864" lon="3.77012">
        <ele>1056</ele>
      </trkpt>
      <trkpt lat="45.2864" lon="3.77036">
        <ele>1055.7</ele>
      </trkpt>
      <trkpt lat="45.2864" lon="3.77051">
        <ele>1055.5</ele>
      </trkpt>
      <trkpt lat="45.2864" lon="3.77063">
        <ele>1055.3</ele>
      </trkpt>
      <trkpt lat="45.28642" lon="3.77076">
        <ele>1055.2</ele>
      </trkpt>
      <trkpt lat="45.28645" lon="3.77105">
        <ele>1055.6</ele>
      </trkpt>
      <trkpt lat="45.28648" lon="3.77127">
        <ele>1056.1</ele>
      </trkpt>
      <trkpt lat="45.28649" lon="3.77145">
        <ele>1056.4</ele>
      </trkpt>
      <trkpt lat="45.28653" lon="3.77161">
        <ele>1056.7</ele>
      </trkpt>
      <trkpt lat="45.28659" lon="3.77189">
        <ele>1057.3</ele>
      </trkpt>
      <trkpt lat="45.28665" lon="3.77217">
        <ele>1057.7</ele>
      </trkpt>
      <trkpt lat="45.28668" lon="3.77231">
        <ele>1057.7</ele>
      </trkpt>
      <trkpt lat="45.28672" lon="3.77244">
        <ele>1057.8</ele>
      </trkpt>
      <trkpt lat="45.28675" lon="3.77255">
        <ele>1058.2</ele>
      </trkpt>
      <trkpt lat="45.2868" lon="3.77267">
        <ele>1059.1</ele>
      </trkpt>
      <trkpt lat="45.28686" lon="3.77281">
        <ele>1060.2</ele>
      </trkpt>
      <trkpt lat="45.28692" lon="3.77295">
        <ele>1061.1</ele>
      </trkpt>
      <trkpt lat="45.287" lon="3.77318">
        <ele>1062.5</ele>
      </trkpt>
      <trkpt lat="45.28706" lon="3.7734">
        <ele>1063.7</ele>
      </trkpt>
      <trkpt lat="45.28711" lon="3.77354">
        <ele>1064.1</ele>
      </trkpt>
      <trkpt lat="45.28718" lon="3.77369">
        <ele>1064.4</ele>
      </trkpt>
      <trkpt lat="45.28722" lon="3.77381">
        <ele>1064.6</ele>
      </trkpt>
      <trkpt lat="45.28725" lon="3.77396">
        <ele>1065.1</ele>
      </trkpt>
      <trkpt lat="45.28727" lon="3.7741">
        <ele>1065.6</ele>
      </trkpt>
      <trkpt lat="45.2873" lon="3.77423">
        <ele>1065.5</ele>
      </trkpt>
      <trkpt lat="45.28732" lon="3.77436">
        <ele>1064.8</ele>
      </trkpt>
      <trkpt lat="45.28732" lon="3.77443">
        <ele>1064.5</ele>
      </trkpt>
      <trkpt lat="45.28732" lon="3.77443">
        <ele>1064.5</ele>
      </trkpt>
      <trkpt lat="45.28735" lon="3.7746">
        <ele>1063.5</ele>
      </trkpt>
      <trkpt lat="45.28738" lon="3.77472">
        <ele>1062.7</ele>
      </trkpt>
      <trkpt lat="45.2874" lon="3.77485">
        <ele>1061.9</ele>
      </trkpt>
      <trkpt lat="45.28743" lon="3.77491">
        <ele>1061.3</ele>
      </trkpt>
      <trkpt lat="45.28748" lon="3.77498">
        <ele>1060.3</ele>
      </trkpt>
      <trkpt lat="45.28755" lon="3.77505">
        <ele>1059.8</ele>
      </trkpt>
      <trkpt lat="45.28753" lon="3.77511">
        <ele>1059.5</ele>
      </trkpt>
      <trkpt lat="45.28749" lon="3.77521">
        <ele>1059.2</ele>
      </trkpt>
      <trkpt lat="45.28745" lon="3.77528">
        <ele>1059.4</ele>
      </trkpt>
      <trkpt lat="45.28742" lon="3.77533">
        <ele>1059.6</ele>
      </trkpt>
      <trkpt lat="45.28737" lon="3.77538">
        <ele>1060</ele>
      </trkpt>
      <trkpt lat="45.28731" lon="3.77543">
        <ele>1060.7</ele>
      </trkpt>
      <trkpt lat="45.28723" lon="3.77548">
        <ele>1061.6</ele>
      </trkpt>
      <trkpt lat="45.28718" lon="3.77551">
        <ele>1062.2</ele>
      </trkpt>
      <trkpt lat="45.28716" lon="3.77564">
        <ele>1061.9</ele>
      </trkpt>
      <trkpt lat="45.28714" lon="3.77574">
        <ele>1061.7</ele>
      </trkpt>
      <trkpt lat="45.28711" lon="3.77582">
        <ele>1061.7</ele>
      </trkpt>
      <trkpt lat="45.28707" lon="3.77593">
        <ele>1062</ele>
      </trkpt>
      <trkpt lat="45.28705" lon="3.776">
        <ele>1062.2</ele>
      </trkpt>
      <trkpt lat="45.28703" lon="3.77606">
        <ele>1062.2</ele>
      </trkpt>
      <trkpt lat="45.28702" lon="3.77614">
        <ele>1062.1</ele>
      </trkpt>
      <trkpt lat="45.28701" lon="3.7762">
        <ele>1062</ele>
      </trkpt>
      <trkpt lat="45.28699" lon="3.77627">
        <ele>1062.1</ele>
      </trkpt>
      <trkpt lat="45.28696" lon="3.77633">
        <ele>1062.1</ele>
      </trkpt>
      <trkpt lat="45.28693" lon="3.77639">
        <ele>1062.1</ele>
      </trkpt>
      <trkpt lat="45.2869" lon="3.77645">
        <ele>1062.1</ele>
      </trkpt>
      <trkpt lat="45.28685" lon="3.77656">
        <ele>1061.9</ele>
      </trkpt>
      <trkpt lat="45.28682" lon="3.77665">
        <ele>1061.5</ele>
      </trkpt>
      <trkpt lat="45.28678" lon="3.77673">
        <ele>1061.4</ele>
      </trkpt>
      <trkpt lat="45.28673" lon="3.77682">
        <ele>1061.2</ele>
      </trkpt>
      <trkpt lat="45.28669" lon="3.77692">
        <ele>1060.7</ele>
      </trkpt>
      <trkpt lat="45.28667" lon="3.77701">
        <ele>1060.4</ele>
      </trkpt>
      <trkpt lat="45.28666" lon="3.77711">
        <ele>1059.9</ele>
      </trkpt>
      <trkpt lat="45.28666" lon="3.77722">
        <ele>1059.3</ele>
      </trkpt>
      <trkpt lat="45.28664" lon="3.77734">
        <ele>1058.7</ele>
      </trkpt>
      <trkpt lat="45.28665" lon="3.77747">
        <ele>1058.1</ele>
      </trkpt>
      <trkpt lat="45.28664" lon="3.77754">
        <ele>1057.7</ele>
      </trkpt>
      <trkpt lat="45.28664" lon="3.77761">
        <ele>1057.3</ele>
      </trkpt>
      <trkpt lat="45.28664" lon="3.77768">
        <ele>1057</ele>
      </trkpt>
      <trkpt lat="45.28664" lon="3.7778">
        <ele>1056.3</ele>
      </trkpt>
      <trkpt lat="45.28662" lon="3.77787">
        <ele>1055.8</ele>
      </trkpt>
      <trkpt lat="45.28661" lon="3.77795">
        <ele>1055.1</ele>
      </trkpt>
      <trkpt lat="45.28659" lon="3.77802">
        <ele>1054.5</ele>
      </trkpt>
      <trkpt lat="45.28656" lon="3.77808">
        <ele>1053.7</ele>
      </trkpt>
      <trkpt lat="45.28655" lon="3.77815">
        <ele>1053.1</ele>
      </trkpt>
      <trkpt lat="45.28653" lon="3.7782">
        <ele>1052.4</ele>
      </trkpt>
      <trkpt lat="45.28652" lon="3.77827">
        <ele>1051.8</ele>
      </trkpt>
      <trkpt lat="45.28651" lon="3.77834">
        <ele>1051</ele>
      </trkpt>
      <trkpt lat="45.2865" lon="3.77841">
        <ele>1050.3</ele>
      </trkpt>
      <trkpt lat="45.28649" lon="3.77849">
        <ele>1049.7</ele>
      </trkpt>
      <trkpt lat="45.28649" lon="3.77856">
        <ele>1049.2</ele>
      </trkpt>
      <trkpt lat="45.28648" lon="3.77864">
        <ele>1048.6</ele>
      </trkpt>
      <trkpt lat="45.28648" lon="3.77871">
        <ele>1048.2</ele>
      </trkpt>
      <trkpt lat="45.28648" lon="3.77879">
        <ele>1047.6</ele>
      </trkpt>
      <trkpt lat="45.28648" lon="3.77887">
        <ele>1047.2</ele>
      </trkpt>
      <trkpt lat="45.28648" lon="3.77896">
        <ele>1046.7</ele>
      </trkpt>
      <trkpt lat="45.28649" lon="3.77904">
        <ele>1046.3</ele>
      </trkpt>
      <trkpt lat="45.28649" lon="3.77913">
        <ele>1045.9</ele>
      </trkpt>
      <trkpt lat="45.28649" lon="3.7792">
        <ele>1045.6</ele>
      </trkpt>
      <trkpt lat="45.28649" lon="3.77927">
        <ele>1045.6</ele>
      </trkpt>
      <trkpt lat="45.28648" lon="3.77937">
        <ele>1045.4</ele>
      </trkpt>
      <trkpt lat="45.28647" lon="3.77943">
        <ele>1045</ele>
      </trkpt>
      <trkpt lat="45.28643" lon="3.77949">
        <ele>1044.4</ele>
      </trkpt>
      <trkpt lat="45.28637" lon="3.77952">
        <ele>1043.2</ele>
      </trkpt>
      <trkpt lat="45.28629" lon="3.77955">
        <ele>1041.8</ele>
      </trkpt>
      <trkpt lat="45.28621" lon="3.77958">
        <ele>1040.5</ele>
      </trkpt>
      <trkpt lat="45.28615" lon="3.77965">
        <ele>1039.5</ele>
      </trkpt>
      <trkpt lat="45.28613" lon="3.7797">
        <ele>1039.3</ele>
      </trkpt>
      <trkpt lat="45.28613" lon="3.77978">
        <ele>1039.4</ele>
      </trkpt>
      <trkpt lat="45.28613" lon="3.77991">
        <ele>1039.6</ele>
      </trkpt>
      <trkpt lat="45.28614" lon="3.77997">
        <ele>1039.7</ele>
      </trkpt>
      <trkpt lat="45.28614" lon="3.78005">
        <ele>1039.3</ele>
      </trkpt>
      <trkpt lat="45.28614" lon="3.78005">
        <ele>1039.3</ele>
      </trkpt>
      <trkpt lat="45.28614" lon="3.78011">
        <ele>1038.6</ele>
      </trkpt>
      <trkpt lat="45.28615" lon="3.78023">
        <ele>1037.5</ele>
      </trkpt>
      <trkpt lat="45.28616" lon="3.78036">
        <ele>1036.3</ele>
      </trkpt>
      <trkpt lat="45.28618" lon="3.78042">
        <ele>1036</ele>
      </trkpt>
      <trkpt lat="45.2862" lon="3.78049">
        <ele>1035.7</ele>
      </trkpt>
      <trkpt lat="45.28624" lon="3.78056">
        <ele>1035.5</ele>
      </trkpt>
      <trkpt lat="45.28628" lon="3.78064">
        <ele>1035.5</ele>
      </trkpt>
      <trkpt lat="45.28631" lon="3.78072">
        <ele>1035.2</ele>
      </trkpt>
      <trkpt lat="45.28633" lon="3.7808">
        <ele>1034.9</ele>
      </trkpt>
      <trkpt lat="45.28636" lon="3.78089">
        <ele>1034.4</ele>
      </trkpt>
      <trkpt lat="45.28639" lon="3.78096">
        <ele>1034</ele>
      </trkpt>
      <trkpt lat="45.28643" lon="3.78104">
        <ele>1033.6</ele>
      </trkpt>
      <trkpt lat="45.28646" lon="3.78111">
        <ele>1033.2</ele>
      </trkpt>
      <trkpt lat="45.28649" lon="3.78118">
        <ele>1032.8</ele>
      </trkpt>
      <trkpt lat="45.28653" lon="3.78124">
        <ele>1032.5</ele>
      </trkpt>
      <trkpt lat="45.28657" lon="3.78129">
        <ele>1032.4</ele>
      </trkpt>
      <trkpt lat="45.2866" lon="3.78133">
        <ele>1032.3</ele>
      </trkpt>
      <trkpt lat="45.28667" lon="3.78138">
        <ele>1032.4</ele>
      </trkpt>
      <trkpt lat="45.28671" lon="3.78146">
        <ele>1031.3</ele>
      </trkpt>
      <trkpt lat="45.28675" lon="3.78159">
        <ele>1029.3</ele>
      </trkpt>
      <trkpt lat="45.28679" lon="3.78175">
        <ele>1027</ele>
      </trkpt>
      <trkpt lat="45.28681" lon="3.78189">
        <ele>1024.8</ele>
      </trkpt>
      <trkpt lat="45.28685" lon="3.78203">
        <ele>1022.9</ele>
      </trkpt>
      <trkpt lat="45.28687" lon="3.78213">
        <ele>1021.5</ele>
      </trkpt>
      <trkpt lat="45.28689" lon="3.78233">
        <ele>1018.8</ele>
      </trkpt>
      <trkpt lat="45.28691" lon="3.78248">
        <ele>1016.6</ele>
      </trkpt>
      <trkpt lat="45.28693" lon="3.78269">
        <ele>1014.7</ele>
      </trkpt>
      <trkpt lat="45.28695" lon="3.78294">
        <ele>1012.6</ele>
      </trkpt>
      <trkpt lat="45.28698" lon="3.78319">
        <ele>1010.8</ele>
      </trkpt>
      <trkpt lat="45.28701" lon="3.78335">
        <ele>1009.9</ele>
      </trkpt>
      <trkpt lat="45.28706" lon="3.78353">
        <ele>1009.8</ele>
      </trkpt>
      <trkpt lat="45.28714" lon="3.7837">
        <ele>1009.8</ele>
      </trkpt>
      <trkpt lat="45.28719" lon="3.78382">
        <ele>1009.8</ele>
      </trkpt>
      <trkpt lat="45.28729" lon="3.78394">
        <ele>1010</ele>
      </trkpt>
      <trkpt lat="45.28735" lon="3.78399">
        <ele>1010.2</ele>
      </trkpt>
      <trkpt lat="45.28743" lon="3.78405">
        <ele>1010.4</ele>
      </trkpt>
      <trkpt lat="45.28757" lon="3.78412">
        <ele>1010.6</ele>
      </trkpt>
      <trkpt lat="45.28774" lon="3.78418">
        <ele>1010.4</ele>
      </trkpt>
      <trkpt lat="45.28794" lon="3.78426">
        <ele>1010.3</ele>
      </trkpt>
      <trkpt lat="45.28805" lon="3.78431">
        <ele>1010.1</ele>
      </trkpt>
      <trkpt lat="45.28796" lon="3.78443">
        <ele>1008.9</ele>
      </trkpt>
      <trkpt lat="45.28781" lon="3.78461">
        <ele>1007.1</ele>
      </trkpt>
      <trkpt lat="45.28766" lon="3.78477">
        <ele>1005.7</ele>
      </trkpt>
      <trkpt lat="45.28755" lon="3.78489">
        <ele>1004.8</ele>
      </trkpt>
      <trkpt lat="45.28742" lon="3.78503">
        <ele>1003.6</ele>
      </trkpt>
      <trkpt lat="45.28742" lon="3.78503">
        <ele>1003.6</ele>
      </trkpt>
      <trkpt lat="45.28735" lon="3.78509">
        <ele>1003.3</ele>
      </trkpt>
      <trkpt lat="45.28729" lon="3.78513">
        <ele>1003</ele>
      </trkpt>
      <trkpt lat="45.28721" lon="3.78517">
        <ele>1002.5</ele>
      </trkpt>
      <trkpt lat="45.28716" lon="3.7852">
        <ele>1002.2</ele>
      </trkpt>
      <trkpt lat="45.28711" lon="3.78522">
        <ele>1001.8</ele>
      </trkpt>
      <trkpt lat="45.28703" lon="3.78524">
        <ele>1001.2</ele>
      </trkpt>
      <trkpt lat="45.28695" lon="3.78527">
        <ele>1000.6</ele>
      </trkpt>
      <trkpt lat="45.28674" lon="3.78534">
        <ele>998.8</ele>
      </trkpt>
      <trkpt lat="45.28661" lon="3.78538">
        <ele>998.2</ele>
      </trkpt>
      <trkpt lat="45.28656" lon="3.7854">
        <ele>998.3</ele>
      </trkpt>
      <trkpt lat="45.28641" lon="3.78545">
        <ele>998.3</ele>
      </trkpt>
      <trkpt lat="45.28629" lon="3.78551">
        <ele>998</ele>
      </trkpt>
      <trkpt lat="45.2862" lon="3.78555">
        <ele>997.7</ele>
      </trkpt>
      <trkpt lat="45.28613" lon="3.78561">
        <ele>997.2</ele>
      </trkpt>
      <trkpt lat="45.28596" lon="3.78574">
        <ele>995.5</ele>
      </trkpt>
      <trkpt lat="45.2859" lon="3.78579">
        <ele>994.7</ele>
      </trkpt>
      <trkpt lat="45.28577" lon="3.78591">
        <ele>994.3</ele>
      </trkpt>
      <trkpt lat="45.2856" lon="3.78605">
        <ele>994.8</ele>
      </trkpt>
      <trkpt lat="45.28544" lon="3.78618">
        <ele>994.8</ele>
      </trkpt>
      <trkpt lat="45.28529" lon="3.78632">
        <ele>994.2</ele>
      </trkpt>
      <trkpt lat="45.28513" lon="3.78641">
        <ele>993.5</ele>
      </trkpt>
      <trkpt lat="45.28497" lon="3.78651">
        <ele>992.7</ele>
      </trkpt>
      <trkpt lat="45.28481" lon="3.78663">
        <ele>991.9</ele>
      </trkpt>
      <trkpt lat="45.28465" lon="3.78674">
        <ele>991.2</ele>
      </trkpt>
      <trkpt lat="45.28453" lon="3.78684">
        <ele>990.7</ele>
      </trkpt>
      <trkpt lat="45.28441" lon="3.78693">
        <ele>990.1</ele>
      </trkpt>
      <trkpt lat="45.28435" lon="3.78696">
        <ele>989.9</ele>
      </trkpt>
      <trkpt lat="45.28428" lon="3.787">
        <ele>989.7</ele>
      </trkpt>
      <trkpt lat="45.2842" lon="3.78702">
        <ele>989.6</ele>
      </trkpt>
      <trkpt lat="45.28419" lon="3.78709">
        <ele>988.9</ele>
      </trkpt>
      <trkpt lat="45.28406" lon="3.78721">
        <ele>988.4</ele>
      </trkpt>
      <trkpt lat="45.28392" lon="3.78732">
        <ele>987.8</ele>
      </trkpt>
      <trkpt lat="45.28381" lon="3.7874">
        <ele>987.5</ele>
      </trkpt>
      <trkpt lat="45.2837" lon="3.78747">
        <ele>987</ele>
      </trkpt>
      <trkpt lat="45.28353" lon="3.78759">
        <ele>986.4</ele>
      </trkpt>
      <trkpt lat="45.28343" lon="3.78767">
        <ele>986</ele>
      </trkpt>
      <trkpt lat="45.28339" lon="3.7877">
        <ele>985.8</ele>
      </trkpt>
      <trkpt lat="45.28335" lon="3.78776">
        <ele>985.4</ele>
      </trkpt>
      <trkpt lat="45.28335" lon="3.78776">
        <ele>985.4</ele>
      </trkpt>
      <trkpt lat="45.28335" lon="3.78798">
        <ele>983.3</ele>
      </trkpt>
      <trkpt lat="45.28336" lon="3.7882">
        <ele>981.2</ele>
      </trkpt>
      <trkpt lat="45.28334" lon="3.78835">
        <ele>979.8</ele>
      </trkpt>
      <trkpt lat="45.28334" lon="3.78855">
        <ele>977.6</ele>
      </trkpt>
      <trkpt lat="45.28321" lon="3.78865">
        <ele>977.5</ele>
      </trkpt>
      <trkpt lat="45.2831" lon="3.7887">
        <ele>977.7</ele>
      </trkpt>
      <trkpt lat="45.283" lon="3.78891">
        <ele>976.4</ele>
      </trkpt>
      <trkpt lat="45.28295" lon="3.78907">
        <ele>975.5</ele>
      </trkpt>
      <trkpt lat="45.28292" lon="3.78916">
        <ele>975</ele>
      </trkpt>
      <trkpt lat="45.28293" lon="3.78924">
        <ele>974.1</ele>
      </trkpt>
      <trkpt lat="45.2829" lon="3.78935">
        <ele>973.1</ele>
      </trkpt>
      <trkpt lat="45.28288" lon="3.78942">
        <ele>972.5</ele>
      </trkpt>
      <trkpt lat="45.28286" lon="3.78954">
        <ele>971.4</ele>
      </trkpt>
      <trkpt lat="45.28286" lon="3.78965">
        <ele>970.2</ele>
      </trkpt>
      <trkpt lat="45.28288" lon="3.78977">
        <ele>968.7</ele>
      </trkpt>
      <trkpt lat="45.28293" lon="3.78983">
        <ele>967.7</ele>
      </trkpt>
      <trkpt lat="45.28286" lon="3.78994">
        <ele>967</ele>
      </trkpt>
      <trkpt lat="45.28279" lon="3.79005">
        <ele>966</ele>
      </trkpt>
      <trkpt lat="45.28273" lon="3.79017">
        <ele>964.9</ele>
      </trkpt>
      <trkpt lat="45.28266" lon="3.79028">
        <ele>963.6</ele>
      </trkpt>
      <trkpt lat="45.28258" lon="3.79035">
        <ele>962.8</ele>
      </trkpt>
      <trkpt lat="45.2825" lon="3.7904">
        <ele>962.2</ele>
      </trkpt>
      <trkpt lat="45.2824" lon="3.79045">
        <ele>962.2</ele>
      </trkpt>
      <trkpt lat="45.28228" lon="3.79053">
        <ele>961.7</ele>
      </trkpt>
      <trkpt lat="45.28221" lon="3.7906">
        <ele>960.9</ele>
      </trkpt>
      <trkpt lat="45.28207" lon="3.79079">
        <ele>958.3</ele>
      </trkpt>
      <trkpt lat="45.28191" lon="3.79098">
        <ele>957.2</ele>
      </trkpt>
      <trkpt lat="45.28172" lon="3.79113">
        <ele>956.7</ele>
      </trkpt>
      <trkpt lat="45.28162" lon="3.79122">
        <ele>956.5</ele>
      </trkpt>
      <trkpt lat="45.28152" lon="3.7913">
        <ele>956.3</ele>
      </trkpt>
      <trkpt lat="45.28141" lon="3.79137">
        <ele>956.3</ele>
      </trkpt>
      <trkpt lat="45.28131" lon="3.79145">
        <ele>956.3</ele>
      </trkpt>
      <trkpt lat="45.28118" lon="3.79152">
        <ele>956.4</ele>
      </trkpt>
      <trkpt lat="45.28105" lon="3.79157">
        <ele>956.7</ele>
      </trkpt>
      <trkpt lat="45.28093" lon="3.79161">
        <ele>956.9</ele>
      </trkpt>
      <trkpt lat="45.28073" lon="3.79168">
        <ele>956.9</ele>
      </trkpt>
      <trkpt lat="45.2807" lon="3.79174">
        <ele>956.7</ele>
      </trkpt>
      <trkpt lat="45.28056" lon="3.79172">
        <ele>956.8</ele>
      </trkpt>
      <trkpt lat="45.28044" lon="3.79173">
        <ele>956.8</ele>
      </trkpt>
      <trkpt lat="45.28044" lon="3.79173">
        <ele>956.8</ele>
      </trkpt>
      <trkpt lat="45.28034" lon="3.79175">
        <ele>956.7</ele>
      </trkpt>
      <trkpt lat="45.28025" lon="3.79175">
        <ele>956.7</ele>
      </trkpt>
      <trkpt lat="45.28004" lon="3.79174">
        <ele>956.7</ele>
      </trkpt>
      <trkpt lat="45.27991" lon="3.79173">
        <ele>956.4</ele>
      </trkpt>
      <trkpt lat="45.27977" lon="3.79173">
        <ele>956</ele>
      </trkpt>
      <trkpt lat="45.27963" lon="3.79173">
        <ele>955.5</ele>
      </trkpt>
      <trkpt lat="45.27948" lon="3.79174">
        <ele>954.9</ele>
      </trkpt>
      <trkpt lat="45.27934" lon="3.79174">
        <ele>954.4</ele>
      </trkpt>
      <trkpt lat="45.27919" lon="3.79175">
        <ele>953.9</ele>
      </trkpt>
      <trkpt lat="45.27907" lon="3.79174">
        <ele>954.7</ele>
      </trkpt>
      <trkpt lat="45.27894" lon="3.79173">
        <ele>955.7</ele>
      </trkpt>
      <trkpt lat="45.27881" lon="3.79173">
        <ele>956.7</ele>
      </trkpt>
      <trkpt lat="45.27869" lon="3.79172">
        <ele>957.7</ele>
      </trkpt>
      <trkpt lat="45.27869" lon="3.79184">
        <ele>958.2</ele>
      </trkpt>
      <trkpt lat="45.2787" lon="3.79198">
        <ele>958.8</ele>
      </trkpt>
      <trkpt lat="45.27872" lon="3.79216">
        <ele>959.2</ele>
      </trkpt>
      <trkpt lat="45.27871" lon="3.79247">
        <ele>960.7</ele>
      </trkpt>
      <trkpt lat="45.27868" lon="3.79264">
        <ele>960.8</ele>
      </trkpt>
      <trkpt lat="45.27866" lon="3.79281">
        <ele>960.6</ele>
      </trkpt>
      <trkpt lat="45.27865" lon="3.79299">
        <ele>960.1</ele>
      </trkpt>
      <trkpt lat="45.27864" lon="3.79317">
        <ele>959.7</ele>
      </trkpt>
      <trkpt lat="45.27864" lon="3.79334">
        <ele>959.1</ele>
      </trkpt>
      <trkpt lat="45.27861" lon="3.7935">
        <ele>957.6</ele>
      </trkpt>
      <trkpt lat="45.27855" lon="3.79366">
        <ele>956.6</ele>
      </trkpt>
      <trkpt lat="45.27847" lon="3.79381">
        <ele>955.8</ele>
      </trkpt>
      <trkpt lat="45.27836" lon="3.79394">
        <ele>955.3</ele>
      </trkpt>
      <trkpt lat="45.27827" lon="3.79406">
        <ele>954.8</ele>
      </trkpt>
      <trkpt lat="45.27818" lon="3.79418">
        <ele>954.7</ele>
      </trkpt>
      <trkpt lat="45.27805" lon="3.79442">
        <ele>954.8</ele>
      </trkpt>
      <trkpt lat="45.27796" lon="3.79461">
        <ele>954.7</ele>
      </trkpt>
      <trkpt lat="45.27787" lon="3.79483">
        <ele>954.5</ele>
      </trkpt>
      <trkpt lat="45.27777" lon="3.79504">
        <ele>954.7</ele>
      </trkpt>
      <trkpt lat="45.27767" lon="3.7952">
        <ele>955.5</ele>
      </trkpt>
      <trkpt lat="45.27757" lon="3.79535">
        <ele>956</ele>
      </trkpt>
      <trkpt lat="45.27757" lon="3.79535">
        <ele>956</ele>
      </trkpt>
      <trkpt lat="45.27746" lon="3.79551">
        <ele>955.8</ele>
      </trkpt>
      <trkpt lat="45.27736" lon="3.79568">
        <ele>954.8</ele>
      </trkpt>
      <trkpt lat="45.27726" lon="3.79584">
        <ele>953.9</ele>
      </trkpt>
      <trkpt lat="45.27715" lon="3.79601">
        <ele>953.8</ele>
      </trkpt>
      <trkpt lat="45.27704" lon="3.79618">
        <ele>953.9</ele>
      </trkpt>
      <trkpt lat="45.27699" lon="3.79621">
        <ele>954.1</ele>
      </trkpt>
      <trkpt lat="45.2769" lon="3.79626">
        <ele>954.6</ele>
      </trkpt>
      <trkpt lat="45.2768" lon="3.79634">
        <ele>955.1</ele>
      </trkpt>
      <trkpt lat="45.27673" lon="3.79642">
        <ele>955.6</ele>
      </trkpt>
      <trkpt lat="45.27657" lon="3.7966">
        <ele>956.7</ele>
      </trkpt>
      <trkpt lat="45.27644" lon="3.79675">
        <ele>957.8</ele>
      </trkpt>
      <trkpt lat="45.27631" lon="3.79691">
        <ele>959.1</ele>
      </trkpt>
      <trkpt lat="45.27617" lon="3.79708">
        <ele>960.7</ele>
      </trkpt>
      <trkpt lat="45.27608" lon="3.79718">
        <ele>961.7</ele>
      </trkpt>
      <trkpt lat="45.27601" lon="3.79725">
        <ele>962.5</ele>
      </trkpt>
      <trkpt lat="45.27591" lon="3.79732">
        <ele>963.7</ele>
      </trkpt>
      <trkpt lat="45.27579" lon="3.79737">
        <ele>964.8</ele>
      </trkpt>
      <trkpt lat="45.27573" lon="3.79741">
        <ele>965.3</ele>
      </trkpt>
      <trkpt lat="45.27565" lon="3.79747">
        <ele>966</ele>
      </trkpt>
      <trkpt lat="45.27556" lon="3.79764">
        <ele>966.9</ele>
      </trkpt>
      <trkpt lat="45.27545" lon="3.79781">
        <ele>968</ele>
      </trkpt>
      <trkpt lat="45.27541" lon="3.79786">
        <ele>968.4</ele>
      </trkpt>
      <trkpt lat="45.27529" lon="3.79803">
        <ele>969.7</ele>
      </trkpt>
      <trkpt lat="45.27517" lon="3.79826">
        <ele>971.4</ele>
      </trkpt>
      <trkpt lat="45.27511" lon="3.79845">
        <ele>972.2</ele>
      </trkpt>
      <trkpt lat="45.2751" lon="3.79859">
        <ele>972.4</ele>
      </trkpt>
      <trkpt lat="45.2751" lon="3.79866">
        <ele>972.4</ele>
      </trkpt>
      <trkpt lat="45.27508" lon="3.79875">
        <ele>972.7</ele>
      </trkpt>
      <trkpt lat="45.27502" lon="3.79891">
        <ele>973.5</ele>
      </trkpt>
      <trkpt lat="45.27495" lon="3.79906">
        <ele>974.9</ele>
      </trkpt>
      <trkpt lat="45.27489" lon="3.79919">
        <ele>976.1</ele>
      </trkpt>
      <trkpt lat="45.27487" lon="3.79927">
        <ele>976.2</ele>
      </trkpt>
      <trkpt lat="45.27485" lon="3.79936">
        <ele>975.9</ele>
      </trkpt>
      <trkpt lat="45.27485" lon="3.79945">
        <ele>975.4</ele>
      </trkpt>
      <trkpt lat="45.27484" lon="3.79956">
        <ele>974.9</ele>
      </trkpt>
      <trkpt lat="45.27483" lon="3.79965">
        <ele>974.6</ele>
      </trkpt>
      <trkpt lat="45.27483" lon="3.79977">
        <ele>974.1</ele>
      </trkpt>
      <trkpt lat="45.2748" lon="3.79994">
        <ele>973.7</ele>
      </trkpt>
      <trkpt lat="45.27477" lon="3.80012">
        <ele>974.8</ele>
      </trkpt>
      <trkpt lat="45.27472" lon="3.8003">
        <ele>976.9</ele>
      </trkpt>
      <trkpt lat="45.27472" lon="3.8003">
        <ele>976.9</ele>
      </trkpt>
      <trkpt lat="45.27467" lon="3.80044">
        <ele>978.6</ele>
      </trkpt>
      <trkpt lat="45.27465" lon="3.80057">
        <ele>979.5</ele>
      </trkpt>
      <trkpt lat="45.27457" lon="3.80085">
        <ele>981.9</ele>
      </trkpt>
      <trkpt lat="45.27453" lon="3.80112">
        <ele>981.4</ele>
      </trkpt>
      <trkpt lat="45.27452" lon="3.8014">
        <ele>980.1</ele>
      </trkpt>
      <trkpt lat="45.27452" lon="3.80162">
        <ele>979</ele>
      </trkpt>
      <trkpt lat="45.27451" lon="3.80181">
        <ele>977.4</ele>
      </trkpt>
      <trkpt lat="45.27448" lon="3.80192">
        <ele>976.5</ele>
      </trkpt>
      <trkpt lat="45.27445" lon="3.80207">
        <ele>975.3</ele>
      </trkpt>
      <trkpt lat="45.27442" lon="3.80215">
        <ele>974.7</ele>
      </trkpt>
      <trkpt lat="45.27435" lon="3.80232">
        <ele>973.5</ele>
      </trkpt>
      <trkpt lat="45.27427" lon="3.80249">
        <ele>972.3</ele>
      </trkpt>
      <trkpt lat="45.27415" lon="3.80275">
        <ele>969.7</ele>
      </trkpt>
      <trkpt lat="45.27405" lon="3.80294">
        <ele>968.6</ele>
      </trkpt>
      <trkpt lat="45.27399" lon="3.80307">
        <ele>967.7</ele>
      </trkpt>
      <trkpt lat="45.27393" lon="3.8032">
        <ele>966.5</ele>
      </trkpt>
      <trkpt lat="45.27389" lon="3.80333">
        <ele>965</ele>
      </trkpt>
      <trkpt lat="45.27386" lon="3.80345">
        <ele>964.1</ele>
      </trkpt>
      <trkpt lat="45.27386" lon="3.80354">
        <ele>963.2</ele>
      </trkpt>
      <trkpt lat="45.27385" lon="3.80366">
        <ele>962.1</ele>
      </trkpt>
      <trkpt lat="45.27382" lon="3.80377">
        <ele>961.5</ele>
      </trkpt>
      <trkpt lat="45.27378" lon="3.80388">
        <ele>960.9</ele>
      </trkpt>
      <trkpt lat="45.27377" lon="3.804">
        <ele>959.8</ele>
      </trkpt>
      <trkpt lat="45.27378" lon="3.80409">
        <ele>958.9</ele>
      </trkpt>
      <trkpt lat="45.27378" lon="3.8042">
        <ele>957.9</ele>
      </trkpt>
      <trkpt lat="45.27375" lon="3.80434">
        <ele>957.6</ele>
      </trkpt>
      <trkpt lat="45.27372" lon="3.80448">
        <ele>957.4</ele>
      </trkpt>
      <trkpt lat="45.27368" lon="3.80463">
        <ele>957.2</ele>
      </trkpt>
      <trkpt lat="45.27363" lon="3.80489">
        <ele>956.7</ele>
      </trkpt>
      <trkpt lat="45.27361" lon="3.80495">
        <ele>956.6</ele>
      </trkpt>
      <trkpt lat="45.27358" lon="3.80513">
        <ele>956.3</ele>
      </trkpt>
      <trkpt lat="45.27354" lon="3.80531">
        <ele>955.9</ele>
      </trkpt>
      <trkpt lat="45.27347" lon="3.80561">
        <ele>955</ele>
      </trkpt>
      <trkpt lat="45.27345" lon="3.80578">
        <ele>954.2</ele>
      </trkpt>
      <trkpt lat="45.27342" lon="3.80595">
        <ele>953.9</ele>
      </trkpt>
      <trkpt lat="45.27338" lon="3.80617">
        <ele>953.8</ele>
      </trkpt>
      <trkpt lat="45.27335" lon="3.80639">
        <ele>953.6</ele>
      </trkpt>
      <trkpt lat="45.27331" lon="3.80656">
        <ele>953.7</ele>
      </trkpt>
      <trkpt lat="45.27331" lon="3.80656">
        <ele>953.7</ele>
      </trkpt>
      <trkpt lat="45.27331" lon="3.80656">
        <ele>953.7</ele>
      </trkpt>
      <trkpt lat="45.27327" lon="3.80672">
        <ele>954.1</ele>
      </trkpt>
      <trkpt lat="45.27324" lon="3.80689">
        <ele>955.1</ele>
      </trkpt>
      <trkpt lat="45.2732" lon="3.80705">
        <ele>956</ele>
      </trkpt>
      <trkpt lat="45.27316" lon="3.80724">
        <ele>956.8</ele>
      </trkpt>
      <trkpt lat="45.27312" lon="3.80743">
        <ele>957.5</ele>
      </trkpt>
      <trkpt lat="45.27308" lon="3.80762">
        <ele>957.7</ele>
      </trkpt>
      <trkpt lat="45.27304" lon="3.80782">
        <ele>957.5</ele>
      </trkpt>
      <trkpt lat="45.27303" lon="3.80798">
        <ele>957.3</ele>
      </trkpt>
      <trkpt lat="45.27303" lon="3.80812">
        <ele>957</ele>
      </trkpt>
      <trkpt lat="45.27305" lon="3.80828">
        <ele>956.7</ele>
      </trkpt>
      <trkpt lat="45.27307" lon="3.80843">
        <ele>956.2</ele>
      </trkpt>
      <trkpt lat="45.27309" lon="3.80857">
        <ele>955.6</ele>
      </trkpt>
      <trkpt lat="45.27309" lon="3.80873">
        <ele>954.9</ele>
      </trkpt>
      <trkpt lat="45.27307" lon="3.80883">
        <ele>954.3</ele>
      </trkpt>
      <trkpt lat="45.27304" lon="3.80906">
        <ele>953.1</ele>
      </trkpt>
      <trkpt lat="45.273" lon="3.8093">
        <ele>951.7</ele>
      </trkpt>
      <trkpt lat="45.27299" lon="3.80941">
        <ele>951.1</ele>
      </trkpt>
      <trkpt lat="45.27297" lon="3.80956">
        <ele>950.2</ele>
      </trkpt>
      <trkpt lat="45.27296" lon="3.80966">
        <ele>949.7</ele>
      </trkpt>
      <trkpt lat="45.27293" lon="3.80988">
        <ele>948.6</ele>
      </trkpt>
      <trkpt lat="45.2729" lon="3.8101">
        <ele>947.8</ele>
      </trkpt>
      <trkpt lat="45.27286" lon="3.8104">
        <ele>947.3</ele>
      </trkpt>
      <trkpt lat="45.2728" lon="3.81064">
        <ele>947</ele>
      </trkpt>
      <trkpt lat="45.27274" lon="3.81092">
        <ele>946.4</ele>
      </trkpt>
      <trkpt lat="45.27269" lon="3.8111">
        <ele>945.7</ele>
      </trkpt>
      <trkpt lat="45.27264" lon="3.81128">
        <ele>944.8</ele>
      </trkpt>
      <trkpt lat="45.27259" lon="3.81142">
        <ele>943.9</ele>
      </trkpt>
      <trkpt lat="45.27254" lon="3.81157">
        <ele>942.8</ele>
      </trkpt>
      <trkpt lat="45.27248" lon="3.81175">
        <ele>941.3</ele>
      </trkpt>
      <trkpt lat="45.27244" lon="3.81195">
        <ele>939.7</ele>
      </trkpt>
      <trkpt lat="45.27241" lon="3.81211">
        <ele>938.6</ele>
      </trkpt>
      <trkpt lat="45.27237" lon="3.81227">
        <ele>937.4</ele>
      </trkpt>
      <trkpt lat="45.27234" lon="3.81243">
        <ele>936.2</ele>
      </trkpt>
      <trkpt lat="45.27231" lon="3.81259">
        <ele>934.6</ele>
      </trkpt>
      <trkpt lat="45.27228" lon="3.81275">
        <ele>932.5</ele>
      </trkpt>
      <trkpt lat="45.27224" lon="3.81291">
        <ele>930.4</ele>
      </trkpt>
      <trkpt lat="45.27224" lon="3.81291">
        <ele>930.4</ele>
      </trkpt>
      <trkpt lat="45.27219" lon="3.81311">
        <ele>927.9</ele>
      </trkpt>
      <trkpt lat="45.27216" lon="3.81326">
        <ele>926.3</ele>
      </trkpt>
      <trkpt lat="45.27214" lon="3.81348">
        <ele>924.2</ele>
      </trkpt>
      <trkpt lat="45.27212" lon="3.81379">
        <ele>921.7</ele>
      </trkpt>
      <trkpt lat="45.27211" lon="3.81406">
        <ele>919.5</ele>
      </trkpt>
      <trkpt lat="45.27212" lon="3.81436">
        <ele>918</ele>
      </trkpt>
      <trkpt lat="45.27211" lon="3.81463">
        <ele>917</ele>
      </trkpt>
      <trkpt lat="45.2721" lon="3.81489">
        <ele>916</ele>
      </trkpt>
      <trkpt lat="45.27208" lon="3.81514">
        <ele>915.1</ele>
      </trkpt>
      <trkpt lat="45.27204" lon="3.81542">
        <ele>914.3</ele>
      </trkpt>
      <trkpt lat="45.27201" lon="3.81559">
        <ele>913.9</ele>
      </trkpt>
      <trkpt lat="45.27196" lon="3.81575">
        <ele>913.5</ele>
      </trkpt>
      <trkpt lat="45.2719" lon="3.81589">
        <ele>913</ele>
      </trkpt>
      <trkpt lat="45.27184" lon="3.81598">
        <ele>912.5</ele>
      </trkpt>
      <trkpt lat="45.27176" lon="3.81606">
        <ele>912.1</ele>
      </trkpt>
      <trkpt lat="45.27172" lon="3.8161">
        <ele>911.8</ele>
      </trkpt>
      <trkpt lat="45.27169" lon="3.81619">
        <ele>911.3</ele>
      </trkpt>
      <trkpt lat="45.27169" lon="3.81626">
        <ele>911</ele>
      </trkpt>
      <trkpt lat="45.27171" lon="3.81641">
        <ele>910.3</ele>
      </trkpt>
      <trkpt lat="45.27175" lon="3.81656">
        <ele>909.7</ele>
      </trkpt>
      <trkpt lat="45.27182" lon="3.81667">
        <ele>909.3</ele>
      </trkpt>
      <trkpt lat="45.27192" lon="3.81678">
        <ele>908.6</ele>
      </trkpt>
      <trkpt lat="45.27207" lon="3.81688">
        <ele>907.8</ele>
      </trkpt>
      <trkpt lat="45.27213" lon="3.81692">
        <ele>907.4</ele>
      </trkpt>
      <trkpt lat="45.27217" lon="3.81698">
        <ele>906.8</ele>
      </trkpt>
      <trkpt lat="45.2722" lon="3.81709">
        <ele>905.7</ele>
      </trkpt>
      <trkpt lat="45.27218" lon="3.81718">
        <ele>904.7</ele>
      </trkpt>
      <trkpt lat="45.27214" lon="3.81724">
        <ele>904.1</ele>
      </trkpt>
      <trkpt lat="45.27205" lon="3.8173">
        <ele>903.6</ele>
      </trkpt>
      <trkpt lat="45.27189" lon="3.8174">
        <ele>903.1</ele>
      </trkpt>
      <trkpt lat="45.27173" lon="3.81751">
        <ele>902.6</ele>
      </trkpt>
      <trkpt lat="45.27157" lon="3.81762">
        <ele>900.1</ele>
      </trkpt>
      <trkpt lat="45.27142" lon="3.81773">
        <ele>897</ele>
      </trkpt>
      <trkpt lat="45.27127" lon="3.81783">
        <ele>894.6</ele>
      </trkpt>
      <trkpt lat="45.27113" lon="3.81793">
        <ele>892.5</ele>
      </trkpt>
      <trkpt lat="45.271" lon="3.81799">
        <ele>891.1</ele>
      </trkpt>
      <trkpt lat="45.271" lon="3.81799">
        <ele>891.1</ele>
      </trkpt>
      <trkpt lat="45.27087" lon="3.81803">
        <ele>890.1</ele>
      </trkpt>
      <trkpt lat="45.27075" lon="3.81804">
        <ele>889.6</ele>
      </trkpt>
      <trkpt lat="45.27065" lon="3.81804">
        <ele>889.4</ele>
      </trkpt>
      <trkpt lat="45.27054" lon="3.818">
        <ele>889.5</ele>
      </trkpt>
      <trkpt lat="45.27048" lon="3.81795">
        <ele>889.7</ele>
      </trkpt>
      <trkpt lat="45.27042" lon="3.81787">
        <ele>890.2</ele>
      </trkpt>
      <trkpt lat="45.27036" lon="3.81776">
        <ele>890.7</ele>
      </trkpt>
      <trkpt lat="45.27031" lon="3.81763">
        <ele>891.5</ele>
      </trkpt>
      <trkpt lat="45.27026" lon="3.81755">
        <ele>891.9</ele>
      </trkpt>
      <trkpt lat="45.27022" lon="3.8175">
        <ele>892.1</ele>
      </trkpt>
      <trkpt lat="45.27017" lon="3.81747">
        <ele>892</ele>
      </trkpt>
      <trkpt lat="45.27011" lon="3.81746">
        <ele>891.7</ele>
      </trkpt>
      <trkpt lat="45.27004" lon="3.81747">
        <ele>891.3</ele>
      </trkpt>
      <trkpt lat="45.2699" lon="3.81753">
        <ele>891.4</ele>
      </trkpt>
      <trkpt lat="45.26979" lon="3.8176">
        <ele>891.8</ele>
      </trkpt>
      <trkpt lat="45.26968" lon="3.81767">
        <ele>892.2</ele>
      </trkpt>
      <trkpt lat="45.26961" lon="3.81773">
        <ele>892.5</ele>
      </trkpt>
      <trkpt lat="45.26955" lon="3.81781">
        <ele>892.7</ele>
      </trkpt>
      <trkpt lat="45.26951" lon="3.81791">
        <ele>892.7</ele>
      </trkpt>
      <trkpt lat="45.26949" lon="3.81802">
        <ele>892.5</ele>
      </trkpt>
      <trkpt lat="45.26945" lon="3.81831">
        <ele>892</ele>
      </trkpt>
      <trkpt lat="45.26942" lon="3.81853">
        <ele>891.9</ele>
      </trkpt>
      <trkpt lat="45.26938" lon="3.81864">
        <ele>892</ele>
      </trkpt>
      <trkpt lat="45.26934" lon="3.81873">
        <ele>892.3</ele>
      </trkpt>
      <trkpt lat="45.26929" lon="3.81881">
        <ele>892.6</ele>
      </trkpt>
      <trkpt lat="45.2692" lon="3.81889">
        <ele>893.4</ele>
      </trkpt>
      <trkpt lat="45.26907" lon="3.81894">
        <ele>894</ele>
      </trkpt>
      <trkpt lat="45.26896" lon="3.81897">
        <ele>894.5</ele>
      </trkpt>
      <trkpt lat="45.26885" lon="3.81899">
        <ele>895</ele>
      </trkpt>
      <trkpt lat="45.26869" lon="3.81902">
        <ele>895.8</ele>
      </trkpt>
      <trkpt lat="45.26857" lon="3.81906">
        <ele>896.2</ele>
      </trkpt>
      <trkpt lat="45.26843" lon="3.81914">
        <ele>896.6</ele>
      </trkpt>
      <trkpt lat="45.26827" lon="3.81924">
        <ele>896.7</ele>
      </trkpt>
      <trkpt lat="45.26811" lon="3.81936">
        <ele>896.3</ele>
      </trkpt>
      <trkpt lat="45.26794" lon="3.81948">
        <ele>895.9</ele>
      </trkpt>
      <trkpt lat="45.26789" lon="3.81952">
        <ele>895.7</ele>
      </trkpt>
      <trkpt lat="45.2677" lon="3.81966">
        <ele>895</ele>
      </trkpt>
      <trkpt lat="45.26757" lon="3.81975">
        <ele>894.4</ele>
      </trkpt>
      <trkpt lat="45.26745" lon="3.81985">
        <ele>894</ele>
      </trkpt>
      <trkpt lat="45.2673" lon="3.81997">
        <ele>893.8</ele>
      </trkpt>
      <trkpt lat="45.26715" lon="3.82009">
        <ele>893.9</ele>
      </trkpt>
      <trkpt lat="45.26715" lon="3.82009">
        <ele>893.9</ele>
      </trkpt>
      <trkpt lat="45.26701" lon="3.82021">
        <ele>893.9</ele>
      </trkpt>
      <trkpt lat="45.26687" lon="3.82033">
        <ele>894.1</ele>
      </trkpt>
      <trkpt lat="45.26669" lon="3.8205">
        <ele>894.2</ele>
      </trkpt>
      <trkpt lat="45.26651" lon="3.82067">
        <ele>894</ele>
      </trkpt>
      <trkpt lat="45.26636" lon="3.82081">
        <ele>894</ele>
      </trkpt>
      <trkpt lat="45.26626" lon="3.82089">
        <ele>893.9</ele>
      </trkpt>
      <trkpt lat="45.26613" lon="3.82096">
        <ele>894.1</ele>
      </trkpt>
      <trkpt lat="45.26601" lon="3.82101">
        <ele>894.5</ele>
      </trkpt>
      <trkpt lat="45.26581" lon="3.82107">
        <ele>895.4</ele>
      </trkpt>
      <trkpt lat="45.2657" lon="3.82111">
        <ele>895.5</ele>
      </trkpt>
      <trkpt lat="45.26562" lon="3.82117">
        <ele>895.5</ele>
      </trkpt>
      <trkpt lat="45.26555" lon="3.82125">
        <ele>895.4</ele>
      </trkpt>
      <trkpt lat="45.26551" lon="3.82133">
        <ele>895.1</ele>
      </trkpt>
      <trkpt lat="45.26537" lon="3.82157">
        <ele>894.8</ele>
      </trkpt>
      <trkpt lat="45.26524" lon="3.82174">
        <ele>894.8</ele>
      </trkpt>
      <trkpt lat="45.26515" lon="3.82185">
        <ele>895</ele>
      </trkpt>
      <trkpt lat="45.26505" lon="3.82196">
        <ele>895.2</ele>
      </trkpt>
      <trkpt lat="45.26493" lon="3.82209">
        <ele>895.1</ele>
      </trkpt>
      <trkpt lat="45.26481" lon="3.82222">
        <ele>894.7</ele>
      </trkpt>
      <trkpt lat="45.26464" lon="3.82239">
        <ele>894.3</ele>
      </trkpt>
      <trkpt lat="45.26446" lon="3.82255">
        <ele>894.2</ele>
      </trkpt>
      <trkpt lat="45.26435" lon="3.82262">
        <ele>894.2</ele>
      </trkpt>
      <trkpt lat="45.26424" lon="3.8227">
        <ele>894.3</ele>
      </trkpt>
      <trkpt lat="45.26406" lon="3.82281">
        <ele>894.3</ele>
      </trkpt>
      <trkpt lat="45.26387" lon="3.82289">
        <ele>894.1</ele>
      </trkpt>
      <trkpt lat="45.26369" lon="3.82297">
        <ele>893.9</ele>
      </trkpt>
      <trkpt lat="45.26362" lon="3.823">
        <ele>893.8</ele>
      </trkpt>
      <trkpt lat="45.26356" lon="3.82306">
        <ele>893.7</ele>
      </trkpt>
      <trkpt lat="45.26347" lon="3.82319">
        <ele>893.3</ele>
      </trkpt>
      <trkpt lat="45.2634" lon="3.82332">
        <ele>893</ele>
      </trkpt>
      <trkpt lat="45.26333" lon="3.82345">
        <ele>893</ele>
      </trkpt>
      <trkpt lat="45.26324" lon="3.82359">
        <ele>893.6</ele>
      </trkpt>
      <trkpt lat="45.26324" lon="3.82359">
        <ele>893.6</ele>
      </trkpt>
      <trkpt lat="45.26315" lon="3.82373">
        <ele>894.2</ele>
      </trkpt>
      <trkpt lat="45.26303" lon="3.82391">
        <ele>894.9</ele>
      </trkpt>
      <trkpt lat="45.26296" lon="3.82397">
        <ele>895.3</ele>
      </trkpt>
      <trkpt lat="45.2629" lon="3.824">
        <ele>895.7</ele>
      </trkpt>
      <trkpt lat="45.26289" lon="3.82408">
        <ele>895.7</ele>
      </trkpt>
      <trkpt lat="45.26283" lon="3.82428">
        <ele>896</ele>
      </trkpt>
      <trkpt lat="45.26278" lon="3.82446">
        <ele>896.1</ele>
      </trkpt>
      <trkpt lat="45.26272" lon="3.82463">
        <ele>896.1</ele>
      </trkpt>
      <trkpt lat="45.26265" lon="3.82483">
        <ele>896.1</ele>
      </trkpt>
      <trkpt lat="45.26259" lon="3.82486">
        <ele>896.2</ele>
      </trkpt>
      <trkpt lat="45.2625" lon="3.82488">
        <ele>896.3</ele>
      </trkpt>
      <trkpt lat="45.26233" lon="3.8249">
        <ele>896.4</ele>
      </trkpt>
      <trkpt lat="45.26216" lon="3.82492">
        <ele>896.6</ele>
      </trkpt>
      <trkpt lat="45.26195" lon="3.82495">
        <ele>896.8</ele>
      </trkpt>
      <trkpt lat="45.26202" lon="3.82515">
        <ele>896.9</ele>
      </trkpt>
      <trkpt lat="45.26208" lon="3.82535">
        <ele>897.3</ele>
      </trkpt>
      <trkpt lat="45.26215" lon="3.82555">
        <ele>897.9</ele>
      </trkpt>
      <trkpt lat="45.26222" lon="3.82574">
        <ele>898.7</ele>
      </trkpt>
      <trkpt lat="45.26231" lon="3.82603">
        <ele>899.5</ele>
      </trkpt>
      <trkpt lat="45.26236" lon="3.82621">
        <ele>899.9</ele>
      </trkpt>
      <trkpt lat="45.26241" lon="3.82644">
        <ele>900.4</ele>
      </trkpt>
      <trkpt lat="45.26246" lon="3.82666">
        <ele>900.8</ele>
      </trkpt>
      <trkpt lat="45.26248" lon="3.82682">
        <ele>900.7</ele>
      </trkpt>
      <trkpt lat="45.26253" lon="3.82705">
        <ele>900.5</ele>
      </trkpt>
      <trkpt lat="45.26261" lon="3.82704">
        <ele>900.3</ele>
      </trkpt>
      <trkpt lat="45.26269" lon="3.82687">
        <ele>900.2</ele>
      </trkpt>
      <trkpt lat="45.26276" lon="3.82664">
        <ele>900</ele>
      </trkpt>
      <trkpt lat="45.26292" lon="3.82664">
        <ele>899.5</ele>
      </trkpt>
      <trkpt lat="45.26308" lon="3.82664">
        <ele>898.9</ele>
      </trkpt>
      <trkpt lat="45.26328" lon="3.82665">
        <ele>898.2</ele>
      </trkpt>
      <trkpt lat="45.26338" lon="3.82665">
        <ele>897.6</ele>
      </trkpt>
      <trkpt lat="45.26351" lon="3.82667">
        <ele>896.6</ele>
      </trkpt>
      <trkpt lat="45.2636" lon="3.82669">
        <ele>895.8</ele>
      </trkpt>
      <trkpt lat="45.2636" lon="3.82669">
        <ele>895.8</ele>
      </trkpt>
      <trkpt lat="45.26376" lon="3.82672">
        <ele>894.6</ele>
      </trkpt>
      <trkpt lat="45.26389" lon="3.82673">
        <ele>893.5</ele>
      </trkpt>
      <trkpt lat="45.26398" lon="3.82665">
        <ele>892.6</ele>
      </trkpt>
      <trkpt lat="45.26419" lon="3.82662">
        <ele>890.6</ele>
      </trkpt>
      <trkpt lat="45.26437" lon="3.82659">
        <ele>888.2</ele>
      </trkpt>
      <trkpt lat="45.26453" lon="3.82655">
        <ele>886.1</ele>
      </trkpt>
      <trkpt lat="45.26467" lon="3.82653">
        <ele>884.4</ele>
      </trkpt>
      <trkpt lat="45.26478" lon="3.82652">
        <ele>883.1</ele>
      </trkpt>
      <trkpt lat="45.26486" lon="3.82649">
        <ele>882.1</ele>
      </trkpt>
      <trkpt lat="45.26497" lon="3.82644">
        <ele>880.9</ele>
      </trkpt>
      <trkpt lat="45.26506" lon="3.82641">
        <ele>880.6</ele>
      </trkpt>
      <trkpt lat="45.26517" lon="3.82637">
        <ele>880.5</ele>
      </trkpt>
      <trkpt lat="45.2653" lon="3.82631">
        <ele>880.5</ele>
      </trkpt>
      <trkpt lat="45.26543" lon="3.82626">
        <ele>880.5</ele>
      </trkpt>
      <trkpt lat="45.26556" lon="3.82621">
        <ele>880.4</ele>
      </trkpt>
      <trkpt lat="45.26569" lon="3.82617">
        <ele>880.4</ele>
      </trkpt>
      <trkpt lat="45.26582" lon="3.82612">
        <ele>880.3</ele>
      </trkpt>
      <trkpt lat="45.26597" lon="3.82608">
        <ele>881</ele>
      </trkpt>
      <trkpt lat="45.26615" lon="3.82604">
        <ele>881.8</ele>
      </trkpt>
      <trkpt lat="45.26616" lon="3.82596">
        <ele>882</ele>
      </trkpt>
      <trkpt lat="45.26619" lon="3.82586">
        <ele>882.2</ele>
      </trkpt>
      <trkpt lat="45.26624" lon="3.82577">
        <ele>882.4</ele>
      </trkpt>
      <trkpt lat="45.26633" lon="3.82566">
        <ele>882.7</ele>
      </trkpt>
      <trkpt lat="45.26646" lon="3.82553">
        <ele>883.1</ele>
      </trkpt>
      <trkpt lat="45.26659" lon="3.82541">
        <ele>883.7</ele>
      </trkpt>
      <trkpt lat="45.26673" lon="3.82526">
        <ele>884.5</ele>
      </trkpt>
      <trkpt lat="45.26688" lon="3.82511">
        <ele>885.7</ele>
      </trkpt>
      <trkpt lat="45.26699" lon="3.82501">
        <ele>886.7</ele>
      </trkpt>
      <trkpt lat="45.26711" lon="3.82491">
        <ele>887.5</ele>
      </trkpt>
      <trkpt lat="45.26715" lon="3.82487">
        <ele>887.7</ele>
      </trkpt>
      <trkpt lat="45.26716" lon="3.82494">
        <ele>888</ele>
      </trkpt>
      <trkpt lat="45.26721" lon="3.82495">
        <ele>888.4</ele>
      </trkpt>
      <trkpt lat="45.26742" lon="3.82497">
        <ele>890.2</ele>
      </trkpt>
      <trkpt lat="45.26763" lon="3.82499">
        <ele>891.1</ele>
      </trkpt>
      <trkpt lat="45.26773" lon="3.825">
        <ele>891.3</ele>
      </trkpt>
      <trkpt lat="45.26784" lon="3.82503">
        <ele>891.3</ele>
      </trkpt>
      <trkpt lat="45.26784" lon="3.82503">
        <ele>891.3</ele>
      </trkpt>
      <trkpt lat="45.26802" lon="3.82508">
        <ele>891.5</ele>
      </trkpt>
      <trkpt lat="45.26823" lon="3.82513">
        <ele>891.7</ele>
      </trkpt>
      <trkpt lat="45.2684" lon="3.82516">
        <ele>892.2</ele>
      </trkpt>
      <trkpt lat="45.26851" lon="3.82516">
        <ele>892.9</ele>
      </trkpt>
      <trkpt lat="45.26863" lon="3.82517">
        <ele>893.6</ele>
      </trkpt>
      <trkpt lat="45.26878" lon="3.82517">
        <ele>894.5</ele>
      </trkpt>
      <trkpt lat="45.26892" lon="3.82517">
        <ele>895.3</ele>
      </trkpt>
      <trkpt lat="45.26911" lon="3.82515">
        <ele>896.5</ele>
      </trkpt>
      <trkpt lat="45.26924" lon="3.82513">
        <ele>897.3</ele>
      </trkpt>
      <trkpt lat="45.26937" lon="3.82509">
        <ele>898.1</ele>
      </trkpt>
      <trkpt lat="45.2695" lon="3.82505">
        <ele>899</ele>
      </trkpt>
      <trkpt lat="45.26962" lon="3.82503">
        <ele>899.7</ele>
      </trkpt>
      <trkpt lat="45.26974" lon="3.825">
        <ele>900.4</ele>
      </trkpt>
      <trkpt lat="45.26991" lon="3.82497">
        <ele>901.4</ele>
      </trkpt>
      <trkpt lat="45.27009" lon="3.82495">
        <ele>902.6</ele>
      </trkpt>
      <trkpt lat="45.27029" lon="3.82492">
        <ele>903.9</ele>
      </trkpt>
      <trkpt lat="45.27048" lon="3.8249">
        <ele>905.2</ele>
      </trkpt>
      <trkpt lat="45.27063" lon="3.82489">
        <ele>906.2</ele>
      </trkpt>
      <trkpt lat="45.27078" lon="3.82487">
        <ele>907.2</ele>
      </trkpt>
      <trkpt lat="45.2709" lon="3.82487">
        <ele>907.8</ele>
      </trkpt>
      <trkpt lat="45.27101" lon="3.82487">
        <ele>908.2</ele>
      </trkpt>
      <trkpt lat="45.2712" lon="3.82487">
        <ele>909</ele>
      </trkpt>
      <trkpt lat="45.27139" lon="3.82488">
        <ele>909.7</ele>
      </trkpt>
      <trkpt lat="45.27154" lon="3.82488">
        <ele>910.3</ele>
      </trkpt>
      <trkpt lat="45.27169" lon="3.82488">
        <ele>910.9</ele>
      </trkpt>
      <trkpt lat="45.27184" lon="3.82489">
        <ele>911.3</ele>
      </trkpt>
      <trkpt lat="45.27204" lon="3.82489">
        <ele>911.8</ele>
      </trkpt>
      <trkpt lat="45.27224" lon="3.82489">
        <ele>912.3</ele>
      </trkpt>
      <trkpt lat="45.27244" lon="3.8249">
        <ele>912.8</ele>
      </trkpt>
      <trkpt lat="45.27262" lon="3.8249">
        <ele>913</ele>
      </trkpt>
      <trkpt lat="45.27262" lon="3.8249">
        <ele>913</ele>
      </trkpt>
      <trkpt lat="45.27279" lon="3.8249">
        <ele>913</ele>
      </trkpt>
      <trkpt lat="45.27297" lon="3.8249">
        <ele>913.1</ele>
      </trkpt>
      <trkpt lat="45.27314" lon="3.82491">
        <ele>913.1</ele>
      </trkpt>
      <trkpt lat="45.2733" lon="3.82491">
        <ele>913.1</ele>
      </trkpt>
      <trkpt lat="45.27347" lon="3.82491">
        <ele>913.6</ele>
      </trkpt>
      <trkpt lat="45.27362" lon="3.82492">
        <ele>914.1</ele>
      </trkpt>
      <trkpt lat="45.27378" lon="3.82492">
        <ele>914.6</ele>
      </trkpt>
      <trkpt lat="45.27393" lon="3.82492">
        <ele>915.1</ele>
      </trkpt>
      <trkpt lat="45.27415" lon="3.82493">
        <ele>915.9</ele>
      </trkpt>
      <trkpt lat="45.27436" lon="3.82494">
        <ele>915.2</ele>
      </trkpt>
      <trkpt lat="45.27442" lon="3.82494">
        <ele>915</ele>
      </trkpt>
      <trkpt lat="45.2745" lon="3.82494">
        <ele>914.7</ele>
      </trkpt>
      <trkpt lat="45.2746" lon="3.82513">
        <ele>914.8</ele>
      </trkpt>
      <trkpt lat="45.2747" lon="3.82532">
        <ele>915.1</ele>
      </trkpt>
      <trkpt lat="45.27481" lon="3.82552">
        <ele>915.4</ele>
      </trkpt>
      <trkpt lat="45.27491" lon="3.82572">
        <ele>915.8</ele>
      </trkpt>
      <trkpt lat="45.275" lon="3.82587">
        <ele>916.4</ele>
      </trkpt>
      <trkpt lat="45.27508" lon="3.82602">
        <ele>918</ele>
      </trkpt>
      <trkpt lat="45.27522" lon="3.82627">
        <ele>920.6</ele>
      </trkpt>
      <trkpt lat="45.27534" lon="3.82651">
        <ele>923</ele>
      </trkpt>
      <trkpt lat="45.27543" lon="3.8267">
        <ele>924.6</ele>
      </trkpt>
      <trkpt lat="45.27552" lon="3.82688">
        <ele>925.2</ele>
      </trkpt>
      <trkpt lat="45.2756" lon="3.82703">
        <ele>925.8</ele>
      </trkpt>
      <trkpt lat="45.27568" lon="3.82718">
        <ele>926.4</ele>
      </trkpt>
      <trkpt lat="45.27577" lon="3.82734">
        <ele>927.2</ele>
      </trkpt>
      <trkpt lat="45.27584" lon="3.82747">
        <ele>927.9</ele>
      </trkpt>
      <trkpt lat="45.27591" lon="3.82761">
        <ele>927.8</ele>
      </trkpt>
      <trkpt lat="45.27601" lon="3.82782">
        <ele>927.9</ele>
      </trkpt>
      <trkpt lat="45.27612" lon="3.82803">
        <ele>928.5</ele>
      </trkpt>
      <trkpt lat="45.27623" lon="3.82824">
        <ele>929.5</ele>
      </trkpt>
      <trkpt lat="45.27623" lon="3.82824">
        <ele>929.5</ele>
      </trkpt>
      <trkpt lat="45.27631" lon="3.82843">
        <ele>930.5</ele>
      </trkpt>
      <trkpt lat="45.2764" lon="3.82862">
        <ele>931.4</ele>
      </trkpt>
      <trkpt lat="45.27649" lon="3.82882">
        <ele>932.5</ele>
      </trkpt>
      <trkpt lat="45.27659" lon="3.829">
        <ele>933.8</ele>
      </trkpt>
      <trkpt lat="45.27668" lon="3.82918">
        <ele>935</ele>
      </trkpt>
      <trkpt lat="45.27678" lon="3.82936">
        <ele>935</ele>
      </trkpt>
      <trkpt lat="45.27687" lon="3.82953">
        <ele>935</ele>
      </trkpt>
      <trkpt lat="45.27696" lon="3.82971">
        <ele>935.2</ele>
      </trkpt>
      <trkpt lat="45.27709" lon="3.82996">
        <ele>935.5</ele>
      </trkpt>
      <trkpt lat="45.27721" lon="3.8302">
        <ele>936.8</ele>
      </trkpt>
      <trkpt lat="45.27729" lon="3.83035">
        <ele>937.6</ele>
      </trkpt>
      <trkpt lat="45.27736" lon="3.8305">
        <ele>938.4</ele>
      </trkpt>
      <trkpt lat="45.27743" lon="3.83063">
        <ele>939.1</ele>
      </trkpt>
      <trkpt lat="45.27749" lon="3.83076">
        <ele>939.7</ele>
      </trkpt>
      <trkpt lat="45.27761" lon="3.83098">
        <ele>940.2</ele>
      </trkpt>
      <trkpt lat="45.27772" lon="3.83119">
        <ele>940.7</ele>
      </trkpt>
      <trkpt lat="45.2778" lon="3.83133">
        <ele>941.1</ele>
      </trkpt>
      <trkpt lat="45.27788" lon="3.83148">
        <ele>941.4</ele>
      </trkpt>
      <trkpt lat="45.27798" lon="3.83166">
        <ele>942</ele>
      </trkpt>
      <trkpt lat="45.27803" lon="3.83177">
        <ele>941.7</ele>
      </trkpt>
      <trkpt lat="45.2781" lon="3.83197">
        <ele>941.3</ele>
      </trkpt>
      <trkpt lat="45.27816" lon="3.83219">
        <ele>941</ele>
      </trkpt>
      <trkpt lat="45.27822" lon="3.83245">
        <ele>940.7</ele>
      </trkpt>
      <trkpt lat="45.27829" lon="3.8327">
        <ele>941.3</ele>
      </trkpt>
      <trkpt lat="45.27834" lon="3.83293">
        <ele>942</ele>
      </trkpt>
      <trkpt lat="45.27838" lon="3.83316">
        <ele>943</ele>
      </trkpt>
      <trkpt lat="45.27844" lon="3.83342">
        <ele>943.8</ele>
      </trkpt>
      <trkpt lat="45.27849" lon="3.83369">
        <ele>944.5</ele>
      </trkpt>
      <trkpt lat="45.27853" lon="3.83371">
        <ele>944.9</ele>
      </trkpt>
      <trkpt lat="45.27853" lon="3.83371">
        <ele>944.9</ele>
      </trkpt>
      <trkpt lat="45.27852" lon="3.83392">
        <ele>945</ele>
      </trkpt>
      <trkpt lat="45.27855" lon="3.83413">
        <ele>945.5</ele>
      </trkpt>
      <trkpt lat="45.27858" lon="3.83435">
        <ele>946.9</ele>
      </trkpt>
      <trkpt lat="45.27862" lon="3.83456">
        <ele>948.4</ele>
      </trkpt>
      <trkpt lat="45.27868" lon="3.83478">
        <ele>950</ele>
      </trkpt>
      <trkpt lat="45.27874" lon="3.83498">
        <ele>951.4</ele>
      </trkpt>
      <trkpt lat="45.27878" lon="3.83515">
        <ele>951.9</ele>
      </trkpt>
      <trkpt lat="45.27882" lon="3.83531">
        <ele>952.3</ele>
      </trkpt>
      <trkpt lat="45.27887" lon="3.8356">
        <ele>952.9</ele>
      </trkpt>
      <trkpt lat="45.2789" lon="3.83578">
        <ele>953.3</ele>
      </trkpt>
      <trkpt lat="45.27893" lon="3.83596">
        <ele>953.1</ele>
      </trkpt>
      <trkpt lat="45.27896" lon="3.83613">
        <ele>952.7</ele>
      </trkpt>
      <trkpt lat="45.27899" lon="3.83629">
        <ele>952.2</ele>
      </trkpt>
      <trkpt lat="45.27904" lon="3.83652">
        <ele>951.3</ele>
      </trkpt>
      <trkpt lat="45.27906" lon="3.83672">
        <ele>950.7</ele>
      </trkpt>
      <trkpt lat="45.27908" lon="3.83692">
        <ele>950.8</ele>
      </trkpt>
      <trkpt lat="45.27911" lon="3.83717">
        <ele>950.9</ele>
      </trkpt>
      <trkpt lat="45.27914" lon="3.83741">
        <ele>951</ele>
      </trkpt>
      <trkpt lat="45.27918" lon="3.83764">
        <ele>951.1</ele>
      </trkpt>
      <trkpt lat="45.27921" lon="3.83788">
        <ele>951</ele>
      </trkpt>
      <trkpt lat="45.27924" lon="3.83811">
        <ele>951</ele>
      </trkpt>
      <trkpt lat="45.27927" lon="3.83831">
        <ele>951</ele>
      </trkpt>
      <trkpt lat="45.2793" lon="3.8385">
        <ele>951.2</ele>
      </trkpt>
      <trkpt lat="45.27933" lon="3.8387">
        <ele>951.4</ele>
      </trkpt>
      <trkpt lat="45.27936" lon="3.8389">
        <ele>951.6</ele>
      </trkpt>
      <trkpt lat="45.2794" lon="3.8392">
        <ele>951.6</ele>
      </trkpt>
      <trkpt lat="45.27943" lon="3.8395">
        <ele>950.9</ele>
      </trkpt>
      <trkpt lat="45.27945" lon="3.8397">
        <ele>950.3</ele>
      </trkpt>
      <trkpt lat="45.27947" lon="3.8399">
        <ele>949.7</ele>
      </trkpt>
      <trkpt lat="45.2795" lon="3.84017">
        <ele>948.1</ele>
      </trkpt>
      <trkpt lat="45.27954" lon="3.84043">
        <ele>946</ele>
      </trkpt>
      <trkpt lat="45.27954" lon="3.84043">
        <ele>946</ele>
      </trkpt>
      <trkpt lat="45.27956" lon="3.84052">
        <ele>945.2</ele>
      </trkpt>
      <trkpt lat="45.27959" lon="3.84061">
        <ele>944.3</ele>
      </trkpt>
      <trkpt lat="45.27963" lon="3.84073">
        <ele>943.1</ele>
      </trkpt>
      <trkpt lat="45.27969" lon="3.84088">
        <ele>941.9</ele>
      </trkpt>
      <trkpt lat="45.27977" lon="3.84106">
        <ele>941.3</ele>
      </trkpt>
      <trkpt lat="45.27983" lon="3.84126">
        <ele>940.9</ele>
      </trkpt>
      <trkpt lat="45.27989" lon="3.84145">
        <ele>940.9</ele>
      </trkpt>
      <trkpt lat="45.27995" lon="3.84165">
        <ele>941</ele>
      </trkpt>
      <trkpt lat="45.28001" lon="3.84184">
        <ele>941.5</ele>
      </trkpt>
      <trkpt lat="45.28008" lon="3.84204">
        <ele>942.2</ele>
      </trkpt>
      <trkpt lat="45.28015" lon="3.8423">
        <ele>943.1</ele>
      </trkpt>
      <trkpt lat="45.28023" lon="3.84251">
        <ele>943.9</ele>
      </trkpt>
      <trkpt lat="45.2803" lon="3.84268">
        <ele>945.3</ele>
      </trkpt>
      <trkpt lat="45.28038" lon="3.84292">
        <ele>947.4</ele>
      </trkpt>
      <trkpt lat="45.28045" lon="3.84313">
        <ele>949.1</ele>
      </trkpt>
      <trkpt lat="45.28051" lon="3.84333">
        <ele>950.8</ele>
      </trkpt>
      <trkpt lat="45.28057" lon="3.84354">
        <ele>951.9</ele>
      </trkpt>
      <trkpt lat="45.28066" lon="3.84379">
        <ele>953</ele>
      </trkpt>
      <trkpt lat="45.28074" lon="3.84405">
        <ele>953.9</ele>
      </trkpt>
      <trkpt lat="45.28082" lon="3.8443">
        <ele>954.5</ele>
      </trkpt>
      <trkpt lat="45.28089" lon="3.84448">
        <ele>954.8</ele>
      </trkpt>
      <trkpt lat="45.28096" lon="3.84466">
        <ele>955</ele>
      </trkpt>
      <trkpt lat="45.28102" lon="3.84487">
        <ele>955.3</ele>
      </trkpt>
      <trkpt lat="45.28108" lon="3.84508">
        <ele>955.2</ele>
      </trkpt>
      <trkpt lat="45.28117" lon="3.84532">
        <ele>954.4</ele>
      </trkpt>
      <trkpt lat="45.28126" lon="3.84556">
        <ele>953.6</ele>
      </trkpt>
      <trkpt lat="45.28135" lon="3.84582">
        <ele>952.7</ele>
      </trkpt>
      <trkpt lat="45.28145" lon="3.84608">
        <ele>952.3</ele>
      </trkpt>
      <trkpt lat="45.28154" lon="3.84634">
        <ele>952.1</ele>
      </trkpt>
      <trkpt lat="45.28162" lon="3.84653">
        <ele>952</ele>
      </trkpt>
      <trkpt lat="45.28162" lon="3.84653">
        <ele>952</ele>
      </trkpt>
      <trkpt lat="45.28169" lon="3.84671">
        <ele>952</ele>
      </trkpt>
      <trkpt lat="45.28177" lon="3.8469">
        <ele>952.1</ele>
      </trkpt>
      <trkpt lat="45.28186" lon="3.84711">
        <ele>952.5</ele>
      </trkpt>
      <trkpt lat="45.28195" lon="3.84733">
        <ele>953.1</ele>
      </trkpt>
      <trkpt lat="45.28204" lon="3.84755">
        <ele>953.8</ele>
      </trkpt>
      <trkpt lat="45.28213" lon="3.84777">
        <ele>954.5</ele>
      </trkpt>
      <trkpt lat="45.28222" lon="3.84799">
        <ele>955</ele>
      </trkpt>
      <trkpt lat="45.28231" lon="3.84822">
        <ele>955.5</ele>
      </trkpt>
      <trkpt lat="45.28239" lon="3.84845">
        <ele>956.2</ele>
      </trkpt>
      <trkpt lat="45.28248" lon="3.84868">
        <ele>957.2</ele>
      </trkpt>
      <trkpt lat="45.28257" lon="3.8489">
        <ele>958.1</ele>
      </trkpt>
      <trkpt lat="45.28267" lon="3.84919">
        <ele>959.2</ele>
      </trkpt>
      <trkpt lat="45.28274" lon="3.84934">
        <ele>959.1</ele>
      </trkpt>
      <trkpt lat="45.28284" lon="3.84949">
        <ele>959</ele>
      </trkpt>
      <trkpt lat="45.28296" lon="3.84966">
        <ele>959</ele>
      </trkpt>
      <trkpt lat="45.28306" lon="3.8498">
        <ele>958.9</ele>
      </trkpt>
      <trkpt lat="45.28315" lon="3.84993">
        <ele>958.9</ele>
      </trkpt>
      <trkpt lat="45.28325" lon="3.85007">
        <ele>958.8</ele>
      </trkpt>
      <trkpt lat="45.28335" lon="3.85021">
        <ele>958.4</ele>
      </trkpt>
      <trkpt lat="45.28346" lon="3.85036">
        <ele>957.7</ele>
      </trkpt>
      <trkpt lat="45.28357" lon="3.8505">
        <ele>957.2</ele>
      </trkpt>
      <trkpt lat="45.28366" lon="3.85064">
        <ele>956.8</ele>
      </trkpt>
      <trkpt lat="45.28374" lon="3.85077">
        <ele>956.5</ele>
      </trkpt>
      <trkpt lat="45.28386" lon="3.85093">
        <ele>956.4</ele>
      </trkpt>
      <trkpt lat="45.28398" lon="3.8511">
        <ele>956.4</ele>
      </trkpt>
      <trkpt lat="45.28408" lon="3.85123">
        <ele>956.5</ele>
      </trkpt>
      <trkpt lat="45.28419" lon="3.85136">
        <ele>956.6</ele>
      </trkpt>
      <trkpt lat="45.28435" lon="3.85156">
        <ele>956.3</ele>
      </trkpt>
      <trkpt lat="45.28452" lon="3.85175">
        <ele>955.3</ele>
      </trkpt>
      <trkpt lat="45.28452" lon="3.85175">
        <ele>955.3</ele>
      </trkpt>
      <trkpt lat="45.28466" lon="3.85193">
        <ele>954</ele>
      </trkpt>
      <trkpt lat="45.2848" lon="3.8521">
        <ele>952.7</ele>
      </trkpt>
      <trkpt lat="45.28494" lon="3.85227">
        <ele>951.3</ele>
      </trkpt>
      <trkpt lat="45.28508" lon="3.85245">
        <ele>949.5</ele>
      </trkpt>
      <trkpt lat="45.28523" lon="3.85263">
        <ele>947.3</ele>
      </trkpt>
      <trkpt lat="45.28533" lon="3.85278">
        <ele>946.1</ele>
      </trkpt>
      <trkpt lat="45.28544" lon="3.85292">
        <ele>945.1</ele>
      </trkpt>
      <trkpt lat="45.28553" lon="3.85304">
        <ele>944.6</ele>
      </trkpt>
      <trkpt lat="45.28562" lon="3.85317">
        <ele>944.2</ele>
      </trkpt>
      <trkpt lat="45.28566" lon="3.85321">
        <ele>944.1</ele>
      </trkpt>
      <trkpt lat="45.28578" lon="3.85337">
        <ele>944.3</ele>
      </trkpt>
      <trkpt lat="45.2859" lon="3.85352">
        <ele>945.5</ele>
      </trkpt>
      <trkpt lat="45.28606" lon="3.85374">
        <ele>946.7</ele>
      </trkpt>
      <trkpt lat="45.28622" lon="3.85396">
        <ele>947.5</ele>
      </trkpt>
      <trkpt lat="45.28638" lon="3.85418">
        <ele>947.8</ele>
      </trkpt>
      <trkpt lat="45.28648" lon="3.85431">
        <ele>948.6</ele>
      </trkpt>
      <trkpt lat="45.28658" lon="3.85445">
        <ele>949.4</ele>
      </trkpt>
      <trkpt lat="45.2867" lon="3.85459">
        <ele>950.4</ele>
      </trkpt>
      <trkpt lat="45.28684" lon="3.85481">
        <ele>951.7</ele>
      </trkpt>
      <trkpt lat="45.287" lon="3.85502">
        <ele>952.4</ele>
      </trkpt>
      <trkpt lat="45.28715" lon="3.85519">
        <ele>952.6</ele>
      </trkpt>
      <trkpt lat="45.28727" lon="3.85532">
        <ele>952.8</ele>
      </trkpt>
      <trkpt lat="45.2874" lon="3.85545">
        <ele>953.1</ele>
      </trkpt>
      <trkpt lat="45.28749" lon="3.85557">
        <ele>953.5</ele>
      </trkpt>
      <trkpt lat="45.28759" lon="3.85569">
        <ele>954.2</ele>
      </trkpt>
      <trkpt lat="45.28778" lon="3.85587">
        <ele>955</ele>
      </trkpt>
      <trkpt lat="45.28787" lon="3.85596">
        <ele>955.2</ele>
      </trkpt>
      <trkpt lat="45.28797" lon="3.85604">
        <ele>955.6</ele>
      </trkpt>
      <trkpt lat="45.28807" lon="3.85613">
        <ele>956</ele>
      </trkpt>
      <trkpt lat="45.28807" lon="3.85613">
        <ele>956</ele>
      </trkpt>
      <trkpt lat="45.28818" lon="3.85622">
        <ele>956.5</ele>
      </trkpt>
      <trkpt lat="45.28832" lon="3.85633">
        <ele>957.4</ele>
      </trkpt>
      <trkpt lat="45.28845" lon="3.85643">
        <ele>957.7</ele>
      </trkpt>
      <trkpt lat="45.28861" lon="3.85656">
        <ele>957.7</ele>
      </trkpt>
      <trkpt lat="45.28878" lon="3.85668">
        <ele>957.3</ele>
      </trkpt>
      <trkpt lat="45.28893" lon="3.8568">
        <ele>956.4</ele>
      </trkpt>
      <trkpt lat="45.28909" lon="3.85692">
        <ele>955.5</ele>
      </trkpt>
      <trkpt lat="45.28921" lon="3.85702">
        <ele>955.1</ele>
      </trkpt>
      <trkpt lat="45.28933" lon="3.85712">
        <ele>954.8</ele>
      </trkpt>
      <trkpt lat="45.28939" lon="3.85716">
        <ele>954.7</ele>
      </trkpt>
      <trkpt lat="45.28948" lon="3.85718">
        <ele>954.3</ele>
      </trkpt>
      <trkpt lat="45.28954" lon="3.85718">
        <ele>953.9</ele>
      </trkpt>
      <trkpt lat="45.28963" lon="3.85732">
        <ele>953.8</ele>
      </trkpt>
      <trkpt lat="45.28975" lon="3.85742">
        <ele>953.4</ele>
      </trkpt>
      <trkpt lat="45.28994" lon="3.85755">
        <ele>952.4</ele>
      </trkpt>
      <trkpt lat="45.29011" lon="3.85768">
        <ele>951.9</ele>
      </trkpt>
      <trkpt lat="45.2902" lon="3.85777">
        <ele>951.7</ele>
      </trkpt>
      <trkpt lat="45.2903" lon="3.85786">
        <ele>951.4</ele>
      </trkpt>
      <trkpt lat="45.29039" lon="3.85794">
        <ele>951.1</ele>
      </trkpt>
      <trkpt lat="45.2905" lon="3.85798">
        <ele>950.7</ele>
      </trkpt>
      <trkpt lat="45.29059" lon="3.85807">
        <ele>950.3</ele>
      </trkpt>
      <trkpt lat="45.29069" lon="3.85816">
        <ele>949.8</ele>
      </trkpt>
      <trkpt lat="45.2908" lon="3.85825">
        <ele>949.3</ele>
      </trkpt>
      <trkpt lat="45.29098" lon="3.85839">
        <ele>949</ele>
      </trkpt>
      <trkpt lat="45.29115" lon="3.85853">
        <ele>948.9</ele>
      </trkpt>
      <trkpt lat="45.29125" lon="3.85862">
        <ele>948.8</ele>
      </trkpt>
      <trkpt lat="45.29135" lon="3.85871">
        <ele>948.7</ele>
      </trkpt>
      <trkpt lat="45.29153" lon="3.85888">
        <ele>948.5</ele>
      </trkpt>
      <trkpt lat="45.2917" lon="3.85903">
        <ele>948.2</ele>
      </trkpt>
      <trkpt lat="45.29181" lon="3.85913">
        <ele>947.8</ele>
      </trkpt>
      <trkpt lat="45.29191" lon="3.85923">
        <ele>947.3</ele>
      </trkpt>
      <trkpt lat="45.29208" lon="3.85942">
        <ele>946.4</ele>
      </trkpt>
      <trkpt lat="45.29223" lon="3.85961">
        <ele>945.4</ele>
      </trkpt>
      <trkpt lat="45.29223" lon="3.85961">
        <ele>945.4</ele>
      </trkpt>
      <trkpt lat="45.29233" lon="3.85974">
        <ele>944.6</ele>
      </trkpt>
      <trkpt lat="45.29243" lon="3.85988">
        <ele>943.8</ele>
      </trkpt>
      <trkpt lat="45.29253" lon="3.86001">
        <ele>943</ele>
      </trkpt>
      <trkpt lat="45.2927" lon="3.86021">
        <ele>942.4</ele>
      </trkpt>
      <trkpt lat="45.29281" lon="3.86033">
        <ele>941.9</ele>
      </trkpt>
      <trkpt lat="45.29291" lon="3.86045">
        <ele>941.4</ele>
      </trkpt>
      <trkpt lat="45.29306" lon="3.86062">
        <ele>940.5</ele>
      </trkpt>
      <trkpt lat="45.2932" lon="3.86079">
        <ele>939.5</ele>
      </trkpt>
      <trkpt lat="45.29332" lon="3.86094">
        <ele>939.1</ele>
      </trkpt>
      <trkpt lat="45.29344" lon="3.86108">
        <ele>939.1</ele>
      </trkpt>
      <trkpt lat="45.29359" lon="3.86126">
        <ele>938.9</ele>
      </trkpt>
      <trkpt lat="45.29373" lon="3.86143">
        <ele>938.6</ele>
      </trkpt>
      <trkpt lat="45.29386" lon="3.86157">
        <ele>938.1</ele>
      </trkpt>
      <trkpt lat="45.29398" lon="3.8617">
        <ele>937.7</ele>
      </trkpt>
      <trkpt lat="45.29413" lon="3.86184">
        <ele>937</ele>
      </trkpt>
      <trkpt lat="45.29429" lon="3.86199">
        <ele>935.7</ele>
      </trkpt>
      <trkpt lat="45.29448" lon="3.86214">
        <ele>934</ele>
      </trkpt>
      <trkpt lat="45.29462" lon="3.86225">
        <ele>932.9</ele>
      </trkpt>
      <trkpt lat="45.29477" lon="3.86235">
        <ele>931.7</ele>
      </trkpt>
      <trkpt lat="45.29495" lon="3.86248">
        <ele>930.4</ele>
      </trkpt>
      <trkpt lat="45.29514" lon="3.8626">
        <ele>929.2</ele>
      </trkpt>
      <trkpt lat="45.29527" lon="3.86271">
        <ele>928.3</ele>
      </trkpt>
      <trkpt lat="45.29536" lon="3.86278">
        <ele>927.7</ele>
      </trkpt>
      <trkpt lat="45.29543" lon="3.86284">
        <ele>927.2</ele>
      </trkpt>
      <trkpt lat="45.29556" lon="3.86295">
        <ele>926.3</ele>
      </trkpt>
      <trkpt lat="45.29569" lon="3.86306">
        <ele>925.3</ele>
      </trkpt>
      <trkpt lat="45.29581" lon="3.86316">
        <ele>924.3</ele>
      </trkpt>
      <trkpt lat="45.29596" lon="3.86328">
        <ele>923.4</ele>
      </trkpt>
      <trkpt lat="45.29608" lon="3.86338">
        <ele>922.4</ele>
      </trkpt>
      <trkpt lat="45.29608" lon="3.86338">
        <ele>922.4</ele>
      </trkpt>
      <trkpt lat="45.2962" lon="3.86348">
        <ele>921.3</ele>
      </trkpt>
      <trkpt lat="45.29629" lon="3.86355">
        <ele>920.6</ele>
      </trkpt>
      <trkpt lat="45.29643" lon="3.86367">
        <ele>919.7</ele>
      </trkpt>
      <trkpt lat="45.29656" lon="3.86378">
        <ele>918.9</ele>
      </trkpt>
      <trkpt lat="45.29661" lon="3.86384">
        <ele>918.6</ele>
      </trkpt>
      <trkpt lat="45.29678" lon="3.86404">
        <ele>918</ele>
      </trkpt>
      <trkpt lat="45.29687" lon="3.86416">
        <ele>917.8</ele>
      </trkpt>
      <trkpt lat="45.29696" lon="3.86429">
        <ele>917.6</ele>
      </trkpt>
      <trkpt lat="45.29709" lon="3.86449">
        <ele>917.7</ele>
      </trkpt>
      <trkpt lat="45.29719" lon="3.86468">
        <ele>918.1</ele>
      </trkpt>
      <trkpt lat="45.29728" lon="3.86485">
        <ele>918.6</ele>
      </trkpt>
      <trkpt lat="45.29736" lon="3.86506">
        <ele>919.3</ele>
      </trkpt>
      <trkpt lat="45.29745" lon="3.86532">
        <ele>919.7</ele>
      </trkpt>
      <trkpt lat="45.29752" lon="3.86553">
        <ele>920.1</ele>
      </trkpt>
      <trkpt lat="45.29759" lon="3.86574">
        <ele>920.5</ele>
      </trkpt>
      <trkpt lat="45.29766" lon="3.86595">
        <ele>920.8</ele>
      </trkpt>
      <trkpt lat="45.29774" lon="3.86619">
        <ele>921.2</ele>
      </trkpt>
      <trkpt lat="45.29781" lon="3.86642">
        <ele>921.8</ele>
      </trkpt>
      <trkpt lat="45.2979" lon="3.86665">
        <ele>922.7</ele>
      </trkpt>
      <trkpt lat="45.29798" lon="3.86687">
        <ele>923.6</ele>
      </trkpt>
      <trkpt lat="45.2981" lon="3.86713">
        <ele>925</ele>
      </trkpt>
      <trkpt lat="45.29816" lon="3.86725">
        <ele>925.8</ele>
      </trkpt>
      <trkpt lat="45.29827" lon="3.86747">
        <ele>927.2</ele>
      </trkpt>
      <trkpt lat="45.29837" lon="3.86762">
        <ele>927.2</ele>
      </trkpt>
      <trkpt lat="45.29846" lon="3.86777">
        <ele>927.2</ele>
      </trkpt>
      <trkpt lat="45.29857" lon="3.86793">
        <ele>927.4</ele>
      </trkpt>
      <trkpt lat="45.29867" lon="3.8681">
        <ele>927.8</ele>
      </trkpt>
      <trkpt lat="45.29877" lon="3.86826">
        <ele>928.5</ele>
      </trkpt>
      <trkpt lat="45.29891" lon="3.86846">
        <ele>929.8</ele>
      </trkpt>
      <trkpt lat="45.29904" lon="3.86865">
        <ele>930.7</ele>
      </trkpt>
      <trkpt lat="45.29904" lon="3.86865">
        <ele>930.7</ele>
      </trkpt>
      <trkpt lat="45.29912" lon="3.86877">
        <ele>931.1</ele>
      </trkpt>
      <trkpt lat="45.29922" lon="3.86889">
        <ele>930.9</ele>
      </trkpt>
      <trkpt lat="45.29931" lon="3.86901">
        <ele>930.2</ele>
      </trkpt>
      <trkpt lat="45.29941" lon="3.86912">
        <ele>929.6</ele>
      </trkpt>
      <trkpt lat="45.29958" lon="3.86931">
        <ele>929.5</ele>
      </trkpt>
      <trkpt lat="45.29975" lon="3.86948">
        <ele>929.4</ele>
      </trkpt>
      <trkpt lat="45.29988" lon="3.86961">
        <ele>929.1</ele>
      </trkpt>
      <trkpt lat="45.30001" lon="3.86974">
        <ele>928.5</ele>
      </trkpt>
      <trkpt lat="45.3002" lon="3.86988">
        <ele>925.9</ele>
      </trkpt>
      <trkpt lat="45.30036" lon="3.86996">
        <ele>923.9</ele>
      </trkpt>
      <trkpt lat="45.30053" lon="3.87007">
        <ele>921.7</ele>
      </trkpt>
      <trkpt lat="45.30059" lon="3.87015">
        <ele>920.8</ele>
      </trkpt>
      <trkpt lat="45.30061" lon="3.87008">
        <ele>920.9</ele>
      </trkpt>
      <trkpt lat="45.30073" lon="3.87012">
        <ele>919.5</ele>
      </trkpt>
      <trkpt lat="45.30085" lon="3.87016">
        <ele>918.2</ele>
      </trkpt>
      <trkpt lat="45.30102" lon="3.87023">
        <ele>917.4</ele>
      </trkpt>
      <trkpt lat="45.3012" lon="3.87031">
        <ele>916.6</ele>
      </trkpt>
      <trkpt lat="45.30135" lon="3.87039">
        <ele>915.9</ele>
      </trkpt>
      <trkpt lat="45.30151" lon="3.87046">
        <ele>915.1</ele>
      </trkpt>
      <trkpt lat="45.3017" lon="3.87057">
        <ele>914.1</ele>
      </trkpt>
      <trkpt lat="45.30182" lon="3.8706">
        <ele>913.4</ele>
      </trkpt>
      <trkpt lat="45.302" lon="3.87063">
        <ele>912.5</ele>
      </trkpt>
      <trkpt lat="45.30212" lon="3.87066">
        <ele>912</ele>
      </trkpt>
      <trkpt lat="45.30223" lon="3.8707">
        <ele>911.5</ele>
      </trkpt>
      <trkpt lat="45.30237" lon="3.87075">
        <ele>911.1</ele>
      </trkpt>
      <trkpt lat="45.30251" lon="3.8708">
        <ele>910.7</ele>
      </trkpt>
      <trkpt lat="45.30265" lon="3.87085">
        <ele>908.9</ele>
      </trkpt>
      <trkpt lat="45.30279" lon="3.8709">
        <ele>907</ele>
      </trkpt>
      <trkpt lat="45.30291" lon="3.87096">
        <ele>905.4</ele>
      </trkpt>
      <trkpt lat="45.30303" lon="3.87101">
        <ele>903.7</ele>
      </trkpt>
      <trkpt lat="45.30314" lon="3.87106">
        <ele>902.2</ele>
      </trkpt>
      <trkpt lat="45.30325" lon="3.87112">
        <ele>900.6</ele>
      </trkpt>
      <trkpt lat="45.30325" lon="3.87112">
        <ele>900.6</ele>
      </trkpt>
      <trkpt lat="45.30337" lon="3.87117">
        <ele>899.3</ele>
      </trkpt>
      <trkpt lat="45.3035" lon="3.87122">
        <ele>899</ele>
      </trkpt>
      <trkpt lat="45.30365" lon="3.87128">
        <ele>898.6</ele>
      </trkpt>
      <trkpt lat="45.30365" lon="3.87128">
        <ele>898.6</ele>
      </trkpt>
      <trkpt lat="45.3038" lon="3.87134">
        <ele>898.2</ele>
      </trkpt>
      <trkpt lat="45.30388" lon="3.87135">
        <ele>897.9</ele>
      </trkpt>
      <trkpt lat="45.304" lon="3.87135">
        <ele>897.5</ele>
      </trkpt>
      <trkpt lat="45.30414" lon="3.87132">
        <ele>897.1</ele>
      </trkpt>
      <trkpt lat="45.30433" lon="3.87128">
        <ele>897.3</ele>
      </trkpt>
      <trkpt lat="45.30453" lon="3.87121">
        <ele>897.5</ele>
      </trkpt>
      <trkpt lat="45.30465" lon="3.87118">
        <ele>897.6</ele>
      </trkpt>
      <trkpt lat="45.30477" lon="3.87117">
        <ele>897.7</ele>
      </trkpt>
      <trkpt lat="45.30489" lon="3.87115">
        <ele>897.8</ele>
      </trkpt>
      <trkpt lat="45.30509" lon="3.87114">
        <ele>897.1</ele>
      </trkpt>
      <trkpt lat="45.30519" lon="3.87112">
        <ele>896.3</ele>
      </trkpt>
      <trkpt lat="45.30528" lon="3.87109">
        <ele>895.3</ele>
      </trkpt>
      <trkpt lat="45.30546" lon="3.87101">
        <ele>893.1</ele>
      </trkpt>
      <trkpt lat="45.30562" lon="3.87091">
        <ele>890.8</ele>
      </trkpt>
      <trkpt lat="45.30569" lon="3.87087">
        <ele>889.7</ele>
      </trkpt>
      <trkpt lat="45.30579" lon="3.87086">
        <ele>888.8</ele>
      </trkpt>
      <trkpt lat="45.30594" lon="3.87087">
        <ele>888.3</ele>
      </trkpt>
      <trkpt lat="45.306" lon="3.87087">
        <ele>888.1</ele>
      </trkpt>
      <trkpt lat="45.30621" lon="3.87083">
        <ele>887.5</ele>
      </trkpt>
      <trkpt lat="45.30638" lon="3.87081">
        <ele>887.3</ele>
      </trkpt>
      <trkpt lat="45.30652" lon="3.87083">
        <ele>887.2</ele>
      </trkpt>
      <trkpt lat="45.30669" lon="3.87086">
        <ele>887</ele>
      </trkpt>
      <trkpt lat="45.30686" lon="3.8709">
        <ele>886.1</ele>
      </trkpt>
      <trkpt lat="45.30706" lon="3.87099">
        <ele>885.2</ele>
      </trkpt>
      <trkpt lat="45.30727" lon="3.87107">
        <ele>884.4</ele>
      </trkpt>
      <trkpt lat="45.30744" lon="3.87115">
        <ele>883.7</ele>
      </trkpt>
      <trkpt lat="45.30765" lon="3.87122">
        <ele>881.9</ele>
      </trkpt>
      <trkpt lat="45.30782" lon="3.87124">
        <ele>880.1</ele>
      </trkpt>
      <trkpt lat="45.30782" lon="3.87124">
        <ele>880.1</ele>
      </trkpt>
      <trkpt lat="45.30803" lon="3.87125">
        <ele>877.7</ele>
      </trkpt>
      <trkpt lat="45.30817" lon="3.87124">
        <ele>876</ele>
      </trkpt>
      <trkpt lat="45.3083" lon="3.87124">
        <ele>874.2</ele>
      </trkpt>
      <trkpt lat="45.30846" lon="3.87124">
        <ele>873.1</ele>
      </trkpt>
      <trkpt lat="45.30861" lon="3.87123">
        <ele>872.3</ele>
      </trkpt>
      <trkpt lat="45.3088" lon="3.87121">
        <ele>871</ele>
      </trkpt>
      <trkpt lat="45.30892" lon="3.87119">
        <ele>870.2</ele>
      </trkpt>
      <trkpt lat="45.30904" lon="3.87118">
        <ele>869.4</ele>
      </trkpt>
      <trkpt lat="45.30924" lon="3.87117">
        <ele>867.6</ele>
      </trkpt>
      <trkpt lat="45.30939" lon="3.87116">
        <ele>865.4</ele>
      </trkpt>
      <trkpt lat="45.30955" lon="3.87115">
        <ele>863.1</ele>
      </trkpt>
      <trkpt lat="45.30966" lon="3.87116">
        <ele>861.6</ele>
      </trkpt>
      <trkpt lat="45.30978" lon="3.87117">
        <ele>860.1</ele>
      </trkpt>
      <trkpt lat="45.30995" lon="3.87118">
        <ele>857.8</ele>
      </trkpt>
      <trkpt lat="45.31012" lon="3.87118">
        <ele>856.7</ele>
      </trkpt>
      <trkpt lat="45.31025" lon="3.87119">
        <ele>856.3</ele>
      </trkpt>
      <trkpt lat="45.31039" lon="3.8712">
        <ele>855.9</ele>
      </trkpt>
      <trkpt lat="45.31046" lon="3.87119">
        <ele>855.7</ele>
      </trkpt>
      <trkpt lat="45.31058" lon="3.87117">
        <ele>855.2</ele>
      </trkpt>
      <trkpt lat="45.31065" lon="3.87118">
        <ele>855</ele>
      </trkpt>
      <trkpt lat="45.31078" lon="3.87122">
        <ele>854.6</ele>
      </trkpt>
      <trkpt lat="45.31097" lon="3.8713">
        <ele>854.1</ele>
      </trkpt>
      <trkpt lat="45.3111" lon="3.87132">
        <ele>853.7</ele>
      </trkpt>
      <trkpt lat="45.31128" lon="3.87132">
        <ele>853.1</ele>
      </trkpt>
      <trkpt lat="45.31138" lon="3.87133">
        <ele>852.8</ele>
      </trkpt>
      <trkpt lat="45.31154" lon="3.87137">
        <ele>852.2</ele>
      </trkpt>
      <trkpt lat="45.31166" lon="3.87138">
        <ele>851.7</ele>
      </trkpt>
      <trkpt lat="45.31178" lon="3.87138">
        <ele>851.2</ele>
      </trkpt>
      <trkpt lat="45.31189" lon="3.87139">
        <ele>850.7</ele>
      </trkpt>
      <trkpt lat="45.31199" lon="3.87143">
        <ele>850.1</ele>
      </trkpt>
      <trkpt lat="45.31209" lon="3.87149">
        <ele>849.5</ele>
      </trkpt>
      <trkpt lat="45.31226" lon="3.87156">
        <ele>848.5</ele>
      </trkpt>
      <trkpt lat="45.31225" lon="3.87162">
        <ele>848.4</ele>
      </trkpt>
      <trkpt lat="45.3123" lon="3.8717">
        <ele>847.9</ele>
      </trkpt>
      <trkpt lat="45.3123" lon="3.8717">
        <ele>847.9</ele>
      </trkpt>
      <trkpt lat="45.31234" lon="3.87175">
        <ele>847.8</ele>
      </trkpt>
      <trkpt lat="45.31247" lon="3.87196">
        <ele>847.1</ele>
      </trkpt>
      <trkpt lat="45.31258" lon="3.87208">
        <ele>846</ele>
      </trkpt>
      <trkpt lat="45.31264" lon="3.87212">
        <ele>845.2</ele>
      </trkpt>
      <trkpt lat="45.31276" lon="3.87226">
        <ele>843.7</ele>
      </trkpt>
      <trkpt lat="45.3128" lon="3.87237">
        <ele>843.1</ele>
      </trkpt>
      <trkpt lat="45.31287" lon="3.87256">
        <ele>842.1</ele>
      </trkpt>
      <trkpt lat="45.31296" lon="3.87279">
        <ele>840.7</ele>
      </trkpt>
      <trkpt lat="45.31307" lon="3.87301">
        <ele>839.3</ele>
      </trkpt>
      <trkpt lat="45.31311" lon="3.8731">
        <ele>838.8</ele>
      </trkpt>
      <trkpt lat="45.31316" lon="3.87318">
        <ele>838.2</ele>
      </trkpt>
      <trkpt lat="45.31321" lon="3.87322">
        <ele>837.6</ele>
      </trkpt>
      <trkpt lat="45.31327" lon="3.87321">
        <ele>836.8</ele>
      </trkpt>
      <trkpt lat="45.3134" lon="3.87322">
        <ele>836.9</ele>
      </trkpt>
      <trkpt lat="45.31351" lon="3.87328">
        <ele>838.3</ele>
      </trkpt>
      <trkpt lat="45.31359" lon="3.87333">
        <ele>839.4</ele>
      </trkpt>
      <trkpt lat="45.31368" lon="3.87346">
        <ele>840.6</ele>
      </trkpt>
      <trkpt lat="45.31385" lon="3.87366">
        <ele>842.9</ele>
      </trkpt>
      <trkpt lat="45.31396" lon="3.87368">
        <ele>844.4</ele>
      </trkpt>
      <trkpt lat="45.31404" lon="3.87371">
        <ele>845.7</ele>
      </trkpt>
      <trkpt lat="45.31418" lon="3.87379">
        <ele>847.7</ele>
      </trkpt>
      <trkpt lat="45.31429" lon="3.87384">
        <ele>849</ele>
      </trkpt>
      <trkpt lat="45.31435" lon="3.87387">
        <ele>849.6</ele>
      </trkpt>
      <trkpt lat="45.31439" lon="3.87392">
        <ele>850</ele>
      </trkpt>
      <trkpt lat="45.31448" lon="3.87405">
        <ele>850.8</ele>
      </trkpt>
      <trkpt lat="45.31461" lon="3.87421">
        <ele>851.3</ele>
      </trkpt>
      <trkpt lat="45.3147" lon="3.87428">
        <ele>851.4</ele>
      </trkpt>
      <trkpt lat="45.31487" lon="3.87435">
        <ele>852.1</ele>
      </trkpt>
      <trkpt lat="45.31502" lon="3.8744">
        <ele>852.8</ele>
      </trkpt>
      <trkpt lat="45.31517" lon="3.87445">
        <ele>853.6</ele>
      </trkpt>
      <trkpt lat="45.3153" lon="3.87446">
        <ele>854.5</ele>
      </trkpt>
      <trkpt lat="45.31546" lon="3.87448">
        <ele>855.6</ele>
      </trkpt>
      <trkpt lat="45.31561" lon="3.8745">
        <ele>856.7</ele>
      </trkpt>
      <trkpt lat="45.31577" lon="3.87452">
        <ele>857.8</ele>
      </trkpt>
      <trkpt lat="45.31591" lon="3.87456">
        <ele>858.2</ele>
      </trkpt>
      <trkpt lat="45.31606" lon="3.87461">
        <ele>858</ele>
      </trkpt>
      <trkpt lat="45.31626" lon="3.87467">
        <ele>857.7</ele>
      </trkpt>
      <trkpt lat="45.31626" lon="3.87467">
        <ele>857.7</ele>
      </trkpt>
      <trkpt lat="45.31638" lon="3.87471">
        <ele>857.4</ele>
      </trkpt>
      <trkpt lat="45.31649" lon="3.87475">
        <ele>857.1</ele>
      </trkpt>
      <trkpt lat="45.31661" lon="3.87478">
        <ele>856.9</ele>
      </trkpt>
      <trkpt lat="45.31676" lon="3.8748">
        <ele>856.7</ele>
      </trkpt>
      <trkpt lat="45.31681" lon="3.87482">
        <ele>856.6</ele>
      </trkpt>
      <trkpt lat="45.31688" lon="3.87486">
        <ele>856.3</ele>
      </trkpt>
      <trkpt lat="45.31707" lon="3.87499">
        <ele>855.1</ele>
      </trkpt>
      <trkpt lat="45.3172" lon="3.8751">
        <ele>853.9</ele>
      </trkpt>
      <trkpt lat="45.31733" lon="3.8752">
        <ele>852.6</ele>
      </trkpt>
      <trkpt lat="45.31747" lon="3.87529">
        <ele>851.5</ele>
      </trkpt>
      <trkpt lat="45.3176" lon="3.87536">
        <ele>850.7</ele>
      </trkpt>
      <trkpt lat="45.31768" lon="3.87538">
        <ele>850.3</ele>
      </trkpt>
      <trkpt lat="45.31786" lon="3.87544">
        <ele>849.5</ele>
      </trkpt>
      <trkpt lat="45.31794" lon="3.87546">
        <ele>849.3</ele>
      </trkpt>
      <trkpt lat="45.31808" lon="3.87545">
        <ele>849.3</ele>
      </trkpt>
      <trkpt lat="45.31821" lon="3.87545">
        <ele>849.3</ele>
      </trkpt>
      <trkpt lat="45.31832" lon="3.87546">
        <ele>849.2</ele>
      </trkpt>
      <trkpt lat="45.31838" lon="3.87526">
        <ele>850.7</ele>
      </trkpt>
      <trkpt lat="45.31844" lon="3.87504">
        <ele>852.4</ele>
      </trkpt>
      <trkpt lat="45.31851" lon="3.87482">
        <ele>855.4</ele>
      </trkpt>
      <trkpt lat="45.3186" lon="3.87454">
        <ele>859.3</ele>
      </trkpt>
      <trkpt lat="45.3187" lon="3.87432">
        <ele>862.3</ele>
      </trkpt>
      <trkpt lat="45.3188" lon="3.8741">
        <ele>865</ele>
      </trkpt>
      <trkpt lat="45.3189" lon="3.87387">
        <ele>866.8</ele>
      </trkpt>
      <trkpt lat="45.31899" lon="3.87364">
        <ele>868.9</ele>
      </trkpt>
      <trkpt lat="45.31901" lon="3.87351">
        <ele>870.2</ele>
      </trkpt>
      <trkpt lat="45.31902" lon="3.87336">
        <ele>871.7</ele>
      </trkpt>
      <trkpt lat="45.31901" lon="3.87323">
        <ele>872.5</ele>
      </trkpt>
      <trkpt lat="45.31895" lon="3.87307">
        <ele>873.4</ele>
      </trkpt>
      <trkpt lat="45.31889" lon="3.87291">
        <ele>874.4</ele>
      </trkpt>
      <trkpt lat="45.31879" lon="3.87267">
        <ele>875.9</ele>
      </trkpt>
      <trkpt lat="45.31876" lon="3.87256">
        <ele>876.6</ele>
      </trkpt>
      <trkpt lat="45.31877" lon="3.87248">
        <ele>877</ele>
      </trkpt>
      <trkpt lat="45.3188" lon="3.87222">
        <ele>877.7</ele>
      </trkpt>
      <trkpt lat="45.31885" lon="3.87191">
        <ele>878.4</ele>
      </trkpt>
      <trkpt lat="45.31885" lon="3.87191">
        <ele>878.4</ele>
      </trkpt>
      <trkpt lat="45.31889" lon="3.87175">
        <ele>878.8</ele>
      </trkpt>
      <trkpt lat="45.31893" lon="3.87159">
        <ele>879.1</ele>
      </trkpt>
      <trkpt lat="45.31898" lon="3.87134">
        <ele>879.9</ele>
      </trkpt>
      <trkpt lat="45.31901" lon="3.87114">
        <ele>880.8</ele>
      </trkpt>
      <trkpt lat="45.31904" lon="3.87095">
        <ele>881.8</ele>
      </trkpt>
      <trkpt lat="45.31908" lon="3.87084">
        <ele>882.5</ele>
      </trkpt>
      <trkpt lat="45.31913" lon="3.87074">
        <ele>883.3</ele>
      </trkpt>
      <trkpt lat="45.31922" lon="3.87062">
        <ele>884.6</ele>
      </trkpt>
      <trkpt lat="45.31932" lon="3.87051">
        <ele>885.9</ele>
      </trkpt>
      <trkpt lat="45.31941" lon="3.87035">
        <ele>887.4</ele>
      </trkpt>
      <trkpt lat="45.31952" lon="3.87014">
        <ele>889.3</ele>
      </trkpt>
      <trkpt lat="45.31959" lon="3.86998">
        <ele>890.6</ele>
      </trkpt>
      <trkpt lat="45.31965" lon="3.86983">
        <ele>891.4</ele>
      </trkpt>
      <trkpt lat="45.31973" lon="3.86963">
        <ele>892.2</ele>
      </trkpt>
      <trkpt lat="45.31981" lon="3.86943">
        <ele>893</ele>
      </trkpt>
      <trkpt lat="45.31986" lon="3.86929">
        <ele>893.4</ele>
      </trkpt>
      <trkpt lat="45.31991" lon="3.86915">
        <ele>893.8</ele>
      </trkpt>
      <trkpt lat="45.31998" lon="3.86901">
        <ele>894.3</ele>
      </trkpt>
      <trkpt lat="45.32004" lon="3.86887">
        <ele>894.6</ele>
      </trkpt>
      <trkpt lat="45.32012" lon="3.86872">
        <ele>894.7</ele>
      </trkpt>
      <trkpt lat="45.32019" lon="3.86857">
        <ele>894.6</ele>
      </trkpt>
      <trkpt lat="45.32025" lon="3.86843">
        <ele>894.6</ele>
      </trkpt>
      <trkpt lat="45.32031" lon="3.86828">
        <ele>894.6</ele>
      </trkpt>
      <trkpt lat="45.32037" lon="3.86809">
        <ele>894.8</ele>
      </trkpt>
      <trkpt lat="45.32044" lon="3.8679">
        <ele>895</ele>
      </trkpt>
      <trkpt lat="45.32049" lon="3.86771">
        <ele>895.3</ele>
      </trkpt>
      <trkpt lat="45.32055" lon="3.86752">
        <ele>895.6</ele>
      </trkpt>
      <trkpt lat="45.32064" lon="3.86731">
        <ele>895.8</ele>
      </trkpt>
      <trkpt lat="45.32074" lon="3.86707">
        <ele>895.8</ele>
      </trkpt>
      <trkpt lat="45.32088" lon="3.86682">
        <ele>895.2</ele>
      </trkpt>
      <trkpt lat="45.32103" lon="3.86661">
        <ele>894</ele>
      </trkpt>
      <trkpt lat="45.32113" lon="3.86649">
        <ele>893.4</ele>
      </trkpt>
      <trkpt lat="45.32123" lon="3.86636">
        <ele>893.1</ele>
      </trkpt>
      <trkpt lat="45.32123" lon="3.86636">
        <ele>893.1</ele>
      </trkpt>
      <trkpt lat="45.32133" lon="3.86621">
        <ele>893</ele>
      </trkpt>
      <trkpt lat="45.32141" lon="3.86605">
        <ele>893.3</ele>
      </trkpt>
      <trkpt lat="45.3215" lon="3.86579">
        <ele>894.3</ele>
      </trkpt>
      <trkpt lat="45.32158" lon="3.86551">
        <ele>894.9</ele>
      </trkpt>
      <trkpt lat="45.32164" lon="3.86531">
        <ele>895.5</ele>
      </trkpt>
      <trkpt lat="45.32172" lon="3.86514">
        <ele>896</ele>
      </trkpt>
      <trkpt lat="45.32183" lon="3.86497">
        <ele>896.2</ele>
      </trkpt>
      <trkpt lat="45.32194" lon="3.8648">
        <ele>896.6</ele>
      </trkpt>
      <trkpt lat="45.3221" lon="3.86461">
        <ele>897.3</ele>
      </trkpt>
      <trkpt lat="45.32225" lon="3.86447">
        <ele>897.8</ele>
      </trkpt>
      <trkpt lat="45.32234" lon="3.86438">
        <ele>898.3</ele>
      </trkpt>
      <trkpt lat="45.32244" lon="3.86429">
        <ele>898.9</ele>
      </trkpt>
      <trkpt lat="45.32256" lon="3.86418">
        <ele>899.5</ele>
      </trkpt>
      <trkpt lat="45.32268" lon="3.86407">
        <ele>899.8</ele>
      </trkpt>
      <trkpt lat="45.32279" lon="3.86395">
        <ele>900.3</ele>
      </trkpt>
      <trkpt lat="45.32291" lon="3.86384">
        <ele>900.7</ele>
      </trkpt>
      <trkpt lat="45.32302" lon="3.8637">
        <ele>901.4</ele>
      </trkpt>
      <trkpt lat="45.32314" lon="3.86356">
        <ele>902</ele>
      </trkpt>
      <trkpt lat="45.32323" lon="3.86346">
        <ele>902.3</ele>
      </trkpt>
      <trkpt lat="45.32332" lon="3.86337">
        <ele>902.7</ele>
      </trkpt>
      <trkpt lat="45.32343" lon="3.86327">
        <ele>902.7</ele>
      </trkpt>
      <trkpt lat="45.32353" lon="3.86318">
        <ele>902.7</ele>
      </trkpt>
      <trkpt lat="45.32363" lon="3.8631">
        <ele>902.7</ele>
      </trkpt>
      <trkpt lat="45.32377" lon="3.86303">
        <ele>902.5</ele>
      </trkpt>
      <trkpt lat="45.32384" lon="3.86297">
        <ele>902.6</ele>
      </trkpt>
      <trkpt lat="45.32391" lon="3.86285">
        <ele>903.4</ele>
      </trkpt>
      <trkpt lat="45.32401" lon="3.86263">
        <ele>905.1</ele>
      </trkpt>
      <trkpt lat="45.3241" lon="3.8624">
        <ele>907.2</ele>
      </trkpt>
      <trkpt lat="45.32421" lon="3.86218">
        <ele>909.3</ele>
      </trkpt>
      <trkpt lat="45.32427" lon="3.86203">
        <ele>910.6</ele>
      </trkpt>
      <trkpt lat="45.32431" lon="3.8618">
        <ele>912.8</ele>
      </trkpt>
      <trkpt lat="45.32437" lon="3.86164">
        <ele>913.9</ele>
      </trkpt>
      <trkpt lat="45.32437" lon="3.86164">
        <ele>913.9</ele>
      </trkpt>
      <trkpt lat="45.32446" lon="3.8615">
        <ele>914.3</ele>
      </trkpt>
      <trkpt lat="45.32459" lon="3.86131">
        <ele>915.1</ele>
      </trkpt>
      <trkpt lat="45.32473" lon="3.86111">
        <ele>916.4</ele>
      </trkpt>
      <trkpt lat="45.3248" lon="3.86098">
        <ele>917.4</ele>
      </trkpt>
      <trkpt lat="45.32487" lon="3.86085">
        <ele>918.6</ele>
      </trkpt>
      <trkpt lat="45.32496" lon="3.86066">
        <ele>920</ele>
      </trkpt>
      <trkpt lat="45.32506" lon="3.86042">
        <ele>921</ele>
      </trkpt>
      <trkpt lat="45.32513" lon="3.86027">
        <ele>921.4</ele>
      </trkpt>
      <trkpt lat="45.3252" lon="3.86011">
        <ele>921.7</ele>
      </trkpt>
      <trkpt lat="45.32524" lon="3.85997">
        <ele>922.2</ele>
      </trkpt>
      <trkpt lat="45.32524" lon="3.85985">
        <ele>922.9</ele>
      </trkpt>
      <trkpt lat="45.32524" lon="3.8596">
        <ele>924.5</ele>
      </trkpt>
      <trkpt lat="45.32525" lon="3.85947">
        <ele>925.2</ele>
      </trkpt>
      <trkpt lat="45.32527" lon="3.85937">
        <ele>925.7</ele>
      </trkpt>
      <trkpt lat="45.32533" lon="3.85924">
        <ele>926.3</ele>
      </trkpt>
      <trkpt lat="45.32542" lon="3.85911">
        <ele>926.7</ele>
      </trkpt>
      <trkpt lat="45.32551" lon="3.85899">
        <ele>926.8</ele>
      </trkpt>
      <trkpt lat="45.32561" lon="3.85888">
        <ele>927.1</ele>
      </trkpt>
      <trkpt lat="45.32578" lon="3.85869">
        <ele>927.9</ele>
      </trkpt>
      <trkpt lat="45.32595" lon="3.85849">
        <ele>928.9</ele>
      </trkpt>
      <trkpt lat="45.32605" lon="3.85838">
        <ele>929.4</ele>
      </trkpt>
      <trkpt lat="45.32615" lon="3.85828">
        <ele>929.7</ele>
      </trkpt>
      <trkpt lat="45.32626" lon="3.85815">
        <ele>929.7</ele>
      </trkpt>
      <trkpt lat="45.32636" lon="3.85798">
        <ele>930</ele>
      </trkpt>
      <trkpt lat="45.32647" lon="3.85781">
        <ele>930.5</ele>
      </trkpt>
      <trkpt lat="45.32658" lon="3.85763">
        <ele>931.3</ele>
      </trkpt>
      <trkpt lat="45.32668" lon="3.85749">
        <ele>932</ele>
      </trkpt>
      <trkpt lat="45.32679" lon="3.85735">
        <ele>932</ele>
      </trkpt>
      <trkpt lat="45.32693" lon="3.85717">
        <ele>932.3</ele>
      </trkpt>
      <trkpt lat="45.32703" lon="3.85709">
        <ele>932.5</ele>
      </trkpt>
      <trkpt lat="45.3272" lon="3.85697">
        <ele>933</ele>
      </trkpt>
      <trkpt lat="45.32737" lon="3.85686">
        <ele>933.7</ele>
      </trkpt>
      <trkpt lat="45.32753" lon="3.85675">
        <ele>934.4</ele>
      </trkpt>
      <trkpt lat="45.32753" lon="3.85675">
        <ele>934.4</ele>
      </trkpt>
      <trkpt lat="45.32764" lon="3.85667">
        <ele>934.4</ele>
      </trkpt>
      <trkpt lat="45.32774" lon="3.85658">
        <ele>934.2</ele>
      </trkpt>
      <trkpt lat="45.32785" lon="3.85648">
        <ele>934.4</ele>
      </trkpt>
      <trkpt lat="45.32796" lon="3.85637">
        <ele>934.7</ele>
      </trkpt>
      <trkpt lat="45.32812" lon="3.85617">
        <ele>935.9</ele>
      </trkpt>
      <trkpt lat="45.32822" lon="3.85602">
        <ele>937.2</ele>
      </trkpt>
      <trkpt lat="45.3283" lon="3.85589">
        <ele>938.4</ele>
      </trkpt>
      <trkpt lat="45.32837" lon="3.85576">
        <ele>938.8</ele>
      </trkpt>
      <trkpt lat="45.32845" lon="3.85563">
        <ele>938.5</ele>
      </trkpt>
      <trkpt lat="45.32856" lon="3.85545">
        <ele>938.1</ele>
      </trkpt>
      <trkpt lat="45.32868" lon="3.85526">
        <ele>937.9</ele>
      </trkpt>
      <trkpt lat="45.32877" lon="3.85512">
        <ele>937.8</ele>
      </trkpt>
      <trkpt lat="45.32886" lon="3.85498">
        <ele>937.7</ele>
      </trkpt>
      <trkpt lat="45.32892" lon="3.85484">
        <ele>937.6</ele>
      </trkpt>
      <trkpt lat="45.32898" lon="3.85471">
        <ele>937.5</ele>
      </trkpt>
      <trkpt lat="45.32908" lon="3.85446">
        <ele>937.6</ele>
      </trkpt>
      <trkpt lat="45.32913" lon="3.85439">
        <ele>937.7</ele>
      </trkpt>
      <trkpt lat="45.32914" lon="3.85424">
        <ele>937.9</ele>
      </trkpt>
      <trkpt lat="45.32913" lon="3.85411">
        <ele>937.7</ele>
      </trkpt>
      <trkpt lat="45.32912" lon="3.85395">
        <ele>937.1</ele>
      </trkpt>
      <trkpt lat="45.32914" lon="3.85372">
        <ele>936.3</ele>
      </trkpt>
      <trkpt lat="45.32916" lon="3.85353">
        <ele>935.7</ele>
      </trkpt>
      <trkpt lat="45.32923" lon="3.85329">
        <ele>934.9</ele>
      </trkpt>
      <trkpt lat="45.32927" lon="3.85313">
        <ele>934.3</ele>
      </trkpt>
      <trkpt lat="45.32933" lon="3.85296">
        <ele>933.5</ele>
      </trkpt>
      <trkpt lat="45.32937" lon="3.85289">
        <ele>933.2</ele>
      </trkpt>
      <trkpt lat="45.32952" lon="3.85269">
        <ele>932.4</ele>
      </trkpt>
      <trkpt lat="45.32963" lon="3.85253">
        <ele>931.7</ele>
      </trkpt>
      <trkpt lat="45.32971" lon="3.85239">
        <ele>931</ele>
      </trkpt>
      <trkpt lat="45.32974" lon="3.85233">
        <ele>930.6</ele>
      </trkpt>
      <trkpt lat="45.32974" lon="3.85226">
        <ele>930.1</ele>
      </trkpt>
      <trkpt lat="45.32985" lon="3.85213">
        <ele>929.5</ele>
      </trkpt>
      <trkpt lat="45.32992" lon="3.85202">
        <ele>929</ele>
      </trkpt>
      <trkpt lat="45.33004" lon="3.85188">
        <ele>928.7</ele>
      </trkpt>
      <trkpt lat="45.33017" lon="3.85173">
        <ele>929</ele>
      </trkpt>
      <trkpt lat="45.33029" lon="3.85159">
        <ele>929.3</ele>
      </trkpt>
      <trkpt lat="45.33029" lon="3.85159">
        <ele>929.3</ele>
      </trkpt>
      <trkpt lat="45.33046" lon="3.85139">
        <ele>929.4</ele>
      </trkpt>
      <trkpt lat="45.3306" lon="3.85124">
        <ele>929.2</ele>
      </trkpt>
      <trkpt lat="45.33073" lon="3.85108">
        <ele>928.7</ele>
      </trkpt>
      <trkpt lat="45.33085" lon="3.85094">
        <ele>928.1</ele>
      </trkpt>
      <trkpt lat="45.33097" lon="3.8508">
        <ele>927.7</ele>
      </trkpt>
      <trkpt lat="45.33109" lon="3.85065">
        <ele>927.5</ele>
      </trkpt>
      <trkpt lat="45.33126" lon="3.85045">
        <ele>926.9</ele>
      </trkpt>
      <trkpt lat="45.33144" lon="3.85025">
        <ele>925.8</ele>
      </trkpt>
      <trkpt lat="45.33152" lon="3.85015">
        <ele>925.2</ele>
      </trkpt>
      <trkpt lat="45.33161" lon="3.85003">
        <ele>924.2</ele>
      </trkpt>
      <trkpt lat="45.3317" lon="3.84991">
        <ele>923.9</ele>
      </trkpt>
      <trkpt lat="45.3318" lon="3.84975">
        <ele>923.9</ele>
      </trkpt>
      <trkpt lat="45.3319" lon="3.8496">
        <ele>923.9</ele>
      </trkpt>
      <trkpt lat="45.33199" lon="3.84947">
        <ele>923.9</ele>
      </trkpt>
      <trkpt lat="45.33209" lon="3.84934">
        <ele>923.9</ele>
      </trkpt>
      <trkpt lat="45.33218" lon="3.8492">
        <ele>923.9</ele>
      </trkpt>
      <trkpt lat="45.33228" lon="3.84907">
        <ele>924</ele>
      </trkpt>
      <trkpt lat="45.33236" lon="3.84897">
        <ele>924</ele>
      </trkpt>
      <trkpt lat="45.33244" lon="3.84891">
        <ele>924.2</ele>
      </trkpt>
      <trkpt lat="45.33249" lon="3.84892">
        <ele>924.4</ele>
      </trkpt>
      <trkpt lat="45.33263" lon="3.84892">
        <ele>925.7</ele>
      </trkpt>
      <trkpt lat="45.33276" lon="3.84916">
        <ele>927.7</ele>
      </trkpt>
      <trkpt lat="45.33287" lon="3.84932">
        <ele>929.3</ele>
      </trkpt>
      <trkpt lat="45.33291" lon="3.84939">
        <ele>929.8</ele>
      </trkpt>
      <trkpt lat="45.33299" lon="3.84956">
        <ele>931</ele>
      </trkpt>
      <trkpt lat="45.33308" lon="3.84974">
        <ele>932.1</ele>
      </trkpt>
      <trkpt lat="45.33316" lon="3.84991">
        <ele>933.2</ele>
      </trkpt>
      <trkpt lat="45.33323" lon="3.85004">
        <ele>934</ele>
      </trkpt>
      <trkpt lat="45.33332" lon="3.85022">
        <ele>935.1</ele>
      </trkpt>
      <trkpt lat="45.33341" lon="3.85041">
        <ele>935.8</ele>
      </trkpt>
      <trkpt lat="45.33348" lon="3.85056">
        <ele>936.4</ele>
      </trkpt>
      <trkpt lat="45.33355" lon="3.85071">
        <ele>936.9</ele>
      </trkpt>
      <trkpt lat="45.3336" lon="3.85085">
        <ele>937.3</ele>
      </trkpt>
      <trkpt lat="45.3336" lon="3.85085">
        <ele>937.3</ele>
      </trkpt>
      <trkpt lat="45.33362" lon="3.85098">
        <ele>937.8</ele>
      </trkpt>
      <trkpt lat="45.33362" lon="3.8512">
        <ele>938.4</ele>
      </trkpt>
      <trkpt lat="45.33361" lon="3.85142">
        <ele>939</ele>
      </trkpt>
      <trkpt lat="45.33359" lon="3.85164">
        <ele>939.5</ele>
      </trkpt>
      <trkpt lat="45.33359" lon="3.85184">
        <ele>940</ele>
      </trkpt>
      <trkpt lat="45.33358" lon="3.85201">
        <ele>940.5</ele>
      </trkpt>
      <trkpt lat="45.33356" lon="3.85223">
        <ele>941</ele>
      </trkpt>
      <trkpt lat="45.33355" lon="3.85245">
        <ele>941.6</ele>
      </trkpt>
      <trkpt lat="45.33356" lon="3.85258">
        <ele>941.8</ele>
      </trkpt>
      <trkpt lat="45.3336" lon="3.8527">
        <ele>941.8</ele>
      </trkpt>
      <trkpt lat="45.33366" lon="3.8528">
        <ele>941.7</ele>
      </trkpt>
      <trkpt lat="45.33375" lon="3.85286">
        <ele>941.5</ele>
      </trkpt>
      <trkpt lat="45.3338" lon="3.85287">
        <ele>941.4</ele>
      </trkpt>
      <trkpt lat="45.33391" lon="3.85289">
        <ele>941.1</ele>
      </trkpt>
      <trkpt lat="45.33401" lon="3.85289">
        <ele>940.9</ele>
      </trkpt>
      <trkpt lat="45.33408" lon="3.85287">
        <ele>940.8</ele>
      </trkpt>
      <trkpt lat="45.33413" lon="3.85283">
        <ele>940.7</ele>
      </trkpt>
      <trkpt lat="45.3342" lon="3.85281">
        <ele>940.6</ele>
      </trkpt>
      <trkpt lat="45.3343" lon="3.85276">
        <ele>940.6</ele>
      </trkpt>
      <trkpt lat="45.33432" lon="3.85268">
        <ele>940.7</ele>
      </trkpt>
      <trkpt lat="45.33435" lon="3.85249">
        <ele>941</ele>
      </trkpt>
      <trkpt lat="45.33434" lon="3.85235">
        <ele>941.1</ele>
      </trkpt>
      <trkpt lat="45.33428" lon="3.85214">
        <ele>941.2</ele>
      </trkpt>
      <trkpt lat="45.33423" lon="3.85196">
        <ele>941.1</ele>
      </trkpt>
      <trkpt lat="45.3342" lon="3.8518">
        <ele>941.1</ele>
      </trkpt>
      <trkpt lat="45.33419" lon="3.85162">
        <ele>941</ele>
      </trkpt>
      <trkpt lat="45.33419" lon="3.8514">
        <ele>940.8</ele>
      </trkpt>
      <trkpt lat="45.3342" lon="3.85111">
        <ele>940.6</ele>
      </trkpt>
      <trkpt lat="45.33421" lon="3.85081">
        <ele>940.4</ele>
      </trkpt>
      <trkpt lat="45.33423" lon="3.85061">
        <ele>940.3</ele>
      </trkpt>
      <trkpt lat="45.33424" lon="3.8504">
        <ele>940.2</ele>
      </trkpt>
      <trkpt lat="45.33426" lon="3.85024">
        <ele>940.2</ele>
      </trkpt>
      <trkpt lat="45.33427" lon="3.85007">
        <ele>940.2</ele>
      </trkpt>
      <trkpt lat="45.33429" lon="3.84997">
        <ele>940.4</ele>
      </trkpt>
      <trkpt lat="45.33439" lon="3.84988">
        <ele>941.5</ele>
      </trkpt>
      <trkpt lat="45.33446" lon="3.84987">
        <ele>942.3</ele>
      </trkpt>
      <trkpt lat="45.33459" lon="3.84991">
        <ele>943.8</ele>
      </trkpt>
      <trkpt lat="45.33473" lon="3.84996">
        <ele>945.1</ele>
      </trkpt>
      <trkpt lat="45.33486" lon="3.85002">
        <ele>946.5</ele>
      </trkpt>
      <trkpt lat="45.33486" lon="3.85002">
        <ele>946.5</ele>
      </trkpt>
      <trkpt lat="45.33491" lon="3.85004">
        <ele>947</ele>
      </trkpt>
      <trkpt lat="45.3351" lon="3.85012">
        <ele>948.5</ele>
      </trkpt>
      <trkpt lat="45.33529" lon="3.8502">
        <ele>949.6</ele>
      </trkpt>
      <trkpt lat="45.33543" lon="3.85028">
        <ele>950.3</ele>
      </trkpt>
      <trkpt lat="45.33562" lon="3.85037">
        <ele>951</ele>
      </trkpt>
      <trkpt lat="45.33577" lon="3.85042">
        <ele>951.6</ele>
      </trkpt>
      <trkpt lat="45.3359" lon="3.85044">
        <ele>952</ele>
      </trkpt>
      <trkpt lat="45.33595" lon="3.85044">
        <ele>952.2</ele>
      </trkpt>
      <trkpt lat="45.336" lon="3.85043">
        <ele>952.3</ele>
      </trkpt>
      <trkpt lat="45.33613" lon="3.85041">
        <ele>952.7</ele>
      </trkpt>
      <trkpt lat="45.33626" lon="3.85039">
        <ele>953.2</ele>
      </trkpt>
      <trkpt lat="45.33647" lon="3.85035">
        <ele>954</ele>
      </trkpt>
      <trkpt lat="45.33668" lon="3.85031">
        <ele>954.8</ele>
      </trkpt>
      <trkpt lat="45.33683" lon="3.85029">
        <ele>955.8</ele>
      </trkpt>
      <trkpt lat="45.33698" lon="3.85026">
        <ele>956.7</ele>
      </trkpt>
      <trkpt lat="45.33713" lon="3.85022">
        <ele>957.6</ele>
      </trkpt>
      <trkpt lat="45.33727" lon="3.85018">
        <ele>958.5</ele>
      </trkpt>
      <trkpt lat="45.33742" lon="3.85016">
        <ele>959.3</ele>
      </trkpt>
      <trkpt lat="45.33757" lon="3.85013">
        <ele>960.1</ele>
      </trkpt>
      <trkpt lat="45.33775" lon="3.85009">
        <ele>961.4</ele>
      </trkpt>
      <trkpt lat="45.33792" lon="3.85006">
        <ele>962.8</ele>
      </trkpt>
      <trkpt lat="45.33804" lon="3.85006">
        <ele>963.6</ele>
      </trkpt>
      <trkpt lat="45.33816" lon="3.85006">
        <ele>964.4</ele>
      </trkpt>
      <trkpt lat="45.3383" lon="3.85007">
        <ele>965.4</ele>
      </trkpt>
      <trkpt lat="45.33846" lon="3.85011">
        <ele>966.4</ele>
      </trkpt>
      <trkpt lat="45.33861" lon="3.85015">
        <ele>967.2</ele>
      </trkpt>
      <trkpt lat="45.33875" lon="3.8502">
        <ele>968</ele>
      </trkpt>
      <trkpt lat="45.33889" lon="3.85024">
        <ele>968.8</ele>
      </trkpt>
      <trkpt lat="45.33904" lon="3.85029">
        <ele>969.6</ele>
      </trkpt>
      <trkpt lat="45.33916" lon="3.85032">
        <ele>970.2</ele>
      </trkpt>
      <trkpt lat="45.33927" lon="3.85035">
        <ele>970.3</ele>
      </trkpt>
      <trkpt lat="45.33949" lon="3.85037">
        <ele>970.6</ele>
      </trkpt>
      <trkpt lat="45.33949" lon="3.85037">
        <ele>970.6</ele>
      </trkpt>
      <trkpt lat="45.33968" lon="3.85037">
        <ele>971</ele>
      </trkpt>
      <trkpt lat="45.33986" lon="3.85035">
        <ele>971.6</ele>
      </trkpt>
      <trkpt lat="45.33998" lon="3.85033">
        <ele>972</ele>
      </trkpt>
      <trkpt lat="45.34009" lon="3.8503">
        <ele>972.6</ele>
      </trkpt>
      <trkpt lat="45.34021" lon="3.85027">
        <ele>973.1</ele>
      </trkpt>
      <trkpt lat="45.34032" lon="3.85024">
        <ele>973.7</ele>
      </trkpt>
      <trkpt lat="45.34041" lon="3.85021">
        <ele>974.1</ele>
      </trkpt>
      <trkpt lat="45.34059" lon="3.85016">
        <ele>974.8</ele>
      </trkpt>
      <trkpt lat="45.34076" lon="3.85011">
        <ele>975.5</ele>
      </trkpt>
      <trkpt lat="45.34097" lon="3.85006">
        <ele>976.8</ele>
      </trkpt>
      <trkpt lat="45.34118" lon="3.85001">
        <ele>978.5</ele>
      </trkpt>
      <trkpt lat="45.34132" lon="3.84999">
        <ele>979.5</ele>
      </trkpt>
      <trkpt lat="45.34146" lon="3.84997">
        <ele>980.4</ele>
      </trkpt>
      <trkpt lat="45.34161" lon="3.84996">
        <ele>981.5</ele>
      </trkpt>
      <trkpt lat="45.34172" lon="3.84995">
        <ele>982.2</ele>
      </trkpt>
      <trkpt lat="45.34188" lon="3.84996">
        <ele>983.2</ele>
      </trkpt>
      <trkpt lat="45.34205" lon="3.84997">
        <ele>984.2</ele>
      </trkpt>
      <trkpt lat="45.34224" lon="3.84997">
        <ele>985.3</ele>
      </trkpt>
      <trkpt lat="45.34243" lon="3.84998">
        <ele>986.5</ele>
      </trkpt>
      <trkpt lat="45.34261" lon="3.84999">
        <ele>988.4</ele>
      </trkpt>
      <trkpt lat="45.34278" lon="3.84999">
        <ele>991</ele>
      </trkpt>
      <trkpt lat="45.3429" lon="3.84999">
        <ele>992.7</ele>
      </trkpt>
      <trkpt lat="45.34301" lon="3.85">
        <ele>994.4</ele>
      </trkpt>
      <trkpt lat="45.34323" lon="3.84997">
        <ele>997.4</ele>
      </trkpt>
      <trkpt lat="45.3434" lon="3.84995">
        <ele>999.3</ele>
      </trkpt>
      <trkpt lat="45.34357" lon="3.84992">
        <ele>1000.5</ele>
      </trkpt>
      <trkpt lat="45.34374" lon="3.8499">
        <ele>1001.7</ele>
      </trkpt>
      <trkpt lat="45.34382" lon="3.84998">
        <ele>1002.4</ele>
      </trkpt>
      <trkpt lat="45.34389" lon="3.85003">
        <ele>1002.9</ele>
      </trkpt>
      <trkpt lat="45.34404" lon="3.85008">
        <ele>1004</ele>
      </trkpt>
      <trkpt lat="45.3442" lon="3.85013">
        <ele>1005.1</ele>
      </trkpt>
      <trkpt lat="45.3442" lon="3.85013">
        <ele>1005.1</ele>
      </trkpt>
      <trkpt lat="45.34438" lon="3.85015">
        <ele>1006.4</ele>
      </trkpt>
      <trkpt lat="45.34456" lon="3.85018">
        <ele>1007.7</ele>
      </trkpt>
      <trkpt lat="45.34477" lon="3.85022">
        <ele>1009.3</ele>
      </trkpt>
      <trkpt lat="45.34498" lon="3.85028">
        <ele>1010.9</ele>
      </trkpt>
      <trkpt lat="45.34518" lon="3.85035">
        <ele>1010.8</ele>
      </trkpt>
      <trkpt lat="45.34535" lon="3.85041">
        <ele>1010.8</ele>
      </trkpt>
      <trkpt lat="45.34549" lon="3.8505">
        <ele>1010.9</ele>
      </trkpt>
      <trkpt lat="45.34566" lon="3.85065">
        <ele>1011.3</ele>
      </trkpt>
      <trkpt lat="45.34582" lon="3.85079">
        <ele>1011.8</ele>
      </trkpt>
      <trkpt lat="45.34596" lon="3.8509">
        <ele>1011.1</ele>
      </trkpt>
      <trkpt lat="45.34609" lon="3.85101">
        <ele>1010.1</ele>
      </trkpt>
      <trkpt lat="45.34625" lon="3.85113">
        <ele>1009.1</ele>
      </trkpt>
      <trkpt lat="45.34643" lon="3.85123">
        <ele>1008.4</ele>
      </trkpt>
      <trkpt lat="45.34664" lon="3.85133">
        <ele>1007.8</ele>
      </trkpt>
      <trkpt lat="45.34678" lon="3.85138">
        <ele>1007.6</ele>
      </trkpt>
      <trkpt lat="45.34692" lon="3.85143">
        <ele>1007.3</ele>
      </trkpt>
      <trkpt lat="45.34701" lon="3.85148">
        <ele>1007</ele>
      </trkpt>
      <trkpt lat="45.34716" lon="3.85156">
        <ele>1006.7</ele>
      </trkpt>
      <trkpt lat="45.3473" lon="3.85167">
        <ele>1006.2</ele>
      </trkpt>
      <trkpt lat="45.34746" lon="3.85182">
        <ele>1005.9</ele>
      </trkpt>
      <trkpt lat="45.34761" lon="3.852">
        <ele>1006.3</ele>
      </trkpt>
      <trkpt lat="45.3477" lon="3.85213">
        <ele>1006.8</ele>
      </trkpt>
      <trkpt lat="45.3478" lon="3.85227">
        <ele>1007.3</ele>
      </trkpt>
      <trkpt lat="45.34794" lon="3.85248">
        <ele>1008.2</ele>
      </trkpt>
      <trkpt lat="45.34808" lon="3.8527">
        <ele>1008.5</ele>
      </trkpt>
      <trkpt lat="45.34821" lon="3.85289">
        <ele>1008.7</ele>
      </trkpt>
      <trkpt lat="45.34834" lon="3.85308">
        <ele>1008.9</ele>
      </trkpt>
      <trkpt lat="45.34834" lon="3.85308">
        <ele>1008.9</ele>
      </trkpt>
      <trkpt lat="45.34843" lon="3.85319">
        <ele>1007.9</ele>
      </trkpt>
      <trkpt lat="45.34852" lon="3.85331">
        <ele>1007</ele>
      </trkpt>
      <trkpt lat="45.34865" lon="3.85345">
        <ele>1005.9</ele>
      </trkpt>
      <trkpt lat="45.34881" lon="3.85356">
        <ele>1004.7</ele>
      </trkpt>
      <trkpt lat="45.34892" lon="3.85362">
        <ele>1004</ele>
      </trkpt>
      <trkpt lat="45.34904" lon="3.85368">
        <ele>1003.3</ele>
      </trkpt>
      <trkpt lat="45.34917" lon="3.85375">
        <ele>1002.5</ele>
      </trkpt>
      <trkpt lat="45.34931" lon="3.85382">
        <ele>1001.6</ele>
      </trkpt>
      <trkpt lat="45.34945" lon="3.85385">
        <ele>1000.7</ele>
      </trkpt>
      <trkpt lat="45.34963" lon="3.85383">
        <ele>999.7</ele>
      </trkpt>
      <trkpt lat="45.34982" lon="3.85379">
        <ele>998.8</ele>
      </trkpt>
      <trkpt lat="45.34994" lon="3.85376">
        <ele>998.3</ele>
      </trkpt>
      <trkpt lat="45.35006" lon="3.85373">
        <ele>997.9</ele>
      </trkpt>
      <trkpt lat="45.35028" lon="3.85373">
        <ele>997.2</ele>
      </trkpt>
      <trkpt lat="45.3504" lon="3.85374">
        <ele>996.8</ele>
      </trkpt>
      <trkpt lat="45.35053" lon="3.85375">
        <ele>996.4</ele>
      </trkpt>
      <trkpt lat="45.35069" lon="3.85377">
        <ele>995.9</ele>
      </trkpt>
      <trkpt lat="45.35081" lon="3.8538">
        <ele>995.6</ele>
      </trkpt>
      <trkpt lat="45.35094" lon="3.85383">
        <ele>995.3</ele>
      </trkpt>
      <trkpt lat="45.35108" lon="3.85389">
        <ele>995.1</ele>
      </trkpt>
      <trkpt lat="45.35123" lon="3.85395">
        <ele>994.9</ele>
      </trkpt>
      <trkpt lat="45.35129" lon="3.85397">
        <ele>994.8</ele>
      </trkpt>
      <trkpt lat="45.3514" lon="3.85398">
        <ele>994.6</ele>
      </trkpt>
      <trkpt lat="45.35152" lon="3.85395">
        <ele>994.3</ele>
      </trkpt>
      <trkpt lat="45.35169" lon="3.85394">
        <ele>993.8</ele>
      </trkpt>
      <trkpt lat="45.35184" lon="3.85395">
        <ele>993</ele>
      </trkpt>
      <trkpt lat="45.35196" lon="3.854">
        <ele>992.6</ele>
      </trkpt>
      <trkpt lat="45.35205" lon="3.85403">
        <ele>992.2</ele>
      </trkpt>
      <trkpt lat="45.35216" lon="3.85403">
        <ele>991.6</ele>
      </trkpt>
      <trkpt lat="45.3523" lon="3.854">
        <ele>990.7</ele>
      </trkpt>
      <trkpt lat="45.35244" lon="3.85398">
        <ele>989.9</ele>
      </trkpt>
      <trkpt lat="45.35262" lon="3.854">
        <ele>989.6</ele>
      </trkpt>
      <trkpt lat="45.35276" lon="3.85403">
        <ele>989.7</ele>
      </trkpt>
      <trkpt lat="45.35286" lon="3.85407">
        <ele>989.8</ele>
      </trkpt>
      <trkpt lat="45.35286" lon="3.85407">
        <ele>989.8</ele>
      </trkpt>
      <trkpt lat="45.35296" lon="3.85413">
        <ele>989.9</ele>
      </trkpt>
      <trkpt lat="45.35307" lon="3.85414">
        <ele>989.9</ele>
      </trkpt>
      <trkpt lat="45.35328" lon="3.85414">
        <ele>989.9</ele>
      </trkpt>
      <trkpt lat="45.35349" lon="3.85413">
        <ele>989.7</ele>
      </trkpt>
      <trkpt lat="45.35366" lon="3.85412">
        <ele>989.5</ele>
      </trkpt>
      <trkpt lat="45.35386" lon="3.8541">
        <ele>989.2</ele>
      </trkpt>
      <trkpt lat="45.35406" lon="3.85408">
        <ele>988.8</ele>
      </trkpt>
      <trkpt lat="45.35416" lon="3.85407">
        <ele>988.7</ele>
      </trkpt>
      <trkpt lat="45.35424" lon="3.85399">
        <ele>988.4</ele>
      </trkpt>
      <trkpt lat="45.35429" lon="3.85403">
        <ele>988.6</ele>
      </trkpt>
      <trkpt lat="45.35437" lon="3.85403">
        <ele>988.6</ele>
      </trkpt>
      <trkpt lat="45.35448" lon="3.85402">
        <ele>988.7</ele>
      </trkpt>
      <trkpt lat="45.3546" lon="3.85401">
        <ele>988.7</ele>
      </trkpt>
      <trkpt lat="45.35476" lon="3.854">
        <ele>988.8</ele>
      </trkpt>
      <trkpt lat="45.35489" lon="3.85402">
        <ele>988.9</ele>
      </trkpt>
      <trkpt lat="45.35503" lon="3.85407">
        <ele>989.2</ele>
      </trkpt>
      <trkpt lat="45.35514" lon="3.85412">
        <ele>990</ele>
      </trkpt>
      <trkpt lat="45.35525" lon="3.85417">
        <ele>990.8</ele>
      </trkpt>
      <trkpt lat="45.35542" lon="3.85423">
        <ele>992.3</ele>
      </trkpt>
      <trkpt lat="45.35552" lon="3.8543">
        <ele>993.2</ele>
      </trkpt>
      <trkpt lat="45.35558" lon="3.85437">
        <ele>994</ele>
      </trkpt>
      <trkpt lat="45.35566" lon="3.85444">
        <ele>994.9</ele>
      </trkpt>
      <trkpt lat="45.35577" lon="3.85454">
        <ele>996.2</ele>
      </trkpt>
      <trkpt lat="45.35592" lon="3.85459">
        <ele>997.9</ele>
      </trkpt>
      <trkpt lat="45.35612" lon="3.85465">
        <ele>1000.2</ele>
      </trkpt>
      <trkpt lat="45.35632" lon="3.85472">
        <ele>1002.3</ele>
      </trkpt>
      <trkpt lat="45.35652" lon="3.85478">
        <ele>1004.4</ele>
      </trkpt>
      <trkpt lat="45.35673" lon="3.85485">
        <ele>1005.8</ele>
      </trkpt>
      <trkpt lat="45.35692" lon="3.85486">
        <ele>1005.8</ele>
      </trkpt>
      <trkpt lat="45.35706" lon="3.85483">
        <ele>1005.7</ele>
      </trkpt>
      <trkpt lat="45.3572" lon="3.85474">
        <ele>1005.5</ele>
      </trkpt>
      <trkpt lat="45.35737" lon="3.85463">
        <ele>1005.2</ele>
      </trkpt>
      <trkpt lat="45.35737" lon="3.85463">
        <ele>1005.2</ele>
      </trkpt>
      <trkpt lat="45.35757" lon="3.85455">
        <ele>1004.7</ele>
      </trkpt>
      <trkpt lat="45.3577" lon="3.85453">
        <ele>1004.2</ele>
      </trkpt>
      <trkpt lat="45.35782" lon="3.85451">
        <ele>1003.7</ele>
      </trkpt>
      <trkpt lat="45.35795" lon="3.8545">
        <ele>1003.2</ele>
      </trkpt>
      <trkpt lat="45.35809" lon="3.8545">
        <ele>1002.7</ele>
      </trkpt>
      <trkpt lat="45.35821" lon="3.85451">
        <ele>1002.3</ele>
      </trkpt>
      <trkpt lat="45.35833" lon="3.85452">
        <ele>1001.8</ele>
      </trkpt>
      <trkpt lat="45.35847" lon="3.85455">
        <ele>1002.1</ele>
      </trkpt>
      <trkpt lat="45.35861" lon="3.85458">
        <ele>1002.3</ele>
      </trkpt>
      <trkpt lat="45.3588" lon="3.8546">
        <ele>1002.6</ele>
      </trkpt>
      <trkpt lat="45.35899" lon="3.85462">
        <ele>1002.7</ele>
      </trkpt>
      <trkpt lat="45.35916" lon="3.85462">
        <ele>1002.9</ele>
      </trkpt>
      <trkpt lat="45.35933" lon="3.85462">
        <ele>1004.1</ele>
      </trkpt>
      <trkpt lat="45.35948" lon="3.85463">
        <ele>1005.2</ele>
      </trkpt>
      <trkpt lat="45.35963" lon="3.85464">
        <ele>1006.3</ele>
      </trkpt>
      <trkpt lat="45.35976" lon="3.85464">
        <ele>1007.3</ele>
      </trkpt>
      <trkpt lat="45.35989" lon="3.85463">
        <ele>1008.3</ele>
      </trkpt>
      <trkpt lat="45.36001" lon="3.85461">
        <ele>1009.1</ele>
      </trkpt>
      <trkpt lat="45.36012" lon="3.85457">
        <ele>1009.7</ele>
      </trkpt>
      <trkpt lat="45.36024" lon="3.85454">
        <ele>1010.4</ele>
      </trkpt>
      <trkpt lat="45.36039" lon="3.85448">
        <ele>1011.2</ele>
      </trkpt>
      <trkpt lat="45.36054" lon="3.85439">
        <ele>1012.1</ele>
      </trkpt>
      <trkpt lat="45.36069" lon="3.8543">
        <ele>1013</ele>
      </trkpt>
      <trkpt lat="45.36084" lon="3.85422">
        <ele>1014</ele>
      </trkpt>
      <trkpt lat="45.36098" lon="3.85416">
        <ele>1013.8</ele>
      </trkpt>
      <trkpt lat="45.36116" lon="3.85414">
        <ele>1013.6</ele>
      </trkpt>
      <trkpt lat="45.36134" lon="3.85412">
        <ele>1013.4</ele>
      </trkpt>
      <trkpt lat="45.36152" lon="3.8541">
        <ele>1013.2</ele>
      </trkpt>
      <trkpt lat="45.3617" lon="3.85406">
        <ele>1012.8</ele>
      </trkpt>
      <trkpt lat="45.36187" lon="3.85402">
        <ele>1011.7</ele>
      </trkpt>
      <trkpt lat="45.36203" lon="3.854">
        <ele>1010.7</ele>
      </trkpt>
      <trkpt lat="45.36203" lon="3.854">
        <ele>1010.7</ele>
      </trkpt>
      <trkpt lat="45.36219" lon="3.85398">
        <ele>1009.9</ele>
      </trkpt>
      <trkpt lat="45.36239" lon="3.8539">
        <ele>1009.4</ele>
      </trkpt>
      <trkpt lat="45.36259" lon="3.85383">
        <ele>1009</ele>
      </trkpt>
      <trkpt lat="45.36279" lon="3.85375">
        <ele>1008.5</ele>
      </trkpt>
      <trkpt lat="45.36296" lon="3.85358">
        <ele>1009.7</ele>
      </trkpt>
      <trkpt lat="45.36312" lon="3.8534">
        <ele>1011.1</ele>
      </trkpt>
      <trkpt lat="45.36329" lon="3.85322">
        <ele>1013.1</ele>
      </trkpt>
      <trkpt lat="45.36342" lon="3.85318">
        <ele>1013.8</ele>
      </trkpt>
      <trkpt lat="45.36354" lon="3.85314">
        <ele>1014.7</ele>
      </trkpt>
      <trkpt lat="45.36367" lon="3.85312">
        <ele>1015.3</ele>
      </trkpt>
      <trkpt lat="45.3638" lon="3.8531">
        <ele>1015.8</ele>
      </trkpt>
      <trkpt lat="45.36398" lon="3.85312">
        <ele>1015.9</ele>
      </trkpt>
      <trkpt lat="45.36417" lon="3.85323">
        <ele>1015.2</ele>
      </trkpt>
      <trkpt lat="45.36435" lon="3.85333">
        <ele>1015.6</ele>
      </trkpt>
      <trkpt lat="45.36453" lon="3.85343">
        <ele>1015.8</ele>
      </trkpt>
      <trkpt lat="45.36472" lon="3.8535">
        <ele>1016.3</ele>
      </trkpt>
      <trkpt lat="45.3649" lon="3.85358">
        <ele>1016.9</ele>
      </trkpt>
      <trkpt lat="45.36507" lon="3.85363">
        <ele>1017.4</ele>
      </trkpt>
      <trkpt lat="45.36525" lon="3.85369">
        <ele>1017.3</ele>
      </trkpt>
      <trkpt lat="45.36542" lon="3.85374">
        <ele>1017.1</ele>
      </trkpt>
      <trkpt lat="45.36564" lon="3.8538">
        <ele>1016.9</ele>
      </trkpt>
      <trkpt lat="45.36585" lon="3.85386">
        <ele>1016.6</ele>
      </trkpt>
      <trkpt lat="45.36602" lon="3.8539">
        <ele>1017.6</ele>
      </trkpt>
      <trkpt lat="45.36602" lon="3.8539">
        <ele>1017.6</ele>
      </trkpt>
      <trkpt lat="45.36618" lon="3.85393">
        <ele>1018.7</ele>
      </trkpt>
      <trkpt lat="45.36636" lon="3.85401">
        <ele>1019.6</ele>
      </trkpt>
      <trkpt lat="45.36654" lon="3.85408">
        <ele>1020.7</ele>
      </trkpt>
      <trkpt lat="45.36654" lon="3.85408">
        <ele>1020.7</ele>
      </trkpt>
      <trkpt lat="45.36673" lon="3.85415">
        <ele>1021.9</ele>
      </trkpt>
      <trkpt lat="45.36691" lon="3.85422">
        <ele>1023</ele>
      </trkpt>
      <trkpt lat="45.36707" lon="3.8543">
        <ele>1023.8</ele>
      </trkpt>
      <trkpt lat="45.36723" lon="3.85438">
        <ele>1024.7</ele>
      </trkpt>
      <trkpt lat="45.36739" lon="3.85446">
        <ele>1025.6</ele>
      </trkpt>
      <trkpt lat="45.36755" lon="3.85454">
        <ele>1026</ele>
      </trkpt>
      <trkpt lat="45.36774" lon="3.85448">
        <ele>1026.5</ele>
      </trkpt>
      <trkpt lat="45.36793" lon="3.85442">
        <ele>1026.9</ele>
      </trkpt>
      <trkpt lat="45.36812" lon="3.85436">
        <ele>1027.3</ele>
      </trkpt>
      <trkpt lat="45.36818" lon="3.85425">
        <ele>1028.4</ele>
      </trkpt>
      <trkpt lat="45.36824" lon="3.85418">
        <ele>1029</ele>
      </trkpt>
      <trkpt lat="45.36841" lon="3.8541">
        <ele>1029.4</ele>
      </trkpt>
      <trkpt lat="45.36857" lon="3.85401">
        <ele>1029.8</ele>
      </trkpt>
      <trkpt lat="45.36873" lon="3.85393">
        <ele>1030.3</ele>
      </trkpt>
      <trkpt lat="45.36893" lon="3.85385">
        <ele>1030.7</ele>
      </trkpt>
      <trkpt lat="45.36912" lon="3.85378">
        <ele>1031.2</ele>
      </trkpt>
      <trkpt lat="45.36933" lon="3.85379">
        <ele>1031.9</ele>
      </trkpt>
      <trkpt lat="45.36955" lon="3.85381">
        <ele>1033</ele>
      </trkpt>
      <trkpt lat="45.36973" lon="3.85381">
        <ele>1034</ele>
      </trkpt>
      <trkpt lat="45.36991" lon="3.85382">
        <ele>1035</ele>
      </trkpt>
      <trkpt lat="45.37001" lon="3.85382">
        <ele>1035.5</ele>
      </trkpt>
      <trkpt lat="45.3701" lon="3.85379">
        <ele>1036.2</ele>
      </trkpt>
      <trkpt lat="45.37019" lon="3.85374">
        <ele>1036.8</ele>
      </trkpt>
      <trkpt lat="45.37026" lon="3.8538">
        <ele>1036.9</ele>
      </trkpt>
      <trkpt lat="45.37033" lon="3.85391">
        <ele>1036.9</ele>
      </trkpt>
      <trkpt lat="45.37039" lon="3.85385">
        <ele>1037.4</ele>
      </trkpt>
      <trkpt lat="45.37041" lon="3.85392">
        <ele>1037.4</ele>
      </trkpt>
      <trkpt lat="45.37047" lon="3.85394">
        <ele>1037.8</ele>
      </trkpt>
      <trkpt lat="45.37063" lon="3.85404">
        <ele>1038.9</ele>
      </trkpt>
      <trkpt lat="45.37078" lon="3.85414">
        <ele>1040.5</ele>
      </trkpt>
      <trkpt lat="45.37089" lon="3.85422">
        <ele>1041.8</ele>
      </trkpt>
      <trkpt lat="45.37089" lon="3.85422">
        <ele>1041.8</ele>
      </trkpt>
      <trkpt lat="45.37102" lon="3.85436">
        <ele>1043.8</ele>
      </trkpt>
      <trkpt lat="45.37114" lon="3.85451">
        <ele>1046</ele>
      </trkpt>
      <trkpt lat="45.37124" lon="3.8547">
        <ele>1048.1</ele>
      </trkpt>
      <trkpt lat="45.37134" lon="3.8549">
        <ele>1050.4</ele>
      </trkpt>
      <trkpt lat="45.37143" lon="3.85509">
        <ele>1052.1</ele>
      </trkpt>
      <trkpt lat="45.37157" lon="3.85527">
        <ele>1053.6</ele>
      </trkpt>
      <trkpt lat="45.3717" lon="3.85545">
        <ele>1054.6</ele>
      </trkpt>
      <trkpt lat="45.37187" lon="3.85557">
        <ele>1055.2</ele>
      </trkpt>
      <trkpt lat="45.37203" lon="3.8557">
        <ele>1055.9</ele>
      </trkpt>
      <trkpt lat="45.3722" lon="3.85582">
        <ele>1056.8</ele>
      </trkpt>
      <trkpt lat="45.37236" lon="3.85595">
        <ele>1058.4</ele>
      </trkpt>
      <trkpt lat="45.37253" lon="3.85607">
        <ele>1060</ele>
      </trkpt>
      <trkpt lat="45.37267" lon="3.85618">
        <ele>1060.9</ele>
      </trkpt>
      <trkpt lat="45.37282" lon="3.85628">
        <ele>1062</ele>
      </trkpt>
      <trkpt lat="45.37297" lon="3.85639">
        <ele>1063.1</ele>
      </trkpt>
      <trkpt lat="45.37315" lon="3.85657">
        <ele>1064.7</ele>
      </trkpt>
      <trkpt lat="45.37329" lon="3.85664">
        <ele>1065.6</ele>
      </trkpt>
      <trkpt lat="45.37348" lon="3.85664">
        <ele>1067</ele>
      </trkpt>
      <trkpt lat="45.37366" lon="3.85671">
        <ele>1068.9</ele>
      </trkpt>
      <trkpt lat="45.37385" lon="3.85679">
        <ele>1070.9</ele>
      </trkpt>
      <trkpt lat="45.37397" lon="3.85683">
        <ele>1072.2</ele>
      </trkpt>
      <trkpt lat="45.3741" lon="3.85688">
        <ele>1073.6</ele>
      </trkpt>
      <trkpt lat="45.37422" lon="3.857">
        <ele>1075.5</ele>
      </trkpt>
      <trkpt lat="45.37435" lon="3.85726">
        <ele>1078.1</ele>
      </trkpt>
      <trkpt lat="45.37448" lon="3.85743">
        <ele>1080.2</ele>
      </trkpt>
      <trkpt lat="45.37459" lon="3.85753">
        <ele>1081.5</ele>
      </trkpt>
      <trkpt lat="45.3747" lon="3.85763">
        <ele>1082.2</ele>
      </trkpt>
      <trkpt lat="45.3747" lon="3.85763">
        <ele>1082.2</ele>
      </trkpt>
      <trkpt lat="45.37485" lon="3.8577">
        <ele>1083.1</ele>
      </trkpt>
      <trkpt lat="45.375" lon="3.85777">
        <ele>1084</ele>
      </trkpt>
      <trkpt lat="45.37517" lon="3.85781">
        <ele>1082.9</ele>
      </trkpt>
      <trkpt lat="45.37534" lon="3.85778">
        <ele>1082</ele>
      </trkpt>
      <trkpt lat="45.37551" lon="3.85769">
        <ele>1081.1</ele>
      </trkpt>
      <trkpt lat="45.37569" lon="3.8576">
        <ele>1080</ele>
      </trkpt>
      <trkpt lat="45.37586" lon="3.85752">
        <ele>1078.7</ele>
      </trkpt>
      <trkpt lat="45.37603" lon="3.85743">
        <ele>1076.8</ele>
      </trkpt>
      <trkpt lat="45.37618" lon="3.85735">
        <ele>1075.2</ele>
      </trkpt>
      <trkpt lat="45.37633" lon="3.85727">
        <ele>1073.5</ele>
      </trkpt>
      <trkpt lat="45.37647" lon="3.85718">
        <ele>1071.8</ele>
      </trkpt>
      <trkpt lat="45.37663" lon="3.85712">
        <ele>1069.9</ele>
      </trkpt>
      <trkpt lat="45.37678" lon="3.85709">
        <ele>1068</ele>
      </trkpt>
      <trkpt lat="45.37692" lon="3.85706">
        <ele>1066</ele>
      </trkpt>
      <trkpt lat="45.37699" lon="3.85707">
        <ele>1065</ele>
      </trkpt>
      <trkpt lat="45.37705" lon="3.85709">
        <ele>1064.3</ele>
      </trkpt>
      <trkpt lat="45.37719" lon="3.85717">
        <ele>1062.5</ele>
      </trkpt>
      <trkpt lat="45.37727" lon="3.85725">
        <ele>1061.5</ele>
      </trkpt>
      <trkpt lat="45.37731" lon="3.85729">
        <ele>1061.1</ele>
      </trkpt>
      <trkpt lat="45.37735" lon="3.85736">
        <ele>1060.7</ele>
      </trkpt>
      <trkpt lat="45.37743" lon="3.8575">
        <ele>1060</ele>
      </trkpt>
      <trkpt lat="45.37749" lon="3.85762">
        <ele>1058.5</ele>
      </trkpt>
      <trkpt lat="45.37754" lon="3.85771">
        <ele>1057.6</ele>
      </trkpt>
      <trkpt lat="45.37766" lon="3.85787">
        <ele>1056.5</ele>
      </trkpt>
      <trkpt lat="45.37772" lon="3.85794">
        <ele>1056.2</ele>
      </trkpt>
      <trkpt lat="45.37777" lon="3.85798">
        <ele>1056</ele>
      </trkpt>
      <trkpt lat="45.37791" lon="3.85808">
        <ele>1055.6</ele>
      </trkpt>
      <trkpt lat="45.37802" lon="3.85814">
        <ele>1055.5</ele>
      </trkpt>
      <trkpt lat="45.37817" lon="3.85822">
        <ele>1055.6</ele>
      </trkpt>
      <trkpt lat="45.37826" lon="3.85828">
        <ele>1055.8</ele>
      </trkpt>
      <trkpt lat="45.3783" lon="3.85832">
        <ele>1055.9</ele>
      </trkpt>
      <trkpt lat="45.37834" lon="3.85837">
        <ele>1055.6</ele>
      </trkpt>
      <trkpt lat="45.37852" lon="3.85856">
        <ele>1054.4</ele>
      </trkpt>
      <trkpt lat="45.37864" lon="3.85866">
        <ele>1053.9</ele>
      </trkpt>
      <trkpt lat="45.3788" lon="3.85874">
        <ele>1054</ele>
      </trkpt>
      <trkpt lat="45.37897" lon="3.85882">
        <ele>1054.3</ele>
      </trkpt>
      <trkpt lat="45.37897" lon="3.85882">
        <ele>1054.3</ele>
      </trkpt>
      <trkpt lat="45.37913" lon="3.8589">
        <ele>1054.8</ele>
      </trkpt>
      <trkpt lat="45.3793" lon="3.85904">
        <ele>1054.2</ele>
      </trkpt>
      <trkpt lat="45.37947" lon="3.85918">
        <ele>1053.5</ele>
      </trkpt>
      <trkpt lat="45.37964" lon="3.85932">
        <ele>1051.7</ele>
      </trkpt>
      <trkpt lat="45.37981" lon="3.85946">
        <ele>1050.3</ele>
      </trkpt>
      <trkpt lat="45.37997" lon="3.8596">
        <ele>1049.3</ele>
      </trkpt>
      <trkpt lat="45.38007" lon="3.85972">
        <ele>1048.5</ele>
      </trkpt>
      <trkpt lat="45.38018" lon="3.85983">
        <ele>1047.7</ele>
      </trkpt>
      <trkpt lat="45.38022" lon="3.8599">
        <ele>1047.2</ele>
      </trkpt>
      <trkpt lat="45.38028" lon="3.86002">
        <ele>1046.3</ele>
      </trkpt>
      <trkpt lat="45.38031" lon="3.8601">
        <ele>1046.1</ele>
      </trkpt>
      <trkpt lat="45.38034" lon="3.86023">
        <ele>1045.8</ele>
      </trkpt>
      <trkpt lat="45.38039" lon="3.86023">
        <ele>1046</ele>
      </trkpt>
      <trkpt lat="45.38044" lon="3.86026">
        <ele>1046.2</ele>
      </trkpt>
      <trkpt lat="45.38053" lon="3.8604">
        <ele>1046.5</ele>
      </trkpt>
      <trkpt lat="45.3806" lon="3.8605">
        <ele>1047</ele>
      </trkpt>
      <trkpt lat="45.38067" lon="3.86055">
        <ele>1047.6</ele>
      </trkpt>
      <trkpt lat="45.38068" lon="3.86062">
        <ele>1047.9</ele>
      </trkpt>
      <trkpt lat="45.38074" lon="3.86074">
        <ele>1048.7</ele>
      </trkpt>
      <trkpt lat="45.38082" lon="3.86086">
        <ele>1050</ele>
      </trkpt>
      <trkpt lat="45.38088" lon="3.86094">
        <ele>1051.1</ele>
      </trkpt>
      <trkpt lat="45.38099" lon="3.86108">
        <ele>1053.1</ele>
      </trkpt>
      <trkpt lat="45.38106" lon="3.86116">
        <ele>1054.3</ele>
      </trkpt>
      <trkpt lat="45.38117" lon="3.86122">
        <ele>1055.8</ele>
      </trkpt>
      <trkpt lat="45.38127" lon="3.86129">
        <ele>1057.4</ele>
      </trkpt>
      <trkpt lat="45.38147" lon="3.86136">
        <ele>1059.8</ele>
      </trkpt>
      <trkpt lat="45.38165" lon="3.86143">
        <ele>1062.4</ele>
      </trkpt>
      <trkpt lat="45.38183" lon="3.8615">
        <ele>1063.9</ele>
      </trkpt>
      <trkpt lat="45.38191" lon="3.86155">
        <ele>1064.8</ele>
      </trkpt>
      <trkpt lat="45.38197" lon="3.86161">
        <ele>1065.6</ele>
      </trkpt>
      <trkpt lat="45.38203" lon="3.86166">
        <ele>1066.4</ele>
      </trkpt>
      <trkpt lat="45.38211" lon="3.86178">
        <ele>1067.3</ele>
      </trkpt>
      <trkpt lat="45.38217" lon="3.8619">
        <ele>1068.3</ele>
      </trkpt>
      <trkpt lat="45.38225" lon="3.86206">
        <ele>1069.5</ele>
      </trkpt>
      <trkpt lat="45.38229" lon="3.86213">
        <ele>1070.1</ele>
      </trkpt>
      <trkpt lat="45.38246" lon="3.86234">
        <ele>1071.8</ele>
      </trkpt>
      <trkpt lat="45.38263" lon="3.86254">
        <ele>1071.8</ele>
      </trkpt>
      <trkpt lat="45.38274" lon="3.86266">
        <ele>1071</ele>
      </trkpt>
      <trkpt lat="45.38274" lon="3.86266">
        <ele>1071</ele>
      </trkpt>
      <trkpt lat="45.38285" lon="3.86277">
        <ele>1070.2</ele>
      </trkpt>
      <trkpt lat="45.38302" lon="3.86295">
        <ele>1069.2</ele>
      </trkpt>
      <trkpt lat="45.38319" lon="3.86313">
        <ele>1068.4</ele>
      </trkpt>
      <trkpt lat="45.38334" lon="3.86319">
        <ele>1067.5</ele>
      </trkpt>
      <trkpt lat="45.38355" lon="3.86322">
        <ele>1066.9</ele>
      </trkpt>
      <trkpt lat="45.38372" lon="3.86323">
        <ele>1066.3</ele>
      </trkpt>
      <trkpt lat="45.38385" lon="3.86318">
        <ele>1065.8</ele>
      </trkpt>
      <trkpt lat="45.38398" lon="3.86313">
        <ele>1065.3</ele>
      </trkpt>
      <trkpt lat="45.38412" lon="3.863">
        <ele>1064.7</ele>
      </trkpt>
      <trkpt lat="45.38427" lon="3.86288">
        <ele>1065.1</ele>
      </trkpt>
      <trkpt lat="45.38442" lon="3.86275">
        <ele>1065.9</ele>
      </trkpt>
      <trkpt lat="45.38459" lon="3.86258">
        <ele>1067</ele>
      </trkpt>
      <trkpt lat="45.38476" lon="3.86241">
        <ele>1067.8</ele>
      </trkpt>
      <trkpt lat="45.38491" lon="3.86229">
        <ele>1068.2</ele>
      </trkpt>
      <trkpt lat="45.38507" lon="3.86217">
        <ele>1067.9</ele>
      </trkpt>
      <trkpt lat="45.38517" lon="3.86211">
        <ele>1067.2</ele>
      </trkpt>
      <trkpt lat="45.38535" lon="3.86206">
        <ele>1066.2</ele>
      </trkpt>
      <trkpt lat="45.38553" lon="3.862">
        <ele>1065.1</ele>
      </trkpt>
      <trkpt lat="45.38567" lon="3.86198">
        <ele>1064.3</ele>
      </trkpt>
      <trkpt lat="45.3858" lon="3.86195">
        <ele>1063.5</ele>
      </trkpt>
      <trkpt lat="45.38586" lon="3.86196">
        <ele>1063.3</ele>
      </trkpt>
      <trkpt lat="45.38591" lon="3.86197">
        <ele>1063.2</ele>
      </trkpt>
      <trkpt lat="45.38596" lon="3.86201">
        <ele>1063.3</ele>
      </trkpt>
      <trkpt lat="45.38604" lon="3.86208">
        <ele>1063.5</ele>
      </trkpt>
      <trkpt lat="45.38615" lon="3.86219">
        <ele>1063.9</ele>
      </trkpt>
      <trkpt lat="45.38625" lon="3.86229">
        <ele>1064.3</ele>
      </trkpt>
      <trkpt lat="45.38634" lon="3.86235">
        <ele>1064.1</ele>
      </trkpt>
      <trkpt lat="45.38652" lon="3.86237">
        <ele>1062.9</ele>
      </trkpt>
      <trkpt lat="45.38668" lon="3.86238">
        <ele>1061.8</ele>
      </trkpt>
      <trkpt lat="45.38684" lon="3.8624">
        <ele>1061.3</ele>
      </trkpt>
      <trkpt lat="45.38701" lon="3.8624">
        <ele>1060.6</ele>
      </trkpt>
      <trkpt lat="45.38701" lon="3.8624">
        <ele>1060.6</ele>
      </trkpt>
      <trkpt lat="45.38715" lon="3.86239">
        <ele>1059.9</ele>
      </trkpt>
      <trkpt lat="45.38721" lon="3.86238">
        <ele>1059.5</ele>
      </trkpt>
      <trkpt lat="45.38734" lon="3.86233">
        <ele>1058.3</ele>
      </trkpt>
      <trkpt lat="45.38747" lon="3.86229">
        <ele>1057.1</ele>
      </trkpt>
      <trkpt lat="45.38756" lon="3.86227">
        <ele>1056.7</ele>
      </trkpt>
      <trkpt lat="45.38767" lon="3.86226">
        <ele>1056.6</ele>
      </trkpt>
      <trkpt lat="45.38779" lon="3.86225">
        <ele>1056.5</ele>
      </trkpt>
      <trkpt lat="45.38791" lon="3.86223">
        <ele>1056.3</ele>
      </trkpt>
      <trkpt lat="45.38803" lon="3.86222">
        <ele>1056.1</ele>
      </trkpt>
      <trkpt lat="45.38814" lon="3.8622">
        <ele>1055.9</ele>
      </trkpt>
      <trkpt lat="45.38825" lon="3.86216">
        <ele>1055.5</ele>
      </trkpt>
      <trkpt lat="45.38832" lon="3.86214">
        <ele>1055.2</ele>
      </trkpt>
      <trkpt lat="45.38844" lon="3.86206">
        <ele>1053.8</ele>
      </trkpt>
      <trkpt lat="45.3885" lon="3.86201">
        <ele>1053</ele>
      </trkpt>
      <trkpt lat="45.38859" lon="3.86192">
        <ele>1051.6</ele>
      </trkpt>
      <trkpt lat="45.38868" lon="3.86182">
        <ele>1050.3</ele>
      </trkpt>
      <trkpt lat="45.38877" lon="3.86172">
        <ele>1049.1</ele>
      </trkpt>
      <trkpt lat="45.38887" lon="3.86162">
        <ele>1048.2</ele>
      </trkpt>
      <trkpt lat="45.38897" lon="3.86152">
        <ele>1047.8</ele>
      </trkpt>
      <trkpt lat="45.38911" lon="3.86137">
        <ele>1047.3</ele>
      </trkpt>
      <trkpt lat="45.38917" lon="3.8613">
        <ele>1047.1</ele>
      </trkpt>
      <trkpt lat="45.38921" lon="3.86123">
        <ele>1046.9</ele>
      </trkpt>
      <trkpt lat="45.38927" lon="3.86114">
        <ele>1046.8</ele>
      </trkpt>
      <trkpt lat="45.38934" lon="3.86101">
        <ele>1046.6</ele>
      </trkpt>
      <trkpt lat="45.38945" lon="3.86075">
        <ele>1046.6</ele>
      </trkpt>
      <trkpt lat="45.38956" lon="3.86049">
        <ele>1046.9</ele>
      </trkpt>
      <trkpt lat="45.3896" lon="3.86039">
        <ele>1047.1</ele>
      </trkpt>
      <trkpt lat="45.38957" lon="3.8603">
        <ele>1046.9</ele>
      </trkpt>
      <trkpt lat="45.38954" lon="3.86016">
        <ele>1046.7</ele>
      </trkpt>
      <trkpt lat="45.38951" lon="3.86">
        <ele>1046.5</ele>
      </trkpt>
      <trkpt lat="45.38949" lon="3.85985">
        <ele>1046.3</ele>
      </trkpt>
      <trkpt lat="45.38955" lon="3.85966">
        <ele>1046.8</ele>
      </trkpt>
      <trkpt lat="45.38962" lon="3.85947">
        <ele>1047.2</ele>
      </trkpt>
      <trkpt lat="45.38967" lon="3.85919">
        <ele>1047.6</ele>
      </trkpt>
      <trkpt lat="45.38969" lon="3.85907">
        <ele>1048.1</ele>
      </trkpt>
      <trkpt lat="45.38973" lon="3.85895">
        <ele>1048.8</ele>
      </trkpt>
      <trkpt lat="45.38977" lon="3.85886">
        <ele>1049.4</ele>
      </trkpt>
      <trkpt lat="45.38981" lon="3.85876">
        <ele>1050.1</ele>
      </trkpt>
      <trkpt lat="45.38981" lon="3.85867">
        <ele>1050.5</ele>
      </trkpt>
      <trkpt lat="45.38981" lon="3.85855">
        <ele>1050.9</ele>
      </trkpt>
      <trkpt lat="45.38981" lon="3.85838">
        <ele>1051.5</ele>
      </trkpt>
      <trkpt lat="45.38981" lon="3.85838">
        <ele>1051.5</ele>
      </trkpt>
      <trkpt lat="45.3898" lon="3.8582">
        <ele>1051.9</ele>
      </trkpt>
      <trkpt lat="45.3898" lon="3.85802">
        <ele>1052.3</ele>
      </trkpt>
      <trkpt lat="45.3898" lon="3.85784">
        <ele>1052.6</ele>
      </trkpt>
      <trkpt lat="45.38981" lon="3.85757">
        <ele>1053.3</ele>
      </trkpt>
      <trkpt lat="45.3898" lon="3.85744">
        <ele>1053.4</ele>
      </trkpt>
      <trkpt lat="45.38974" lon="3.85728">
        <ele>1053.4</ele>
      </trkpt>
      <trkpt lat="45.3897" lon="3.85715">
        <ele>1053.3</ele>
      </trkpt>
      <trkpt lat="45.38967" lon="3.85705">
        <ele>1053.3</ele>
      </trkpt>
      <trkpt lat="45.38966" lon="3.85696">
        <ele>1053.4</ele>
      </trkpt>
      <trkpt lat="45.38964" lon="3.85686">
        <ele>1053.5</ele>
      </trkpt>
      <trkpt lat="45.38964" lon="3.85677">
        <ele>1053.7</ele>
      </trkpt>
      <trkpt lat="45.38964" lon="3.85667">
        <ele>1054</ele>
      </trkpt>
      <trkpt lat="45.38964" lon="3.85658">
        <ele>1054.4</ele>
      </trkpt>
      <trkpt lat="45.38966" lon="3.85644">
        <ele>1055.1</ele>
      </trkpt>
      <trkpt lat="45.38969" lon="3.85624">
        <ele>1056.3</ele>
      </trkpt>
      <trkpt lat="45.3897" lon="3.85604">
        <ele>1057.3</ele>
      </trkpt>
      <trkpt lat="45.38963" lon="3.85596">
        <ele>1056.9</ele>
      </trkpt>
      <trkpt lat="45.38967" lon="3.85592">
        <ele>1057.5</ele>
      </trkpt>
      <trkpt lat="45.38967" lon="3.85581">
        <ele>1057.9</ele>
      </trkpt>
      <trkpt lat="45.38964" lon="3.85557">
        <ele>1058.3</ele>
      </trkpt>
      <trkpt lat="45.38962" lon="3.85534">
        <ele>1058.8</ele>
      </trkpt>
      <trkpt lat="45.3896" lon="3.85517">
        <ele>1059.1</ele>
      </trkpt>
      <trkpt lat="45.38958" lon="3.85501">
        <ele>1059.5</ele>
      </trkpt>
      <trkpt lat="45.38958" lon="3.85492">
        <ele>1059.3</ele>
      </trkpt>
      <trkpt lat="45.38957" lon="3.85485">
        <ele>1059.1</ele>
      </trkpt>
      <trkpt lat="45.38952" lon="3.85479">
        <ele>1058.6</ele>
      </trkpt>
      <trkpt lat="45.38957" lon="3.85454">
        <ele>1058.5</ele>
      </trkpt>
      <trkpt lat="45.38958" lon="3.85437">
        <ele>1058.3</ele>
      </trkpt>
      <trkpt lat="45.3896" lon="3.85419">
        <ele>1058.2</ele>
      </trkpt>
      <trkpt lat="45.3896" lon="3.85402">
        <ele>1057.3</ele>
      </trkpt>
      <trkpt lat="45.3896" lon="3.85393">
        <ele>1056.8</ele>
      </trkpt>
      <trkpt lat="45.38961" lon="3.85375">
        <ele>1055.7</ele>
      </trkpt>
      <trkpt lat="45.38963" lon="3.85364">
        <ele>1055.2</ele>
      </trkpt>
      <trkpt lat="45.38966" lon="3.8535">
        <ele>1054.6</ele>
      </trkpt>
      <trkpt lat="45.38969" lon="3.8534">
        <ele>1054.2</ele>
      </trkpt>
      <trkpt lat="45.3897" lon="3.85332">
        <ele>1053.8</ele>
      </trkpt>
      <trkpt lat="45.38973" lon="3.85315">
        <ele>1053.4</ele>
      </trkpt>
      <trkpt lat="45.38975" lon="3.85299">
        <ele>1053</ele>
      </trkpt>
      <trkpt lat="45.38977" lon="3.85284">
        <ele>1052.6</ele>
      </trkpt>
      <trkpt lat="45.38979" lon="3.85258">
        <ele>1052</ele>
      </trkpt>
      <trkpt lat="45.3898" lon="3.85242">
        <ele>1051.5</ele>
      </trkpt>
      <trkpt lat="45.38981" lon="3.85225">
        <ele>1050.8</ele>
      </trkpt>
      <trkpt lat="45.38983" lon="3.85207">
        <ele>1050.2</ele>
      </trkpt>
      <trkpt lat="45.38985" lon="3.85189">
        <ele>1049.6</ele>
      </trkpt>
      <trkpt lat="45.38985" lon="3.85189">
        <ele>1049.6</ele>
      </trkpt>
      <trkpt lat="45.38986" lon="3.85171">
        <ele>1048.9</ele>
      </trkpt>
      <trkpt lat="45.38988" lon="3.85147">
        <ele>1048</ele>
      </trkpt>
      <trkpt lat="45.38991" lon="3.85122">
        <ele>1047.1</ele>
      </trkpt>
      <trkpt lat="45.38992" lon="3.85116">
        <ele>1047</ele>
      </trkpt>
      <trkpt lat="45.38985" lon="3.85103">
        <ele>1045.9</ele>
      </trkpt>
      <trkpt lat="45.3898" lon="3.851">
        <ele>1045.4</ele>
      </trkpt>
      <trkpt lat="45.38975" lon="3.85101">
        <ele>1045.2</ele>
      </trkpt>
      <trkpt lat="45.38969" lon="3.85107">
        <ele>1045</ele>
      </trkpt>
      <trkpt lat="45.38958" lon="3.85114">
        <ele>1044.4</ele>
      </trkpt>
      <trkpt lat="45.38952" lon="3.85113">
        <ele>1043.9</ele>
      </trkpt>
      <trkpt lat="45.38949" lon="3.85104">
        <ele>1043.5</ele>
      </trkpt>
      <trkpt lat="45.38944" lon="3.85097">
        <ele>1043</ele>
      </trkpt>
      <trkpt lat="45.3894" lon="3.85092">
        <ele>1042.6</ele>
      </trkpt>
      <trkpt lat="45.38935" lon="3.85088">
        <ele>1042.2</ele>
      </trkpt>
      <trkpt lat="45.38928" lon="3.85083">
        <ele>1041.6</ele>
      </trkpt>
      <trkpt lat="45.3892" lon="3.85078">
        <ele>1041.1</ele>
      </trkpt>
      <trkpt lat="45.38914" lon="3.85076">
        <ele>1040.5</ele>
      </trkpt>
      <trkpt lat="45.38918" lon="3.85059">
        <ele>1040.5</ele>
      </trkpt>
      <trkpt lat="45.3892" lon="3.85048">
        <ele>1040.3</ele>
      </trkpt>
      <trkpt lat="45.38921" lon="3.8504">
        <ele>1040.2</ele>
      </trkpt>
      <trkpt lat="45.38922" lon="3.85028">
        <ele>1039.9</ele>
      </trkpt>
      <trkpt lat="45.38923" lon="3.85005">
        <ele>1039.3</ele>
      </trkpt>
      <trkpt lat="45.38924" lon="3.84996">
        <ele>1039.1</ele>
      </trkpt>
      <trkpt lat="45.38926" lon="3.84985">
        <ele>1038.9</ele>
      </trkpt>
      <trkpt lat="45.38931" lon="3.84969">
        <ele>1038.6</ele>
      </trkpt>
      <trkpt lat="45.38938" lon="3.84952">
        <ele>1038.2</ele>
      </trkpt>
      <trkpt lat="45.38947" lon="3.84935">
        <ele>1037.7</ele>
      </trkpt>
      <trkpt lat="45.38955" lon="3.84921">
        <ele>1037.2</ele>
      </trkpt>
      <trkpt lat="45.38964" lon="3.84907">
        <ele>1036.7</ele>
      </trkpt>
      <trkpt lat="45.38973" lon="3.84892">
        <ele>1036.2</ele>
      </trkpt>
      <trkpt lat="45.38982" lon="3.84877">
        <ele>1035.5</ele>
      </trkpt>
      <trkpt lat="45.3899" lon="3.84862">
        <ele>1034.7</ele>
      </trkpt>
      <trkpt lat="45.38999" lon="3.84847">
        <ele>1033.7</ele>
      </trkpt>
      <trkpt lat="45.39005" lon="3.84834">
        <ele>1032.7</ele>
      </trkpt>
      <trkpt lat="45.39011" lon="3.84825">
        <ele>1032.2</ele>
      </trkpt>
      <trkpt lat="45.39017" lon="3.84809">
        <ele>1031.6</ele>
      </trkpt>
      <trkpt lat="45.39021" lon="3.84798">
        <ele>1031.1</ele>
      </trkpt>
      <trkpt lat="45.39027" lon="3.84774">
        <ele>1030.2</ele>
      </trkpt>
      <trkpt lat="45.3903" lon="3.84756">
        <ele>1029.6</ele>
      </trkpt>
      <trkpt lat="45.39034" lon="3.84734">
        <ele>1028.1</ele>
      </trkpt>
      <trkpt lat="45.39038" lon="3.84713">
        <ele>1026.2</ele>
      </trkpt>
      <trkpt lat="45.39043" lon="3.84682">
        <ele>1023.4</ele>
      </trkpt>
      <trkpt lat="45.39049" lon="3.84651">
        <ele>1021.1</ele>
      </trkpt>
      <trkpt lat="45.39049" lon="3.84651">
        <ele>1021.1</ele>
      </trkpt>
      <trkpt lat="45.39052" lon="3.84629">
        <ele>1019.9</ele>
      </trkpt>
      <trkpt lat="45.39053" lon="3.84615">
        <ele>1019.2</ele>
      </trkpt>
      <trkpt lat="45.39053" lon="3.84607">
        <ele>1018.8</ele>
      </trkpt>
      <trkpt lat="45.39053" lon="3.84595">
        <ele>1018.4</ele>
      </trkpt>
      <trkpt lat="45.39052" lon="3.84569">
        <ele>1016.4</ele>
      </trkpt>
      <trkpt lat="45.39051" lon="3.84552">
        <ele>1014.8</ele>
      </trkpt>
      <trkpt lat="45.3905" lon="3.84535">
        <ele>1013.1</ele>
      </trkpt>
      <trkpt lat="45.39051" lon="3.84521">
        <ele>1011.5</ele>
      </trkpt>
      <trkpt lat="45.39054" lon="3.84509">
        <ele>1010</ele>
      </trkpt>
      <trkpt lat="45.39059" lon="3.845">
        <ele>1008.8</ele>
      </trkpt>
      <trkpt lat="45.39063" lon="3.84496">
        <ele>1008.2</ele>
      </trkpt>
      <trkpt lat="45.3907" lon="3.84492">
        <ele>1007.3</ele>
      </trkpt>
      <trkpt lat="45.39075" lon="3.8449">
        <ele>1006.8</ele>
      </trkpt>
      <trkpt lat="45.39087" lon="3.84489">
        <ele>1006.1</ele>
      </trkpt>
      <trkpt lat="45.39095" lon="3.84488">
        <ele>1005.8</ele>
      </trkpt>
      <trkpt lat="45.391" lon="3.84486">
        <ele>1005.6</ele>
      </trkpt>
      <trkpt lat="45.39106" lon="3.84482">
        <ele>1005.3</ele>
      </trkpt>
      <trkpt lat="45.39111" lon="3.84476">
        <ele>1004.8</ele>
      </trkpt>
      <trkpt lat="45.39114" lon="3.84471">
        <ele>1004.6</ele>
      </trkpt>
      <trkpt lat="45.39118" lon="3.84459">
        <ele>1004</ele>
      </trkpt>
      <trkpt lat="45.3912" lon="3.84448">
        <ele>1003.6</ele>
      </trkpt>
      <trkpt lat="45.39122" lon="3.84425">
        <ele>1002.7</ele>
      </trkpt>
      <trkpt lat="45.39123" lon="3.84417">
        <ele>1002.4</ele>
      </trkpt>
      <trkpt lat="45.39125" lon="3.84395">
        <ele>1002.6</ele>
      </trkpt>
      <trkpt lat="45.39127" lon="3.84372">
        <ele>1002.9</ele>
      </trkpt>
      <trkpt lat="45.39129" lon="3.84348">
        <ele>1003.4</ele>
      </trkpt>
      <trkpt lat="45.39132" lon="3.84324">
        <ele>1003.9</ele>
      </trkpt>
      <trkpt lat="45.39134" lon="3.843">
        <ele>1004.2</ele>
      </trkpt>
      <trkpt lat="45.39137" lon="3.84275">
        <ele>1004.5</ele>
      </trkpt>
      <trkpt lat="45.39139" lon="3.84251">
        <ele>1004.7</ele>
      </trkpt>
      <trkpt lat="45.39142" lon="3.84226">
        <ele>1003.6</ele>
      </trkpt>
      <trkpt lat="45.39144" lon="3.84204">
        <ele>1002.4</ele>
      </trkpt>
      <trkpt lat="45.39147" lon="3.84181">
        <ele>1001.2</ele>
      </trkpt>
      <trkpt lat="45.39148" lon="3.84172">
        <ele>1000.6</ele>
      </trkpt>
      <trkpt lat="45.3915" lon="3.84155">
        <ele>1000.2</ele>
      </trkpt>
      <trkpt lat="45.39152" lon="3.84139">
        <ele>1000.1</ele>
      </trkpt>
      <trkpt lat="45.39154" lon="3.84112">
        <ele>999.8</ele>
      </trkpt>
      <trkpt lat="45.39155" lon="3.84095">
        <ele>999.6</ele>
      </trkpt>
      <trkpt lat="45.39156" lon="3.84077">
        <ele>999.2</ele>
      </trkpt>
      <trkpt lat="45.39158" lon="3.84059">
        <ele>998.4</ele>
      </trkpt>
      <trkpt lat="45.39158" lon="3.84059">
        <ele>998.4</ele>
      </trkpt>
      <trkpt lat="45.3916" lon="3.84041">
        <ele>997.6</ele>
      </trkpt>
      <trkpt lat="45.39162" lon="3.84016">
        <ele>996.5</ele>
      </trkpt>
      <trkpt lat="45.39165" lon="3.83991">
        <ele>995.6</ele>
      </trkpt>
      <trkpt lat="45.39168" lon="3.83971">
        <ele>995</ele>
      </trkpt>
      <trkpt lat="45.39171" lon="3.8395">
        <ele>994.3</ele>
      </trkpt>
      <trkpt lat="45.39174" lon="3.83932">
        <ele>993.7</ele>
      </trkpt>
      <trkpt lat="45.39176" lon="3.83914">
        <ele>993.1</ele>
      </trkpt>
      <trkpt lat="45.3918" lon="3.83896">
        <ele>992.4</ele>
      </trkpt>
      <trkpt lat="45.39184" lon="3.83877">
        <ele>991.7</ele>
      </trkpt>
      <trkpt lat="45.39187" lon="3.83857">
        <ele>990.8</ele>
      </trkpt>
      <trkpt lat="45.39191" lon="3.83837">
        <ele>989.9</ele>
      </trkpt>
      <trkpt lat="45.39193" lon="3.83826">
        <ele>989.2</ele>
      </trkpt>
      <trkpt lat="45.39198" lon="3.83803">
        <ele>987.7</ele>
      </trkpt>
      <trkpt lat="45.39202" lon="3.83784">
        <ele>986.4</ele>
      </trkpt>
      <trkpt lat="45.39205" lon="3.83764">
        <ele>985</ele>
      </trkpt>
      <trkpt lat="45.39208" lon="3.83752">
        <ele>984.2</ele>
      </trkpt>
      <trkpt lat="45.3921" lon="3.83734">
        <ele>983.1</ele>
      </trkpt>
      <trkpt lat="45.39213" lon="3.83717">
        <ele>982.1</ele>
      </trkpt>
      <trkpt lat="45.39215" lon="3.837">
        <ele>981.1</ele>
      </trkpt>
      <trkpt lat="45.3922" lon="3.83674">
        <ele>979.5</ele>
      </trkpt>
      <trkpt lat="45.39222" lon="3.83663">
        <ele>978.9</ele>
      </trkpt>
      <trkpt lat="45.39226" lon="3.8365">
        <ele>978.4</ele>
      </trkpt>
      <trkpt lat="45.39232" lon="3.83633">
        <ele>977.7</ele>
      </trkpt>
      <trkpt lat="45.3924" lon="3.83611">
        <ele>976.9</ele>
      </trkpt>
      <trkpt lat="45.39248" lon="3.8359">
        <ele>976.2</ele>
      </trkpt>
      <trkpt lat="45.39256" lon="3.83569">
        <ele>974.9</ele>
      </trkpt>
      <trkpt lat="45.39258" lon="3.83562">
        <ele>974.4</ele>
      </trkpt>
      <trkpt lat="45.39261" lon="3.83554">
        <ele>973.8</ele>
      </trkpt>
      <trkpt lat="45.39263" lon="3.83546">
        <ele>973.3</ele>
      </trkpt>
      <trkpt lat="45.39265" lon="3.83536">
        <ele>972.7</ele>
      </trkpt>
      <trkpt lat="45.39269" lon="3.83508">
        <ele>971</ele>
      </trkpt>
      <trkpt lat="45.39274" lon="3.83478">
        <ele>970.8</ele>
      </trkpt>
      <trkpt lat="45.39278" lon="3.83447">
        <ele>971.2</ele>
      </trkpt>
      <trkpt lat="45.39281" lon="3.83425">
        <ele>971.4</ele>
      </trkpt>
      <trkpt lat="45.39283" lon="3.83416">
        <ele>971.5</ele>
      </trkpt>
      <trkpt lat="45.39283" lon="3.83416">
        <ele>971.5</ele>
      </trkpt>
      <trkpt lat="45.39286" lon="3.83406">
        <ele>972.1</ele>
      </trkpt>
      <trkpt lat="45.39289" lon="3.834">
        <ele>972.3</ele>
      </trkpt>
      <trkpt lat="45.39293" lon="3.83393">
        <ele>972.6</ele>
      </trkpt>
      <trkpt lat="45.39304" lon="3.83379">
        <ele>973.1</ele>
      </trkpt>
      <trkpt lat="45.3932" lon="3.83361">
        <ele>973.7</ele>
      </trkpt>
      <trkpt lat="45.39334" lon="3.83345">
        <ele>974.1</ele>
      </trkpt>
      <trkpt lat="45.39339" lon="3.83339">
        <ele>974.3</ele>
      </trkpt>
      <trkpt lat="45.39343" lon="3.83332">
        <ele>974.6</ele>
      </trkpt>
      <trkpt lat="45.39347" lon="3.83324">
        <ele>975.4</ele>
      </trkpt>
      <trkpt lat="45.39351" lon="3.83315">
        <ele>976.2</ele>
      </trkpt>
      <trkpt lat="45.39355" lon="3.83306">
        <ele>977</ele>
      </trkpt>
      <trkpt lat="45.39361" lon="3.83291">
        <ele>978.3</ele>
      </trkpt>
      <trkpt lat="45.3937" lon="3.83267">
        <ele>979.9</ele>
      </trkpt>
      <trkpt lat="45.39381" lon="3.83243">
        <ele>980.5</ele>
      </trkpt>
      <trkpt lat="45.39392" lon="3.83219">
        <ele>980.5</ele>
      </trkpt>
      <trkpt lat="45.39403" lon="3.83195">
        <ele>980.9</ele>
      </trkpt>
      <trkpt lat="45.39415" lon="3.83171">
        <ele>981.8</ele>
      </trkpt>
      <trkpt lat="45.39424" lon="3.83151">
        <ele>982.4</ele>
      </trkpt>
      <trkpt lat="45.39431" lon="3.83138">
        <ele>982.7</ele>
      </trkpt>
      <trkpt lat="45.39437" lon="3.83131">
        <ele>982.8</ele>
      </trkpt>
      <trkpt lat="45.39443" lon="3.83121">
        <ele>982.8</ele>
      </trkpt>
      <trkpt lat="45.39455" lon="3.83104">
        <ele>982.7</ele>
      </trkpt>
      <trkpt lat="45.39465" lon="3.83092">
        <ele>982.6</ele>
      </trkpt>
      <trkpt lat="45.39474" lon="3.83079">
        <ele>982.5</ele>
      </trkpt>
      <trkpt lat="45.39486" lon="3.83063">
        <ele>982.8</ele>
      </trkpt>
      <trkpt lat="45.39499" lon="3.83046">
        <ele>983.3</ele>
      </trkpt>
      <trkpt lat="45.39509" lon="3.83032">
        <ele>984.1</ele>
      </trkpt>
      <trkpt lat="45.3952" lon="3.83017">
        <ele>984.7</ele>
      </trkpt>
      <trkpt lat="45.39524" lon="3.8301">
        <ele>984.9</ele>
      </trkpt>
      <trkpt lat="45.39528" lon="3.83003">
        <ele>985.2</ele>
      </trkpt>
      <trkpt lat="45.39532" lon="3.82994">
        <ele>985.4</ele>
      </trkpt>
      <trkpt lat="45.39541" lon="3.82971">
        <ele>985.7</ele>
      </trkpt>
      <trkpt lat="45.39546" lon="3.82958">
        <ele>985.9</ele>
      </trkpt>
      <trkpt lat="45.39555" lon="3.82938">
        <ele>986.2</ele>
      </trkpt>
      <trkpt lat="45.39558" lon="3.82932">
        <ele>986.3</ele>
      </trkpt>
      <trkpt lat="45.39561" lon="3.82919">
        <ele>986.5</ele>
      </trkpt>
      <trkpt lat="45.39564" lon="3.829">
        <ele>987.5</ele>
      </trkpt>
      <trkpt lat="45.39564" lon="3.829">
        <ele>987.5</ele>
      </trkpt>
      <trkpt lat="45.39567" lon="3.82883">
        <ele>988.5</ele>
      </trkpt>
      <trkpt lat="45.39575" lon="3.82862">
        <ele>989.9</ele>
      </trkpt>
      <trkpt lat="45.39583" lon="3.82841">
        <ele>991.4</ele>
      </trkpt>
      <trkpt lat="45.39585" lon="3.82832">
        <ele>992.1</ele>
      </trkpt>
      <trkpt lat="45.39581" lon="3.82826">
        <ele>992.5</ele>
      </trkpt>
      <trkpt lat="45.39569" lon="3.82799">
        <ele>994.2</ele>
      </trkpt>
      <trkpt lat="45.3956" lon="3.8278">
        <ele>995.1</ele>
      </trkpt>
      <trkpt lat="45.39557" lon="3.82773">
        <ele>995.3</ele>
      </trkpt>
      <trkpt lat="45.39543" lon="3.82751">
        <ele>995.6</ele>
      </trkpt>
      <trkpt lat="45.39543" lon="3.82739">
        <ele>996.1</ele>
      </trkpt>
      <trkpt lat="45.3954" lon="3.82731">
        <ele>996.3</ele>
      </trkpt>
      <trkpt lat="45.39539" lon="3.82724">
        <ele>996.4</ele>
      </trkpt>
      <trkpt lat="45.39536" lon="3.82707">
        <ele>996.9</ele>
      </trkpt>
      <trkpt lat="45.39535" lon="3.82698">
        <ele>997.2</ele>
      </trkpt>
      <trkpt lat="45.39541" lon="3.82689">
        <ele>998.3</ele>
      </trkpt>
      <trkpt lat="45.39542" lon="3.82682">
        <ele>998.8</ele>
      </trkpt>
      <trkpt lat="45.39544" lon="3.82658">
        <ele>1000.1</ele>
      </trkpt>
      <trkpt lat="45.39546" lon="3.82636">
        <ele>1001.2</ele>
      </trkpt>
      <trkpt lat="45.39548" lon="3.82621">
        <ele>1002</ele>
      </trkpt>
      <trkpt lat="45.39549" lon="3.82609">
        <ele>1002.5</ele>
      </trkpt>
      <trkpt lat="45.39551" lon="3.82591">
        <ele>1003.4</ele>
      </trkpt>
      <trkpt lat="45.39552" lon="3.82574">
        <ele>1004.3</ele>
      </trkpt>
      <trkpt lat="45.39556" lon="3.82551">
        <ele>1006</ele>
      </trkpt>
      <trkpt lat="45.3956" lon="3.8253">
        <ele>1007.5</ele>
      </trkpt>
      <trkpt lat="45.39564" lon="3.82509">
        <ele>1009.1</ele>
      </trkpt>
      <trkpt lat="45.39568" lon="3.8249">
        <ele>1010.6</ele>
      </trkpt>
      <trkpt lat="45.39576" lon="3.82467">
        <ele>1013</ele>
      </trkpt>
      <trkpt lat="45.39584" lon="3.82444">
        <ele>1015.4</ele>
      </trkpt>
      <trkpt lat="45.39597" lon="3.8242">
        <ele>1018.5</ele>
      </trkpt>
      <trkpt lat="45.3961" lon="3.82396">
        <ele>1021.2</ele>
      </trkpt>
      <trkpt lat="45.39623" lon="3.82372">
        <ele>1024.5</ele>
      </trkpt>
      <trkpt lat="45.39631" lon="3.82358">
        <ele>1026.9</ele>
      </trkpt>
      <trkpt lat="45.39639" lon="3.82345">
        <ele>1029.6</ele>
      </trkpt>
      <trkpt lat="45.39651" lon="3.82328">
        <ele>1033</ele>
      </trkpt>
      <trkpt lat="45.39661" lon="3.82318">
        <ele>1034.9</ele>
      </trkpt>
      <trkpt lat="45.39661" lon="3.82318">
        <ele>1034.9</ele>
      </trkpt>
      <trkpt lat="45.39673" lon="3.82309">
        <ele>1036.8</ele>
      </trkpt>
      <trkpt lat="45.39687" lon="3.82295">
        <ele>1038.6</ele>
      </trkpt>
      <trkpt lat="45.39691" lon="3.82291">
        <ele>1039.1</ele>
      </trkpt>
      <trkpt lat="45.39698" lon="3.82281">
        <ele>1039.9</ele>
      </trkpt>
      <trkpt lat="45.39702" lon="3.82271">
        <ele>1040.3</ele>
      </trkpt>
      <trkpt lat="45.39707" lon="3.82253">
        <ele>1040.8</ele>
      </trkpt>
      <trkpt lat="45.39712" lon="3.82234">
        <ele>1042.4</ele>
      </trkpt>
      <trkpt lat="45.3972" lon="3.82211">
        <ele>1044.9</ele>
      </trkpt>
      <trkpt lat="45.39727" lon="3.82192">
        <ele>1046.7</ele>
      </trkpt>
      <trkpt lat="45.39733" lon="3.82172">
        <ele>1048.4</ele>
      </trkpt>
      <trkpt lat="45.3974" lon="3.82153">
        <ele>1049.7</ele>
      </trkpt>
      <trkpt lat="45.39747" lon="3.82124">
        <ele>1050.6</ele>
      </trkpt>
      <trkpt lat="45.39754" lon="3.82095">
        <ele>1051.1</ele>
      </trkpt>
      <trkpt lat="45.3976" lon="3.82066">
        <ele>1051.9</ele>
      </trkpt>
      <trkpt lat="45.39767" lon="3.82036">
        <ele>1052.7</ele>
      </trkpt>
      <trkpt lat="45.39774" lon="3.82007">
        <ele>1053.3</ele>
      </trkpt>
      <trkpt lat="45.39778" lon="3.81978">
        <ele>1053.9</ele>
      </trkpt>
      <trkpt lat="45.39783" lon="3.81949">
        <ele>1054.5</ele>
      </trkpt>
      <trkpt lat="45.39781" lon="3.81931">
        <ele>1055</ele>
      </trkpt>
      <trkpt lat="45.3978" lon="3.81913">
        <ele>1055.8</ele>
      </trkpt>
      <trkpt lat="45.39781" lon="3.81882">
        <ele>1058.1</ele>
      </trkpt>
      <trkpt lat="45.39783" lon="3.81852">
        <ele>1060.3</ele>
      </trkpt>
      <trkpt lat="45.39784" lon="3.81821">
        <ele>1062</ele>
      </trkpt>
      <trkpt lat="45.39786" lon="3.8179">
        <ele>1063.1</ele>
      </trkpt>
      <trkpt lat="45.39787" lon="3.8176">
        <ele>1064.2</ele>
      </trkpt>
      <trkpt lat="45.39789" lon="3.81729">
        <ele>1064.7</ele>
      </trkpt>
      <trkpt lat="45.3979" lon="3.81698">
        <ele>1064.8</ele>
      </trkpt>
      <trkpt lat="45.39795" lon="3.81674">
        <ele>1064.5</ele>
      </trkpt>
      <trkpt lat="45.39795" lon="3.81674">
        <ele>1064.5</ele>
      </trkpt>
      <trkpt lat="45.39799" lon="3.81649">
        <ele>1064.6</ele>
      </trkpt>
      <trkpt lat="45.39803" lon="3.81624">
        <ele>1065</ele>
      </trkpt>
      <trkpt lat="45.39808" lon="3.81599">
        <ele>1065.4</ele>
      </trkpt>
      <trkpt lat="45.39812" lon="3.81574">
        <ele>1066.1</ele>
      </trkpt>
      <trkpt lat="45.39822" lon="3.81548">
        <ele>1066.8</ele>
      </trkpt>
      <trkpt lat="45.39833" lon="3.81521">
        <ele>1068.2</ele>
      </trkpt>
      <trkpt lat="45.39843" lon="3.81495">
        <ele>1069.3</ele>
      </trkpt>
      <trkpt lat="45.39858" lon="3.81477">
        <ele>1069.3</ele>
      </trkpt>
      <trkpt lat="45.39873" lon="3.81459">
        <ele>1069.9</ele>
      </trkpt>
      <trkpt lat="45.39888" lon="3.81441">
        <ele>1070.9</ele>
      </trkpt>
      <trkpt lat="45.39901" lon="3.81416">
        <ele>1073.4</ele>
      </trkpt>
      <trkpt lat="45.39913" lon="3.81391">
        <ele>1073.7</ele>
      </trkpt>
      <trkpt lat="45.39917" lon="3.81371">
        <ele>1074.1</ele>
      </trkpt>
      <trkpt lat="45.3992" lon="3.81352">
        <ele>1074.3</ele>
      </trkpt>
      <trkpt lat="45.3993" lon="3.81343">
        <ele>1073.9</ele>
      </trkpt>
      <trkpt lat="45.3994" lon="3.81335">
        <ele>1073.6</ele>
      </trkpt>
      <trkpt lat="45.39953" lon="3.81324">
        <ele>1073.2</ele>
      </trkpt>
      <trkpt lat="45.39966" lon="3.81312">
        <ele>1073</ele>
      </trkpt>
      <trkpt lat="45.39979" lon="3.81301">
        <ele>1073.1</ele>
      </trkpt>
      <trkpt lat="45.39989" lon="3.81292">
        <ele>1073.3</ele>
      </trkpt>
      <trkpt lat="45.39998" lon="3.81284">
        <ele>1073.6</ele>
      </trkpt>
      <trkpt lat="45.40011" lon="3.81273">
        <ele>1074.2</ele>
      </trkpt>
      <trkpt lat="45.40024" lon="3.81261">
        <ele>1074.7</ele>
      </trkpt>
      <trkpt lat="45.40038" lon="3.81249">
        <ele>1075.1</ele>
      </trkpt>
      <trkpt lat="45.40052" lon="3.81237">
        <ele>1074.4</ele>
      </trkpt>
      <trkpt lat="45.40065" lon="3.81225">
        <ele>1073.6</ele>
      </trkpt>
      <trkpt lat="45.40076" lon="3.81215">
        <ele>1072.7</ele>
      </trkpt>
      <trkpt lat="45.40087" lon="3.81206">
        <ele>1071.8</ele>
      </trkpt>
      <trkpt lat="45.40101" lon="3.81192">
        <ele>1071</ele>
      </trkpt>
      <trkpt lat="45.40101" lon="3.81192">
        <ele>1071</ele>
      </trkpt>
      <trkpt lat="45.40114" lon="3.81181">
        <ele>1070.4</ele>
      </trkpt>
      <trkpt lat="45.40127" lon="3.8117">
        <ele>1070.1</ele>
      </trkpt>
      <trkpt lat="45.4014" lon="3.81158">
        <ele>1069.5</ele>
      </trkpt>
      <trkpt lat="45.40154" lon="3.81146">
        <ele>1069.1</ele>
      </trkpt>
      <trkpt lat="45.40169" lon="3.81134">
        <ele>1068.8</ele>
      </trkpt>
      <trkpt lat="45.40183" lon="3.81122">
        <ele>1068.3</ele>
      </trkpt>
      <trkpt lat="45.40198" lon="3.81109">
        <ele>1067.9</ele>
      </trkpt>
      <trkpt lat="45.40214" lon="3.81096">
        <ele>1067.8</ele>
      </trkpt>
      <trkpt lat="45.40229" lon="3.81083">
        <ele>1067.7</ele>
      </trkpt>
      <trkpt lat="45.40239" lon="3.81074">
        <ele>1067.3</ele>
      </trkpt>
      <trkpt lat="45.4025" lon="3.81064">
        <ele>1066.9</ele>
      </trkpt>
      <trkpt lat="45.40265" lon="3.81048">
        <ele>1065.7</ele>
      </trkpt>
      <trkpt lat="45.40272" lon="3.81046">
        <ele>1065.6</ele>
      </trkpt>
      <trkpt lat="45.40274" lon="3.81036">
        <ele>1065.1</ele>
      </trkpt>
      <trkpt lat="45.40281" lon="3.81026">
        <ele>1064.6</ele>
      </trkpt>
      <trkpt lat="45.40287" lon="3.81016">
        <ele>1064.1</ele>
      </trkpt>
      <trkpt lat="45.40293" lon="3.81002">
        <ele>1063.6</ele>
      </trkpt>
      <trkpt lat="45.40297" lon="3.8099">
        <ele>1063</ele>
      </trkpt>
      <trkpt lat="45.40302" lon="3.80975">
        <ele>1062.2</ele>
      </trkpt>
      <trkpt lat="45.40307" lon="3.8096">
        <ele>1061.5</ele>
      </trkpt>
      <trkpt lat="45.40316" lon="3.80932">
        <ele>1060.2</ele>
      </trkpt>
      <trkpt lat="45.40325" lon="3.80904">
        <ele>1059.1</ele>
      </trkpt>
      <trkpt lat="45.40333" lon="3.80879">
        <ele>1058.2</ele>
      </trkpt>
      <trkpt lat="45.40341" lon="3.80854">
        <ele>1057.2</ele>
      </trkpt>
      <trkpt lat="45.4035" lon="3.80827">
        <ele>1056.3</ele>
      </trkpt>
      <trkpt lat="45.40358" lon="3.80801">
        <ele>1055.3</ele>
      </trkpt>
      <trkpt lat="45.40365" lon="3.80778">
        <ele>1054.5</ele>
      </trkpt>
      <trkpt lat="45.40369" lon="3.80762">
        <ele>1054.1</ele>
      </trkpt>
      <trkpt lat="45.40373" lon="3.80746">
        <ele>1053.7</ele>
      </trkpt>
      <trkpt lat="45.40378" lon="3.80722">
        <ele>1053.4</ele>
      </trkpt>
      <trkpt lat="45.40384" lon="3.80699">
        <ele>1053</ele>
      </trkpt>
      <trkpt lat="45.40384" lon="3.80699">
        <ele>1053</ele>
      </trkpt>
      <trkpt lat="45.40391" lon="3.8067">
        <ele>1052.6</ele>
      </trkpt>
      <trkpt lat="45.40395" lon="3.80657">
        <ele>1052.5</ele>
      </trkpt>
      <trkpt lat="45.40398" lon="3.80649">
        <ele>1052.5</ele>
      </trkpt>
      <trkpt lat="45.40401" lon="3.8064">
        <ele>1052.6</ele>
      </trkpt>
      <trkpt lat="45.4041" lon="3.80624">
        <ele>1052.6</ele>
      </trkpt>
      <trkpt lat="45.4042" lon="3.80602">
        <ele>1052.5</ele>
      </trkpt>
      <trkpt lat="45.40425" lon="3.80591">
        <ele>1052.3</ele>
      </trkpt>
      <trkpt lat="45.40429" lon="3.80581">
        <ele>1052</ele>
      </trkpt>
      <trkpt lat="45.40432" lon="3.80572">
        <ele>1051.7</ele>
      </trkpt>
      <trkpt lat="45.40433" lon="3.80565">
        <ele>1051.4</ele>
      </trkpt>
      <trkpt lat="45.40435" lon="3.80554">
        <ele>1050.9</ele>
      </trkpt>
      <trkpt lat="45.40435" lon="3.80543">
        <ele>1050.5</ele>
      </trkpt>
      <trkpt lat="45.40435" lon="3.80533">
        <ele>1050.1</ele>
      </trkpt>
      <trkpt lat="45.40433" lon="3.80511">
        <ele>1049</ele>
      </trkpt>
      <trkpt lat="45.40431" lon="3.80488">
        <ele>1047.8</ele>
      </trkpt>
      <trkpt lat="45.40433" lon="3.80511">
        <ele>1049</ele>
      </trkpt>
      <trkpt lat="45.40435" lon="3.80533">
        <ele>1050.1</ele>
      </trkpt>
      <trkpt lat="45.40435" lon="3.80543">
        <ele>1050.5</ele>
      </trkpt>
      <trkpt lat="45.40435" lon="3.80554">
        <ele>1050.9</ele>
      </trkpt>
      <trkpt lat="45.40433" lon="3.80565">
        <ele>1051.4</ele>
      </trkpt>
      <trkpt lat="45.40432" lon="3.80572">
        <ele>1051.7</ele>
      </trkpt>
      <trkpt lat="45.40432" lon="3.80572">
        <ele>1051.7</ele>
      </trkpt>
      <trkpt lat="45.40429" lon="3.80581">
        <ele>1052</ele>
      </trkpt>
      <trkpt lat="45.40425" lon="3.80591">
        <ele>1052.3</ele>
      </trkpt>
      <trkpt lat="45.4042" lon="3.80602">
        <ele>1052.5</ele>
      </trkpt>
      <trkpt lat="45.4041" lon="3.80624">
        <ele>1052.6</ele>
      </trkpt>
      <trkpt lat="45.40401" lon="3.8064">
        <ele>1052.6</ele>
      </trkpt>
      <trkpt lat="45.40398" lon="3.80649">
        <ele>1052.5</ele>
      </trkpt>
      <trkpt lat="45.40395" lon="3.80657">
        <ele>1052.5</ele>
      </trkpt>
      <trkpt lat="45.40391" lon="3.8067">
        <ele>1052.6</ele>
      </trkpt>
      <trkpt lat="45.40384" lon="3.80699">
        <ele>1053</ele>
      </trkpt>
      <trkpt lat="45.40378" lon="3.80722">
        <ele>1053.4</ele>
      </trkpt>
      <trkpt lat="45.40373" lon="3.80746">
        <ele>1053.7</ele>
      </trkpt>
      <trkpt lat="45.40369" lon="3.80762">
        <ele>1054.1</ele>
      </trkpt>
      <trkpt lat="45.40365" lon="3.80778">
        <ele>1054.5</ele>
      </trkpt>
      <trkpt lat="45.40358" lon="3.80801">
        <ele>1055.3</ele>
      </trkpt>
      <trkpt lat="45.4035" lon="3.80827">
        <ele>1056.3</ele>
      </trkpt>
      <trkpt lat="45.40341" lon="3.80854">
        <ele>1057.2</ele>
      </trkpt>
      <trkpt lat="45.40333" lon="3.80879">
        <ele>1058.2</ele>
      </trkpt>
      <trkpt lat="45.40325" lon="3.80904">
        <ele>1059.1</ele>
      </trkpt>
      <trkpt lat="45.40325" lon="3.80904">
        <ele>1059.1</ele>
      </trkpt>
      <trkpt lat="45.40316" lon="3.80932">
        <ele>1060.2</ele>
      </trkpt>
      <trkpt lat="45.40307" lon="3.8096">
        <ele>1061.5</ele>
      </trkpt>
      <trkpt lat="45.40302" lon="3.80975">
        <ele>1062.2</ele>
      </trkpt>
      <trkpt lat="45.40297" lon="3.8099">
        <ele>1063</ele>
      </trkpt>
      <trkpt lat="45.40293" lon="3.81002">
        <ele>1063.6</ele>
      </trkpt>
      <trkpt lat="45.40287" lon="3.81016">
        <ele>1064.1</ele>
      </trkpt>
      <trkpt lat="45.40281" lon="3.81026">
        <ele>1064.6</ele>
      </trkpt>
      <trkpt lat="45.40274" lon="3.81036">
        <ele>1065.1</ele>
      </trkpt>
      <trkpt lat="45.40272" lon="3.81046">
        <ele>1065.6</ele>
      </trkpt>
      <trkpt lat="45.40276" lon="3.81044">
        <ele>1065.5</ele>
      </trkpt>
      <trkpt lat="45.40276" lon="3.81044">
        <ele>1065.5</ele>
      </trkpt>
      <trkpt lat="45.40282" lon="3.81042">
        <ele>1065.3</ele>
      </trkpt>
      <trkpt lat="45.403" lon="3.81032">
        <ele>1064.8</ele>
      </trkpt>
      <trkpt lat="45.40314" lon="3.81024">
        <ele>1064.5</ele>
      </trkpt>
      <trkpt lat="45.40328" lon="3.81015">
        <ele>1064.3</ele>
      </trkpt>
      <trkpt lat="45.40341" lon="3.81007">
        <ele>1064.1</ele>
      </trkpt>
      <trkpt lat="45.40353" lon="3.81">
        <ele>1063.7</ele>
      </trkpt>
      <trkpt lat="45.40367" lon="3.80991">
        <ele>1063.2</ele>
      </trkpt>
      <trkpt lat="45.4038" lon="3.80981">
        <ele>1062.8</ele>
      </trkpt>
      <trkpt lat="45.4039" lon="3.80973">
        <ele>1062.5</ele>
      </trkpt>
      <trkpt lat="45.404" lon="3.80964">
        <ele>1062.2</ele>
      </trkpt>
      <trkpt lat="45.40414" lon="3.80951">
        <ele>1061.8</ele>
      </trkpt>
      <trkpt lat="45.40428" lon="3.80938">
        <ele>1061.2</ele>
      </trkpt>
      <trkpt lat="45.40442" lon="3.80924">
        <ele>1060.5</ele>
      </trkpt>
      <trkpt lat="45.40456" lon="3.8091">
        <ele>1059.9</ele>
      </trkpt>
      <trkpt lat="45.40474" lon="3.80891">
        <ele>1059</ele>
      </trkpt>
      <trkpt lat="45.40491" lon="3.80871">
        <ele>1058.1</ele>
      </trkpt>
      <trkpt lat="45.40492" lon="3.80883">
        <ele>1058.4</ele>
      </trkpt>
      <trkpt lat="45.40493" lon="3.80893">
        <ele>1058.6</ele>
      </trkpt>
      <trkpt lat="45.40492" lon="3.80912">
        <ele>1059.1</ele>
      </trkpt>
      <trkpt lat="45.40491" lon="3.80935">
        <ele>1059.5</ele>
      </trkpt>
      <trkpt lat="45.40491" lon="3.80961">
        <ele>1059.8</ele>
      </trkpt>
      <trkpt lat="45.40491" lon="3.80977">
        <ele>1060</ele>
      </trkpt>
      <trkpt lat="45.40491" lon="3.80994">
        <ele>1060.2</ele>
      </trkpt>
      <trkpt lat="45.40492" lon="3.81012">
        <ele>1060.6</ele>
      </trkpt>
      <trkpt lat="45.40492" lon="3.81012">
        <ele>1060.6</ele>
      </trkpt>
      <trkpt lat="45.40492" lon="3.8103">
        <ele>1061</ele>
      </trkpt>
      <trkpt lat="45.40493" lon="3.81053">
        <ele>1061.5</ele>
      </trkpt>
      <trkpt lat="45.40493" lon="3.81071">
        <ele>1061.9</ele>
      </trkpt>
      <trkpt lat="45.40495" lon="3.8109">
        <ele>1062.2</ele>
      </trkpt>
      <trkpt lat="45.40498" lon="3.81111">
        <ele>1062.4</ele>
      </trkpt>
      <trkpt lat="45.405" lon="3.81132">
        <ele>1062.6</ele>
      </trkpt>
      <trkpt lat="45.40504" lon="3.81156">
        <ele>1062.6</ele>
      </trkpt>
      <trkpt lat="45.40508" lon="3.81181">
        <ele>1062.1</ele>
      </trkpt>
      <trkpt lat="45.4051" lon="3.812">
        <ele>1061.6</ele>
      </trkpt>
      <trkpt lat="45.40513" lon="3.81218">
        <ele>1061</ele>
      </trkpt>
      <trkpt lat="45.40517" lon="3.81246">
        <ele>1060.3</ele>
      </trkpt>
      <trkpt lat="45.40517" lon="3.81277">
        <ele>1059.7</ele>
      </trkpt>
      <trkpt lat="45.40518" lon="3.81286">
        <ele>1059.5</ele>
      </trkpt>
      <trkpt lat="45.40521" lon="3.81292">
        <ele>1059.2</ele>
      </trkpt>
      <trkpt lat="45.40525" lon="3.81296">
        <ele>1059</ele>
      </trkpt>
      <trkpt lat="45.40531" lon="3.81299">
        <ele>1058.8</ele>
      </trkpt>
      <trkpt lat="45.40546" lon="3.81302">
        <ele>1058.2</ele>
      </trkpt>
      <trkpt lat="45.40568" lon="3.81304">
        <ele>1057.5</ele>
      </trkpt>
      <trkpt lat="45.40579" lon="3.81306">
        <ele>1057.1</ele>
      </trkpt>
      <trkpt lat="45.40591" lon="3.81308">
        <ele>1056.5</ele>
      </trkpt>
      <trkpt lat="45.40611" lon="3.81311">
        <ele>1055.1</ele>
      </trkpt>
      <trkpt lat="45.40631" lon="3.81312">
        <ele>1053.8</ele>
      </trkpt>
      <trkpt lat="45.4065" lon="3.81313">
        <ele>1052.6</ele>
      </trkpt>
      <trkpt lat="45.4067" lon="3.81313">
        <ele>1051.3</ele>
      </trkpt>
      <trkpt lat="45.40689" lon="3.81314">
        <ele>1049.9</ele>
      </trkpt>
      <trkpt lat="45.4071" lon="3.81318">
        <ele>1048.8</ele>
      </trkpt>
      <trkpt lat="45.40731" lon="3.81323">
        <ele>1047.6</ele>
      </trkpt>
      <trkpt lat="45.40752" lon="3.81327">
        <ele>1046.2</ele>
      </trkpt>
      <trkpt lat="45.40768" lon="3.81343">
        <ele>1045</ele>
      </trkpt>
      <trkpt lat="45.40785" lon="3.81359">
        <ele>1043.2</ele>
      </trkpt>
      <trkpt lat="45.40785" lon="3.81359">
        <ele>1043.2</ele>
      </trkpt>
      <trkpt lat="45.40801" lon="3.81375">
        <ele>1041.2</ele>
      </trkpt>
      <trkpt lat="45.40818" lon="3.81392">
        <ele>1039.1</ele>
      </trkpt>
      <trkpt lat="45.40834" lon="3.81408">
        <ele>1036.9</ele>
      </trkpt>
      <trkpt lat="45.40839" lon="3.81414">
        <ele>1036.2</ele>
      </trkpt>
      <trkpt lat="45.4085" lon="3.81428">
        <ele>1034.5</ele>
      </trkpt>
      <trkpt lat="45.40862" lon="3.81443">
        <ele>1032.5</ele>
      </trkpt>
      <trkpt lat="45.40872" lon="3.81456">
        <ele>1030.9</ele>
      </trkpt>
      <trkpt lat="45.40882" lon="3.81471">
        <ele>1029</ele>
      </trkpt>
      <trkpt lat="45.4089" lon="3.81485">
        <ele>1027.3</ele>
      </trkpt>
      <trkpt lat="45.40895" lon="3.81494">
        <ele>1026.2</ele>
      </trkpt>
      <trkpt lat="45.40899" lon="3.81503">
        <ele>1025.3</ele>
      </trkpt>
      <trkpt lat="45.40907" lon="3.8153">
        <ele>1022.9</ele>
      </trkpt>
      <trkpt lat="45.40915" lon="3.81558">
        <ele>1020.3</ele>
      </trkpt>
      <trkpt lat="45.40914" lon="3.81587">
        <ele>1019.3</ele>
      </trkpt>
      <trkpt lat="45.40914" lon="3.81616">
        <ele>1018</ele>
      </trkpt>
      <trkpt lat="45.40915" lon="3.81645">
        <ele>1016.5</ele>
      </trkpt>
      <trkpt lat="45.40915" lon="3.81675">
        <ele>1015.6</ele>
      </trkpt>
      <trkpt lat="45.40916" lon="3.81705">
        <ele>1016.5</ele>
      </trkpt>
      <trkpt lat="45.40921" lon="3.8172">
        <ele>1016.4</ele>
      </trkpt>
      <trkpt lat="45.40928" lon="3.81735">
        <ele>1016.3</ele>
      </trkpt>
      <trkpt lat="45.40937" lon="3.81752">
        <ele>1016</ele>
      </trkpt>
      <trkpt lat="45.40948" lon="3.81768">
        <ele>1014.5</ele>
      </trkpt>
      <trkpt lat="45.40963" lon="3.81782">
        <ele>1012.8</ele>
      </trkpt>
      <trkpt lat="45.40973" lon="3.81792">
        <ele>1011.8</ele>
      </trkpt>
      <trkpt lat="45.40983" lon="3.81801">
        <ele>1010.8</ele>
      </trkpt>
      <trkpt lat="45.40997" lon="3.81815">
        <ele>1009.5</ele>
      </trkpt>
      <trkpt lat="45.41012" lon="3.81829">
        <ele>1009.7</ele>
      </trkpt>
      <trkpt lat="45.41018" lon="3.81836">
        <ele>1010</ele>
      </trkpt>
      <trkpt lat="45.41028" lon="3.81845">
        <ele>1010.5</ele>
      </trkpt>
      <trkpt lat="45.41037" lon="3.81856">
        <ele>1011</ele>
      </trkpt>
      <trkpt lat="45.41037" lon="3.81856">
        <ele>1011</ele>
      </trkpt>
      <trkpt lat="45.41047" lon="3.81869">
        <ele>1011.8</ele>
      </trkpt>
      <trkpt lat="45.41062" lon="3.8189">
        <ele>1013.2</ele>
      </trkpt>
      <trkpt lat="45.41069" lon="3.81901">
        <ele>1014.1</ele>
      </trkpt>
      <trkpt lat="45.41077" lon="3.81913">
        <ele>1015.1</ele>
      </trkpt>
      <trkpt lat="45.41087" lon="3.81931">
        <ele>1016.3</ele>
      </trkpt>
      <trkpt lat="45.41099" lon="3.8195">
        <ele>1017</ele>
      </trkpt>
      <trkpt lat="45.41112" lon="3.81972">
        <ele>1018.3</ele>
      </trkpt>
      <trkpt lat="45.4112" lon="3.81987">
        <ele>1019.5</ele>
      </trkpt>
      <trkpt lat="45.4113" lon="3.82006">
        <ele>1021.4</ele>
      </trkpt>
      <trkpt lat="45.41133" lon="3.82012">
        <ele>1022.1</ele>
      </trkpt>
      <trkpt lat="45.41138" lon="3.82019">
        <ele>1023.1</ele>
      </trkpt>
      <trkpt lat="45.41156" lon="3.82033">
        <ele>1026</ele>
      </trkpt>
      <trkpt lat="45.41173" lon="3.82046">
        <ele>1028.9</ele>
      </trkpt>
      <trkpt lat="45.41191" lon="3.8206">
        <ele>1031.2</ele>
      </trkpt>
      <trkpt lat="45.41198" lon="3.82069">
        <ele>1032.2</ele>
      </trkpt>
      <trkpt lat="45.4121" lon="3.82085">
        <ele>1033.6</ele>
      </trkpt>
      <trkpt lat="45.41217" lon="3.82095">
        <ele>1033.8</ele>
      </trkpt>
      <trkpt lat="45.41222" lon="3.82102">
        <ele>1034</ele>
      </trkpt>
      <trkpt lat="45.41227" lon="3.8211">
        <ele>1034.1</ele>
      </trkpt>
      <trkpt lat="45.41234" lon="3.82122">
        <ele>1034.2</ele>
      </trkpt>
      <trkpt lat="45.41238" lon="3.8213">
        <ele>1034.3</ele>
      </trkpt>
      <trkpt lat="45.41246" lon="3.82137">
        <ele>1034.3</ele>
      </trkpt>
      <trkpt lat="45.4125" lon="3.8214">
        <ele>1034.3</ele>
      </trkpt>
      <trkpt lat="45.41256" lon="3.82141">
        <ele>1034.8</ele>
      </trkpt>
      <trkpt lat="45.41264" lon="3.82142">
        <ele>1035.5</ele>
      </trkpt>
      <trkpt lat="45.41273" lon="3.82141">
        <ele>1036.2</ele>
      </trkpt>
      <trkpt lat="45.41289" lon="3.82136">
        <ele>1037.6</ele>
      </trkpt>
      <trkpt lat="45.41305" lon="3.8213">
        <ele>1038.8</ele>
      </trkpt>
      <trkpt lat="45.41321" lon="3.82124">
        <ele>1040</ele>
      </trkpt>
      <trkpt lat="45.41336" lon="3.82111">
        <ele>1040.9</ele>
      </trkpt>
      <trkpt lat="45.41351" lon="3.82098">
        <ele>1042.2</ele>
      </trkpt>
      <trkpt lat="45.41367" lon="3.82085">
        <ele>1043.6</ele>
      </trkpt>
      <trkpt lat="45.41382" lon="3.82071">
        <ele>1045.1</ele>
      </trkpt>
      <trkpt lat="45.41397" lon="3.82058">
        <ele>1046.3</ele>
      </trkpt>
      <trkpt lat="45.41412" lon="3.82045">
        <ele>1047.2</ele>
      </trkpt>
      <trkpt lat="45.41412" lon="3.82045">
        <ele>1047.2</ele>
      </trkpt>
      <trkpt lat="45.41428" lon="3.82032">
        <ele>1047.8</ele>
      </trkpt>
      <trkpt lat="45.41443" lon="3.82019">
        <ele>1048</ele>
      </trkpt>
      <trkpt lat="45.41451" lon="3.82011">
        <ele>1047.9</ele>
      </trkpt>
      <trkpt lat="45.41459" lon="3.82003">
        <ele>1047.7</ele>
      </trkpt>
      <trkpt lat="45.41469" lon="3.81993">
        <ele>1047.2</ele>
      </trkpt>
      <trkpt lat="45.41478" lon="3.81987">
        <ele>1046.8</ele>
      </trkpt>
      <trkpt lat="45.4149" lon="3.81979">
        <ele>1046.2</ele>
      </trkpt>
      <trkpt lat="45.41507" lon="3.81968">
        <ele>1045.4</ele>
      </trkpt>
      <trkpt lat="45.41528" lon="3.81957">
        <ele>1044.5</ele>
      </trkpt>
      <trkpt lat="45.41535" lon="3.81952">
        <ele>1044</ele>
      </trkpt>
      <trkpt lat="45.41546" lon="3.81948">
        <ele>1043.6</ele>
      </trkpt>
      <trkpt lat="45.41562" lon="3.81943">
        <ele>1043.1</ele>
      </trkpt>
      <trkpt lat="45.4157" lon="3.8194">
        <ele>1042.7</ele>
      </trkpt>
      <trkpt lat="45.41579" lon="3.81937">
        <ele>1042.4</ele>
      </trkpt>
      <trkpt lat="45.41584" lon="3.81935">
        <ele>1042.2</ele>
      </trkpt>
      <trkpt lat="45.41591" lon="3.81931">
        <ele>1042.2</ele>
      </trkpt>
      <trkpt lat="45.41597" lon="3.81927">
        <ele>1042</ele>
      </trkpt>
      <trkpt lat="45.41602" lon="3.81923">
        <ele>1041.9</ele>
      </trkpt>
      <trkpt lat="45.41606" lon="3.81916">
        <ele>1041.4</ele>
      </trkpt>
      <trkpt lat="45.41616" lon="3.81903">
        <ele>1041.9</ele>
      </trkpt>
      <trkpt lat="45.41625" lon="3.81891">
        <ele>1042.3</ele>
      </trkpt>
      <trkpt lat="45.41634" lon="3.8188">
        <ele>1042.8</ele>
      </trkpt>
      <trkpt lat="45.4165" lon="3.81858">
        <ele>1043.8</ele>
      </trkpt>
      <trkpt lat="45.41658" lon="3.81845">
        <ele>1044.3</ele>
      </trkpt>
      <trkpt lat="45.41662" lon="3.81838">
        <ele>1044.6</ele>
      </trkpt>
      <trkpt lat="45.41666" lon="3.81826">
        <ele>1045.1</ele>
      </trkpt>
      <trkpt lat="45.41667" lon="3.81818">
        <ele>1045.5</ele>
      </trkpt>
      <trkpt lat="45.41668" lon="3.81809">
        <ele>1045.8</ele>
      </trkpt>
      <trkpt lat="45.4168" lon="3.8179">
        <ele>1048.3</ele>
      </trkpt>
      <trkpt lat="45.41692" lon="3.81771">
        <ele>1050.6</ele>
      </trkpt>
      <trkpt lat="45.41703" lon="3.81752">
        <ele>1052.7</ele>
      </trkpt>
      <trkpt lat="45.41715" lon="3.81733">
        <ele>1054.1</ele>
      </trkpt>
      <trkpt lat="45.41731" lon="3.81721">
        <ele>1056</ele>
      </trkpt>
      <trkpt lat="45.41747" lon="3.81708">
        <ele>1057.6</ele>
      </trkpt>
      <trkpt lat="45.41763" lon="3.81696">
        <ele>1058.3</ele>
      </trkpt>
      <trkpt lat="45.41779" lon="3.81683">
        <ele>1059</ele>
      </trkpt>
      <trkpt lat="45.41797" lon="3.81677">
        <ele>1060.2</ele>
      </trkpt>
      <trkpt lat="45.41797" lon="3.81677">
        <ele>1060.2</ele>
      </trkpt>
      <trkpt lat="45.41814" lon="3.81671">
        <ele>1061.5</ele>
      </trkpt>
      <trkpt lat="45.41832" lon="3.81664">
        <ele>1062.9</ele>
      </trkpt>
      <trkpt lat="45.41835" lon="3.81671">
        <ele>1063.2</ele>
      </trkpt>
      <trkpt lat="45.41846" lon="3.81687">
        <ele>1064.2</ele>
      </trkpt>
      <trkpt lat="45.41852" lon="3.81698">
        <ele>1064.9</ele>
      </trkpt>
      <trkpt lat="45.41856" lon="3.81703">
        <ele>1065.3</ele>
      </trkpt>
      <trkpt lat="45.41861" lon="3.81708">
        <ele>1065.8</ele>
      </trkpt>
      <trkpt lat="45.41868" lon="3.81714">
        <ele>1066.5</ele>
      </trkpt>
      <trkpt lat="45.41878" lon="3.81722">
        <ele>1067.6</ele>
      </trkpt>
      <trkpt lat="45.41894" lon="3.81734">
        <ele>1069.3</ele>
      </trkpt>
      <trkpt lat="45.4191" lon="3.81746">
        <ele>1071.2</ele>
      </trkpt>
      <trkpt lat="45.41926" lon="3.81758">
        <ele>1073</ele>
      </trkpt>
      <trkpt lat="45.41942" lon="3.81769">
        <ele>1074.5</ele>
      </trkpt>
      <trkpt lat="45.41959" lon="3.8178">
        <ele>1075.9</ele>
      </trkpt>
      <trkpt lat="45.4197" lon="3.8179">
        <ele>1077</ele>
      </trkpt>
      <trkpt lat="45.41981" lon="3.81801">
        <ele>1078.1</ele>
      </trkpt>
      <trkpt lat="45.41994" lon="3.81815">
        <ele>1079.5</ele>
      </trkpt>
      <trkpt lat="45.42" lon="3.81822">
        <ele>1080.2</ele>
      </trkpt>
      <trkpt lat="45.42011" lon="3.81835">
        <ele>1081</ele>
      </trkpt>
      <trkpt lat="45.42029" lon="3.81855">
        <ele>1081.7</ele>
      </trkpt>
      <trkpt lat="45.42047" lon="3.81874">
        <ele>1082</ele>
      </trkpt>
      <trkpt lat="45.42053" lon="3.81882">
        <ele>1082</ele>
      </trkpt>
      <trkpt lat="45.42062" lon="3.81892">
        <ele>1081.8</ele>
      </trkpt>
      <trkpt lat="45.42071" lon="3.819">
        <ele>1081.5</ele>
      </trkpt>
      <trkpt lat="45.42079" lon="3.81907">
        <ele>1081.2</ele>
      </trkpt>
      <trkpt lat="45.42085" lon="3.81911">
        <ele>1080.9</ele>
      </trkpt>
      <trkpt lat="45.42092" lon="3.8191">
        <ele>1080.4</ele>
      </trkpt>
      <trkpt lat="45.42097" lon="3.81915">
        <ele>1080.3</ele>
      </trkpt>
      <trkpt lat="45.42105" lon="3.81921">
        <ele>1080.1</ele>
      </trkpt>
      <trkpt lat="45.42117" lon="3.81931">
        <ele>1079.9</ele>
      </trkpt>
      <trkpt lat="45.42129" lon="3.81941">
        <ele>1079.7</ele>
      </trkpt>
      <trkpt lat="45.42138" lon="3.81949">
        <ele>1079.6</ele>
      </trkpt>
      <trkpt lat="45.42148" lon="3.81959">
        <ele>1079.4</ele>
      </trkpt>
      <trkpt lat="45.4216" lon="3.81971">
        <ele>1079.3</ele>
      </trkpt>
      <trkpt lat="45.42173" lon="3.81983">
        <ele>1078.9</ele>
      </trkpt>
      <trkpt lat="45.42184" lon="3.81995">
        <ele>1078.5</ele>
      </trkpt>
      <trkpt lat="45.42196" lon="3.82006">
        <ele>1077.9</ele>
      </trkpt>
      <trkpt lat="45.42196" lon="3.82006">
        <ele>1077.9</ele>
      </trkpt>
      <trkpt lat="45.42207" lon="3.82017">
        <ele>1077.3</ele>
      </trkpt>
      <trkpt lat="45.42218" lon="3.82028">
        <ele>1076.8</ele>
      </trkpt>
      <trkpt lat="45.42227" lon="3.82039">
        <ele>1076.6</ele>
      </trkpt>
      <trkpt lat="45.42232" lon="3.82046">
        <ele>1076.5</ele>
      </trkpt>
      <trkpt lat="45.42236" lon="3.82052">
        <ele>1076.5</ele>
      </trkpt>
      <trkpt lat="45.42239" lon="3.82062">
        <ele>1076.6</ele>
      </trkpt>
      <trkpt lat="45.42244" lon="3.82078">
        <ele>1077</ele>
      </trkpt>
      <trkpt lat="45.42248" lon="3.82093">
        <ele>1076.4</ele>
      </trkpt>
      <trkpt lat="45.42254" lon="3.82117">
        <ele>1074.5</ele>
      </trkpt>
      <trkpt lat="45.42258" lon="3.82127">
        <ele>1073.7</ele>
      </trkpt>
      <trkpt lat="45.42262" lon="3.82134">
        <ele>1073.2</ele>
      </trkpt>
      <trkpt lat="45.42259" lon="3.82141">
        <ele>1072.8</ele>
      </trkpt>
      <trkpt lat="45.42261" lon="3.82148">
        <ele>1072.3</ele>
      </trkpt>
      <trkpt lat="45.42263" lon="3.82157">
        <ele>1071.8</ele>
      </trkpt>
      <trkpt lat="45.42266" lon="3.8217">
        <ele>1071</ele>
      </trkpt>
      <trkpt lat="45.42269" lon="3.82179">
        <ele>1070.7</ele>
      </trkpt>
      <trkpt lat="45.42272" lon="3.82193">
        <ele>1070.1</ele>
      </trkpt>
      <trkpt lat="45.42278" lon="3.82215">
        <ele>1069.2</ele>
      </trkpt>
      <trkpt lat="45.42283" lon="3.82238">
        <ele>1068.3</ele>
      </trkpt>
      <trkpt lat="45.42291" lon="3.82267">
        <ele>1067.3</ele>
      </trkpt>
      <trkpt lat="45.42298" lon="3.82296">
        <ele>1066.3</ele>
      </trkpt>
      <trkpt lat="45.42305" lon="3.82325">
        <ele>1065.3</ele>
      </trkpt>
      <trkpt lat="45.42306" lon="3.82332">
        <ele>1065.1</ele>
      </trkpt>
      <trkpt lat="45.42308" lon="3.8234">
        <ele>1064.5</ele>
      </trkpt>
      <trkpt lat="45.4231" lon="3.82351">
        <ele>1063.8</ele>
      </trkpt>
      <trkpt lat="45.42313" lon="3.82357">
        <ele>1063.4</ele>
      </trkpt>
      <trkpt lat="45.42316" lon="3.82369">
        <ele>1062.7</ele>
      </trkpt>
      <trkpt lat="45.42319" lon="3.82379">
        <ele>1062</ele>
      </trkpt>
      <trkpt lat="45.42322" lon="3.8239">
        <ele>1061.4</ele>
      </trkpt>
      <trkpt lat="45.42325" lon="3.82399">
        <ele>1060.8</ele>
      </trkpt>
      <trkpt lat="45.42326" lon="3.82408">
        <ele>1060.2</ele>
      </trkpt>
      <trkpt lat="45.42328" lon="3.82416">
        <ele>1059.7</ele>
      </trkpt>
      <trkpt lat="45.42329" lon="3.82423">
        <ele>1059.3</ele>
      </trkpt>
      <trkpt lat="45.42332" lon="3.82433">
        <ele>1058.7</ele>
      </trkpt>
      <trkpt lat="45.42336" lon="3.82449">
        <ele>1058.1</ele>
      </trkpt>
      <trkpt lat="45.4234" lon="3.8246">
        <ele>1057.7</ele>
      </trkpt>
      <trkpt lat="45.42341" lon="3.82467">
        <ele>1057.4</ele>
      </trkpt>
      <trkpt lat="45.42343" lon="3.82477">
        <ele>1056.9</ele>
      </trkpt>
      <trkpt lat="45.42345" lon="3.82487">
        <ele>1056.3</ele>
      </trkpt>
      <trkpt lat="45.42343" lon="3.82499">
        <ele>1055.2</ele>
      </trkpt>
      <trkpt lat="45.42338" lon="3.82524">
        <ele>1053.2</ele>
      </trkpt>
      <trkpt lat="45.42333" lon="3.8255">
        <ele>1051.6</ele>
      </trkpt>
      <trkpt lat="45.42331" lon="3.82573">
        <ele>1050.5</ele>
      </trkpt>
      <trkpt lat="45.42341" lon="3.82589">
        <ele>1049.6</ele>
      </trkpt>
      <trkpt lat="45.42354" lon="3.82597">
        <ele>1049.3</ele>
      </trkpt>
      <trkpt lat="45.42354" lon="3.82597">
        <ele>1049.3</ele>
      </trkpt>
      <trkpt lat="45.4237" lon="3.82603">
        <ele>1049.1</ele>
      </trkpt>
      <trkpt lat="45.42374" lon="3.82607">
        <ele>1048.9</ele>
      </trkpt>
      <trkpt lat="45.42378" lon="3.82612">
        <ele>1048.7</ele>
      </trkpt>
      <trkpt lat="45.4238" lon="3.82619">
        <ele>1048.3</ele>
      </trkpt>
      <trkpt lat="45.42383" lon="3.82626">
        <ele>1047.9</ele>
      </trkpt>
      <trkpt lat="45.42385" lon="3.82635">
        <ele>1047.4</ele>
      </trkpt>
      <trkpt lat="45.42386" lon="3.82644">
        <ele>1046.9</ele>
      </trkpt>
      <trkpt lat="45.42386" lon="3.82651">
        <ele>1046.5</ele>
      </trkpt>
      <trkpt lat="45.42386" lon="3.82662">
        <ele>1045.8</ele>
      </trkpt>
      <trkpt lat="45.42385" lon="3.82681">
        <ele>1046.4</ele>
      </trkpt>
      <trkpt lat="45.42385" lon="3.82696">
        <ele>1047.4</ele>
      </trkpt>
      <trkpt lat="45.42385" lon="3.82707">
        <ele>1048.2</ele>
      </trkpt>
      <trkpt lat="45.42387" lon="3.82715">
        <ele>1048.8</ele>
      </trkpt>
      <trkpt lat="45.4239" lon="3.82726">
        <ele>1049.8</ele>
      </trkpt>
      <trkpt lat="45.42394" lon="3.82737">
        <ele>1050.7</ele>
      </trkpt>
      <trkpt lat="45.42399" lon="3.82755">
        <ele>1052.2</ele>
      </trkpt>
      <trkpt lat="45.42405" lon="3.82773">
        <ele>1053.6</ele>
      </trkpt>
      <trkpt lat="45.4241" lon="3.8279">
        <ele>1054.9</ele>
      </trkpt>
      <trkpt lat="45.42415" lon="3.82806">
        <ele>1056.3</ele>
      </trkpt>
      <trkpt lat="45.42419" lon="3.8282">
        <ele>1057.3</ele>
      </trkpt>
      <trkpt lat="45.42423" lon="3.82836">
        <ele>1058.3</ele>
      </trkpt>
      <trkpt lat="45.42426" lon="3.8285">
        <ele>1059.4</ele>
      </trkpt>
      <trkpt lat="45.42428" lon="3.82862">
        <ele>1060.2</ele>
      </trkpt>
      <trkpt lat="45.4243" lon="3.82873">
        <ele>1061</ele>
      </trkpt>
      <trkpt lat="45.42431" lon="3.82883">
        <ele>1061.7</ele>
      </trkpt>
      <trkpt lat="45.42431" lon="3.829">
        <ele>1062.9</ele>
      </trkpt>
      <trkpt lat="45.42431" lon="3.8292">
        <ele>1064.2</ele>
      </trkpt>
      <trkpt lat="45.42431" lon="3.82942">
        <ele>1065.5</ele>
      </trkpt>
      <trkpt lat="45.4243" lon="3.82961">
        <ele>1066.7</ele>
      </trkpt>
      <trkpt lat="45.4243" lon="3.82972">
        <ele>1067.3</ele>
      </trkpt>
      <trkpt lat="45.42429" lon="3.82981">
        <ele>1067.9</ele>
      </trkpt>
      <trkpt lat="45.42426" lon="3.82991">
        <ele>1068.5</ele>
      </trkpt>
      <trkpt lat="45.42423" lon="3.83001">
        <ele>1069.1</ele>
      </trkpt>
      <trkpt lat="45.4242" lon="3.8301">
        <ele>1070.1</ele>
      </trkpt>
      <trkpt lat="45.42423" lon="3.83015">
        <ele>1070.7</ele>
      </trkpt>
      <trkpt lat="45.42428" lon="3.83009">
        <ele>1070</ele>
      </trkpt>
      <trkpt lat="45.42434" lon="3.83001">
        <ele>1069.1</ele>
      </trkpt>
      <trkpt lat="45.42439" lon="3.83009">
        <ele>1070.1</ele>
      </trkpt>
      <trkpt lat="45.42446" lon="3.83015">
        <ele>1070.9</ele>
      </trkpt>
      <trkpt lat="45.42456" lon="3.83023">
        <ele>1072.2</ele>
      </trkpt>
      <trkpt lat="45.42464" lon="3.83031">
        <ele>1073.4</ele>
      </trkpt>
      <trkpt lat="45.42474" lon="3.83041">
        <ele>1075.1</ele>
      </trkpt>
      <trkpt lat="45.42483" lon="3.8305">
        <ele>1076.8</ele>
      </trkpt>
      <trkpt lat="45.42492" lon="3.8306">
        <ele>1078.7</ele>
      </trkpt>
      <trkpt lat="45.42504" lon="3.83071">
        <ele>1081</ele>
      </trkpt>
      <trkpt lat="45.42512" lon="3.83079">
        <ele>1082.5</ele>
      </trkpt>
      <trkpt lat="45.42521" lon="3.83087">
        <ele>1083.7</ele>
      </trkpt>
      <trkpt lat="45.42528" lon="3.83093">
        <ele>1084.4</ele>
      </trkpt>
      <trkpt lat="45.42534" lon="3.83097">
        <ele>1085</ele>
      </trkpt>
      <trkpt lat="45.42534" lon="3.83097">
        <ele>1085</ele>
      </trkpt>
      <trkpt lat="45.42543" lon="3.83102">
        <ele>1085.7</ele>
      </trkpt>
      <trkpt lat="45.42559" lon="3.83109">
        <ele>1086.6</ele>
      </trkpt>
      <trkpt lat="45.42578" lon="3.83117">
        <ele>1087.6</ele>
      </trkpt>
      <trkpt lat="45.42584" lon="3.83121">
        <ele>1088</ele>
      </trkpt>
      <trkpt lat="45.42591" lon="3.83125">
        <ele>1088.3</ele>
      </trkpt>
      <trkpt lat="45.42598" lon="3.83131">
        <ele>1088.8</ele>
      </trkpt>
      <trkpt lat="45.42607" lon="3.83139">
        <ele>1089.4</ele>
      </trkpt>
      <trkpt lat="45.42614" lon="3.83147">
        <ele>1089.9</ele>
      </trkpt>
      <trkpt lat="45.42619" lon="3.83153">
        <ele>1090.4</ele>
      </trkpt>
      <trkpt lat="45.42623" lon="3.83159">
        <ele>1090.8</ele>
      </trkpt>
      <trkpt lat="45.42628" lon="3.83167">
        <ele>1091.4</ele>
      </trkpt>
      <trkpt lat="45.42631" lon="3.83176">
        <ele>1091.9</ele>
      </trkpt>
      <trkpt lat="45.42635" lon="3.83184">
        <ele>1092.3</ele>
      </trkpt>
      <trkpt lat="45.4264" lon="3.83196">
        <ele>1093</ele>
      </trkpt>
      <trkpt lat="45.42646" lon="3.83211">
        <ele>1093.7</ele>
      </trkpt>
      <trkpt lat="45.42654" lon="3.83231">
        <ele>1094.5</ele>
      </trkpt>
      <trkpt lat="45.4266" lon="3.83244">
        <ele>1095</ele>
      </trkpt>
      <trkpt lat="45.42667" lon="3.83257">
        <ele>1095.4</ele>
      </trkpt>
      <trkpt lat="45.42676" lon="3.83277">
        <ele>1095.3</ele>
      </trkpt>
      <trkpt lat="45.42684" lon="3.83295">
        <ele>1095.1</ele>
      </trkpt>
      <trkpt lat="45.42692" lon="3.83311">
        <ele>1094.6</ele>
      </trkpt>
      <trkpt lat="45.427" lon="3.83327">
        <ele>1094.1</ele>
      </trkpt>
      <trkpt lat="45.42706" lon="3.83342">
        <ele>1093.8</ele>
      </trkpt>
      <trkpt lat="45.42713" lon="3.83357">
        <ele>1093.7</ele>
      </trkpt>
      <trkpt lat="45.42719" lon="3.83372">
        <ele>1093.9</ele>
      </trkpt>
      <trkpt lat="45.42724" lon="3.83386">
        <ele>1094.1</ele>
      </trkpt>
      <trkpt lat="45.42732" lon="3.83404">
        <ele>1094.3</ele>
      </trkpt>
      <trkpt lat="45.42736" lon="3.83412">
        <ele>1094.4</ele>
      </trkpt>
      <trkpt lat="45.42743" lon="3.83422">
        <ele>1094.6</ele>
      </trkpt>
      <trkpt lat="45.42754" lon="3.8343">
        <ele>1094.7</ele>
      </trkpt>
      <trkpt lat="45.42763" lon="3.83435">
        <ele>1095</ele>
      </trkpt>
      <trkpt lat="45.42774" lon="3.83441">
        <ele>1095.2</ele>
      </trkpt>
      <trkpt lat="45.42792" lon="3.83448">
        <ele>1095.3</ele>
      </trkpt>
      <trkpt lat="45.42806" lon="3.83455">
        <ele>1095.5</ele>
      </trkpt>
      <trkpt lat="45.42815" lon="3.83458">
        <ele>1095.4</ele>
      </trkpt>
      <trkpt lat="45.42823" lon="3.8346">
        <ele>1095.3</ele>
      </trkpt>
      <trkpt lat="45.42834" lon="3.83463">
        <ele>1095.1</ele>
      </trkpt>
      <trkpt lat="45.42844" lon="3.83467">
        <ele>1095.4</ele>
      </trkpt>
      <trkpt lat="45.42854" lon="3.83471">
        <ele>1095.6</ele>
      </trkpt>
      <trkpt lat="45.42864" lon="3.83476">
        <ele>1095.9</ele>
      </trkpt>
      <trkpt lat="45.42873" lon="3.83481">
        <ele>1096.3</ele>
      </trkpt>
      <trkpt lat="45.42884" lon="3.83489">
        <ele>1096.9</ele>
      </trkpt>
      <trkpt lat="45.42884" lon="3.83489">
        <ele>1096.9</ele>
      </trkpt>
      <trkpt lat="45.42894" lon="3.83496">
        <ele>1097.4</ele>
      </trkpt>
      <trkpt lat="45.42903" lon="3.83503">
        <ele>1097.9</ele>
      </trkpt>
      <trkpt lat="45.42916" lon="3.83515">
        <ele>1098.6</ele>
      </trkpt>
      <trkpt lat="45.4293" lon="3.83527">
        <ele>1098.8</ele>
      </trkpt>
      <trkpt lat="45.42946" lon="3.83541">
        <ele>1099</ele>
      </trkpt>
      <trkpt lat="45.42958" lon="3.83551">
        <ele>1099</ele>
      </trkpt>
      <trkpt lat="45.42966" lon="3.83558">
        <ele>1099.1</ele>
      </trkpt>
      <trkpt lat="45.42975" lon="3.83568">
        <ele>1099.4</ele>
      </trkpt>
      <trkpt lat="45.42989" lon="3.83581">
        <ele>1099.7</ele>
      </trkpt>
      <trkpt lat="45.42996" lon="3.83589">
        <ele>1099.8</ele>
      </trkpt>
      <trkpt lat="45.43009" lon="3.83601">
        <ele>1099.8</ele>
      </trkpt>
      <trkpt lat="45.43022" lon="3.83613">
        <ele>1099.8</ele>
      </trkpt>
      <trkpt lat="45.43034" lon="3.83624">
        <ele>1099.9</ele>
      </trkpt>
      <trkpt lat="45.43047" lon="3.83635">
        <ele>1100.1</ele>
      </trkpt>
      <trkpt lat="45.43064" lon="3.83652">
        <ele>1100.7</ele>
      </trkpt>
      <trkpt lat="45.43083" lon="3.83664">
        <ele>1100.7</ele>
      </trkpt>
      <trkpt lat="45.43101" lon="3.83675">
        <ele>1099.8</ele>
      </trkpt>
      <trkpt lat="45.43119" lon="3.83686">
        <ele>1098.8</ele>
      </trkpt>
      <trkpt lat="45.43137" lon="3.83698">
        <ele>1098.1</ele>
      </trkpt>
      <trkpt lat="45.43145" lon="3.83701">
        <ele>1097.6</ele>
      </trkpt>
      <trkpt lat="45.43164" lon="3.83705">
        <ele>1096.5</ele>
      </trkpt>
      <trkpt lat="45.43176" lon="3.83709">
        <ele>1096.1</ele>
      </trkpt>
      <trkpt lat="45.43193" lon="3.83713">
        <ele>1095.8</ele>
      </trkpt>
      <trkpt lat="45.43203" lon="3.83716">
        <ele>1095.6</ele>
      </trkpt>
      <trkpt lat="45.43216" lon="3.83719">
        <ele>1095.2</ele>
      </trkpt>
      <trkpt lat="45.43228" lon="3.83722">
        <ele>1094.9</ele>
      </trkpt>
      <trkpt lat="45.43245" lon="3.83724">
        <ele>1094.3</ele>
      </trkpt>
      <trkpt lat="45.43252" lon="3.83724">
        <ele>1094.1</ele>
      </trkpt>
      <trkpt lat="45.43261" lon="3.83723">
        <ele>1094</ele>
      </trkpt>
      <trkpt lat="45.43272" lon="3.8372">
        <ele>1093.8</ele>
      </trkpt>
      <trkpt lat="45.43281" lon="3.83717">
        <ele>1093.7</ele>
      </trkpt>
      <trkpt lat="45.4329" lon="3.83714">
        <ele>1093.5</ele>
      </trkpt>
      <trkpt lat="45.433" lon="3.8371">
        <ele>1093.4</ele>
      </trkpt>
      <trkpt lat="45.43316" lon="3.83703">
        <ele>1093.2</ele>
      </trkpt>
      <trkpt lat="45.43316" lon="3.83703">
        <ele>1093.2</ele>
      </trkpt>
      <trkpt lat="45.43326" lon="3.83698">
        <ele>1093.1</ele>
      </trkpt>
      <trkpt lat="45.43344" lon="3.8369">
        <ele>1092.9</ele>
      </trkpt>
      <trkpt lat="45.4336" lon="3.83684">
        <ele>1092.8</ele>
      </trkpt>
      <trkpt lat="45.43373" lon="3.83679">
        <ele>1092.8</ele>
      </trkpt>
      <trkpt lat="45.4338" lon="3.83676">
        <ele>1092.8</ele>
      </trkpt>
      <trkpt lat="45.43386" lon="3.83671">
        <ele>1092.7</ele>
      </trkpt>
      <trkpt lat="45.43393" lon="3.83662">
        <ele>1092.6</ele>
      </trkpt>
      <trkpt lat="45.43396" lon="3.83655">
        <ele>1092.5</ele>
      </trkpt>
      <trkpt lat="45.43398" lon="3.83649">
        <ele>1092.4</ele>
      </trkpt>
      <trkpt lat="45.43399" lon="3.83639">
        <ele>1092.2</ele>
      </trkpt>
      <trkpt lat="45.434" lon="3.83622">
        <ele>1091.8</ele>
      </trkpt>
      <trkpt lat="45.43403" lon="3.83602">
        <ele>1091.6</ele>
      </trkpt>
      <trkpt lat="45.43407" lon="3.83584">
        <ele>1091.4</ele>
      </trkpt>
      <trkpt lat="45.43411" lon="3.83565">
        <ele>1090.8</ele>
      </trkpt>
      <trkpt lat="45.43416" lon="3.83546">
        <ele>1090.2</ele>
      </trkpt>
      <trkpt lat="45.43422" lon="3.83528">
        <ele>1089.5</ele>
      </trkpt>
      <trkpt lat="45.43427" lon="3.8351">
        <ele>1088.6</ele>
      </trkpt>
      <trkpt lat="45.43434" lon="3.83489">
        <ele>1087.3</ele>
      </trkpt>
      <trkpt lat="45.43438" lon="3.83478">
        <ele>1086.5</ele>
      </trkpt>
      <trkpt lat="45.43444" lon="3.83462">
        <ele>1085.3</ele>
      </trkpt>
      <trkpt lat="45.43455" lon="3.83436">
        <ele>1083.5</ele>
      </trkpt>
      <trkpt lat="45.43458" lon="3.83428">
        <ele>1082.9</ele>
      </trkpt>
      <trkpt lat="45.43461" lon="3.8342">
        <ele>1082.3</ele>
      </trkpt>
      <trkpt lat="45.43463" lon="3.83409">
        <ele>1081.6</ele>
      </trkpt>
      <trkpt lat="45.43469" lon="3.83414">
        <ele>1082.1</ele>
      </trkpt>
      <trkpt lat="45.43474" lon="3.83424">
        <ele>1083</ele>
      </trkpt>
      <trkpt lat="45.43478" lon="3.83436">
        <ele>1083.9</ele>
      </trkpt>
      <trkpt lat="45.43482" lon="3.83444">
        <ele>1084.6</ele>
      </trkpt>
      <trkpt lat="45.43488" lon="3.83467">
        <ele>1086.4</ele>
      </trkpt>
      <trkpt lat="45.43492" lon="3.83476">
        <ele>1087.1</ele>
      </trkpt>
      <trkpt lat="45.43494" lon="3.83481">
        <ele>1087.6</ele>
      </trkpt>
      <trkpt lat="45.43498" lon="3.83488">
        <ele>1088.1</ele>
      </trkpt>
      <trkpt lat="45.43501" lon="3.83493">
        <ele>1088.5</ele>
      </trkpt>
      <trkpt lat="45.43506" lon="3.835">
        <ele>1088.9</ele>
      </trkpt>
      <trkpt lat="45.43511" lon="3.83506">
        <ele>1089.3</ele>
      </trkpt>
      <trkpt lat="45.43523" lon="3.83518">
        <ele>1090.1</ele>
      </trkpt>
      <trkpt lat="45.43534" lon="3.83531">
        <ele>1091</ele>
      </trkpt>
      <trkpt lat="45.4354" lon="3.83537">
        <ele>1091.4</ele>
      </trkpt>
      <trkpt lat="45.43548" lon="3.83546">
        <ele>1091.9</ele>
      </trkpt>
      <trkpt lat="45.43555" lon="3.83554">
        <ele>1092.4</ele>
      </trkpt>
      <trkpt lat="45.43562" lon="3.83564">
        <ele>1093.1</ele>
      </trkpt>
      <trkpt lat="45.43569" lon="3.83575">
        <ele>1093.8</ele>
      </trkpt>
      <trkpt lat="45.43575" lon="3.83588">
        <ele>1094.7</ele>
      </trkpt>
      <trkpt lat="45.43581" lon="3.83601">
        <ele>1095.6</ele>
      </trkpt>
      <trkpt lat="45.43585" lon="3.83612">
        <ele>1096.3</ele>
      </trkpt>
      <trkpt lat="45.43585" lon="3.83612">
        <ele>1096.3</ele>
      </trkpt>
      <trkpt lat="45.43589" lon="3.83623">
        <ele>1096.9</ele>
      </trkpt>
      <trkpt lat="45.43592" lon="3.83631">
        <ele>1097.4</ele>
      </trkpt>
      <trkpt lat="45.43594" lon="3.83638">
        <ele>1097.8</ele>
      </trkpt>
      <trkpt lat="45.43596" lon="3.83647">
        <ele>1098.4</ele>
      </trkpt>
      <trkpt lat="45.43599" lon="3.8366">
        <ele>1099.3</ele>
      </trkpt>
      <trkpt lat="45.43603" lon="3.83673">
        <ele>1100.1</ele>
      </trkpt>
      <trkpt lat="45.43607" lon="3.83686">
        <ele>1101.1</ele>
      </trkpt>
      <trkpt lat="45.4361" lon="3.83697">
        <ele>1101.8</ele>
      </trkpt>
      <trkpt lat="45.43616" lon="3.83711">
        <ele>1102.8</ele>
      </trkpt>
      <trkpt lat="45.43621" lon="3.83725">
        <ele>1103.8</ele>
      </trkpt>
      <trkpt lat="45.43625" lon="3.83735">
        <ele>1104.6</ele>
      </trkpt>
      <trkpt lat="45.43629" lon="3.83744">
        <ele>1105.2</ele>
      </trkpt>
      <trkpt lat="45.43632" lon="3.83752">
        <ele>1105.8</ele>
      </trkpt>
      <trkpt lat="45.43638" lon="3.83765">
        <ele>1106.4</ele>
      </trkpt>
      <trkpt lat="45.43643" lon="3.83777">
        <ele>1106.9</ele>
      </trkpt>
      <trkpt lat="45.4365" lon="3.8379">
        <ele>1107.5</ele>
      </trkpt>
      <trkpt lat="45.43653" lon="3.83796">
        <ele>1107.8</ele>
      </trkpt>
      <trkpt lat="45.43656" lon="3.83803">
        <ele>1108.2</ele>
      </trkpt>
      <trkpt lat="45.4366" lon="3.83813">
        <ele>1108.7</ele>
      </trkpt>
      <trkpt lat="45.43665" lon="3.83822">
        <ele>1109.2</ele>
      </trkpt>
      <trkpt lat="45.4367" lon="3.83834">
        <ele>1110</ele>
      </trkpt>
      <trkpt lat="45.43673" lon="3.8384">
        <ele>1110.5</ele>
      </trkpt>
      <trkpt lat="45.43677" lon="3.83848">
        <ele>1111</ele>
      </trkpt>
      <trkpt lat="45.4368" lon="3.83857">
        <ele>1111.6</ele>
      </trkpt>
      <trkpt lat="45.43684" lon="3.83868">
        <ele>1112.3</ele>
      </trkpt>
      <trkpt lat="45.43687" lon="3.83879">
        <ele>1113</ele>
      </trkpt>
      <trkpt lat="45.43691" lon="3.83895">
        <ele>1114</ele>
      </trkpt>
      <trkpt lat="45.43695" lon="3.83911">
        <ele>1114.9</ele>
      </trkpt>
      <trkpt lat="45.43699" lon="3.83926">
        <ele>1115.7</ele>
      </trkpt>
      <trkpt lat="45.43705" lon="3.83949">
        <ele>1116.5</ele>
      </trkpt>
      <trkpt lat="45.43711" lon="3.83971">
        <ele>1117.2</ele>
      </trkpt>
      <trkpt lat="45.43718" lon="3.83994">
        <ele>1117.7</ele>
      </trkpt>
      <trkpt lat="45.43724" lon="3.84016">
        <ele>1117.9</ele>
      </trkpt>
      <trkpt lat="45.43726" lon="3.84025">
        <ele>1117.9</ele>
      </trkpt>
      <trkpt lat="45.43728" lon="3.84037">
        <ele>1118</ele>
      </trkpt>
      <trkpt lat="45.4373" lon="3.84046">
        <ele>1118</ele>
      </trkpt>
      <trkpt lat="45.43733" lon="3.84055">
        <ele>1117.9</ele>
      </trkpt>
      <trkpt lat="45.43738" lon="3.84068">
        <ele>1117.8</ele>
      </trkpt>
      <trkpt lat="45.4374" lon="3.84075">
        <ele>1117.7</ele>
      </trkpt>
      <trkpt lat="45.43744" lon="3.84084">
        <ele>1117.5</ele>
      </trkpt>
      <trkpt lat="45.43753" lon="3.84101">
        <ele>1118.4</ele>
      </trkpt>
      <trkpt lat="45.43761" lon="3.84119">
        <ele>1119.6</ele>
      </trkpt>
      <trkpt lat="45.43767" lon="3.8413">
        <ele>1120.4</ele>
      </trkpt>
      <trkpt lat="45.43778" lon="3.84151">
        <ele>1122.1</ele>
      </trkpt>
      <trkpt lat="45.43788" lon="3.84171">
        <ele>1123.8</ele>
      </trkpt>
      <trkpt lat="45.438" lon="3.84193">
        <ele>1125.2</ele>
      </trkpt>
      <trkpt lat="45.43808" lon="3.84208">
        <ele>1126.1</ele>
      </trkpt>
      <trkpt lat="45.43808" lon="3.84208">
        <ele>1126.1</ele>
      </trkpt>
      <trkpt lat="45.43814" lon="3.8422">
        <ele>1126.9</ele>
      </trkpt>
      <trkpt lat="45.4382" lon="3.84231">
        <ele>1127.7</ele>
      </trkpt>
      <trkpt lat="45.43826" lon="3.84246">
        <ele>1128.7</ele>
      </trkpt>
      <trkpt lat="45.43833" lon="3.84263">
        <ele>1129.6</ele>
      </trkpt>
      <trkpt lat="45.43838" lon="3.84279">
        <ele>1130.3</ele>
      </trkpt>
      <trkpt lat="45.43844" lon="3.84295">
        <ele>1130.9</ele>
      </trkpt>
      <trkpt lat="45.43847" lon="3.84306">
        <ele>1131.4</ele>
      </trkpt>
      <trkpt lat="45.43852" lon="3.84316">
        <ele>1131.7</ele>
      </trkpt>
      <trkpt lat="45.43856" lon="3.84322">
        <ele>1131.9</ele>
      </trkpt>
      <trkpt lat="45.43861" lon="3.84327">
        <ele>1132</ele>
      </trkpt>
      <trkpt lat="45.43871" lon="3.84335">
        <ele>1132.1</ele>
      </trkpt>
      <trkpt lat="45.43883" lon="3.84345">
        <ele>1131.6</ele>
      </trkpt>
      <trkpt lat="45.43901" lon="3.84356">
        <ele>1131.1</ele>
      </trkpt>
      <trkpt lat="45.43907" lon="3.84353">
        <ele>1131</ele>
      </trkpt>
      <trkpt lat="45.43922" lon="3.84351">
        <ele>1130.9</ele>
      </trkpt>
      <trkpt lat="45.43936" lon="3.84347">
        <ele>1131.4</ele>
      </trkpt>
      <trkpt lat="45.4395" lon="3.84344">
        <ele>1131.8</ele>
      </trkpt>
      <trkpt lat="45.43962" lon="3.84342">
        <ele>1132.1</ele>
      </trkpt>
      <trkpt lat="45.43976" lon="3.84342">
        <ele>1132.5</ele>
      </trkpt>
      <trkpt lat="45.43985" lon="3.84342">
        <ele>1132.7</ele>
      </trkpt>
      <trkpt lat="45.44004" lon="3.84343">
        <ele>1133.3</ele>
      </trkpt>
      <trkpt lat="45.44022" lon="3.84344">
        <ele>1134.1</ele>
      </trkpt>
      <trkpt lat="45.4404" lon="3.84344">
        <ele>1134.8</ele>
      </trkpt>
      <trkpt lat="45.44056" lon="3.84345">
        <ele>1135.6</ele>
      </trkpt>
      <trkpt lat="45.44073" lon="3.84346">
        <ele>1136.2</ele>
      </trkpt>
      <trkpt lat="45.44089" lon="3.84347">
        <ele>1136.9</ele>
      </trkpt>
      <trkpt lat="45.44108" lon="3.84346">
        <ele>1137.7</ele>
      </trkpt>
      <trkpt lat="45.44119" lon="3.84345">
        <ele>1138.2</ele>
      </trkpt>
      <trkpt lat="45.44133" lon="3.84342">
        <ele>1138.9</ele>
      </trkpt>
      <trkpt lat="45.44142" lon="3.84343">
        <ele>1139.2</ele>
      </trkpt>
      <trkpt lat="45.44155" lon="3.84342">
        <ele>1139.8</ele>
      </trkpt>
      <trkpt lat="45.44166" lon="3.84339">
        <ele>1140.5</ele>
      </trkpt>
      <trkpt lat="45.44177" lon="3.84336">
        <ele>1140.9</ele>
      </trkpt>
      <trkpt lat="45.44186" lon="3.84334">
        <ele>1141.2</ele>
      </trkpt>
      <trkpt lat="45.44202" lon="3.84331">
        <ele>1141.5</ele>
      </trkpt>
      <trkpt lat="45.44219" lon="3.84329">
        <ele>1141.8</ele>
      </trkpt>
      <trkpt lat="45.44234" lon="3.8433">
        <ele>1142</ele>
      </trkpt>
      <trkpt lat="45.44234" lon="3.8433">
        <ele>1142</ele>
      </trkpt>
      <trkpt lat="45.44247" lon="3.84332">
        <ele>1142.1</ele>
      </trkpt>
      <trkpt lat="45.44261" lon="3.84333">
        <ele>1142.3</ele>
      </trkpt>
      <trkpt lat="45.44278" lon="3.84338">
        <ele>1142.1</ele>
      </trkpt>
      <trkpt lat="45.44296" lon="3.84343">
        <ele>1142</ele>
      </trkpt>
      <trkpt lat="45.44316" lon="3.8435">
        <ele>1141.9</ele>
      </trkpt>
      <trkpt lat="45.44337" lon="3.8435">
        <ele>1142.4</ele>
      </trkpt>
      <trkpt lat="45.44359" lon="3.84349">
        <ele>1142.5</ele>
      </trkpt>
      <trkpt lat="45.44379" lon="3.84348">
        <ele>1142.8</ele>
      </trkpt>
      <trkpt lat="45.44399" lon="3.84346">
        <ele>1143.1</ele>
      </trkpt>
      <trkpt lat="45.44418" lon="3.84345">
        <ele>1143.3</ele>
      </trkpt>
      <trkpt lat="45.44439" lon="3.84342">
        <ele>1143.1</ele>
      </trkpt>
      <trkpt lat="45.4446" lon="3.84339">
        <ele>1142.8</ele>
      </trkpt>
      <trkpt lat="45.4448" lon="3.84336">
        <ele>1142.4</ele>
      </trkpt>
      <trkpt lat="45.44501" lon="3.84333">
        <ele>1142</ele>
      </trkpt>
      <trkpt lat="45.44511" lon="3.84331">
        <ele>1141.2</ele>
      </trkpt>
      <trkpt lat="45.44524" lon="3.84328">
        <ele>1140.2</ele>
      </trkpt>
      <trkpt lat="45.44536" lon="3.84326">
        <ele>1139.1</ele>
      </trkpt>
      <trkpt lat="45.44548" lon="3.84324">
        <ele>1138.1</ele>
      </trkpt>
      <trkpt lat="45.44559" lon="3.84323">
        <ele>1137.1</ele>
      </trkpt>
      <trkpt lat="45.44577" lon="3.84321">
        <ele>1135.3</ele>
      </trkpt>
      <trkpt lat="45.44588" lon="3.84321">
        <ele>1134.9</ele>
      </trkpt>
      <trkpt lat="45.44598" lon="3.84322">
        <ele>1135.3</ele>
      </trkpt>
      <trkpt lat="45.44615" lon="3.84327">
        <ele>1136</ele>
      </trkpt>
      <trkpt lat="45.44621" lon="3.84331">
        <ele>1136.3</ele>
      </trkpt>
      <trkpt lat="45.44627" lon="3.84334">
        <ele>1136.5</ele>
      </trkpt>
      <trkpt lat="45.44635" lon="3.84338">
        <ele>1136.4</ele>
      </trkpt>
      <trkpt lat="45.44645" lon="3.84341">
        <ele>1136.4</ele>
      </trkpt>
      <trkpt lat="45.4466" lon="3.84346">
        <ele>1136.4</ele>
      </trkpt>
      <trkpt lat="45.44671" lon="3.84349">
        <ele>1136.4</ele>
      </trkpt>
      <trkpt lat="45.44688" lon="3.84352">
        <ele>1136.2</ele>
      </trkpt>
      <trkpt lat="45.44706" lon="3.84354">
        <ele>1136.1</ele>
      </trkpt>
      <trkpt lat="45.44706" lon="3.84354">
        <ele>1136.1</ele>
      </trkpt>
      <trkpt lat="45.44706" lon="3.84354">
        <ele>1136.1</ele>
      </trkpt>
      <trkpt lat="45.44723" lon="3.84357">
        <ele>1135.9</ele>
      </trkpt>
      <trkpt lat="45.44742" lon="3.84351">
        <ele>1136.8</ele>
      </trkpt>
      <trkpt lat="45.44762" lon="3.84345">
        <ele>1136.8</ele>
      </trkpt>
      <trkpt lat="45.44781" lon="3.84338">
        <ele>1136.1</ele>
      </trkpt>
      <trkpt lat="45.44793" lon="3.84334">
        <ele>1135.7</ele>
      </trkpt>
      <trkpt lat="45.44806" lon="3.84331">
        <ele>1135.3</ele>
      </trkpt>
      <trkpt lat="45.44812" lon="3.84328">
        <ele>1135</ele>
      </trkpt>
      <trkpt lat="45.44818" lon="3.84327">
        <ele>1134.7</ele>
      </trkpt>
      <trkpt lat="45.44824" lon="3.84327">
        <ele>1134.4</ele>
      </trkpt>
      <trkpt lat="45.4483" lon="3.84327">
        <ele>1133.9</ele>
      </trkpt>
      <trkpt lat="45.44836" lon="3.84328">
        <ele>1133.6</ele>
      </trkpt>
      <trkpt lat="45.44848" lon="3.84331">
        <ele>1133.7</ele>
      </trkpt>
      <trkpt lat="45.44856" lon="3.84335">
        <ele>1133.7</ele>
      </trkpt>
      <trkpt lat="45.44875" lon="3.84347">
        <ele>1133.2</ele>
      </trkpt>
      <trkpt lat="45.44884" lon="3.84351">
        <ele>1133.2</ele>
      </trkpt>
      <trkpt lat="45.44891" lon="3.84355">
        <ele>1133.3</ele>
      </trkpt>
      <trkpt lat="45.449" lon="3.84359">
        <ele>1133.5</ele>
      </trkpt>
      <trkpt lat="45.44909" lon="3.84362">
        <ele>1133.8</ele>
      </trkpt>
      <trkpt lat="45.44916" lon="3.84366">
        <ele>1134</ele>
      </trkpt>
      <trkpt lat="45.44921" lon="3.8437">
        <ele>1134.1</ele>
      </trkpt>
      <trkpt lat="45.44927" lon="3.84376">
        <ele>1134</ele>
      </trkpt>
      <trkpt lat="45.44934" lon="3.84386">
        <ele>1133.8</ele>
      </trkpt>
      <trkpt lat="45.44938" lon="3.84394">
        <ele>1133.6</ele>
      </trkpt>
      <trkpt lat="45.44942" lon="3.84401">
        <ele>1133.4</ele>
      </trkpt>
      <trkpt lat="45.44945" lon="3.84411">
        <ele>1133</ele>
      </trkpt>
      <trkpt lat="45.44949" lon="3.84424">
        <ele>1132.5</ele>
      </trkpt>
      <trkpt lat="45.44955" lon="3.84441">
        <ele>1132</ele>
      </trkpt>
      <trkpt lat="45.44958" lon="3.84455">
        <ele>1131.7</ele>
      </trkpt>
      <trkpt lat="45.44961" lon="3.84463">
        <ele>1131.6</ele>
      </trkpt>
      <trkpt lat="45.44974" lon="3.84489">
        <ele>1132.2</ele>
      </trkpt>
      <trkpt lat="45.44987" lon="3.84515">
        <ele>1132.5</ele>
      </trkpt>
      <trkpt lat="45.45" lon="3.84536">
        <ele>1133</ele>
      </trkpt>
      <trkpt lat="45.45014" lon="3.84557">
        <ele>1130.8</ele>
      </trkpt>
      <trkpt lat="45.45027" lon="3.84571">
        <ele>1129.1</ele>
      </trkpt>
      <trkpt lat="45.45039" lon="3.84581">
        <ele>1127.8</ele>
      </trkpt>
      <trkpt lat="45.45048" lon="3.84589">
        <ele>1126.9</ele>
      </trkpt>
      <trkpt lat="45.45054" lon="3.84594">
        <ele>1126.4</ele>
      </trkpt>
      <trkpt lat="45.45059" lon="3.84597">
        <ele>1126.1</ele>
      </trkpt>
      <trkpt lat="45.45064" lon="3.84599">
        <ele>1125.8</ele>
      </trkpt>
      <trkpt lat="45.4507" lon="3.84599">
        <ele>1125.7</ele>
      </trkpt>
      <trkpt lat="45.45076" lon="3.846">
        <ele>1125.6</ele>
      </trkpt>
      <trkpt lat="45.45076" lon="3.846">
        <ele>1125.6</ele>
      </trkpt>
      <trkpt lat="45.45084" lon="3.84598">
        <ele>1125.4</ele>
      </trkpt>
      <trkpt lat="45.45097" lon="3.84594">
        <ele>1124</ele>
      </trkpt>
      <trkpt lat="45.45115" lon="3.84587">
        <ele>1122.1</ele>
      </trkpt>
      <trkpt lat="45.45132" lon="3.8458">
        <ele>1120.6</ele>
      </trkpt>
      <trkpt lat="45.45143" lon="3.84576">
        <ele>1119.7</ele>
      </trkpt>
      <trkpt lat="45.45159" lon="3.84573">
        <ele>1118.2</ele>
      </trkpt>
      <trkpt lat="45.45172" lon="3.84571">
        <ele>1116.7</ele>
      </trkpt>
      <trkpt lat="45.45185" lon="3.84569">
        <ele>1115</ele>
      </trkpt>
      <trkpt lat="45.452" lon="3.84568">
        <ele>1113.2</ele>
      </trkpt>
      <trkpt lat="45.45214" lon="3.84566">
        <ele>1111.4</ele>
      </trkpt>
      <trkpt lat="45.45227" lon="3.84565">
        <ele>1109.7</ele>
      </trkpt>
      <trkpt lat="45.4524" lon="3.84564">
        <ele>1108</ele>
      </trkpt>
      <trkpt lat="45.45261" lon="3.84561">
        <ele>1105.6</ele>
      </trkpt>
      <trkpt lat="45.45274" lon="3.84558">
        <ele>1104.2</ele>
      </trkpt>
      <trkpt lat="45.45286" lon="3.84555">
        <ele>1102.8</ele>
      </trkpt>
      <trkpt lat="45.45302" lon="3.84552">
        <ele>1100.9</ele>
      </trkpt>
      <trkpt lat="45.45323" lon="3.84544">
        <ele>1099.2</ele>
      </trkpt>
      <trkpt lat="45.4534" lon="3.84535">
        <ele>1097.9</ele>
      </trkpt>
      <trkpt lat="45.45353" lon="3.84529">
        <ele>1096.3</ele>
      </trkpt>
      <trkpt lat="45.45369" lon="3.84522">
        <ele>1094.4</ele>
      </trkpt>
      <trkpt lat="45.45389" lon="3.84512">
        <ele>1092.2</ele>
      </trkpt>
      <trkpt lat="45.4541" lon="3.84502">
        <ele>1090</ele>
      </trkpt>
      <trkpt lat="45.4543" lon="3.84492">
        <ele>1087.4</ele>
      </trkpt>
      <trkpt lat="45.45448" lon="3.84478">
        <ele>1085.7</ele>
      </trkpt>
      <trkpt lat="45.45465" lon="3.84464">
        <ele>1083.7</ele>
      </trkpt>
      <trkpt lat="45.45482" lon="3.8445">
        <ele>1081.3</ele>
      </trkpt>
      <trkpt lat="45.45498" lon="3.84454">
        <ele>1076.6</ele>
      </trkpt>
      <trkpt lat="45.45514" lon="3.84457">
        <ele>1072.9</ele>
      </trkpt>
      <trkpt lat="45.45531" lon="3.8445">
        <ele>1070.6</ele>
      </trkpt>
      <trkpt lat="45.45531" lon="3.8445">
        <ele>1070.6</ele>
      </trkpt>
      <trkpt lat="45.45548" lon="3.84442">
        <ele>1068.2</ele>
      </trkpt>
      <trkpt lat="45.45565" lon="3.84435">
        <ele>1065.7</ele>
      </trkpt>
      <trkpt lat="45.45583" lon="3.84417">
        <ele>1064</ele>
      </trkpt>
      <trkpt lat="45.45601" lon="3.844">
        <ele>1062</ele>
      </trkpt>
      <trkpt lat="45.45616" lon="3.84394">
        <ele>1059.8</ele>
      </trkpt>
      <trkpt lat="45.45631" lon="3.84388">
        <ele>1057.6</ele>
      </trkpt>
      <trkpt lat="45.45646" lon="3.84382">
        <ele>1055.3</ele>
      </trkpt>
      <trkpt lat="45.45668" lon="3.84379">
        <ele>1051.6</ele>
      </trkpt>
      <trkpt lat="45.45683" lon="3.84382">
        <ele>1049.1</ele>
      </trkpt>
      <trkpt lat="45.45699" lon="3.84385">
        <ele>1046.6</ele>
      </trkpt>
      <trkpt lat="45.45714" lon="3.84388">
        <ele>1044.2</ele>
      </trkpt>
      <trkpt lat="45.45729" lon="3.84396">
        <ele>1041.7</ele>
      </trkpt>
      <trkpt lat="45.45744" lon="3.84404">
        <ele>1039.2</ele>
      </trkpt>
      <trkpt lat="45.45759" lon="3.84413">
        <ele>1037.1</ele>
      </trkpt>
      <trkpt lat="45.45776" lon="3.84408">
        <ele>1035.2</ele>
      </trkpt>
      <trkpt lat="45.45793" lon="3.84404">
        <ele>1033.2</ele>
      </trkpt>
      <trkpt lat="45.4581" lon="3.84399">
        <ele>1031</ele>
      </trkpt>
      <trkpt lat="45.45812" lon="3.84422">
        <ele>1031.4</ele>
      </trkpt>
      <trkpt lat="45.45814" lon="3.84452">
        <ele>1032.1</ele>
      </trkpt>
      <trkpt lat="45.45821" lon="3.84436">
        <ele>1031.1</ele>
      </trkpt>
      <trkpt lat="45.45828" lon="3.84435">
        <ele>1030.4</ele>
      </trkpt>
      <trkpt lat="45.45833" lon="3.84433">
        <ele>1029.8</ele>
      </trkpt>
      <trkpt lat="45.45846" lon="3.84423">
        <ele>1031.2</ele>
      </trkpt>
      <trkpt lat="45.45862" lon="3.84412">
        <ele>1032.7</ele>
      </trkpt>
      <trkpt lat="45.45876" lon="3.84404">
        <ele>1033.8</ele>
      </trkpt>
      <trkpt lat="45.45883" lon="3.84398">
        <ele>1034</ele>
      </trkpt>
      <trkpt lat="45.45894" lon="3.84387">
        <ele>1034</ele>
      </trkpt>
      <trkpt lat="45.45903" lon="3.84378">
        <ele>1033.8</ele>
      </trkpt>
      <trkpt lat="45.45914" lon="3.84369">
        <ele>1033.4</ele>
      </trkpt>
      <trkpt lat="45.45923" lon="3.84362">
        <ele>1033.7</ele>
      </trkpt>
      <trkpt lat="45.45932" lon="3.84356">
        <ele>1034.5</ele>
      </trkpt>
      <trkpt lat="45.45932" lon="3.84356">
        <ele>1034.5</ele>
      </trkpt>
      <trkpt lat="45.45939" lon="3.84352">
        <ele>1035.2</ele>
      </trkpt>
      <trkpt lat="45.45956" lon="3.84344">
        <ele>1037.2</ele>
      </trkpt>
      <trkpt lat="45.45973" lon="3.84334">
        <ele>1039</ele>
      </trkpt>
      <trkpt lat="45.45984" lon="3.84327">
        <ele>1039.7</ele>
      </trkpt>
      <trkpt lat="45.46" lon="3.84316">
        <ele>1040.5</ele>
      </trkpt>
      <trkpt lat="45.46005" lon="3.84312">
        <ele>1040.4</ele>
      </trkpt>
      <trkpt lat="45.46021" lon="3.843">
        <ele>1040.1</ele>
      </trkpt>
      <trkpt lat="45.46036" lon="3.84288">
        <ele>1039.8</ele>
      </trkpt>
      <trkpt lat="45.46052" lon="3.84276">
        <ele>1039.5</ele>
      </trkpt>
      <trkpt lat="45.46066" lon="3.84261">
        <ele>1038.6</ele>
      </trkpt>
      <trkpt lat="45.46081" lon="3.84245">
        <ele>1037.6</ele>
      </trkpt>
      <trkpt lat="45.46092" lon="3.84235">
        <ele>1036.8</ele>
      </trkpt>
      <trkpt lat="45.46104" lon="3.84225">
        <ele>1036</ele>
      </trkpt>
      <trkpt lat="45.46124" lon="3.84217">
        <ele>1036.8</ele>
      </trkpt>
      <trkpt lat="45.46142" lon="3.84208">
        <ele>1037.3</ele>
      </trkpt>
      <trkpt lat="45.46158" lon="3.84197">
        <ele>1037.3</ele>
      </trkpt>
      <trkpt lat="45.46171" lon="3.84184">
        <ele>1036.4</ele>
      </trkpt>
      <trkpt lat="45.46185" lon="3.84171">
        <ele>1034.7</ele>
      </trkpt>
      <trkpt lat="45.4619" lon="3.84166">
        <ele>1034</ele>
      </trkpt>
      <trkpt lat="45.46207" lon="3.84149">
        <ele>1031.4</ele>
      </trkpt>
      <trkpt lat="45.46224" lon="3.84133">
        <ele>1028.3</ele>
      </trkpt>
      <trkpt lat="45.46242" lon="3.84116">
        <ele>1024.8</ele>
      </trkpt>
      <trkpt lat="45.46252" lon="3.84104">
        <ele>1022.1</ele>
      </trkpt>
      <trkpt lat="45.46262" lon="3.84091">
        <ele>1020.3</ele>
      </trkpt>
      <trkpt lat="45.46275" lon="3.84078">
        <ele>1018.8</ele>
      </trkpt>
      <trkpt lat="45.46289" lon="3.84069">
        <ele>1018.6</ele>
      </trkpt>
      <trkpt lat="45.46304" lon="3.84062">
        <ele>1018.4</ele>
      </trkpt>
      <trkpt lat="45.46319" lon="3.84056">
        <ele>1018.2</ele>
      </trkpt>
      <trkpt lat="45.46337" lon="3.84053">
        <ele>1018.6</ele>
      </trkpt>
      <trkpt lat="45.46353" lon="3.84048">
        <ele>1019.4</ele>
      </trkpt>
      <trkpt lat="45.46353" lon="3.84048">
        <ele>1019.4</ele>
      </trkpt>
      <trkpt lat="45.46369" lon="3.8404">
        <ele>1019.4</ele>
      </trkpt>
      <trkpt lat="45.46376" lon="3.84036">
        <ele>1019.4</ele>
      </trkpt>
      <trkpt lat="45.46383" lon="3.84031">
        <ele>1019.3</ele>
      </trkpt>
      <trkpt lat="45.46393" lon="3.84022">
        <ele>1018.7</ele>
      </trkpt>
      <trkpt lat="45.46402" lon="3.84013">
        <ele>1018.2</ele>
      </trkpt>
      <trkpt lat="45.46414" lon="3.84001">
        <ele>1017.8</ele>
      </trkpt>
      <trkpt lat="45.46426" lon="3.8399">
        <ele>1016.6</ele>
      </trkpt>
      <trkpt lat="45.4644" lon="3.83976">
        <ele>1014.8</ele>
      </trkpt>
      <trkpt lat="45.46452" lon="3.83961">
        <ele>1013</ele>
      </trkpt>
      <trkpt lat="45.46464" lon="3.83947">
        <ele>1011.3</ele>
      </trkpt>
      <trkpt lat="45.46476" lon="3.83935">
        <ele>1010.4</ele>
      </trkpt>
      <trkpt lat="45.46487" lon="3.83927">
        <ele>1010.1</ele>
      </trkpt>
      <trkpt lat="45.46497" lon="3.83919">
        <ele>1009.9</ele>
      </trkpt>
      <trkpt lat="45.46514" lon="3.83906">
        <ele>1008.6</ele>
      </trkpt>
      <trkpt lat="45.46532" lon="3.83893">
        <ele>1007.1</ele>
      </trkpt>
      <trkpt lat="45.46538" lon="3.8389">
        <ele>1006.9</ele>
      </trkpt>
      <trkpt lat="45.46544" lon="3.83886">
        <ele>1006.6</ele>
      </trkpt>
      <trkpt lat="45.46548" lon="3.83882">
        <ele>1006.2</ele>
      </trkpt>
      <trkpt lat="45.46553" lon="3.83876">
        <ele>1005.5</ele>
      </trkpt>
      <trkpt lat="45.4656" lon="3.83866">
        <ele>1004.2</ele>
      </trkpt>
      <trkpt lat="45.46564" lon="3.83861">
        <ele>1003.7</ele>
      </trkpt>
      <trkpt lat="45.46568" lon="3.83856">
        <ele>1003.2</ele>
      </trkpt>
      <trkpt lat="45.46574" lon="3.8385">
        <ele>1002.7</ele>
      </trkpt>
      <trkpt lat="45.46579" lon="3.83844">
        <ele>1002.3</ele>
      </trkpt>
      <trkpt lat="45.46589" lon="3.83837">
        <ele>1001.4</ele>
      </trkpt>
      <trkpt lat="45.46602" lon="3.83828">
        <ele>999.6</ele>
      </trkpt>
      <trkpt lat="45.46612" lon="3.83822">
        <ele>998.5</ele>
      </trkpt>
      <trkpt lat="45.46621" lon="3.83817">
        <ele>997.5</ele>
      </trkpt>
      <trkpt lat="45.46636" lon="3.83811">
        <ele>996.1</ele>
      </trkpt>
      <trkpt lat="45.46648" lon="3.83807">
        <ele>995.1</ele>
      </trkpt>
      <trkpt lat="45.4666" lon="3.83804">
        <ele>994.2</ele>
      </trkpt>
      <trkpt lat="45.4667" lon="3.838">
        <ele>993.3</ele>
      </trkpt>
      <trkpt lat="45.46683" lon="3.83797">
        <ele>992.4</ele>
      </trkpt>
      <trkpt lat="45.46696" lon="3.83795">
        <ele>991.7</ele>
      </trkpt>
      <trkpt lat="45.46713" lon="3.83795">
        <ele>990.9</ele>
      </trkpt>
      <trkpt lat="45.46731" lon="3.83794">
        <ele>990.1</ele>
      </trkpt>
      <trkpt lat="45.46749" lon="3.83793">
        <ele>989.2</ele>
      </trkpt>
      <trkpt lat="45.46754" lon="3.8379">
        <ele>988.9</ele>
      </trkpt>
      <trkpt lat="45.46776" lon="3.83785">
        <ele>989.1</ele>
      </trkpt>
      <trkpt lat="45.46776" lon="3.83785">
        <ele>989.1</ele>
      </trkpt>
      <trkpt lat="45.46792" lon="3.83782">
        <ele>989.2</ele>
      </trkpt>
      <trkpt lat="45.4681" lon="3.83779">
        <ele>989.6</ele>
      </trkpt>
      <trkpt lat="45.4682" lon="3.83776">
        <ele>989.5</ele>
      </trkpt>
      <trkpt lat="45.46828" lon="3.83772">
        <ele>989.3</ele>
      </trkpt>
      <trkpt lat="45.46834" lon="3.83769">
        <ele>989.1</ele>
      </trkpt>
      <trkpt lat="45.46845" lon="3.83761">
        <ele>989</ele>
      </trkpt>
      <trkpt lat="45.46855" lon="3.83752">
        <ele>988.8</ele>
      </trkpt>
      <trkpt lat="45.46873" lon="3.83735">
        <ele>987.3</ele>
      </trkpt>
      <trkpt lat="45.46881" lon="3.83727">
        <ele>986.3</ele>
      </trkpt>
      <trkpt lat="45.46889" lon="3.83718">
        <ele>985.1</ele>
      </trkpt>
      <trkpt lat="45.46894" lon="3.83713">
        <ele>984.4</ele>
      </trkpt>
      <trkpt lat="45.469" lon="3.83708">
        <ele>984</ele>
      </trkpt>
      <trkpt lat="45.46906" lon="3.83704">
        <ele>983.7</ele>
      </trkpt>
      <trkpt lat="45.46914" lon="3.83699">
        <ele>983.1</ele>
      </trkpt>
      <trkpt lat="45.46921" lon="3.83692">
        <ele>982.5</ele>
      </trkpt>
      <trkpt lat="45.46931" lon="3.83681">
        <ele>982.2</ele>
      </trkpt>
      <trkpt lat="45.46941" lon="3.83673">
        <ele>982.1</ele>
      </trkpt>
      <trkpt lat="45.46947" lon="3.83669">
        <ele>982.3</ele>
      </trkpt>
      <trkpt lat="45.46952" lon="3.83666">
        <ele>982.7</ele>
      </trkpt>
      <trkpt lat="45.46957" lon="3.83663">
        <ele>983.1</ele>
      </trkpt>
      <trkpt lat="45.46962" lon="3.8366">
        <ele>983.8</ele>
      </trkpt>
      <trkpt lat="45.46971" lon="3.83656">
        <ele>984.9</ele>
      </trkpt>
      <trkpt lat="45.46981" lon="3.83651">
        <ele>986.2</ele>
      </trkpt>
      <trkpt lat="45.4699" lon="3.83648">
        <ele>987.8</ele>
      </trkpt>
      <trkpt lat="45.46998" lon="3.83646">
        <ele>989.1</ele>
      </trkpt>
      <trkpt lat="45.47007" lon="3.83644">
        <ele>991</ele>
      </trkpt>
      <trkpt lat="45.47025" lon="3.83641">
        <ele>994.8</ele>
      </trkpt>
      <trkpt lat="45.47037" lon="3.8364">
        <ele>997.5</ele>
      </trkpt>
      <trkpt lat="45.47048" lon="3.83639">
        <ele>1000.1</ele>
      </trkpt>
      <trkpt lat="45.47054" lon="3.83639">
        <ele>1001.3</ele>
      </trkpt>
      <trkpt lat="45.47066" lon="3.83638">
        <ele>1004</ele>
      </trkpt>
      <trkpt lat="45.4708" lon="3.83637">
        <ele>1007.2</ele>
      </trkpt>
      <trkpt lat="45.47092" lon="3.83636">
        <ele>1009</ele>
      </trkpt>
      <trkpt lat="45.47113" lon="3.83635">
        <ele>1011.5</ele>
      </trkpt>
      <trkpt lat="45.47129" lon="3.83635">
        <ele>1013.4</ele>
      </trkpt>
      <trkpt lat="45.47145" lon="3.83635">
        <ele>1015.4</ele>
      </trkpt>
      <trkpt lat="45.47161" lon="3.83635">
        <ele>1017.3</ele>
      </trkpt>
      <trkpt lat="45.47166" lon="3.83635">
        <ele>1018.1</ele>
      </trkpt>
      <trkpt lat="45.47175" lon="3.83635">
        <ele>1018.1</ele>
      </trkpt>
      <trkpt lat="45.47179" lon="3.83633">
        <ele>1018</ele>
      </trkpt>
      <trkpt lat="45.47187" lon="3.8363">
        <ele>1017.5</ele>
      </trkpt>
      <trkpt lat="45.472" lon="3.83624">
        <ele>1016.5</ele>
      </trkpt>
      <trkpt lat="45.47207" lon="3.83621">
        <ele>1015.9</ele>
      </trkpt>
      <trkpt lat="45.47207" lon="3.83621">
        <ele>1015.9</ele>
      </trkpt>
      <trkpt lat="45.47214" lon="3.83618">
        <ele>1015.7</ele>
      </trkpt>
      <trkpt lat="45.4722" lon="3.83616">
        <ele>1015.5</ele>
      </trkpt>
      <trkpt lat="45.47225" lon="3.83615">
        <ele>1015.3</ele>
      </trkpt>
      <trkpt lat="45.47234" lon="3.83613">
        <ele>1015.4</ele>
      </trkpt>
      <trkpt lat="45.47243" lon="3.83612">
        <ele>1015.5</ele>
      </trkpt>
      <trkpt lat="45.47249" lon="3.83611">
        <ele>1015.6</ele>
      </trkpt>
      <trkpt lat="45.47255" lon="3.83608">
        <ele>1016</ele>
      </trkpt>
      <trkpt lat="45.47262" lon="3.83605">
        <ele>1016.5</ele>
      </trkpt>
      <trkpt lat="45.47272" lon="3.83598">
        <ele>1016.8</ele>
      </trkpt>
      <trkpt lat="45.4729" lon="3.83585">
        <ele>1017.4</ele>
      </trkpt>
      <trkpt lat="45.47306" lon="3.83572">
        <ele>1017.6</ele>
      </trkpt>
      <trkpt lat="45.47314" lon="3.83565">
        <ele>1017.5</ele>
      </trkpt>
      <trkpt lat="45.4732" lon="3.8356">
        <ele>1017.3</ele>
      </trkpt>
      <trkpt lat="45.47325" lon="3.83554">
        <ele>1016.9</ele>
      </trkpt>
      <trkpt lat="45.47332" lon="3.83545">
        <ele>1016.1</ele>
      </trkpt>
      <trkpt lat="45.47338" lon="3.83538">
        <ele>1015.3</ele>
      </trkpt>
      <trkpt lat="45.47347" lon="3.83528">
        <ele>1014.3</ele>
      </trkpt>
      <trkpt lat="45.47354" lon="3.8352">
        <ele>1013.6</ele>
      </trkpt>
      <trkpt lat="45.47361" lon="3.83513">
        <ele>1013</ele>
      </trkpt>
      <trkpt lat="45.4737" lon="3.83505">
        <ele>1012.6</ele>
      </trkpt>
      <trkpt lat="45.47377" lon="3.83498">
        <ele>1012.6</ele>
      </trkpt>
      <trkpt lat="45.47386" lon="3.83492">
        <ele>1013.3</ele>
      </trkpt>
      <trkpt lat="45.47395" lon="3.83487">
        <ele>1014</ele>
      </trkpt>
      <trkpt lat="45.47415" lon="3.83475">
        <ele>1015.7</ele>
      </trkpt>
      <trkpt lat="45.47434" lon="3.83463">
        <ele>1016.1</ele>
      </trkpt>
      <trkpt lat="45.47454" lon="3.83451">
        <ele>1015.7</ele>
      </trkpt>
      <trkpt lat="45.47463" lon="3.83445">
        <ele>1015.2</ele>
      </trkpt>
      <trkpt lat="45.47471" lon="3.8344">
        <ele>1014.6</ele>
      </trkpt>
      <trkpt lat="45.4748" lon="3.83435">
        <ele>1013.9</ele>
      </trkpt>
      <trkpt lat="45.47486" lon="3.83432">
        <ele>1013.6</ele>
      </trkpt>
      <trkpt lat="45.47493" lon="3.83431">
        <ele>1013.4</ele>
      </trkpt>
      <trkpt lat="45.47503" lon="3.83428">
        <ele>1013.5</ele>
      </trkpt>
      <trkpt lat="45.47514" lon="3.83427">
        <ele>1014.7</ele>
      </trkpt>
      <trkpt lat="45.47524" lon="3.83426">
        <ele>1015.9</ele>
      </trkpt>
      <trkpt lat="45.47531" lon="3.83424">
        <ele>1016.4</ele>
      </trkpt>
      <trkpt lat="45.47551" lon="3.83417">
        <ele>1018</ele>
      </trkpt>
      <trkpt lat="45.4757" lon="3.83411">
        <ele>1020.2</ele>
      </trkpt>
      <trkpt lat="45.4759" lon="3.83404">
        <ele>1021.4</ele>
      </trkpt>
      <trkpt lat="45.47609" lon="3.83398">
        <ele>1020.5</ele>
      </trkpt>
      <trkpt lat="45.47629" lon="3.83392">
        <ele>1019.5</ele>
      </trkpt>
      <trkpt lat="45.47637" lon="3.83387">
        <ele>1018.9</ele>
      </trkpt>
      <trkpt lat="45.47637" lon="3.83387">
        <ele>1018.9</ele>
      </trkpt>
      <trkpt lat="45.47653" lon="3.83379">
        <ele>1017.7</ele>
      </trkpt>
      <trkpt lat="45.47664" lon="3.83375">
        <ele>1017.1</ele>
      </trkpt>
      <trkpt lat="45.47676" lon="3.83373">
        <ele>1016.8</ele>
      </trkpt>
      <trkpt lat="45.47692" lon="3.8337">
        <ele>1016.7</ele>
      </trkpt>
      <trkpt lat="45.47705" lon="3.83369">
        <ele>1016.6</ele>
      </trkpt>
      <trkpt lat="45.47718" lon="3.83369">
        <ele>1016.6</ele>
      </trkpt>
      <trkpt lat="45.47731" lon="3.83368">
        <ele>1016.7</ele>
      </trkpt>
      <trkpt lat="45.47745" lon="3.83368">
        <ele>1016.8</ele>
      </trkpt>
      <trkpt lat="45.47759" lon="3.83368">
        <ele>1016.9</ele>
      </trkpt>
      <trkpt lat="45.47777" lon="3.83371">
        <ele>1017.5</ele>
      </trkpt>
      <trkpt lat="45.47783" lon="3.83372">
        <ele>1017.7</ele>
      </trkpt>
      <trkpt lat="45.47795" lon="3.83375">
        <ele>1018.3</ele>
      </trkpt>
      <trkpt lat="45.47807" lon="3.83379">
        <ele>1018.9</ele>
      </trkpt>
      <trkpt lat="45.47812" lon="3.83381">
        <ele>1019.2</ele>
      </trkpt>
      <trkpt lat="45.47821" lon="3.83383">
        <ele>1019.7</ele>
      </trkpt>
      <trkpt lat="45.47827" lon="3.83386">
        <ele>1020.1</ele>
      </trkpt>
      <trkpt lat="45.47836" lon="3.83388">
        <ele>1020.2</ele>
      </trkpt>
      <trkpt lat="45.47844" lon="3.8339">
        <ele>1019.8</ele>
      </trkpt>
      <trkpt lat="45.47852" lon="3.83391">
        <ele>1019.4</ele>
      </trkpt>
      <trkpt lat="45.4786" lon="3.83394">
        <ele>1019.2</ele>
      </trkpt>
      <trkpt lat="45.47868" lon="3.83397">
        <ele>1019.2</ele>
      </trkpt>
      <trkpt lat="45.47889" lon="3.83399">
        <ele>1017.7</ele>
      </trkpt>
      <trkpt lat="45.47909" lon="3.834">
        <ele>1016.1</ele>
      </trkpt>
      <trkpt lat="45.4793" lon="3.83402">
        <ele>1015.3</ele>
      </trkpt>
      <trkpt lat="45.47951" lon="3.83403">
        <ele>1014.7</ele>
      </trkpt>
      <trkpt lat="45.47972" lon="3.83404">
        <ele>1014.1</ele>
      </trkpt>
      <trkpt lat="45.47992" lon="3.83406">
        <ele>1013.4</ele>
      </trkpt>
      <trkpt lat="45.48014" lon="3.83405">
        <ele>1013.5</ele>
      </trkpt>
      <trkpt lat="45.48022" lon="3.83405">
        <ele>1013.7</ele>
      </trkpt>
      <trkpt lat="45.48027" lon="3.83406">
        <ele>1014</ele>
      </trkpt>
      <trkpt lat="45.48027" lon="3.83399">
        <ele>1013.5</ele>
      </trkpt>
      <trkpt lat="45.48029" lon="3.83381">
        <ele>1012.4</ele>
      </trkpt>
      <trkpt lat="45.48029" lon="3.83367">
        <ele>1011.5</ele>
      </trkpt>
      <trkpt lat="45.48026" lon="3.83359">
        <ele>1010.9</ele>
      </trkpt>
      <trkpt lat="45.48023" lon="3.83352">
        <ele>1010.2</ele>
      </trkpt>
      <trkpt lat="45.48016" lon="3.83345">
        <ele>1009.2</ele>
      </trkpt>
      <trkpt lat="45.48008" lon="3.83336">
        <ele>1007.8</ele>
      </trkpt>
      <trkpt lat="45.47997" lon="3.83326">
        <ele>1006.3</ele>
      </trkpt>
      <trkpt lat="45.47997" lon="3.83326">
        <ele>1006.3</ele>
      </trkpt>
      <trkpt lat="45.47993" lon="3.83321">
        <ele>1005.7</ele>
      </trkpt>
      <trkpt lat="45.4799" lon="3.83313">
        <ele>1004.8</ele>
      </trkpt>
      <trkpt lat="45.47991" lon="3.83304">
        <ele>1004.3</ele>
      </trkpt>
      <trkpt lat="45.47993" lon="3.83295">
        <ele>1003.9</ele>
      </trkpt>
      <trkpt lat="45.48007" lon="3.83275">
        <ele>1004.4</ele>
      </trkpt>
      <trkpt lat="45.48021" lon="3.83254">
        <ele>1005.2</ele>
      </trkpt>
      <trkpt lat="45.48035" lon="3.83233">
        <ele>1007</ele>
      </trkpt>
      <trkpt lat="45.48038" lon="3.83227">
        <ele>1007.4</ele>
      </trkpt>
      <trkpt lat="45.48042" lon="3.83216">
        <ele>1007.8</ele>
      </trkpt>
      <trkpt lat="45.48045" lon="3.83207">
        <ele>1008.2</ele>
      </trkpt>
      <trkpt lat="45.48049" lon="3.83201">
        <ele>1008.6</ele>
      </trkpt>
      <trkpt lat="45.48053" lon="3.83196">
        <ele>1009.2</ele>
      </trkpt>
      <trkpt lat="45.48057" lon="3.83192">
        <ele>1009.8</ele>
      </trkpt>
      <trkpt lat="45.48061" lon="3.83198">
        <ele>1010.3</ele>
      </trkpt>
      <trkpt lat="45.48067" lon="3.83201">
        <ele>1011.1</ele>
      </trkpt>
      <trkpt lat="45.48073" lon="3.83206">
        <ele>1012</ele>
      </trkpt>
      <trkpt lat="45.48073" lon="3.83224">
        <ele>1012.2</ele>
      </trkpt>
      <trkpt lat="45.48073" lon="3.83232">
        <ele>1012.3</ele>
      </trkpt>
      <trkpt lat="45.48074" lon="3.83239">
        <ele>1012.5</ele>
      </trkpt>
      <trkpt lat="45.48076" lon="3.83246">
        <ele>1012.9</ele>
      </trkpt>
      <trkpt lat="45.48078" lon="3.83252">
        <ele>1013.3</ele>
      </trkpt>
      <trkpt lat="45.48083" lon="3.83261">
        <ele>1013.9</ele>
      </trkpt>
      <trkpt lat="45.48087" lon="3.83266">
        <ele>1014.4</ele>
      </trkpt>
      <trkpt lat="45.48096" lon="3.83267">
        <ele>1015.7</ele>
      </trkpt>
      <trkpt lat="45.48102" lon="3.83269">
        <ele>1016.5</ele>
      </trkpt>
      <trkpt lat="45.48109" lon="3.83275">
        <ele>1017.5</ele>
      </trkpt>
      <trkpt lat="45.48118" lon="3.83279">
        <ele>1018.9</ele>
      </trkpt>
      <trkpt lat="45.48137" lon="3.83286">
        <ele>1021.7</ele>
      </trkpt>
      <trkpt lat="45.48155" lon="3.83292">
        <ele>1024.4</ele>
      </trkpt>
      <trkpt lat="45.4817" lon="3.83298">
        <ele>1026.4</ele>
      </trkpt>
      <trkpt lat="45.48178" lon="3.83301">
        <ele>1027</ele>
      </trkpt>
      <trkpt lat="45.48187" lon="3.83303">
        <ele>1027.6</ele>
      </trkpt>
      <trkpt lat="45.48196" lon="3.83306">
        <ele>1028.2</ele>
      </trkpt>
      <trkpt lat="45.48206" lon="3.83309">
        <ele>1028.9</ele>
      </trkpt>
      <trkpt lat="45.48212" lon="3.83312">
        <ele>1029.4</ele>
      </trkpt>
      <trkpt lat="45.4822" lon="3.83317">
        <ele>1029.9</ele>
      </trkpt>
      <trkpt lat="45.48227" lon="3.83324">
        <ele>1030.5</ele>
      </trkpt>
      <trkpt lat="45.4824" lon="3.83337">
        <ele>1031.6</ele>
      </trkpt>
      <trkpt lat="45.48249" lon="3.83345">
        <ele>1032.8</ele>
      </trkpt>
      <trkpt lat="45.4826" lon="3.83355">
        <ele>1033.7</ele>
      </trkpt>
      <trkpt lat="45.48272" lon="3.83367">
        <ele>1035.1</ele>
      </trkpt>
      <trkpt lat="45.48285" lon="3.83379">
        <ele>1036.7</ele>
      </trkpt>
      <trkpt lat="45.48293" lon="3.83386">
        <ele>1037.8</ele>
      </trkpt>
      <trkpt lat="45.483" lon="3.83389">
        <ele>1038.4</ele>
      </trkpt>
      <trkpt lat="45.48313" lon="3.83395">
        <ele>1039.8</ele>
      </trkpt>
      <trkpt lat="45.48319" lon="3.83396">
        <ele>1040.3</ele>
      </trkpt>
      <trkpt lat="45.48329" lon="3.83402">
        <ele>1041.5</ele>
      </trkpt>
      <trkpt lat="45.48339" lon="3.83409">
        <ele>1042.5</ele>
      </trkpt>
      <trkpt lat="45.48339" lon="3.83409">
        <ele>1042.5</ele>
      </trkpt>
      <trkpt lat="45.48353" lon="3.83418">
        <ele>1043.1</ele>
      </trkpt>
      <trkpt lat="45.48364" lon="3.83427">
        <ele>1043.4</ele>
      </trkpt>
      <trkpt lat="45.48375" lon="3.83435">
        <ele>1043.7</ele>
      </trkpt>
      <trkpt lat="45.48385" lon="3.83446">
        <ele>1044.1</ele>
      </trkpt>
      <trkpt lat="45.48394" lon="3.83457">
        <ele>1044.3</ele>
      </trkpt>
      <trkpt lat="45.48402" lon="3.83467">
        <ele>1044.7</ele>
      </trkpt>
      <trkpt lat="45.48406" lon="3.83475">
        <ele>1044.9</ele>
      </trkpt>
      <trkpt lat="45.48412" lon="3.83485">
        <ele>1045.2</ele>
      </trkpt>
      <trkpt lat="45.48415" lon="3.83492">
        <ele>1045.6</ele>
      </trkpt>
      <trkpt lat="45.48418" lon="3.83501">
        <ele>1046</ele>
      </trkpt>
      <trkpt lat="45.4842" lon="3.83509">
        <ele>1046.5</ele>
      </trkpt>
      <trkpt lat="45.4842" lon="3.83519">
        <ele>1047.2</ele>
      </trkpt>
      <trkpt lat="45.4842" lon="3.83533">
        <ele>1048.5</ele>
      </trkpt>
      <trkpt lat="45.4842" lon="3.83546">
        <ele>1049.6</ele>
      </trkpt>
      <trkpt lat="45.48419" lon="3.83559">
        <ele>1050.8</ele>
      </trkpt>
      <trkpt lat="45.48417" lon="3.83571">
        <ele>1052</ele>
      </trkpt>
      <trkpt lat="45.48414" lon="3.83587">
        <ele>1053.9</ele>
      </trkpt>
      <trkpt lat="45.48411" lon="3.83596">
        <ele>1055.3</ele>
      </trkpt>
      <trkpt lat="45.48408" lon="3.83603">
        <ele>1056.6</ele>
      </trkpt>
      <trkpt lat="45.48404" lon="3.83611">
        <ele>1058.2</ele>
      </trkpt>
      <trkpt lat="45.48399" lon="3.83622">
        <ele>1060.2</ele>
      </trkpt>
      <trkpt lat="45.48392" lon="3.83634">
        <ele>1062.6</ele>
      </trkpt>
      <trkpt lat="45.48383" lon="3.83646">
        <ele>1065.3</ele>
      </trkpt>
      <trkpt lat="45.48372" lon="3.83661">
        <ele>1068.7</ele>
      </trkpt>
      <trkpt lat="45.48364" lon="3.83672">
        <ele>1071.1</ele>
      </trkpt>
      <trkpt lat="45.48355" lon="3.83683">
        <ele>1073.4</ele>
      </trkpt>
      <trkpt lat="45.48339" lon="3.837">
        <ele>1077.1</ele>
      </trkpt>
      <trkpt lat="45.48331" lon="3.83712">
        <ele>1078.9</ele>
      </trkpt>
      <trkpt lat="45.48326" lon="3.83723">
        <ele>1080.1</ele>
      </trkpt>
      <trkpt lat="45.48324" lon="3.83728">
        <ele>1080.8</ele>
      </trkpt>
      <trkpt lat="45.48324" lon="3.8374">
        <ele>1082</ele>
      </trkpt>
      <trkpt lat="45.48328" lon="3.83745">
        <ele>1082.5</ele>
      </trkpt>
      <trkpt lat="45.48333" lon="3.83749">
        <ele>1082.9</ele>
      </trkpt>
      <trkpt lat="45.48341" lon="3.83753">
        <ele>1083.3</ele>
      </trkpt>
      <trkpt lat="45.48346" lon="3.83757">
        <ele>1083.6</ele>
      </trkpt>
      <trkpt lat="45.4835" lon="3.8376">
        <ele>1084</ele>
      </trkpt>
      <trkpt lat="45.48355" lon="3.83766">
        <ele>1084.6</ele>
      </trkpt>
      <trkpt lat="45.48364" lon="3.83774">
        <ele>1085.5</ele>
      </trkpt>
      <trkpt lat="45.48373" lon="3.83782">
        <ele>1086.3</ele>
      </trkpt>
      <trkpt lat="45.48383" lon="3.83791">
        <ele>1087.2</ele>
      </trkpt>
      <trkpt lat="45.48398" lon="3.83805">
        <ele>1088.2</ele>
      </trkpt>
      <trkpt lat="45.48411" lon="3.83818">
        <ele>1089.2</ele>
      </trkpt>
      <trkpt lat="45.4842" lon="3.83826">
        <ele>1089.8</ele>
      </trkpt>
      <trkpt lat="45.48427" lon="3.83833">
        <ele>1090.4</ele>
      </trkpt>
      <trkpt lat="45.48433" lon="3.83837">
        <ele>1090.9</ele>
      </trkpt>
      <trkpt lat="45.48439" lon="3.83841">
        <ele>1091.6</ele>
      </trkpt>
      <trkpt lat="45.48445" lon="3.83847">
        <ele>1092.4</ele>
      </trkpt>
      <trkpt lat="45.48451" lon="3.83853">
        <ele>1093.3</ele>
      </trkpt>
      <trkpt lat="45.48451" lon="3.83853">
        <ele>1093.3</ele>
      </trkpt>
      <trkpt lat="45.48457" lon="3.83861">
        <ele>1094.5</ele>
      </trkpt>
      <trkpt lat="45.48464" lon="3.83869">
        <ele>1095.7</ele>
      </trkpt>
      <trkpt lat="45.48474" lon="3.83883">
        <ele>1097.7</ele>
      </trkpt>
      <trkpt lat="45.48488" lon="3.839">
        <ele>1099.9</ele>
      </trkpt>
      <trkpt lat="45.48494" lon="3.8391">
        <ele>1101.3</ele>
      </trkpt>
      <trkpt lat="45.48501" lon="3.83921">
        <ele>1103.1</ele>
      </trkpt>
      <trkpt lat="45.48507" lon="3.83927">
        <ele>1104.8</ele>
      </trkpt>
      <trkpt lat="45.48512" lon="3.83932">
        <ele>1106.1</ele>
      </trkpt>
      <trkpt lat="45.48516" lon="3.83939">
        <ele>1107.8</ele>
      </trkpt>
      <trkpt lat="45.48519" lon="3.83945">
        <ele>1109.2</ele>
      </trkpt>
      <trkpt lat="45.48528" lon="3.83959">
        <ele>1112.4</ele>
      </trkpt>
      <trkpt lat="45.48542" lon="3.83977">
        <ele>1116</ele>
      </trkpt>
      <trkpt lat="45.48554" lon="3.83992">
        <ele>1118.4</ele>
      </trkpt>
      <trkpt lat="45.48566" lon="3.84007">
        <ele>1120.3</ele>
      </trkpt>
      <trkpt lat="45.48577" lon="3.8402">
        <ele>1121.7</ele>
      </trkpt>
      <trkpt lat="45.48585" lon="3.84026">
        <ele>1122.3</ele>
      </trkpt>
      <trkpt lat="45.48591" lon="3.8403">
        <ele>1123.2</ele>
      </trkpt>
      <trkpt lat="45.48606" lon="3.84037">
        <ele>1124.5</ele>
      </trkpt>
      <trkpt lat="45.48621" lon="3.84043">
        <ele>1125.8</ele>
      </trkpt>
      <trkpt lat="45.4864" lon="3.84053">
        <ele>1127.6</ele>
      </trkpt>
      <trkpt lat="45.48645" lon="3.84057">
        <ele>1128.3</ele>
      </trkpt>
      <trkpt lat="45.48651" lon="3.84062">
        <ele>1129.2</ele>
      </trkpt>
      <trkpt lat="45.48657" lon="3.84065">
        <ele>1129.7</ele>
      </trkpt>
      <trkpt lat="45.48667" lon="3.84067">
        <ele>1130</ele>
      </trkpt>
      <trkpt lat="45.48682" lon="3.84069">
        <ele>1131.7</ele>
      </trkpt>
      <trkpt lat="45.4869" lon="3.84073">
        <ele>1133.1</ele>
      </trkpt>
      <trkpt lat="45.48706" lon="3.84083">
        <ele>1136.3</ele>
      </trkpt>
      <trkpt lat="45.48722" lon="3.8409">
        <ele>1138.9</ele>
      </trkpt>
      <trkpt lat="45.48737" lon="3.84097">
        <ele>1141.3</ele>
      </trkpt>
      <trkpt lat="45.48753" lon="3.84104">
        <ele>1143.4</ele>
      </trkpt>
      <trkpt lat="45.4877" lon="3.84111">
        <ele>1143.9</ele>
      </trkpt>
      <trkpt lat="45.48788" lon="3.84121">
        <ele>1144.8</ele>
      </trkpt>
      <trkpt lat="45.48802" lon="3.8413">
        <ele>1145.7</ele>
      </trkpt>
      <trkpt lat="45.48817" lon="3.8414">
        <ele>1146.5</ele>
      </trkpt>
      <trkpt lat="45.48827" lon="3.84146">
        <ele>1147.1</ele>
      </trkpt>
      <trkpt lat="45.48831" lon="3.84151">
        <ele>1147.7</ele>
      </trkpt>
      <trkpt lat="45.48833" lon="3.84164">
        <ele>1149.6</ele>
      </trkpt>
      <trkpt lat="45.48828" lon="3.84176">
        <ele>1151.6</ele>
      </trkpt>
      <trkpt lat="45.48828" lon="3.84176">
        <ele>1151.6</ele>
      </trkpt>
      <trkpt lat="45.48823" lon="3.84181">
        <ele>1152.6</ele>
      </trkpt>
      <trkpt lat="45.48809" lon="3.84191">
        <ele>1154.5</ele>
      </trkpt>
      <trkpt lat="45.48791" lon="3.842">
        <ele>1156.4</ele>
      </trkpt>
      <trkpt lat="45.48773" lon="3.84209">
        <ele>1158.2</ele>
      </trkpt>
      <trkpt lat="45.48754" lon="3.84218">
        <ele>1160</ele>
      </trkpt>
      <trkpt lat="45.48741" lon="3.84225">
        <ele>1160.8</ele>
      </trkpt>
      <trkpt lat="45.48737" lon="3.84232">
        <ele>1161.7</ele>
      </trkpt>
      <trkpt lat="45.48739" lon="3.84247">
        <ele>1163.6</ele>
      </trkpt>
      <trkpt lat="45.48742" lon="3.84254">
        <ele>1164.5</ele>
      </trkpt>
      <trkpt lat="45.48747" lon="3.8426">
        <ele>1165.4</ele>
      </trkpt>
      <trkpt lat="45.4876" lon="3.84273">
        <ele>1167</ele>
      </trkpt>
      <trkpt lat="45.48769" lon="3.8428">
        <ele>1167.8</ele>
      </trkpt>
      <trkpt lat="45.48773" lon="3.84284">
        <ele>1168.2</ele>
      </trkpt>
      <trkpt lat="45.48777" lon="3.84289">
        <ele>1168.8</ele>
      </trkpt>
      <trkpt lat="45.48781" lon="3.84296">
        <ele>1169.6</ele>
      </trkpt>
      <trkpt lat="45.48787" lon="3.84303">
        <ele>1170.4</ele>
      </trkpt>
      <trkpt lat="45.48793" lon="3.84312">
        <ele>1171.5</ele>
      </trkpt>
      <trkpt lat="45.48799" lon="3.84318">
        <ele>1172.1</ele>
      </trkpt>
      <trkpt lat="45.48804" lon="3.84323">
        <ele>1172.7</ele>
      </trkpt>
      <trkpt lat="45.4881" lon="3.84328">
        <ele>1173.1</ele>
      </trkpt>
      <trkpt lat="45.48817" lon="3.84333">
        <ele>1173.6</ele>
      </trkpt>
      <trkpt lat="45.48827" lon="3.84341">
        <ele>1173.8</ele>
      </trkpt>
      <trkpt lat="45.48841" lon="3.8435">
        <ele>1175.3</ele>
      </trkpt>
      <trkpt lat="45.48847" lon="3.84354">
        <ele>1176.6</ele>
      </trkpt>
      <trkpt lat="45.48853" lon="3.84359">
        <ele>1177.8</ele>
      </trkpt>
      <trkpt lat="45.48863" lon="3.8437">
        <ele>1180.3</ele>
      </trkpt>
      <trkpt lat="45.48868" lon="3.84377">
        <ele>1181.7</ele>
      </trkpt>
      <trkpt lat="45.48864" lon="3.84387">
        <ele>1182.1</ele>
      </trkpt>
      <trkpt lat="45.48862" lon="3.84393">
        <ele>1182.4</ele>
      </trkpt>
      <trkpt lat="45.48858" lon="3.84401">
        <ele>1182.6</ele>
      </trkpt>
      <trkpt lat="45.48854" lon="3.84409">
        <ele>1182.7</ele>
      </trkpt>
      <trkpt lat="45.48838" lon="3.84431">
        <ele>1181.5</ele>
      </trkpt>
      <trkpt lat="45.48823" lon="3.84452">
        <ele>1181.6</ele>
      </trkpt>
      <trkpt lat="45.48807" lon="3.84474">
        <ele>1182</ele>
      </trkpt>
      <trkpt lat="45.48792" lon="3.84495">
        <ele>1181.9</ele>
      </trkpt>
      <trkpt lat="45.48785" lon="3.84506">
        <ele>1181.5</ele>
      </trkpt>
      <trkpt lat="45.4878" lon="3.84518">
        <ele>1180.9</ele>
      </trkpt>
      <trkpt lat="45.48786" lon="3.84523">
        <ele>1181</ele>
      </trkpt>
      <trkpt lat="45.48791" lon="3.84527">
        <ele>1181.2</ele>
      </trkpt>
      <trkpt lat="45.48798" lon="3.84533">
        <ele>1181.3</ele>
      </trkpt>
      <trkpt lat="45.48804" lon="3.84539">
        <ele>1181.5</ele>
      </trkpt>
      <trkpt lat="45.48809" lon="3.84545">
        <ele>1181.6</ele>
      </trkpt>
      <trkpt lat="45.48812" lon="3.84551">
        <ele>1181.6</ele>
      </trkpt>
      <trkpt lat="45.48816" lon="3.84558">
        <ele>1181.6</ele>
      </trkpt>
      <trkpt lat="45.48819" lon="3.84567">
        <ele>1181.6</ele>
      </trkpt>
      <trkpt lat="45.48823" lon="3.84574">
        <ele>1181.6</ele>
      </trkpt>
      <trkpt lat="45.48823" lon="3.84574">
        <ele>1181.6</ele>
      </trkpt>
      <trkpt lat="45.48827" lon="3.84581">
        <ele>1181.7</ele>
      </trkpt>
      <trkpt lat="45.48831" lon="3.84587">
        <ele>1181.4</ele>
      </trkpt>
      <trkpt lat="45.48838" lon="3.84594">
        <ele>1181.1</ele>
      </trkpt>
      <trkpt lat="45.48846" lon="3.84602">
        <ele>1181</ele>
      </trkpt>
      <trkpt lat="45.48854" lon="3.8461">
        <ele>1181</ele>
      </trkpt>
      <trkpt lat="45.48862" lon="3.84618">
        <ele>1180.9</ele>
      </trkpt>
      <trkpt lat="45.48872" lon="3.84629">
        <ele>1180.7</ele>
      </trkpt>
      <trkpt lat="45.48884" lon="3.84644">
        <ele>1180.4</ele>
      </trkpt>
      <trkpt lat="45.48898" lon="3.84661">
        <ele>1180.4</ele>
      </trkpt>
      <trkpt lat="45.48907" lon="3.8467">
        <ele>1180.2</ele>
      </trkpt>
      <trkpt lat="45.4892" lon="3.84684">
        <ele>1179.1</ele>
      </trkpt>
      <trkpt lat="45.48933" lon="3.84694">
        <ele>1177.7</ele>
      </trkpt>
      <trkpt lat="45.48947" lon="3.84704">
        <ele>1176.4</ele>
      </trkpt>
      <trkpt lat="45.48959" lon="3.84712">
        <ele>1175.4</ele>
      </trkpt>
      <trkpt lat="45.48965" lon="3.84714">
        <ele>1175.2</ele>
      </trkpt>
      <trkpt lat="45.48973" lon="3.84716">
        <ele>1175.1</ele>
      </trkpt>
      <trkpt lat="45.48983" lon="3.84718">
        <ele>1175.2</ele>
      </trkpt>
      <trkpt lat="45.48994" lon="3.84718">
        <ele>1175.5</ele>
      </trkpt>
      <trkpt lat="45.49007" lon="3.84718">
        <ele>1175.2</ele>
      </trkpt>
      <trkpt lat="45.49019" lon="3.84718">
        <ele>1174.4</ele>
      </trkpt>
      <trkpt lat="45.49032" lon="3.84717">
        <ele>1173.7</ele>
      </trkpt>
      <trkpt lat="45.49039" lon="3.84717">
        <ele>1173.3</ele>
      </trkpt>
      <trkpt lat="45.49049" lon="3.84714">
        <ele>1172.9</ele>
      </trkpt>
      <trkpt lat="45.49059" lon="3.84711">
        <ele>1172.7</ele>
      </trkpt>
      <trkpt lat="45.49067" lon="3.84709">
        <ele>1172.6</ele>
      </trkpt>
      <trkpt lat="45.49074" lon="3.84706">
        <ele>1172.6</ele>
      </trkpt>
      <trkpt lat="45.49082" lon="3.84701">
        <ele>1172.7</ele>
      </trkpt>
      <trkpt lat="45.49087" lon="3.84697">
        <ele>1172.8</ele>
      </trkpt>
      <trkpt lat="45.49092" lon="3.84693">
        <ele>1173</ele>
      </trkpt>
      <trkpt lat="45.491" lon="3.84685">
        <ele>1173.2</ele>
      </trkpt>
      <trkpt lat="45.49107" lon="3.84679">
        <ele>1173.3</ele>
      </trkpt>
      <trkpt lat="45.49116" lon="3.84668">
        <ele>1173.8</ele>
      </trkpt>
      <trkpt lat="45.49132" lon="3.84648">
        <ele>1174.4</ele>
      </trkpt>
      <trkpt lat="45.49148" lon="3.84627">
        <ele>1175</ele>
      </trkpt>
      <trkpt lat="45.49161" lon="3.84611">
        <ele>1175.4</ele>
      </trkpt>
      <trkpt lat="45.49173" lon="3.84595">
        <ele>1175.9</ele>
      </trkpt>
      <trkpt lat="45.49186" lon="3.84578">
        <ele>1176.2</ele>
      </trkpt>
      <trkpt lat="45.49201" lon="3.84558">
        <ele>1176.3</ele>
      </trkpt>
      <trkpt lat="45.49215" lon="3.84536">
        <ele>1176.6</ele>
      </trkpt>
      <trkpt lat="45.4923" lon="3.84513">
        <ele>1176.8</ele>
      </trkpt>
      <trkpt lat="45.4923" lon="3.84513">
        <ele>1176.8</ele>
      </trkpt>
      <trkpt lat="45.4924" lon="3.84497">
        <ele>1176.9</ele>
      </trkpt>
      <trkpt lat="45.49251" lon="3.84483">
        <ele>1177.2</ele>
      </trkpt>
      <trkpt lat="45.49261" lon="3.84469">
        <ele>1178</ele>
      </trkpt>
      <trkpt lat="45.49279" lon="3.84452">
        <ele>1178.4</ele>
      </trkpt>
      <trkpt lat="45.49296" lon="3.84435">
        <ele>1178.4</ele>
      </trkpt>
      <trkpt lat="45.49304" lon="3.84428">
        <ele>1178.3</ele>
      </trkpt>
      <trkpt lat="45.49314" lon="3.84421">
        <ele>1177.9</ele>
      </trkpt>
      <trkpt lat="45.49329" lon="3.84414">
        <ele>1177</ele>
      </trkpt>
      <trkpt lat="45.49337" lon="3.84412">
        <ele>1176.7</ele>
      </trkpt>
      <trkpt lat="45.49346" lon="3.84411">
        <ele>1176.6</ele>
      </trkpt>
      <trkpt lat="45.49363" lon="3.84409">
        <ele>1176.4</ele>
      </trkpt>
      <trkpt lat="45.49382" lon="3.84408">
        <ele>1175.7</ele>
      </trkpt>
      <trkpt lat="45.49392" lon="3.84409">
        <ele>1175.2</ele>
      </trkpt>
      <trkpt lat="45.49401" lon="3.8441">
        <ele>1174.7</ele>
      </trkpt>
      <trkpt lat="45.49414" lon="3.84412">
        <ele>1173.9</ele>
      </trkpt>
      <trkpt lat="45.4943" lon="3.84416">
        <ele>1173.9</ele>
      </trkpt>
      <trkpt lat="45.49445" lon="3.8442">
        <ele>1174.5</ele>
      </trkpt>
      <trkpt lat="45.4946" lon="3.84424">
        <ele>1175.1</ele>
      </trkpt>
      <trkpt lat="45.49471" lon="3.84427">
        <ele>1175.5</ele>
      </trkpt>
      <trkpt lat="45.49481" lon="3.84429">
        <ele>1175.9</ele>
      </trkpt>
      <trkpt lat="45.49495" lon="3.84435">
        <ele>1176.4</ele>
      </trkpt>
      <trkpt lat="45.49508" lon="3.84441">
        <ele>1176.1</ele>
      </trkpt>
      <trkpt lat="45.49529" lon="3.84451">
        <ele>1175.3</ele>
      </trkpt>
      <trkpt lat="45.49545" lon="3.84459">
        <ele>1174.7</ele>
      </trkpt>
      <trkpt lat="45.49554" lon="3.84465">
        <ele>1174.4</ele>
      </trkpt>
      <trkpt lat="45.49559" lon="3.84469">
        <ele>1174.2</ele>
      </trkpt>
      <trkpt lat="45.49565" lon="3.84476">
        <ele>1173.8</ele>
      </trkpt>
      <trkpt lat="45.49569" lon="3.84481">
        <ele>1173.6</ele>
      </trkpt>
      <trkpt lat="45.49571" lon="3.84486">
        <ele>1173.4</ele>
      </trkpt>
      <trkpt lat="45.49576" lon="3.84494">
        <ele>1173.2</ele>
      </trkpt>
      <trkpt lat="45.4958" lon="3.84503">
        <ele>1173.1</ele>
      </trkpt>
      <trkpt lat="45.49588" lon="3.84517">
        <ele>1173.7</ele>
      </trkpt>
      <trkpt lat="45.49593" lon="3.84528">
        <ele>1174.1</ele>
      </trkpt>
      <trkpt lat="45.49597" lon="3.84536">
        <ele>1174.3</ele>
      </trkpt>
      <trkpt lat="45.49602" lon="3.84542">
        <ele>1174.6</ele>
      </trkpt>
      <trkpt lat="45.49606" lon="3.84547">
        <ele>1174.8</ele>
      </trkpt>
      <trkpt lat="45.4961" lon="3.84552">
        <ele>1174.9</ele>
      </trkpt>
      <trkpt lat="45.49617" lon="3.8455">
        <ele>1174.7</ele>
      </trkpt>
      <trkpt lat="45.49615" lon="3.84556">
        <ele>1175.1</ele>
      </trkpt>
      <trkpt lat="45.49621" lon="3.84562">
        <ele>1175.3</ele>
      </trkpt>
      <trkpt lat="45.49621" lon="3.84562">
        <ele>1175.3</ele>
      </trkpt>
      <trkpt lat="45.49626" lon="3.84568">
        <ele>1175.6</ele>
      </trkpt>
      <trkpt lat="45.49626" lon="3.84568">
        <ele>1175.6</ele>
      </trkpt>
      <trkpt lat="45.49632" lon="3.84574">
        <ele>1175.8</ele>
      </trkpt>
      <trkpt lat="45.49641" lon="3.8458">
        <ele>1176.1</ele>
      </trkpt>
      <trkpt lat="45.49653" lon="3.84585">
        <ele>1176.2</ele>
      </trkpt>
      <trkpt lat="45.49659" lon="3.84588">
        <ele>1176.2</ele>
      </trkpt>
      <trkpt lat="45.49675" lon="3.84594">
        <ele>1176.1</ele>
      </trkpt>
      <trkpt lat="45.49694" lon="3.84601">
        <ele>1176</ele>
      </trkpt>
      <trkpt lat="45.49708" lon="3.84607">
        <ele>1175.9</ele>
      </trkpt>
      <trkpt lat="45.49717" lon="3.8461">
        <ele>1175.9</ele>
      </trkpt>
      <trkpt lat="45.49726" lon="3.84613">
        <ele>1175.7</ele>
      </trkpt>
      <trkpt lat="45.49734" lon="3.84615">
        <ele>1175.6</ele>
      </trkpt>
      <trkpt lat="45.49745" lon="3.84616">
        <ele>1175.5</ele>
      </trkpt>
      <trkpt lat="45.49762" lon="3.84617">
        <ele>1175.3</ele>
      </trkpt>
      <trkpt lat="45.49773" lon="3.84618">
        <ele>1175.2</ele>
      </trkpt>
      <trkpt lat="45.49785" lon="3.84619">
        <ele>1175.1</ele>
      </trkpt>
      <trkpt lat="45.49799" lon="3.84621">
        <ele>1174.9</ele>
      </trkpt>
      <trkpt lat="45.49813" lon="3.84622">
        <ele>1174.8</ele>
      </trkpt>
      <trkpt lat="45.49826" lon="3.84624">
        <ele>1174.6</ele>
      </trkpt>
      <trkpt lat="45.49845" lon="3.84627">
        <ele>1174.9</ele>
      </trkpt>
      <trkpt lat="45.49863" lon="3.84628">
        <ele>1175.5</ele>
      </trkpt>
      <trkpt lat="45.49883" lon="3.8463">
        <ele>1176.1</ele>
      </trkpt>
      <trkpt lat="45.49897" lon="3.84631">
        <ele>1176.5</ele>
      </trkpt>
      <trkpt lat="45.49914" lon="3.84632">
        <ele>1177</ele>
      </trkpt>
      <trkpt lat="45.49926" lon="3.84633">
        <ele>1176.7</ele>
      </trkpt>
      <trkpt lat="45.49942" lon="3.84633">
        <ele>1176.1</ele>
      </trkpt>
      <trkpt lat="45.49958" lon="3.84634">
        <ele>1175.5</ele>
      </trkpt>
      <trkpt lat="45.49978" lon="3.84634">
        <ele>1174.8</ele>
      </trkpt>
      <trkpt lat="45.49987" lon="3.84633">
        <ele>1174.5</ele>
      </trkpt>
      <trkpt lat="45.49995" lon="3.84632">
        <ele>1174.3</ele>
      </trkpt>
      <trkpt lat="45.50002" lon="3.8463">
        <ele>1174</ele>
      </trkpt>
      <trkpt lat="45.5001" lon="3.84628">
        <ele>1173.3</ele>
      </trkpt>
      <trkpt lat="45.50018" lon="3.84625">
        <ele>1172.8</ele>
      </trkpt>
      <trkpt lat="45.50027" lon="3.84622">
        <ele>1172.1</ele>
      </trkpt>
      <trkpt lat="45.50038" lon="3.84617">
        <ele>1171.5</ele>
      </trkpt>
      <trkpt lat="45.50045" lon="3.84614">
        <ele>1171.2</ele>
      </trkpt>
      <trkpt lat="45.50053" lon="3.8461">
        <ele>1170.7</ele>
      </trkpt>
      <trkpt lat="45.50064" lon="3.84605">
        <ele>1170.3</ele>
      </trkpt>
      <trkpt lat="45.50077" lon="3.84599">
        <ele>1169.9</ele>
      </trkpt>
      <trkpt lat="45.5009" lon="3.84592">
        <ele>1169.9</ele>
      </trkpt>
      <trkpt lat="45.5009" lon="3.84592">
        <ele>1169.9</ele>
      </trkpt>
      <trkpt lat="45.50108" lon="3.84584">
        <ele>1170.4</ele>
      </trkpt>
      <trkpt lat="45.5012" lon="3.84579">
        <ele>1170.3</ele>
      </trkpt>
      <trkpt lat="45.50131" lon="3.84574">
        <ele>1170.2</ele>
      </trkpt>
      <trkpt lat="45.5014" lon="3.84571">
        <ele>1170</ele>
      </trkpt>
      <trkpt lat="45.50151" lon="3.84568">
        <ele>1169.7</ele>
      </trkpt>
      <trkpt lat="45.50167" lon="3.84564">
        <ele>1169.2</ele>
      </trkpt>
      <trkpt lat="45.5018" lon="3.84563">
        <ele>1169.1</ele>
      </trkpt>
      <trkpt lat="45.50189" lon="3.84563">
        <ele>1169</ele>
      </trkpt>
      <trkpt lat="45.50197" lon="3.84564">
        <ele>1168.9</ele>
      </trkpt>
      <trkpt lat="45.50204" lon="3.84565">
        <ele>1168.8</ele>
      </trkpt>
      <trkpt lat="45.5021" lon="3.84567">
        <ele>1168.7</ele>
      </trkpt>
      <trkpt lat="45.50219" lon="3.84571">
        <ele>1168.5</ele>
      </trkpt>
      <trkpt lat="45.50234" lon="3.84577">
        <ele>1168.3</ele>
      </trkpt>
      <trkpt lat="45.50247" lon="3.84581">
        <ele>1168.1</ele>
      </trkpt>
      <trkpt lat="45.5026" lon="3.84586">
        <ele>1167.8</ele>
      </trkpt>
      <trkpt lat="45.50273" lon="3.84592">
        <ele>1167.4</ele>
      </trkpt>
      <trkpt lat="45.50285" lon="3.84597">
        <ele>1167.1</ele>
      </trkpt>
      <trkpt lat="45.50295" lon="3.84603">
        <ele>1166.7</ele>
      </trkpt>
      <trkpt lat="45.50306" lon="3.8461">
        <ele>1166.3</ele>
      </trkpt>
      <trkpt lat="45.5032" lon="3.8462">
        <ele>1165.8</ele>
      </trkpt>
      <trkpt lat="45.50326" lon="3.84623">
        <ele>1165.6</ele>
      </trkpt>
      <trkpt lat="45.50332" lon="3.84626">
        <ele>1165.4</ele>
      </trkpt>
      <trkpt lat="45.50338" lon="3.84627">
        <ele>1165.6</ele>
      </trkpt>
      <trkpt lat="45.50343" lon="3.84627">
        <ele>1165.8</ele>
      </trkpt>
      <trkpt lat="45.50349" lon="3.84626">
        <ele>1166.1</ele>
      </trkpt>
      <trkpt lat="45.50359" lon="3.84625">
        <ele>1166.6</ele>
      </trkpt>
      <trkpt lat="45.5037" lon="3.84625">
        <ele>1167</ele>
      </trkpt>
      <trkpt lat="45.50373" lon="3.84637">
        <ele>1166.6</ele>
      </trkpt>
      <trkpt lat="45.50376" lon="3.84647">
        <ele>1166.4</ele>
      </trkpt>
      <trkpt lat="45.50379" lon="3.84654">
        <ele>1166.2</ele>
      </trkpt>
      <trkpt lat="45.50385" lon="3.84664">
        <ele>1166.2</ele>
      </trkpt>
      <trkpt lat="45.50389" lon="3.8467">
        <ele>1166.3</ele>
      </trkpt>
      <trkpt lat="45.50399" lon="3.84684">
        <ele>1166.6</ele>
      </trkpt>
      <trkpt lat="45.50407" lon="3.84696">
        <ele>1167</ele>
      </trkpt>
      <trkpt lat="45.50414" lon="3.84707">
        <ele>1167.3</ele>
      </trkpt>
      <trkpt lat="45.50422" lon="3.8472">
        <ele>1167.5</ele>
      </trkpt>
      <trkpt lat="45.50433" lon="3.8474">
        <ele>1167.8</ele>
      </trkpt>
      <trkpt lat="45.50438" lon="3.84749">
        <ele>1168</ele>
      </trkpt>
      <trkpt lat="45.50441" lon="3.84757">
        <ele>1167.9</ele>
      </trkpt>
      <trkpt lat="45.50443" lon="3.84763">
        <ele>1167.8</ele>
      </trkpt>
      <trkpt lat="45.50448" lon="3.84775">
        <ele>1167.7</ele>
      </trkpt>
      <trkpt lat="45.50446" lon="3.84783">
        <ele>1167.4</ele>
      </trkpt>
      <trkpt lat="45.50452" lon="3.84783">
        <ele>1167.8</ele>
      </trkpt>
      <trkpt lat="45.50459" lon="3.84797">
        <ele>1167.9</ele>
      </trkpt>
      <trkpt lat="45.50466" lon="3.8481">
        <ele>1168.2</ele>
      </trkpt>
      <trkpt lat="45.5048" lon="3.84835">
        <ele>1169.1</ele>
      </trkpt>
      <trkpt lat="45.5048" lon="3.84835">
        <ele>1169.1</ele>
      </trkpt>
      <trkpt lat="45.50492" lon="3.84854">
        <ele>1169.9</ele>
      </trkpt>
      <trkpt lat="45.50497" lon="3.84863">
        <ele>1170.1</ele>
      </trkpt>
      <trkpt lat="45.50503" lon="3.84868">
        <ele>1170.1</ele>
      </trkpt>
      <trkpt lat="45.50507" lon="3.84873">
        <ele>1169.8</ele>
      </trkpt>
      <trkpt lat="45.50511" lon="3.84876">
        <ele>1169.5</ele>
      </trkpt>
      <trkpt lat="45.50517" lon="3.84881">
        <ele>1169.1</ele>
      </trkpt>
      <trkpt lat="45.50522" lon="3.84884">
        <ele>1168.8</ele>
      </trkpt>
      <trkpt lat="45.5053" lon="3.84889">
        <ele>1168.2</ele>
      </trkpt>
      <trkpt lat="45.50537" lon="3.84893">
        <ele>1167.7</ele>
      </trkpt>
      <trkpt lat="45.50547" lon="3.849">
        <ele>1166.9</ele>
      </trkpt>
      <trkpt lat="45.50556" lon="3.84907">
        <ele>1166.1</ele>
      </trkpt>
      <trkpt lat="45.50569" lon="3.84915">
        <ele>1165</ele>
      </trkpt>
      <trkpt lat="45.50581" lon="3.84921">
        <ele>1163.8</ele>
      </trkpt>
      <trkpt lat="45.50592" lon="3.84928">
        <ele>1163</ele>
      </trkpt>
      <trkpt lat="45.50605" lon="3.84936">
        <ele>1162.5</ele>
      </trkpt>
      <trkpt lat="45.50615" lon="3.84943">
        <ele>1162.1</ele>
      </trkpt>
      <trkpt lat="45.50627" lon="3.84952">
        <ele>1161.8</ele>
      </trkpt>
      <trkpt lat="45.50638" lon="3.84961">
        <ele>1161.7</ele>
      </trkpt>
      <trkpt lat="45.50648" lon="3.84969">
        <ele>1161.8</ele>
      </trkpt>
      <trkpt lat="45.50657" lon="3.84976">
        <ele>1161.9</ele>
      </trkpt>
      <trkpt lat="45.50666" lon="3.84982">
        <ele>1162.2</ele>
      </trkpt>
      <trkpt lat="45.50673" lon="3.84987">
        <ele>1162.2</ele>
      </trkpt>
      <trkpt lat="45.50681" lon="3.84992">
        <ele>1162.2</ele>
      </trkpt>
      <trkpt lat="45.50689" lon="3.84996">
        <ele>1162.1</ele>
      </trkpt>
      <trkpt lat="45.50695" lon="3.85">
        <ele>1162</ele>
      </trkpt>
      <trkpt lat="45.50709" lon="3.85007">
        <ele>1161.7</ele>
      </trkpt>
      <trkpt lat="45.50721" lon="3.85013">
        <ele>1161.5</ele>
      </trkpt>
      <trkpt lat="45.5073" lon="3.85018">
        <ele>1161.2</ele>
      </trkpt>
      <trkpt lat="45.50738" lon="3.85023">
        <ele>1161</ele>
      </trkpt>
      <trkpt lat="45.50745" lon="3.85026">
        <ele>1160.8</ele>
      </trkpt>
      <trkpt lat="45.5076" lon="3.85031">
        <ele>1159.7</ele>
      </trkpt>
      <trkpt lat="45.50773" lon="3.85036">
        <ele>1158.5</ele>
      </trkpt>
      <trkpt lat="45.50778" lon="3.85039">
        <ele>1158.1</ele>
      </trkpt>
      <trkpt lat="45.50786" lon="3.85045">
        <ele>1157.4</ele>
      </trkpt>
      <trkpt lat="45.5079" lon="3.85049">
        <ele>1157</ele>
      </trkpt>
      <trkpt lat="45.50796" lon="3.85055">
        <ele>1156.6</ele>
      </trkpt>
      <trkpt lat="45.50805" lon="3.85064">
        <ele>1156.1</ele>
      </trkpt>
      <trkpt lat="45.50813" lon="3.85072">
        <ele>1155.7</ele>
      </trkpt>
      <trkpt lat="45.50819" lon="3.85079">
        <ele>1155.5</ele>
      </trkpt>
      <trkpt lat="45.50823" lon="3.85083">
        <ele>1155.4</ele>
      </trkpt>
      <trkpt lat="45.50832" lon="3.85092">
        <ele>1155.5</ele>
      </trkpt>
      <trkpt lat="45.5084" lon="3.85099">
        <ele>1156.2</ele>
      </trkpt>
      <trkpt lat="45.50847" lon="3.85105">
        <ele>1156.9</ele>
      </trkpt>
      <trkpt lat="45.50854" lon="3.85109">
        <ele>1157.5</ele>
      </trkpt>
      <trkpt lat="45.5086" lon="3.85113">
        <ele>1158.1</ele>
      </trkpt>
      <trkpt lat="45.50866" lon="3.85116">
        <ele>1158.7</ele>
      </trkpt>
      <trkpt lat="45.50872" lon="3.85118">
        <ele>1159.2</ele>
      </trkpt>
      <trkpt lat="45.50881" lon="3.85122">
        <ele>1160</ele>
      </trkpt>
      <trkpt lat="45.50887" lon="3.85123">
        <ele>1160.4</ele>
      </trkpt>
      <trkpt lat="45.50887" lon="3.85123">
        <ele>1160.4</ele>
      </trkpt>
      <trkpt lat="45.50892" lon="3.85123">
        <ele>1160.7</ele>
      </trkpt>
      <trkpt lat="45.50898" lon="3.85123">
        <ele>1161.1</ele>
      </trkpt>
      <trkpt lat="45.50906" lon="3.8512">
        <ele>1161.5</ele>
      </trkpt>
      <trkpt lat="45.50918" lon="3.85116">
        <ele>1162.1</ele>
      </trkpt>
      <trkpt lat="45.50927" lon="3.85112">
        <ele>1162.9</ele>
      </trkpt>
      <trkpt lat="45.50936" lon="3.85109">
        <ele>1163.6</ele>
      </trkpt>
      <trkpt lat="45.50944" lon="3.85106">
        <ele>1164.3</ele>
      </trkpt>
      <trkpt lat="45.50955" lon="3.85103">
        <ele>1165.4</ele>
      </trkpt>
      <trkpt lat="45.50965" lon="3.85101">
        <ele>1166.4</ele>
      </trkpt>
      <trkpt lat="45.50976" lon="3.85097">
        <ele>1167.4</ele>
      </trkpt>
      <trkpt lat="45.50986" lon="3.85094">
        <ele>1168.2</ele>
      </trkpt>
      <trkpt lat="45.5099" lon="3.85088">
        <ele>1168.2</ele>
      </trkpt>
      <trkpt lat="45.50995" lon="3.85081">
        <ele>1168.3</ele>
      </trkpt>
      <trkpt lat="45.50999" lon="3.85077">
        <ele>1168.5</ele>
      </trkpt>
      <trkpt lat="45.51003" lon="3.85073">
        <ele>1168.9</ele>
      </trkpt>
      <trkpt lat="45.5101" lon="3.85068">
        <ele>1169.7</ele>
      </trkpt>
      <trkpt lat="45.51018" lon="3.85063">
        <ele>1170.6</ele>
      </trkpt>
      <trkpt lat="45.51023" lon="3.85058">
        <ele>1171.2</ele>
      </trkpt>
      <trkpt lat="45.5103" lon="3.8505">
        <ele>1171.8</ele>
      </trkpt>
      <trkpt lat="45.51038" lon="3.8504">
        <ele>1172.3</ele>
      </trkpt>
      <trkpt lat="45.51048" lon="3.85028">
        <ele>1173</ele>
      </trkpt>
      <trkpt lat="45.5106" lon="3.85011">
        <ele>1173.5</ele>
      </trkpt>
      <trkpt lat="45.51074" lon="3.8499">
        <ele>1174</ele>
      </trkpt>
      <trkpt lat="45.51081" lon="3.84978">
        <ele>1174.4</ele>
      </trkpt>
      <trkpt lat="45.51089" lon="3.84966">
        <ele>1174.6</ele>
      </trkpt>
      <trkpt lat="45.51094" lon="3.8496">
        <ele>1174.7</ele>
      </trkpt>
      <trkpt lat="45.51101" lon="3.84954">
        <ele>1175.1</ele>
      </trkpt>
      <trkpt lat="45.51107" lon="3.84952">
        <ele>1175.5</ele>
      </trkpt>
      <trkpt lat="45.51113" lon="3.84951">
        <ele>1176</ele>
      </trkpt>
      <trkpt lat="45.51122" lon="3.84953">
        <ele>1177.1</ele>
      </trkpt>
      <trkpt lat="45.51128" lon="3.84957">
        <ele>1177.9</ele>
      </trkpt>
      <trkpt lat="45.51134" lon="3.84966">
        <ele>1179.1</ele>
      </trkpt>
      <trkpt lat="45.51137" lon="3.84974">
        <ele>1180</ele>
      </trkpt>
      <trkpt lat="45.51138" lon="3.8498">
        <ele>1180.5</ele>
      </trkpt>
      <trkpt lat="45.51138" lon="3.84998">
        <ele>1181.7</ele>
      </trkpt>
      <trkpt lat="45.51138" lon="3.84998">
        <ele>1181.7</ele>
      </trkpt>
      <trkpt lat="45.51135" lon="3.85017">
        <ele>1183</ele>
      </trkpt>
      <trkpt lat="45.5113" lon="3.85042">
        <ele>1184.6</ele>
      </trkpt>
      <trkpt lat="45.51128" lon="3.85059">
        <ele>1185.7</ele>
      </trkpt>
      <trkpt lat="45.51126" lon="3.85076">
        <ele>1187</ele>
      </trkpt>
      <trkpt lat="45.51125" lon="3.85095">
        <ele>1188.3</ele>
      </trkpt>
      <trkpt lat="45.51125" lon="3.85111">
        <ele>1189.3</ele>
      </trkpt>
      <trkpt lat="45.51125" lon="3.85128">
        <ele>1190.4</ele>
      </trkpt>
      <trkpt lat="45.5112" lon="3.85133">
        <ele>1190.3</ele>
      </trkpt>
      <trkpt lat="45.51125" lon="3.8514">
        <ele>1191.2</ele>
      </trkpt>
      <trkpt lat="45.51125" lon="3.85152">
        <ele>1192</ele>
      </trkpt>
      <trkpt lat="45.51127" lon="3.85159">
        <ele>1192.6</ele>
      </trkpt>
      <trkpt lat="45.5113" lon="3.85166">
        <ele>1193.4</ele>
      </trkpt>
      <trkpt lat="45.51134" lon="3.85171">
        <ele>1194</ele>
      </trkpt>
      <trkpt lat="45.51141" lon="3.85173">
        <ele>1194.7</ele>
      </trkpt>
      <trkpt lat="45.5115" lon="3.85172">
        <ele>1195.6</ele>
      </trkpt>
      <trkpt lat="45.5115" lon="3.85172">
        <ele>1195.6</ele>
      </trkpt>
      <trkpt lat="45.51156" lon="3.85169">
        <ele>1196.1</ele>
      </trkpt>
      <trkpt lat="45.51166" lon="3.85163">
        <ele>1196.7</ele>
      </trkpt>
      <trkpt lat="45.5117" lon="3.85167">
        <ele>1197.3</ele>
      </trkpt>
      <trkpt lat="45.51173" lon="3.85158">
        <ele>1197.1</ele>
      </trkpt>
      <trkpt lat="45.51187" lon="3.85148">
        <ele>1198</ele>
      </trkpt>
      <trkpt lat="45.51201" lon="3.85139">
        <ele>1198.7</ele>
      </trkpt>
      <trkpt lat="45.51214" lon="3.85129">
        <ele>1199.3</ele>
      </trkpt>
      <trkpt lat="45.51231" lon="3.85116">
        <ele>1200</ele>
      </trkpt>
      <trkpt lat="45.51243" lon="3.85107">
        <ele>1200.4</ele>
      </trkpt>
      <trkpt lat="45.51252" lon="3.85102">
        <ele>1200.7</ele>
      </trkpt>
      <trkpt lat="45.51257" lon="3.851">
        <ele>1200.7</ele>
      </trkpt>
      <trkpt lat="45.51265" lon="3.85096">
        <ele>1200.9</ele>
      </trkpt>
      <trkpt lat="45.51275" lon="3.85093">
        <ele>1201.1</ele>
      </trkpt>
      <trkpt lat="45.51292" lon="3.85088">
        <ele>1201.4</ele>
      </trkpt>
      <trkpt lat="45.51313" lon="3.85083">
        <ele>1201.9</ele>
      </trkpt>
      <trkpt lat="45.51322" lon="3.8508">
        <ele>1202.1</ele>
      </trkpt>
      <trkpt lat="45.5133" lon="3.85077">
        <ele>1202.2</ele>
      </trkpt>
      <trkpt lat="45.51336" lon="3.85075">
        <ele>1202.2</ele>
      </trkpt>
      <trkpt lat="45.51346" lon="3.8507">
        <ele>1202.4</ele>
      </trkpt>
      <trkpt lat="45.51359" lon="3.85063">
        <ele>1202.5</ele>
      </trkpt>
      <trkpt lat="45.51372" lon="3.85055">
        <ele>1202.6</ele>
      </trkpt>
      <trkpt lat="45.51382" lon="3.85049">
        <ele>1202.7</ele>
      </trkpt>
      <trkpt lat="45.5139" lon="3.85043">
        <ele>1202.7</ele>
      </trkpt>
      <trkpt lat="45.51399" lon="3.85036">
        <ele>1202.7</ele>
      </trkpt>
      <trkpt lat="45.51413" lon="3.85023">
        <ele>1202.7</ele>
      </trkpt>
      <trkpt lat="45.51428" lon="3.8501">
        <ele>1203.3</ele>
      </trkpt>
      <trkpt lat="45.51435" lon="3.85003">
        <ele>1203.6</ele>
      </trkpt>
      <trkpt lat="45.51442" lon="3.84996">
        <ele>1204</ele>
      </trkpt>
      <trkpt lat="45.51448" lon="3.8499">
        <ele>1204.2</ele>
      </trkpt>
      <trkpt lat="45.51461" lon="3.84972">
        <ele>1204.7</ele>
      </trkpt>
      <trkpt lat="45.51474" lon="3.84954">
        <ele>1205.1</ele>
      </trkpt>
      <trkpt lat="45.51488" lon="3.84936">
        <ele>1205.7</ele>
      </trkpt>
      <trkpt lat="45.51496" lon="3.84925">
        <ele>1206</ele>
      </trkpt>
      <trkpt lat="45.51504" lon="3.84914">
        <ele>1206.1</ele>
      </trkpt>
      <trkpt lat="45.51513" lon="3.84902">
        <ele>1205.7</ele>
      </trkpt>
      <trkpt lat="45.51519" lon="3.84896">
        <ele>1205.7</ele>
      </trkpt>
      <trkpt lat="45.51527" lon="3.84891">
        <ele>1205.7</ele>
      </trkpt>
      <trkpt lat="45.51532" lon="3.84887">
        <ele>1205.9</ele>
      </trkpt>
      <trkpt lat="45.51538" lon="3.84885">
        <ele>1206.1</ele>
      </trkpt>
      <trkpt lat="45.51545" lon="3.84883">
        <ele>1206.5</ele>
      </trkpt>
      <trkpt lat="45.51552" lon="3.84882">
        <ele>1206.9</ele>
      </trkpt>
      <trkpt lat="45.51552" lon="3.84882">
        <ele>1206.9</ele>
      </trkpt>
      <trkpt lat="45.51562" lon="3.84882">
        <ele>1207.5</ele>
      </trkpt>
      <trkpt lat="45.51579" lon="3.84881">
        <ele>1208.7</ele>
      </trkpt>
      <trkpt lat="45.51599" lon="3.84881">
        <ele>1209.2</ele>
      </trkpt>
      <trkpt lat="45.51616" lon="3.84881">
        <ele>1209.3</ele>
      </trkpt>
      <trkpt lat="45.5163" lon="3.84882">
        <ele>1209.6</ele>
      </trkpt>
      <trkpt lat="45.51642" lon="3.84881">
        <ele>1209.6</ele>
      </trkpt>
      <trkpt lat="45.51657" lon="3.8488">
        <ele>1209.7</ele>
      </trkpt>
      <trkpt lat="45.51669" lon="3.8488">
        <ele>1209.6</ele>
      </trkpt>
      <trkpt lat="45.51684" lon="3.8488">
        <ele>1209.5</ele>
      </trkpt>
      <trkpt lat="45.51702" lon="3.84881">
        <ele>1209.3</ele>
      </trkpt>
      <trkpt lat="45.51715" lon="3.84882">
        <ele>1209.4</ele>
      </trkpt>
      <trkpt lat="45.51728" lon="3.84883">
        <ele>1209.5</ele>
      </trkpt>
      <trkpt lat="45.51744" lon="3.84885">
        <ele>1209.5</ele>
      </trkpt>
      <trkpt lat="45.51759" lon="3.84886">
        <ele>1209.7</ele>
      </trkpt>
      <trkpt lat="45.51775" lon="3.84888">
        <ele>1209.8</ele>
      </trkpt>
      <trkpt lat="45.51788" lon="3.84887">
        <ele>1209.6</ele>
      </trkpt>
      <trkpt lat="45.51802" lon="3.84887">
        <ele>1209.4</ele>
      </trkpt>
      <trkpt lat="45.51822" lon="3.84886">
        <ele>1208.9</ele>
      </trkpt>
      <trkpt lat="45.51835" lon="3.84885">
        <ele>1208.7</ele>
      </trkpt>
      <trkpt lat="45.51848" lon="3.84882">
        <ele>1208.7</ele>
      </trkpt>
      <trkpt lat="45.5186" lon="3.84877">
        <ele>1208.5</ele>
      </trkpt>
      <trkpt lat="45.51872" lon="3.84872">
        <ele>1208.2</ele>
      </trkpt>
      <trkpt lat="45.51888" lon="3.84864">
        <ele>1207.7</ele>
      </trkpt>
      <trkpt lat="45.51904" lon="3.84855">
        <ele>1207.2</ele>
      </trkpt>
      <trkpt lat="45.5192" lon="3.84845">
        <ele>1207</ele>
      </trkpt>
      <trkpt lat="45.51932" lon="3.84838">
        <ele>1207.5</ele>
      </trkpt>
      <trkpt lat="45.51947" lon="3.84828">
        <ele>1208.9</ele>
      </trkpt>
      <trkpt lat="45.51959" lon="3.84821">
        <ele>1210.2</ele>
      </trkpt>
      <trkpt lat="45.51972" lon="3.84812">
        <ele>1211.4</ele>
      </trkpt>
      <trkpt lat="45.51983" lon="3.84804">
        <ele>1212.5</ele>
      </trkpt>
      <trkpt lat="45.51995" lon="3.84795">
        <ele>1213.5</ele>
      </trkpt>
      <trkpt lat="45.52011" lon="3.84784">
        <ele>1214</ele>
      </trkpt>
      <trkpt lat="45.52011" lon="3.84784">
        <ele>1214</ele>
      </trkpt>
      <trkpt lat="45.52026" lon="3.84774">
        <ele>1213.8</ele>
      </trkpt>
      <trkpt lat="45.52031" lon="3.84771">
        <ele>1213.7</ele>
      </trkpt>
      <trkpt lat="45.52039" lon="3.84766">
        <ele>1213.4</ele>
      </trkpt>
      <trkpt lat="45.52046" lon="3.84762">
        <ele>1213.1</ele>
      </trkpt>
      <trkpt lat="45.52056" lon="3.84756">
        <ele>1212.6</ele>
      </trkpt>
      <trkpt lat="45.5207" lon="3.84749">
        <ele>1212</ele>
      </trkpt>
      <trkpt lat="45.52078" lon="3.84746">
        <ele>1212</ele>
      </trkpt>
      <trkpt lat="45.52087" lon="3.84744">
        <ele>1211.9</ele>
      </trkpt>
      <trkpt lat="45.52095" lon="3.84743">
        <ele>1211.9</ele>
      </trkpt>
      <trkpt lat="45.52105" lon="3.84742">
        <ele>1211.8</ele>
      </trkpt>
      <trkpt lat="45.52112" lon="3.84742">
        <ele>1211.8</ele>
      </trkpt>
      <trkpt lat="45.52119" lon="3.84742">
        <ele>1211.8</ele>
      </trkpt>
      <trkpt lat="45.52129" lon="3.84744">
        <ele>1211.8</ele>
      </trkpt>
      <trkpt lat="45.52141" lon="3.84747">
        <ele>1211.9</ele>
      </trkpt>
      <trkpt lat="45.52153" lon="3.8475">
        <ele>1212</ele>
      </trkpt>
      <trkpt lat="45.52168" lon="3.84755">
        <ele>1212.1</ele>
      </trkpt>
      <trkpt lat="45.52176" lon="3.84756">
        <ele>1211.9</ele>
      </trkpt>
      <trkpt lat="45.52181" lon="3.84756">
        <ele>1211.6</ele>
      </trkpt>
      <trkpt lat="45.5219" lon="3.84755">
        <ele>1211.3</ele>
      </trkpt>
      <trkpt lat="45.52202" lon="3.84753">
        <ele>1210.8</ele>
      </trkpt>
      <trkpt lat="45.52219" lon="3.8475">
        <ele>1210.1</ele>
      </trkpt>
      <trkpt lat="45.52241" lon="3.84747">
        <ele>1209.4</ele>
      </trkpt>
      <trkpt lat="45.52252" lon="3.84746">
        <ele>1209</ele>
      </trkpt>
      <trkpt lat="45.52258" lon="3.84746">
        <ele>1208.8</ele>
      </trkpt>
      <trkpt lat="45.5227" lon="3.84746">
        <ele>1208.4</ele>
      </trkpt>
      <trkpt lat="45.52282" lon="3.84745">
        <ele>1208</ele>
      </trkpt>
      <trkpt lat="45.52294" lon="3.84745">
        <ele>1207.6</ele>
      </trkpt>
      <trkpt lat="45.52309" lon="3.84744">
        <ele>1207.1</ele>
      </trkpt>
      <trkpt lat="45.52322" lon="3.84743">
        <ele>1206.7</ele>
      </trkpt>
      <trkpt lat="45.52335" lon="3.84741">
        <ele>1206.1</ele>
      </trkpt>
      <trkpt lat="45.52344" lon="3.84738">
        <ele>1205</ele>
      </trkpt>
      <trkpt lat="45.52352" lon="3.84735">
        <ele>1204</ele>
      </trkpt>
      <trkpt lat="45.5236" lon="3.8473">
        <ele>1202.9</ele>
      </trkpt>
      <trkpt lat="45.52367" lon="3.84725">
        <ele>1202</ele>
      </trkpt>
      <trkpt lat="45.52375" lon="3.84718">
        <ele>1201.2</ele>
      </trkpt>
      <trkpt lat="45.52379" lon="3.84712">
        <ele>1200.7</ele>
      </trkpt>
      <trkpt lat="45.52384" lon="3.84706">
        <ele>1200.1</ele>
      </trkpt>
      <trkpt lat="45.52389" lon="3.84698">
        <ele>1199.7</ele>
      </trkpt>
      <trkpt lat="45.52399" lon="3.8468">
        <ele>1198.6</ele>
      </trkpt>
      <trkpt lat="45.52409" lon="3.84662">
        <ele>1197.7</ele>
      </trkpt>
      <trkpt lat="45.52419" lon="3.84646">
        <ele>1197.8</ele>
      </trkpt>
      <trkpt lat="45.52428" lon="3.8463">
        <ele>1198.4</ele>
      </trkpt>
      <trkpt lat="45.52439" lon="3.84612">
        <ele>1199</ele>
      </trkpt>
      <trkpt lat="45.52439" lon="3.84612">
        <ele>1199</ele>
      </trkpt>
      <trkpt lat="45.5245" lon="3.84598">
        <ele>1199.4</ele>
      </trkpt>
      <trkpt lat="45.52457" lon="3.84589">
        <ele>1199.6</ele>
      </trkpt>
      <trkpt lat="45.52468" lon="3.84577">
        <ele>1198.9</ele>
      </trkpt>
      <trkpt lat="45.5248" lon="3.84568">
        <ele>1197.6</ele>
      </trkpt>
      <trkpt lat="45.52493" lon="3.84558">
        <ele>1196.5</ele>
      </trkpt>
      <trkpt lat="45.52514" lon="3.84547">
        <ele>1195.7</ele>
      </trkpt>
      <trkpt lat="45.52523" lon="3.84543">
        <ele>1195.6</ele>
      </trkpt>
      <trkpt lat="45.5253" lon="3.84541">
        <ele>1195.5</ele>
      </trkpt>
      <trkpt lat="45.52537" lon="3.84539">
        <ele>1195.4</ele>
      </trkpt>
      <trkpt lat="45.52551" lon="3.84538">
        <ele>1195.2</ele>
      </trkpt>
      <trkpt lat="45.52562" lon="3.84537">
        <ele>1195</ele>
      </trkpt>
      <trkpt lat="45.52569" lon="3.84537">
        <ele>1194.9</ele>
      </trkpt>
      <trkpt lat="45.52577" lon="3.84538">
        <ele>1194.7</ele>
      </trkpt>
      <trkpt lat="45.52583" lon="3.84539">
        <ele>1194.6</ele>
      </trkpt>
      <trkpt lat="45.52588" lon="3.84541">
        <ele>1195.4</ele>
      </trkpt>
      <trkpt lat="45.52594" lon="3.84543">
        <ele>1196.5</ele>
      </trkpt>
      <trkpt lat="45.526" lon="3.84545">
        <ele>1197.4</ele>
      </trkpt>
      <trkpt lat="45.52606" lon="3.84548">
        <ele>1198.4</ele>
      </trkpt>
      <trkpt lat="45.52612" lon="3.84551">
        <ele>1199.3</ele>
      </trkpt>
      <trkpt lat="45.52624" lon="3.84547">
        <ele>1201.7</ele>
      </trkpt>
      <trkpt lat="45.52628" lon="3.84534">
        <ele>1203.1</ele>
      </trkpt>
      <trkpt lat="45.52629" lon="3.84524">
        <ele>1203.9</ele>
      </trkpt>
      <trkpt lat="45.52632" lon="3.84505">
        <ele>1205.6</ele>
      </trkpt>
      <trkpt lat="45.52635" lon="3.84484">
        <ele>1205.6</ele>
      </trkpt>
      <trkpt lat="45.52639" lon="3.8447">
        <ele>1205.5</ele>
      </trkpt>
      <trkpt lat="45.52642" lon="3.84458">
        <ele>1205.5</ele>
      </trkpt>
      <trkpt lat="45.52646" lon="3.84449">
        <ele>1205.8</ele>
      </trkpt>
      <trkpt lat="45.5265" lon="3.84442">
        <ele>1206.1</ele>
      </trkpt>
      <trkpt lat="45.52655" lon="3.84433">
        <ele>1206.6</ele>
      </trkpt>
      <trkpt lat="45.52663" lon="3.84422">
        <ele>1207.5</ele>
      </trkpt>
      <trkpt lat="45.52671" lon="3.84413">
        <ele>1208.1</ele>
      </trkpt>
      <trkpt lat="45.52685" lon="3.84396">
        <ele>1208.2</ele>
      </trkpt>
      <trkpt lat="45.52691" lon="3.84391">
        <ele>1208.5</ele>
      </trkpt>
      <trkpt lat="45.527" lon="3.84385">
        <ele>1209</ele>
      </trkpt>
      <trkpt lat="45.52708" lon="3.84379">
        <ele>1209.4</ele>
      </trkpt>
      <trkpt lat="45.52714" lon="3.84377">
        <ele>1210</ele>
      </trkpt>
      <trkpt lat="45.52721" lon="3.84374">
        <ele>1210.8</ele>
      </trkpt>
      <trkpt lat="45.52729" lon="3.84372">
        <ele>1211.7</ele>
      </trkpt>
      <trkpt lat="45.52735" lon="3.84371">
        <ele>1212.6</ele>
      </trkpt>
      <trkpt lat="45.52743" lon="3.84369">
        <ele>1213.6</ele>
      </trkpt>
      <trkpt lat="45.52751" lon="3.84369">
        <ele>1214.9</ele>
      </trkpt>
      <trkpt lat="45.52763" lon="3.84368">
        <ele>1216.5</ele>
      </trkpt>
      <trkpt lat="45.5278" lon="3.84367">
        <ele>1219.1</ele>
      </trkpt>
      <trkpt lat="45.52794" lon="3.84367">
        <ele>1221.2</ele>
      </trkpt>
      <trkpt lat="45.52808" lon="3.84365">
        <ele>1223.1</ele>
      </trkpt>
      <trkpt lat="45.52819" lon="3.84363">
        <ele>1224.6</ele>
      </trkpt>
      <trkpt lat="45.52819" lon="3.84363">
        <ele>1224.6</ele>
      </trkpt>
      <trkpt lat="45.52826" lon="3.84361">
        <ele>1225.5</ele>
      </trkpt>
      <trkpt lat="45.52832" lon="3.8436">
        <ele>1226.3</ele>
      </trkpt>
      <trkpt lat="45.52841" lon="3.84357">
        <ele>1227.4</ele>
      </trkpt>
      <trkpt lat="45.52856" lon="3.84349">
        <ele>1229.2</ele>
      </trkpt>
      <trkpt lat="45.52864" lon="3.84345">
        <ele>1230.1</ele>
      </trkpt>
      <trkpt lat="45.52873" lon="3.84342">
        <ele>1231.4</ele>
      </trkpt>
      <trkpt lat="45.52887" lon="3.84336">
        <ele>1233.2</ele>
      </trkpt>
      <trkpt lat="45.52897" lon="3.84333">
        <ele>1234.6</ele>
      </trkpt>
      <trkpt lat="45.52904" lon="3.8433">
        <ele>1235.4</ele>
      </trkpt>
      <trkpt lat="45.5291" lon="3.84326">
        <ele>1235.9</ele>
      </trkpt>
      <trkpt lat="45.52919" lon="3.84318">
        <ele>1236.2</ele>
      </trkpt>
      <trkpt lat="45.52927" lon="3.84309">
        <ele>1236.1</ele>
      </trkpt>
      <trkpt lat="45.52935" lon="3.843">
        <ele>1236</ele>
      </trkpt>
      <trkpt lat="45.52945" lon="3.84288">
        <ele>1236.1</ele>
      </trkpt>
      <trkpt lat="45.52951" lon="3.84281">
        <ele>1236.3</ele>
      </trkpt>
      <trkpt lat="45.52956" lon="3.84276">
        <ele>1236.6</ele>
      </trkpt>
      <trkpt lat="45.52962" lon="3.84269">
        <ele>1237.2</ele>
      </trkpt>
      <trkpt lat="45.52969" lon="3.84264">
        <ele>1237.9</ele>
      </trkpt>
      <trkpt lat="45.52976" lon="3.84259">
        <ele>1238.9</ele>
      </trkpt>
      <trkpt lat="45.52985" lon="3.84254">
        <ele>1240.2</ele>
      </trkpt>
      <trkpt lat="45.52993" lon="3.84248">
        <ele>1241.5</ele>
      </trkpt>
      <trkpt lat="45.53002" lon="3.84242">
        <ele>1242.5</ele>
      </trkpt>
      <trkpt lat="45.5301" lon="3.84235">
        <ele>1243.4</ele>
      </trkpt>
      <trkpt lat="45.53017" lon="3.8423">
        <ele>1244.1</ele>
      </trkpt>
      <trkpt lat="45.53024" lon="3.84224">
        <ele>1244.8</ele>
      </trkpt>
      <trkpt lat="45.5303" lon="3.84219">
        <ele>1245.5</ele>
      </trkpt>
      <trkpt lat="45.53036" lon="3.84213">
        <ele>1246.1</ele>
      </trkpt>
      <trkpt lat="45.53044" lon="3.84206">
        <ele>1247</ele>
      </trkpt>
      <trkpt lat="45.53057" lon="3.8419">
        <ele>1248.4</ele>
      </trkpt>
      <trkpt lat="45.53071" lon="3.84174">
        <ele>1250.1</ele>
      </trkpt>
      <trkpt lat="45.53079" lon="3.84164">
        <ele>1251</ele>
      </trkpt>
      <trkpt lat="45.53087" lon="3.84153">
        <ele>1252</ele>
      </trkpt>
      <trkpt lat="45.531" lon="3.84132">
        <ele>1253.3</ele>
      </trkpt>
      <trkpt lat="45.53113" lon="3.84111">
        <ele>1254.6</ele>
      </trkpt>
      <trkpt lat="45.53125" lon="3.8409">
        <ele>1255.9</ele>
      </trkpt>
      <trkpt lat="45.53135" lon="3.84074">
        <ele>1257.2</ele>
      </trkpt>
      <trkpt lat="45.53144" lon="3.84059">
        <ele>1258.5</ele>
      </trkpt>
      <trkpt lat="45.53151" lon="3.8405">
        <ele>1259.4</ele>
      </trkpt>
      <trkpt lat="45.53157" lon="3.84044">
        <ele>1260.1</ele>
      </trkpt>
      <trkpt lat="45.53162" lon="3.8404">
        <ele>1260.8</ele>
      </trkpt>
      <trkpt lat="45.53168" lon="3.84038">
        <ele>1261.4</ele>
      </trkpt>
      <trkpt lat="45.53182" lon="3.84033">
        <ele>1262</ele>
      </trkpt>
      <trkpt lat="45.53193" lon="3.8403">
        <ele>1262.4</ele>
      </trkpt>
      <trkpt lat="45.53204" lon="3.84027">
        <ele>1262.9</ele>
      </trkpt>
      <trkpt lat="45.53204" lon="3.84027">
        <ele>1262.9</ele>
      </trkpt>
      <trkpt lat="45.53214" lon="3.84025">
        <ele>1263.3</ele>
      </trkpt>
      <trkpt lat="45.53221" lon="3.84024">
        <ele>1263.7</ele>
      </trkpt>
      <trkpt lat="45.53229" lon="3.84024">
        <ele>1264.1</ele>
      </trkpt>
      <trkpt lat="45.53242" lon="3.84023">
        <ele>1264.7</ele>
      </trkpt>
      <trkpt lat="45.53258" lon="3.84024">
        <ele>1265.1</ele>
      </trkpt>
      <trkpt lat="45.53274" lon="3.84024">
        <ele>1265.1</ele>
      </trkpt>
      <trkpt lat="45.53281" lon="3.84024">
        <ele>1265.1</ele>
      </trkpt>
      <trkpt lat="45.53296" lon="3.84024">
        <ele>1265.1</ele>
      </trkpt>
      <trkpt lat="45.53311" lon="3.84024">
        <ele>1265</ele>
      </trkpt>
      <trkpt lat="45.53325" lon="3.84024">
        <ele>1265</ele>
      </trkpt>
      <trkpt lat="45.53339" lon="3.84024">
        <ele>1265.5</ele>
      </trkpt>
      <trkpt lat="45.53352" lon="3.84024">
        <ele>1266.5</ele>
      </trkpt>
      <trkpt lat="45.53365" lon="3.84025">
        <ele>1267.5</ele>
      </trkpt>
      <trkpt lat="45.53384" lon="3.84024">
        <ele>1268.9</ele>
      </trkpt>
      <trkpt lat="45.53398" lon="3.84022">
        <ele>1269.9</ele>
      </trkpt>
      <trkpt lat="45.53413" lon="3.84021">
        <ele>1270.9</ele>
      </trkpt>
      <trkpt lat="45.53427" lon="3.84019">
        <ele>1271.7</ele>
      </trkpt>
      <trkpt lat="45.53437" lon="3.84017">
        <ele>1272.2</ele>
      </trkpt>
      <trkpt lat="45.53444" lon="3.84014">
        <ele>1272.5</ele>
      </trkpt>
      <trkpt lat="45.53452" lon="3.84011">
        <ele>1272.7</ele>
      </trkpt>
      <trkpt lat="45.53466" lon="3.84005">
        <ele>1273</ele>
      </trkpt>
      <trkpt lat="45.53485" lon="3.83995">
        <ele>1273.3</ele>
      </trkpt>
      <trkpt lat="45.53505" lon="3.83984">
        <ele>1273.5</ele>
      </trkpt>
      <trkpt lat="45.53517" lon="3.83977">
        <ele>1273.9</ele>
      </trkpt>
      <trkpt lat="45.5353" lon="3.8397">
        <ele>1274.3</ele>
      </trkpt>
      <trkpt lat="45.53542" lon="3.83962">
        <ele>1274.6</ele>
      </trkpt>
      <trkpt lat="45.53554" lon="3.83955">
        <ele>1274.9</ele>
      </trkpt>
      <trkpt lat="45.53566" lon="3.83948">
        <ele>1275</ele>
      </trkpt>
      <trkpt lat="45.53579" lon="3.8394">
        <ele>1275.2</ele>
      </trkpt>
      <trkpt lat="45.53591" lon="3.83932">
        <ele>1275.5</ele>
      </trkpt>
      <trkpt lat="45.53604" lon="3.83924">
        <ele>1276.2</ele>
      </trkpt>
      <trkpt lat="45.53615" lon="3.83917">
        <ele>1277</ele>
      </trkpt>
      <trkpt lat="45.53627" lon="3.8391">
        <ele>1278.1</ele>
      </trkpt>
      <trkpt lat="45.53645" lon="3.83899">
        <ele>1279.9</ele>
      </trkpt>
      <trkpt lat="45.53665" lon="3.8389">
        <ele>1282.5</ele>
      </trkpt>
      <trkpt lat="45.53665" lon="3.8389">
        <ele>1282.5</ele>
      </trkpt>
      <trkpt lat="45.53672" lon="3.83888">
        <ele>1282.6</ele>
      </trkpt>
      <trkpt lat="45.53678" lon="3.83887">
        <ele>1282.5</ele>
      </trkpt>
      <trkpt lat="45.53684" lon="3.83888">
        <ele>1282.6</ele>
      </trkpt>
      <trkpt lat="45.53692" lon="3.83889">
        <ele>1282.7</ele>
      </trkpt>
      <trkpt lat="45.537" lon="3.83892">
        <ele>1283</ele>
      </trkpt>
      <trkpt lat="45.53712" lon="3.83897">
        <ele>1283.5</ele>
      </trkpt>
      <trkpt lat="45.53733" lon="3.83906">
        <ele>1284.6</ele>
      </trkpt>
      <trkpt lat="45.53748" lon="3.83911">
        <ele>1285.3</ele>
      </trkpt>
      <trkpt lat="45.53768" lon="3.83918">
        <ele>1285.1</ele>
      </trkpt>
      <trkpt lat="45.5378" lon="3.83923">
        <ele>1285</ele>
      </trkpt>
      <trkpt lat="45.53799" lon="3.8393">
        <ele>1285</ele>
      </trkpt>
      <trkpt lat="45.53812" lon="3.83933">
        <ele>1284.8</ele>
      </trkpt>
      <trkpt lat="45.5382" lon="3.83935">
        <ele>1284.6</ele>
      </trkpt>
      <trkpt lat="45.5383" lon="3.83937">
        <ele>1284.3</ele>
      </trkpt>
      <trkpt lat="45.53851" lon="3.83938">
        <ele>1284.4</ele>
      </trkpt>
      <trkpt lat="45.53866" lon="3.83938">
        <ele>1284.5</ele>
      </trkpt>
      <trkpt lat="45.5388" lon="3.83938">
        <ele>1284.5</ele>
      </trkpt>
      <trkpt lat="45.53893" lon="3.83938">
        <ele>1284.5</ele>
      </trkpt>
      <trkpt lat="45.53906" lon="3.83938">
        <ele>1284.5</ele>
      </trkpt>
      <trkpt lat="45.53919" lon="3.83938">
        <ele>1284.8</ele>
      </trkpt>
      <trkpt lat="45.53932" lon="3.83938">
        <ele>1285.9</ele>
      </trkpt>
      <trkpt lat="45.53945" lon="3.83938">
        <ele>1286.9</ele>
      </trkpt>
      <trkpt lat="45.53957" lon="3.83937">
        <ele>1288</ele>
      </trkpt>
      <trkpt lat="45.53976" lon="3.83937">
        <ele>1289.6</ele>
      </trkpt>
      <trkpt lat="45.5399" lon="3.83936">
        <ele>1290.8</ele>
      </trkpt>
      <trkpt lat="45.54004" lon="3.83936">
        <ele>1291.5</ele>
      </trkpt>
      <trkpt lat="45.54026" lon="3.83934">
        <ele>1290.7</ele>
      </trkpt>
      <trkpt lat="45.54039" lon="3.83931">
        <ele>1290.1</ele>
      </trkpt>
      <trkpt lat="45.54045" lon="3.8393">
        <ele>1289.8</ele>
      </trkpt>
      <trkpt lat="45.54057" lon="3.83928">
        <ele>1289.1</ele>
      </trkpt>
      <trkpt lat="45.54066" lon="3.83925">
        <ele>1288.6</ele>
      </trkpt>
      <trkpt lat="45.54073" lon="3.83922">
        <ele>1288</ele>
      </trkpt>
      <trkpt lat="45.5408" lon="3.83918">
        <ele>1287.3</ele>
      </trkpt>
      <trkpt lat="45.54084" lon="3.83915">
        <ele>1286.9</ele>
      </trkpt>
      <trkpt lat="45.5409" lon="3.83908">
        <ele>1286.6</ele>
      </trkpt>
      <trkpt lat="45.54099" lon="3.83899">
        <ele>1286.2</ele>
      </trkpt>
      <trkpt lat="45.54105" lon="3.83889">
        <ele>1286</ele>
      </trkpt>
      <trkpt lat="45.5411" lon="3.83882">
        <ele>1285.9</ele>
      </trkpt>
      <trkpt lat="45.5411" lon="3.83882">
        <ele>1285.9</ele>
      </trkpt>
      <trkpt lat="45.54115" lon="3.83874">
        <ele>1285.9</ele>
      </trkpt>
      <trkpt lat="45.54119" lon="3.83862">
        <ele>1285.9</ele>
      </trkpt>
      <trkpt lat="45.54122" lon="3.83851">
        <ele>1285.9</ele>
      </trkpt>
      <trkpt lat="45.54125" lon="3.8384">
        <ele>1286</ele>
      </trkpt>
      <trkpt lat="45.54128" lon="3.83823">
        <ele>1286.4</ele>
      </trkpt>
      <trkpt lat="45.54129" lon="3.83815">
        <ele>1286.8</ele>
      </trkpt>
      <trkpt lat="45.54131" lon="3.83803">
        <ele>1287.2</ele>
      </trkpt>
      <trkpt lat="45.54135" lon="3.83779">
        <ele>1288</ele>
      </trkpt>
      <trkpt lat="45.54138" lon="3.83762">
        <ele>1288.6</ele>
      </trkpt>
      <trkpt lat="45.54139" lon="3.83752">
        <ele>1289</ele>
      </trkpt>
      <trkpt lat="45.54142" lon="3.83742">
        <ele>1289.5</ele>
      </trkpt>
      <trkpt lat="45.54144" lon="3.83734">
        <ele>1290</ele>
      </trkpt>
      <trkpt lat="45.54148" lon="3.83725">
        <ele>1290.7</ele>
      </trkpt>
      <trkpt lat="45.54151" lon="3.83716">
        <ele>1291.3</ele>
      </trkpt>
      <trkpt lat="45.54156" lon="3.83707">
        <ele>1292</ele>
      </trkpt>
      <trkpt lat="45.54161" lon="3.83697">
        <ele>1292.9</ele>
      </trkpt>
      <trkpt lat="45.54166" lon="3.83688">
        <ele>1293.7</ele>
      </trkpt>
      <trkpt lat="45.54171" lon="3.8368">
        <ele>1294.2</ele>
      </trkpt>
      <trkpt lat="45.54176" lon="3.83672">
        <ele>1294.7</ele>
      </trkpt>
      <trkpt lat="45.54182" lon="3.83664">
        <ele>1295.2</ele>
      </trkpt>
      <trkpt lat="45.54191" lon="3.83652">
        <ele>1296</ele>
      </trkpt>
      <trkpt lat="45.54199" lon="3.83644">
        <ele>1296.5</ele>
      </trkpt>
      <trkpt lat="45.54205" lon="3.83638">
        <ele>1297</ele>
      </trkpt>
      <trkpt lat="45.5422" lon="3.83628">
        <ele>1298</ele>
      </trkpt>
      <trkpt lat="45.54231" lon="3.8362">
        <ele>1298.6</ele>
      </trkpt>
      <trkpt lat="45.54241" lon="3.83614">
        <ele>1299.3</ele>
      </trkpt>
      <trkpt lat="45.54253" lon="3.83609">
        <ele>1300.1</ele>
      </trkpt>
      <trkpt lat="45.54261" lon="3.83605">
        <ele>1300.9</ele>
      </trkpt>
      <trkpt lat="45.54269" lon="3.83603">
        <ele>1301.6</ele>
      </trkpt>
      <trkpt lat="45.54278" lon="3.83602">
        <ele>1302.2</ele>
      </trkpt>
      <trkpt lat="45.54287" lon="3.83603">
        <ele>1302.7</ele>
      </trkpt>
      <trkpt lat="45.54296" lon="3.83604">
        <ele>1303.1</ele>
      </trkpt>
      <trkpt lat="45.54306" lon="3.83607">
        <ele>1303.6</ele>
      </trkpt>
      <trkpt lat="45.54321" lon="3.83611">
        <ele>1304.3</ele>
      </trkpt>
      <trkpt lat="45.54335" lon="3.83615">
        <ele>1304.8</ele>
      </trkpt>
      <trkpt lat="45.5435" lon="3.83618">
        <ele>1305.3</ele>
      </trkpt>
      <trkpt lat="45.54365" lon="3.83621">
        <ele>1305.8</ele>
      </trkpt>
      <trkpt lat="45.54383" lon="3.83622">
        <ele>1306.6</ele>
      </trkpt>
      <trkpt lat="45.54394" lon="3.83621">
        <ele>1307.3</ele>
      </trkpt>
      <trkpt lat="45.54406" lon="3.8362">
        <ele>1307.9</ele>
      </trkpt>
      <trkpt lat="45.54417" lon="3.83616">
        <ele>1308.9</ele>
      </trkpt>
      <trkpt lat="45.54428" lon="3.83611">
        <ele>1309.2</ele>
      </trkpt>
      <trkpt lat="45.54443" lon="3.83603">
        <ele>1309.9</ele>
      </trkpt>
      <trkpt lat="45.54457" lon="3.83595">
        <ele>1310.7</ele>
      </trkpt>
      <trkpt lat="45.54473" lon="3.83584">
        <ele>1312</ele>
      </trkpt>
      <trkpt lat="45.54473" lon="3.83584">
        <ele>1312</ele>
      </trkpt>
      <trkpt lat="45.54484" lon="3.83575">
        <ele>1312.5</ele>
      </trkpt>
      <trkpt lat="45.54495" lon="3.83566">
        <ele>1313</ele>
      </trkpt>
      <trkpt lat="45.54507" lon="3.83552">
        <ele>1313.6</ele>
      </trkpt>
      <trkpt lat="45.5452" lon="3.83538">
        <ele>1313.9</ele>
      </trkpt>
      <trkpt lat="45.54528" lon="3.83525">
        <ele>1314.3</ele>
      </trkpt>
      <trkpt lat="45.54537" lon="3.83512">
        <ele>1314.6</ele>
      </trkpt>
      <trkpt lat="45.54546" lon="3.83497">
        <ele>1314.8</ele>
      </trkpt>
      <trkpt lat="45.54556" lon="3.83482">
        <ele>1314.5</ele>
      </trkpt>
      <trkpt lat="45.54564" lon="3.8347">
        <ele>1314.2</ele>
      </trkpt>
      <trkpt lat="45.54575" lon="3.83453">
        <ele>1313.6</ele>
      </trkpt>
      <trkpt lat="45.54585" lon="3.83437">
        <ele>1313.1</ele>
      </trkpt>
      <trkpt lat="45.54592" lon="3.83428">
        <ele>1313.3</ele>
      </trkpt>
      <trkpt lat="45.54597" lon="3.8342">
        <ele>1313.6</ele>
      </trkpt>
      <trkpt lat="45.54601" lon="3.83414">
        <ele>1313.9</ele>
      </trkpt>
      <trkpt lat="45.54605" lon="3.8341">
        <ele>1314</ele>
      </trkpt>
      <trkpt lat="45.5461" lon="3.83405">
        <ele>1314.2</ele>
      </trkpt>
      <trkpt lat="45.54616" lon="3.83401">
        <ele>1314.5</ele>
      </trkpt>
      <trkpt lat="45.54622" lon="3.83397">
        <ele>1314.7</ele>
      </trkpt>
      <trkpt lat="45.5463" lon="3.83393">
        <ele>1315.1</ele>
      </trkpt>
      <trkpt lat="45.54639" lon="3.83389">
        <ele>1315.4</ele>
      </trkpt>
      <trkpt lat="45.54649" lon="3.83386">
        <ele>1315.8</ele>
      </trkpt>
      <trkpt lat="45.54666" lon="3.83382">
        <ele>1316.6</ele>
      </trkpt>
      <trkpt lat="45.54677" lon="3.8338">
        <ele>1316.9</ele>
      </trkpt>
      <trkpt lat="45.54691" lon="3.83379">
        <ele>1317.4</ele>
      </trkpt>
      <trkpt lat="45.547" lon="3.83378">
        <ele>1317.6</ele>
      </trkpt>
      <trkpt lat="45.54709" lon="3.83377">
        <ele>1318</ele>
      </trkpt>
      <trkpt lat="45.54724" lon="3.83379">
        <ele>1318.4</ele>
      </trkpt>
      <trkpt lat="45.54735" lon="3.8338">
        <ele>1318.8</ele>
      </trkpt>
      <trkpt lat="45.54747" lon="3.83381">
        <ele>1319</ele>
      </trkpt>
      <trkpt lat="45.54758" lon="3.83382">
        <ele>1319.4</ele>
      </trkpt>
      <trkpt lat="45.5477" lon="3.83383">
        <ele>1319.8</ele>
      </trkpt>
      <trkpt lat="45.54779" lon="3.83385">
        <ele>1320</ele>
      </trkpt>
      <trkpt lat="45.54787" lon="3.83387">
        <ele>1320.1</ele>
      </trkpt>
      <trkpt lat="45.54794" lon="3.83389">
        <ele>1320.2</ele>
      </trkpt>
      <trkpt lat="45.54802" lon="3.83392">
        <ele>1320.2</ele>
      </trkpt>
      <trkpt lat="45.5481" lon="3.83397">
        <ele>1320.2</ele>
      </trkpt>
      <trkpt lat="45.54819" lon="3.83402">
        <ele>1320</ele>
      </trkpt>
      <trkpt lat="45.54837" lon="3.83413">
        <ele>1319.5</ele>
      </trkpt>
      <trkpt lat="45.54847" lon="3.83418">
        <ele>1319.3</ele>
      </trkpt>
      <trkpt lat="45.54853" lon="3.8342">
        <ele>1319.2</ele>
      </trkpt>
      <trkpt lat="45.54862" lon="3.83422">
        <ele>1319.2</ele>
      </trkpt>
      <trkpt lat="45.54869" lon="3.83422">
        <ele>1319.4</ele>
      </trkpt>
      <trkpt lat="45.54883" lon="3.83423">
        <ele>1319.8</ele>
      </trkpt>
      <trkpt lat="45.54883" lon="3.83423">
        <ele>1319.8</ele>
      </trkpt>
      <trkpt lat="45.54883" lon="3.83423">
        <ele>1319.8</ele>
      </trkpt>
      <trkpt lat="45.54901" lon="3.83423">
        <ele>1320.5</ele>
      </trkpt>
      <trkpt lat="45.54913" lon="3.83422">
        <ele>1321.1</ele>
      </trkpt>
      <trkpt lat="45.54926" lon="3.83421">
        <ele>1321.9</ele>
      </trkpt>
      <trkpt lat="45.54943" lon="3.8342">
        <ele>1323.1</ele>
      </trkpt>
      <trkpt lat="45.54954" lon="3.83418">
        <ele>1323.9</ele>
      </trkpt>
      <trkpt lat="45.54963" lon="3.83417">
        <ele>1324.8</ele>
      </trkpt>
      <trkpt lat="45.54972" lon="3.83415">
        <ele>1325.5</ele>
      </trkpt>
      <trkpt lat="45.5498" lon="3.83414">
        <ele>1326.2</ele>
      </trkpt>
      <trkpt lat="45.54991" lon="3.83411">
        <ele>1327.2</ele>
      </trkpt>
      <trkpt lat="45.55003" lon="3.83408">
        <ele>1328.2</ele>
      </trkpt>
      <trkpt lat="45.55017" lon="3.83404">
        <ele>1329.6</ele>
      </trkpt>
      <trkpt lat="45.55028" lon="3.83404">
        <ele>1330.4</ele>
      </trkpt>
      <trkpt lat="45.55035" lon="3.83404">
        <ele>1330.9</ele>
      </trkpt>
      <trkpt lat="45.55041" lon="3.83406">
        <ele>1331.1</ele>
      </trkpt>
      <trkpt lat="45.55047" lon="3.83408">
        <ele>1331.4</ele>
      </trkpt>
      <trkpt lat="45.55054" lon="3.8341">
        <ele>1331.5</ele>
      </trkpt>
      <trkpt lat="45.55071" lon="3.83419">
        <ele>1331.6</ele>
      </trkpt>
      <trkpt lat="45.5509" lon="3.83427">
        <ele>1331.5</ele>
      </trkpt>
      <trkpt lat="45.55101" lon="3.83432">
        <ele>1331.7</ele>
      </trkpt>
      <trkpt lat="45.55111" lon="3.83436">
        <ele>1331.9</ele>
      </trkpt>
      <trkpt lat="45.55121" lon="3.83439">
        <ele>1332.3</ele>
      </trkpt>
      <trkpt lat="45.55131" lon="3.83441">
        <ele>1332.8</ele>
      </trkpt>
      <trkpt lat="45.55141" lon="3.83444">
        <ele>1333.3</ele>
      </trkpt>
      <trkpt lat="45.5516" lon="3.83447">
        <ele>1334.4</ele>
      </trkpt>
      <trkpt lat="45.55179" lon="3.83451">
        <ele>1335.6</ele>
      </trkpt>
      <trkpt lat="45.55198" lon="3.83454">
        <ele>1337</ele>
      </trkpt>
      <trkpt lat="45.55212" lon="3.83458">
        <ele>1337.8</ele>
      </trkpt>
      <trkpt lat="45.55225" lon="3.83461">
        <ele>1338.7</ele>
      </trkpt>
      <trkpt lat="45.5524" lon="3.83466">
        <ele>1339.5</ele>
      </trkpt>
      <trkpt lat="45.55255" lon="3.83473">
        <ele>1339.8</ele>
      </trkpt>
      <trkpt lat="45.55267" lon="3.8348">
        <ele>1339.4</ele>
      </trkpt>
      <trkpt lat="45.55281" lon="3.8349">
        <ele>1338.8</ele>
      </trkpt>
      <trkpt lat="45.55294" lon="3.83499">
        <ele>1338.3</ele>
      </trkpt>
      <trkpt lat="45.55303" lon="3.83507">
        <ele>1338.6</ele>
      </trkpt>
      <trkpt lat="45.55322" lon="3.83523">
        <ele>1339.3</ele>
      </trkpt>
      <trkpt lat="45.55334" lon="3.83534">
        <ele>1339.8</ele>
      </trkpt>
      <trkpt lat="45.55334" lon="3.83534">
        <ele>1339.8</ele>
      </trkpt>
      <trkpt lat="45.55345" lon="3.83545">
        <ele>1339.6</ele>
      </trkpt>
      <trkpt lat="45.55364" lon="3.83562">
        <ele>1339.4</ele>
      </trkpt>
      <trkpt lat="45.55379" lon="3.83575">
        <ele>1339.3</ele>
      </trkpt>
      <trkpt lat="45.55392" lon="3.83587">
        <ele>1339.4</ele>
      </trkpt>
      <trkpt lat="45.55401" lon="3.83595">
        <ele>1339.5</ele>
      </trkpt>
      <trkpt lat="45.55411" lon="3.83605">
        <ele>1339.6</ele>
      </trkpt>
      <trkpt lat="45.55422" lon="3.8362">
        <ele>1339.4</ele>
      </trkpt>
      <trkpt lat="45.55434" lon="3.83634">
        <ele>1339</ele>
      </trkpt>
      <trkpt lat="45.55446" lon="3.83649">
        <ele>1338.8</ele>
      </trkpt>
      <trkpt lat="45.55457" lon="3.83664">
        <ele>1338.9</ele>
      </trkpt>
      <trkpt lat="45.55467" lon="3.83677">
        <ele>1339.1</ele>
      </trkpt>
      <trkpt lat="45.55476" lon="3.8369">
        <ele>1339.4</ele>
      </trkpt>
      <trkpt lat="45.5548" lon="3.83696">
        <ele>1339.6</ele>
      </trkpt>
      <trkpt lat="45.55482" lon="3.83702">
        <ele>1339.7</ele>
      </trkpt>
      <trkpt lat="45.55484" lon="3.83709">
        <ele>1339.9</ele>
      </trkpt>
      <trkpt lat="45.55486" lon="3.8372">
        <ele>1340.3</ele>
      </trkpt>
      <trkpt lat="45.55487" lon="3.8373">
        <ele>1340.6</ele>
      </trkpt>
      <trkpt lat="45.55488" lon="3.8374">
        <ele>1340.9</ele>
      </trkpt>
      <trkpt lat="45.55487" lon="3.83765">
        <ele>1340.8</ele>
      </trkpt>
      <trkpt lat="45.55485" lon="3.83795">
        <ele>1340.2</ele>
      </trkpt>
      <trkpt lat="45.55484" lon="3.83812">
        <ele>1339.8</ele>
      </trkpt>
      <trkpt lat="45.55483" lon="3.8383">
        <ele>1339.4</ele>
      </trkpt>
      <trkpt lat="45.55483" lon="3.83847">
        <ele>1339.7</ele>
      </trkpt>
      <trkpt lat="45.55482" lon="3.83865">
        <ele>1340.1</ele>
      </trkpt>
      <trkpt lat="45.55481" lon="3.83876">
        <ele>1340.3</ele>
      </trkpt>
      <trkpt lat="45.5548" lon="3.83888">
        <ele>1340.5</ele>
      </trkpt>
      <trkpt lat="45.55478" lon="3.83897">
        <ele>1340.6</ele>
      </trkpt>
      <trkpt lat="45.55475" lon="3.83908">
        <ele>1340.7</ele>
      </trkpt>
      <trkpt lat="45.55471" lon="3.8392">
        <ele>1340.6</ele>
      </trkpt>
      <trkpt lat="45.55465" lon="3.83937">
        <ele>1340.3</ele>
      </trkpt>
      <trkpt lat="45.55457" lon="3.83954">
        <ele>1339.8</ele>
      </trkpt>
      <trkpt lat="45.55448" lon="3.83973">
        <ele>1339.3</ele>
      </trkpt>
      <trkpt lat="45.55437" lon="3.83997">
        <ele>1338.6</ele>
      </trkpt>
      <trkpt lat="45.55431" lon="3.8401">
        <ele>1338.5</ele>
      </trkpt>
      <trkpt lat="45.55425" lon="3.84024">
        <ele>1338.5</ele>
      </trkpt>
      <trkpt lat="45.55416" lon="3.84046">
        <ele>1338.6</ele>
      </trkpt>
      <trkpt lat="45.55408" lon="3.84065">
        <ele>1338.6</ele>
      </trkpt>
      <trkpt lat="45.55408" lon="3.84065">
        <ele>1338.6</ele>
      </trkpt>
      <trkpt lat="45.55404" lon="3.84078">
        <ele>1338.7</ele>
      </trkpt>
      <trkpt lat="45.554" lon="3.8409">
        <ele>1338.9</ele>
      </trkpt>
      <trkpt lat="45.55395" lon="3.8411">
        <ele>1339.2</ele>
      </trkpt>
      <trkpt lat="45.5539" lon="3.84127">
        <ele>1339.5</ele>
      </trkpt>
      <trkpt lat="45.55386" lon="3.84143">
        <ele>1339.8</ele>
      </trkpt>
      <trkpt lat="45.55379" lon="3.84172">
        <ele>1340.6</ele>
      </trkpt>
      <trkpt lat="45.55373" lon="3.8419">
        <ele>1341.4</ele>
      </trkpt>
      <trkpt lat="45.55368" lon="3.84204">
        <ele>1341.9</ele>
      </trkpt>
      <trkpt lat="45.55362" lon="3.84222">
        <ele>1342.3</ele>
      </trkpt>
      <trkpt lat="45.55354" lon="3.84239">
        <ele>1342.6</ele>
      </trkpt>
      <trkpt lat="45.55348" lon="3.84253">
        <ele>1342.7</ele>
      </trkpt>
      <trkpt lat="45.55341" lon="3.84267">
        <ele>1342.5</ele>
      </trkpt>
      <trkpt lat="45.55333" lon="3.84286">
        <ele>1342.3</ele>
      </trkpt>
      <trkpt lat="45.55324" lon="3.84306">
        <ele>1342.8</ele>
      </trkpt>
      <trkpt lat="45.55316" lon="3.84324">
        <ele>1343.3</ele>
      </trkpt>
      <trkpt lat="45.55307" lon="3.84342">
        <ele>1343.7</ele>
      </trkpt>
      <trkpt lat="45.553" lon="3.84358">
        <ele>1344.2</ele>
      </trkpt>
      <trkpt lat="45.55296" lon="3.84371">
        <ele>1344.5</ele>
      </trkpt>
      <trkpt lat="45.55292" lon="3.84385">
        <ele>1344.9</ele>
      </trkpt>
      <trkpt lat="45.55291" lon="3.84393">
        <ele>1345.1</ele>
      </trkpt>
      <trkpt lat="45.55289" lon="3.84403">
        <ele>1345.4</ele>
      </trkpt>
      <trkpt lat="45.55288" lon="3.84416">
        <ele>1345.8</ele>
      </trkpt>
      <trkpt lat="45.55288" lon="3.84437">
        <ele>1345.8</ele>
      </trkpt>
      <trkpt lat="45.55288" lon="3.84449">
        <ele>1345.9</ele>
      </trkpt>
      <trkpt lat="45.55288" lon="3.84462">
        <ele>1345.9</ele>
      </trkpt>
      <trkpt lat="45.55289" lon="3.84472">
        <ele>1345.9</ele>
      </trkpt>
      <trkpt lat="45.5529" lon="3.84484">
        <ele>1345.9</ele>
      </trkpt>
      <trkpt lat="45.55291" lon="3.84497">
        <ele>1346</ele>
      </trkpt>
      <trkpt lat="45.55294" lon="3.84513">
        <ele>1345.8</ele>
      </trkpt>
      <trkpt lat="45.55297" lon="3.84527">
        <ele>1345.6</ele>
      </trkpt>
      <trkpt lat="45.553" lon="3.84539">
        <ele>1345.4</ele>
      </trkpt>
      <trkpt lat="45.55304" lon="3.8455">
        <ele>1345.1</ele>
      </trkpt>
      <trkpt lat="45.55309" lon="3.84563">
        <ele>1344.8</ele>
      </trkpt>
      <trkpt lat="45.55313" lon="3.84573">
        <ele>1344.5</ele>
      </trkpt>
      <trkpt lat="45.55317" lon="3.84582">
        <ele>1344.2</ele>
      </trkpt>
      <trkpt lat="45.55322" lon="3.84591">
        <ele>1343.4</ele>
      </trkpt>
      <trkpt lat="45.5533" lon="3.84603">
        <ele>1342.2</ele>
      </trkpt>
      <trkpt lat="45.55343" lon="3.84622">
        <ele>1341</ele>
      </trkpt>
      <trkpt lat="45.55357" lon="3.8464">
        <ele>1340.4</ele>
      </trkpt>
      <trkpt lat="45.5537" lon="3.84656">
        <ele>1340</ele>
      </trkpt>
      <trkpt lat="45.5537" lon="3.84656">
        <ele>1340</ele>
      </trkpt>
      <trkpt lat="45.55382" lon="3.84672">
        <ele>1339.5</ele>
      </trkpt>
      <trkpt lat="45.5539" lon="3.84683">
        <ele>1338.8</ele>
      </trkpt>
      <trkpt lat="45.55399" lon="3.84695">
        <ele>1338.1</ele>
      </trkpt>
      <trkpt lat="45.55412" lon="3.84713">
        <ele>1337</ele>
      </trkpt>
      <trkpt lat="45.55421" lon="3.84723">
        <ele>1336.2</ele>
      </trkpt>
      <trkpt lat="45.55426" lon="3.84728">
        <ele>1335.5</ele>
      </trkpt>
      <trkpt lat="45.55433" lon="3.84732">
        <ele>1334.8</ele>
      </trkpt>
      <trkpt lat="45.55441" lon="3.84736">
        <ele>1334.1</ele>
      </trkpt>
      <trkpt lat="45.55455" lon="3.84743">
        <ele>1333</ele>
      </trkpt>
      <trkpt lat="45.55472" lon="3.84748">
        <ele>1332</ele>
      </trkpt>
      <trkpt lat="45.5548" lon="3.8475">
        <ele>1331.5</ele>
      </trkpt>
      <trkpt lat="45.5549" lon="3.84751">
        <ele>1331.1</ele>
      </trkpt>
      <trkpt lat="45.555" lon="3.8475">
        <ele>1330.9</ele>
      </trkpt>
      <trkpt lat="45.55509" lon="3.8475">
        <ele>1330.5</ele>
      </trkpt>
      <trkpt lat="45.55519" lon="3.84748">
        <ele>1330.1</ele>
      </trkpt>
      <trkpt lat="45.55529" lon="3.84746">
        <ele>1329.8</ele>
      </trkpt>
      <trkpt lat="45.55541" lon="3.84742">
        <ele>1329.5</ele>
      </trkpt>
      <trkpt lat="45.5555" lon="3.84739">
        <ele>1329.4</ele>
      </trkpt>
      <trkpt lat="45.5556" lon="3.84734">
        <ele>1329.4</ele>
      </trkpt>
      <trkpt lat="45.5557" lon="3.84728">
        <ele>1329.5</ele>
      </trkpt>
      <trkpt lat="45.55581" lon="3.84721">
        <ele>1329.7</ele>
      </trkpt>
      <trkpt lat="45.55589" lon="3.84715">
        <ele>1329.4</ele>
      </trkpt>
      <trkpt lat="45.55596" lon="3.84709">
        <ele>1329.3</ele>
      </trkpt>
      <trkpt lat="45.55604" lon="3.84701">
        <ele>1329.3</ele>
      </trkpt>
      <trkpt lat="45.55618" lon="3.84686">
        <ele>1329.5</ele>
      </trkpt>
      <trkpt lat="45.55631" lon="3.84672">
        <ele>1330</ele>
      </trkpt>
      <trkpt lat="45.55644" lon="3.84655">
        <ele>1330.5</ele>
      </trkpt>
      <trkpt lat="45.55655" lon="3.8464">
        <ele>1330.6</ele>
      </trkpt>
      <trkpt lat="45.55668" lon="3.84621">
        <ele>1330.6</ele>
      </trkpt>
      <trkpt lat="45.5568" lon="3.84603">
        <ele>1329.6</ele>
      </trkpt>
      <trkpt lat="45.55688" lon="3.84592">
        <ele>1329.1</ele>
      </trkpt>
      <trkpt lat="45.55695" lon="3.8458">
        <ele>1328.6</ele>
      </trkpt>
      <trkpt lat="45.55701" lon="3.84567">
        <ele>1328.4</ele>
      </trkpt>
      <trkpt lat="45.55708" lon="3.84553">
        <ele>1328.2</ele>
      </trkpt>
      <trkpt lat="45.55716" lon="3.84539">
        <ele>1328</ele>
      </trkpt>
      <trkpt lat="45.55723" lon="3.84524">
        <ele>1327.7</ele>
      </trkpt>
      <trkpt lat="45.55733" lon="3.84504">
        <ele>1327.3</ele>
      </trkpt>
      <trkpt lat="45.55743" lon="3.84485">
        <ele>1327.5</ele>
      </trkpt>
      <trkpt lat="45.55743" lon="3.84485">
        <ele>1327.5</ele>
      </trkpt>
      <trkpt lat="45.55754" lon="3.84462">
        <ele>1328.3</ele>
      </trkpt>
      <trkpt lat="45.55765" lon="3.84439">
        <ele>1328.9</ele>
      </trkpt>
      <trkpt lat="45.55774" lon="3.84421">
        <ele>1329</ele>
      </trkpt>
      <trkpt lat="45.55784" lon="3.84403">
        <ele>1328.5</ele>
      </trkpt>
      <trkpt lat="45.55791" lon="3.84389">
        <ele>1328.1</ele>
      </trkpt>
      <trkpt lat="45.55799" lon="3.84376">
        <ele>1327.6</ele>
      </trkpt>
      <trkpt lat="45.55808" lon="3.84361">
        <ele>1326.8</ele>
      </trkpt>
      <trkpt lat="45.55818" lon="3.84347">
        <ele>1326</ele>
      </trkpt>
      <trkpt lat="45.55834" lon="3.84326">
        <ele>1324.8</ele>
      </trkpt>
      <trkpt lat="45.55849" lon="3.84305">
        <ele>1325.1</ele>
      </trkpt>
      <trkpt lat="45.55862" lon="3.84291">
        <ele>1325.2</ele>
      </trkpt>
      <trkpt lat="45.55867" lon="3.84285">
        <ele>1325.2</ele>
      </trkpt>
      <trkpt lat="45.55874" lon="3.8428">
        <ele>1324.9</ele>
      </trkpt>
      <trkpt lat="45.5589" lon="3.8427">
        <ele>1324</ele>
      </trkpt>
      <trkpt lat="45.55903" lon="3.84264">
        <ele>1323.1</ele>
      </trkpt>
      <trkpt lat="45.55912" lon="3.84261">
        <ele>1322.2</ele>
      </trkpt>
      <trkpt lat="45.55917" lon="3.84259">
        <ele>1321.8</ele>
      </trkpt>
      <trkpt lat="45.55923" lon="3.84258">
        <ele>1321.8</ele>
      </trkpt>
      <trkpt lat="45.55929" lon="3.84258">
        <ele>1321.8</ele>
      </trkpt>
      <trkpt lat="45.55937" lon="3.84259">
        <ele>1321.6</ele>
      </trkpt>
      <trkpt lat="45.55952" lon="3.84262">
        <ele>1320.9</ele>
      </trkpt>
      <trkpt lat="45.55967" lon="3.84265">
        <ele>1320.1</ele>
      </trkpt>
      <trkpt lat="45.55981" lon="3.84269">
        <ele>1319.4</ele>
      </trkpt>
      <trkpt lat="45.55995" lon="3.84272">
        <ele>1318.7</ele>
      </trkpt>
      <trkpt lat="45.56007" lon="3.84274">
        <ele>1318.3</ele>
      </trkpt>
      <trkpt lat="45.56019" lon="3.84277">
        <ele>1317.7</ele>
      </trkpt>
      <trkpt lat="45.56027" lon="3.84281">
        <ele>1317.1</ele>
      </trkpt>
      <trkpt lat="45.56035" lon="3.84286">
        <ele>1316.3</ele>
      </trkpt>
      <trkpt lat="45.56052" lon="3.84299">
        <ele>1314</ele>
      </trkpt>
      <trkpt lat="45.56063" lon="3.84308">
        <ele>1312.4</ele>
      </trkpt>
      <trkpt lat="45.56073" lon="3.84317">
        <ele>1310.9</ele>
      </trkpt>
      <trkpt lat="45.56081" lon="3.84324">
        <ele>1309.6</ele>
      </trkpt>
      <trkpt lat="45.56085" lon="3.8433">
        <ele>1308.7</ele>
      </trkpt>
      <trkpt lat="45.56089" lon="3.84339">
        <ele>1308.3</ele>
      </trkpt>
      <trkpt lat="45.56094" lon="3.8435">
        <ele>1308.4</ele>
      </trkpt>
      <trkpt lat="45.56098" lon="3.8436">
        <ele>1308.5</ele>
      </trkpt>
      <trkpt lat="45.56099" lon="3.84367">
        <ele>1308.5</ele>
      </trkpt>
      <trkpt lat="45.56102" lon="3.84396">
        <ele>1308.4</ele>
      </trkpt>
      <trkpt lat="45.56102" lon="3.84396">
        <ele>1308.4</ele>
      </trkpt>
      <trkpt lat="45.56104" lon="3.84415">
        <ele>1308.3</ele>
      </trkpt>
      <trkpt lat="45.56105" lon="3.84422">
        <ele>1308.5</ele>
      </trkpt>
      <trkpt lat="45.56107" lon="3.84452">
        <ele>1309.5</ele>
      </trkpt>
      <trkpt lat="45.56108" lon="3.8446">
        <ele>1309.8</ele>
      </trkpt>
      <trkpt lat="45.56108" lon="3.84468">
        <ele>1310</ele>
      </trkpt>
      <trkpt lat="45.56107" lon="3.84475">
        <ele>1310.2</ele>
      </trkpt>
      <trkpt lat="45.56106" lon="3.84482">
        <ele>1310.4</ele>
      </trkpt>
      <trkpt lat="45.56104" lon="3.8449">
        <ele>1310.4</ele>
      </trkpt>
      <trkpt lat="45.56102" lon="3.84498">
        <ele>1310.5</ele>
      </trkpt>
      <trkpt lat="45.56098" lon="3.84506">
        <ele>1310.7</ele>
      </trkpt>
      <trkpt lat="45.56094" lon="3.84513">
        <ele>1310.8</ele>
      </trkpt>
      <trkpt lat="45.56089" lon="3.84519">
        <ele>1310.9</ele>
      </trkpt>
      <trkpt lat="45.56082" lon="3.84527">
        <ele>1310.9</ele>
      </trkpt>
      <trkpt lat="45.56074" lon="3.84535">
        <ele>1311.2</ele>
      </trkpt>
      <trkpt lat="45.56058" lon="3.84549">
        <ele>1311.6</ele>
      </trkpt>
      <trkpt lat="45.56042" lon="3.84564">
        <ele>1312.1</ele>
      </trkpt>
      <trkpt lat="45.56026" lon="3.84578">
        <ele>1312.5</ele>
      </trkpt>
      <trkpt lat="45.5601" lon="3.84592">
        <ele>1313.2</ele>
      </trkpt>
      <trkpt lat="45.55993" lon="3.84606">
        <ele>1313.9</ele>
      </trkpt>
      <trkpt lat="45.55976" lon="3.84621">
        <ele>1314.5</ele>
      </trkpt>
      <trkpt lat="45.55976" lon="3.84621">
        <ele>1314.5</ele>
      </trkpt>
      <trkpt lat="45.55966" lon="3.8463">
        <ele>1314.8</ele>
      </trkpt>
      <trkpt lat="45.55957" lon="3.8464">
        <ele>1315.1</ele>
      </trkpt>
      <trkpt lat="45.55941" lon="3.84657">
        <ele>1315.7</ele>
      </trkpt>
      <trkpt lat="45.55925" lon="3.84674">
        <ele>1316.1</ele>
      </trkpt>
      <trkpt lat="45.55909" lon="3.8469">
        <ele>1316.1</ele>
      </trkpt>
      <trkpt lat="45.55893" lon="3.84707">
        <ele>1315.8</ele>
      </trkpt>
      <trkpt lat="45.55881" lon="3.84721">
        <ele>1315.8</ele>
      </trkpt>
      <trkpt lat="45.55868" lon="3.84735">
        <ele>1315.8</ele>
      </trkpt>
      <trkpt lat="45.55856" lon="3.84749">
        <ele>1316.1</ele>
      </trkpt>
      <trkpt lat="45.5585" lon="3.84759">
        <ele>1316.3</ele>
      </trkpt>
      <trkpt lat="45.55836" lon="3.84781">
        <ele>1316.9</ele>
      </trkpt>
      <trkpt lat="45.55825" lon="3.84799">
        <ele>1317.5</ele>
      </trkpt>
      <trkpt lat="45.55814" lon="3.84816">
        <ele>1318.1</ele>
      </trkpt>
      <trkpt lat="45.55802" lon="3.84835">
        <ele>1318.9</ele>
      </trkpt>
      <trkpt lat="45.55793" lon="3.8485">
        <ele>1319.3</ele>
      </trkpt>
      <trkpt lat="45.55793" lon="3.8485">
        <ele>1319.3</ele>
      </trkpt>
      <trkpt lat="45.55784" lon="3.84869">
        <ele>1319.7</ele>
      </trkpt>
      <trkpt lat="45.55775" lon="3.84889">
        <ele>1320.1</ele>
      </trkpt>
      <trkpt lat="45.55768" lon="3.84907">
        <ele>1320.3</ele>
      </trkpt>
      <trkpt lat="45.5576" lon="3.84924">
        <ele>1320.6</ele>
      </trkpt>
      <trkpt lat="45.55751" lon="3.84944">
        <ele>1321.1</ele>
      </trkpt>
      <trkpt lat="45.55743" lon="3.84964">
        <ele>1321.6</ele>
      </trkpt>
      <trkpt lat="45.55734" lon="3.84984">
        <ele>1322.2</ele>
      </trkpt>
      <trkpt lat="45.55726" lon="3.85001">
        <ele>1322.5</ele>
      </trkpt>
      <trkpt lat="45.55719" lon="3.85018">
        <ele>1322.9</ele>
      </trkpt>
      <trkpt lat="45.55712" lon="3.85034">
        <ele>1323.1</ele>
      </trkpt>
      <trkpt lat="45.55704" lon="3.85049">
        <ele>1323.2</ele>
      </trkpt>
      <trkpt lat="45.55695" lon="3.85071">
        <ele>1323.3</ele>
      </trkpt>
      <trkpt lat="45.55688" lon="3.85087">
        <ele>1323.4</ele>
      </trkpt>
      <trkpt lat="45.55681" lon="3.85106">
        <ele>1323.4</ele>
      </trkpt>
      <trkpt lat="45.55675" lon="3.85123">
        <ele>1323.6</ele>
      </trkpt>
      <trkpt lat="45.55668" lon="3.85145">
        <ele>1323.8</ele>
      </trkpt>
      <trkpt lat="45.55659" lon="3.85169">
        <ele>1324.2</ele>
      </trkpt>
      <trkpt lat="45.55651" lon="3.85194">
        <ele>1324.4</ele>
      </trkpt>
      <trkpt lat="45.55645" lon="3.85211">
        <ele>1324.7</ele>
      </trkpt>
      <trkpt lat="45.55639" lon="3.85228">
        <ele>1325</ele>
      </trkpt>
      <trkpt lat="45.55631" lon="3.8525">
        <ele>1325.5</ele>
      </trkpt>
      <trkpt lat="45.55622" lon="3.85272">
        <ele>1326</ele>
      </trkpt>
      <trkpt lat="45.55616" lon="3.85288">
        <ele>1326.3</ele>
      </trkpt>
      <trkpt lat="45.5561" lon="3.85304">
        <ele>1326.6</ele>
      </trkpt>
      <trkpt lat="45.556" lon="3.85331">
        <ele>1327.2</ele>
      </trkpt>
      <trkpt lat="45.5559" lon="3.85357">
        <ele>1327.7</ele>
      </trkpt>
      <trkpt lat="45.55579" lon="3.85384">
        <ele>1327.9</ele>
      </trkpt>
      <trkpt lat="45.55572" lon="3.85401">
        <ele>1327.9</ele>
      </trkpt>
      <trkpt lat="45.55566" lon="3.85418">
        <ele>1327.7</ele>
      </trkpt>
      <trkpt lat="45.55559" lon="3.85435">
        <ele>1327.2</ele>
      </trkpt>
      <trkpt lat="45.55559" lon="3.85435">
        <ele>1327.2</ele>
      </trkpt>
      <trkpt lat="45.55552" lon="3.85452">
        <ele>1326.8</ele>
      </trkpt>
      <trkpt lat="45.55546" lon="3.85468">
        <ele>1326.3</ele>
      </trkpt>
      <trkpt lat="45.5554" lon="3.85484">
        <ele>1325.9</ele>
      </trkpt>
      <trkpt lat="45.55536" lon="3.85496">
        <ele>1325.6</ele>
      </trkpt>
      <trkpt lat="45.5553" lon="3.85514">
        <ele>1325.4</ele>
      </trkpt>
      <trkpt lat="45.55526" lon="3.85533">
        <ele>1325.3</ele>
      </trkpt>
      <trkpt lat="45.55521" lon="3.85553">
        <ele>1325.4</ele>
      </trkpt>
      <trkpt lat="45.55517" lon="3.85574">
        <ele>1325.5</ele>
      </trkpt>
      <trkpt lat="45.55515" lon="3.8559">
        <ele>1325.8</ele>
      </trkpt>
      <trkpt lat="45.55513" lon="3.85603">
        <ele>1325.9</ele>
      </trkpt>
      <trkpt lat="45.55512" lon="3.85612">
        <ele>1326</ele>
      </trkpt>
      <trkpt lat="45.55511" lon="3.85622">
        <ele>1326.2</ele>
      </trkpt>
      <trkpt lat="45.55511" lon="3.85635">
        <ele>1326.5</ele>
      </trkpt>
      <trkpt lat="45.55511" lon="3.85656">
        <ele>1327.1</ele>
      </trkpt>
      <trkpt lat="45.55511" lon="3.85673">
        <ele>1327.5</ele>
      </trkpt>
      <trkpt lat="45.55511" lon="3.85691">
        <ele>1327.7</ele>
      </trkpt>
      <trkpt lat="45.55511" lon="3.85708">
        <ele>1328</ele>
      </trkpt>
      <trkpt lat="45.55511" lon="3.85726">
        <ele>1328.2</ele>
      </trkpt>
      <trkpt lat="45.55511" lon="3.85737">
        <ele>1328.4</ele>
      </trkpt>
      <trkpt lat="45.55511" lon="3.85762">
        <ele>1328.6</ele>
      </trkpt>
      <trkpt lat="45.55512" lon="3.85786">
        <ele>1328.5</ele>
      </trkpt>
      <trkpt lat="45.55512" lon="3.85801">
        <ele>1328.5</ele>
      </trkpt>
      <trkpt lat="45.55512" lon="3.85819">
        <ele>1328.5</ele>
      </trkpt>
      <trkpt lat="45.55513" lon="3.85829">
        <ele>1328.5</ele>
      </trkpt>
      <trkpt lat="45.55513" lon="3.85839">
        <ele>1328.5</ele>
      </trkpt>
      <trkpt lat="45.55514" lon="3.85849">
        <ele>1328.5</ele>
      </trkpt>
      <trkpt lat="45.55516" lon="3.85861">
        <ele>1328.5</ele>
      </trkpt>
      <trkpt lat="45.55517" lon="3.8587">
        <ele>1328.5</ele>
      </trkpt>
      <trkpt lat="45.55519" lon="3.85879">
        <ele>1328.6</ele>
      </trkpt>
      <trkpt lat="45.55521" lon="3.85889">
        <ele>1328.7</ele>
      </trkpt>
      <trkpt lat="45.55524" lon="3.85899">
        <ele>1328.9</ele>
      </trkpt>
      <trkpt lat="45.55527" lon="3.85908">
        <ele>1329.1</ele>
      </trkpt>
      <trkpt lat="45.5553" lon="3.85917">
        <ele>1329.3</ele>
      </trkpt>
      <trkpt lat="45.55534" lon="3.85923">
        <ele>1329.1</ele>
      </trkpt>
      <trkpt lat="45.55539" lon="3.85934">
        <ele>1328.7</ele>
      </trkpt>
      <trkpt lat="45.55544" lon="3.85942">
        <ele>1328.4</ele>
      </trkpt>
      <trkpt lat="45.55548" lon="3.85949">
        <ele>1328.2</ele>
      </trkpt>
      <trkpt lat="45.55553" lon="3.85954">
        <ele>1328.1</ele>
      </trkpt>
      <trkpt lat="45.55558" lon="3.8596">
        <ele>1328</ele>
      </trkpt>
      <trkpt lat="45.55564" lon="3.85965">
        <ele>1328</ele>
      </trkpt>
      <trkpt lat="45.55569" lon="3.85971">
        <ele>1328</ele>
      </trkpt>
      <trkpt lat="45.55574" lon="3.85975">
        <ele>1328</ele>
      </trkpt>
      <trkpt lat="45.55582" lon="3.8598">
        <ele>1328</ele>
      </trkpt>
      <trkpt lat="45.55597" lon="3.8599">
        <ele>1327.7</ele>
      </trkpt>
      <trkpt lat="45.55611" lon="3.86001">
        <ele>1327.3</ele>
      </trkpt>
      <trkpt lat="45.55622" lon="3.86011">
        <ele>1327.1</ele>
      </trkpt>
      <trkpt lat="45.55622" lon="3.86011">
        <ele>1327.1</ele>
      </trkpt>
      <trkpt lat="45.55628" lon="3.86018">
        <ele>1327</ele>
      </trkpt>
      <trkpt lat="45.55632" lon="3.86024">
        <ele>1326.8</ele>
      </trkpt>
      <trkpt lat="45.55636" lon="3.8603">
        <ele>1326.6</ele>
      </trkpt>
      <trkpt lat="45.5564" lon="3.86036">
        <ele>1326.4</ele>
      </trkpt>
      <trkpt lat="45.55642" lon="3.86042">
        <ele>1326.2</ele>
      </trkpt>
      <trkpt lat="45.55646" lon="3.86051">
        <ele>1325.8</ele>
      </trkpt>
      <trkpt lat="45.5565" lon="3.86066">
        <ele>1325.1</ele>
      </trkpt>
      <trkpt lat="45.55651" lon="3.86077">
        <ele>1324.5</ele>
      </trkpt>
      <trkpt lat="45.55653" lon="3.86088">
        <ele>1324.3</ele>
      </trkpt>
      <trkpt lat="45.55653" lon="3.86096">
        <ele>1324.5</ele>
      </trkpt>
      <trkpt lat="45.55653" lon="3.86103">
        <ele>1324.7</ele>
      </trkpt>
      <trkpt lat="45.55653" lon="3.86111">
        <ele>1324.9</ele>
      </trkpt>
      <trkpt lat="45.55652" lon="3.86119">
        <ele>1325.1</ele>
      </trkpt>
      <trkpt lat="45.55652" lon="3.86125">
        <ele>1325.3</ele>
      </trkpt>
      <trkpt lat="45.55649" lon="3.86135">
        <ele>1325.4</ele>
      </trkpt>
      <trkpt lat="45.55646" lon="3.86144">
        <ele>1325.6</ele>
      </trkpt>
      <trkpt lat="45.55642" lon="3.86153">
        <ele>1325.7</ele>
      </trkpt>
      <trkpt lat="45.55639" lon="3.86159">
        <ele>1325.7</ele>
      </trkpt>
      <trkpt lat="45.55635" lon="3.86164">
        <ele>1325.8</ele>
      </trkpt>
      <trkpt lat="45.55631" lon="3.86168">
        <ele>1325.8</ele>
      </trkpt>
      <trkpt lat="45.55626" lon="3.86172">
        <ele>1325.9</ele>
      </trkpt>
      <trkpt lat="45.55618" lon="3.86177">
        <ele>1325.9</ele>
      </trkpt>
      <trkpt lat="45.55606" lon="3.86184">
        <ele>1326.1</ele>
      </trkpt>
      <trkpt lat="45.55596" lon="3.86189">
        <ele>1326.2</ele>
      </trkpt>
      <trkpt lat="45.55588" lon="3.86193">
        <ele>1326.3</ele>
      </trkpt>
      <trkpt lat="45.5558" lon="3.86196">
        <ele>1326.4</ele>
      </trkpt>
      <trkpt lat="45.55572" lon="3.86199">
        <ele>1326.5</ele>
      </trkpt>
      <trkpt lat="45.5556" lon="3.86202">
        <ele>1326.5</ele>
      </trkpt>
      <trkpt lat="45.55553" lon="3.86204">
        <ele>1326.6</ele>
      </trkpt>
      <trkpt lat="45.55539" lon="3.86206">
        <ele>1326.5</ele>
      </trkpt>
      <trkpt lat="45.55526" lon="3.86209">
        <ele>1326.5</ele>
      </trkpt>
      <trkpt lat="45.55513" lon="3.86211">
        <ele>1326.5</ele>
      </trkpt>
      <trkpt lat="45.55505" lon="3.86212">
        <ele>1326.5</ele>
      </trkpt>
      <trkpt lat="45.55493" lon="3.86215">
        <ele>1326.2</ele>
      </trkpt>
      <trkpt lat="45.55473" lon="3.86219">
        <ele>1325.1</ele>
      </trkpt>
      <trkpt lat="45.55451" lon="3.86225">
        <ele>1324</ele>
      </trkpt>
      <trkpt lat="45.55434" lon="3.86231">
        <ele>1323.2</ele>
      </trkpt>
      <trkpt lat="45.55421" lon="3.86235">
        <ele>1322.4</ele>
      </trkpt>
      <trkpt lat="45.55409" lon="3.86239">
        <ele>1322.1</ele>
      </trkpt>
      <trkpt lat="45.55398" lon="3.86243">
        <ele>1322.1</ele>
      </trkpt>
      <trkpt lat="45.5539" lon="3.86246">
        <ele>1322.1</ele>
      </trkpt>
      <trkpt lat="45.55381" lon="3.86251">
        <ele>1322.2</ele>
      </trkpt>
      <trkpt lat="45.55373" lon="3.86255">
        <ele>1322.4</ele>
      </trkpt>
      <trkpt lat="45.55364" lon="3.8626">
        <ele>1322.7</ele>
      </trkpt>
      <trkpt lat="45.55351" lon="3.86269">
        <ele>1323</ele>
      </trkpt>
      <trkpt lat="45.55338" lon="3.86277">
        <ele>1323.2</ele>
      </trkpt>
      <trkpt lat="45.55325" lon="3.86286">
        <ele>1323.5</ele>
      </trkpt>
      <trkpt lat="45.55313" lon="3.86295">
        <ele>1323.8</ele>
      </trkpt>
      <trkpt lat="45.55305" lon="3.86302">
        <ele>1324</ele>
      </trkpt>
      <trkpt lat="45.55305" lon="3.86302">
        <ele>1324</ele>
      </trkpt>
      <trkpt lat="45.55296" lon="3.86309">
        <ele>1324.1</ele>
      </trkpt>
      <trkpt lat="45.55292" lon="3.86312">
        <ele>1324.1</ele>
      </trkpt>
      <trkpt lat="45.55287" lon="3.86318">
        <ele>1324.2</ele>
      </trkpt>
      <trkpt lat="45.55281" lon="3.86325">
        <ele>1324.2</ele>
      </trkpt>
      <trkpt lat="45.55272" lon="3.86335">
        <ele>1324.1</ele>
      </trkpt>
      <trkpt lat="45.55264" lon="3.86345">
        <ele>1324.3</ele>
      </trkpt>
      <trkpt lat="45.55249" lon="3.86364">
        <ele>1324.4</ele>
      </trkpt>
      <trkpt lat="45.55243" lon="3.86372">
        <ele>1324.6</ele>
      </trkpt>
      <trkpt lat="45.55238" lon="3.8638">
        <ele>1324.8</ele>
      </trkpt>
      <trkpt lat="45.55236" lon="3.86385">
        <ele>1324.8</ele>
      </trkpt>
      <trkpt lat="45.55232" lon="3.86395">
        <ele>1325</ele>
      </trkpt>
      <trkpt lat="45.5523" lon="3.86404">
        <ele>1325.2</ele>
      </trkpt>
      <trkpt lat="45.55228" lon="3.86413">
        <ele>1325.3</ele>
      </trkpt>
      <trkpt lat="45.55226" lon="3.86422">
        <ele>1325.3</ele>
      </trkpt>
      <trkpt lat="45.55225" lon="3.86433">
        <ele>1325.2</ele>
      </trkpt>
      <trkpt lat="45.55224" lon="3.8644">
        <ele>1325.1</ele>
      </trkpt>
      <trkpt lat="45.55223" lon="3.8645">
        <ele>1325.1</ele>
      </trkpt>
      <trkpt lat="45.55223" lon="3.86459">
        <ele>1325.1</ele>
      </trkpt>
      <trkpt lat="45.55223" lon="3.86469">
        <ele>1325.1</ele>
      </trkpt>
      <trkpt lat="45.55224" lon="3.86478">
        <ele>1325.2</ele>
      </trkpt>
      <trkpt lat="45.55225" lon="3.86487">
        <ele>1325.3</ele>
      </trkpt>
      <trkpt lat="45.55227" lon="3.86506">
        <ele>1325.3</ele>
      </trkpt>
      <trkpt lat="45.5523" lon="3.86525">
        <ele>1324.6</ele>
      </trkpt>
      <trkpt lat="45.55234" lon="3.86545">
        <ele>1324.1</ele>
      </trkpt>
      <trkpt lat="45.55241" lon="3.86574">
        <ele>1323.8</ele>
      </trkpt>
      <trkpt lat="45.55247" lon="3.86595">
        <ele>1322.6</ele>
      </trkpt>
      <trkpt lat="45.55251" lon="3.86607">
        <ele>1321.6</ele>
      </trkpt>
      <trkpt lat="45.55255" lon="3.86614">
        <ele>1320.8</ele>
      </trkpt>
      <trkpt lat="45.55259" lon="3.86623">
        <ele>1320</ele>
      </trkpt>
      <trkpt lat="45.55263" lon="3.86632">
        <ele>1319.3</ele>
      </trkpt>
      <trkpt lat="45.55271" lon="3.86645">
        <ele>1318.1</ele>
      </trkpt>
      <trkpt lat="45.55278" lon="3.86655">
        <ele>1317.3</ele>
      </trkpt>
      <trkpt lat="45.55284" lon="3.86663">
        <ele>1316.8</ele>
      </trkpt>
      <trkpt lat="45.55291" lon="3.86672">
        <ele>1316.2</ele>
      </trkpt>
      <trkpt lat="45.55297" lon="3.86678">
        <ele>1315.9</ele>
      </trkpt>
      <trkpt lat="45.55303" lon="3.86684">
        <ele>1315.7</ele>
      </trkpt>
      <trkpt lat="45.55313" lon="3.86692">
        <ele>1315.6</ele>
      </trkpt>
      <trkpt lat="45.5532" lon="3.86697">
        <ele>1315.8</ele>
      </trkpt>
      <trkpt lat="45.55331" lon="3.86703">
        <ele>1316.1</ele>
      </trkpt>
      <trkpt lat="45.55341" lon="3.86707">
        <ele>1315.9</ele>
      </trkpt>
      <trkpt lat="45.5535" lon="3.86711">
        <ele>1315.6</ele>
      </trkpt>
      <trkpt lat="45.55362" lon="3.86716">
        <ele>1315.2</ele>
      </trkpt>
      <trkpt lat="45.5537" lon="3.86718">
        <ele>1315</ele>
      </trkpt>
      <trkpt lat="45.55378" lon="3.8672">
        <ele>1314.9</ele>
      </trkpt>
      <trkpt lat="45.55398" lon="3.86723">
        <ele>1314.8</ele>
      </trkpt>
      <trkpt lat="45.55414" lon="3.86724">
        <ele>1314.8</ele>
      </trkpt>
      <trkpt lat="45.5543" lon="3.86726">
        <ele>1315.4</ele>
      </trkpt>
      <trkpt lat="45.55441" lon="3.86727">
        <ele>1316.1</ele>
      </trkpt>
      <trkpt lat="45.55441" lon="3.86727">
        <ele>1316.1</ele>
      </trkpt>
      <trkpt lat="45.55452" lon="3.86729">
        <ele>1316.7</ele>
      </trkpt>
      <trkpt lat="45.55457" lon="3.86729">
        <ele>1316.9</ele>
      </trkpt>
      <trkpt lat="45.55479" lon="3.86731">
        <ele>1318.1</ele>
      </trkpt>
      <trkpt lat="45.5549" lon="3.86732">
        <ele>1318.8</ele>
      </trkpt>
      <trkpt lat="45.55508" lon="3.86733">
        <ele>1319.4</ele>
      </trkpt>
      <trkpt lat="45.55528" lon="3.86733">
        <ele>1319.5</ele>
      </trkpt>
      <trkpt lat="45.55542" lon="3.86733">
        <ele>1319.5</ele>
      </trkpt>
      <trkpt lat="45.55555" lon="3.86733">
        <ele>1319.6</ele>
      </trkpt>
      <trkpt lat="45.55573" lon="3.86733">
        <ele>1319.6</ele>
      </trkpt>
      <trkpt lat="45.55587" lon="3.86734">
        <ele>1319.3</ele>
      </trkpt>
      <trkpt lat="45.55594" lon="3.86735">
        <ele>1318.8</ele>
      </trkpt>
      <trkpt lat="45.55603" lon="3.86735">
        <ele>1318.4</ele>
      </trkpt>
      <trkpt lat="45.55615" lon="3.86734">
        <ele>1318.1</ele>
      </trkpt>
      <trkpt lat="45.55631" lon="3.86732">
        <ele>1317.7</ele>
      </trkpt>
      <trkpt lat="45.55646" lon="3.8673">
        <ele>1317.3</ele>
      </trkpt>
      <trkpt lat="45.55664" lon="3.8673">
        <ele>1316.6</ele>
      </trkpt>
      <trkpt lat="45.55681" lon="3.86729">
        <ele>1316.1</ele>
      </trkpt>
      <trkpt lat="45.557" lon="3.86729">
        <ele>1315.6</ele>
      </trkpt>
      <trkpt lat="45.5572" lon="3.86729">
        <ele>1314.9</ele>
      </trkpt>
      <trkpt lat="45.55741" lon="3.8673">
        <ele>1314.2</ele>
      </trkpt>
      <trkpt lat="45.55754" lon="3.86729">
        <ele>1313.8</ele>
      </trkpt>
      <trkpt lat="45.55764" lon="3.86729">
        <ele>1313.3</ele>
      </trkpt>
      <trkpt lat="45.55772" lon="3.86729">
        <ele>1312.9</ele>
      </trkpt>
      <trkpt lat="45.55787" lon="3.86727">
        <ele>1312.4</ele>
      </trkpt>
      <trkpt lat="45.55801" lon="3.86725">
        <ele>1311.9</ele>
      </trkpt>
      <trkpt lat="45.55815" lon="3.86722">
        <ele>1311.6</ele>
      </trkpt>
      <trkpt lat="45.55821" lon="3.86721">
        <ele>1311.5</ele>
      </trkpt>
      <trkpt lat="45.5583" lon="3.86716">
        <ele>1311.9</ele>
      </trkpt>
      <trkpt lat="45.5584" lon="3.86709">
        <ele>1312.8</ele>
      </trkpt>
      <trkpt lat="45.55858" lon="3.86697">
        <ele>1314.3</ele>
      </trkpt>
      <trkpt lat="45.55864" lon="3.86694">
        <ele>1314.8</ele>
      </trkpt>
      <trkpt lat="45.55873" lon="3.86692">
        <ele>1315</ele>
      </trkpt>
      <trkpt lat="45.5588" lon="3.86692">
        <ele>1314.9</ele>
      </trkpt>
      <trkpt lat="45.55892" lon="3.86694">
        <ele>1314.3</ele>
      </trkpt>
      <trkpt lat="45.55902" lon="3.86696">
        <ele>1313.8</ele>
      </trkpt>
      <trkpt lat="45.55902" lon="3.86696">
        <ele>1313.8</ele>
      </trkpt>
      <trkpt lat="45.55907" lon="3.86697">
        <ele>1313.4</ele>
      </trkpt>
      <trkpt lat="45.55916" lon="3.86701">
        <ele>1312.4</ele>
      </trkpt>
      <trkpt lat="45.55921" lon="3.86705">
        <ele>1312</ele>
      </trkpt>
      <trkpt lat="45.55926" lon="3.86708">
        <ele>1311.7</ele>
      </trkpt>
      <trkpt lat="45.55933" lon="3.86715">
        <ele>1310.9</ele>
      </trkpt>
      <trkpt lat="45.55946" lon="3.86731">
        <ele>1309.1</ele>
      </trkpt>
      <trkpt lat="45.55959" lon="3.86749">
        <ele>1307.2</ele>
      </trkpt>
      <trkpt lat="45.55974" lon="3.86768">
        <ele>1306.1</ele>
      </trkpt>
      <trkpt lat="45.55985" lon="3.86782">
        <ele>1305.3</ele>
      </trkpt>
      <trkpt lat="45.55997" lon="3.86796">
        <ele>1304.6</ele>
      </trkpt>
      <trkpt lat="45.56008" lon="3.86811">
        <ele>1303.4</ele>
      </trkpt>
      <trkpt lat="45.56024" lon="3.86831">
        <ele>1301.4</ele>
      </trkpt>
      <trkpt lat="45.5604" lon="3.86852">
        <ele>1298.7</ele>
      </trkpt>
      <trkpt lat="45.56056" lon="3.86872">
        <ele>1296.5</ele>
      </trkpt>
      <trkpt lat="45.56065" lon="3.86881">
        <ele>1295.7</ele>
      </trkpt>
      <trkpt lat="45.56071" lon="3.86886">
        <ele>1295.5</ele>
      </trkpt>
      <trkpt lat="45.56079" lon="3.86891">
        <ele>1295.3</ele>
      </trkpt>
      <trkpt lat="45.5609" lon="3.86897">
        <ele>1294.7</ele>
      </trkpt>
      <trkpt lat="45.56101" lon="3.86903">
        <ele>1293.6</ele>
      </trkpt>
      <trkpt lat="45.56119" lon="3.86911">
        <ele>1292.1</ele>
      </trkpt>
      <trkpt lat="45.56128" lon="3.86912">
        <ele>1291.6</ele>
      </trkpt>
      <trkpt lat="45.56134" lon="3.86912">
        <ele>1291.5</ele>
      </trkpt>
      <trkpt lat="45.56136" lon="3.86902">
        <ele>1293</ele>
      </trkpt>
      <trkpt lat="45.56151" lon="3.86885">
        <ele>1295.6</ele>
      </trkpt>
      <trkpt lat="45.56163" lon="3.86883">
        <ele>1295.7</ele>
      </trkpt>
      <trkpt lat="45.56175" lon="3.86884">
        <ele>1295.2</ele>
      </trkpt>
      <trkpt lat="45.56186" lon="3.86885">
        <ele>1294.7</ele>
      </trkpt>
      <trkpt lat="45.56205" lon="3.86885">
        <ele>1294.1</ele>
      </trkpt>
      <trkpt lat="45.56224" lon="3.86885">
        <ele>1293.5</ele>
      </trkpt>
      <trkpt lat="45.56241" lon="3.86882">
        <ele>1293.5</ele>
      </trkpt>
      <trkpt lat="45.56258" lon="3.86876">
        <ele>1293.7</ele>
      </trkpt>
      <trkpt lat="45.56276" lon="3.86869">
        <ele>1293.5</ele>
      </trkpt>
      <trkpt lat="45.56293" lon="3.86863">
        <ele>1293.4</ele>
      </trkpt>
      <trkpt lat="45.56311" lon="3.86856">
        <ele>1293.4</ele>
      </trkpt>
      <trkpt lat="45.56311" lon="3.86856">
        <ele>1293.4</ele>
      </trkpt>
      <trkpt lat="45.56328" lon="3.86849">
        <ele>1293.3</ele>
      </trkpt>
      <trkpt lat="45.56347" lon="3.86862">
        <ele>1289.1</ele>
      </trkpt>
      <trkpt lat="45.56365" lon="3.86874">
        <ele>1285.1</ele>
      </trkpt>
      <trkpt lat="45.5638" lon="3.8688">
        <ele>1282.7</ele>
      </trkpt>
      <trkpt lat="45.56395" lon="3.86885">
        <ele>1280.4</ele>
      </trkpt>
      <trkpt lat="45.5641" lon="3.86891">
        <ele>1278.2</ele>
      </trkpt>
      <trkpt lat="45.56423" lon="3.86892">
        <ele>1276.7</ele>
      </trkpt>
      <trkpt lat="45.5643" lon="3.86883">
        <ele>1277.1</ele>
      </trkpt>
      <trkpt lat="45.56439" lon="3.86873">
        <ele>1277.4</ele>
      </trkpt>
      <trkpt lat="45.56447" lon="3.86864">
        <ele>1277.5</ele>
      </trkpt>
      <trkpt lat="45.56457" lon="3.86855">
        <ele>1277.4</ele>
      </trkpt>
      <trkpt lat="45.56463" lon="3.86851">
        <ele>1277</ele>
      </trkpt>
      <trkpt lat="45.56471" lon="3.86847">
        <ele>1276.5</ele>
      </trkpt>
      <trkpt lat="45.56478" lon="3.86844">
        <ele>1275.8</ele>
      </trkpt>
      <trkpt lat="45.56485" lon="3.86843">
        <ele>1275</ele>
      </trkpt>
      <trkpt lat="45.5649" lon="3.86843">
        <ele>1274.3</ele>
      </trkpt>
      <trkpt lat="45.56497" lon="3.86843">
        <ele>1273.3</ele>
      </trkpt>
      <trkpt lat="45.56502" lon="3.86844">
        <ele>1272.7</ele>
      </trkpt>
      <trkpt lat="45.56508" lon="3.86846">
        <ele>1272.3</ele>
      </trkpt>
      <trkpt lat="45.56521" lon="3.86851">
        <ele>1271.4</ele>
      </trkpt>
      <trkpt lat="45.56533" lon="3.86857">
        <ele>1270.6</ele>
      </trkpt>
      <trkpt lat="45.56545" lon="3.86862">
        <ele>1269.8</ele>
      </trkpt>
      <trkpt lat="45.56553" lon="3.86867">
        <ele>1269.4</ele>
      </trkpt>
      <trkpt lat="45.56563" lon="3.86871">
        <ele>1268.9</ele>
      </trkpt>
      <trkpt lat="45.56573" lon="3.86874">
        <ele>1268.6</ele>
      </trkpt>
      <trkpt lat="45.56578" lon="3.86877">
        <ele>1268.4</ele>
      </trkpt>
      <trkpt lat="45.56584" lon="3.8688">
        <ele>1268.2</ele>
      </trkpt>
      <trkpt lat="45.56589" lon="3.86884">
        <ele>1268</ele>
      </trkpt>
      <trkpt lat="45.56594" lon="3.86886">
        <ele>1267.9</ele>
      </trkpt>
      <trkpt lat="45.56599" lon="3.86885">
        <ele>1268</ele>
      </trkpt>
      <trkpt lat="45.56601" lon="3.86877">
        <ele>1268.5</ele>
      </trkpt>
      <trkpt lat="45.56599" lon="3.86866">
        <ele>1269.1</ele>
      </trkpt>
      <trkpt lat="45.56597" lon="3.86857">
        <ele>1269.6</ele>
      </trkpt>
      <trkpt lat="45.56596" lon="3.86848">
        <ele>1270.1</ele>
      </trkpt>
      <trkpt lat="45.56597" lon="3.86841">
        <ele>1270.6</ele>
      </trkpt>
      <trkpt lat="45.56598" lon="3.8683">
        <ele>1271.5</ele>
      </trkpt>
      <trkpt lat="45.56599" lon="3.86823">
        <ele>1272.4</ele>
      </trkpt>
      <trkpt lat="45.56601" lon="3.86816">
        <ele>1273.4</ele>
      </trkpt>
      <trkpt lat="45.56605" lon="3.86808">
        <ele>1274.4</ele>
      </trkpt>
      <trkpt lat="45.56611" lon="3.868">
        <ele>1275.1</ele>
      </trkpt>
      <trkpt lat="45.56624" lon="3.86785">
        <ele>1276.3</ele>
      </trkpt>
      <trkpt lat="45.56629" lon="3.86778">
        <ele>1276.8</ele>
      </trkpt>
      <trkpt lat="45.56634" lon="3.8677">
        <ele>1277.2</ele>
      </trkpt>
      <trkpt lat="45.56639" lon="3.8676">
        <ele>1277.8</ele>
      </trkpt>
      <trkpt lat="45.56642" lon="3.86748">
        <ele>1278.6</ele>
      </trkpt>
      <trkpt lat="45.56644" lon="3.8674">
        <ele>1279.4</ele>
      </trkpt>
      <trkpt lat="45.56645" lon="3.86727">
        <ele>1280.8</ele>
      </trkpt>
      <trkpt lat="45.56646" lon="3.86719">
        <ele>1281.7</ele>
      </trkpt>
      <trkpt lat="45.56632" lon="3.86714">
        <ele>1283.7</ele>
      </trkpt>
      <trkpt lat="45.56615" lon="3.86711">
        <ele>1285.7</ele>
      </trkpt>
      <trkpt lat="45.56615" lon="3.86711">
        <ele>1285.7</ele>
      </trkpt>
      <trkpt lat="45.56598" lon="3.8671">
        <ele>1287.4</ele>
      </trkpt>
      <trkpt lat="45.56582" lon="3.86709">
        <ele>1289.2</ele>
      </trkpt>
      <trkpt lat="45.56563" lon="3.86704">
        <ele>1293.6</ele>
      </trkpt>
      <trkpt lat="45.56556" lon="3.867">
        <ele>1295.8</ele>
      </trkpt>
      <trkpt lat="45.56554" lon="3.86689">
        <ele>1298</ele>
      </trkpt>
      <trkpt lat="45.56557" lon="3.86681">
        <ele>1298.7</ele>
      </trkpt>
      <trkpt lat="45.56563" lon="3.86672">
        <ele>1298.7</ele>
      </trkpt>
      <trkpt lat="45.56575" lon="3.86658">
        <ele>1298.5</ele>
      </trkpt>
      <trkpt lat="45.56586" lon="3.86643">
        <ele>1299.5</ele>
      </trkpt>
      <trkpt lat="45.56593" lon="3.86632">
        <ele>1301.5</ele>
      </trkpt>
      <trkpt lat="45.56594" lon="3.86624">
        <ele>1303.6</ele>
      </trkpt>
      <trkpt lat="45.56598" lon="3.86618">
        <ele>1304.5</ele>
      </trkpt>
      <trkpt lat="45.56604" lon="3.8661">
        <ele>1305.3</ele>
      </trkpt>
      <trkpt lat="45.56614" lon="3.86603">
        <ele>1305.8</ele>
      </trkpt>
      <trkpt lat="45.56621" lon="3.86597">
        <ele>1306.1</ele>
      </trkpt>
      <trkpt lat="45.56627" lon="3.86592">
        <ele>1306.3</ele>
      </trkpt>
      <trkpt lat="45.56632" lon="3.86587">
        <ele>1306.7</ele>
      </trkpt>
      <trkpt lat="45.56638" lon="3.86582">
        <ele>1306.9</ele>
      </trkpt>
      <trkpt lat="45.56642" lon="3.86577">
        <ele>1307.3</ele>
      </trkpt>
      <trkpt lat="45.56648" lon="3.86571">
        <ele>1307.8</ele>
      </trkpt>
      <trkpt lat="45.56653" lon="3.86565">
        <ele>1308.4</ele>
      </trkpt>
      <trkpt lat="45.56659" lon="3.86558">
        <ele>1309.1</ele>
      </trkpt>
      <trkpt lat="45.56668" lon="3.86548">
        <ele>1310</ele>
      </trkpt>
      <trkpt lat="45.56677" lon="3.86539">
        <ele>1311.5</ele>
      </trkpt>
      <trkpt lat="45.56687" lon="3.86531">
        <ele>1312.5</ele>
      </trkpt>
      <trkpt lat="45.56691" lon="3.86528">
        <ele>1313</ele>
      </trkpt>
      <trkpt lat="45.56695" lon="3.86522">
        <ele>1314.1</ele>
      </trkpt>
      <trkpt lat="45.56699" lon="3.86516">
        <ele>1315.3</ele>
      </trkpt>
      <trkpt lat="45.56706" lon="3.86507">
        <ele>1316.9</ele>
      </trkpt>
      <trkpt lat="45.56712" lon="3.86502">
        <ele>1317.9</ele>
      </trkpt>
      <trkpt lat="45.5672" lon="3.86495">
        <ele>1319</ele>
      </trkpt>
      <trkpt lat="45.56726" lon="3.86491">
        <ele>1319.6</ele>
      </trkpt>
      <trkpt lat="45.56732" lon="3.86488">
        <ele>1320</ele>
      </trkpt>
      <trkpt lat="45.56737" lon="3.86485">
        <ele>1320.2</ele>
      </trkpt>
      <trkpt lat="45.56746" lon="3.86481">
        <ele>1320.6</ele>
      </trkpt>
      <trkpt lat="45.56755" lon="3.86478">
        <ele>1320.8</ele>
      </trkpt>
      <trkpt lat="45.56755" lon="3.86478">
        <ele>1320.8</ele>
      </trkpt>
      <trkpt lat="45.56764" lon="3.86473">
        <ele>1321</ele>
      </trkpt>
      <trkpt lat="45.56773" lon="3.86469">
        <ele>1321.2</ele>
      </trkpt>
      <trkpt lat="45.5678" lon="3.86466">
        <ele>1321.4</ele>
      </trkpt>
      <trkpt lat="45.56785" lon="3.86464">
        <ele>1321.5</ele>
      </trkpt>
      <trkpt lat="45.5679" lon="3.86462">
        <ele>1321.4</ele>
      </trkpt>
      <trkpt lat="45.56799" lon="3.86459">
        <ele>1321.3</ele>
      </trkpt>
      <trkpt lat="45.56806" lon="3.86455">
        <ele>1321.3</ele>
      </trkpt>
      <trkpt lat="45.56814" lon="3.86452">
        <ele>1321.5</ele>
      </trkpt>
      <trkpt lat="45.56821" lon="3.86449">
        <ele>1321.4</ele>
      </trkpt>
      <trkpt lat="45.56826" lon="3.86445">
        <ele>1321.5</ele>
      </trkpt>
      <trkpt lat="45.56834" lon="3.86439">
        <ele>1322</ele>
      </trkpt>
      <trkpt lat="45.56842" lon="3.86442">
        <ele>1322</ele>
      </trkpt>
      <trkpt lat="45.56846" lon="3.86431">
        <ele>1324.2</ele>
      </trkpt>
      <trkpt lat="45.5685" lon="3.86423">
        <ele>1325.9</ele>
      </trkpt>
      <trkpt lat="45.56858" lon="3.86414">
        <ele>1328</ele>
      </trkpt>
      <trkpt lat="45.56864" lon="3.86411">
        <ele>1329.3</ele>
      </trkpt>
      <trkpt lat="45.56882" lon="3.86405">
        <ele>1331.8</ele>
      </trkpt>
      <trkpt lat="45.56893" lon="3.86401">
        <ele>1333.5</ele>
      </trkpt>
      <trkpt lat="45.56893" lon="3.86401">
        <ele>1333.5</ele>
      </trkpt>
      <trkpt lat="45.56904" lon="3.86397">
        <ele>1335.2</ele>
      </trkpt>
      <trkpt lat="45.5691" lon="3.86395">
        <ele>1336</ele>
      </trkpt>
      <trkpt lat="45.56915" lon="3.86395">
        <ele>1336.4</ele>
      </trkpt>
      <trkpt lat="45.56921" lon="3.86395">
        <ele>1337</ele>
      </trkpt>
      <trkpt lat="45.56927" lon="3.86395">
        <ele>1337.7</ele>
      </trkpt>
      <trkpt lat="45.56934" lon="3.86396">
        <ele>1338.3</ele>
      </trkpt>
      <trkpt lat="45.56945" lon="3.86398">
        <ele>1339.2</ele>
      </trkpt>
      <trkpt lat="45.5696" lon="3.86401">
        <ele>1340.5</ele>
      </trkpt>
      <trkpt lat="45.56968" lon="3.86402">
        <ele>1341.1</ele>
      </trkpt>
      <trkpt lat="45.56976" lon="3.86405">
        <ele>1341.6</ele>
      </trkpt>
      <trkpt lat="45.56986" lon="3.8641">
        <ele>1342.2</ele>
      </trkpt>
      <trkpt lat="45.56997" lon="3.86417">
        <ele>1342.5</ele>
      </trkpt>
      <trkpt lat="45.57017" lon="3.8642">
        <ele>1344.8</ele>
      </trkpt>
      <trkpt lat="45.57038" lon="3.86424">
        <ele>1347.1</ele>
      </trkpt>
      <trkpt lat="45.57058" lon="3.86427">
        <ele>1349.4</ele>
      </trkpt>
      <trkpt lat="45.5708" lon="3.86421">
        <ele>1353.1</ele>
      </trkpt>
      <trkpt lat="45.57102" lon="3.86415">
        <ele>1354.4</ele>
      </trkpt>
      <trkpt lat="45.57124" lon="3.86408">
        <ele>1355.4</ele>
      </trkpt>
      <trkpt lat="45.57146" lon="3.86402">
        <ele>1356.3</ele>
      </trkpt>
      <trkpt lat="45.57164" lon="3.86386">
        <ele>1358.3</ele>
      </trkpt>
      <trkpt lat="45.57183" lon="3.8637">
        <ele>1358.8</ele>
      </trkpt>
      <trkpt lat="45.57201" lon="3.86354">
        <ele>1358.8</ele>
      </trkpt>
      <trkpt lat="45.5722" lon="3.86338">
        <ele>1358.5</ele>
      </trkpt>
      <trkpt lat="45.57229" lon="3.86321">
        <ele>1359.2</ele>
      </trkpt>
      <trkpt lat="45.57238" lon="3.86303">
        <ele>1360.1</ele>
      </trkpt>
      <trkpt lat="45.57247" lon="3.86285">
        <ele>1361</ele>
      </trkpt>
      <trkpt lat="45.57249" lon="3.86271">
        <ele>1362.1</ele>
      </trkpt>
      <trkpt lat="45.57252" lon="3.86258">
        <ele>1363.2</ele>
      </trkpt>
      <trkpt lat="45.57255" lon="3.86246">
        <ele>1363.9</ele>
      </trkpt>
      <trkpt lat="45.57258" lon="3.86234">
        <ele>1364</ele>
      </trkpt>
      <trkpt lat="45.57262" lon="3.86222">
        <ele>1364.1</ele>
      </trkpt>
      <trkpt lat="45.57266" lon="3.86209">
        <ele>1364.1</ele>
      </trkpt>
      <trkpt lat="45.57269" lon="3.86199">
        <ele>1364.1</ele>
      </trkpt>
      <trkpt lat="45.57273" lon="3.86189">
        <ele>1364.2</ele>
      </trkpt>
      <trkpt lat="45.57273" lon="3.86189">
        <ele>1364.2</ele>
      </trkpt>
      <trkpt lat="45.57275" lon="3.8618">
        <ele>1364.2</ele>
      </trkpt>
      <trkpt lat="45.57276" lon="3.86171">
        <ele>1364.3</ele>
      </trkpt>
      <trkpt lat="45.57278" lon="3.86164">
        <ele>1364.5</ele>
      </trkpt>
      <trkpt lat="45.57278" lon="3.86157">
        <ele>1365</ele>
      </trkpt>
      <trkpt lat="45.57281" lon="3.86144">
        <ele>1365.6</ele>
      </trkpt>
      <trkpt lat="45.57285" lon="3.86136">
        <ele>1365.9</ele>
      </trkpt>
      <trkpt lat="45.57287" lon="3.86131">
        <ele>1366</ele>
      </trkpt>
      <trkpt lat="45.57294" lon="3.86118">
        <ele>1366.2</ele>
      </trkpt>
      <trkpt lat="45.57297" lon="3.86111">
        <ele>1366.4</ele>
      </trkpt>
      <trkpt lat="45.57299" lon="3.86102">
        <ele>1366.7</ele>
      </trkpt>
      <trkpt lat="45.57302" lon="3.86085">
        <ele>1367.3</ele>
      </trkpt>
      <trkpt lat="45.57307" lon="3.86069">
        <ele>1367.1</ele>
      </trkpt>
      <trkpt lat="45.5731" lon="3.86053">
        <ele>1367.1</ele>
      </trkpt>
      <trkpt lat="45.57314" lon="3.86037">
        <ele>1366.9</ele>
      </trkpt>
      <trkpt lat="45.57319" lon="3.86016">
        <ele>1366.9</ele>
      </trkpt>
      <trkpt lat="45.57326" lon="3.85988">
        <ele>1367.2</ele>
      </trkpt>
      <trkpt lat="45.57328" lon="3.8598">
        <ele>1367.4</ele>
      </trkpt>
      <trkpt lat="45.57331" lon="3.8597">
        <ele>1367.6</ele>
      </trkpt>
      <trkpt lat="45.57334" lon="3.8596">
        <ele>1367.9</ele>
      </trkpt>
      <trkpt lat="45.57336" lon="3.8595">
        <ele>1368.3</ele>
      </trkpt>
      <trkpt lat="45.57337" lon="3.85941">
        <ele>1368.7</ele>
      </trkpt>
      <trkpt lat="45.57341" lon="3.85921">
        <ele>1369.6</ele>
      </trkpt>
      <trkpt lat="45.57343" lon="3.85911">
        <ele>1370.2</ele>
      </trkpt>
      <trkpt lat="45.57347" lon="3.85904">
        <ele>1370.9</ele>
      </trkpt>
      <trkpt lat="45.5735" lon="3.85898">
        <ele>1371.3</ele>
      </trkpt>
      <trkpt lat="45.57354" lon="3.85892">
        <ele>1371.8</ele>
      </trkpt>
      <trkpt lat="45.57359" lon="3.85887">
        <ele>1372.3</ele>
      </trkpt>
      <trkpt lat="45.57367" lon="3.85882">
        <ele>1372.8</ele>
      </trkpt>
      <trkpt lat="45.57374" lon="3.85878">
        <ele>1373.2</ele>
      </trkpt>
      <trkpt lat="45.5738" lon="3.85872">
        <ele>1373.8</ele>
      </trkpt>
      <trkpt lat="45.57386" lon="3.85867">
        <ele>1374.4</ele>
      </trkpt>
      <trkpt lat="45.57388" lon="3.85861">
        <ele>1375.1</ele>
      </trkpt>
      <trkpt lat="45.57392" lon="3.85854">
        <ele>1376</ele>
      </trkpt>
      <trkpt lat="45.57397" lon="3.85842">
        <ele>1377.5</ele>
      </trkpt>
      <trkpt lat="45.57405" lon="3.85825">
        <ele>1379.4</ele>
      </trkpt>
      <trkpt lat="45.57413" lon="3.85808">
        <ele>1381</ele>
      </trkpt>
      <trkpt lat="45.57422" lon="3.85795">
        <ele>1382.1</ele>
      </trkpt>
      <trkpt lat="45.57431" lon="3.85783">
        <ele>1382.8</ele>
      </trkpt>
      <trkpt lat="45.57439" lon="3.85774">
        <ele>1383.4</ele>
      </trkpt>
      <trkpt lat="45.57444" lon="3.85769">
        <ele>1383.6</ele>
      </trkpt>
      <trkpt lat="45.57452" lon="3.8576">
        <ele>1384</ele>
      </trkpt>
      <trkpt lat="45.57462" lon="3.85752">
        <ele>1384.2</ele>
      </trkpt>
      <trkpt lat="45.57472" lon="3.85746">
        <ele>1384.1</ele>
      </trkpt>
      <trkpt lat="45.57479" lon="3.85742">
        <ele>1384</ele>
      </trkpt>
      <trkpt lat="45.57494" lon="3.85733">
        <ele>1383.8</ele>
      </trkpt>
      <trkpt lat="45.57505" lon="3.85727">
        <ele>1383.8</ele>
      </trkpt>
      <trkpt lat="45.57516" lon="3.85721">
        <ele>1383.9</ele>
      </trkpt>
      <trkpt lat="45.57527" lon="3.85716">
        <ele>1384</ele>
      </trkpt>
      <trkpt lat="45.57545" lon="3.85706">
        <ele>1384</ele>
      </trkpt>
      <trkpt lat="45.57557" lon="3.85699">
        <ele>1384</ele>
      </trkpt>
      <trkpt lat="45.57557" lon="3.85699">
        <ele>1384</ele>
      </trkpt>
      <trkpt lat="45.57568" lon="3.85692">
        <ele>1384</ele>
      </trkpt>
      <trkpt lat="45.57581" lon="3.85683">
        <ele>1383.9</ele>
      </trkpt>
      <trkpt lat="45.57598" lon="3.85673">
        <ele>1383.6</ele>
      </trkpt>
      <trkpt lat="45.57613" lon="3.85666">
        <ele>1383.3</ele>
      </trkpt>
      <trkpt lat="45.57623" lon="3.85661">
        <ele>1382.9</ele>
      </trkpt>
      <trkpt lat="45.57636" lon="3.85656">
        <ele>1382.5</ele>
      </trkpt>
      <trkpt lat="45.57651" lon="3.8565">
        <ele>1382.1</ele>
      </trkpt>
      <trkpt lat="45.57667" lon="3.85645">
        <ele>1381.7</ele>
      </trkpt>
      <trkpt lat="45.57679" lon="3.85641">
        <ele>1380.9</ele>
      </trkpt>
      <trkpt lat="45.57693" lon="3.85635">
        <ele>1379.8</ele>
      </trkpt>
      <trkpt lat="45.5771" lon="3.85631">
        <ele>1378.7</ele>
      </trkpt>
      <trkpt lat="45.5772" lon="3.85628">
        <ele>1378</ele>
      </trkpt>
      <trkpt lat="45.57733" lon="3.85626">
        <ele>1377.1</ele>
      </trkpt>
      <trkpt lat="45.57751" lon="3.85622">
        <ele>1375.9</ele>
      </trkpt>
      <trkpt lat="45.57764" lon="3.85618">
        <ele>1374.2</ele>
      </trkpt>
      <trkpt lat="45.57775" lon="3.85616">
        <ele>1372.9</ele>
      </trkpt>
      <trkpt lat="45.57786" lon="3.85614">
        <ele>1371.6</ele>
      </trkpt>
      <trkpt lat="45.57794" lon="3.85613">
        <ele>1370.7</ele>
      </trkpt>
      <trkpt lat="45.57802" lon="3.85609">
        <ele>1369.8</ele>
      </trkpt>
      <trkpt lat="45.57807" lon="3.85606">
        <ele>1369.3</ele>
      </trkpt>
      <trkpt lat="45.57814" lon="3.85601">
        <ele>1368.7</ele>
      </trkpt>
      <trkpt lat="45.57822" lon="3.85594">
        <ele>1367.9</ele>
      </trkpt>
      <trkpt lat="45.57828" lon="3.85589">
        <ele>1367.4</ele>
      </trkpt>
      <trkpt lat="45.57831" lon="3.85584">
        <ele>1367.3</ele>
      </trkpt>
      <trkpt lat="45.57839" lon="3.85576">
        <ele>1367.4</ele>
      </trkpt>
      <trkpt lat="45.57847" lon="3.85575">
        <ele>1367.6</ele>
      </trkpt>
      <trkpt lat="45.57854" lon="3.85572">
        <ele>1367.9</ele>
      </trkpt>
      <trkpt lat="45.57858" lon="3.85569">
        <ele>1368.2</ele>
      </trkpt>
      <trkpt lat="45.57859" lon="3.85581">
        <ele>1367.7</ele>
      </trkpt>
      <trkpt lat="45.57864" lon="3.85588">
        <ele>1367.4</ele>
      </trkpt>
      <trkpt lat="45.57869" lon="3.85593">
        <ele>1367.1</ele>
      </trkpt>
      <trkpt lat="45.57874" lon="3.85596">
        <ele>1367</ele>
      </trkpt>
      <trkpt lat="45.57891" lon="3.85579">
        <ele>1368.6</ele>
      </trkpt>
      <trkpt lat="45.57908" lon="3.85563">
        <ele>1369.7</ele>
      </trkpt>
      <trkpt lat="45.57926" lon="3.85547">
        <ele>1371.4</ele>
      </trkpt>
      <trkpt lat="45.57943" lon="3.85531">
        <ele>1373.6</ele>
      </trkpt>
      <trkpt lat="45.5796" lon="3.85514">
        <ele>1375.9</ele>
      </trkpt>
      <trkpt lat="45.57977" lon="3.85498">
        <ele>1378.2</ele>
      </trkpt>
      <trkpt lat="45.57995" lon="3.85482">
        <ele>1380.4</ele>
      </trkpt>
      <trkpt lat="45.57995" lon="3.85482">
        <ele>1380.4</ele>
      </trkpt>
      <trkpt lat="45.58012" lon="3.85466">
        <ele>1382.2</ele>
      </trkpt>
      <trkpt lat="45.58029" lon="3.85449">
        <ele>1383.6</ele>
      </trkpt>
      <trkpt lat="45.58046" lon="3.85433">
        <ele>1385</ele>
      </trkpt>
      <trkpt lat="45.58063" lon="3.85417">
        <ele>1386.3</ele>
      </trkpt>
      <trkpt lat="45.58081" lon="3.85401">
        <ele>1387.1</ele>
      </trkpt>
      <trkpt lat="45.58091" lon="3.85394">
        <ele>1387.3</ele>
      </trkpt>
      <trkpt lat="45.58102" lon="3.85388">
        <ele>1387.3</ele>
      </trkpt>
      <trkpt lat="45.58112" lon="3.85381">
        <ele>1387.4</ele>
      </trkpt>
      <trkpt lat="45.58121" lon="3.85374">
        <ele>1387.5</ele>
      </trkpt>
      <trkpt lat="45.58136" lon="3.85361">
        <ele>1387.7</ele>
      </trkpt>
      <trkpt lat="45.58146" lon="3.85352">
        <ele>1387.8</ele>
      </trkpt>
      <trkpt lat="45.58153" lon="3.85345">
        <ele>1387.9</ele>
      </trkpt>
      <trkpt lat="45.58159" lon="3.85337">
        <ele>1388</ele>
      </trkpt>
      <trkpt lat="45.58164" lon="3.85329">
        <ele>1388.2</ele>
      </trkpt>
      <trkpt lat="45.58171" lon="3.85319">
        <ele>1388.6</ele>
      </trkpt>
      <trkpt lat="45.58175" lon="3.85311">
        <ele>1388.8</ele>
      </trkpt>
      <trkpt lat="45.5818" lon="3.85302">
        <ele>1389.1</ele>
      </trkpt>
      <trkpt lat="45.58185" lon="3.85296">
        <ele>1389.3</ele>
      </trkpt>
      <trkpt lat="45.58189" lon="3.8529">
        <ele>1389.4</ele>
      </trkpt>
      <trkpt lat="45.58197" lon="3.85282">
        <ele>1389.5</ele>
      </trkpt>
      <trkpt lat="45.58203" lon="3.85275">
        <ele>1389.6</ele>
      </trkpt>
      <trkpt lat="45.58207" lon="3.85271">
        <ele>1389.7</ele>
      </trkpt>
      <trkpt lat="45.58211" lon="3.8526">
        <ele>1389.8</ele>
      </trkpt>
      <trkpt lat="45.58216" lon="3.8525">
        <ele>1389.8</ele>
      </trkpt>
      <trkpt lat="45.5822" lon="3.85241">
        <ele>1390.2</ele>
      </trkpt>
      <trkpt lat="45.58225" lon="3.85231">
        <ele>1390.6</ele>
      </trkpt>
      <trkpt lat="45.58231" lon="3.8522">
        <ele>1391.1</ele>
      </trkpt>
      <trkpt lat="45.58237" lon="3.85209">
        <ele>1391.6</ele>
      </trkpt>
      <trkpt lat="45.58243" lon="3.85196">
        <ele>1392.3</ele>
      </trkpt>
      <trkpt lat="45.58245" lon="3.85189">
        <ele>1392.7</ele>
      </trkpt>
      <trkpt lat="45.58246" lon="3.8518">
        <ele>1393.2</ele>
      </trkpt>
      <trkpt lat="45.58246" lon="3.85168">
        <ele>1394</ele>
      </trkpt>
      <trkpt lat="45.58245" lon="3.85156">
        <ele>1394.5</ele>
      </trkpt>
      <trkpt lat="45.58244" lon="3.85143">
        <ele>1395.2</ele>
      </trkpt>
      <trkpt lat="45.58243" lon="3.85133">
        <ele>1395.7</ele>
      </trkpt>
      <trkpt lat="45.58241" lon="3.85123">
        <ele>1396.2</ele>
      </trkpt>
      <trkpt lat="45.5824" lon="3.85111">
        <ele>1396.9</ele>
      </trkpt>
      <trkpt lat="45.58238" lon="3.85092">
        <ele>1397.9</ele>
      </trkpt>
      <trkpt lat="45.58236" lon="3.85068">
        <ele>1398.6</ele>
      </trkpt>
      <trkpt lat="45.58234" lon="3.85043">
        <ele>1399.2</ele>
      </trkpt>
      <trkpt lat="45.58233" lon="3.85025">
        <ele>1399.7</ele>
      </trkpt>
      <trkpt lat="45.58232" lon="3.85007">
        <ele>1400.1</ele>
      </trkpt>
      <trkpt lat="45.58229" lon="3.84976">
        <ele>1400.8</ele>
      </trkpt>
      <trkpt lat="45.58229" lon="3.84976">
        <ele>1400.8</ele>
      </trkpt>
      <trkpt lat="45.58229" lon="3.84964">
        <ele>1401</ele>
      </trkpt>
      <trkpt lat="45.58229" lon="3.84956">
        <ele>1401.2</ele>
      </trkpt>
      <trkpt lat="45.5823" lon="3.84949">
        <ele>1401.2</ele>
      </trkpt>
      <trkpt lat="45.58232" lon="3.84942">
        <ele>1401.1</ele>
      </trkpt>
      <trkpt lat="45.58237" lon="3.84932">
        <ele>1400.9</ele>
      </trkpt>
      <trkpt lat="45.58247" lon="3.84919">
        <ele>1400.2</ele>
      </trkpt>
      <trkpt lat="45.58258" lon="3.84905">
        <ele>1399.5</ele>
      </trkpt>
      <trkpt lat="45.58274" lon="3.84886">
        <ele>1398.3</ele>
      </trkpt>
      <trkpt lat="45.58282" lon="3.84875">
        <ele>1397.7</ele>
      </trkpt>
      <trkpt lat="45.58291" lon="3.84865">
        <ele>1397.1</ele>
      </trkpt>
      <trkpt lat="45.58295" lon="3.84859">
        <ele>1396.9</ele>
      </trkpt>
      <trkpt lat="45.58299" lon="3.8485">
        <ele>1396.8</ele>
      </trkpt>
      <trkpt lat="45.58304" lon="3.84843">
        <ele>1396.5</ele>
      </trkpt>
      <trkpt lat="45.58308" lon="3.84838">
        <ele>1396.3</ele>
      </trkpt>
      <trkpt lat="45.58313" lon="3.84834">
        <ele>1395.9</ele>
      </trkpt>
      <trkpt lat="45.5832" lon="3.8483">
        <ele>1395.4</ele>
      </trkpt>
      <trkpt lat="45.5833" lon="3.84823">
        <ele>1394.8</ele>
      </trkpt>
      <trkpt lat="45.5834" lon="3.84816">
        <ele>1394.4</ele>
      </trkpt>
      <trkpt lat="45.58347" lon="3.8481">
        <ele>1394.1</ele>
      </trkpt>
      <trkpt lat="45.58353" lon="3.84804">
        <ele>1393.8</ele>
      </trkpt>
      <trkpt lat="45.5836" lon="3.84797">
        <ele>1393.6</ele>
      </trkpt>
      <trkpt lat="45.58364" lon="3.84791">
        <ele>1393.5</ele>
      </trkpt>
      <trkpt lat="45.58369" lon="3.84779">
        <ele>1393.5</ele>
      </trkpt>
      <trkpt lat="45.58374" lon="3.84778">
        <ele>1393.1</ele>
      </trkpt>
      <trkpt lat="45.58385" lon="3.84774">
        <ele>1392.2</ele>
      </trkpt>
      <trkpt lat="45.58399" lon="3.84768">
        <ele>1391.2</ele>
      </trkpt>
      <trkpt lat="45.58411" lon="3.84763">
        <ele>1390.2</ele>
      </trkpt>
      <trkpt lat="45.58432" lon="3.84757">
        <ele>1388.9</ele>
      </trkpt>
      <trkpt lat="45.58444" lon="3.84749">
        <ele>1388.3</ele>
      </trkpt>
      <trkpt lat="45.58456" lon="3.84741">
        <ele>1387.7</ele>
      </trkpt>
      <trkpt lat="45.58467" lon="3.84734">
        <ele>1387.1</ele>
      </trkpt>
      <trkpt lat="45.58483" lon="3.84723">
        <ele>1386.3</ele>
      </trkpt>
      <trkpt lat="45.585" lon="3.84712">
        <ele>1385.5</ele>
      </trkpt>
      <trkpt lat="45.58516" lon="3.84698">
        <ele>1385.1</ele>
      </trkpt>
      <trkpt lat="45.58532" lon="3.84683">
        <ele>1384.7</ele>
      </trkpt>
      <trkpt lat="45.58548" lon="3.84669">
        <ele>1384.3</ele>
      </trkpt>
      <trkpt lat="45.58564" lon="3.84655">
        <ele>1383.7</ele>
      </trkpt>
      <trkpt lat="45.58581" lon="3.84638">
        <ele>1383.1</ele>
      </trkpt>
      <trkpt lat="45.58599" lon="3.84621">
        <ele>1383.2</ele>
      </trkpt>
      <trkpt lat="45.58616" lon="3.84603">
        <ele>1383.6</ele>
      </trkpt>
      <trkpt lat="45.58616" lon="3.84603">
        <ele>1383.6</ele>
      </trkpt>
      <trkpt lat="45.58634" lon="3.84586">
        <ele>1384.2</ele>
      </trkpt>
      <trkpt lat="45.58643" lon="3.84575">
        <ele>1384.4</ele>
      </trkpt>
      <trkpt lat="45.58653" lon="3.84564">
        <ele>1384.6</ele>
      </trkpt>
      <trkpt lat="45.58663" lon="3.84551">
        <ele>1384.9</ele>
      </trkpt>
      <trkpt lat="45.58672" lon="3.84538">
        <ele>1384.8</ele>
      </trkpt>
      <trkpt lat="45.58684" lon="3.84522">
        <ele>1384.3</ele>
      </trkpt>
      <trkpt lat="45.5869" lon="3.84516">
        <ele>1384.1</ele>
      </trkpt>
      <trkpt lat="45.58697" lon="3.84508">
        <ele>1383.9</ele>
      </trkpt>
      <trkpt lat="45.58714" lon="3.84489">
        <ele>1383.7</ele>
      </trkpt>
      <trkpt lat="45.58734" lon="3.84478">
        <ele>1383.7</ele>
      </trkpt>
      <trkpt lat="45.58753" lon="3.84466">
        <ele>1384</ele>
      </trkpt>
      <trkpt lat="45.58753" lon="3.84466">
        <ele>1384</ele>
      </trkpt>
      <trkpt lat="45.58767" lon="3.84459">
        <ele>1384.1</ele>
      </trkpt>
      <trkpt lat="45.58781" lon="3.84452">
        <ele>1384.3</ele>
      </trkpt>
      <trkpt lat="45.58792" lon="3.84446">
        <ele>1384.6</ele>
      </trkpt>
      <trkpt lat="45.58803" lon="3.84439">
        <ele>1384.8</ele>
      </trkpt>
      <trkpt lat="45.5882" lon="3.84428">
        <ele>1385.4</ele>
      </trkpt>
      <trkpt lat="45.58837" lon="3.84417">
        <ele>1385.8</ele>
      </trkpt>
      <trkpt lat="45.58854" lon="3.84405">
        <ele>1385.7</ele>
      </trkpt>
      <trkpt lat="45.58872" lon="3.84395">
        <ele>1385.5</ele>
      </trkpt>
      <trkpt lat="45.58889" lon="3.84384">
        <ele>1385.3</ele>
      </trkpt>
      <trkpt lat="45.58907" lon="3.84374">
        <ele>1385.1</ele>
      </trkpt>
      <trkpt lat="45.58927" lon="3.84365">
        <ele>1385.2</ele>
      </trkpt>
      <trkpt lat="45.58947" lon="3.84357">
        <ele>1385.8</ele>
      </trkpt>
      <trkpt lat="45.58966" lon="3.84349">
        <ele>1386.3</ele>
      </trkpt>
      <trkpt lat="45.58985" lon="3.84343">
        <ele>1386.6</ele>
      </trkpt>
      <trkpt lat="45.59003" lon="3.84337">
        <ele>1386.7</ele>
      </trkpt>
      <trkpt lat="45.59021" lon="3.84331">
        <ele>1386</ele>
      </trkpt>
      <trkpt lat="45.59037" lon="3.84327">
        <ele>1385.4</ele>
      </trkpt>
      <trkpt lat="45.59037" lon="3.84327">
        <ele>1385.4</ele>
      </trkpt>
      <trkpt lat="45.59053" lon="3.84324">
        <ele>1384.8</ele>
      </trkpt>
      <trkpt lat="45.59059" lon="3.84321">
        <ele>1384.6</ele>
      </trkpt>
      <trkpt lat="45.59072" lon="3.84318">
        <ele>1384.1</ele>
      </trkpt>
      <trkpt lat="45.59084" lon="3.84317">
        <ele>1383.5</ele>
      </trkpt>
      <trkpt lat="45.59091" lon="3.84317">
        <ele>1382.9</ele>
      </trkpt>
      <trkpt lat="45.59102" lon="3.84319">
        <ele>1381.8</ele>
      </trkpt>
      <trkpt lat="45.5911" lon="3.84322">
        <ele>1381</ele>
      </trkpt>
      <trkpt lat="45.59116" lon="3.84328">
        <ele>1380.4</ele>
      </trkpt>
      <trkpt lat="45.5912" lon="3.84337">
        <ele>1379.7</ele>
      </trkpt>
      <trkpt lat="45.59127" lon="3.84351">
        <ele>1378.5</ele>
      </trkpt>
      <trkpt lat="45.59135" lon="3.84361">
        <ele>1377.4</ele>
      </trkpt>
      <trkpt lat="45.59142" lon="3.84385">
        <ele>1375.6</ele>
      </trkpt>
      <trkpt lat="45.59147" lon="3.84407">
        <ele>1374.1</ele>
      </trkpt>
      <trkpt lat="45.59152" lon="3.84429">
        <ele>1373</ele>
      </trkpt>
      <trkpt lat="45.59156" lon="3.84447">
        <ele>1372.2</ele>
      </trkpt>
      <trkpt lat="45.59161" lon="3.84464">
        <ele>1371.5</ele>
      </trkpt>
      <trkpt lat="45.59164" lon="3.84481">
        <ele>1370.7</ele>
      </trkpt>
      <trkpt lat="45.59168" lon="3.84497">
        <ele>1370</ele>
      </trkpt>
      <trkpt lat="45.59173" lon="3.84518">
        <ele>1369.2</ele>
      </trkpt>
      <trkpt lat="45.59176" lon="3.84525">
        <ele>1368.9</ele>
      </trkpt>
      <trkpt lat="45.59179" lon="3.84532">
        <ele>1368.6</ele>
      </trkpt>
      <trkpt lat="45.59183" lon="3.84539">
        <ele>1368.3</ele>
      </trkpt>
      <trkpt lat="45.59193" lon="3.8455">
        <ele>1367.7</ele>
      </trkpt>
      <trkpt lat="45.59202" lon="3.84557">
        <ele>1367.2</ele>
      </trkpt>
      <trkpt lat="45.59217" lon="3.84569">
        <ele>1366.7</ele>
      </trkpt>
      <trkpt lat="45.59226" lon="3.84571">
        <ele>1366.5</ele>
      </trkpt>
      <trkpt lat="45.59237" lon="3.8457">
        <ele>1366.1</ele>
      </trkpt>
      <trkpt lat="45.59245" lon="3.8457">
        <ele>1365.8</ele>
      </trkpt>
      <trkpt lat="45.5925" lon="3.84571">
        <ele>1365.7</ele>
      </trkpt>
      <trkpt lat="45.59255" lon="3.84577">
        <ele>1366.1</ele>
      </trkpt>
      <trkpt lat="45.59259" lon="3.84581">
        <ele>1366.5</ele>
      </trkpt>
      <trkpt lat="45.59263" lon="3.84587">
        <ele>1366.7</ele>
      </trkpt>
      <trkpt lat="45.59274" lon="3.84609">
        <ele>1367.5</ele>
      </trkpt>
      <trkpt lat="45.59278" lon="3.84617">
        <ele>1367.8</ele>
      </trkpt>
      <trkpt lat="45.59286" lon="3.84635">
        <ele>1368.6</ele>
      </trkpt>
      <trkpt lat="45.59295" lon="3.84652">
        <ele>1369.6</ele>
      </trkpt>
      <trkpt lat="45.59303" lon="3.84668">
        <ele>1370.6</ele>
      </trkpt>
      <trkpt lat="45.59311" lon="3.84685">
        <ele>1370.8</ele>
      </trkpt>
      <trkpt lat="45.59322" lon="3.84707">
        <ele>1371.1</ele>
      </trkpt>
      <trkpt lat="45.59333" lon="3.8473">
        <ele>1371.7</ele>
      </trkpt>
      <trkpt lat="45.59342" lon="3.84749">
        <ele>1372.2</ele>
      </trkpt>
      <trkpt lat="45.59342" lon="3.84749">
        <ele>1372.2</ele>
      </trkpt>
      <trkpt lat="45.59351" lon="3.84768">
        <ele>1372.7</ele>
      </trkpt>
      <trkpt lat="45.5936" lon="3.84786">
        <ele>1373.2</ele>
      </trkpt>
      <trkpt lat="45.59369" lon="3.84804">
        <ele>1373.7</ele>
      </trkpt>
      <trkpt lat="45.59378" lon="3.84824">
        <ele>1374.3</ele>
      </trkpt>
      <trkpt lat="45.59385" lon="3.84836">
        <ele>1374.7</ele>
      </trkpt>
      <trkpt lat="45.59397" lon="3.84856">
        <ele>1375.2</ele>
      </trkpt>
      <trkpt lat="45.59404" lon="3.84867">
        <ele>1375.7</ele>
      </trkpt>
      <trkpt lat="45.5941" lon="3.84875">
        <ele>1376.1</ele>
      </trkpt>
      <trkpt lat="45.59414" lon="3.8488">
        <ele>1376.4</ele>
      </trkpt>
      <trkpt lat="45.5942" lon="3.84887">
        <ele>1376.7</ele>
      </trkpt>
      <trkpt lat="45.59427" lon="3.84892">
        <ele>1376.9</ele>
      </trkpt>
      <trkpt lat="45.59444" lon="3.84907">
        <ele>1377.3</ele>
      </trkpt>
      <trkpt lat="45.5945" lon="3.8491">
        <ele>1377.5</ele>
      </trkpt>
      <trkpt lat="45.59459" lon="3.84916">
        <ele>1377.6</ele>
      </trkpt>
      <trkpt lat="45.59468" lon="3.84921">
        <ele>1377.6</ele>
      </trkpt>
      <trkpt lat="45.59475" lon="3.84924">
        <ele>1377.8</ele>
      </trkpt>
      <trkpt lat="45.59481" lon="3.84926">
        <ele>1378</ele>
      </trkpt>
      <trkpt lat="45.5949" lon="3.84927">
        <ele>1378.4</ele>
      </trkpt>
      <trkpt lat="45.5951" lon="3.84928">
        <ele>1379.2</ele>
      </trkpt>
      <trkpt lat="45.59524" lon="3.84929">
        <ele>1379.7</ele>
      </trkpt>
      <trkpt lat="45.59539" lon="3.84929">
        <ele>1380.2</ele>
      </trkpt>
      <trkpt lat="45.59556" lon="3.8493">
        <ele>1380.8</ele>
      </trkpt>
      <trkpt lat="45.59573" lon="3.8493">
        <ele>1381.3</ele>
      </trkpt>
      <trkpt lat="45.59589" lon="3.84931">
        <ele>1381.8</ele>
      </trkpt>
      <trkpt lat="45.59605" lon="3.84932">
        <ele>1382.1</ele>
      </trkpt>
      <trkpt lat="45.5962" lon="3.84932">
        <ele>1382.5</ele>
      </trkpt>
      <trkpt lat="45.59636" lon="3.84933">
        <ele>1382.8</ele>
      </trkpt>
      <trkpt lat="45.59644" lon="3.84933">
        <ele>1383.1</ele>
      </trkpt>
      <trkpt lat="45.59651" lon="3.84932">
        <ele>1383.3</ele>
      </trkpt>
      <trkpt lat="45.59657" lon="3.84932">
        <ele>1383.5</ele>
      </trkpt>
      <trkpt lat="45.59664" lon="3.8493">
        <ele>1383.8</ele>
      </trkpt>
      <trkpt lat="45.59679" lon="3.84925">
        <ele>1384.3</ele>
      </trkpt>
      <trkpt lat="45.59693" lon="3.84919">
        <ele>1384.8</ele>
      </trkpt>
      <trkpt lat="45.59707" lon="3.84913">
        <ele>1385.3</ele>
      </trkpt>
      <trkpt lat="45.59723" lon="3.84905">
        <ele>1385.9</ele>
      </trkpt>
      <trkpt lat="45.59731" lon="3.84901">
        <ele>1386.1</ele>
      </trkpt>
      <trkpt lat="45.59737" lon="3.84897">
        <ele>1386.3</ele>
      </trkpt>
      <trkpt lat="45.59747" lon="3.84891">
        <ele>1386.6</ele>
      </trkpt>
      <trkpt lat="45.59747" lon="3.84891">
        <ele>1386.6</ele>
      </trkpt>
      <trkpt lat="45.59757" lon="3.84883">
        <ele>1386.7</ele>
      </trkpt>
      <trkpt lat="45.59775" lon="3.84866">
        <ele>1387.1</ele>
      </trkpt>
      <trkpt lat="45.59788" lon="3.84854">
        <ele>1387.5</ele>
      </trkpt>
      <trkpt lat="45.59801" lon="3.84841">
        <ele>1388.1</ele>
      </trkpt>
      <trkpt lat="45.59815" lon="3.84828">
        <ele>1388.8</ele>
      </trkpt>
      <trkpt lat="45.59829" lon="3.84814">
        <ele>1389.3</ele>
      </trkpt>
      <trkpt lat="45.59845" lon="3.84796">
        <ele>1389.7</ele>
      </trkpt>
      <trkpt lat="45.59862" lon="3.84778">
        <ele>1390.1</ele>
      </trkpt>
      <trkpt lat="45.59879" lon="3.84758">
        <ele>1390.7</ele>
      </trkpt>
      <trkpt lat="45.59897" lon="3.84739">
        <ele>1391.4</ele>
      </trkpt>
      <trkpt lat="45.59907" lon="3.84727">
        <ele>1391.6</ele>
      </trkpt>
      <trkpt lat="45.59918" lon="3.84715">
        <ele>1391.5</ele>
      </trkpt>
      <trkpt lat="45.59929" lon="3.84703">
        <ele>1390.9</ele>
      </trkpt>
      <trkpt lat="45.59935" lon="3.84696">
        <ele>1390.6</ele>
      </trkpt>
      <trkpt lat="45.5994" lon="3.84688">
        <ele>1390.5</ele>
      </trkpt>
      <trkpt lat="45.59952" lon="3.84672">
        <ele>1390.3</ele>
      </trkpt>
      <trkpt lat="45.59962" lon="3.84655">
        <ele>1390.6</ele>
      </trkpt>
      <trkpt lat="45.59973" lon="3.84639">
        <ele>1390.9</ele>
      </trkpt>
      <trkpt lat="45.59985" lon="3.8462">
        <ele>1391.4</ele>
      </trkpt>
      <trkpt lat="45.5999" lon="3.84612">
        <ele>1391.6</ele>
      </trkpt>
      <trkpt lat="45.59993" lon="3.84605">
        <ele>1391.8</ele>
      </trkpt>
      <trkpt lat="45.59998" lon="3.84593">
        <ele>1392.4</ele>
      </trkpt>
      <trkpt lat="45.60001" lon="3.84586">
        <ele>1392.8</ele>
      </trkpt>
      <trkpt lat="45.60007" lon="3.84579">
        <ele>1392.9</ele>
      </trkpt>
      <trkpt lat="45.60014" lon="3.84575">
        <ele>1392.8</ele>
      </trkpt>
      <trkpt lat="45.60025" lon="3.84568">
        <ele>1392.6</ele>
      </trkpt>
      <trkpt lat="45.60032" lon="3.8456">
        <ele>1392.5</ele>
      </trkpt>
      <trkpt lat="45.60038" lon="3.84552">
        <ele>1392.4</ele>
      </trkpt>
      <trkpt lat="45.60048" lon="3.84531">
        <ele>1392.4</ele>
      </trkpt>
      <trkpt lat="45.60056" lon="3.84522">
        <ele>1392.2</ele>
      </trkpt>
      <trkpt lat="45.60062" lon="3.84523">
        <ele>1391.9</ele>
      </trkpt>
      <trkpt lat="45.60067" lon="3.84528">
        <ele>1391.5</ele>
      </trkpt>
      <trkpt lat="45.60072" lon="3.84536">
        <ele>1391.1</ele>
      </trkpt>
      <trkpt lat="45.60074" lon="3.84544">
        <ele>1390.9</ele>
      </trkpt>
      <trkpt lat="45.60076" lon="3.84554">
        <ele>1390.7</ele>
      </trkpt>
      <trkpt lat="45.60078" lon="3.84563">
        <ele>1390.5</ele>
      </trkpt>
      <trkpt lat="45.60081" lon="3.84583">
        <ele>1390.1</ele>
      </trkpt>
      <trkpt lat="45.60083" lon="3.84597">
        <ele>1389.2</ele>
      </trkpt>
      <trkpt lat="45.60083" lon="3.84597">
        <ele>1389.2</ele>
      </trkpt>
      <trkpt lat="45.60085" lon="3.84605">
        <ele>1388.8</ele>
      </trkpt>
      <trkpt lat="45.6009" lon="3.84618">
        <ele>1388.3</ele>
      </trkpt>
      <trkpt lat="45.60094" lon="3.84628">
        <ele>1388</ele>
      </trkpt>
      <trkpt lat="45.60098" lon="3.84636">
        <ele>1387.8</ele>
      </trkpt>
      <trkpt lat="45.60103" lon="3.84643">
        <ele>1387.7</ele>
      </trkpt>
      <trkpt lat="45.60107" lon="3.8465">
        <ele>1387.7</ele>
      </trkpt>
      <trkpt lat="45.60112" lon="3.84653">
        <ele>1387.8</ele>
      </trkpt>
      <trkpt lat="45.6012" lon="3.84657">
        <ele>1388.2</ele>
      </trkpt>
      <trkpt lat="45.60126" lon="3.84658">
        <ele>1388.6</ele>
      </trkpt>
      <trkpt lat="45.60136" lon="3.84657">
        <ele>1389.3</ele>
      </trkpt>
      <trkpt lat="45.60144" lon="3.84654">
        <ele>1390</ele>
      </trkpt>
      <trkpt lat="45.60155" lon="3.84649">
        <ele>1391</ele>
      </trkpt>
      <trkpt lat="45.60166" lon="3.84645">
        <ele>1392</ele>
      </trkpt>
      <trkpt lat="45.60185" lon="3.84635">
        <ele>1393.5</ele>
      </trkpt>
      <trkpt lat="45.60201" lon="3.84622">
        <ele>1395</ele>
      </trkpt>
      <trkpt lat="45.60212" lon="3.84612">
        <ele>1396.2</ele>
      </trkpt>
      <trkpt lat="45.60226" lon="3.84599">
        <ele>1397.7</ele>
      </trkpt>
      <trkpt lat="45.60236" lon="3.8459">
        <ele>1398.8</ele>
      </trkpt>
      <trkpt lat="45.60251" lon="3.8458">
        <ele>1400</ele>
      </trkpt>
      <trkpt lat="45.60263" lon="3.84571">
        <ele>1399.7</ele>
      </trkpt>
      <trkpt lat="45.60275" lon="3.84563">
        <ele>1399.6</ele>
      </trkpt>
      <trkpt lat="45.60294" lon="3.84548">
        <ele>1399.4</ele>
      </trkpt>
      <trkpt lat="45.60313" lon="3.84534">
        <ele>1399.4</ele>
      </trkpt>
      <trkpt lat="45.60324" lon="3.84524">
        <ele>1399.5</ele>
      </trkpt>
      <trkpt lat="45.60335" lon="3.84515">
        <ele>1399.6</ele>
      </trkpt>
      <trkpt lat="45.60349" lon="3.84502">
        <ele>1399.9</ele>
      </trkpt>
      <trkpt lat="45.60364" lon="3.84489">
        <ele>1400.5</ele>
      </trkpt>
      <trkpt lat="45.60368" lon="3.84485">
        <ele>1400.6</ele>
      </trkpt>
      <trkpt lat="45.60373" lon="3.84479">
        <ele>1400.9</ele>
      </trkpt>
      <trkpt lat="45.60378" lon="3.8447">
        <ele>1401.3</ele>
      </trkpt>
      <trkpt lat="45.60384" lon="3.8445">
        <ele>1402.1</ele>
      </trkpt>
      <trkpt lat="45.60387" lon="3.84443">
        <ele>1402.3</ele>
      </trkpt>
      <trkpt lat="45.60393" lon="3.84438">
        <ele>1402.4</ele>
      </trkpt>
      <trkpt lat="45.60399" lon="3.84436">
        <ele>1402.5</ele>
      </trkpt>
      <trkpt lat="45.60416" lon="3.84434">
        <ele>1402.4</ele>
      </trkpt>
      <trkpt lat="45.60425" lon="3.84432">
        <ele>1402.5</ele>
      </trkpt>
      <trkpt lat="45.60443" lon="3.84428">
        <ele>1403</ele>
      </trkpt>
      <trkpt lat="45.60463" lon="3.84424">
        <ele>1403.6</ele>
      </trkpt>
      <trkpt lat="45.60481" lon="3.84419">
        <ele>1404.3</ele>
      </trkpt>
      <trkpt lat="45.60481" lon="3.84419">
        <ele>1404.3</ele>
      </trkpt>
      <trkpt lat="45.60502" lon="3.84413">
        <ele>1405.1</ele>
      </trkpt>
      <trkpt lat="45.60513" lon="3.8441">
        <ele>1405.4</ele>
      </trkpt>
      <trkpt lat="45.60524" lon="3.84406">
        <ele>1405.6</ele>
      </trkpt>
      <trkpt lat="45.60538" lon="3.84403">
        <ele>1405.9</ele>
      </trkpt>
      <trkpt lat="45.60552" lon="3.84399">
        <ele>1406.3</ele>
      </trkpt>
      <trkpt lat="45.60565" lon="3.84397">
        <ele>1406.6</ele>
      </trkpt>
      <trkpt lat="45.60579" lon="3.84394">
        <ele>1407</ele>
      </trkpt>
      <trkpt lat="45.60595" lon="3.8439">
        <ele>1407</ele>
      </trkpt>
      <trkpt lat="45.60607" lon="3.84388">
        <ele>1406.9</ele>
      </trkpt>
      <trkpt lat="45.60618" lon="3.84385">
        <ele>1406.8</ele>
      </trkpt>
      <trkpt lat="45.60635" lon="3.84381">
        <ele>1406.8</ele>
      </trkpt>
      <trkpt lat="45.60652" lon="3.84377">
        <ele>1407</ele>
      </trkpt>
      <trkpt lat="45.60672" lon="3.8437">
        <ele>1407.9</ele>
      </trkpt>
      <trkpt lat="45.60683" lon="3.84367">
        <ele>1409.1</ele>
      </trkpt>
      <trkpt lat="45.60695" lon="3.84364">
        <ele>1410.2</ele>
      </trkpt>
      <trkpt lat="45.60713" lon="3.84358">
        <ele>1411.9</ele>
      </trkpt>
      <trkpt lat="45.60724" lon="3.84356">
        <ele>1412.8</ele>
      </trkpt>
      <trkpt lat="45.60733" lon="3.84356">
        <ele>1413.3</ele>
      </trkpt>
      <trkpt lat="45.60748" lon="3.84355">
        <ele>1414.3</ele>
      </trkpt>
      <trkpt lat="45.60756" lon="3.84357">
        <ele>1414.7</ele>
      </trkpt>
      <trkpt lat="45.60761" lon="3.84362">
        <ele>1414.7</ele>
      </trkpt>
      <trkpt lat="45.60771" lon="3.84362">
        <ele>1415.3</ele>
      </trkpt>
      <trkpt lat="45.60778" lon="3.84364">
        <ele>1415.6</ele>
      </trkpt>
      <trkpt lat="45.60789" lon="3.84368">
        <ele>1416.2</ele>
      </trkpt>
      <trkpt lat="45.608" lon="3.84372">
        <ele>1416.8</ele>
      </trkpt>
      <trkpt lat="45.60815" lon="3.84378">
        <ele>1417.6</ele>
      </trkpt>
      <trkpt lat="45.6082" lon="3.84378">
        <ele>1417.9</ele>
      </trkpt>
      <trkpt lat="45.60824" lon="3.84377">
        <ele>1418.3</ele>
      </trkpt>
      <trkpt lat="45.60836" lon="3.84373">
        <ele>1419.1</ele>
      </trkpt>
      <trkpt lat="45.60842" lon="3.84372">
        <ele>1419.2</ele>
      </trkpt>
      <trkpt lat="45.60848" lon="3.84371">
        <ele>1419.3</ele>
      </trkpt>
      <trkpt lat="45.60856" lon="3.84372">
        <ele>1419.3</ele>
      </trkpt>
      <trkpt lat="45.60871" lon="3.84375">
        <ele>1419.5</ele>
      </trkpt>
      <trkpt lat="45.60883" lon="3.84376">
        <ele>1419.6</ele>
      </trkpt>
      <trkpt lat="45.60895" lon="3.84376">
        <ele>1419.7</ele>
      </trkpt>
      <trkpt lat="45.60907" lon="3.84377">
        <ele>1419.9</ele>
      </trkpt>
      <trkpt lat="45.60927" lon="3.84375">
        <ele>1420.1</ele>
      </trkpt>
      <trkpt lat="45.60947" lon="3.84373">
        <ele>1420.3</ele>
      </trkpt>
      <trkpt lat="45.60947" lon="3.84373">
        <ele>1420.3</ele>
      </trkpt>
      <trkpt lat="45.60959" lon="3.84371">
        <ele>1420.5</ele>
      </trkpt>
      <trkpt lat="45.60973" lon="3.84371">
        <ele>1420.6</ele>
      </trkpt>
      <trkpt lat="45.60987" lon="3.84371">
        <ele>1420.8</ele>
      </trkpt>
      <trkpt lat="45.60994" lon="3.8437">
        <ele>1420.8</ele>
      </trkpt>
      <trkpt lat="45.61001" lon="3.84368">
        <ele>1420.8</ele>
      </trkpt>
      <trkpt lat="45.61016" lon="3.84362">
        <ele>1420.1</ele>
      </trkpt>
      <trkpt lat="45.61027" lon="3.84359">
        <ele>1419.5</ele>
      </trkpt>
      <trkpt lat="45.61041" lon="3.84356">
        <ele>1418.9</ele>
      </trkpt>
      <trkpt lat="45.61062" lon="3.84353">
        <ele>1418.1</ele>
      </trkpt>
      <trkpt lat="45.61083" lon="3.8435">
        <ele>1417.2</ele>
      </trkpt>
      <trkpt lat="45.611" lon="3.84346">
        <ele>1416.9</ele>
      </trkpt>
      <trkpt lat="45.61117" lon="3.84342">
        <ele>1416.7</ele>
      </trkpt>
      <trkpt lat="45.61137" lon="3.84338">
        <ele>1416.4</ele>
      </trkpt>
      <trkpt lat="45.61152" lon="3.84336">
        <ele>1416.2</ele>
      </trkpt>
      <trkpt lat="45.61166" lon="3.84334">
        <ele>1416</ele>
      </trkpt>
      <trkpt lat="45.61185" lon="3.84329">
        <ele>1415.5</ele>
      </trkpt>
      <trkpt lat="45.61197" lon="3.84327">
        <ele>1415.2</ele>
      </trkpt>
      <trkpt lat="45.61207" lon="3.84328">
        <ele>1415</ele>
      </trkpt>
      <trkpt lat="45.61218" lon="3.8433">
        <ele>1414.8</ele>
      </trkpt>
      <trkpt lat="45.61224" lon="3.84331">
        <ele>1414.6</ele>
      </trkpt>
      <trkpt lat="45.6123" lon="3.84329">
        <ele>1414.5</ele>
      </trkpt>
      <trkpt lat="45.61235" lon="3.84328">
        <ele>1414.5</ele>
      </trkpt>
      <trkpt lat="45.61254" lon="3.84319">
        <ele>1414.3</ele>
      </trkpt>
      <trkpt lat="45.61264" lon="3.84315">
        <ele>1414.3</ele>
      </trkpt>
      <trkpt lat="45.61273" lon="3.84311">
        <ele>1414.3</ele>
      </trkpt>
      <trkpt lat="45.61283" lon="3.84307">
        <ele>1414.2</ele>
      </trkpt>
      <trkpt lat="45.61297" lon="3.84302">
        <ele>1414.2</ele>
      </trkpt>
      <trkpt lat="45.6131" lon="3.84299">
        <ele>1414.1</ele>
      </trkpt>
      <trkpt lat="45.6132" lon="3.84298">
        <ele>1414</ele>
      </trkpt>
      <trkpt lat="45.61337" lon="3.84299">
        <ele>1413.9</ele>
      </trkpt>
      <trkpt lat="45.61355" lon="3.84299">
        <ele>1414.2</ele>
      </trkpt>
      <trkpt lat="45.61364" lon="3.84299">
        <ele>1414.3</ele>
      </trkpt>
      <trkpt lat="45.61372" lon="3.84298">
        <ele>1414.5</ele>
      </trkpt>
      <trkpt lat="45.61384" lon="3.84295">
        <ele>1414.8</ele>
      </trkpt>
      <trkpt lat="45.61392" lon="3.84292">
        <ele>1415.1</ele>
      </trkpt>
      <trkpt lat="45.61397" lon="3.8429">
        <ele>1415.2</ele>
      </trkpt>
      <trkpt lat="45.61397" lon="3.8429">
        <ele>1415.2</ele>
      </trkpt>
      <trkpt lat="45.61402" lon="3.84274">
        <ele>1415.8</ele>
      </trkpt>
      <trkpt lat="45.61411" lon="3.8425">
        <ele>1416.9</ele>
      </trkpt>
      <trkpt lat="45.61417" lon="3.84237">
        <ele>1416.9</ele>
      </trkpt>
      <trkpt lat="45.61426" lon="3.84232">
        <ele>1417</ele>
      </trkpt>
      <trkpt lat="45.61441" lon="3.84232">
        <ele>1417.4</ele>
      </trkpt>
      <trkpt lat="45.61457" lon="3.84233">
        <ele>1417.8</ele>
      </trkpt>
      <trkpt lat="45.61475" lon="3.84235">
        <ele>1418.2</ele>
      </trkpt>
      <trkpt lat="45.61492" lon="3.84237">
        <ele>1418.7</ele>
      </trkpt>
      <trkpt lat="45.61509" lon="3.84235">
        <ele>1419.3</ele>
      </trkpt>
      <trkpt lat="45.6152" lon="3.84234">
        <ele>1419.8</ele>
      </trkpt>
      <trkpt lat="45.6153" lon="3.84235">
        <ele>1420.4</ele>
      </trkpt>
      <trkpt lat="45.61541" lon="3.84237">
        <ele>1421</ele>
      </trkpt>
      <trkpt lat="45.61555" lon="3.84236">
        <ele>1421.8</ele>
      </trkpt>
      <trkpt lat="45.61569" lon="3.84235">
        <ele>1422.5</ele>
      </trkpt>
      <trkpt lat="45.61589" lon="3.84237">
        <ele>1423.7</ele>
      </trkpt>
      <trkpt lat="45.61609" lon="3.84239">
        <ele>1424.7</ele>
      </trkpt>
      <trkpt lat="45.61629" lon="3.84241">
        <ele>1425.8</ele>
      </trkpt>
      <trkpt lat="45.61649" lon="3.84243">
        <ele>1426.8</ele>
      </trkpt>
      <trkpt lat="45.61669" lon="3.84248">
        <ele>1427.9</ele>
      </trkpt>
      <trkpt lat="45.61687" lon="3.84253">
        <ele>1428.3</ele>
      </trkpt>
      <trkpt lat="45.61693" lon="3.84255">
        <ele>1428.5</ele>
      </trkpt>
      <trkpt lat="45.61706" lon="3.84263">
        <ele>1428.9</ele>
      </trkpt>
      <trkpt lat="45.61724" lon="3.84279">
        <ele>1429.8</ele>
      </trkpt>
      <trkpt lat="45.61742" lon="3.84294">
        <ele>1430.9</ele>
      </trkpt>
      <trkpt lat="45.61755" lon="3.84305">
        <ele>1432.2</ele>
      </trkpt>
      <trkpt lat="45.61769" lon="3.84316">
        <ele>1434</ele>
      </trkpt>
      <trkpt lat="45.61783" lon="3.84327">
        <ele>1435.8</ele>
      </trkpt>
      <trkpt lat="45.6179" lon="3.8433">
        <ele>1436.7</ele>
      </trkpt>
      <trkpt lat="45.61804" lon="3.84333">
        <ele>1438.1</ele>
      </trkpt>
      <trkpt lat="45.61826" lon="3.84328">
        <ele>1440</ele>
      </trkpt>
      <trkpt lat="45.61847" lon="3.84324">
        <ele>1442.4</ele>
      </trkpt>
      <trkpt lat="45.61847" lon="3.84324">
        <ele>1442.4</ele>
      </trkpt>
      <trkpt lat="45.61866" lon="3.84315">
        <ele>1444.5</ele>
      </trkpt>
      <trkpt lat="45.61884" lon="3.84306">
        <ele>1446.6</ele>
      </trkpt>
      <trkpt lat="45.61895" lon="3.84303">
        <ele>1448</ele>
      </trkpt>
      <trkpt lat="45.61906" lon="3.84299">
        <ele>1449.3</ele>
      </trkpt>
      <trkpt lat="45.61919" lon="3.84295">
        <ele>1450.9</ele>
      </trkpt>
      <trkpt lat="45.61929" lon="3.84294">
        <ele>1451.9</ele>
      </trkpt>
      <trkpt lat="45.61945" lon="3.84297">
        <ele>1453.8</ele>
      </trkpt>
      <trkpt lat="45.61962" lon="3.843">
        <ele>1455.7</ele>
      </trkpt>
      <trkpt lat="45.6197" lon="3.84299">
        <ele>1456.5</ele>
      </trkpt>
      <trkpt lat="45.61978" lon="3.84296">
        <ele>1457.3</ele>
      </trkpt>
      <trkpt lat="45.61982" lon="3.84292">
        <ele>1457.5</ele>
      </trkpt>
      <trkpt lat="45.6199" lon="3.8428">
        <ele>1458</ele>
      </trkpt>
      <trkpt lat="45.62001" lon="3.84272">
        <ele>1458.9</ele>
      </trkpt>
      <trkpt lat="45.62011" lon="3.84265">
        <ele>1459.9</ele>
      </trkpt>
      <trkpt lat="45.62024" lon="3.84261">
        <ele>1461.4</ele>
      </trkpt>
      <trkpt lat="45.62036" lon="3.84257">
        <ele>1462.8</ele>
      </trkpt>
      <trkpt lat="45.62048" lon="3.84251">
        <ele>1464.3</ele>
      </trkpt>
      <trkpt lat="45.6206" lon="3.84245">
        <ele>1465.9</ele>
      </trkpt>
      <trkpt lat="45.62073" lon="3.84236">
        <ele>1467.8</ele>
      </trkpt>
      <trkpt lat="45.62087" lon="3.84221">
        <ele>1469.7</ele>
      </trkpt>
      <trkpt lat="45.62097" lon="3.84209">
        <ele>1470.7</ele>
      </trkpt>
      <trkpt lat="45.62109" lon="3.8419">
        <ele>1472.1</ele>
      </trkpt>
      <trkpt lat="45.62121" lon="3.8417">
        <ele>1473.5</ele>
      </trkpt>
      <trkpt lat="45.62133" lon="3.84157">
        <ele>1475</ele>
      </trkpt>
      <trkpt lat="45.6215" lon="3.84149">
        <ele>1476.7</ele>
      </trkpt>
      <trkpt lat="45.6217" lon="3.84146">
        <ele>1478.3</ele>
      </trkpt>
      <trkpt lat="45.62188" lon="3.84138">
        <ele>1478.7</ele>
      </trkpt>
      <trkpt lat="45.62202" lon="3.84124">
        <ele>1478.9</ele>
      </trkpt>
      <trkpt lat="45.62219" lon="3.84109">
        <ele>1479.1</ele>
      </trkpt>
      <trkpt lat="45.62235" lon="3.84099">
        <ele>1479.1</ele>
      </trkpt>
      <trkpt lat="45.62252" lon="3.8409">
        <ele>1479.1</ele>
      </trkpt>
      <trkpt lat="45.62263" lon="3.84082">
        <ele>1478.8</ele>
      </trkpt>
      <trkpt lat="45.62263" lon="3.84082">
        <ele>1478.8</ele>
      </trkpt>
      <trkpt lat="45.62274" lon="3.84074">
        <ele>1478.7</ele>
      </trkpt>
      <trkpt lat="45.62285" lon="3.84064">
        <ele>1478.5</ele>
      </trkpt>
      <trkpt lat="45.62295" lon="3.84054">
        <ele>1478.5</ele>
      </trkpt>
      <trkpt lat="45.62307" lon="3.84039">
        <ele>1478.5</ele>
      </trkpt>
      <trkpt lat="45.6232" lon="3.84023">
        <ele>1478.6</ele>
      </trkpt>
      <trkpt lat="45.6232" lon="3.84023">
        <ele>1478.6</ele>
      </trkpt>
      <trkpt lat="45.62332" lon="3.84007">
        <ele>1478.9</ele>
      </trkpt>
      <trkpt lat="45.62342" lon="3.83992">
        <ele>1478.3</ele>
      </trkpt>
      <trkpt lat="45.62351" lon="3.83976">
        <ele>1477.7</ele>
      </trkpt>
      <trkpt lat="45.62361" lon="3.83959">
        <ele>1477.1</ele>
      </trkpt>
      <trkpt lat="45.62371" lon="3.83943">
        <ele>1476.8</ele>
      </trkpt>
      <trkpt lat="45.6238" lon="3.83926">
        <ele>1476.6</ele>
      </trkpt>
      <trkpt lat="45.62389" lon="3.83909">
        <ele>1476.3</ele>
      </trkpt>
      <trkpt lat="45.62397" lon="3.83894">
        <ele>1475.9</ele>
      </trkpt>
      <trkpt lat="45.62406" lon="3.83879">
        <ele>1475.5</ele>
      </trkpt>
      <trkpt lat="45.62419" lon="3.83862">
        <ele>1474.8</ele>
      </trkpt>
      <trkpt lat="45.62432" lon="3.83845">
        <ele>1473.9</ele>
      </trkpt>
      <trkpt lat="45.62441" lon="3.8383">
        <ele>1473.3</ele>
      </trkpt>
      <trkpt lat="45.62451" lon="3.83815">
        <ele>1472.7</ele>
      </trkpt>
      <trkpt lat="45.62459" lon="3.83802">
        <ele>1472.2</ele>
      </trkpt>
      <trkpt lat="45.62467" lon="3.83789">
        <ele>1471.7</ele>
      </trkpt>
      <trkpt lat="45.6248" lon="3.83774">
        <ele>1471</ele>
      </trkpt>
      <trkpt lat="45.62493" lon="3.83759">
        <ele>1470.3</ele>
      </trkpt>
      <trkpt lat="45.62493" lon="3.83759">
        <ele>1470.3</ele>
      </trkpt>
      <trkpt lat="45.62507" lon="3.83747">
        <ele>1469.1</ele>
      </trkpt>
      <trkpt lat="45.62521" lon="3.83736">
        <ele>1467.3</ele>
      </trkpt>
      <trkpt lat="45.6254" lon="3.83726">
        <ele>1465</ele>
      </trkpt>
      <trkpt lat="45.62559" lon="3.83717">
        <ele>1462.9</ele>
      </trkpt>
      <trkpt lat="45.62574" lon="3.83706">
        <ele>1461.4</ele>
      </trkpt>
      <trkpt lat="45.6259" lon="3.83695">
        <ele>1460.6</ele>
      </trkpt>
      <trkpt lat="45.62603" lon="3.83692">
        <ele>1460.5</ele>
      </trkpt>
      <trkpt lat="45.62616" lon="3.83677">
        <ele>1460.5</ele>
      </trkpt>
      <trkpt lat="45.6263" lon="3.83664">
        <ele>1460.4</ele>
      </trkpt>
      <trkpt lat="45.6263" lon="3.83664">
        <ele>1460.4</ele>
      </trkpt>
      <trkpt lat="45.62641" lon="3.83653">
        <ele>1460.2</ele>
      </trkpt>
      <trkpt lat="45.62649" lon="3.83643">
        <ele>1460</ele>
      </trkpt>
      <trkpt lat="45.6266" lon="3.8363">
        <ele>1460</ele>
      </trkpt>
      <trkpt lat="45.62673" lon="3.8361">
        <ele>1460.1</ele>
      </trkpt>
      <trkpt lat="45.62686" lon="3.83589">
        <ele>1460.5</ele>
      </trkpt>
      <trkpt lat="45.627" lon="3.83567">
        <ele>1460.2</ele>
      </trkpt>
      <trkpt lat="45.6271" lon="3.83551">
        <ele>1460.1</ele>
      </trkpt>
      <trkpt lat="45.62725" lon="3.83527">
        <ele>1460.1</ele>
      </trkpt>
      <trkpt lat="45.62735" lon="3.83507">
        <ele>1460.2</ele>
      </trkpt>
      <trkpt lat="45.62745" lon="3.83488">
        <ele>1460.4</ele>
      </trkpt>
      <trkpt lat="45.62754" lon="3.83471">
        <ele>1460.3</ele>
      </trkpt>
      <trkpt lat="45.62763" lon="3.83454">
        <ele>1460</ele>
      </trkpt>
      <trkpt lat="45.62773" lon="3.83435">
        <ele>1459.8</ele>
      </trkpt>
      <trkpt lat="45.62784" lon="3.83415">
        <ele>1459.8</ele>
      </trkpt>
      <trkpt lat="45.62792" lon="3.83398">
        <ele>1459.6</ele>
      </trkpt>
      <trkpt lat="45.628" lon="3.83381">
        <ele>1459.3</ele>
      </trkpt>
      <trkpt lat="45.62809" lon="3.83365">
        <ele>1458.9</ele>
      </trkpt>
      <trkpt lat="45.62818" lon="3.83348">
        <ele>1458.5</ele>
      </trkpt>
      <trkpt lat="45.62828" lon="3.83331">
        <ele>1457.9</ele>
      </trkpt>
      <trkpt lat="45.62838" lon="3.83315">
        <ele>1456.7</ele>
      </trkpt>
      <trkpt lat="45.62851" lon="3.83292">
        <ele>1455</ele>
      </trkpt>
      <trkpt lat="45.62864" lon="3.83269">
        <ele>1453.3</ele>
      </trkpt>
      <trkpt lat="45.62875" lon="3.83248">
        <ele>1451.9</ele>
      </trkpt>
      <trkpt lat="45.62887" lon="3.83226">
        <ele>1450.9</ele>
      </trkpt>
      <trkpt lat="45.62894" lon="3.83213">
        <ele>1450.2</ele>
      </trkpt>
      <trkpt lat="45.62901" lon="3.83201">
        <ele>1449.6</ele>
      </trkpt>
      <trkpt lat="45.62908" lon="3.83188">
        <ele>1449</ele>
      </trkpt>
      <trkpt lat="45.62915" lon="3.83175">
        <ele>1448.3</ele>
      </trkpt>
      <trkpt lat="45.62922" lon="3.83166">
        <ele>1448</ele>
      </trkpt>
      <trkpt lat="45.6293" lon="3.83155">
        <ele>1447.9</ele>
      </trkpt>
      <trkpt lat="45.6293" lon="3.83155">
        <ele>1447.9</ele>
      </trkpt>
      <trkpt lat="45.62936" lon="3.83136">
        <ele>1447.6</ele>
      </trkpt>
      <trkpt lat="45.6294" lon="3.83127">
        <ele>1447.5</ele>
      </trkpt>
      <trkpt lat="45.62948" lon="3.83118">
        <ele>1447.4</ele>
      </trkpt>
      <trkpt lat="45.62956" lon="3.83106">
        <ele>1447.3</ele>
      </trkpt>
      <trkpt lat="45.62966" lon="3.83088">
        <ele>1447.1</ele>
      </trkpt>
      <trkpt lat="45.62975" lon="3.83069">
        <ele>1446.4</ele>
      </trkpt>
      <trkpt lat="45.62986" lon="3.83049">
        <ele>1445.7</ele>
      </trkpt>
      <trkpt lat="45.62997" lon="3.83029">
        <ele>1445</ele>
      </trkpt>
      <trkpt lat="45.63006" lon="3.83014">
        <ele>1444.6</ele>
      </trkpt>
      <trkpt lat="45.63014" lon="3.82999">
        <ele>1444.2</ele>
      </trkpt>
      <trkpt lat="45.63022" lon="3.82984">
        <ele>1444.4</ele>
      </trkpt>
      <trkpt lat="45.6303" lon="3.8297">
        <ele>1444.5</ele>
      </trkpt>
      <trkpt lat="45.63037" lon="3.82956">
        <ele>1444.5</ele>
      </trkpt>
      <trkpt lat="45.63046" lon="3.82941">
        <ele>1444.5</ele>
      </trkpt>
      <trkpt lat="45.63055" lon="3.82925">
        <ele>1444.4</ele>
      </trkpt>
      <trkpt lat="45.63063" lon="3.82913">
        <ele>1444.1</ele>
      </trkpt>
      <trkpt lat="45.63072" lon="3.829">
        <ele>1443.7</ele>
      </trkpt>
      <trkpt lat="45.63084" lon="3.82878">
        <ele>1443.1</ele>
      </trkpt>
      <trkpt lat="45.63091" lon="3.82863">
        <ele>1442.8</ele>
      </trkpt>
      <trkpt lat="45.63098" lon="3.82848">
        <ele>1442.6</ele>
      </trkpt>
      <trkpt lat="45.63103" lon="3.82837">
        <ele>1442.3</ele>
      </trkpt>
      <trkpt lat="45.63107" lon="3.82823">
        <ele>1442</ele>
      </trkpt>
      <trkpt lat="45.6311" lon="3.82809">
        <ele>1441.6</ele>
      </trkpt>
      <trkpt lat="45.63114" lon="3.82795">
        <ele>1441.3</ele>
      </trkpt>
      <trkpt lat="45.63121" lon="3.82777">
        <ele>1441</ele>
      </trkpt>
      <trkpt lat="45.63127" lon="3.82761">
        <ele>1440.8</ele>
      </trkpt>
      <trkpt lat="45.63132" lon="3.82744">
        <ele>1440.8</ele>
      </trkpt>
      <trkpt lat="45.63138" lon="3.82724">
        <ele>1441.1</ele>
      </trkpt>
      <trkpt lat="45.63144" lon="3.82703">
        <ele>1441.5</ele>
      </trkpt>
      <trkpt lat="45.63151" lon="3.8268">
        <ele>1441.9</ele>
      </trkpt>
      <trkpt lat="45.63157" lon="3.82658">
        <ele>1442.4</ele>
      </trkpt>
      <trkpt lat="45.63163" lon="3.82636">
        <ele>1442.8</ele>
      </trkpt>
      <trkpt lat="45.63169" lon="3.82614">
        <ele>1443</ele>
      </trkpt>
      <trkpt lat="45.63173" lon="3.82593">
        <ele>1443.1</ele>
      </trkpt>
      <trkpt lat="45.63173" lon="3.82593">
        <ele>1443.1</ele>
      </trkpt>
      <trkpt lat="45.63175" lon="3.82586">
        <ele>1443.1</ele>
      </trkpt>
      <trkpt lat="45.63174" lon="3.82566">
        <ele>1444.1</ele>
      </trkpt>
      <trkpt lat="45.63171" lon="3.82553">
        <ele>1444.9</ele>
      </trkpt>
      <trkpt lat="45.63168" lon="3.82545">
        <ele>1445.3</ele>
      </trkpt>
      <trkpt lat="45.63166" lon="3.82536">
        <ele>1445.8</ele>
      </trkpt>
      <trkpt lat="45.63162" lon="3.82516">
        <ele>1446.8</ele>
      </trkpt>
      <trkpt lat="45.63159" lon="3.825">
        <ele>1447.6</ele>
      </trkpt>
      <trkpt lat="45.63156" lon="3.82487">
        <ele>1448.7</ele>
      </trkpt>
      <trkpt lat="45.63155" lon="3.82476">
        <ele>1449.7</ele>
      </trkpt>
      <trkpt lat="45.63155" lon="3.82466">
        <ele>1450.8</ele>
      </trkpt>
      <trkpt lat="45.63155" lon="3.82447">
        <ele>1452.7</ele>
      </trkpt>
      <trkpt lat="45.63159" lon="3.82422">
        <ele>1455.2</ele>
      </trkpt>
      <trkpt lat="45.63161" lon="3.82408">
        <ele>1456.9</ele>
      </trkpt>
      <trkpt lat="45.6316" lon="3.82398">
        <ele>1458.1</ele>
      </trkpt>
      <trkpt lat="45.63156" lon="3.82375">
        <ele>1460.9</ele>
      </trkpt>
      <trkpt lat="45.63154" lon="3.82359">
        <ele>1462.8</ele>
      </trkpt>
      <trkpt lat="45.63152" lon="3.82344">
        <ele>1464.7</ele>
      </trkpt>
      <trkpt lat="45.6315" lon="3.82327">
        <ele>1466.5</ele>
      </trkpt>
      <trkpt lat="45.63149" lon="3.82314">
        <ele>1467.3</ele>
      </trkpt>
      <trkpt lat="45.63149" lon="3.82299">
        <ele>1468.4</ele>
      </trkpt>
      <trkpt lat="45.63151" lon="3.82278">
        <ele>1469.8</ele>
      </trkpt>
      <trkpt lat="45.63153" lon="3.82253">
        <ele>1471.6</ele>
      </trkpt>
      <trkpt lat="45.63158" lon="3.82224">
        <ele>1473.3</ele>
      </trkpt>
      <trkpt lat="45.63161" lon="3.82203">
        <ele>1474.6</ele>
      </trkpt>
      <trkpt lat="45.63164" lon="3.82182">
        <ele>1475.9</ele>
      </trkpt>
      <trkpt lat="45.63166" lon="3.82159">
        <ele>1478</ele>
      </trkpt>
      <trkpt lat="45.63168" lon="3.82134">
        <ele>1480.9</ele>
      </trkpt>
      <trkpt lat="45.63171" lon="3.82104">
        <ele>1484.7</ele>
      </trkpt>
      <trkpt lat="45.63173" lon="3.82083">
        <ele>1487.3</ele>
      </trkpt>
      <trkpt lat="45.63175" lon="3.82072">
        <ele>1487.7</ele>
      </trkpt>
      <trkpt lat="45.6318" lon="3.82049">
        <ele>1488.7</ele>
      </trkpt>
      <trkpt lat="45.63185" lon="3.82032">
        <ele>1489.5</ele>
      </trkpt>
      <trkpt lat="45.63189" lon="3.82016">
        <ele>1490.4</ele>
      </trkpt>
      <trkpt lat="45.63195" lon="3.82">
        <ele>1491.3</ele>
      </trkpt>
      <trkpt lat="45.632" lon="3.81984">
        <ele>1491.3</ele>
      </trkpt>
      <trkpt lat="45.63206" lon="3.81968">
        <ele>1491.3</ele>
      </trkpt>
      <trkpt lat="45.63211" lon="3.81951">
        <ele>1491.3</ele>
      </trkpt>
      <trkpt lat="45.63211" lon="3.81951">
        <ele>1491.3</ele>
      </trkpt>
      <trkpt lat="45.63216" lon="3.81934">
        <ele>1491.3</ele>
      </trkpt>
      <trkpt lat="45.63219" lon="3.81914">
        <ele>1491.2</ele>
      </trkpt>
      <trkpt lat="45.63222" lon="3.81894">
        <ele>1491</ele>
      </trkpt>
      <trkpt lat="45.63224" lon="3.81875">
        <ele>1490.7</ele>
      </trkpt>
      <trkpt lat="45.63227" lon="3.81867">
        <ele>1490.9</ele>
      </trkpt>
      <trkpt lat="45.63235" lon="3.81851">
        <ele>1491.5</ele>
      </trkpt>
      <trkpt lat="45.63243" lon="3.81834">
        <ele>1492.1</ele>
      </trkpt>
      <trkpt lat="45.6325" lon="3.81822">
        <ele>1492.7</ele>
      </trkpt>
      <trkpt lat="45.63257" lon="3.81814">
        <ele>1493</ele>
      </trkpt>
      <trkpt lat="45.63275" lon="3.81801">
        <ele>1493.6</ele>
      </trkpt>
      <trkpt lat="45.63286" lon="3.81791">
        <ele>1493.9</ele>
      </trkpt>
      <trkpt lat="45.63296" lon="3.81784">
        <ele>1494.2</ele>
      </trkpt>
      <trkpt lat="45.63312" lon="3.81776">
        <ele>1494.8</ele>
      </trkpt>
      <trkpt lat="45.63324" lon="3.8177">
        <ele>1495.3</ele>
      </trkpt>
      <trkpt lat="45.63337" lon="3.81765">
        <ele>1495.8</ele>
      </trkpt>
      <trkpt lat="45.63352" lon="3.81758">
        <ele>1496.8</ele>
      </trkpt>
      <trkpt lat="45.63367" lon="3.8175">
        <ele>1497.9</ele>
      </trkpt>
      <trkpt lat="45.63383" lon="3.81742">
        <ele>1498.8</ele>
      </trkpt>
      <trkpt lat="45.63402" lon="3.81734">
        <ele>1500.1</ele>
      </trkpt>
      <trkpt lat="45.63421" lon="3.81726">
        <ele>1501</ele>
      </trkpt>
      <trkpt lat="45.63436" lon="3.8172">
        <ele>1501.1</ele>
      </trkpt>
      <trkpt lat="45.6345" lon="3.81713">
        <ele>1501.2</ele>
      </trkpt>
      <trkpt lat="45.63465" lon="3.81707">
        <ele>1501.4</ele>
      </trkpt>
      <trkpt lat="45.6348" lon="3.81699">
        <ele>1501.5</ele>
      </trkpt>
      <trkpt lat="45.63496" lon="3.81692">
        <ele>1501.8</ele>
      </trkpt>
      <trkpt lat="45.63511" lon="3.81684">
        <ele>1501.5</ele>
      </trkpt>
      <trkpt lat="45.63531" lon="3.81675">
        <ele>1501.2</ele>
      </trkpt>
      <trkpt lat="45.63543" lon="3.81664">
        <ele>1500.9</ele>
      </trkpt>
      <trkpt lat="45.63547" lon="3.81655">
        <ele>1500.8</ele>
      </trkpt>
      <trkpt lat="45.63556" lon="3.81632">
        <ele>1500.2</ele>
      </trkpt>
      <trkpt lat="45.63564" lon="3.81609">
        <ele>1499.4</ele>
      </trkpt>
      <trkpt lat="45.63572" lon="3.8159">
        <ele>1498.6</ele>
      </trkpt>
      <trkpt lat="45.63572" lon="3.8159">
        <ele>1498.6</ele>
      </trkpt>
      <trkpt lat="45.63581" lon="3.81572">
        <ele>1498</ele>
      </trkpt>
      <trkpt lat="45.6359" lon="3.81554">
        <ele>1497.4</ele>
      </trkpt>
      <trkpt lat="45.636" lon="3.81536">
        <ele>1496.9</ele>
      </trkpt>
      <trkpt lat="45.63615" lon="3.81512">
        <ele>1496.1</ele>
      </trkpt>
      <trkpt lat="45.6363" lon="3.81489">
        <ele>1495.5</ele>
      </trkpt>
      <trkpt lat="45.63641" lon="3.81472">
        <ele>1495.4</ele>
      </trkpt>
      <trkpt lat="45.63652" lon="3.81456">
        <ele>1495.4</ele>
      </trkpt>
      <trkpt lat="45.63663" lon="3.81439">
        <ele>1495.5</ele>
      </trkpt>
      <trkpt lat="45.63676" lon="3.81422">
        <ele>1494.9</ele>
      </trkpt>
      <trkpt lat="45.63688" lon="3.81404">
        <ele>1493.6</ele>
      </trkpt>
      <trkpt lat="45.63699" lon="3.81388">
        <ele>1492.5</ele>
      </trkpt>
      <trkpt lat="45.63709" lon="3.81371">
        <ele>1491.4</ele>
      </trkpt>
      <trkpt lat="45.63721" lon="3.81355">
        <ele>1490.3</ele>
      </trkpt>
      <trkpt lat="45.63736" lon="3.81341">
        <ele>1489.1</ele>
      </trkpt>
      <trkpt lat="45.63751" lon="3.81331">
        <ele>1487.8</ele>
      </trkpt>
      <trkpt lat="45.63767" lon="3.81321">
        <ele>1485.9</ele>
      </trkpt>
      <trkpt lat="45.63777" lon="3.81315">
        <ele>1484.7</ele>
      </trkpt>
      <trkpt lat="45.63788" lon="3.81308">
        <ele>1483.6</ele>
      </trkpt>
      <trkpt lat="45.63801" lon="3.81297">
        <ele>1482.1</ele>
      </trkpt>
      <trkpt lat="45.63815" lon="3.81286">
        <ele>1480.7</ele>
      </trkpt>
      <trkpt lat="45.63834" lon="3.81277">
        <ele>1479</ele>
      </trkpt>
      <trkpt lat="45.63852" lon="3.81272">
        <ele>1478.7</ele>
      </trkpt>
      <trkpt lat="45.63862" lon="3.81266">
        <ele>1478.5</ele>
      </trkpt>
      <trkpt lat="45.6387" lon="3.81256">
        <ele>1478.5</ele>
      </trkpt>
      <trkpt lat="45.63883" lon="3.81241">
        <ele>1478.7</ele>
      </trkpt>
      <trkpt lat="45.63893" lon="3.81226">
        <ele>1479.1</ele>
      </trkpt>
      <trkpt lat="45.63902" lon="3.8121">
        <ele>1479.7</ele>
      </trkpt>
      <trkpt lat="45.63915" lon="3.81194">
        <ele>1480.7</ele>
      </trkpt>
      <trkpt lat="45.63928" lon="3.81178">
        <ele>1483.2</ele>
      </trkpt>
      <trkpt lat="45.63928" lon="3.81178">
        <ele>1483.2</ele>
      </trkpt>
      <trkpt lat="45.63942" lon="3.81162">
        <ele>1486</ele>
      </trkpt>
      <trkpt lat="45.63958" lon="3.81146">
        <ele>1489.3</ele>
      </trkpt>
      <trkpt lat="45.63974" lon="3.8113">
        <ele>1492</ele>
      </trkpt>
      <trkpt lat="45.63989" lon="3.81113">
        <ele>1494.4</ele>
      </trkpt>
      <trkpt lat="45.63999" lon="3.81106">
        <ele>1495.4</ele>
      </trkpt>
      <trkpt lat="45.64008" lon="3.81103">
        <ele>1496.3</ele>
      </trkpt>
      <trkpt lat="45.64014" lon="3.811">
        <ele>1497</ele>
      </trkpt>
      <trkpt lat="45.64022" lon="3.81089">
        <ele>1497.8</ele>
      </trkpt>
      <trkpt lat="45.64032" lon="3.81073">
        <ele>1498.7</ele>
      </trkpt>
      <trkpt lat="45.64035" lon="3.81065">
        <ele>1499</ele>
      </trkpt>
      <trkpt lat="45.64041" lon="3.81069">
        <ele>1499.3</ele>
      </trkpt>
      <trkpt lat="45.64046" lon="3.81072">
        <ele>1499.7</ele>
      </trkpt>
      <trkpt lat="45.64053" lon="3.8108">
        <ele>1500.4</ele>
      </trkpt>
      <trkpt lat="45.64065" lon="3.81092">
        <ele>1501.7</ele>
      </trkpt>
      <trkpt lat="45.64075" lon="3.81103">
        <ele>1503.1</ele>
      </trkpt>
      <trkpt lat="45.64081" lon="3.81107">
        <ele>1503.9</ele>
      </trkpt>
      <trkpt lat="45.64086" lon="3.81111">
        <ele>1504.6</ele>
      </trkpt>
      <trkpt lat="45.64097" lon="3.81118">
        <ele>1505.8</ele>
      </trkpt>
      <trkpt lat="45.64109" lon="3.81126">
        <ele>1507.3</ele>
      </trkpt>
      <trkpt lat="45.64121" lon="3.81133">
        <ele>1509</ele>
      </trkpt>
      <trkpt lat="45.64132" lon="3.81141">
        <ele>1510.7</ele>
      </trkpt>
      <trkpt lat="45.64143" lon="3.81148">
        <ele>1512.5</ele>
      </trkpt>
      <trkpt lat="45.6416" lon="3.81159">
        <ele>1515.5</ele>
      </trkpt>
      <trkpt lat="45.6417" lon="3.81167">
        <ele>1517.2</ele>
      </trkpt>
      <trkpt lat="45.64181" lon="3.81173">
        <ele>1518.3</ele>
      </trkpt>
      <trkpt lat="45.6419" lon="3.8118">
        <ele>1519.4</ele>
      </trkpt>
      <trkpt lat="45.64195" lon="3.81183">
        <ele>1519.9</ele>
      </trkpt>
      <trkpt lat="45.64203" lon="3.81187">
        <ele>1520.9</ele>
      </trkpt>
      <trkpt lat="45.64217" lon="3.81195">
        <ele>1522.5</ele>
      </trkpt>
      <trkpt lat="45.64228" lon="3.812">
        <ele>1523.8</ele>
      </trkpt>
      <trkpt lat="45.64238" lon="3.81205">
        <ele>1525.2</ele>
      </trkpt>
      <trkpt lat="45.64254" lon="3.81212">
        <ele>1527.3</ele>
      </trkpt>
      <trkpt lat="45.64267" lon="3.81217">
        <ele>1529.1</ele>
      </trkpt>
      <trkpt lat="45.64277" lon="3.81221">
        <ele>1530.4</ele>
      </trkpt>
      <trkpt lat="45.64283" lon="3.81225">
        <ele>1531.2</ele>
      </trkpt>
      <trkpt lat="45.6429" lon="3.81231">
        <ele>1532.5</ele>
      </trkpt>
      <trkpt lat="45.643" lon="3.81239">
        <ele>1534.2</ele>
      </trkpt>
      <trkpt lat="45.6431" lon="3.81247">
        <ele>1535.7</ele>
      </trkpt>
      <trkpt lat="45.6432" lon="3.81255">
        <ele>1537.3</ele>
      </trkpt>
      <trkpt lat="45.6433" lon="3.81263">
        <ele>1538.8</ele>
      </trkpt>
      <trkpt lat="45.6433" lon="3.81263">
        <ele>1538.8</ele>
      </trkpt>
      <trkpt lat="45.64348" lon="3.81277">
        <ele>1541.6</ele>
      </trkpt>
      <trkpt lat="45.64353" lon="3.81282">
        <ele>1542.5</ele>
      </trkpt>
      <trkpt lat="45.64361" lon="3.81284">
        <ele>1543.4</ele>
      </trkpt>
      <trkpt lat="45.64378" lon="3.81287">
        <ele>1545.1</ele>
      </trkpt>
      <trkpt lat="45.64394" lon="3.8129">
        <ele>1546.8</ele>
      </trkpt>
      <trkpt lat="45.64407" lon="3.81292">
        <ele>1548.1</ele>
      </trkpt>
      <trkpt lat="45.64426" lon="3.81295">
        <ele>1549.7</ele>
      </trkpt>
      <trkpt lat="45.64437" lon="3.81297">
        <ele>1550.5</ele>
      </trkpt>
      <trkpt lat="45.64443" lon="3.81299">
        <ele>1550.9</ele>
      </trkpt>
      <trkpt lat="45.64448" lon="3.81301">
        <ele>1551.4</ele>
      </trkpt>
      <trkpt lat="45.64455" lon="3.81305">
        <ele>1552</ele>
      </trkpt>
      <trkpt lat="45.6447" lon="3.81316">
        <ele>1553.5</ele>
      </trkpt>
      <trkpt lat="45.64489" lon="3.8133">
        <ele>1555.2</ele>
      </trkpt>
      <trkpt lat="45.64506" lon="3.81343">
        <ele>1557.1</ele>
      </trkpt>
      <trkpt lat="45.6452" lon="3.81352">
        <ele>1558.5</ele>
      </trkpt>
      <trkpt lat="45.64527" lon="3.81359">
        <ele>1559.4</ele>
      </trkpt>
      <trkpt lat="45.64536" lon="3.81367">
        <ele>1560.5</ele>
      </trkpt>
      <trkpt lat="45.64553" lon="3.81384">
        <ele>1562.8</ele>
      </trkpt>
      <trkpt lat="45.64565" lon="3.81396">
        <ele>1564.4</ele>
      </trkpt>
      <trkpt lat="45.64577" lon="3.81408">
        <ele>1565.9</ele>
      </trkpt>
      <trkpt lat="45.64586" lon="3.81418">
        <ele>1567</ele>
      </trkpt>
      <trkpt lat="45.64596" lon="3.81428">
        <ele>1567.4</ele>
      </trkpt>
      <trkpt lat="45.64602" lon="3.81435">
        <ele>1567.7</ele>
      </trkpt>
      <trkpt lat="45.64612" lon="3.81446">
        <ele>1568.3</ele>
      </trkpt>
      <trkpt lat="45.64625" lon="3.81462">
        <ele>1569.5</ele>
      </trkpt>
      <trkpt lat="45.6463" lon="3.81468">
        <ele>1570</ele>
      </trkpt>
      <trkpt lat="45.64635" lon="3.81474">
        <ele>1570.6</ele>
      </trkpt>
      <trkpt lat="45.64641" lon="3.81479">
        <ele>1571.2</ele>
      </trkpt>
      <trkpt lat="45.64646" lon="3.81483">
        <ele>1571.6</ele>
      </trkpt>
      <trkpt lat="45.64654" lon="3.81488">
        <ele>1572.3</ele>
      </trkpt>
      <trkpt lat="45.64658" lon="3.81491">
        <ele>1572.8</ele>
      </trkpt>
      <trkpt lat="45.64663" lon="3.81495">
        <ele>1573.3</ele>
      </trkpt>
      <trkpt lat="45.64672" lon="3.81504">
        <ele>1574.5</ele>
      </trkpt>
      <trkpt lat="45.64681" lon="3.81513">
        <ele>1575.5</ele>
      </trkpt>
      <trkpt lat="45.64695" lon="3.81525">
        <ele>1576.9</ele>
      </trkpt>
      <trkpt lat="45.64708" lon="3.81538">
        <ele>1578.4</ele>
      </trkpt>
      <trkpt lat="45.64719" lon="3.81549">
        <ele>1579.8</ele>
      </trkpt>
      <trkpt lat="45.64731" lon="3.8156">
        <ele>1581.2</ele>
      </trkpt>
      <trkpt lat="45.64737" lon="3.81566">
        <ele>1582</ele>
      </trkpt>
      <trkpt lat="45.64737" lon="3.81566">
        <ele>1582</ele>
      </trkpt>
      <trkpt lat="45.64742" lon="3.81573">
        <ele>1582.8</ele>
      </trkpt>
      <trkpt lat="45.64748" lon="3.81581">
        <ele>1583.7</ele>
      </trkpt>
      <trkpt lat="45.64752" lon="3.81587">
        <ele>1584.2</ele>
      </trkpt>
      <trkpt lat="45.64757" lon="3.81592">
        <ele>1584.4</ele>
      </trkpt>
      <trkpt lat="45.64763" lon="3.81598">
        <ele>1584.8</ele>
      </trkpt>
      <trkpt lat="45.64773" lon="3.81607">
        <ele>1585.2</ele>
      </trkpt>
      <trkpt lat="45.64787" lon="3.81617">
        <ele>1585.8</ele>
      </trkpt>
      <trkpt lat="45.64799" lon="3.81624">
        <ele>1586.2</ele>
      </trkpt>
      <trkpt lat="45.64812" lon="3.81631">
        <ele>1586.5</ele>
      </trkpt>
      <trkpt lat="45.64822" lon="3.81638">
        <ele>1586.8</ele>
      </trkpt>
      <trkpt lat="45.64833" lon="3.81645">
        <ele>1587</ele>
      </trkpt>
      <trkpt lat="45.64849" lon="3.81659">
        <ele>1587.8</ele>
      </trkpt>
      <trkpt lat="45.6486" lon="3.81669">
        <ele>1588.2</ele>
      </trkpt>
      <trkpt lat="45.64868" lon="3.81676">
        <ele>1588.4</ele>
      </trkpt>
      <trkpt lat="45.64884" lon="3.81684">
        <ele>1588.6</ele>
      </trkpt>
      <trkpt lat="45.64904" lon="3.81692">
        <ele>1588.8</ele>
      </trkpt>
      <trkpt lat="45.64915" lon="3.81695">
        <ele>1588.9</ele>
      </trkpt>
      <trkpt lat="45.64926" lon="3.81698">
        <ele>1587.7</ele>
      </trkpt>
      <trkpt lat="45.64937" lon="3.81699">
        <ele>1586.3</ele>
      </trkpt>
      <trkpt lat="45.64949" lon="3.81701">
        <ele>1584.9</ele>
      </trkpt>
      <trkpt lat="45.64959" lon="3.817">
        <ele>1583.7</ele>
      </trkpt>
      <trkpt lat="45.64964" lon="3.81699">
        <ele>1583.3</ele>
      </trkpt>
      <trkpt lat="45.64972" lon="3.81692">
        <ele>1583.1</ele>
      </trkpt>
      <trkpt lat="45.64984" lon="3.81679">
        <ele>1583.2</ele>
      </trkpt>
      <trkpt lat="45.64992" lon="3.81669">
        <ele>1583.5</ele>
      </trkpt>
      <trkpt lat="45.64999" lon="3.81657">
        <ele>1583.8</ele>
      </trkpt>
      <trkpt lat="45.65009" lon="3.81636">
        <ele>1583.3</ele>
      </trkpt>
      <trkpt lat="45.6502" lon="3.81618">
        <ele>1582.5</ele>
      </trkpt>
      <trkpt lat="45.65028" lon="3.816">
        <ele>1582.5</ele>
      </trkpt>
      <trkpt lat="45.65031" lon="3.8159">
        <ele>1582.9</ele>
      </trkpt>
      <trkpt lat="45.65032" lon="3.81583">
        <ele>1583.3</ele>
      </trkpt>
      <trkpt lat="45.65034" lon="3.81566">
        <ele>1584.2</ele>
      </trkpt>
      <trkpt lat="45.65035" lon="3.81542">
        <ele>1585.8</ele>
      </trkpt>
      <trkpt lat="45.65037" lon="3.81531">
        <ele>1586.3</ele>
      </trkpt>
      <trkpt lat="45.65039" lon="3.81521">
        <ele>1586.8</ele>
      </trkpt>
      <trkpt lat="45.6504" lon="3.81514">
        <ele>1587.3</ele>
      </trkpt>
      <trkpt lat="45.6504" lon="3.81506">
        <ele>1587.9</ele>
      </trkpt>
      <trkpt lat="45.65042" lon="3.81491">
        <ele>1588.2</ele>
      </trkpt>
      <trkpt lat="45.65044" lon="3.81464">
        <ele>1588.5</ele>
      </trkpt>
      <trkpt lat="45.65048" lon="3.81435">
        <ele>1588.7</ele>
      </trkpt>
      <trkpt lat="45.65052" lon="3.81417">
        <ele>1588.7</ele>
      </trkpt>
      <trkpt lat="45.65052" lon="3.81417">
        <ele>1588.7</ele>
      </trkpt>
      <trkpt lat="45.65056" lon="3.814">
        <ele>1589</ele>
      </trkpt>
      <trkpt lat="45.6506" lon="3.81383">
        <ele>1589.4</ele>
      </trkpt>
      <trkpt lat="45.65064" lon="3.81366">
        <ele>1590</ele>
      </trkpt>
      <trkpt lat="45.65071" lon="3.81337">
        <ele>1591.2</ele>
      </trkpt>
      <trkpt lat="45.65078" lon="3.81315">
        <ele>1592.2</ele>
      </trkpt>
      <trkpt lat="45.65084" lon="3.81293">
        <ele>1593.3</ele>
      </trkpt>
      <trkpt lat="45.6509" lon="3.81278">
        <ele>1593.6</ele>
      </trkpt>
      <trkpt lat="45.65095" lon="3.81262">
        <ele>1594.1</ele>
      </trkpt>
      <trkpt lat="45.65101" lon="3.81248">
        <ele>1594.6</ele>
      </trkpt>
      <trkpt lat="45.65107" lon="3.81234">
        <ele>1595</ele>
      </trkpt>
      <trkpt lat="45.65112" lon="3.81217">
        <ele>1595.7</ele>
      </trkpt>
      <trkpt lat="45.65115" lon="3.81203">
        <ele>1596.6</ele>
      </trkpt>
      <trkpt lat="45.65118" lon="3.81191">
        <ele>1597.5</ele>
      </trkpt>
      <trkpt lat="45.65121" lon="3.81174">
        <ele>1598.8</ele>
      </trkpt>
      <trkpt lat="45.65123" lon="3.81158">
        <ele>1599.7</ele>
      </trkpt>
      <trkpt lat="45.65126" lon="3.81142">
        <ele>1600.4</ele>
      </trkpt>
      <trkpt lat="45.65128" lon="3.81134">
        <ele>1600.9</ele>
      </trkpt>
      <trkpt lat="45.65129" lon="3.81125">
        <ele>1601.4</ele>
      </trkpt>
      <trkpt lat="45.65132" lon="3.8111">
        <ele>1602.3</ele>
      </trkpt>
      <trkpt lat="45.65135" lon="3.81093">
        <ele>1603.3</ele>
      </trkpt>
      <trkpt lat="45.65137" lon="3.81076">
        <ele>1604.4</ele>
      </trkpt>
      <trkpt lat="45.6514" lon="3.81051">
        <ele>1606.2</ele>
      </trkpt>
      <trkpt lat="45.65142" lon="3.81038">
        <ele>1607.2</ele>
      </trkpt>
      <trkpt lat="45.65142" lon="3.8103">
        <ele>1607.8</ele>
      </trkpt>
      <trkpt lat="45.65143" lon="3.81015">
        <ele>1608.6</ele>
      </trkpt>
      <trkpt lat="45.65141" lon="3.81003">
        <ele>1609</ele>
      </trkpt>
      <trkpt lat="45.6514" lon="3.80993">
        <ele>1608.9</ele>
      </trkpt>
      <trkpt lat="45.65151" lon="3.80971">
        <ele>1611.2</ele>
      </trkpt>
      <trkpt lat="45.65162" lon="3.80948">
        <ele>1613.7</ele>
      </trkpt>
      <trkpt lat="45.65163" lon="3.80929">
        <ele>1614.1</ele>
      </trkpt>
      <trkpt lat="45.65165" lon="3.80909">
        <ele>1614.2</ele>
      </trkpt>
      <trkpt lat="45.65164" lon="3.80886">
        <ele>1613.2</ele>
      </trkpt>
      <trkpt lat="45.65167" lon="3.80868">
        <ele>1613.3</ele>
      </trkpt>
      <trkpt lat="45.6517" lon="3.8085">
        <ele>1613.3</ele>
      </trkpt>
      <trkpt lat="45.65175" lon="3.80835">
        <ele>1613.9</ele>
      </trkpt>
      <trkpt lat="45.65181" lon="3.80821">
        <ele>1613.9</ele>
      </trkpt>
      <trkpt lat="45.6519" lon="3.80799">
        <ele>1613.9</ele>
      </trkpt>
      <trkpt lat="45.652" lon="3.80777">
        <ele>1613.8</ele>
      </trkpt>
      <trkpt lat="45.652" lon="3.80777">
        <ele>1613.8</ele>
      </trkpt>
      <trkpt lat="45.65201" lon="3.80762">
        <ele>1612.7</ele>
      </trkpt>
      <trkpt lat="45.65203" lon="3.8075">
        <ele>1612</ele>
      </trkpt>
      <trkpt lat="45.65206" lon="3.80739">
        <ele>1611.3</ele>
      </trkpt>
      <trkpt lat="45.65209" lon="3.8073">
        <ele>1610.9</ele>
      </trkpt>
      <trkpt lat="45.65215" lon="3.80717">
        <ele>1610.4</ele>
      </trkpt>
      <trkpt lat="45.65223" lon="3.80705">
        <ele>1610.3</ele>
      </trkpt>
      <trkpt lat="45.65232" lon="3.80693">
        <ele>1610.3</ele>
      </trkpt>
      <trkpt lat="45.65241" lon="3.80681">
        <ele>1610.3</ele>
      </trkpt>
      <trkpt lat="45.6525" lon="3.80669">
        <ele>1610.3</ele>
      </trkpt>
      <trkpt lat="45.65263" lon="3.80651">
        <ele>1608.6</ele>
      </trkpt>
      <trkpt lat="45.65267" lon="3.80645">
        <ele>1608.1</ele>
      </trkpt>
      <trkpt lat="45.65272" lon="3.80641">
        <ele>1607.8</ele>
      </trkpt>
      <trkpt lat="45.65278" lon="3.80639">
        <ele>1607.9</ele>
      </trkpt>
      <trkpt lat="45.65286" lon="3.8064">
        <ele>1608.4</ele>
      </trkpt>
      <trkpt lat="45.65295" lon="3.80624">
        <ele>1607.1</ele>
      </trkpt>
      <trkpt lat="45.6531" lon="3.8062">
        <ele>1607.6</ele>
      </trkpt>
      <trkpt lat="45.65326" lon="3.80616">
        <ele>1608.1</ele>
      </trkpt>
      <trkpt lat="45.65337" lon="3.8061">
        <ele>1607.9</ele>
      </trkpt>
      <trkpt lat="45.65347" lon="3.80605">
        <ele>1607.3</ele>
      </trkpt>
      <trkpt lat="45.6536" lon="3.80598">
        <ele>1606.5</ele>
      </trkpt>
      <trkpt lat="45.65372" lon="3.80591">
        <ele>1605.8</ele>
      </trkpt>
      <trkpt lat="45.65383" lon="3.8058">
        <ele>1604.8</ele>
      </trkpt>
      <trkpt lat="45.65395" lon="3.8057">
        <ele>1603.9</ele>
      </trkpt>
      <trkpt lat="45.65414" lon="3.80563">
        <ele>1603.5</ele>
      </trkpt>
      <trkpt lat="45.65429" lon="3.80561">
        <ele>1603.1</ele>
      </trkpt>
      <trkpt lat="45.65443" lon="3.80559">
        <ele>1602.6</ele>
      </trkpt>
      <trkpt lat="45.65456" lon="3.80561">
        <ele>1602.4</ele>
      </trkpt>
      <trkpt lat="45.65469" lon="3.80562">
        <ele>1602.2</ele>
      </trkpt>
      <trkpt lat="45.65487" lon="3.80562">
        <ele>1601.8</ele>
      </trkpt>
      <trkpt lat="45.65504" lon="3.80561">
        <ele>1601.3</ele>
      </trkpt>
      <trkpt lat="45.65517" lon="3.80561">
        <ele>1601</ele>
      </trkpt>
      <trkpt lat="45.65537" lon="3.80574">
        <ele>1600.9</ele>
      </trkpt>
      <trkpt lat="45.65544" lon="3.80571">
        <ele>1600.6</ele>
      </trkpt>
      <trkpt lat="45.65551" lon="3.80569">
        <ele>1600.2</ele>
      </trkpt>
      <trkpt lat="45.65563" lon="3.80565">
        <ele>1599.8</ele>
      </trkpt>
      <trkpt lat="45.65568" lon="3.80563">
        <ele>1599.7</ele>
      </trkpt>
      <trkpt lat="45.65589" lon="3.80556">
        <ele>1598.7</ele>
      </trkpt>
      <trkpt lat="45.65607" lon="3.80551">
        <ele>1597.2</ele>
      </trkpt>
      <trkpt lat="45.65607" lon="3.80551">
        <ele>1597.2</ele>
      </trkpt>
      <trkpt lat="45.65614" lon="3.80549">
        <ele>1596.5</ele>
      </trkpt>
      <trkpt lat="45.6563" lon="3.80544">
        <ele>1595</ele>
      </trkpt>
      <trkpt lat="45.65647" lon="3.80538">
        <ele>1593.4</ele>
      </trkpt>
      <trkpt lat="45.65654" lon="3.80536">
        <ele>1592.8</ele>
      </trkpt>
      <trkpt lat="45.65669" lon="3.80531">
        <ele>1591.5</ele>
      </trkpt>
      <trkpt lat="45.65678" lon="3.80526">
        <ele>1591.2</ele>
      </trkpt>
      <trkpt lat="45.65689" lon="3.80518">
        <ele>1590.9</ele>
      </trkpt>
      <trkpt lat="45.65698" lon="3.80509">
        <ele>1590.7</ele>
      </trkpt>
      <trkpt lat="45.65707" lon="3.80497">
        <ele>1590.5</ele>
      </trkpt>
      <trkpt lat="45.65717" lon="3.80486">
        <ele>1589.9</ele>
      </trkpt>
      <trkpt lat="45.65727" lon="3.80473">
        <ele>1589.1</ele>
      </trkpt>
      <trkpt lat="45.65736" lon="3.8046">
        <ele>1588.1</ele>
      </trkpt>
      <trkpt lat="45.65745" lon="3.80448">
        <ele>1586.9</ele>
      </trkpt>
      <trkpt lat="45.65758" lon="3.80431">
        <ele>1585.5</ele>
      </trkpt>
      <trkpt lat="45.65771" lon="3.80414">
        <ele>1584.3</ele>
      </trkpt>
      <trkpt lat="45.6578" lon="3.80402">
        <ele>1583.3</ele>
      </trkpt>
      <trkpt lat="45.65789" lon="3.8039">
        <ele>1582.3</ele>
      </trkpt>
      <trkpt lat="45.65801" lon="3.80373">
        <ele>1581</ele>
      </trkpt>
      <trkpt lat="45.65813" lon="3.80357">
        <ele>1579.7</ele>
      </trkpt>
      <trkpt lat="45.65825" lon="3.80341">
        <ele>1578.6</ele>
      </trkpt>
      <trkpt lat="45.65836" lon="3.80325">
        <ele>1577.3</ele>
      </trkpt>
      <trkpt lat="45.65846" lon="3.80311">
        <ele>1576.3</ele>
      </trkpt>
      <trkpt lat="45.65857" lon="3.80296">
        <ele>1575.4</ele>
      </trkpt>
      <trkpt lat="45.65872" lon="3.80277">
        <ele>1574.4</ele>
      </trkpt>
      <trkpt lat="45.6588" lon="3.80266">
        <ele>1573.9</ele>
      </trkpt>
      <trkpt lat="45.65889" lon="3.80255">
        <ele>1573.4</ele>
      </trkpt>
      <trkpt lat="45.65897" lon="3.80243">
        <ele>1572.6</ele>
      </trkpt>
      <trkpt lat="45.65905" lon="3.80232">
        <ele>1571.6</ele>
      </trkpt>
      <trkpt lat="45.65917" lon="3.80215">
        <ele>1570</ele>
      </trkpt>
      <trkpt lat="45.65929" lon="3.80199">
        <ele>1568.1</ele>
      </trkpt>
      <trkpt lat="45.65938" lon="3.80187">
        <ele>1566.8</ele>
      </trkpt>
      <trkpt lat="45.65947" lon="3.80174">
        <ele>1565.7</ele>
      </trkpt>
      <trkpt lat="45.65953" lon="3.80166">
        <ele>1565.1</ele>
      </trkpt>
      <trkpt lat="45.65965" lon="3.8015">
        <ele>1563.4</ele>
      </trkpt>
      <trkpt lat="45.65979" lon="3.8013">
        <ele>1561.6</ele>
      </trkpt>
      <trkpt lat="45.65979" lon="3.8013">
        <ele>1561.6</ele>
      </trkpt>
      <trkpt lat="45.65993" lon="3.80111">
        <ele>1560.1</ele>
      </trkpt>
      <trkpt lat="45.66005" lon="3.80095">
        <ele>1559.1</ele>
      </trkpt>
      <trkpt lat="45.66017" lon="3.80077">
        <ele>1557.9</ele>
      </trkpt>
      <trkpt lat="45.66029" lon="3.8006">
        <ele>1556.5</ele>
      </trkpt>
      <trkpt lat="45.6604" lon="3.80043">
        <ele>1555.3</ele>
      </trkpt>
      <trkpt lat="45.66051" lon="3.80025">
        <ele>1553.9</ele>
      </trkpt>
      <trkpt lat="45.66061" lon="3.8001">
        <ele>1553</ele>
      </trkpt>
      <trkpt lat="45.66069" lon="3.79995">
        <ele>1551.9</ele>
      </trkpt>
      <trkpt lat="45.66074" lon="3.79987">
        <ele>1551.4</ele>
      </trkpt>
      <trkpt lat="45.66082" lon="3.79976">
        <ele>1550.8</ele>
      </trkpt>
      <trkpt lat="45.66088" lon="3.79968">
        <ele>1549.3</ele>
      </trkpt>
      <trkpt lat="45.66095" lon="3.7996">
        <ele>1547.7</ele>
      </trkpt>
      <trkpt lat="45.661" lon="3.79955">
        <ele>1546.8</ele>
      </trkpt>
      <trkpt lat="45.66108" lon="3.79949">
        <ele>1545.6</ele>
      </trkpt>
      <trkpt lat="45.66117" lon="3.79942">
        <ele>1544.4</ele>
      </trkpt>
      <trkpt lat="45.66122" lon="3.79947">
        <ele>1544.9</ele>
      </trkpt>
      <trkpt lat="45.66128" lon="3.79945">
        <ele>1544.4</ele>
      </trkpt>
      <trkpt lat="45.66147" lon="3.79937">
        <ele>1543.3</ele>
      </trkpt>
      <trkpt lat="45.66163" lon="3.79932">
        <ele>1542.8</ele>
      </trkpt>
      <trkpt lat="45.66179" lon="3.79927">
        <ele>1541.3</ele>
      </trkpt>
      <trkpt lat="45.66195" lon="3.79923">
        <ele>1539.4</ele>
      </trkpt>
      <trkpt lat="45.66211" lon="3.79918">
        <ele>1537.7</ele>
      </trkpt>
      <trkpt lat="45.66223" lon="3.79914">
        <ele>1536.5</ele>
      </trkpt>
      <trkpt lat="45.66235" lon="3.7991">
        <ele>1535.4</ele>
      </trkpt>
      <trkpt lat="45.66246" lon="3.79906">
        <ele>1534.3</ele>
      </trkpt>
      <trkpt lat="45.66258" lon="3.79903">
        <ele>1533</ele>
      </trkpt>
      <trkpt lat="45.66272" lon="3.79898">
        <ele>1531.2</ele>
      </trkpt>
      <trkpt lat="45.66286" lon="3.79893">
        <ele>1529.6</ele>
      </trkpt>
      <trkpt lat="45.66299" lon="3.79889">
        <ele>1528.1</ele>
      </trkpt>
      <trkpt lat="45.66312" lon="3.79885">
        <ele>1526.8</ele>
      </trkpt>
      <trkpt lat="45.66322" lon="3.79882">
        <ele>1525.8</ele>
      </trkpt>
      <trkpt lat="45.66333" lon="3.79879">
        <ele>1524.8</ele>
      </trkpt>
      <trkpt lat="45.66338" lon="3.79878">
        <ele>1524.4</ele>
      </trkpt>
      <trkpt lat="45.66351" lon="3.79876">
        <ele>1523.7</ele>
      </trkpt>
      <trkpt lat="45.66364" lon="3.79873">
        <ele>1523</ele>
      </trkpt>
      <trkpt lat="45.66378" lon="3.7987">
        <ele>1522.3</ele>
      </trkpt>
      <trkpt lat="45.66399" lon="3.79864">
        <ele>1521.3</ele>
      </trkpt>
      <trkpt lat="45.66399" lon="3.79864">
        <ele>1521.3</ele>
      </trkpt>
      <trkpt lat="45.66417" lon="3.79859">
        <ele>1520.4</ele>
      </trkpt>
      <trkpt lat="45.66435" lon="3.79853">
        <ele>1518.3</ele>
      </trkpt>
      <trkpt lat="45.66446" lon="3.79848">
        <ele>1516.9</ele>
      </trkpt>
      <trkpt lat="45.66458" lon="3.79844">
        <ele>1515.6</ele>
      </trkpt>
      <trkpt lat="45.66473" lon="3.79838">
        <ele>1513.8</ele>
      </trkpt>
      <trkpt lat="45.66488" lon="3.79832">
        <ele>1512.1</ele>
      </trkpt>
      <trkpt lat="45.66499" lon="3.79827">
        <ele>1510.8</ele>
      </trkpt>
      <trkpt lat="45.66511" lon="3.79823">
        <ele>1509.7</ele>
      </trkpt>
      <trkpt lat="45.6653" lon="3.79816">
        <ele>1507.8</ele>
      </trkpt>
      <trkpt lat="45.66552" lon="3.7981">
        <ele>1505.4</ele>
      </trkpt>
      <trkpt lat="45.66569" lon="3.79804">
        <ele>1503.5</ele>
      </trkpt>
      <trkpt lat="45.66586" lon="3.79799">
        <ele>1501.6</ele>
      </trkpt>
      <trkpt lat="45.666" lon="3.79794">
        <ele>1500.2</ele>
      </trkpt>
      <trkpt lat="45.66615" lon="3.7979">
        <ele>1498.7</ele>
      </trkpt>
      <trkpt lat="45.66636" lon="3.79783">
        <ele>1496.5</ele>
      </trkpt>
      <trkpt lat="45.66658" lon="3.79777">
        <ele>1494.3</ele>
      </trkpt>
      <trkpt lat="45.66678" lon="3.7977">
        <ele>1492.5</ele>
      </trkpt>
      <trkpt lat="45.66698" lon="3.79764">
        <ele>1491</ele>
      </trkpt>
      <trkpt lat="45.66711" lon="3.7976">
        <ele>1490</ele>
      </trkpt>
      <trkpt lat="45.66724" lon="3.79756">
        <ele>1489.1</ele>
      </trkpt>
      <trkpt lat="45.66738" lon="3.79751">
        <ele>1488.1</ele>
      </trkpt>
      <trkpt lat="45.66758" lon="3.79744">
        <ele>1486.9</ele>
      </trkpt>
      <trkpt lat="45.66772" lon="3.7974">
        <ele>1486.6</ele>
      </trkpt>
      <trkpt lat="45.66786" lon="3.79735">
        <ele>1486.3</ele>
      </trkpt>
      <trkpt lat="45.66805" lon="3.79729">
        <ele>1485.7</ele>
      </trkpt>
      <trkpt lat="45.66816" lon="3.79727">
        <ele>1485.3</ele>
      </trkpt>
      <trkpt lat="45.6683" lon="3.79722">
        <ele>1484.8</ele>
      </trkpt>
      <trkpt lat="45.66837" lon="3.7972">
        <ele>1484.9</ele>
      </trkpt>
      <trkpt lat="45.66837" lon="3.79701">
        <ele>1484.6</ele>
      </trkpt>
      <trkpt lat="45.66836" lon="3.79691">
        <ele>1484.5</ele>
      </trkpt>
      <trkpt lat="45.66836" lon="3.79691">
        <ele>1484.5</ele>
      </trkpt>
      <trkpt lat="45.66835" lon="3.79683">
        <ele>1484.3</ele>
      </trkpt>
      <trkpt lat="45.66833" lon="3.79675">
        <ele>1484.1</ele>
      </trkpt>
      <trkpt lat="45.66844" lon="3.79662">
        <ele>1484.2</ele>
      </trkpt>
      <trkpt lat="45.66856" lon="3.79649">
        <ele>1483.7</ele>
      </trkpt>
      <trkpt lat="45.66869" lon="3.79634">
        <ele>1482.7</ele>
      </trkpt>
      <trkpt lat="45.66882" lon="3.79618">
        <ele>1481.4</ele>
      </trkpt>
      <trkpt lat="45.66895" lon="3.79603">
        <ele>1479.7</ele>
      </trkpt>
      <trkpt lat="45.66909" lon="3.79586">
        <ele>1477.6</ele>
      </trkpt>
      <trkpt lat="45.66922" lon="3.79569">
        <ele>1476.3</ele>
      </trkpt>
      <trkpt lat="45.66932" lon="3.79556">
        <ele>1476.3</ele>
      </trkpt>
      <trkpt lat="45.66943" lon="3.79543">
        <ele>1476.1</ele>
      </trkpt>
      <trkpt lat="45.66954" lon="3.7953">
        <ele>1475.7</ele>
      </trkpt>
      <trkpt lat="45.6697" lon="3.79513">
        <ele>1475.2</ele>
      </trkpt>
      <trkpt lat="45.66981" lon="3.79503">
        <ele>1474.6</ele>
      </trkpt>
      <trkpt lat="45.66998" lon="3.79485">
        <ele>1473.6</ele>
      </trkpt>
      <trkpt lat="45.67007" lon="3.79473">
        <ele>1473.4</ele>
      </trkpt>
      <trkpt lat="45.67017" lon="3.7946">
        <ele>1473</ele>
      </trkpt>
      <trkpt lat="45.67028" lon="3.7944">
        <ele>1471.9</ele>
      </trkpt>
      <trkpt lat="45.67037" lon="3.79425">
        <ele>1470.8</ele>
      </trkpt>
      <trkpt lat="45.67046" lon="3.7941">
        <ele>1469.4</ele>
      </trkpt>
      <trkpt lat="45.67057" lon="3.79392">
        <ele>1467.9</ele>
      </trkpt>
      <trkpt lat="45.67065" lon="3.79379">
        <ele>1466.8</ele>
      </trkpt>
      <trkpt lat="45.67071" lon="3.7937">
        <ele>1466.3</ele>
      </trkpt>
      <trkpt lat="45.67079" lon="3.79359">
        <ele>1465.7</ele>
      </trkpt>
      <trkpt lat="45.67089" lon="3.79347">
        <ele>1465.5</ele>
      </trkpt>
      <trkpt lat="45.67103" lon="3.7933">
        <ele>1465</ele>
      </trkpt>
      <trkpt lat="45.67119" lon="3.79309">
        <ele>1464.3</ele>
      </trkpt>
      <trkpt lat="45.6713" lon="3.79294">
        <ele>1463.8</ele>
      </trkpt>
      <trkpt lat="45.67141" lon="3.79278">
        <ele>1462.8</ele>
      </trkpt>
      <trkpt lat="45.67149" lon="3.79266">
        <ele>1462.1</ele>
      </trkpt>
      <trkpt lat="45.67157" lon="3.79252">
        <ele>1460.9</ele>
      </trkpt>
      <trkpt lat="45.67164" lon="3.79239">
        <ele>1459.8</ele>
      </trkpt>
      <trkpt lat="45.67164" lon="3.79239">
        <ele>1459.8</ele>
      </trkpt>
      <trkpt lat="45.67171" lon="3.79223">
        <ele>1458.8</ele>
      </trkpt>
      <trkpt lat="45.67177" lon="3.79211">
        <ele>1458</ele>
      </trkpt>
      <trkpt lat="45.6718" lon="3.79203">
        <ele>1457.5</ele>
      </trkpt>
      <trkpt lat="45.67187" lon="3.79185">
        <ele>1456.1</ele>
      </trkpt>
      <trkpt lat="45.67196" lon="3.79167">
        <ele>1455</ele>
      </trkpt>
      <trkpt lat="45.67203" lon="3.79153">
        <ele>1454.4</ele>
      </trkpt>
      <trkpt lat="45.67212" lon="3.79136">
        <ele>1453.7</ele>
      </trkpt>
      <trkpt lat="45.6722" lon="3.7912">
        <ele>1453.2</ele>
      </trkpt>
      <trkpt lat="45.67229" lon="3.79103">
        <ele>1452.6</ele>
      </trkpt>
      <trkpt lat="45.6724" lon="3.79083">
        <ele>1451.7</ele>
      </trkpt>
      <trkpt lat="45.67246" lon="3.79068">
        <ele>1451.2</ele>
      </trkpt>
      <trkpt lat="45.67253" lon="3.79051">
        <ele>1450.3</ele>
      </trkpt>
      <trkpt lat="45.67258" lon="3.79036">
        <ele>1449.5</ele>
      </trkpt>
      <trkpt lat="45.67262" lon="3.79022">
        <ele>1448.7</ele>
      </trkpt>
      <trkpt lat="45.67273" lon="3.78997">
        <ele>1447.7</ele>
      </trkpt>
      <trkpt lat="45.67283" lon="3.78976">
        <ele>1446.5</ele>
      </trkpt>
      <trkpt lat="45.67289" lon="3.78961">
        <ele>1445.6</ele>
      </trkpt>
      <trkpt lat="45.67296" lon="3.78946">
        <ele>1444.7</ele>
      </trkpt>
      <trkpt lat="45.67303" lon="3.78931">
        <ele>1443.8</ele>
      </trkpt>
      <trkpt lat="45.67311" lon="3.78915">
        <ele>1442.9</ele>
      </trkpt>
      <trkpt lat="45.67312" lon="3.78903">
        <ele>1441.4</ele>
      </trkpt>
      <trkpt lat="45.67318" lon="3.789">
        <ele>1442.2</ele>
      </trkpt>
      <trkpt lat="45.67324" lon="3.78888">
        <ele>1441.6</ele>
      </trkpt>
      <trkpt lat="45.67327" lon="3.78882">
        <ele>1441.3</ele>
      </trkpt>
      <trkpt lat="45.67335" lon="3.78869">
        <ele>1440.9</ele>
      </trkpt>
      <trkpt lat="45.67343" lon="3.78856">
        <ele>1440.7</ele>
      </trkpt>
      <trkpt lat="45.67354" lon="3.78838">
        <ele>1440.2</ele>
      </trkpt>
      <trkpt lat="45.67366" lon="3.78819">
        <ele>1440</ele>
      </trkpt>
      <trkpt lat="45.67374" lon="3.78806">
        <ele>1439.8</ele>
      </trkpt>
      <trkpt lat="45.67382" lon="3.78793">
        <ele>1439.4</ele>
      </trkpt>
      <trkpt lat="45.67391" lon="3.7878">
        <ele>1438.9</ele>
      </trkpt>
      <trkpt lat="45.674" lon="3.78767">
        <ele>1438.2</ele>
      </trkpt>
      <trkpt lat="45.674" lon="3.78767">
        <ele>1438.2</ele>
      </trkpt>
      <trkpt lat="45.67408" lon="3.78754">
        <ele>1437.4</ele>
      </trkpt>
      <trkpt lat="45.67416" lon="3.78742">
        <ele>1436.1</ele>
      </trkpt>
      <trkpt lat="45.6743" lon="3.78721">
        <ele>1434</ele>
      </trkpt>
      <trkpt lat="45.67443" lon="3.78703">
        <ele>1432.1</ele>
      </trkpt>
      <trkpt lat="45.67443" lon="3.78703">
        <ele>1432.1</ele>
      </trkpt>
      <trkpt lat="45.67456" lon="3.78685">
        <ele>1430.4</ele>
      </trkpt>
      <trkpt lat="45.67471" lon="3.78665">
        <ele>1428.8</ele>
      </trkpt>
      <trkpt lat="45.67477" lon="3.78658">
        <ele>1428.3</ele>
      </trkpt>
      <trkpt lat="45.67488" lon="3.78649">
        <ele>1427.9</ele>
      </trkpt>
      <trkpt lat="45.67497" lon="3.78643">
        <ele>1428</ele>
      </trkpt>
      <trkpt lat="45.67507" lon="3.78636">
        <ele>1427.3</ele>
      </trkpt>
      <trkpt lat="45.67521" lon="3.78629">
        <ele>1426.2</ele>
      </trkpt>
      <trkpt lat="45.67542" lon="3.78619">
        <ele>1425</ele>
      </trkpt>
      <trkpt lat="45.6756" lon="3.78612">
        <ele>1424.3</ele>
      </trkpt>
      <trkpt lat="45.67571" lon="3.78602">
        <ele>1423</ele>
      </trkpt>
      <trkpt lat="45.67578" lon="3.78604">
        <ele>1423.7</ele>
      </trkpt>
      <trkpt lat="45.67584" lon="3.78602">
        <ele>1423.6</ele>
      </trkpt>
      <trkpt lat="45.67595" lon="3.78598">
        <ele>1423.5</ele>
      </trkpt>
      <trkpt lat="45.67613" lon="3.78595">
        <ele>1423.9</ele>
      </trkpt>
      <trkpt lat="45.6763" lon="3.78592">
        <ele>1424.3</ele>
      </trkpt>
      <trkpt lat="45.67644" lon="3.7859">
        <ele>1424.7</ele>
      </trkpt>
      <trkpt lat="45.6765" lon="3.78588">
        <ele>1424.8</ele>
      </trkpt>
      <trkpt lat="45.67655" lon="3.78586">
        <ele>1424.8</ele>
      </trkpt>
      <trkpt lat="45.67663" lon="3.78581">
        <ele>1424.4</ele>
      </trkpt>
      <trkpt lat="45.67672" lon="3.78575">
        <ele>1423.9</ele>
      </trkpt>
      <trkpt lat="45.67685" lon="3.78564">
        <ele>1423.2</ele>
      </trkpt>
      <trkpt lat="45.67698" lon="3.78554">
        <ele>1422.6</ele>
      </trkpt>
      <trkpt lat="45.67709" lon="3.78546">
        <ele>1422.2</ele>
      </trkpt>
      <trkpt lat="45.67727" lon="3.78534">
        <ele>1421.9</ele>
      </trkpt>
      <trkpt lat="45.67746" lon="3.78523">
        <ele>1421.8</ele>
      </trkpt>
      <trkpt lat="45.67759" lon="3.78515">
        <ele>1421.4</ele>
      </trkpt>
      <trkpt lat="45.6777" lon="3.78507">
        <ele>1421</ele>
      </trkpt>
      <trkpt lat="45.6778" lon="3.785">
        <ele>1420.5</ele>
      </trkpt>
      <trkpt lat="45.67799" lon="3.78485">
        <ele>1419.4</ele>
      </trkpt>
      <trkpt lat="45.67815" lon="3.78473">
        <ele>1418.7</ele>
      </trkpt>
      <trkpt lat="45.6783" lon="3.78461">
        <ele>1418</ele>
      </trkpt>
      <trkpt lat="45.67846" lon="3.78449">
        <ele>1416.7</ele>
      </trkpt>
      <trkpt lat="45.67858" lon="3.78442">
        <ele>1415.9</ele>
      </trkpt>
      <trkpt lat="45.6787" lon="3.78435">
        <ele>1415</ele>
      </trkpt>
      <trkpt lat="45.6787" lon="3.78435">
        <ele>1415</ele>
      </trkpt>
      <trkpt lat="45.67875" lon="3.78433">
        <ele>1414.7</ele>
      </trkpt>
      <trkpt lat="45.67893" lon="3.78425">
        <ele>1413.8</ele>
      </trkpt>
      <trkpt lat="45.67906" lon="3.78418">
        <ele>1413</ele>
      </trkpt>
      <trkpt lat="45.67918" lon="3.78412">
        <ele>1412.2</ele>
      </trkpt>
      <trkpt lat="45.67935" lon="3.78399">
        <ele>1411.2</ele>
      </trkpt>
      <trkpt lat="45.67945" lon="3.78389">
        <ele>1410.2</ele>
      </trkpt>
      <trkpt lat="45.67954" lon="3.78378">
        <ele>1409.2</ele>
      </trkpt>
      <trkpt lat="45.67959" lon="3.7838">
        <ele>1409.8</ele>
      </trkpt>
      <trkpt lat="45.67969" lon="3.78372">
        <ele>1409.3</ele>
      </trkpt>
      <trkpt lat="45.67979" lon="3.78364">
        <ele>1408.8</ele>
      </trkpt>
      <trkpt lat="45.67995" lon="3.78351">
        <ele>1408.1</ele>
      </trkpt>
      <trkpt lat="45.6801" lon="3.7834">
        <ele>1407.1</ele>
      </trkpt>
      <trkpt lat="45.68021" lon="3.78334">
        <ele>1406.4</ele>
      </trkpt>
      <trkpt lat="45.68032" lon="3.78328">
        <ele>1405.4</ele>
      </trkpt>
      <trkpt lat="45.68052" lon="3.78321">
        <ele>1404.4</ele>
      </trkpt>
      <trkpt lat="45.68068" lon="3.78317">
        <ele>1404</ele>
      </trkpt>
      <trkpt lat="45.68081" lon="3.78316">
        <ele>1404</ele>
      </trkpt>
      <trkpt lat="45.68098" lon="3.78315">
        <ele>1403.6</ele>
      </trkpt>
      <trkpt lat="45.68102" lon="3.78308">
        <ele>1402.4</ele>
      </trkpt>
      <trkpt lat="45.6811" lon="3.78315">
        <ele>1403.4</ele>
      </trkpt>
      <trkpt lat="45.68118" lon="3.78315">
        <ele>1403.3</ele>
      </trkpt>
      <trkpt lat="45.68137" lon="3.78315">
        <ele>1403</ele>
      </trkpt>
      <trkpt lat="45.68156" lon="3.78315">
        <ele>1402.7</ele>
      </trkpt>
      <trkpt lat="45.68168" lon="3.78315">
        <ele>1402.5</ele>
      </trkpt>
      <trkpt lat="45.6818" lon="3.78315">
        <ele>1402.3</ele>
      </trkpt>
      <trkpt lat="45.68194" lon="3.78314">
        <ele>1401.8</ele>
      </trkpt>
      <trkpt lat="45.68206" lon="3.78312">
        <ele>1401.3</ele>
      </trkpt>
      <trkpt lat="45.68217" lon="3.7831">
        <ele>1400.7</ele>
      </trkpt>
      <trkpt lat="45.68235" lon="3.78306">
        <ele>1399.6</ele>
      </trkpt>
      <trkpt lat="45.68241" lon="3.78298">
        <ele>1398</ele>
      </trkpt>
      <trkpt lat="45.68248" lon="3.78303">
        <ele>1398.9</ele>
      </trkpt>
      <trkpt lat="45.68259" lon="3.78301">
        <ele>1398.6</ele>
      </trkpt>
      <trkpt lat="45.68271" lon="3.78299">
        <ele>1398.4</ele>
      </trkpt>
      <trkpt lat="45.68284" lon="3.78297">
        <ele>1398.2</ele>
      </trkpt>
      <trkpt lat="45.68297" lon="3.78295">
        <ele>1398.1</ele>
      </trkpt>
      <trkpt lat="45.68309" lon="3.78294">
        <ele>1397.9</ele>
      </trkpt>
      <trkpt lat="45.68309" lon="3.78294">
        <ele>1397.9</ele>
      </trkpt>
      <trkpt lat="45.6832" lon="3.78292">
        <ele>1397.8</ele>
      </trkpt>
      <trkpt lat="45.68333" lon="3.78289">
        <ele>1397.5</ele>
      </trkpt>
      <trkpt lat="45.68346" lon="3.78286">
        <ele>1396.4</ele>
      </trkpt>
      <trkpt lat="45.68365" lon="3.78282">
        <ele>1394.9</ele>
      </trkpt>
      <trkpt lat="45.68385" lon="3.78277">
        <ele>1393.6</ele>
      </trkpt>
      <trkpt lat="45.68405" lon="3.78273">
        <ele>1392.5</ele>
      </trkpt>
      <trkpt lat="45.68421" lon="3.7827">
        <ele>1391.7</ele>
      </trkpt>
      <trkpt lat="45.68441" lon="3.78266">
        <ele>1390.9</ele>
      </trkpt>
      <trkpt lat="45.68463" lon="3.78264">
        <ele>1390.2</ele>
      </trkpt>
      <trkpt lat="45.68476" lon="3.78262">
        <ele>1389.8</ele>
      </trkpt>
      <trkpt lat="45.68482" lon="3.78261">
        <ele>1389.7</ele>
      </trkpt>
      <trkpt lat="45.68487" lon="3.78259">
        <ele>1389.5</ele>
      </trkpt>
      <trkpt lat="45.68494" lon="3.78254">
        <ele>1389.2</ele>
      </trkpt>
      <trkpt lat="45.68499" lon="3.78248">
        <ele>1389</ele>
      </trkpt>
      <trkpt lat="45.6851" lon="3.78267">
        <ele>1389.6</ele>
      </trkpt>
      <trkpt lat="45.68515" lon="3.78274">
        <ele>1389.9</ele>
      </trkpt>
      <trkpt lat="45.68526" lon="3.78284">
        <ele>1390.1</ele>
      </trkpt>
      <trkpt lat="45.68534" lon="3.7829">
        <ele>1390.2</ele>
      </trkpt>
      <trkpt lat="45.68539" lon="3.78293">
        <ele>1390.2</ele>
      </trkpt>
      <trkpt lat="45.68542" lon="3.78319">
        <ele>1390.1</ele>
      </trkpt>
      <trkpt lat="45.68546" lon="3.7832">
        <ele>1390</ele>
      </trkpt>
      <trkpt lat="45.68554" lon="3.78317">
        <ele>1389.9</ele>
      </trkpt>
      <trkpt lat="45.68558" lon="3.78313">
        <ele>1390</ele>
      </trkpt>
      <trkpt lat="45.68563" lon="3.78304">
        <ele>1390.1</ele>
      </trkpt>
      <trkpt lat="45.68581" lon="3.78311">
        <ele>1389.8</ele>
      </trkpt>
      <trkpt lat="45.68596" lon="3.78315">
        <ele>1389.1</ele>
      </trkpt>
      <trkpt lat="45.6861" lon="3.7832">
        <ele>1388.3</ele>
      </trkpt>
      <trkpt lat="45.68616" lon="3.78313">
        <ele>1388.5</ele>
      </trkpt>
      <trkpt lat="45.68621" lon="3.78302">
        <ele>1389.1</ele>
      </trkpt>
      <trkpt lat="45.68627" lon="3.78294">
        <ele>1389.5</ele>
      </trkpt>
      <trkpt lat="45.68637" lon="3.78289">
        <ele>1389.8</ele>
      </trkpt>
      <trkpt lat="45.68646" lon="3.78286">
        <ele>1389.9</ele>
      </trkpt>
      <trkpt lat="45.68656" lon="3.78285">
        <ele>1389.9</ele>
      </trkpt>
      <trkpt lat="45.68667" lon="3.7828">
        <ele>1390.4</ele>
      </trkpt>
      <trkpt lat="45.68674" lon="3.78275">
        <ele>1390.7</ele>
      </trkpt>
      <trkpt lat="45.68688" lon="3.78261">
        <ele>1391.6</ele>
      </trkpt>
      <trkpt lat="45.68702" lon="3.7825">
        <ele>1392.3</ele>
      </trkpt>
      <trkpt lat="45.68716" lon="3.78239">
        <ele>1392.8</ele>
      </trkpt>
      <trkpt lat="45.68734" lon="3.78224">
        <ele>1393.5</ele>
      </trkpt>
      <trkpt lat="45.68734" lon="3.78224">
        <ele>1393.5</ele>
      </trkpt>
      <trkpt lat="45.68744" lon="3.78214">
        <ele>1394.1</ele>
      </trkpt>
      <trkpt lat="45.68755" lon="3.78205">
        <ele>1394.6</ele>
      </trkpt>
      <trkpt lat="45.68765" lon="3.78197">
        <ele>1394.9</ele>
      </trkpt>
      <trkpt lat="45.68775" lon="3.78188">
        <ele>1395.2</ele>
      </trkpt>
      <trkpt lat="45.68796" lon="3.78179">
        <ele>1395</ele>
      </trkpt>
      <trkpt lat="45.68809" lon="3.78171">
        <ele>1395</ele>
      </trkpt>
      <trkpt lat="45.68822" lon="3.78163">
        <ele>1395.1</ele>
      </trkpt>
      <trkpt lat="45.6884" lon="3.7815">
        <ele>1395.6</ele>
      </trkpt>
      <trkpt lat="45.68854" lon="3.78136">
        <ele>1396.4</ele>
      </trkpt>
      <trkpt lat="45.68871" lon="3.78115">
        <ele>1397.7</ele>
      </trkpt>
      <trkpt lat="45.68886" lon="3.78094">
        <ele>1399</ele>
      </trkpt>
      <trkpt lat="45.68895" lon="3.78082">
        <ele>1399.7</ele>
      </trkpt>
      <trkpt lat="45.68905" lon="3.78068">
        <ele>1400.2</ele>
      </trkpt>
      <trkpt lat="45.68914" lon="3.78054">
        <ele>1400.4</ele>
      </trkpt>
      <trkpt lat="45.68925" lon="3.78039">
        <ele>1400.5</ele>
      </trkpt>
      <trkpt lat="45.68936" lon="3.78023">
        <ele>1400.8</ele>
      </trkpt>
      <trkpt lat="45.68947" lon="3.78008">
        <ele>1401.2</ele>
      </trkpt>
      <trkpt lat="45.68956" lon="3.77995">
        <ele>1401.5</ele>
      </trkpt>
      <trkpt lat="45.68966" lon="3.77982">
        <ele>1401.5</ele>
      </trkpt>
      <trkpt lat="45.68974" lon="3.77969">
        <ele>1401.5</ele>
      </trkpt>
      <trkpt lat="45.68981" lon="3.77957">
        <ele>1401.4</ele>
      </trkpt>
      <trkpt lat="45.68994" lon="3.77933">
        <ele>1401.1</ele>
      </trkpt>
      <trkpt lat="45.69" lon="3.77918">
        <ele>1401</ele>
      </trkpt>
      <trkpt lat="45.69006" lon="3.77902">
        <ele>1400.5</ele>
      </trkpt>
      <trkpt lat="45.69012" lon="3.77886">
        <ele>1400</ele>
      </trkpt>
      <trkpt lat="45.69018" lon="3.77871">
        <ele>1399.6</ele>
      </trkpt>
      <trkpt lat="45.69023" lon="3.77855">
        <ele>1399.3</ele>
      </trkpt>
      <trkpt lat="45.69029" lon="3.77839">
        <ele>1399.1</ele>
      </trkpt>
      <trkpt lat="45.69036" lon="3.77821">
        <ele>1398.9</ele>
      </trkpt>
      <trkpt lat="45.69043" lon="3.77803">
        <ele>1398.8</ele>
      </trkpt>
      <trkpt lat="45.69052" lon="3.7778">
        <ele>1398.9</ele>
      </trkpt>
      <trkpt lat="45.6906" lon="3.7778">
        <ele>1398.2</ele>
      </trkpt>
      <trkpt lat="45.6906" lon="3.7778">
        <ele>1398.2</ele>
      </trkpt>
      <trkpt lat="45.69067" lon="3.77781">
        <ele>1397.7</ele>
      </trkpt>
      <trkpt lat="45.69077" lon="3.77779">
        <ele>1397.1</ele>
      </trkpt>
      <trkpt lat="45.6909" lon="3.77776">
        <ele>1396.8</ele>
      </trkpt>
      <trkpt lat="45.69095" lon="3.77776">
        <ele>1396.7</ele>
      </trkpt>
      <trkpt lat="45.69106" lon="3.77782">
        <ele>1396.4</ele>
      </trkpt>
      <trkpt lat="45.69114" lon="3.77778">
        <ele>1396.5</ele>
      </trkpt>
      <trkpt lat="45.69126" lon="3.77776">
        <ele>1396.6</ele>
      </trkpt>
      <trkpt lat="45.69137" lon="3.77774">
        <ele>1396.7</ele>
      </trkpt>
      <trkpt lat="45.69158" lon="3.77773">
        <ele>1396.6</ele>
      </trkpt>
      <trkpt lat="45.69178" lon="3.77772">
        <ele>1397</ele>
      </trkpt>
      <trkpt lat="45.69199" lon="3.77771">
        <ele>1397.7</ele>
      </trkpt>
      <trkpt lat="45.6922" lon="3.77769">
        <ele>1398.4</ele>
      </trkpt>
      <trkpt lat="45.69235" lon="3.77768">
        <ele>1398.9</ele>
      </trkpt>
      <trkpt lat="45.69251" lon="3.77767">
        <ele>1399.4</ele>
      </trkpt>
      <trkpt lat="45.69272" lon="3.77764">
        <ele>1400.1</ele>
      </trkpt>
      <trkpt lat="45.69293" lon="3.77761">
        <ele>1400.8</ele>
      </trkpt>
      <trkpt lat="45.69314" lon="3.77759">
        <ele>1401.4</ele>
      </trkpt>
      <trkpt lat="45.69335" lon="3.77758">
        <ele>1402</ele>
      </trkpt>
      <trkpt lat="45.69356" lon="3.77756">
        <ele>1402.8</ele>
      </trkpt>
      <trkpt lat="45.69373" lon="3.77755">
        <ele>1403.4</ele>
      </trkpt>
      <trkpt lat="45.6939" lon="3.77754">
        <ele>1404</ele>
      </trkpt>
      <trkpt lat="45.69406" lon="3.77753">
        <ele>1404.6</ele>
      </trkpt>
      <trkpt lat="45.69423" lon="3.77752">
        <ele>1405.2</ele>
      </trkpt>
      <trkpt lat="45.6944" lon="3.7775">
        <ele>1405.8</ele>
      </trkpt>
      <trkpt lat="45.69455" lon="3.77748">
        <ele>1406.4</ele>
      </trkpt>
      <trkpt lat="45.6947" lon="3.77745">
        <ele>1406.9</ele>
      </trkpt>
      <trkpt lat="45.6949" lon="3.77744">
        <ele>1407.6</ele>
      </trkpt>
      <trkpt lat="45.6951" lon="3.77742">
        <ele>1408.6</ele>
      </trkpt>
      <trkpt lat="45.6953" lon="3.77741">
        <ele>1409.7</ele>
      </trkpt>
      <trkpt lat="45.6953" lon="3.77741">
        <ele>1409.7</ele>
      </trkpt>
      <trkpt lat="45.69547" lon="3.77739">
        <ele>1410.7</ele>
      </trkpt>
      <trkpt lat="45.69564" lon="3.77738">
        <ele>1411.7</ele>
      </trkpt>
      <trkpt lat="45.69581" lon="3.77737">
        <ele>1412.7</ele>
      </trkpt>
      <trkpt lat="45.69598" lon="3.77736">
        <ele>1413.9</ele>
      </trkpt>
      <trkpt lat="45.69621" lon="3.77734">
        <ele>1415.4</ele>
      </trkpt>
      <trkpt lat="45.69643" lon="3.77733">
        <ele>1416.9</ele>
      </trkpt>
      <trkpt lat="45.69665" lon="3.77731">
        <ele>1418.3</ele>
      </trkpt>
      <trkpt lat="45.69688" lon="3.7773">
        <ele>1419.2</ele>
      </trkpt>
      <trkpt lat="45.69707" lon="3.77727">
        <ele>1419.7</ele>
      </trkpt>
      <trkpt lat="45.69726" lon="3.77724">
        <ele>1420.4</ele>
      </trkpt>
      <trkpt lat="45.69745" lon="3.7772">
        <ele>1421</ele>
      </trkpt>
      <trkpt lat="45.69764" lon="3.77717">
        <ele>1421.1</ele>
      </trkpt>
      <trkpt lat="45.69783" lon="3.77714">
        <ele>1421</ele>
      </trkpt>
      <trkpt lat="45.69802" lon="3.77711">
        <ele>1420.9</ele>
      </trkpt>
      <trkpt lat="45.69822" lon="3.77708">
        <ele>1420.9</ele>
      </trkpt>
      <trkpt lat="45.69841" lon="3.77705">
        <ele>1420.6</ele>
      </trkpt>
      <trkpt lat="45.6986" lon="3.77702">
        <ele>1419.7</ele>
      </trkpt>
      <trkpt lat="45.6988" lon="3.77699">
        <ele>1418.9</ele>
      </trkpt>
      <trkpt lat="45.69899" lon="3.77696">
        <ele>1418.1</ele>
      </trkpt>
      <trkpt lat="45.69919" lon="3.77691">
        <ele>1417.1</ele>
      </trkpt>
      <trkpt lat="45.69938" lon="3.77685">
        <ele>1415.7</ele>
      </trkpt>
      <trkpt lat="45.69955" lon="3.77694">
        <ele>1414.4</ele>
      </trkpt>
      <trkpt lat="45.69967" lon="3.777">
        <ele>1413.4</ele>
      </trkpt>
      <trkpt lat="45.69979" lon="3.77705">
        <ele>1412.4</ele>
      </trkpt>
      <trkpt lat="45.69994" lon="3.77712">
        <ele>1410.9</ele>
      </trkpt>
      <trkpt lat="45.69994" lon="3.77712">
        <ele>1410.9</ele>
      </trkpt>
      <trkpt lat="45.70009" lon="3.77718">
        <ele>1409.5</ele>
      </trkpt>
      <trkpt lat="45.70027" lon="3.77729">
        <ele>1407.6</ele>
      </trkpt>
      <trkpt lat="45.70044" lon="3.77741">
        <ele>1405.7</ele>
      </trkpt>
      <trkpt lat="45.70056" lon="3.77749">
        <ele>1404.4</ele>
      </trkpt>
      <trkpt lat="45.70068" lon="3.77757">
        <ele>1402.8</ele>
      </trkpt>
      <trkpt lat="45.70081" lon="3.7777">
        <ele>1400.5</ele>
      </trkpt>
      <trkpt lat="45.70095" lon="3.77784">
        <ele>1398.5</ele>
      </trkpt>
      <trkpt lat="45.70113" lon="3.77798">
        <ele>1396.2</ele>
      </trkpt>
      <trkpt lat="45.70131" lon="3.77812">
        <ele>1393.9</ele>
      </trkpt>
      <trkpt lat="45.70145" lon="3.77818">
        <ele>1392.6</ele>
      </trkpt>
      <trkpt lat="45.70159" lon="3.77824">
        <ele>1391.2</ele>
      </trkpt>
      <trkpt lat="45.70176" lon="3.77829">
        <ele>1390.2</ele>
      </trkpt>
      <trkpt lat="45.70193" lon="3.77833">
        <ele>1389.7</ele>
      </trkpt>
      <trkpt lat="45.70208" lon="3.77842">
        <ele>1389.2</ele>
      </trkpt>
      <trkpt lat="45.70208" lon="3.77842">
        <ele>1389.1</ele>
      </trkpt>
      <trkpt lat="45.70222" lon="3.7785">
        <ele>1388.7</ele>
      </trkpt>
      <trkpt lat="45.70241" lon="3.77864">
        <ele>1388.2</ele>
      </trkpt>
      <trkpt lat="45.7025" lon="3.77879">
        <ele>1387.9</ele>
      </trkpt>
      <trkpt lat="45.7026" lon="3.77894">
        <ele>1387.2</ele>
      </trkpt>
      <trkpt lat="45.70271" lon="3.7791">
        <ele>1386.6</ele>
      </trkpt>
      <trkpt lat="45.70282" lon="3.77926">
        <ele>1385.9</ele>
      </trkpt>
      <trkpt lat="45.70293" lon="3.77942">
        <ele>1385.2</ele>
      </trkpt>
      <trkpt lat="45.70301" lon="3.77962">
        <ele>1384.7</ele>
      </trkpt>
      <trkpt lat="45.70309" lon="3.77981">
        <ele>1384.5</ele>
      </trkpt>
      <trkpt lat="45.70318" lon="3.78">
        <ele>1384.4</ele>
      </trkpt>
      <trkpt lat="45.70327" lon="3.78025">
        <ele>1383.2</ele>
      </trkpt>
      <trkpt lat="45.70335" lon="3.7805">
        <ele>1381.9</ele>
      </trkpt>
      <trkpt lat="45.70344" lon="3.78075">
        <ele>1380.1</ele>
      </trkpt>
      <trkpt lat="45.70355" lon="3.78102">
        <ele>1377.9</ele>
      </trkpt>
      <trkpt lat="45.70355" lon="3.78102">
        <ele>1377.9</ele>
      </trkpt>
      <trkpt lat="45.70373" lon="3.78109">
        <ele>1376.9</ele>
      </trkpt>
      <trkpt lat="45.70391" lon="3.78116">
        <ele>1376</ele>
      </trkpt>
      <trkpt lat="45.70409" lon="3.78123">
        <ele>1375.2</ele>
      </trkpt>
      <trkpt lat="45.70428" lon="3.78125">
        <ele>1374.4</ele>
      </trkpt>
      <trkpt lat="45.70448" lon="3.78131">
        <ele>1373.2</ele>
      </trkpt>
      <trkpt lat="45.70467" lon="3.78137">
        <ele>1371.9</ele>
      </trkpt>
      <trkpt lat="45.70483" lon="3.78146">
        <ele>1370.4</ele>
      </trkpt>
      <trkpt lat="45.70499" lon="3.78154">
        <ele>1369</ele>
      </trkpt>
      <trkpt lat="45.70512" lon="3.78165">
        <ele>1367.1</ele>
      </trkpt>
      <trkpt lat="45.70525" lon="3.78176">
        <ele>1364.9</ele>
      </trkpt>
      <trkpt lat="45.70546" lon="3.78181">
        <ele>1362.6</ele>
      </trkpt>
      <trkpt lat="45.70567" lon="3.78187">
        <ele>1360.4</ele>
      </trkpt>
      <trkpt lat="45.70586" lon="3.7819">
        <ele>1358.7</ele>
      </trkpt>
      <trkpt lat="45.70606" lon="3.78193">
        <ele>1358.1</ele>
      </trkpt>
      <trkpt lat="45.70625" lon="3.78196">
        <ele>1357.5</ele>
      </trkpt>
      <trkpt lat="45.70644" lon="3.78192">
        <ele>1357.5</ele>
      </trkpt>
      <trkpt lat="45.70663" lon="3.78188">
        <ele>1357.3</ele>
      </trkpt>
      <trkpt lat="45.70685" lon="3.78194">
        <ele>1357.1</ele>
      </trkpt>
      <trkpt lat="45.70687" lon="3.78201">
        <ele>1356.9</ele>
      </trkpt>
      <trkpt lat="45.70691" lon="3.78204">
        <ele>1356.8</ele>
      </trkpt>
      <trkpt lat="45.70705" lon="3.78206">
        <ele>1356.8</ele>
      </trkpt>
      <trkpt lat="45.70724" lon="3.7821">
        <ele>1356.8</ele>
      </trkpt>
      <trkpt lat="45.7074" lon="3.78213">
        <ele>1356.8</ele>
      </trkpt>
      <trkpt lat="45.7076" lon="3.78216">
        <ele>1356.8</ele>
      </trkpt>
      <trkpt lat="45.70772" lon="3.78215">
        <ele>1356.8</ele>
      </trkpt>
      <trkpt lat="45.7079" lon="3.78212">
        <ele>1356.9</ele>
      </trkpt>
      <trkpt lat="45.70804" lon="3.78209">
        <ele>1357</ele>
      </trkpt>
      <trkpt lat="45.70804" lon="3.78209">
        <ele>1357</ele>
      </trkpt>
      <trkpt lat="45.70819" lon="3.78207">
        <ele>1357</ele>
      </trkpt>
      <trkpt lat="45.70832" lon="3.78207">
        <ele>1357.1</ele>
      </trkpt>
      <trkpt lat="45.70845" lon="3.78206">
        <ele>1356</ele>
      </trkpt>
      <trkpt lat="45.70858" lon="3.78206">
        <ele>1354.8</ele>
      </trkpt>
      <trkpt lat="45.7087" lon="3.78206">
        <ele>1353.5</ele>
      </trkpt>
      <trkpt lat="45.70883" lon="3.78208">
        <ele>1352.2</ele>
      </trkpt>
      <trkpt lat="45.70896" lon="3.7821">
        <ele>1350.9</ele>
      </trkpt>
      <trkpt lat="45.70909" lon="3.78212">
        <ele>1349.5</ele>
      </trkpt>
      <trkpt lat="45.70927" lon="3.78218">
        <ele>1347.6</ele>
      </trkpt>
      <trkpt lat="45.70944" lon="3.78225">
        <ele>1345.7</ele>
      </trkpt>
      <trkpt lat="45.70964" lon="3.78234">
        <ele>1343.2</ele>
      </trkpt>
      <trkpt lat="45.70983" lon="3.78242">
        <ele>1340.5</ele>
      </trkpt>
      <trkpt lat="45.71002" lon="3.78248">
        <ele>1338.1</ele>
      </trkpt>
      <trkpt lat="45.71014" lon="3.78252">
        <ele>1337.5</ele>
      </trkpt>
      <trkpt lat="45.71026" lon="3.78256">
        <ele>1337</ele>
      </trkpt>
      <trkpt lat="45.7104" lon="3.7826">
        <ele>1336.3</ele>
      </trkpt>
      <trkpt lat="45.71055" lon="3.78268">
        <ele>1335.5</ele>
      </trkpt>
      <trkpt lat="45.71073" lon="3.78276">
        <ele>1334.5</ele>
      </trkpt>
      <trkpt lat="45.71087" lon="3.78278">
        <ele>1333.8</ele>
      </trkpt>
      <trkpt lat="45.71099" lon="3.7828">
        <ele>1333.3</ele>
      </trkpt>
      <trkpt lat="45.71117" lon="3.78274">
        <ele>1332.6</ele>
      </trkpt>
      <trkpt lat="45.71134" lon="3.7827">
        <ele>1332</ele>
      </trkpt>
      <trkpt lat="45.71136" lon="3.78259">
        <ele>1332.2</ele>
      </trkpt>
      <trkpt lat="45.71141" lon="3.78259">
        <ele>1332</ele>
      </trkpt>
      <trkpt lat="45.71149" lon="3.78251">
        <ele>1331.8</ele>
      </trkpt>
      <trkpt lat="45.71161" lon="3.78237">
        <ele>1331.2</ele>
      </trkpt>
      <trkpt lat="45.7117" lon="3.78222">
        <ele>1330.7</ele>
      </trkpt>
      <trkpt lat="45.71179" lon="3.78206">
        <ele>1330.6</ele>
      </trkpt>
      <trkpt lat="45.71185" lon="3.78204">
        <ele>1330.6</ele>
      </trkpt>
      <trkpt lat="45.71206" lon="3.78202">
        <ele>1330.7</ele>
      </trkpt>
      <trkpt lat="45.71219" lon="3.78199">
        <ele>1330.8</ele>
      </trkpt>
      <trkpt lat="45.71232" lon="3.7819">
        <ele>1330.8</ele>
      </trkpt>
      <trkpt lat="45.71245" lon="3.78181">
        <ele>1331</ele>
      </trkpt>
      <trkpt lat="45.71245" lon="3.78181">
        <ele>1331</ele>
      </trkpt>
      <trkpt lat="45.7126" lon="3.7817">
        <ele>1330.8</ele>
      </trkpt>
      <trkpt lat="45.71274" lon="3.78159">
        <ele>1330.3</ele>
      </trkpt>
      <trkpt lat="45.71289" lon="3.78149">
        <ele>1329.8</ele>
      </trkpt>
      <trkpt lat="45.71306" lon="3.78133">
        <ele>1329.4</ele>
      </trkpt>
      <trkpt lat="45.71323" lon="3.78117">
        <ele>1329.1</ele>
      </trkpt>
      <trkpt lat="45.71341" lon="3.78101">
        <ele>1328.7</ele>
      </trkpt>
      <trkpt lat="45.71358" lon="3.78086">
        <ele>1328.1</ele>
      </trkpt>
      <trkpt lat="45.71375" lon="3.7807">
        <ele>1327.7</ele>
      </trkpt>
      <trkpt lat="45.71382" lon="3.78057">
        <ele>1327.8</ele>
      </trkpt>
      <trkpt lat="45.71389" lon="3.78044">
        <ele>1327.9</ele>
      </trkpt>
      <trkpt lat="45.71397" lon="3.78027">
        <ele>1328.3</ele>
      </trkpt>
      <trkpt lat="45.71404" lon="3.7801">
        <ele>1328.7</ele>
      </trkpt>
      <trkpt lat="45.71415" lon="3.77992">
        <ele>1328.8</ele>
      </trkpt>
      <trkpt lat="45.71425" lon="3.77975">
        <ele>1328.3</ele>
      </trkpt>
      <trkpt lat="45.71441" lon="3.77954">
        <ele>1328</ele>
      </trkpt>
      <trkpt lat="45.71455" lon="3.7793">
        <ele>1327.9</ele>
      </trkpt>
      <trkpt lat="45.71462" lon="3.77914">
        <ele>1328.2</ele>
      </trkpt>
      <trkpt lat="45.71466" lon="3.77888">
        <ele>1328.9</ele>
      </trkpt>
      <trkpt lat="45.71469" lon="3.7786">
        <ele>1329.8</ele>
      </trkpt>
      <trkpt lat="45.7147" lon="3.77835">
        <ele>1330.5</ele>
      </trkpt>
      <trkpt lat="45.71474" lon="3.77822">
        <ele>1330.9</ele>
      </trkpt>
      <trkpt lat="45.71478" lon="3.77811">
        <ele>1331.3</ele>
      </trkpt>
      <trkpt lat="45.71482" lon="3.77806">
        <ele>1331.6</ele>
      </trkpt>
      <trkpt lat="45.71491" lon="3.77797">
        <ele>1332.3</ele>
      </trkpt>
      <trkpt lat="45.71499" lon="3.77791">
        <ele>1333</ele>
      </trkpt>
      <trkpt lat="45.71509" lon="3.7779">
        <ele>1333.6</ele>
      </trkpt>
      <trkpt lat="45.71519" lon="3.77793">
        <ele>1334.2</ele>
      </trkpt>
      <trkpt lat="45.71535" lon="3.77803">
        <ele>1335</ele>
      </trkpt>
      <trkpt lat="45.71551" lon="3.77813">
        <ele>1335.7</ele>
      </trkpt>
      <trkpt lat="45.71567" lon="3.77824">
        <ele>1336.4</ele>
      </trkpt>
      <trkpt lat="45.71573" lon="3.77827">
        <ele>1336.6</ele>
      </trkpt>
      <trkpt lat="45.71573" lon="3.77827">
        <ele>1336.6</ele>
      </trkpt>
      <trkpt lat="45.7159" lon="3.77836">
        <ele>1336.9</ele>
      </trkpt>
      <trkpt lat="45.71601" lon="3.77843">
        <ele>1336.6</ele>
      </trkpt>
      <trkpt lat="45.71612" lon="3.7785">
        <ele>1336.2</ele>
      </trkpt>
      <trkpt lat="45.71624" lon="3.77857">
        <ele>1335.9</ele>
      </trkpt>
      <trkpt lat="45.71637" lon="3.77861">
        <ele>1335.7</ele>
      </trkpt>
      <trkpt lat="45.71647" lon="3.77862">
        <ele>1335.8</ele>
      </trkpt>
      <trkpt lat="45.71659" lon="3.77862">
        <ele>1336.1</ele>
      </trkpt>
      <trkpt lat="45.71669" lon="3.77859">
        <ele>1336.5</ele>
      </trkpt>
      <trkpt lat="45.71683" lon="3.77852">
        <ele>1336.8</ele>
      </trkpt>
      <trkpt lat="45.71689" lon="3.77849">
        <ele>1337.1</ele>
      </trkpt>
      <trkpt lat="45.71706" lon="3.77837">
        <ele>1338.1</ele>
      </trkpt>
      <trkpt lat="45.7171" lon="3.77834">
        <ele>1338.4</ele>
      </trkpt>
      <trkpt lat="45.71723" lon="3.77821">
        <ele>1339.5</ele>
      </trkpt>
      <trkpt lat="45.71739" lon="3.778">
        <ele>1341.6</ele>
      </trkpt>
      <trkpt lat="45.71752" lon="3.77777">
        <ele>1343.8</ele>
      </trkpt>
      <trkpt lat="45.71764" lon="3.77755">
        <ele>1345</ele>
      </trkpt>
      <trkpt lat="45.71773" lon="3.77742">
        <ele>1345.1</ele>
      </trkpt>
      <trkpt lat="45.71782" lon="3.7773">
        <ele>1345.1</ele>
      </trkpt>
      <trkpt lat="45.71793" lon="3.77723">
        <ele>1344.6</ele>
      </trkpt>
      <trkpt lat="45.71805" lon="3.7772">
        <ele>1343.9</ele>
      </trkpt>
      <trkpt lat="45.71818" lon="3.77719">
        <ele>1343</ele>
      </trkpt>
      <trkpt lat="45.71829" lon="3.77716">
        <ele>1342.4</ele>
      </trkpt>
      <trkpt lat="45.7184" lon="3.7771">
        <ele>1342.3</ele>
      </trkpt>
      <trkpt lat="45.71854" lon="3.77702">
        <ele>1342.3</ele>
      </trkpt>
      <trkpt lat="45.71869" lon="3.77693">
        <ele>1342.3</ele>
      </trkpt>
      <trkpt lat="45.71881" lon="3.7769">
        <ele>1341.7</ele>
      </trkpt>
      <trkpt lat="45.71896" lon="3.77688">
        <ele>1340.8</ele>
      </trkpt>
      <trkpt lat="45.71915" lon="3.77686">
        <ele>1339.5</ele>
      </trkpt>
      <trkpt lat="45.71928" lon="3.77684">
        <ele>1338.9</ele>
      </trkpt>
      <trkpt lat="45.71945" lon="3.77678">
        <ele>1338.2</ele>
      </trkpt>
      <trkpt lat="45.71962" lon="3.77673">
        <ele>1337.4</ele>
      </trkpt>
      <trkpt lat="45.7198" lon="3.7767">
        <ele>1336.3</ele>
      </trkpt>
      <trkpt lat="45.71993" lon="3.7767">
        <ele>1335.4</ele>
      </trkpt>
      <trkpt lat="45.71993" lon="3.7767">
        <ele>1335.4</ele>
      </trkpt>
      <trkpt lat="45.72" lon="3.7767">
        <ele>1334.9</ele>
      </trkpt>
      <trkpt lat="45.72006" lon="3.7767">
        <ele>1334.8</ele>
      </trkpt>
      <trkpt lat="45.72018" lon="3.77672">
        <ele>1334.6</ele>
      </trkpt>
      <trkpt lat="45.72027" lon="3.77675">
        <ele>1334.4</ele>
      </trkpt>
      <trkpt lat="45.7204" lon="3.77683">
        <ele>1334.1</ele>
      </trkpt>
      <trkpt lat="45.72057" lon="3.77694">
        <ele>1333.8</ele>
      </trkpt>
      <trkpt lat="45.72075" lon="3.77707">
        <ele>1333.5</ele>
      </trkpt>
      <trkpt lat="45.72091" lon="3.7772">
        <ele>1333.8</ele>
      </trkpt>
      <trkpt lat="45.72106" lon="3.77731">
        <ele>1334.6</ele>
      </trkpt>
      <trkpt lat="45.72118" lon="3.77739">
        <ele>1335.4</ele>
      </trkpt>
      <trkpt lat="45.72133" lon="3.77751">
        <ele>1336.6</ele>
      </trkpt>
      <trkpt lat="45.72142" lon="3.77757">
        <ele>1337.3</ele>
      </trkpt>
      <trkpt lat="45.72153" lon="3.77765">
        <ele>1338.1</ele>
      </trkpt>
      <trkpt lat="45.72164" lon="3.77773">
        <ele>1339.1</ele>
      </trkpt>
      <trkpt lat="45.72174" lon="3.77781">
        <ele>1339.5</ele>
      </trkpt>
      <trkpt lat="45.72185" lon="3.77789">
        <ele>1339.8</ele>
      </trkpt>
      <trkpt lat="45.72196" lon="3.77798">
        <ele>1340.1</ele>
      </trkpt>
      <trkpt lat="45.72203" lon="3.77806">
        <ele>1340.4</ele>
      </trkpt>
      <trkpt lat="45.72214" lon="3.77819">
        <ele>1340.9</ele>
      </trkpt>
      <trkpt lat="45.72199" lon="3.77829">
        <ele>1340.7</ele>
      </trkpt>
      <trkpt lat="45.72185" lon="3.77836">
        <ele>1340.5</ele>
      </trkpt>
      <trkpt lat="45.72173" lon="3.77842">
        <ele>1340.5</ele>
      </trkpt>
      <trkpt lat="45.72162" lon="3.77848">
        <ele>1340.1</ele>
      </trkpt>
      <trkpt lat="45.7215" lon="3.77857">
        <ele>1339.4</ele>
      </trkpt>
      <trkpt lat="45.72138" lon="3.77866">
        <ele>1338.6</ele>
      </trkpt>
      <trkpt lat="45.72119" lon="3.7788">
        <ele>1337.3</ele>
      </trkpt>
      <trkpt lat="45.72103" lon="3.77896">
        <ele>1336.3</ele>
      </trkpt>
      <trkpt lat="45.72093" lon="3.77909">
        <ele>1335.7</ele>
      </trkpt>
      <trkpt lat="45.72083" lon="3.77928">
        <ele>1335.1</ele>
      </trkpt>
      <trkpt lat="45.72076" lon="3.77944">
        <ele>1334.5</ele>
      </trkpt>
      <trkpt lat="45.72069" lon="3.7796">
        <ele>1334</ele>
      </trkpt>
      <trkpt lat="45.7206" lon="3.77981">
        <ele>1333.2</ele>
      </trkpt>
      <trkpt lat="45.72051" lon="3.78002">
        <ele>1332.5</ele>
      </trkpt>
      <trkpt lat="45.72043" lon="3.78019">
        <ele>1331.6</ele>
      </trkpt>
      <trkpt lat="45.72043" lon="3.78019">
        <ele>1331.6</ele>
      </trkpt>
      <trkpt lat="45.72035" lon="3.78037">
        <ele>1330.8</ele>
      </trkpt>
      <trkpt lat="45.72027" lon="3.78055">
        <ele>1330</ele>
      </trkpt>
      <trkpt lat="45.7202" lon="3.78073">
        <ele>1329.1</ele>
      </trkpt>
      <trkpt lat="45.72014" lon="3.78087">
        <ele>1328.4</ele>
      </trkpt>
      <trkpt lat="45.72011" lon="3.78101">
        <ele>1327.9</ele>
      </trkpt>
      <trkpt lat="45.72009" lon="3.78114">
        <ele>1327.6</ele>
      </trkpt>
      <trkpt lat="45.7201" lon="3.78131">
        <ele>1327.5</ele>
      </trkpt>
      <trkpt lat="45.72012" lon="3.78146">
        <ele>1327.5</ele>
      </trkpt>
      <trkpt lat="45.72015" lon="3.78161">
        <ele>1327.7</ele>
      </trkpt>
      <trkpt lat="45.72021" lon="3.78182">
        <ele>1327.5</ele>
      </trkpt>
      <trkpt lat="45.72028" lon="3.782">
        <ele>1327.5</ele>
      </trkpt>
      <trkpt lat="45.72035" lon="3.78212">
        <ele>1327.5</ele>
      </trkpt>
      <trkpt lat="45.72047" lon="3.78229">
        <ele>1327.6</ele>
      </trkpt>
      <trkpt lat="45.72064" lon="3.78247">
        <ele>1327.8</ele>
      </trkpt>
      <trkpt lat="45.72074" lon="3.78256">
        <ele>1327.9</ele>
      </trkpt>
      <trkpt lat="45.72084" lon="3.78265">
        <ele>1327.9</ele>
      </trkpt>
      <trkpt lat="45.72093" lon="3.78276">
        <ele>1328.3</ele>
      </trkpt>
      <trkpt lat="45.72103" lon="3.78287">
        <ele>1328.7</ele>
      </trkpt>
      <trkpt lat="45.72117" lon="3.78304">
        <ele>1329.2</ele>
      </trkpt>
      <trkpt lat="45.72131" lon="3.7832">
        <ele>1329.6</ele>
      </trkpt>
      <trkpt lat="45.72143" lon="3.78336">
        <ele>1329.9</ele>
      </trkpt>
      <trkpt lat="45.72155" lon="3.78352">
        <ele>1329.4</ele>
      </trkpt>
      <trkpt lat="45.72169" lon="3.78367">
        <ele>1329.2</ele>
      </trkpt>
      <trkpt lat="45.72182" lon="3.78382">
        <ele>1328.9</ele>
      </trkpt>
      <trkpt lat="45.72192" lon="3.78392">
        <ele>1329.1</ele>
      </trkpt>
      <trkpt lat="45.72202" lon="3.78402">
        <ele>1329.3</ele>
      </trkpt>
      <trkpt lat="45.72213" lon="3.78411">
        <ele>1329.7</ele>
      </trkpt>
      <trkpt lat="45.72224" lon="3.7842">
        <ele>1329.9</ele>
      </trkpt>
      <trkpt lat="45.72238" lon="3.78431">
        <ele>1329.7</ele>
      </trkpt>
      <trkpt lat="45.72252" lon="3.78442">
        <ele>1329.3</ele>
      </trkpt>
      <trkpt lat="45.7227" lon="3.78454">
        <ele>1327.9</ele>
      </trkpt>
      <trkpt lat="45.72282" lon="3.7846">
        <ele>1327.4</ele>
      </trkpt>
      <trkpt lat="45.72298" lon="3.78466">
        <ele>1327.1</ele>
      </trkpt>
      <trkpt lat="45.72298" lon="3.78466">
        <ele>1327.1</ele>
      </trkpt>
      <trkpt lat="45.72316" lon="3.7847">
        <ele>1327.3</ele>
      </trkpt>
      <trkpt lat="45.72334" lon="3.78473">
        <ele>1327.7</ele>
      </trkpt>
      <trkpt lat="45.72355" lon="3.78475">
        <ele>1328.8</ele>
      </trkpt>
      <trkpt lat="45.72375" lon="3.78479">
        <ele>1329.5</ele>
      </trkpt>
      <trkpt lat="45.72395" lon="3.78482">
        <ele>1330.2</ele>
      </trkpt>
      <trkpt lat="45.72413" lon="3.78486">
        <ele>1330.8</ele>
      </trkpt>
      <trkpt lat="45.7243" lon="3.78489">
        <ele>1330.6</ele>
      </trkpt>
      <trkpt lat="45.72447" lon="3.78492">
        <ele>1330.1</ele>
      </trkpt>
      <trkpt lat="45.72465" lon="3.78496">
        <ele>1329.5</ele>
      </trkpt>
      <trkpt lat="45.72478" lon="3.78498">
        <ele>1329.3</ele>
      </trkpt>
      <trkpt lat="45.72494" lon="3.78497">
        <ele>1329.7</ele>
      </trkpt>
      <trkpt lat="45.72512" lon="3.78496">
        <ele>1330.2</ele>
      </trkpt>
      <trkpt lat="45.72531" lon="3.78496">
        <ele>1330.4</ele>
      </trkpt>
      <trkpt lat="45.72548" lon="3.78497">
        <ele>1330.4</ele>
      </trkpt>
      <trkpt lat="45.72562" lon="3.78496">
        <ele>1330.7</ele>
      </trkpt>
      <trkpt lat="45.72577" lon="3.78495">
        <ele>1331.2</ele>
      </trkpt>
      <trkpt lat="45.72596" lon="3.7849">
        <ele>1332.2</ele>
      </trkpt>
      <trkpt lat="45.72616" lon="3.78486">
        <ele>1332.9</ele>
      </trkpt>
      <trkpt lat="45.72629" lon="3.78484">
        <ele>1332.9</ele>
      </trkpt>
      <trkpt lat="45.72641" lon="3.78483">
        <ele>1332.9</ele>
      </trkpt>
      <trkpt lat="45.72662" lon="3.78481">
        <ele>1332.8</ele>
      </trkpt>
      <trkpt lat="45.72684" lon="3.78477">
        <ele>1332.1</ele>
      </trkpt>
      <trkpt lat="45.72706" lon="3.78474">
        <ele>1330.9</ele>
      </trkpt>
      <trkpt lat="45.72719" lon="3.78474">
        <ele>1330</ele>
      </trkpt>
      <trkpt lat="45.72732" lon="3.78473">
        <ele>1329</ele>
      </trkpt>
      <trkpt lat="45.72748" lon="3.78473">
        <ele>1327.7</ele>
      </trkpt>
      <trkpt lat="45.72761" lon="3.78475">
        <ele>1326.9</ele>
      </trkpt>
      <trkpt lat="45.72761" lon="3.78475">
        <ele>1326.9</ele>
      </trkpt>
      <trkpt lat="45.72772" lon="3.78479">
        <ele>1325.9</ele>
      </trkpt>
      <trkpt lat="45.7279" lon="3.78488">
        <ele>1323.9</ele>
      </trkpt>
      <trkpt lat="45.72806" lon="3.78495">
        <ele>1322.4</ele>
      </trkpt>
      <trkpt lat="45.72824" lon="3.78502">
        <ele>1320.9</ele>
      </trkpt>
      <trkpt lat="45.72838" lon="3.78507">
        <ele>1320</ele>
      </trkpt>
      <trkpt lat="45.72859" lon="3.78516">
        <ele>1318.9</ele>
      </trkpt>
      <trkpt lat="45.72874" lon="3.78526">
        <ele>1317.9</ele>
      </trkpt>
      <trkpt lat="45.7289" lon="3.78536">
        <ele>1317</ele>
      </trkpt>
      <trkpt lat="45.72899" lon="3.7854">
        <ele>1316.7</ele>
      </trkpt>
      <trkpt lat="45.72907" lon="3.78541">
        <ele>1316.8</ele>
      </trkpt>
      <trkpt lat="45.72914" lon="3.78541">
        <ele>1317</ele>
      </trkpt>
      <trkpt lat="45.7292" lon="3.7854">
        <ele>1316.9</ele>
      </trkpt>
      <trkpt lat="45.72926" lon="3.78539">
        <ele>1316.5</ele>
      </trkpt>
      <trkpt lat="45.72938" lon="3.78536">
        <ele>1316.1</ele>
      </trkpt>
      <trkpt lat="45.72949" lon="3.78531">
        <ele>1315.8</ele>
      </trkpt>
      <trkpt lat="45.72957" lon="3.78524">
        <ele>1315.8</ele>
      </trkpt>
      <trkpt lat="45.72965" lon="3.78518">
        <ele>1315.8</ele>
      </trkpt>
      <trkpt lat="45.72971" lon="3.7851">
        <ele>1316.1</ele>
      </trkpt>
      <trkpt lat="45.7298" lon="3.78497">
        <ele>1316.6</ele>
      </trkpt>
      <trkpt lat="45.72988" lon="3.78481">
        <ele>1316.9</ele>
      </trkpt>
      <trkpt lat="45.73" lon="3.78455">
        <ele>1317.1</ele>
      </trkpt>
      <trkpt lat="45.7301" lon="3.78436">
        <ele>1316</ele>
      </trkpt>
      <trkpt lat="45.73022" lon="3.78418">
        <ele>1314.2</ele>
      </trkpt>
      <trkpt lat="45.73033" lon="3.78403">
        <ele>1312.4</ele>
      </trkpt>
      <trkpt lat="45.73043" lon="3.78389">
        <ele>1310.8</ele>
      </trkpt>
      <trkpt lat="45.73056" lon="3.78372">
        <ele>1309.3</ele>
      </trkpt>
      <trkpt lat="45.73069" lon="3.78355">
        <ele>1308</ele>
      </trkpt>
      <trkpt lat="45.73083" lon="3.78337">
        <ele>1306.8</ele>
      </trkpt>
      <trkpt lat="45.73098" lon="3.78318">
        <ele>1306</ele>
      </trkpt>
      <trkpt lat="45.73106" lon="3.78306">
        <ele>1305.7</ele>
      </trkpt>
      <trkpt lat="45.73115" lon="3.78293">
        <ele>1305.6</ele>
      </trkpt>
      <trkpt lat="45.73125" lon="3.78278">
        <ele>1305.8</ele>
      </trkpt>
      <trkpt lat="45.73135" lon="3.78262">
        <ele>1306.2</ele>
      </trkpt>
      <trkpt lat="45.73144" lon="3.78249">
        <ele>1306.5</ele>
      </trkpt>
      <trkpt lat="45.73144" lon="3.78249">
        <ele>1306.5</ele>
      </trkpt>
      <trkpt lat="45.73154" lon="3.78236">
        <ele>1306.1</ele>
      </trkpt>
      <trkpt lat="45.73165" lon="3.78224">
        <ele>1305.5</ele>
      </trkpt>
      <trkpt lat="45.73175" lon="3.78213">
        <ele>1304.7</ele>
      </trkpt>
      <trkpt lat="45.73189" lon="3.78195">
        <ele>1303.7</ele>
      </trkpt>
      <trkpt lat="45.73195" lon="3.78186">
        <ele>1303.3</ele>
      </trkpt>
      <trkpt lat="45.73206" lon="3.78172">
        <ele>1302.5</ele>
      </trkpt>
      <trkpt lat="45.73221" lon="3.78152">
        <ele>1301.5</ele>
      </trkpt>
      <trkpt lat="45.73236" lon="3.78136">
        <ele>1300.6</ele>
      </trkpt>
      <trkpt lat="45.73251" lon="3.78122">
        <ele>1299.6</ele>
      </trkpt>
      <trkpt lat="45.73261" lon="3.78109">
        <ele>1299</ele>
      </trkpt>
      <trkpt lat="45.73265" lon="3.78105">
        <ele>1298.8</ele>
      </trkpt>
      <trkpt lat="45.73278" lon="3.78089">
        <ele>1298.2</ele>
      </trkpt>
      <trkpt lat="45.73288" lon="3.78078">
        <ele>1297.9</ele>
      </trkpt>
      <trkpt lat="45.73302" lon="3.78066">
        <ele>1297.4</ele>
      </trkpt>
      <trkpt lat="45.73313" lon="3.78057">
        <ele>1297</ele>
      </trkpt>
      <trkpt lat="45.73331" lon="3.78048">
        <ele>1296.1</ele>
      </trkpt>
      <trkpt lat="45.73346" lon="3.7804">
        <ele>1294.8</ele>
      </trkpt>
      <trkpt lat="45.73357" lon="3.78033">
        <ele>1293.8</ele>
      </trkpt>
      <trkpt lat="45.7337" lon="3.78025">
        <ele>1292.8</ele>
      </trkpt>
      <trkpt lat="45.73381" lon="3.78016">
        <ele>1292.2</ele>
      </trkpt>
      <trkpt lat="45.73392" lon="3.78005">
        <ele>1291.9</ele>
      </trkpt>
      <trkpt lat="45.73404" lon="3.77991">
        <ele>1292.1</ele>
      </trkpt>
      <trkpt lat="45.73413" lon="3.77982">
        <ele>1292</ele>
      </trkpt>
      <trkpt lat="45.73424" lon="3.77973">
        <ele>1292.3</ele>
      </trkpt>
      <trkpt lat="45.73436" lon="3.77967">
        <ele>1292.3</ele>
      </trkpt>
      <trkpt lat="45.73447" lon="3.77963">
        <ele>1292.1</ele>
      </trkpt>
      <trkpt lat="45.73451" lon="3.77962">
        <ele>1292</ele>
      </trkpt>
      <trkpt lat="45.73473" lon="3.77958">
        <ele>1291.1</ele>
      </trkpt>
      <trkpt lat="45.73489" lon="3.77956">
        <ele>1290.2</ele>
      </trkpt>
      <trkpt lat="45.73506" lon="3.77954">
        <ele>1289.5</ele>
      </trkpt>
      <trkpt lat="45.73517" lon="3.77953">
        <ele>1289.1</ele>
      </trkpt>
      <trkpt lat="45.73529" lon="3.77952">
        <ele>1288.7</ele>
      </trkpt>
      <trkpt lat="45.73544" lon="3.77949">
        <ele>1288.3</ele>
      </trkpt>
      <trkpt lat="45.73561" lon="3.77945">
        <ele>1288.1</ele>
      </trkpt>
      <trkpt lat="45.73561" lon="3.77945">
        <ele>1288.1</ele>
      </trkpt>
      <trkpt lat="45.73576" lon="3.77939">
        <ele>1288.2</ele>
      </trkpt>
      <trkpt lat="45.73587" lon="3.77933">
        <ele>1288.6</ele>
      </trkpt>
      <trkpt lat="45.73598" lon="3.77928">
        <ele>1289.6</ele>
      </trkpt>
      <trkpt lat="45.73619" lon="3.7792">
        <ele>1291</ele>
      </trkpt>
      <trkpt lat="45.73636" lon="3.77916">
        <ele>1291.7</ele>
      </trkpt>
      <trkpt lat="45.73648" lon="3.77916">
        <ele>1291.9</ele>
      </trkpt>
      <trkpt lat="45.73663" lon="3.7792">
        <ele>1291.5</ele>
      </trkpt>
      <trkpt lat="45.7368" lon="3.77926">
        <ele>1290.9</ele>
      </trkpt>
      <trkpt lat="45.7369" lon="3.77931">
        <ele>1290.4</ele>
      </trkpt>
      <trkpt lat="45.73701" lon="3.77938">
        <ele>1289.7</ele>
      </trkpt>
      <trkpt lat="45.73712" lon="3.77946">
        <ele>1288.7</ele>
      </trkpt>
      <trkpt lat="45.73724" lon="3.77954">
        <ele>1287.7</ele>
      </trkpt>
      <trkpt lat="45.73745" lon="3.77965">
        <ele>1286.4</ele>
      </trkpt>
      <trkpt lat="45.73764" lon="3.77975">
        <ele>1285.1</ele>
      </trkpt>
      <trkpt lat="45.73778" lon="3.7798">
        <ele>1284.7</ele>
      </trkpt>
      <trkpt lat="45.73795" lon="3.77984">
        <ele>1284.5</ele>
      </trkpt>
      <trkpt lat="45.73815" lon="3.77986">
        <ele>1284.6</ele>
      </trkpt>
      <trkpt lat="45.73837" lon="3.7799">
        <ele>1284.6</ele>
      </trkpt>
      <trkpt lat="45.73848" lon="3.77991">
        <ele>1284.6</ele>
      </trkpt>
      <trkpt lat="45.7386" lon="3.77993">
        <ele>1284.7</ele>
      </trkpt>
      <trkpt lat="45.73873" lon="3.77994">
        <ele>1284.8</ele>
      </trkpt>
      <trkpt lat="45.73886" lon="3.77995">
        <ele>1284.9</ele>
      </trkpt>
      <trkpt lat="45.739" lon="3.77996">
        <ele>1285.1</ele>
      </trkpt>
      <trkpt lat="45.73914" lon="3.77997">
        <ele>1285.3</ele>
      </trkpt>
      <trkpt lat="45.73932" lon="3.78001">
        <ele>1283.5</ele>
      </trkpt>
      <trkpt lat="45.73949" lon="3.78004">
        <ele>1281.3</ele>
      </trkpt>
      <trkpt lat="45.73961" lon="3.78004">
        <ele>1280.1</ele>
      </trkpt>
      <trkpt lat="45.73972" lon="3.78005">
        <ele>1279</ele>
      </trkpt>
      <trkpt lat="45.73988" lon="3.78005">
        <ele>1277.6</ele>
      </trkpt>
      <trkpt lat="45.74003" lon="3.78006">
        <ele>1276.2</ele>
      </trkpt>
      <trkpt lat="45.74023" lon="3.78006">
        <ele>1275.2</ele>
      </trkpt>
      <trkpt lat="45.74023" lon="3.78006">
        <ele>1275.2</ele>
      </trkpt>
      <trkpt lat="45.74045" lon="3.78003">
        <ele>1274.6</ele>
      </trkpt>
      <trkpt lat="45.74063" lon="3.77999">
        <ele>1274</ele>
      </trkpt>
      <trkpt lat="45.74081" lon="3.77996">
        <ele>1273.4</ele>
      </trkpt>
      <trkpt lat="45.74081" lon="3.77996">
        <ele>1273.4</ele>
      </trkpt>
      <trkpt lat="45.741" lon="3.77994">
        <ele>1271.6</ele>
      </trkpt>
      <trkpt lat="45.7412" lon="3.77992">
        <ele>1269.6</ele>
      </trkpt>
      <trkpt lat="45.74139" lon="3.7799">
        <ele>1267.6</ele>
      </trkpt>
      <trkpt lat="45.74151" lon="3.77987">
        <ele>1266.4</ele>
      </trkpt>
      <trkpt lat="45.74161" lon="3.77982">
        <ele>1265.5</ele>
      </trkpt>
      <trkpt lat="45.7417" lon="3.77974">
        <ele>1264.7</ele>
      </trkpt>
      <trkpt lat="45.74181" lon="3.77965">
        <ele>1263.4</ele>
      </trkpt>
      <trkpt lat="45.74194" lon="3.77958">
        <ele>1261.8</ele>
      </trkpt>
      <trkpt lat="45.74205" lon="3.77954">
        <ele>1260.3</ele>
      </trkpt>
      <trkpt lat="45.74212" lon="3.77954">
        <ele>1259.1</ele>
      </trkpt>
      <trkpt lat="45.74225" lon="3.77959">
        <ele>1256.8</ele>
      </trkpt>
      <trkpt lat="45.74239" lon="3.77964">
        <ele>1254.5</ele>
      </trkpt>
      <trkpt lat="45.74248" lon="3.77968">
        <ele>1252.8</ele>
      </trkpt>
      <trkpt lat="45.74259" lon="3.77972">
        <ele>1252.6</ele>
      </trkpt>
      <trkpt lat="45.7426" lon="3.77961">
        <ele>1253.1</ele>
      </trkpt>
      <trkpt lat="45.74262" lon="3.7795">
        <ele>1253.5</ele>
      </trkpt>
      <trkpt lat="45.74266" lon="3.77938">
        <ele>1253.9</ele>
      </trkpt>
      <trkpt lat="45.74271" lon="3.77928">
        <ele>1254</ele>
      </trkpt>
      <trkpt lat="45.74277" lon="3.77919">
        <ele>1254</ele>
      </trkpt>
      <trkpt lat="45.74285" lon="3.77911">
        <ele>1253.7</ele>
      </trkpt>
      <trkpt lat="45.74295" lon="3.77904">
        <ele>1253</ele>
      </trkpt>
      <trkpt lat="45.74297" lon="3.77925">
        <ele>1253.4</ele>
      </trkpt>
      <trkpt lat="45.74302" lon="3.7795">
        <ele>1253.8</ele>
      </trkpt>
      <trkpt lat="45.74309" lon="3.77974">
        <ele>1254.5</ele>
      </trkpt>
      <trkpt lat="45.74317" lon="3.77998">
        <ele>1255.8</ele>
      </trkpt>
      <trkpt lat="45.74324" lon="3.78017">
        <ele>1256.9</ele>
      </trkpt>
      <trkpt lat="45.74335" lon="3.78038">
        <ele>1258.5</ele>
      </trkpt>
      <trkpt lat="45.74351" lon="3.78043">
        <ele>1259.5</ele>
      </trkpt>
      <trkpt lat="45.74366" lon="3.78049">
        <ele>1260.5</ele>
      </trkpt>
      <trkpt lat="45.74384" lon="3.78041">
        <ele>1261.2</ele>
      </trkpt>
      <trkpt lat="45.74401" lon="3.78027">
        <ele>1261.8</ele>
      </trkpt>
      <trkpt lat="45.74401" lon="3.78027">
        <ele>1261.8</ele>
      </trkpt>
      <trkpt lat="45.74406" lon="3.78021">
        <ele>1261.9</ele>
      </trkpt>
      <trkpt lat="45.74419" lon="3.78005">
        <ele>1262.2</ele>
      </trkpt>
      <trkpt lat="45.74429" lon="3.78001">
        <ele>1262.6</ele>
      </trkpt>
      <trkpt lat="45.74444" lon="3.78">
        <ele>1263.3</ele>
      </trkpt>
      <trkpt lat="45.74452" lon="3.78014">
        <ele>1264</ele>
      </trkpt>
      <trkpt lat="45.74465" lon="3.78039">
        <ele>1265</ele>
      </trkpt>
      <trkpt lat="45.74478" lon="3.78063">
        <ele>1265.9</ele>
      </trkpt>
      <trkpt lat="45.74497" lon="3.78065">
        <ele>1266.7</ele>
      </trkpt>
      <trkpt lat="45.74516" lon="3.78066">
        <ele>1266.9</ele>
      </trkpt>
      <trkpt lat="45.74535" lon="3.78068">
        <ele>1267</ele>
      </trkpt>
      <trkpt lat="45.74553" lon="3.78069">
        <ele>1267.2</ele>
      </trkpt>
      <trkpt lat="45.74565" lon="3.78071">
        <ele>1267.3</ele>
      </trkpt>
      <trkpt lat="45.74576" lon="3.78073">
        <ele>1267.4</ele>
      </trkpt>
      <trkpt lat="45.74591" lon="3.78093">
        <ele>1268.6</ele>
      </trkpt>
      <trkpt lat="45.74606" lon="3.78114">
        <ele>1270</ele>
      </trkpt>
      <trkpt lat="45.74617" lon="3.78122">
        <ele>1270.7</ele>
      </trkpt>
      <trkpt lat="45.74628" lon="3.7813">
        <ele>1271.4</ele>
      </trkpt>
      <trkpt lat="45.74645" lon="3.78139">
        <ele>1272.3</ele>
      </trkpt>
      <trkpt lat="45.74662" lon="3.78148">
        <ele>1273.4</ele>
      </trkpt>
      <trkpt lat="45.74671" lon="3.78137">
        <ele>1272.3</ele>
      </trkpt>
      <trkpt lat="45.7468" lon="3.78126">
        <ele>1270.9</ele>
      </trkpt>
      <trkpt lat="45.74699" lon="3.78138">
        <ele>1270.7</ele>
      </trkpt>
      <trkpt lat="45.74719" lon="3.78149">
        <ele>1270.5</ele>
      </trkpt>
      <trkpt lat="45.74739" lon="3.78161">
        <ele>1270.2</ele>
      </trkpt>
      <trkpt lat="45.74759" lon="3.78173">
        <ele>1269.1</ele>
      </trkpt>
      <trkpt lat="45.74779" lon="3.78184">
        <ele>1267.1</ele>
      </trkpt>
      <trkpt lat="45.74799" lon="3.78196">
        <ele>1265</ele>
      </trkpt>
      <trkpt lat="45.74819" lon="3.78208">
        <ele>1263</ele>
      </trkpt>
      <trkpt lat="45.74819" lon="3.78208">
        <ele>1263</ele>
      </trkpt>
      <trkpt lat="45.74839" lon="3.78219">
        <ele>1260.7</ele>
      </trkpt>
      <trkpt lat="45.74859" lon="3.78231">
        <ele>1257.5</ele>
      </trkpt>
      <trkpt lat="45.74879" lon="3.78243">
        <ele>1254.2</ele>
      </trkpt>
      <trkpt lat="45.74899" lon="3.78254">
        <ele>1250.7</ele>
      </trkpt>
      <trkpt lat="45.74919" lon="3.78266">
        <ele>1246.7</ele>
      </trkpt>
      <trkpt lat="45.74939" lon="3.78278">
        <ele>1242.3</ele>
      </trkpt>
      <trkpt lat="45.74959" lon="3.7829">
        <ele>1237.9</ele>
      </trkpt>
      <trkpt lat="45.74979" lon="3.78301">
        <ele>1233.5</ele>
      </trkpt>
      <trkpt lat="45.74999" lon="3.78313">
        <ele>1229.1</ele>
      </trkpt>
      <trkpt lat="45.75019" lon="3.78325">
        <ele>1223.7</ele>
      </trkpt>
      <trkpt lat="45.75038" lon="3.78336">
        <ele>1217.9</ele>
      </trkpt>
      <trkpt lat="45.75058" lon="3.78348">
        <ele>1212</ele>
      </trkpt>
      <trkpt lat="45.75078" lon="3.7836">
        <ele>1206.1</ele>
      </trkpt>
      <trkpt lat="45.75098" lon="3.78371">
        <ele>1201</ele>
      </trkpt>
      <trkpt lat="45.75118" lon="3.78371">
        <ele>1196.1</ele>
      </trkpt>
      <trkpt lat="45.75138" lon="3.7837">
        <ele>1191.3</ele>
      </trkpt>
      <trkpt lat="45.75158" lon="3.78369">
        <ele>1186.5</ele>
      </trkpt>
      <trkpt lat="45.75178" lon="3.78369">
        <ele>1182.3</ele>
      </trkpt>
      <trkpt lat="45.75198" lon="3.78368">
        <ele>1178.8</ele>
      </trkpt>
      <trkpt lat="45.75218" lon="3.78368">
        <ele>1175.2</ele>
      </trkpt>
      <trkpt lat="45.75238" lon="3.78367">
        <ele>1171.7</ele>
      </trkpt>
      <trkpt lat="45.75258" lon="3.78362">
        <ele>1169.1</ele>
      </trkpt>
      <trkpt lat="45.75278" lon="3.78357">
        <ele>1167.5</ele>
      </trkpt>
      <trkpt lat="45.75278" lon="3.78357">
        <ele>1167.5</ele>
      </trkpt>
      <trkpt lat="45.75298" lon="3.78351">
        <ele>1166</ele>
      </trkpt>
      <trkpt lat="45.75318" lon="3.78346">
        <ele>1164.7</ele>
      </trkpt>
      <trkpt lat="45.75338" lon="3.78341">
        <ele>1163.7</ele>
      </trkpt>
      <trkpt lat="45.75358" lon="3.78336">
        <ele>1163.4</ele>
      </trkpt>
      <trkpt lat="45.75378" lon="3.7833">
        <ele>1163.4</ele>
      </trkpt>
      <trkpt lat="45.75398" lon="3.78325">
        <ele>1163.6</ele>
      </trkpt>
      <trkpt lat="45.75418" lon="3.7832">
        <ele>1163.8</ele>
      </trkpt>
      <trkpt lat="45.75434" lon="3.78305">
        <ele>1165.4</ele>
      </trkpt>
      <trkpt lat="45.7545" lon="3.7829">
        <ele>1167.1</ele>
      </trkpt>
      <trkpt lat="45.75466" lon="3.78275">
        <ele>1168.8</ele>
      </trkpt>
      <trkpt lat="45.75481" lon="3.78261">
        <ele>1170.5</ele>
      </trkpt>
      <trkpt lat="45.75497" lon="3.78246">
        <ele>1172.2</ele>
      </trkpt>
      <trkpt lat="45.75507" lon="3.78221">
        <ele>1175.6</ele>
      </trkpt>
      <trkpt lat="45.75517" lon="3.78195">
        <ele>1178.8</ele>
      </trkpt>
      <trkpt lat="45.75526" lon="3.7817">
        <ele>1181.9</ele>
      </trkpt>
      <trkpt lat="45.75536" lon="3.78145">
        <ele>1183.1</ele>
      </trkpt>
      <trkpt lat="45.75546" lon="3.7812">
        <ele>1183.9</ele>
      </trkpt>
      <trkpt lat="45.75556" lon="3.78095">
        <ele>1184.7</ele>
      </trkpt>
      <trkpt lat="45.75562" lon="3.7807">
        <ele>1185.9</ele>
      </trkpt>
      <trkpt lat="45.75567" lon="3.78045">
        <ele>1187</ele>
      </trkpt>
      <trkpt lat="45.75573" lon="3.78021">
        <ele>1188.1</ele>
      </trkpt>
      <trkpt lat="45.75578" lon="3.77996">
        <ele>1189.1</ele>
      </trkpt>
      <trkpt lat="45.75584" lon="3.77971">
        <ele>1189.3</ele>
      </trkpt>
      <trkpt lat="45.75594" lon="3.77942">
        <ele>1189.6</ele>
      </trkpt>
      <trkpt lat="45.75604" lon="3.77914">
        <ele>1190.9</ele>
      </trkpt>
      <trkpt lat="45.75604" lon="3.77914">
        <ele>1190.9</ele>
      </trkpt>
      <trkpt lat="45.75614" lon="3.77885">
        <ele>1194.1</ele>
      </trkpt>
      <trkpt lat="45.75624" lon="3.77857">
        <ele>1197.3</ele>
      </trkpt>
      <trkpt lat="45.75634" lon="3.77828">
        <ele>1200.8</ele>
      </trkpt>
      <trkpt lat="45.75644" lon="3.778">
        <ele>1205</ele>
      </trkpt>
      <trkpt lat="45.75654" lon="3.77771">
        <ele>1209.8</ele>
      </trkpt>
      <trkpt lat="45.75664" lon="3.77742">
        <ele>1214.6</ele>
      </trkpt>
      <trkpt lat="45.75677" lon="3.77745">
        <ele>1214.5</ele>
      </trkpt>
      <trkpt lat="45.75699" lon="3.77745">
        <ele>1214.5</ele>
      </trkpt>
      <trkpt lat="45.7572" lon="3.77745">
        <ele>1214.4</ele>
      </trkpt>
      <trkpt lat="45.75733" lon="3.77747">
        <ele>1214.3</ele>
      </trkpt>
      <trkpt lat="45.75747" lon="3.77748">
        <ele>1214.1</ele>
      </trkpt>
      <trkpt lat="45.75767" lon="3.77752">
        <ele>1214.3</ele>
      </trkpt>
      <trkpt lat="45.75779" lon="3.77756">
        <ele>1213.7</ele>
      </trkpt>
      <trkpt lat="45.75791" lon="3.77761">
        <ele>1213.2</ele>
      </trkpt>
      <trkpt lat="45.75804" lon="3.77767">
        <ele>1212.2</ele>
      </trkpt>
      <trkpt lat="45.75816" lon="3.77774">
        <ele>1211.1</ele>
      </trkpt>
      <trkpt lat="45.75832" lon="3.7778">
        <ele>1210.2</ele>
      </trkpt>
      <trkpt lat="45.75849" lon="3.77786">
        <ele>1209.4</ele>
      </trkpt>
      <trkpt lat="45.75863" lon="3.77793">
        <ele>1208.2</ele>
      </trkpt>
      <trkpt lat="45.75877" lon="3.778">
        <ele>1207.2</ele>
      </trkpt>
      <trkpt lat="45.75891" lon="3.77808">
        <ele>1206.2</ele>
      </trkpt>
      <trkpt lat="45.75905" lon="3.77814">
        <ele>1205.5</ele>
      </trkpt>
      <trkpt lat="45.75918" lon="3.7782">
        <ele>1204.8</ele>
      </trkpt>
      <trkpt lat="45.75932" lon="3.77829">
        <ele>1203.4</ele>
      </trkpt>
      <trkpt lat="45.75946" lon="3.77837">
        <ele>1201.9</ele>
      </trkpt>
      <trkpt lat="45.75963" lon="3.77851">
        <ele>1199.6</ele>
      </trkpt>
      <trkpt lat="45.75977" lon="3.77861">
        <ele>1198</ele>
      </trkpt>
      <trkpt lat="45.75991" lon="3.77868">
        <ele>1197.1</ele>
      </trkpt>
      <trkpt lat="45.75991" lon="3.77868">
        <ele>1197.1</ele>
      </trkpt>
      <trkpt lat="45.76008" lon="3.77873">
        <ele>1196.3</ele>
      </trkpt>
      <trkpt lat="45.76023" lon="3.77876">
        <ele>1195.7</ele>
      </trkpt>
      <trkpt lat="45.76038" lon="3.7788">
        <ele>1195.2</ele>
      </trkpt>
      <trkpt lat="45.76052" lon="3.77884">
        <ele>1194.4</ele>
      </trkpt>
      <trkpt lat="45.76066" lon="3.77888">
        <ele>1193.7</ele>
      </trkpt>
      <trkpt lat="45.76082" lon="3.77895">
        <ele>1192.7</ele>
      </trkpt>
      <trkpt lat="45.76098" lon="3.77901">
        <ele>1191.3</ele>
      </trkpt>
      <trkpt lat="45.76114" lon="3.77907">
        <ele>1189.9</ele>
      </trkpt>
      <trkpt lat="45.76125" lon="3.77909">
        <ele>1189.2</ele>
      </trkpt>
      <trkpt lat="45.76135" lon="3.7791">
        <ele>1188.8</ele>
      </trkpt>
      <trkpt lat="45.76148" lon="3.77908">
        <ele>1188.9</ele>
      </trkpt>
      <trkpt lat="45.76162" lon="3.77903">
        <ele>1189.4</ele>
      </trkpt>
      <trkpt lat="45.76175" lon="3.77896">
        <ele>1189.7</ele>
      </trkpt>
      <trkpt lat="45.76194" lon="3.77884">
        <ele>1189.9</ele>
      </trkpt>
      <trkpt lat="45.76208" lon="3.77877">
        <ele>1189.6</ele>
      </trkpt>
      <trkpt lat="45.76221" lon="3.7787">
        <ele>1189.1</ele>
      </trkpt>
      <trkpt lat="45.76233" lon="3.77862">
        <ele>1188.8</ele>
      </trkpt>
      <trkpt lat="45.76241" lon="3.77854">
        <ele>1188.8</ele>
      </trkpt>
      <trkpt lat="45.76251" lon="3.77841">
        <ele>1189.1</ele>
      </trkpt>
      <trkpt lat="45.76257" lon="3.77828">
        <ele>1190</ele>
      </trkpt>
      <trkpt lat="45.76264" lon="3.77814">
        <ele>1190.8</ele>
      </trkpt>
      <trkpt lat="45.76271" lon="3.77799">
        <ele>1191.8</ele>
      </trkpt>
      <trkpt lat="45.76277" lon="3.77783">
        <ele>1192.7</ele>
      </trkpt>
      <trkpt lat="45.76285" lon="3.77767">
        <ele>1193.6</ele>
      </trkpt>
      <trkpt lat="45.7629" lon="3.77748">
        <ele>1194.8</ele>
      </trkpt>
      <trkpt lat="45.76292" lon="3.77731">
        <ele>1195.5</ele>
      </trkpt>
      <trkpt lat="45.76292" lon="3.77711">
        <ele>1196.6</ele>
      </trkpt>
      <trkpt lat="45.76291" lon="3.77692">
        <ele>1197.7</ele>
      </trkpt>
      <trkpt lat="45.76291" lon="3.77666">
        <ele>1199.2</ele>
      </trkpt>
      <trkpt lat="45.7629" lon="3.77639">
        <ele>1199.2</ele>
      </trkpt>
      <trkpt lat="45.76289" lon="3.77613">
        <ele>1199.1</ele>
      </trkpt>
      <trkpt lat="45.76288" lon="3.77583">
        <ele>1199.3</ele>
      </trkpt>
      <trkpt lat="45.76287" lon="3.77554">
        <ele>1198.7</ele>
      </trkpt>
      <trkpt lat="45.76287" lon="3.77554">
        <ele>1198.7</ele>
      </trkpt>
      <trkpt lat="45.76285" lon="3.77525">
        <ele>1198.2</ele>
      </trkpt>
      <trkpt lat="45.76284" lon="3.77495">
        <ele>1197.6</ele>
      </trkpt>
      <trkpt lat="45.76283" lon="3.77477">
        <ele>1197.5</ele>
      </trkpt>
      <trkpt lat="45.76283" lon="3.77459">
        <ele>1197.3</ele>
      </trkpt>
      <trkpt lat="45.76284" lon="3.77448">
        <ele>1197</ele>
      </trkpt>
      <trkpt lat="45.76285" lon="3.77441">
        <ele>1196.8</ele>
      </trkpt>
      <trkpt lat="45.76289" lon="3.77433">
        <ele>1196.3</ele>
      </trkpt>
      <trkpt lat="45.76301" lon="3.77418">
        <ele>1195.3</ele>
      </trkpt>
      <trkpt lat="45.76316" lon="3.77395">
        <ele>1194.1</ele>
      </trkpt>
      <trkpt lat="45.76325" lon="3.77383">
        <ele>1193.7</ele>
      </trkpt>
      <trkpt lat="45.76335" lon="3.77371">
        <ele>1193.5</ele>
      </trkpt>
      <trkpt lat="45.76348" lon="3.77354">
        <ele>1193.3</ele>
      </trkpt>
      <trkpt lat="45.76361" lon="3.77337">
        <ele>1193.5</ele>
      </trkpt>
      <trkpt lat="45.76376" lon="3.77313">
        <ele>1193.7</ele>
      </trkpt>
      <trkpt lat="45.76391" lon="3.7729">
        <ele>1194.2</ele>
      </trkpt>
      <trkpt lat="45.76399" lon="3.77275">
        <ele>1194.7</ele>
      </trkpt>
      <trkpt lat="45.76402" lon="3.7726">
        <ele>1195.2</ele>
      </trkpt>
      <trkpt lat="45.76403" lon="3.77244">
        <ele>1195.8</ele>
      </trkpt>
      <trkpt lat="45.76403" lon="3.77226">
        <ele>1196.9</ele>
      </trkpt>
      <trkpt lat="45.764" lon="3.77203">
        <ele>1198</ele>
      </trkpt>
      <trkpt lat="45.76396" lon="3.7718">
        <ele>1198.9</ele>
      </trkpt>
      <trkpt lat="45.76391" lon="3.77154">
        <ele>1199.5</ele>
      </trkpt>
      <trkpt lat="45.76389" lon="3.77141">
        <ele>1199.8</ele>
      </trkpt>
      <trkpt lat="45.76387" lon="3.7713">
        <ele>1200</ele>
      </trkpt>
      <trkpt lat="45.76384" lon="3.77109">
        <ele>1200.5</ele>
      </trkpt>
      <trkpt lat="45.76382" lon="3.77084">
        <ele>1201.2</ele>
      </trkpt>
      <trkpt lat="45.76381" lon="3.77074">
        <ele>1201.2</ele>
      </trkpt>
      <trkpt lat="45.76379" lon="3.77063">
        <ele>1201.1</ele>
      </trkpt>
      <trkpt lat="45.76376" lon="3.77053">
        <ele>1200.8</ele>
      </trkpt>
      <trkpt lat="45.76371" lon="3.77033">
        <ele>1200.2</ele>
      </trkpt>
      <trkpt lat="45.76366" lon="3.77013">
        <ele>1199.6</ele>
      </trkpt>
      <trkpt lat="45.76364" lon="3.77002">
        <ele>1199.4</ele>
      </trkpt>
      <trkpt lat="45.76363" lon="3.76991">
        <ele>1199.5</ele>
      </trkpt>
      <trkpt lat="45.76362" lon="3.76982">
        <ele>1199.6</ele>
      </trkpt>
      <trkpt lat="45.76362" lon="3.76974">
        <ele>1199.8</ele>
      </trkpt>
      <trkpt lat="45.76362" lon="3.76974">
        <ele>1199.8</ele>
      </trkpt>
      <trkpt lat="45.76363" lon="3.76961">
        <ele>1200.3</ele>
      </trkpt>
      <trkpt lat="45.76365" lon="3.76938">
        <ele>1201.4</ele>
      </trkpt>
      <trkpt lat="45.76365" lon="3.76916">
        <ele>1202</ele>
      </trkpt>
      <trkpt lat="45.76365" lon="3.76894">
        <ele>1203.3</ele>
      </trkpt>
      <trkpt lat="45.76364" lon="3.7687">
        <ele>1204.7</ele>
      </trkpt>
      <trkpt lat="45.76363" lon="3.76846">
        <ele>1206.1</ele>
      </trkpt>
      <trkpt lat="45.76363" lon="3.76821">
        <ele>1206.8</ele>
      </trkpt>
      <trkpt lat="45.76364" lon="3.76803">
        <ele>1207.4</ele>
      </trkpt>
      <trkpt lat="45.76365" lon="3.76787">
        <ele>1207.6</ele>
      </trkpt>
      <trkpt lat="45.76366" lon="3.76768">
        <ele>1208</ele>
      </trkpt>
      <trkpt lat="45.76367" lon="3.7675">
        <ele>1208.4</ele>
      </trkpt>
      <trkpt lat="45.76367" lon="3.76736">
        <ele>1208.8</ele>
      </trkpt>
      <trkpt lat="45.76365" lon="3.7671">
        <ele>1209.3</ele>
      </trkpt>
      <trkpt lat="45.76364" lon="3.76685">
        <ele>1209.8</ele>
      </trkpt>
      <trkpt lat="45.76364" lon="3.76666">
        <ele>1210.3</ele>
      </trkpt>
      <trkpt lat="45.76364" lon="3.76657">
        <ele>1210.6</ele>
      </trkpt>
      <trkpt lat="45.76365" lon="3.76635">
        <ele>1211.5</ele>
      </trkpt>
      <trkpt lat="45.76366" lon="3.76613">
        <ele>1212.4</ele>
      </trkpt>
      <trkpt lat="45.76368" lon="3.76591">
        <ele>1213.5</ele>
      </trkpt>
      <trkpt lat="45.76369" lon="3.76569">
        <ele>1215</ele>
      </trkpt>
      <trkpt lat="45.76369" lon="3.76553">
        <ele>1215.9</ele>
      </trkpt>
      <trkpt lat="45.76369" lon="3.76541">
        <ele>1216.5</ele>
      </trkpt>
      <trkpt lat="45.76369" lon="3.76533">
        <ele>1216.9</ele>
      </trkpt>
      <trkpt lat="45.76368" lon="3.76521">
        <ele>1217.4</ele>
      </trkpt>
      <trkpt lat="45.76367" lon="3.7651">
        <ele>1217.6</ele>
      </trkpt>
      <trkpt lat="45.76363" lon="3.76484">
        <ele>1217.6</ele>
      </trkpt>
      <trkpt lat="45.76359" lon="3.76459">
        <ele>1217.5</ele>
      </trkpt>
      <trkpt lat="45.76355" lon="3.76434">
        <ele>1217.3</ele>
      </trkpt>
      <trkpt lat="45.7635" lon="3.7641">
        <ele>1217</ele>
      </trkpt>
      <trkpt lat="45.76346" lon="3.76386">
        <ele>1216.7</ele>
      </trkpt>
      <trkpt lat="45.76342" lon="3.76369">
        <ele>1215.9</ele>
      </trkpt>
      <trkpt lat="45.76338" lon="3.76352">
        <ele>1215.1</ele>
      </trkpt>
      <trkpt lat="45.76332" lon="3.76337">
        <ele>1213.5</ele>
      </trkpt>
      <trkpt lat="45.76326" lon="3.76323">
        <ele>1213.9</ele>
      </trkpt>
      <trkpt lat="45.76326" lon="3.76323">
        <ele>1213.9</ele>
      </trkpt>
      <trkpt lat="45.76313" lon="3.76302">
        <ele>1214</ele>
      </trkpt>
      <trkpt lat="45.76304" lon="3.76293">
        <ele>1213.1</ele>
      </trkpt>
      <trkpt lat="45.7629" lon="3.76283">
        <ele>1211.3</ele>
      </trkpt>
      <trkpt lat="45.76277" lon="3.76273">
        <ele>1209.5</ele>
      </trkpt>
      <trkpt lat="45.76262" lon="3.76258">
        <ele>1208</ele>
      </trkpt>
      <trkpt lat="45.76251" lon="3.76242">
        <ele>1207.7</ele>
      </trkpt>
      <trkpt lat="45.76245" lon="3.76226">
        <ele>1208.7</ele>
      </trkpt>
      <trkpt lat="45.76238" lon="3.7621">
        <ele>1209.6</ele>
      </trkpt>
      <trkpt lat="45.76229" lon="3.7619">
        <ele>1210.1</ele>
      </trkpt>
      <trkpt lat="45.76219" lon="3.76169">
        <ele>1210.3</ele>
      </trkpt>
      <trkpt lat="45.7621" lon="3.76153">
        <ele>1210.2</ele>
      </trkpt>
      <trkpt lat="45.76201" lon="3.76137">
        <ele>1210.2</ele>
      </trkpt>
      <trkpt lat="45.76193" lon="3.76118">
        <ele>1211</ele>
      </trkpt>
      <trkpt lat="45.76186" lon="3.761">
        <ele>1212</ele>
      </trkpt>
      <trkpt lat="45.76179" lon="3.76081">
        <ele>1213.4</ele>
      </trkpt>
      <trkpt lat="45.76172" lon="3.76062">
        <ele>1214.5</ele>
      </trkpt>
      <trkpt lat="45.76165" lon="3.76045">
        <ele>1215.8</ele>
      </trkpt>
      <trkpt lat="45.76158" lon="3.76037">
        <ele>1216.6</ele>
      </trkpt>
      <trkpt lat="45.7615" lon="3.76032">
        <ele>1217</ele>
      </trkpt>
      <trkpt lat="45.7614" lon="3.76029">
        <ele>1216.8</ele>
      </trkpt>
      <trkpt lat="45.76134" lon="3.76028">
        <ele>1216.5</ele>
      </trkpt>
      <trkpt lat="45.76127" lon="3.76028">
        <ele>1216</ele>
      </trkpt>
      <trkpt lat="45.76109" lon="3.76028">
        <ele>1215</ele>
      </trkpt>
      <trkpt lat="45.76092" lon="3.76027">
        <ele>1213.9</ele>
      </trkpt>
      <trkpt lat="45.76076" lon="3.76024">
        <ele>1213.1</ele>
      </trkpt>
      <trkpt lat="45.76063" lon="3.76018">
        <ele>1212.5</ele>
      </trkpt>
      <trkpt lat="45.76047" lon="3.76008">
        <ele>1212.2</ele>
      </trkpt>
      <trkpt lat="45.76037" lon="3.76001">
        <ele>1212.1</ele>
      </trkpt>
      <trkpt lat="45.76032" lon="3.75993">
        <ele>1212.2</ele>
      </trkpt>
      <trkpt lat="45.76022" lon="3.75971">
        <ele>1212.1</ele>
      </trkpt>
      <trkpt lat="45.76013" lon="3.75946">
        <ele>1212</ele>
      </trkpt>
      <trkpt lat="45.76011" lon="3.75934">
        <ele>1212.3</ele>
      </trkpt>
      <trkpt lat="45.7601" lon="3.75923">
        <ele>1212.6</ele>
      </trkpt>
      <trkpt lat="45.76009" lon="3.75898">
        <ele>1214.6</ele>
      </trkpt>
      <trkpt lat="45.76009" lon="3.75898">
        <ele>1214.6</ele>
      </trkpt>
      <trkpt lat="45.76008" lon="3.75872">
        <ele>1217</ele>
      </trkpt>
      <trkpt lat="45.76008" lon="3.75847">
        <ele>1219.4</ele>
      </trkpt>
      <trkpt lat="45.76008" lon="3.75821">
        <ele>1221.2</ele>
      </trkpt>
      <trkpt lat="45.76009" lon="3.75795">
        <ele>1222.1</ele>
      </trkpt>
      <trkpt lat="45.7601" lon="3.75769">
        <ele>1223.2</ele>
      </trkpt>
      <trkpt lat="45.76012" lon="3.75744">
        <ele>1224.3</ele>
      </trkpt>
      <trkpt lat="45.76013" lon="3.75719">
        <ele>1225.3</ele>
      </trkpt>
      <trkpt lat="45.76015" lon="3.75694">
        <ele>1226.3</ele>
      </trkpt>
      <trkpt lat="45.76018" lon="3.75668">
        <ele>1227.8</ele>
      </trkpt>
      <trkpt lat="45.7602" lon="3.75642">
        <ele>1228.3</ele>
      </trkpt>
      <trkpt lat="45.76023" lon="3.75616">
        <ele>1228.8</ele>
      </trkpt>
      <trkpt lat="45.76025" lon="3.75607">
        <ele>1229</ele>
      </trkpt>
      <trkpt lat="45.76027" lon="3.7559">
        <ele>1229.6</ele>
      </trkpt>
      <trkpt lat="45.7603" lon="3.75574">
        <ele>1229.4</ele>
      </trkpt>
      <trkpt lat="45.76038" lon="3.7555">
        <ele>1229.8</ele>
      </trkpt>
      <trkpt lat="45.76052" lon="3.75526">
        <ele>1231.4</ele>
      </trkpt>
      <trkpt lat="45.76064" lon="3.75513">
        <ele>1233.2</ele>
      </trkpt>
      <trkpt lat="45.76076" lon="3.75499">
        <ele>1234.9</ele>
      </trkpt>
      <trkpt lat="45.76094" lon="3.75484">
        <ele>1236.7</ele>
      </trkpt>
      <trkpt lat="45.76112" lon="3.75468">
        <ele>1237.7</ele>
      </trkpt>
      <trkpt lat="45.76128" lon="3.75458">
        <ele>1238.9</ele>
      </trkpt>
      <trkpt lat="45.76144" lon="3.75448">
        <ele>1240</ele>
      </trkpt>
      <trkpt lat="45.76158" lon="3.75444">
        <ele>1241.7</ele>
      </trkpt>
      <trkpt lat="45.76172" lon="3.75441">
        <ele>1243.4</ele>
      </trkpt>
      <trkpt lat="45.76183" lon="3.7544">
        <ele>1245</ele>
      </trkpt>
      <trkpt lat="45.76195" lon="3.7544">
        <ele>1246.6</ele>
      </trkpt>
      <trkpt lat="45.76205" lon="3.75436">
        <ele>1247.4</ele>
      </trkpt>
      <trkpt lat="45.76211" lon="3.75431">
        <ele>1247.3</ele>
      </trkpt>
      <trkpt lat="45.76219" lon="3.75416">
        <ele>1246.2</ele>
      </trkpt>
      <trkpt lat="45.76228" lon="3.75402">
        <ele>1246.5</ele>
      </trkpt>
      <trkpt lat="45.76228" lon="3.75402">
        <ele>1246.5</ele>
      </trkpt>
      <trkpt lat="45.76238" lon="3.75379">
        <ele>1246.9</ele>
      </trkpt>
      <trkpt lat="45.76248" lon="3.75357">
        <ele>1247.7</ele>
      </trkpt>
      <trkpt lat="45.76258" lon="3.75334">
        <ele>1249.3</ele>
      </trkpt>
      <trkpt lat="45.76268" lon="3.75311">
        <ele>1250.6</ele>
      </trkpt>
      <trkpt lat="45.76277" lon="3.75292">
        <ele>1251.8</ele>
      </trkpt>
      <trkpt lat="45.76286" lon="3.75273">
        <ele>1253</ele>
      </trkpt>
      <trkpt lat="45.76295" lon="3.75254">
        <ele>1254.1</ele>
      </trkpt>
      <trkpt lat="45.76304" lon="3.75232">
        <ele>1254.5</ele>
      </trkpt>
      <trkpt lat="45.76312" lon="3.75211">
        <ele>1254.8</ele>
      </trkpt>
      <trkpt lat="45.76321" lon="3.7519">
        <ele>1255.3</ele>
      </trkpt>
      <trkpt lat="45.76329" lon="3.75169">
        <ele>1255.8</ele>
      </trkpt>
      <trkpt lat="45.76336" lon="3.75149">
        <ele>1257.1</ele>
      </trkpt>
      <trkpt lat="45.76344" lon="3.75128">
        <ele>1258.8</ele>
      </trkpt>
      <trkpt lat="45.76351" lon="3.75099">
        <ele>1259.8</ele>
      </trkpt>
      <trkpt lat="45.76358" lon="3.7507">
        <ele>1260.5</ele>
      </trkpt>
      <trkpt lat="45.76365" lon="3.75041">
        <ele>1260.8</ele>
      </trkpt>
      <trkpt lat="45.76371" lon="3.75012">
        <ele>1261</ele>
      </trkpt>
      <trkpt lat="45.76376" lon="3.74992">
        <ele>1261.4</ele>
      </trkpt>
      <trkpt lat="45.76381" lon="3.74971">
        <ele>1262.1</ele>
      </trkpt>
      <trkpt lat="45.76386" lon="3.7495">
        <ele>1262.6</ele>
      </trkpt>
      <trkpt lat="45.76391" lon="3.7493">
        <ele>1263.1</ele>
      </trkpt>
      <trkpt lat="45.76397" lon="3.74901">
        <ele>1263.2</ele>
      </trkpt>
      <trkpt lat="45.76402" lon="3.74871">
        <ele>1263.3</ele>
      </trkpt>
      <trkpt lat="45.76406" lon="3.74846">
        <ele>1263.1</ele>
      </trkpt>
      <trkpt lat="45.76409" lon="3.7482">
        <ele>1263.5</ele>
      </trkpt>
      <trkpt lat="45.76413" lon="3.74795">
        <ele>1264.1</ele>
      </trkpt>
      <trkpt lat="45.76417" lon="3.74769">
        <ele>1264.4</ele>
      </trkpt>
      <trkpt lat="45.76417" lon="3.74769">
        <ele>1264.4</ele>
      </trkpt>
      <trkpt lat="45.76421" lon="3.74754">
        <ele>1264</ele>
      </trkpt>
      <trkpt lat="45.76425" lon="3.74739">
        <ele>1263.4</ele>
      </trkpt>
      <trkpt lat="45.76425" lon="3.74726">
        <ele>1263</ele>
      </trkpt>
      <trkpt lat="45.76416" lon="3.74711">
        <ele>1263</ele>
      </trkpt>
      <trkpt lat="45.76407" lon="3.74697">
        <ele>1261.9</ele>
      </trkpt>
      <trkpt lat="45.76394" lon="3.74675">
        <ele>1261.3</ele>
      </trkpt>
      <trkpt lat="45.7638" lon="3.74654">
        <ele>1261.3</ele>
      </trkpt>
      <trkpt lat="45.76364" lon="3.74632">
        <ele>1262.2</ele>
      </trkpt>
      <trkpt lat="45.76349" lon="3.74609">
        <ele>1264.4</ele>
      </trkpt>
      <trkpt lat="45.76339" lon="3.74596">
        <ele>1266.3</ele>
      </trkpt>
      <trkpt lat="45.76329" lon="3.74583">
        <ele>1267.7</ele>
      </trkpt>
      <trkpt lat="45.76314" lon="3.74564">
        <ele>1266.5</ele>
      </trkpt>
      <trkpt lat="45.763" lon="3.74545">
        <ele>1266</ele>
      </trkpt>
      <trkpt lat="45.76286" lon="3.74526">
        <ele>1266.3</ele>
      </trkpt>
      <trkpt lat="45.76273" lon="3.74507">
        <ele>1267.4</ele>
      </trkpt>
      <trkpt lat="45.7626" lon="3.74484">
        <ele>1268.2</ele>
      </trkpt>
      <trkpt lat="45.76248" lon="3.74461">
        <ele>1268.8</ele>
      </trkpt>
      <trkpt lat="45.76241" lon="3.74443">
        <ele>1268.4</ele>
      </trkpt>
      <trkpt lat="45.76234" lon="3.74425">
        <ele>1268.4</ele>
      </trkpt>
      <trkpt lat="45.76225" lon="3.74408">
        <ele>1268.1</ele>
      </trkpt>
      <trkpt lat="45.76216" lon="3.74391">
        <ele>1267.3</ele>
      </trkpt>
      <trkpt lat="45.76207" lon="3.74374">
        <ele>1266.7</ele>
      </trkpt>
      <trkpt lat="45.76196" lon="3.74358">
        <ele>1266.5</ele>
      </trkpt>
      <trkpt lat="45.76186" lon="3.74341">
        <ele>1266.4</ele>
      </trkpt>
      <trkpt lat="45.76176" lon="3.74324">
        <ele>1266.1</ele>
      </trkpt>
      <trkpt lat="45.76166" lon="3.74307">
        <ele>1265.2</ele>
      </trkpt>
      <trkpt lat="45.76157" lon="3.74292">
        <ele>1262.8</ele>
      </trkpt>
      <trkpt lat="45.76149" lon="3.74276">
        <ele>1260.7</ele>
      </trkpt>
      <trkpt lat="45.76144" lon="3.74261">
        <ele>1259.3</ele>
      </trkpt>
      <trkpt lat="45.76144" lon="3.74261">
        <ele>1259.3</ele>
      </trkpt>
      <trkpt lat="45.76138" lon="3.74245">
        <ele>1257.9</ele>
      </trkpt>
      <trkpt lat="45.76133" lon="3.74227">
        <ele>1255.9</ele>
      </trkpt>
      <trkpt lat="45.76127" lon="3.74208">
        <ele>1254.2</ele>
      </trkpt>
      <trkpt lat="45.76121" lon="3.74199">
        <ele>1253.2</ele>
      </trkpt>
      <trkpt lat="45.76115" lon="3.74192">
        <ele>1252.4</ele>
      </trkpt>
      <trkpt lat="45.76114" lon="3.7418">
        <ele>1251.7</ele>
      </trkpt>
      <trkpt lat="45.76105" lon="3.74163">
        <ele>1250.2</ele>
      </trkpt>
      <trkpt lat="45.76098" lon="3.74155">
        <ele>1248.8</ele>
      </trkpt>
      <trkpt lat="45.76088" lon="3.74142">
        <ele>1246.9</ele>
      </trkpt>
      <trkpt lat="45.76077" lon="3.74136">
        <ele>1245.3</ele>
      </trkpt>
      <trkpt lat="45.76063" lon="3.74126">
        <ele>1242.7</ele>
      </trkpt>
      <trkpt lat="45.76047" lon="3.74119">
        <ele>1240.7</ele>
      </trkpt>
      <trkpt lat="45.76032" lon="3.74119">
        <ele>1239.5</ele>
      </trkpt>
      <trkpt lat="45.76018" lon="3.74123">
        <ele>1238.5</ele>
      </trkpt>
      <trkpt lat="45.76008" lon="3.74125">
        <ele>1237.7</ele>
      </trkpt>
      <trkpt lat="45.76002" lon="3.74126">
        <ele>1237.2</ele>
      </trkpt>
      <trkpt lat="45.75985" lon="3.74121">
        <ele>1233.5</ele>
      </trkpt>
      <trkpt lat="45.75978" lon="3.7412">
        <ele>1231.9</ele>
      </trkpt>
      <trkpt lat="45.75973" lon="3.74121">
        <ele>1230.6</ele>
      </trkpt>
      <trkpt lat="45.75963" lon="3.74123">
        <ele>1228.4</ele>
      </trkpt>
      <trkpt lat="45.75958" lon="3.74124">
        <ele>1227.1</ele>
      </trkpt>
      <trkpt lat="45.75939" lon="3.74125">
        <ele>1222.7</ele>
      </trkpt>
      <trkpt lat="45.75932" lon="3.74111">
        <ele>1221.6</ele>
      </trkpt>
      <trkpt lat="45.75925" lon="3.74097">
        <ele>1220.8</ele>
      </trkpt>
      <trkpt lat="45.7591" lon="3.74077">
        <ele>1218.6</ele>
      </trkpt>
      <trkpt lat="45.75896" lon="3.74056">
        <ele>1215.6</ele>
      </trkpt>
      <trkpt lat="45.75881" lon="3.74036">
        <ele>1212.9</ele>
      </trkpt>
      <trkpt lat="45.75868" lon="3.74015">
        <ele>1210.7</ele>
      </trkpt>
      <trkpt lat="45.75861" lon="3.73999">
        <ele>1209.5</ele>
      </trkpt>
      <trkpt lat="45.75855" lon="3.73982">
        <ele>1207.2</ele>
      </trkpt>
      <trkpt lat="45.75852" lon="3.73962">
        <ele>1205.2</ele>
      </trkpt>
      <trkpt lat="45.75851" lon="3.73944">
        <ele>1203.6</ele>
      </trkpt>
      <trkpt lat="45.75853" lon="3.73928">
        <ele>1202.7</ele>
      </trkpt>
      <trkpt lat="45.75862" lon="3.739">
        <ele>1200.7</ele>
      </trkpt>
      <trkpt lat="45.75864" lon="3.73886">
        <ele>1198.8</ele>
      </trkpt>
      <trkpt lat="45.75862" lon="3.73876">
        <ele>1197.1</ele>
      </trkpt>
      <trkpt lat="45.75862" lon="3.73876">
        <ele>1197.1</ele>
      </trkpt>
      <trkpt lat="45.75856" lon="3.7387">
        <ele>1195.3</ele>
      </trkpt>
      <trkpt lat="45.75849" lon="3.73867">
        <ele>1193.9</ele>
      </trkpt>
      <trkpt lat="45.75838" lon="3.73868">
        <ele>1192.6</ele>
      </trkpt>
      <trkpt lat="45.75829" lon="3.73866">
        <ele>1191</ele>
      </trkpt>
      <trkpt lat="45.75826" lon="3.73871">
        <ele>1191.3</ele>
      </trkpt>
      <trkpt lat="45.75812" lon="3.73878">
        <ele>1190.2</ele>
      </trkpt>
      <trkpt lat="45.75799" lon="3.73885">
        <ele>1189.1</ele>
      </trkpt>
      <trkpt lat="45.75785" lon="3.73892">
        <ele>1188</ele>
      </trkpt>
      <trkpt lat="45.75768" lon="3.73898">
        <ele>1186.2</ele>
      </trkpt>
      <trkpt lat="45.75755" lon="3.73901">
        <ele>1184.5</ele>
      </trkpt>
      <trkpt lat="45.75744" lon="3.73904">
        <ele>1183.4</ele>
      </trkpt>
      <trkpt lat="45.75731" lon="3.73912">
        <ele>1182.9</ele>
      </trkpt>
      <trkpt lat="45.75718" lon="3.73925">
        <ele>1182</ele>
      </trkpt>
      <trkpt lat="45.75704" lon="3.73937">
        <ele>1180.5</ele>
      </trkpt>
      <trkpt lat="45.7569" lon="3.73953">
        <ele>1178.7</ele>
      </trkpt>
      <trkpt lat="45.75676" lon="3.73968">
        <ele>1176.5</ele>
      </trkpt>
      <trkpt lat="45.75665" lon="3.7398">
        <ele>1174.7</ele>
      </trkpt>
      <trkpt lat="45.75654" lon="3.73992">
        <ele>1173.2</ele>
      </trkpt>
      <trkpt lat="45.75645" lon="3.73995">
        <ele>1172.1</ele>
      </trkpt>
      <trkpt lat="45.75627" lon="3.73988">
        <ele>1169.5</ele>
      </trkpt>
      <trkpt lat="45.75613" lon="3.73978">
        <ele>1167.2</ele>
      </trkpt>
      <trkpt lat="45.75598" lon="3.73968">
        <ele>1164.6</ele>
      </trkpt>
      <trkpt lat="45.75583" lon="3.73958">
        <ele>1162</ele>
      </trkpt>
      <trkpt lat="45.75567" lon="3.73948">
        <ele>1160.7</ele>
      </trkpt>
      <trkpt lat="45.75561" lon="3.73943">
        <ele>1160.2</ele>
      </trkpt>
      <trkpt lat="45.75556" lon="3.73937">
        <ele>1159.7</ele>
      </trkpt>
      <trkpt lat="45.7555" lon="3.73929">
        <ele>1159.2</ele>
      </trkpt>
      <trkpt lat="45.75542" lon="3.73922">
        <ele>1158.7</ele>
      </trkpt>
      <trkpt lat="45.75533" lon="3.73916">
        <ele>1158.1</ele>
      </trkpt>
      <trkpt lat="45.75525" lon="3.73908">
        <ele>1157.5</ele>
      </trkpt>
      <trkpt lat="45.75513" lon="3.73894">
        <ele>1156.4</ele>
      </trkpt>
      <trkpt lat="45.75519" lon="3.73885">
        <ele>1156.2</ele>
      </trkpt>
      <trkpt lat="45.75525" lon="3.73877">
        <ele>1156</ele>
      </trkpt>
      <trkpt lat="45.75531" lon="3.73871">
        <ele>1155.9</ele>
      </trkpt>
      <trkpt lat="45.75547" lon="3.73853">
        <ele>1155.6</ele>
      </trkpt>
      <trkpt lat="45.75563" lon="3.73836">
        <ele>1155.4</ele>
      </trkpt>
      <trkpt lat="45.7558" lon="3.73817">
        <ele>1154.6</ele>
      </trkpt>
      <trkpt lat="45.7558" lon="3.73817">
        <ele>1154.6</ele>
      </trkpt>
      <trkpt lat="45.75596" lon="3.73799">
        <ele>1154.6</ele>
      </trkpt>
      <trkpt lat="45.75612" lon="3.73781">
        <ele>1154.6</ele>
      </trkpt>
      <trkpt lat="45.75629" lon="3.73762">
        <ele>1154.2</ele>
      </trkpt>
      <trkpt lat="45.75645" lon="3.73744">
        <ele>1153.2</ele>
      </trkpt>
      <trkpt lat="45.75656" lon="3.73732">
        <ele>1152.2</ele>
      </trkpt>
      <trkpt lat="45.75667" lon="3.7372">
        <ele>1151</ele>
      </trkpt>
      <trkpt lat="45.75679" lon="3.73709">
        <ele>1149.8</ele>
      </trkpt>
      <trkpt lat="45.75696" lon="3.73696">
        <ele>1148.6</ele>
      </trkpt>
      <trkpt lat="45.75705" lon="3.7369">
        <ele>1148.1</ele>
      </trkpt>
      <trkpt lat="45.75721" lon="3.73679">
        <ele>1147.3</ele>
      </trkpt>
      <trkpt lat="45.75737" lon="3.73669">
        <ele>1146.6</ele>
      </trkpt>
      <trkpt lat="45.75753" lon="3.73657">
        <ele>1146.5</ele>
      </trkpt>
      <trkpt lat="45.7577" lon="3.73646">
        <ele>1147.4</ele>
      </trkpt>
      <trkpt lat="45.75786" lon="3.73635">
        <ele>1148.1</ele>
      </trkpt>
      <trkpt lat="45.75802" lon="3.73623">
        <ele>1148.7</ele>
      </trkpt>
      <trkpt lat="45.75813" lon="3.73613">
        <ele>1148.8</ele>
      </trkpt>
      <trkpt lat="45.75825" lon="3.73604">
        <ele>1148.7</ele>
      </trkpt>
      <trkpt lat="45.75835" lon="3.73593">
        <ele>1148.5</ele>
      </trkpt>
      <trkpt lat="45.75845" lon="3.73583">
        <ele>1148.6</ele>
      </trkpt>
      <trkpt lat="45.75857" lon="3.73568">
        <ele>1148.5</ele>
      </trkpt>
      <trkpt lat="45.75869" lon="3.73554">
        <ele>1148.2</ele>
      </trkpt>
      <trkpt lat="45.75882" lon="3.73537">
        <ele>1147.3</ele>
      </trkpt>
      <trkpt lat="45.75891" lon="3.73526">
        <ele>1146.7</ele>
      </trkpt>
      <trkpt lat="45.759" lon="3.73516">
        <ele>1146</ele>
      </trkpt>
      <trkpt lat="45.75912" lon="3.73503">
        <ele>1145</ele>
      </trkpt>
      <trkpt lat="45.75925" lon="3.73492">
        <ele>1143.8</ele>
      </trkpt>
      <trkpt lat="45.75938" lon="3.73485">
        <ele>1143</ele>
      </trkpt>
      <trkpt lat="45.75953" lon="3.7348">
        <ele>1142.7</ele>
      </trkpt>
      <trkpt lat="45.75962" lon="3.73479">
        <ele>1142.8</ele>
      </trkpt>
      <trkpt lat="45.75967" lon="3.73478">
        <ele>1142.9</ele>
      </trkpt>
      <trkpt lat="45.75967" lon="3.73478">
        <ele>1142.9</ele>
      </trkpt>
      <trkpt lat="45.75983" lon="3.73479">
        <ele>1143.8</ele>
      </trkpt>
      <trkpt lat="45.76003" lon="3.73485">
        <ele>1145.1</ele>
      </trkpt>
      <trkpt lat="45.7602" lon="3.7349">
        <ele>1144.4</ele>
      </trkpt>
      <trkpt lat="45.76037" lon="3.73496">
        <ele>1143.7</ele>
      </trkpt>
      <trkpt lat="45.76056" lon="3.73503">
        <ele>1143.2</ele>
      </trkpt>
      <trkpt lat="45.76066" lon="3.73507">
        <ele>1142.9</ele>
      </trkpt>
      <trkpt lat="45.76075" lon="3.7351">
        <ele>1142.6</ele>
      </trkpt>
      <trkpt lat="45.76088" lon="3.73518">
        <ele>1142.8</ele>
      </trkpt>
      <trkpt lat="45.76107" lon="3.73531">
        <ele>1143.6</ele>
      </trkpt>
      <trkpt lat="45.76124" lon="3.73544">
        <ele>1144.2</ele>
      </trkpt>
      <trkpt lat="45.76142" lon="3.73556">
        <ele>1144.5</ele>
      </trkpt>
      <trkpt lat="45.76159" lon="3.73569">
        <ele>1144.6</ele>
      </trkpt>
      <trkpt lat="45.76177" lon="3.73581">
        <ele>1145</ele>
      </trkpt>
      <trkpt lat="45.76191" lon="3.73588">
        <ele>1145.3</ele>
      </trkpt>
      <trkpt lat="45.76205" lon="3.7359">
        <ele>1145</ele>
      </trkpt>
      <trkpt lat="45.76221" lon="3.73591">
        <ele>1144.2</ele>
      </trkpt>
      <trkpt lat="45.76231" lon="3.73592">
        <ele>1143.9</ele>
      </trkpt>
      <trkpt lat="45.76245" lon="3.73598">
        <ele>1144.2</ele>
      </trkpt>
      <trkpt lat="45.76257" lon="3.73605">
        <ele>1145</ele>
      </trkpt>
      <trkpt lat="45.76268" lon="3.73615">
        <ele>1146.2</ele>
      </trkpt>
      <trkpt lat="45.76279" lon="3.73625">
        <ele>1147.2</ele>
      </trkpt>
      <trkpt lat="45.76296" lon="3.7364">
        <ele>1148.4</ele>
      </trkpt>
      <trkpt lat="45.76313" lon="3.73655">
        <ele>1149.3</ele>
      </trkpt>
      <trkpt lat="45.7633" lon="3.73671">
        <ele>1150.1</ele>
      </trkpt>
      <trkpt lat="45.76347" lon="3.73686">
        <ele>1152.3</ele>
      </trkpt>
      <trkpt lat="45.76364" lon="3.73702">
        <ele>1154.3</ele>
      </trkpt>
      <trkpt lat="45.76379" lon="3.73717">
        <ele>1156</ele>
      </trkpt>
      <trkpt lat="45.76395" lon="3.73733">
        <ele>1157.3</ele>
      </trkpt>
      <trkpt lat="45.76395" lon="3.73733">
        <ele>1157.3</ele>
      </trkpt>
      <trkpt lat="45.764" lon="3.73726">
        <ele>1156</ele>
      </trkpt>
      <trkpt lat="45.76407" lon="3.73722">
        <ele>1154.9</ele>
      </trkpt>
      <trkpt lat="45.76424" lon="3.73719">
        <ele>1154.1</ele>
      </trkpt>
      <trkpt lat="45.76442" lon="3.73717">
        <ele>1154.2</ele>
      </trkpt>
      <trkpt lat="45.7645" lon="3.73713">
        <ele>1153.9</ele>
      </trkpt>
      <trkpt lat="45.76458" lon="3.73699">
        <ele>1153</ele>
      </trkpt>
      <trkpt lat="45.76461" lon="3.73687">
        <ele>1152.3</ele>
      </trkpt>
      <trkpt lat="45.76461" lon="3.73679">
        <ele>1151.6</ele>
      </trkpt>
      <trkpt lat="45.76466" lon="3.73674">
        <ele>1151.7</ele>
      </trkpt>
      <trkpt lat="45.76464" lon="3.73666">
        <ele>1151</ele>
      </trkpt>
      <trkpt lat="45.76467" lon="3.73647">
        <ele>1151.5</ele>
      </trkpt>
      <trkpt lat="45.76468" lon="3.73631">
        <ele>1151.8</ele>
      </trkpt>
      <trkpt lat="45.76469" lon="3.73608">
        <ele>1152.2</ele>
      </trkpt>
      <trkpt lat="45.76471" lon="3.73586">
        <ele>1152.7</ele>
      </trkpt>
      <trkpt lat="45.76472" lon="3.73563">
        <ele>1153.5</ele>
      </trkpt>
      <trkpt lat="45.76472" lon="3.7354">
        <ele>1154.1</ele>
      </trkpt>
      <trkpt lat="45.7647" lon="3.73514">
        <ele>1154.5</ele>
      </trkpt>
      <trkpt lat="45.76469" lon="3.735">
        <ele>1154.7</ele>
      </trkpt>
      <trkpt lat="45.76466" lon="3.73474">
        <ele>1154.2</ele>
      </trkpt>
      <trkpt lat="45.76463" lon="3.73456">
        <ele>1153.9</ele>
      </trkpt>
      <trkpt lat="45.7646" lon="3.73439">
        <ele>1153.6</ele>
      </trkpt>
      <trkpt lat="45.76456" lon="3.7341">
        <ele>1153.4</ele>
      </trkpt>
      <trkpt lat="45.76451" lon="3.73388">
        <ele>1153.7</ele>
      </trkpt>
      <trkpt lat="45.76446" lon="3.73367">
        <ele>1153.9</ele>
      </trkpt>
      <trkpt lat="45.76441" lon="3.73342">
        <ele>1154.3</ele>
      </trkpt>
      <trkpt lat="45.76439" lon="3.7333">
        <ele>1154.7</ele>
      </trkpt>
      <trkpt lat="45.76436" lon="3.73308">
        <ele>1155.2</ele>
      </trkpt>
      <trkpt lat="45.76433" lon="3.73294">
        <ele>1155.5</ele>
      </trkpt>
      <trkpt lat="45.76431" lon="3.73286">
        <ele>1155.7</ele>
      </trkpt>
      <trkpt lat="45.76427" lon="3.73276">
        <ele>1155.7</ele>
      </trkpt>
      <trkpt lat="45.76422" lon="3.73269">
        <ele>1155.5</ele>
      </trkpt>
      <trkpt lat="45.76417" lon="3.73261">
        <ele>1155.4</ele>
      </trkpt>
      <trkpt lat="45.76408" lon="3.73248">
        <ele>1155.3</ele>
      </trkpt>
      <trkpt lat="45.76404" lon="3.73241">
        <ele>1155.3</ele>
      </trkpt>
      <trkpt lat="45.76402" lon="3.73235">
        <ele>1155.3</ele>
      </trkpt>
      <trkpt lat="45.76399" lon="3.73223">
        <ele>1155.5</ele>
      </trkpt>
      <trkpt lat="45.76398" lon="3.73215">
        <ele>1155.7</ele>
      </trkpt>
      <trkpt lat="45.76399" lon="3.73207">
        <ele>1156.1</ele>
      </trkpt>
      <trkpt lat="45.76401" lon="3.732">
        <ele>1156.5</ele>
      </trkpt>
      <trkpt lat="45.76404" lon="3.73194">
        <ele>1156.8</ele>
      </trkpt>
      <trkpt lat="45.76407" lon="3.73187">
        <ele>1157.1</ele>
      </trkpt>
      <trkpt lat="45.76414" lon="3.73175">
        <ele>1157.7</ele>
      </trkpt>
      <trkpt lat="45.76414" lon="3.73175">
        <ele>1157.7</ele>
      </trkpt>
      <trkpt lat="45.76419" lon="3.73168">
        <ele>1158.1</ele>
      </trkpt>
      <trkpt lat="45.76425" lon="3.7316">
        <ele>1158.3</ele>
      </trkpt>
      <trkpt lat="45.76433" lon="3.73148">
        <ele>1158.3</ele>
      </trkpt>
      <trkpt lat="45.76438" lon="3.73137">
        <ele>1158.1</ele>
      </trkpt>
      <trkpt lat="45.76446" lon="3.73124">
        <ele>1157.8</ele>
      </trkpt>
      <trkpt lat="45.76451" lon="3.73117">
        <ele>1157.6</ele>
      </trkpt>
      <trkpt lat="45.76456" lon="3.73112">
        <ele>1157.5</ele>
      </trkpt>
      <trkpt lat="45.7646" lon="3.73109">
        <ele>1157.4</ele>
      </trkpt>
      <trkpt lat="45.76468" lon="3.73104">
        <ele>1157.3</ele>
      </trkpt>
      <trkpt lat="45.76478" lon="3.73101">
        <ele>1157.2</ele>
      </trkpt>
      <trkpt lat="45.76487" lon="3.73096">
        <ele>1156.9</ele>
      </trkpt>
      <trkpt lat="45.76496" lon="3.7309">
        <ele>1156.5</ele>
      </trkpt>
      <trkpt lat="45.76505" lon="3.73084">
        <ele>1156.4</ele>
      </trkpt>
      <trkpt lat="45.76515" lon="3.73076">
        <ele>1156.4</ele>
      </trkpt>
      <trkpt lat="45.76523" lon="3.73069">
        <ele>1156.2</ele>
      </trkpt>
      <trkpt lat="45.76529" lon="3.73061">
        <ele>1156.1</ele>
      </trkpt>
      <trkpt lat="45.76535" lon="3.73053">
        <ele>1155.8</ele>
      </trkpt>
      <trkpt lat="45.76548" lon="3.73033">
        <ele>1155.4</ele>
      </trkpt>
      <trkpt lat="45.76555" lon="3.73023">
        <ele>1155.3</ele>
      </trkpt>
      <trkpt lat="45.76555" lon="3.73023">
        <ele>1155.3</ele>
      </trkpt>
      <trkpt lat="45.76561" lon="3.73013">
        <ele>1155.3</ele>
      </trkpt>
      <trkpt lat="45.76566" lon="3.73005">
        <ele>1155.3</ele>
      </trkpt>
      <trkpt lat="45.76574" lon="3.72992">
        <ele>1154.9</ele>
      </trkpt>
      <trkpt lat="45.7658" lon="3.72982">
        <ele>1154.4</ele>
      </trkpt>
      <trkpt lat="45.76585" lon="3.72972">
        <ele>1153.7</ele>
      </trkpt>
      <trkpt lat="45.76589" lon="3.72961">
        <ele>1153</ele>
      </trkpt>
      <trkpt lat="45.76595" lon="3.72947">
        <ele>1151.8</ele>
      </trkpt>
      <trkpt lat="45.76599" lon="3.72932">
        <ele>1150.5</ele>
      </trkpt>
      <trkpt lat="45.76602" lon="3.72923">
        <ele>1149.7</ele>
      </trkpt>
      <trkpt lat="45.76606" lon="3.72914">
        <ele>1149.1</ele>
      </trkpt>
      <trkpt lat="45.76609" lon="3.72907">
        <ele>1148.4</ele>
      </trkpt>
      <trkpt lat="45.76617" lon="3.7289">
        <ele>1146.7</ele>
      </trkpt>
      <trkpt lat="45.76624" lon="3.72878">
        <ele>1145.4</ele>
      </trkpt>
      <trkpt lat="45.76629" lon="3.72869">
        <ele>1144.3</ele>
      </trkpt>
      <trkpt lat="45.76633" lon="3.7286">
        <ele>1143.2</ele>
      </trkpt>
      <trkpt lat="45.76639" lon="3.7285">
        <ele>1141.8</ele>
      </trkpt>
      <trkpt lat="45.76646" lon="3.72838">
        <ele>1140.1</ele>
      </trkpt>
      <trkpt lat="45.76653" lon="3.72826">
        <ele>1138.3</ele>
      </trkpt>
      <trkpt lat="45.76658" lon="3.72817">
        <ele>1137.2</ele>
      </trkpt>
      <trkpt lat="45.76664" lon="3.72808">
        <ele>1136</ele>
      </trkpt>
      <trkpt lat="45.76671" lon="3.72799">
        <ele>1135</ele>
      </trkpt>
      <trkpt lat="45.76676" lon="3.72793">
        <ele>1134.6</ele>
      </trkpt>
      <trkpt lat="45.76681" lon="3.72789">
        <ele>1134.3</ele>
      </trkpt>
      <trkpt lat="45.76688" lon="3.72784">
        <ele>1134.3</ele>
      </trkpt>
      <trkpt lat="45.76699" lon="3.72777">
        <ele>1134.4</ele>
      </trkpt>
      <trkpt lat="45.76709" lon="3.72773">
        <ele>1134.7</ele>
      </trkpt>
      <trkpt lat="45.76717" lon="3.72768">
        <ele>1134.9</ele>
      </trkpt>
      <trkpt lat="45.76728" lon="3.72763">
        <ele>1135.3</ele>
      </trkpt>
      <trkpt lat="45.76741" lon="3.72756">
        <ele>1135.8</ele>
      </trkpt>
      <trkpt lat="45.76748" lon="3.72753">
        <ele>1136.1</ele>
      </trkpt>
      <trkpt lat="45.76748" lon="3.72753">
        <ele>1136.1</ele>
      </trkpt>
      <trkpt lat="45.76755" lon="3.72748">
        <ele>1136.2</ele>
      </trkpt>
      <trkpt lat="45.76761" lon="3.72744">
        <ele>1136.3</ele>
      </trkpt>
      <trkpt lat="45.76768" lon="3.72737">
        <ele>1136.1</ele>
      </trkpt>
      <trkpt lat="45.76774" lon="3.72729">
        <ele>1135.5</ele>
      </trkpt>
      <trkpt lat="45.76783" lon="3.72716">
        <ele>1134.6</ele>
      </trkpt>
      <trkpt lat="45.76793" lon="3.72702">
        <ele>1133.6</ele>
      </trkpt>
      <trkpt lat="45.76801" lon="3.72689">
        <ele>1132.7</ele>
      </trkpt>
      <trkpt lat="45.76806" lon="3.72681">
        <ele>1132.1</ele>
      </trkpt>
      <trkpt lat="45.76813" lon="3.72669">
        <ele>1131.1</ele>
      </trkpt>
      <trkpt lat="45.76819" lon="3.72656">
        <ele>1130</ele>
      </trkpt>
      <trkpt lat="45.76825" lon="3.72643">
        <ele>1128.9</ele>
      </trkpt>
      <trkpt lat="45.76831" lon="3.72631">
        <ele>1128</ele>
      </trkpt>
      <trkpt lat="45.76836" lon="3.72619">
        <ele>1127.3</ele>
      </trkpt>
      <trkpt lat="45.76839" lon="3.7261">
        <ele>1126.8</ele>
      </trkpt>
      <trkpt lat="45.76844" lon="3.72595">
        <ele>1126.1</ele>
      </trkpt>
      <trkpt lat="45.76849" lon="3.72581">
        <ele>1125.1</ele>
      </trkpt>
      <trkpt lat="45.76851" lon="3.72569">
        <ele>1124</ele>
      </trkpt>
      <trkpt lat="45.76852" lon="3.72558">
        <ele>1122.9</ele>
      </trkpt>
      <trkpt lat="45.76853" lon="3.72549">
        <ele>1121.7</ele>
      </trkpt>
      <trkpt lat="45.76854" lon="3.72536">
        <ele>1119.8</ele>
      </trkpt>
      <trkpt lat="45.76854" lon="3.72518">
        <ele>1117.3</ele>
      </trkpt>
      <trkpt lat="45.76854" lon="3.72498">
        <ele>1114.4</ele>
      </trkpt>
      <trkpt lat="45.76856" lon="3.72478">
        <ele>1112.5</ele>
      </trkpt>
      <trkpt lat="45.76857" lon="3.72461">
        <ele>1111</ele>
      </trkpt>
      <trkpt lat="45.76859" lon="3.72438">
        <ele>1109</ele>
      </trkpt>
      <trkpt lat="45.76861" lon="3.72425">
        <ele>1107.8</ele>
      </trkpt>
      <trkpt lat="45.76863" lon="3.72414">
        <ele>1107.1</ele>
      </trkpt>
      <trkpt lat="45.76865" lon="3.72403">
        <ele>1106.5</ele>
      </trkpt>
      <trkpt lat="45.76868" lon="3.72393">
        <ele>1106</ele>
      </trkpt>
      <trkpt lat="45.76872" lon="3.72378">
        <ele>1105.2</ele>
      </trkpt>
      <trkpt lat="45.76878" lon="3.72355">
        <ele>1103.9</ele>
      </trkpt>
      <trkpt lat="45.76884" lon="3.72333">
        <ele>1102.5</ele>
      </trkpt>
      <trkpt lat="45.76889" lon="3.72316">
        <ele>1102.3</ele>
      </trkpt>
      <trkpt lat="45.76892" lon="3.72305">
        <ele>1102.1</ele>
      </trkpt>
      <trkpt lat="45.76894" lon="3.72292">
        <ele>1101.7</ele>
      </trkpt>
      <trkpt lat="45.76896" lon="3.72277">
        <ele>1101</ele>
      </trkpt>
      <trkpt lat="45.76895" lon="3.7227">
        <ele>1100.5</ele>
      </trkpt>
      <trkpt lat="45.76893" lon="3.72257">
        <ele>1099.3</ele>
      </trkpt>
      <trkpt lat="45.76889" lon="3.72247">
        <ele>1098.2</ele>
      </trkpt>
      <trkpt lat="45.76878" lon="3.72224">
        <ele>1096.4</ele>
      </trkpt>
      <trkpt lat="45.76872" lon="3.72211">
        <ele>1095.5</ele>
      </trkpt>
      <trkpt lat="45.76866" lon="3.72201">
        <ele>1094.7</ele>
      </trkpt>
      <trkpt lat="45.76861" lon="3.72195">
        <ele>1094.2</ele>
      </trkpt>
      <trkpt lat="45.76855" lon="3.72192">
        <ele>1093.7</ele>
      </trkpt>
      <trkpt lat="45.76845" lon="3.72188">
        <ele>1092.7</ele>
      </trkpt>
      <trkpt lat="45.76845" lon="3.72188">
        <ele>1092.7</ele>
      </trkpt>
      <trkpt lat="45.76836" lon="3.72187">
        <ele>1092</ele>
      </trkpt>
      <trkpt lat="45.7683" lon="3.72186">
        <ele>1091.5</ele>
      </trkpt>
      <trkpt lat="45.76824" lon="3.72187">
        <ele>1091</ele>
      </trkpt>
      <trkpt lat="45.76816" lon="3.72187">
        <ele>1090.3</ele>
      </trkpt>
      <trkpt lat="45.76806" lon="3.72188">
        <ele>1089.5</ele>
      </trkpt>
      <trkpt lat="45.76797" lon="3.72189">
        <ele>1088.8</ele>
      </trkpt>
      <trkpt lat="45.76791" lon="3.72188">
        <ele>1088.3</ele>
      </trkpt>
      <trkpt lat="45.76783" lon="3.72186">
        <ele>1087.8</ele>
      </trkpt>
      <trkpt lat="45.76774" lon="3.72179">
        <ele>1087.3</ele>
      </trkpt>
      <trkpt lat="45.76769" lon="3.72176">
        <ele>1087</ele>
      </trkpt>
      <trkpt lat="45.76762" lon="3.72173">
        <ele>1086.5</ele>
      </trkpt>
      <trkpt lat="45.76753" lon="3.72169">
        <ele>1086.1</ele>
      </trkpt>
      <trkpt lat="45.76748" lon="3.72167">
        <ele>1085.5</ele>
      </trkpt>
      <trkpt lat="45.76743" lon="3.72163">
        <ele>1084.6</ele>
      </trkpt>
      <trkpt lat="45.7674" lon="3.72158">
        <ele>1083.9</ele>
      </trkpt>
      <trkpt lat="45.76735" lon="3.7215">
        <ele>1083.1</ele>
      </trkpt>
      <trkpt lat="45.76731" lon="3.72143">
        <ele>1082.5</ele>
      </trkpt>
      <trkpt lat="45.76726" lon="3.72132">
        <ele>1081.7</ele>
      </trkpt>
      <trkpt lat="45.76721" lon="3.72118">
        <ele>1080.8</ele>
      </trkpt>
      <trkpt lat="45.76715" lon="3.72104">
        <ele>1080</ele>
      </trkpt>
      <trkpt lat="45.76711" lon="3.7209">
        <ele>1079.3</ele>
      </trkpt>
      <trkpt lat="45.76709" lon="3.72079">
        <ele>1079</ele>
      </trkpt>
      <trkpt lat="45.76709" lon="3.72065">
        <ele>1078.6</ele>
      </trkpt>
      <trkpt lat="45.76709" lon="3.72048">
        <ele>1078.2</ele>
      </trkpt>
      <trkpt lat="45.76709" lon="3.72038">
        <ele>1077.8</ele>
      </trkpt>
      <trkpt lat="45.76706" lon="3.72031">
        <ele>1077</ele>
      </trkpt>
      <trkpt lat="45.76701" lon="3.72025">
        <ele>1075.8</ele>
      </trkpt>
      <trkpt lat="45.7669" lon="3.72005">
        <ele>1072.8</ele>
      </trkpt>
      <trkpt lat="45.76692" lon="3.71994">
        <ele>1072.8</ele>
      </trkpt>
      <trkpt lat="45.76695" lon="3.71986">
        <ele>1072.5</ele>
      </trkpt>
      <trkpt lat="45.76698" lon="3.71978">
        <ele>1072.3</ele>
      </trkpt>
      <trkpt lat="45.76701" lon="3.71971">
        <ele>1072.2</ele>
      </trkpt>
      <trkpt lat="45.76705" lon="3.71963">
        <ele>1072.2</ele>
      </trkpt>
      <trkpt lat="45.7671" lon="3.71956">
        <ele>1072.3</ele>
      </trkpt>
      <trkpt lat="45.76717" lon="3.71948">
        <ele>1072.5</ele>
      </trkpt>
      <trkpt lat="45.76723" lon="3.71942">
        <ele>1072.8</ele>
      </trkpt>
      <trkpt lat="45.76732" lon="3.71936">
        <ele>1073.2</ele>
      </trkpt>
      <trkpt lat="45.7674" lon="3.71932">
        <ele>1073.8</ele>
      </trkpt>
      <trkpt lat="45.76746" lon="3.71929">
        <ele>1074.2</ele>
      </trkpt>
      <trkpt lat="45.76755" lon="3.71928">
        <ele>1074.6</ele>
      </trkpt>
      <trkpt lat="45.76762" lon="3.71928">
        <ele>1074.6</ele>
      </trkpt>
      <trkpt lat="45.76768" lon="3.71929">
        <ele>1074.8</ele>
      </trkpt>
      <trkpt lat="45.76774" lon="3.71932">
        <ele>1075.2</ele>
      </trkpt>
      <trkpt lat="45.76789" lon="3.71941">
        <ele>1076.4</ele>
      </trkpt>
      <trkpt lat="45.76798" lon="3.71945">
        <ele>1076.9</ele>
      </trkpt>
      <trkpt lat="45.76804" lon="3.71948">
        <ele>1077.2</ele>
      </trkpt>
      <trkpt lat="45.76809" lon="3.71949">
        <ele>1077.4</ele>
      </trkpt>
      <trkpt lat="45.76814" lon="3.7195">
        <ele>1077.5</ele>
      </trkpt>
      <trkpt lat="45.76828" lon="3.71952">
        <ele>1077.6</ele>
      </trkpt>
      <trkpt lat="45.76843" lon="3.71953">
        <ele>1077.7</ele>
      </trkpt>
      <trkpt lat="45.76857" lon="3.71954">
        <ele>1077.8</ele>
      </trkpt>
      <trkpt lat="45.76869" lon="3.71955">
        <ele>1077.8</ele>
      </trkpt>
      <trkpt lat="45.76881" lon="3.71956">
        <ele>1077.9</ele>
      </trkpt>
      <trkpt lat="45.76888" lon="3.71957">
        <ele>1077.9</ele>
      </trkpt>
      <trkpt lat="45.76888" lon="3.71957">
        <ele>1077.9</ele>
      </trkpt>
      <trkpt lat="45.76896" lon="3.71955">
        <ele>1077.7</ele>
      </trkpt>
      <trkpt lat="45.76905" lon="3.71953">
        <ele>1077.1</ele>
      </trkpt>
      <trkpt lat="45.7691" lon="3.71949">
        <ele>1076.5</ele>
      </trkpt>
      <trkpt lat="45.76914" lon="3.71945">
        <ele>1075.7</ele>
      </trkpt>
      <trkpt lat="45.76925" lon="3.71932">
        <ele>1073.9</ele>
      </trkpt>
      <trkpt lat="45.76931" lon="3.71925">
        <ele>1072.9</ele>
      </trkpt>
      <trkpt lat="45.76938" lon="3.71919">
        <ele>1072.2</ele>
      </trkpt>
      <trkpt lat="45.76948" lon="3.71912">
        <ele>1071.5</ele>
      </trkpt>
      <trkpt lat="45.76956" lon="3.71907">
        <ele>1071</ele>
      </trkpt>
      <trkpt lat="45.76963" lon="3.71902">
        <ele>1070.6</ele>
      </trkpt>
      <trkpt lat="45.76968" lon="3.71899">
        <ele>1070.3</ele>
      </trkpt>
      <trkpt lat="45.76974" lon="3.71894">
        <ele>1069.8</ele>
      </trkpt>
      <trkpt lat="45.76981" lon="3.71887">
        <ele>1069</ele>
      </trkpt>
      <trkpt lat="45.76989" lon="3.71881">
        <ele>1068.5</ele>
      </trkpt>
      <trkpt lat="45.77" lon="3.71874">
        <ele>1067.8</ele>
      </trkpt>
      <trkpt lat="45.7701" lon="3.71867">
        <ele>1068.3</ele>
      </trkpt>
      <trkpt lat="45.77016" lon="3.71862">
        <ele>1068.5</ele>
      </trkpt>
      <trkpt lat="45.77022" lon="3.71853">
        <ele>1068.3</ele>
      </trkpt>
      <trkpt lat="45.77026" lon="3.71847">
        <ele>1067.9</ele>
      </trkpt>
      <trkpt lat="45.77028" lon="3.7184">
        <ele>1067.4</ele>
      </trkpt>
      <trkpt lat="45.77031" lon="3.71834">
        <ele>1066.9</ele>
      </trkpt>
      <trkpt lat="45.77034" lon="3.71822">
        <ele>1066.7</ele>
      </trkpt>
      <trkpt lat="45.77035" lon="3.71814">
        <ele>1066.4</ele>
      </trkpt>
      <trkpt lat="45.77036" lon="3.71807">
        <ele>1066.1</ele>
      </trkpt>
      <trkpt lat="45.77035" lon="3.718">
        <ele>1065.7</ele>
      </trkpt>
      <trkpt lat="45.77036" lon="3.7179">
        <ele>1065.2</ele>
      </trkpt>
      <trkpt lat="45.77038" lon="3.71769">
        <ele>1064.3</ele>
      </trkpt>
      <trkpt lat="45.77039" lon="3.71758">
        <ele>1063.8</ele>
      </trkpt>
      <trkpt lat="45.77038" lon="3.71748">
        <ele>1063.2</ele>
      </trkpt>
      <trkpt lat="45.77034" lon="3.71743">
        <ele>1062.9</ele>
      </trkpt>
      <trkpt lat="45.77029" lon="3.71741">
        <ele>1062.6</ele>
      </trkpt>
      <trkpt lat="45.77022" lon="3.71739">
        <ele>1062.1</ele>
      </trkpt>
      <trkpt lat="45.77012" lon="3.71736">
        <ele>1061.5</ele>
      </trkpt>
      <trkpt lat="45.77004" lon="3.71733">
        <ele>1061.1</ele>
      </trkpt>
      <trkpt lat="45.76998" lon="3.71731">
        <ele>1060.6</ele>
      </trkpt>
      <trkpt lat="45.7699" lon="3.71725">
        <ele>1059.8</ele>
      </trkpt>
      <trkpt lat="45.76979" lon="3.71717">
        <ele>1058.6</ele>
      </trkpt>
      <trkpt lat="45.76972" lon="3.71708">
        <ele>1057.8</ele>
      </trkpt>
      <trkpt lat="45.76967" lon="3.71701">
        <ele>1057.2</ele>
      </trkpt>
      <trkpt lat="45.76962" lon="3.71693">
        <ele>1056.5</ele>
      </trkpt>
      <trkpt lat="45.76954" lon="3.71676">
        <ele>1055.2</ele>
      </trkpt>
      <trkpt lat="45.76946" lon="3.71659">
        <ele>1053.8</ele>
      </trkpt>
      <trkpt lat="45.76936" lon="3.71636">
        <ele>1052.9</ele>
      </trkpt>
      <trkpt lat="45.76929" lon="3.71614">
        <ele>1052.9</ele>
      </trkpt>
      <trkpt lat="45.76927" lon="3.71596">
        <ele>1053.5</ele>
      </trkpt>
      <trkpt lat="45.76925" lon="3.71578">
        <ele>1053.4</ele>
      </trkpt>
      <trkpt lat="45.76923" lon="3.71559">
        <ele>1051.5</ele>
      </trkpt>
      <trkpt lat="45.76924" lon="3.71546">
        <ele>1050.5</ele>
      </trkpt>
      <trkpt lat="45.76927" lon="3.71533">
        <ele>1049.6</ele>
      </trkpt>
      <trkpt lat="45.76931" lon="3.71526">
        <ele>1049.4</ele>
      </trkpt>
      <trkpt lat="45.76937" lon="3.71519">
        <ele>1049.3</ele>
      </trkpt>
      <trkpt lat="45.76941" lon="3.71515">
        <ele>1049.2</ele>
      </trkpt>
      <trkpt lat="45.76941" lon="3.71515">
        <ele>1049.2</ele>
      </trkpt>
      <trkpt lat="45.76947" lon="3.71508">
        <ele>1049</ele>
      </trkpt>
      <trkpt lat="45.76951" lon="3.71504">
        <ele>1048.8</ele>
      </trkpt>
      <trkpt lat="45.76957" lon="3.71494">
        <ele>1048</ele>
      </trkpt>
      <trkpt lat="45.76963" lon="3.71481">
        <ele>1047</ele>
      </trkpt>
      <trkpt lat="45.76967" lon="3.71472">
        <ele>1046.2</ele>
      </trkpt>
      <trkpt lat="45.76968" lon="3.71462">
        <ele>1045.3</ele>
      </trkpt>
      <trkpt lat="45.76968" lon="3.71448">
        <ele>1043.6</ele>
      </trkpt>
      <trkpt lat="45.76966" lon="3.71439">
        <ele>1042.2</ele>
      </trkpt>
      <trkpt lat="45.76964" lon="3.71432">
        <ele>1040.9</ele>
      </trkpt>
      <trkpt lat="45.7696" lon="3.71425">
        <ele>1039.2</ele>
      </trkpt>
      <trkpt lat="45.76956" lon="3.71419">
        <ele>1037.1</ele>
      </trkpt>
      <trkpt lat="45.76947" lon="3.71408">
        <ele>1034.7</ele>
      </trkpt>
      <trkpt lat="45.76943" lon="3.714">
        <ele>1033.6</ele>
      </trkpt>
      <trkpt lat="45.7694" lon="3.71391">
        <ele>1032.9</ele>
      </trkpt>
      <trkpt lat="45.76939" lon="3.71383">
        <ele>1032.5</ele>
      </trkpt>
      <trkpt lat="45.76938" lon="3.71372">
        <ele>1032.3</ele>
      </trkpt>
      <trkpt lat="45.76938" lon="3.71364">
        <ele>1032.2</ele>
      </trkpt>
      <trkpt lat="45.76938" lon="3.71355">
        <ele>1032.3</ele>
      </trkpt>
      <trkpt lat="45.7694" lon="3.71342">
        <ele>1032.6</ele>
      </trkpt>
      <trkpt lat="45.76941" lon="3.71334">
        <ele>1032.9</ele>
      </trkpt>
      <trkpt lat="45.76942" lon="3.71322">
        <ele>1033.4</ele>
      </trkpt>
      <trkpt lat="45.76944" lon="3.71308">
        <ele>1034</ele>
      </trkpt>
      <trkpt lat="45.76946" lon="3.71292">
        <ele>1034.8</ele>
      </trkpt>
      <trkpt lat="45.76948" lon="3.71272">
        <ele>1035.5</ele>
      </trkpt>
      <trkpt lat="45.7695" lon="3.71256">
        <ele>1035.9</ele>
      </trkpt>
      <trkpt lat="45.76952" lon="3.71235">
        <ele>1036</ele>
      </trkpt>
      <trkpt lat="45.76953" lon="3.71224">
        <ele>1036</ele>
      </trkpt>
      <trkpt lat="45.76954" lon="3.71212">
        <ele>1036</ele>
      </trkpt>
      <trkpt lat="45.76955" lon="3.71204">
        <ele>1036</ele>
      </trkpt>
      <trkpt lat="45.76957" lon="3.71193">
        <ele>1036.2</ele>
      </trkpt>
      <trkpt lat="45.76959" lon="3.71182">
        <ele>1036.5</ele>
      </trkpt>
      <trkpt lat="45.76962" lon="3.71172">
        <ele>1036.9</ele>
      </trkpt>
      <trkpt lat="45.76965" lon="3.71161">
        <ele>1037.2</ele>
      </trkpt>
      <trkpt lat="45.76967" lon="3.71149">
        <ele>1037.2</ele>
      </trkpt>
      <trkpt lat="45.7697" lon="3.71136">
        <ele>1037.3</ele>
      </trkpt>
      <trkpt lat="45.76973" lon="3.71119">
        <ele>1037.2</ele>
      </trkpt>
      <trkpt lat="45.76975" lon="3.71106">
        <ele>1037.1</ele>
      </trkpt>
      <trkpt lat="45.76978" lon="3.71085">
        <ele>1036.7</ele>
      </trkpt>
      <trkpt lat="45.76981" lon="3.71063">
        <ele>1036</ele>
      </trkpt>
      <trkpt lat="45.76982" lon="3.71049">
        <ele>1035.4</ele>
      </trkpt>
      <trkpt lat="45.76984" lon="3.71041">
        <ele>1035.2</ele>
      </trkpt>
      <trkpt lat="45.76985" lon="3.7103">
        <ele>1034.8</ele>
      </trkpt>
      <trkpt lat="45.76986" lon="3.71021">
        <ele>1034.5</ele>
      </trkpt>
      <trkpt lat="45.76988" lon="3.71011">
        <ele>1034.1</ele>
      </trkpt>
      <trkpt lat="45.76991" lon="3.70992">
        <ele>1033.5</ele>
      </trkpt>
      <trkpt lat="45.76996" lon="3.70965">
        <ele>1032.2</ele>
      </trkpt>
      <trkpt lat="45.76998" lon="3.70953">
        <ele>1031.8</ele>
      </trkpt>
      <trkpt lat="45.77001" lon="3.70944">
        <ele>1031.4</ele>
      </trkpt>
      <trkpt lat="45.77004" lon="3.70931">
        <ele>1031.1</ele>
      </trkpt>
      <trkpt lat="45.77007" lon="3.70921">
        <ele>1030.8</ele>
      </trkpt>
      <trkpt lat="45.7701" lon="3.70911">
        <ele>1030.6</ele>
      </trkpt>
      <trkpt lat="45.77013" lon="3.709">
        <ele>1030.4</ele>
      </trkpt>
      <trkpt lat="45.77013" lon="3.709">
        <ele>1030.4</ele>
      </trkpt>
      <trkpt lat="45.77021" lon="3.70875">
        <ele>1030.1</ele>
      </trkpt>
      <trkpt lat="45.77029" lon="3.70848">
        <ele>1029.5</ele>
      </trkpt>
      <trkpt lat="45.77032" lon="3.70838">
        <ele>1029.2</ele>
      </trkpt>
      <trkpt lat="45.77034" lon="3.70831">
        <ele>1029</ele>
      </trkpt>
      <trkpt lat="45.77037" lon="3.70825">
        <ele>1029</ele>
      </trkpt>
      <trkpt lat="45.7704" lon="3.70816">
        <ele>1029.1</ele>
      </trkpt>
      <trkpt lat="45.77044" lon="3.7081">
        <ele>1029.2</ele>
      </trkpt>
      <trkpt lat="45.77048" lon="3.70801">
        <ele>1029.2</ele>
      </trkpt>
      <trkpt lat="45.77054" lon="3.70791">
        <ele>1029.5</ele>
      </trkpt>
      <trkpt lat="45.77061" lon="3.7078">
        <ele>1029.8</ele>
      </trkpt>
      <trkpt lat="45.77072" lon="3.70762">
        <ele>1030.2</ele>
      </trkpt>
      <trkpt lat="45.77082" lon="3.70747">
        <ele>1030.4</ele>
      </trkpt>
      <trkpt lat="45.77087" lon="3.70738">
        <ele>1030.1</ele>
      </trkpt>
      <trkpt lat="45.77091" lon="3.70732">
        <ele>1029.8</ele>
      </trkpt>
      <trkpt lat="45.77096" lon="3.70728">
        <ele>1029.7</ele>
      </trkpt>
      <trkpt lat="45.771" lon="3.70724">
        <ele>1029.7</ele>
      </trkpt>
      <trkpt lat="45.77109" lon="3.70719">
        <ele>1030</ele>
      </trkpt>
      <trkpt lat="45.77119" lon="3.70714">
        <ele>1030.4</ele>
      </trkpt>
      <trkpt lat="45.77125" lon="3.70711">
        <ele>1030.6</ele>
      </trkpt>
      <trkpt lat="45.77135" lon="3.70705">
        <ele>1030.8</ele>
      </trkpt>
      <trkpt lat="45.7715" lon="3.70696">
        <ele>1031</ele>
      </trkpt>
      <trkpt lat="45.77166" lon="3.70685">
        <ele>1031.1</ele>
      </trkpt>
      <trkpt lat="45.77182" lon="3.70674">
        <ele>1031.5</ele>
      </trkpt>
      <trkpt lat="45.77193" lon="3.70666">
        <ele>1031.8</ele>
      </trkpt>
      <trkpt lat="45.77198" lon="3.70662">
        <ele>1032</ele>
      </trkpt>
      <trkpt lat="45.77202" lon="3.70658">
        <ele>1032.2</ele>
      </trkpt>
      <trkpt lat="45.77207" lon="3.7065">
        <ele>1032.3</ele>
      </trkpt>
      <trkpt lat="45.77211" lon="3.70645">
        <ele>1032.3</ele>
      </trkpt>
      <trkpt lat="45.77214" lon="3.70639">
        <ele>1032.3</ele>
      </trkpt>
      <trkpt lat="45.77217" lon="3.70633">
        <ele>1032.2</ele>
      </trkpt>
      <trkpt lat="45.7722" lon="3.70625">
        <ele>1032</ele>
      </trkpt>
      <trkpt lat="45.77222" lon="3.70619">
        <ele>1031.9</ele>
      </trkpt>
      <trkpt lat="45.77224" lon="3.70612">
        <ele>1031.7</ele>
      </trkpt>
      <trkpt lat="45.77227" lon="3.70601">
        <ele>1031.4</ele>
      </trkpt>
      <trkpt lat="45.77223" lon="3.70591">
        <ele>1030.2</ele>
      </trkpt>
      <trkpt lat="45.77218" lon="3.70582">
        <ele>1029.3</ele>
      </trkpt>
      <trkpt lat="45.77215" lon="3.70575">
        <ele>1029.2</ele>
      </trkpt>
      <trkpt lat="45.77208" lon="3.70562">
        <ele>1029</ele>
      </trkpt>
      <trkpt lat="45.77206" lon="3.70557">
        <ele>1028.9</ele>
      </trkpt>
      <trkpt lat="45.77202" lon="3.70551">
        <ele>1028.8</ele>
      </trkpt>
      <trkpt lat="45.77195" lon="3.70543">
        <ele>1028.4</ele>
      </trkpt>
      <trkpt lat="45.77189" lon="3.70536">
        <ele>1028</ele>
      </trkpt>
      <trkpt lat="45.77181" lon="3.70529">
        <ele>1027.3</ele>
      </trkpt>
      <trkpt lat="45.77176" lon="3.70524">
        <ele>1026.9</ele>
      </trkpt>
      <trkpt lat="45.77172" lon="3.70519">
        <ele>1026.7</ele>
      </trkpt>
      <trkpt lat="45.77165" lon="3.7051">
        <ele>1026.3</ele>
      </trkpt>
      <trkpt lat="45.7716" lon="3.70498">
        <ele>1025.7</ele>
      </trkpt>
      <trkpt lat="45.77154" lon="3.70482">
        <ele>1023.8</ele>
      </trkpt>
      <trkpt lat="45.77148" lon="3.70461">
        <ele>1021.7</ele>
      </trkpt>
      <trkpt lat="45.77148" lon="3.70442">
        <ele>1020.5</ele>
      </trkpt>
      <trkpt lat="45.77148" lon="3.70429">
        <ele>1019.8</ele>
      </trkpt>
      <trkpt lat="45.77148" lon="3.70429">
        <ele>1019.8</ele>
      </trkpt>
      <trkpt lat="45.77148" lon="3.70404">
        <ele>1018.3</ele>
      </trkpt>
      <trkpt lat="45.77148" lon="3.70382">
        <ele>1017.2</ele>
      </trkpt>
      <trkpt lat="45.77148" lon="3.70361">
        <ele>1016.1</ele>
      </trkpt>
      <trkpt lat="45.77148" lon="3.70344">
        <ele>1015.1</ele>
      </trkpt>
      <trkpt lat="45.77147" lon="3.70331">
        <ele>1014.3</ele>
      </trkpt>
      <trkpt lat="45.77147" lon="3.70321">
        <ele>1013.3</ele>
      </trkpt>
      <trkpt lat="45.77148" lon="3.70313">
        <ele>1012.7</ele>
      </trkpt>
      <trkpt lat="45.77149" lon="3.70305">
        <ele>1012.2</ele>
      </trkpt>
      <trkpt lat="45.77152" lon="3.70293">
        <ele>1011.6</ele>
      </trkpt>
      <trkpt lat="45.77155" lon="3.70278">
        <ele>1010.9</ele>
      </trkpt>
      <trkpt lat="45.77158" lon="3.70257">
        <ele>1009.7</ele>
      </trkpt>
      <trkpt lat="45.77159" lon="3.70246">
        <ele>1008.8</ele>
      </trkpt>
      <trkpt lat="45.7716" lon="3.70233">
        <ele>1007.7</ele>
      </trkpt>
      <trkpt lat="45.77161" lon="3.70223">
        <ele>1006.8</ele>
      </trkpt>
      <trkpt lat="45.77162" lon="3.7021">
        <ele>1005.6</ele>
      </trkpt>
      <trkpt lat="45.77163" lon="3.70196">
        <ele>1004.3</ele>
      </trkpt>
      <trkpt lat="45.77163" lon="3.70185">
        <ele>1003.1</ele>
      </trkpt>
      <trkpt lat="45.77163" lon="3.70168">
        <ele>1001.4</ele>
      </trkpt>
      <trkpt lat="45.77163" lon="3.70147">
        <ele>999</ele>
      </trkpt>
      <trkpt lat="45.77163" lon="3.70135">
        <ele>997.6</ele>
      </trkpt>
      <trkpt lat="45.77163" lon="3.70122">
        <ele>996.3</ele>
      </trkpt>
      <trkpt lat="45.77163" lon="3.70105">
        <ele>994.5</ele>
      </trkpt>
      <trkpt lat="45.77163" lon="3.70091">
        <ele>993.1</ele>
      </trkpt>
      <trkpt lat="45.77164" lon="3.70073">
        <ele>991.8</ele>
      </trkpt>
      <trkpt lat="45.77164" lon="3.70053">
        <ele>990.7</ele>
      </trkpt>
      <trkpt lat="45.77164" lon="3.70024">
        <ele>989</ele>
      </trkpt>
      <trkpt lat="45.77164" lon="3.69998">
        <ele>987.6</ele>
      </trkpt>
      <trkpt lat="45.77164" lon="3.69983">
        <ele>987.3</ele>
      </trkpt>
      <trkpt lat="45.77164" lon="3.69972">
        <ele>987</ele>
      </trkpt>
      <trkpt lat="45.77166" lon="3.69956">
        <ele>986.8</ele>
      </trkpt>
      <trkpt lat="45.77168" lon="3.69949">
        <ele>986.8</ele>
      </trkpt>
      <trkpt lat="45.77169" lon="3.69939">
        <ele>986.5</ele>
      </trkpt>
      <trkpt lat="45.77159" lon="3.69939">
        <ele>985.8</ele>
      </trkpt>
      <trkpt lat="45.77153" lon="3.69937">
        <ele>985.1</ele>
      </trkpt>
      <trkpt lat="45.77148" lon="3.69935">
        <ele>984.5</ele>
      </trkpt>
      <trkpt lat="45.77151" lon="3.69917">
        <ele>984.5</ele>
      </trkpt>
      <trkpt lat="45.77152" lon="3.69911">
        <ele>984.2</ele>
      </trkpt>
      <trkpt lat="45.77155" lon="3.69903">
        <ele>983.7</ele>
      </trkpt>
      <trkpt lat="45.77157" lon="3.69892">
        <ele>983.1</ele>
      </trkpt>
      <trkpt lat="45.77161" lon="3.69881">
        <ele>982.5</ele>
      </trkpt>
      <trkpt lat="45.77165" lon="3.69871">
        <ele>982.1</ele>
      </trkpt>
      <trkpt lat="45.7717" lon="3.69866">
        <ele>981.7</ele>
      </trkpt>
      <trkpt lat="45.77175" lon="3.69866">
        <ele>981.6</ele>
      </trkpt>
      <trkpt lat="45.77173" lon="3.6986">
        <ele>981.1</ele>
      </trkpt>
      <trkpt lat="45.77177" lon="3.69853">
        <ele>980.5</ele>
      </trkpt>
      <trkpt lat="45.77182" lon="3.69848">
        <ele>979.9</ele>
      </trkpt>
      <trkpt lat="45.77188" lon="3.69846">
        <ele>979.6</ele>
      </trkpt>
      <trkpt lat="45.77193" lon="3.69847">
        <ele>979.5</ele>
      </trkpt>
      <trkpt lat="45.77197" lon="3.69841">
        <ele>979</ele>
      </trkpt>
      <trkpt lat="45.77197" lon="3.69841">
        <ele>979</ele>
      </trkpt>
      <trkpt lat="45.77205" lon="3.69838">
        <ele>978.5</ele>
      </trkpt>
      <trkpt lat="45.77209" lon="3.69837">
        <ele>978.3</ele>
      </trkpt>
      <trkpt lat="45.77221" lon="3.69836">
        <ele>978</ele>
      </trkpt>
      <trkpt lat="45.77226" lon="3.69835">
        <ele>977.7</ele>
      </trkpt>
      <trkpt lat="45.77234" lon="3.69833">
        <ele>977.4</ele>
      </trkpt>
      <trkpt lat="45.77239" lon="3.69827">
        <ele>977.4</ele>
      </trkpt>
      <trkpt lat="45.77241" lon="3.69819">
        <ele>977.6</ele>
      </trkpt>
      <trkpt lat="45.7724" lon="3.69811">
        <ele>977.8</ele>
      </trkpt>
      <trkpt lat="45.77237" lon="3.69803">
        <ele>977.9</ele>
      </trkpt>
      <trkpt lat="45.77234" lon="3.69797">
        <ele>977.9</ele>
      </trkpt>
      <trkpt lat="45.77231" lon="3.69786">
        <ele>977.8</ele>
      </trkpt>
      <trkpt lat="45.7723" lon="3.69779">
        <ele>977.8</ele>
      </trkpt>
      <trkpt lat="45.77229" lon="3.69765">
        <ele>977.7</ele>
      </trkpt>
      <trkpt lat="45.77227" lon="3.69752">
        <ele>977.4</ele>
      </trkpt>
      <trkpt lat="45.77226" lon="3.69744">
        <ele>978.1</ele>
      </trkpt>
      <trkpt lat="45.77221" lon="3.69729">
        <ele>979.6</ele>
      </trkpt>
      <trkpt lat="45.77216" lon="3.69712">
        <ele>980.8</ele>
      </trkpt>
      <trkpt lat="45.7721" lon="3.69696">
        <ele>981.6</ele>
      </trkpt>
      <trkpt lat="45.77202" lon="3.69677">
        <ele>982</ele>
      </trkpt>
      <trkpt lat="45.77197" lon="3.69668">
        <ele>981.8</ele>
      </trkpt>
      <trkpt lat="45.77189" lon="3.69656">
        <ele>980.6</ele>
      </trkpt>
      <trkpt lat="45.77183" lon="3.69647">
        <ele>979.5</ele>
      </trkpt>
      <trkpt lat="45.77179" lon="3.69639">
        <ele>978.6</ele>
      </trkpt>
      <trkpt lat="45.77174" lon="3.69632">
        <ele>977.8</ele>
      </trkpt>
      <trkpt lat="45.77172" lon="3.69624">
        <ele>977.4</ele>
      </trkpt>
      <trkpt lat="45.77168" lon="3.69609">
        <ele>977.2</ele>
      </trkpt>
      <trkpt lat="45.77167" lon="3.69599">
        <ele>977.4</ele>
      </trkpt>
      <trkpt lat="45.77167" lon="3.69582">
        <ele>978</ele>
      </trkpt>
      <trkpt lat="45.77165" lon="3.69549">
        <ele>977.6</ele>
      </trkpt>
      <trkpt lat="45.77164" lon="3.69533">
        <ele>977.1</ele>
      </trkpt>
      <trkpt lat="45.77163" lon="3.69525">
        <ele>976.9</ele>
      </trkpt>
      <trkpt lat="45.77162" lon="3.69514">
        <ele>976.5</ele>
      </trkpt>
      <trkpt lat="45.7716" lon="3.69506">
        <ele>976</ele>
      </trkpt>
      <trkpt lat="45.77157" lon="3.69496">
        <ele>975.1</ele>
      </trkpt>
      <trkpt lat="45.77154" lon="3.69488">
        <ele>974.2</ele>
      </trkpt>
      <trkpt lat="45.77151" lon="3.69481">
        <ele>973.2</ele>
      </trkpt>
      <trkpt lat="45.77148" lon="3.69473">
        <ele>972.4</ele>
      </trkpt>
      <trkpt lat="45.77146" lon="3.69466">
        <ele>971.7</ele>
      </trkpt>
      <trkpt lat="45.77144" lon="3.69458">
        <ele>971.2</ele>
      </trkpt>
      <trkpt lat="45.77142" lon="3.6945">
        <ele>970.6</ele>
      </trkpt>
      <trkpt lat="45.77139" lon="3.6944">
        <ele>970.1</ele>
      </trkpt>
      <trkpt lat="45.77136" lon="3.69428">
        <ele>969.6</ele>
      </trkpt>
      <trkpt lat="45.77134" lon="3.69416">
        <ele>969</ele>
      </trkpt>
      <trkpt lat="45.77133" lon="3.69403">
        <ele>967.8</ele>
      </trkpt>
      <trkpt lat="45.77132" lon="3.69395">
        <ele>967.1</ele>
      </trkpt>
      <trkpt lat="45.77131" lon="3.69386">
        <ele>966.3</ele>
      </trkpt>
      <trkpt lat="45.77131" lon="3.69375">
        <ele>965.4</ele>
      </trkpt>
      <trkpt lat="45.7713" lon="3.69362">
        <ele>964.4</ele>
      </trkpt>
      <trkpt lat="45.77128" lon="3.69352">
        <ele>963.3</ele>
      </trkpt>
      <trkpt lat="45.77127" lon="3.69341">
        <ele>962.3</ele>
      </trkpt>
      <trkpt lat="45.77119" lon="3.6933">
        <ele>960</ele>
      </trkpt>
      <trkpt lat="45.77115" lon="3.69319">
        <ele>957.9</ele>
      </trkpt>
      <trkpt lat="45.77114" lon="3.6931">
        <ele>956.6</ele>
      </trkpt>
      <trkpt lat="45.77115" lon="3.69303">
        <ele>955.8</ele>
      </trkpt>
      <trkpt lat="45.77117" lon="3.6929">
        <ele>954.5</ele>
      </trkpt>
      <trkpt lat="45.77119" lon="3.69284">
        <ele>954</ele>
      </trkpt>
      <trkpt lat="45.77119" lon="3.69284">
        <ele>954</ele>
      </trkpt>
      <trkpt lat="45.77123" lon="3.69273">
        <ele>953.1</ele>
      </trkpt>
      <trkpt lat="45.77127" lon="3.69265">
        <ele>952.7</ele>
      </trkpt>
      <trkpt lat="45.77131" lon="3.69256">
        <ele>952.1</ele>
      </trkpt>
      <trkpt lat="45.77131" lon="3.69247">
        <ele>951.1</ele>
      </trkpt>
      <trkpt lat="45.77134" lon="3.69234">
        <ele>949.7</ele>
      </trkpt>
      <trkpt lat="45.77137" lon="3.69224">
        <ele>948.9</ele>
      </trkpt>
      <trkpt lat="45.77139" lon="3.69219">
        <ele>948.4</ele>
      </trkpt>
      <trkpt lat="45.77146" lon="3.69201">
        <ele>947</ele>
      </trkpt>
      <trkpt lat="45.77152" lon="3.69187">
        <ele>945.9</ele>
      </trkpt>
      <trkpt lat="45.77157" lon="3.69177">
        <ele>945.1</ele>
      </trkpt>
      <trkpt lat="45.7716" lon="3.69168">
        <ele>944.3</ele>
      </trkpt>
      <trkpt lat="45.77163" lon="3.6916">
        <ele>943.7</ele>
      </trkpt>
      <trkpt lat="45.77166" lon="3.69152">
        <ele>943</ele>
      </trkpt>
      <trkpt lat="45.7717" lon="3.69139">
        <ele>941.8</ele>
      </trkpt>
      <trkpt lat="45.77173" lon="3.6913">
        <ele>941</ele>
      </trkpt>
      <trkpt lat="45.77175" lon="3.69122">
        <ele>940.2</ele>
      </trkpt>
      <trkpt lat="45.77178" lon="3.69114">
        <ele>939.3</ele>
      </trkpt>
      <trkpt lat="45.77181" lon="3.69105">
        <ele>938.5</ele>
      </trkpt>
      <trkpt lat="45.77184" lon="3.69097">
        <ele>937.7</ele>
      </trkpt>
      <trkpt lat="45.77186" lon="3.6909">
        <ele>937</ele>
      </trkpt>
      <trkpt lat="45.77189" lon="3.69083">
        <ele>936.4</ele>
      </trkpt>
      <trkpt lat="45.77192" lon="3.69077">
        <ele>935.7</ele>
      </trkpt>
      <trkpt lat="45.77198" lon="3.69067">
        <ele>934.7</ele>
      </trkpt>
      <trkpt lat="45.77201" lon="3.69062">
        <ele>934.4</ele>
      </trkpt>
      <trkpt lat="45.77206" lon="3.69058">
        <ele>934.3</ele>
      </trkpt>
      <trkpt lat="45.77214" lon="3.69052">
        <ele>934.3</ele>
      </trkpt>
      <trkpt lat="45.77223" lon="3.69046">
        <ele>934.4</ele>
      </trkpt>
      <trkpt lat="45.77232" lon="3.69039">
        <ele>934.4</ele>
      </trkpt>
      <trkpt lat="45.77239" lon="3.69033">
        <ele>934.3</ele>
      </trkpt>
      <trkpt lat="45.77245" lon="3.69028">
        <ele>934.4</ele>
      </trkpt>
      <trkpt lat="45.77249" lon="3.69024">
        <ele>934.3</ele>
      </trkpt>
      <trkpt lat="45.77254" lon="3.69018">
        <ele>933.9</ele>
      </trkpt>
      <trkpt lat="45.77258" lon="3.69012">
        <ele>933.4</ele>
      </trkpt>
      <trkpt lat="45.77266" lon="3.69001">
        <ele>932.3</ele>
      </trkpt>
      <trkpt lat="45.7727" lon="3.68994">
        <ele>931.6</ele>
      </trkpt>
      <trkpt lat="45.77274" lon="3.68989">
        <ele>931.2</ele>
      </trkpt>
      <trkpt lat="45.7728" lon="3.68983">
        <ele>930.8</ele>
      </trkpt>
      <trkpt lat="45.77286" lon="3.68977">
        <ele>930.4</ele>
      </trkpt>
      <trkpt lat="45.77292" lon="3.68969">
        <ele>929.8</ele>
      </trkpt>
      <trkpt lat="45.77299" lon="3.68958">
        <ele>928.9</ele>
      </trkpt>
      <trkpt lat="45.77304" lon="3.6895">
        <ele>928.2</ele>
      </trkpt>
      <trkpt lat="45.7731" lon="3.6894">
        <ele>927.6</ele>
      </trkpt>
      <trkpt lat="45.77316" lon="3.68934">
        <ele>927.2</ele>
      </trkpt>
      <trkpt lat="45.77323" lon="3.68926">
        <ele>927.1</ele>
      </trkpt>
      <trkpt lat="45.77328" lon="3.68923">
        <ele>927.1</ele>
      </trkpt>
      <trkpt lat="45.77332" lon="3.68917">
        <ele>926.8</ele>
      </trkpt>
      <trkpt lat="45.77335" lon="3.68911">
        <ele>926.8</ele>
      </trkpt>
      <trkpt lat="45.77338" lon="3.689">
        <ele>926.7</ele>
      </trkpt>
      <trkpt lat="45.7734" lon="3.68894">
        <ele>926.4</ele>
      </trkpt>
      <trkpt lat="45.77341" lon="3.68887">
        <ele>926.2</ele>
      </trkpt>
      <trkpt lat="45.77343" lon="3.68875">
        <ele>925.8</ele>
      </trkpt>
      <trkpt lat="45.77343" lon="3.68864">
        <ele>925.2</ele>
      </trkpt>
      <trkpt lat="45.77341" lon="3.68855">
        <ele>924.5</ele>
      </trkpt>
      <trkpt lat="45.77338" lon="3.68841">
        <ele>923.2</ele>
      </trkpt>
      <trkpt lat="45.77334" lon="3.68826">
        <ele>921.7</ele>
      </trkpt>
      <trkpt lat="45.77325" lon="3.688">
        <ele>919.4</ele>
      </trkpt>
      <trkpt lat="45.7732" lon="3.68784">
        <ele>918.1</ele>
      </trkpt>
      <trkpt lat="45.77318" lon="3.68779">
        <ele>917.7</ele>
      </trkpt>
      <trkpt lat="45.77314" lon="3.68769">
        <ele>917</ele>
      </trkpt>
      <trkpt lat="45.77312" lon="3.68761">
        <ele>916.5</ele>
      </trkpt>
      <trkpt lat="45.77312" lon="3.68761">
        <ele>916.5</ele>
      </trkpt>
      <trkpt lat="45.77312" lon="3.68749">
        <ele>916.1</ele>
      </trkpt>
      <trkpt lat="45.77314" lon="3.68739">
        <ele>915.5</ele>
      </trkpt>
      <trkpt lat="45.77316" lon="3.68732">
        <ele>915.2</ele>
      </trkpt>
      <trkpt lat="45.77319" lon="3.68724">
        <ele>914.8</ele>
      </trkpt>
      <trkpt lat="45.77323" lon="3.68716">
        <ele>914.4</ele>
      </trkpt>
      <trkpt lat="45.77327" lon="3.6871">
        <ele>914.2</ele>
      </trkpt>
      <trkpt lat="45.77336" lon="3.68697">
        <ele>913.8</ele>
      </trkpt>
      <trkpt lat="45.77343" lon="3.68686">
        <ele>913.8</ele>
      </trkpt>
      <trkpt lat="45.77352" lon="3.68676">
        <ele>913.9</ele>
      </trkpt>
      <trkpt lat="45.77361" lon="3.68665">
        <ele>913.8</ele>
      </trkpt>
      <trkpt lat="45.77371" lon="3.68654">
        <ele>913.6</ele>
      </trkpt>
      <trkpt lat="45.77382" lon="3.68642">
        <ele>913.3</ele>
      </trkpt>
      <trkpt lat="45.77388" lon="3.68633">
        <ele>912.8</ele>
      </trkpt>
      <trkpt lat="45.77392" lon="3.68627">
        <ele>912.3</ele>
      </trkpt>
      <trkpt lat="45.77397" lon="3.68617">
        <ele>911.4</ele>
      </trkpt>
      <trkpt lat="45.77404" lon="3.68601">
        <ele>909.8</ele>
      </trkpt>
      <trkpt lat="45.7741" lon="3.68587">
        <ele>908.2</ele>
      </trkpt>
      <trkpt lat="45.77417" lon="3.68572">
        <ele>907</ele>
      </trkpt>
      <trkpt lat="45.77427" lon="3.68547">
        <ele>904.8</ele>
      </trkpt>
      <trkpt lat="45.77436" lon="3.68522">
        <ele>902.4</ele>
      </trkpt>
      <trkpt lat="45.7744" lon="3.6851">
        <ele>901.2</ele>
      </trkpt>
      <trkpt lat="45.77445" lon="3.68497">
        <ele>899.9</ele>
      </trkpt>
      <trkpt lat="45.77447" lon="3.68489">
        <ele>899.4</ele>
      </trkpt>
      <trkpt lat="45.7745" lon="3.68479">
        <ele>898.9</ele>
      </trkpt>
      <trkpt lat="45.77453" lon="3.6846">
        <ele>897.9</ele>
      </trkpt>
      <trkpt lat="45.77456" lon="3.68448">
        <ele>897.1</ele>
      </trkpt>
      <trkpt lat="45.77461" lon="3.68426">
        <ele>895.8</ele>
      </trkpt>
      <trkpt lat="45.77466" lon="3.68404">
        <ele>893.4</ele>
      </trkpt>
      <trkpt lat="45.77468" lon="3.68395">
        <ele>892.2</ele>
      </trkpt>
      <trkpt lat="45.77471" lon="3.6838">
        <ele>890.4</ele>
      </trkpt>
      <trkpt lat="45.77474" lon="3.68371">
        <ele>889.4</ele>
      </trkpt>
      <trkpt lat="45.77478" lon="3.68362">
        <ele>888.4</ele>
      </trkpt>
      <trkpt lat="45.77481" lon="3.68354">
        <ele>887.6</ele>
      </trkpt>
      <trkpt lat="45.77484" lon="3.68347">
        <ele>886.9</ele>
      </trkpt>
      <trkpt lat="45.77487" lon="3.68341">
        <ele>886.3</ele>
      </trkpt>
      <trkpt lat="45.77488" lon="3.68333">
        <ele>885.7</ele>
      </trkpt>
      <trkpt lat="45.7749" lon="3.68324">
        <ele>884.6</ele>
      </trkpt>
      <trkpt lat="45.77494" lon="3.68307">
        <ele>882.7</ele>
      </trkpt>
      <trkpt lat="45.77498" lon="3.68293">
        <ele>881</ele>
      </trkpt>
      <trkpt lat="45.77503" lon="3.68274">
        <ele>878.8</ele>
      </trkpt>
      <trkpt lat="45.77506" lon="3.68259">
        <ele>877.1</ele>
      </trkpt>
      <trkpt lat="45.77511" lon="3.68244">
        <ele>875.4</ele>
      </trkpt>
      <trkpt lat="45.77515" lon="3.6823">
        <ele>874.1</ele>
      </trkpt>
      <trkpt lat="45.77519" lon="3.68218">
        <ele>873</ele>
      </trkpt>
      <trkpt lat="45.77523" lon="3.68208">
        <ele>872.3</ele>
      </trkpt>
      <trkpt lat="45.77527" lon="3.68198">
        <ele>871.6</ele>
      </trkpt>
      <trkpt lat="45.77532" lon="3.68187">
        <ele>870.9</ele>
      </trkpt>
      <trkpt lat="45.77532" lon="3.68187">
        <ele>870.9</ele>
      </trkpt>
      <trkpt lat="45.77539" lon="3.68174">
        <ele>870.3</ele>
      </trkpt>
      <trkpt lat="45.77543" lon="3.68164">
        <ele>870</ele>
      </trkpt>
      <trkpt lat="45.77548" lon="3.68154">
        <ele>869.8</ele>
      </trkpt>
      <trkpt lat="45.77554" lon="3.68141">
        <ele>869.6</ele>
      </trkpt>
      <trkpt lat="45.7756" lon="3.6813">
        <ele>869.4</ele>
      </trkpt>
      <trkpt lat="45.77566" lon="3.68118">
        <ele>869.3</ele>
      </trkpt>
      <trkpt lat="45.7757" lon="3.68109">
        <ele>869.1</ele>
      </trkpt>
      <trkpt lat="45.77575" lon="3.68097">
        <ele>869</ele>
      </trkpt>
      <trkpt lat="45.77584" lon="3.68073">
        <ele>868.7</ele>
      </trkpt>
      <trkpt lat="45.77591" lon="3.68055">
        <ele>868.4</ele>
      </trkpt>
      <trkpt lat="45.776" lon="3.68034">
        <ele>867.9</ele>
      </trkpt>
      <trkpt lat="45.77615" lon="3.68012">
        <ele>867.3</ele>
      </trkpt>
      <trkpt lat="45.77622" lon="3.67995">
        <ele>866.7</ele>
      </trkpt>
      <trkpt lat="45.77634" lon="3.67977">
        <ele>865.8</ele>
      </trkpt>
      <trkpt lat="45.7764" lon="3.67977">
        <ele>865.9</ele>
      </trkpt>
      <trkpt lat="45.77646" lon="3.67976">
        <ele>865.9</ele>
      </trkpt>
      <trkpt lat="45.77648" lon="3.67963">
        <ele>864.9</ele>
      </trkpt>
      <trkpt lat="45.77651" lon="3.67947">
        <ele>863.7</ele>
      </trkpt>
      <trkpt lat="45.77654" lon="3.67931">
        <ele>862.5</ele>
      </trkpt>
      <trkpt lat="45.7766" lon="3.67905">
        <ele>860.8</ele>
      </trkpt>
      <trkpt lat="45.77667" lon="3.6788">
        <ele>859.7</ele>
      </trkpt>
      <trkpt lat="45.77669" lon="3.67868">
        <ele>859</ele>
      </trkpt>
      <trkpt lat="45.77672" lon="3.67844">
        <ele>858</ele>
      </trkpt>
      <trkpt lat="45.77673" lon="3.67815">
        <ele>856.5</ele>
      </trkpt>
      <trkpt lat="45.77673" lon="3.67805">
        <ele>856</ele>
      </trkpt>
      <trkpt lat="45.77671" lon="3.67782">
        <ele>854.8</ele>
      </trkpt>
      <trkpt lat="45.7767" lon="3.6776">
        <ele>853.5</ele>
      </trkpt>
      <trkpt lat="45.77668" lon="3.67738">
        <ele>853.4</ele>
      </trkpt>
      <trkpt lat="45.77668" lon="3.67727">
        <ele>853.8</ele>
      </trkpt>
      <trkpt lat="45.77667" lon="3.67695">
        <ele>855</ele>
      </trkpt>
      <trkpt lat="45.77668" lon="3.67667">
        <ele>856</ele>
      </trkpt>
      <trkpt lat="45.77671" lon="3.67638">
        <ele>857.3</ele>
      </trkpt>
      <trkpt lat="45.77675" lon="3.67609">
        <ele>858.6</ele>
      </trkpt>
      <trkpt lat="45.7768" lon="3.6758">
        <ele>859.8</ele>
      </trkpt>
      <trkpt lat="45.7768" lon="3.6758">
        <ele>859.8</ele>
      </trkpt>
      <trkpt lat="45.77682" lon="3.67564">
        <ele>859.5</ele>
      </trkpt>
      <trkpt lat="45.77687" lon="3.67534">
        <ele>858.7</ele>
      </trkpt>
      <trkpt lat="45.77691" lon="3.67509">
        <ele>857.9</ele>
      </trkpt>
      <trkpt lat="45.77693" lon="3.67497">
        <ele>857.2</ele>
      </trkpt>
      <trkpt lat="45.77696" lon="3.67487">
        <ele>856.2</ele>
      </trkpt>
      <trkpt lat="45.777" lon="3.67472">
        <ele>854.7</ele>
      </trkpt>
      <trkpt lat="45.77707" lon="3.67451">
        <ele>852.3</ele>
      </trkpt>
      <trkpt lat="45.77714" lon="3.6743">
        <ele>849.9</ele>
      </trkpt>
      <trkpt lat="45.77721" lon="3.67408">
        <ele>847.4</ele>
      </trkpt>
      <trkpt lat="45.77727" lon="3.67389">
        <ele>845.1</ele>
      </trkpt>
      <trkpt lat="45.77734" lon="3.6737">
        <ele>843</ele>
      </trkpt>
      <trkpt lat="45.77738" lon="3.6736">
        <ele>841.8</ele>
      </trkpt>
      <trkpt lat="45.77742" lon="3.67352">
        <ele>840.9</ele>
      </trkpt>
      <trkpt lat="45.77745" lon="3.67346">
        <ele>840.2</ele>
      </trkpt>
      <trkpt lat="45.77751" lon="3.67335">
        <ele>839.1</ele>
      </trkpt>
      <trkpt lat="45.77761" lon="3.67321">
        <ele>838.5</ele>
      </trkpt>
      <trkpt lat="45.77771" lon="3.67306">
        <ele>838.2</ele>
      </trkpt>
      <trkpt lat="45.77775" lon="3.67299">
        <ele>838.1</ele>
      </trkpt>
      <trkpt lat="45.77777" lon="3.67292">
        <ele>838</ele>
      </trkpt>
      <trkpt lat="45.77781" lon="3.67282">
        <ele>837.9</ele>
      </trkpt>
      <trkpt lat="45.77783" lon="3.67274">
        <ele>837.8</ele>
      </trkpt>
      <trkpt lat="45.77786" lon="3.67266">
        <ele>837.9</ele>
      </trkpt>
      <trkpt lat="45.77789" lon="3.67259">
        <ele>837.9</ele>
      </trkpt>
      <trkpt lat="45.77792" lon="3.6725">
        <ele>838</ele>
      </trkpt>
      <trkpt lat="45.77794" lon="3.67241">
        <ele>837.7</ele>
      </trkpt>
      <trkpt lat="45.77794" lon="3.67241">
        <ele>837.7</ele>
      </trkpt>
      <trkpt lat="45.77796" lon="3.67234">
        <ele>837.4</ele>
      </trkpt>
      <trkpt lat="45.77798" lon="3.6722">
        <ele>837</ele>
      </trkpt>
      <trkpt lat="45.77801" lon="3.67209">
        <ele>836.7</ele>
      </trkpt>
      <trkpt lat="45.77803" lon="3.67201">
        <ele>836.5</ele>
      </trkpt>
      <trkpt lat="45.77806" lon="3.67193">
        <ele>836.2</ele>
      </trkpt>
      <trkpt lat="45.77808" lon="3.67186">
        <ele>836.2</ele>
      </trkpt>
      <trkpt lat="45.77811" lon="3.67178">
        <ele>836.1</ele>
      </trkpt>
      <trkpt lat="45.77815" lon="3.67172">
        <ele>836.2</ele>
      </trkpt>
      <trkpt lat="45.77818" lon="3.67167">
        <ele>836.4</ele>
      </trkpt>
      <trkpt lat="45.77824" lon="3.67161">
        <ele>836.6</ele>
      </trkpt>
      <trkpt lat="45.77831" lon="3.67153">
        <ele>836.9</ele>
      </trkpt>
      <trkpt lat="45.7784" lon="3.67144">
        <ele>836</ele>
      </trkpt>
      <trkpt lat="45.77846" lon="3.67138">
        <ele>835.1</ele>
      </trkpt>
      <trkpt lat="45.77851" lon="3.67134">
        <ele>834.5</ele>
      </trkpt>
      <trkpt lat="45.77856" lon="3.67132">
        <ele>834.1</ele>
      </trkpt>
      <trkpt lat="45.77861" lon="3.67126">
        <ele>833.4</ele>
      </trkpt>
      <trkpt lat="45.77856" lon="3.6712">
        <ele>833.5</ele>
      </trkpt>
      <trkpt lat="45.77854" lon="3.67113">
        <ele>833.3</ele>
      </trkpt>
      <trkpt lat="45.77853" lon="3.67102">
        <ele>833</ele>
      </trkpt>
      <trkpt lat="45.77851" lon="3.67091">
        <ele>832.5</ele>
      </trkpt>
      <trkpt lat="45.77851" lon="3.67081">
        <ele>832.1</ele>
      </trkpt>
      <trkpt lat="45.77851" lon="3.67074">
        <ele>832.1</ele>
      </trkpt>
      <trkpt lat="45.77853" lon="3.67067">
        <ele>832.1</ele>
      </trkpt>
      <trkpt lat="45.77836" lon="3.67048">
        <ele>831.8</ele>
      </trkpt>
      <trkpt lat="45.77821" lon="3.67033">
        <ele>829.4</ele>
      </trkpt>
      <trkpt lat="45.77805" lon="3.67019">
        <ele>826.3</ele>
      </trkpt>
      <trkpt lat="45.77805" lon="3.67019">
        <ele>826.3</ele>
      </trkpt>
      <trkpt lat="45.77789" lon="3.67003">
        <ele>822.8</ele>
      </trkpt>
      <trkpt lat="45.77773" lon="3.66987">
        <ele>819.8</ele>
      </trkpt>
      <trkpt lat="45.77766" lon="3.6698">
        <ele>818.4</ele>
      </trkpt>
      <trkpt lat="45.77755" lon="3.66965">
        <ele>816.4</ele>
      </trkpt>
      <trkpt lat="45.77753" lon="3.66954">
        <ele>816</ele>
      </trkpt>
      <trkpt lat="45.77751" lon="3.66946">
        <ele>815.5</ele>
      </trkpt>
      <trkpt lat="45.77748" lon="3.66935">
        <ele>814.9</ele>
      </trkpt>
      <trkpt lat="45.77743" lon="3.66921">
        <ele>814</ele>
      </trkpt>
      <trkpt lat="45.7774" lon="3.66912">
        <ele>813.7</ele>
      </trkpt>
      <trkpt lat="45.77738" lon="3.66905">
        <ele>813.6</ele>
      </trkpt>
      <trkpt lat="45.77734" lon="3.66898">
        <ele>813.5</ele>
      </trkpt>
      <trkpt lat="45.77731" lon="3.66892">
        <ele>813.3</ele>
      </trkpt>
      <trkpt lat="45.77726" lon="3.66884">
        <ele>813</ele>
      </trkpt>
      <trkpt lat="45.77721" lon="3.66878">
        <ele>812.5</ele>
      </trkpt>
      <trkpt lat="45.77708" lon="3.66866">
        <ele>811.2</ele>
      </trkpt>
      <trkpt lat="45.77701" lon="3.66859">
        <ele>810.6</ele>
      </trkpt>
      <trkpt lat="45.77692" lon="3.6685">
        <ele>809.8</ele>
      </trkpt>
      <trkpt lat="45.77683" lon="3.6684">
        <ele>809</ele>
      </trkpt>
      <trkpt lat="45.77675" lon="3.66829">
        <ele>808.4</ele>
      </trkpt>
      <trkpt lat="45.77666" lon="3.66819">
        <ele>808</ele>
      </trkpt>
      <trkpt lat="45.77652" lon="3.668">
        <ele>807.2</ele>
      </trkpt>
      <trkpt lat="45.77642" lon="3.66786">
        <ele>806.7</ele>
      </trkpt>
      <trkpt lat="45.77626" lon="3.66768">
        <ele>805.7</ele>
      </trkpt>
      <trkpt lat="45.7762" lon="3.66758">
        <ele>805.6</ele>
      </trkpt>
      <trkpt lat="45.77616" lon="3.6675">
        <ele>805.7</ele>
      </trkpt>
      <trkpt lat="45.7761" lon="3.66737">
        <ele>805.1</ele>
      </trkpt>
      <trkpt lat="45.77607" lon="3.66729">
        <ele>804.9</ele>
      </trkpt>
      <trkpt lat="45.77605" lon="3.66722">
        <ele>804.8</ele>
      </trkpt>
      <trkpt lat="45.77603" lon="3.66715">
        <ele>804.7</ele>
      </trkpt>
      <trkpt lat="45.77602" lon="3.66707">
        <ele>804.8</ele>
      </trkpt>
      <trkpt lat="45.77605" lon="3.66699">
        <ele>805.3</ele>
      </trkpt>
      <trkpt lat="45.77608" lon="3.66691">
        <ele>805.8</ele>
      </trkpt>
      <trkpt lat="45.77614" lon="3.66677">
        <ele>806.8</ele>
      </trkpt>
      <trkpt lat="45.77621" lon="3.66664">
        <ele>807.5</ele>
      </trkpt>
      <trkpt lat="45.77632" lon="3.66638">
        <ele>807.5</ele>
      </trkpt>
      <trkpt lat="45.77639" lon="3.6662">
        <ele>807.5</ele>
      </trkpt>
      <trkpt lat="45.77646" lon="3.66606">
        <ele>807.5</ele>
      </trkpt>
      <trkpt lat="45.77651" lon="3.66597">
        <ele>807.4</ele>
      </trkpt>
      <trkpt lat="45.77654" lon="3.66586">
        <ele>807.2</ele>
      </trkpt>
      <trkpt lat="45.77657" lon="3.66578">
        <ele>807</ele>
      </trkpt>
      <trkpt lat="45.77661" lon="3.66555">
        <ele>805.8</ele>
      </trkpt>
      <trkpt lat="45.77659" lon="3.66541">
        <ele>804.8</ele>
      </trkpt>
      <trkpt lat="45.77657" lon="3.66534">
        <ele>804.4</ele>
      </trkpt>
      <trkpt lat="45.77655" lon="3.66528">
        <ele>804</ele>
      </trkpt>
      <trkpt lat="45.77652" lon="3.66522">
        <ele>803.7</ele>
      </trkpt>
      <trkpt lat="45.77646" lon="3.66512">
        <ele>803.3</ele>
      </trkpt>
      <trkpt lat="45.77646" lon="3.66512">
        <ele>803.3</ele>
      </trkpt>
      <trkpt lat="45.77642" lon="3.66509">
        <ele>803.2</ele>
      </trkpt>
      <trkpt lat="45.77635" lon="3.66506">
        <ele>803.3</ele>
      </trkpt>
      <trkpt lat="45.7763" lon="3.66504">
        <ele>803.4</ele>
      </trkpt>
      <trkpt lat="45.77625" lon="3.66502">
        <ele>803.5</ele>
      </trkpt>
      <trkpt lat="45.7762" lon="3.66503">
        <ele>803.7</ele>
      </trkpt>
      <trkpt lat="45.77609" lon="3.66485">
        <ele>803.5</ele>
      </trkpt>
      <trkpt lat="45.77599" lon="3.66471">
        <ele>803.3</ele>
      </trkpt>
      <trkpt lat="45.77589" lon="3.66457">
        <ele>803.2</ele>
      </trkpt>
      <trkpt lat="45.77574" lon="3.66438">
        <ele>801.8</ele>
      </trkpt>
      <trkpt lat="45.77563" lon="3.66423">
        <ele>800.6</ele>
      </trkpt>
      <trkpt lat="45.77552" lon="3.66409">
        <ele>799.1</ele>
      </trkpt>
      <trkpt lat="45.77546" lon="3.66403">
        <ele>798.3</ele>
      </trkpt>
      <trkpt lat="45.77542" lon="3.66401">
        <ele>797.8</ele>
      </trkpt>
      <trkpt lat="45.77536" lon="3.66398">
        <ele>797.3</ele>
      </trkpt>
      <trkpt lat="45.77526" lon="3.66395">
        <ele>796.6</ele>
      </trkpt>
      <trkpt lat="45.77516" lon="3.66393">
        <ele>796</ele>
      </trkpt>
      <trkpt lat="45.77503" lon="3.66392">
        <ele>795.2</ele>
      </trkpt>
      <trkpt lat="45.77484" lon="3.66386">
        <ele>792</ele>
      </trkpt>
      <trkpt lat="45.77484" lon="3.66386">
        <ele>792</ele>
      </trkpt>
      <trkpt lat="45.77472" lon="3.66382">
        <ele>789.8</ele>
      </trkpt>
      <trkpt lat="45.77466" lon="3.66379">
        <ele>788.9</ele>
      </trkpt>
      <trkpt lat="45.77461" lon="3.66375">
        <ele>788.2</ele>
      </trkpt>
      <trkpt lat="45.77451" lon="3.66364">
        <ele>787.1</ele>
      </trkpt>
      <trkpt lat="45.77443" lon="3.66357">
        <ele>786.5</ele>
      </trkpt>
      <trkpt lat="45.7743" lon="3.66348">
        <ele>785.7</ele>
      </trkpt>
      <trkpt lat="45.77414" lon="3.66338">
        <ele>784.6</ele>
      </trkpt>
      <trkpt lat="45.774" lon="3.66331">
        <ele>780.5</ele>
      </trkpt>
      <trkpt lat="45.77393" lon="3.66325">
        <ele>777.9</ele>
      </trkpt>
      <trkpt lat="45.77386" lon="3.66317">
        <ele>775.4</ele>
      </trkpt>
      <trkpt lat="45.77383" lon="3.66312">
        <ele>774.1</ele>
      </trkpt>
      <trkpt lat="45.77375" lon="3.66299">
        <ele>771.5</ele>
      </trkpt>
      <trkpt lat="45.77369" lon="3.66284">
        <ele>769.8</ele>
      </trkpt>
      <trkpt lat="45.77367" lon="3.66276">
        <ele>769.3</ele>
      </trkpt>
      <trkpt lat="45.77366" lon="3.66264">
        <ele>769</ele>
      </trkpt>
      <trkpt lat="45.77367" lon="3.66253">
        <ele>769.1</ele>
      </trkpt>
      <trkpt lat="45.77368" lon="3.66232">
        <ele>767.5</ele>
      </trkpt>
      <trkpt lat="45.77371" lon="3.66202">
        <ele>764.7</ele>
      </trkpt>
      <trkpt lat="45.77371" lon="3.66184">
        <ele>762.9</ele>
      </trkpt>
      <trkpt lat="45.77369" lon="3.66171">
        <ele>761.6</ele>
      </trkpt>
      <trkpt lat="45.77365" lon="3.6616">
        <ele>760.7</ele>
      </trkpt>
      <trkpt lat="45.77358" lon="3.66143">
        <ele>759.5</ele>
      </trkpt>
      <trkpt lat="45.77348" lon="3.66123">
        <ele>758.7</ele>
      </trkpt>
      <trkpt lat="45.7734" lon="3.66107">
        <ele>758.5</ele>
      </trkpt>
      <trkpt lat="45.7734" lon="3.66107">
        <ele>758.5</ele>
      </trkpt>
      <trkpt lat="45.77333" lon="3.66092">
        <ele>758.3</ele>
      </trkpt>
      <trkpt lat="45.77328" lon="3.6608">
        <ele>757</ele>
      </trkpt>
      <trkpt lat="45.77326" lon="3.6607">
        <ele>755.8</ele>
      </trkpt>
      <trkpt lat="45.77325" lon="3.66064">
        <ele>755</ele>
      </trkpt>
      <trkpt lat="45.77325" lon="3.66052">
        <ele>753.7</ele>
      </trkpt>
      <trkpt lat="45.77322" lon="3.66035">
        <ele>751.6</ele>
      </trkpt>
      <trkpt lat="45.77321" lon="3.66022">
        <ele>750.2</ele>
      </trkpt>
      <trkpt lat="45.77321" lon="3.66016">
        <ele>749.5</ele>
      </trkpt>
      <trkpt lat="45.77323" lon="3.66005">
        <ele>748.6</ele>
      </trkpt>
      <trkpt lat="45.77326" lon="3.65998">
        <ele>747.9</ele>
      </trkpt>
      <trkpt lat="45.77331" lon="3.65987">
        <ele>747</ele>
      </trkpt>
      <trkpt lat="45.77337" lon="3.6598">
        <ele>745.9</ele>
      </trkpt>
      <trkpt lat="45.77351" lon="3.65967">
        <ele>743.1</ele>
      </trkpt>
      <trkpt lat="45.77354" lon="3.65957">
        <ele>741.6</ele>
      </trkpt>
      <trkpt lat="45.77353" lon="3.65948">
        <ele>740.5</ele>
      </trkpt>
      <trkpt lat="45.77348" lon="3.65938">
        <ele>739.7</ele>
      </trkpt>
      <trkpt lat="45.77343" lon="3.65929">
        <ele>739</ele>
      </trkpt>
      <trkpt lat="45.77338" lon="3.65925">
        <ele>738.8</ele>
      </trkpt>
      <trkpt lat="45.77333" lon="3.65924">
        <ele>738.9</ele>
      </trkpt>
      <trkpt lat="45.77328" lon="3.65925">
        <ele>738.4</ele>
      </trkpt>
      <trkpt lat="45.77313" lon="3.6593">
        <ele>737.2</ele>
      </trkpt>
      <trkpt lat="45.77302" lon="3.65935">
        <ele>736.4</ele>
      </trkpt>
      <trkpt lat="45.77294" lon="3.6594">
        <ele>736.2</ele>
      </trkpt>
      <trkpt lat="45.77288" lon="3.65943">
        <ele>736</ele>
      </trkpt>
      <trkpt lat="45.77283" lon="3.65944">
        <ele>735.5</ele>
      </trkpt>
      <trkpt lat="45.77278" lon="3.65941">
        <ele>734.6</ele>
      </trkpt>
      <trkpt lat="45.77266" lon="3.65944">
        <ele>733.6</ele>
      </trkpt>
      <trkpt lat="45.77261" lon="3.65945">
        <ele>733</ele>
      </trkpt>
      <trkpt lat="45.7725" lon="3.65944">
        <ele>731.6</ele>
      </trkpt>
      <trkpt lat="45.77256" lon="3.65936">
        <ele>731</ele>
      </trkpt>
      <trkpt lat="45.7726" lon="3.6593">
        <ele>730.5</ele>
      </trkpt>
      <trkpt lat="45.77263" lon="3.65922">
        <ele>729.6</ele>
      </trkpt>
      <trkpt lat="45.77273" lon="3.659">
        <ele>726.8</ele>
      </trkpt>
      <trkpt lat="45.77277" lon="3.65892">
        <ele>725.8</ele>
      </trkpt>
      <trkpt lat="45.77283" lon="3.65884">
        <ele>725.1</ele>
      </trkpt>
      <trkpt lat="45.77292" lon="3.6587">
        <ele>723.8</ele>
      </trkpt>
      <trkpt lat="45.77304" lon="3.65849">
        <ele>722</ele>
      </trkpt>
      <trkpt lat="45.7731" lon="3.65837">
        <ele>720.7</ele>
      </trkpt>
      <trkpt lat="45.77319" lon="3.65813">
        <ele>716.9</ele>
      </trkpt>
      <trkpt lat="45.7732" lon="3.65803">
        <ele>714.9</ele>
      </trkpt>
      <trkpt lat="45.77333" lon="3.6579">
        <ele>713.5</ele>
      </trkpt>
      <trkpt lat="45.77346" lon="3.65776">
        <ele>711</ele>
      </trkpt>
      <trkpt lat="45.7736" lon="3.65762">
        <ele>708.9</ele>
      </trkpt>
      <trkpt lat="45.77377" lon="3.65745">
        <ele>707.1</ele>
      </trkpt>
      <trkpt lat="45.77395" lon="3.65729">
        <ele>706.6</ele>
      </trkpt>
      <trkpt lat="45.77402" lon="3.65723">
        <ele>706.4</ele>
      </trkpt>
      <trkpt lat="45.77402" lon="3.65723">
        <ele>706.4</ele>
      </trkpt>
      <trkpt lat="45.77415" lon="3.65713">
        <ele>706</ele>
      </trkpt>
      <trkpt lat="45.77435" lon="3.65698">
        <ele>706.5</ele>
      </trkpt>
      <trkpt lat="45.77441" lon="3.65693">
        <ele>706.7</ele>
      </trkpt>
      <trkpt lat="45.77455" lon="3.65682">
        <ele>707</ele>
      </trkpt>
      <trkpt lat="45.77468" lon="3.65672">
        <ele>707.4</ele>
      </trkpt>
      <trkpt lat="45.77481" lon="3.65662">
        <ele>707.9</ele>
      </trkpt>
      <trkpt lat="45.77496" lon="3.6565">
        <ele>708.5</ele>
      </trkpt>
      <trkpt lat="45.77511" lon="3.65638">
        <ele>709.2</ele>
      </trkpt>
      <trkpt lat="45.77528" lon="3.65624">
        <ele>710.1</ele>
      </trkpt>
      <trkpt lat="45.77546" lon="3.65611">
        <ele>711</ele>
      </trkpt>
      <trkpt lat="45.77563" lon="3.65597">
        <ele>711.8</ele>
      </trkpt>
      <trkpt lat="45.77575" lon="3.65588">
        <ele>712.3</ele>
      </trkpt>
      <trkpt lat="45.77587" lon="3.65578">
        <ele>712.9</ele>
      </trkpt>
      <trkpt lat="45.776" lon="3.65568">
        <ele>712.6</ele>
      </trkpt>
      <trkpt lat="45.77613" lon="3.65558">
        <ele>712</ele>
      </trkpt>
      <trkpt lat="45.77629" lon="3.65546">
        <ele>710.9</ele>
      </trkpt>
      <trkpt lat="45.77645" lon="3.65533">
        <ele>709.4</ele>
      </trkpt>
      <trkpt lat="45.7766" lon="3.65522">
        <ele>707.7</ele>
      </trkpt>
      <trkpt lat="45.77675" lon="3.6551">
        <ele>706.2</ele>
      </trkpt>
      <trkpt lat="45.77681" lon="3.65505">
        <ele>705.8</ele>
      </trkpt>
      <trkpt lat="45.77692" lon="3.65496">
        <ele>704.9</ele>
      </trkpt>
      <trkpt lat="45.77697" lon="3.65492">
        <ele>704.6</ele>
      </trkpt>
      <trkpt lat="45.77702" lon="3.65486">
        <ele>704</ele>
      </trkpt>
      <trkpt lat="45.77709" lon="3.65477">
        <ele>702.8</ele>
      </trkpt>
      <trkpt lat="45.77712" lon="3.65471">
        <ele>702.1</ele>
      </trkpt>
      <trkpt lat="45.77716" lon="3.65462">
        <ele>700.8</ele>
      </trkpt>
      <trkpt lat="45.77717" lon="3.65452">
        <ele>699.4</ele>
      </trkpt>
      <trkpt lat="45.77718" lon="3.65443">
        <ele>698.3</ele>
      </trkpt>
      <trkpt lat="45.77718" lon="3.65437">
        <ele>697.4</ele>
      </trkpt>
      <trkpt lat="45.77717" lon="3.6543">
        <ele>696.7</ele>
      </trkpt>
      <trkpt lat="45.77715" lon="3.65422">
        <ele>695.8</ele>
      </trkpt>
      <trkpt lat="45.7771" lon="3.65398">
        <ele>693.9</ele>
      </trkpt>
      <trkpt lat="45.77721" lon="3.65386">
        <ele>691.5</ele>
      </trkpt>
      <trkpt lat="45.77727" lon="3.65378">
        <ele>690</ele>
      </trkpt>
      <trkpt lat="45.77731" lon="3.65372">
        <ele>688.9</ele>
      </trkpt>
      <trkpt lat="45.77736" lon="3.65359">
        <ele>687</ele>
      </trkpt>
      <trkpt lat="45.7774" lon="3.65347">
        <ele>685.5</ele>
      </trkpt>
      <trkpt lat="45.77747" lon="3.65323">
        <ele>682.1</ele>
      </trkpt>
      <trkpt lat="45.77747" lon="3.65323">
        <ele>682.1</ele>
      </trkpt>
      <trkpt lat="45.77755" lon="3.65302">
        <ele>679.3</ele>
      </trkpt>
      <trkpt lat="45.77761" lon="3.65287">
        <ele>677.5</ele>
      </trkpt>
      <trkpt lat="45.77767" lon="3.65272">
        <ele>675.9</ele>
      </trkpt>
      <trkpt lat="45.77773" lon="3.65257">
        <ele>674.5</ele>
      </trkpt>
      <trkpt lat="45.77779" lon="3.65242">
        <ele>673.6</ele>
      </trkpt>
      <trkpt lat="45.77784" lon="3.65232">
        <ele>673.1</ele>
      </trkpt>
      <trkpt lat="45.77787" lon="3.65226">
        <ele>672.9</ele>
      </trkpt>
      <trkpt lat="45.77793" lon="3.65221">
        <ele>672.8</ele>
      </trkpt>
      <trkpt lat="45.77799" lon="3.65221">
        <ele>672.9</ele>
      </trkpt>
      <trkpt lat="45.77807" lon="3.65222">
        <ele>673.3</ele>
      </trkpt>
      <trkpt lat="45.7782" lon="3.65227">
        <ele>674</ele>
      </trkpt>
      <trkpt lat="45.7783" lon="3.65231">
        <ele>674.5</ele>
      </trkpt>
      <trkpt lat="45.77836" lon="3.65232">
        <ele>674.5</ele>
      </trkpt>
      <trkpt lat="45.77842" lon="3.65233">
        <ele>674.2</ele>
      </trkpt>
      <trkpt lat="45.77848" lon="3.6523">
        <ele>673.6</ele>
      </trkpt>
      <trkpt lat="45.77853" lon="3.65225">
        <ele>673</ele>
      </trkpt>
      <trkpt lat="45.77858" lon="3.65217">
        <ele>672</ele>
      </trkpt>
      <trkpt lat="45.77863" lon="3.65204">
        <ele>670.7</ele>
      </trkpt>
      <trkpt lat="45.77867" lon="3.65192">
        <ele>669.5</ele>
      </trkpt>
      <trkpt lat="45.77869" lon="3.65173">
        <ele>667.9</ele>
      </trkpt>
      <trkpt lat="45.77868" lon="3.65154">
        <ele>666.6</ele>
      </trkpt>
      <trkpt lat="45.77868" lon="3.65134">
        <ele>665.2</ele>
      </trkpt>
      <trkpt lat="45.77867" lon="3.65112">
        <ele>663.7</ele>
      </trkpt>
      <trkpt lat="45.77866" lon="3.6509">
        <ele>662.1</ele>
      </trkpt>
      <trkpt lat="45.77865" lon="3.65074">
        <ele>661</ele>
      </trkpt>
      <trkpt lat="45.77865" lon="3.65065">
        <ele>660.4</ele>
      </trkpt>
      <trkpt lat="45.77868" lon="3.65055">
        <ele>659.7</ele>
      </trkpt>
      <trkpt lat="45.77872" lon="3.65047">
        <ele>659.3</ele>
      </trkpt>
      <trkpt lat="45.77882" lon="3.65029">
        <ele>658.5</ele>
      </trkpt>
      <trkpt lat="45.77894" lon="3.65013">
        <ele>658.2</ele>
      </trkpt>
      <trkpt lat="45.77904" lon="3.65">
        <ele>658.2</ele>
      </trkpt>
      <trkpt lat="45.77912" lon="3.64985">
        <ele>658.7</ele>
      </trkpt>
      <trkpt lat="45.7792" lon="3.6497">
        <ele>659.5</ele>
      </trkpt>
      <trkpt lat="45.77928" lon="3.64955">
        <ele>660.8</ele>
      </trkpt>
      <trkpt lat="45.77932" lon="3.6495">
        <ele>661.5</ele>
      </trkpt>
      <trkpt lat="45.77936" lon="3.64945">
        <ele>662.1</ele>
      </trkpt>
      <trkpt lat="45.77943" lon="3.64942">
        <ele>663.4</ele>
      </trkpt>
      <trkpt lat="45.7795" lon="3.64941">
        <ele>664.5</ele>
      </trkpt>
      <trkpt lat="45.77959" lon="3.64942">
        <ele>666.1</ele>
      </trkpt>
      <trkpt lat="45.77964" lon="3.64942">
        <ele>666.9</ele>
      </trkpt>
      <trkpt lat="45.7797" lon="3.64935">
        <ele>668.3</ele>
      </trkpt>
      <trkpt lat="45.77972" lon="3.64928">
        <ele>669</ele>
      </trkpt>
      <trkpt lat="45.77975" lon="3.64916">
        <ele>670.3</ele>
      </trkpt>
      <trkpt lat="45.7798" lon="3.64899">
        <ele>672</ele>
      </trkpt>
      <trkpt lat="45.77981" lon="3.64891">
        <ele>672.7</ele>
      </trkpt>
      <trkpt lat="45.77981" lon="3.64882">
        <ele>673.3</ele>
      </trkpt>
      <trkpt lat="45.77981" lon="3.64871">
        <ele>673.8</ele>
      </trkpt>
      <trkpt lat="45.77981" lon="3.64871">
        <ele>673.8</ele>
      </trkpt>
      <trkpt lat="45.77983" lon="3.64863">
        <ele>674.5</ele>
      </trkpt>
      <trkpt lat="45.77985" lon="3.64853">
        <ele>675.4</ele>
      </trkpt>
      <trkpt lat="45.77987" lon="3.64843">
        <ele>676.4</ele>
      </trkpt>
      <trkpt lat="45.7799" lon="3.64834">
        <ele>677.2</ele>
      </trkpt>
      <trkpt lat="45.77993" lon="3.64819">
        <ele>678</ele>
      </trkpt>
      <trkpt lat="45.77996" lon="3.64808">
        <ele>678.4</ele>
      </trkpt>
      <trkpt lat="45.78" lon="3.64798">
        <ele>679</ele>
      </trkpt>
      <trkpt lat="45.78004" lon="3.64793">
        <ele>679.3</ele>
      </trkpt>
      <trkpt lat="45.78012" lon="3.64788">
        <ele>680</ele>
      </trkpt>
      <trkpt lat="45.78023" lon="3.64782">
        <ele>680.9</ele>
      </trkpt>
      <trkpt lat="45.78031" lon="3.64779">
        <ele>681.5</ele>
      </trkpt>
      <trkpt lat="45.78041" lon="3.64777">
        <ele>682.3</ele>
      </trkpt>
      <trkpt lat="45.78053" lon="3.64775">
        <ele>683.1</ele>
      </trkpt>
      <trkpt lat="45.78059" lon="3.64776">
        <ele>683.7</ele>
      </trkpt>
      <trkpt lat="45.78068" lon="3.64775">
        <ele>684.3</ele>
      </trkpt>
      <trkpt lat="45.78074" lon="3.64778">
        <ele>684.9</ele>
      </trkpt>
      <trkpt lat="45.78076" lon="3.64772">
        <ele>684.8</ele>
      </trkpt>
      <trkpt lat="45.78081" lon="3.64765">
        <ele>684.7</ele>
      </trkpt>
      <trkpt lat="45.78088" lon="3.64754">
        <ele>685</ele>
      </trkpt>
      <trkpt lat="45.78092" lon="3.64744">
        <ele>685.7</ele>
      </trkpt>
      <trkpt lat="45.78095" lon="3.64736">
        <ele>686.2</ele>
      </trkpt>
      <trkpt lat="45.78097" lon="3.6473">
        <ele>686.6</ele>
      </trkpt>
      <trkpt lat="45.78099" lon="3.64722">
        <ele>686.9</ele>
      </trkpt>
      <trkpt lat="45.781" lon="3.64715">
        <ele>687.1</ele>
      </trkpt>
      <trkpt lat="45.781" lon="3.64708">
        <ele>687.1</ele>
      </trkpt>
      <trkpt lat="45.781" lon="3.64699">
        <ele>687</ele>
      </trkpt>
      <trkpt lat="45.78098" lon="3.64685">
        <ele>686.7</ele>
      </trkpt>
      <trkpt lat="45.78096" lon="3.64668">
        <ele>686</ele>
      </trkpt>
      <trkpt lat="45.78093" lon="3.64649">
        <ele>685.1</ele>
      </trkpt>
      <trkpt lat="45.78092" lon="3.64636">
        <ele>684.6</ele>
      </trkpt>
      <trkpt lat="45.78091" lon="3.6462">
        <ele>684.2</ele>
      </trkpt>
      <trkpt lat="45.78092" lon="3.64607">
        <ele>684.2</ele>
      </trkpt>
      <trkpt lat="45.78094" lon="3.64588">
        <ele>684.5</ele>
      </trkpt>
      <trkpt lat="45.78098" lon="3.64567">
        <ele>684.9</ele>
      </trkpt>
      <trkpt lat="45.78103" lon="3.64547">
        <ele>685.4</ele>
      </trkpt>
      <trkpt lat="45.78108" lon="3.64527">
        <ele>685.8</ele>
      </trkpt>
      <trkpt lat="45.78111" lon="3.64514">
        <ele>685.8</ele>
      </trkpt>
      <trkpt lat="45.78112" lon="3.64505">
        <ele>685.6</ele>
      </trkpt>
      <trkpt lat="45.78111" lon="3.64493">
        <ele>685.3</ele>
      </trkpt>
      <trkpt lat="45.78106" lon="3.64479">
        <ele>684.7</ele>
      </trkpt>
      <trkpt lat="45.78102" lon="3.64471">
        <ele>684.3</ele>
      </trkpt>
      <trkpt lat="45.78095" lon="3.64453">
        <ele>683.4</ele>
      </trkpt>
      <trkpt lat="45.78088" lon="3.64435">
        <ele>682.5</ele>
      </trkpt>
      <trkpt lat="45.78082" lon="3.64418">
        <ele>681.9</ele>
      </trkpt>
      <trkpt lat="45.78078" lon="3.64401">
        <ele>681.9</ele>
      </trkpt>
      <trkpt lat="45.78074" lon="3.64384">
        <ele>681.9</ele>
      </trkpt>
      <trkpt lat="45.7807" lon="3.6436">
        <ele>682</ele>
      </trkpt>
      <trkpt lat="45.78068" lon="3.64347">
        <ele>682.1</ele>
      </trkpt>
      <trkpt lat="45.78065" lon="3.6433">
        <ele>682</ele>
      </trkpt>
      <trkpt lat="45.78065" lon="3.6433">
        <ele>682</ele>
      </trkpt>
      <trkpt lat="45.78062" lon="3.64316">
        <ele>681.6</ele>
      </trkpt>
      <trkpt lat="45.78058" lon="3.64298">
        <ele>681.1</ele>
      </trkpt>
      <trkpt lat="45.78052" lon="3.64278">
        <ele>680.3</ele>
      </trkpt>
      <trkpt lat="45.78045" lon="3.64261">
        <ele>679.5</ele>
      </trkpt>
      <trkpt lat="45.78039" lon="3.64251">
        <ele>678.9</ele>
      </trkpt>
      <trkpt lat="45.7803" lon="3.64239">
        <ele>677.4</ele>
      </trkpt>
      <trkpt lat="45.78018" lon="3.64225">
        <ele>675.6</ele>
      </trkpt>
      <trkpt lat="45.78002" lon="3.64209">
        <ele>673.2</ele>
      </trkpt>
      <trkpt lat="45.77992" lon="3.64199">
        <ele>671.6</ele>
      </trkpt>
      <trkpt lat="45.77982" lon="3.64193">
        <ele>670.3</ele>
      </trkpt>
      <trkpt lat="45.77972" lon="3.64188">
        <ele>669.1</ele>
      </trkpt>
      <trkpt lat="45.77965" lon="3.64184">
        <ele>668.3</ele>
      </trkpt>
      <trkpt lat="45.7796" lon="3.64179">
        <ele>667.7</ele>
      </trkpt>
      <trkpt lat="45.77954" lon="3.6417">
        <ele>666.8</ele>
      </trkpt>
      <trkpt lat="45.77952" lon="3.6416">
        <ele>666.6</ele>
      </trkpt>
      <trkpt lat="45.77952" lon="3.64149">
        <ele>666.7</ele>
      </trkpt>
      <trkpt lat="45.77954" lon="3.6414">
        <ele>666.8</ele>
      </trkpt>
      <trkpt lat="45.77959" lon="3.6413">
        <ele>667</ele>
      </trkpt>
      <trkpt lat="45.77968" lon="3.64115">
        <ele>667.1</ele>
      </trkpt>
      <trkpt lat="45.77976" lon="3.64102">
        <ele>667</ele>
      </trkpt>
      <trkpt lat="45.7798" lon="3.64093">
        <ele>666.7</ele>
      </trkpt>
      <trkpt lat="45.77981" lon="3.64082">
        <ele>666.5</ele>
      </trkpt>
      <trkpt lat="45.7798" lon="3.64073">
        <ele>666.8</ele>
      </trkpt>
      <trkpt lat="45.77978" lon="3.64066">
        <ele>667.1</ele>
      </trkpt>
      <trkpt lat="45.77974" lon="3.64062">
        <ele>667.3</ele>
      </trkpt>
      <trkpt lat="45.77969" lon="3.64059">
        <ele>667.5</ele>
      </trkpt>
      <trkpt lat="45.77965" lon="3.64058">
        <ele>667.7</ele>
      </trkpt>
      <trkpt lat="45.77958" lon="3.64059">
        <ele>667.9</ele>
      </trkpt>
      <trkpt lat="45.77948" lon="3.64061">
        <ele>668.1</ele>
      </trkpt>
      <trkpt lat="45.77929" lon="3.64073">
        <ele>668.1</ele>
      </trkpt>
      <trkpt lat="45.7791" lon="3.64085">
        <ele>669.2</ele>
      </trkpt>
      <trkpt lat="45.77894" lon="3.64098">
        <ele>671.7</ele>
      </trkpt>
      <trkpt lat="45.77884" lon="3.64107">
        <ele>673</ele>
      </trkpt>
      <trkpt lat="45.77872" lon="3.64113">
        <ele>675</ele>
      </trkpt>
      <trkpt lat="45.77866" lon="3.64113">
        <ele>676.1</ele>
      </trkpt>
      <trkpt lat="45.77859" lon="3.64109">
        <ele>677.6</ele>
      </trkpt>
      <trkpt lat="45.77857" lon="3.64103">
        <ele>678.5</ele>
      </trkpt>
      <trkpt lat="45.77853" lon="3.64084">
        <ele>681</ele>
      </trkpt>
      <trkpt lat="45.7785" lon="3.64067">
        <ele>682.3</ele>
      </trkpt>
      <trkpt lat="45.77848" lon="3.64042">
        <ele>684</ele>
      </trkpt>
      <trkpt lat="45.77845" lon="3.64014">
        <ele>685.9</ele>
      </trkpt>
      <trkpt lat="45.77845" lon="3.63995">
        <ele>686.5</ele>
      </trkpt>
      <trkpt lat="45.77848" lon="3.63972">
        <ele>685.7</ele>
      </trkpt>
      <trkpt lat="45.77848" lon="3.63972">
        <ele>685.7</ele>
      </trkpt>
      <trkpt lat="45.7785" lon="3.63951">
        <ele>685.1</ele>
      </trkpt>
      <trkpt lat="45.7785" lon="3.63938">
        <ele>684.9</ele>
      </trkpt>
      <trkpt lat="45.7785" lon="3.63927">
        <ele>685</ele>
      </trkpt>
      <trkpt lat="45.77855" lon="3.63926">
        <ele>684.1</ele>
      </trkpt>
      <trkpt lat="45.77863" lon="3.63923">
        <ele>683.1</ele>
      </trkpt>
      <trkpt lat="45.77877" lon="3.63914">
        <ele>681.1</ele>
      </trkpt>
      <trkpt lat="45.7789" lon="3.63906">
        <ele>679.4</ele>
      </trkpt>
      <trkpt lat="45.77902" lon="3.63898">
        <ele>677.9</ele>
      </trkpt>
      <trkpt lat="45.77915" lon="3.63889">
        <ele>676.5</ele>
      </trkpt>
      <trkpt lat="45.77929" lon="3.63881">
        <ele>676.6</ele>
      </trkpt>
      <trkpt lat="45.77944" lon="3.6387">
        <ele>677.1</ele>
      </trkpt>
      <trkpt lat="45.7796" lon="3.6386">
        <ele>677.7</ele>
      </trkpt>
      <trkpt lat="45.77976" lon="3.6385">
        <ele>678.5</ele>
      </trkpt>
      <trkpt lat="45.77993" lon="3.63839">
        <ele>679.5</ele>
      </trkpt>
      <trkpt lat="45.7801" lon="3.63828">
        <ele>680.6</ele>
      </trkpt>
      <trkpt lat="45.78027" lon="3.63818">
        <ele>681.7</ele>
      </trkpt>
      <trkpt lat="45.78043" lon="3.63807">
        <ele>682.9</ele>
      </trkpt>
      <trkpt lat="45.78059" lon="3.63797">
        <ele>684.4</ele>
      </trkpt>
      <trkpt lat="45.78071" lon="3.63789">
        <ele>685.6</ele>
      </trkpt>
      <trkpt lat="45.78083" lon="3.63782">
        <ele>686.9</ele>
      </trkpt>
      <trkpt lat="45.78101" lon="3.63771">
        <ele>689.2</ele>
      </trkpt>
      <trkpt lat="45.78115" lon="3.63761">
        <ele>691.3</ele>
      </trkpt>
      <trkpt lat="45.78123" lon="3.63755">
        <ele>692.6</ele>
      </trkpt>
      <trkpt lat="45.78139" lon="3.6374">
        <ele>694.6</ele>
      </trkpt>
      <trkpt lat="45.78155" lon="3.63726">
        <ele>696.3</ele>
      </trkpt>
      <trkpt lat="45.78163" lon="3.6372">
        <ele>697.3</ele>
      </trkpt>
      <trkpt lat="45.78168" lon="3.63718">
        <ele>697.7</ele>
      </trkpt>
      <trkpt lat="45.78174" lon="3.63716">
        <ele>698.4</ele>
      </trkpt>
      <trkpt lat="45.78183" lon="3.63716">
        <ele>699.3</ele>
      </trkpt>
      <trkpt lat="45.78197" lon="3.63721">
        <ele>701</ele>
      </trkpt>
      <trkpt lat="45.78206" lon="3.63724">
        <ele>702</ele>
      </trkpt>
      <trkpt lat="45.78211" lon="3.63725">
        <ele>702.5</ele>
      </trkpt>
      <trkpt lat="45.78216" lon="3.63723">
        <ele>703</ele>
      </trkpt>
      <trkpt lat="45.78221" lon="3.6372">
        <ele>703.5</ele>
      </trkpt>
      <trkpt lat="45.78228" lon="3.63715">
        <ele>704.2</ele>
      </trkpt>
      <trkpt lat="45.78227" lon="3.63689">
        <ele>703.8</ele>
      </trkpt>
      <trkpt lat="45.78226" lon="3.63664">
        <ele>703.3</ele>
      </trkpt>
      <trkpt lat="45.78226" lon="3.63664">
        <ele>703.3</ele>
      </trkpt>
      <trkpt lat="45.78225" lon="3.63638">
        <ele>701.8</ele>
      </trkpt>
      <trkpt lat="45.78224" lon="3.63613">
        <ele>700.3</ele>
      </trkpt>
      <trkpt lat="45.7821" lon="3.63596">
        <ele>697.5</ele>
      </trkpt>
      <trkpt lat="45.78196" lon="3.63579">
        <ele>694.8</ele>
      </trkpt>
      <trkpt lat="45.78181" lon="3.63562">
        <ele>692.9</ele>
      </trkpt>
      <trkpt lat="45.78172" lon="3.6355">
        <ele>691.6</ele>
      </trkpt>
      <trkpt lat="45.78162" lon="3.63539">
        <ele>690.5</ele>
      </trkpt>
      <trkpt lat="45.78152" lon="3.63525">
        <ele>689.3</ele>
      </trkpt>
      <trkpt lat="45.78142" lon="3.63511">
        <ele>687.9</ele>
      </trkpt>
      <trkpt lat="45.78129" lon="3.63486">
        <ele>686</ele>
      </trkpt>
      <trkpt lat="45.78123" lon="3.63468">
        <ele>685</ele>
      </trkpt>
      <trkpt lat="45.78118" lon="3.63441">
        <ele>683.8</ele>
      </trkpt>
      <trkpt lat="45.78111" lon="3.63411">
        <ele>682.1</ele>
      </trkpt>
      <trkpt lat="45.7811" lon="3.63387">
        <ele>681</ele>
      </trkpt>
      <trkpt lat="45.78111" lon="3.63369">
        <ele>680.7</ele>
      </trkpt>
      <trkpt lat="45.78114" lon="3.63359">
        <ele>680.8</ele>
      </trkpt>
      <trkpt lat="45.78118" lon="3.63343">
        <ele>681</ele>
      </trkpt>
      <trkpt lat="45.78123" lon="3.63333">
        <ele>681.7</ele>
      </trkpt>
      <trkpt lat="45.78141" lon="3.63314">
        <ele>684.8</ele>
      </trkpt>
      <trkpt lat="45.78149" lon="3.63304">
        <ele>685.9</ele>
      </trkpt>
      <trkpt lat="45.78153" lon="3.63293">
        <ele>686.3</ele>
      </trkpt>
      <trkpt lat="45.78153" lon="3.63281">
        <ele>686.1</ele>
      </trkpt>
      <trkpt lat="45.78152" lon="3.63269">
        <ele>685.7</ele>
      </trkpt>
      <trkpt lat="45.78146" lon="3.63256">
        <ele>684.6</ele>
      </trkpt>
      <trkpt lat="45.78139" lon="3.63242">
        <ele>684.4</ele>
      </trkpt>
      <trkpt lat="45.78131" lon="3.63228">
        <ele>684.7</ele>
      </trkpt>
      <trkpt lat="45.78123" lon="3.63216">
        <ele>684.9</ele>
      </trkpt>
      <trkpt lat="45.78115" lon="3.63194">
        <ele>685.9</ele>
      </trkpt>
      <trkpt lat="45.78108" lon="3.6318">
        <ele>686.4</ele>
      </trkpt>
      <trkpt lat="45.78098" lon="3.63169">
        <ele>686.3</ele>
      </trkpt>
      <trkpt lat="45.78081" lon="3.63154">
        <ele>685.9</ele>
      </trkpt>
      <trkpt lat="45.78073" lon="3.63144">
        <ele>685.5</ele>
      </trkpt>
      <trkpt lat="45.78067" lon="3.63132">
        <ele>685.6</ele>
      </trkpt>
      <trkpt lat="45.78067" lon="3.63132">
        <ele>685.6</ele>
      </trkpt>
      <trkpt lat="45.7806" lon="3.63106">
        <ele>686.1</ele>
      </trkpt>
      <trkpt lat="45.78059" lon="3.6309">
        <ele>687</ele>
      </trkpt>
      <trkpt lat="45.78058" lon="3.63073">
        <ele>687.3</ele>
      </trkpt>
      <trkpt lat="45.78058" lon="3.63046">
        <ele>687.6</ele>
      </trkpt>
      <trkpt lat="45.78059" lon="3.63018">
        <ele>687.9</ele>
      </trkpt>
      <trkpt lat="45.78059" lon="3.62991">
        <ele>688.2</ele>
      </trkpt>
      <trkpt lat="45.78059" lon="3.62968">
        <ele>688.3</ele>
      </trkpt>
      <trkpt lat="45.78059" lon="3.62946">
        <ele>688.4</ele>
      </trkpt>
      <trkpt lat="45.78061" lon="3.62921">
        <ele>689</ele>
      </trkpt>
      <trkpt lat="45.78064" lon="3.62902">
        <ele>688.8</ele>
      </trkpt>
      <trkpt lat="45.78067" lon="3.62884">
        <ele>688.4</ele>
      </trkpt>
      <trkpt lat="45.7807" lon="3.62866">
        <ele>688.1</ele>
      </trkpt>
      <trkpt lat="45.78063" lon="3.62864">
        <ele>686.6</ele>
      </trkpt>
      <trkpt lat="45.78052" lon="3.62865">
        <ele>684.3</ele>
      </trkpt>
      <trkpt lat="45.78041" lon="3.62865">
        <ele>681.9</ele>
      </trkpt>
      <trkpt lat="45.7803" lon="3.62865">
        <ele>679.4</ele>
      </trkpt>
      <trkpt lat="45.78008" lon="3.62866">
        <ele>674.9</ele>
      </trkpt>
      <trkpt lat="45.77987" lon="3.62866">
        <ele>671.7</ele>
      </trkpt>
      <trkpt lat="45.7797" lon="3.62866">
        <ele>669.9</ele>
      </trkpt>
      <trkpt lat="45.77956" lon="3.62867">
        <ele>668.4</ele>
      </trkpt>
      <trkpt lat="45.77949" lon="3.62867">
        <ele>667.6</ele>
      </trkpt>
      <trkpt lat="45.77942" lon="3.6287">
        <ele>666.9</ele>
      </trkpt>
      <trkpt lat="45.77937" lon="3.62872">
        <ele>666.3</ele>
      </trkpt>
      <trkpt lat="45.77927" lon="3.62877">
        <ele>665.1</ele>
      </trkpt>
      <trkpt lat="45.77918" lon="3.62881">
        <ele>664.2</ele>
      </trkpt>
      <trkpt lat="45.77913" lon="3.62882">
        <ele>663.7</ele>
      </trkpt>
      <trkpt lat="45.77908" lon="3.62881">
        <ele>663.3</ele>
      </trkpt>
      <trkpt lat="45.77899" lon="3.62878">
        <ele>662.7</ele>
      </trkpt>
      <trkpt lat="45.77892" lon="3.62874">
        <ele>662.1</ele>
      </trkpt>
      <trkpt lat="45.77887" lon="3.62869">
        <ele>661.6</ele>
      </trkpt>
      <trkpt lat="45.77884" lon="3.62863">
        <ele>661.3</ele>
      </trkpt>
      <trkpt lat="45.7788" lon="3.62854">
        <ele>660.8</ele>
      </trkpt>
      <trkpt lat="45.77873" lon="3.62836">
        <ele>659.9</ele>
      </trkpt>
      <trkpt lat="45.77866" lon="3.62814">
        <ele>658.4</ele>
      </trkpt>
      <trkpt lat="45.77862" lon="3.62796">
        <ele>657.4</ele>
      </trkpt>
      <trkpt lat="45.77859" lon="3.62777">
        <ele>656.5</ele>
      </trkpt>
      <trkpt lat="45.77857" lon="3.62756">
        <ele>655.6</ele>
      </trkpt>
      <trkpt lat="45.77855" lon="3.62738">
        <ele>654.8</ele>
      </trkpt>
      <trkpt lat="45.77855" lon="3.62738">
        <ele>654.8</ele>
      </trkpt>
      <trkpt lat="45.77856" lon="3.62722">
        <ele>654.1</ele>
      </trkpt>
      <trkpt lat="45.77857" lon="3.62705">
        <ele>653.4</ele>
      </trkpt>
      <trkpt lat="45.77859" lon="3.62685">
        <ele>652.7</ele>
      </trkpt>
      <trkpt lat="45.77862" lon="3.62668">
        <ele>652.1</ele>
      </trkpt>
      <trkpt lat="45.77865" lon="3.62651">
        <ele>650.9</ele>
      </trkpt>
      <trkpt lat="45.77868" lon="3.62633">
        <ele>649.6</ele>
      </trkpt>
      <trkpt lat="45.77871" lon="3.62615">
        <ele>648.3</ele>
      </trkpt>
      <trkpt lat="45.77875" lon="3.62592">
        <ele>646.7</ele>
      </trkpt>
      <trkpt lat="45.77878" lon="3.62569">
        <ele>644.5</ele>
      </trkpt>
      <trkpt lat="45.77881" lon="3.62551">
        <ele>642.3</ele>
      </trkpt>
      <trkpt lat="45.77884" lon="3.62533">
        <ele>640.2</ele>
      </trkpt>
      <trkpt lat="45.77888" lon="3.6251">
        <ele>637.3</ele>
      </trkpt>
      <trkpt lat="45.77889" lon="3.62501">
        <ele>636.1</ele>
      </trkpt>
      <trkpt lat="45.77889" lon="3.62492">
        <ele>635.1</ele>
      </trkpt>
      <trkpt lat="45.77887" lon="3.62486">
        <ele>634.4</ele>
      </trkpt>
      <trkpt lat="45.77884" lon="3.6248">
        <ele>633.6</ele>
      </trkpt>
      <trkpt lat="45.77878" lon="3.62475">
        <ele>632.9</ele>
      </trkpt>
      <trkpt lat="45.7786" lon="3.62463">
        <ele>631.1</ele>
      </trkpt>
      <trkpt lat="45.77858" lon="3.62454">
        <ele>630.1</ele>
      </trkpt>
      <trkpt lat="45.77858" lon="3.62444">
        <ele>629.1</ele>
      </trkpt>
      <trkpt lat="45.77855" lon="3.62431">
        <ele>627.8</ele>
      </trkpt>
      <trkpt lat="45.77853" lon="3.62424">
        <ele>626.9</ele>
      </trkpt>
      <trkpt lat="45.77849" lon="3.62417">
        <ele>626.2</ele>
      </trkpt>
      <trkpt lat="45.77838" lon="3.624">
        <ele>624.1</ele>
      </trkpt>
      <trkpt lat="45.77829" lon="3.62388">
        <ele>622</ele>
      </trkpt>
      <trkpt lat="45.7782" lon="3.62375">
        <ele>619.5</ele>
      </trkpt>
      <trkpt lat="45.77811" lon="3.62362">
        <ele>616.9</ele>
      </trkpt>
      <trkpt lat="45.77805" lon="3.62354">
        <ele>615.3</ele>
      </trkpt>
      <trkpt lat="45.778" lon="3.62348">
        <ele>614.1</ele>
      </trkpt>
      <trkpt lat="45.77792" lon="3.62359">
        <ele>614.5</ele>
      </trkpt>
      <trkpt lat="45.7778" lon="3.62377">
        <ele>615.1</ele>
      </trkpt>
      <trkpt lat="45.77765" lon="3.62398">
        <ele>615.8</ele>
      </trkpt>
      <trkpt lat="45.7775" lon="3.62415">
        <ele>615.8</ele>
      </trkpt>
      <trkpt lat="45.77745" lon="3.62422">
        <ele>616.3</ele>
      </trkpt>
      <trkpt lat="45.77741" lon="3.62429">
        <ele>617.1</ele>
      </trkpt>
      <trkpt lat="45.77737" lon="3.6244">
        <ele>618.5</ele>
      </trkpt>
      <trkpt lat="45.7773" lon="3.62438">
        <ele>617.4</ele>
      </trkpt>
      <trkpt lat="45.77723" lon="3.62442">
        <ele>617.2</ele>
      </trkpt>
      <trkpt lat="45.77715" lon="3.62447">
        <ele>617.1</ele>
      </trkpt>
      <trkpt lat="45.77708" lon="3.62452">
        <ele>617.2</ele>
      </trkpt>
      <trkpt lat="45.77694" lon="3.62465">
        <ele>617.6</ele>
      </trkpt>
      <trkpt lat="45.77684" lon="3.62476">
        <ele>618.2</ele>
      </trkpt>
      <trkpt lat="45.77684" lon="3.62476">
        <ele>618.2</ele>
      </trkpt>
      <trkpt lat="45.77677" lon="3.62483">
        <ele>618.7</ele>
      </trkpt>
      <trkpt lat="45.77672" lon="3.62489">
        <ele>618.9</ele>
      </trkpt>
      <trkpt lat="45.77664" lon="3.62495">
        <ele>618.9</ele>
      </trkpt>
      <trkpt lat="45.77655" lon="3.625">
        <ele>618.3</ele>
      </trkpt>
      <trkpt lat="45.77639" lon="3.62507">
        <ele>616.5</ele>
      </trkpt>
      <trkpt lat="45.77622" lon="3.62514">
        <ele>614.4</ele>
      </trkpt>
      <trkpt lat="45.7761" lon="3.62519">
        <ele>612.8</ele>
      </trkpt>
      <trkpt lat="45.77598" lon="3.62524">
        <ele>611.2</ele>
      </trkpt>
      <trkpt lat="45.77591" lon="3.62526">
        <ele>610.2</ele>
      </trkpt>
      <trkpt lat="45.7758" lon="3.62528">
        <ele>608.9</ele>
      </trkpt>
      <trkpt lat="45.77566" lon="3.62527">
        <ele>608.7</ele>
      </trkpt>
      <trkpt lat="45.77559" lon="3.62528">
        <ele>608.6</ele>
      </trkpt>
      <trkpt lat="45.77551" lon="3.62533">
        <ele>608.7</ele>
      </trkpt>
      <trkpt lat="45.77538" lon="3.62541">
        <ele>608.9</ele>
      </trkpt>
      <trkpt lat="45.77525" lon="3.62549">
        <ele>609.2</ele>
      </trkpt>
      <trkpt lat="45.77518" lon="3.62554">
        <ele>609.4</ele>
      </trkpt>
      <trkpt lat="45.77511" lon="3.62556">
        <ele>609.5</ele>
      </trkpt>
      <trkpt lat="45.77499" lon="3.6256">
        <ele>609.7</ele>
      </trkpt>
      <trkpt lat="45.77491" lon="3.62562">
        <ele>611.2</ele>
      </trkpt>
      <trkpt lat="45.77485" lon="3.62563">
        <ele>612.4</ele>
      </trkpt>
      <trkpt lat="45.77477" lon="3.62562">
        <ele>613.6</ele>
      </trkpt>
      <trkpt lat="45.77465" lon="3.6256">
        <ele>615.5</ele>
      </trkpt>
      <trkpt lat="45.7745" lon="3.62556">
        <ele>617.8</ele>
      </trkpt>
      <trkpt lat="45.77445" lon="3.62551">
        <ele>618.3</ele>
      </trkpt>
      <trkpt lat="45.77443" lon="3.62543">
        <ele>618.2</ele>
      </trkpt>
      <trkpt lat="45.77439" lon="3.62524">
        <ele>617.8</ele>
      </trkpt>
      <trkpt lat="45.77435" lon="3.62495">
        <ele>616.6</ele>
      </trkpt>
      <trkpt lat="45.77432" lon="3.62467">
        <ele>615.3</ele>
      </trkpt>
      <trkpt lat="45.77428" lon="3.62442">
        <ele>614.4</ele>
      </trkpt>
      <trkpt lat="45.77425" lon="3.62418">
        <ele>613.5</ele>
      </trkpt>
      <trkpt lat="45.77421" lon="3.62402">
        <ele>613.6</ele>
      </trkpt>
      <trkpt lat="45.77415" lon="3.62391">
        <ele>614.3</ele>
      </trkpt>
      <trkpt lat="45.7741" lon="3.62385">
        <ele>614.7</ele>
      </trkpt>
      <trkpt lat="45.77401" lon="3.62377">
        <ele>615.5</ele>
      </trkpt>
      <trkpt lat="45.77397" lon="3.62373">
        <ele>615.9</ele>
      </trkpt>
      <trkpt lat="45.77393" lon="3.62371">
        <ele>616.3</ele>
      </trkpt>
      <trkpt lat="45.77381" lon="3.62365">
        <ele>617.6</ele>
      </trkpt>
      <trkpt lat="45.77363" lon="3.62356">
        <ele>619.5</ele>
      </trkpt>
      <trkpt lat="45.77351" lon="3.62351">
        <ele>620.7</ele>
      </trkpt>
      <trkpt lat="45.77344" lon="3.62348">
        <ele>621.5</ele>
      </trkpt>
      <trkpt lat="45.77331" lon="3.62343">
        <ele>622.9</ele>
      </trkpt>
      <trkpt lat="45.77323" lon="3.62339">
        <ele>624.1</ele>
      </trkpt>
      <trkpt lat="45.77323" lon="3.62339">
        <ele>624.1</ele>
      </trkpt>
      <trkpt lat="45.77318" lon="3.62337">
        <ele>624.8</ele>
      </trkpt>
      <trkpt lat="45.77308" lon="3.62329">
        <ele>626.4</ele>
      </trkpt>
      <trkpt lat="45.77301" lon="3.62321">
        <ele>628.1</ele>
      </trkpt>
      <trkpt lat="45.77298" lon="3.62316">
        <ele>628.9</ele>
      </trkpt>
      <trkpt lat="45.77294" lon="3.62306">
        <ele>630.1</ele>
      </trkpt>
      <trkpt lat="45.77291" lon="3.62293">
        <ele>631.3</ele>
      </trkpt>
      <trkpt lat="45.77291" lon="3.62281">
        <ele>632</ele>
      </trkpt>
      <trkpt lat="45.77293" lon="3.62265">
        <ele>632.5</ele>
      </trkpt>
      <trkpt lat="45.77299" lon="3.62238">
        <ele>632.7</ele>
      </trkpt>
      <trkpt lat="45.77282" lon="3.62231">
        <ele>635.7</ele>
      </trkpt>
      <trkpt lat="45.77266" lon="3.62225">
        <ele>638.5</ele>
      </trkpt>
      <trkpt lat="45.77251" lon="3.62223">
        <ele>640.9</ele>
      </trkpt>
      <trkpt lat="45.77236" lon="3.62221">
        <ele>640.1</ele>
      </trkpt>
      <trkpt lat="45.77229" lon="3.62249">
        <ele>640.5</ele>
      </trkpt>
      <trkpt lat="45.77221" lon="3.62244">
        <ele>640.1</ele>
      </trkpt>
      <trkpt lat="45.77217" lon="3.62234">
        <ele>639.5</ele>
      </trkpt>
      <trkpt lat="45.77211" lon="3.62219">
        <ele>638.5</ele>
      </trkpt>
      <trkpt lat="45.77204" lon="3.62204">
        <ele>637.2</ele>
      </trkpt>
      <trkpt lat="45.77197" lon="3.6218">
        <ele>634.9</ele>
      </trkpt>
      <trkpt lat="45.77189" lon="3.62156">
        <ele>632.4</ele>
      </trkpt>
      <trkpt lat="45.77184" lon="3.62125">
        <ele>629.9</ele>
      </trkpt>
      <trkpt lat="45.77179" lon="3.62094">
        <ele>627.2</ele>
      </trkpt>
      <trkpt lat="45.77177" lon="3.62064">
        <ele>625.7</ele>
      </trkpt>
      <trkpt lat="45.77177" lon="3.62064">
        <ele>625.7</ele>
      </trkpt>
      <trkpt lat="45.77176" lon="3.62034">
        <ele>624.6</ele>
      </trkpt>
      <trkpt lat="45.77174" lon="3.62011">
        <ele>623.5</ele>
      </trkpt>
      <trkpt lat="45.7717" lon="3.61995">
        <ele>622.3</ele>
      </trkpt>
      <trkpt lat="45.77167" lon="3.61979">
        <ele>620.7</ele>
      </trkpt>
      <trkpt lat="45.77161" lon="3.61956">
        <ele>618.8</ele>
      </trkpt>
      <trkpt lat="45.7715" lon="3.61937">
        <ele>616.6</ele>
      </trkpt>
      <trkpt lat="45.77138" lon="3.61918">
        <ele>614.3</ele>
      </trkpt>
      <trkpt lat="45.77129" lon="3.619">
        <ele>610.9</ele>
      </trkpt>
      <trkpt lat="45.7712" lon="3.61882">
        <ele>607.4</ele>
      </trkpt>
      <trkpt lat="45.77111" lon="3.61864">
        <ele>603.9</ele>
      </trkpt>
      <trkpt lat="45.77111" lon="3.61864">
        <ele>603.9</ele>
      </trkpt>
      <trkpt lat="45.771" lon="3.6184">
        <ele>599.4</ele>
      </trkpt>
      <trkpt lat="45.7709" lon="3.61816">
        <ele>595.2</ele>
      </trkpt>
      <trkpt lat="45.77079" lon="3.61793">
        <ele>590</ele>
      </trkpt>
      <trkpt lat="45.77071" lon="3.61767">
        <ele>584.2</ele>
      </trkpt>
      <trkpt lat="45.77063" lon="3.6174">
        <ele>578</ele>
      </trkpt>
      <trkpt lat="45.7705" lon="3.61723">
        <ele>571.9</ele>
      </trkpt>
      <trkpt lat="45.77044" lon="3.61733">
        <ele>572.1</ele>
      </trkpt>
      <trkpt lat="45.7704" lon="3.61741">
        <ele>572.5</ele>
      </trkpt>
      <trkpt lat="45.77036" lon="3.6175">
        <ele>573</ele>
      </trkpt>
      <trkpt lat="45.77034" lon="3.61756">
        <ele>573.2</ele>
      </trkpt>
      <trkpt lat="45.77031" lon="3.61764">
        <ele>573.4</ele>
      </trkpt>
      <trkpt lat="45.7703" lon="3.61771">
        <ele>573.9</ele>
      </trkpt>
      <trkpt lat="45.77028" lon="3.61779">
        <ele>574.3</ele>
      </trkpt>
      <trkpt lat="45.77026" lon="3.61792">
        <ele>575.3</ele>
      </trkpt>
      <trkpt lat="45.77025" lon="3.61803">
        <ele>576.1</ele>
      </trkpt>
      <trkpt lat="45.77023" lon="3.61824">
        <ele>577.9</ele>
      </trkpt>
      <trkpt lat="45.77022" lon="3.61834">
        <ele>578.7</ele>
      </trkpt>
      <trkpt lat="45.77019" lon="3.61844">
        <ele>579.5</ele>
      </trkpt>
      <trkpt lat="45.77016" lon="3.61853">
        <ele>580.3</ele>
      </trkpt>
      <trkpt lat="45.77009" lon="3.6187">
        <ele>581.2</ele>
      </trkpt>
      <trkpt lat="45.77007" lon="3.61876">
        <ele>581.6</ele>
      </trkpt>
      <trkpt lat="45.77003" lon="3.61893">
        <ele>583.5</ele>
      </trkpt>
      <trkpt lat="45.76999" lon="3.61913">
        <ele>586.3</ele>
      </trkpt>
      <trkpt lat="45.76997" lon="3.61923">
        <ele>587.7</ele>
      </trkpt>
      <trkpt lat="45.76991" lon="3.61934">
        <ele>588.7</ele>
      </trkpt>
      <trkpt lat="45.76988" lon="3.61939">
        <ele>589.1</ele>
      </trkpt>
      <trkpt lat="45.76984" lon="3.61943">
        <ele>589.1</ele>
      </trkpt>
      <trkpt lat="45.7698" lon="3.61946">
        <ele>589</ele>
      </trkpt>
      <trkpt lat="45.76975" lon="3.61949">
        <ele>588.7</ele>
      </trkpt>
      <trkpt lat="45.76971" lon="3.61951">
        <ele>588.4</ele>
      </trkpt>
      <trkpt lat="45.76963" lon="3.61953">
        <ele>587.6</ele>
      </trkpt>
      <trkpt lat="45.76953" lon="3.61955">
        <ele>586.4</ele>
      </trkpt>
      <trkpt lat="45.7694" lon="3.61958">
        <ele>584.7</ele>
      </trkpt>
      <trkpt lat="45.76929" lon="3.61961">
        <ele>583.4</ele>
      </trkpt>
      <trkpt lat="45.76924" lon="3.61962">
        <ele>582.9</ele>
      </trkpt>
      <trkpt lat="45.76919" lon="3.61965">
        <ele>582.6</ele>
      </trkpt>
      <trkpt lat="45.76912" lon="3.61964">
        <ele>581.4</ele>
      </trkpt>
      <trkpt lat="45.76908" lon="3.61962">
        <ele>580.4</ele>
      </trkpt>
      <trkpt lat="45.76895" lon="3.61965">
        <ele>578.8</ele>
      </trkpt>
      <trkpt lat="45.76886" lon="3.61968">
        <ele>578.1</ele>
      </trkpt>
      <trkpt lat="45.76874" lon="3.61964">
        <ele>575.5</ele>
      </trkpt>
      <trkpt lat="45.76866" lon="3.61964">
        <ele>574.3</ele>
      </trkpt>
      <trkpt lat="45.76846" lon="3.61956">
        <ele>570.1</ele>
      </trkpt>
      <trkpt lat="45.76835" lon="3.61951">
        <ele>567.8</ele>
      </trkpt>
      <trkpt lat="45.76824" lon="3.61946">
        <ele>565.8</ele>
      </trkpt>
      <trkpt lat="45.76814" lon="3.61934">
        <ele>563</ele>
      </trkpt>
      <trkpt lat="45.76814" lon="3.61934">
        <ele>563</ele>
      </trkpt>
      <trkpt lat="45.76804" lon="3.61918">
        <ele>560</ele>
      </trkpt>
      <trkpt lat="45.768" lon="3.61909">
        <ele>557.8</ele>
      </trkpt>
      <trkpt lat="45.76793" lon="3.61895">
        <ele>554.6</ele>
      </trkpt>
      <trkpt lat="45.76784" lon="3.61885">
        <ele>551.8</ele>
      </trkpt>
      <trkpt lat="45.76775" lon="3.61876">
        <ele>549.5</ele>
      </trkpt>
      <trkpt lat="45.76764" lon="3.61869">
        <ele>547.2</ele>
      </trkpt>
      <trkpt lat="45.76757" lon="3.61863">
        <ele>545.6</ele>
      </trkpt>
      <trkpt lat="45.76751" lon="3.61858">
        <ele>544.2</ele>
      </trkpt>
      <trkpt lat="45.76747" lon="3.61851">
        <ele>543.1</ele>
      </trkpt>
      <trkpt lat="45.76745" lon="3.61842">
        <ele>541.5</ele>
      </trkpt>
      <trkpt lat="45.76745" lon="3.61825">
        <ele>538.4</ele>
      </trkpt>
      <trkpt lat="45.76746" lon="3.61811">
        <ele>535.5</ele>
      </trkpt>
      <trkpt lat="45.76749" lon="3.61801">
        <ele>533.3</ele>
      </trkpt>
      <trkpt lat="45.76752" lon="3.61788">
        <ele>530.8</ele>
      </trkpt>
      <trkpt lat="45.76754" lon="3.61779">
        <ele>529.2</ele>
      </trkpt>
      <trkpt lat="45.76754" lon="3.61771">
        <ele>527.5</ele>
      </trkpt>
      <trkpt lat="45.76753" lon="3.61762">
        <ele>525.6</ele>
      </trkpt>
      <trkpt lat="45.76746" lon="3.61747">
        <ele>522.2</ele>
      </trkpt>
      <trkpt lat="45.76752" lon="3.6173">
        <ele>520.2</ele>
      </trkpt>
      <trkpt lat="45.76743" lon="3.61727">
        <ele>519.2</ele>
      </trkpt>
      <trkpt lat="45.76737" lon="3.61722">
        <ele>517.8</ele>
      </trkpt>
      <trkpt lat="45.76729" lon="3.6171">
        <ele>515.4</ele>
      </trkpt>
      <trkpt lat="45.76723" lon="3.61706">
        <ele>514.2</ele>
      </trkpt>
      <trkpt lat="45.76712" lon="3.61707">
        <ele>513.4</ele>
      </trkpt>
      <trkpt lat="45.76706" lon="3.61708">
        <ele>513.1</ele>
      </trkpt>
      <trkpt lat="45.767" lon="3.61712">
        <ele>513.1</ele>
      </trkpt>
      <trkpt lat="45.76696" lon="3.61719">
        <ele>514</ele>
      </trkpt>
      <trkpt lat="45.76695" lon="3.61729">
        <ele>515.5</ele>
      </trkpt>
      <trkpt lat="45.76693" lon="3.61739">
        <ele>517</ele>
      </trkpt>
      <trkpt lat="45.76689" lon="3.61751">
        <ele>518.7</ele>
      </trkpt>
      <trkpt lat="45.76683" lon="3.61762">
        <ele>521.4</ele>
      </trkpt>
      <trkpt lat="45.76675" lon="3.61779">
        <ele>526.1</ele>
      </trkpt>
      <trkpt lat="45.76671" lon="3.61788">
        <ele>528.5</ele>
      </trkpt>
      <trkpt lat="45.76666" lon="3.61792">
        <ele>529.5</ele>
      </trkpt>
      <trkpt lat="45.76649" lon="3.61788">
        <ele>529.9</ele>
      </trkpt>
      <trkpt lat="45.76633" lon="3.61781">
        <ele>529.4</ele>
      </trkpt>
      <trkpt lat="45.76613" lon="3.61773">
        <ele>529</ele>
      </trkpt>
      <trkpt lat="45.76605" lon="3.61781">
        <ele>531.9</ele>
      </trkpt>
      <trkpt lat="45.76594" lon="3.61783">
        <ele>533.4</ele>
      </trkpt>
      <trkpt lat="45.76586" lon="3.61785">
        <ele>534.9</ele>
      </trkpt>
      <trkpt lat="45.76575" lon="3.61788">
        <ele>537.4</ele>
      </trkpt>
      <trkpt lat="45.76565" lon="3.61789">
        <ele>539.1</ele>
      </trkpt>
      <trkpt lat="45.76559" lon="3.61788">
        <ele>539.9</ele>
      </trkpt>
      <trkpt lat="45.76551" lon="3.61787">
        <ele>540.7</ele>
      </trkpt>
      <trkpt lat="45.76544" lon="3.61784">
        <ele>541.2</ele>
      </trkpt>
      <trkpt lat="45.76539" lon="3.61781">
        <ele>541.4</ele>
      </trkpt>
      <trkpt lat="45.76534" lon="3.61778">
        <ele>541.4</ele>
      </trkpt>
      <trkpt lat="45.7653" lon="3.61773">
        <ele>541</ele>
      </trkpt>
      <trkpt lat="45.76527" lon="3.61767">
        <ele>540.3</ele>
      </trkpt>
      <trkpt lat="45.76524" lon="3.61761">
        <ele>539.5</ele>
      </trkpt>
      <trkpt lat="45.76524" lon="3.61761">
        <ele>539.5</ele>
      </trkpt>
      <trkpt lat="45.7652" lon="3.61753">
        <ele>538.5</ele>
      </trkpt>
      <trkpt lat="45.76515" lon="3.61743">
        <ele>537.6</ele>
      </trkpt>
      <trkpt lat="45.76512" lon="3.61738">
        <ele>537.2</ele>
      </trkpt>
      <trkpt lat="45.76507" lon="3.61732">
        <ele>537</ele>
      </trkpt>
      <trkpt lat="45.76501" lon="3.61728">
        <ele>537.4</ele>
      </trkpt>
      <trkpt lat="45.76491" lon="3.61727">
        <ele>538</ele>
      </trkpt>
      <trkpt lat="45.76473" lon="3.61725">
        <ele>539.1</ele>
      </trkpt>
      <trkpt lat="45.76461" lon="3.61724">
        <ele>539.9</ele>
      </trkpt>
      <trkpt lat="45.76449" lon="3.61723">
        <ele>540.7</ele>
      </trkpt>
      <trkpt lat="45.76432" lon="3.61722">
        <ele>541.8</ele>
      </trkpt>
      <trkpt lat="45.76415" lon="3.61721">
        <ele>542.7</ele>
      </trkpt>
      <trkpt lat="45.76408" lon="3.61721">
        <ele>542</ele>
      </trkpt>
      <trkpt lat="45.76402" lon="3.6172">
        <ele>541.5</ele>
      </trkpt>
      <trkpt lat="45.76397" lon="3.61721">
        <ele>541.3</ele>
      </trkpt>
      <trkpt lat="45.7639" lon="3.61723">
        <ele>541.5</ele>
      </trkpt>
      <trkpt lat="45.76378" lon="3.61728">
        <ele>541.9</ele>
      </trkpt>
      <trkpt lat="45.76365" lon="3.61734">
        <ele>542.2</ele>
      </trkpt>
      <trkpt lat="45.76346" lon="3.61744">
        <ele>543</ele>
      </trkpt>
      <trkpt lat="45.76328" lon="3.61756">
        <ele>543.8</ele>
      </trkpt>
      <trkpt lat="45.76317" lon="3.61763">
        <ele>544.4</ele>
      </trkpt>
      <trkpt lat="45.76306" lon="3.6177">
        <ele>545.1</ele>
      </trkpt>
      <trkpt lat="45.76295" lon="3.61777">
        <ele>545.8</ele>
      </trkpt>
      <trkpt lat="45.76284" lon="3.61785">
        <ele>546.5</ele>
      </trkpt>
      <trkpt lat="45.76271" lon="3.61793">
        <ele>547.2</ele>
      </trkpt>
      <trkpt lat="45.76257" lon="3.61802">
        <ele>547.8</ele>
      </trkpt>
      <trkpt lat="45.76238" lon="3.61812">
        <ele>547.6</ele>
      </trkpt>
      <trkpt lat="45.76219" lon="3.61824">
        <ele>547.4</ele>
      </trkpt>
      <trkpt lat="45.76204" lon="3.61833">
        <ele>547</ele>
      </trkpt>
      <trkpt lat="45.7619" lon="3.61843">
        <ele>545.8</ele>
      </trkpt>
      <trkpt lat="45.7617" lon="3.61856">
        <ele>543.6</ele>
      </trkpt>
      <trkpt lat="45.76162" lon="3.61864">
        <ele>543</ele>
      </trkpt>
      <trkpt lat="45.76155" lon="3.6187">
        <ele>542.5</ele>
      </trkpt>
      <trkpt lat="45.76148" lon="3.61873">
        <ele>541.9</ele>
      </trkpt>
      <trkpt lat="45.76143" lon="3.61872">
        <ele>541.3</ele>
      </trkpt>
      <trkpt lat="45.76126" lon="3.61869">
        <ele>539.3</ele>
      </trkpt>
      <trkpt lat="45.76118" lon="3.6187">
        <ele>538.5</ele>
      </trkpt>
      <trkpt lat="45.76112" lon="3.61871">
        <ele>537.9</ele>
      </trkpt>
      <trkpt lat="45.76099" lon="3.61873">
        <ele>536.6</ele>
      </trkpt>
      <trkpt lat="45.76091" lon="3.61875">
        <ele>535.8</ele>
      </trkpt>
      <trkpt lat="45.76091" lon="3.61875">
        <ele>535.8</ele>
      </trkpt>
      <trkpt lat="45.76078" lon="3.61874">
        <ele>534.2</ele>
      </trkpt>
      <trkpt lat="45.76064" lon="3.61874">
        <ele>532.5</ele>
      </trkpt>
      <trkpt lat="45.76055" lon="3.61893">
        <ele>532</ele>
      </trkpt>
      <trkpt lat="45.7605" lon="3.61901">
        <ele>531.7</ele>
      </trkpt>
      <trkpt lat="45.76045" lon="3.61907">
        <ele>531.2</ele>
      </trkpt>
      <trkpt lat="45.76036" lon="3.61917">
        <ele>530.2</ele>
      </trkpt>
      <trkpt lat="45.7603" lon="3.6192">
        <ele>529.1</ele>
      </trkpt>
      <trkpt lat="45.76025" lon="3.61922">
        <ele>528.2</ele>
      </trkpt>
      <trkpt lat="45.76017" lon="3.61921">
        <ele>527</ele>
      </trkpt>
      <trkpt lat="45.76012" lon="3.61919">
        <ele>526.6</ele>
      </trkpt>
      <trkpt lat="45.76008" lon="3.61911">
        <ele>526</ele>
      </trkpt>
      <trkpt lat="45.76001" lon="3.61906">
        <ele>525</ele>
      </trkpt>
      <trkpt lat="45.76002" lon="3.61887">
        <ele>524.9</ele>
      </trkpt>
      <trkpt lat="45.75999" lon="3.61879">
        <ele>524.5</ele>
      </trkpt>
      <trkpt lat="45.75994" lon="3.61866">
        <ele>523.9</ele>
      </trkpt>
      <trkpt lat="45.75987" lon="3.61857">
        <ele>523.3</ele>
      </trkpt>
      <trkpt lat="45.75977" lon="3.61844">
        <ele>522.8</ele>
      </trkpt>
      <trkpt lat="45.75971" lon="3.61836">
        <ele>522.6</ele>
      </trkpt>
      <trkpt lat="45.75959" lon="3.61826">
        <ele>522.1</ele>
      </trkpt>
      <trkpt lat="45.75952" lon="3.61824">
        <ele>521.8</ele>
      </trkpt>
      <trkpt lat="45.75942" lon="3.61819">
        <ele>521.4</ele>
      </trkpt>
      <trkpt lat="45.75927" lon="3.61812">
        <ele>520.9</ele>
      </trkpt>
      <trkpt lat="45.75912" lon="3.61805">
        <ele>520</ele>
      </trkpt>
      <trkpt lat="45.75891" lon="3.61795">
        <ele>517.2</ele>
      </trkpt>
      <trkpt lat="45.75885" lon="3.61799">
        <ele>516.2</ele>
      </trkpt>
      <trkpt lat="45.75883" lon="3.61792">
        <ele>516.2</ele>
      </trkpt>
      <trkpt lat="45.75879" lon="3.6179">
        <ele>515.6</ele>
      </trkpt>
      <trkpt lat="45.7587" lon="3.61786">
        <ele>514.6</ele>
      </trkpt>
      <trkpt lat="45.75863" lon="3.61782">
        <ele>513.8</ele>
      </trkpt>
      <trkpt lat="45.75854" lon="3.61776">
        <ele>512.9</ele>
      </trkpt>
      <trkpt lat="45.75847" lon="3.61771">
        <ele>512.3</ele>
      </trkpt>
      <trkpt lat="45.75841" lon="3.61766">
        <ele>511.8</ele>
      </trkpt>
      <trkpt lat="45.75833" lon="3.61757">
        <ele>511.4</ele>
      </trkpt>
      <trkpt lat="45.75829" lon="3.61752">
        <ele>511</ele>
      </trkpt>
      <trkpt lat="45.75824" lon="3.61744">
        <ele>510</ele>
      </trkpt>
      <trkpt lat="45.75821" lon="3.61736">
        <ele>509</ele>
      </trkpt>
      <trkpt lat="45.75818" lon="3.61727">
        <ele>508.1</ele>
      </trkpt>
      <trkpt lat="45.75816" lon="3.61716">
        <ele>507.3</ele>
      </trkpt>
      <trkpt lat="45.75814" lon="3.61703">
        <ele>506.5</ele>
      </trkpt>
      <trkpt lat="45.75812" lon="3.61676">
        <ele>505</ele>
      </trkpt>
      <trkpt lat="45.75811" lon="3.61652">
        <ele>503</ele>
      </trkpt>
      <trkpt lat="45.75811" lon="3.6163">
        <ele>501.1</ele>
      </trkpt>
      <trkpt lat="45.75812" lon="3.61613">
        <ele>500</ele>
      </trkpt>
      <trkpt lat="45.75815" lon="3.61593">
        <ele>498.9</ele>
      </trkpt>
      <trkpt lat="45.75799" lon="3.61608">
        <ele>496.1</ele>
      </trkpt>
      <trkpt lat="45.75783" lon="3.61623">
        <ele>493.5</ele>
      </trkpt>
      <trkpt lat="45.75783" lon="3.61623">
        <ele>493.5</ele>
      </trkpt>
      <trkpt lat="45.75768" lon="3.61638">
        <ele>490.8</ele>
      </trkpt>
      <trkpt lat="45.7576" lon="3.61655">
        <ele>490.3</ele>
      </trkpt>
      <trkpt lat="45.75751" lon="3.61672">
        <ele>489.7</ele>
      </trkpt>
      <trkpt lat="45.75739" lon="3.61692">
        <ele>488.1</ele>
      </trkpt>
      <trkpt lat="45.75727" lon="3.61712">
        <ele>486.2</ele>
      </trkpt>
      <trkpt lat="45.75715" lon="3.61732">
        <ele>484.2</ele>
      </trkpt>
      <trkpt lat="45.75702" lon="3.61752">
        <ele>481.8</ele>
      </trkpt>
      <trkpt lat="45.75698" lon="3.61774">
        <ele>480.1</ele>
      </trkpt>
      <trkpt lat="45.75694" lon="3.61797">
        <ele>478.5</ele>
      </trkpt>
      <trkpt lat="45.7569" lon="3.6182">
        <ele>477</ele>
      </trkpt>
      <trkpt lat="45.75678" lon="3.61841">
        <ele>473</ele>
      </trkpt>
      <trkpt lat="45.75666" lon="3.61863">
        <ele>467.9</ele>
      </trkpt>
      <trkpt lat="45.75654" lon="3.61884">
        <ele>463.5</ele>
      </trkpt>
      <trkpt lat="45.75643" lon="3.61893">
        <ele>460.9</ele>
      </trkpt>
      <trkpt lat="45.75632" lon="3.61903">
        <ele>458.5</ele>
      </trkpt>
      <trkpt lat="45.75618" lon="3.6191">
        <ele>456.1</ele>
      </trkpt>
      <trkpt lat="45.75604" lon="3.61918">
        <ele>454</ele>
      </trkpt>
      <trkpt lat="45.75593" lon="3.61932">
        <ele>452.7</ele>
      </trkpt>
      <trkpt lat="45.75582" lon="3.61945">
        <ele>451.9</ele>
      </trkpt>
      <trkpt lat="45.75569" lon="3.61945">
        <ele>450.9</ele>
      </trkpt>
      <trkpt lat="45.75563" lon="3.61945">
        <ele>450.5</ele>
      </trkpt>
      <trkpt lat="45.75552" lon="3.61943">
        <ele>449.4</ele>
      </trkpt>
      <trkpt lat="45.75548" lon="3.61938">
        <ele>448.3</ele>
      </trkpt>
      <trkpt lat="45.75549" lon="3.6193">
        <ele>447.2</ele>
      </trkpt>
      <trkpt lat="45.75551" lon="3.61922">
        <ele>446.3</ele>
      </trkpt>
      <trkpt lat="45.75555" lon="3.61913">
        <ele>445.9</ele>
      </trkpt>
      <trkpt lat="45.7556" lon="3.61896">
        <ele>445.9</ele>
      </trkpt>
      <trkpt lat="45.75563" lon="3.61886">
        <ele>445.8</ele>
      </trkpt>
      <trkpt lat="45.75563" lon="3.61877">
        <ele>445.3</ele>
      </trkpt>
      <trkpt lat="45.75555" lon="3.61878">
        <ele>443.8</ele>
      </trkpt>
      <trkpt lat="45.7555" lon="3.61887">
        <ele>443.5</ele>
      </trkpt>
      <trkpt lat="45.75541" lon="3.61891">
        <ele>442.2</ele>
      </trkpt>
      <trkpt lat="45.7553" lon="3.61885">
        <ele>439.7</ele>
      </trkpt>
      <trkpt lat="45.75523" lon="3.6188">
        <ele>438.1</ele>
      </trkpt>
      <trkpt lat="45.75529" lon="3.61857">
        <ele>437.6</ele>
      </trkpt>
      <trkpt lat="45.7553" lon="3.6185">
        <ele>437.3</ele>
      </trkpt>
      <trkpt lat="45.7553" lon="3.6185">
        <ele>437.3</ele>
      </trkpt>
      <trkpt lat="45.75532" lon="3.6184">
        <ele>436.9</ele>
      </trkpt>
      <trkpt lat="45.75532" lon="3.6184">
        <ele>436.9</ele>
      </trkpt>
      <trkpt lat="45.75532" lon="3.61812">
        <ele>435.6</ele>
      </trkpt>
      <trkpt lat="45.75532" lon="3.61787">
        <ele>434.5</ele>
      </trkpt>
      <trkpt lat="45.75533" lon="3.6178">
        <ele>434.2</ele>
      </trkpt>
      <trkpt lat="45.75533" lon="3.61761">
        <ele>433.5</ele>
      </trkpt>
      <trkpt lat="45.75534" lon="3.61742">
        <ele>433</ele>
      </trkpt>
      <trkpt lat="45.75535" lon="3.61729">
        <ele>432.7</ele>
      </trkpt>
      <trkpt lat="45.75535" lon="3.61714">
        <ele>432.4</ele>
      </trkpt>
      <trkpt lat="45.75536" lon="3.61696">
        <ele>432.2</ele>
      </trkpt>
      <trkpt lat="45.75538" lon="3.61674">
        <ele>432.1</ele>
      </trkpt>
      <trkpt lat="45.7554" lon="3.61663">
        <ele>432.2</ele>
      </trkpt>
      <trkpt lat="45.75544" lon="3.61635">
        <ele>432.8</ele>
      </trkpt>
      <trkpt lat="45.75547" lon="3.61612">
        <ele>433.3</ele>
      </trkpt>
      <trkpt lat="45.7555" lon="3.6159">
        <ele>433.7</ele>
      </trkpt>
      <trkpt lat="45.75555" lon="3.61563">
        <ele>434.3</ele>
      </trkpt>
      <trkpt lat="45.75559" lon="3.61536">
        <ele>434.9</ele>
      </trkpt>
      <trkpt lat="45.75561" lon="3.61516">
        <ele>435.3</ele>
      </trkpt>
      <trkpt lat="45.75564" lon="3.61496">
        <ele>435.6</ele>
      </trkpt>
      <trkpt lat="45.75566" lon="3.61489">
        <ele>435.7</ele>
      </trkpt>
      <trkpt lat="45.7557" lon="3.61468">
        <ele>435.8</ele>
      </trkpt>
      <trkpt lat="45.75574" lon="3.6145">
        <ele>436</ele>
      </trkpt>
      <trkpt lat="45.75578" lon="3.61433">
        <ele>436.3</ele>
      </trkpt>
      <trkpt lat="45.75581" lon="3.61417">
        <ele>436.7</ele>
      </trkpt>
      <trkpt lat="45.75585" lon="3.61401">
        <ele>437.3</ele>
      </trkpt>
      <trkpt lat="45.75588" lon="3.6139">
        <ele>437.8</ele>
      </trkpt>
      <trkpt lat="45.75592" lon="3.61371">
        <ele>438.5</ele>
      </trkpt>
      <trkpt lat="45.75594" lon="3.61364">
        <ele>438.8</ele>
      </trkpt>
      <trkpt lat="45.75597" lon="3.61346">
        <ele>439.4</ele>
      </trkpt>
      <trkpt lat="45.75601" lon="3.61328">
        <ele>439.9</ele>
      </trkpt>
      <trkpt lat="45.75606" lon="3.61305">
        <ele>440.5</ele>
      </trkpt>
      <trkpt lat="45.75611" lon="3.61282">
        <ele>440.9</ele>
      </trkpt>
      <trkpt lat="45.75616" lon="3.61263">
        <ele>441.1</ele>
      </trkpt>
      <trkpt lat="45.7562" lon="3.61245">
        <ele>441.3</ele>
      </trkpt>
      <trkpt lat="45.75623" lon="3.61228">
        <ele>441.4</ele>
      </trkpt>
      <trkpt lat="45.75627" lon="3.61212">
        <ele>441.6</ele>
      </trkpt>
      <trkpt lat="45.75632" lon="3.61191">
        <ele>441.7</ele>
      </trkpt>
      <trkpt lat="45.75632" lon="3.61191">
        <ele>441.7</ele>
      </trkpt>
      <trkpt lat="45.75637" lon="3.6117">
        <ele>441.8</ele>
      </trkpt>
      <trkpt lat="45.75641" lon="3.61154">
        <ele>442</ele>
      </trkpt>
      <trkpt lat="45.75644" lon="3.61138">
        <ele>442.2</ele>
      </trkpt>
      <trkpt lat="45.75649" lon="3.61119">
        <ele>442.5</ele>
      </trkpt>
      <trkpt lat="45.75654" lon="3.611">
        <ele>442.8</ele>
      </trkpt>
      <trkpt lat="45.75658" lon="3.61081">
        <ele>443.1</ele>
      </trkpt>
      <trkpt lat="45.75662" lon="3.61063">
        <ele>443.8</ele>
      </trkpt>
      <trkpt lat="45.75667" lon="3.61042">
        <ele>444.5</ele>
      </trkpt>
      <trkpt lat="45.75671" lon="3.61021">
        <ele>445.1</ele>
      </trkpt>
      <trkpt lat="45.75674" lon="3.61007">
        <ele>445.4</ele>
      </trkpt>
      <trkpt lat="45.75677" lon="3.60993">
        <ele>445.7</ele>
      </trkpt>
      <trkpt lat="45.75679" lon="3.60981">
        <ele>446</ele>
      </trkpt>
      <trkpt lat="45.75679" lon="3.60973">
        <ele>446.1</ele>
      </trkpt>
      <trkpt lat="45.75679" lon="3.60966">
        <ele>446.2</ele>
      </trkpt>
      <trkpt lat="45.75679" lon="3.60958">
        <ele>446.3</ele>
      </trkpt>
      <trkpt lat="45.75679" lon="3.60951">
        <ele>446.4</ele>
      </trkpt>
      <trkpt lat="45.75678" lon="3.60944">
        <ele>446.4</ele>
      </trkpt>
      <trkpt lat="45.75675" lon="3.60932">
        <ele>446.4</ele>
      </trkpt>
      <trkpt lat="45.75673" lon="3.60926">
        <ele>446.3</ele>
      </trkpt>
      <trkpt lat="45.75668" lon="3.60911">
        <ele>446.2</ele>
      </trkpt>
      <trkpt lat="45.75664" lon="3.60896">
        <ele>446.2</ele>
      </trkpt>
      <trkpt lat="45.75659" lon="3.60879">
        <ele>446.2</ele>
      </trkpt>
      <trkpt lat="45.75654" lon="3.60863">
        <ele>446.2</ele>
      </trkpt>
      <trkpt lat="45.75649" lon="3.60847">
        <ele>446.2</ele>
      </trkpt>
      <trkpt lat="45.75645" lon="3.60832">
        <ele>446.2</ele>
      </trkpt>
      <trkpt lat="45.75639" lon="3.60813">
        <ele>446.8</ele>
      </trkpt>
      <trkpt lat="45.75635" lon="3.60821">
        <ele>446</ele>
      </trkpt>
      <trkpt lat="45.75619" lon="3.60832">
        <ele>444.1</ele>
      </trkpt>
      <trkpt lat="45.75606" lon="3.60842">
        <ele>442.6</ele>
      </trkpt>
      <trkpt lat="45.75592" lon="3.60851">
        <ele>441.1</ele>
      </trkpt>
      <trkpt lat="45.75573" lon="3.60866">
        <ele>438.9</ele>
      </trkpt>
      <trkpt lat="45.75556" lon="3.60879">
        <ele>437</ele>
      </trkpt>
      <trkpt lat="45.75547" lon="3.60886">
        <ele>435.9</ele>
      </trkpt>
      <trkpt lat="45.75536" lon="3.60895">
        <ele>434.5</ele>
      </trkpt>
      <trkpt lat="45.75525" lon="3.60904">
        <ele>433.1</ele>
      </trkpt>
      <trkpt lat="45.75515" lon="3.60913">
        <ele>431.6</ele>
      </trkpt>
      <trkpt lat="45.75503" lon="3.60924">
        <ele>430</ele>
      </trkpt>
      <trkpt lat="45.75491" lon="3.60935">
        <ele>429</ele>
      </trkpt>
      <trkpt lat="45.7548" lon="3.60946">
        <ele>428.3</ele>
      </trkpt>
      <trkpt lat="45.7548" lon="3.60946">
        <ele>428.3</ele>
      </trkpt>
      <trkpt lat="45.7547" lon="3.60955">
        <ele>427.7</ele>
      </trkpt>
      <trkpt lat="45.7546" lon="3.60966">
        <ele>427</ele>
      </trkpt>
      <trkpt lat="45.75452" lon="3.60975">
        <ele>426.6</ele>
      </trkpt>
      <trkpt lat="45.75442" lon="3.60989">
        <ele>425.9</ele>
      </trkpt>
      <trkpt lat="45.75426" lon="3.61011">
        <ele>424.9</ele>
      </trkpt>
      <trkpt lat="45.7541" lon="3.61033">
        <ele>423.5</ele>
      </trkpt>
      <trkpt lat="45.75404" lon="3.61041">
        <ele>422.8</ele>
      </trkpt>
      <trkpt lat="45.754" lon="3.61046">
        <ele>422.4</ele>
      </trkpt>
      <trkpt lat="45.75393" lon="3.61054">
        <ele>421.8</ele>
      </trkpt>
      <trkpt lat="45.75388" lon="3.61058">
        <ele>421.4</ele>
      </trkpt>
      <trkpt lat="45.75383" lon="3.61061">
        <ele>421.1</ele>
      </trkpt>
      <trkpt lat="45.75378" lon="3.61063">
        <ele>420.8</ele>
      </trkpt>
      <trkpt lat="45.75382" lon="3.61072">
        <ele>420.7</ele>
      </trkpt>
      <trkpt lat="45.75369" lon="3.61077">
        <ele>419.9</ele>
      </trkpt>
      <trkpt lat="45.75349" lon="3.61087">
        <ele>418.6</ele>
      </trkpt>
      <trkpt lat="45.75341" lon="3.61091">
        <ele>418.1</ele>
      </trkpt>
      <trkpt lat="45.7533" lon="3.61096">
        <ele>417.3</ele>
      </trkpt>
      <trkpt lat="45.75326" lon="3.61088">
        <ele>417.4</ele>
      </trkpt>
      <trkpt lat="45.75321" lon="3.61085">
        <ele>417.2</ele>
      </trkpt>
      <trkpt lat="45.75316" lon="3.61085">
        <ele>416.9</ele>
      </trkpt>
      <trkpt lat="45.75309" lon="3.61057">
        <ele>417</ele>
      </trkpt>
      <trkpt lat="45.75304" lon="3.61042">
        <ele>417.1</ele>
      </trkpt>
      <trkpt lat="45.75303" lon="3.61036">
        <ele>417.1</ele>
      </trkpt>
      <trkpt lat="45.75301" lon="3.6103">
        <ele>417.1</ele>
      </trkpt>
      <trkpt lat="45.75298" lon="3.61021">
        <ele>417</ele>
      </trkpt>
      <trkpt lat="45.75294" lon="3.61013">
        <ele>416.9</ele>
      </trkpt>
      <trkpt lat="45.75286" lon="3.60999">
        <ele>416.7</ele>
      </trkpt>
      <trkpt lat="45.75279" lon="3.60987">
        <ele>416.7</ele>
      </trkpt>
      <trkpt lat="45.75271" lon="3.60974">
        <ele>416.8</ele>
      </trkpt>
      <trkpt lat="45.75262" lon="3.60958">
        <ele>416.9</ele>
      </trkpt>
      <trkpt lat="45.75253" lon="3.60942">
        <ele>417</ele>
      </trkpt>
      <trkpt lat="45.75249" lon="3.60935">
        <ele>417.1</ele>
      </trkpt>
      <trkpt lat="45.75244" lon="3.60925">
        <ele>417.3</ele>
      </trkpt>
      <trkpt lat="45.75234" lon="3.60909">
        <ele>417.7</ele>
      </trkpt>
      <trkpt lat="45.7522" lon="3.60888">
        <ele>418.1</ele>
      </trkpt>
      <trkpt lat="45.75212" lon="3.60876">
        <ele>418.1</ele>
      </trkpt>
      <trkpt lat="45.75204" lon="3.60867">
        <ele>418.1</ele>
      </trkpt>
      <trkpt lat="45.75199" lon="3.60863">
        <ele>418</ele>
      </trkpt>
      <trkpt lat="45.75193" lon="3.60858">
        <ele>417.8</ele>
      </trkpt>
      <trkpt lat="45.75193" lon="3.60858">
        <ele>417.8</ele>
      </trkpt>
      <trkpt lat="45.75173" lon="3.60846">
        <ele>417</ele>
      </trkpt>
      <trkpt lat="45.75163" lon="3.60839">
        <ele>416.7</ele>
      </trkpt>
      <trkpt lat="45.75158" lon="3.60834">
        <ele>416.6</ele>
      </trkpt>
      <trkpt lat="45.75153" lon="3.6083">
        <ele>416.9</ele>
      </trkpt>
      <trkpt lat="45.75153" lon="3.6083">
        <ele>416.9</ele>
      </trkpt>
      <trkpt lat="45.75148" lon="3.60825">
        <ele>417.2</ele>
      </trkpt>
      <trkpt lat="45.75143" lon="3.6082">
        <ele>417.5</ele>
      </trkpt>
      <trkpt lat="45.75138" lon="3.60815">
        <ele>417.8</ele>
      </trkpt>
      <trkpt lat="45.75134" lon="3.60809">
        <ele>418.2</ele>
      </trkpt>
      <trkpt lat="45.75127" lon="3.60802">
        <ele>418.6</ele>
      </trkpt>
      <trkpt lat="45.75113" lon="3.60795">
        <ele>418.6</ele>
      </trkpt>
      <trkpt lat="45.75099" lon="3.60789">
        <ele>418.5</ele>
      </trkpt>
      <trkpt lat="45.75089" lon="3.60769">
        <ele>419.7</ele>
      </trkpt>
      <trkpt lat="45.75079" lon="3.60749">
        <ele>421</ele>
      </trkpt>
      <trkpt lat="45.75069" lon="3.60729">
        <ele>422.8</ele>
      </trkpt>
      <trkpt lat="45.75068" lon="3.60707">
        <ele>424.9</ele>
      </trkpt>
      <trkpt lat="45.75066" lon="3.60685">
        <ele>427.1</ele>
      </trkpt>
      <trkpt lat="45.75065" lon="3.60663">
        <ele>429.2</ele>
      </trkpt>
      <trkpt lat="45.7506" lon="3.60656">
        <ele>430.1</ele>
      </trkpt>
      <trkpt lat="45.75054" lon="3.60651">
        <ele>430.8</ele>
      </trkpt>
      <trkpt lat="45.75053" lon="3.60643">
        <ele>431.5</ele>
      </trkpt>
      <trkpt lat="45.7505" lon="3.60636">
        <ele>432.3</ele>
      </trkpt>
      <trkpt lat="45.75044" lon="3.60623">
        <ele>433.6</ele>
      </trkpt>
      <trkpt lat="45.7504" lon="3.60616">
        <ele>434.3</ele>
      </trkpt>
      <trkpt lat="45.75031" lon="3.60601">
        <ele>435.8</ele>
      </trkpt>
      <trkpt lat="45.7502" lon="3.60581">
        <ele>437.7</ele>
      </trkpt>
      <trkpt lat="45.75013" lon="3.60568">
        <ele>439</ele>
      </trkpt>
      <trkpt lat="45.75003" lon="3.60553">
        <ele>440.5</ele>
      </trkpt>
      <trkpt lat="45.74994" lon="3.60538">
        <ele>441.6</ele>
      </trkpt>
      <trkpt lat="45.74983" lon="3.60518">
        <ele>443</ele>
      </trkpt>
      <trkpt lat="45.74976" lon="3.60505">
        <ele>443.9</ele>
      </trkpt>
      <trkpt lat="45.74972" lon="3.605">
        <ele>444.3</ele>
      </trkpt>
      <trkpt lat="45.74969" lon="3.60494">
        <ele>444.4</ele>
      </trkpt>
      <trkpt lat="45.74964" lon="3.60487">
        <ele>444.4</ele>
      </trkpt>
      <trkpt lat="45.7496" lon="3.60481">
        <ele>444.4</ele>
      </trkpt>
      <trkpt lat="45.74956" lon="3.60475">
        <ele>444.4</ele>
      </trkpt>
      <trkpt lat="45.74952" lon="3.6047">
        <ele>444.4</ele>
      </trkpt>
      <trkpt lat="45.74945" lon="3.60456">
        <ele>444.5</ele>
      </trkpt>
      <trkpt lat="45.74941" lon="3.60448">
        <ele>444.6</ele>
      </trkpt>
      <trkpt lat="45.74938" lon="3.60442">
        <ele>444.7</ele>
      </trkpt>
      <trkpt lat="45.74936" lon="3.60435">
        <ele>444.8</ele>
      </trkpt>
      <trkpt lat="45.74933" lon="3.60428">
        <ele>444.9</ele>
      </trkpt>
      <trkpt lat="45.74929" lon="3.60417">
        <ele>445.1</ele>
      </trkpt>
      <trkpt lat="45.74923" lon="3.60396">
        <ele>444.6</ele>
      </trkpt>
      <trkpt lat="45.74932" lon="3.60391">
        <ele>444.6</ele>
      </trkpt>
      <trkpt lat="45.74942" lon="3.60385">
        <ele>444.5</ele>
      </trkpt>
      <trkpt lat="45.74953" lon="3.6038">
        <ele>444.6</ele>
      </trkpt>
      <trkpt lat="45.74965" lon="3.60377">
        <ele>444.6</ele>
      </trkpt>
      <trkpt lat="45.74973" lon="3.60376">
        <ele>444.7</ele>
      </trkpt>
      <trkpt lat="45.74988" lon="3.60374">
        <ele>444.8</ele>
      </trkpt>
      <trkpt lat="45.74997" lon="3.60374">
        <ele>444.9</ele>
      </trkpt>
      <trkpt lat="45.74997" lon="3.60374">
        <ele>444.9</ele>
      </trkpt>
      <trkpt lat="45.75003" lon="3.60375">
        <ele>445</ele>
      </trkpt>
      <trkpt lat="45.75014" lon="3.60377">
        <ele>445</ele>
      </trkpt>
      <trkpt lat="45.7503" lon="3.60379">
        <ele>445.1</ele>
      </trkpt>
      <trkpt lat="45.75041" lon="3.60382">
        <ele>445.1</ele>
      </trkpt>
      <trkpt lat="45.75053" lon="3.60385">
        <ele>445.1</ele>
      </trkpt>
      <trkpt lat="45.75071" lon="3.60389">
        <ele>445</ele>
      </trkpt>
      <trkpt lat="45.75089" lon="3.60393">
        <ele>445.1</ele>
      </trkpt>
      <trkpt lat="45.75112" lon="3.60399">
        <ele>445.3</ele>
      </trkpt>
      <trkpt lat="45.75124" lon="3.60402">
        <ele>445.5</ele>
      </trkpt>
      <trkpt lat="45.75146" lon="3.60407">
        <ele>445.7</ele>
      </trkpt>
      <trkpt lat="45.75166" lon="3.6041">
        <ele>446</ele>
      </trkpt>
      <trkpt lat="45.75173" lon="3.60411">
        <ele>446.5</ele>
      </trkpt>
      <trkpt lat="45.75178" lon="3.60411">
        <ele>446.9</ele>
      </trkpt>
      <trkpt lat="45.75184" lon="3.60411">
        <ele>447.3</ele>
      </trkpt>
      <trkpt lat="45.75194" lon="3.6041">
        <ele>448.1</ele>
      </trkpt>
      <trkpt lat="45.75192" lon="3.60379">
        <ele>448.5</ele>
      </trkpt>
      <trkpt lat="45.7519" lon="3.60348">
        <ele>448.8</ele>
      </trkpt>
      <trkpt lat="45.75188" lon="3.60317">
        <ele>447.4</ele>
      </trkpt>
      <trkpt lat="45.75186" lon="3.60286">
        <ele>444.5</ele>
      </trkpt>
      <trkpt lat="45.75183" lon="3.60255">
        <ele>441.8</ele>
      </trkpt>
      <trkpt lat="45.75181" lon="3.60223">
        <ele>439.3</ele>
      </trkpt>
      <trkpt lat="45.75179" lon="3.60192">
        <ele>437</ele>
      </trkpt>
      <trkpt lat="45.75177" lon="3.60161">
        <ele>434.7</ele>
      </trkpt>
      <trkpt lat="45.75175" lon="3.6013">
        <ele>432.4</ele>
      </trkpt>
      <trkpt lat="45.75185" lon="3.60118">
        <ele>431.4</ele>
      </trkpt>
      <trkpt lat="45.75196" lon="3.60105">
        <ele>430.4</ele>
      </trkpt>
      <trkpt lat="45.75209" lon="3.6009">
        <ele>429</ele>
      </trkpt>
      <trkpt lat="45.75221" lon="3.60077">
        <ele>427.7</ele>
      </trkpt>
      <trkpt lat="45.75234" lon="3.60064">
        <ele>426.4</ele>
      </trkpt>
      <trkpt lat="45.75234" lon="3.60064">
        <ele>426.4</ele>
      </trkpt>
      <trkpt lat="45.75247" lon="3.6005">
        <ele>425.2</ele>
      </trkpt>
      <trkpt lat="45.75259" lon="3.60037">
        <ele>424.4</ele>
      </trkpt>
      <trkpt lat="45.75269" lon="3.60025">
        <ele>423.7</ele>
      </trkpt>
      <trkpt lat="45.75279" lon="3.60014">
        <ele>422.9</ele>
      </trkpt>
      <trkpt lat="45.75288" lon="3.60002">
        <ele>422.1</ele>
      </trkpt>
      <trkpt lat="45.75297" lon="3.5999">
        <ele>421.4</ele>
      </trkpt>
      <trkpt lat="45.75303" lon="3.59978">
        <ele>420.7</ele>
      </trkpt>
      <trkpt lat="45.75314" lon="3.59956">
        <ele>419.5</ele>
      </trkpt>
      <trkpt lat="45.75325" lon="3.59934">
        <ele>418.6</ele>
      </trkpt>
      <trkpt lat="45.75335" lon="3.59915">
        <ele>418</ele>
      </trkpt>
      <trkpt lat="45.75345" lon="3.59897">
        <ele>417</ele>
      </trkpt>
      <trkpt lat="45.75351" lon="3.59882">
        <ele>416.1</ele>
      </trkpt>
      <trkpt lat="45.75357" lon="3.59866">
        <ele>415.2</ele>
      </trkpt>
      <trkpt lat="45.75362" lon="3.59849">
        <ele>414.2</ele>
      </trkpt>
      <trkpt lat="45.75368" lon="3.59832">
        <ele>413.1</ele>
      </trkpt>
      <trkpt lat="45.75376" lon="3.5981">
        <ele>412</ele>
      </trkpt>
      <trkpt lat="45.75384" lon="3.59787">
        <ele>410.9</ele>
      </trkpt>
      <trkpt lat="45.75391" lon="3.59765">
        <ele>409.7</ele>
      </trkpt>
      <trkpt lat="45.75394" lon="3.59755">
        <ele>409.2</ele>
      </trkpt>
      <trkpt lat="45.75396" lon="3.59728">
        <ele>408.2</ele>
      </trkpt>
      <trkpt lat="45.75399" lon="3.59702">
        <ele>407.4</ele>
      </trkpt>
      <trkpt lat="45.75402" lon="3.59681">
        <ele>406.8</ele>
      </trkpt>
      <trkpt lat="45.75405" lon="3.5966">
        <ele>406.4</ele>
      </trkpt>
      <trkpt lat="45.7541" lon="3.5963">
        <ele>406.1</ele>
      </trkpt>
      <trkpt lat="45.75415" lon="3.59615">
        <ele>405.8</ele>
      </trkpt>
      <trkpt lat="45.75419" lon="3.596">
        <ele>405.3</ele>
      </trkpt>
      <trkpt lat="45.75428" lon="3.59582">
        <ele>404.4</ele>
      </trkpt>
      <trkpt lat="45.75437" lon="3.59573">
        <ele>403.1</ele>
      </trkpt>
      <trkpt lat="45.75454" lon="3.59559">
        <ele>401.2</ele>
      </trkpt>
      <trkpt lat="45.75463" lon="3.59551">
        <ele>400</ele>
      </trkpt>
      <trkpt lat="45.75465" lon="3.59544">
        <ele>399.3</ele>
      </trkpt>
      <trkpt lat="45.75475" lon="3.59543">
        <ele>398.8</ele>
      </trkpt>
      <trkpt lat="45.75483" lon="3.59542">
        <ele>398.3</ele>
      </trkpt>
      <trkpt lat="45.75483" lon="3.59542">
        <ele>398.3</ele>
      </trkpt>
      <trkpt lat="45.75498" lon="3.59536">
        <ele>397.1</ele>
      </trkpt>
      <trkpt lat="45.75519" lon="3.59529">
        <ele>396.3</ele>
      </trkpt>
      <trkpt lat="45.75534" lon="3.59524">
        <ele>396</ele>
      </trkpt>
      <trkpt lat="45.75548" lon="3.59519">
        <ele>395.8</ele>
      </trkpt>
      <trkpt lat="45.75557" lon="3.59516">
        <ele>395.8</ele>
      </trkpt>
      <trkpt lat="45.75567" lon="3.59512">
        <ele>395.8</ele>
      </trkpt>
      <trkpt lat="45.75572" lon="3.59495">
        <ele>395.8</ele>
      </trkpt>
      <trkpt lat="45.75574" lon="3.59488">
        <ele>396.1</ele>
      </trkpt>
      <trkpt lat="45.75579" lon="3.59478">
        <ele>396.4</ele>
      </trkpt>
      <trkpt lat="45.75583" lon="3.5947">
        <ele>396.7</ele>
      </trkpt>
      <trkpt lat="45.75593" lon="3.59455">
        <ele>397</ele>
      </trkpt>
      <trkpt lat="45.75605" lon="3.59438">
        <ele>397.4</ele>
      </trkpt>
      <trkpt lat="45.75616" lon="3.59421">
        <ele>397.9</ele>
      </trkpt>
      <trkpt lat="45.75622" lon="3.59414">
        <ele>398.2</ele>
      </trkpt>
      <trkpt lat="45.75631" lon="3.594">
        <ele>399.1</ele>
      </trkpt>
      <trkpt lat="45.75641" lon="3.59386">
        <ele>400.1</ele>
      </trkpt>
      <trkpt lat="45.75654" lon="3.59367">
        <ele>401.5</ele>
      </trkpt>
      <trkpt lat="45.75666" lon="3.5935">
        <ele>402.8</ele>
      </trkpt>
      <trkpt lat="45.75676" lon="3.59331">
        <ele>403.6</ele>
      </trkpt>
      <trkpt lat="45.75678" lon="3.59323">
        <ele>403.7</ele>
      </trkpt>
      <trkpt lat="45.75679" lon="3.59316">
        <ele>403.9</ele>
      </trkpt>
      <trkpt lat="45.75677" lon="3.59305">
        <ele>404.2</ele>
      </trkpt>
      <trkpt lat="45.75674" lon="3.59299">
        <ele>404.5</ele>
      </trkpt>
      <trkpt lat="45.7567" lon="3.59292">
        <ele>404.9</ele>
      </trkpt>
      <trkpt lat="45.75662" lon="3.59282">
        <ele>405.2</ele>
      </trkpt>
      <trkpt lat="45.75655" lon="3.59274">
        <ele>405.5</ele>
      </trkpt>
      <trkpt lat="45.75652" lon="3.59268">
        <ele>405.7</ele>
      </trkpt>
      <trkpt lat="45.75649" lon="3.59259">
        <ele>405.9</ele>
      </trkpt>
      <trkpt lat="45.75647" lon="3.59247">
        <ele>406.3</ele>
      </trkpt>
      <trkpt lat="45.75644" lon="3.59221">
        <ele>407.2</ele>
      </trkpt>
      <trkpt lat="45.75643" lon="3.592">
        <ele>407.9</ele>
      </trkpt>
      <trkpt lat="45.75643" lon="3.59172">
        <ele>408.8</ele>
      </trkpt>
      <trkpt lat="45.75644" lon="3.59147">
        <ele>410.1</ele>
      </trkpt>
      <trkpt lat="45.75646" lon="3.59125">
        <ele>411.4</ele>
      </trkpt>
      <trkpt lat="45.75649" lon="3.59096">
        <ele>413.1</ele>
      </trkpt>
      <trkpt lat="45.75652" lon="3.59073">
        <ele>414.3</ele>
      </trkpt>
      <trkpt lat="45.75656" lon="3.59048">
        <ele>415.5</ele>
      </trkpt>
      <trkpt lat="45.7566" lon="3.59034">
        <ele>416.2</ele>
      </trkpt>
      <trkpt lat="45.7566" lon="3.59034">
        <ele>416.2</ele>
      </trkpt>
      <trkpt lat="45.75667" lon="3.59008">
        <ele>417.6</ele>
      </trkpt>
      <trkpt lat="45.75674" lon="3.58984">
        <ele>417.9</ele>
      </trkpt>
      <trkpt lat="45.75683" lon="3.58958">
        <ele>418.1</ele>
      </trkpt>
      <trkpt lat="45.75688" lon="3.58944">
        <ele>418.3</ele>
      </trkpt>
      <trkpt lat="45.7569" lon="3.58936">
        <ele>418.5</ele>
      </trkpt>
      <trkpt lat="45.75693" lon="3.58927">
        <ele>418.8</ele>
      </trkpt>
      <trkpt lat="45.75698" lon="3.58908">
        <ele>419.8</ele>
      </trkpt>
      <trkpt lat="45.757" lon="3.58901">
        <ele>420.4</ele>
      </trkpt>
      <trkpt lat="45.75702" lon="3.58893">
        <ele>421.2</ele>
      </trkpt>
      <trkpt lat="45.75703" lon="3.58886">
        <ele>421.8</ele>
      </trkpt>
      <trkpt lat="45.75704" lon="3.58879">
        <ele>422.4</ele>
      </trkpt>
      <trkpt lat="45.75706" lon="3.58863">
        <ele>423.9</ele>
      </trkpt>
      <trkpt lat="45.75709" lon="3.58835">
        <ele>426.4</ele>
      </trkpt>
      <trkpt lat="45.75713" lon="3.58808">
        <ele>427.6</ele>
      </trkpt>
      <trkpt lat="45.75716" lon="3.58782">
        <ele>428.5</ele>
      </trkpt>
      <trkpt lat="45.75717" lon="3.58773">
        <ele>428.8</ele>
      </trkpt>
      <trkpt lat="45.75718" lon="3.58766">
        <ele>429</ele>
      </trkpt>
      <trkpt lat="45.75719" lon="3.58755">
        <ele>429.4</ele>
      </trkpt>
      <trkpt lat="45.75719" lon="3.58729">
        <ele>429.6</ele>
      </trkpt>
      <trkpt lat="45.75718" lon="3.58708">
        <ele>429.7</ele>
      </trkpt>
      <trkpt lat="45.75717" lon="3.58692">
        <ele>429.8</ele>
      </trkpt>
      <trkpt lat="45.75714" lon="3.58674">
        <ele>429.9</ele>
      </trkpt>
      <trkpt lat="45.75712" lon="3.58656">
        <ele>430.3</ele>
      </trkpt>
      <trkpt lat="45.7571" lon="3.5864">
        <ele>430.8</ele>
      </trkpt>
      <trkpt lat="45.75708" lon="3.58623">
        <ele>431.3</ele>
      </trkpt>
      <trkpt lat="45.75706" lon="3.58607">
        <ele>431.8</ele>
      </trkpt>
      <trkpt lat="45.75704" lon="3.58592">
        <ele>432.3</ele>
      </trkpt>
      <trkpt lat="45.75704" lon="3.5857">
        <ele>432.6</ele>
      </trkpt>
      <trkpt lat="45.75703" lon="3.58547">
        <ele>432.8</ele>
      </trkpt>
      <trkpt lat="45.75703" lon="3.58529">
        <ele>432.8</ele>
      </trkpt>
      <trkpt lat="45.75704" lon="3.58514">
        <ele>432.9</ele>
      </trkpt>
      <trkpt lat="45.75705" lon="3.58492">
        <ele>432.6</ele>
      </trkpt>
      <trkpt lat="45.75705" lon="3.58483">
        <ele>432.3</ele>
      </trkpt>
      <trkpt lat="45.75708" lon="3.58464">
        <ele>431.5</ele>
      </trkpt>
      <trkpt lat="45.75709" lon="3.58456">
        <ele>431.2</ele>
      </trkpt>
      <trkpt lat="45.75711" lon="3.58448">
        <ele>430.9</ele>
      </trkpt>
      <trkpt lat="45.75712" lon="3.58441">
        <ele>430.6</ele>
      </trkpt>
      <trkpt lat="45.75715" lon="3.58431">
        <ele>430.3</ele>
      </trkpt>
      <trkpt lat="45.75713" lon="3.58424">
        <ele>429.9</ele>
      </trkpt>
      <trkpt lat="45.7572" lon="3.58417">
        <ele>429.9</ele>
      </trkpt>
      <trkpt lat="45.75728" lon="3.58394">
        <ele>430</ele>
      </trkpt>
      <trkpt lat="45.75734" lon="3.58377">
        <ele>430</ele>
      </trkpt>
      <trkpt lat="45.75734" lon="3.58377">
        <ele>430</ele>
      </trkpt>
      <trkpt lat="45.7574" lon="3.58362">
        <ele>430.1</ele>
      </trkpt>
      <trkpt lat="45.75743" lon="3.58353">
        <ele>430.1</ele>
      </trkpt>
      <trkpt lat="45.75748" lon="3.58343">
        <ele>430.1</ele>
      </trkpt>
      <trkpt lat="45.75752" lon="3.58338">
        <ele>430.2</ele>
      </trkpt>
      <trkpt lat="45.75755" lon="3.58333">
        <ele>430.3</ele>
      </trkpt>
      <trkpt lat="45.75755" lon="3.58325">
        <ele>430.6</ele>
      </trkpt>
      <trkpt lat="45.75757" lon="3.58316">
        <ele>431</ele>
      </trkpt>
      <trkpt lat="45.7576" lon="3.58305">
        <ele>431.5</ele>
      </trkpt>
      <trkpt lat="45.75762" lon="3.58292">
        <ele>432</ele>
      </trkpt>
      <trkpt lat="45.75763" lon="3.58275">
        <ele>432.7</ele>
      </trkpt>
      <trkpt lat="45.75764" lon="3.58262">
        <ele>433.1</ele>
      </trkpt>
      <trkpt lat="45.75763" lon="3.58246">
        <ele>433.5</ele>
      </trkpt>
      <trkpt lat="45.75761" lon="3.58226">
        <ele>433.8</ele>
      </trkpt>
      <trkpt lat="45.75759" lon="3.58207">
        <ele>434.1</ele>
      </trkpt>
      <trkpt lat="45.75757" lon="3.58199">
        <ele>434.3</ele>
      </trkpt>
      <trkpt lat="45.75756" lon="3.58191">
        <ele>434.4</ele>
      </trkpt>
      <trkpt lat="45.75753" lon="3.58174">
        <ele>434.8</ele>
      </trkpt>
      <trkpt lat="45.75753" lon="3.58174">
        <ele>434.8</ele>
      </trkpt>
      <trkpt lat="45.75751" lon="3.58166">
        <ele>435</ele>
      </trkpt>
      <trkpt lat="45.75749" lon="3.58158">
        <ele>435.2</ele>
      </trkpt>
      <trkpt lat="45.75747" lon="3.58147">
        <ele>435.4</ele>
      </trkpt>
      <trkpt lat="45.75744" lon="3.58134">
        <ele>435.6</ele>
      </trkpt>
      <trkpt lat="45.75742" lon="3.58126">
        <ele>435.7</ele>
      </trkpt>
      <trkpt lat="45.75738" lon="3.58115">
        <ele>435.8</ele>
      </trkpt>
      <trkpt lat="45.75736" lon="3.58107">
        <ele>435.9</ele>
      </trkpt>
      <trkpt lat="45.75731" lon="3.58093">
        <ele>436.1</ele>
      </trkpt>
      <trkpt lat="45.75724" lon="3.58075">
        <ele>436.5</ele>
      </trkpt>
      <trkpt lat="45.75719" lon="3.58061">
        <ele>437</ele>
      </trkpt>
      <trkpt lat="45.75712" lon="3.58039">
        <ele>437.9</ele>
      </trkpt>
      <trkpt lat="45.75703" lon="3.58017">
        <ele>439</ele>
      </trkpt>
      <trkpt lat="45.75692" lon="3.57992">
        <ele>440.7</ele>
      </trkpt>
      <trkpt lat="45.75685" lon="3.57977">
        <ele>442.1</ele>
      </trkpt>
      <trkpt lat="45.75677" lon="3.5796">
        <ele>443.7</ele>
      </trkpt>
      <trkpt lat="45.75671" lon="3.57945">
        <ele>445.3</ele>
      </trkpt>
      <trkpt lat="45.75667" lon="3.57933">
        <ele>446.4</ele>
      </trkpt>
      <trkpt lat="45.75661" lon="3.57919">
        <ele>447.8</ele>
      </trkpt>
      <trkpt lat="45.75657" lon="3.5791">
        <ele>448.7</ele>
      </trkpt>
      <trkpt lat="45.75653" lon="3.57903">
        <ele>449.6</ele>
      </trkpt>
      <trkpt lat="45.75639" lon="3.57889">
        <ele>451.2</ele>
      </trkpt>
      <trkpt lat="45.75634" lon="3.57879">
        <ele>452.3</ele>
      </trkpt>
      <trkpt lat="45.75626" lon="3.57863">
        <ele>454.1</ele>
      </trkpt>
      <trkpt lat="45.75622" lon="3.57856">
        <ele>454.9</ele>
      </trkpt>
      <trkpt lat="45.75616" lon="3.57846">
        <ele>456</ele>
      </trkpt>
      <trkpt lat="45.75609" lon="3.57836">
        <ele>457</ele>
      </trkpt>
      <trkpt lat="45.75602" lon="3.57824">
        <ele>457.9</ele>
      </trkpt>
      <trkpt lat="45.75595" lon="3.57811">
        <ele>458.7</ele>
      </trkpt>
      <trkpt lat="45.75588" lon="3.57797">
        <ele>459.6</ele>
      </trkpt>
    </trkseg>
  </trk>
</gpx>